<?xml version="1.0" encoding="UTF-8"?>
<gpx version="1.1" creator="https://www.youtrack.es" xsi:schemaLocation="http://www.topografix.com/GPX/1/1 http://www.topografix.com/GPX/1/1/gpx.xsd http://www.garmin.com/xmlschemas/GpxExtensions/v3 http://www.garmin.com/xmlschemas/GpxExtensionsv3.xsd http://www.garmin.com/xmlschemas/TrackPointExtension/v1 http://www.garmin.com/xmlschemas/TrackPointExtensionv1.xsd" xmlns:gpxtpx="http://www.garmin.com/xmlschemas/TrackPointExtension/v1" xmlns:gpxx="http://www.garmin.com/xmlschemas/GpxExtensions/v3" xmlns:xsi="http://www.w3.org/2001/XMLSchema-instance">
  <metadata>
    <link href="https://www.youtrack.es">
      <text>YouTrack.es</text>
    </link>
    <time>2026-05-08T06:41:51Z</time>
  </metadata>
  <wpt lat="41.3299" lon="-1.79182">
    <ele>-9999</ele>
    <name>Ateca</name>
  </wpt>
  <wpt lat="41.1127" lon="-1.41706">
    <ele>757.8</ele>
    <name>Daroca</name>
  </wpt>
  <wpt lat="40.7904" lon="-1.35382">
    <ele>940</ele>
    <name>Monreal del Campo</name>
  </wpt>
  <wpt lat="40.842" lon="-1.89114">
    <ele>-9999</ele>
    <name>Molina de Aragón</name>
  </wpt>
  <wpt lat="40.5865" lon="-1.78985">
    <ele>1359.8</ele>
    <name>Checa</name>
  </wpt>
  <wpt lat="40.4077" lon="-1.44348">
    <ele>1154</ele>
    <name>Albarracín</name>
  </wpt>
  <wpt lat="40.3466" lon="-1.11582">
    <ele>1023.7</ele>
    <name>Teruel</name>
  </wpt>
  <wpt lat="40.4535" lon="-1.29146">
    <ele>1023.7</ele>
    <name>Cella</name>
  </wpt>
  <wpt lat="41.3299" lon="-1.79182">
    <ele>-9999</ele>
    <name>Ateca</name>
  </wpt>
  <wpt lat="41.1127" lon="-1.41706">
    <ele>757.8</ele>
    <name>Daroca</name>
  </wpt>
  <wpt lat="40.7904" lon="-1.35382">
    <ele>940</ele>
    <name>Monreal del Campo</name>
  </wpt>
  <wpt lat="40.842" lon="-1.89114">
    <ele>-9999</ele>
    <name>Molina de Aragón</name>
  </wpt>
  <wpt lat="40.5865" lon="-1.78985">
    <ele>1359.8</ele>
    <name>Checa</name>
  </wpt>
  <wpt lat="40.4077" lon="-1.44348">
    <ele>1154</ele>
    <name>Albarracín</name>
  </wpt>
  <wpt lat="40.3466" lon="-1.11582">
    <ele>1023.7</ele>
    <name>Teruel</name>
  </wpt>
  <wpt lat="40.4535" lon="-1.29146">
    <ele>1023.7</ele>
    <name>Cella</name>
  </wpt>
  <trk>
    <src>https://www.youtrack.es</src>
    <link href="https://www.youtrack.es/ruta/27296-3-taifas-vv-ojos-negros">
      <text>YouTrack.es</text>
    </link>
    <trkseg>
      <trkpt lat="41.329902" lon="-1.79182">
        <ele>586.012</ele>
        <time>1999-11-30T00:00:00Z</time>
      </trkpt>
      <trkpt lat="41.330106" lon="-1.791646">
        <ele>586.032</ele>
        <time>1999-11-30T00:00:00Z</time>
      </trkpt>
      <trkpt lat="41.330353" lon="-1.791409">
        <ele>586.005</ele>
        <time>1999-11-30T00:00:00Z</time>
      </trkpt>
      <trkpt lat="41.330398" lon="-1.790967">
        <ele>585.008</ele>
        <time>1999-11-30T00:00:00Z</time>
      </trkpt>
      <trkpt lat="41.330168" lon="-1.789715">
        <ele>585.072</ele>
        <time>1999-11-30T00:00:00Z</time>
      </trkpt>
      <trkpt lat="41.329858" lon="-1.788179">
        <ele>583.096</ele>
        <time>1999-11-30T00:00:00Z</time>
      </trkpt>
      <trkpt lat="41.329702" lon="-1.78735">
        <ele>587.097</ele>
        <time>1999-11-30T00:00:00Z</time>
      </trkpt>
      <trkpt lat="41.329513" lon="-1.786785">
        <ele>583.081</ele>
        <time>1999-11-30T00:00:00Z</time>
      </trkpt>
      <trkpt lat="41.329286" lon="-1.786539">
        <ele>583.026</ele>
        <time>1999-11-30T00:00:00Z</time>
      </trkpt>
      <trkpt lat="41.329101" lon="-1.786415">
        <ele>584.025</ele>
        <time>1999-11-30T00:00:00Z</time>
      </trkpt>
      <trkpt lat="41.328859" lon="-1.786357">
        <ele>586.046</ele>
        <time>1999-11-30T00:00:00Z</time>
      </trkpt>
      <trkpt lat="41.328741" lon="-1.786305">
        <ele>588.084</ele>
        <time>1999-11-30T00:00:00Z</time>
      </trkpt>
      <trkpt lat="41.328672" lon="-1.786297">
        <ele>591.032</ele>
        <time>1999-11-30T00:00:00Z</time>
      </trkpt>
      <trkpt lat="41.328339" lon="-1.786356">
        <ele>596.092</ele>
        <time>1999-11-30T00:00:00Z</time>
      </trkpt>
      <trkpt lat="41.328101" lon="-1.786386">
        <ele>598.011</ele>
        <time>1999-11-30T00:00:00Z</time>
      </trkpt>
      <trkpt lat="41.327921" lon="-1.786373">
        <ele>598.008</ele>
        <time>1999-11-30T00:00:00Z</time>
      </trkpt>
      <trkpt lat="41.327732" lon="-1.786377">
        <ele>596.054</ele>
        <time>1999-11-30T00:00:00Z</time>
      </trkpt>
      <trkpt lat="41.327506" lon="-1.786203">
        <ele>599.098</ele>
        <time>1999-11-30T00:00:00Z</time>
      </trkpt>
      <trkpt lat="41.327508" lon="-1.786156">
        <ele>600.029</ele>
        <time>1999-11-30T00:00:00Z</time>
      </trkpt>
      <trkpt lat="41.327545" lon="-1.786105">
        <ele>602.013</ele>
        <time>1999-11-30T00:00:00Z</time>
      </trkpt>
      <trkpt lat="41.327618" lon="-1.786181">
        <ele>600.068</ele>
        <time>1999-11-30T00:00:00Z</time>
      </trkpt>
      <trkpt lat="41.327719" lon="-1.786037">
        <ele>606.037</ele>
        <time>1999-11-30T00:00:00Z</time>
      </trkpt>
      <trkpt lat="41.328036" lon="-1.785448">
        <ele>611.038</ele>
        <time>1999-11-30T00:00:00Z</time>
      </trkpt>
      <trkpt lat="41.327889" lon="-1.785187">
        <ele>609.056</ele>
        <time>1999-11-30T00:00:00Z</time>
      </trkpt>
      <trkpt lat="41.328167" lon="-1.784547">
        <ele>613.053</ele>
        <time>1999-11-30T00:00:00Z</time>
      </trkpt>
      <trkpt lat="41.328224" lon="-1.783988">
        <ele>617.004</ele>
        <time>1999-11-30T00:00:00Z</time>
      </trkpt>
      <trkpt lat="41.328123" lon="-1.783731">
        <ele>618.014</ele>
        <time>1999-11-30T00:00:00Z</time>
      </trkpt>
      <trkpt lat="41.32794" lon="-1.783412">
        <ele>621.008</ele>
        <time>1999-11-30T00:00:00Z</time>
      </trkpt>
      <trkpt lat="41.32764" lon="-1.783324">
        <ele>622.086</ele>
        <time>1999-11-30T00:00:00Z</time>
      </trkpt>
      <trkpt lat="41.327394" lon="-1.783109">
        <ele>622.060</ele>
        <time>1999-11-30T00:00:00Z</time>
      </trkpt>
      <trkpt lat="41.32709" lon="-1.782765">
        <ele>621.071</ele>
        <time>1999-11-30T00:00:00Z</time>
      </trkpt>
      <trkpt lat="41.326792" lon="-1.7825">
        <ele>619.085</ele>
        <time>1999-11-30T00:00:00Z</time>
      </trkpt>
      <trkpt lat="41.32643" lon="-1.782307">
        <ele>615.020</ele>
        <time>1999-11-30T00:00:00Z</time>
      </trkpt>
      <trkpt lat="41.325935" lon="-1.781767">
        <ele>616.059</ele>
        <time>1999-11-30T00:00:00Z</time>
      </trkpt>
      <trkpt lat="41.325595" lon="-1.781539">
        <ele>615.060</ele>
        <time>1999-11-30T00:00:00Z</time>
      </trkpt>
      <trkpt lat="41.325413" lon="-1.781144">
        <ele>615.028</ele>
        <time>1999-11-30T00:00:00Z</time>
      </trkpt>
      <trkpt lat="41.325215" lon="-1.780683">
        <ele>614.071</ele>
        <time>1999-11-30T00:00:00Z</time>
      </trkpt>
      <trkpt lat="41.32508" lon="-1.780123">
        <ele>610.041</ele>
        <time>1999-11-30T00:00:00Z</time>
      </trkpt>
      <trkpt lat="41.324973" lon="-1.779655">
        <ele>608.015</ele>
        <time>1999-11-30T00:00:00Z</time>
      </trkpt>
      <trkpt lat="41.324777" lon="-1.77943">
        <ele>607.008</ele>
        <time>1999-11-30T00:00:00Z</time>
      </trkpt>
      <trkpt lat="41.324861" lon="-1.779156">
        <ele>610.088</ele>
        <time>1999-11-30T00:00:00Z</time>
      </trkpt>
      <trkpt lat="41.324896" lon="-1.778867">
        <ele>611.022</ele>
        <time>1999-11-30T00:00:00Z</time>
      </trkpt>
      <trkpt lat="41.324953" lon="-1.778635">
        <ele>612.033</ele>
        <time>1999-11-30T00:00:00Z</time>
      </trkpt>
      <trkpt lat="41.325041" lon="-1.77842">
        <ele>615.067</ele>
        <time>1999-11-30T00:00:00Z</time>
      </trkpt>
      <trkpt lat="41.325053" lon="-1.778024">
        <ele>619.062</ele>
        <time>1999-11-30T00:00:00Z</time>
      </trkpt>
      <trkpt lat="41.324984" lon="-1.777547">
        <ele>618.011</ele>
        <time>1999-11-30T00:00:00Z</time>
      </trkpt>
      <trkpt lat="41.324887" lon="-1.777183">
        <ele>618.072</ele>
        <time>1999-11-30T00:00:00Z</time>
      </trkpt>
      <trkpt lat="41.324726" lon="-1.776808">
        <ele>617.020</ele>
        <time>1999-11-30T00:00:00Z</time>
      </trkpt>
      <trkpt lat="41.324613" lon="-1.776636">
        <ele>615.069</ele>
        <time>1999-11-30T00:00:00Z</time>
      </trkpt>
      <trkpt lat="41.324637" lon="-1.776443">
        <ele>615.004</ele>
        <time>1999-11-30T00:00:00Z</time>
      </trkpt>
      <trkpt lat="41.324758" lon="-1.776233">
        <ele>616.024</ele>
        <time>1999-11-30T00:00:00Z</time>
      </trkpt>
      <trkpt lat="41.324815" lon="-1.776052">
        <ele>616.008</ele>
        <time>1999-11-30T00:00:00Z</time>
      </trkpt>
      <trkpt lat="41.324782" lon="-1.775771">
        <ele>616.037</ele>
        <time>1999-11-30T00:00:00Z</time>
      </trkpt>
      <trkpt lat="41.324696" lon="-1.775563">
        <ele>615.011</ele>
        <time>1999-11-30T00:00:00Z</time>
      </trkpt>
      <trkpt lat="41.324701" lon="-1.775231">
        <ele>614.092</ele>
        <time>1999-11-30T00:00:00Z</time>
      </trkpt>
      <trkpt lat="41.324671" lon="-1.774837">
        <ele>615.026</ele>
        <time>1999-11-30T00:00:00Z</time>
      </trkpt>
      <trkpt lat="41.324624" lon="-1.774455">
        <ele>617.081</ele>
        <time>1999-11-30T00:00:00Z</time>
      </trkpt>
      <trkpt lat="41.324556" lon="-1.774032">
        <ele>615.020</ele>
        <time>1999-11-30T00:00:00Z</time>
      </trkpt>
      <trkpt lat="41.324577" lon="-1.773582">
        <ele>611.051</ele>
        <time>1999-11-30T00:00:00Z</time>
      </trkpt>
      <trkpt lat="41.32463" lon="-1.773406">
        <ele>611.019</ele>
        <time>1999-11-30T00:00:00Z</time>
      </trkpt>
      <trkpt lat="41.324587" lon="-1.773368">
        <ele>611.044</ele>
        <time>1999-11-30T00:00:00Z</time>
      </trkpt>
      <trkpt lat="41.324284" lon="-1.773329">
        <ele>609.005</ele>
        <time>1999-11-30T00:00:00Z</time>
      </trkpt>
      <trkpt lat="41.324135" lon="-1.773304">
        <ele>609.015</ele>
        <time>1999-11-30T00:00:00Z</time>
      </trkpt>
      <trkpt lat="41.324042" lon="-1.773306">
        <ele>608.008</ele>
        <time>1999-11-30T00:00:00Z</time>
      </trkpt>
      <trkpt lat="41.323837" lon="-1.773315">
        <ele>606.015</ele>
        <time>1999-11-30T00:00:00Z</time>
      </trkpt>
      <trkpt lat="41.323592" lon="-1.773305">
        <ele>604.029</ele>
        <time>1999-11-30T00:00:00Z</time>
      </trkpt>
      <trkpt lat="41.323406" lon="-1.773323">
        <ele>602.040</ele>
        <time>1999-11-30T00:00:00Z</time>
      </trkpt>
      <trkpt lat="41.323214" lon="-1.773354">
        <ele>600.084</ele>
        <time>1999-11-30T00:00:00Z</time>
      </trkpt>
      <trkpt lat="41.322972" lon="-1.773388">
        <ele>599.099</ele>
        <time>1999-11-30T00:00:00Z</time>
      </trkpt>
      <trkpt lat="41.322823" lon="-1.773391">
        <ele>598.078</ele>
        <time>1999-11-30T00:00:00Z</time>
      </trkpt>
      <trkpt lat="41.322704" lon="-1.773375">
        <ele>597.069</ele>
        <time>1999-11-30T00:00:00Z</time>
      </trkpt>
      <trkpt lat="41.322603" lon="-1.77333">
        <ele>595.077</ele>
        <time>1999-11-30T00:00:00Z</time>
      </trkpt>
      <trkpt lat="41.322465" lon="-1.773297">
        <ele>593.042</ele>
        <time>1999-11-30T00:00:00Z</time>
      </trkpt>
      <trkpt lat="41.322378" lon="-1.773302">
        <ele>592.022</ele>
        <time>1999-11-30T00:00:00Z</time>
      </trkpt>
      <trkpt lat="41.3223" lon="-1.773343">
        <ele>591.014</ele>
        <time>1999-11-30T00:00:00Z</time>
      </trkpt>
      <trkpt lat="41.322187" lon="-1.773414">
        <ele>591.008</ele>
        <time>1999-11-30T00:00:00Z</time>
      </trkpt>
      <trkpt lat="41.322039" lon="-1.77342">
        <ele>590.055</ele>
        <time>1999-11-30T00:00:00Z</time>
      </trkpt>
      <trkpt lat="41.321909" lon="-1.773455">
        <ele>590.019</ele>
        <time>1999-11-30T00:00:00Z</time>
      </trkpt>
      <trkpt lat="41.321807" lon="-1.773514">
        <ele>589.050</ele>
        <time>1999-11-30T00:00:00Z</time>
      </trkpt>
      <trkpt lat="41.321697" lon="-1.773648">
        <ele>588.094</ele>
        <time>1999-11-30T00:00:00Z</time>
      </trkpt>
      <trkpt lat="41.321586" lon="-1.773765">
        <ele>587.099</ele>
        <time>1999-11-30T00:00:00Z</time>
      </trkpt>
      <trkpt lat="41.321435" lon="-1.773883">
        <ele>586.038</ele>
        <time>1999-11-30T00:00:00Z</time>
      </trkpt>
      <trkpt lat="41.321317" lon="-1.773961">
        <ele>584.089</ele>
        <time>1999-11-30T00:00:00Z</time>
      </trkpt>
      <trkpt lat="41.321269" lon="-1.773994">
        <ele>584.017</ele>
        <time>1999-11-30T00:00:00Z</time>
      </trkpt>
      <trkpt lat="41.321176" lon="-1.773942">
        <ele>583.035</ele>
        <time>1999-11-30T00:00:00Z</time>
      </trkpt>
      <trkpt lat="41.321117" lon="-1.773749">
        <ele>583.086</ele>
        <time>1999-11-30T00:00:00Z</time>
      </trkpt>
      <trkpt lat="41.321044" lon="-1.773439">
        <ele>583.014</ele>
        <time>1999-11-30T00:00:00Z</time>
      </trkpt>
      <trkpt lat="41.320966" lon="-1.773211">
        <ele>583.008</ele>
        <time>1999-11-30T00:00:00Z</time>
      </trkpt>
      <trkpt lat="41.320929" lon="-1.773096">
        <ele>582.084</ele>
        <time>1999-11-30T00:00:00Z</time>
      </trkpt>
      <trkpt lat="41.320883" lon="-1.773062">
        <ele>582.038</ele>
        <time>1999-11-30T00:00:00Z</time>
      </trkpt>
      <trkpt lat="41.320818" lon="-1.773055">
        <ele>581.039</ele>
        <time>1999-11-30T00:00:00Z</time>
      </trkpt>
      <trkpt lat="41.320597" lon="-1.773092">
        <ele>579.033</ele>
        <time>1999-11-30T00:00:00Z</time>
      </trkpt>
      <trkpt lat="41.320491" lon="-1.773105">
        <ele>578.028</ele>
        <time>1999-11-30T00:00:00Z</time>
      </trkpt>
      <trkpt lat="41.320434" lon="-1.773084">
        <ele>578.087</ele>
        <time>1999-11-30T00:00:00Z</time>
      </trkpt>
      <trkpt lat="41.320339" lon="-1.772968">
        <ele>578.068</ele>
        <time>1999-11-30T00:00:00Z</time>
      </trkpt>
      <trkpt lat="41.320255" lon="-1.77283">
        <ele>577.026</ele>
        <time>1999-11-30T00:00:00Z</time>
      </trkpt>
      <trkpt lat="41.32018" lon="-1.772752">
        <ele>576.053</ele>
        <time>1999-11-30T00:00:00Z</time>
      </trkpt>
      <trkpt lat="41.320071" lon="-1.772718">
        <ele>576.004</ele>
        <time>1999-11-30T00:00:00Z</time>
      </trkpt>
      <trkpt lat="41.31993" lon="-1.772749">
        <ele>575.014</ele>
        <time>1999-11-30T00:00:00Z</time>
      </trkpt>
      <trkpt lat="41.319827" lon="-1.772758">
        <ele>574.008</ele>
        <time>1999-11-30T00:00:00Z</time>
      </trkpt>
      <trkpt lat="41.319784" lon="-1.772752">
        <ele>574.056</ele>
        <time>1999-11-30T00:00:00Z</time>
      </trkpt>
      <trkpt lat="41.31973" lon="-1.772724">
        <ele>574.040</ele>
        <time>1999-11-30T00:00:00Z</time>
      </trkpt>
      <trkpt lat="41.319373" lon="-1.77272">
        <ele>571.021</ele>
        <time>1999-11-30T00:00:00Z</time>
      </trkpt>
      <trkpt lat="41.319199" lon="-1.772709">
        <ele>571.085</ele>
        <time>1999-11-30T00:00:00Z</time>
      </trkpt>
      <trkpt lat="41.319015" lon="-1.772702">
        <ele>570.010</ele>
        <time>1999-11-30T00:00:00Z</time>
      </trkpt>
      <trkpt lat="41.31884" lon="-1.772716">
        <ele>570.049</ele>
        <time>1999-11-30T00:00:00Z</time>
      </trkpt>
      <trkpt lat="41.318748" lon="-1.772736">
        <ele>570.080</ele>
        <time>1999-11-30T00:00:00Z</time>
      </trkpt>
      <trkpt lat="41.3186" lon="-1.772788">
        <ele>570.098</ele>
        <time>1999-11-30T00:00:00Z</time>
      </trkpt>
      <trkpt lat="41.31849" lon="-1.772852">
        <ele>570.024</ele>
        <time>1999-11-30T00:00:00Z</time>
      </trkpt>
      <trkpt lat="41.318377" lon="-1.772871">
        <ele>570.004</ele>
        <time>1999-11-30T00:00:00Z</time>
      </trkpt>
      <trkpt lat="41.318276" lon="-1.772866">
        <ele>570.014</ele>
        <time>1999-11-30T00:00:00Z</time>
      </trkpt>
      <trkpt lat="41.31819" lon="-1.772829">
        <ele>570.008</ele>
        <time>1999-11-30T00:00:00Z</time>
      </trkpt>
      <trkpt lat="41.318113" lon="-1.772754">
        <ele>570.033</ele>
        <time>1999-11-30T00:00:00Z</time>
      </trkpt>
      <trkpt lat="41.318033" lon="-1.772613">
        <ele>570.077</ele>
        <time>1999-11-30T00:00:00Z</time>
      </trkpt>
      <trkpt lat="41.317897" lon="-1.77235">
        <ele>570.048</ele>
        <time>1999-11-30T00:00:00Z</time>
      </trkpt>
      <trkpt lat="41.317793" lon="-1.772119">
        <ele>570.062</ele>
        <time>1999-11-30T00:00:00Z</time>
      </trkpt>
      <trkpt lat="41.317739" lon="-1.771912">
        <ele>570.067</ele>
        <time>1999-11-30T00:00:00Z</time>
      </trkpt>
      <trkpt lat="41.317671" lon="-1.771615">
        <ele>570.056</ele>
        <time>1999-11-30T00:00:00Z</time>
      </trkpt>
      <trkpt lat="41.317633" lon="-1.77139">
        <ele>570.057</ele>
        <time>1999-11-30T00:00:00Z</time>
      </trkpt>
      <trkpt lat="41.31762" lon="-1.771196">
        <ele>570.085</ele>
        <time>1999-11-30T00:00:00Z</time>
      </trkpt>
      <trkpt lat="41.317632" lon="-1.770486">
        <ele>570.051</ele>
        <time>1999-11-30T00:00:00Z</time>
      </trkpt>
      <trkpt lat="41.317626" lon="-1.76994">
        <ele>570.001</ele>
        <time>1999-11-30T00:00:00Z</time>
      </trkpt>
      <trkpt lat="41.317647" lon="-1.769642">
        <ele>570.011</ele>
        <time>1999-11-30T00:00:00Z</time>
      </trkpt>
      <trkpt lat="41.317638" lon="-1.769266">
        <ele>570.008</ele>
        <time>1999-11-30T00:00:00Z</time>
      </trkpt>
      <trkpt lat="41.317636" lon="-1.768875">
        <ele>570.056</ele>
        <time>1999-11-30T00:00:00Z</time>
      </trkpt>
      <trkpt lat="41.317636" lon="-1.76838">
        <ele>570.060</ele>
        <time>1999-11-30T00:00:00Z</time>
      </trkpt>
      <trkpt lat="41.317644" lon="-1.767261">
        <ele>570.041</ele>
        <time>1999-11-30T00:00:00Z</time>
      </trkpt>
      <trkpt lat="41.317647" lon="-1.766117">
        <ele>570.075</ele>
        <time>1999-11-30T00:00:00Z</time>
      </trkpt>
      <trkpt lat="41.317661" lon="-1.765653">
        <ele>570.020</ele>
        <time>1999-11-30T00:00:00Z</time>
      </trkpt>
      <trkpt lat="41.317656" lon="-1.765259">
        <ele>570.099</ele>
        <time>1999-11-30T00:00:00Z</time>
      </trkpt>
      <trkpt lat="41.317644" lon="-1.764567">
        <ele>570.060</ele>
        <time>1999-11-30T00:00:00Z</time>
      </trkpt>
      <trkpt lat="41.317617" lon="-1.764263">
        <ele>570.098</ele>
        <time>1999-11-30T00:00:00Z</time>
      </trkpt>
      <trkpt lat="41.31756" lon="-1.763532">
        <ele>570.013</ele>
        <time>1999-11-30T00:00:00Z</time>
      </trkpt>
      <trkpt lat="41.317546" lon="-1.763252">
        <ele>570.043</ele>
        <time>1999-11-30T00:00:00Z</time>
      </trkpt>
      <trkpt lat="41.317567" lon="-1.76318">
        <ele>570.007</ele>
        <time>1999-11-30T00:00:00Z</time>
      </trkpt>
      <trkpt lat="41.317604" lon="-1.763079">
        <ele>570.008</ele>
        <time>1999-11-30T00:00:00Z</time>
      </trkpt>
      <trkpt lat="41.317626" lon="-1.762892">
        <ele>570.092</ele>
        <time>1999-11-30T00:00:00Z</time>
      </trkpt>
      <trkpt lat="41.317628" lon="-1.76282">
        <ele>570.026</ele>
        <time>1999-11-30T00:00:00Z</time>
      </trkpt>
      <trkpt lat="41.31759" lon="-1.762756">
        <ele>570.027</ele>
        <time>1999-11-30T00:00:00Z</time>
      </trkpt>
      <trkpt lat="41.317556" lon="-1.76266">
        <ele>570.021</ele>
        <time>1999-11-30T00:00:00Z</time>
      </trkpt>
      <trkpt lat="41.317571" lon="-1.762541">
        <ele>570.016</ele>
        <time>1999-11-30T00:00:00Z</time>
      </trkpt>
      <trkpt lat="41.317569" lon="-1.762341">
        <ele>570.075</ele>
        <time>1999-11-30T00:00:00Z</time>
      </trkpt>
      <trkpt lat="41.317589" lon="-1.762204">
        <ele>569.026</ele>
        <time>1999-11-30T00:00:00Z</time>
      </trkpt>
      <trkpt lat="41.317677" lon="-1.762066">
        <ele>569.084</ele>
        <time>1999-11-30T00:00:00Z</time>
      </trkpt>
      <trkpt lat="41.317753" lon="-1.761817">
        <ele>569.056</ele>
        <time>1999-11-30T00:00:00Z</time>
      </trkpt>
      <trkpt lat="41.317825" lon="-1.761486">
        <ele>569.059</ele>
        <time>1999-11-30T00:00:00Z</time>
      </trkpt>
      <trkpt lat="41.317851" lon="-1.761184">
        <ele>569.014</ele>
        <time>1999-11-30T00:00:00Z</time>
      </trkpt>
      <trkpt lat="41.317844" lon="-1.761023">
        <ele>569.008</ele>
        <time>1999-11-30T00:00:00Z</time>
      </trkpt>
      <trkpt lat="41.31781" lon="-1.760887">
        <ele>569.046</ele>
        <time>1999-11-30T00:00:00Z</time>
      </trkpt>
      <trkpt lat="41.317719" lon="-1.760703">
        <ele>569.090</ele>
        <time>1999-11-30T00:00:00Z</time>
      </trkpt>
      <trkpt lat="41.317639" lon="-1.760554">
        <ele>568.011</ele>
        <time>1999-11-30T00:00:00Z</time>
      </trkpt>
      <trkpt lat="41.317575" lon="-1.760368">
        <ele>569.095</ele>
        <time>1999-11-30T00:00:00Z</time>
      </trkpt>
      <trkpt lat="41.317485" lon="-1.760104">
        <ele>569.090</ele>
        <time>1999-11-30T00:00:00Z</time>
      </trkpt>
      <trkpt lat="41.317393" lon="-1.759844">
        <ele>569.029</ele>
        <time>1999-11-30T00:00:00Z</time>
      </trkpt>
      <trkpt lat="41.31739" lon="-1.759783">
        <ele>569.060</ele>
        <time>1999-11-30T00:00:00Z</time>
      </trkpt>
      <trkpt lat="41.317459" lon="-1.759725">
        <ele>569.098</ele>
        <time>1999-11-30T00:00:00Z</time>
      </trkpt>
      <trkpt lat="41.317742" lon="-1.759608">
        <ele>570.028</ele>
        <time>1999-11-30T00:00:00Z</time>
      </trkpt>
      <trkpt lat="41.318074" lon="-1.759494">
        <ele>570.089</ele>
        <time>1999-11-30T00:00:00Z</time>
      </trkpt>
      <trkpt lat="41.318185" lon="-1.759455">
        <ele>570.017</ele>
        <time>1999-11-30T00:00:00Z</time>
      </trkpt>
      <trkpt lat="41.317916" lon="-1.75804">
        <ele>570.008</ele>
        <time>1999-11-30T00:00:00Z</time>
      </trkpt>
      <trkpt lat="41.317425" lon="-1.755538">
        <ele>570.073</ele>
        <time>1999-11-30T00:00:00Z</time>
      </trkpt>
      <trkpt lat="41.316969" lon="-1.753162">
        <ele>569.037</ele>
        <time>1999-11-30T00:00:00Z</time>
      </trkpt>
      <trkpt lat="41.31649" lon="-1.750509">
        <ele>569.018</ele>
        <time>1999-11-30T00:00:00Z</time>
      </trkpt>
      <trkpt lat="41.316198" lon="-1.748862">
        <ele>570.012</ele>
        <time>1999-11-30T00:00:00Z</time>
      </trkpt>
      <trkpt lat="41.316112" lon="-1.748445">
        <ele>570.037</ele>
        <time>1999-11-30T00:00:00Z</time>
      </trkpt>
      <trkpt lat="41.316091" lon="-1.748281">
        <ele>569.036</ele>
        <time>1999-11-30T00:00:00Z</time>
      </trkpt>
      <trkpt lat="41.315986" lon="-1.747638">
        <ele>568.057</ele>
        <time>1999-11-30T00:00:00Z</time>
      </trkpt>
      <trkpt lat="41.315936" lon="-1.747283">
        <ele>567.055</ele>
        <time>1999-11-30T00:00:00Z</time>
      </trkpt>
      <trkpt lat="41.315844" lon="-1.746541">
        <ele>566.085</ele>
        <time>1999-11-30T00:00:00Z</time>
      </trkpt>
      <trkpt lat="41.315769" lon="-1.74588">
        <ele>566.089</ele>
        <time>1999-11-30T00:00:00Z</time>
      </trkpt>
      <trkpt lat="41.315734" lon="-1.745538">
        <ele>565.017</ele>
        <time>1999-11-30T00:00:00Z</time>
      </trkpt>
      <trkpt lat="41.315709" lon="-1.745442">
        <ele>565.008</ele>
        <time>1999-11-30T00:00:00Z</time>
      </trkpt>
      <trkpt lat="41.315673" lon="-1.745414">
        <ele>565.039</ele>
        <time>1999-11-30T00:00:00Z</time>
      </trkpt>
      <trkpt lat="41.315595" lon="-1.745382">
        <ele>565.023</ele>
        <time>1999-11-30T00:00:00Z</time>
      </trkpt>
      <trkpt lat="41.315458" lon="-1.745322">
        <ele>564.034</ele>
        <time>1999-11-30T00:00:00Z</time>
      </trkpt>
      <trkpt lat="41.315375" lon="-1.745261">
        <ele>564.038</ele>
        <time>1999-11-30T00:00:00Z</time>
      </trkpt>
      <trkpt lat="41.315319" lon="-1.745202">
        <ele>564.023</ele>
        <time>1999-11-30T00:00:00Z</time>
      </trkpt>
      <trkpt lat="41.315269" lon="-1.745124">
        <ele>564.042</ele>
        <time>1999-11-30T00:00:00Z</time>
      </trkpt>
      <trkpt lat="41.315206" lon="-1.744995">
        <ele>564.023</ele>
        <time>1999-11-30T00:00:00Z</time>
      </trkpt>
      <trkpt lat="41.315157" lon="-1.744865">
        <ele>564.021</ele>
        <time>1999-11-30T00:00:00Z</time>
      </trkpt>
      <trkpt lat="41.315137" lon="-1.744749">
        <ele>564.069</ele>
        <time>1999-11-30T00:00:00Z</time>
      </trkpt>
      <trkpt lat="41.315134" lon="-1.744652">
        <ele>564.004</ele>
        <time>1999-11-30T00:00:00Z</time>
      </trkpt>
      <trkpt lat="41.315134" lon="-1.744517">
        <ele>564.024</ele>
        <time>1999-11-30T00:00:00Z</time>
      </trkpt>
      <trkpt lat="41.315157" lon="-1.744361">
        <ele>565.008</ele>
        <time>1999-11-30T00:00:00Z</time>
      </trkpt>
      <trkpt lat="41.315193" lon="-1.744208">
        <ele>566.067</ele>
        <time>1999-11-30T00:00:00Z</time>
      </trkpt>
      <trkpt lat="41.31527" lon="-1.744022">
        <ele>567.061</ele>
        <time>1999-11-30T00:00:00Z</time>
      </trkpt>
      <trkpt lat="41.315306" lon="-1.743804">
        <ele>567.082</ele>
        <time>1999-11-30T00:00:00Z</time>
      </trkpt>
      <trkpt lat="41.315316" lon="-1.743633">
        <ele>567.046</ele>
        <time>1999-11-30T00:00:00Z</time>
      </trkpt>
      <trkpt lat="41.315314" lon="-1.743445">
        <ele>567.021</ele>
        <time>1999-11-30T00:00:00Z</time>
      </trkpt>
      <trkpt lat="41.315279" lon="-1.74331">
        <ele>567.090</ele>
        <time>1999-11-30T00:00:00Z</time>
      </trkpt>
      <trkpt lat="41.315236" lon="-1.743266">
        <ele>566.081</ele>
        <time>1999-11-30T00:00:00Z</time>
      </trkpt>
      <trkpt lat="41.315195" lon="-1.743221">
        <ele>566.089</ele>
        <time>1999-11-30T00:00:00Z</time>
      </trkpt>
      <trkpt lat="41.315083" lon="-1.743192">
        <ele>566.043</ele>
        <time>1999-11-30T00:00:00Z</time>
      </trkpt>
      <trkpt lat="41.314944" lon="-1.74316">
        <ele>566.064</ele>
        <time>1999-11-30T00:00:00Z</time>
      </trkpt>
      <trkpt lat="41.314895" lon="-1.743159">
        <ele>566.010</ele>
        <time>1999-11-30T00:00:00Z</time>
      </trkpt>
      <trkpt lat="41.314866" lon="-1.743111">
        <ele>566.008</ele>
        <time>1999-11-30T00:00:00Z</time>
      </trkpt>
      <trkpt lat="41.314854" lon="-1.743049">
        <ele>566.065</ele>
        <time>1999-11-30T00:00:00Z</time>
      </trkpt>
      <trkpt lat="41.314893" lon="-1.74278">
        <ele>566.089</ele>
        <time>1999-11-30T00:00:00Z</time>
      </trkpt>
      <trkpt lat="41.315229" lon="-1.740379">
        <ele>566.080</ele>
        <time>1999-11-30T00:00:00Z</time>
      </trkpt>
      <trkpt lat="41.315523" lon="-1.738474">
        <ele>564.064</ele>
        <time>1999-11-30T00:00:00Z</time>
      </trkpt>
      <trkpt lat="41.315504" lon="-1.738355">
        <ele>564.039</ele>
        <time>1999-11-30T00:00:00Z</time>
      </trkpt>
      <trkpt lat="41.315478" lon="-1.738248">
        <ele>564.068</ele>
        <time>1999-11-30T00:00:00Z</time>
      </trkpt>
      <trkpt lat="41.315438" lon="-1.73816">
        <ele>564.039</ele>
        <time>1999-11-30T00:00:00Z</time>
      </trkpt>
      <trkpt lat="41.31536" lon="-1.738107">
        <ele>564.017</ele>
        <time>1999-11-30T00:00:00Z</time>
      </trkpt>
      <trkpt lat="41.314855" lon="-1.73783">
        <ele>563.096</ele>
        <time>1999-11-30T00:00:00Z</time>
      </trkpt>
      <trkpt lat="41.314392" lon="-1.737642">
        <ele>563.031</ele>
        <time>1999-11-30T00:00:00Z</time>
      </trkpt>
      <trkpt lat="41.31402" lon="-1.737437">
        <ele>563.024</ele>
        <time>1999-11-30T00:00:00Z</time>
      </trkpt>
      <trkpt lat="41.313963" lon="-1.737437">
        <ele>563.008</ele>
        <time>1999-11-30T00:00:00Z</time>
      </trkpt>
      <trkpt lat="41.313935" lon="-1.737469">
        <ele>563.020</ele>
        <time>1999-11-30T00:00:00Z</time>
      </trkpt>
      <trkpt lat="41.313821" lon="-1.737948">
        <ele>563.094</ele>
        <time>1999-11-30T00:00:00Z</time>
      </trkpt>
      <trkpt lat="41.313737" lon="-1.738271">
        <ele>563.045</ele>
        <time>1999-11-30T00:00:00Z</time>
      </trkpt>
      <trkpt lat="41.313678" lon="-1.73843">
        <ele>563.039</ele>
        <time>1999-11-30T00:00:00Z</time>
      </trkpt>
      <trkpt lat="41.313616" lon="-1.738498">
        <ele>564.044</ele>
        <time>1999-11-30T00:00:00Z</time>
      </trkpt>
      <trkpt lat="41.313562" lon="-1.738513">
        <ele>564.053</ele>
        <time>1999-11-30T00:00:00Z</time>
      </trkpt>
      <trkpt lat="41.313442" lon="-1.738489">
        <ele>563.074</ele>
        <time>1999-11-30T00:00:00Z</time>
      </trkpt>
      <trkpt lat="41.313308" lon="-1.738473">
        <ele>563.092</ele>
        <time>1999-11-30T00:00:00Z</time>
      </trkpt>
      <trkpt lat="41.313188" lon="-1.738492">
        <ele>563.079</ele>
        <time>1999-11-30T00:00:00Z</time>
      </trkpt>
      <trkpt lat="41.313132" lon="-1.738518">
        <ele>562.005</ele>
        <time>1999-11-30T00:00:00Z</time>
      </trkpt>
      <trkpt lat="41.313082" lon="-1.738569">
        <ele>562.025</ele>
        <time>1999-11-30T00:00:00Z</time>
      </trkpt>
      <trkpt lat="41.313002" lon="-1.738744">
        <ele>562.008</ele>
        <time>1999-11-30T00:00:00Z</time>
      </trkpt>
      <trkpt lat="41.312849" lon="-1.739195">
        <ele>562.048</ele>
        <time>1999-11-30T00:00:00Z</time>
      </trkpt>
      <trkpt lat="41.312812" lon="-1.739228">
        <ele>562.042</ele>
        <time>1999-11-30T00:00:00Z</time>
      </trkpt>
      <trkpt lat="41.312758" lon="-1.739243">
        <ele>562.073</ele>
        <time>1999-11-30T00:00:00Z</time>
      </trkpt>
      <trkpt lat="41.312665" lon="-1.739223">
        <ele>561.057</ele>
        <time>1999-11-30T00:00:00Z</time>
      </trkpt>
      <trkpt lat="41.312029" lon="-1.738996">
        <ele>560.062</ele>
        <time>1999-11-30T00:00:00Z</time>
      </trkpt>
      <trkpt lat="41.311896" lon="-1.738933">
        <ele>560.041</ele>
        <time>1999-11-30T00:00:00Z</time>
      </trkpt>
      <trkpt lat="41.311689" lon="-1.738766">
        <ele>561.032</ele>
        <time>1999-11-30T00:00:00Z</time>
      </trkpt>
      <trkpt lat="41.311574" lon="-1.738604">
        <ele>561.040</ele>
        <time>1999-11-30T00:00:00Z</time>
      </trkpt>
      <trkpt lat="41.311457" lon="-1.738396">
        <ele>561.077</ele>
        <time>1999-11-30T00:00:00Z</time>
      </trkpt>
      <trkpt lat="41.311352" lon="-1.738161">
        <ele>562.061</ele>
        <time>1999-11-30T00:00:00Z</time>
      </trkpt>
      <trkpt lat="41.311278" lon="-1.737921">
        <ele>562.027</ele>
        <time>1999-11-30T00:00:00Z</time>
      </trkpt>
      <trkpt lat="41.311223" lon="-1.737761">
        <ele>562.008</ele>
        <time>1999-11-30T00:00:00Z</time>
      </trkpt>
      <trkpt lat="41.311172" lon="-1.737664">
        <ele>562.018</ele>
        <time>1999-11-30T00:00:00Z</time>
      </trkpt>
      <trkpt lat="41.3111" lon="-1.737568">
        <ele>563.052</ele>
        <time>1999-11-30T00:00:00Z</time>
      </trkpt>
      <trkpt lat="41.310985" lon="-1.737442">
        <ele>563.043</ele>
        <time>1999-11-30T00:00:00Z</time>
      </trkpt>
      <trkpt lat="41.310795" lon="-1.737307">
        <ele>564.087</ele>
        <time>1999-11-30T00:00:00Z</time>
      </trkpt>
      <trkpt lat="41.310567" lon="-1.737153">
        <ele>565.012</ele>
        <time>1999-11-30T00:00:00Z</time>
      </trkpt>
      <trkpt lat="41.310181" lon="-1.736924">
        <ele>565.021</ele>
        <time>1999-11-30T00:00:00Z</time>
      </trkpt>
      <trkpt lat="41.310012" lon="-1.736828">
        <ele>566.022</ele>
        <time>1999-11-30T00:00:00Z</time>
      </trkpt>
      <trkpt lat="41.30981" lon="-1.736683">
        <ele>566.070</ele>
        <time>1999-11-30T00:00:00Z</time>
      </trkpt>
      <trkpt lat="41.309629" lon="-1.73652">
        <ele>567.081</ele>
        <time>1999-11-30T00:00:00Z</time>
      </trkpt>
      <trkpt lat="41.309572" lon="-1.736483">
        <ele>567.061</ele>
        <time>1999-11-30T00:00:00Z</time>
      </trkpt>
      <trkpt lat="41.309526" lon="-1.736484">
        <ele>568.017</ele>
        <time>1999-11-30T00:00:00Z</time>
      </trkpt>
      <trkpt lat="41.309431" lon="-1.736504">
        <ele>569.008</ele>
        <time>1999-11-30T00:00:00Z</time>
      </trkpt>
      <trkpt lat="41.309337" lon="-1.736526">
        <ele>570.029</ele>
        <time>1999-11-30T00:00:00Z</time>
      </trkpt>
      <trkpt lat="41.30927" lon="-1.73652">
        <ele>572.073</ele>
        <time>1999-11-30T00:00:00Z</time>
      </trkpt>
      <trkpt lat="41.309225" lon="-1.73647">
        <ele>573.044</ele>
        <time>1999-11-30T00:00:00Z</time>
      </trkpt>
      <trkpt lat="41.309186" lon="-1.736397">
        <ele>574.038</ele>
        <time>1999-11-30T00:00:00Z</time>
      </trkpt>
      <trkpt lat="41.309152" lon="-1.736317">
        <ele>576.083</ele>
        <time>1999-11-30T00:00:00Z</time>
      </trkpt>
      <trkpt lat="41.309139" lon="-1.736209">
        <ele>577.012</ele>
        <time>1999-11-30T00:00:00Z</time>
      </trkpt>
      <trkpt lat="41.309152" lon="-1.736104">
        <ele>577.093</ele>
        <time>1999-11-30T00:00:00Z</time>
      </trkpt>
      <trkpt lat="41.309202" lon="-1.735834">
        <ele>576.011</ele>
        <time>1999-11-30T00:00:00Z</time>
      </trkpt>
      <trkpt lat="41.309292" lon="-1.735481">
        <ele>575.072</ele>
        <time>1999-11-30T00:00:00Z</time>
      </trkpt>
      <trkpt lat="41.309302" lon="-1.735345">
        <ele>575.013</ele>
        <time>1999-11-30T00:00:00Z</time>
      </trkpt>
      <trkpt lat="41.30928" lon="-1.735153">
        <ele>577.014</ele>
        <time>1999-11-30T00:00:00Z</time>
      </trkpt>
      <trkpt lat="41.309136" lon="-1.734589">
        <ele>583.008</ele>
        <time>1999-11-30T00:00:00Z</time>
      </trkpt>
      <trkpt lat="41.30908" lon="-1.734266">
        <ele>583.068</ele>
        <time>1999-11-30T00:00:00Z</time>
      </trkpt>
      <trkpt lat="41.30907" lon="-1.734116">
        <ele>582.012</ele>
        <time>1999-11-30T00:00:00Z</time>
      </trkpt>
      <trkpt lat="41.309069" lon="-1.733934">
        <ele>581.023</ele>
        <time>1999-11-30T00:00:00Z</time>
      </trkpt>
      <trkpt lat="41.309052" lon="-1.733792">
        <ele>581.047</ele>
        <time>1999-11-30T00:00:00Z</time>
      </trkpt>
      <trkpt lat="41.308999" lon="-1.733668">
        <ele>583.062</ele>
        <time>1999-11-30T00:00:00Z</time>
      </trkpt>
      <trkpt lat="41.30893" lon="-1.73355">
        <ele>585.031</ele>
        <time>1999-11-30T00:00:00Z</time>
      </trkpt>
      <trkpt lat="41.3088" lon="-1.733424">
        <ele>587.092</ele>
        <time>1999-11-30T00:00:00Z</time>
      </trkpt>
      <trkpt lat="41.308702" lon="-1.733333">
        <ele>587.010</ele>
        <time>1999-11-30T00:00:00Z</time>
      </trkpt>
      <trkpt lat="41.308635" lon="-1.733233">
        <ele>587.093</ele>
        <time>1999-11-30T00:00:00Z</time>
      </trkpt>
      <trkpt lat="41.308606" lon="-1.733168">
        <ele>588.065</ele>
        <time>1999-11-30T00:00:00Z</time>
      </trkpt>
      <trkpt lat="41.308554" lon="-1.733128">
        <ele>588.021</ele>
        <time>1999-11-30T00:00:00Z</time>
      </trkpt>
      <trkpt lat="41.308418" lon="-1.733162">
        <ele>589.008</ele>
        <time>1999-11-30T00:00:00Z</time>
      </trkpt>
      <trkpt lat="41.307799" lon="-1.73321">
        <ele>594.010</ele>
        <time>1999-11-30T00:00:00Z</time>
      </trkpt>
      <trkpt lat="41.307701" lon="-1.733201">
        <ele>597.074</ele>
        <time>1999-11-30T00:00:00Z</time>
      </trkpt>
      <trkpt lat="41.307545" lon="-1.733135">
        <ele>600.025</ele>
        <time>1999-11-30T00:00:00Z</time>
      </trkpt>
      <trkpt lat="41.307386" lon="-1.733055">
        <ele>603.019</ele>
        <time>1999-11-30T00:00:00Z</time>
      </trkpt>
      <trkpt lat="41.307147" lon="-1.732845">
        <ele>602.024</ele>
        <time>1999-11-30T00:00:00Z</time>
      </trkpt>
      <trkpt lat="41.306951" lon="-1.732732">
        <ele>602.053</ele>
        <time>1999-11-30T00:00:00Z</time>
      </trkpt>
      <trkpt lat="41.306714" lon="-1.732649">
        <ele>606.064</ele>
        <time>1999-11-30T00:00:00Z</time>
      </trkpt>
      <trkpt lat="41.306486" lon="-1.732619">
        <ele>609.072</ele>
        <time>1999-11-30T00:00:00Z</time>
      </trkpt>
      <trkpt lat="41.30631" lon="-1.732649">
        <ele>610.076</ele>
        <time>1999-11-30T00:00:00Z</time>
      </trkpt>
      <trkpt lat="41.306016" lon="-1.732779">
        <ele>614.090</ele>
        <time>1999-11-30T00:00:00Z</time>
      </trkpt>
      <trkpt lat="41.305696" lon="-1.732952">
        <ele>616.019</ele>
        <time>1999-11-30T00:00:00Z</time>
      </trkpt>
      <trkpt lat="41.305335" lon="-1.733134">
        <ele>621.008</ele>
        <time>1999-11-30T00:00:00Z</time>
      </trkpt>
      <trkpt lat="41.304772" lon="-1.733485">
        <ele>623.098</ele>
        <time>1999-11-30T00:00:00Z</time>
      </trkpt>
      <trkpt lat="41.304351" lon="-1.733747">
        <ele>627.072</ele>
        <time>1999-11-30T00:00:00Z</time>
      </trkpt>
      <trkpt lat="41.303992" lon="-1.733977">
        <ele>630.033</ele>
        <time>1999-11-30T00:00:00Z</time>
      </trkpt>
      <trkpt lat="41.303806" lon="-1.734179">
        <ele>634.077</ele>
        <time>1999-11-30T00:00:00Z</time>
      </trkpt>
      <trkpt lat="41.303463" lon="-1.734619">
        <ele>636.092</ele>
        <time>1999-11-30T00:00:00Z</time>
      </trkpt>
      <trkpt lat="41.303117" lon="-1.735061">
        <ele>642.081</ele>
        <time>1999-11-30T00:00:00Z</time>
      </trkpt>
      <trkpt lat="41.302769" lon="-1.73559">
        <ele>646.022</ele>
        <time>1999-11-30T00:00:00Z</time>
      </trkpt>
      <trkpt lat="41.302601" lon="-1.735934">
        <ele>647.090</ele>
        <time>1999-11-30T00:00:00Z</time>
      </trkpt>
      <trkpt lat="41.302465" lon="-1.736376">
        <ele>648.099</ele>
        <time>1999-11-30T00:00:00Z</time>
      </trkpt>
      <trkpt lat="41.302275" lon="-1.736875">
        <ele>653.007</ele>
        <time>1999-11-30T00:00:00Z</time>
      </trkpt>
      <trkpt lat="41.302112" lon="-1.737219">
        <ele>654.027</ele>
        <time>1999-11-30T00:00:00Z</time>
      </trkpt>
      <trkpt lat="41.301933" lon="-1.737414">
        <ele>653.008</ele>
        <time>1999-11-30T00:00:00Z</time>
      </trkpt>
      <trkpt lat="41.301728" lon="-1.737494">
        <ele>655.060</ele>
        <time>1999-11-30T00:00:00Z</time>
      </trkpt>
      <trkpt lat="41.301473" lon="-1.737509">
        <ele>658.074</ele>
        <time>1999-11-30T00:00:00Z</time>
      </trkpt>
      <trkpt lat="41.301288" lon="-1.737539">
        <ele>659.085</ele>
        <time>1999-11-30T00:00:00Z</time>
      </trkpt>
      <trkpt lat="41.301075" lon="-1.737651">
        <ele>663.039</ele>
        <time>1999-11-30T00:00:00Z</time>
      </trkpt>
      <trkpt lat="41.300842" lon="-1.737815">
        <ele>662.094</ele>
        <time>1999-11-30T00:00:00Z</time>
      </trkpt>
      <trkpt lat="41.300619" lon="-1.738043">
        <ele>663.053</ele>
        <time>1999-11-30T00:00:00Z</time>
      </trkpt>
      <trkpt lat="41.30044" lon="-1.738242">
        <ele>663.054</ele>
        <time>1999-11-30T00:00:00Z</time>
      </trkpt>
      <trkpt lat="41.300202" lon="-1.738522">
        <ele>662.092</ele>
        <time>1999-11-30T00:00:00Z</time>
      </trkpt>
      <trkpt lat="41.300023" lon="-1.738662">
        <ele>664.089</ele>
        <time>1999-11-30T00:00:00Z</time>
      </trkpt>
      <trkpt lat="41.299844" lon="-1.738774">
        <ele>663.006</ele>
        <time>1999-11-30T00:00:00Z</time>
      </trkpt>
      <trkpt lat="41.299712" lon="-1.738806">
        <ele>664.026</ele>
        <time>1999-11-30T00:00:00Z</time>
      </trkpt>
      <trkpt lat="41.299602" lon="-1.738796">
        <ele>663.008</ele>
        <time>1999-11-30T00:00:00Z</time>
      </trkpt>
      <trkpt lat="41.299489" lon="-1.738761">
        <ele>662.089</ele>
        <time>1999-11-30T00:00:00Z</time>
      </trkpt>
      <trkpt lat="41.299363" lon="-1.738725">
        <ele>664.093</ele>
        <time>1999-11-30T00:00:00Z</time>
      </trkpt>
      <trkpt lat="41.299201" lon="-1.73874">
        <ele>667.014</ele>
        <time>1999-11-30T00:00:00Z</time>
      </trkpt>
      <trkpt lat="41.298363" lon="-1.739269">
        <ele>669.048</ele>
        <time>1999-11-30T00:00:00Z</time>
      </trkpt>
      <trkpt lat="41.297292" lon="-1.73983">
        <ele>670.033</ele>
        <time>1999-11-30T00:00:00Z</time>
      </trkpt>
      <trkpt lat="41.297056" lon="-1.739782">
        <ele>670.042</ele>
        <time>1999-11-30T00:00:00Z</time>
      </trkpt>
      <trkpt lat="41.296744" lon="-1.739641">
        <ele>671.053</ele>
        <time>1999-11-30T00:00:00Z</time>
      </trkpt>
      <trkpt lat="41.296435" lon="-1.739559">
        <ele>671.051</ele>
        <time>1999-11-30T00:00:00Z</time>
      </trkpt>
      <trkpt lat="41.295978" lon="-1.739518">
        <ele>674.084</ele>
        <time>1999-11-30T00:00:00Z</time>
      </trkpt>
      <trkpt lat="41.295679" lon="-1.739524">
        <ele>676.007</ele>
        <time>1999-11-30T00:00:00Z</time>
      </trkpt>
      <trkpt lat="41.295531" lon="-1.739569">
        <ele>677.017</ele>
        <time>1999-11-30T00:00:00Z</time>
      </trkpt>
      <trkpt lat="41.295396" lon="-1.739582">
        <ele>677.008</ele>
        <time>1999-11-30T00:00:00Z</time>
      </trkpt>
      <trkpt lat="41.295199" lon="-1.73959">
        <ele>678.029</ele>
        <time>1999-11-30T00:00:00Z</time>
      </trkpt>
      <trkpt lat="41.295" lon="-1.739629">
        <ele>679.053</ele>
        <time>1999-11-30T00:00:00Z</time>
      </trkpt>
      <trkpt lat="41.294729" lon="-1.739694">
        <ele>680.034</ele>
        <time>1999-11-30T00:00:00Z</time>
      </trkpt>
      <trkpt lat="41.294572" lon="-1.739704">
        <ele>680.078</ele>
        <time>1999-11-30T00:00:00Z</time>
      </trkpt>
      <trkpt lat="41.294425" lon="-1.739622">
        <ele>680.063</ele>
        <time>1999-11-30T00:00:00Z</time>
      </trkpt>
      <trkpt lat="41.293919" lon="-1.739358">
        <ele>680.092</ele>
        <time>1999-11-30T00:00:00Z</time>
      </trkpt>
      <trkpt lat="41.293458" lon="-1.73918">
        <ele>680.073</ele>
        <time>1999-11-30T00:00:00Z</time>
      </trkpt>
      <trkpt lat="41.293303" lon="-1.739155">
        <ele>680.011</ele>
        <time>1999-11-30T00:00:00Z</time>
      </trkpt>
      <trkpt lat="41.293163" lon="-1.73919">
        <ele>680.096</ele>
        <time>1999-11-30T00:00:00Z</time>
      </trkpt>
      <trkpt lat="41.292925" lon="-1.739312">
        <ele>681.031</ele>
        <time>1999-11-30T00:00:00Z</time>
      </trkpt>
      <trkpt lat="41.292839" lon="-1.739346">
        <ele>682.024</ele>
        <time>1999-11-30T00:00:00Z</time>
      </trkpt>
      <trkpt lat="41.292747" lon="-1.739369">
        <ele>683.008</ele>
        <time>1999-11-30T00:00:00Z</time>
      </trkpt>
      <trkpt lat="41.292687" lon="-1.739403">
        <ele>683.060</ele>
        <time>1999-11-30T00:00:00Z</time>
      </trkpt>
      <trkpt lat="41.292603" lon="-1.739448">
        <ele>684.044</ele>
        <time>1999-11-30T00:00:00Z</time>
      </trkpt>
      <trkpt lat="41.292491" lon="-1.739488">
        <ele>685.025</ele>
        <time>1999-11-30T00:00:00Z</time>
      </trkpt>
      <trkpt lat="41.292373" lon="-1.739562">
        <ele>686.069</ele>
        <time>1999-11-30T00:00:00Z</time>
      </trkpt>
      <trkpt lat="41.292276" lon="-1.739704">
        <ele>688.074</ele>
        <time>1999-11-30T00:00:00Z</time>
      </trkpt>
      <trkpt lat="41.292119" lon="-1.739843">
        <ele>689.023</ele>
        <time>1999-11-30T00:00:00Z</time>
      </trkpt>
      <trkpt lat="41.291738" lon="-1.740095">
        <ele>689.054</ele>
        <time>1999-11-30T00:00:00Z</time>
      </trkpt>
      <trkpt lat="41.291125" lon="-1.740562">
        <ele>691.042</ele>
        <time>1999-11-30T00:00:00Z</time>
      </trkpt>
      <trkpt lat="41.290711" lon="-1.740898">
        <ele>694.048</ele>
        <time>1999-11-30T00:00:00Z</time>
      </trkpt>
      <trkpt lat="41.290382" lon="-1.741026">
        <ele>696.061</ele>
        <time>1999-11-30T00:00:00Z</time>
      </trkpt>
      <trkpt lat="41.290126" lon="-1.741169">
        <ele>697.017</ele>
        <time>1999-11-30T00:00:00Z</time>
      </trkpt>
      <trkpt lat="41.289748" lon="-1.741323">
        <ele>699.008</ele>
        <time>1999-11-30T00:00:00Z</time>
      </trkpt>
      <trkpt lat="41.28939" lon="-1.741482">
        <ele>701.095</ele>
        <time>1999-11-30T00:00:00Z</time>
      </trkpt>
      <trkpt lat="41.289079" lon="-1.741578">
        <ele>702.019</ele>
        <time>1999-11-30T00:00:00Z</time>
      </trkpt>
      <trkpt lat="41.288775" lon="-1.741634">
        <ele>704.010</ele>
        <time>1999-11-30T00:00:00Z</time>
      </trkpt>
      <trkpt lat="41.288569" lon="-1.741667">
        <ele>706.044</ele>
        <time>1999-11-30T00:00:00Z</time>
      </trkpt>
      <trkpt lat="41.288177" lon="-1.741676">
        <ele>709.039</ele>
        <time>1999-11-30T00:00:00Z</time>
      </trkpt>
      <trkpt lat="41.287872" lon="-1.741777">
        <ele>710.068</ele>
        <time>1999-11-30T00:00:00Z</time>
      </trkpt>
      <trkpt lat="41.287643" lon="-1.741805">
        <ele>713.089</ele>
        <time>1999-11-30T00:00:00Z</time>
      </trkpt>
      <trkpt lat="41.287473" lon="-1.741862">
        <ele>715.037</ele>
        <time>1999-11-30T00:00:00Z</time>
      </trkpt>
      <trkpt lat="41.287271" lon="-1.741963">
        <ele>716.076</ele>
        <time>1999-11-30T00:00:00Z</time>
      </trkpt>
      <trkpt lat="41.287141" lon="-1.742003">
        <ele>717.090</ele>
        <time>1999-11-30T00:00:00Z</time>
      </trkpt>
      <trkpt lat="41.286879" lon="-1.742002">
        <ele>718.019</ele>
        <time>1999-11-30T00:00:00Z</time>
      </trkpt>
      <trkpt lat="41.286347" lon="-1.741936">
        <ele>724.008</ele>
        <time>1999-11-30T00:00:00Z</time>
      </trkpt>
      <trkpt lat="41.286299" lon="-1.741912">
        <ele>725.028</ele>
        <time>1999-11-30T00:00:00Z</time>
      </trkpt>
      <trkpt lat="41.286268" lon="-1.741781">
        <ele>727.012</ele>
        <time>1999-11-30T00:00:00Z</time>
      </trkpt>
      <trkpt lat="41.285994" lon="-1.741186">
        <ele>737.023</ele>
        <time>1999-11-30T00:00:00Z</time>
      </trkpt>
      <trkpt lat="41.285648" lon="-1.740679">
        <ele>740.037</ele>
        <time>1999-11-30T00:00:00Z</time>
      </trkpt>
      <trkpt lat="41.285032" lon="-1.740131">
        <ele>737.092</ele>
        <time>1999-11-30T00:00:00Z</time>
      </trkpt>
      <trkpt lat="41.284707" lon="-1.739908">
        <ele>735.091</ele>
        <time>1999-11-30T00:00:00Z</time>
      </trkpt>
      <trkpt lat="41.284311" lon="-1.739713">
        <ele>734.082</ele>
        <time>1999-11-30T00:00:00Z</time>
      </trkpt>
      <trkpt lat="41.283964" lon="-1.73946">
        <ele>732.070</ele>
        <time>1999-11-30T00:00:00Z</time>
      </trkpt>
      <trkpt lat="41.28375" lon="-1.739428">
        <ele>732.048</ele>
        <time>1999-11-30T00:00:00Z</time>
      </trkpt>
      <trkpt lat="41.283545" lon="-1.739334">
        <ele>732.061</ele>
        <time>1999-11-30T00:00:00Z</time>
      </trkpt>
      <trkpt lat="41.283243" lon="-1.73909">
        <ele>732.017</ele>
        <time>1999-11-30T00:00:00Z</time>
      </trkpt>
      <trkpt lat="41.28295" lon="-1.738893">
        <ele>734.008</ele>
        <time>1999-11-30T00:00:00Z</time>
      </trkpt>
      <trkpt lat="41.282558" lon="-1.738623">
        <ele>738.085</ele>
        <time>1999-11-30T00:00:00Z</time>
      </trkpt>
      <trkpt lat="41.282326" lon="-1.73836">
        <ele>739.019</ele>
        <time>1999-11-30T00:00:00Z</time>
      </trkpt>
      <trkpt lat="41.28194" lon="-1.738077">
        <ele>740.070</ele>
        <time>1999-11-30T00:00:00Z</time>
      </trkpt>
      <trkpt lat="41.281764" lon="-1.737945">
        <ele>741.054</ele>
        <time>1999-11-30T00:00:00Z</time>
      </trkpt>
      <trkpt lat="41.281662" lon="-1.737903">
        <ele>741.069</ele>
        <time>1999-11-30T00:00:00Z</time>
      </trkpt>
      <trkpt lat="41.281542" lon="-1.737884">
        <ele>742.078</ele>
        <time>1999-11-30T00:00:00Z</time>
      </trkpt>
      <trkpt lat="41.281421" lon="-1.737834">
        <ele>742.059</ele>
        <time>1999-11-30T00:00:00Z</time>
      </trkpt>
      <trkpt lat="41.281245" lon="-1.737683">
        <ele>742.037</ele>
        <time>1999-11-30T00:00:00Z</time>
      </trkpt>
      <trkpt lat="41.28106" lon="-1.737576">
        <ele>743.063</ele>
        <time>1999-11-30T00:00:00Z</time>
      </trkpt>
      <trkpt lat="41.280936" lon="-1.737466">
        <ele>743.044</ele>
        <time>1999-11-30T00:00:00Z</time>
      </trkpt>
      <trkpt lat="41.280698" lon="-1.737193">
        <ele>741.018</ele>
        <time>1999-11-30T00:00:00Z</time>
      </trkpt>
      <trkpt lat="41.280539" lon="-1.737038">
        <ele>739.008</ele>
        <time>1999-11-30T00:00:00Z</time>
      </trkpt>
      <trkpt lat="41.280304" lon="-1.736917">
        <ele>738.057</ele>
        <time>1999-11-30T00:00:00Z</time>
      </trkpt>
      <trkpt lat="41.280038" lon="-1.73681">
        <ele>736.051</ele>
        <time>1999-11-30T00:00:00Z</time>
      </trkpt>
      <trkpt lat="41.279808" lon="-1.73677">
        <ele>736.012</ele>
        <time>1999-11-30T00:00:00Z</time>
      </trkpt>
      <trkpt lat="41.27965" lon="-1.73663">
        <ele>735.036</ele>
        <time>1999-11-30T00:00:00Z</time>
      </trkpt>
      <trkpt lat="41.27944" lon="-1.736227">
        <ele>732.081</ele>
        <time>1999-11-30T00:00:00Z</time>
      </trkpt>
      <trkpt lat="41.278866" lon="-1.735658">
        <ele>731.020</ele>
        <time>1999-11-30T00:00:00Z</time>
      </trkpt>
      <trkpt lat="41.278434" lon="-1.735261">
        <ele>729.041</ele>
        <time>1999-11-30T00:00:00Z</time>
      </trkpt>
      <trkpt lat="41.278235" lon="-1.735164">
        <ele>729.059</ele>
        <time>1999-11-30T00:00:00Z</time>
      </trkpt>
      <trkpt lat="41.278014" lon="-1.735134">
        <ele>727.038</ele>
        <time>1999-11-30T00:00:00Z</time>
      </trkpt>
      <trkpt lat="41.277623" lon="-1.735144">
        <ele>725.070</ele>
        <time>1999-11-30T00:00:00Z</time>
      </trkpt>
      <trkpt lat="41.277212" lon="-1.735172">
        <ele>724.017</ele>
        <time>1999-11-30T00:00:00Z</time>
      </trkpt>
      <trkpt lat="41.276839" lon="-1.735104">
        <ele>723.008</ele>
        <time>1999-11-30T00:00:00Z</time>
      </trkpt>
      <trkpt lat="41.276084" lon="-1.734929">
        <ele>721.024</ele>
        <time>1999-11-30T00:00:00Z</time>
      </trkpt>
      <trkpt lat="41.27594" lon="-1.734876">
        <ele>720.048</ele>
        <time>1999-11-30T00:00:00Z</time>
      </trkpt>
      <trkpt lat="41.275876" lon="-1.7348">
        <ele>720.049</ele>
        <time>1999-11-30T00:00:00Z</time>
      </trkpt>
      <trkpt lat="41.275829" lon="-1.734653">
        <ele>720.023</ele>
        <time>1999-11-30T00:00:00Z</time>
      </trkpt>
      <trkpt lat="41.275749" lon="-1.734286">
        <ele>720.038</ele>
        <time>1999-11-30T00:00:00Z</time>
      </trkpt>
      <trkpt lat="41.275595" lon="-1.734013">
        <ele>719.087</ele>
        <time>1999-11-30T00:00:00Z</time>
      </trkpt>
      <trkpt lat="41.275329" lon="-1.733822">
        <ele>717.038</ele>
        <time>1999-11-30T00:00:00Z</time>
      </trkpt>
      <trkpt lat="41.275245" lon="-1.733608">
        <ele>716.036</ele>
        <time>1999-11-30T00:00:00Z</time>
      </trkpt>
      <trkpt lat="41.275083" lon="-1.733358">
        <ele>714.021</ele>
        <time>1999-11-30T00:00:00Z</time>
      </trkpt>
      <trkpt lat="41.274867" lon="-1.733109">
        <ele>712.041</ele>
        <time>1999-11-30T00:00:00Z</time>
      </trkpt>
      <trkpt lat="41.274654" lon="-1.732939">
        <ele>712.005</ele>
        <time>1999-11-30T00:00:00Z</time>
      </trkpt>
      <trkpt lat="41.274314" lon="-1.732702">
        <ele>713.008</ele>
        <time>1999-11-30T00:00:00Z</time>
      </trkpt>
      <trkpt lat="41.273863" lon="-1.732342">
        <ele>711.043</ele>
        <time>1999-11-30T00:00:00Z</time>
      </trkpt>
      <trkpt lat="41.273707" lon="-1.73217">
        <ele>711.047</ele>
        <time>1999-11-30T00:00:00Z</time>
      </trkpt>
      <trkpt lat="41.273551" lon="-1.731949">
        <ele>710.038</ele>
        <time>1999-11-30T00:00:00Z</time>
      </trkpt>
      <trkpt lat="41.273377" lon="-1.73154">
        <ele>710.082</ele>
        <time>1999-11-30T00:00:00Z</time>
      </trkpt>
      <trkpt lat="41.273234" lon="-1.731164">
        <ele>710.027</ele>
        <time>1999-11-30T00:00:00Z</time>
      </trkpt>
      <trkpt lat="41.273117" lon="-1.730758">
        <ele>710.096</ele>
        <time>1999-11-30T00:00:00Z</time>
      </trkpt>
      <trkpt lat="41.273087" lon="-1.730405">
        <ele>709.087</ele>
        <time>1999-11-30T00:00:00Z</time>
      </trkpt>
      <trkpt lat="41.27303" lon="-1.729959">
        <ele>706.045</ele>
        <time>1999-11-30T00:00:00Z</time>
      </trkpt>
      <trkpt lat="41.272917" lon="-1.729268">
        <ele>701.079</ele>
        <time>1999-11-30T00:00:00Z</time>
      </trkpt>
      <trkpt lat="41.272856" lon="-1.728936">
        <ele>700.005</ele>
        <time>1999-11-30T00:00:00Z</time>
      </trkpt>
      <trkpt lat="41.2728" lon="-1.728613">
        <ele>700.025</ele>
        <time>1999-11-30T00:00:00Z</time>
      </trkpt>
      <trkpt lat="41.272785" lon="-1.728261">
        <ele>700.008</ele>
        <time>1999-11-30T00:00:00Z</time>
      </trkpt>
      <trkpt lat="41.272746" lon="-1.727803">
        <ele>702.048</ele>
        <time>1999-11-30T00:00:00Z</time>
      </trkpt>
      <trkpt lat="41.272663" lon="-1.727377">
        <ele>703.012</ele>
        <time>1999-11-30T00:00:00Z</time>
      </trkpt>
      <trkpt lat="41.272557" lon="-1.726951">
        <ele>704.033</ele>
        <time>1999-11-30T00:00:00Z</time>
      </trkpt>
      <trkpt lat="41.272517" lon="-1.726812">
        <ele>704.057</ele>
        <time>1999-11-30T00:00:00Z</time>
      </trkpt>
      <trkpt lat="41.271929" lon="-1.727259">
        <ele>706.052</ele>
        <time>1999-11-30T00:00:00Z</time>
      </trkpt>
      <trkpt lat="41.271686" lon="-1.727613">
        <ele>709.091</ele>
        <time>1999-11-30T00:00:00Z</time>
      </trkpt>
      <trkpt lat="41.27099" lon="-1.726584">
        <ele>704.072</ele>
        <time>1999-11-30T00:00:00Z</time>
      </trkpt>
      <trkpt lat="41.270859" lon="-1.726638">
        <ele>704.090</ele>
        <time>1999-11-30T00:00:00Z</time>
      </trkpt>
      <trkpt lat="41.270681" lon="-1.726893">
        <ele>706.035</ele>
        <time>1999-11-30T00:00:00Z</time>
      </trkpt>
      <trkpt lat="41.270459" lon="-1.727222">
        <ele>708.086</ele>
        <time>1999-11-30T00:00:00Z</time>
      </trkpt>
      <trkpt lat="41.270283" lon="-1.727372">
        <ele>709.014</ele>
        <time>1999-11-30T00:00:00Z</time>
      </trkpt>
      <trkpt lat="41.270095" lon="-1.727528">
        <ele>709.008</ele>
        <time>1999-11-30T00:00:00Z</time>
      </trkpt>
      <trkpt lat="41.269963" lon="-1.727698">
        <ele>710.074</ele>
        <time>1999-11-30T00:00:00Z</time>
      </trkpt>
      <trkpt lat="41.269909" lon="-1.727878">
        <ele>710.088</ele>
        <time>1999-11-30T00:00:00Z</time>
      </trkpt>
      <trkpt lat="41.269948" lon="-1.728133">
        <ele>710.069</ele>
        <time>1999-11-30T00:00:00Z</time>
      </trkpt>
      <trkpt lat="41.270062" lon="-1.728461">
        <ele>710.033</ele>
        <time>1999-11-30T00:00:00Z</time>
      </trkpt>
      <trkpt lat="41.270172" lon="-1.728736">
        <ele>710.088</ele>
        <time>1999-11-30T00:00:00Z</time>
      </trkpt>
      <trkpt lat="41.270238" lon="-1.729083">
        <ele>710.047</ele>
        <time>1999-11-30T00:00:00Z</time>
      </trkpt>
      <trkpt lat="41.270235" lon="-1.729204">
        <ele>710.088</ele>
        <time>1999-11-30T00:00:00Z</time>
      </trkpt>
      <trkpt lat="41.270165" lon="-1.729305">
        <ele>710.036</ele>
        <time>1999-11-30T00:00:00Z</time>
      </trkpt>
      <trkpt lat="41.270146" lon="-1.729455">
        <ele>710.056</ele>
        <time>1999-11-30T00:00:00Z</time>
      </trkpt>
      <trkpt lat="41.270108" lon="-1.729656">
        <ele>710.059</ele>
        <time>1999-11-30T00:00:00Z</time>
      </trkpt>
      <trkpt lat="41.269996" lon="-1.729857">
        <ele>709.014</ele>
        <time>1999-11-30T00:00:00Z</time>
      </trkpt>
      <trkpt lat="41.269811" lon="-1.729917">
        <ele>709.008</ele>
        <time>1999-11-30T00:00:00Z</time>
      </trkpt>
      <trkpt lat="41.269505" lon="-1.72998">
        <ele>709.046</ele>
        <time>1999-11-30T00:00:00Z</time>
      </trkpt>
      <trkpt lat="41.269298" lon="-1.73006">
        <ele>709.010</ele>
        <time>1999-11-30T00:00:00Z</time>
      </trkpt>
      <trkpt lat="41.269192" lon="-1.730166">
        <ele>709.011</ele>
        <time>1999-11-30T00:00:00Z</time>
      </trkpt>
      <trkpt lat="41.269138" lon="-1.730451">
        <ele>710.085</ele>
        <time>1999-11-30T00:00:00Z</time>
      </trkpt>
      <trkpt lat="41.26912" lon="-1.730581">
        <ele>710.090</ele>
        <time>1999-11-30T00:00:00Z</time>
      </trkpt>
      <trkpt lat="41.269086" lon="-1.730684">
        <ele>710.029</ele>
        <time>1999-11-30T00:00:00Z</time>
      </trkpt>
      <trkpt lat="41.269023" lon="-1.730784">
        <ele>710.010</ele>
        <time>1999-11-30T00:00:00Z</time>
      </trkpt>
      <trkpt lat="41.268919" lon="-1.730835">
        <ele>710.068</ele>
        <time>1999-11-30T00:00:00Z</time>
      </trkpt>
      <trkpt lat="41.268706" lon="-1.730861">
        <ele>710.033</ele>
        <time>1999-11-30T00:00:00Z</time>
      </trkpt>
      <trkpt lat="41.268495" lon="-1.73091">
        <ele>710.023</ele>
        <time>1999-11-30T00:00:00Z</time>
      </trkpt>
      <trkpt lat="41.26839" lon="-1.731003">
        <ele>710.015</ele>
        <time>1999-11-30T00:00:00Z</time>
      </trkpt>
      <trkpt lat="41.268302" lon="-1.731078">
        <ele>710.008</ele>
        <time>1999-11-30T00:00:00Z</time>
      </trkpt>
      <trkpt lat="41.268117" lon="-1.731153">
        <ele>710.054</ele>
        <time>1999-11-30T00:00:00Z</time>
      </trkpt>
      <trkpt lat="41.267991" lon="-1.731272">
        <ele>710.068</ele>
        <time>1999-11-30T00:00:00Z</time>
      </trkpt>
      <trkpt lat="41.267771" lon="-1.731576">
        <ele>711.039</ele>
        <time>1999-11-30T00:00:00Z</time>
      </trkpt>
      <trkpt lat="41.267446" lon="-1.731876">
        <ele>717.043</ele>
        <time>1999-11-30T00:00:00Z</time>
      </trkpt>
      <trkpt lat="41.267176" lon="-1.732071">
        <ele>719.088</ele>
        <time>1999-11-30T00:00:00Z</time>
      </trkpt>
      <trkpt lat="41.267043" lon="-1.732254">
        <ele>719.077</ele>
        <time>1999-11-30T00:00:00Z</time>
      </trkpt>
      <trkpt lat="41.267002" lon="-1.732453">
        <ele>719.028</ele>
        <time>1999-11-30T00:00:00Z</time>
      </trkpt>
      <trkpt lat="41.266955" lon="-1.73271">
        <ele>719.046</ele>
        <time>1999-11-30T00:00:00Z</time>
      </trkpt>
      <trkpt lat="41.266869" lon="-1.732778">
        <ele>719.092</ele>
        <time>1999-11-30T00:00:00Z</time>
      </trkpt>
      <trkpt lat="41.26679" lon="-1.732778">
        <ele>719.073</ele>
        <time>1999-11-30T00:00:00Z</time>
      </trkpt>
      <trkpt lat="41.266674" lon="-1.732743">
        <ele>720.020</ele>
        <time>1999-11-30T00:00:00Z</time>
      </trkpt>
      <trkpt lat="41.266585" lon="-1.732743">
        <ele>720.008</ele>
        <time>1999-11-30T00:00:00Z</time>
      </trkpt>
      <trkpt lat="41.266529" lon="-1.732828">
        <ele>720.040</ele>
        <time>1999-11-30T00:00:00Z</time>
      </trkpt>
      <trkpt lat="41.266422" lon="-1.733148">
        <ele>721.044</ele>
        <time>1999-11-30T00:00:00Z</time>
      </trkpt>
      <trkpt lat="41.266281" lon="-1.733233">
        <ele>722.085</ele>
        <time>1999-11-30T00:00:00Z</time>
      </trkpt>
      <trkpt lat="41.2661" lon="-1.733244">
        <ele>722.099</ele>
        <time>1999-11-30T00:00:00Z</time>
      </trkpt>
      <trkpt lat="41.265796" lon="-1.733073">
        <ele>722.064</ele>
        <time>1999-11-30T00:00:00Z</time>
      </trkpt>
      <trkpt lat="41.265517" lon="-1.732901">
        <ele>724.083</ele>
        <time>1999-11-30T00:00:00Z</time>
      </trkpt>
      <trkpt lat="41.265312" lon="-1.732905">
        <ele>726.084</ele>
        <time>1999-11-30T00:00:00Z</time>
      </trkpt>
      <trkpt lat="41.265136" lon="-1.73305">
        <ele>728.082</ele>
        <time>1999-11-30T00:00:00Z</time>
      </trkpt>
      <trkpt lat="41.264932" lon="-1.733172">
        <ele>729.062</ele>
        <time>1999-11-30T00:00:00Z</time>
      </trkpt>
      <trkpt lat="41.264746" lon="-1.733282">
        <ele>729.083</ele>
        <time>1999-11-30T00:00:00Z</time>
      </trkpt>
      <trkpt lat="41.264642" lon="-1.733509">
        <ele>730.011</ele>
        <time>1999-11-30T00:00:00Z</time>
      </trkpt>
      <trkpt lat="41.264538" lon="-1.733794">
        <ele>730.008</ele>
        <time>1999-11-30T00:00:00Z</time>
      </trkpt>
      <trkpt lat="41.26441" lon="-1.733896">
        <ele>730.057</ele>
        <time>1999-11-30T00:00:00Z</time>
      </trkpt>
      <trkpt lat="41.264202" lon="-1.733975">
        <ele>730.021</ele>
        <time>1999-11-30T00:00:00Z</time>
      </trkpt>
      <trkpt lat="41.263955" lon="-1.734076">
        <ele>730.092</ele>
        <time>1999-11-30T00:00:00Z</time>
      </trkpt>
      <trkpt lat="41.263691" lon="-1.734252">
        <ele>731.066</ele>
        <time>1999-11-30T00:00:00Z</time>
      </trkpt>
      <trkpt lat="41.263481" lon="-1.734436">
        <ele>731.071</ele>
        <time>1999-11-30T00:00:00Z</time>
      </trkpt>
      <trkpt lat="41.263412" lon="-1.7344">
        <ele>731.030</ele>
        <time>1999-11-30T00:00:00Z</time>
      </trkpt>
      <trkpt lat="41.263353" lon="-1.734103">
        <ele>735.021</ele>
        <time>1999-11-30T00:00:00Z</time>
      </trkpt>
      <trkpt lat="41.263243" lon="-1.733799">
        <ele>739.099</ele>
        <time>1999-11-30T00:00:00Z</time>
      </trkpt>
      <trkpt lat="41.263116" lon="-1.733532">
        <ele>740.071</ele>
        <time>1999-11-30T00:00:00Z</time>
      </trkpt>
      <trkpt lat="41.262971" lon="-1.73324">
        <ele>741.041</ele>
        <time>1999-11-30T00:00:00Z</time>
      </trkpt>
      <trkpt lat="41.262862" lon="-1.732926">
        <ele>741.015</ele>
        <time>1999-11-30T00:00:00Z</time>
      </trkpt>
      <trkpt lat="41.262769" lon="-1.732681">
        <ele>740.008</ele>
        <time>1999-11-30T00:00:00Z</time>
      </trkpt>
      <trkpt lat="41.262664" lon="-1.732452">
        <ele>740.038</ele>
        <time>1999-11-30T00:00:00Z</time>
      </trkpt>
      <trkpt lat="41.262634" lon="-1.732169">
        <ele>740.052</ele>
        <time>1999-11-30T00:00:00Z</time>
      </trkpt>
      <trkpt lat="41.262652" lon="-1.731788">
        <ele>740.043</ele>
        <time>1999-11-30T00:00:00Z</time>
      </trkpt>
      <trkpt lat="41.262613" lon="-1.731386">
        <ele>740.087</ele>
        <time>1999-11-30T00:00:00Z</time>
      </trkpt>
      <trkpt lat="41.262525" lon="-1.731044">
        <ele>739.042</ele>
        <time>1999-11-30T00:00:00Z</time>
      </trkpt>
      <trkpt lat="41.262465" lon="-1.730893">
        <ele>739.091</ele>
        <time>1999-11-30T00:00:00Z</time>
      </trkpt>
      <trkpt lat="41.262373" lon="-1.730622">
        <ele>738.082</ele>
        <time>1999-11-30T00:00:00Z</time>
      </trkpt>
      <trkpt lat="41.262202" lon="-1.730223">
        <ele>737.040</ele>
        <time>1999-11-30T00:00:00Z</time>
      </trkpt>
      <trkpt lat="41.262119" lon="-1.729964">
        <ele>737.067</ele>
        <time>1999-11-30T00:00:00Z</time>
      </trkpt>
      <trkpt lat="41.262023" lon="-1.729713">
        <ele>738.081</ele>
        <time>1999-11-30T00:00:00Z</time>
      </trkpt>
      <trkpt lat="41.261692" lon="-1.728975">
        <ele>743.019</ele>
        <time>1999-11-30T00:00:00Z</time>
      </trkpt>
      <trkpt lat="41.261559" lon="-1.728607">
        <ele>745.008</ele>
        <time>1999-11-30T00:00:00Z</time>
      </trkpt>
      <trkpt lat="41.261335" lon="-1.727942">
        <ele>748.037</ele>
        <time>1999-11-30T00:00:00Z</time>
      </trkpt>
      <trkpt lat="41.261177" lon="-1.727186">
        <ele>748.051</ele>
        <time>1999-11-30T00:00:00Z</time>
      </trkpt>
      <trkpt lat="41.260904" lon="-1.726567">
        <ele>748.042</ele>
        <time>1999-11-30T00:00:00Z</time>
      </trkpt>
      <trkpt lat="41.260852" lon="-1.726474">
        <ele>748.086</ele>
        <time>1999-11-30T00:00:00Z</time>
      </trkpt>
      <trkpt lat="41.260732" lon="-1.726235">
        <ele>748.031</ele>
        <time>1999-11-30T00:00:00Z</time>
      </trkpt>
      <trkpt lat="41.260578" lon="-1.726012">
        <ele>746.080</ele>
        <time>1999-11-30T00:00:00Z</time>
      </trkpt>
      <trkpt lat="41.26038" lon="-1.725788">
        <ele>743.021</ele>
        <time>1999-11-30T00:00:00Z</time>
      </trkpt>
      <trkpt lat="41.260216" lon="-1.725543">
        <ele>741.099</ele>
        <time>1999-11-30T00:00:00Z</time>
      </trkpt>
      <trkpt lat="41.260025" lon="-1.725146">
        <ele>741.056</ele>
        <time>1999-11-30T00:00:00Z</time>
      </trkpt>
      <trkpt lat="41.259874" lon="-1.724811">
        <ele>741.059</ele>
        <time>1999-11-30T00:00:00Z</time>
      </trkpt>
      <trkpt lat="41.259761" lon="-1.724313">
        <ele>740.014</ele>
        <time>1999-11-30T00:00:00Z</time>
      </trkpt>
      <trkpt lat="41.259695" lon="-1.724043">
        <ele>740.008</ele>
        <time>1999-11-30T00:00:00Z</time>
      </trkpt>
      <trkpt lat="41.259598" lon="-1.723758">
        <ele>739.096</ele>
        <time>1999-11-30T00:00:00Z</time>
      </trkpt>
      <trkpt lat="41.259491" lon="-1.723538">
        <ele>739.050</ele>
        <time>1999-11-30T00:00:00Z</time>
      </trkpt>
      <trkpt lat="41.259403" lon="-1.723362">
        <ele>739.071</ele>
        <time>1999-11-30T00:00:00Z</time>
      </trkpt>
      <trkpt lat="41.259282" lon="-1.723018">
        <ele>739.025</ele>
        <time>1999-11-30T00:00:00Z</time>
      </trkpt>
      <trkpt lat="41.259116" lon="-1.722671">
        <ele>740.090</ele>
        <time>1999-11-30T00:00:00Z</time>
      </trkpt>
      <trkpt lat="41.258845" lon="-1.722137">
        <ele>741.059</ele>
        <time>1999-11-30T00:00:00Z</time>
      </trkpt>
      <trkpt lat="41.258536" lon="-1.721638">
        <ele>743.030</ele>
        <time>1999-11-30T00:00:00Z</time>
      </trkpt>
      <trkpt lat="41.258354" lon="-1.721385">
        <ele>744.038</ele>
        <time>1999-11-30T00:00:00Z</time>
      </trkpt>
      <trkpt lat="41.258285" lon="-1.721104">
        <ele>743.013</ele>
        <time>1999-11-30T00:00:00Z</time>
      </trkpt>
      <trkpt lat="41.258213" lon="-1.720774">
        <ele>743.043</ele>
        <time>1999-11-30T00:00:00Z</time>
      </trkpt>
      <trkpt lat="41.257851" lon="-1.719912">
        <ele>741.007</ele>
        <time>1999-11-30T00:00:00Z</time>
      </trkpt>
      <trkpt lat="41.257659" lon="-1.719377">
        <ele>739.008</ele>
        <time>1999-11-30T00:00:00Z</time>
      </trkpt>
      <trkpt lat="41.257477" lon="-1.719048">
        <ele>739.072</ele>
        <time>1999-11-30T00:00:00Z</time>
      </trkpt>
      <trkpt lat="41.257303" lon="-1.718654">
        <ele>742.086</ele>
        <time>1999-11-30T00:00:00Z</time>
      </trkpt>
      <trkpt lat="41.257037" lon="-1.71815">
        <ele>748.097</ele>
        <time>1999-11-30T00:00:00Z</time>
      </trkpt>
      <trkpt lat="41.256907" lon="-1.717844">
        <ele>749.091</ele>
        <time>1999-11-30T00:00:00Z</time>
      </trkpt>
      <trkpt lat="41.256816" lon="-1.717522">
        <ele>749.056</ele>
        <time>1999-11-30T00:00:00Z</time>
      </trkpt>
      <trkpt lat="41.256663" lon="-1.717027">
        <ele>750.025</ele>
        <time>1999-11-30T00:00:00Z</time>
      </trkpt>
      <trkpt lat="41.256484" lon="-1.716353">
        <ele>752.086</ele>
        <time>1999-11-30T00:00:00Z</time>
      </trkpt>
      <trkpt lat="41.256426" lon="-1.716">
        <ele>751.034</ele>
        <time>1999-11-30T00:00:00Z</time>
      </trkpt>
      <trkpt lat="41.256318" lon="-1.71523">
        <ele>749.092</ele>
        <time>1999-11-30T00:00:00Z</time>
      </trkpt>
      <trkpt lat="41.256227" lon="-1.714356">
        <ele>745.073</ele>
        <time>1999-11-30T00:00:00Z</time>
      </trkpt>
      <trkpt lat="41.256167" lon="-1.713896">
        <ele>742.020</ele>
        <time>1999-11-30T00:00:00Z</time>
      </trkpt>
      <trkpt lat="41.256069" lon="-1.71338">
        <ele>740.008</ele>
        <time>1999-11-30T00:00:00Z</time>
      </trkpt>
      <trkpt lat="41.255945" lon="-1.712797">
        <ele>737.040</ele>
        <time>1999-11-30T00:00:00Z</time>
      </trkpt>
      <trkpt lat="41.255851" lon="-1.712293">
        <ele>735.064</ele>
        <time>1999-11-30T00:00:00Z</time>
      </trkpt>
      <trkpt lat="41.255827" lon="-1.711885">
        <ele>734.075</ele>
        <time>1999-11-30T00:00:00Z</time>
      </trkpt>
      <trkpt lat="41.255833" lon="-1.711567">
        <ele>734.099</ele>
        <time>1999-11-30T00:00:00Z</time>
      </trkpt>
      <trkpt lat="41.255874" lon="-1.711279">
        <ele>734.094</ele>
        <time>1999-11-30T00:00:00Z</time>
      </trkpt>
      <trkpt lat="41.25587" lon="-1.710917">
        <ele>734.013</ele>
        <time>1999-11-30T00:00:00Z</time>
      </trkpt>
      <trkpt lat="41.255856" lon="-1.710612">
        <ele>735.024</ele>
        <time>1999-11-30T00:00:00Z</time>
      </trkpt>
      <trkpt lat="41.25579" lon="-1.710278">
        <ele>735.082</ele>
        <time>1999-11-30T00:00:00Z</time>
      </trkpt>
      <trkpt lat="41.255709" lon="-1.710086">
        <ele>735.054</ele>
        <time>1999-11-30T00:00:00Z</time>
      </trkpt>
      <trkpt lat="41.255398" lon="-1.709428">
        <ele>736.056</ele>
        <time>1999-11-30T00:00:00Z</time>
      </trkpt>
      <trkpt lat="41.255111" lon="-1.708895">
        <ele>735.011</ele>
        <time>1999-11-30T00:00:00Z</time>
      </trkpt>
      <trkpt lat="41.254978" lon="-1.708704">
        <ele>735.008</ele>
        <time>1999-11-30T00:00:00Z</time>
      </trkpt>
      <trkpt lat="41.254847" lon="-1.708586">
        <ele>734.046</ele>
        <time>1999-11-30T00:00:00Z</time>
      </trkpt>
      <trkpt lat="41.254735" lon="-1.708471">
        <ele>734.020</ele>
        <time>1999-11-30T00:00:00Z</time>
      </trkpt>
      <trkpt lat="41.254671" lon="-1.70835">
        <ele>734.041</ele>
        <time>1999-11-30T00:00:00Z</time>
      </trkpt>
      <trkpt lat="41.254653" lon="-1.708138">
        <ele>733.015</ele>
        <time>1999-11-30T00:00:00Z</time>
      </trkpt>
      <trkpt lat="41.254712" lon="-1.707863">
        <ele>732.020</ele>
        <time>1999-11-30T00:00:00Z</time>
      </trkpt>
      <trkpt lat="41.254756" lon="-1.707673">
        <ele>731.049</ele>
        <time>1999-11-30T00:00:00Z</time>
      </trkpt>
      <trkpt lat="41.254775" lon="-1.707557">
        <ele>731.040</ele>
        <time>1999-11-30T00:00:00Z</time>
      </trkpt>
      <trkpt lat="41.254754" lon="-1.707462">
        <ele>731.078</ele>
        <time>1999-11-30T00:00:00Z</time>
      </trkpt>
      <trkpt lat="41.254677" lon="-1.707375">
        <ele>731.045</ele>
        <time>1999-11-30T00:00:00Z</time>
      </trkpt>
      <trkpt lat="41.254577" lon="-1.707246">
        <ele>731.047</ele>
        <time>1999-11-30T00:00:00Z</time>
      </trkpt>
      <trkpt lat="41.254474" lon="-1.707061">
        <ele>730.011</ele>
        <time>1999-11-30T00:00:00Z</time>
      </trkpt>
      <trkpt lat="41.254385" lon="-1.706956">
        <ele>730.008</ele>
        <time>1999-11-30T00:00:00Z</time>
      </trkpt>
      <trkpt lat="41.254102" lon="-1.706716">
        <ele>732.025</ele>
        <time>1999-11-30T00:00:00Z</time>
      </trkpt>
      <trkpt lat="41.253676" lon="-1.706117">
        <ele>733.019</ele>
        <time>1999-11-30T00:00:00Z</time>
      </trkpt>
      <trkpt lat="41.253542" lon="-1.705844">
        <ele>734.010</ele>
        <time>1999-11-30T00:00:00Z</time>
      </trkpt>
      <trkpt lat="41.253311" lon="-1.705523">
        <ele>736.044</ele>
        <time>1999-11-30T00:00:00Z</time>
      </trkpt>
      <trkpt lat="41.253125" lon="-1.705326">
        <ele>737.079</ele>
        <time>1999-11-30T00:00:00Z</time>
      </trkpt>
      <trkpt lat="41.253061" lon="-1.705271">
        <ele>737.068</ele>
        <time>1999-11-30T00:00:00Z</time>
      </trkpt>
      <trkpt lat="41.252689" lon="-1.70527">
        <ele>739.089</ele>
        <time>1999-11-30T00:00:00Z</time>
      </trkpt>
      <trkpt lat="41.25236" lon="-1.705518">
        <ele>741.027</ele>
        <time>1999-11-30T00:00:00Z</time>
      </trkpt>
      <trkpt lat="41.252188" lon="-1.705471">
        <ele>741.013</ele>
        <time>1999-11-30T00:00:00Z</time>
      </trkpt>
      <trkpt lat="41.252062" lon="-1.706302">
        <ele>747.043</ele>
        <time>1999-11-30T00:00:00Z</time>
      </trkpt>
      <trkpt lat="41.252092" lon="-1.706831">
        <ele>750.007</ele>
        <time>1999-11-30T00:00:00Z</time>
      </trkpt>
      <trkpt lat="41.252042" lon="-1.707141">
        <ele>751.008</ele>
        <time>1999-11-30T00:00:00Z</time>
      </trkpt>
      <trkpt lat="41.252034" lon="-1.707133">
        <ele>751.052</ele>
        <time>1999-11-30T00:00:00Z</time>
      </trkpt>
      <trkpt lat="41.251951" lon="-1.707116">
        <ele>751.066</ele>
        <time>1999-11-30T00:00:00Z</time>
      </trkpt>
      <trkpt lat="41.251484" lon="-1.706667">
        <ele>750.077</ele>
        <time>1999-11-30T00:00:00Z</time>
      </trkpt>
      <trkpt lat="41.250934" lon="-1.7061">
        <ele>747.061</ele>
        <time>1999-11-30T00:00:00Z</time>
      </trkpt>
      <trkpt lat="41.250534" lon="-1.705633">
        <ele>747.026</ele>
        <time>1999-11-30T00:00:00Z</time>
      </trkpt>
      <trkpt lat="41.250267" lon="-1.705183">
        <ele>746.015</ele>
        <time>1999-11-30T00:00:00Z</time>
      </trkpt>
      <trkpt lat="41.2501" lon="-1.704966">
        <ele>746.036</ele>
        <time>1999-11-30T00:00:00Z</time>
      </trkpt>
      <trkpt lat="41.249951" lon="-1.704866">
        <ele>746.084</ele>
        <time>1999-11-30T00:00:00Z</time>
      </trkpt>
      <trkpt lat="41.249651" lon="-1.70465">
        <ele>744.078</ele>
        <time>1999-11-30T00:00:00Z</time>
      </trkpt>
      <trkpt lat="41.249417" lon="-1.704416">
        <ele>742.033</ele>
        <time>1999-11-30T00:00:00Z</time>
      </trkpt>
      <trkpt lat="41.249234" lon="-1.704133">
        <ele>740.026</ele>
        <time>1999-11-30T00:00:00Z</time>
      </trkpt>
      <trkpt lat="41.248967" lon="-1.703783">
        <ele>740.008</ele>
        <time>1999-11-30T00:00:00Z</time>
      </trkpt>
      <trkpt lat="41.248817" lon="-1.703566">
        <ele>740.088</ele>
        <time>1999-11-30T00:00:00Z</time>
      </trkpt>
      <trkpt lat="41.248684" lon="-1.70345">
        <ele>741.092</ele>
        <time>1999-11-30T00:00:00Z</time>
      </trkpt>
      <trkpt lat="41.248567" lon="-1.703217">
        <ele>743.013</ele>
        <time>1999-11-30T00:00:00Z</time>
      </trkpt>
      <trkpt lat="41.248501" lon="-1.702966">
        <ele>743.027</ele>
        <time>1999-11-30T00:00:00Z</time>
      </trkpt>
      <trkpt lat="41.248467" lon="-1.702683">
        <ele>744.042</ele>
        <time>1999-11-30T00:00:00Z</time>
      </trkpt>
      <trkpt lat="41.248401" lon="-1.702333">
        <ele>745.081</ele>
        <time>1999-11-30T00:00:00Z</time>
      </trkpt>
      <trkpt lat="41.248334" lon="-1.702083">
        <ele>746.012</ele>
        <time>1999-11-30T00:00:00Z</time>
      </trkpt>
      <trkpt lat="41.248217" lon="-1.701833">
        <ele>747.060</ele>
        <time>1999-11-30T00:00:00Z</time>
      </trkpt>
      <trkpt lat="41.247967" lon="-1.701516">
        <ele>749.085</ele>
        <time>1999-11-30T00:00:00Z</time>
      </trkpt>
      <trkpt lat="41.247667" lon="-1.701116">
        <ele>744.089</ele>
        <time>1999-11-30T00:00:00Z</time>
      </trkpt>
      <trkpt lat="41.2474" lon="-1.70085">
        <ele>741.017</ele>
        <time>1999-11-30T00:00:00Z</time>
      </trkpt>
      <trkpt lat="41.247117" lon="-1.70055">
        <ele>745.008</ele>
        <time>1999-11-30T00:00:00Z</time>
      </trkpt>
      <trkpt lat="41.246867" lon="-1.700133">
        <ele>747.019</ele>
        <time>1999-11-30T00:00:00Z</time>
      </trkpt>
      <trkpt lat="41.246767" lon="-1.699816">
        <ele>749.073</ele>
        <time>1999-11-30T00:00:00Z</time>
      </trkpt>
      <trkpt lat="41.246634" lon="-1.69965">
        <ele>750.074</ele>
        <time>1999-11-30T00:00:00Z</time>
      </trkpt>
      <trkpt lat="41.246384" lon="-1.699466">
        <ele>750.028</ele>
        <time>1999-11-30T00:00:00Z</time>
      </trkpt>
      <trkpt lat="41.245951" lon="-1.699166">
        <ele>750.033</ele>
        <time>1999-11-30T00:00:00Z</time>
      </trkpt>
      <trkpt lat="41.244801" lon="-1.698133">
        <ele>753.042</ele>
        <time>1999-11-30T00:00:00Z</time>
      </trkpt>
      <trkpt lat="41.244267" lon="-1.69765">
        <ele>756.043</ele>
        <time>1999-11-30T00:00:00Z</time>
      </trkpt>
      <trkpt lat="41.243834" lon="-1.69735">
        <ele>758.041</ele>
        <time>1999-11-30T00:00:00Z</time>
      </trkpt>
      <trkpt lat="41.243267" lon="-1.696967">
        <ele>760.035</ele>
        <time>1999-11-30T00:00:00Z</time>
      </trkpt>
      <trkpt lat="41.242634" lon="-1.696517">
        <ele>761.086</ele>
        <time>1999-11-30T00:00:00Z</time>
      </trkpt>
      <trkpt lat="41.241934" lon="-1.69605">
        <ele>761.014</ele>
        <time>1999-11-30T00:00:00Z</time>
      </trkpt>
      <trkpt lat="41.241451" lon="-1.695883">
        <ele>762.008</ele>
        <time>1999-11-30T00:00:00Z</time>
      </trkpt>
      <trkpt lat="41.240551" lon="-1.695517">
        <ele>763.094</ele>
        <time>1999-11-30T00:00:00Z</time>
      </trkpt>
      <trkpt lat="41.240084" lon="-1.695266">
        <ele>764.068</ele>
        <time>1999-11-30T00:00:00Z</time>
      </trkpt>
      <trkpt lat="41.239484" lon="-1.694916">
        <ele>765.029</ele>
        <time>1999-11-30T00:00:00Z</time>
      </trkpt>
      <trkpt lat="41.238934" lon="-1.6947">
        <ele>767.063</ele>
        <time>1999-11-30T00:00:00Z</time>
      </trkpt>
      <trkpt lat="41.2385" lon="-1.694617">
        <ele>767.078</ele>
        <time>1999-11-30T00:00:00Z</time>
      </trkpt>
      <trkpt lat="41.237984" lon="-1.694533">
        <ele>768.057</ele>
        <time>1999-11-30T00:00:00Z</time>
      </trkpt>
      <trkpt lat="41.237333" lon="-1.694416">
        <ele>769.038</ele>
        <time>1999-11-30T00:00:00Z</time>
      </trkpt>
      <trkpt lat="41.236784" lon="-1.694333">
        <ele>770.016</ele>
        <time>1999-11-30T00:00:00Z</time>
      </trkpt>
      <trkpt lat="41.2366" lon="-1.694299">
        <ele>770.095</ele>
        <time>1999-11-30T00:00:00Z</time>
      </trkpt>
      <trkpt lat="41.236317" lon="-1.694216">
        <ele>770.049</ele>
        <time>1999-11-30T00:00:00Z</time>
      </trkpt>
      <trkpt lat="41.23605" lon="-1.694067">
        <ele>770.023</ele>
        <time>1999-11-30T00:00:00Z</time>
      </trkpt>
      <trkpt lat="41.2358" lon="-1.693966">
        <ele>771.008</ele>
        <time>1999-11-30T00:00:00Z</time>
      </trkpt>
      <trkpt lat="41.235617" lon="-1.693883">
        <ele>771.080</ele>
        <time>1999-11-30T00:00:00Z</time>
      </trkpt>
      <trkpt lat="41.235284" lon="-1.6936">
        <ele>772.044</ele>
        <time>1999-11-30T00:00:00Z</time>
      </trkpt>
      <trkpt lat="41.234967" lon="-1.693316">
        <ele>773.085</ele>
        <time>1999-11-30T00:00:00Z</time>
      </trkpt>
      <trkpt lat="41.234567" lon="-1.693083">
        <ele>774.019</ele>
        <time>1999-11-30T00:00:00Z</time>
      </trkpt>
      <trkpt lat="41.234034" lon="-1.692816">
        <ele>776.024</ele>
        <time>1999-11-30T00:00:00Z</time>
      </trkpt>
      <trkpt lat="41.233817" lon="-1.692683">
        <ele>776.083</ele>
        <time>1999-11-30T00:00:00Z</time>
      </trkpt>
      <trkpt lat="41.233134" lon="-1.692116">
        <ele>778.024</ele>
        <time>1999-11-30T00:00:00Z</time>
      </trkpt>
      <trkpt lat="41.232684" lon="-1.691749">
        <ele>779.012</ele>
        <time>1999-11-30T00:00:00Z</time>
      </trkpt>
      <trkpt lat="41.232334" lon="-1.69155">
        <ele>780.073</ele>
        <time>1999-11-30T00:00:00Z</time>
      </trkpt>
      <trkpt lat="41.231951" lon="-1.691399">
        <ele>780.085</ele>
        <time>1999-11-30T00:00:00Z</time>
      </trkpt>
      <trkpt lat="41.231767" lon="-1.691283">
        <ele>780.013</ele>
        <time>1999-11-30T00:00:00Z</time>
      </trkpt>
      <trkpt lat="41.231567" lon="-1.691116">
        <ele>780.008</ele>
        <time>1999-11-30T00:00:00Z</time>
      </trkpt>
      <trkpt lat="41.2308" lon="-1.690517">
        <ele>782.098</ele>
        <time>1999-11-30T00:00:00Z</time>
      </trkpt>
      <trkpt lat="41.230334" lon="-1.690216">
        <ele>784.082</ele>
        <time>1999-11-30T00:00:00Z</time>
      </trkpt>
      <trkpt lat="41.229751" lon="-1.689983">
        <ele>786.023</ele>
        <time>1999-11-30T00:00:00Z</time>
      </trkpt>
      <trkpt lat="41.229167" lon="-1.689733">
        <ele>786.097</ele>
        <time>1999-11-30T00:00:00Z</time>
      </trkpt>
      <trkpt lat="41.228634" lon="-1.689417">
        <ele>788.052</ele>
        <time>1999-11-30T00:00:00Z</time>
      </trkpt>
      <trkpt lat="41.228034" lon="-1.689">
        <ele>789.091</ele>
        <time>1999-11-30T00:00:00Z</time>
      </trkpt>
      <trkpt lat="41.227234" lon="-1.688283">
        <ele>790.012</ele>
        <time>1999-11-30T00:00:00Z</time>
      </trkpt>
      <trkpt lat="41.226517" lon="-1.687583">
        <ele>791.050</ele>
        <time>1999-11-30T00:00:00Z</time>
      </trkpt>
      <trkpt lat="41.226284" lon="-1.68745">
        <ele>793.015</ele>
        <time>1999-11-30T00:00:00Z</time>
      </trkpt>
      <trkpt lat="41.225767" lon="-1.687183">
        <ele>795.065</ele>
        <time>1999-11-30T00:00:00Z</time>
      </trkpt>
      <trkpt lat="41.225401" lon="-1.68695">
        <ele>797.011</ele>
        <time>1999-11-30T00:00:00Z</time>
      </trkpt>
      <trkpt lat="41.224917" lon="-1.686583">
        <ele>798.008</ele>
        <time>1999-11-30T00:00:00Z</time>
      </trkpt>
      <trkpt lat="41.224384" lon="-1.686233">
        <ele>800.042</ele>
        <time>1999-11-30T00:00:00Z</time>
      </trkpt>
      <trkpt lat="41.224067" lon="-1.686066">
        <ele>800.086</ele>
        <time>1999-11-30T00:00:00Z</time>
      </trkpt>
      <trkpt lat="41.223701" lon="-1.685883">
        <ele>800.017</ele>
        <time>1999-11-30T00:00:00Z</time>
      </trkpt>
      <trkpt lat="41.223351" lon="-1.685683">
        <ele>803.071</ele>
        <time>1999-11-30T00:00:00Z</time>
      </trkpt>
      <trkpt lat="41.22295" lon="-1.6854">
        <ele>806.036</ele>
        <time>1999-11-30T00:00:00Z</time>
      </trkpt>
      <trkpt lat="41.222501" lon="-1.685066">
        <ele>808.045</ele>
        <time>1999-11-30T00:00:00Z</time>
      </trkpt>
      <trkpt lat="41.222134" lon="-1.684833">
        <ele>809.096</ele>
        <time>1999-11-30T00:00:00Z</time>
      </trkpt>
      <trkpt lat="41.221767" lon="-1.68455">
        <ele>810.064</ele>
        <time>1999-11-30T00:00:00Z</time>
      </trkpt>
      <trkpt lat="41.2215" lon="-1.684316">
        <ele>810.074</ele>
        <time>1999-11-30T00:00:00Z</time>
      </trkpt>
      <trkpt lat="41.221317" lon="-1.684216">
        <ele>811.056</ele>
        <time>1999-11-30T00:00:00Z</time>
      </trkpt>
      <trkpt lat="41.220901" lon="-1.684049">
        <ele>812.021</ele>
        <time>1999-11-30T00:00:00Z</time>
      </trkpt>
      <trkpt lat="41.2205" lon="-1.68385">
        <ele>814.008</ele>
        <time>1999-11-30T00:00:00Z</time>
      </trkpt>
      <trkpt lat="41.220167" lon="-1.683633">
        <ele>814.068</ele>
        <time>1999-11-30T00:00:00Z</time>
      </trkpt>
      <trkpt lat="41.219451" lon="-1.683149">
        <ele>816.022</ele>
        <time>1999-11-30T00:00:00Z</time>
      </trkpt>
      <trkpt lat="41.218817" lon="-1.682516">
        <ele>817.023</ele>
        <time>1999-11-30T00:00:00Z</time>
      </trkpt>
      <trkpt lat="41.2185" lon="-1.682216">
        <ele>817.017</ele>
        <time>1999-11-30T00:00:00Z</time>
      </trkpt>
      <trkpt lat="41.218234" lon="-1.681867">
        <ele>817.022</ele>
        <time>1999-11-30T00:00:00Z</time>
      </trkpt>
      <trkpt lat="41.217884" lon="-1.681467">
        <ele>817.031</ele>
        <time>1999-11-30T00:00:00Z</time>
      </trkpt>
      <trkpt lat="41.217567" lon="-1.680917">
        <ele>818.022</ele>
        <time>1999-11-30T00:00:00Z</time>
      </trkpt>
      <trkpt lat="41.217384" lon="-1.680733">
        <ele>818.040</ele>
        <time>1999-11-30T00:00:00Z</time>
      </trkpt>
      <trkpt lat="41.21705" lon="-1.68055">
        <ele>819.072</ele>
        <time>1999-11-30T00:00:00Z</time>
      </trkpt>
      <trkpt lat="41.2166" lon="-1.6803">
        <ele>819.013</ele>
        <time>1999-11-30T00:00:00Z</time>
      </trkpt>
      <trkpt lat="41.216267" lon="-1.68005">
        <ele>820.014</ele>
        <time>1999-11-30T00:00:00Z</time>
      </trkpt>
      <trkpt lat="41.216067" lon="-1.6798">
        <ele>821.008</ele>
        <time>1999-11-30T00:00:00Z</time>
      </trkpt>
      <trkpt lat="41.215934" lon="-1.679666">
        <ele>821.048</ele>
        <time>1999-11-30T00:00:00Z</time>
      </trkpt>
      <trkpt lat="41.215717" lon="-1.6795">
        <ele>822.042</ele>
        <time>1999-11-30T00:00:00Z</time>
      </trkpt>
      <trkpt lat="41.215267" lon="-1.679266">
        <ele>822.073</ele>
        <time>1999-11-30T00:00:00Z</time>
      </trkpt>
      <trkpt lat="41.214817" lon="-1.678999">
        <ele>822.027</ele>
        <time>1999-11-30T00:00:00Z</time>
      </trkpt>
      <trkpt lat="41.21435" lon="-1.67865">
        <ele>824.042</ele>
        <time>1999-11-30T00:00:00Z</time>
      </trkpt>
      <trkpt lat="41.213951" lon="-1.678317">
        <ele>827.071</ele>
        <time>1999-11-30T00:00:00Z</time>
      </trkpt>
      <trkpt lat="41.213784" lon="-1.678117">
        <ele>828.062</ele>
        <time>1999-11-30T00:00:00Z</time>
      </trkpt>
      <trkpt lat="41.213567" lon="-1.677999">
        <ele>829.020</ele>
        <time>1999-11-30T00:00:00Z</time>
      </trkpt>
      <trkpt lat="41.213317" lon="-1.6777">
        <ele>829.036</ele>
        <time>1999-11-30T00:00:00Z</time>
      </trkpt>
      <trkpt lat="41.213284" lon="-1.677583">
        <ele>829.017</ele>
        <time>1999-11-30T00:00:00Z</time>
      </trkpt>
      <trkpt lat="41.213184" lon="-1.67745">
        <ele>830.018</ele>
        <time>1999-11-30T00:00:00Z</time>
      </trkpt>
      <trkpt lat="41.212734" lon="-1.67705">
        <ele>830.008</ele>
        <time>1999-11-30T00:00:00Z</time>
      </trkpt>
      <trkpt lat="41.212484" lon="-1.676767">
        <ele>831.074</ele>
        <time>1999-11-30T00:00:00Z</time>
      </trkpt>
      <trkpt lat="41.2121" lon="-1.676383">
        <ele>831.068</ele>
        <time>1999-11-30T00:00:00Z</time>
      </trkpt>
      <trkpt lat="41.211917" lon="-1.676083">
        <ele>831.029</ele>
        <time>1999-11-30T00:00:00Z</time>
      </trkpt>
      <trkpt lat="41.211767" lon="-1.675866">
        <ele>831.063</ele>
        <time>1999-11-30T00:00:00Z</time>
      </trkpt>
      <trkpt lat="41.211584" lon="-1.675616">
        <ele>832.048</ele>
        <time>1999-11-30T00:00:00Z</time>
      </trkpt>
      <trkpt lat="41.21145" lon="-1.675383">
        <ele>833.057</ele>
        <time>1999-11-30T00:00:00Z</time>
      </trkpt>
      <trkpt lat="41.21135" lon="-1.675199">
        <ele>833.048</ele>
        <time>1999-11-30T00:00:00Z</time>
      </trkpt>
      <trkpt lat="41.211167" lon="-1.675">
        <ele>834.046</ele>
        <time>1999-11-30T00:00:00Z</time>
      </trkpt>
      <trkpt lat="41.2109" lon="-1.67475">
        <ele>835.077</ele>
        <time>1999-11-30T00:00:00Z</time>
      </trkpt>
      <trkpt lat="41.210617" lon="-1.674466">
        <ele>836.061</ele>
        <time>1999-11-30T00:00:00Z</time>
      </trkpt>
      <trkpt lat="41.21025" lon="-1.674116">
        <ele>837.027</ele>
        <time>1999-11-30T00:00:00Z</time>
      </trkpt>
      <trkpt lat="41.209884" lon="-1.673833">
        <ele>838.008</ele>
        <time>1999-11-30T00:00:00Z</time>
      </trkpt>
      <trkpt lat="41.20965" lon="-1.673566">
        <ele>839.048</ele>
        <time>1999-11-30T00:00:00Z</time>
      </trkpt>
      <trkpt lat="41.209367" lon="-1.67325">
        <ele>839.062</ele>
        <time>1999-11-30T00:00:00Z</time>
      </trkpt>
      <trkpt lat="41.209134" lon="-1.672883">
        <ele>839.073</ele>
        <time>1999-11-30T00:00:00Z</time>
      </trkpt>
      <trkpt lat="41.208784" lon="-1.672466">
        <ele>841.087</ele>
        <time>1999-11-30T00:00:00Z</time>
      </trkpt>
      <trkpt lat="41.208584" lon="-1.67225">
        <ele>841.042</ele>
        <time>1999-11-30T00:00:00Z</time>
      </trkpt>
      <trkpt lat="41.208284" lon="-1.67195">
        <ele>842.051</ele>
        <time>1999-11-30T00:00:00Z</time>
      </trkpt>
      <trkpt lat="41.207984" lon="-1.671599">
        <ele>844.072</ele>
        <time>1999-11-30T00:00:00Z</time>
      </trkpt>
      <trkpt lat="41.2078" lon="-1.671366">
        <ele>844.080</ele>
        <time>1999-11-30T00:00:00Z</time>
      </trkpt>
      <trkpt lat="41.207567" lon="-1.67105">
        <ele>845.062</ele>
        <time>1999-11-30T00:00:00Z</time>
      </trkpt>
      <trkpt lat="41.207084" lon="-1.67055">
        <ele>847.083</ele>
        <time>1999-11-30T00:00:00Z</time>
      </trkpt>
      <trkpt lat="41.206717" lon="-1.6701">
        <ele>848.011</ele>
        <time>1999-11-30T00:00:00Z</time>
      </trkpt>
      <trkpt lat="41.20645" lon="-1.669766">
        <ele>849.008</ele>
        <time>1999-11-30T00:00:00Z</time>
      </trkpt>
      <trkpt lat="41.205884" lon="-1.6692">
        <ele>850.087</ele>
        <time>1999-11-30T00:00:00Z</time>
      </trkpt>
      <trkpt lat="41.2054" lon="-1.6686">
        <ele>850.051</ele>
        <time>1999-11-30T00:00:00Z</time>
      </trkpt>
      <trkpt lat="41.2052" lon="-1.668383">
        <ele>851.072</ele>
        <time>1999-11-30T00:00:00Z</time>
      </trkpt>
      <trkpt lat="41.204934" lon="-1.668033">
        <ele>853.056</ele>
        <time>1999-11-30T00:00:00Z</time>
      </trkpt>
      <trkpt lat="41.204784" lon="-1.667717">
        <ele>854.051</ele>
        <time>1999-11-30T00:00:00Z</time>
      </trkpt>
      <trkpt lat="41.204634" lon="-1.66755">
        <ele>854.010</ele>
        <time>1999-11-30T00:00:00Z</time>
      </trkpt>
      <trkpt lat="41.204417" lon="-1.6673">
        <ele>855.011</ele>
        <time>1999-11-30T00:00:00Z</time>
      </trkpt>
      <trkpt lat="41.204284" lon="-1.667183">
        <ele>856.089</ele>
        <time>1999-11-30T00:00:00Z</time>
      </trkpt>
      <trkpt lat="41.204167" lon="-1.667">
        <ele>856.093</ele>
        <time>1999-11-30T00:00:00Z</time>
      </trkpt>
      <trkpt lat="41.204" lon="-1.666866">
        <ele>857.065</ele>
        <time>1999-11-30T00:00:00Z</time>
      </trkpt>
      <trkpt lat="41.20385" lon="-1.666733">
        <ele>857.021</ele>
        <time>1999-11-30T00:00:00Z</time>
      </trkpt>
      <trkpt lat="41.20375" lon="-1.666567">
        <ele>858.008</ele>
        <time>1999-11-30T00:00:00Z</time>
      </trkpt>
      <trkpt lat="41.203601" lon="-1.66635">
        <ele>858.010</ele>
        <time>1999-11-30T00:00:00Z</time>
      </trkpt>
      <trkpt lat="41.203434" lon="-1.666216">
        <ele>859.054</ele>
        <time>1999-11-30T00:00:00Z</time>
      </trkpt>
      <trkpt lat="41.203167" lon="-1.666033">
        <ele>860.085</ele>
        <time>1999-11-30T00:00:00Z</time>
      </trkpt>
      <trkpt lat="41.202917" lon="-1.665933">
        <ele>860.059</ele>
        <time>1999-11-30T00:00:00Z</time>
      </trkpt>
      <trkpt lat="41.202701" lon="-1.66585">
        <ele>860.054</ele>
        <time>1999-11-30T00:00:00Z</time>
      </trkpt>
      <trkpt lat="41.202634" lon="-1.665683">
        <ele>860.063</ele>
        <time>1999-11-30T00:00:00Z</time>
      </trkpt>
      <trkpt lat="41.202617" lon="-1.665333">
        <ele>862.094</ele>
        <time>1999-11-30T00:00:00Z</time>
      </trkpt>
      <trkpt lat="41.202584" lon="-1.665033">
        <ele>863.012</ele>
        <time>1999-11-30T00:00:00Z</time>
      </trkpt>
      <trkpt lat="41.202351" lon="-1.6646">
        <ele>865.012</ele>
        <time>1999-11-30T00:00:00Z</time>
      </trkpt>
      <trkpt lat="41.202184" lon="-1.664283">
        <ele>867.032</ele>
        <time>1999-11-30T00:00:00Z</time>
      </trkpt>
      <trkpt lat="41.202084" lon="-1.664017">
        <ele>867.005</ele>
        <time>1999-11-30T00:00:00Z</time>
      </trkpt>
      <trkpt lat="41.201551" lon="-1.663283">
        <ele>869.008</ele>
        <time>1999-11-30T00:00:00Z</time>
      </trkpt>
      <trkpt lat="41.201367" lon="-1.663066">
        <ele>869.052</ele>
        <time>1999-11-30T00:00:00Z</time>
      </trkpt>
      <trkpt lat="41.200884" lon="-1.662867">
        <ele>869.086</ele>
        <time>1999-11-30T00:00:00Z</time>
      </trkpt>
      <trkpt lat="41.200017" lon="-1.662533">
        <ele>870.057</ele>
        <time>1999-11-30T00:00:00Z</time>
      </trkpt>
      <trkpt lat="41.199684" lon="-1.662367">
        <ele>872.021</ele>
        <time>1999-11-30T00:00:00Z</time>
      </trkpt>
      <trkpt lat="41.199451" lon="-1.662083">
        <ele>874.056</ele>
        <time>1999-11-30T00:00:00Z</time>
      </trkpt>
      <trkpt lat="41.199217" lon="-1.661716">
        <ele>875.075</ele>
        <time>1999-11-30T00:00:00Z</time>
      </trkpt>
      <trkpt lat="41.19905" lon="-1.661416">
        <ele>876.086</ele>
        <time>1999-11-30T00:00:00Z</time>
      </trkpt>
      <trkpt lat="41.198851" lon="-1.661183">
        <ele>877.044</ele>
        <time>1999-11-30T00:00:00Z</time>
      </trkpt>
      <trkpt lat="41.198484" lon="-1.660816">
        <ele>878.038</ele>
        <time>1999-11-30T00:00:00Z</time>
      </trkpt>
      <trkpt lat="41.19805" lon="-1.6604">
        <ele>879.070</ele>
        <time>1999-11-30T00:00:00Z</time>
      </trkpt>
      <trkpt lat="41.197484" lon="-1.660033">
        <ele>880.017</ele>
        <time>1999-11-30T00:00:00Z</time>
      </trkpt>
      <trkpt lat="41.19735" lon="-1.659866">
        <ele>880.008</ele>
        <time>1999-11-30T00:00:00Z</time>
      </trkpt>
      <trkpt lat="41.197034" lon="-1.65945">
        <ele>882.084</ele>
        <time>1999-11-30T00:00:00Z</time>
      </trkpt>
      <trkpt lat="41.196751" lon="-1.6591">
        <ele>883.018</ele>
        <time>1999-11-30T00:00:00Z</time>
      </trkpt>
      <trkpt lat="41.196217" lon="-1.658516">
        <ele>886.079</ele>
        <time>1999-11-30T00:00:00Z</time>
      </trkpt>
      <trkpt lat="41.195667" lon="-1.657899">
        <ele>888.043</ele>
        <time>1999-11-30T00:00:00Z</time>
      </trkpt>
      <trkpt lat="41.195384" lon="-1.657533">
        <ele>889.028</ele>
        <time>1999-11-30T00:00:00Z</time>
      </trkpt>
      <trkpt lat="41.195134" lon="-1.657133">
        <ele>889.077</ele>
        <time>1999-11-30T00:00:00Z</time>
      </trkpt>
      <trkpt lat="41.194984" lon="-1.6569">
        <ele>890.058</ele>
        <time>1999-11-30T00:00:00Z</time>
      </trkpt>
      <trkpt lat="41.194751" lon="-1.6567">
        <ele>890.026</ele>
        <time>1999-11-30T00:00:00Z</time>
      </trkpt>
      <trkpt lat="41.194551" lon="-1.6565">
        <ele>891.077</ele>
        <time>1999-11-30T00:00:00Z</time>
      </trkpt>
      <trkpt lat="41.194234" lon="-1.656067">
        <ele>895.061</ele>
        <time>1999-11-30T00:00:00Z</time>
      </trkpt>
      <trkpt lat="41.193951" lon="-1.655716">
        <ele>897.027</ele>
        <time>1999-11-30T00:00:00Z</time>
      </trkpt>
      <trkpt lat="41.193684" lon="-1.655399">
        <ele>898.008</ele>
        <time>1999-11-30T00:00:00Z</time>
      </trkpt>
      <trkpt lat="41.193534" lon="-1.655199">
        <ele>899.068</ele>
        <time>1999-11-30T00:00:00Z</time>
      </trkpt>
      <trkpt lat="41.193367" lon="-1.654883">
        <ele>900.022</ele>
        <time>1999-11-30T00:00:00Z</time>
      </trkpt>
      <trkpt lat="41.193184" lon="-1.654566">
        <ele>904.043</ele>
        <time>1999-11-30T00:00:00Z</time>
      </trkpt>
      <trkpt lat="41.193117" lon="-1.654433">
        <ele>906.017</ele>
        <time>1999-11-30T00:00:00Z</time>
      </trkpt>
      <trkpt lat="41.192984" lon="-1.654133">
        <ele>910.032</ele>
        <time>1999-11-30T00:00:00Z</time>
      </trkpt>
      <trkpt lat="41.1929" lon="-1.653816">
        <ele>912.071</ele>
        <time>1999-11-30T00:00:00Z</time>
      </trkpt>
      <trkpt lat="41.192817" lon="-1.6535">
        <ele>915.032</ele>
        <time>1999-11-30T00:00:00Z</time>
      </trkpt>
      <trkpt lat="41.192751" lon="-1.653216">
        <ele>918.060</ele>
        <time>1999-11-30T00:00:00Z</time>
      </trkpt>
      <trkpt lat="41.1927" lon="-1.65285">
        <ele>920.045</ele>
        <time>1999-11-30T00:00:00Z</time>
      </trkpt>
      <trkpt lat="41.192668" lon="-1.65265">
        <ele>920.047</ele>
        <time>1999-11-30T00:00:00Z</time>
      </trkpt>
      <trkpt lat="41.192584" lon="-1.652466">
        <ele>921.011</ele>
        <time>1999-11-30T00:00:00Z</time>
      </trkpt>
      <trkpt lat="41.192117" lon="-1.651383">
        <ele>923.008</ele>
        <time>1999-11-30T00:00:00Z</time>
      </trkpt>
      <trkpt lat="41.191867" lon="-1.650816">
        <ele>924.015</ele>
        <time>1999-11-30T00:00:00Z</time>
      </trkpt>
      <trkpt lat="41.191684" lon="-1.650467">
        <ele>925.029</ele>
        <time>1999-11-30T00:00:00Z</time>
      </trkpt>
      <trkpt lat="41.191401" lon="-1.650066">
        <ele>927.080</ele>
        <time>1999-11-30T00:00:00Z</time>
      </trkpt>
      <trkpt lat="41.191134" lon="-1.64965">
        <ele>927.044</ele>
        <time>1999-11-30T00:00:00Z</time>
      </trkpt>
      <trkpt lat="41.190767" lon="-1.649116">
        <ele>928.059</ele>
        <time>1999-11-30T00:00:00Z</time>
      </trkpt>
      <trkpt lat="41.1906" lon="-1.648833">
        <ele>928.058</ele>
        <time>1999-11-30T00:00:00Z</time>
      </trkpt>
      <trkpt lat="41.190384" lon="-1.6485">
        <ele>929.019</ele>
        <time>1999-11-30T00:00:00Z</time>
      </trkpt>
      <trkpt lat="41.1899" lon="-1.6479">
        <ele>929.057</ele>
        <time>1999-11-30T00:00:00Z</time>
      </trkpt>
      <trkpt lat="41.189534" lon="-1.647366">
        <ele>930.063</ele>
        <time>1999-11-30T00:00:00Z</time>
      </trkpt>
      <trkpt lat="41.189334" lon="-1.647066">
        <ele>930.044</ele>
        <time>1999-11-30T00:00:00Z</time>
      </trkpt>
      <trkpt lat="41.188834" lon="-1.646233">
        <ele>929.018</ele>
        <time>1999-11-30T00:00:00Z</time>
      </trkpt>
      <trkpt lat="41.18865" lon="-1.645917">
        <ele>929.008</ele>
        <time>1999-11-30T00:00:00Z</time>
      </trkpt>
      <trkpt lat="41.188367" lon="-1.645433">
        <ele>929.097</ele>
        <time>1999-11-30T00:00:00Z</time>
      </trkpt>
      <trkpt lat="41.188184" lon="-1.645033">
        <ele>930.031</ele>
        <time>1999-11-30T00:00:00Z</time>
      </trkpt>
      <trkpt lat="41.187851" lon="-1.64425">
        <ele>930.022</ele>
        <time>1999-11-30T00:00:00Z</time>
      </trkpt>
      <trkpt lat="41.187617" lon="-1.643583">
        <ele>930.046</ele>
        <time>1999-11-30T00:00:00Z</time>
      </trkpt>
      <trkpt lat="41.187434" lon="-1.642866">
        <ele>926.031</ele>
        <time>1999-11-30T00:00:00Z</time>
      </trkpt>
      <trkpt lat="41.187301" lon="-1.642516">
        <ele>926.070</ele>
        <time>1999-11-30T00:00:00Z</time>
      </trkpt>
      <trkpt lat="41.187017" lon="-1.641733">
        <ele>925.041</ele>
        <time>1999-11-30T00:00:00Z</time>
      </trkpt>
      <trkpt lat="41.18685" lon="-1.641183">
        <ele>925.039</ele>
        <time>1999-11-30T00:00:00Z</time>
      </trkpt>
      <trkpt lat="41.186767" lon="-1.640983">
        <ele>925.056</ele>
        <time>1999-11-30T00:00:00Z</time>
      </trkpt>
      <trkpt lat="41.18665" lon="-1.640766">
        <ele>924.059</ele>
        <time>1999-11-30T00:00:00Z</time>
      </trkpt>
      <trkpt lat="41.1863" lon="-1.64025">
        <ele>921.014</ele>
        <time>1999-11-30T00:00:00Z</time>
      </trkpt>
      <trkpt lat="41.186117" lon="-1.639867">
        <ele>920.008</ele>
        <time>1999-11-30T00:00:00Z</time>
      </trkpt>
      <trkpt lat="41.185917" lon="-1.639316">
        <ele>920.036</ele>
        <time>1999-11-30T00:00:00Z</time>
      </trkpt>
      <trkpt lat="41.185717" lon="-1.63895">
        <ele>921.030</ele>
        <time>1999-11-30T00:00:00Z</time>
      </trkpt>
      <trkpt lat="41.18555" lon="-1.638616">
        <ele>921.041</ele>
        <time>1999-11-30T00:00:00Z</time>
      </trkpt>
      <trkpt lat="41.185401" lon="-1.638166">
        <ele>921.025</ele>
        <time>1999-11-30T00:00:00Z</time>
      </trkpt>
      <trkpt lat="41.185384" lon="-1.638066">
        <ele>921.040</ele>
        <time>1999-11-30T00:00:00Z</time>
      </trkpt>
      <trkpt lat="41.185517" lon="-1.638033">
        <ele>922.079</ele>
        <time>1999-11-30T00:00:00Z</time>
      </trkpt>
      <trkpt lat="41.18565" lon="-1.638">
        <ele>923.050</ele>
        <time>1999-11-30T00:00:00Z</time>
      </trkpt>
      <trkpt lat="41.186284" lon="-1.637666">
        <ele>929.088</ele>
        <time>1999-11-30T00:00:00Z</time>
      </trkpt>
      <trkpt lat="41.186717" lon="-1.637533">
        <ele>935.045</ele>
        <time>1999-11-30T00:00:00Z</time>
      </trkpt>
      <trkpt lat="41.187084" lon="-1.637466">
        <ele>939.047</ele>
        <time>1999-11-30T00:00:00Z</time>
      </trkpt>
      <trkpt lat="41.1874" lon="-1.637266">
        <ele>940.011</ele>
        <time>1999-11-30T00:00:00Z</time>
      </trkpt>
      <trkpt lat="41.1875" lon="-1.637283">
        <ele>941.008</ele>
        <time>1999-11-30T00:00:00Z</time>
      </trkpt>
      <trkpt lat="41.187684" lon="-1.637449">
        <ele>942.095</ele>
        <time>1999-11-30T00:00:00Z</time>
      </trkpt>
      <trkpt lat="41.188" lon="-1.637766">
        <ele>944.049</ele>
        <time>1999-11-30T00:00:00Z</time>
      </trkpt>
      <trkpt lat="41.188234" lon="-1.63805">
        <ele>945.070</ele>
        <time>1999-11-30T00:00:00Z</time>
      </trkpt>
      <trkpt lat="41.188284" lon="-1.63815">
        <ele>945.044</ele>
        <time>1999-11-30T00:00:00Z</time>
      </trkpt>
      <trkpt lat="41.188351" lon="-1.638417">
        <ele>947.019</ele>
        <time>1999-11-30T00:00:00Z</time>
      </trkpt>
      <trkpt lat="41.188434" lon="-1.638583">
        <ele>948.088</ele>
        <time>1999-11-30T00:00:00Z</time>
      </trkpt>
      <trkpt lat="41.188517" lon="-1.6387">
        <ele>949.089</ele>
        <time>1999-11-30T00:00:00Z</time>
      </trkpt>
      <trkpt lat="41.188717" lon="-1.638833">
        <ele>949.057</ele>
        <time>1999-11-30T00:00:00Z</time>
      </trkpt>
      <trkpt lat="41.188884" lon="-1.63895">
        <ele>950.058</ele>
        <time>1999-11-30T00:00:00Z</time>
      </trkpt>
      <trkpt lat="41.188984" lon="-1.639033">
        <ele>950.052</ele>
        <time>1999-11-30T00:00:00Z</time>
      </trkpt>
      <trkpt lat="41.189184" lon="-1.639217">
        <ele>951.017</ele>
        <time>1999-11-30T00:00:00Z</time>
      </trkpt>
      <trkpt lat="41.18935" lon="-1.639383">
        <ele>952.008</ele>
        <time>1999-11-30T00:00:00Z</time>
      </trkpt>
      <trkpt lat="41.189617" lon="-1.639567">
        <ele>953.046</ele>
        <time>1999-11-30T00:00:00Z</time>
      </trkpt>
      <trkpt lat="41.189867" lon="-1.639733">
        <ele>954.050</ele>
        <time>1999-11-30T00:00:00Z</time>
      </trkpt>
      <trkpt lat="41.1901" lon="-1.63985">
        <ele>957.071</ele>
        <time>1999-11-30T00:00:00Z</time>
      </trkpt>
      <trkpt lat="41.19035" lon="-1.639933">
        <ele>958.085</ele>
        <time>1999-11-30T00:00:00Z</time>
      </trkpt>
      <trkpt lat="41.1907" lon="-1.640166">
        <ele>959.010</ele>
        <time>1999-11-30T00:00:00Z</time>
      </trkpt>
      <trkpt lat="41.190967" lon="-1.640283">
        <ele>958.099</ele>
        <time>1999-11-30T00:00:00Z</time>
      </trkpt>
      <trkpt lat="41.191201" lon="-1.640316">
        <ele>959.070</ele>
        <time>1999-11-30T00:00:00Z</time>
      </trkpt>
      <trkpt lat="41.191534" lon="-1.640366">
        <ele>959.018</ele>
        <time>1999-11-30T00:00:00Z</time>
      </trkpt>
      <trkpt lat="41.192034" lon="-1.6405">
        <ele>958.092</ele>
        <time>1999-11-30T00:00:00Z</time>
      </trkpt>
      <trkpt lat="41.19245" lon="-1.6406">
        <ele>957.073</ele>
        <time>1999-11-30T00:00:00Z</time>
      </trkpt>
      <trkpt lat="41.19255" lon="-1.64065">
        <ele>956.020</ele>
        <time>1999-11-30T00:00:00Z</time>
      </trkpt>
      <trkpt lat="41.192651" lon="-1.640733">
        <ele>957.008</ele>
        <time>1999-11-30T00:00:00Z</time>
      </trkpt>
      <trkpt lat="41.192751" lon="-1.640799">
        <ele>957.030</ele>
        <time>1999-11-30T00:00:00Z</time>
      </trkpt>
      <trkpt lat="41.192951" lon="-1.64075">
        <ele>958.014</ele>
        <time>1999-11-30T00:00:00Z</time>
      </trkpt>
      <trkpt lat="41.193084" lon="-1.64075">
        <ele>959.095</ele>
        <time>1999-11-30T00:00:00Z</time>
      </trkpt>
      <trkpt lat="41.193184" lon="-1.64075">
        <ele>958.079</ele>
        <time>1999-11-30T00:00:00Z</time>
      </trkpt>
      <trkpt lat="41.19325" lon="-1.640733">
        <ele>958.064</ele>
        <time>1999-11-30T00:00:00Z</time>
      </trkpt>
      <trkpt lat="41.193501" lon="-1.64075">
        <ele>957.073</ele>
        <time>1999-11-30T00:00:00Z</time>
      </trkpt>
      <trkpt lat="41.193651" lon="-1.6407">
        <ele>955.044</ele>
        <time>1999-11-30T00:00:00Z</time>
      </trkpt>
      <trkpt lat="41.1938" lon="-1.640567">
        <ele>953.042</ele>
        <time>1999-11-30T00:00:00Z</time>
      </trkpt>
      <trkpt lat="41.193934" lon="-1.640366">
        <ele>952.027</ele>
        <time>1999-11-30T00:00:00Z</time>
      </trkpt>
      <trkpt lat="41.194001" lon="-1.640166">
        <ele>950.068</ele>
        <time>1999-11-30T00:00:00Z</time>
      </trkpt>
      <trkpt lat="41.19405" lon="-1.640066">
        <ele>950.014</ele>
        <time>1999-11-30T00:00:00Z</time>
      </trkpt>
      <trkpt lat="41.194167" lon="-1.64">
        <ele>949.008</ele>
        <time>1999-11-30T00:00:00Z</time>
      </trkpt>
      <trkpt lat="41.194384" lon="-1.63985">
        <ele>949.033</ele>
        <time>1999-11-30T00:00:00Z</time>
      </trkpt>
      <trkpt lat="41.194517" lon="-1.63975">
        <ele>950.057</ele>
        <time>1999-11-30T00:00:00Z</time>
      </trkpt>
      <trkpt lat="41.194684" lon="-1.639467">
        <ele>950.038</ele>
        <time>1999-11-30T00:00:00Z</time>
      </trkpt>
      <trkpt lat="41.194867" lon="-1.639183">
        <ele>950.092</ele>
        <time>1999-11-30T00:00:00Z</time>
      </trkpt>
      <trkpt lat="41.19515" lon="-1.6389">
        <ele>949.037</ele>
        <time>1999-11-30T00:00:00Z</time>
      </trkpt>
      <trkpt lat="41.195317" lon="-1.638633">
        <ele>947.036</ele>
        <time>1999-11-30T00:00:00Z</time>
      </trkpt>
      <trkpt lat="41.195517" lon="-1.6384">
        <ele>944.077</ele>
        <time>1999-11-30T00:00:00Z</time>
      </trkpt>
      <trkpt lat="41.195667" lon="-1.638233">
        <ele>942.065</ele>
        <time>1999-11-30T00:00:00Z</time>
      </trkpt>
      <trkpt lat="41.195984" lon="-1.637983">
        <ele>940.081</ele>
        <time>1999-11-30T00:00:00Z</time>
      </trkpt>
      <trkpt lat="41.196167" lon="-1.637783">
        <ele>939.061</ele>
        <time>1999-11-30T00:00:00Z</time>
      </trkpt>
      <trkpt lat="41.196267" lon="-1.637483">
        <ele>938.017</ele>
        <time>1999-11-30T00:00:00Z</time>
      </trkpt>
      <trkpt lat="41.196417" lon="-1.637233">
        <ele>937.008</ele>
        <time>1999-11-30T00:00:00Z</time>
      </trkpt>
      <trkpt lat="41.196684" lon="-1.63705">
        <ele>935.059</ele>
        <time>1999-11-30T00:00:00Z</time>
      </trkpt>
      <trkpt lat="41.19685" lon="-1.6369">
        <ele>936.013</ele>
        <time>1999-11-30T00:00:00Z</time>
      </trkpt>
      <trkpt lat="41.196884" lon="-1.636766">
        <ele>935.034</ele>
        <time>1999-11-30T00:00:00Z</time>
      </trkpt>
      <trkpt lat="41.196934" lon="-1.636616">
        <ele>934.078</ele>
        <time>1999-11-30T00:00:00Z</time>
      </trkpt>
      <trkpt lat="41.19705" lon="-1.636466">
        <ele>936.083</ele>
        <time>1999-11-30T00:00:00Z</time>
      </trkpt>
      <trkpt lat="41.19715" lon="-1.636183">
        <ele>935.032</ele>
        <time>1999-11-30T00:00:00Z</time>
      </trkpt>
      <trkpt lat="41.197201" lon="-1.635816">
        <ele>933.083</ele>
        <time>1999-11-30T00:00:00Z</time>
      </trkpt>
      <trkpt lat="41.197201" lon="-1.635533">
        <ele>931.061</ele>
        <time>1999-11-30T00:00:00Z</time>
      </trkpt>
      <trkpt lat="41.197167" lon="-1.635016">
        <ele>930.013</ele>
        <time>1999-11-30T00:00:00Z</time>
      </trkpt>
      <trkpt lat="41.197134" lon="-1.634583">
        <ele>928.043</ele>
        <time>1999-11-30T00:00:00Z</time>
      </trkpt>
      <trkpt lat="41.197167" lon="-1.634383">
        <ele>926.007</ele>
        <time>1999-11-30T00:00:00Z</time>
      </trkpt>
      <trkpt lat="41.1973" lon="-1.63405">
        <ele>923.008</ele>
        <time>1999-11-30T00:00:00Z</time>
      </trkpt>
      <trkpt lat="41.197517" lon="-1.6337">
        <ele>921.042</ele>
        <time>1999-11-30T00:00:00Z</time>
      </trkpt>
      <trkpt lat="41.197801" lon="-1.6332">
        <ele>920.096</ele>
        <time>1999-11-30T00:00:00Z</time>
      </trkpt>
      <trkpt lat="41.197967" lon="-1.633">
        <ele>919.087</ele>
        <time>1999-11-30T00:00:00Z</time>
      </trkpt>
      <trkpt lat="41.198134" lon="-1.6328">
        <ele>919.051</ele>
        <time>1999-11-30T00:00:00Z</time>
      </trkpt>
      <trkpt lat="41.198251" lon="-1.63265">
        <ele>918.026</ele>
        <time>1999-11-30T00:00:00Z</time>
      </trkpt>
      <trkpt lat="41.198434" lon="-1.63255">
        <ele>918.065</ele>
        <time>1999-11-30T00:00:00Z</time>
      </trkpt>
      <trkpt lat="41.19875" lon="-1.632383">
        <ele>915.076</ele>
        <time>1999-11-30T00:00:00Z</time>
      </trkpt>
      <trkpt lat="41.198934" lon="-1.632366">
        <ele>914.034</ele>
        <time>1999-11-30T00:00:00Z</time>
      </trkpt>
      <trkpt lat="41.199034" lon="-1.632366">
        <ele>913.091</ele>
        <time>1999-11-30T00:00:00Z</time>
      </trkpt>
      <trkpt lat="41.199167" lon="-1.632433">
        <ele>913.081</ele>
        <time>1999-11-30T00:00:00Z</time>
      </trkpt>
      <trkpt lat="41.1993" lon="-1.632366">
        <ele>913.019</ele>
        <time>1999-11-30T00:00:00Z</time>
      </trkpt>
      <trkpt lat="41.199434" lon="-1.632299">
        <ele>912.008</ele>
        <time>1999-11-30T00:00:00Z</time>
      </trkpt>
      <trkpt lat="41.199551" lon="-1.632233">
        <ele>912.060</ele>
        <time>1999-11-30T00:00:00Z</time>
      </trkpt>
      <trkpt lat="41.199667" lon="-1.632199">
        <ele>912.064</ele>
        <time>1999-11-30T00:00:00Z</time>
      </trkpt>
      <trkpt lat="41.200234" lon="-1.631983">
        <ele>910.015</ele>
        <time>1999-11-30T00:00:00Z</time>
      </trkpt>
      <trkpt lat="41.2005" lon="-1.631867">
        <ele>907.059</ele>
        <time>1999-11-30T00:00:00Z</time>
      </trkpt>
      <trkpt lat="41.200901" lon="-1.631683">
        <ele>902.034</ele>
        <time>1999-11-30T00:00:00Z</time>
      </trkpt>
      <trkpt lat="41.201184" lon="-1.631633">
        <ele>900.033</ele>
        <time>1999-11-30T00:00:00Z</time>
      </trkpt>
      <trkpt lat="41.201334" lon="-1.631666">
        <ele>900.034</ele>
        <time>1999-11-30T00:00:00Z</time>
      </trkpt>
      <trkpt lat="41.201467" lon="-1.6317">
        <ele>900.042</ele>
        <time>1999-11-30T00:00:00Z</time>
      </trkpt>
      <trkpt lat="41.201667" lon="-1.63165">
        <ele>899.089</ele>
        <time>1999-11-30T00:00:00Z</time>
      </trkpt>
      <trkpt lat="41.201767" lon="-1.631566">
        <ele>899.006</ele>
        <time>1999-11-30T00:00:00Z</time>
      </trkpt>
      <trkpt lat="41.201934" lon="-1.631283">
        <ele>899.026</ele>
        <time>1999-11-30T00:00:00Z</time>
      </trkpt>
      <trkpt lat="41.202084" lon="-1.631016">
        <ele>899.008</ele>
        <time>1999-11-30T00:00:00Z</time>
      </trkpt>
      <trkpt lat="41.2023" lon="-1.630483">
        <ele>898.049</ele>
        <time>1999-11-30T00:00:00Z</time>
      </trkpt>
      <trkpt lat="41.202451" lon="-1.63005">
        <ele>895.063</ele>
        <time>1999-11-30T00:00:00Z</time>
      </trkpt>
      <trkpt lat="41.202534" lon="-1.629883">
        <ele>894.074</ele>
        <time>1999-11-30T00:00:00Z</time>
      </trkpt>
      <trkpt lat="41.202734" lon="-1.629617">
        <ele>890.078</ele>
        <time>1999-11-30T00:00:00Z</time>
      </trkpt>
      <trkpt lat="41.20295" lon="-1.629233">
        <ele>890.023</ele>
        <time>1999-11-30T00:00:00Z</time>
      </trkpt>
      <trkpt lat="41.203017" lon="-1.62905">
        <ele>890.072</ele>
        <time>1999-11-30T00:00:00Z</time>
      </trkpt>
      <trkpt lat="41.203017" lon="-1.628883">
        <ele>890.073</ele>
        <time>1999-11-30T00:00:00Z</time>
      </trkpt>
      <trkpt lat="41.202984" lon="-1.628666">
        <ele>890.091</ele>
        <time>1999-11-30T00:00:00Z</time>
      </trkpt>
      <trkpt lat="41.202984" lon="-1.628383">
        <ele>890.023</ele>
        <time>1999-11-30T00:00:00Z</time>
      </trkpt>
      <trkpt lat="41.203" lon="-1.627949">
        <ele>890.083</ele>
        <time>1999-11-30T00:00:00Z</time>
      </trkpt>
      <trkpt lat="41.203034" lon="-1.6274">
        <ele>889.011</ele>
        <time>1999-11-30T00:00:00Z</time>
      </trkpt>
      <trkpt lat="41.203067" lon="-1.626966">
        <ele>888.008</ele>
        <time>1999-11-30T00:00:00Z</time>
      </trkpt>
      <trkpt lat="41.203084" lon="-1.626633">
        <ele>886.083</ele>
        <time>1999-11-30T00:00:00Z</time>
      </trkpt>
      <trkpt lat="41.2032" lon="-1.626233">
        <ele>882.017</ele>
        <time>1999-11-30T00:00:00Z</time>
      </trkpt>
      <trkpt lat="41.203334" lon="-1.625733">
        <ele>880.058</ele>
        <time>1999-11-30T00:00:00Z</time>
      </trkpt>
      <trkpt lat="41.203367" lon="-1.625333">
        <ele>879.072</ele>
        <time>1999-11-30T00:00:00Z</time>
      </trkpt>
      <trkpt lat="41.203451" lon="-1.625117">
        <ele>880.017</ele>
        <time>1999-11-30T00:00:00Z</time>
      </trkpt>
      <trkpt lat="41.203617" lon="-1.62495">
        <ele>879.086</ele>
        <time>1999-11-30T00:00:00Z</time>
      </trkpt>
      <trkpt lat="41.203767" lon="-1.624799">
        <ele>879.077</ele>
        <time>1999-11-30T00:00:00Z</time>
      </trkpt>
      <trkpt lat="41.203934" lon="-1.624333">
        <ele>879.095</ele>
        <time>1999-11-30T00:00:00Z</time>
      </trkpt>
      <trkpt lat="41.204184" lon="-1.6238">
        <ele>878.041</ele>
        <time>1999-11-30T00:00:00Z</time>
      </trkpt>
      <trkpt lat="41.2043" lon="-1.623467">
        <ele>876.081</ele>
        <time>1999-11-30T00:00:00Z</time>
      </trkpt>
      <trkpt lat="41.204467" lon="-1.62315">
        <ele>872.009</ele>
        <time>1999-11-30T00:00:00Z</time>
      </trkpt>
      <trkpt lat="41.204534" lon="-1.6228">
        <ele>871.008</ele>
        <time>1999-11-30T00:00:00Z</time>
      </trkpt>
      <trkpt lat="41.204617" lon="-1.622566">
        <ele>871.045</ele>
        <time>1999-11-30T00:00:00Z</time>
      </trkpt>
      <trkpt lat="41.204667" lon="-1.622266">
        <ele>870.049</ele>
        <time>1999-11-30T00:00:00Z</time>
      </trkpt>
      <trkpt lat="41.204617" lon="-1.621899">
        <ele>869.030</ele>
        <time>1999-11-30T00:00:00Z</time>
      </trkpt>
      <trkpt lat="41.20455" lon="-1.621683">
        <ele>869.084</ele>
        <time>1999-11-30T00:00:00Z</time>
      </trkpt>
      <trkpt lat="41.204517" lon="-1.62135">
        <ele>869.089</ele>
        <time>1999-11-30T00:00:00Z</time>
      </trkpt>
      <trkpt lat="41.204417" lon="-1.621083">
        <ele>868.078</ele>
        <time>1999-11-30T00:00:00Z</time>
      </trkpt>
      <trkpt lat="41.204284" lon="-1.6209">
        <ele>867.059</ele>
        <time>1999-11-30T00:00:00Z</time>
      </trkpt>
      <trkpt lat="41.204184" lon="-1.62075">
        <ele>865.087</ele>
        <time>1999-11-30T00:00:00Z</time>
      </trkpt>
      <trkpt lat="41.204167" lon="-1.620433">
        <ele>864.057</ele>
        <time>1999-11-30T00:00:00Z</time>
      </trkpt>
      <trkpt lat="41.2041" lon="-1.620066">
        <ele>862.000</ele>
        <time>1999-11-30T00:00:00Z</time>
      </trkpt>
      <trkpt lat="41.204067" lon="-1.619699">
        <ele>863.020</ele>
        <time>1999-11-30T00:00:00Z</time>
      </trkpt>
      <trkpt lat="41.204017" lon="-1.619533">
        <ele>862.008</ele>
        <time>1999-11-30T00:00:00Z</time>
      </trkpt>
      <trkpt lat="41.203901" lon="-1.619317">
        <ele>861.076</ele>
        <time>1999-11-30T00:00:00Z</time>
      </trkpt>
      <trkpt lat="41.203784" lon="-1.619">
        <ele>861.030</ele>
        <time>1999-11-30T00:00:00Z</time>
      </trkpt>
      <trkpt lat="41.203634" lon="-1.618533">
        <ele>858.031</ele>
        <time>1999-11-30T00:00:00Z</time>
      </trkpt>
      <trkpt lat="41.203484" lon="-1.618099">
        <ele>855.055</ele>
        <time>1999-11-30T00:00:00Z</time>
      </trkpt>
      <trkpt lat="41.203317" lon="-1.61785">
        <ele>853.070</ele>
        <time>1999-11-30T00:00:00Z</time>
      </trkpt>
      <trkpt lat="41.2031" lon="-1.617517">
        <ele>850.029</ele>
        <time>1999-11-30T00:00:00Z</time>
      </trkpt>
      <trkpt lat="41.202967" lon="-1.617283">
        <ele>849.060</ele>
        <time>1999-11-30T00:00:00Z</time>
      </trkpt>
      <trkpt lat="41.202867" lon="-1.617199">
        <ele>849.098</ele>
        <time>1999-11-30T00:00:00Z</time>
      </trkpt>
      <trkpt lat="41.202817" lon="-1.617067">
        <ele>849.049</ele>
        <time>1999-11-30T00:00:00Z</time>
      </trkpt>
      <trkpt lat="41.202801" lon="-1.616916">
        <ele>849.002</ele>
        <time>1999-11-30T00:00:00Z</time>
      </trkpt>
      <trkpt lat="41.202867" lon="-1.6166">
        <ele>848.022</ele>
        <time>1999-11-30T00:00:00Z</time>
      </trkpt>
      <trkpt lat="41.203034" lon="-1.616083">
        <ele>848.008</ele>
        <time>1999-11-30T00:00:00Z</time>
      </trkpt>
      <trkpt lat="41.203067" lon="-1.615783">
        <ele>847.065</ele>
        <time>1999-11-30T00:00:00Z</time>
      </trkpt>
      <trkpt lat="41.203084" lon="-1.615483">
        <ele>845.059</ele>
        <time>1999-11-30T00:00:00Z</time>
      </trkpt>
      <trkpt lat="41.203151" lon="-1.615133">
        <ele>844.050</ele>
        <time>1999-11-30T00:00:00Z</time>
      </trkpt>
      <trkpt lat="41.203251" lon="-1.614867">
        <ele>843.074</ele>
        <time>1999-11-30T00:00:00Z</time>
      </trkpt>
      <trkpt lat="41.2034" lon="-1.61465">
        <ele>843.019</ele>
        <time>1999-11-30T00:00:00Z</time>
      </trkpt>
      <trkpt lat="41.203484" lon="-1.614433">
        <ele>843.058</ele>
        <time>1999-11-30T00:00:00Z</time>
      </trkpt>
      <trkpt lat="41.203484" lon="-1.614316">
        <ele>842.049</ele>
        <time>1999-11-30T00:00:00Z</time>
      </trkpt>
      <trkpt lat="41.203217" lon="-1.61435">
        <ele>841.087</ele>
        <time>1999-11-30T00:00:00Z</time>
      </trkpt>
      <trkpt lat="41.203167" lon="-1.613733">
        <ele>839.087</ele>
        <time>1999-11-30T00:00:00Z</time>
      </trkpt>
      <trkpt lat="41.2032" lon="-1.613367">
        <ele>838.042</ele>
        <time>1999-11-30T00:00:00Z</time>
      </trkpt>
      <trkpt lat="41.203334" lon="-1.61295">
        <ele>836.026</ele>
        <time>1999-11-30T00:00:00Z</time>
      </trkpt>
      <trkpt lat="41.203534" lon="-1.612466">
        <ele>836.008</ele>
        <time>1999-11-30T00:00:00Z</time>
      </trkpt>
      <trkpt lat="41.203634" lon="-1.612216">
        <ele>836.029</ele>
        <time>1999-11-30T00:00:00Z</time>
      </trkpt>
      <trkpt lat="41.20365" lon="-1.611983">
        <ele>834.053</ele>
        <time>1999-11-30T00:00:00Z</time>
      </trkpt>
      <trkpt lat="41.203684" lon="-1.61165">
        <ele>832.014</ele>
        <time>1999-11-30T00:00:00Z</time>
      </trkpt>
      <trkpt lat="41.203634" lon="-1.611533">
        <ele>831.018</ele>
        <time>1999-11-30T00:00:00Z</time>
      </trkpt>
      <trkpt lat="41.203567" lon="-1.611483">
        <ele>830.053</ele>
        <time>1999-11-30T00:00:00Z</time>
      </trkpt>
      <trkpt lat="41.20355" lon="-1.611333">
        <ele>830.032</ele>
        <time>1999-11-30T00:00:00Z</time>
      </trkpt>
      <trkpt lat="41.203667" lon="-1.611016">
        <ele>829.093</ele>
        <time>1999-11-30T00:00:00Z</time>
      </trkpt>
      <trkpt lat="41.203784" lon="-1.610683">
        <ele>828.071</ele>
        <time>1999-11-30T00:00:00Z</time>
      </trkpt>
      <trkpt lat="41.203884" lon="-1.610367">
        <ele>827.092</ele>
        <time>1999-11-30T00:00:00Z</time>
      </trkpt>
      <trkpt lat="41.20395" lon="-1.610033">
        <ele>826.073</ele>
        <time>1999-11-30T00:00:00Z</time>
      </trkpt>
      <trkpt lat="41.204" lon="-1.609783">
        <ele>825.020</ele>
        <time>1999-11-30T00:00:00Z</time>
      </trkpt>
      <trkpt lat="41.203967" lon="-1.609533">
        <ele>825.008</ele>
        <time>1999-11-30T00:00:00Z</time>
      </trkpt>
      <trkpt lat="41.203867" lon="-1.609367">
        <ele>825.040</ele>
        <time>1999-11-30T00:00:00Z</time>
      </trkpt>
      <trkpt lat="41.203717" lon="-1.60905">
        <ele>826.094</ele>
        <time>1999-11-30T00:00:00Z</time>
      </trkpt>
      <trkpt lat="41.203601" lon="-1.608683">
        <ele>827.075</ele>
        <time>1999-11-30T00:00:00Z</time>
      </trkpt>
      <trkpt lat="41.203451" lon="-1.60845">
        <ele>826.089</ele>
        <time>1999-11-30T00:00:00Z</time>
      </trkpt>
      <trkpt lat="41.203151" lon="-1.608167">
        <ele>825.034</ele>
        <time>1999-11-30T00:00:00Z</time>
      </trkpt>
      <trkpt lat="41.202967" lon="-1.608066">
        <ele>824.013</ele>
        <time>1999-11-30T00:00:00Z</time>
      </trkpt>
      <trkpt lat="41.202617" lon="-1.608033">
        <ele>824.094</ele>
        <time>1999-11-30T00:00:00Z</time>
      </trkpt>
      <trkpt lat="41.2023" lon="-1.6079">
        <ele>822.082</ele>
        <time>1999-11-30T00:00:00Z</time>
      </trkpt>
      <trkpt lat="41.202067" lon="-1.607783">
        <ele>820.085</ele>
        <time>1999-11-30T00:00:00Z</time>
      </trkpt>
      <trkpt lat="41.201967" lon="-1.607683">
        <ele>820.089</ele>
        <time>1999-11-30T00:00:00Z</time>
      </trkpt>
      <trkpt lat="41.201801" lon="-1.607367">
        <ele>819.017</ele>
        <time>1999-11-30T00:00:00Z</time>
      </trkpt>
      <trkpt lat="41.201584" lon="-1.607">
        <ele>820.008</ele>
        <time>1999-11-30T00:00:00Z</time>
      </trkpt>
      <trkpt lat="41.2015" lon="-1.606633">
        <ele>820.059</ele>
        <time>1999-11-30T00:00:00Z</time>
      </trkpt>
      <trkpt lat="41.201384" lon="-1.606083">
        <ele>820.013</ele>
        <time>1999-11-30T00:00:00Z</time>
      </trkpt>
      <trkpt lat="41.201284" lon="-1.605533">
        <ele>819.074</ele>
        <time>1999-11-30T00:00:00Z</time>
      </trkpt>
      <trkpt lat="41.201117" lon="-1.605083">
        <ele>819.018</ele>
        <time>1999-11-30T00:00:00Z</time>
      </trkpt>
      <trkpt lat="41.200867" lon="-1.60465">
        <ele>818.093</ele>
        <time>1999-11-30T00:00:00Z</time>
      </trkpt>
      <trkpt lat="41.200734" lon="-1.604283">
        <ele>816.012</ele>
        <time>1999-11-30T00:00:00Z</time>
      </trkpt>
      <trkpt lat="41.2006" lon="-1.603866">
        <ele>814.013</ele>
        <time>1999-11-30T00:00:00Z</time>
      </trkpt>
      <trkpt lat="41.200434" lon="-1.603666">
        <ele>813.071</ele>
        <time>1999-11-30T00:00:00Z</time>
      </trkpt>
      <trkpt lat="41.200134" lon="-1.603549">
        <ele>810.015</ele>
        <time>1999-11-30T00:00:00Z</time>
      </trkpt>
      <trkpt lat="41.199717" lon="-1.603483">
        <ele>809.065</ele>
        <time>1999-11-30T00:00:00Z</time>
      </trkpt>
      <trkpt lat="41.199284" lon="-1.603449">
        <ele>807.011</ele>
        <time>1999-11-30T00:00:00Z</time>
      </trkpt>
      <trkpt lat="41.198967" lon="-1.603483">
        <ele>803.008</ele>
        <time>1999-11-30T00:00:00Z</time>
      </trkpt>
      <trkpt lat="41.19865" lon="-1.603466">
        <ele>800.042</ele>
        <time>1999-11-30T00:00:00Z</time>
      </trkpt>
      <trkpt lat="41.198301" lon="-1.603416">
        <ele>799.046</ele>
        <time>1999-11-30T00:00:00Z</time>
      </trkpt>
      <trkpt lat="41.198134" lon="-1.603367">
        <ele>798.017</ele>
        <time>1999-11-30T00:00:00Z</time>
      </trkpt>
      <trkpt lat="41.198001" lon="-1.603249">
        <ele>797.091</ele>
        <time>1999-11-30T00:00:00Z</time>
      </trkpt>
      <trkpt lat="41.197884" lon="-1.603133">
        <ele>795.046</ele>
        <time>1999-11-30T00:00:00Z</time>
      </trkpt>
      <trkpt lat="41.197784" lon="-1.603">
        <ele>794.045</ele>
        <time>1999-11-30T00:00:00Z</time>
      </trkpt>
      <trkpt lat="41.197701" lon="-1.602733">
        <ele>792.096</ele>
        <time>1999-11-30T00:00:00Z</time>
      </trkpt>
      <trkpt lat="41.197651" lon="-1.602616">
        <ele>791.074</ele>
        <time>1999-11-30T00:00:00Z</time>
      </trkpt>
      <trkpt lat="41.197534" lon="-1.602566">
        <ele>790.019</ele>
        <time>1999-11-30T00:00:00Z</time>
      </trkpt>
      <trkpt lat="41.197317" lon="-1.60255">
        <ele>789.009</ele>
        <time>1999-11-30T00:00:00Z</time>
      </trkpt>
      <trkpt lat="41.19705" lon="-1.602283">
        <ele>790.019</ele>
        <time>1999-11-30T00:00:00Z</time>
      </trkpt>
      <trkpt lat="41.196834" lon="-1.602">
        <ele>789.008</ele>
        <time>1999-11-30T00:00:00Z</time>
      </trkpt>
      <trkpt lat="41.196567" lon="-1.601733">
        <ele>788.012</ele>
        <time>1999-11-30T00:00:00Z</time>
      </trkpt>
      <trkpt lat="41.196384" lon="-1.601416">
        <ele>783.086</ele>
        <time>1999-11-30T00:00:00Z</time>
      </trkpt>
      <trkpt lat="41.196284" lon="-1.601133">
        <ele>780.047</ele>
        <time>1999-11-30T00:00:00Z</time>
      </trkpt>
      <trkpt lat="41.196217" lon="-1.600833">
        <ele>779.031</ele>
        <time>1999-11-30T00:00:00Z</time>
      </trkpt>
      <trkpt lat="41.19625" lon="-1.600516">
        <ele>780.036</ele>
        <time>1999-11-30T00:00:00Z</time>
      </trkpt>
      <trkpt lat="41.196367" lon="-1.600233">
        <ele>781.055</ele>
        <time>1999-11-30T00:00:00Z</time>
      </trkpt>
      <trkpt lat="41.196534" lon="-1.59985">
        <ele>781.026</ele>
        <time>1999-11-30T00:00:00Z</time>
      </trkpt>
      <trkpt lat="41.196617" lon="-1.599583">
        <ele>780.064</ele>
        <time>1999-11-30T00:00:00Z</time>
      </trkpt>
      <trkpt lat="41.196634" lon="-1.599217">
        <ele>781.073</ele>
        <time>1999-11-30T00:00:00Z</time>
      </trkpt>
      <trkpt lat="41.1965" lon="-1.598667">
        <ele>781.085</ele>
        <time>1999-11-30T00:00:00Z</time>
      </trkpt>
      <trkpt lat="41.196417" lon="-1.597967">
        <ele>779.013</ele>
        <time>1999-11-30T00:00:00Z</time>
      </trkpt>
      <trkpt lat="41.196334" lon="-1.5974">
        <ele>776.008</ele>
        <time>1999-11-30T00:00:00Z</time>
      </trkpt>
      <trkpt lat="41.196134" lon="-1.596933">
        <ele>777.038</ele>
        <time>1999-11-30T00:00:00Z</time>
      </trkpt>
      <trkpt lat="41.195867" lon="-1.5964">
        <ele>780.092</ele>
        <time>1999-11-30T00:00:00Z</time>
      </trkpt>
      <trkpt lat="41.1957" lon="-1.595866">
        <ele>780.013</ele>
        <time>1999-11-30T00:00:00Z</time>
      </trkpt>
      <trkpt lat="41.195567" lon="-1.595583">
        <ele>778.037</ele>
        <time>1999-11-30T00:00:00Z</time>
      </trkpt>
      <trkpt lat="41.1954" lon="-1.595317">
        <ele>774.062</ele>
        <time>1999-11-30T00:00:00Z</time>
      </trkpt>
      <trkpt lat="41.195334" lon="-1.595016">
        <ele>771.021</ele>
        <time>1999-11-30T00:00:00Z</time>
      </trkpt>
      <trkpt lat="41.195284" lon="-1.594666">
        <ele>767.062</ele>
        <time>1999-11-30T00:00:00Z</time>
      </trkpt>
      <trkpt lat="41.195267" lon="-1.594466">
        <ele>765.040</ele>
        <time>1999-11-30T00:00:00Z</time>
      </trkpt>
      <trkpt lat="41.195267" lon="-1.594317">
        <ele>762.035</ele>
        <time>1999-11-30T00:00:00Z</time>
      </trkpt>
      <trkpt lat="41.195183" lon="-1.594">
        <ele>758.086</ele>
        <time>1999-11-30T00:00:00Z</time>
      </trkpt>
      <trkpt lat="41.195084" lon="-1.593733">
        <ele>753.014</ele>
        <time>1999-11-30T00:00:00Z</time>
      </trkpt>
      <trkpt lat="41.195001" lon="-1.593583">
        <ele>751.008</ele>
        <time>1999-11-30T00:00:00Z</time>
      </trkpt>
      <trkpt lat="41.194984" lon="-1.59315">
        <ele>748.054</ele>
        <time>1999-11-30T00:00:00Z</time>
      </trkpt>
      <trkpt lat="41.195034" lon="-1.593083">
        <ele>748.068</ele>
        <time>1999-11-30T00:00:00Z</time>
      </trkpt>
      <trkpt lat="41.195134" lon="-1.593067">
        <ele>748.019</ele>
        <time>1999-11-30T00:00:00Z</time>
      </trkpt>
      <trkpt lat="41.195234" lon="-1.593067">
        <ele>748.033</ele>
        <time>1999-11-30T00:00:00Z</time>
      </trkpt>
      <trkpt lat="41.195317" lon="-1.593067">
        <ele>749.058</ele>
        <time>1999-11-30T00:00:00Z</time>
      </trkpt>
      <trkpt lat="41.1954" lon="-1.593033">
        <ele>749.057</ele>
        <time>1999-11-30T00:00:00Z</time>
      </trkpt>
      <trkpt lat="41.195417" lon="-1.592967">
        <ele>749.048</ele>
        <time>1999-11-30T00:00:00Z</time>
      </trkpt>
      <trkpt lat="41.195384" lon="-1.592916">
        <ele>749.096</ele>
        <time>1999-11-30T00:00:00Z</time>
      </trkpt>
      <trkpt lat="41.195234" lon="-1.592849">
        <ele>750.052</ele>
        <time>1999-11-30T00:00:00Z</time>
      </trkpt>
      <trkpt lat="41.194917" lon="-1.592733">
        <ele>755.053</ele>
        <time>1999-11-30T00:00:00Z</time>
      </trkpt>
      <trkpt lat="41.194684" lon="-1.5927">
        <ele>757.008</ele>
        <time>1999-11-30T00:00:00Z</time>
      </trkpt>
      <trkpt lat="41.194467" lon="-1.592666">
        <ele>760.008</ele>
        <time>1999-11-30T00:00:00Z</time>
      </trkpt>
      <trkpt lat="41.19435" lon="-1.592633">
        <ele>761.056</ele>
        <time>1999-11-30T00:00:00Z</time>
      </trkpt>
      <trkpt lat="41.19425" lon="-1.592649">
        <ele>762.090</ele>
        <time>1999-11-30T00:00:00Z</time>
      </trkpt>
      <trkpt lat="41.194217" lon="-1.592649">
        <ele>762.061</ele>
        <time>1999-11-30T00:00:00Z</time>
      </trkpt>
      <trkpt lat="41.194201" lon="-1.5926">
        <ele>764.085</ele>
        <time>1999-11-30T00:00:00Z</time>
      </trkpt>
      <trkpt lat="41.19425" lon="-1.592533">
        <ele>765.080</ele>
        <time>1999-11-30T00:00:00Z</time>
      </trkpt>
      <trkpt lat="41.194434" lon="-1.59245">
        <ele>766.039</ele>
        <time>1999-11-30T00:00:00Z</time>
      </trkpt>
      <trkpt lat="41.195001" lon="-1.592216">
        <ele>771.050</ele>
        <time>1999-11-30T00:00:00Z</time>
      </trkpt>
      <trkpt lat="41.195217" lon="-1.592133">
        <ele>774.098</ele>
        <time>1999-11-30T00:00:00Z</time>
      </trkpt>
      <trkpt lat="41.19535" lon="-1.5921">
        <ele>775.056</ele>
        <time>1999-11-30T00:00:00Z</time>
      </trkpt>
      <trkpt lat="41.195417" lon="-1.592067">
        <ele>776.059</ele>
        <time>1999-11-30T00:00:00Z</time>
      </trkpt>
      <trkpt lat="41.195417" lon="-1.592">
        <ele>778.014</ele>
        <time>1999-11-30T00:00:00Z</time>
      </trkpt>
      <trkpt lat="41.19535" lon="-1.591949">
        <ele>779.008</ele>
        <time>1999-11-30T00:00:00Z</time>
      </trkpt>
      <trkpt lat="41.195217" lon="-1.5919">
        <ele>779.056</ele>
        <time>1999-11-30T00:00:00Z</time>
      </trkpt>
      <trkpt lat="41.195001" lon="-1.5918">
        <ele>780.090</ele>
        <time>1999-11-30T00:00:00Z</time>
      </trkpt>
      <trkpt lat="41.194867" lon="-1.591783">
        <ele>780.011</ele>
        <time>1999-11-30T00:00:00Z</time>
      </trkpt>
      <trkpt lat="41.194751" lon="-1.591749">
        <ele>781.095</ele>
        <time>1999-11-30T00:00:00Z</time>
      </trkpt>
      <trkpt lat="41.194651" lon="-1.59165">
        <ele>782.090</ele>
        <time>1999-11-30T00:00:00Z</time>
      </trkpt>
      <trkpt lat="41.194651" lon="-1.591617">
        <ele>782.069</ele>
        <time>1999-11-30T00:00:00Z</time>
      </trkpt>
      <trkpt lat="41.194667" lon="-1.59155">
        <ele>782.020</ele>
        <time>1999-11-30T00:00:00Z</time>
      </trkpt>
      <trkpt lat="41.194634" lon="-1.591483">
        <ele>782.048</ele>
        <time>1999-11-30T00:00:00Z</time>
      </trkpt>
      <trkpt lat="41.194584" lon="-1.591433">
        <ele>782.028</ele>
        <time>1999-11-30T00:00:00Z</time>
      </trkpt>
      <trkpt lat="41.194367" lon="-1.591133">
        <ele>779.089</ele>
        <time>1999-11-30T00:00:00Z</time>
      </trkpt>
      <trkpt lat="41.194117" lon="-1.590933">
        <ele>777.017</ele>
        <time>1999-11-30T00:00:00Z</time>
      </trkpt>
      <trkpt lat="41.193951" lon="-1.590733">
        <ele>773.008</ele>
        <time>1999-11-30T00:00:00Z</time>
      </trkpt>
      <trkpt lat="41.193767" lon="-1.590383">
        <ele>770.043</ele>
        <time>1999-11-30T00:00:00Z</time>
      </trkpt>
      <trkpt lat="41.193617" lon="-1.590016">
        <ele>769.047</ele>
        <time>1999-11-30T00:00:00Z</time>
      </trkpt>
      <trkpt lat="41.193501" lon="-1.5897">
        <ele>767.018</ele>
        <time>1999-11-30T00:00:00Z</time>
      </trkpt>
      <trkpt lat="41.193384" lon="-1.589633">
        <ele>767.062</ele>
        <time>1999-11-30T00:00:00Z</time>
      </trkpt>
      <trkpt lat="41.192984" lon="-1.589583">
        <ele>769.067</ele>
        <time>1999-11-30T00:00:00Z</time>
      </trkpt>
      <trkpt lat="41.1928" lon="-1.589566">
        <ele>768.046</ele>
        <time>1999-11-30T00:00:00Z</time>
      </trkpt>
      <trkpt lat="41.192751" lon="-1.589516">
        <ele>768.037</ele>
        <time>1999-11-30T00:00:00Z</time>
      </trkpt>
      <trkpt lat="41.192734" lon="-1.589416">
        <ele>768.075</ele>
        <time>1999-11-30T00:00:00Z</time>
      </trkpt>
      <trkpt lat="41.192784" lon="-1.589183">
        <ele>768.093</ele>
        <time>1999-11-30T00:00:00Z</time>
      </trkpt>
      <trkpt lat="41.192834" lon="-1.588849">
        <ele>768.065</ele>
        <time>1999-11-30T00:00:00Z</time>
      </trkpt>
      <trkpt lat="41.192834" lon="-1.58855">
        <ele>769.021</ele>
        <time>1999-11-30T00:00:00Z</time>
      </trkpt>
      <trkpt lat="41.192734" lon="-1.58835">
        <ele>770.008</ele>
        <time>1999-11-30T00:00:00Z</time>
      </trkpt>
      <trkpt lat="41.192634" lon="-1.588166">
        <ele>768.080</ele>
        <time>1999-11-30T00:00:00Z</time>
      </trkpt>
      <trkpt lat="41.19255" lon="-1.588033">
        <ele>765.074</ele>
        <time>1999-11-30T00:00:00Z</time>
      </trkpt>
      <trkpt lat="41.1925" lon="-1.58765">
        <ele>759.045</ele>
        <time>1999-11-30T00:00:00Z</time>
      </trkpt>
      <trkpt lat="41.192434" lon="-1.58745">
        <ele>759.059</ele>
        <time>1999-11-30T00:00:00Z</time>
      </trkpt>
      <trkpt lat="41.192467" lon="-1.58735">
        <ele>759.084</ele>
        <time>1999-11-30T00:00:00Z</time>
      </trkpt>
      <trkpt lat="41.192467" lon="-1.5872">
        <ele>762.043</ele>
        <time>1999-11-30T00:00:00Z</time>
      </trkpt>
      <trkpt lat="41.192367" lon="-1.587066">
        <ele>765.044</ele>
        <time>1999-11-30T00:00:00Z</time>
      </trkpt>
      <trkpt lat="41.192284" lon="-1.586966">
        <ele>767.042</ele>
        <time>1999-11-30T00:00:00Z</time>
      </trkpt>
      <trkpt lat="41.192184" lon="-1.586966">
        <ele>767.017</ele>
        <time>1999-11-30T00:00:00Z</time>
      </trkpt>
      <trkpt lat="41.191967" lon="-1.587">
        <ele>768.087</ele>
        <time>1999-11-30T00:00:00Z</time>
      </trkpt>
      <trkpt lat="41.191717" lon="-1.587033">
        <ele>768.015</ele>
        <time>1999-11-30T00:00:00Z</time>
      </trkpt>
      <trkpt lat="41.191217" lon="-1.587116">
        <ele>770.008</ele>
        <time>1999-11-30T00:00:00Z</time>
      </trkpt>
      <trkpt lat="41.190784" lon="-1.587166">
        <ele>772.072</ele>
        <time>1999-11-30T00:00:00Z</time>
      </trkpt>
      <trkpt lat="41.190584" lon="-1.587166">
        <ele>772.046</ele>
        <time>1999-11-30T00:00:00Z</time>
      </trkpt>
      <trkpt lat="41.190534" lon="-1.58715">
        <ele>772.097</ele>
        <time>1999-11-30T00:00:00Z</time>
      </trkpt>
      <trkpt lat="41.19065" lon="-1.587017">
        <ele>773.031</ele>
        <time>1999-11-30T00:00:00Z</time>
      </trkpt>
      <trkpt lat="41.191234" lon="-1.586583">
        <ele>775.046</ele>
        <time>1999-11-30T00:00:00Z</time>
      </trkpt>
      <trkpt lat="41.191734" lon="-1.586216">
        <ele>784.065</ele>
        <time>1999-11-30T00:00:00Z</time>
      </trkpt>
      <trkpt lat="41.191751" lon="-1.58555">
        <ele>791.066</ele>
        <time>1999-11-30T00:00:00Z</time>
      </trkpt>
      <trkpt lat="41.191784" lon="-1.585383">
        <ele>794.064</ele>
        <time>1999-11-30T00:00:00Z</time>
      </trkpt>
      <trkpt lat="41.191851" lon="-1.585349">
        <ele>797.056</ele>
        <time>1999-11-30T00:00:00Z</time>
      </trkpt>
      <trkpt lat="41.191934" lon="-1.585483">
        <ele>797.059</ele>
        <time>1999-11-30T00:00:00Z</time>
      </trkpt>
      <trkpt lat="41.192034" lon="-1.585766">
        <ele>799.014</ele>
        <time>1999-11-30T00:00:00Z</time>
      </trkpt>
      <trkpt lat="41.192184" lon="-1.58605">
        <ele>799.008</ele>
        <time>1999-11-30T00:00:00Z</time>
      </trkpt>
      <trkpt lat="41.192401" lon="-1.586183">
        <ele>799.066</ele>
        <time>1999-11-30T00:00:00Z</time>
      </trkpt>
      <trkpt lat="41.192567" lon="-1.5862">
        <ele>801.040</ele>
        <time>1999-11-30T00:00:00Z</time>
      </trkpt>
      <trkpt lat="41.192668" lon="-1.586066">
        <ele>804.061</ele>
        <time>1999-11-30T00:00:00Z</time>
      </trkpt>
      <trkpt lat="41.192734" lon="-1.5859">
        <ele>804.095</ele>
        <time>1999-11-30T00:00:00Z</time>
      </trkpt>
      <trkpt lat="41.192668" lon="-1.585583">
        <ele>805.020</ele>
        <time>1999-11-30T00:00:00Z</time>
      </trkpt>
      <trkpt lat="41.1925" lon="-1.585367">
        <ele>808.059</ele>
        <time>1999-11-30T00:00:00Z</time>
      </trkpt>
      <trkpt lat="41.192484" lon="-1.5854">
        <ele>808.090</ele>
        <time>1999-11-30T00:00:00Z</time>
      </trkpt>
      <trkpt lat="41.192651" lon="-1.585599">
        <ele>805.088</ele>
        <time>1999-11-30T00:00:00Z</time>
      </trkpt>
      <trkpt lat="41.1927" lon="-1.5859">
        <ele>804.047</ele>
        <time>1999-11-30T00:00:00Z</time>
      </trkpt>
      <trkpt lat="41.192668" lon="-1.586017">
        <ele>804.029</ele>
        <time>1999-11-30T00:00:00Z</time>
      </trkpt>
      <trkpt lat="41.192617" lon="-1.5861">
        <ele>804.021</ele>
        <time>1999-11-30T00:00:00Z</time>
      </trkpt>
      <trkpt lat="41.192517" lon="-1.586167">
        <ele>802.008</ele>
        <time>1999-11-30T00:00:00Z</time>
      </trkpt>
      <trkpt lat="41.192384" lon="-1.58615">
        <ele>800.085</ele>
        <time>1999-11-30T00:00:00Z</time>
      </trkpt>
      <trkpt lat="41.192184" lon="-1.586017">
        <ele>799.079</ele>
        <time>1999-11-30T00:00:00Z</time>
      </trkpt>
      <trkpt lat="41.192051" lon="-1.585699">
        <ele>799.040</ele>
        <time>1999-11-30T00:00:00Z</time>
      </trkpt>
      <trkpt lat="41.191917" lon="-1.5854">
        <ele>798.074</ele>
        <time>1999-11-30T00:00:00Z</time>
      </trkpt>
      <trkpt lat="41.191867" lon="-1.5853">
        <ele>798.079</ele>
        <time>1999-11-30T00:00:00Z</time>
      </trkpt>
      <trkpt lat="41.191784" lon="-1.585333">
        <ele>795.088</ele>
        <time>1999-11-30T00:00:00Z</time>
      </trkpt>
      <trkpt lat="41.191751" lon="-1.585367">
        <ele>794.079</ele>
        <time>1999-11-30T00:00:00Z</time>
      </trkpt>
      <trkpt lat="41.191717" lon="-1.586183">
        <ele>784.047</ele>
        <time>1999-11-30T00:00:00Z</time>
      </trkpt>
      <trkpt lat="41.191267" lon="-1.586516">
        <ele>776.045</ele>
        <time>1999-11-30T00:00:00Z</time>
      </trkpt>
      <trkpt lat="41.190484" lon="-1.5871">
        <ele>772.047</ele>
        <time>1999-11-30T00:00:00Z</time>
      </trkpt>
      <trkpt lat="41.190151" lon="-1.587416">
        <ele>774.011</ele>
        <time>1999-11-30T00:00:00Z</time>
      </trkpt>
      <trkpt lat="41.189701" lon="-1.588017">
        <ele>779.008</ele>
        <time>1999-11-30T00:00:00Z</time>
      </trkpt>
      <trkpt lat="41.18945" lon="-1.588416">
        <ele>781.035</ele>
        <time>1999-11-30T00:00:00Z</time>
      </trkpt>
      <trkpt lat="41.1891" lon="-1.588717">
        <ele>783.089</ele>
        <time>1999-11-30T00:00:00Z</time>
      </trkpt>
      <trkpt lat="41.188734" lon="-1.58915">
        <ele>783.070</ele>
        <time>1999-11-30T00:00:00Z</time>
      </trkpt>
      <trkpt lat="41.188334" lon="-1.589766">
        <ele>788.044</ele>
        <time>1999-11-30T00:00:00Z</time>
      </trkpt>
      <trkpt lat="41.188184" lon="-1.589866">
        <ele>789.099</ele>
        <time>1999-11-30T00:00:00Z</time>
      </trkpt>
      <trkpt lat="41.188" lon="-1.58995">
        <ele>790.098</ele>
        <time>1999-11-30T00:00:00Z</time>
      </trkpt>
      <trkpt lat="41.187834" lon="-1.589967">
        <ele>790.079</ele>
        <time>1999-11-30T00:00:00Z</time>
      </trkpt>
      <trkpt lat="41.187667" lon="-1.5899">
        <ele>789.077</ele>
        <time>1999-11-30T00:00:00Z</time>
      </trkpt>
      <trkpt lat="41.187434" lon="-1.589466">
        <ele>788.084</ele>
        <time>1999-11-30T00:00:00Z</time>
      </trkpt>
      <trkpt lat="41.187251" lon="-1.5892">
        <ele>790.007</ele>
        <time>1999-11-30T00:00:00Z</time>
      </trkpt>
      <trkpt lat="41.187017" lon="-1.589033">
        <ele>791.017</ele>
        <time>1999-11-30T00:00:00Z</time>
      </trkpt>
      <trkpt lat="41.186917" lon="-1.589">
        <ele>792.008</ele>
        <time>1999-11-30T00:00:00Z</time>
      </trkpt>
      <trkpt lat="41.186667" lon="-1.589083">
        <ele>793.029</ele>
        <time>1999-11-30T00:00:00Z</time>
      </trkpt>
      <trkpt lat="41.186234" lon="-1.589316">
        <ele>794.073</ele>
        <time>1999-11-30T00:00:00Z</time>
      </trkpt>
      <trkpt lat="41.186034" lon="-1.589333">
        <ele>794.084</ele>
        <time>1999-11-30T00:00:00Z</time>
      </trkpt>
      <trkpt lat="41.185734" lon="-1.589267">
        <ele>795.068</ele>
        <time>1999-11-30T00:00:00Z</time>
      </trkpt>
      <trkpt lat="41.185484" lon="-1.58925">
        <ele>797.083</ele>
        <time>1999-11-30T00:00:00Z</time>
      </trkpt>
      <trkpt lat="41.185" lon="-1.589349">
        <ele>801.012</ele>
        <time>1999-11-30T00:00:00Z</time>
      </trkpt>
      <trkpt lat="41.184601" lon="-1.589466">
        <ele>802.083</ele>
        <time>1999-11-30T00:00:00Z</time>
      </trkpt>
      <trkpt lat="41.184251" lon="-1.589583">
        <ele>801.041</ele>
        <time>1999-11-30T00:00:00Z</time>
      </trkpt>
      <trkpt lat="41.183967" lon="-1.58975">
        <ele>800.058</ele>
        <time>1999-11-30T00:00:00Z</time>
      </trkpt>
      <trkpt lat="41.183734" lon="-1.59005">
        <ele>801.052</ele>
        <time>1999-11-30T00:00:00Z</time>
      </trkpt>
      <trkpt lat="41.183567" lon="-1.590083">
        <ele>800.017</ele>
        <time>1999-11-30T00:00:00Z</time>
      </trkpt>
      <trkpt lat="41.183234" lon="-1.590016">
        <ele>800.008</ele>
        <time>1999-11-30T00:00:00Z</time>
      </trkpt>
      <trkpt lat="41.183084" lon="-1.589983">
        <ele>801.066</ele>
        <time>1999-11-30T00:00:00Z</time>
      </trkpt>
      <trkpt lat="41.182867" lon="-1.590067">
        <ele>804.020</ele>
        <time>1999-11-30T00:00:00Z</time>
      </trkpt>
      <trkpt lat="41.182617" lon="-1.590166">
        <ele>806.071</ele>
        <time>1999-11-30T00:00:00Z</time>
      </trkpt>
      <trkpt lat="41.182234" lon="-1.590367">
        <ele>809.025</ele>
        <time>1999-11-30T00:00:00Z</time>
      </trkpt>
      <trkpt lat="41.181867" lon="-1.590616">
        <ele>810.010</ele>
        <time>1999-11-30T00:00:00Z</time>
      </trkpt>
      <trkpt lat="41.181484" lon="-1.590983">
        <ele>812.049</ele>
        <time>1999-11-30T00:00:00Z</time>
      </trkpt>
      <trkpt lat="41.181267" lon="-1.591267">
        <ele>812.010</ele>
        <time>1999-11-30T00:00:00Z</time>
      </trkpt>
      <trkpt lat="41.181151" lon="-1.591633">
        <ele>813.078</ele>
        <time>1999-11-30T00:00:00Z</time>
      </trkpt>
      <trkpt lat="41.180967" lon="-1.591833">
        <ele>812.086</ele>
        <time>1999-11-30T00:00:00Z</time>
      </trkpt>
      <trkpt lat="41.180684" lon="-1.592033">
        <ele>811.060</ele>
        <time>1999-11-30T00:00:00Z</time>
      </trkpt>
      <trkpt lat="41.180534" lon="-1.592166">
        <ele>810.026</ele>
        <time>1999-11-30T00:00:00Z</time>
      </trkpt>
      <trkpt lat="41.180484" lon="-1.592267">
        <ele>810.008</ele>
        <time>1999-11-30T00:00:00Z</time>
      </trkpt>
      <trkpt lat="41.180451" lon="-1.592533">
        <ele>809.049</ele>
        <time>1999-11-30T00:00:00Z</time>
      </trkpt>
      <trkpt lat="41.180384" lon="-1.592783">
        <ele>810.093</ele>
        <time>1999-11-30T00:00:00Z</time>
      </trkpt>
      <trkpt lat="41.180251" lon="-1.592933">
        <ele>809.044</ele>
        <time>1999-11-30T00:00:00Z</time>
      </trkpt>
      <trkpt lat="41.180017" lon="-1.593016">
        <ele>810.078</ele>
        <time>1999-11-30T00:00:00Z</time>
      </trkpt>
      <trkpt lat="41.179884" lon="-1.59315">
        <ele>811.073</ele>
        <time>1999-11-30T00:00:00Z</time>
      </trkpt>
      <trkpt lat="41.179584" lon="-1.593433">
        <ele>815.092</ele>
        <time>1999-11-30T00:00:00Z</time>
      </trkpt>
      <trkpt lat="41.179384" lon="-1.593733">
        <ele>816.083</ele>
        <time>1999-11-30T00:00:00Z</time>
      </trkpt>
      <trkpt lat="41.179134" lon="-1.594233">
        <ele>814.051</ele>
        <time>1999-11-30T00:00:00Z</time>
      </trkpt>
      <trkpt lat="41.17895" lon="-1.5945">
        <ele>812.051</ele>
        <time>1999-11-30T00:00:00Z</time>
      </trkpt>
      <trkpt lat="41.1788" lon="-1.59455">
        <ele>812.001</ele>
        <time>1999-11-30T00:00:00Z</time>
      </trkpt>
      <trkpt lat="41.178551" lon="-1.594633">
        <ele>813.011</ele>
        <time>1999-11-30T00:00:00Z</time>
      </trkpt>
      <trkpt lat="41.178334" lon="-1.594833">
        <ele>814.008</ele>
        <time>1999-11-30T00:00:00Z</time>
      </trkpt>
      <trkpt lat="41.1782" lon="-1.595066">
        <ele>814.076</ele>
        <time>1999-11-30T00:00:00Z</time>
      </trkpt>
      <trkpt lat="41.17815" lon="-1.59525">
        <ele>815.040</ele>
        <time>1999-11-30T00:00:00Z</time>
      </trkpt>
      <trkpt lat="41.178134" lon="-1.595433">
        <ele>816.011</ele>
        <time>1999-11-30T00:00:00Z</time>
      </trkpt>
      <trkpt lat="41.178117" lon="-1.595633">
        <ele>817.085</ele>
        <time>1999-11-30T00:00:00Z</time>
      </trkpt>
      <trkpt lat="41.178034" lon="-1.595767">
        <ele>817.050</ele>
        <time>1999-11-30T00:00:00Z</time>
      </trkpt>
      <trkpt lat="41.177834" lon="-1.59585">
        <ele>817.059</ele>
        <time>1999-11-30T00:00:00Z</time>
      </trkpt>
      <trkpt lat="41.177667" lon="-1.595966">
        <ele>818.050</ele>
        <time>1999-11-30T00:00:00Z</time>
      </trkpt>
      <trkpt lat="41.177417" lon="-1.59635">
        <ele>820.078</ele>
        <time>1999-11-30T00:00:00Z</time>
      </trkpt>
      <trkpt lat="41.177217" lon="-1.5966">
        <ele>819.091</ele>
        <time>1999-11-30T00:00:00Z</time>
      </trkpt>
      <trkpt lat="41.177084" lon="-1.5967">
        <ele>819.081</ele>
        <time>1999-11-30T00:00:00Z</time>
      </trkpt>
      <trkpt lat="41.176934" lon="-1.596683">
        <ele>819.019</ele>
        <time>1999-11-30T00:00:00Z</time>
      </trkpt>
      <trkpt lat="41.176784" lon="-1.596633">
        <ele>819.008</ele>
        <time>1999-11-30T00:00:00Z</time>
      </trkpt>
      <trkpt lat="41.176484" lon="-1.596683">
        <ele>819.090</ele>
        <time>1999-11-30T00:00:00Z</time>
      </trkpt>
      <trkpt lat="41.175434" lon="-1.5968">
        <ele>822.054</ele>
        <time>1999-11-30T00:00:00Z</time>
      </trkpt>
      <trkpt lat="41.175301" lon="-1.596849">
        <ele>823.065</ele>
        <time>1999-11-30T00:00:00Z</time>
      </trkpt>
      <trkpt lat="41.175134" lon="-1.597033">
        <ele>824.059</ele>
        <time>1999-11-30T00:00:00Z</time>
      </trkpt>
      <trkpt lat="41.174717" lon="-1.597533">
        <ele>826.094</ele>
        <time>1999-11-30T00:00:00Z</time>
      </trkpt>
      <trkpt lat="41.17435" lon="-1.598033">
        <ele>827.093</ele>
        <time>1999-11-30T00:00:00Z</time>
      </trkpt>
      <trkpt lat="41.173984" lon="-1.598466">
        <ele>828.034</ele>
        <time>1999-11-30T00:00:00Z</time>
      </trkpt>
      <trkpt lat="41.173034" lon="-1.599417">
        <ele>829.012</ele>
        <time>1999-11-30T00:00:00Z</time>
      </trkpt>
      <trkpt lat="41.172634" lon="-1.599883">
        <ele>828.011</ele>
        <time>1999-11-30T00:00:00Z</time>
      </trkpt>
      <trkpt lat="41.172417" lon="-1.600217">
        <ele>824.021</ele>
        <time>1999-11-30T00:00:00Z</time>
      </trkpt>
      <trkpt lat="41.172334" lon="-1.600667">
        <ele>821.003</ele>
        <time>1999-11-30T00:00:00Z</time>
      </trkpt>
      <trkpt lat="41.172234" lon="-1.60125">
        <ele>817.008</ele>
        <time>1999-11-30T00:00:00Z</time>
      </trkpt>
      <trkpt lat="41.17205" lon="-1.601916">
        <ele>813.072</ele>
        <time>1999-11-30T00:00:00Z</time>
      </trkpt>
      <trkpt lat="41.172017" lon="-1.602083">
        <ele>812.086</ele>
        <time>1999-11-30T00:00:00Z</time>
      </trkpt>
      <trkpt lat="41.17205" lon="-1.6022">
        <ele>813.097</ele>
        <time>1999-11-30T00:00:00Z</time>
      </trkpt>
      <trkpt lat="41.172034" lon="-1.602367">
        <ele>812.061</ele>
        <time>1999-11-30T00:00:00Z</time>
      </trkpt>
      <trkpt lat="41.1718" lon="-1.602433">
        <ele>810.056</ele>
        <time>1999-11-30T00:00:00Z</time>
      </trkpt>
      <trkpt lat="41.171634" lon="-1.60245">
        <ele>811.045</ele>
        <time>1999-11-30T00:00:00Z</time>
      </trkpt>
      <trkpt lat="41.171631" lon="-1.602452">
        <ele>811.096</ele>
        <time>1999-11-30T00:00:00Z</time>
      </trkpt>
      <trkpt lat="41.171642" lon="-1.60165">
        <ele>810.064</ele>
        <time>1999-11-30T00:00:00Z</time>
      </trkpt>
      <trkpt lat="41.171655" lon="-1.600708">
        <ele>806.013</ele>
        <time>1999-11-30T00:00:00Z</time>
      </trkpt>
      <trkpt lat="41.171583" lon="-1.600471">
        <ele>804.043</ele>
        <time>1999-11-30T00:00:00Z</time>
      </trkpt>
      <trkpt lat="41.171349" lon="-1.600098">
        <ele>799.007</ele>
        <time>1999-11-30T00:00:00Z</time>
      </trkpt>
      <trkpt lat="41.170834" lon="-1.599349">
        <ele>791.008</ele>
        <time>1999-11-30T00:00:00Z</time>
      </trkpt>
      <trkpt lat="41.170575" lon="-1.598965">
        <ele>790.012</ele>
        <time>1999-11-30T00:00:00Z</time>
      </trkpt>
      <trkpt lat="41.170596" lon="-1.598889">
        <ele>790.016</ele>
        <time>1999-11-30T00:00:00Z</time>
      </trkpt>
      <trkpt lat="41.170685" lon="-1.598771">
        <ele>789.047</ele>
        <time>1999-11-30T00:00:00Z</time>
      </trkpt>
      <trkpt lat="41.170815" lon="-1.598706">
        <ele>789.041</ele>
        <time>1999-11-30T00:00:00Z</time>
      </trkpt>
      <trkpt lat="41.170888" lon="-1.598631">
        <ele>789.036</ele>
        <time>1999-11-30T00:00:00Z</time>
      </trkpt>
      <trkpt lat="41.171014" lon="-1.598417">
        <ele>789.085</ele>
        <time>1999-11-30T00:00:00Z</time>
      </trkpt>
      <trkpt lat="41.171085" lon="-1.598292">
        <ele>790.086</ele>
        <time>1999-11-30T00:00:00Z</time>
      </trkpt>
      <trkpt lat="41.171137" lon="-1.597938">
        <ele>791.074</ele>
        <time>1999-11-30T00:00:00Z</time>
      </trkpt>
      <trkpt lat="41.171193" lon="-1.597451">
        <ele>789.099</ele>
        <time>1999-11-30T00:00:00Z</time>
      </trkpt>
      <trkpt lat="41.171233" lon="-1.597232">
        <ele>788.007</ele>
        <time>1999-11-30T00:00:00Z</time>
      </trkpt>
      <trkpt lat="41.171357" lon="-1.596962">
        <ele>787.027</ele>
        <time>1999-11-30T00:00:00Z</time>
      </trkpt>
      <trkpt lat="41.17168" lon="-1.596453">
        <ele>784.008</ele>
        <time>1999-11-30T00:00:00Z</time>
      </trkpt>
      <trkpt lat="41.172195" lon="-1.595857">
        <ele>783.010</ele>
        <time>1999-11-30T00:00:00Z</time>
      </trkpt>
      <trkpt lat="41.172676" lon="-1.595016">
        <ele>782.014</ele>
        <time>1999-11-30T00:00:00Z</time>
      </trkpt>
      <trkpt lat="41.172829" lon="-1.59472">
        <ele>783.045</ele>
        <time>1999-11-30T00:00:00Z</time>
      </trkpt>
      <trkpt lat="41.172904" lon="-1.594429">
        <ele>782.069</ele>
        <time>1999-11-30T00:00:00Z</time>
      </trkpt>
      <trkpt lat="41.17291" lon="-1.594087">
        <ele>780.094</ele>
        <time>1999-11-30T00:00:00Z</time>
      </trkpt>
      <trkpt lat="41.172981" lon="-1.593877">
        <ele>779.023</ele>
        <time>1999-11-30T00:00:00Z</time>
      </trkpt>
      <trkpt lat="41.173239" lon="-1.593029">
        <ele>776.054</ele>
        <time>1999-11-30T00:00:00Z</time>
      </trkpt>
      <trkpt lat="41.173282" lon="-1.592744">
        <ele>775.072</ele>
        <time>1999-11-30T00:00:00Z</time>
      </trkpt>
      <trkpt lat="41.17348" lon="-1.592171">
        <ele>775.058</ele>
        <time>1999-11-30T00:00:00Z</time>
      </trkpt>
      <trkpt lat="41.173569" lon="-1.591595">
        <ele>777.052</ele>
        <time>1999-11-30T00:00:00Z</time>
      </trkpt>
      <trkpt lat="41.173591" lon="-1.591367">
        <ele>778.017</ele>
        <time>1999-11-30T00:00:00Z</time>
      </trkpt>
      <trkpt lat="41.173666" lon="-1.591168">
        <ele>780.008</ele>
        <time>1999-11-30T00:00:00Z</time>
      </trkpt>
      <trkpt lat="41.173929" lon="-1.590783">
        <ele>780.036</ele>
        <time>1999-11-30T00:00:00Z</time>
      </trkpt>
      <trkpt lat="41.174264" lon="-1.590386">
        <ele>777.090</ele>
        <time>1999-11-30T00:00:00Z</time>
      </trkpt>
      <trkpt lat="41.174624" lon="-1.589871">
        <ele>778.051</ele>
        <time>1999-11-30T00:00:00Z</time>
      </trkpt>
      <trkpt lat="41.174854" lon="-1.589425">
        <ele>777.045</ele>
        <time>1999-11-30T00:00:00Z</time>
      </trkpt>
      <trkpt lat="41.175215" lon="-1.588494">
        <ele>779.070</ele>
        <time>1999-11-30T00:00:00Z</time>
      </trkpt>
      <trkpt lat="41.175333" lon="-1.588118">
        <ele>780.069</ele>
        <time>1999-11-30T00:00:00Z</time>
      </trkpt>
      <trkpt lat="41.175585" lon="-1.587479">
        <ele>782.050</ele>
        <time>1999-11-30T00:00:00Z</time>
      </trkpt>
      <trkpt lat="41.175646" lon="-1.587285">
        <ele>784.028</ele>
        <time>1999-11-30T00:00:00Z</time>
      </trkpt>
      <trkpt lat="41.175644" lon="-1.587076">
        <ele>788.075</ele>
        <time>1999-11-30T00:00:00Z</time>
      </trkpt>
      <trkpt lat="41.175553" lon="-1.586823">
        <ele>790.028</ele>
        <time>1999-11-30T00:00:00Z</time>
      </trkpt>
      <trkpt lat="41.175419" lon="-1.586596">
        <ele>790.020</ele>
        <time>1999-11-30T00:00:00Z</time>
      </trkpt>
      <trkpt lat="41.175316" lon="-1.586341">
        <ele>788.008</ele>
        <time>1999-11-30T00:00:00Z</time>
      </trkpt>
      <trkpt lat="41.175241" lon="-1.586026">
        <ele>784.048</ele>
        <time>1999-11-30T00:00:00Z</time>
      </trkpt>
      <trkpt lat="41.175219" lon="-1.585702">
        <ele>781.022</ele>
        <time>1999-11-30T00:00:00Z</time>
      </trkpt>
      <trkpt lat="41.17533" lon="-1.584965">
        <ele>772.093</ele>
        <time>1999-11-30T00:00:00Z</time>
      </trkpt>
      <trkpt lat="41.175401" lon="-1.584758">
        <ele>770.067</ele>
        <time>1999-11-30T00:00:00Z</time>
      </trkpt>
      <trkpt lat="41.175477" lon="-1.584464">
        <ele>769.092</ele>
        <time>1999-11-30T00:00:00Z</time>
      </trkpt>
      <trkpt lat="41.175549" lon="-1.584032">
        <ele>768.091</ele>
        <time>1999-11-30T00:00:00Z</time>
      </trkpt>
      <trkpt lat="41.175631" lon="-1.583905">
        <ele>768.062</ele>
        <time>1999-11-30T00:00:00Z</time>
      </trkpt>
      <trkpt lat="41.175786" lon="-1.583753">
        <ele>768.070</ele>
        <time>1999-11-30T00:00:00Z</time>
      </trkpt>
      <trkpt lat="41.17594" lon="-1.583521">
        <ele>769.066</ele>
        <time>1999-11-30T00:00:00Z</time>
      </trkpt>
      <trkpt lat="41.176015" lon="-1.583331">
        <ele>769.029</ele>
        <time>1999-11-30T00:00:00Z</time>
      </trkpt>
      <trkpt lat="41.176168" lon="-1.583259">
        <ele>769.021</ele>
        <time>1999-11-30T00:00:00Z</time>
      </trkpt>
      <trkpt lat="41.176373" lon="-1.583136">
        <ele>770.008</ele>
        <time>1999-11-30T00:00:00Z</time>
      </trkpt>
      <trkpt lat="41.176492" lon="-1.582963">
        <ele>771.017</ele>
        <time>1999-11-30T00:00:00Z</time>
      </trkpt>
      <trkpt lat="41.176518" lon="-1.582894">
        <ele>771.011</ele>
        <time>1999-11-30T00:00:00Z</time>
      </trkpt>
      <trkpt lat="41.176468" lon="-1.58289">
        <ele>771.022</ele>
        <time>1999-11-30T00:00:00Z</time>
      </trkpt>
      <trkpt lat="41.176329" lon="-1.582942">
        <ele>772.056</ele>
        <time>1999-11-30T00:00:00Z</time>
      </trkpt>
      <trkpt lat="41.176064" lon="-1.582924">
        <ele>776.021</ele>
        <time>1999-11-30T00:00:00Z</time>
      </trkpt>
      <trkpt lat="41.175834" lon="-1.582934">
        <ele>779.010</ele>
        <time>1999-11-30T00:00:00Z</time>
      </trkpt>
      <trkpt lat="41.175644" lon="-1.582831">
        <ele>780.081</ele>
        <time>1999-11-30T00:00:00Z</time>
      </trkpt>
      <trkpt lat="41.175436" lon="-1.582687">
        <ele>781.049</ele>
        <time>1999-11-30T00:00:00Z</time>
      </trkpt>
      <trkpt lat="41.175077" lon="-1.582435">
        <ele>786.032</ele>
        <time>1999-11-30T00:00:00Z</time>
      </trkpt>
      <trkpt lat="41.174948" lon="-1.582368">
        <ele>787.092</ele>
        <time>1999-11-30T00:00:00Z</time>
      </trkpt>
      <trkpt lat="41.174762" lon="-1.582381">
        <ele>789.011</ele>
        <time>1999-11-30T00:00:00Z</time>
      </trkpt>
      <trkpt lat="41.174394" lon="-1.582465">
        <ele>789.008</ele>
        <time>1999-11-30T00:00:00Z</time>
      </trkpt>
      <trkpt lat="41.174206" lon="-1.582535">
        <ele>790.064</ele>
        <time>1999-11-30T00:00:00Z</time>
      </trkpt>
      <trkpt lat="41.174118" lon="-1.582638">
        <ele>790.088</ele>
        <time>1999-11-30T00:00:00Z</time>
      </trkpt>
      <trkpt lat="41.174001" lon="-1.582682">
        <ele>789.019</ele>
        <time>1999-11-30T00:00:00Z</time>
      </trkpt>
      <trkpt lat="41.173861" lon="-1.582614">
        <ele>790.093</ele>
        <time>1999-11-30T00:00:00Z</time>
      </trkpt>
      <trkpt lat="41.173689" lon="-1.582522">
        <ele>790.018</ele>
        <time>1999-11-30T00:00:00Z</time>
      </trkpt>
      <trkpt lat="41.173522" lon="-1.58249">
        <ele>789.027</ele>
        <time>1999-11-30T00:00:00Z</time>
      </trkpt>
      <trkpt lat="41.173319" lon="-1.582459">
        <ele>790.078</ele>
        <time>1999-11-30T00:00:00Z</time>
      </trkpt>
      <trkpt lat="41.173044" lon="-1.582387">
        <ele>791.066</ele>
        <time>1999-11-30T00:00:00Z</time>
      </trkpt>
      <trkpt lat="41.172914" lon="-1.58236">
        <ele>792.035</ele>
        <time>1999-11-30T00:00:00Z</time>
      </trkpt>
      <trkpt lat="41.172842" lon="-1.582379">
        <ele>792.086</ele>
        <time>1999-11-30T00:00:00Z</time>
      </trkpt>
      <trkpt lat="41.172815" lon="-1.582498">
        <ele>792.014</ele>
        <time>1999-11-30T00:00:00Z</time>
      </trkpt>
      <trkpt lat="41.172766" lon="-1.582593">
        <ele>792.008</ele>
        <time>1999-11-30T00:00:00Z</time>
      </trkpt>
      <trkpt lat="41.17267" lon="-1.582645">
        <ele>794.024</ele>
        <time>1999-11-30T00:00:00Z</time>
      </trkpt>
      <trkpt lat="41.172558" lon="-1.582653">
        <ele>795.018</ele>
        <time>1999-11-30T00:00:00Z</time>
      </trkpt>
      <trkpt lat="41.172474" lon="-1.582738">
        <ele>796.019</ele>
        <time>1999-11-30T00:00:00Z</time>
      </trkpt>
      <trkpt lat="41.172363" lon="-1.582865">
        <ele>796.083</ele>
        <time>1999-11-30T00:00:00Z</time>
      </trkpt>
      <trkpt lat="41.172242" lon="-1.58294">
        <ele>798.078</ele>
        <time>1999-11-30T00:00:00Z</time>
      </trkpt>
      <trkpt lat="41.172071" lon="-1.582943">
        <ele>801.037</ele>
        <time>1999-11-30T00:00:00Z</time>
      </trkpt>
      <trkpt lat="41.171787" lon="-1.58289">
        <ele>802.038</ele>
        <time>1999-11-30T00:00:00Z</time>
      </trkpt>
      <trkpt lat="41.171546" lon="-1.582853">
        <ele>801.086</ele>
        <time>1999-11-30T00:00:00Z</time>
      </trkpt>
      <trkpt lat="41.171435" lon="-1.582614">
        <ele>800.059</ele>
        <time>1999-11-30T00:00:00Z</time>
      </trkpt>
      <trkpt lat="41.171314" lon="-1.582383">
        <ele>800.003</ele>
        <time>1999-11-30T00:00:00Z</time>
      </trkpt>
      <trkpt lat="41.17123" lon="-1.582253">
        <ele>800.023</ele>
        <time>1999-11-30T00:00:00Z</time>
      </trkpt>
      <trkpt lat="41.17111" lon="-1.582147">
        <ele>800.008</ele>
        <time>1999-11-30T00:00:00Z</time>
      </trkpt>
      <trkpt lat="41.171033" lon="-1.582029">
        <ele>800.096</ele>
        <time>1999-11-30T00:00:00Z</time>
      </trkpt>
      <trkpt lat="41.170888" lon="-1.581603">
        <ele>800.010</ele>
        <time>1999-11-30T00:00:00Z</time>
      </trkpt>
      <trkpt lat="41.1708" lon="-1.581415">
        <ele>800.061</ele>
        <time>1999-11-30T00:00:00Z</time>
      </trkpt>
      <trkpt lat="41.170708" lon="-1.581267">
        <ele>800.015</ele>
        <time>1999-11-30T00:00:00Z</time>
      </trkpt>
      <trkpt lat="41.170743" lon="-1.581152">
        <ele>800.060</ele>
        <time>1999-11-30T00:00:00Z</time>
      </trkpt>
      <trkpt lat="41.170731" lon="-1.581053">
        <ele>800.039</ele>
        <time>1999-11-30T00:00:00Z</time>
      </trkpt>
      <trkpt lat="41.170686" lon="-1.58093">
        <ele>800.010</ele>
        <time>1999-11-30T00:00:00Z</time>
      </trkpt>
      <trkpt lat="41.17061" lon="-1.580759">
        <ele>799.068</ele>
        <time>1999-11-30T00:00:00Z</time>
      </trkpt>
      <trkpt lat="41.170535" lon="-1.580476">
        <ele>799.074</ele>
        <time>1999-11-30T00:00:00Z</time>
      </trkpt>
      <trkpt lat="41.170464" lon="-1.580219">
        <ele>799.056</ele>
        <time>1999-11-30T00:00:00Z</time>
      </trkpt>
      <trkpt lat="41.170407" lon="-1.580035">
        <ele>799.021</ele>
        <time>1999-11-30T00:00:00Z</time>
      </trkpt>
      <trkpt lat="41.17038" lon="-1.579913">
        <ele>799.008</ele>
        <time>1999-11-30T00:00:00Z</time>
      </trkpt>
      <trkpt lat="41.170382" lon="-1.579818">
        <ele>799.028</ele>
        <time>1999-11-30T00:00:00Z</time>
      </trkpt>
      <trkpt lat="41.170442" lon="-1.579741">
        <ele>799.042</ele>
        <time>1999-11-30T00:00:00Z</time>
      </trkpt>
      <trkpt lat="41.17055" lon="-1.579672">
        <ele>800.013</ele>
        <time>1999-11-30T00:00:00Z</time>
      </trkpt>
      <trkpt lat="41.170662" lon="-1.579588">
        <ele>799.067</ele>
        <time>1999-11-30T00:00:00Z</time>
      </trkpt>
      <trkpt lat="41.170739" lon="-1.579419">
        <ele>799.062</ele>
        <time>1999-11-30T00:00:00Z</time>
      </trkpt>
      <trkpt lat="41.170884" lon="-1.579135">
        <ele>800.031</ele>
        <time>1999-11-30T00:00:00Z</time>
      </trkpt>
      <trkpt lat="41.171014" lon="-1.578901">
        <ele>799.082</ele>
        <time>1999-11-30T00:00:00Z</time>
      </trkpt>
      <trkpt lat="41.171094" lon="-1.578749">
        <ele>799.040</ele>
        <time>1999-11-30T00:00:00Z</time>
      </trkpt>
      <trkpt lat="41.171137" lon="-1.578599">
        <ele>800.069</ele>
        <time>1999-11-30T00:00:00Z</time>
      </trkpt>
      <trkpt lat="41.171148" lon="-1.578399">
        <ele>800.004</ele>
        <time>1999-11-30T00:00:00Z</time>
      </trkpt>
      <trkpt lat="41.17116" lon="-1.578156">
        <ele>800.024</ele>
        <time>1999-11-30T00:00:00Z</time>
      </trkpt>
      <trkpt lat="41.171154" lon="-1.57776">
        <ele>799.008</ele>
        <time>1999-11-30T00:00:00Z</time>
      </trkpt>
      <trkpt lat="41.171113" lon="-1.577246">
        <ele>799.077</ele>
        <time>1999-11-30T00:00:00Z</time>
      </trkpt>
      <trkpt lat="41.171073" lon="-1.576833">
        <ele>799.061</ele>
        <time>1999-11-30T00:00:00Z</time>
      </trkpt>
      <trkpt lat="41.17106" lon="-1.576437">
        <ele>799.082</ele>
        <time>1999-11-30T00:00:00Z</time>
      </trkpt>
      <trkpt lat="41.171063" lon="-1.576146">
        <ele>797.016</ele>
        <time>1999-11-30T00:00:00Z</time>
      </trkpt>
      <trkpt lat="41.171043" lon="-1.575899">
        <ele>795.011</ele>
        <time>1999-11-30T00:00:00Z</time>
      </trkpt>
      <trkpt lat="41.170991" lon="-1.575593">
        <ele>793.030</ele>
        <time>1999-11-30T00:00:00Z</time>
      </trkpt>
      <trkpt lat="41.170868" lon="-1.57519">
        <ele>790.081</ele>
        <time>1999-11-30T00:00:00Z</time>
      </trkpt>
      <trkpt lat="41.170814" lon="-1.574988">
        <ele>789.029</ele>
        <time>1999-11-30T00:00:00Z</time>
      </trkpt>
      <trkpt lat="41.170796" lon="-1.574794">
        <ele>789.061</ele>
        <time>1999-11-30T00:00:00Z</time>
      </trkpt>
      <trkpt lat="41.170829" lon="-1.574533">
        <ele>788.021</ele>
        <time>1999-11-30T00:00:00Z</time>
      </trkpt>
      <trkpt lat="41.17086" lon="-1.57422">
        <ele>789.013</ele>
        <time>1999-11-30T00:00:00Z</time>
      </trkpt>
      <trkpt lat="41.170898" lon="-1.574044">
        <ele>789.008</ele>
        <time>1999-11-30T00:00:00Z</time>
      </trkpt>
      <trkpt lat="41.170862" lon="-1.573839">
        <ele>789.027</ele>
        <time>1999-11-30T00:00:00Z</time>
      </trkpt>
      <trkpt lat="41.17076" lon="-1.573692">
        <ele>789.021</ele>
        <time>1999-11-30T00:00:00Z</time>
      </trkpt>
      <trkpt lat="41.170678" lon="-1.573549">
        <ele>789.042</ele>
        <time>1999-11-30T00:00:00Z</time>
      </trkpt>
      <trkpt lat="41.170624" lon="-1.573373">
        <ele>790.036</ele>
        <time>1999-11-30T00:00:00Z</time>
      </trkpt>
      <trkpt lat="41.170546" lon="-1.573226">
        <ele>789.031</ele>
        <time>1999-11-30T00:00:00Z</time>
      </trkpt>
      <trkpt lat="41.170355" lon="-1.573041">
        <ele>790.070</ele>
        <time>1999-11-30T00:00:00Z</time>
      </trkpt>
      <trkpt lat="41.170227" lon="-1.572878">
        <ele>791.081</ele>
        <time>1999-11-30T00:00:00Z</time>
      </trkpt>
      <trkpt lat="41.170037" lon="-1.572694">
        <ele>793.049</ele>
        <time>1999-11-30T00:00:00Z</time>
      </trkpt>
      <trkpt lat="41.169909" lon="-1.572467">
        <ele>795.066</ele>
        <time>1999-11-30T00:00:00Z</time>
      </trkpt>
      <trkpt lat="41.169806" lon="-1.572267">
        <ele>796.029</ele>
        <time>1999-11-30T00:00:00Z</time>
      </trkpt>
      <trkpt lat="41.169756" lon="-1.572115">
        <ele>796.021</ele>
        <time>1999-11-30T00:00:00Z</time>
      </trkpt>
      <trkpt lat="41.169748" lon="-1.571945">
        <ele>798.008</ele>
        <time>1999-11-30T00:00:00Z</time>
      </trkpt>
      <trkpt lat="41.169809" lon="-1.571686">
        <ele>800.067</ele>
        <time>1999-11-30T00:00:00Z</time>
      </trkpt>
      <trkpt lat="41.169814" lon="-1.571477">
        <ele>800.061</ele>
        <time>1999-11-30T00:00:00Z</time>
      </trkpt>
      <trkpt lat="41.169715" lon="-1.571206">
        <ele>800.032</ele>
        <time>1999-11-30T00:00:00Z</time>
      </trkpt>
      <trkpt lat="41.169584" lon="-1.571029">
        <ele>801.046</ele>
        <time>1999-11-30T00:00:00Z</time>
      </trkpt>
      <trkpt lat="41.169414" lon="-1.570883">
        <ele>800.021</ele>
        <time>1999-11-30T00:00:00Z</time>
      </trkpt>
      <trkpt lat="41.169283" lon="-1.570691">
        <ele>800.050</ele>
        <time>1999-11-30T00:00:00Z</time>
      </trkpt>
      <trkpt lat="41.169192" lon="-1.570399">
        <ele>801.081</ele>
        <time>1999-11-30T00:00:00Z</time>
      </trkpt>
      <trkpt lat="41.169061" lon="-1.570007">
        <ele>800.049</ele>
        <time>1999-11-30T00:00:00Z</time>
      </trkpt>
      <trkpt lat="41.168939" lon="-1.569623">
        <ele>802.063</ele>
        <time>1999-11-30T00:00:00Z</time>
      </trkpt>
      <trkpt lat="41.168885" lon="-1.569278">
        <ele>805.044</ele>
        <time>1999-11-30T00:00:00Z</time>
      </trkpt>
      <trkpt lat="41.16884" lon="-1.568968">
        <ele>805.018</ele>
        <time>1999-11-30T00:00:00Z</time>
      </trkpt>
      <trkpt lat="41.168797" lon="-1.568693">
        <ele>804.008</ele>
        <time>1999-11-30T00:00:00Z</time>
      </trkpt>
      <trkpt lat="41.168799" lon="-1.568549">
        <ele>804.017</ele>
        <time>1999-11-30T00:00:00Z</time>
      </trkpt>
      <trkpt lat="41.168902" lon="-1.56823">
        <ele>806.081</ele>
        <time>1999-11-30T00:00:00Z</time>
      </trkpt>
      <trkpt lat="41.168933" lon="-1.568051">
        <ele>807.092</ele>
        <time>1999-11-30T00:00:00Z</time>
      </trkpt>
      <trkpt lat="41.168908" lon="-1.567746">
        <ele>808.026</ele>
        <time>1999-11-30T00:00:00Z</time>
      </trkpt>
      <trkpt lat="41.168845" lon="-1.567303">
        <ele>808.011</ele>
        <time>1999-11-30T00:00:00Z</time>
      </trkpt>
      <trkpt lat="41.168725" lon="-1.566924">
        <ele>809.030</ele>
        <time>1999-11-30T00:00:00Z</time>
      </trkpt>
      <trkpt lat="41.168596" lon="-1.566719">
        <ele>809.021</ele>
        <time>1999-11-30T00:00:00Z</time>
      </trkpt>
      <trkpt lat="41.168552" lon="-1.566562">
        <ele>809.089</ele>
        <time>1999-11-30T00:00:00Z</time>
      </trkpt>
      <trkpt lat="41.168544" lon="-1.566356">
        <ele>810.035</ele>
        <time>1999-11-30T00:00:00Z</time>
      </trkpt>
      <trkpt lat="41.16858" lon="-1.566144">
        <ele>811.086</ele>
        <time>1999-11-30T00:00:00Z</time>
      </trkpt>
      <trkpt lat="41.16859" lon="-1.566006">
        <ele>811.014</ele>
        <time>1999-11-30T00:00:00Z</time>
      </trkpt>
      <trkpt lat="41.168561" lon="-1.565832">
        <ele>811.008</ele>
        <time>1999-11-30T00:00:00Z</time>
      </trkpt>
      <trkpt lat="41.168493" lon="-1.565687">
        <ele>810.054</ele>
        <time>1999-11-30T00:00:00Z</time>
      </trkpt>
      <trkpt lat="41.168474" lon="-1.565537">
        <ele>810.038</ele>
        <time>1999-11-30T00:00:00Z</time>
      </trkpt>
      <trkpt lat="41.168445" lon="-1.56541">
        <ele>811.019</ele>
        <time>1999-11-30T00:00:00Z</time>
      </trkpt>
      <trkpt lat="41.168333" lon="-1.565294">
        <ele>814.073</ele>
        <time>1999-11-30T00:00:00Z</time>
      </trkpt>
      <trkpt lat="41.168063" lon="-1.565026">
        <ele>816.068</ele>
        <time>1999-11-30T00:00:00Z</time>
      </trkpt>
      <trkpt lat="41.167869" lon="-1.564868">
        <ele>815.027</ele>
        <time>1999-11-30T00:00:00Z</time>
      </trkpt>
      <trkpt lat="41.167677" lon="-1.564797">
        <ele>811.018</ele>
        <time>1999-11-30T00:00:00Z</time>
      </trkpt>
      <trkpt lat="41.167376" lon="-1.564653">
        <ele>811.036</ele>
        <time>1999-11-30T00:00:00Z</time>
      </trkpt>
      <trkpt lat="41.167192" lon="-1.56457">
        <ele>810.077</ele>
        <time>1999-11-30T00:00:00Z</time>
      </trkpt>
      <trkpt lat="41.166966" lon="-1.56442">
        <ele>813.061</ele>
        <time>1999-11-30T00:00:00Z</time>
      </trkpt>
      <trkpt lat="41.16676" lon="-1.564227">
        <ele>815.027</ele>
        <time>1999-11-30T00:00:00Z</time>
      </trkpt>
      <trkpt lat="41.166557" lon="-1.564033">
        <ele>817.008</ele>
        <time>1999-11-30T00:00:00Z</time>
      </trkpt>
      <trkpt lat="41.166197" lon="-1.563733">
        <ele>818.098</ele>
        <time>1999-11-30T00:00:00Z</time>
      </trkpt>
      <trkpt lat="41.166" lon="-1.563479">
        <ele>818.082</ele>
        <time>1999-11-30T00:00:00Z</time>
      </trkpt>
      <trkpt lat="41.165693" lon="-1.563147">
        <ele>818.073</ele>
        <time>1999-11-30T00:00:00Z</time>
      </trkpt>
      <trkpt lat="41.16551" lon="-1.562901">
        <ele>818.097</ele>
        <time>1999-11-30T00:00:00Z</time>
      </trkpt>
      <trkpt lat="41.165451" lon="-1.5627">
        <ele>819.082</ele>
        <time>1999-11-30T00:00:00Z</time>
      </trkpt>
      <trkpt lat="41.165365" lon="-1.562505">
        <ele>819.061</ele>
        <time>1999-11-30T00:00:00Z</time>
      </trkpt>
      <trkpt lat="41.165318" lon="-1.562374">
        <ele>819.092</ele>
        <time>1999-11-30T00:00:00Z</time>
      </trkpt>
      <trkpt lat="41.16527" lon="-1.562141">
        <ele>819.040</ele>
        <time>1999-11-30T00:00:00Z</time>
      </trkpt>
      <trkpt lat="41.165202" lon="-1.56194">
        <ele>819.099</ele>
        <time>1999-11-30T00:00:00Z</time>
      </trkpt>
      <trkpt lat="41.165058" lon="-1.561754">
        <ele>819.007</ele>
        <time>1999-11-30T00:00:00Z</time>
      </trkpt>
      <trkpt lat="41.16487" lon="-1.561611">
        <ele>819.027</ele>
        <time>1999-11-30T00:00:00Z</time>
      </trkpt>
      <trkpt lat="41.164637" lon="-1.56147">
        <ele>819.008</ele>
        <time>1999-11-30T00:00:00Z</time>
      </trkpt>
      <trkpt lat="41.164313" lon="-1.561302">
        <ele>819.020</ele>
        <time>1999-11-30T00:00:00Z</time>
      </trkpt>
      <trkpt lat="41.163942" lon="-1.561159">
        <ele>820.084</ele>
        <time>1999-11-30T00:00:00Z</time>
      </trkpt>
      <trkpt lat="41.163687" lon="-1.561013">
        <ele>820.015</ele>
        <time>1999-11-30T00:00:00Z</time>
      </trkpt>
      <trkpt lat="41.16338" lon="-1.560765">
        <ele>820.059</ele>
        <time>1999-11-30T00:00:00Z</time>
      </trkpt>
      <trkpt lat="41.163261" lon="-1.560672">
        <ele>820.054</ele>
        <time>1999-11-30T00:00:00Z</time>
      </trkpt>
      <trkpt lat="41.162931" lon="-1.560277">
        <ele>820.013</ele>
        <time>1999-11-30T00:00:00Z</time>
      </trkpt>
      <trkpt lat="41.162732" lon="-1.560083">
        <ele>821.074</ele>
        <time>1999-11-30T00:00:00Z</time>
      </trkpt>
      <trkpt lat="41.16258" lon="-1.559992">
        <ele>822.052</ele>
        <time>1999-11-30T00:00:00Z</time>
      </trkpt>
      <trkpt lat="41.162453" lon="-1.559777">
        <ele>824.018</ele>
        <time>1999-11-30T00:00:00Z</time>
      </trkpt>
      <trkpt lat="41.162286" lon="-1.559285">
        <ele>827.098</ele>
        <time>1999-11-30T00:00:00Z</time>
      </trkpt>
      <trkpt lat="41.162106" lon="-1.558915">
        <ele>828.017</ele>
        <time>1999-11-30T00:00:00Z</time>
      </trkpt>
      <trkpt lat="41.161933" lon="-1.558474">
        <ele>829.008</ele>
        <time>1999-11-30T00:00:00Z</time>
      </trkpt>
      <trkpt lat="41.161767" lon="-1.558042">
        <ele>830.082</ele>
        <time>1999-11-30T00:00:00Z</time>
      </trkpt>
      <trkpt lat="41.161708" lon="-1.557712">
        <ele>830.086</ele>
        <time>1999-11-30T00:00:00Z</time>
      </trkpt>
      <trkpt lat="41.161706" lon="-1.557533">
        <ele>830.037</ele>
        <time>1999-11-30T00:00:00Z</time>
      </trkpt>
      <trkpt lat="41.161588" lon="-1.55704">
        <ele>830.011</ele>
        <time>1999-11-30T00:00:00Z</time>
      </trkpt>
      <trkpt lat="41.161521" lon="-1.557007">
        <ele>830.046</ele>
        <time>1999-11-30T00:00:00Z</time>
      </trkpt>
      <trkpt lat="41.16127" lon="-1.556816">
        <ele>830.065</ele>
        <time>1999-11-30T00:00:00Z</time>
      </trkpt>
      <trkpt lat="41.161101" lon="-1.556553">
        <ele>831.046</ele>
        <time>1999-11-30T00:00:00Z</time>
      </trkpt>
      <trkpt lat="41.160892" lon="-1.556151">
        <ele>835.014</ele>
        <time>1999-11-30T00:00:00Z</time>
      </trkpt>
      <trkpt lat="41.160811" lon="-1.556099">
        <ele>836.015</ele>
        <time>1999-11-30T00:00:00Z</time>
      </trkpt>
      <trkpt lat="41.16061" lon="-1.55605">
        <ele>839.065</ele>
        <time>1999-11-30T00:00:00Z</time>
      </trkpt>
      <trkpt lat="41.160034" lon="-1.555693">
        <ele>840.011</ele>
        <time>1999-11-30T00:00:00Z</time>
      </trkpt>
      <trkpt lat="41.159952" lon="-1.555488">
        <ele>840.008</ele>
        <time>1999-11-30T00:00:00Z</time>
      </trkpt>
      <trkpt lat="41.159672" lon="-1.555387">
        <ele>840.082</ele>
        <time>1999-11-30T00:00:00Z</time>
      </trkpt>
      <trkpt lat="41.159821" lon="-1.554893">
        <ele>841.016</ele>
        <time>1999-11-30T00:00:00Z</time>
      </trkpt>
      <trkpt lat="41.160032" lon="-1.554497">
        <ele>841.027</ele>
        <time>1999-11-30T00:00:00Z</time>
      </trkpt>
      <trkpt lat="41.160097" lon="-1.554389">
        <ele>841.091</ele>
        <time>1999-11-30T00:00:00Z</time>
      </trkpt>
      <trkpt lat="41.160168" lon="-1.554228">
        <ele>841.076</ele>
        <time>1999-11-30T00:00:00Z</time>
      </trkpt>
      <trkpt lat="41.160287" lon="-1.55405">
        <ele>840.035</ele>
        <time>1999-11-30T00:00:00Z</time>
      </trkpt>
      <trkpt lat="41.160288" lon="-1.553898">
        <ele>840.066</ele>
        <time>1999-11-30T00:00:00Z</time>
      </trkpt>
      <trkpt lat="41.160116" lon="-1.552947">
        <ele>846.074</ele>
        <time>1999-11-30T00:00:00Z</time>
      </trkpt>
      <trkpt lat="41.160088" lon="-1.55273">
        <ele>847.012</ele>
        <time>1999-11-30T00:00:00Z</time>
      </trkpt>
      <trkpt lat="41.160139" lon="-1.552535">
        <ele>847.032</ele>
        <time>1999-11-30T00:00:00Z</time>
      </trkpt>
      <trkpt lat="41.160154" lon="-1.552331">
        <ele>848.005</ele>
        <time>1999-11-30T00:00:00Z</time>
      </trkpt>
      <trkpt lat="41.160101" lon="-1.552058">
        <ele>849.008</ele>
        <time>1999-11-30T00:00:00Z</time>
      </trkpt>
      <trkpt lat="41.160024" lon="-1.55188">
        <ele>849.042</ele>
        <time>1999-11-30T00:00:00Z</time>
      </trkpt>
      <trkpt lat="41.159863" lon="-1.551628">
        <ele>850.096</ele>
        <time>1999-11-30T00:00:00Z</time>
      </trkpt>
      <trkpt lat="41.159755" lon="-1.551328">
        <ele>850.027</ele>
        <time>1999-11-30T00:00:00Z</time>
      </trkpt>
      <trkpt lat="41.159629" lon="-1.550943">
        <ele>850.081</ele>
        <time>1999-11-30T00:00:00Z</time>
      </trkpt>
      <trkpt lat="41.15938" lon="-1.550423">
        <ele>850.076</ele>
        <time>1999-11-30T00:00:00Z</time>
      </trkpt>
      <trkpt lat="41.158862" lon="-1.549304">
        <ele>855.085</ele>
        <time>1999-11-30T00:00:00Z</time>
      </trkpt>
      <trkpt lat="41.158652" lon="-1.548878">
        <ele>857.056</ele>
        <time>1999-11-30T00:00:00Z</time>
      </trkpt>
      <trkpt lat="41.1583" lon="-1.548244">
        <ele>858.074</ele>
        <time>1999-11-30T00:00:00Z</time>
      </trkpt>
      <trkpt lat="41.157931" lon="-1.547611">
        <ele>859.087</ele>
        <time>1999-11-30T00:00:00Z</time>
      </trkpt>
      <trkpt lat="41.157538" lon="-1.547125">
        <ele>860.042</ele>
        <time>1999-11-30T00:00:00Z</time>
      </trkpt>
      <trkpt lat="41.157447" lon="-1.546992">
        <ele>860.026</ele>
        <time>1999-11-30T00:00:00Z</time>
      </trkpt>
      <trkpt lat="41.157207" lon="-1.546509">
        <ele>861.008</ele>
        <time>1999-11-30T00:00:00Z</time>
      </trkpt>
      <trkpt lat="41.156727" lon="-1.54585">
        <ele>863.079</ele>
        <time>1999-11-30T00:00:00Z</time>
      </trkpt>
      <trkpt lat="41.156499" lon="-1.545585">
        <ele>865.033</ele>
        <time>1999-11-30T00:00:00Z</time>
      </trkpt>
      <trkpt lat="41.156275" lon="-1.545416">
        <ele>866.044</ele>
        <time>1999-11-30T00:00:00Z</time>
      </trkpt>
      <trkpt lat="41.156132" lon="-1.545298">
        <ele>867.038</ele>
        <time>1999-11-30T00:00:00Z</time>
      </trkpt>
      <trkpt lat="41.156078" lon="-1.545257">
        <ele>867.083</ele>
        <time>1999-11-30T00:00:00Z</time>
      </trkpt>
      <trkpt lat="41.156062" lon="-1.544712">
        <ele>870.022</ele>
        <time>1999-11-30T00:00:00Z</time>
      </trkpt>
      <trkpt lat="41.156021" lon="-1.544106">
        <ele>873.013</ele>
        <time>1999-11-30T00:00:00Z</time>
      </trkpt>
      <trkpt lat="41.155918" lon="-1.54368">
        <ele>873.061</ele>
        <time>1999-11-30T00:00:00Z</time>
      </trkpt>
      <trkpt lat="41.155802" lon="-1.543244">
        <ele>873.073</ele>
        <time>1999-11-30T00:00:00Z</time>
      </trkpt>
      <trkpt lat="41.155773" lon="-1.542964">
        <ele>873.085</ele>
        <time>1999-11-30T00:00:00Z</time>
      </trkpt>
      <trkpt lat="41.155662" lon="-1.542944">
        <ele>872.013</ele>
        <time>1999-11-30T00:00:00Z</time>
      </trkpt>
      <trkpt lat="41.155445" lon="-1.542887">
        <ele>872.008</ele>
        <time>1999-11-30T00:00:00Z</time>
      </trkpt>
      <trkpt lat="41.155336" lon="-1.542747">
        <ele>872.048</ele>
        <time>1999-11-30T00:00:00Z</time>
      </trkpt>
      <trkpt lat="41.155248" lon="-1.542475">
        <ele>871.042</ele>
        <time>1999-11-30T00:00:00Z</time>
      </trkpt>
      <trkpt lat="41.15514" lon="-1.542028">
        <ele>871.043</ele>
        <time>1999-11-30T00:00:00Z</time>
      </trkpt>
      <trkpt lat="41.155102" lon="-1.541658">
        <ele>870.037</ele>
        <time>1999-11-30T00:00:00Z</time>
      </trkpt>
      <trkpt lat="41.155094" lon="-1.541388">
        <ele>870.012</ele>
        <time>1999-11-30T00:00:00Z</time>
      </trkpt>
      <trkpt lat="41.155136" lon="-1.541011">
        <ele>870.031</ele>
        <time>1999-11-30T00:00:00Z</time>
      </trkpt>
      <trkpt lat="41.155145" lon="-1.540701">
        <ele>870.022</ele>
        <time>1999-11-30T00:00:00Z</time>
      </trkpt>
      <trkpt lat="41.155103" lon="-1.540371">
        <ele>871.050</ele>
        <time>1999-11-30T00:00:00Z</time>
      </trkpt>
      <trkpt lat="41.155013" lon="-1.540058">
        <ele>873.043</ele>
        <time>1999-11-30T00:00:00Z</time>
      </trkpt>
      <trkpt lat="41.154856" lon="-1.539679">
        <ele>876.064</ele>
        <time>1999-11-30T00:00:00Z</time>
      </trkpt>
      <trkpt lat="41.154746" lon="-1.539389">
        <ele>879.010</ele>
        <time>1999-11-30T00:00:00Z</time>
      </trkpt>
      <trkpt lat="41.154627" lon="-1.53907">
        <ele>881.008</ele>
        <time>1999-11-30T00:00:00Z</time>
      </trkpt>
      <trkpt lat="41.154498" lon="-1.538618">
        <ele>884.085</ele>
        <time>1999-11-30T00:00:00Z</time>
      </trkpt>
      <trkpt lat="41.154372" lon="-1.538081">
        <ele>888.059</ele>
        <time>1999-11-30T00:00:00Z</time>
      </trkpt>
      <trkpt lat="41.154295" lon="-1.537684">
        <ele>890.010</ele>
        <time>1999-11-30T00:00:00Z</time>
      </trkpt>
      <trkpt lat="41.154302" lon="-1.53724">
        <ele>890.014</ele>
        <time>1999-11-30T00:00:00Z</time>
      </trkpt>
      <trkpt lat="41.154331" lon="-1.536783">
        <ele>890.069</ele>
        <time>1999-11-30T00:00:00Z</time>
      </trkpt>
      <trkpt lat="41.154323" lon="-1.536542">
        <ele>891.048</ele>
        <time>1999-11-30T00:00:00Z</time>
      </trkpt>
      <trkpt lat="41.154287" lon="-1.536346">
        <ele>893.079</ele>
        <time>1999-11-30T00:00:00Z</time>
      </trkpt>
      <trkpt lat="41.154216" lon="-1.536156">
        <ele>894.077</ele>
        <time>1999-11-30T00:00:00Z</time>
      </trkpt>
      <trkpt lat="41.154108" lon="-1.53604">
        <ele>894.038</ele>
        <time>1999-11-30T00:00:00Z</time>
      </trkpt>
      <trkpt lat="41.153925" lon="-1.535944">
        <ele>895.070</ele>
        <time>1999-11-30T00:00:00Z</time>
      </trkpt>
      <trkpt lat="41.153783" lon="-1.535896">
        <ele>895.017</ele>
        <time>1999-11-30T00:00:00Z</time>
      </trkpt>
      <trkpt lat="41.15368" lon="-1.535769">
        <ele>894.008</ele>
        <time>1999-11-30T00:00:00Z</time>
      </trkpt>
      <trkpt lat="41.153493" lon="-1.535425">
        <ele>890.064</ele>
        <time>1999-11-30T00:00:00Z</time>
      </trkpt>
      <trkpt lat="41.153372" lon="-1.535258">
        <ele>888.058</ele>
        <time>1999-11-30T00:00:00Z</time>
      </trkpt>
      <trkpt lat="41.153298" lon="-1.535109">
        <ele>886.099</ele>
        <time>1999-11-30T00:00:00Z</time>
      </trkpt>
      <trkpt lat="41.153152" lon="-1.534993">
        <ele>884.043</ele>
        <time>1999-11-30T00:00:00Z</time>
      </trkpt>
      <trkpt lat="41.152972" lon="-1.534919">
        <ele>883.068</ele>
        <time>1999-11-30T00:00:00Z</time>
      </trkpt>
      <trkpt lat="41.152895" lon="-1.534881">
        <ele>882.097</ele>
        <time>1999-11-30T00:00:00Z</time>
      </trkpt>
      <trkpt lat="41.152839" lon="-1.534765">
        <ele>882.098</ele>
        <time>1999-11-30T00:00:00Z</time>
      </trkpt>
      <trkpt lat="41.152849" lon="-1.534607">
        <ele>881.056</ele>
        <time>1999-11-30T00:00:00Z</time>
      </trkpt>
      <trkpt lat="41.152851" lon="-1.534421">
        <ele>881.048</ele>
        <time>1999-11-30T00:00:00Z</time>
      </trkpt>
      <trkpt lat="41.15281" lon="-1.534169">
        <ele>882.061</ele>
        <time>1999-11-30T00:00:00Z</time>
      </trkpt>
      <trkpt lat="41.15269" lon="-1.533739">
        <ele>883.017</ele>
        <time>1999-11-30T00:00:00Z</time>
      </trkpt>
      <trkpt lat="41.152611" lon="-1.533549">
        <ele>884.008</ele>
        <time>1999-11-30T00:00:00Z</time>
      </trkpt>
      <trkpt lat="41.152472" lon="-1.533344">
        <ele>886.055</ele>
        <time>1999-11-30T00:00:00Z</time>
      </trkpt>
      <trkpt lat="41.15226" lon="-1.533102">
        <ele>888.069</ele>
        <time>1999-11-30T00:00:00Z</time>
      </trkpt>
      <trkpt lat="41.152057" lon="-1.532837">
        <ele>890.060</ele>
        <time>1999-11-30T00:00:00Z</time>
      </trkpt>
      <trkpt lat="41.151809" lon="-1.532713">
        <ele>892.014</ele>
        <time>1999-11-30T00:00:00Z</time>
      </trkpt>
      <trkpt lat="41.15153" lon="-1.532516">
        <ele>892.029</ele>
        <time>1999-11-30T00:00:00Z</time>
      </trkpt>
      <trkpt lat="41.1512" lon="-1.532282">
        <ele>889.048</ele>
        <time>1999-11-30T00:00:00Z</time>
      </trkpt>
      <trkpt lat="41.151071" lon="-1.532145">
        <ele>888.049</ele>
        <time>1999-11-30T00:00:00Z</time>
      </trkpt>
      <trkpt lat="41.150924" lon="-1.531889">
        <ele>887.087</ele>
        <time>1999-11-30T00:00:00Z</time>
      </trkpt>
      <trkpt lat="41.150795" lon="-1.53178">
        <ele>886.052</ele>
        <time>1999-11-30T00:00:00Z</time>
      </trkpt>
      <trkpt lat="41.150576" lon="-1.531655">
        <ele>883.053</ele>
        <time>1999-11-30T00:00:00Z</time>
      </trkpt>
      <trkpt lat="41.15046" lon="-1.531574">
        <ele>882.008</ele>
        <time>1999-11-30T00:00:00Z</time>
      </trkpt>
      <trkpt lat="41.15008" lon="-1.53102">
        <ele>879.008</ele>
        <time>1999-11-30T00:00:00Z</time>
      </trkpt>
      <trkpt lat="41.14988" lon="-1.530704">
        <ele>878.046</ele>
        <time>1999-11-30T00:00:00Z</time>
      </trkpt>
      <trkpt lat="41.149836" lon="-1.530581">
        <ele>878.060</ele>
        <time>1999-11-30T00:00:00Z</time>
      </trkpt>
      <trkpt lat="41.149768" lon="-1.530251">
        <ele>878.031</ele>
        <time>1999-11-30T00:00:00Z</time>
      </trkpt>
      <trkpt lat="41.149612" lon="-1.529697">
        <ele>877.035</ele>
        <time>1999-11-30T00:00:00Z</time>
      </trkpt>
      <trkpt lat="41.149536" lon="-1.529418">
        <ele>877.040</ele>
        <time>1999-11-30T00:00:00Z</time>
      </trkpt>
      <trkpt lat="41.149392" lon="-1.52913">
        <ele>877.069</ele>
        <time>1999-11-30T00:00:00Z</time>
      </trkpt>
      <trkpt lat="41.149333" lon="-1.528833">
        <ele>878.040</ele>
        <time>1999-11-30T00:00:00Z</time>
      </trkpt>
      <trkpt lat="41.149303" lon="-1.528418">
        <ele>880.018</ele>
        <time>1999-11-30T00:00:00Z</time>
      </trkpt>
      <trkpt lat="41.149253" lon="-1.528199">
        <ele>881.073</ele>
        <time>1999-11-30T00:00:00Z</time>
      </trkpt>
      <trkpt lat="41.149152" lon="-1.527965">
        <ele>881.085</ele>
        <time>1999-11-30T00:00:00Z</time>
      </trkpt>
      <trkpt lat="41.149022" lon="-1.52744">
        <ele>879.013</ele>
        <time>1999-11-30T00:00:00Z</time>
      </trkpt>
      <trkpt lat="41.148876" lon="-1.526633">
        <ele>870.008</ele>
        <time>1999-11-30T00:00:00Z</time>
      </trkpt>
      <trkpt lat="41.148831" lon="-1.52646">
        <ele>869.058</ele>
        <time>1999-11-30T00:00:00Z</time>
      </trkpt>
      <trkpt lat="41.148762" lon="-1.526366">
        <ele>868.072</ele>
        <time>1999-11-30T00:00:00Z</time>
      </trkpt>
      <trkpt lat="41.148591" lon="-1.526252">
        <ele>867.093</ele>
        <time>1999-11-30T00:00:00Z</time>
      </trkpt>
      <trkpt lat="41.148457" lon="-1.526115">
        <ele>867.037</ele>
        <time>1999-11-30T00:00:00Z</time>
      </trkpt>
      <trkpt lat="41.148352" lon="-1.52588">
        <ele>866.022</ele>
        <time>1999-11-30T00:00:00Z</time>
      </trkpt>
      <trkpt lat="41.148201" lon="-1.525509">
        <ele>866.081</ele>
        <time>1999-11-30T00:00:00Z</time>
      </trkpt>
      <trkpt lat="41.147975" lon="-1.524855">
        <ele>863.072</ele>
        <time>1999-11-30T00:00:00Z</time>
      </trkpt>
      <trkpt lat="41.147782" lon="-1.524522">
        <ele>863.080</ele>
        <time>1999-11-30T00:00:00Z</time>
      </trkpt>
      <trkpt lat="41.147616" lon="-1.524171">
        <ele>861.078</ele>
        <time>1999-11-30T00:00:00Z</time>
      </trkpt>
      <trkpt lat="41.147446" lon="-1.523776">
        <ele>860.033</ele>
        <time>1999-11-30T00:00:00Z</time>
      </trkpt>
      <trkpt lat="41.147276" lon="-1.52351">
        <ele>860.026</ele>
        <time>1999-11-30T00:00:00Z</time>
      </trkpt>
      <trkpt lat="41.147017" lon="-1.523184">
        <ele>859.008</ele>
        <time>1999-11-30T00:00:00Z</time>
      </trkpt>
      <trkpt lat="41.146791" lon="-1.522767">
        <ele>858.048</ele>
        <time>1999-11-30T00:00:00Z</time>
      </trkpt>
      <trkpt lat="41.146625" lon="-1.522405">
        <ele>856.092</ele>
        <time>1999-11-30T00:00:00Z</time>
      </trkpt>
      <trkpt lat="41.146405" lon="-1.52206">
        <ele>854.043</ele>
        <time>1999-11-30T00:00:00Z</time>
      </trkpt>
      <trkpt lat="41.146301" lon="-1.521688">
        <ele>852.017</ele>
        <time>1999-11-30T00:00:00Z</time>
      </trkpt>
      <trkpt lat="41.146234" lon="-1.521509">
        <ele>851.072</ele>
        <time>1999-11-30T00:00:00Z</time>
      </trkpt>
      <trkpt lat="41.14609" lon="-1.521433">
        <ele>851.071</ele>
        <time>1999-11-30T00:00:00Z</time>
      </trkpt>
      <trkpt lat="41.14584" lon="-1.521364">
        <ele>851.082</ele>
        <time>1999-11-30T00:00:00Z</time>
      </trkpt>
      <trkpt lat="41.145635" lon="-1.521399">
        <ele>852.040</ele>
        <time>1999-11-30T00:00:00Z</time>
      </trkpt>
      <trkpt lat="41.14532" lon="-1.521424">
        <ele>854.021</ele>
        <time>1999-11-30T00:00:00Z</time>
      </trkpt>
      <trkpt lat="41.145023" lon="-1.521436">
        <ele>856.041</ele>
        <time>1999-11-30T00:00:00Z</time>
      </trkpt>
      <trkpt lat="41.144794" lon="-1.521429">
        <ele>856.005</ele>
        <time>1999-11-30T00:00:00Z</time>
      </trkpt>
      <trkpt lat="41.144657" lon="-1.521432">
        <ele>856.008</ele>
        <time>1999-11-30T00:00:00Z</time>
      </trkpt>
      <trkpt lat="41.144602" lon="-1.521383">
        <ele>855.083</ele>
        <time>1999-11-30T00:00:00Z</time>
      </trkpt>
      <trkpt lat="41.144579" lon="-1.521226">
        <ele>856.017</ele>
        <time>1999-11-30T00:00:00Z</time>
      </trkpt>
      <trkpt lat="41.144553" lon="-1.520872">
        <ele>857.098</ele>
        <time>1999-11-30T00:00:00Z</time>
      </trkpt>
      <trkpt lat="41.144509" lon="-1.520772">
        <ele>857.042</ele>
        <time>1999-11-30T00:00:00Z</time>
      </trkpt>
      <trkpt lat="41.144406" lon="-1.52073">
        <ele>857.017</ele>
        <time>1999-11-30T00:00:00Z</time>
      </trkpt>
      <trkpt lat="41.144009" lon="-1.520581">
        <ele>859.066</ele>
        <time>1999-11-30T00:00:00Z</time>
      </trkpt>
      <trkpt lat="41.143872" lon="-1.520483">
        <ele>860.037</ele>
        <time>1999-11-30T00:00:00Z</time>
      </trkpt>
      <trkpt lat="41.143707" lon="-1.520245">
        <ele>862.035</ele>
        <time>1999-11-30T00:00:00Z</time>
      </trkpt>
      <trkpt lat="41.143525" lon="-1.519979">
        <ele>866.019</ele>
        <time>1999-11-30T00:00:00Z</time>
      </trkpt>
      <trkpt lat="41.143397" lon="-1.519881">
        <ele>867.009</ele>
        <time>1999-11-30T00:00:00Z</time>
      </trkpt>
      <trkpt lat="41.143179" lon="-1.519779">
        <ele>868.019</ele>
        <time>1999-11-30T00:00:00Z</time>
      </trkpt>
      <trkpt lat="41.142995" lon="-1.519704">
        <ele>868.008</ele>
        <time>1999-11-30T00:00:00Z</time>
      </trkpt>
      <trkpt lat="41.142678" lon="-1.519515">
        <ele>867.062</ele>
        <time>1999-11-30T00:00:00Z</time>
      </trkpt>
      <trkpt lat="41.142356" lon="-1.519219">
        <ele>866.046</ele>
        <time>1999-11-30T00:00:00Z</time>
      </trkpt>
      <trkpt lat="41.141564" lon="-1.518539">
        <ele>859.037</ele>
        <time>1999-11-30T00:00:00Z</time>
      </trkpt>
      <trkpt lat="41.141491" lon="-1.518439">
        <ele>859.051</ele>
        <time>1999-11-30T00:00:00Z</time>
      </trkpt>
      <trkpt lat="41.141459" lon="-1.518243">
        <ele>859.026</ele>
        <time>1999-11-30T00:00:00Z</time>
      </trkpt>
      <trkpt lat="41.141445" lon="-1.5178">
        <ele>859.045</ele>
        <time>1999-11-30T00:00:00Z</time>
      </trkpt>
      <trkpt lat="41.141432" lon="-1.517315">
        <ele>857.086</ele>
        <time>1999-11-30T00:00:00Z</time>
      </trkpt>
      <trkpt lat="41.141438" lon="-1.51694">
        <ele>856.094</ele>
        <time>1999-11-30T00:00:00Z</time>
      </trkpt>
      <trkpt lat="41.141424" lon="-1.516519">
        <ele>853.087</ele>
        <time>1999-11-30T00:00:00Z</time>
      </trkpt>
      <trkpt lat="41.141497" lon="-1.516185">
        <ele>853.042</ele>
        <time>1999-11-30T00:00:00Z</time>
      </trkpt>
      <trkpt lat="41.141595" lon="-1.515913">
        <ele>851.026</ele>
        <time>1999-11-30T00:00:00Z</time>
      </trkpt>
      <trkpt lat="41.141794" lon="-1.515585">
        <ele>850.008</ele>
        <time>1999-11-30T00:00:00Z</time>
      </trkpt>
      <trkpt lat="41.14211" lon="-1.515223">
        <ele>850.079</ele>
        <time>1999-11-30T00:00:00Z</time>
      </trkpt>
      <trkpt lat="41.142211" lon="-1.515058">
        <ele>849.023</ele>
        <time>1999-11-30T00:00:00Z</time>
      </trkpt>
      <trkpt lat="41.142497" lon="-1.514718">
        <ele>847.024</ele>
        <time>1999-11-30T00:00:00Z</time>
      </trkpt>
      <trkpt lat="41.142773" lon="-1.514335">
        <ele>841.018</ele>
        <time>1999-11-30T00:00:00Z</time>
      </trkpt>
      <trkpt lat="41.143097" lon="-1.514026">
        <ele>839.083</ele>
        <time>1999-11-30T00:00:00Z</time>
      </trkpt>
      <trkpt lat="41.143297" lon="-1.513744">
        <ele>836.012</ele>
        <time>1999-11-30T00:00:00Z</time>
      </trkpt>
      <trkpt lat="41.143446" lon="-1.513485">
        <ele>833.093</ele>
        <time>1999-11-30T00:00:00Z</time>
      </trkpt>
      <trkpt lat="41.143575" lon="-1.513095">
        <ele>834.011</ele>
        <time>1999-11-30T00:00:00Z</time>
      </trkpt>
      <trkpt lat="41.143659" lon="-1.512848">
        <ele>831.023</ele>
        <time>1999-11-30T00:00:00Z</time>
      </trkpt>
      <trkpt lat="41.143976" lon="-1.512385">
        <ele>828.083</ele>
        <time>1999-11-30T00:00:00Z</time>
      </trkpt>
      <trkpt lat="41.144283" lon="-1.512003">
        <ele>823.011</ele>
        <time>1999-11-30T00:00:00Z</time>
      </trkpt>
      <trkpt lat="41.144519" lon="-1.511642">
        <ele>823.008</ele>
        <time>1999-11-30T00:00:00Z</time>
      </trkpt>
      <trkpt lat="41.144654" lon="-1.51127">
        <ele>822.073</ele>
        <time>1999-11-30T00:00:00Z</time>
      </trkpt>
      <trkpt lat="41.144801" lon="-1.510837">
        <ele>821.097</ele>
        <time>1999-11-30T00:00:00Z</time>
      </trkpt>
      <trkpt lat="41.144907" lon="-1.510475">
        <ele>820.078</ele>
        <time>1999-11-30T00:00:00Z</time>
      </trkpt>
      <trkpt lat="41.145049" lon="-1.510269">
        <ele>817.042</ele>
        <time>1999-11-30T00:00:00Z</time>
      </trkpt>
      <trkpt lat="41.145285" lon="-1.510163">
        <ele>815.057</ele>
        <time>1999-11-30T00:00:00Z</time>
      </trkpt>
      <trkpt lat="41.145641" lon="-1.510034">
        <ele>810.056</ele>
        <time>1999-11-30T00:00:00Z</time>
      </trkpt>
      <trkpt lat="41.145787" lon="-1.509898">
        <ele>808.097</ele>
        <time>1999-11-30T00:00:00Z</time>
      </trkpt>
      <trkpt lat="41.146068" lon="-1.509567">
        <ele>810.085</ele>
        <time>1999-11-30T00:00:00Z</time>
      </trkpt>
      <trkpt lat="41.146448" lon="-1.509115">
        <ele>811.042</ele>
        <time>1999-11-30T00:00:00Z</time>
      </trkpt>
      <trkpt lat="41.146633" lon="-1.508729">
        <ele>812.022</ele>
        <time>1999-11-30T00:00:00Z</time>
      </trkpt>
      <trkpt lat="41.14678" lon="-1.508329">
        <ele>815.014</ele>
        <time>1999-11-30T00:00:00Z</time>
      </trkpt>
      <trkpt lat="41.146919" lon="-1.507998">
        <ele>817.008</ele>
        <time>1999-11-30T00:00:00Z</time>
      </trkpt>
      <trkpt lat="41.146992" lon="-1.507828">
        <ele>819.085</ele>
        <time>1999-11-30T00:00:00Z</time>
      </trkpt>
      <trkpt lat="41.147056" lon="-1.507385">
        <ele>823.039</ele>
        <time>1999-11-30T00:00:00Z</time>
      </trkpt>
      <trkpt lat="41.147088" lon="-1.506941">
        <ele>820.010</ele>
        <time>1999-11-30T00:00:00Z</time>
      </trkpt>
      <trkpt lat="41.147067" lon="-1.506592">
        <ele>819.054</ele>
        <time>1999-11-30T00:00:00Z</time>
      </trkpt>
      <trkpt lat="41.147119" lon="-1.506442">
        <ele>819.099</ele>
        <time>1999-11-30T00:00:00Z</time>
      </trkpt>
      <trkpt lat="41.147305" lon="-1.506306">
        <ele>822.048</ele>
        <time>1999-11-30T00:00:00Z</time>
      </trkpt>
      <trkpt lat="41.147491" lon="-1.506251">
        <ele>825.059</ele>
        <time>1999-11-30T00:00:00Z</time>
      </trkpt>
      <trkpt lat="41.147654" lon="-1.506304">
        <ele>823.017</ele>
        <time>1999-11-30T00:00:00Z</time>
      </trkpt>
      <trkpt lat="41.147751" lon="-1.506293">
        <ele>822.072</ele>
        <time>1999-11-30T00:00:00Z</time>
      </trkpt>
      <trkpt lat="41.147797" lon="-1.506177">
        <ele>823.013</ele>
        <time>1999-11-30T00:00:00Z</time>
      </trkpt>
      <trkpt lat="41.147755" lon="-1.505919">
        <ele>826.014</ele>
        <time>1999-11-30T00:00:00Z</time>
      </trkpt>
      <trkpt lat="41.147782" lon="-1.505761">
        <ele>827.008</ele>
        <time>1999-11-30T00:00:00Z</time>
      </trkpt>
      <trkpt lat="41.147885" lon="-1.505684">
        <ele>827.068</ele>
        <time>1999-11-30T00:00:00Z</time>
      </trkpt>
      <trkpt lat="41.148066" lon="-1.505709">
        <ele>826.022</ele>
        <time>1999-11-30T00:00:00Z</time>
      </trkpt>
      <trkpt lat="41.148207" lon="-1.505727">
        <ele>825.043</ele>
        <time>1999-11-30T00:00:00Z</time>
      </trkpt>
      <trkpt lat="41.148336" lon="-1.505639">
        <ele>824.047</ele>
        <time>1999-11-30T00:00:00Z</time>
      </trkpt>
      <trkpt lat="41.148379" lon="-1.505427">
        <ele>826.072</ele>
        <time>1999-11-30T00:00:00Z</time>
      </trkpt>
      <trkpt lat="41.148364" lon="-1.505045">
        <ele>830.031</ele>
        <time>1999-11-30T00:00:00Z</time>
      </trkpt>
      <trkpt lat="41.14849" lon="-1.504686">
        <ele>830.052</ele>
        <time>1999-11-30T00:00:00Z</time>
      </trkpt>
      <trkpt lat="41.148614" lon="-1.50444">
        <ele>832.010</ele>
        <time>1999-11-30T00:00:00Z</time>
      </trkpt>
      <trkpt lat="41.148751" lon="-1.504335">
        <ele>832.064</ele>
        <time>1999-11-30T00:00:00Z</time>
      </trkpt>
      <trkpt lat="41.148873" lon="-1.504044">
        <ele>829.006</ele>
        <time>1999-11-30T00:00:00Z</time>
      </trkpt>
      <trkpt lat="41.149015" lon="-1.503929">
        <ele>828.016</ele>
        <time>1999-11-30T00:00:00Z</time>
      </trkpt>
      <trkpt lat="41.149026" lon="-1.503833">
        <ele>826.008</ele>
        <time>1999-11-30T00:00:00Z</time>
      </trkpt>
      <trkpt lat="41.148983" lon="-1.503769">
        <ele>824.057</ele>
        <time>1999-11-30T00:00:00Z</time>
      </trkpt>
      <trkpt lat="41.148877" lon="-1.503705">
        <ele>823.071</ele>
        <time>1999-11-30T00:00:00Z</time>
      </trkpt>
      <trkpt lat="41.148803" lon="-1.503511">
        <ele>821.082</ele>
        <time>1999-11-30T00:00:00Z</time>
      </trkpt>
      <trkpt lat="41.148787" lon="-1.503281">
        <ele>818.016</ele>
        <time>1999-11-30T00:00:00Z</time>
      </trkpt>
      <trkpt lat="41.148836" lon="-1.503078">
        <ele>817.071</ele>
        <time>1999-11-30T00:00:00Z</time>
      </trkpt>
      <trkpt lat="41.148893" lon="-1.502891">
        <ele>817.060</ele>
        <time>1999-11-30T00:00:00Z</time>
      </trkpt>
      <trkpt lat="41.149074" lon="-1.502735">
        <ele>817.031</ele>
        <time>1999-11-30T00:00:00Z</time>
      </trkpt>
      <trkpt lat="41.149339" lon="-1.50255">
        <ele>816.059</ele>
        <time>1999-11-30T00:00:00Z</time>
      </trkpt>
      <trkpt lat="41.149569" lon="-1.502302">
        <ele>817.021</ele>
        <time>1999-11-30T00:00:00Z</time>
      </trkpt>
      <trkpt lat="41.149677" lon="-1.502114">
        <ele>819.041</ele>
        <time>1999-11-30T00:00:00Z</time>
      </trkpt>
      <trkpt lat="41.149704" lon="-1.5019">
        <ele>822.005</ele>
        <time>1999-11-30T00:00:00Z</time>
      </trkpt>
      <trkpt lat="41.149726" lon="-1.501568">
        <ele>825.008</ele>
        <time>1999-11-30T00:00:00Z</time>
      </trkpt>
      <trkpt lat="41.14984" lon="-1.5012">
        <ele>827.043</ele>
        <time>1999-11-30T00:00:00Z</time>
      </trkpt>
      <trkpt lat="41.149959" lon="-1.500899">
        <ele>825.037</ele>
        <time>1999-11-30T00:00:00Z</time>
      </trkpt>
      <trkpt lat="41.150139" lon="-1.500715">
        <ele>822.048</ele>
        <time>1999-11-30T00:00:00Z</time>
      </trkpt>
      <trkpt lat="41.150393" lon="-1.500579">
        <ele>820.042</ele>
        <time>1999-11-30T00:00:00Z</time>
      </trkpt>
      <trkpt lat="41.150573" lon="-1.500418">
        <ele>823.037</ele>
        <time>1999-11-30T00:00:00Z</time>
      </trkpt>
      <trkpt lat="41.15074" lon="-1.500173">
        <ele>826.076</ele>
        <time>1999-11-30T00:00:00Z</time>
      </trkpt>
      <trkpt lat="41.151016" lon="-1.499829">
        <ele>827.017</ele>
        <time>1999-11-30T00:00:00Z</time>
      </trkpt>
      <trkpt lat="41.151416" lon="-1.49959">
        <ele>818.025</ele>
        <time>1999-11-30T00:00:00Z</time>
      </trkpt>
      <trkpt lat="41.151802" lon="-1.499368">
        <ele>809.056</ele>
        <time>1999-11-30T00:00:00Z</time>
      </trkpt>
      <trkpt lat="41.152051" lon="-1.49907">
        <ele>808.059</ele>
        <time>1999-11-30T00:00:00Z</time>
      </trkpt>
      <trkpt lat="41.152372" lon="-1.498904">
        <ele>805.014</ele>
        <time>1999-11-30T00:00:00Z</time>
      </trkpt>
      <trkpt lat="41.152599" lon="-1.49872">
        <ele>800.008</ele>
        <time>1999-11-30T00:00:00Z</time>
      </trkpt>
      <trkpt lat="41.152665" lon="-1.498561">
        <ele>799.076</ele>
        <time>1999-11-30T00:00:00Z</time>
      </trkpt>
      <trkpt lat="41.152779" lon="-1.497872">
        <ele>794.080</ele>
        <time>1999-11-30T00:00:00Z</time>
      </trkpt>
      <trkpt lat="41.152883" lon="-1.497269">
        <ele>787.081</ele>
        <time>1999-11-30T00:00:00Z</time>
      </trkpt>
      <trkpt lat="41.152887" lon="-1.496805">
        <ele>781.055</ele>
        <time>1999-11-30T00:00:00Z</time>
      </trkpt>
      <trkpt lat="41.152986" lon="-1.496439">
        <ele>777.020</ele>
        <time>1999-11-30T00:00:00Z</time>
      </trkpt>
      <trkpt lat="41.153035" lon="-1.49593">
        <ele>770.069</ele>
        <time>1999-11-30T00:00:00Z</time>
      </trkpt>
      <trkpt lat="41.153088" lon="-1.495549">
        <ele>768.070</ele>
        <time>1999-11-30T00:00:00Z</time>
      </trkpt>
      <trkpt lat="41.153052" lon="-1.495245">
        <ele>767.068</ele>
        <time>1999-11-30T00:00:00Z</time>
      </trkpt>
      <trkpt lat="41.152985" lon="-1.495028">
        <ele>766.039</ele>
        <time>1999-11-30T00:00:00Z</time>
      </trkpt>
      <trkpt lat="41.152901" lon="-1.494783">
        <ele>764.001</ele>
        <time>1999-11-30T00:00:00Z</time>
      </trkpt>
      <trkpt lat="41.152881" lon="-1.494591">
        <ele>762.021</ele>
        <time>1999-11-30T00:00:00Z</time>
      </trkpt>
      <trkpt lat="41.152895" lon="-1.494383">
        <ele>759.008</ele>
        <time>1999-11-30T00:00:00Z</time>
      </trkpt>
      <trkpt lat="41.152978" lon="-1.494125">
        <ele>757.074</ele>
        <time>1999-11-30T00:00:00Z</time>
      </trkpt>
      <trkpt lat="41.153015" lon="-1.493881">
        <ele>759.058</ele>
        <time>1999-11-30T00:00:00Z</time>
      </trkpt>
      <trkpt lat="41.153091" lon="-1.493765">
        <ele>760.039</ele>
        <time>1999-11-30T00:00:00Z</time>
      </trkpt>
      <trkpt lat="41.15345" lon="-1.493525">
        <ele>760.043</ele>
        <time>1999-11-30T00:00:00Z</time>
      </trkpt>
      <trkpt lat="41.153628" lon="-1.493436">
        <ele>756.068</ele>
        <time>1999-11-30T00:00:00Z</time>
      </trkpt>
      <trkpt lat="41.153837" lon="-1.493348">
        <ele>752.057</ele>
        <time>1999-11-30T00:00:00Z</time>
      </trkpt>
      <trkpt lat="41.153993" lon="-1.493263">
        <ele>752.038</ele>
        <time>1999-11-30T00:00:00Z</time>
      </trkpt>
      <trkpt lat="41.154163" lon="-1.493259">
        <ele>752.026</ele>
        <time>1999-11-30T00:00:00Z</time>
      </trkpt>
      <trkpt lat="41.154281" lon="-1.493274">
        <ele>751.059</ele>
        <time>1999-11-30T00:00:00Z</time>
      </trkpt>
      <trkpt lat="41.154397" lon="-1.493225">
        <ele>751.003</ele>
        <time>1999-11-30T00:00:00Z</time>
      </trkpt>
      <trkpt lat="41.154578" lon="-1.493109">
        <ele>750.023</ele>
        <time>1999-11-30T00:00:00Z</time>
      </trkpt>
      <trkpt lat="41.154809" lon="-1.492871">
        <ele>747.008</ele>
        <time>1999-11-30T00:00:00Z</time>
      </trkpt>
      <trkpt lat="41.155019" lon="-1.492614">
        <ele>744.086</ele>
        <time>1999-11-30T00:00:00Z</time>
      </trkpt>
      <trkpt lat="41.155272" lon="-1.49233">
        <ele>742.010</ele>
        <time>1999-11-30T00:00:00Z</time>
      </trkpt>
      <trkpt lat="41.155447" lon="-1.492197">
        <ele>740.011</ele>
        <time>1999-11-30T00:00:00Z</time>
      </trkpt>
      <trkpt lat="41.15553" lon="-1.492089">
        <ele>740.015</ele>
        <time>1999-11-30T00:00:00Z</time>
      </trkpt>
      <trkpt lat="41.155612" lon="-1.491934">
        <ele>741.090</ele>
        <time>1999-11-30T00:00:00Z</time>
      </trkpt>
      <trkpt lat="41.155693" lon="-1.49182">
        <ele>741.059</ele>
        <time>1999-11-30T00:00:00Z</time>
      </trkpt>
      <trkpt lat="41.155839" lon="-1.491624">
        <ele>741.030</ele>
        <time>1999-11-30T00:00:00Z</time>
      </trkpt>
      <trkpt lat="41.15608" lon="-1.491248">
        <ele>739.028</ele>
        <time>1999-11-30T00:00:00Z</time>
      </trkpt>
      <trkpt lat="41.156193" lon="-1.491092">
        <ele>739.087</ele>
        <time>1999-11-30T00:00:00Z</time>
      </trkpt>
      <trkpt lat="41.156291" lon="-1.491022">
        <ele>738.042</ele>
        <time>1999-11-30T00:00:00Z</time>
      </trkpt>
      <trkpt lat="41.156396" lon="-1.490945">
        <ele>736.026</ele>
        <time>1999-11-30T00:00:00Z</time>
      </trkpt>
      <trkpt lat="41.156579" lon="-1.490854">
        <ele>734.008</ele>
        <time>1999-11-30T00:00:00Z</time>
      </trkpt>
      <trkpt lat="41.156834" lon="-1.490706">
        <ele>734.069</ele>
        <time>1999-11-30T00:00:00Z</time>
      </trkpt>
      <trkpt lat="41.157062" lon="-1.490548">
        <ele>734.083</ele>
        <time>1999-11-30T00:00:00Z</time>
      </trkpt>
      <trkpt lat="41.15725" lon="-1.490377">
        <ele>731.014</ele>
        <time>1999-11-30T00:00:00Z</time>
      </trkpt>
      <trkpt lat="41.15744" lon="-1.490188">
        <ele>727.028</ele>
        <time>1999-11-30T00:00:00Z</time>
      </trkpt>
      <trkpt lat="41.157571" lon="-1.490028">
        <ele>724.093</ele>
        <time>1999-11-30T00:00:00Z</time>
      </trkpt>
      <trkpt lat="41.15771" lon="-1.489774">
        <ele>720.062</ele>
        <time>1999-11-30T00:00:00Z</time>
      </trkpt>
      <trkpt lat="41.157821" lon="-1.489586">
        <ele>718.063</ele>
        <time>1999-11-30T00:00:00Z</time>
      </trkpt>
      <trkpt lat="41.157865" lon="-1.489417">
        <ele>716.031</ele>
        <time>1999-11-30T00:00:00Z</time>
      </trkpt>
      <trkpt lat="41.157879" lon="-1.489292">
        <ele>715.063</ele>
        <time>1999-11-30T00:00:00Z</time>
      </trkpt>
      <trkpt lat="41.157855" lon="-1.489102">
        <ele>715.044</ele>
        <time>1999-11-30T00:00:00Z</time>
      </trkpt>
      <trkpt lat="41.157823" lon="-1.488812">
        <ele>713.018</ele>
        <time>1999-11-30T00:00:00Z</time>
      </trkpt>
      <trkpt lat="41.15781" lon="-1.488429">
        <ele>711.008</ele>
        <time>1999-11-30T00:00:00Z</time>
      </trkpt>
      <trkpt lat="41.157803" lon="-1.487963">
        <ele>709.027</ele>
        <time>1999-11-30T00:00:00Z</time>
      </trkpt>
      <trkpt lat="41.157804" lon="-1.487836">
        <ele>708.081</ele>
        <time>1999-11-30T00:00:00Z</time>
      </trkpt>
      <trkpt lat="41.157767" lon="-1.487627">
        <ele>707.052</ele>
        <time>1999-11-30T00:00:00Z</time>
      </trkpt>
      <trkpt lat="41.157654" lon="-1.487456">
        <ele>707.056</ele>
        <time>1999-11-30T00:00:00Z</time>
      </trkpt>
      <trkpt lat="41.157331" lon="-1.487164">
        <ele>707.071</ele>
        <time>1999-11-30T00:00:00Z</time>
      </trkpt>
      <trkpt lat="41.157068" lon="-1.486888">
        <ele>706.070</ele>
        <time>1999-11-30T00:00:00Z</time>
      </trkpt>
      <trkpt lat="41.156522" lon="-1.486337">
        <ele>706.061</ele>
        <time>1999-11-30T00:00:00Z</time>
      </trkpt>
      <trkpt lat="41.156057" lon="-1.485785">
        <ele>706.019</ele>
        <time>1999-11-30T00:00:00Z</time>
      </trkpt>
      <trkpt lat="41.156007" lon="-1.485684">
        <ele>706.013</ele>
        <time>1999-11-30T00:00:00Z</time>
      </trkpt>
      <trkpt lat="41.156004" lon="-1.485593">
        <ele>706.043</ele>
        <time>1999-11-30T00:00:00Z</time>
      </trkpt>
      <trkpt lat="41.156086" lon="-1.485541">
        <ele>705.007</ele>
        <time>1999-11-30T00:00:00Z</time>
      </trkpt>
      <trkpt lat="41.156174" lon="-1.485543">
        <ele>705.008</ele>
        <time>1999-11-30T00:00:00Z</time>
      </trkpt>
      <trkpt lat="41.156242" lon="-1.485565">
        <ele>705.062</ele>
        <time>1999-11-30T00:00:00Z</time>
      </trkpt>
      <trkpt lat="41.156344" lon="-1.485623">
        <ele>705.026</ele>
        <time>1999-11-30T00:00:00Z</time>
      </trkpt>
      <trkpt lat="41.156468" lon="-1.485667">
        <ele>705.037</ele>
        <time>1999-11-30T00:00:00Z</time>
      </trkpt>
      <trkpt lat="41.156524" lon="-1.485586">
        <ele>705.061</ele>
        <time>1999-11-30T00:00:00Z</time>
      </trkpt>
      <trkpt lat="41.15667" lon="-1.485303">
        <ele>704.086</ele>
        <time>1999-11-30T00:00:00Z</time>
      </trkpt>
      <trkpt lat="41.156869" lon="-1.484821">
        <ele>704.075</ele>
        <time>1999-11-30T00:00:00Z</time>
      </trkpt>
      <trkpt lat="41.157165" lon="-1.483966">
        <ele>704.036</ele>
        <time>1999-11-30T00:00:00Z</time>
      </trkpt>
      <trkpt lat="41.157404" lon="-1.483359">
        <ele>703.094</ele>
        <time>1999-11-30T00:00:00Z</time>
      </trkpt>
      <trkpt lat="41.157551" lon="-1.4831">
        <ele>702.085</ele>
        <time>1999-11-30T00:00:00Z</time>
      </trkpt>
      <trkpt lat="41.157844" lon="-1.482738">
        <ele>702.089</ele>
        <time>1999-11-30T00:00:00Z</time>
      </trkpt>
      <trkpt lat="41.158248" lon="-1.482303">
        <ele>702.017</ele>
        <time>1999-11-30T00:00:00Z</time>
      </trkpt>
      <trkpt lat="41.158339" lon="-1.48211">
        <ele>703.008</ele>
        <time>1999-11-30T00:00:00Z</time>
      </trkpt>
      <trkpt lat="41.158321" lon="-1.481891">
        <ele>704.089</ele>
        <time>1999-11-30T00:00:00Z</time>
      </trkpt>
      <trkpt lat="41.158194" lon="-1.481217">
        <ele>706.083</ele>
        <time>1999-11-30T00:00:00Z</time>
      </trkpt>
      <trkpt lat="41.158115" lon="-1.480485">
        <ele>711.074</ele>
        <time>1999-11-30T00:00:00Z</time>
      </trkpt>
      <trkpt lat="41.158106" lon="-1.479765">
        <ele>716.068</ele>
        <time>1999-11-30T00:00:00Z</time>
      </trkpt>
      <trkpt lat="41.158023" lon="-1.479197">
        <ele>717.033</ele>
        <time>1999-11-30T00:00:00Z</time>
      </trkpt>
      <trkpt lat="41.157919" lon="-1.47884">
        <ele>720.012</ele>
        <time>1999-11-30T00:00:00Z</time>
      </trkpt>
      <trkpt lat="41.15774" lon="-1.47851">
        <ele>722.023</ele>
        <time>1999-11-30T00:00:00Z</time>
      </trkpt>
      <trkpt lat="41.157493" lon="-1.478225">
        <ele>718.081</ele>
        <time>1999-11-30T00:00:00Z</time>
      </trkpt>
      <trkpt lat="41.157218" lon="-1.477972">
        <ele>718.039</ele>
        <time>1999-11-30T00:00:00Z</time>
      </trkpt>
      <trkpt lat="41.157047" lon="-1.477781">
        <ele>718.001</ele>
        <time>1999-11-30T00:00:00Z</time>
      </trkpt>
      <trkpt lat="41.156875" lon="-1.47751">
        <ele>721.021</ele>
        <time>1999-11-30T00:00:00Z</time>
      </trkpt>
      <trkpt lat="41.156612" lon="-1.477182">
        <ele>720.008</ele>
        <time>1999-11-30T00:00:00Z</time>
      </trkpt>
      <trkpt lat="41.156189" lon="-1.476685">
        <ele>720.064</ele>
        <time>1999-11-30T00:00:00Z</time>
      </trkpt>
      <trkpt lat="41.155649" lon="-1.476164">
        <ele>721.058</ele>
        <time>1999-11-30T00:00:00Z</time>
      </trkpt>
      <trkpt lat="41.155384" lon="-1.475888">
        <ele>721.029</ele>
        <time>1999-11-30T00:00:00Z</time>
      </trkpt>
      <trkpt lat="41.155071" lon="-1.475416">
        <ele>720.013</ele>
        <time>1999-11-30T00:00:00Z</time>
      </trkpt>
      <trkpt lat="41.154824" lon="-1.474968">
        <ele>719.058</ele>
        <time>1999-11-30T00:00:00Z</time>
      </trkpt>
      <trkpt lat="41.154623" lon="-1.474571">
        <ele>719.037</ele>
        <time>1999-11-30T00:00:00Z</time>
      </trkpt>
      <trkpt lat="41.154116" lon="-1.47404">
        <ele>720.018</ele>
        <time>1999-11-30T00:00:00Z</time>
      </trkpt>
      <trkpt lat="41.153579" lon="-1.473535">
        <ele>719.036</ele>
        <time>1999-11-30T00:00:00Z</time>
      </trkpt>
      <trkpt lat="41.153213" lon="-1.473356">
        <ele>717.026</ele>
        <time>1999-11-30T00:00:00Z</time>
      </trkpt>
      <trkpt lat="41.15289" lon="-1.47334">
        <ele>715.047</ele>
        <time>1999-11-30T00:00:00Z</time>
      </trkpt>
      <trkpt lat="41.152628" lon="-1.473326">
        <ele>714.011</ele>
        <time>1999-11-30T00:00:00Z</time>
      </trkpt>
      <trkpt lat="41.15248" lon="-1.473286">
        <ele>713.008</ele>
        <time>1999-11-30T00:00:00Z</time>
      </trkpt>
      <trkpt lat="41.152377" lon="-1.473239">
        <ele>713.023</ele>
        <time>1999-11-30T00:00:00Z</time>
      </trkpt>
      <trkpt lat="41.152197" lon="-1.473131">
        <ele>712.087</ele>
        <time>1999-11-30T00:00:00Z</time>
      </trkpt>
      <trkpt lat="41.151961" lon="-1.472896">
        <ele>712.048</ele>
        <time>1999-11-30T00:00:00Z</time>
      </trkpt>
      <trkpt lat="41.15174" lon="-1.472689">
        <ele>711.062</ele>
        <time>1999-11-30T00:00:00Z</time>
      </trkpt>
      <trkpt lat="41.151546" lon="-1.472481">
        <ele>711.027</ele>
        <time>1999-11-30T00:00:00Z</time>
      </trkpt>
      <trkpt lat="41.151426" lon="-1.472292">
        <ele>711.016</ele>
        <time>1999-11-30T00:00:00Z</time>
      </trkpt>
      <trkpt lat="41.151308" lon="-1.47205">
        <ele>711.087</ele>
        <time>1999-11-30T00:00:00Z</time>
      </trkpt>
      <trkpt lat="41.151131" lon="-1.471538">
        <ele>712.035</ele>
        <time>1999-11-30T00:00:00Z</time>
      </trkpt>
      <trkpt lat="41.150989" lon="-1.471061">
        <ele>712.077</ele>
        <time>1999-11-30T00:00:00Z</time>
      </trkpt>
      <trkpt lat="41.150894" lon="-1.470754">
        <ele>712.061</ele>
        <time>1999-11-30T00:00:00Z</time>
      </trkpt>
      <trkpt lat="41.150833" lon="-1.470476">
        <ele>713.027</ele>
        <time>1999-11-30T00:00:00Z</time>
      </trkpt>
      <trkpt lat="41.150725" lon="-1.470073">
        <ele>713.008</ele>
        <time>1999-11-30T00:00:00Z</time>
      </trkpt>
      <trkpt lat="41.150611" lon="-1.469756">
        <ele>712.058</ele>
        <time>1999-11-30T00:00:00Z</time>
      </trkpt>
      <trkpt lat="41.150429" lon="-1.469456">
        <ele>712.042</ele>
        <time>1999-11-30T00:00:00Z</time>
      </trkpt>
      <trkpt lat="41.15016" lon="-1.46903">
        <ele>713.083</ele>
        <time>1999-11-30T00:00:00Z</time>
      </trkpt>
      <trkpt lat="41.149938" lon="-1.468707">
        <ele>714.087</ele>
        <time>1999-11-30T00:00:00Z</time>
      </trkpt>
      <trkpt lat="41.149609" lon="-1.468388">
        <ele>715.072</ele>
        <time>1999-11-30T00:00:00Z</time>
      </trkpt>
      <trkpt lat="41.149204" lon="-1.467979">
        <ele>716.061</ele>
        <time>1999-11-30T00:00:00Z</time>
      </trkpt>
      <trkpt lat="41.149054" lon="-1.468239">
        <ele>715.082</ele>
        <time>1999-11-30T00:00:00Z</time>
      </trkpt>
      <trkpt lat="41.148966" lon="-1.468212">
        <ele>715.090</ele>
        <time>1999-11-30T00:00:00Z</time>
      </trkpt>
      <trkpt lat="41.148849" lon="-1.468015">
        <ele>715.047</ele>
        <time>1999-11-30T00:00:00Z</time>
      </trkpt>
      <trkpt lat="41.148637" lon="-1.467702">
        <ele>715.029</ele>
        <time>1999-11-30T00:00:00Z</time>
      </trkpt>
      <trkpt lat="41.148379" lon="-1.467301">
        <ele>715.021</ele>
        <time>1999-11-30T00:00:00Z</time>
      </trkpt>
      <trkpt lat="41.148237" lon="-1.467087">
        <ele>715.008</ele>
        <time>1999-11-30T00:00:00Z</time>
      </trkpt>
      <trkpt lat="41.148152" lon="-1.467009">
        <ele>715.035</ele>
        <time>1999-11-30T00:00:00Z</time>
      </trkpt>
      <trkpt lat="41.148" lon="-1.466967">
        <ele>715.049</ele>
        <time>1999-11-30T00:00:00Z</time>
      </trkpt>
      <trkpt lat="41.147696" lon="-1.466933">
        <ele>714.070</ele>
        <time>1999-11-30T00:00:00Z</time>
      </trkpt>
      <trkpt lat="41.147402" lon="-1.466911">
        <ele>714.074</ele>
        <time>1999-11-30T00:00:00Z</time>
      </trkpt>
      <trkpt lat="41.147176" lon="-1.466819">
        <ele>714.029</ele>
        <time>1999-11-30T00:00:00Z</time>
      </trkpt>
      <trkpt lat="41.146911" lon="-1.46674">
        <ele>714.048</ele>
        <time>1999-11-30T00:00:00Z</time>
      </trkpt>
      <trkpt lat="41.14665" lon="-1.4667">
        <ele>714.029</ele>
        <time>1999-11-30T00:00:00Z</time>
      </trkpt>
      <trkpt lat="41.146383" lon="-1.466672">
        <ele>714.037</ele>
        <time>1999-11-30T00:00:00Z</time>
      </trkpt>
      <trkpt lat="41.146059" lon="-1.466629">
        <ele>714.047</ele>
        <time>1999-11-30T00:00:00Z</time>
      </trkpt>
      <trkpt lat="41.145732" lon="-1.466562">
        <ele>714.029</ele>
        <time>1999-11-30T00:00:00Z</time>
      </trkpt>
      <trkpt lat="41.145625" lon="-1.466511">
        <ele>714.021</ele>
        <time>1999-11-30T00:00:00Z</time>
      </trkpt>
      <trkpt lat="41.14536" lon="-1.466124">
        <ele>715.008</ele>
        <time>1999-11-30T00:00:00Z</time>
      </trkpt>
      <trkpt lat="41.145185" lon="-1.465939">
        <ele>715.025</ele>
        <time>1999-11-30T00:00:00Z</time>
      </trkpt>
      <trkpt lat="41.144985" lon="-1.465836">
        <ele>715.029</ele>
        <time>1999-11-30T00:00:00Z</time>
      </trkpt>
      <trkpt lat="41.144775" lon="-1.46564">
        <ele>715.070</ele>
        <time>1999-11-30T00:00:00Z</time>
      </trkpt>
      <trkpt lat="41.144472" lon="-1.465323">
        <ele>716.064</ele>
        <time>1999-11-30T00:00:00Z</time>
      </trkpt>
      <trkpt lat="41.144375" lon="-1.465156">
        <ele>716.079</ele>
        <time>1999-11-30T00:00:00Z</time>
      </trkpt>
      <trkpt lat="41.144342" lon="-1.465036">
        <ele>716.048</ele>
        <time>1999-11-30T00:00:00Z</time>
      </trkpt>
      <trkpt lat="41.14428" lon="-1.464586">
        <ele>717.089</ele>
        <time>1999-11-30T00:00:00Z</time>
      </trkpt>
      <trkpt lat="41.144278" lon="-1.464429">
        <ele>717.097</ele>
        <time>1999-11-30T00:00:00Z</time>
      </trkpt>
      <trkpt lat="41.144322" lon="-1.464372">
        <ele>718.067</ele>
        <time>1999-11-30T00:00:00Z</time>
      </trkpt>
      <trkpt lat="41.144387" lon="-1.46431">
        <ele>717.081</ele>
        <time>1999-11-30T00:00:00Z</time>
      </trkpt>
      <trkpt lat="41.144462" lon="-1.464216">
        <ele>717.019</ele>
        <time>1999-11-30T00:00:00Z</time>
      </trkpt>
      <trkpt lat="41.144476" lon="-1.464167">
        <ele>718.008</ele>
        <time>1999-11-30T00:00:00Z</time>
      </trkpt>
      <trkpt lat="41.144466" lon="-1.464118">
        <ele>718.097</ele>
        <time>1999-11-30T00:00:00Z</time>
      </trkpt>
      <trkpt lat="41.144427" lon="-1.464095">
        <ele>718.071</ele>
        <time>1999-11-30T00:00:00Z</time>
      </trkpt>
      <trkpt lat="41.144341" lon="-1.464077">
        <ele>718.032</ele>
        <time>1999-11-30T00:00:00Z</time>
      </trkpt>
      <trkpt lat="41.144182" lon="-1.464083">
        <ele>719.076</ele>
        <time>1999-11-30T00:00:00Z</time>
      </trkpt>
      <trkpt lat="41.144134" lon="-1.464059">
        <ele>719.071</ele>
        <time>1999-11-30T00:00:00Z</time>
      </trkpt>
      <trkpt lat="41.144051" lon="-1.463893">
        <ele>719.020</ele>
        <time>1999-11-30T00:00:00Z</time>
      </trkpt>
      <trkpt lat="41.143875" lon="-1.4633">
        <ele>719.031</ele>
        <time>1999-11-30T00:00:00Z</time>
      </trkpt>
      <trkpt lat="41.143776" lon="-1.462896">
        <ele>719.049</ele>
        <time>1999-11-30T00:00:00Z</time>
      </trkpt>
      <trkpt lat="41.143569" lon="-1.462533">
        <ele>719.065</ele>
        <time>1999-11-30T00:00:00Z</time>
      </trkpt>
      <trkpt lat="41.143352" lon="-1.46231">
        <ele>719.068</ele>
        <time>1999-11-30T00:00:00Z</time>
      </trkpt>
      <trkpt lat="41.143123" lon="-1.46207">
        <ele>719.014</ele>
        <time>1999-11-30T00:00:00Z</time>
      </trkpt>
      <trkpt lat="41.14295" lon="-1.461914">
        <ele>719.008</ele>
        <time>1999-11-30T00:00:00Z</time>
      </trkpt>
      <trkpt lat="41.142753" lon="-1.461846">
        <ele>719.017</ele>
        <time>1999-11-30T00:00:00Z</time>
      </trkpt>
      <trkpt lat="41.142473" lon="-1.461797">
        <ele>719.081</ele>
        <time>1999-11-30T00:00:00Z</time>
      </trkpt>
      <trkpt lat="41.142214" lon="-1.461772">
        <ele>719.082</ele>
        <time>1999-11-30T00:00:00Z</time>
      </trkpt>
      <trkpt lat="41.141967" lon="-1.46184">
        <ele>720.086</ele>
        <time>1999-11-30T00:00:00Z</time>
      </trkpt>
      <trkpt lat="41.141764" lon="-1.461957">
        <ele>720.021</ele>
        <time>1999-11-30T00:00:00Z</time>
      </trkpt>
      <trkpt lat="41.141619" lon="-1.461963">
        <ele>720.070</ele>
        <time>1999-11-30T00:00:00Z</time>
      </trkpt>
      <trkpt lat="41.141405" lon="-1.461927">
        <ele>720.011</ele>
        <time>1999-11-30T00:00:00Z</time>
      </trkpt>
      <trkpt lat="41.141172" lon="-1.461917">
        <ele>720.059</ele>
        <time>1999-11-30T00:00:00Z</time>
      </trkpt>
      <trkpt lat="41.141037" lon="-1.461877">
        <ele>720.086</ele>
        <time>1999-11-30T00:00:00Z</time>
      </trkpt>
      <trkpt lat="41.140871" lon="-1.461777">
        <ele>720.060</ele>
        <time>1999-11-30T00:00:00Z</time>
      </trkpt>
      <trkpt lat="41.140561" lon="-1.461667">
        <ele>720.026</ele>
        <time>1999-11-30T00:00:00Z</time>
      </trkpt>
      <trkpt lat="41.140206" lon="-1.461486">
        <ele>720.008</ele>
        <time>1999-11-30T00:00:00Z</time>
      </trkpt>
      <trkpt lat="41.140008" lon="-1.46131">
        <ele>720.059</ele>
        <time>1999-11-30T00:00:00Z</time>
      </trkpt>
      <trkpt lat="41.139883" lon="-1.461157">
        <ele>721.093</ele>
        <time>1999-11-30T00:00:00Z</time>
      </trkpt>
      <trkpt lat="41.139754" lon="-1.460978">
        <ele>722.024</ele>
        <time>1999-11-30T00:00:00Z</time>
      </trkpt>
      <trkpt lat="41.13962" lon="-1.460791">
        <ele>722.058</ele>
        <time>1999-11-30T00:00:00Z</time>
      </trkpt>
      <trkpt lat="41.139566" lon="-1.460658">
        <ele>722.063</ele>
        <time>1999-11-30T00:00:00Z</time>
      </trkpt>
      <trkpt lat="41.139533" lon="-1.460469">
        <ele>721.012</ele>
        <time>1999-11-30T00:00:00Z</time>
      </trkpt>
      <trkpt lat="41.139463" lon="-1.460117">
        <ele>721.023</ele>
        <time>1999-11-30T00:00:00Z</time>
      </trkpt>
      <trkpt lat="41.139394" lon="-1.459735">
        <ele>720.061</ele>
        <time>1999-11-30T00:00:00Z</time>
      </trkpt>
      <trkpt lat="41.139358" lon="-1.459531">
        <ele>720.032</ele>
        <time>1999-11-30T00:00:00Z</time>
      </trkpt>
      <trkpt lat="41.139324" lon="-1.459399">
        <ele>720.092</ele>
        <time>1999-11-30T00:00:00Z</time>
      </trkpt>
      <trkpt lat="41.139269" lon="-1.459253">
        <ele>720.011</ele>
        <time>1999-11-30T00:00:00Z</time>
      </trkpt>
      <trkpt lat="41.139142" lon="-1.459036">
        <ele>720.008</ele>
        <time>1999-11-30T00:00:00Z</time>
      </trkpt>
      <trkpt lat="41.139042" lon="-1.458879">
        <ele>721.044</ele>
        <time>1999-11-30T00:00:00Z</time>
      </trkpt>
      <trkpt lat="41.138924" lon="-1.458725">
        <ele>721.068</ele>
        <time>1999-11-30T00:00:00Z</time>
      </trkpt>
      <trkpt lat="41.138849" lon="-1.458663">
        <ele>721.079</ele>
        <time>1999-11-30T00:00:00Z</time>
      </trkpt>
      <trkpt lat="41.138754" lon="-1.458581">
        <ele>722.083</ele>
        <time>1999-11-30T00:00:00Z</time>
      </trkpt>
      <trkpt lat="41.138602" lon="-1.458473">
        <ele>723.028</ele>
        <time>1999-11-30T00:00:00Z</time>
      </trkpt>
      <trkpt lat="41.138451" lon="-1.458351">
        <ele>724.037</ele>
        <time>1999-11-30T00:00:00Z</time>
      </trkpt>
      <trkpt lat="41.138372" lon="-1.458287">
        <ele>725.088</ele>
        <time>1999-11-30T00:00:00Z</time>
      </trkpt>
      <trkpt lat="41.138342" lon="-1.458312">
        <ele>725.016</ele>
        <time>1999-11-30T00:00:00Z</time>
      </trkpt>
      <trkpt lat="41.138317" lon="-1.458356">
        <ele>725.079</ele>
        <time>1999-11-30T00:00:00Z</time>
      </trkpt>
      <trkpt lat="41.138287" lon="-1.458506">
        <ele>725.005</ele>
        <time>1999-11-30T00:00:00Z</time>
      </trkpt>
      <trkpt lat="41.138272" lon="-1.458643">
        <ele>725.025</ele>
        <time>1999-11-30T00:00:00Z</time>
      </trkpt>
      <trkpt lat="41.138236" lon="-1.458718">
        <ele>725.008</ele>
        <time>1999-11-30T00:00:00Z</time>
      </trkpt>
      <trkpt lat="41.138178" lon="-1.458722">
        <ele>726.068</ele>
        <time>1999-11-30T00:00:00Z</time>
      </trkpt>
      <trkpt lat="41.138127" lon="-1.458674">
        <ele>726.032</ele>
        <time>1999-11-30T00:00:00Z</time>
      </trkpt>
      <trkpt lat="41.137849" lon="-1.458363">
        <ele>727.083</ele>
        <time>1999-11-30T00:00:00Z</time>
      </trkpt>
      <trkpt lat="41.137715" lon="-1.45824">
        <ele>727.057</ele>
        <time>1999-11-30T00:00:00Z</time>
      </trkpt>
      <trkpt lat="41.137563" lon="-1.45819">
        <ele>728.052</ele>
        <time>1999-11-30T00:00:00Z</time>
      </trkpt>
      <trkpt lat="41.13738" lon="-1.458161">
        <ele>727.051</ele>
        <time>1999-11-30T00:00:00Z</time>
      </trkpt>
      <trkpt lat="41.137158" lon="-1.45807">
        <ele>726.072</ele>
        <time>1999-11-30T00:00:00Z</time>
      </trkpt>
      <trkpt lat="41.137022" lon="-1.458025">
        <ele>724.010</ele>
        <time>1999-11-30T00:00:00Z</time>
      </trkpt>
      <trkpt lat="41.136892" lon="-1.458039">
        <ele>724.014</ele>
        <time>1999-11-30T00:00:00Z</time>
      </trkpt>
      <trkpt lat="41.136707" lon="-1.458104">
        <ele>724.054</ele>
        <time>1999-11-30T00:00:00Z</time>
      </trkpt>
      <trkpt lat="41.136648" lon="-1.458114">
        <ele>724.009</ele>
        <time>1999-11-30T00:00:00Z</time>
      </trkpt>
      <trkpt lat="41.136585" lon="-1.458143">
        <ele>724.008</ele>
        <time>1999-11-30T00:00:00Z</time>
      </trkpt>
      <trkpt lat="41.136545" lon="-1.458124">
        <ele>724.032</ele>
        <time>1999-11-30T00:00:00Z</time>
      </trkpt>
      <trkpt lat="41.136504" lon="-1.458068">
        <ele>724.076</ele>
        <time>1999-11-30T00:00:00Z</time>
      </trkpt>
      <trkpt lat="41.136405" lon="-1.457921">
        <ele>724.067</ele>
        <time>1999-11-30T00:00:00Z</time>
      </trkpt>
      <trkpt lat="41.136274" lon="-1.457727">
        <ele>724.011</ele>
        <time>1999-11-30T00:00:00Z</time>
      </trkpt>
      <trkpt lat="41.136112" lon="-1.457508">
        <ele>725.046</ele>
        <time>1999-11-30T00:00:00Z</time>
      </trkpt>
      <trkpt lat="41.135928" lon="-1.457348">
        <ele>724.085</ele>
        <time>1999-11-30T00:00:00Z</time>
      </trkpt>
      <trkpt lat="41.135806" lon="-1.457238">
        <ele>725.036</ele>
        <time>1999-11-30T00:00:00Z</time>
      </trkpt>
      <trkpt lat="41.135656" lon="-1.457221">
        <ele>726.084</ele>
        <time>1999-11-30T00:00:00Z</time>
      </trkpt>
      <trkpt lat="41.135472" lon="-1.457209">
        <ele>726.013</ele>
        <time>1999-11-30T00:00:00Z</time>
      </trkpt>
      <trkpt lat="41.135288" lon="-1.457224">
        <ele>728.043</ele>
        <time>1999-11-30T00:00:00Z</time>
      </trkpt>
      <trkpt lat="41.135231" lon="-1.457261">
        <ele>729.007</ele>
        <time>1999-11-30T00:00:00Z</time>
      </trkpt>
      <trkpt lat="41.135176" lon="-1.457255">
        <ele>730.008</ele>
        <time>1999-11-30T00:00:00Z</time>
      </trkpt>
      <trkpt lat="41.13513" lon="-1.457187">
        <ele>729.042</ele>
        <time>1999-11-30T00:00:00Z</time>
      </trkpt>
      <trkpt lat="41.135063" lon="-1.457094">
        <ele>729.026</ele>
        <time>1999-11-30T00:00:00Z</time>
      </trkpt>
      <trkpt lat="41.13488" lon="-1.456863">
        <ele>728.017</ele>
        <time>1999-11-30T00:00:00Z</time>
      </trkpt>
      <trkpt lat="41.134726" lon="-1.456723">
        <ele>728.061</ele>
        <time>1999-11-30T00:00:00Z</time>
      </trkpt>
      <trkpt lat="41.134543" lon="-1.45659">
        <ele>728.026</ele>
        <time>1999-11-30T00:00:00Z</time>
      </trkpt>
      <trkpt lat="41.134323" lon="-1.456509">
        <ele>728.015</ele>
        <time>1999-11-30T00:00:00Z</time>
      </trkpt>
      <trkpt lat="41.134163" lon="-1.45648">
        <ele>728.026</ele>
        <time>1999-11-30T00:00:00Z</time>
      </trkpt>
      <trkpt lat="41.133961" lon="-1.456275">
        <ele>728.024</ele>
        <time>1999-11-30T00:00:00Z</time>
      </trkpt>
      <trkpt lat="41.1338" lon="-1.456311">
        <ele>729.057</ele>
        <time>1999-11-30T00:00:00Z</time>
      </trkpt>
      <trkpt lat="41.133688" lon="-1.456368">
        <ele>729.000</ele>
        <time>1999-11-30T00:00:00Z</time>
      </trkpt>
      <trkpt lat="41.133604" lon="-1.456405">
        <ele>729.020</ele>
        <time>1999-11-30T00:00:00Z</time>
      </trkpt>
      <trkpt lat="41.133527" lon="-1.456383">
        <ele>729.008</ele>
        <time>1999-11-30T00:00:00Z</time>
      </trkpt>
      <trkpt lat="41.13349" lon="-1.456362">
        <ele>729.066</ele>
        <time>1999-11-30T00:00:00Z</time>
      </trkpt>
      <trkpt lat="41.133429" lon="-1.456297">
        <ele>729.030</ele>
        <time>1999-11-30T00:00:00Z</time>
      </trkpt>
      <trkpt lat="41.133387" lon="-1.456183">
        <ele>730.031</ele>
        <time>1999-11-30T00:00:00Z</time>
      </trkpt>
      <trkpt lat="41.133302" lon="-1.456008">
        <ele>729.055</ele>
        <time>1999-11-30T00:00:00Z</time>
      </trkpt>
      <trkpt lat="41.133173" lon="-1.455812">
        <ele>729.010</ele>
        <time>1999-11-30T00:00:00Z</time>
      </trkpt>
      <trkpt lat="41.133086" lon="-1.455726">
        <ele>729.059</ele>
        <time>1999-11-30T00:00:00Z</time>
      </trkpt>
      <trkpt lat="41.13292" lon="-1.4556">
        <ele>730.040</ele>
        <time>1999-11-30T00:00:00Z</time>
      </trkpt>
      <trkpt lat="41.132779" lon="-1.455585">
        <ele>730.068</ele>
        <time>1999-11-30T00:00:00Z</time>
      </trkpt>
      <trkpt lat="41.13267" lon="-1.455624">
        <ele>730.072</ele>
        <time>1999-11-30T00:00:00Z</time>
      </trkpt>
      <trkpt lat="41.13256" lon="-1.455646">
        <ele>730.013</ele>
        <time>1999-11-30T00:00:00Z</time>
      </trkpt>
      <trkpt lat="41.132428" lon="-1.455629">
        <ele>731.014</ele>
        <time>1999-11-30T00:00:00Z</time>
      </trkpt>
      <trkpt lat="41.132283" lon="-1.455564">
        <ele>731.008</ele>
        <time>1999-11-30T00:00:00Z</time>
      </trkpt>
      <trkpt lat="41.132125" lon="-1.455439">
        <ele>730.048</ele>
        <time>1999-11-30T00:00:00Z</time>
      </trkpt>
      <trkpt lat="41.13193" lon="-1.455289">
        <ele>731.032</ele>
        <time>1999-11-30T00:00:00Z</time>
      </trkpt>
      <trkpt lat="41.131834" lon="-1.455164">
        <ele>730.053</ele>
        <time>1999-11-30T00:00:00Z</time>
      </trkpt>
      <trkpt lat="41.131736" lon="-1.455068">
        <ele>730.057</ele>
        <time>1999-11-30T00:00:00Z</time>
      </trkpt>
      <trkpt lat="41.131646" lon="-1.454989">
        <ele>730.042</ele>
        <time>1999-11-30T00:00:00Z</time>
      </trkpt>
      <trkpt lat="41.131618" lon="-1.454908">
        <ele>730.021</ele>
        <time>1999-11-30T00:00:00Z</time>
      </trkpt>
      <trkpt lat="41.131594" lon="-1.454832">
        <ele>730.042</ele>
        <time>1999-11-30T00:00:00Z</time>
      </trkpt>
      <trkpt lat="41.131569" lon="-1.454497">
        <ele>730.040</ele>
        <time>1999-11-30T00:00:00Z</time>
      </trkpt>
      <trkpt lat="41.13154" lon="-1.454236">
        <ele>730.093</ele>
        <time>1999-11-30T00:00:00Z</time>
      </trkpt>
      <trkpt lat="41.131447" lon="-1.453886">
        <ele>730.065</ele>
        <time>1999-11-30T00:00:00Z</time>
      </trkpt>
      <trkpt lat="41.131328" lon="-1.453532">
        <ele>730.021</ele>
        <time>1999-11-30T00:00:00Z</time>
      </trkpt>
      <trkpt lat="41.131247" lon="-1.453321">
        <ele>729.008</ele>
        <time>1999-11-30T00:00:00Z</time>
      </trkpt>
      <trkpt lat="41.131166" lon="-1.453186">
        <ele>729.080</ele>
        <time>1999-11-30T00:00:00Z</time>
      </trkpt>
      <trkpt lat="41.131074" lon="-1.453101">
        <ele>730.084</ele>
        <time>1999-11-30T00:00:00Z</time>
      </trkpt>
      <trkpt lat="41.13092" lon="-1.453038">
        <ele>729.015</ele>
        <time>1999-11-30T00:00:00Z</time>
      </trkpt>
      <trkpt lat="41.130784" lon="-1.452965">
        <ele>730.079</ele>
        <time>1999-11-30T00:00:00Z</time>
      </trkpt>
      <trkpt lat="41.130685" lon="-1.452836">
        <ele>730.014</ele>
        <time>1999-11-30T00:00:00Z</time>
      </trkpt>
      <trkpt lat="41.130608" lon="-1.45271">
        <ele>730.023</ele>
        <time>1999-11-30T00:00:00Z</time>
      </trkpt>
      <trkpt lat="41.130471" lon="-1.452629">
        <ele>730.054</ele>
        <time>1999-11-30T00:00:00Z</time>
      </trkpt>
      <trkpt lat="41.130323" lon="-1.452639">
        <ele>730.072</ele>
        <time>1999-11-30T00:00:00Z</time>
      </trkpt>
      <trkpt lat="41.130176" lon="-1.452673">
        <ele>730.056</ele>
        <time>1999-11-30T00:00:00Z</time>
      </trkpt>
      <trkpt lat="41.13003" lon="-1.4527">
        <ele>730.059</ele>
        <time>1999-11-30T00:00:00Z</time>
      </trkpt>
      <trkpt lat="41.129916" lon="-1.452682">
        <ele>731.014</ele>
        <time>1999-11-30T00:00:00Z</time>
      </trkpt>
      <trkpt lat="41.129828" lon="-1.452629">
        <ele>731.008</ele>
        <time>1999-11-30T00:00:00Z</time>
      </trkpt>
      <trkpt lat="41.12979" lon="-1.452563">
        <ele>731.056</ele>
        <time>1999-11-30T00:00:00Z</time>
      </trkpt>
      <trkpt lat="41.129807" lon="-1.452504">
        <ele>730.040</ele>
        <time>1999-11-30T00:00:00Z</time>
      </trkpt>
      <trkpt lat="41.129948" lon="-1.452262">
        <ele>730.041</ele>
        <time>1999-11-30T00:00:00Z</time>
      </trkpt>
      <trkpt lat="41.130067" lon="-1.452045">
        <ele>729.025</ele>
        <time>1999-11-30T00:00:00Z</time>
      </trkpt>
      <trkpt lat="41.130199" lon="-1.451849">
        <ele>729.030</ele>
        <time>1999-11-30T00:00:00Z</time>
      </trkpt>
      <trkpt lat="41.130392" lon="-1.451533">
        <ele>729.079</ele>
        <time>1999-11-30T00:00:00Z</time>
      </trkpt>
      <trkpt lat="41.130689" lon="-1.451054">
        <ele>729.060</ele>
        <time>1999-11-30T00:00:00Z</time>
      </trkpt>
      <trkpt lat="41.130773" lon="-1.450871">
        <ele>729.058</ele>
        <time>1999-11-30T00:00:00Z</time>
      </trkpt>
      <trkpt lat="41.130448" lon="-1.450718">
        <ele>729.094</ele>
        <time>1999-11-30T00:00:00Z</time>
      </trkpt>
      <trkpt lat="41.130169" lon="-1.450587">
        <ele>729.057</ele>
        <time>1999-11-30T00:00:00Z</time>
      </trkpt>
      <trkpt lat="41.129798" lon="-1.450401">
        <ele>729.022</ele>
        <time>1999-11-30T00:00:00Z</time>
      </trkpt>
      <trkpt lat="41.12929" lon="-1.450081">
        <ele>730.008</ele>
        <time>1999-11-30T00:00:00Z</time>
      </trkpt>
      <trkpt lat="41.128857" lon="-1.449857">
        <ele>730.040</ele>
        <time>1999-11-30T00:00:00Z</time>
      </trkpt>
      <trkpt lat="41.128134" lon="-1.449494">
        <ele>730.064</ele>
        <time>1999-11-30T00:00:00Z</time>
      </trkpt>
      <trkpt lat="41.127543" lon="-1.449084">
        <ele>730.095</ele>
        <time>1999-11-30T00:00:00Z</time>
      </trkpt>
      <trkpt lat="41.127075" lon="-1.44866">
        <ele>730.069</ele>
        <time>1999-11-30T00:00:00Z</time>
      </trkpt>
      <trkpt lat="41.126833" lon="-1.448325">
        <ele>730.054</ele>
        <time>1999-11-30T00:00:00Z</time>
      </trkpt>
      <trkpt lat="41.126683" lon="-1.448034">
        <ele>730.053</ele>
        <time>1999-11-30T00:00:00Z</time>
      </trkpt>
      <trkpt lat="41.126415" lon="-1.447751">
        <ele>730.024</ele>
        <time>1999-11-30T00:00:00Z</time>
      </trkpt>
      <trkpt lat="41.126154" lon="-1.447138">
        <ele>730.022</ele>
        <time>1999-11-30T00:00:00Z</time>
      </trkpt>
      <trkpt lat="41.125972" lon="-1.446853">
        <ele>730.074</ele>
        <time>1999-11-30T00:00:00Z</time>
      </trkpt>
      <trkpt lat="41.125354" lon="-1.446145">
        <ele>730.056</ele>
        <time>1999-11-30T00:00:00Z</time>
      </trkpt>
      <trkpt lat="41.125063" lon="-1.44588">
        <ele>730.021</ele>
        <time>1999-11-30T00:00:00Z</time>
      </trkpt>
      <trkpt lat="41.124661" lon="-1.445696">
        <ele>730.008</ele>
        <time>1999-11-30T00:00:00Z</time>
      </trkpt>
      <trkpt lat="41.12418" lon="-1.445281">
        <ele>730.078</ele>
        <time>1999-11-30T00:00:00Z</time>
      </trkpt>
      <trkpt lat="41.123698" lon="-1.444858">
        <ele>731.052</ele>
        <time>1999-11-30T00:00:00Z</time>
      </trkpt>
      <trkpt lat="41.123283" lon="-1.444513">
        <ele>730.013</ele>
        <time>1999-11-30T00:00:00Z</time>
      </trkpt>
      <trkpt lat="41.122803" lon="-1.444223">
        <ele>730.067</ele>
        <time>1999-11-30T00:00:00Z</time>
      </trkpt>
      <trkpt lat="41.122481" lon="-1.443984">
        <ele>731.052</ele>
        <time>1999-11-30T00:00:00Z</time>
      </trkpt>
      <trkpt lat="41.1222" lon="-1.443756">
        <ele>731.081</ele>
        <time>1999-11-30T00:00:00Z</time>
      </trkpt>
      <trkpt lat="41.122078" lon="-1.443589">
        <ele>731.052</ele>
        <time>1999-11-30T00:00:00Z</time>
      </trkpt>
      <trkpt lat="41.121887" lon="-1.443249">
        <ele>732.050</ele>
        <time>1999-11-30T00:00:00Z</time>
      </trkpt>
      <trkpt lat="41.121621" lon="-1.442839">
        <ele>732.073</ele>
        <time>1999-11-30T00:00:00Z</time>
      </trkpt>
      <trkpt lat="41.121373" lon="-1.442598">
        <ele>732.085</ele>
        <time>1999-11-30T00:00:00Z</time>
      </trkpt>
      <trkpt lat="41.121051" lon="-1.442338">
        <ele>732.013</ele>
        <time>1999-11-30T00:00:00Z</time>
      </trkpt>
      <trkpt lat="41.120828" lon="-1.442058">
        <ele>733.008</ele>
        <time>1999-11-30T00:00:00Z</time>
      </trkpt>
      <trkpt lat="41.120457" lon="-1.441591">
        <ele>733.068</ele>
        <time>1999-11-30T00:00:00Z</time>
      </trkpt>
      <trkpt lat="41.120242" lon="-1.441278">
        <ele>733.032</ele>
        <time>1999-11-30T00:00:00Z</time>
      </trkpt>
      <trkpt lat="41.119883" lon="-1.440937">
        <ele>734.053</ele>
        <time>1999-11-30T00:00:00Z</time>
      </trkpt>
      <trkpt lat="41.119729" lon="-1.440811">
        <ele>734.047</ele>
        <time>1999-11-30T00:00:00Z</time>
      </trkpt>
      <trkpt lat="41.119556" lon="-1.440509">
        <ele>734.052</ele>
        <time>1999-11-30T00:00:00Z</time>
      </trkpt>
      <trkpt lat="41.118972" lon="-1.439534">
        <ele>735.051</ele>
        <time>1999-11-30T00:00:00Z</time>
      </trkpt>
      <trkpt lat="41.118218" lon="-1.438364">
        <ele>735.072</ele>
        <time>1999-11-30T00:00:00Z</time>
      </trkpt>
      <trkpt lat="41.117915" lon="-1.437912">
        <ele>736.040</ele>
        <time>1999-11-30T00:00:00Z</time>
      </trkpt>
      <trkpt lat="41.117389" lon="-1.437144">
        <ele>736.046</ele>
        <time>1999-11-30T00:00:00Z</time>
      </trkpt>
      <trkpt lat="41.117198" lon="-1.436919">
        <ele>736.088</ele>
        <time>1999-11-30T00:00:00Z</time>
      </trkpt>
      <trkpt lat="41.1167" lon="-1.436361">
        <ele>737.016</ele>
        <time>1999-11-30T00:00:00Z</time>
      </trkpt>
      <trkpt lat="41.116362" lon="-1.435859">
        <ele>740.008</ele>
        <time>1999-11-30T00:00:00Z</time>
      </trkpt>
      <trkpt lat="41.116176" lon="-1.435433">
        <ele>739.035</ele>
        <time>1999-11-30T00:00:00Z</time>
      </trkpt>
      <trkpt lat="41.115983" lon="-1.434888">
        <ele>738.049</ele>
        <time>1999-11-30T00:00:00Z</time>
      </trkpt>
      <trkpt lat="41.115835" lon="-1.434406">
        <ele>738.020</ele>
        <time>1999-11-30T00:00:00Z</time>
      </trkpt>
      <trkpt lat="41.11576" lon="-1.43405">
        <ele>738.074</ele>
        <time>1999-11-30T00:00:00Z</time>
      </trkpt>
      <trkpt lat="41.115736" lon="-1.433648">
        <ele>738.079</ele>
        <time>1999-11-30T00:00:00Z</time>
      </trkpt>
      <trkpt lat="41.115677" lon="-1.433358">
        <ele>739.098</ele>
        <time>1999-11-30T00:00:00Z</time>
      </trkpt>
      <trkpt lat="41.115602" lon="-1.432995">
        <ele>739.089</ele>
        <time>1999-11-30T00:00:00Z</time>
      </trkpt>
      <trkpt lat="41.115598" lon="-1.432704">
        <ele>740.027</ele>
        <time>1999-11-30T00:00:00Z</time>
      </trkpt>
      <trkpt lat="41.115655" lon="-1.432438">
        <ele>741.017</ele>
        <time>1999-11-30T00:00:00Z</time>
      </trkpt>
      <trkpt lat="41.11568" lon="-1.43209">
        <ele>743.087</ele>
        <time>1999-11-30T00:00:00Z</time>
      </trkpt>
      <trkpt lat="41.115742" lon="-1.431892">
        <ele>744.015</ele>
        <time>1999-11-30T00:00:00Z</time>
      </trkpt>
      <trkpt lat="41.115818" lon="-1.431619">
        <ele>745.008</ele>
        <time>1999-11-30T00:00:00Z</time>
      </trkpt>
      <trkpt lat="41.115814" lon="-1.431241">
        <ele>746.082</ele>
        <time>1999-11-30T00:00:00Z</time>
      </trkpt>
      <trkpt lat="41.115726" lon="-1.430678">
        <ele>744.056</ele>
        <time>1999-11-30T00:00:00Z</time>
      </trkpt>
      <trkpt lat="41.115627" lon="-1.430073">
        <ele>744.057</ele>
        <time>1999-11-30T00:00:00Z</time>
      </trkpt>
      <trkpt lat="41.115577" lon="-1.429697">
        <ele>744.051</ele>
        <time>1999-11-30T00:00:00Z</time>
      </trkpt>
      <trkpt lat="41.115355" lon="-1.429238">
        <ele>743.026</ele>
        <time>1999-11-30T00:00:00Z</time>
      </trkpt>
      <trkpt lat="41.115066" lon="-1.428563">
        <ele>741.075</ele>
        <time>1999-11-30T00:00:00Z</time>
      </trkpt>
      <trkpt lat="41.114923" lon="-1.428288">
        <ele>741.016</ele>
        <time>1999-11-30T00:00:00Z</time>
      </trkpt>
      <trkpt lat="41.114681" lon="-1.427973">
        <ele>740.024</ele>
        <time>1999-11-30T00:00:00Z</time>
      </trkpt>
      <trkpt lat="41.114504" lon="-1.427755">
        <ele>740.035</ele>
        <time>1999-11-30T00:00:00Z</time>
      </trkpt>
      <trkpt lat="41.114391" lon="-1.427585">
        <ele>741.086</ele>
        <time>1999-11-30T00:00:00Z</time>
      </trkpt>
      <trkpt lat="41.114277" lon="-1.427329">
        <ele>741.014</ele>
        <time>1999-11-30T00:00:00Z</time>
      </trkpt>
      <trkpt lat="41.114138" lon="-1.426912">
        <ele>743.008</ele>
        <time>1999-11-30T00:00:00Z</time>
      </trkpt>
      <trkpt lat="41.114024" lon="-1.426733">
        <ele>743.024</ele>
        <time>1999-11-30T00:00:00Z</time>
      </trkpt>
      <trkpt lat="41.113788" lon="-1.426347">
        <ele>745.028</ele>
        <time>1999-11-30T00:00:00Z</time>
      </trkpt>
      <trkpt lat="41.113607" lon="-1.425985">
        <ele>748.019</ele>
        <time>1999-11-30T00:00:00Z</time>
      </trkpt>
      <trkpt lat="41.113445" lon="-1.425481">
        <ele>750.073</ele>
        <time>1999-11-30T00:00:00Z</time>
      </trkpt>
      <trkpt lat="41.113329" lon="-1.424946">
        <ele>749.098</ele>
        <time>1999-11-30T00:00:00Z</time>
      </trkpt>
      <trkpt lat="41.113094" lon="-1.424929">
        <ele>748.057</ele>
        <time>1999-11-30T00:00:00Z</time>
      </trkpt>
      <trkpt lat="41.112891" lon="-1.424914">
        <ele>746.088</ele>
        <time>1999-11-30T00:00:00Z</time>
      </trkpt>
      <trkpt lat="41.112813" lon="-1.424872">
        <ele>746.046</ele>
        <time>1999-11-30T00:00:00Z</time>
      </trkpt>
      <trkpt lat="41.11275" lon="-1.424774">
        <ele>746.098</ele>
        <time>1999-11-30T00:00:00Z</time>
      </trkpt>
      <trkpt lat="41.112695" lon="-1.424694">
        <ele>745.015</ele>
        <time>1999-11-30T00:00:00Z</time>
      </trkpt>
      <trkpt lat="41.112608" lon="-1.424612">
        <ele>745.026</ele>
        <time>1999-11-30T00:00:00Z</time>
      </trkpt>
      <trkpt lat="41.112502" lon="-1.424491">
        <ele>745.008</ele>
        <time>1999-11-30T00:00:00Z</time>
      </trkpt>
      <trkpt lat="41.112382" lon="-1.424295">
        <ele>744.010</ele>
        <time>1999-11-30T00:00:00Z</time>
      </trkpt>
      <trkpt lat="41.112259" lon="-1.424058">
        <ele>744.084</ele>
        <time>1999-11-30T00:00:00Z</time>
      </trkpt>
      <trkpt lat="41.112171" lon="-1.423884">
        <ele>744.055</ele>
        <time>1999-11-30T00:00:00Z</time>
      </trkpt>
      <trkpt lat="41.112059" lon="-1.423724">
        <ele>744.089</ele>
        <time>1999-11-30T00:00:00Z</time>
      </trkpt>
      <trkpt lat="41.111945" lon="-1.423572">
        <ele>746.014</ele>
        <time>1999-11-30T00:00:00Z</time>
      </trkpt>
      <trkpt lat="41.111846" lon="-1.423415">
        <ele>746.073</ele>
        <time>1999-11-30T00:00:00Z</time>
      </trkpt>
      <trkpt lat="41.111733" lon="-1.423237">
        <ele>747.084</ele>
        <time>1999-11-30T00:00:00Z</time>
      </trkpt>
      <trkpt lat="41.11166" lon="-1.423131">
        <ele>746.082</ele>
        <time>1999-11-30T00:00:00Z</time>
      </trkpt>
      <trkpt lat="41.111651" lon="-1.423058">
        <ele>746.022</ele>
        <time>1999-11-30T00:00:00Z</time>
      </trkpt>
      <trkpt lat="41.111656" lon="-1.422813">
        <ele>746.062</ele>
        <time>1999-11-30T00:00:00Z</time>
      </trkpt>
      <trkpt lat="41.111637" lon="-1.422386">
        <ele>747.008</ele>
        <time>1999-11-30T00:00:00Z</time>
      </trkpt>
      <trkpt lat="41.111609" lon="-1.421918">
        <ele>748.008</ele>
        <time>1999-11-30T00:00:00Z</time>
      </trkpt>
      <trkpt lat="41.11159" lon="-1.421488">
        <ele>749.093</ele>
        <time>1999-11-30T00:00:00Z</time>
      </trkpt>
      <trkpt lat="41.111501" lon="-1.420887">
        <ele>751.097</ele>
        <time>1999-11-30T00:00:00Z</time>
      </trkpt>
      <trkpt lat="41.111417" lon="-1.420205">
        <ele>753.058</ele>
        <time>1999-11-30T00:00:00Z</time>
      </trkpt>
      <trkpt lat="41.111432" lon="-1.420092">
        <ele>753.052</ele>
        <time>1999-11-30T00:00:00Z</time>
      </trkpt>
      <trkpt lat="41.111488" lon="-1.420014">
        <ele>753.067</ele>
        <time>1999-11-30T00:00:00Z</time>
      </trkpt>
      <trkpt lat="41.111559" lon="-1.419933">
        <ele>754.096</ele>
        <time>1999-11-30T00:00:00Z</time>
      </trkpt>
      <trkpt lat="41.111737" lon="-1.41978">
        <ele>755.057</ele>
        <time>1999-11-30T00:00:00Z</time>
      </trkpt>
      <trkpt lat="41.111922" lon="-1.41963">
        <ele>755.075</ele>
        <time>1999-11-30T00:00:00Z</time>
      </trkpt>
      <trkpt lat="41.112047" lon="-1.419498">
        <ele>756.018</ele>
        <time>1999-11-30T00:00:00Z</time>
      </trkpt>
      <trkpt lat="41.112127" lon="-1.419302">
        <ele>758.098</ele>
        <time>1999-11-30T00:00:00Z</time>
      </trkpt>
      <trkpt lat="41.112115" lon="-1.418628">
        <ele>760.017</ele>
        <time>1999-11-30T00:00:00Z</time>
      </trkpt>
      <trkpt lat="41.112123" lon="-1.418322">
        <ele>759.008</ele>
        <time>1999-11-30T00:00:00Z</time>
      </trkpt>
      <trkpt lat="41.11214" lon="-1.418185">
        <ele>759.032</ele>
        <time>1999-11-30T00:00:00Z</time>
      </trkpt>
      <trkpt lat="41.112179" lon="-1.418164">
        <ele>759.056</ele>
        <time>1999-11-30T00:00:00Z</time>
      </trkpt>
      <trkpt lat="41.112284" lon="-1.418149">
        <ele>760.097</ele>
        <time>1999-11-30T00:00:00Z</time>
      </trkpt>
      <trkpt lat="41.112388" lon="-1.418102">
        <ele>761.091</ele>
        <time>1999-11-30T00:00:00Z</time>
      </trkpt>
      <trkpt lat="41.112519" lon="-1.417977">
        <ele>763.036</ele>
        <time>1999-11-30T00:00:00Z</time>
      </trkpt>
      <trkpt lat="41.11276" lon="-1.417742">
        <ele>765.015</ele>
        <time>1999-11-30T00:00:00Z</time>
      </trkpt>
      <trkpt lat="41.1129" lon="-1.417581">
        <ele>766.086</ele>
        <time>1999-11-30T00:00:00Z</time>
      </trkpt>
      <trkpt lat="41.112877" lon="-1.417435">
        <ele>763.094</ele>
        <time>1999-11-30T00:00:00Z</time>
      </trkpt>
      <trkpt lat="41.112797" lon="-1.417214">
        <ele>759.076</ele>
        <time>1999-11-30T00:00:00Z</time>
      </trkpt>
      <trkpt lat="41.112797" lon="-1.417214">
        <ele>759.090</ele>
        <time>1999-11-30T00:00:00Z</time>
      </trkpt>
      <trkpt lat="41.112797" lon="-1.417214">
        <ele>759.019</ele>
        <time>1999-11-30T00:00:00Z</time>
      </trkpt>
      <trkpt lat="41.112763" lon="-1.417114">
        <ele>758.008</ele>
        <time>1999-11-30T00:00:00Z</time>
      </trkpt>
      <trkpt lat="41.112726" lon="-1.417058">
        <ele>757.088</ele>
        <time>1999-11-30T00:00:00Z</time>
      </trkpt>
      <trkpt lat="41.112728" lon="-1.41706">
        <ele>757.052</ele>
        <time>1999-11-30T00:00:00Z</time>
      </trkpt>
      <trkpt lat="41.112472" lon="-1.417084">
        <ele>757.023</ele>
        <time>1999-11-30T00:00:00Z</time>
      </trkpt>
      <trkpt lat="41.111072" lon="-1.417595">
        <ele>751.077</ele>
        <time>1999-11-30T00:00:00Z</time>
      </trkpt>
      <trkpt lat="41.11067" lon="-1.417806">
        <ele>750.082</ele>
        <time>1999-11-30T00:00:00Z</time>
      </trkpt>
      <trkpt lat="41.108772" lon="-1.418894">
        <ele>750.031</ele>
        <time>1999-11-30T00:00:00Z</time>
      </trkpt>
      <trkpt lat="41.107803" lon="-1.419402">
        <ele>748.012</ele>
        <time>1999-11-30T00:00:00Z</time>
      </trkpt>
      <trkpt lat="41.106603" lon="-1.420068">
        <ele>745.060</ele>
        <time>1999-11-30T00:00:00Z</time>
      </trkpt>
      <trkpt lat="41.105686" lon="-1.420585">
        <ele>745.085</ele>
        <time>1999-11-30T00:00:00Z</time>
      </trkpt>
      <trkpt lat="41.104853" lon="-1.421019">
        <ele>746.089</ele>
        <time>1999-11-30T00:00:00Z</time>
      </trkpt>
      <trkpt lat="41.104603" lon="-1.421251">
        <ele>748.017</ele>
        <time>1999-11-30T00:00:00Z</time>
      </trkpt>
      <trkpt lat="41.104228" lon="-1.421593">
        <ele>751.008</ele>
        <time>1999-11-30T00:00:00Z</time>
      </trkpt>
      <trkpt lat="41.104055" lon="-1.421307">
        <ele>751.019</ele>
        <time>1999-11-30T00:00:00Z</time>
      </trkpt>
      <trkpt lat="41.103542" lon="-1.420589">
        <ele>751.033</ele>
        <time>1999-11-30T00:00:00Z</time>
      </trkpt>
      <trkpt lat="41.103441" lon="-1.420486">
        <ele>751.054</ele>
        <time>1999-11-30T00:00:00Z</time>
      </trkpt>
      <trkpt lat="41.103266" lon="-1.420419">
        <ele>751.058</ele>
        <time>1999-11-30T00:00:00Z</time>
      </trkpt>
      <trkpt lat="41.102989" lon="-1.420395">
        <ele>752.083</ele>
        <time>1999-11-30T00:00:00Z</time>
      </trkpt>
      <trkpt lat="41.102781" lon="-1.420389">
        <ele>752.062</ele>
        <time>1999-11-30T00:00:00Z</time>
      </trkpt>
      <trkpt lat="41.102651" lon="-1.420329">
        <ele>753.063</ele>
        <time>1999-11-30T00:00:00Z</time>
      </trkpt>
      <trkpt lat="41.102578" lon="-1.420251">
        <ele>753.061</ele>
        <time>1999-11-30T00:00:00Z</time>
      </trkpt>
      <trkpt lat="41.10242" lon="-1.420114">
        <ele>752.017</ele>
        <time>1999-11-30T00:00:00Z</time>
      </trkpt>
      <trkpt lat="41.101852" lon="-1.4197">
        <ele>751.087</ele>
        <time>1999-11-30T00:00:00Z</time>
      </trkpt>
      <trkpt lat="41.101424" lon="-1.419441">
        <ele>751.015</ele>
        <time>1999-11-30T00:00:00Z</time>
      </trkpt>
      <trkpt lat="41.10106" lon="-1.419157">
        <ele>751.008</ele>
        <time>1999-11-30T00:00:00Z</time>
      </trkpt>
      <trkpt lat="41.100904" lon="-1.418987">
        <ele>752.092</ele>
        <time>1999-11-30T00:00:00Z</time>
      </trkpt>
      <trkpt lat="41.100784" lon="-1.41883">
        <ele>751.076</ele>
        <time>1999-11-30T00:00:00Z</time>
      </trkpt>
      <trkpt lat="41.100616" lon="-1.418701">
        <ele>752.037</ele>
        <time>1999-11-30T00:00:00Z</time>
      </trkpt>
      <trkpt lat="41.100351" lon="-1.418576">
        <ele>752.041</ele>
        <time>1999-11-30T00:00:00Z</time>
      </trkpt>
      <trkpt lat="41.100018" lon="-1.418482">
        <ele>752.036</ele>
        <time>1999-11-30T00:00:00Z</time>
      </trkpt>
      <trkpt lat="41.099638" lon="-1.418422">
        <ele>753.015</ele>
        <time>1999-11-30T00:00:00Z</time>
      </trkpt>
      <trkpt lat="41.099471" lon="-1.418385">
        <ele>753.046</ele>
        <time>1999-11-30T00:00:00Z</time>
      </trkpt>
      <trkpt lat="41.099258" lon="-1.41826">
        <ele>753.054</ele>
        <time>1999-11-30T00:00:00Z</time>
      </trkpt>
      <trkpt lat="41.098979" lon="-1.418118">
        <ele>753.012</ele>
        <time>1999-11-30T00:00:00Z</time>
      </trkpt>
      <trkpt lat="41.098788" lon="-1.41804">
        <ele>754.032</ele>
        <time>1999-11-30T00:00:00Z</time>
      </trkpt>
      <trkpt lat="41.098215" lon="-1.418034">
        <ele>755.005</ele>
        <time>1999-11-30T00:00:00Z</time>
      </trkpt>
      <trkpt lat="41.097748" lon="-1.41796">
        <ele>755.008</ele>
        <time>1999-11-30T00:00:00Z</time>
      </trkpt>
      <trkpt lat="41.097045" lon="-1.417754">
        <ele>755.022</ele>
        <time>1999-11-30T00:00:00Z</time>
      </trkpt>
      <trkpt lat="41.096722" lon="-1.417604">
        <ele>755.086</ele>
        <time>1999-11-30T00:00:00Z</time>
      </trkpt>
      <trkpt lat="41.096299" lon="-1.417493">
        <ele>757.087</ele>
        <time>1999-11-30T00:00:00Z</time>
      </trkpt>
      <trkpt lat="41.096046" lon="-1.417438">
        <ele>759.051</ele>
        <time>1999-11-30T00:00:00Z</time>
      </trkpt>
      <trkpt lat="41.095687" lon="-1.417456">
        <ele>761.096</ele>
        <time>1999-11-30T00:00:00Z</time>
      </trkpt>
      <trkpt lat="41.095553" lon="-1.417468">
        <ele>761.085</ele>
        <time>1999-11-30T00:00:00Z</time>
      </trkpt>
      <trkpt lat="41.094995" lon="-1.417618">
        <ele>763.056</ele>
        <time>1999-11-30T00:00:00Z</time>
      </trkpt>
      <trkpt lat="41.094771" lon="-1.417579">
        <ele>764.054</ele>
        <time>1999-11-30T00:00:00Z</time>
      </trkpt>
      <trkpt lat="41.094366" lon="-1.417503">
        <ele>764.039</ele>
        <time>1999-11-30T00:00:00Z</time>
      </trkpt>
      <trkpt lat="41.094309" lon="-1.417474">
        <ele>764.001</ele>
        <time>1999-11-30T00:00:00Z</time>
      </trkpt>
      <trkpt lat="41.094285" lon="-1.417397">
        <ele>764.021</ele>
        <time>1999-11-30T00:00:00Z</time>
      </trkpt>
      <trkpt lat="41.094205" lon="-1.417188">
        <ele>764.008</ele>
        <time>1999-11-30T00:00:00Z</time>
      </trkpt>
      <trkpt lat="41.09407" lon="-1.416915">
        <ele>763.094</ele>
        <time>1999-11-30T00:00:00Z</time>
      </trkpt>
      <trkpt lat="41.093831" lon="-1.416522">
        <ele>763.028</ele>
        <time>1999-11-30T00:00:00Z</time>
      </trkpt>
      <trkpt lat="41.093727" lon="-1.416411">
        <ele>762.029</ele>
        <time>1999-11-30T00:00:00Z</time>
      </trkpt>
      <trkpt lat="41.093656" lon="-1.416368">
        <ele>762.063</ele>
        <time>1999-11-30T00:00:00Z</time>
      </trkpt>
      <trkpt lat="41.093539" lon="-1.416214">
        <ele>762.048</ele>
        <time>1999-11-30T00:00:00Z</time>
      </trkpt>
      <trkpt lat="41.093367" lon="-1.415987">
        <ele>761.017</ele>
        <time>1999-11-30T00:00:00Z</time>
      </trkpt>
      <trkpt lat="41.093262" lon="-1.415884">
        <ele>761.088</ele>
        <time>1999-11-30T00:00:00Z</time>
      </trkpt>
      <trkpt lat="41.093077" lon="-1.415812">
        <ele>761.086</ele>
        <time>1999-11-30T00:00:00Z</time>
      </trkpt>
      <trkpt lat="41.092786" lon="-1.415784">
        <ele>761.017</ele>
        <time>1999-11-30T00:00:00Z</time>
      </trkpt>
      <trkpt lat="41.09238" lon="-1.415641">
        <ele>761.087</ele>
        <time>1999-11-30T00:00:00Z</time>
      </trkpt>
      <trkpt lat="41.092236" lon="-1.415418">
        <ele>761.015</ele>
        <time>1999-11-30T00:00:00Z</time>
      </trkpt>
      <trkpt lat="41.092025" lon="-1.415101">
        <ele>760.008</ele>
        <time>1999-11-30T00:00:00Z</time>
      </trkpt>
      <trkpt lat="41.091867" lon="-1.414889">
        <ele>759.082</ele>
        <time>1999-11-30T00:00:00Z</time>
      </trkpt>
      <trkpt lat="41.091501" lon="-1.414686">
        <ele>760.026</ele>
        <time>1999-11-30T00:00:00Z</time>
      </trkpt>
      <trkpt lat="41.091203" lon="-1.414335">
        <ele>760.047</ele>
        <time>1999-11-30T00:00:00Z</time>
      </trkpt>
      <trkpt lat="41.090765" lon="-1.413899">
        <ele>761.071</ele>
        <time>1999-11-30T00:00:00Z</time>
      </trkpt>
      <trkpt lat="41.090552" lon="-1.413568">
        <ele>760.026</ele>
        <time>1999-11-30T00:00:00Z</time>
      </trkpt>
      <trkpt lat="41.09011" lon="-1.412826">
        <ele>760.045</ele>
        <time>1999-11-30T00:00:00Z</time>
      </trkpt>
      <trkpt lat="41.089917" lon="-1.412613">
        <ele>759.056</ele>
        <time>1999-11-30T00:00:00Z</time>
      </trkpt>
      <trkpt lat="41.089801" lon="-1.412343">
        <ele>758.054</ele>
        <time>1999-11-30T00:00:00Z</time>
      </trkpt>
      <trkpt lat="41.089604" lon="-1.412003">
        <ele>759.079</ele>
        <time>1999-11-30T00:00:00Z</time>
      </trkpt>
      <trkpt lat="41.08943" lon="-1.411764">
        <ele>760.005</ele>
        <time>1999-11-30T00:00:00Z</time>
      </trkpt>
      <trkpt lat="41.089079" lon="-1.411404">
        <ele>760.025</ele>
        <time>1999-11-30T00:00:00Z</time>
      </trkpt>
      <trkpt lat="41.0888" lon="-1.411154">
        <ele>760.008</ele>
        <time>1999-11-30T00:00:00Z</time>
      </trkpt>
      <trkpt lat="41.088492" lon="-1.410872">
        <ele>759.028</ele>
        <time>1999-11-30T00:00:00Z</time>
      </trkpt>
      <trkpt lat="41.088236" lon="-1.410701">
        <ele>759.012</ele>
        <time>1999-11-30T00:00:00Z</time>
      </trkpt>
      <trkpt lat="41.087819" lon="-1.410551">
        <ele>758.093</ele>
        <time>1999-11-30T00:00:00Z</time>
      </trkpt>
      <trkpt lat="41.087525" lon="-1.410438">
        <ele>758.017</ele>
        <time>1999-11-30T00:00:00Z</time>
      </trkpt>
      <trkpt lat="41.087171" lon="-1.410102">
        <ele>759.022</ele>
        <time>1999-11-30T00:00:00Z</time>
      </trkpt>
      <trkpt lat="41.086886" lon="-1.409751">
        <ele>759.031</ele>
        <time>1999-11-30T00:00:00Z</time>
      </trkpt>
      <trkpt lat="41.086523" lon="-1.40939">
        <ele>758.062</ele>
        <time>1999-11-30T00:00:00Z</time>
      </trkpt>
      <trkpt lat="41.086271" lon="-1.40923">
        <ele>759.030</ele>
        <time>1999-11-30T00:00:00Z</time>
      </trkpt>
      <trkpt lat="41.085986" lon="-1.409101">
        <ele>759.027</ele>
        <time>1999-11-30T00:00:00Z</time>
      </trkpt>
      <trkpt lat="41.085868" lon="-1.408904">
        <ele>759.068</ele>
        <time>1999-11-30T00:00:00Z</time>
      </trkpt>
      <trkpt lat="41.085799" lon="-1.408718">
        <ele>759.014</ele>
        <time>1999-11-30T00:00:00Z</time>
      </trkpt>
      <trkpt lat="41.085777" lon="-1.408499">
        <ele>759.008</ele>
        <time>1999-11-30T00:00:00Z</time>
      </trkpt>
      <trkpt lat="41.085686" lon="-1.4082">
        <ele>759.093</ele>
        <time>1999-11-30T00:00:00Z</time>
      </trkpt>
      <trkpt lat="41.085503" lon="-1.407801">
        <ele>759.037</ele>
        <time>1999-11-30T00:00:00Z</time>
      </trkpt>
      <trkpt lat="41.08525" lon="-1.40734">
        <ele>759.068</ele>
        <time>1999-11-30T00:00:00Z</time>
      </trkpt>
      <trkpt lat="41.084933" lon="-1.406997">
        <ele>759.082</ele>
        <time>1999-11-30T00:00:00Z</time>
      </trkpt>
      <trkpt lat="41.084532" lon="-1.406673">
        <ele>760.027</ele>
        <time>1999-11-30T00:00:00Z</time>
      </trkpt>
      <trkpt lat="41.084419" lon="-1.406401">
        <ele>760.026</ele>
        <time>1999-11-30T00:00:00Z</time>
      </trkpt>
      <trkpt lat="41.084302" lon="-1.405772">
        <ele>760.027</ele>
        <time>1999-11-30T00:00:00Z</time>
      </trkpt>
      <trkpt lat="41.08415" lon="-1.405483">
        <ele>760.025</ele>
        <time>1999-11-30T00:00:00Z</time>
      </trkpt>
      <trkpt lat="41.084029" lon="-1.405332">
        <ele>760.033</ele>
        <time>1999-11-30T00:00:00Z</time>
      </trkpt>
      <trkpt lat="41.083719" lon="-1.405618">
        <ele>762.023</ele>
        <time>1999-11-30T00:00:00Z</time>
      </trkpt>
      <trkpt lat="41.083195" lon="-1.406201">
        <ele>767.015</ele>
        <time>1999-11-30T00:00:00Z</time>
      </trkpt>
      <trkpt lat="41.082858" lon="-1.40657">
        <ele>770.008</ele>
        <time>1999-11-30T00:00:00Z</time>
      </trkpt>
      <trkpt lat="41.082657" lon="-1.406823">
        <ele>772.084</ele>
        <time>1999-11-30T00:00:00Z</time>
      </trkpt>
      <trkpt lat="41.082502" lon="-1.407204">
        <ele>775.068</ele>
        <time>1999-11-30T00:00:00Z</time>
      </trkpt>
      <trkpt lat="41.082363" lon="-1.407707">
        <ele>776.069</ele>
        <time>1999-11-30T00:00:00Z</time>
      </trkpt>
      <trkpt lat="41.082136" lon="-1.408135">
        <ele>776.013</ele>
        <time>1999-11-30T00:00:00Z</time>
      </trkpt>
      <trkpt lat="41.081967" lon="-1.408328">
        <ele>776.098</ele>
        <time>1999-11-30T00:00:00Z</time>
      </trkpt>
      <trkpt lat="41.081617" lon="-1.408651">
        <ele>777.047</ele>
        <time>1999-11-30T00:00:00Z</time>
      </trkpt>
      <trkpt lat="41.081409" lon="-1.40902">
        <ele>779.078</ele>
        <time>1999-11-30T00:00:00Z</time>
      </trkpt>
      <trkpt lat="41.081203" lon="-1.409318">
        <ele>779.086</ele>
        <time>1999-11-30T00:00:00Z</time>
      </trkpt>
      <trkpt lat="41.08127" lon="-1.40855">
        <ele>779.096</ele>
        <time>1999-11-30T00:00:00Z</time>
      </trkpt>
      <trkpt lat="41.081436" lon="-1.407735">
        <ele>778.031</ele>
        <time>1999-11-30T00:00:00Z</time>
      </trkpt>
      <trkpt lat="41.081513" lon="-1.407479">
        <ele>779.024</ele>
        <time>1999-11-30T00:00:00Z</time>
      </trkpt>
      <trkpt lat="41.081685" lon="-1.407241">
        <ele>779.008</ele>
        <time>1999-11-30T00:00:00Z</time>
      </trkpt>
      <trkpt lat="41.081746" lon="-1.406983">
        <ele>778.060</ele>
        <time>1999-11-30T00:00:00Z</time>
      </trkpt>
      <trkpt lat="41.081737" lon="-1.406785">
        <ele>778.094</ele>
        <time>1999-11-30T00:00:00Z</time>
      </trkpt>
      <trkpt lat="41.081785" lon="-1.406477">
        <ele>777.085</ele>
        <time>1999-11-30T00:00:00Z</time>
      </trkpt>
      <trkpt lat="41.081887" lon="-1.406122">
        <ele>775.049</ele>
        <time>1999-11-30T00:00:00Z</time>
      </trkpt>
      <trkpt lat="41.081868" lon="-1.406018">
        <ele>775.054</ele>
        <time>1999-11-30T00:00:00Z</time>
      </trkpt>
      <trkpt lat="41.081731" lon="-1.405752">
        <ele>775.063</ele>
        <time>1999-11-30T00:00:00Z</time>
      </trkpt>
      <trkpt lat="41.081481" lon="-1.405349">
        <ele>777.054</ele>
        <time>1999-11-30T00:00:00Z</time>
      </trkpt>
      <trkpt lat="41.081353" lon="-1.405102">
        <ele>779.012</ele>
        <time>1999-11-30T00:00:00Z</time>
      </trkpt>
      <trkpt lat="41.081156" lon="-1.40447">
        <ele>779.013</ele>
        <time>1999-11-30T00:00:00Z</time>
      </trkpt>
      <trkpt lat="41.081119" lon="-1.404157">
        <ele>779.043</ele>
        <time>1999-11-30T00:00:00Z</time>
      </trkpt>
      <trkpt lat="41.080952" lon="-1.403719">
        <ele>776.007</ele>
        <time>1999-11-30T00:00:00Z</time>
      </trkpt>
      <trkpt lat="41.080769" lon="-1.403438">
        <ele>775.008</ele>
        <time>1999-11-30T00:00:00Z</time>
      </trkpt>
      <trkpt lat="41.080666" lon="-1.403239">
        <ele>773.072</ele>
        <time>1999-11-30T00:00:00Z</time>
      </trkpt>
      <trkpt lat="41.080403" lon="-1.402968">
        <ele>774.036</ele>
        <time>1999-11-30T00:00:00Z</time>
      </trkpt>
      <trkpt lat="41.080173" lon="-1.40273">
        <ele>774.017</ele>
        <time>1999-11-30T00:00:00Z</time>
      </trkpt>
      <trkpt lat="41.080014" lon="-1.402668">
        <ele>777.041</ele>
        <time>1999-11-30T00:00:00Z</time>
      </trkpt>
      <trkpt lat="41.079935" lon="-1.402568">
        <ele>778.096</ele>
        <time>1999-11-30T00:00:00Z</time>
      </trkpt>
      <trkpt lat="41.079826" lon="-1.402358">
        <ele>778.045</ele>
        <time>1999-11-30T00:00:00Z</time>
      </trkpt>
      <trkpt lat="41.07968" lon="-1.402238">
        <ele>779.046</ele>
        <time>1999-11-30T00:00:00Z</time>
      </trkpt>
      <trkpt lat="41.07949" lon="-1.402071">
        <ele>779.034</ele>
        <time>1999-11-30T00:00:00Z</time>
      </trkpt>
      <trkpt lat="41.079407" lon="-1.401888">
        <ele>779.019</ele>
        <time>1999-11-30T00:00:00Z</time>
      </trkpt>
      <trkpt lat="41.079165" lon="-1.401618">
        <ele>779.009</ele>
        <time>1999-11-30T00:00:00Z</time>
      </trkpt>
      <trkpt lat="41.079081" lon="-1.401467">
        <ele>779.019</ele>
        <time>1999-11-30T00:00:00Z</time>
      </trkpt>
      <trkpt lat="41.07907" lon="-1.401343">
        <ele>778.008</ele>
        <time>1999-11-30T00:00:00Z</time>
      </trkpt>
      <trkpt lat="41.079063" lon="-1.401211">
        <ele>777.032</ele>
        <time>1999-11-30T00:00:00Z</time>
      </trkpt>
      <trkpt lat="41.079016" lon="-1.401143">
        <ele>777.026</ele>
        <time>1999-11-30T00:00:00Z</time>
      </trkpt>
      <trkpt lat="41.078837" lon="-1.401117">
        <ele>778.047</ele>
        <time>1999-11-30T00:00:00Z</time>
      </trkpt>
      <trkpt lat="41.078688" lon="-1.401104">
        <ele>779.041</ele>
        <time>1999-11-30T00:00:00Z</time>
      </trkpt>
      <trkpt lat="41.078575" lon="-1.401019">
        <ele>778.056</ele>
        <time>1999-11-30T00:00:00Z</time>
      </trkpt>
      <trkpt lat="41.078483" lon="-1.400885">
        <ele>778.085</ele>
        <time>1999-11-30T00:00:00Z</time>
      </trkpt>
      <trkpt lat="41.078386" lon="-1.400868">
        <ele>778.016</ele>
        <time>1999-11-30T00:00:00Z</time>
      </trkpt>
      <trkpt lat="41.078251" lon="-1.400864">
        <ele>778.094</ele>
        <time>1999-11-30T00:00:00Z</time>
      </trkpt>
      <trkpt lat="41.078146" lon="-1.400808">
        <ele>778.045</ele>
        <time>1999-11-30T00:00:00Z</time>
      </trkpt>
      <trkpt lat="41.078086" lon="-1.400668">
        <ele>779.047</ele>
        <time>1999-11-30T00:00:00Z</time>
      </trkpt>
      <trkpt lat="41.078036" lon="-1.400368">
        <ele>780.011</ele>
        <time>1999-11-30T00:00:00Z</time>
      </trkpt>
      <trkpt lat="41.078152" lon="-1.399976">
        <ele>779.008</ele>
        <time>1999-11-30T00:00:00Z</time>
      </trkpt>
      <trkpt lat="41.078168" lon="-1.399819">
        <ele>779.085</ele>
        <time>1999-11-30T00:00:00Z</time>
      </trkpt>
      <trkpt lat="41.078161" lon="-1.399584">
        <ele>779.089</ele>
        <time>1999-11-30T00:00:00Z</time>
      </trkpt>
      <trkpt lat="41.078169" lon="-1.399399">
        <ele>779.090</ele>
        <time>1999-11-30T00:00:00Z</time>
      </trkpt>
      <trkpt lat="41.078078" lon="-1.39917">
        <ele>779.054</ele>
        <time>1999-11-30T00:00:00Z</time>
      </trkpt>
      <trkpt lat="41.07787" lon="-1.398818">
        <ele>780.069</ele>
        <time>1999-11-30T00:00:00Z</time>
      </trkpt>
      <trkpt lat="41.07766" lon="-1.398527">
        <ele>779.018</ele>
        <time>1999-11-30T00:00:00Z</time>
      </trkpt>
      <trkpt lat="41.077269" lon="-1.398251">
        <ele>781.019</ele>
        <time>1999-11-30T00:00:00Z</time>
      </trkpt>
      <trkpt lat="41.07721" lon="-1.398149">
        <ele>782.017</ele>
        <time>1999-11-30T00:00:00Z</time>
      </trkpt>
      <trkpt lat="41.07722" lon="-1.397954">
        <ele>780.071</ele>
        <time>1999-11-30T00:00:00Z</time>
      </trkpt>
      <trkpt lat="41.077189" lon="-1.397665">
        <ele>780.041</ele>
        <time>1999-11-30T00:00:00Z</time>
      </trkpt>
      <trkpt lat="41.077136" lon="-1.397435">
        <ele>780.015</ele>
        <time>1999-11-30T00:00:00Z</time>
      </trkpt>
      <trkpt lat="41.076986" lon="-1.396818">
        <ele>780.008</ele>
        <time>1999-11-30T00:00:00Z</time>
      </trkpt>
      <trkpt lat="41.076984" lon="-1.396562">
        <ele>781.038</ele>
        <time>1999-11-30T00:00:00Z</time>
      </trkpt>
      <trkpt lat="41.077077" lon="-1.396337">
        <ele>780.022</ele>
        <time>1999-11-30T00:00:00Z</time>
      </trkpt>
      <trkpt lat="41.077103" lon="-1.396068">
        <ele>780.053</ele>
        <time>1999-11-30T00:00:00Z</time>
      </trkpt>
      <trkpt lat="41.076987" lon="-1.395585">
        <ele>780.097</ele>
        <time>1999-11-30T00:00:00Z</time>
      </trkpt>
      <trkpt lat="41.076753" lon="-1.395185">
        <ele>779.042</ele>
        <time>1999-11-30T00:00:00Z</time>
      </trkpt>
      <trkpt lat="41.076453" lon="-1.395118">
        <ele>781.011</ele>
        <time>1999-11-30T00:00:00Z</time>
      </trkpt>
      <trkpt lat="41.076288" lon="-1.395077">
        <ele>781.042</ele>
        <time>1999-11-30T00:00:00Z</time>
      </trkpt>
      <trkpt lat="41.076203" lon="-1.394968">
        <ele>782.040</ele>
        <time>1999-11-30T00:00:00Z</time>
      </trkpt>
      <trkpt lat="41.075962" lon="-1.394779">
        <ele>785.037</ele>
        <time>1999-11-30T00:00:00Z</time>
      </trkpt>
      <trkpt lat="41.075894" lon="-1.394638">
        <ele>787.049</ele>
        <time>1999-11-30T00:00:00Z</time>
      </trkpt>
      <trkpt lat="41.075825" lon="-1.394507">
        <ele>788.013</ele>
        <time>1999-11-30T00:00:00Z</time>
      </trkpt>
      <trkpt lat="41.075719" lon="-1.394402">
        <ele>789.008</ele>
        <time>1999-11-30T00:00:00Z</time>
      </trkpt>
      <trkpt lat="41.07557" lon="-1.394458">
        <ele>791.094</ele>
        <time>1999-11-30T00:00:00Z</time>
      </trkpt>
      <trkpt lat="41.075361" lon="-1.394452">
        <ele>791.078</ele>
        <time>1999-11-30T00:00:00Z</time>
      </trkpt>
      <trkpt lat="41.075079" lon="-1.39452">
        <ele>790.089</ele>
        <time>1999-11-30T00:00:00Z</time>
      </trkpt>
      <trkpt lat="41.074902" lon="-1.394574">
        <ele>788.053</ele>
        <time>1999-11-30T00:00:00Z</time>
      </trkpt>
      <trkpt lat="41.07481" lon="-1.394724">
        <ele>788.088</ele>
        <time>1999-11-30T00:00:00Z</time>
      </trkpt>
      <trkpt lat="41.07457" lon="-1.394668">
        <ele>784.017</ele>
        <time>1999-11-30T00:00:00Z</time>
      </trkpt>
      <trkpt lat="41.074366" lon="-1.394551">
        <ele>782.028</ele>
        <time>1999-11-30T00:00:00Z</time>
      </trkpt>
      <trkpt lat="41.074273" lon="-1.394478">
        <ele>782.036</ele>
        <time>1999-11-30T00:00:00Z</time>
      </trkpt>
      <trkpt lat="41.074162" lon="-1.394322">
        <ele>783.067</ele>
        <time>1999-11-30T00:00:00Z</time>
      </trkpt>
      <trkpt lat="41.073866" lon="-1.393731">
        <ele>792.081</ele>
        <time>1999-11-30T00:00:00Z</time>
      </trkpt>
      <trkpt lat="41.073576" lon="-1.393247">
        <ele>792.019</ele>
        <time>1999-11-30T00:00:00Z</time>
      </trkpt>
      <trkpt lat="41.07342" lon="-1.392931">
        <ele>789.008</ele>
        <time>1999-11-30T00:00:00Z</time>
      </trkpt>
      <trkpt lat="41.073362" lon="-1.392869">
        <ele>787.087</ele>
        <time>1999-11-30T00:00:00Z</time>
      </trkpt>
      <trkpt lat="41.073298" lon="-1.392879">
        <ele>786.071</ele>
        <time>1999-11-30T00:00:00Z</time>
      </trkpt>
      <trkpt lat="41.073178" lon="-1.392998">
        <ele>784.052</ele>
        <time>1999-11-30T00:00:00Z</time>
      </trkpt>
      <trkpt lat="41.072924" lon="-1.393299">
        <ele>782.096</ele>
        <time>1999-11-30T00:00:00Z</time>
      </trkpt>
      <trkpt lat="41.072748" lon="-1.3934">
        <ele>782.091</ele>
        <time>1999-11-30T00:00:00Z</time>
      </trkpt>
      <trkpt lat="41.072548" lon="-1.393382">
        <ele>781.040</ele>
        <time>1999-11-30T00:00:00Z</time>
      </trkpt>
      <trkpt lat="41.07231" lon="-1.393217">
        <ele>780.081</ele>
        <time>1999-11-30T00:00:00Z</time>
      </trkpt>
      <trkpt lat="41.072101" lon="-1.393043">
        <ele>780.059</ele>
        <time>1999-11-30T00:00:00Z</time>
      </trkpt>
      <trkpt lat="41.071942" lon="-1.392896">
        <ele>780.031</ele>
        <time>1999-11-30T00:00:00Z</time>
      </trkpt>
      <trkpt lat="41.071815" lon="-1.392626">
        <ele>780.061</ele>
        <time>1999-11-30T00:00:00Z</time>
      </trkpt>
      <trkpt lat="41.071771" lon="-1.392294">
        <ele>784.007</ele>
        <time>1999-11-30T00:00:00Z</time>
      </trkpt>
      <trkpt lat="41.071804" lon="-1.391935">
        <ele>784.008</ele>
        <time>1999-11-30T00:00:00Z</time>
      </trkpt>
      <trkpt lat="41.071753" lon="-1.391668">
        <ele>784.054</ele>
        <time>1999-11-30T00:00:00Z</time>
      </trkpt>
      <trkpt lat="41.071545" lon="-1.39091">
        <ele>781.028</ele>
        <time>1999-11-30T00:00:00Z</time>
      </trkpt>
      <trkpt lat="41.071375" lon="-1.390655">
        <ele>782.019</ele>
        <time>1999-11-30T00:00:00Z</time>
      </trkpt>
      <trkpt lat="41.071262" lon="-1.390338">
        <ele>781.093</ele>
        <time>1999-11-30T00:00:00Z</time>
      </trkpt>
      <trkpt lat="41.071068" lon="-1.390059">
        <ele>784.098</ele>
        <time>1999-11-30T00:00:00Z</time>
      </trkpt>
      <trkpt lat="41.07102" lon="-1.389707">
        <ele>782.047</ele>
        <time>1999-11-30T00:00:00Z</time>
      </trkpt>
      <trkpt lat="41.070886" lon="-1.389518">
        <ele>781.038</ele>
        <time>1999-11-30T00:00:00Z</time>
      </trkpt>
      <trkpt lat="41.070703" lon="-1.389451">
        <ele>782.096</ele>
        <time>1999-11-30T00:00:00Z</time>
      </trkpt>
      <trkpt lat="41.070465" lon="-1.389567">
        <ele>784.064</ele>
        <time>1999-11-30T00:00:00Z</time>
      </trkpt>
      <trkpt lat="41.070349" lon="-1.389565">
        <ele>783.006</ele>
        <time>1999-11-30T00:00:00Z</time>
      </trkpt>
      <trkpt lat="41.070266" lon="-1.389484">
        <ele>784.016</ele>
        <time>1999-11-30T00:00:00Z</time>
      </trkpt>
      <trkpt lat="41.070232" lon="-1.389297">
        <ele>783.008</ele>
        <time>1999-11-30T00:00:00Z</time>
      </trkpt>
      <trkpt lat="41.070206" lon="-1.389077">
        <ele>782.097</ele>
        <time>1999-11-30T00:00:00Z</time>
      </trkpt>
      <trkpt lat="41.070119" lon="-1.388851">
        <ele>781.051</ele>
        <time>1999-11-30T00:00:00Z</time>
      </trkpt>
      <trkpt lat="41.069691" lon="-1.3882">
        <ele>780.062</ele>
        <time>1999-11-30T00:00:00Z</time>
      </trkpt>
      <trkpt lat="41.069536" lon="-1.388168">
        <ele>781.076</ele>
        <time>1999-11-30T00:00:00Z</time>
      </trkpt>
      <trkpt lat="41.069394" lon="-1.388135">
        <ele>782.071</ele>
        <time>1999-11-30T00:00:00Z</time>
      </trkpt>
      <trkpt lat="41.069284" lon="-1.38802">
        <ele>783.040</ele>
        <time>1999-11-30T00:00:00Z</time>
      </trkpt>
      <trkpt lat="41.069205" lon="-1.387889">
        <ele>781.041</ele>
        <time>1999-11-30T00:00:00Z</time>
      </trkpt>
      <trkpt lat="41.069115" lon="-1.387841">
        <ele>781.069</ele>
        <time>1999-11-30T00:00:00Z</time>
      </trkpt>
      <trkpt lat="41.069017" lon="-1.387866">
        <ele>781.021</ele>
        <time>1999-11-30T00:00:00Z</time>
      </trkpt>
      <trkpt lat="41.068802" lon="-1.388012">
        <ele>784.041</ele>
        <time>1999-11-30T00:00:00Z</time>
      </trkpt>
      <trkpt lat="41.068664" lon="-1.388092">
        <ele>785.005</ele>
        <time>1999-11-30T00:00:00Z</time>
      </trkpt>
      <trkpt lat="41.068551" lon="-1.388082">
        <ele>784.008</ele>
        <time>1999-11-30T00:00:00Z</time>
      </trkpt>
      <trkpt lat="41.068418" lon="-1.387985">
        <ele>783.033</ele>
        <time>1999-11-30T00:00:00Z</time>
      </trkpt>
      <trkpt lat="41.068358" lon="-1.387854">
        <ele>785.087</ele>
        <time>1999-11-30T00:00:00Z</time>
      </trkpt>
      <trkpt lat="41.068356" lon="-1.387673">
        <ele>787.048</ele>
        <time>1999-11-30T00:00:00Z</time>
      </trkpt>
      <trkpt lat="41.068327" lon="-1.387418">
        <ele>792.012</ele>
        <time>1999-11-30T00:00:00Z</time>
      </trkpt>
      <trkpt lat="41.068253" lon="-1.387151">
        <ele>796.017</ele>
        <time>1999-11-30T00:00:00Z</time>
      </trkpt>
      <trkpt lat="41.068153" lon="-1.386959">
        <ele>798.036</ele>
        <time>1999-11-30T00:00:00Z</time>
      </trkpt>
      <trkpt lat="41.06803" lon="-1.386777">
        <ele>799.017</ele>
        <time>1999-11-30T00:00:00Z</time>
      </trkpt>
      <trkpt lat="41.067762" lon="-1.38669">
        <ele>799.065</ele>
        <time>1999-11-30T00:00:00Z</time>
      </trkpt>
      <trkpt lat="41.067661" lon="-1.386599">
        <ele>788.194</ele>
        <time>1999-11-30T00:00:00Z</time>
      </trkpt>
      <trkpt lat="41.067213" lon="-1.386269">
        <ele>789.857</ele>
        <time>1999-11-30T00:00:00Z</time>
      </trkpt>
      <trkpt lat="41.067179" lon="-1.386299">
        <ele>790.422</ele>
        <time>1999-11-30T00:00:00Z</time>
      </trkpt>
      <trkpt lat="41.067033" lon="-1.386523">
        <ele>794.008</ele>
        <time>1999-11-30T00:00:00Z</time>
      </trkpt>
      <trkpt lat="41.066995" lon="-1.386538">
        <ele>794.040</ele>
        <time>1999-11-30T00:00:00Z</time>
      </trkpt>
      <trkpt lat="41.066837" lon="-1.386451">
        <ele>791.074</ele>
        <time>1999-11-30T00:00:00Z</time>
      </trkpt>
      <trkpt lat="41.06682" lon="-1.386585">
        <ele>792.045</ele>
        <time>1999-11-30T00:00:00Z</time>
      </trkpt>
      <trkpt lat="41.066699" lon="-1.386848">
        <ele>793.099</ele>
        <time>1999-11-30T00:00:00Z</time>
      </trkpt>
      <trkpt lat="41.066641" lon="-1.386919">
        <ele>794.064</ele>
        <time>1999-11-30T00:00:00Z</time>
      </trkpt>
      <trkpt lat="41.066579" lon="-1.3866">
        <ele>790.093</ele>
        <time>1999-11-30T00:00:00Z</time>
      </trkpt>
      <trkpt lat="41.06646" lon="-1.386466">
        <ele>787.054</ele>
        <time>1999-11-30T00:00:00Z</time>
      </trkpt>
      <trkpt lat="41.066203" lon="-1.386668">
        <ele>787.042</ele>
        <time>1999-11-30T00:00:00Z</time>
      </trkpt>
      <trkpt lat="41.06597" lon="-1.386885">
        <ele>786.016</ele>
        <time>1999-11-30T00:00:00Z</time>
      </trkpt>
      <trkpt lat="41.065739" lon="-1.387167">
        <ele>797.076</ele>
        <time>1999-11-30T00:00:00Z</time>
      </trkpt>
      <trkpt lat="41.065698" lon="-1.38712">
        <ele>796.313</ele>
        <time>1999-11-30T00:00:00Z</time>
      </trkpt>
      <trkpt lat="41.065803" lon="-1.386768">
        <ele>782.008</ele>
        <time>1999-11-30T00:00:00Z</time>
      </trkpt>
      <trkpt lat="41.065779" lon="-1.386667">
        <ele>793.672</ele>
        <time>1999-11-30T00:00:00Z</time>
      </trkpt>
      <trkpt lat="41.065636" lon="-1.386535">
        <ele>778.086</ele>
        <time>1999-11-30T00:00:00Z</time>
      </trkpt>
      <trkpt lat="41.065286" lon="-1.386234">
        <ele>777.097</ele>
        <time>1999-11-30T00:00:00Z</time>
      </trkpt>
      <trkpt lat="41.064736" lon="-1.385868">
        <ele>776.091</ele>
        <time>1999-11-30T00:00:00Z</time>
      </trkpt>
      <trkpt lat="41.064769" lon="-1.385301">
        <ele>775.046</ele>
        <time>1999-11-30T00:00:00Z</time>
      </trkpt>
      <trkpt lat="41.064765" lon="-1.384826">
        <ele>774.015</ele>
        <time>1999-11-30T00:00:00Z</time>
      </trkpt>
      <trkpt lat="41.064571" lon="-1.384759">
        <ele>774.076</ele>
        <time>1999-11-30T00:00:00Z</time>
      </trkpt>
      <trkpt lat="41.064256" lon="-1.38471">
        <ele>774.054</ele>
        <time>1999-11-30T00:00:00Z</time>
      </trkpt>
      <trkpt lat="41.063901" lon="-1.384784">
        <ele>776.082</ele>
        <time>1999-11-30T00:00:00Z</time>
      </trkpt>
      <trkpt lat="41.063536" lon="-1.384904">
        <ele>776.043</ele>
        <time>1999-11-30T00:00:00Z</time>
      </trkpt>
      <trkpt lat="41.063239" lon="-1.384969">
        <ele>777.017</ele>
        <time>1999-11-30T00:00:00Z</time>
      </trkpt>
      <trkpt lat="41.063019" lon="-1.384918">
        <ele>777.008</ele>
        <time>1999-11-30T00:00:00Z</time>
      </trkpt>
      <trkpt lat="41.062503" lon="-1.384901">
        <ele>779.089</ele>
        <time>1999-11-30T00:00:00Z</time>
      </trkpt>
      <trkpt lat="41.062236" lon="-1.384935">
        <ele>780.023</ele>
        <time>1999-11-30T00:00:00Z</time>
      </trkpt>
      <trkpt lat="41.061803" lon="-1.384962">
        <ele>780.054</ele>
        <time>1999-11-30T00:00:00Z</time>
      </trkpt>
      <trkpt lat="41.061318" lon="-1.384993">
        <ele>780.098</ele>
        <time>1999-11-30T00:00:00Z</time>
      </trkpt>
      <trkpt lat="41.061033" lon="-1.385053">
        <ele>780.093</ele>
        <time>1999-11-30T00:00:00Z</time>
      </trkpt>
      <trkpt lat="41.060707" lon="-1.385198">
        <ele>782.082</ele>
        <time>1999-11-30T00:00:00Z</time>
      </trkpt>
      <trkpt lat="41.06041" lon="-1.385367">
        <ele>784.063</ele>
        <time>1999-11-30T00:00:00Z</time>
      </trkpt>
      <trkpt lat="41.060221" lon="-1.38549">
        <ele>785.011</ele>
        <time>1999-11-30T00:00:00Z</time>
      </trkpt>
      <trkpt lat="41.06008" lon="-1.385503">
        <ele>785.031</ele>
        <time>1999-11-30T00:00:00Z</time>
      </trkpt>
      <trkpt lat="41.059686" lon="-1.385435">
        <ele>784.061</ele>
        <time>1999-11-30T00:00:00Z</time>
      </trkpt>
      <trkpt lat="41.059353" lon="-1.385301">
        <ele>785.007</ele>
        <time>1999-11-30T00:00:00Z</time>
      </trkpt>
      <trkpt lat="41.059003" lon="-1.385134">
        <ele>785.008</ele>
        <time>1999-11-30T00:00:00Z</time>
      </trkpt>
      <trkpt lat="41.058653" lon="-1.385068">
        <ele>783.034</ele>
        <time>1999-11-30T00:00:00Z</time>
      </trkpt>
      <trkpt lat="41.058353" lon="-1.384918">
        <ele>781.028</ele>
        <time>1999-11-30T00:00:00Z</time>
      </trkpt>
      <trkpt lat="41.057969" lon="-1.384718">
        <ele>781.089</ele>
        <time>1999-11-30T00:00:00Z</time>
      </trkpt>
      <trkpt lat="41.057619" lon="-1.384468">
        <ele>783.013</ele>
        <time>1999-11-30T00:00:00Z</time>
      </trkpt>
      <trkpt lat="41.057453" lon="-1.384252">
        <ele>785.018</ele>
        <time>1999-11-30T00:00:00Z</time>
      </trkpt>
      <trkpt lat="41.057286" lon="-1.383985">
        <ele>786.027</ele>
        <time>1999-11-30T00:00:00Z</time>
      </trkpt>
      <trkpt lat="41.057136" lon="-1.383868">
        <ele>786.018</ele>
        <time>1999-11-30T00:00:00Z</time>
      </trkpt>
      <trkpt lat="41.056949" lon="-1.383738">
        <ele>786.086</ele>
        <time>1999-11-30T00:00:00Z</time>
      </trkpt>
      <trkpt lat="41.056751" lon="-1.383421">
        <ele>785.064</ele>
        <time>1999-11-30T00:00:00Z</time>
      </trkpt>
      <trkpt lat="41.056569" lon="-1.383201">
        <ele>783.006</ele>
        <time>1999-11-30T00:00:00Z</time>
      </trkpt>
      <trkpt lat="41.056286" lon="-1.383034">
        <ele>784.016</ele>
        <time>1999-11-30T00:00:00Z</time>
      </trkpt>
      <trkpt lat="41.056122" lon="-1.382814">
        <ele>786.008</ele>
        <time>1999-11-30T00:00:00Z</time>
      </trkpt>
      <trkpt lat="41.055935" lon="-1.382552">
        <ele>786.087</ele>
        <time>1999-11-30T00:00:00Z</time>
      </trkpt>
      <trkpt lat="41.055653" lon="-1.382368">
        <ele>787.061</ele>
        <time>1999-11-30T00:00:00Z</time>
      </trkpt>
      <trkpt lat="41.055103" lon="-1.382001">
        <ele>785.072</ele>
        <time>1999-11-30T00:00:00Z</time>
      </trkpt>
      <trkpt lat="41.054769" lon="-1.381767">
        <ele>785.076</ele>
        <time>1999-11-30T00:00:00Z</time>
      </trkpt>
      <trkpt lat="41.054525" lon="-1.381612">
        <ele>785.051</ele>
        <time>1999-11-30T00:00:00Z</time>
      </trkpt>
      <trkpt lat="41.054138" lon="-1.38148">
        <ele>786.090</ele>
        <time>1999-11-30T00:00:00Z</time>
      </trkpt>
      <trkpt lat="41.053983" lon="-1.381422">
        <ele>787.071</ele>
        <time>1999-11-30T00:00:00Z</time>
      </trkpt>
      <trkpt lat="41.053803" lon="-1.381251">
        <ele>787.019</ele>
        <time>1999-11-30T00:00:00Z</time>
      </trkpt>
      <trkpt lat="41.053569" lon="-1.380835">
        <ele>787.085</ele>
        <time>1999-11-30T00:00:00Z</time>
      </trkpt>
      <trkpt lat="41.053419" lon="-1.380635">
        <ele>788.089</ele>
        <time>1999-11-30T00:00:00Z</time>
      </trkpt>
      <trkpt lat="41.053186" lon="-1.380451">
        <ele>788.017</ele>
        <time>1999-11-30T00:00:00Z</time>
      </trkpt>
      <trkpt lat="41.052786" lon="-1.380201">
        <ele>788.008</ele>
        <time>1999-11-30T00:00:00Z</time>
      </trkpt>
      <trkpt lat="41.052403" lon="-1.379885">
        <ele>789.019</ele>
        <time>1999-11-30T00:00:00Z</time>
      </trkpt>
      <trkpt lat="41.052153" lon="-1.379601">
        <ele>787.023</ele>
        <time>1999-11-30T00:00:00Z</time>
      </trkpt>
      <trkpt lat="41.051986" lon="-1.3794">
        <ele>786.044</ele>
        <time>1999-11-30T00:00:00Z</time>
      </trkpt>
      <trkpt lat="41.051803" lon="-1.379317">
        <ele>787.018</ele>
        <time>1999-11-30T00:00:00Z</time>
      </trkpt>
      <trkpt lat="41.051536" lon="-1.379217">
        <ele>788.043</ele>
        <time>1999-11-30T00:00:00Z</time>
      </trkpt>
      <trkpt lat="41.051336" lon="-1.379068">
        <ele>789.022</ele>
        <time>1999-11-30T00:00:00Z</time>
      </trkpt>
      <trkpt lat="41.051186" lon="-1.378851">
        <ele>789.033</ele>
        <time>1999-11-30T00:00:00Z</time>
      </trkpt>
      <trkpt lat="41.05107" lon="-1.378551">
        <ele>789.081</ele>
        <time>1999-11-30T00:00:00Z</time>
      </trkpt>
      <trkpt lat="41.05102" lon="-1.378401">
        <ele>790.046</ele>
        <time>1999-11-30T00:00:00Z</time>
      </trkpt>
      <trkpt lat="41.0509" lon="-1.37835">
        <ele>790.088</ele>
        <time>1999-11-30T00:00:00Z</time>
      </trkpt>
      <trkpt lat="41.050643" lon="-1.378433">
        <ele>792.016</ele>
        <time>1999-11-30T00:00:00Z</time>
      </trkpt>
      <trkpt lat="41.050286" lon="-1.378568">
        <ele>794.008</ele>
        <time>1999-11-30T00:00:00Z</time>
      </trkpt>
      <trkpt lat="41.049986" lon="-1.378618">
        <ele>794.075</ele>
        <time>1999-11-30T00:00:00Z</time>
      </trkpt>
      <trkpt lat="41.049735" lon="-1.378657">
        <ele>795.029</ele>
        <time>1999-11-30T00:00:00Z</time>
      </trkpt>
      <trkpt lat="41.049437" lon="-1.378668">
        <ele>795.080</ele>
        <time>1999-11-30T00:00:00Z</time>
      </trkpt>
      <trkpt lat="41.04922" lon="-1.378718">
        <ele>796.094</ele>
        <time>1999-11-30T00:00:00Z</time>
      </trkpt>
      <trkpt lat="41.04892" lon="-1.378801">
        <ele>796.099</ele>
        <time>1999-11-30T00:00:00Z</time>
      </trkpt>
      <trkpt lat="41.048702" lon="-1.378835">
        <ele>797.028</ele>
        <time>1999-11-30T00:00:00Z</time>
      </trkpt>
      <trkpt lat="41.048569" lon="-1.378818">
        <ele>797.019</ele>
        <time>1999-11-30T00:00:00Z</time>
      </trkpt>
      <trkpt lat="41.048453" lon="-1.378767">
        <ele>798.057</ele>
        <time>1999-11-30T00:00:00Z</time>
      </trkpt>
      <trkpt lat="41.048386" lon="-1.378751">
        <ele>798.059</ele>
        <time>1999-11-30T00:00:00Z</time>
      </trkpt>
      <trkpt lat="41.048386" lon="-1.378735">
        <ele>798.003</ele>
        <time>1999-11-30T00:00:00Z</time>
      </trkpt>
      <trkpt lat="41.048232" lon="-1.37864">
        <ele>798.023</ele>
        <time>1999-11-30T00:00:00Z</time>
      </trkpt>
      <trkpt lat="41.048103" lon="-1.378659">
        <ele>799.008</ele>
        <time>1999-11-30T00:00:00Z</time>
      </trkpt>
      <trkpt lat="41.04775" lon="-1.378929">
        <ele>798.046</ele>
        <time>1999-11-30T00:00:00Z</time>
      </trkpt>
      <trkpt lat="41.047447" lon="-1.378859">
        <ele>799.090</ele>
        <time>1999-11-30T00:00:00Z</time>
      </trkpt>
      <trkpt lat="41.047268" lon="-1.378915">
        <ele>799.031</ele>
        <time>1999-11-30T00:00:00Z</time>
      </trkpt>
      <trkpt lat="41.047112" lon="-1.37897">
        <ele>799.025</ele>
        <time>1999-11-30T00:00:00Z</time>
      </trkpt>
      <trkpt lat="41.04699" lon="-1.378944">
        <ele>799.090</ele>
        <time>1999-11-30T00:00:00Z</time>
      </trkpt>
      <trkpt lat="41.046919" lon="-1.378768">
        <ele>802.049</ele>
        <time>1999-11-30T00:00:00Z</time>
      </trkpt>
      <trkpt lat="41.046942" lon="-1.37846">
        <ele>806.050</ele>
        <time>1999-11-30T00:00:00Z</time>
      </trkpt>
      <trkpt lat="41.047053" lon="-1.378135">
        <ele>808.048</ele>
        <time>1999-11-30T00:00:00Z</time>
      </trkpt>
      <trkpt lat="41.047153" lon="-1.377901">
        <ele>807.023</ele>
        <time>1999-11-30T00:00:00Z</time>
      </trkpt>
      <trkpt lat="41.047086" lon="-1.377818">
        <ele>808.083</ele>
        <time>1999-11-30T00:00:00Z</time>
      </trkpt>
      <trkpt lat="41.04681" lon="-1.377807">
        <ele>810.011</ele>
        <time>1999-11-30T00:00:00Z</time>
      </trkpt>
      <trkpt lat="41.046681" lon="-1.377838">
        <ele>810.008</ele>
        <time>1999-11-30T00:00:00Z</time>
      </trkpt>
      <trkpt lat="41.046512" lon="-1.377969">
        <ele>812.043</ele>
        <time>1999-11-30T00:00:00Z</time>
      </trkpt>
      <trkpt lat="41.046428" lon="-1.37808">
        <ele>812.017</ele>
        <time>1999-11-30T00:00:00Z</time>
      </trkpt>
      <trkpt lat="41.04637" lon="-1.378251">
        <ele>814.058</ele>
        <time>1999-11-30T00:00:00Z</time>
      </trkpt>
      <trkpt lat="41.046303" lon="-1.378468">
        <ele>814.082</ele>
        <time>1999-11-30T00:00:00Z</time>
      </trkpt>
      <trkpt lat="41.046222" lon="-1.378591">
        <ele>812.037</ele>
        <time>1999-11-30T00:00:00Z</time>
      </trkpt>
      <trkpt lat="41.04597" lon="-1.378755">
        <ele>810.036</ele>
        <time>1999-11-30T00:00:00Z</time>
      </trkpt>
      <trkpt lat="41.045769" lon="-1.378951">
        <ele>810.017</ele>
        <time>1999-11-30T00:00:00Z</time>
      </trkpt>
      <trkpt lat="41.045622" lon="-1.37903">
        <ele>810.045</ele>
        <time>1999-11-30T00:00:00Z</time>
      </trkpt>
      <trkpt lat="41.045576" lon="-1.378959">
        <ele>810.049</ele>
        <time>1999-11-30T00:00:00Z</time>
      </trkpt>
      <trkpt lat="41.045706" lon="-1.378508">
        <ele>810.002</ele>
        <time>1999-11-30T00:00:00Z</time>
      </trkpt>
      <trkpt lat="41.045914" lon="-1.377818">
        <ele>809.022</ele>
        <time>1999-11-30T00:00:00Z</time>
      </trkpt>
      <trkpt lat="41.045936" lon="-1.377385">
        <ele>806.008</ele>
        <time>1999-11-30T00:00:00Z</time>
      </trkpt>
      <trkpt lat="41.04597" lon="-1.376918">
        <ele>801.035</ele>
        <time>1999-11-30T00:00:00Z</time>
      </trkpt>
      <trkpt lat="41.045987" lon="-1.376468">
        <ele>799.079</ele>
        <time>1999-11-30T00:00:00Z</time>
      </trkpt>
      <trkpt lat="41.04607" lon="-1.376018">
        <ele>794.080</ele>
        <time>1999-11-30T00:00:00Z</time>
      </trkpt>
      <trkpt lat="41.046236" lon="-1.375468">
        <ele>784.074</ele>
        <time>1999-11-30T00:00:00Z</time>
      </trkpt>
      <trkpt lat="41.046344" lon="-1.37505">
        <ele>784.069</ele>
        <time>1999-11-30T00:00:00Z</time>
      </trkpt>
      <trkpt lat="41.046372" lon="-1.374944">
        <ele>784.098</ele>
        <time>1999-11-30T00:00:00Z</time>
      </trkpt>
      <trkpt lat="41.046316" lon="-1.374862">
        <ele>784.089</ele>
        <time>1999-11-30T00:00:00Z</time>
      </trkpt>
      <trkpt lat="41.046176" lon="-1.374809">
        <ele>784.057</ele>
        <time>1999-11-30T00:00:00Z</time>
      </trkpt>
      <trkpt lat="41.045789" lon="-1.374808">
        <ele>784.094</ele>
        <time>1999-11-30T00:00:00Z</time>
      </trkpt>
      <trkpt lat="41.045488" lon="-1.37471">
        <ele>785.057</ele>
        <time>1999-11-30T00:00:00Z</time>
      </trkpt>
      <trkpt lat="41.045253" lon="-1.374601">
        <ele>785.022</ele>
        <time>1999-11-30T00:00:00Z</time>
      </trkpt>
      <trkpt lat="41.0451" lon="-1.374478">
        <ele>785.008</ele>
        <time>1999-11-30T00:00:00Z</time>
      </trkpt>
      <trkpt lat="41.044951" lon="-1.374498">
        <ele>786.050</ele>
        <time>1999-11-30T00:00:00Z</time>
      </trkpt>
      <trkpt lat="41.044719" lon="-1.374516">
        <ele>787.064</ele>
        <time>1999-11-30T00:00:00Z</time>
      </trkpt>
      <trkpt lat="41.04457" lon="-1.374484">
        <ele>788.085</ele>
        <time>1999-11-30T00:00:00Z</time>
      </trkpt>
      <trkpt lat="41.044407" lon="-1.374377">
        <ele>787.069</ele>
        <time>1999-11-30T00:00:00Z</time>
      </trkpt>
      <trkpt lat="41.044002" lon="-1.373922">
        <ele>787.054</ele>
        <time>1999-11-30T00:00:00Z</time>
      </trkpt>
      <trkpt lat="41.043824" lon="-1.373766">
        <ele>789.063</ele>
        <time>1999-11-30T00:00:00Z</time>
      </trkpt>
      <trkpt lat="41.043241" lon="-1.373493">
        <ele>790.054</ele>
        <time>1999-11-30T00:00:00Z</time>
      </trkpt>
      <trkpt lat="41.042871" lon="-1.373327">
        <ele>789.072</ele>
        <time>1999-11-30T00:00:00Z</time>
      </trkpt>
      <trkpt lat="41.042674" lon="-1.373293">
        <ele>789.056</ele>
        <time>1999-11-30T00:00:00Z</time>
      </trkpt>
      <trkpt lat="41.042471" lon="-1.373275">
        <ele>790.059</ele>
        <time>1999-11-30T00:00:00Z</time>
      </trkpt>
      <trkpt lat="41.042342" lon="-1.373193">
        <ele>790.014</ele>
        <time>1999-11-30T00:00:00Z</time>
      </trkpt>
      <trkpt lat="41.041969" lon="-1.3727">
        <ele>788.008</ele>
        <time>1999-11-30T00:00:00Z</time>
      </trkpt>
      <trkpt lat="41.041865" lon="-1.372509">
        <ele>788.056</ele>
        <time>1999-11-30T00:00:00Z</time>
      </trkpt>
      <trkpt lat="41.041761" lon="-1.372183">
        <ele>787.050</ele>
        <time>1999-11-30T00:00:00Z</time>
      </trkpt>
      <trkpt lat="41.041688" lon="-1.372009">
        <ele>788.021</ele>
        <time>1999-11-30T00:00:00Z</time>
      </trkpt>
      <trkpt lat="41.041417" lon="-1.371698">
        <ele>788.035</ele>
        <time>1999-11-30T00:00:00Z</time>
      </trkpt>
      <trkpt lat="41.041187" lon="-1.371409">
        <ele>789.030</ele>
        <time>1999-11-30T00:00:00Z</time>
      </trkpt>
      <trkpt lat="41.040736" lon="-1.370918">
        <ele>789.099</ele>
        <time>1999-11-30T00:00:00Z</time>
      </trkpt>
      <trkpt lat="41.040509" lon="-1.370832">
        <ele>789.070</ele>
        <time>1999-11-30T00:00:00Z</time>
      </trkpt>
      <trkpt lat="41.040236" lon="-1.370768">
        <ele>789.078</ele>
        <time>1999-11-30T00:00:00Z</time>
      </trkpt>
      <trkpt lat="41.04002" lon="-1.370618">
        <ele>789.018</ele>
        <time>1999-11-30T00:00:00Z</time>
      </trkpt>
      <trkpt lat="41.039803" lon="-1.370268">
        <ele>788.098</ele>
        <time>1999-11-30T00:00:00Z</time>
      </trkpt>
      <trkpt lat="41.039637" lon="-1.369935">
        <ele>789.017</ele>
        <time>1999-11-30T00:00:00Z</time>
      </trkpt>
      <trkpt lat="41.039603" lon="-1.369518">
        <ele>790.008</ele>
        <time>1999-11-30T00:00:00Z</time>
      </trkpt>
      <trkpt lat="41.039553" lon="-1.369218">
        <ele>789.032</ele>
        <time>1999-11-30T00:00:00Z</time>
      </trkpt>
      <trkpt lat="41.03947" lon="-1.368968">
        <ele>789.036</ele>
        <time>1999-11-30T00:00:00Z</time>
      </trkpt>
      <trkpt lat="41.03927" lon="-1.368635">
        <ele>790.047</ele>
        <time>1999-11-30T00:00:00Z</time>
      </trkpt>
      <trkpt lat="41.03897" lon="-1.368351">
        <ele>790.081</ele>
        <time>1999-11-30T00:00:00Z</time>
      </trkpt>
      <trkpt lat="41.038736" lon="-1.368178">
        <ele>790.036</ele>
        <time>1999-11-30T00:00:00Z</time>
      </trkpt>
      <trkpt lat="41.038571" lon="-1.368125">
        <ele>789.025</ele>
        <time>1999-11-30T00:00:00Z</time>
      </trkpt>
      <trkpt lat="41.038374" lon="-1.368158">
        <ele>790.026</ele>
        <time>1999-11-30T00:00:00Z</time>
      </trkpt>
      <trkpt lat="41.038203" lon="-1.368151">
        <ele>790.014</ele>
        <time>1999-11-30T00:00:00Z</time>
      </trkpt>
      <trkpt lat="41.037886" lon="-1.367968">
        <ele>790.066</ele>
        <time>1999-11-30T00:00:00Z</time>
      </trkpt>
      <trkpt lat="41.037575" lon="-1.367607">
        <ele>791.029</ele>
        <time>1999-11-30T00:00:00Z</time>
      </trkpt>
      <trkpt lat="41.037404" lon="-1.367234">
        <ele>790.021</ele>
        <time>1999-11-30T00:00:00Z</time>
      </trkpt>
      <trkpt lat="41.037237" lon="-1.366802">
        <ele>790.008</ele>
        <time>1999-11-30T00:00:00Z</time>
      </trkpt>
      <trkpt lat="41.037123" lon="-1.366613">
        <ele>790.057</ele>
        <time>1999-11-30T00:00:00Z</time>
      </trkpt>
      <trkpt lat="41.037161" lon="-1.366346">
        <ele>789.061</ele>
        <time>1999-11-30T00:00:00Z</time>
      </trkpt>
      <trkpt lat="41.037314" lon="-1.365957">
        <ele>789.052</ele>
        <time>1999-11-30T00:00:00Z</time>
      </trkpt>
      <trkpt lat="41.037435" lon="-1.365543">
        <ele>789.086</ele>
        <time>1999-11-30T00:00:00Z</time>
      </trkpt>
      <trkpt lat="41.037469" lon="-1.365331">
        <ele>790.061</ele>
        <time>1999-11-30T00:00:00Z</time>
      </trkpt>
      <trkpt lat="41.037434" lon="-1.365102">
        <ele>790.040</ele>
        <time>1999-11-30T00:00:00Z</time>
      </trkpt>
      <trkpt lat="41.03732" lon="-1.364918">
        <ele>790.011</ele>
        <time>1999-11-30T00:00:00Z</time>
      </trkpt>
      <trkpt lat="41.037153" lon="-1.364785">
        <ele>790.099</ele>
        <time>1999-11-30T00:00:00Z</time>
      </trkpt>
      <trkpt lat="41.036737" lon="-1.364535">
        <ele>791.035</ele>
        <time>1999-11-30T00:00:00Z</time>
      </trkpt>
      <trkpt lat="41.036287" lon="-1.364085">
        <ele>792.086</ele>
        <time>1999-11-30T00:00:00Z</time>
      </trkpt>
      <trkpt lat="41.036003" lon="-1.363796">
        <ele>792.014</ele>
        <time>1999-11-30T00:00:00Z</time>
      </trkpt>
      <trkpt lat="41.036658" lon="-1.363239">
        <ele>791.008</ele>
        <time>1999-11-30T00:00:00Z</time>
      </trkpt>
      <trkpt lat="41.03692" lon="-1.362949">
        <ele>791.034</ele>
        <time>1999-11-30T00:00:00Z</time>
      </trkpt>
      <trkpt lat="41.036982" lon="-1.362821">
        <ele>791.068</ele>
        <time>1999-11-30T00:00:00Z</time>
      </trkpt>
      <trkpt lat="41.037216" lon="-1.362572">
        <ele>791.089</ele>
        <time>1999-11-30T00:00:00Z</time>
      </trkpt>
      <trkpt lat="41.037446" lon="-1.362377">
        <ele>791.063</ele>
        <time>1999-11-30T00:00:00Z</time>
      </trkpt>
      <trkpt lat="41.037773" lon="-1.3621">
        <ele>791.028</ele>
        <time>1999-11-30T00:00:00Z</time>
      </trkpt>
      <trkpt lat="41.037937" lon="-1.361889">
        <ele>791.077</ele>
        <time>1999-11-30T00:00:00Z</time>
      </trkpt>
      <trkpt lat="41.038094" lon="-1.361563">
        <ele>791.038</ele>
        <time>1999-11-30T00:00:00Z</time>
      </trkpt>
      <trkpt lat="41.038103" lon="-1.361368">
        <ele>791.036</ele>
        <time>1999-11-30T00:00:00Z</time>
      </trkpt>
      <trkpt lat="41.038086" lon="-1.361118">
        <ele>792.069</ele>
        <time>1999-11-30T00:00:00Z</time>
      </trkpt>
      <trkpt lat="41.038336" lon="-1.360701">
        <ele>792.004</ele>
        <time>1999-11-30T00:00:00Z</time>
      </trkpt>
      <trkpt lat="41.038803" lon="-1.359935">
        <ele>794.024</ele>
        <time>1999-11-30T00:00:00Z</time>
      </trkpt>
      <trkpt lat="41.038986" lon="-1.359518">
        <ele>795.008</ele>
        <time>1999-11-30T00:00:00Z</time>
      </trkpt>
      <trkpt lat="41.039353" lon="-1.358635">
        <ele>796.027</ele>
        <time>1999-11-30T00:00:00Z</time>
      </trkpt>
      <trkpt lat="41.039816" lon="-1.357768">
        <ele>798.041</ele>
        <time>1999-11-30T00:00:00Z</time>
      </trkpt>
      <trkpt lat="41.040184" lon="-1.357217">
        <ele>799.042</ele>
        <time>1999-11-30T00:00:00Z</time>
      </trkpt>
      <trkpt lat="41.039864" lon="-1.356713">
        <ele>798.036</ele>
        <time>1999-11-30T00:00:00Z</time>
      </trkpt>
      <trkpt lat="41.039132" lon="-1.356018">
        <ele>797.091</ele>
        <time>1999-11-30T00:00:00Z</time>
      </trkpt>
      <trkpt lat="41.038941" lon="-1.355912">
        <ele>796.030</ele>
        <time>1999-11-30T00:00:00Z</time>
      </trkpt>
      <trkpt lat="41.03832" lon="-1.355368">
        <ele>796.061</ele>
        <time>1999-11-30T00:00:00Z</time>
      </trkpt>
      <trkpt lat="41.03787" lon="-1.354734">
        <ele>799.089</ele>
        <time>1999-11-30T00:00:00Z</time>
      </trkpt>
      <trkpt lat="41.037648" lon="-1.354432">
        <ele>800.089</ele>
        <time>1999-11-30T00:00:00Z</time>
      </trkpt>
      <trkpt lat="41.036986" lon="-1.353968">
        <ele>798.006</ele>
        <time>1999-11-30T00:00:00Z</time>
      </trkpt>
      <trkpt lat="41.036686" lon="-1.353568">
        <ele>799.026</ele>
        <time>1999-11-30T00:00:00Z</time>
      </trkpt>
      <trkpt lat="41.036453" lon="-1.353218">
        <ele>799.008</ele>
        <time>1999-11-30T00:00:00Z</time>
      </trkpt>
      <trkpt lat="41.036286" lon="-1.353101">
        <ele>799.089</ele>
        <time>1999-11-30T00:00:00Z</time>
      </trkpt>
      <trkpt lat="41.036089" lon="-1.353065">
        <ele>799.023</ele>
        <time>1999-11-30T00:00:00Z</time>
      </trkpt>
      <trkpt lat="41.03597" lon="-1.352968">
        <ele>800.094</ele>
        <time>1999-11-30T00:00:00Z</time>
      </trkpt>
      <trkpt lat="41.035886" lon="-1.352918">
        <ele>800.038</ele>
        <time>1999-11-30T00:00:00Z</time>
      </trkpt>
      <trkpt lat="41.035753" lon="-1.352823">
        <ele>800.073</ele>
        <time>1999-11-30T00:00:00Z</time>
      </trkpt>
      <trkpt lat="41.035506" lon="-1.352653">
        <ele>800.072</ele>
        <time>1999-11-30T00:00:00Z</time>
      </trkpt>
      <trkpt lat="41.035386" lon="-1.352602">
        <ele>800.073</ele>
        <time>1999-11-30T00:00:00Z</time>
      </trkpt>
      <trkpt lat="41.03526" lon="-1.352678">
        <ele>799.081</ele>
        <time>1999-11-30T00:00:00Z</time>
      </trkpt>
      <trkpt lat="41.03505" lon="-1.352923">
        <ele>799.061</ele>
        <time>1999-11-30T00:00:00Z</time>
      </trkpt>
      <trkpt lat="41.034886" lon="-1.353064">
        <ele>799.021</ele>
        <time>1999-11-30T00:00:00Z</time>
      </trkpt>
      <trkpt lat="41.034739" lon="-1.35306">
        <ele>799.013</ele>
        <time>1999-11-30T00:00:00Z</time>
      </trkpt>
      <trkpt lat="41.034467" lon="-1.352946">
        <ele>799.008</ele>
        <time>1999-11-30T00:00:00Z</time>
      </trkpt>
      <trkpt lat="41.034338" lon="-1.35291">
        <ele>799.047</ele>
        <time>1999-11-30T00:00:00Z</time>
      </trkpt>
      <trkpt lat="41.034235" lon="-1.352964">
        <ele>800.081</ele>
        <time>1999-11-30T00:00:00Z</time>
      </trkpt>
      <trkpt lat="41.03402" lon="-1.353235">
        <ele>799.072</ele>
        <time>1999-11-30T00:00:00Z</time>
      </trkpt>
      <trkpt lat="41.033803" lon="-1.353484">
        <ele>799.046</ele>
        <time>1999-11-30T00:00:00Z</time>
      </trkpt>
      <trkpt lat="41.033386" lon="-1.35368">
        <ele>800.061</ele>
        <time>1999-11-30T00:00:00Z</time>
      </trkpt>
      <trkpt lat="41.03332" lon="-1.353502">
        <ele>800.040</ele>
        <time>1999-11-30T00:00:00Z</time>
      </trkpt>
      <trkpt lat="41.033286" lon="-1.353051">
        <ele>800.051</ele>
        <time>1999-11-30T00:00:00Z</time>
      </trkpt>
      <trkpt lat="41.03322" lon="-1.352767">
        <ele>800.099</ele>
        <time>1999-11-30T00:00:00Z</time>
      </trkpt>
      <trkpt lat="41.03307" lon="-1.352401">
        <ele>799.038</ele>
        <time>1999-11-30T00:00:00Z</time>
      </trkpt>
      <trkpt lat="41.03277" lon="-1.352034">
        <ele>799.070</ele>
        <time>1999-11-30T00:00:00Z</time>
      </trkpt>
      <trkpt lat="41.032612" lon="-1.351811">
        <ele>799.017</ele>
        <time>1999-11-30T00:00:00Z</time>
      </trkpt>
      <trkpt lat="41.03249" lon="-1.351605">
        <ele>798.008</ele>
        <time>1999-11-30T00:00:00Z</time>
      </trkpt>
      <trkpt lat="41.031932" lon="-1.351355">
        <ele>798.054</ele>
        <time>1999-11-30T00:00:00Z</time>
      </trkpt>
      <trkpt lat="41.031748" lon="-1.351326">
        <ele>798.048</ele>
        <time>1999-11-30T00:00:00Z</time>
      </trkpt>
      <trkpt lat="41.031503" lon="-1.351135">
        <ele>798.019</ele>
        <time>1999-11-30T00:00:00Z</time>
      </trkpt>
      <trkpt lat="41.031054" lon="-1.350959">
        <ele>798.033</ele>
        <time>1999-11-30T00:00:00Z</time>
      </trkpt>
      <trkpt lat="41.030753" lon="-1.350818">
        <ele>798.088</ele>
        <time>1999-11-30T00:00:00Z</time>
      </trkpt>
      <trkpt lat="41.030269" lon="-1.350768">
        <ele>799.067</ele>
        <time>1999-11-30T00:00:00Z</time>
      </trkpt>
      <trkpt lat="41.030053" lon="-1.350685">
        <ele>799.078</ele>
        <time>1999-11-30T00:00:00Z</time>
      </trkpt>
      <trkpt lat="41.02982" lon="-1.350468">
        <ele>800.036</ele>
        <time>1999-11-30T00:00:00Z</time>
      </trkpt>
      <trkpt lat="41.029536" lon="-1.350152">
        <ele>800.026</ele>
        <time>1999-11-30T00:00:00Z</time>
      </trkpt>
      <trkpt lat="41.02942" lon="-1.349968">
        <ele>800.047</ele>
        <time>1999-11-30T00:00:00Z</time>
      </trkpt>
      <trkpt lat="41.029286" lon="-1.349834">
        <ele>800.011</ele>
        <time>1999-11-30T00:00:00Z</time>
      </trkpt>
      <trkpt lat="41.028903" lon="-1.349651">
        <ele>800.008</ele>
        <time>1999-11-30T00:00:00Z</time>
      </trkpt>
      <trkpt lat="41.02827" lon="-1.349234">
        <ele>800.083</ele>
        <time>1999-11-30T00:00:00Z</time>
      </trkpt>
      <trkpt lat="41.027934" lon="-1.34907">
        <ele>800.097</ele>
        <time>1999-11-30T00:00:00Z</time>
      </trkpt>
      <trkpt lat="41.02777" lon="-1.348997">
        <ele>800.098</ele>
        <time>1999-11-30T00:00:00Z</time>
      </trkpt>
      <trkpt lat="41.027714" lon="-1.349034">
        <ele>800.042</ele>
        <time>1999-11-30T00:00:00Z</time>
      </trkpt>
      <trkpt lat="41.027643" lon="-1.349284">
        <ele>800.067</ele>
        <time>1999-11-30T00:00:00Z</time>
      </trkpt>
      <trkpt lat="41.027494" lon="-1.349646">
        <ele>800.056</ele>
        <time>1999-11-30T00:00:00Z</time>
      </trkpt>
      <trkpt lat="41.027378" lon="-1.349735">
        <ele>800.097</ele>
        <time>1999-11-30T00:00:00Z</time>
      </trkpt>
      <trkpt lat="41.027216" lon="-1.349742">
        <ele>800.045</ele>
        <time>1999-11-30T00:00:00Z</time>
      </trkpt>
      <trkpt lat="41.027103" lon="-1.349684">
        <ele>800.088</ele>
        <time>1999-11-30T00:00:00Z</time>
      </trkpt>
      <trkpt lat="41.026887" lon="-1.349468">
        <ele>800.024</ele>
        <time>1999-11-30T00:00:00Z</time>
      </trkpt>
      <trkpt lat="41.026686" lon="-1.349378">
        <ele>800.026</ele>
        <time>1999-11-30T00:00:00Z</time>
      </trkpt>
      <trkpt lat="41.026345" lon="-1.349213">
        <ele>800.008</ele>
        <time>1999-11-30T00:00:00Z</time>
      </trkpt>
      <trkpt lat="41.026163" lon="-1.349029">
        <ele>800.069</ele>
        <time>1999-11-30T00:00:00Z</time>
      </trkpt>
      <trkpt lat="41.02602" lon="-1.348818">
        <ele>801.053</ele>
        <time>1999-11-30T00:00:00Z</time>
      </trkpt>
      <trkpt lat="41.025788" lon="-1.348571">
        <ele>801.024</ele>
        <time>1999-11-30T00:00:00Z</time>
      </trkpt>
      <trkpt lat="41.025652" lon="-1.348448">
        <ele>801.058</ele>
        <time>1999-11-30T00:00:00Z</time>
      </trkpt>
      <trkpt lat="41.025528" lon="-1.348438">
        <ele>801.013</ele>
        <time>1999-11-30T00:00:00Z</time>
      </trkpt>
      <trkpt lat="41.025422" lon="-1.348453">
        <ele>801.012</ele>
        <time>1999-11-30T00:00:00Z</time>
      </trkpt>
      <trkpt lat="41.025178" lon="-1.348452">
        <ele>801.033</ele>
        <time>1999-11-30T00:00:00Z</time>
      </trkpt>
      <trkpt lat="41.025017" lon="-1.348394">
        <ele>802.051</ele>
        <time>1999-11-30T00:00:00Z</time>
      </trkpt>
      <trkpt lat="41.024875" lon="-1.348221">
        <ele>802.023</ele>
        <time>1999-11-30T00:00:00Z</time>
      </trkpt>
      <trkpt lat="41.024796" lon="-1.347983">
        <ele>802.083</ele>
        <time>1999-11-30T00:00:00Z</time>
      </trkpt>
      <trkpt lat="41.02462" lon="-1.347718">
        <ele>803.011</ele>
        <time>1999-11-30T00:00:00Z</time>
      </trkpt>
      <trkpt lat="41.024546" lon="-1.347633">
        <ele>803.008</ele>
        <time>1999-11-30T00:00:00Z</time>
      </trkpt>
      <trkpt lat="41.024368" lon="-1.347591">
        <ele>804.063</ele>
        <time>1999-11-30T00:00:00Z</time>
      </trkpt>
      <trkpt lat="41.024217" lon="-1.347597">
        <ele>805.097</ele>
        <time>1999-11-30T00:00:00Z</time>
      </trkpt>
      <trkpt lat="41.024114" lon="-1.347616">
        <ele>805.058</ele>
        <time>1999-11-30T00:00:00Z</time>
      </trkpt>
      <trkpt lat="41.024065" lon="-1.347658">
        <ele>805.082</ele>
        <time>1999-11-30T00:00:00Z</time>
      </trkpt>
      <trkpt lat="41.024019" lon="-1.347809">
        <ele>806.017</ele>
        <time>1999-11-30T00:00:00Z</time>
      </trkpt>
      <trkpt lat="41.023967" lon="-1.348079">
        <ele>807.086</ele>
        <time>1999-11-30T00:00:00Z</time>
      </trkpt>
      <trkpt lat="41.023863" lon="-1.348265">
        <ele>807.067</ele>
        <time>1999-11-30T00:00:00Z</time>
      </trkpt>
      <trkpt lat="41.023746" lon="-1.348462">
        <ele>808.015</ele>
        <time>1999-11-30T00:00:00Z</time>
      </trkpt>
      <trkpt lat="41.023622" lon="-1.348548">
        <ele>808.099</ele>
        <time>1999-11-30T00:00:00Z</time>
      </trkpt>
      <trkpt lat="41.023529" lon="-1.348607">
        <ele>809.007</ele>
        <time>1999-11-30T00:00:00Z</time>
      </trkpt>
      <trkpt lat="41.023337" lon="-1.348118">
        <ele>809.027</ele>
        <time>1999-11-30T00:00:00Z</time>
      </trkpt>
      <trkpt lat="41.023253" lon="-1.347751">
        <ele>809.008</ele>
        <time>1999-11-30T00:00:00Z</time>
      </trkpt>
      <trkpt lat="41.023187" lon="-1.347634">
        <ele>809.030</ele>
        <time>1999-11-30T00:00:00Z</time>
      </trkpt>
      <trkpt lat="41.02302" lon="-1.347452">
        <ele>809.084</ele>
        <time>1999-11-30T00:00:00Z</time>
      </trkpt>
      <trkpt lat="41.022853" lon="-1.347201">
        <ele>810.015</ele>
        <time>1999-11-30T00:00:00Z</time>
      </trkpt>
      <trkpt lat="41.022686" lon="-1.347051">
        <ele>809.079</ele>
        <time>1999-11-30T00:00:00Z</time>
      </trkpt>
      <trkpt lat="41.022483" lon="-1.347021">
        <ele>809.094</ele>
        <time>1999-11-30T00:00:00Z</time>
      </trkpt>
      <trkpt lat="41.022293" lon="-1.347044">
        <ele>810.033</ele>
        <time>1999-11-30T00:00:00Z</time>
      </trkpt>
      <trkpt lat="41.022202" lon="-1.34711">
        <ele>810.074</ele>
        <time>1999-11-30T00:00:00Z</time>
      </trkpt>
      <trkpt lat="41.022058" lon="-1.34715">
        <ele>810.062</ele>
        <time>1999-11-30T00:00:00Z</time>
      </trkpt>
      <trkpt lat="41.021946" lon="-1.347109">
        <ele>810.017</ele>
        <time>1999-11-30T00:00:00Z</time>
      </trkpt>
      <trkpt lat="41.021782" lon="-1.34702">
        <ele>810.087</ele>
        <time>1999-11-30T00:00:00Z</time>
      </trkpt>
      <trkpt lat="41.021653" lon="-1.346851">
        <ele>810.015</ele>
        <time>1999-11-30T00:00:00Z</time>
      </trkpt>
      <trkpt lat="41.021521" lon="-1.346706">
        <ele>810.008</ele>
        <time>1999-11-30T00:00:00Z</time>
      </trkpt>
      <trkpt lat="41.021253" lon="-1.346467">
        <ele>809.092</ele>
        <time>1999-11-30T00:00:00Z</time>
      </trkpt>
      <trkpt lat="41.021086" lon="-1.346184">
        <ele>809.046</ele>
        <time>1999-11-30T00:00:00Z</time>
      </trkpt>
      <trkpt lat="41.02097" lon="-1.345934">
        <ele>809.037</ele>
        <time>1999-11-30T00:00:00Z</time>
      </trkpt>
      <trkpt lat="41.020892" lon="-1.345647">
        <ele>809.081</ele>
        <time>1999-11-30T00:00:00Z</time>
      </trkpt>
      <trkpt lat="41.02082" lon="-1.345284">
        <ele>810.026</ele>
        <time>1999-11-30T00:00:00Z</time>
      </trkpt>
      <trkpt lat="41.020737" lon="-1.345101">
        <ele>810.085</ele>
        <time>1999-11-30T00:00:00Z</time>
      </trkpt>
      <trkpt lat="41.020565" lon="-1.344705">
        <ele>809.056</ele>
        <time>1999-11-30T00:00:00Z</time>
      </trkpt>
      <trkpt lat="41.020436" lon="-1.344418">
        <ele>809.034</ele>
        <time>1999-11-30T00:00:00Z</time>
      </trkpt>
      <trkpt lat="41.020164" lon="-1.343997">
        <ele>809.014</ele>
        <time>1999-11-30T00:00:00Z</time>
      </trkpt>
      <trkpt lat="41.020014" lon="-1.343779">
        <ele>809.054</ele>
        <time>1999-11-30T00:00:00Z</time>
      </trkpt>
      <trkpt lat="41.019583" lon="-1.343347">
        <ele>810.009</ele>
        <time>1999-11-30T00:00:00Z</time>
      </trkpt>
      <trkpt lat="41.01949" lon="-1.343203">
        <ele>810.008</ele>
        <time>1999-11-30T00:00:00Z</time>
      </trkpt>
      <trkpt lat="41.0195" lon="-1.343037">
        <ele>808.062</ele>
        <time>1999-11-30T00:00:00Z</time>
      </trkpt>
      <trkpt lat="41.019487" lon="-1.342884">
        <ele>808.016</ele>
        <time>1999-11-30T00:00:00Z</time>
      </trkpt>
      <trkpt lat="41.019453" lon="-1.342718">
        <ele>807.047</ele>
        <time>1999-11-30T00:00:00Z</time>
      </trkpt>
      <trkpt lat="41.019387" lon="-1.342634">
        <ele>807.071</ele>
        <time>1999-11-30T00:00:00Z</time>
      </trkpt>
      <trkpt lat="41.018937" lon="-1.342201">
        <ele>807.046</ele>
        <time>1999-11-30T00:00:00Z</time>
      </trkpt>
      <trkpt lat="41.018536" lon="-1.341751">
        <ele>808.055</ele>
        <time>1999-11-30T00:00:00Z</time>
      </trkpt>
      <trkpt lat="41.01812" lon="-1.341251">
        <ele>809.026</ele>
        <time>1999-11-30T00:00:00Z</time>
      </trkpt>
      <trkpt lat="41.017953" lon="-1.340968">
        <ele>809.084</ele>
        <time>1999-11-30T00:00:00Z</time>
      </trkpt>
      <trkpt lat="41.01747" lon="-1.340218">
        <ele>809.051</ele>
        <time>1999-11-30T00:00:00Z</time>
      </trkpt>
      <trkpt lat="41.017269" lon="-1.339935">
        <ele>809.001</ele>
        <time>1999-11-30T00:00:00Z</time>
      </trkpt>
      <trkpt lat="41.01687" lon="-1.339601">
        <ele>809.011</ele>
        <time>1999-11-30T00:00:00Z</time>
      </trkpt>
      <trkpt lat="41.016441" lon="-1.339397">
        <ele>809.008</ele>
        <time>1999-11-30T00:00:00Z</time>
      </trkpt>
      <trkpt lat="41.016086" lon="-1.339234">
        <ele>810.016</ele>
        <time>1999-11-30T00:00:00Z</time>
      </trkpt>
      <trkpt lat="41.01542" lon="-1.339102">
        <ele>810.070</ele>
        <time>1999-11-30T00:00:00Z</time>
      </trkpt>
      <trkpt lat="41.015157" lon="-1.339109">
        <ele>810.051</ele>
        <time>1999-11-30T00:00:00Z</time>
      </trkpt>
      <trkpt lat="41.014704" lon="-1.339145">
        <ele>810.025</ele>
        <time>1999-11-30T00:00:00Z</time>
      </trkpt>
      <trkpt lat="41.014377" lon="-1.339138">
        <ele>810.080</ele>
        <time>1999-11-30T00:00:00Z</time>
      </trkpt>
      <trkpt lat="41.014237" lon="-1.339118">
        <ele>810.089</ele>
        <time>1999-11-30T00:00:00Z</time>
      </trkpt>
      <trkpt lat="41.014103" lon="-1.339051">
        <ele>810.050</ele>
        <time>1999-11-30T00:00:00Z</time>
      </trkpt>
      <trkpt lat="41.0139" lon="-1.338901">
        <ele>810.038</ele>
        <time>1999-11-30T00:00:00Z</time>
      </trkpt>
      <trkpt lat="41.01352" lon="-1.338568">
        <ele>810.081</ele>
        <time>1999-11-30T00:00:00Z</time>
      </trkpt>
      <trkpt lat="41.013186" lon="-1.338201">
        <ele>810.061</ele>
        <time>1999-11-30T00:00:00Z</time>
      </trkpt>
      <trkpt lat="41.01287" lon="-1.337834">
        <ele>810.017</ele>
        <time>1999-11-30T00:00:00Z</time>
      </trkpt>
      <trkpt lat="41.012646" lon="-1.337478">
        <ele>810.008</ele>
        <time>1999-11-30T00:00:00Z</time>
      </trkpt>
      <trkpt lat="41.012499" lon="-1.337084">
        <ele>810.019</ele>
        <time>1999-11-30T00:00:00Z</time>
      </trkpt>
      <trkpt lat="41.012303" lon="-1.336801">
        <ele>810.073</ele>
        <time>1999-11-30T00:00:00Z</time>
      </trkpt>
      <trkpt lat="41.01202" lon="-1.336434">
        <ele>810.014</ele>
        <time>1999-11-30T00:00:00Z</time>
      </trkpt>
      <trkpt lat="41.01182" lon="-1.336201">
        <ele>810.088</ele>
        <time>1999-11-30T00:00:00Z</time>
      </trkpt>
      <trkpt lat="41.011603" lon="-1.336067">
        <ele>810.033</ele>
        <time>1999-11-30T00:00:00Z</time>
      </trkpt>
      <trkpt lat="41.01142" lon="-1.335818">
        <ele>810.072</ele>
        <time>1999-11-30T00:00:00Z</time>
      </trkpt>
      <trkpt lat="41.01117" lon="-1.335468">
        <ele>810.063</ele>
        <time>1999-11-30T00:00:00Z</time>
      </trkpt>
      <trkpt lat="41.010887" lon="-1.335134">
        <ele>810.021</ele>
        <time>1999-11-30T00:00:00Z</time>
      </trkpt>
      <trkpt lat="41.010731" lon="-1.334928">
        <ele>810.064</ele>
        <time>1999-11-30T00:00:00Z</time>
      </trkpt>
      <trkpt lat="41.01054" lon="-1.334791">
        <ele>810.006</ele>
        <time>1999-11-30T00:00:00Z</time>
      </trkpt>
      <trkpt lat="41.010219" lon="-1.334718">
        <ele>810.016</ele>
        <time>1999-11-30T00:00:00Z</time>
      </trkpt>
      <trkpt lat="41.009836" lon="-1.334768">
        <ele>811.008</ele>
        <time>1999-11-30T00:00:00Z</time>
      </trkpt>
      <trkpt lat="41.009586" lon="-1.334852">
        <ele>812.027</ele>
        <time>1999-11-30T00:00:00Z</time>
      </trkpt>
      <trkpt lat="41.009453" lon="-1.334852">
        <ele>811.061</ele>
        <time>1999-11-30T00:00:00Z</time>
      </trkpt>
      <trkpt lat="41.00932" lon="-1.334784">
        <ele>811.012</ele>
        <time>1999-11-30T00:00:00Z</time>
      </trkpt>
      <trkpt lat="41.009137" lon="-1.334685">
        <ele>810.056</ele>
        <time>1999-11-30T00:00:00Z</time>
      </trkpt>
      <trkpt lat="41.008987" lon="-1.334535">
        <ele>810.061</ele>
        <time>1999-11-30T00:00:00Z</time>
      </trkpt>
      <trkpt lat="41.008537" lon="-1.334035">
        <ele>811.050</ele>
        <time>1999-11-30T00:00:00Z</time>
      </trkpt>
      <trkpt lat="41.007953" lon="-1.333335">
        <ele>812.021</ele>
        <time>1999-11-30T00:00:00Z</time>
      </trkpt>
      <trkpt lat="41.007737" lon="-1.333118">
        <ele>812.049</ele>
        <time>1999-11-30T00:00:00Z</time>
      </trkpt>
      <trkpt lat="41.007503" lon="-1.332885">
        <ele>812.078</ele>
        <time>1999-11-30T00:00:00Z</time>
      </trkpt>
      <trkpt lat="41.007353" lon="-1.332668">
        <ele>812.033</ele>
        <time>1999-11-30T00:00:00Z</time>
      </trkpt>
      <trkpt lat="41.007169" lon="-1.332018">
        <ele>814.026</ele>
        <time>1999-11-30T00:00:00Z</time>
      </trkpt>
      <trkpt lat="41.006753" lon="-1.330685">
        <ele>819.008</ele>
        <time>1999-11-30T00:00:00Z</time>
      </trkpt>
      <trkpt lat="41.006453" lon="-1.329585">
        <ele>820.068</ele>
        <time>1999-11-30T00:00:00Z</time>
      </trkpt>
      <trkpt lat="41.006268" lon="-1.328935">
        <ele>820.032</ele>
        <time>1999-11-30T00:00:00Z</time>
      </trkpt>
      <trkpt lat="41.006275" lon="-1.328695">
        <ele>820.043</ele>
        <time>1999-11-30T00:00:00Z</time>
      </trkpt>
      <trkpt lat="41.006253" lon="-1.328251">
        <ele>820.047</ele>
        <time>1999-11-30T00:00:00Z</time>
      </trkpt>
      <trkpt lat="41.006187" lon="-1.327968">
        <ele>819.072</ele>
        <time>1999-11-30T00:00:00Z</time>
      </trkpt>
      <trkpt lat="41.005969" lon="-1.327601">
        <ele>819.081</ele>
        <time>1999-11-30T00:00:00Z</time>
      </trkpt>
      <trkpt lat="41.005753" lon="-1.327368">
        <ele>819.022</ele>
        <time>1999-11-30T00:00:00Z</time>
      </trkpt>
      <trkpt lat="41.005503" lon="-1.327301">
        <ele>819.010</ele>
        <time>1999-11-30T00:00:00Z</time>
      </trkpt>
      <trkpt lat="41.005213" lon="-1.327331">
        <ele>820.062</ele>
        <time>1999-11-30T00:00:00Z</time>
      </trkpt>
      <trkpt lat="41.004953" lon="-1.327435">
        <ele>820.083</ele>
        <time>1999-11-30T00:00:00Z</time>
      </trkpt>
      <trkpt lat="41.00467" lon="-1.327635">
        <ele>820.011</ele>
        <time>1999-11-30T00:00:00Z</time>
      </trkpt>
      <trkpt lat="41.004553" lon="-1.327702">
        <ele>820.008</ele>
        <time>1999-11-30T00:00:00Z</time>
      </trkpt>
      <trkpt lat="41.004403" lon="-1.327702">
        <ele>820.087</ele>
        <time>1999-11-30T00:00:00Z</time>
      </trkpt>
      <trkpt lat="41.004222" lon="-1.32779">
        <ele>820.041</ele>
        <time>1999-11-30T00:00:00Z</time>
      </trkpt>
      <trkpt lat="41.004033" lon="-1.327841">
        <ele>820.042</ele>
        <time>1999-11-30T00:00:00Z</time>
      </trkpt>
      <trkpt lat="41.003775" lon="-1.32774">
        <ele>820.096</ele>
        <time>1999-11-30T00:00:00Z</time>
      </trkpt>
      <trkpt lat="41.003564" lon="-1.327565">
        <ele>820.041</ele>
        <time>1999-11-30T00:00:00Z</time>
      </trkpt>
      <trkpt lat="41.00337" lon="-1.327384">
        <ele>820.050</ele>
        <time>1999-11-30T00:00:00Z</time>
      </trkpt>
      <trkpt lat="41.003236" lon="-1.327184">
        <ele>820.041</ele>
        <time>1999-11-30T00:00:00Z</time>
      </trkpt>
      <trkpt lat="41.003207" lon="-1.327016">
        <ele>820.039</ele>
        <time>1999-11-30T00:00:00Z</time>
      </trkpt>
      <trkpt lat="41.00317" lon="-1.326751">
        <ele>820.099</ele>
        <time>1999-11-30T00:00:00Z</time>
      </trkpt>
      <trkpt lat="41.003154" lon="-1.326585">
        <ele>820.007</ele>
        <time>1999-11-30T00:00:00Z</time>
      </trkpt>
      <trkpt lat="41.003103" lon="-1.326485">
        <ele>820.027</ele>
        <time>1999-11-30T00:00:00Z</time>
      </trkpt>
      <trkpt lat="41.002897" lon="-1.326376">
        <ele>820.008</ele>
        <time>1999-11-30T00:00:00Z</time>
      </trkpt>
      <trkpt lat="41.002723" lon="-1.32635">
        <ele>822.090</ele>
        <time>1999-11-30T00:00:00Z</time>
      </trkpt>
      <trkpt lat="41.002353" lon="-1.326252">
        <ele>829.024</ele>
        <time>1999-11-30T00:00:00Z</time>
      </trkpt>
      <trkpt lat="41.00207" lon="-1.326185">
        <ele>829.075</ele>
        <time>1999-11-30T00:00:00Z</time>
      </trkpt>
      <trkpt lat="41.001953" lon="-1.326185">
        <ele>829.029</ele>
        <time>1999-11-30T00:00:00Z</time>
      </trkpt>
      <trkpt lat="41.001836" lon="-1.326318">
        <ele>828.044</ele>
        <time>1999-11-30T00:00:00Z</time>
      </trkpt>
      <trkpt lat="41.001587" lon="-1.326568">
        <ele>827.073</ele>
        <time>1999-11-30T00:00:00Z</time>
      </trkpt>
      <trkpt lat="41.001011" lon="-1.326912">
        <ele>826.094</ele>
        <time>1999-11-30T00:00:00Z</time>
      </trkpt>
      <trkpt lat="41.000753" lon="-1.327051">
        <ele>826.092</ele>
        <time>1999-11-30T00:00:00Z</time>
      </trkpt>
      <trkpt lat="41.000586" lon="-1.327068">
        <ele>826.085</ele>
        <time>1999-11-30T00:00:00Z</time>
      </trkpt>
      <trkpt lat="41.00037" lon="-1.326968">
        <ele>827.089</ele>
        <time>1999-11-30T00:00:00Z</time>
      </trkpt>
      <trkpt lat="41.000121" lon="-1.326836">
        <ele>827.017</ele>
        <time>1999-11-30T00:00:00Z</time>
      </trkpt>
      <trkpt lat="40.999691" lon="-1.326591">
        <ele>826.008</ele>
        <time>1999-11-30T00:00:00Z</time>
      </trkpt>
      <trkpt lat="40.999178" lon="-1.326276">
        <ele>826.019</ele>
        <time>1999-11-30T00:00:00Z</time>
      </trkpt>
      <trkpt lat="40.998837" lon="-1.3261">
        <ele>828.053</ele>
        <time>1999-11-30T00:00:00Z</time>
      </trkpt>
      <trkpt lat="40.998737" lon="-1.326023">
        <ele>828.054</ele>
        <time>1999-11-30T00:00:00Z</time>
      </trkpt>
      <trkpt lat="40.998683" lon="-1.325939">
        <ele>828.048</ele>
        <time>1999-11-30T00:00:00Z</time>
      </trkpt>
      <trkpt lat="40.998601" lon="-1.325756">
        <ele>828.053</ele>
        <time>1999-11-30T00:00:00Z</time>
      </trkpt>
      <trkpt lat="40.998406" lon="-1.325229">
        <ele>828.082</ele>
        <time>1999-11-30T00:00:00Z</time>
      </trkpt>
      <trkpt lat="40.998285" lon="-1.32491">
        <ele>828.023</ele>
        <time>1999-11-30T00:00:00Z</time>
      </trkpt>
      <trkpt lat="40.998207" lon="-1.324733">
        <ele>829.051</ele>
        <time>1999-11-30T00:00:00Z</time>
      </trkpt>
      <trkpt lat="40.998068" lon="-1.324657">
        <ele>829.025</ele>
        <time>1999-11-30T00:00:00Z</time>
      </trkpt>
      <trkpt lat="40.997749" lon="-1.32466">
        <ele>828.026</ele>
        <time>1999-11-30T00:00:00Z</time>
      </trkpt>
      <trkpt lat="40.997295" lon="-1.324603">
        <ele>827.008</ele>
        <time>1999-11-30T00:00:00Z</time>
      </trkpt>
      <trkpt lat="40.996909" lon="-1.324564">
        <ele>827.008</ele>
        <time>1999-11-30T00:00:00Z</time>
      </trkpt>
      <trkpt lat="40.996753" lon="-1.324537">
        <ele>829.063</ele>
        <time>1999-11-30T00:00:00Z</time>
      </trkpt>
      <trkpt lat="40.996649" lon="-1.324468">
        <ele>829.097</ele>
        <time>1999-11-30T00:00:00Z</time>
      </trkpt>
      <trkpt lat="40.996531" lon="-1.324369">
        <ele>829.068</ele>
        <time>1999-11-30T00:00:00Z</time>
      </trkpt>
      <trkpt lat="40.996253" lon="-1.32408">
        <ele>829.012</ele>
        <time>1999-11-30T00:00:00Z</time>
      </trkpt>
      <trkpt lat="40.996067" lon="-1.323854">
        <ele>830.097</ele>
        <time>1999-11-30T00:00:00Z</time>
      </trkpt>
      <trkpt lat="40.995768" lon="-1.32348">
        <ele>830.096</ele>
        <time>1999-11-30T00:00:00Z</time>
      </trkpt>
      <trkpt lat="40.995553" lon="-1.323133">
        <ele>830.027</ele>
        <time>1999-11-30T00:00:00Z</time>
      </trkpt>
      <trkpt lat="40.995457" lon="-1.322996">
        <ele>830.075</ele>
        <time>1999-11-30T00:00:00Z</time>
      </trkpt>
      <trkpt lat="40.995337" lon="-1.322852">
        <ele>830.099</ele>
        <time>1999-11-30T00:00:00Z</time>
      </trkpt>
      <trkpt lat="40.995205" lon="-1.322655">
        <ele>830.007</ele>
        <time>1999-11-30T00:00:00Z</time>
      </trkpt>
      <trkpt lat="40.995041" lon="-1.32242">
        <ele>830.027</ele>
        <time>1999-11-30T00:00:00Z</time>
      </trkpt>
      <trkpt lat="40.994918" lon="-1.322191">
        <ele>830.008</ele>
        <time>1999-11-30T00:00:00Z</time>
      </trkpt>
      <trkpt lat="40.994807" lon="-1.321847">
        <ele>830.040</ele>
        <time>1999-11-30T00:00:00Z</time>
      </trkpt>
      <trkpt lat="40.994735" lon="-1.321674">
        <ele>830.074</ele>
        <time>1999-11-30T00:00:00Z</time>
      </trkpt>
      <trkpt lat="40.994612" lon="-1.321518">
        <ele>830.095</ele>
        <time>1999-11-30T00:00:00Z</time>
      </trkpt>
      <trkpt lat="40.994487" lon="-1.321422">
        <ele>830.019</ele>
        <time>1999-11-30T00:00:00Z</time>
      </trkpt>
      <trkpt lat="40.99432" lon="-1.321051">
        <ele>829.034</ele>
        <time>1999-11-30T00:00:00Z</time>
      </trkpt>
      <trkpt lat="40.994187" lon="-1.320718">
        <ele>829.073</ele>
        <time>1999-11-30T00:00:00Z</time>
      </trkpt>
      <trkpt lat="40.994003" lon="-1.320485">
        <ele>829.054</ele>
        <time>1999-11-30T00:00:00Z</time>
      </trkpt>
      <trkpt lat="40.993846" lon="-1.320345">
        <ele>830.032</ele>
        <time>1999-11-30T00:00:00Z</time>
      </trkpt>
      <trkpt lat="40.993429" lon="-1.320199">
        <ele>830.071</ele>
        <time>1999-11-30T00:00:00Z</time>
      </trkpt>
      <trkpt lat="40.993063" lon="-1.320051">
        <ele>830.041</ele>
        <time>1999-11-30T00:00:00Z</time>
      </trkpt>
      <trkpt lat="40.992953" lon="-1.319917">
        <ele>830.015</ele>
        <time>1999-11-30T00:00:00Z</time>
      </trkpt>
      <trkpt lat="40.992569" lon="-1.319434">
        <ele>830.008</ele>
        <time>1999-11-30T00:00:00Z</time>
      </trkpt>
      <trkpt lat="40.991586" lon="-1.318168">
        <ele>835.018</ele>
        <time>1999-11-30T00:00:00Z</time>
      </trkpt>
      <trkpt lat="40.991214" lon="-1.317693">
        <ele>838.092</ele>
        <time>1999-11-30T00:00:00Z</time>
      </trkpt>
      <trkpt lat="40.99102" lon="-1.317418">
        <ele>839.043</ele>
        <time>1999-11-30T00:00:00Z</time>
      </trkpt>
      <trkpt lat="40.990937" lon="-1.31717">
        <ele>839.067</ele>
        <time>1999-11-30T00:00:00Z</time>
      </trkpt>
      <trkpt lat="40.990909" lon="-1.316882">
        <ele>840.032</ele>
        <time>1999-11-30T00:00:00Z</time>
      </trkpt>
      <trkpt lat="40.990878" lon="-1.316595">
        <ele>840.011</ele>
        <time>1999-11-30T00:00:00Z</time>
      </trkpt>
      <trkpt lat="40.990821" lon="-1.316299">
        <ele>839.072</ele>
        <time>1999-11-30T00:00:00Z</time>
      </trkpt>
      <trkpt lat="40.990804" lon="-1.315996">
        <ele>839.050</ele>
        <time>1999-11-30T00:00:00Z</time>
      </trkpt>
      <trkpt lat="40.99087" lon="-1.315351">
        <ele>839.067</ele>
        <time>1999-11-30T00:00:00Z</time>
      </trkpt>
      <trkpt lat="40.990907" lon="-1.314954">
        <ele>838.081</ele>
        <time>1999-11-30T00:00:00Z</time>
      </trkpt>
      <trkpt lat="40.990886" lon="-1.314634">
        <ele>838.019</ele>
        <time>1999-11-30T00:00:00Z</time>
      </trkpt>
      <trkpt lat="40.990814" lon="-1.31417">
        <ele>838.008</ele>
        <time>1999-11-30T00:00:00Z</time>
      </trkpt>
      <trkpt lat="40.990641" lon="-1.313806">
        <ele>838.047</ele>
        <time>1999-11-30T00:00:00Z</time>
      </trkpt>
      <trkpt lat="40.990436" lon="-1.313535">
        <ele>838.041</ele>
        <time>1999-11-30T00:00:00Z</time>
      </trkpt>
      <trkpt lat="40.989953" lon="-1.313067">
        <ele>838.012</ele>
        <time>1999-11-30T00:00:00Z</time>
      </trkpt>
      <trkpt lat="40.989653" lon="-1.312735">
        <ele>838.096</ele>
        <time>1999-11-30T00:00:00Z</time>
      </trkpt>
      <trkpt lat="40.989486" lon="-1.312318">
        <ele>838.051</ele>
        <time>1999-11-30T00:00:00Z</time>
      </trkpt>
      <trkpt lat="40.989369" lon="-1.312001">
        <ele>838.040</ele>
        <time>1999-11-30T00:00:00Z</time>
      </trkpt>
      <trkpt lat="40.989285" lon="-1.3119">
        <ele>837.081</ele>
        <time>1999-11-30T00:00:00Z</time>
      </trkpt>
      <trkpt lat="40.989276" lon="-1.311903">
        <ele>838.029</ele>
        <time>1999-11-30T00:00:00Z</time>
      </trkpt>
      <trkpt lat="40.988827" lon="-1.311713">
        <ele>838.051</ele>
        <time>1999-11-30T00:00:00Z</time>
      </trkpt>
      <trkpt lat="40.988531" lon="-1.311539">
        <ele>839.001</ele>
        <time>1999-11-30T00:00:00Z</time>
      </trkpt>
      <trkpt lat="40.988396" lon="-1.311388">
        <ele>839.011</ele>
        <time>1999-11-30T00:00:00Z</time>
      </trkpt>
      <trkpt lat="40.988336" lon="-1.311301">
        <ele>838.008</ele>
        <time>1999-11-30T00:00:00Z</time>
      </trkpt>
      <trkpt lat="40.987985" lon="-1.310778">
        <ele>837.066</ele>
        <time>1999-11-30T00:00:00Z</time>
      </trkpt>
      <trkpt lat="40.987603" lon="-1.310351">
        <ele>837.060</ele>
        <time>1999-11-30T00:00:00Z</time>
      </trkpt>
      <trkpt lat="40.987403" lon="-1.310084">
        <ele>837.031</ele>
        <time>1999-11-30T00:00:00Z</time>
      </trkpt>
      <trkpt lat="40.98737" lon="-1.309902">
        <ele>837.095</ele>
        <time>1999-11-30T00:00:00Z</time>
      </trkpt>
      <trkpt lat="40.987353" lon="-1.309502">
        <ele>837.030</ele>
        <time>1999-11-30T00:00:00Z</time>
      </trkpt>
      <trkpt lat="40.987253" lon="-1.309318">
        <ele>837.019</ele>
        <time>1999-11-30T00:00:00Z</time>
      </trkpt>
      <trkpt lat="40.987053" lon="-1.309168">
        <ele>838.060</ele>
        <time>1999-11-30T00:00:00Z</time>
      </trkpt>
      <trkpt lat="40.986673" lon="-1.309111">
        <ele>839.048</ele>
        <time>1999-11-30T00:00:00Z</time>
      </trkpt>
      <trkpt lat="40.986397" lon="-1.309064">
        <ele>839.049</ele>
        <time>1999-11-30T00:00:00Z</time>
      </trkpt>
      <trkpt lat="40.986045" lon="-1.309216">
        <ele>839.002</ele>
        <time>1999-11-30T00:00:00Z</time>
      </trkpt>
      <trkpt lat="40.98582" lon="-1.309352">
        <ele>839.022</ele>
        <time>1999-11-30T00:00:00Z</time>
      </trkpt>
      <trkpt lat="40.98547" lon="-1.309401">
        <ele>839.008</ele>
        <time>1999-11-30T00:00:00Z</time>
      </trkpt>
      <trkpt lat="40.985203" lon="-1.309401">
        <ele>839.085</ele>
        <time>1999-11-30T00:00:00Z</time>
      </trkpt>
      <trkpt lat="40.984903" lon="-1.309301">
        <ele>839.079</ele>
        <time>1999-11-30T00:00:00Z</time>
      </trkpt>
      <trkpt lat="40.984588" lon="-1.309174">
        <ele>839.050</ele>
        <time>1999-11-30T00:00:00Z</time>
      </trkpt>
      <trkpt lat="40.984334" lon="-1.309162">
        <ele>839.034</ele>
        <time>1999-11-30T00:00:00Z</time>
      </trkpt>
      <trkpt lat="40.984136" lon="-1.309101">
        <ele>840.039</ele>
        <time>1999-11-30T00:00:00Z</time>
      </trkpt>
      <trkpt lat="40.983829" lon="-1.3091">
        <ele>840.028</ele>
        <time>1999-11-30T00:00:00Z</time>
      </trkpt>
      <trkpt lat="40.982953" lon="-1.309268">
        <ele>839.039</ele>
        <time>1999-11-30T00:00:00Z</time>
      </trkpt>
      <trkpt lat="40.982654" lon="-1.309476">
        <ele>839.087</ele>
        <time>1999-11-30T00:00:00Z</time>
      </trkpt>
      <trkpt lat="40.982486" lon="-1.309535">
        <ele>839.096</ele>
        <time>1999-11-30T00:00:00Z</time>
      </trkpt>
      <trkpt lat="40.982353" lon="-1.309452">
        <ele>839.031</ele>
        <time>1999-11-30T00:00:00Z</time>
      </trkpt>
      <trkpt lat="40.98217" lon="-1.309335">
        <ele>839.024</ele>
        <time>1999-11-30T00:00:00Z</time>
      </trkpt>
      <trkpt lat="40.981987" lon="-1.309318">
        <ele>839.008</ele>
        <time>1999-11-30T00:00:00Z</time>
      </trkpt>
      <trkpt lat="40.98162" lon="-1.309484">
        <ele>840.040</ele>
        <time>1999-11-30T00:00:00Z</time>
      </trkpt>
      <trkpt lat="40.981287" lon="-1.309551">
        <ele>840.064</ele>
        <time>1999-11-30T00:00:00Z</time>
      </trkpt>
      <trkpt lat="40.980984" lon="-1.309551">
        <ele>840.085</ele>
        <time>1999-11-30T00:00:00Z</time>
      </trkpt>
      <trkpt lat="40.980586" lon="-1.309484">
        <ele>840.049</ele>
        <time>1999-11-30T00:00:00Z</time>
      </trkpt>
      <trkpt lat="40.980187" lon="-1.309502">
        <ele>840.044</ele>
        <time>1999-11-30T00:00:00Z</time>
      </trkpt>
      <trkpt lat="40.979736" lon="-1.309535">
        <ele>840.093</ele>
        <time>1999-11-30T00:00:00Z</time>
      </trkpt>
      <trkpt lat="40.97952" lon="-1.309534">
        <ele>840.034</ele>
        <time>1999-11-30T00:00:00Z</time>
      </trkpt>
      <trkpt lat="40.97932" lon="-1.309451">
        <ele>841.062</ele>
        <time>1999-11-30T00:00:00Z</time>
      </trkpt>
      <trkpt lat="40.97912" lon="-1.309184">
        <ele>840.055</ele>
        <time>1999-11-30T00:00:00Z</time>
      </trkpt>
      <trkpt lat="40.978853" lon="-1.308851">
        <ele>841.007</ele>
        <time>1999-11-30T00:00:00Z</time>
      </trkpt>
      <trkpt lat="40.978653" lon="-1.308701">
        <ele>841.017</ele>
        <time>1999-11-30T00:00:00Z</time>
      </trkpt>
      <trkpt lat="40.97837" lon="-1.308568">
        <ele>841.008</ele>
        <time>1999-11-30T00:00:00Z</time>
      </trkpt>
      <trkpt lat="40.978136" lon="-1.308518">
        <ele>841.046</ele>
        <time>1999-11-30T00:00:00Z</time>
      </trkpt>
      <trkpt lat="40.977903" lon="-1.308384">
        <ele>842.070</ele>
        <time>1999-11-30T00:00:00Z</time>
      </trkpt>
      <trkpt lat="40.97757" lon="-1.308201">
        <ele>842.061</ele>
        <time>1999-11-30T00:00:00Z</time>
      </trkpt>
      <trkpt lat="40.97742" lon="-1.308118">
        <ele>843.055</ele>
        <time>1999-11-30T00:00:00Z</time>
      </trkpt>
      <trkpt lat="40.97717" lon="-1.308151">
        <ele>843.070</ele>
        <time>1999-11-30T00:00:00Z</time>
      </trkpt>
      <trkpt lat="40.976969" lon="-1.308235">
        <ele>843.039</ele>
        <time>1999-11-30T00:00:00Z</time>
      </trkpt>
      <trkpt lat="40.976811" lon="-1.308391">
        <ele>843.070</ele>
        <time>1999-11-30T00:00:00Z</time>
      </trkpt>
      <trkpt lat="40.976655" lon="-1.308683">
        <ele>844.018</ele>
        <time>1999-11-30T00:00:00Z</time>
      </trkpt>
      <trkpt lat="40.976565" lon="-1.308951">
        <ele>845.039</ele>
        <time>1999-11-30T00:00:00Z</time>
      </trkpt>
      <trkpt lat="40.97649" lon="-1.309167">
        <ele>845.001</ele>
        <time>1999-11-30T00:00:00Z</time>
      </trkpt>
      <trkpt lat="40.976465" lon="-1.309411">
        <ele>845.021</ele>
        <time>1999-11-30T00:00:00Z</time>
      </trkpt>
      <trkpt lat="40.976341" lon="-1.309723">
        <ele>845.008</ele>
        <time>1999-11-30T00:00:00Z</time>
      </trkpt>
      <trkpt lat="40.97617" lon="-1.310001">
        <ele>845.084</ele>
        <time>1999-11-30T00:00:00Z</time>
      </trkpt>
      <trkpt lat="40.976086" lon="-1.31025">
        <ele>845.038</ele>
        <time>1999-11-30T00:00:00Z</time>
      </trkpt>
      <trkpt lat="40.976053" lon="-1.310401">
        <ele>845.099</ele>
        <time>1999-11-30T00:00:00Z</time>
      </trkpt>
      <trkpt lat="40.97597" lon="-1.310617">
        <ele>845.053</ele>
        <time>1999-11-30T00:00:00Z</time>
      </trkpt>
      <trkpt lat="40.975936" lon="-1.310767">
        <ele>845.088</ele>
        <time>1999-11-30T00:00:00Z</time>
      </trkpt>
      <trkpt lat="40.97592" lon="-1.311001">
        <ele>845.077</ele>
        <time>1999-11-30T00:00:00Z</time>
      </trkpt>
      <trkpt lat="40.97592" lon="-1.311218">
        <ele>844.088</ele>
        <time>1999-11-30T00:00:00Z</time>
      </trkpt>
      <trkpt lat="40.975951" lon="-1.311578">
        <ele>843.046</ele>
        <time>1999-11-30T00:00:00Z</time>
      </trkpt>
      <trkpt lat="40.975936" lon="-1.311768">
        <ele>843.072</ele>
        <time>1999-11-30T00:00:00Z</time>
      </trkpt>
      <trkpt lat="40.975869" lon="-1.312084">
        <ele>843.013</ele>
        <time>1999-11-30T00:00:00Z</time>
      </trkpt>
      <trkpt lat="40.975736" lon="-1.312434">
        <ele>842.014</ele>
        <time>1999-11-30T00:00:00Z</time>
      </trkpt>
      <trkpt lat="40.975454" lon="-1.312854">
        <ele>840.008</ele>
        <time>1999-11-30T00:00:00Z</time>
      </trkpt>
      <trkpt lat="40.975037" lon="-1.313451">
        <ele>843.038</ele>
        <time>1999-11-30T00:00:00Z</time>
      </trkpt>
      <trkpt lat="40.974753" lon="-1.313951">
        <ele>846.062</ele>
        <time>1999-11-30T00:00:00Z</time>
      </trkpt>
      <trkpt lat="40.974587" lon="-1.314334">
        <ele>847.053</ele>
        <time>1999-11-30T00:00:00Z</time>
      </trkpt>
      <trkpt lat="40.974437" lon="-1.314768">
        <ele>848.047</ele>
        <time>1999-11-30T00:00:00Z</time>
      </trkpt>
      <trkpt lat="40.974206" lon="-1.315369">
        <ele>847.032</ele>
        <time>1999-11-30T00:00:00Z</time>
      </trkpt>
      <trkpt lat="40.974037" lon="-1.31584">
        <ele>847.031</ele>
        <time>1999-11-30T00:00:00Z</time>
      </trkpt>
      <trkpt lat="40.973987" lon="-1.316201">
        <ele>847.022</ele>
        <time>1999-11-30T00:00:00Z</time>
      </trkpt>
      <trkpt lat="40.973954" lon="-1.316351">
        <ele>848.040</ele>
        <time>1999-11-30T00:00:00Z</time>
      </trkpt>
      <trkpt lat="40.973854" lon="-1.316468">
        <ele>848.071</ele>
        <time>1999-11-30T00:00:00Z</time>
      </trkpt>
      <trkpt lat="40.97327" lon="-1.316818">
        <ele>850.041</ele>
        <time>1999-11-30T00:00:00Z</time>
      </trkpt>
      <trkpt lat="40.973087" lon="-1.316935">
        <ele>849.015</ele>
        <time>1999-11-30T00:00:00Z</time>
      </trkpt>
      <trkpt lat="40.97302" lon="-1.317067">
        <ele>850.008</ele>
        <time>1999-11-30T00:00:00Z</time>
      </trkpt>
      <trkpt lat="40.972953" lon="-1.317185">
        <ele>850.038</ele>
        <time>1999-11-30T00:00:00Z</time>
      </trkpt>
      <trkpt lat="40.972886" lon="-1.317218">
        <ele>850.062</ele>
        <time>1999-11-30T00:00:00Z</time>
      </trkpt>
      <trkpt lat="40.972719" lon="-1.317151">
        <ele>852.023</ele>
        <time>1999-11-30T00:00:00Z</time>
      </trkpt>
      <trkpt lat="40.972603" lon="-1.317051">
        <ele>852.027</ele>
        <time>1999-11-30T00:00:00Z</time>
      </trkpt>
      <trkpt lat="40.97252" lon="-1.316935">
        <ele>851.012</ele>
        <time>1999-11-30T00:00:00Z</time>
      </trkpt>
      <trkpt lat="40.972386" lon="-1.316635">
        <ele>850.031</ele>
        <time>1999-11-30T00:00:00Z</time>
      </trkpt>
      <trkpt lat="40.972253" lon="-1.316184">
        <ele>849.092</ele>
        <time>1999-11-30T00:00:00Z</time>
      </trkpt>
      <trkpt lat="40.972186" lon="-1.316001">
        <ele>849.060</ele>
        <time>1999-11-30T00:00:00Z</time>
      </trkpt>
      <trkpt lat="40.972053" lon="-1.315768">
        <ele>849.096</ele>
        <time>1999-11-30T00:00:00Z</time>
      </trkpt>
      <trkpt lat="40.97182" lon="-1.315568">
        <ele>849.031</ele>
        <time>1999-11-30T00:00:00Z</time>
      </trkpt>
      <trkpt lat="40.971636" lon="-1.315501">
        <ele>850.024</ele>
        <time>1999-11-30T00:00:00Z</time>
      </trkpt>
      <trkpt lat="40.97137" lon="-1.315451">
        <ele>850.008</ele>
        <time>1999-11-30T00:00:00Z</time>
      </trkpt>
      <trkpt lat="40.971086" lon="-1.315368">
        <ele>850.020</ele>
        <time>1999-11-30T00:00:00Z</time>
      </trkpt>
      <trkpt lat="40.970819" lon="-1.315268">
        <ele>851.024</ele>
        <time>1999-11-30T00:00:00Z</time>
      </trkpt>
      <trkpt lat="40.970503" lon="-1.315135">
        <ele>851.055</ele>
        <time>1999-11-30T00:00:00Z</time>
      </trkpt>
      <trkpt lat="40.970241" lon="-1.315094">
        <ele>852.089</ele>
        <time>1999-11-30T00:00:00Z</time>
      </trkpt>
      <trkpt lat="40.970041" lon="-1.314996">
        <ele>850.094</ele>
        <time>1999-11-30T00:00:00Z</time>
      </trkpt>
      <trkpt lat="40.96977" lon="-1.314984">
        <ele>849.063</ele>
        <time>1999-11-30T00:00:00Z</time>
      </trkpt>
      <trkpt lat="40.969603" lon="-1.315018">
        <ele>850.074</ele>
        <time>1999-11-30T00:00:00Z</time>
      </trkpt>
      <trkpt lat="40.969387" lon="-1.315051">
        <ele>850.012</ele>
        <time>1999-11-30T00:00:00Z</time>
      </trkpt>
      <trkpt lat="40.969086" lon="-1.315018">
        <ele>850.091</ele>
        <time>1999-11-30T00:00:00Z</time>
      </trkpt>
      <trkpt lat="40.96867" lon="-1.314918">
        <ele>850.081</ele>
        <time>1999-11-30T00:00:00Z</time>
      </trkpt>
      <trkpt lat="40.968386" lon="-1.314718">
        <ele>850.019</ele>
        <time>1999-11-30T00:00:00Z</time>
      </trkpt>
      <trkpt lat="40.968136" lon="-1.3146">
        <ele>850.008</ele>
        <time>1999-11-30T00:00:00Z</time>
      </trkpt>
      <trkpt lat="40.967787" lon="-1.314551">
        <ele>852.040</ele>
        <time>1999-11-30T00:00:00Z</time>
      </trkpt>
      <trkpt lat="40.967503" lon="-1.314534">
        <ele>857.044</ele>
        <time>1999-11-30T00:00:00Z</time>
      </trkpt>
      <trkpt lat="40.967403" lon="-1.314451">
        <ele>858.025</ele>
        <time>1999-11-30T00:00:00Z</time>
      </trkpt>
      <trkpt lat="40.967186" lon="-1.314301">
        <ele>859.029</ele>
        <time>1999-11-30T00:00:00Z</time>
      </trkpt>
      <trkpt lat="40.967053" lon="-1.314168">
        <ele>858.044</ele>
        <time>1999-11-30T00:00:00Z</time>
      </trkpt>
      <trkpt lat="40.966837" lon="-1.314101">
        <ele>859.093</ele>
        <time>1999-11-30T00:00:00Z</time>
      </trkpt>
      <trkpt lat="40.96647" lon="-1.314218">
        <ele>858.074</ele>
        <time>1999-11-30T00:00:00Z</time>
      </trkpt>
      <trkpt lat="40.966303" lon="-1.314218">
        <ele>858.032</ele>
        <time>1999-11-30T00:00:00Z</time>
      </trkpt>
      <trkpt lat="40.96617" lon="-1.314151">
        <ele>858.072</ele>
        <time>1999-11-30T00:00:00Z</time>
      </trkpt>
      <trkpt lat="40.96582" lon="-1.313951">
        <ele>857.013</ele>
        <time>1999-11-30T00:00:00Z</time>
      </trkpt>
      <trkpt lat="40.965537" lon="-1.313868">
        <ele>858.014</ele>
        <time>1999-11-30T00:00:00Z</time>
      </trkpt>
      <trkpt lat="40.965253" lon="-1.313651">
        <ele>857.008</ele>
        <time>1999-11-30T00:00:00Z</time>
      </trkpt>
      <trkpt lat="40.965003" lon="-1.313317">
        <ele>857.038</ele>
        <time>1999-11-30T00:00:00Z</time>
      </trkpt>
      <trkpt lat="40.964753" lon="-1.313184">
        <ele>858.032</ele>
        <time>1999-11-30T00:00:00Z</time>
      </trkpt>
      <trkpt lat="40.964203" lon="-1.313051">
        <ele>859.033</ele>
        <time>1999-11-30T00:00:00Z</time>
      </trkpt>
      <trkpt lat="40.963103" lon="-1.312801">
        <ele>859.027</ele>
        <time>1999-11-30T00:00:00Z</time>
      </trkpt>
      <trkpt lat="40.962637" lon="-1.312668">
        <ele>858.082</ele>
        <time>1999-11-30T00:00:00Z</time>
      </trkpt>
      <trkpt lat="40.962436" lon="-1.312651">
        <ele>857.091</ele>
        <time>1999-11-30T00:00:00Z</time>
      </trkpt>
      <trkpt lat="40.96227" lon="-1.312734">
        <ele>858.052</ele>
        <time>1999-11-30T00:00:00Z</time>
      </trkpt>
      <trkpt lat="40.96152" lon="-1.313101">
        <ele>858.050</ele>
        <time>1999-11-30T00:00:00Z</time>
      </trkpt>
      <trkpt lat="40.961186" lon="-1.313284">
        <ele>858.028</ele>
        <time>1999-11-30T00:00:00Z</time>
      </trkpt>
      <trkpt lat="40.96086" lon="-1.313357">
        <ele>857.089</ele>
        <time>1999-11-30T00:00:00Z</time>
      </trkpt>
      <trkpt lat="40.960548" lon="-1.313413">
        <ele>859.017</ele>
        <time>1999-11-30T00:00:00Z</time>
      </trkpt>
      <trkpt lat="40.959786" lon="-1.313251">
        <ele>860.008</ele>
        <time>1999-11-30T00:00:00Z</time>
      </trkpt>
      <trkpt lat="40.959503" lon="-1.313251">
        <ele>859.013</ele>
        <time>1999-11-30T00:00:00Z</time>
      </trkpt>
      <trkpt lat="40.95927" lon="-1.313335">
        <ele>859.097</ele>
        <time>1999-11-30T00:00:00Z</time>
      </trkpt>
      <trkpt lat="40.95912" lon="-1.313484">
        <ele>860.078</ele>
        <time>1999-11-30T00:00:00Z</time>
      </trkpt>
      <trkpt lat="40.958987" lon="-1.313551">
        <ele>860.092</ele>
        <time>1999-11-30T00:00:00Z</time>
      </trkpt>
      <trkpt lat="40.958736" lon="-1.313518">
        <ele>858.087</ele>
        <time>1999-11-30T00:00:00Z</time>
      </trkpt>
      <trkpt lat="40.95817" lon="-1.313451">
        <ele>859.046</ele>
        <time>1999-11-30T00:00:00Z</time>
      </trkpt>
      <trkpt lat="40.958003" lon="-1.313385">
        <ele>860.057</ele>
        <time>1999-11-30T00:00:00Z</time>
      </trkpt>
      <trkpt lat="40.957803" lon="-1.313301">
        <ele>860.085</ele>
        <time>1999-11-30T00:00:00Z</time>
      </trkpt>
      <trkpt lat="40.957387" lon="-1.313335">
        <ele>864.043</ele>
        <time>1999-11-30T00:00:00Z</time>
      </trkpt>
      <trkpt lat="40.95712" lon="-1.313284">
        <ele>864.064</ele>
        <time>1999-11-30T00:00:00Z</time>
      </trkpt>
      <trkpt lat="40.956919" lon="-1.313234">
        <ele>864.010</ele>
        <time>1999-11-30T00:00:00Z</time>
      </trkpt>
      <trkpt lat="40.956587" lon="-1.313101">
        <ele>862.008</ele>
        <time>1999-11-30T00:00:00Z</time>
      </trkpt>
      <trkpt lat="40.956303" lon="-1.312984">
        <ele>863.035</ele>
        <time>1999-11-30T00:00:00Z</time>
      </trkpt>
      <trkpt lat="40.95612" lon="-1.31287">
        <ele>864.069</ele>
        <time>1999-11-30T00:00:00Z</time>
      </trkpt>
      <trkpt lat="40.955904" lon="-1.312796">
        <ele>863.070</ele>
        <time>1999-11-30T00:00:00Z</time>
      </trkpt>
      <trkpt lat="40.955708" lon="-1.312849">
        <ele>862.064</ele>
        <time>1999-11-30T00:00:00Z</time>
      </trkpt>
      <trkpt lat="40.955578" lon="-1.312874">
        <ele>862.059</ele>
        <time>1999-11-30T00:00:00Z</time>
      </trkpt>
      <trkpt lat="40.955439" lon="-1.312824">
        <ele>862.048</ele>
        <time>1999-11-30T00:00:00Z</time>
      </trkpt>
      <trkpt lat="40.955336" lon="-1.312785">
        <ele>861.019</ele>
        <time>1999-11-30T00:00:00Z</time>
      </trkpt>
      <trkpt lat="40.95517" lon="-1.312751">
        <ele>861.097</ele>
        <time>1999-11-30T00:00:00Z</time>
      </trkpt>
      <trkpt lat="40.954985" lon="-1.312761">
        <ele>861.092</ele>
        <time>1999-11-30T00:00:00Z</time>
      </trkpt>
      <trkpt lat="40.954803" lon="-1.312768">
        <ele>862.073</ele>
        <time>1999-11-30T00:00:00Z</time>
      </trkpt>
      <trkpt lat="40.954553" lon="-1.312701">
        <ele>861.020</ele>
        <time>1999-11-30T00:00:00Z</time>
      </trkpt>
      <trkpt lat="40.95427" lon="-1.312801">
        <ele>864.008</ele>
        <time>1999-11-30T00:00:00Z</time>
      </trkpt>
      <trkpt lat="40.954053" lon="-1.312818">
        <ele>864.030</ele>
        <time>1999-11-30T00:00:00Z</time>
      </trkpt>
      <trkpt lat="40.953736" lon="-1.312785">
        <ele>866.064</ele>
        <time>1999-11-30T00:00:00Z</time>
      </trkpt>
      <trkpt lat="40.953619" lon="-1.312751">
        <ele>867.075</ele>
        <time>1999-11-30T00:00:00Z</time>
      </trkpt>
      <trkpt lat="40.953403" lon="-1.312618">
        <ele>866.069</ele>
        <time>1999-11-30T00:00:00Z</time>
      </trkpt>
      <trkpt lat="40.95312" lon="-1.312551">
        <ele>866.034</ele>
        <time>1999-11-30T00:00:00Z</time>
      </trkpt>
      <trkpt lat="40.952703" lon="-1.312618">
        <ele>865.033</ele>
        <time>1999-11-30T00:00:00Z</time>
      </trkpt>
      <trkpt lat="40.952379" lon="-1.312624">
        <ele>866.024</ele>
        <time>1999-11-30T00:00:00Z</time>
      </trkpt>
      <trkpt lat="40.95223" lon="-1.312573">
        <ele>867.062</ele>
        <time>1999-11-30T00:00:00Z</time>
      </trkpt>
      <trkpt lat="40.951924" lon="-1.312354">
        <ele>868.037</ele>
        <time>1999-11-30T00:00:00Z</time>
      </trkpt>
      <trkpt lat="40.951548" lon="-1.312181">
        <ele>868.049</ele>
        <time>1999-11-30T00:00:00Z</time>
      </trkpt>
      <trkpt lat="40.951153" lon="-1.312135">
        <ele>869.013</ele>
        <time>1999-11-30T00:00:00Z</time>
      </trkpt>
      <trkpt lat="40.950887" lon="-1.312135">
        <ele>869.008</ele>
        <time>1999-11-30T00:00:00Z</time>
      </trkpt>
      <trkpt lat="40.950482" lon="-1.312016">
        <ele>868.044</ele>
        <time>1999-11-30T00:00:00Z</time>
      </trkpt>
      <trkpt lat="40.950117" lon="-1.311914">
        <ele>869.058</ele>
        <time>1999-11-30T00:00:00Z</time>
      </trkpt>
      <trkpt lat="40.949836" lon="-1.311851">
        <ele>868.029</ele>
        <time>1999-11-30T00:00:00Z</time>
      </trkpt>
      <trkpt lat="40.949553" lon="-1.311867">
        <ele>867.063</ele>
        <time>1999-11-30T00:00:00Z</time>
      </trkpt>
      <trkpt lat="40.949386" lon="-1.311818">
        <ele>868.088</ele>
        <time>1999-11-30T00:00:00Z</time>
      </trkpt>
      <trkpt lat="40.949169" lon="-1.311517">
        <ele>867.067</ele>
        <time>1999-11-30T00:00:00Z</time>
      </trkpt>
      <trkpt lat="40.948836" lon="-1.311251">
        <ele>868.078</ele>
        <time>1999-11-30T00:00:00Z</time>
      </trkpt>
      <trkpt lat="40.94847" lon="-1.310935">
        <ele>868.086</ele>
        <time>1999-11-30T00:00:00Z</time>
      </trkpt>
      <trkpt lat="40.948303" lon="-1.310818">
        <ele>868.054</ele>
        <time>1999-11-30T00:00:00Z</time>
      </trkpt>
      <trkpt lat="40.947936" lon="-1.310534">
        <ele>869.056</ele>
        <time>1999-11-30T00:00:00Z</time>
      </trkpt>
      <trkpt lat="40.94777" lon="-1.310184">
        <ele>869.011</ele>
        <time>1999-11-30T00:00:00Z</time>
      </trkpt>
      <trkpt lat="40.947553" lon="-1.309884">
        <ele>869.008</ele>
        <time>1999-11-30T00:00:00Z</time>
      </trkpt>
      <trkpt lat="40.947369" lon="-1.309751">
        <ele>869.086</ele>
        <time>1999-11-30T00:00:00Z</time>
      </trkpt>
      <trkpt lat="40.94722" lon="-1.309601">
        <ele>869.010</ele>
        <time>1999-11-30T00:00:00Z</time>
      </trkpt>
      <trkpt lat="40.946912" lon="-1.309196">
        <ele>868.031</ele>
        <time>1999-11-30T00:00:00Z</time>
      </trkpt>
      <trkpt lat="40.94639" lon="-1.308619">
        <ele>869.025</ele>
        <time>1999-11-30T00:00:00Z</time>
      </trkpt>
      <trkpt lat="40.946088" lon="-1.307891">
        <ele>869.010</ele>
        <time>1999-11-30T00:00:00Z</time>
      </trkpt>
      <trkpt lat="40.945687" lon="-1.30709">
        <ele>868.039</ele>
        <time>1999-11-30T00:00:00Z</time>
      </trkpt>
      <trkpt lat="40.945553" lon="-1.306901">
        <ele>868.040</ele>
        <time>1999-11-30T00:00:00Z</time>
      </trkpt>
      <trkpt lat="40.945337" lon="-1.306751">
        <ele>868.038</ele>
        <time>1999-11-30T00:00:00Z</time>
      </trkpt>
      <trkpt lat="40.945054" lon="-1.306568">
        <ele>868.071</ele>
        <time>1999-11-30T00:00:00Z</time>
      </trkpt>
      <trkpt lat="40.944863" lon="-1.306389">
        <ele>869.041</ele>
        <time>1999-11-30T00:00:00Z</time>
      </trkpt>
      <trkpt lat="40.94485" lon="-1.306162">
        <ele>870.015</ele>
        <time>1999-11-30T00:00:00Z</time>
      </trkpt>
      <trkpt lat="40.94488" lon="-1.30587">
        <ele>871.008</ele>
        <time>1999-11-30T00:00:00Z</time>
      </trkpt>
      <trkpt lat="40.944839" lon="-1.30559">
        <ele>871.058</ele>
        <time>1999-11-30T00:00:00Z</time>
      </trkpt>
      <trkpt lat="40.94462" lon="-1.305318">
        <ele>872.082</ele>
        <time>1999-11-30T00:00:00Z</time>
      </trkpt>
      <trkpt lat="40.944254" lon="-1.304901">
        <ele>873.033</ele>
        <time>1999-11-30T00:00:00Z</time>
      </trkpt>
      <trkpt lat="40.94388" lon="-1.304621">
        <ele>872.017</ele>
        <time>1999-11-30T00:00:00Z</time>
      </trkpt>
      <trkpt lat="40.943711" lon="-1.304523">
        <ele>872.072</ele>
        <time>1999-11-30T00:00:00Z</time>
      </trkpt>
      <trkpt lat="40.943408" lon="-1.304518">
        <ele>875.061</ele>
        <time>1999-11-30T00:00:00Z</time>
      </trkpt>
      <trkpt lat="40.94317" lon="-1.304318">
        <ele>875.092</ele>
        <time>1999-11-30T00:00:00Z</time>
      </trkpt>
      <trkpt lat="40.94277" lon="-1.304051">
        <ele>874.080</ele>
        <time>1999-11-30T00:00:00Z</time>
      </trkpt>
      <trkpt lat="40.942453" lon="-1.303768">
        <ele>872.085</ele>
        <time>1999-11-30T00:00:00Z</time>
      </trkpt>
      <trkpt lat="40.942136" lon="-1.303618">
        <ele>872.089</ele>
        <time>1999-11-30T00:00:00Z</time>
      </trkpt>
      <trkpt lat="40.941836" lon="-1.303501">
        <ele>871.017</ele>
        <time>1999-11-30T00:00:00Z</time>
      </trkpt>
      <trkpt lat="40.941348" lon="-1.303193">
        <ele>870.008</ele>
        <time>1999-11-30T00:00:00Z</time>
      </trkpt>
      <trkpt lat="40.940765" lon="-1.302933">
        <ele>870.049</ele>
        <time>1999-11-30T00:00:00Z</time>
      </trkpt>
      <trkpt lat="40.940603" lon="-1.302851">
        <ele>869.073</ele>
        <time>1999-11-30T00:00:00Z</time>
      </trkpt>
      <trkpt lat="40.940351" lon="-1.302765">
        <ele>869.014</ele>
        <time>1999-11-30T00:00:00Z</time>
      </trkpt>
      <trkpt lat="40.940067" lon="-1.302616">
        <ele>869.058</ele>
        <time>1999-11-30T00:00:00Z</time>
      </trkpt>
      <trkpt lat="40.939468" lon="-1.302532">
        <ele>869.093</ele>
        <time>1999-11-30T00:00:00Z</time>
      </trkpt>
      <trkpt lat="40.938917" lon="-1.30261">
        <ele>870.022</ele>
        <time>1999-11-30T00:00:00Z</time>
      </trkpt>
      <trkpt lat="40.938642" lon="-1.302566">
        <ele>870.053</ele>
        <time>1999-11-30T00:00:00Z</time>
      </trkpt>
      <trkpt lat="40.938476" lon="-1.302486">
        <ele>870.051</ele>
        <time>1999-11-30T00:00:00Z</time>
      </trkpt>
      <trkpt lat="40.938243" lon="-1.302442">
        <ele>870.021</ele>
        <time>1999-11-30T00:00:00Z</time>
      </trkpt>
      <trkpt lat="40.937813" lon="-1.302337">
        <ele>870.041</ele>
        <time>1999-11-30T00:00:00Z</time>
      </trkpt>
      <trkpt lat="40.937303" lon="-1.302124">
        <ele>872.005</ele>
        <time>1999-11-30T00:00:00Z</time>
      </trkpt>
      <trkpt lat="40.936888" lon="-1.302058">
        <ele>874.008</ele>
        <time>1999-11-30T00:00:00Z</time>
      </trkpt>
      <trkpt lat="40.936277" lon="-1.302064">
        <ele>876.013</ele>
        <time>1999-11-30T00:00:00Z</time>
      </trkpt>
      <trkpt lat="40.935903" lon="-1.302085">
        <ele>876.087</ele>
        <time>1999-11-30T00:00:00Z</time>
      </trkpt>
      <trkpt lat="40.935633" lon="-1.301573">
        <ele>870.058</ele>
        <time>1999-11-30T00:00:00Z</time>
      </trkpt>
      <trkpt lat="40.935401" lon="-1.301534">
        <ele>870.022</ele>
        <time>1999-11-30T00:00:00Z</time>
      </trkpt>
      <trkpt lat="40.934752" lon="-1.301496">
        <ele>869.047</ele>
        <time>1999-11-30T00:00:00Z</time>
      </trkpt>
      <trkpt lat="40.93452" lon="-1.301468">
        <ele>869.076</ele>
        <time>1999-11-30T00:00:00Z</time>
      </trkpt>
      <trkpt lat="40.934003" lon="-1.301434">
        <ele>869.097</ele>
        <time>1999-11-30T00:00:00Z</time>
      </trkpt>
      <trkpt lat="40.93347" lon="-1.301368">
        <ele>870.055</ele>
        <time>1999-11-30T00:00:00Z</time>
      </trkpt>
      <trkpt lat="40.933103" lon="-1.301285">
        <ele>870.027</ele>
        <time>1999-11-30T00:00:00Z</time>
      </trkpt>
      <trkpt lat="40.932629" lon="-1.30133">
        <ele>870.068</ele>
        <time>1999-11-30T00:00:00Z</time>
      </trkpt>
      <trkpt lat="40.932186" lon="-1.301368">
        <ele>870.014</ele>
        <time>1999-11-30T00:00:00Z</time>
      </trkpt>
      <trkpt lat="40.930987" lon="-1.301518">
        <ele>871.008</ele>
        <time>1999-11-30T00:00:00Z</time>
      </trkpt>
      <trkpt lat="40.929953" lon="-1.301651">
        <ele>874.013</ele>
        <time>1999-11-30T00:00:00Z</time>
      </trkpt>
      <trkpt lat="40.928953" lon="-1.301768">
        <ele>877.017</ele>
        <time>1999-11-30T00:00:00Z</time>
      </trkpt>
      <trkpt lat="40.928535" lon="-1.30184">
        <ele>877.088</ele>
        <time>1999-11-30T00:00:00Z</time>
      </trkpt>
      <trkpt lat="40.92817" lon="-1.301801">
        <ele>878.082</ele>
        <time>1999-11-30T00:00:00Z</time>
      </trkpt>
      <trkpt lat="40.92762" lon="-1.301801">
        <ele>878.037</ele>
        <time>1999-11-30T00:00:00Z</time>
      </trkpt>
      <trkpt lat="40.92737" lon="-1.301784">
        <ele>879.086</ele>
        <time>1999-11-30T00:00:00Z</time>
      </trkpt>
      <trkpt lat="40.926462" lon="-1.301821">
        <ele>879.047</ele>
        <time>1999-11-30T00:00:00Z</time>
      </trkpt>
      <trkpt lat="40.926084" lon="-1.301789">
        <ele>879.075</ele>
        <time>1999-11-30T00:00:00Z</time>
      </trkpt>
      <trkpt lat="40.925773" lon="-1.301736">
        <ele>879.084</ele>
        <time>1999-11-30T00:00:00Z</time>
      </trkpt>
      <trkpt lat="40.925486" lon="-1.301735">
        <ele>880.007</ele>
        <time>1999-11-30T00:00:00Z</time>
      </trkpt>
      <trkpt lat="40.925303" lon="-1.301784">
        <ele>880.017</ele>
        <time>1999-11-30T00:00:00Z</time>
      </trkpt>
      <trkpt lat="40.924903" lon="-1.301851">
        <ele>880.008</ele>
        <time>1999-11-30T00:00:00Z</time>
      </trkpt>
      <trkpt lat="40.924457" lon="-1.301901">
        <ele>880.089</ele>
        <time>1999-11-30T00:00:00Z</time>
      </trkpt>
      <trkpt lat="40.923457" lon="-1.301916">
        <ele>880.023</ele>
        <time>1999-11-30T00:00:00Z</time>
      </trkpt>
      <trkpt lat="40.923004" lon="-1.301938">
        <ele>880.044</ele>
        <time>1999-11-30T00:00:00Z</time>
      </trkpt>
      <trkpt lat="40.92272" lon="-1.301929">
        <ele>880.058</ele>
        <time>1999-11-30T00:00:00Z</time>
      </trkpt>
      <trkpt lat="40.92228" lon="-1.301825">
        <ele>880.073</ele>
        <time>1999-11-30T00:00:00Z</time>
      </trkpt>
      <trkpt lat="40.92177" lon="-1.30165">
        <ele>881.022</ele>
        <time>1999-11-30T00:00:00Z</time>
      </trkpt>
      <trkpt lat="40.921553" lon="-1.301601">
        <ele>882.023</ele>
        <time>1999-11-30T00:00:00Z</time>
      </trkpt>
      <trkpt lat="40.921387" lon="-1.301567">
        <ele>882.071</ele>
        <time>1999-11-30T00:00:00Z</time>
      </trkpt>
      <trkpt lat="40.921187" lon="-1.301584">
        <ele>883.052</ele>
        <time>1999-11-30T00:00:00Z</time>
      </trkpt>
      <trkpt lat="40.92102" lon="-1.301567">
        <ele>883.053</ele>
        <time>1999-11-30T00:00:00Z</time>
      </trkpt>
      <trkpt lat="40.92082" lon="-1.301534">
        <ele>884.008</ele>
        <time>1999-11-30T00:00:00Z</time>
      </trkpt>
      <trkpt lat="40.92047" lon="-1.301485">
        <ele>884.008</ele>
        <time>1999-11-30T00:00:00Z</time>
      </trkpt>
      <trkpt lat="40.92047" lon="-1.301526">
        <ele>884.036</ele>
        <time>1999-11-30T00:00:00Z</time>
      </trkpt>
      <trkpt lat="40.92047" lon="-1.301526">
        <ele>884.090</ele>
        <time>1999-11-30T00:00:00Z</time>
      </trkpt>
      <trkpt lat="40.920433" lon="-1.301814">
        <ele>885.051</ele>
        <time>1999-11-30T00:00:00Z</time>
      </trkpt>
      <trkpt lat="40.920343" lon="-1.302083">
        <ele>885.015</ele>
        <time>1999-11-30T00:00:00Z</time>
      </trkpt>
      <trkpt lat="40.920113" lon="-1.302557">
        <ele>886.010</ele>
        <time>1999-11-30T00:00:00Z</time>
      </trkpt>
      <trkpt lat="40.920045" lon="-1.302785">
        <ele>886.079</ele>
        <time>1999-11-30T00:00:00Z</time>
      </trkpt>
      <trkpt lat="40.919672" lon="-1.30353">
        <ele>887.020</ele>
        <time>1999-11-30T00:00:00Z</time>
      </trkpt>
      <trkpt lat="40.919394" lon="-1.304296">
        <ele>888.078</ele>
        <time>1999-11-30T00:00:00Z</time>
      </trkpt>
      <trkpt lat="40.919312" lon="-1.304604">
        <ele>889.032</ele>
        <time>1999-11-30T00:00:00Z</time>
      </trkpt>
      <trkpt lat="40.919339" lon="-1.304798">
        <ele>889.092</ele>
        <time>1999-11-30T00:00:00Z</time>
      </trkpt>
      <trkpt lat="40.919468" lon="-1.305479">
        <ele>889.011</ele>
        <time>1999-11-30T00:00:00Z</time>
      </trkpt>
      <trkpt lat="40.919481" lon="-1.30574">
        <ele>889.008</ele>
        <time>1999-11-30T00:00:00Z</time>
      </trkpt>
      <trkpt lat="40.919425" lon="-1.305813">
        <ele>890.094</ele>
        <time>1999-11-30T00:00:00Z</time>
      </trkpt>
      <trkpt lat="40.919291" lon="-1.30588">
        <ele>889.068</ele>
        <time>1999-11-30T00:00:00Z</time>
      </trkpt>
      <trkpt lat="40.919109" lon="-1.305934">
        <ele>889.079</ele>
        <time>1999-11-30T00:00:00Z</time>
      </trkpt>
      <trkpt lat="40.918925" lon="-1.306067">
        <ele>890.053</ele>
        <time>1999-11-30T00:00:00Z</time>
      </trkpt>
      <trkpt lat="40.917952" lon="-1.306956">
        <ele>890.018</ele>
        <time>1999-11-30T00:00:00Z</time>
      </trkpt>
      <trkpt lat="40.917572" lon="-1.307317">
        <ele>890.077</ele>
        <time>1999-11-30T00:00:00Z</time>
      </trkpt>
      <trkpt lat="40.916518" lon="-1.308252">
        <ele>890.058</ele>
        <time>1999-11-30T00:00:00Z</time>
      </trkpt>
      <trkpt lat="40.916101" lon="-1.308687">
        <ele>890.096</ele>
        <time>1999-11-30T00:00:00Z</time>
      </trkpt>
      <trkpt lat="40.915958" lon="-1.308905">
        <ele>890.044</ele>
        <time>1999-11-30T00:00:00Z</time>
      </trkpt>
      <trkpt lat="40.915736" lon="-1.309243">
        <ele>890.005</ele>
        <time>1999-11-30T00:00:00Z</time>
      </trkpt>
      <trkpt lat="40.915595" lon="-1.309559">
        <ele>890.015</ele>
        <time>1999-11-30T00:00:00Z</time>
      </trkpt>
      <trkpt lat="40.915387" lon="-1.309784">
        <ele>890.008</ele>
        <time>1999-11-30T00:00:00Z</time>
      </trkpt>
      <trkpt lat="40.914742" lon="-1.310367">
        <ele>890.025</ele>
        <time>1999-11-30T00:00:00Z</time>
      </trkpt>
      <trkpt lat="40.914473" lon="-1.31055">
        <ele>890.099</ele>
        <time>1999-11-30T00:00:00Z</time>
      </trkpt>
      <trkpt lat="40.91409" lon="-1.310779">
        <ele>890.080</ele>
        <time>1999-11-30T00:00:00Z</time>
      </trkpt>
      <trkpt lat="40.913511" lon="-1.311125">
        <ele>890.074</ele>
        <time>1999-11-30T00:00:00Z</time>
      </trkpt>
      <trkpt lat="40.913365" lon="-1.311307">
        <ele>890.079</ele>
        <time>1999-11-30T00:00:00Z</time>
      </trkpt>
      <trkpt lat="40.913089" lon="-1.311683">
        <ele>890.068</ele>
        <time>1999-11-30T00:00:00Z</time>
      </trkpt>
      <trkpt lat="40.912633" lon="-1.312137">
        <ele>889.049</ele>
        <time>1999-11-30T00:00:00Z</time>
      </trkpt>
      <trkpt lat="40.912259" lon="-1.312464">
        <ele>890.037</ele>
        <time>1999-11-30T00:00:00Z</time>
      </trkpt>
      <trkpt lat="40.911644" lon="-1.312856">
        <ele>890.073</ele>
        <time>1999-11-30T00:00:00Z</time>
      </trkpt>
      <trkpt lat="40.911087" lon="-1.313304">
        <ele>890.085</ele>
        <time>1999-11-30T00:00:00Z</time>
      </trkpt>
      <trkpt lat="40.910684" lon="-1.313568">
        <ele>890.013</ele>
        <time>1999-11-30T00:00:00Z</time>
      </trkpt>
      <trkpt lat="40.910426" lon="-1.313767">
        <ele>890.008</ele>
        <time>1999-11-30T00:00:00Z</time>
      </trkpt>
      <trkpt lat="40.910136" lon="-1.31405">
        <ele>891.068</ele>
        <time>1999-11-30T00:00:00Z</time>
      </trkpt>
      <trkpt lat="40.909887" lon="-1.314241">
        <ele>891.092</ele>
        <time>1999-11-30T00:00:00Z</time>
      </trkpt>
      <trkpt lat="40.909616" lon="-1.314361">
        <ele>892.023</ele>
        <time>1999-11-30T00:00:00Z</time>
      </trkpt>
      <trkpt lat="40.909199" lon="-1.31439">
        <ele>892.027</ele>
        <time>1999-11-30T00:00:00Z</time>
      </trkpt>
      <trkpt lat="40.908608" lon="-1.314511">
        <ele>892.012</ele>
        <time>1999-11-30T00:00:00Z</time>
      </trkpt>
      <trkpt lat="40.908159" lon="-1.314605">
        <ele>892.031</ele>
        <time>1999-11-30T00:00:00Z</time>
      </trkpt>
      <trkpt lat="40.907702" lon="-1.314821">
        <ele>893.092</ele>
        <time>1999-11-30T00:00:00Z</time>
      </trkpt>
      <trkpt lat="40.907389" lon="-1.314969">
        <ele>894.040</ele>
        <time>1999-11-30T00:00:00Z</time>
      </trkpt>
      <trkpt lat="40.907276" lon="-1.315077">
        <ele>894.079</ele>
        <time>1999-11-30T00:00:00Z</time>
      </trkpt>
      <trkpt lat="40.907114" lon="-1.31533">
        <ele>896.005</ele>
        <time>1999-11-30T00:00:00Z</time>
      </trkpt>
      <trkpt lat="40.907014" lon="-1.315612">
        <ele>897.025</ele>
        <time>1999-11-30T00:00:00Z</time>
      </trkpt>
      <trkpt lat="40.906863" lon="-1.316393">
        <ele>898.008</ele>
        <time>1999-11-30T00:00:00Z</time>
      </trkpt>
      <trkpt lat="40.906771" lon="-1.316701">
        <ele>899.038</ele>
        <time>1999-11-30T00:00:00Z</time>
      </trkpt>
      <trkpt lat="40.90659" lon="-1.317083">
        <ele>899.062</ele>
        <time>1999-11-30T00:00:00Z</time>
      </trkpt>
      <trkpt lat="40.906252" lon="-1.317676">
        <ele>898.023</ele>
        <time>1999-11-30T00:00:00Z</time>
      </trkpt>
      <trkpt lat="40.905973" lon="-1.318166">
        <ele>899.057</ele>
        <time>1999-11-30T00:00:00Z</time>
      </trkpt>
      <trkpt lat="40.905714" lon="-1.318675">
        <ele>898.072</ele>
        <time>1999-11-30T00:00:00Z</time>
      </trkpt>
      <trkpt lat="40.905558" lon="-1.318935">
        <ele>899.021</ele>
        <time>1999-11-30T00:00:00Z</time>
      </trkpt>
      <trkpt lat="40.9054" lon="-1.31912">
        <ele>898.012</ele>
        <time>1999-11-30T00:00:00Z</time>
      </trkpt>
      <trkpt lat="40.905181" lon="-1.319213">
        <ele>898.080</ele>
        <time>1999-11-30T00:00:00Z</time>
      </trkpt>
      <trkpt lat="40.904939" lon="-1.31929">
        <ele>897.053</ele>
        <time>1999-11-30T00:00:00Z</time>
      </trkpt>
      <trkpt lat="40.904699" lon="-1.319285">
        <ele>898.004</ele>
        <time>1999-11-30T00:00:00Z</time>
      </trkpt>
      <trkpt lat="40.904439" lon="-1.319337">
        <ele>899.014</ele>
        <time>1999-11-30T00:00:00Z</time>
      </trkpt>
      <trkpt lat="40.904177" lon="-1.319415">
        <ele>898.008</ele>
        <time>1999-11-30T00:00:00Z</time>
      </trkpt>
      <trkpt lat="40.903892" lon="-1.31954">
        <ele>899.016</ele>
        <time>1999-11-30T00:00:00Z</time>
      </trkpt>
      <trkpt lat="40.903618" lon="-1.319626">
        <ele>899.020</ele>
        <time>1999-11-30T00:00:00Z</time>
      </trkpt>
      <trkpt lat="40.903437" lon="-1.319588">
        <ele>898.041</ele>
        <time>1999-11-30T00:00:00Z</time>
      </trkpt>
      <trkpt lat="40.903231" lon="-1.31953">
        <ele>897.075</ele>
        <time>1999-11-30T00:00:00Z</time>
      </trkpt>
      <trkpt lat="40.903016" lon="-1.319532">
        <ele>897.030</ele>
        <time>1999-11-30T00:00:00Z</time>
      </trkpt>
      <trkpt lat="40.902801" lon="-1.319522">
        <ele>898.019</ele>
        <time>1999-11-30T00:00:00Z</time>
      </trkpt>
      <trkpt lat="40.902617" lon="-1.319489">
        <ele>899.010</ele>
        <time>1999-11-30T00:00:00Z</time>
      </trkpt>
      <trkpt lat="40.902461" lon="-1.319327">
        <ele>898.058</ele>
        <time>1999-11-30T00:00:00Z</time>
      </trkpt>
      <trkpt lat="40.902206" lon="-1.318994">
        <ele>898.094</ele>
        <time>1999-11-30T00:00:00Z</time>
      </trkpt>
      <trkpt lat="40.902075" lon="-1.318816">
        <ele>897.057</ele>
        <time>1999-11-30T00:00:00Z</time>
      </trkpt>
      <trkpt lat="40.90198" lon="-1.318407">
        <ele>896.022</ele>
        <time>1999-11-30T00:00:00Z</time>
      </trkpt>
      <trkpt lat="40.901841" lon="-1.317875">
        <ele>896.008</ele>
        <time>1999-11-30T00:00:00Z</time>
      </trkpt>
      <trkpt lat="40.901796" lon="-1.317774">
        <ele>896.030</ele>
        <time>1999-11-30T00:00:00Z</time>
      </trkpt>
      <trkpt lat="40.901742" lon="-1.317757">
        <ele>897.014</ele>
        <time>1999-11-30T00:00:00Z</time>
      </trkpt>
      <trkpt lat="40.901597" lon="-1.317836">
        <ele>896.065</ele>
        <time>1999-11-30T00:00:00Z</time>
      </trkpt>
      <trkpt lat="40.901259" lon="-1.318018">
        <ele>897.019</ele>
        <time>1999-11-30T00:00:00Z</time>
      </trkpt>
      <trkpt lat="40.900997" lon="-1.318126">
        <ele>898.074</ele>
        <time>1999-11-30T00:00:00Z</time>
      </trkpt>
      <trkpt lat="40.900781" lon="-1.318223">
        <ele>899.053</ele>
        <time>1999-11-30T00:00:00Z</time>
      </trkpt>
      <trkpt lat="40.900559" lon="-1.318266">
        <ele>900.044</ele>
        <time>1999-11-30T00:00:00Z</time>
      </trkpt>
      <trkpt lat="40.900296" lon="-1.318347">
        <ele>902.022</ele>
        <time>1999-11-30T00:00:00Z</time>
      </trkpt>
      <trkpt lat="40.900078" lon="-1.318493">
        <ele>903.041</ele>
        <time>1999-11-30T00:00:00Z</time>
      </trkpt>
      <trkpt lat="40.899673" lon="-1.31882">
        <ele>903.081</ele>
        <time>1999-11-30T00:00:00Z</time>
      </trkpt>
      <trkpt lat="40.899232" lon="-1.319171">
        <ele>902.009</ele>
        <time>1999-11-30T00:00:00Z</time>
      </trkpt>
      <trkpt lat="40.898904" lon="-1.319485">
        <ele>900.008</ele>
        <time>1999-11-30T00:00:00Z</time>
      </trkpt>
      <trkpt lat="40.898764" lon="-1.319669">
        <ele>900.035</ele>
        <time>1999-11-30T00:00:00Z</time>
      </trkpt>
      <trkpt lat="40.898645" lon="-1.319786">
        <ele>900.099</ele>
        <time>1999-11-30T00:00:00Z</time>
      </trkpt>
      <trkpt lat="40.898532" lon="-1.319901">
        <ele>900.050</ele>
        <time>1999-11-30T00:00:00Z</time>
      </trkpt>
      <trkpt lat="40.898241" lon="-1.320098">
        <ele>900.014</ele>
        <time>1999-11-30T00:00:00Z</time>
      </trkpt>
      <trkpt lat="40.898065" lon="-1.320231">
        <ele>900.079</ele>
        <time>1999-11-30T00:00:00Z</time>
      </trkpt>
      <trkpt lat="40.897867" lon="-1.320394">
        <ele>900.048</ele>
        <time>1999-11-30T00:00:00Z</time>
      </trkpt>
      <trkpt lat="40.897677" lon="-1.320501">
        <ele>900.039</ele>
        <time>1999-11-30T00:00:00Z</time>
      </trkpt>
      <trkpt lat="40.897377" lon="-1.320591">
        <ele>900.067</ele>
        <time>1999-11-30T00:00:00Z</time>
      </trkpt>
      <trkpt lat="40.897166" lon="-1.320623">
        <ele>900.021</ele>
        <time>1999-11-30T00:00:00Z</time>
      </trkpt>
      <trkpt lat="40.896969" lon="-1.320707">
        <ele>900.041</ele>
        <time>1999-11-30T00:00:00Z</time>
      </trkpt>
      <trkpt lat="40.89682" lon="-1.320828">
        <ele>900.005</ele>
        <time>1999-11-30T00:00:00Z</time>
      </trkpt>
      <trkpt lat="40.896699" lon="-1.321009">
        <ele>900.008</ele>
        <time>1999-11-30T00:00:00Z</time>
      </trkpt>
      <trkpt lat="40.896557" lon="-1.321295">
        <ele>900.033</ele>
        <time>1999-11-30T00:00:00Z</time>
      </trkpt>
      <trkpt lat="40.896415" lon="-1.321547">
        <ele>900.077</ele>
        <time>1999-11-30T00:00:00Z</time>
      </trkpt>
      <trkpt lat="40.896274" lon="-1.321668">
        <ele>900.048</ele>
        <time>1999-11-30T00:00:00Z</time>
      </trkpt>
      <trkpt lat="40.895981" lon="-1.321803">
        <ele>900.042</ele>
        <time>1999-11-30T00:00:00Z</time>
      </trkpt>
      <trkpt lat="40.895692" lon="-1.321999">
        <ele>900.077</ele>
        <time>1999-11-30T00:00:00Z</time>
      </trkpt>
      <trkpt lat="40.895414" lon="-1.322241">
        <ele>900.026</ele>
        <time>1999-11-30T00:00:00Z</time>
      </trkpt>
      <trkpt lat="40.895288" lon="-1.322368">
        <ele>900.057</ele>
        <time>1999-11-30T00:00:00Z</time>
      </trkpt>
      <trkpt lat="40.895225" lon="-1.322433">
        <ele>900.055</ele>
        <time>1999-11-30T00:00:00Z</time>
      </trkpt>
      <trkpt lat="40.895172" lon="-1.322515">
        <ele>900.087</ele>
        <time>1999-11-30T00:00:00Z</time>
      </trkpt>
      <trkpt lat="40.895159" lon="-1.322628">
        <ele>900.042</ele>
        <time>1999-11-30T00:00:00Z</time>
      </trkpt>
      <trkpt lat="40.89515" lon="-1.322745">
        <ele>900.026</ele>
        <time>1999-11-30T00:00:00Z</time>
      </trkpt>
      <trkpt lat="40.895071" lon="-1.32283">
        <ele>900.008</ele>
        <time>1999-11-30T00:00:00Z</time>
      </trkpt>
      <trkpt lat="40.894893" lon="-1.322956">
        <ele>900.019</ele>
        <time>1999-11-30T00:00:00Z</time>
      </trkpt>
      <trkpt lat="40.894732" lon="-1.323122">
        <ele>900.033</ele>
        <time>1999-11-30T00:00:00Z</time>
      </trkpt>
      <trkpt lat="40.89455" lon="-1.323398">
        <ele>900.054</ele>
        <time>1999-11-30T00:00:00Z</time>
      </trkpt>
      <trkpt lat="40.894327" lon="-1.323833">
        <ele>899.068</ele>
        <time>1999-11-30T00:00:00Z</time>
      </trkpt>
      <trkpt lat="40.894083" lon="-1.324334">
        <ele>899.063</ele>
        <time>1999-11-30T00:00:00Z</time>
      </trkpt>
      <trkpt lat="40.893956" lon="-1.324515">
        <ele>899.042</ele>
        <time>1999-11-30T00:00:00Z</time>
      </trkpt>
      <trkpt lat="40.893727" lon="-1.324671">
        <ele>899.093</ele>
        <time>1999-11-30T00:00:00Z</time>
      </trkpt>
      <trkpt lat="40.893533" lon="-1.324914">
        <ele>899.051</ele>
        <time>1999-11-30T00:00:00Z</time>
      </trkpt>
      <trkpt lat="40.893171" lon="-1.32524">
        <ele>899.033</ele>
        <time>1999-11-30T00:00:00Z</time>
      </trkpt>
      <trkpt lat="40.892834" lon="-1.325524">
        <ele>899.023</ele>
        <time>1999-11-30T00:00:00Z</time>
      </trkpt>
      <trkpt lat="40.892571" lon="-1.325707">
        <ele>899.015</ele>
        <time>1999-11-30T00:00:00Z</time>
      </trkpt>
      <trkpt lat="40.892422" lon="-1.325892">
        <ele>899.008</ele>
        <time>1999-11-30T00:00:00Z</time>
      </trkpt>
      <trkpt lat="40.892217" lon="-1.326199">
        <ele>900.094</ele>
        <time>1999-11-30T00:00:00Z</time>
      </trkpt>
      <trkpt lat="40.892086" lon="-1.326451">
        <ele>900.098</ele>
        <time>1999-11-30T00:00:00Z</time>
      </trkpt>
      <trkpt lat="40.891989" lon="-1.326635">
        <ele>900.039</ele>
        <time>1999-11-30T00:00:00Z</time>
      </trkpt>
      <trkpt lat="40.891664" lon="-1.326938">
        <ele>901.053</ele>
        <time>1999-11-30T00:00:00Z</time>
      </trkpt>
      <trkpt lat="40.89146" lon="-1.327067">
        <ele>901.078</ele>
        <time>1999-11-30T00:00:00Z</time>
      </trkpt>
      <trkpt lat="40.891057" lon="-1.327175">
        <ele>901.077</ele>
        <time>1999-11-30T00:00:00Z</time>
      </trkpt>
      <trkpt lat="40.890816" lon="-1.327295">
        <ele>901.058</ele>
        <time>1999-11-30T00:00:00Z</time>
      </trkpt>
      <trkpt lat="40.890385" lon="-1.327562">
        <ele>902.046</ele>
        <time>1999-11-30T00:00:00Z</time>
      </trkpt>
      <trkpt lat="40.890016" lon="-1.327831">
        <ele>902.032</ele>
        <time>1999-11-30T00:00:00Z</time>
      </trkpt>
      <trkpt lat="40.889549" lon="-1.328149">
        <ele>903.092</ele>
        <time>1999-11-30T00:00:00Z</time>
      </trkpt>
      <trkpt lat="40.889305" lon="-1.328314">
        <ele>903.011</ele>
        <time>1999-11-30T00:00:00Z</time>
      </trkpt>
      <trkpt lat="40.889173" lon="-1.328505">
        <ele>904.008</ele>
        <time>1999-11-30T00:00:00Z</time>
      </trkpt>
      <trkpt lat="40.889017" lon="-1.328653">
        <ele>903.014</ele>
        <time>1999-11-30T00:00:00Z</time>
      </trkpt>
      <trkpt lat="40.888567" lon="-1.328955">
        <ele>904.028</ele>
        <time>1999-11-30T00:00:00Z</time>
      </trkpt>
      <trkpt lat="40.888324" lon="-1.329179">
        <ele>904.059</ele>
        <time>1999-11-30T00:00:00Z</time>
      </trkpt>
      <trkpt lat="40.888195" lon="-1.329341">
        <ele>904.083</ele>
        <time>1999-11-30T00:00:00Z</time>
      </trkpt>
      <trkpt lat="40.888068" lon="-1.32948">
        <ele>904.028</ele>
        <time>1999-11-30T00:00:00Z</time>
      </trkpt>
      <trkpt lat="40.887849" lon="-1.329565">
        <ele>904.027</ele>
        <time>1999-11-30T00:00:00Z</time>
      </trkpt>
      <trkpt lat="40.887587" lon="-1.329632">
        <ele>904.068</ele>
        <time>1999-11-30T00:00:00Z</time>
      </trkpt>
      <trkpt lat="40.887226" lon="-1.330048">
        <ele>905.046</ele>
        <time>1999-11-30T00:00:00Z</time>
      </trkpt>
      <trkpt lat="40.886879" lon="-1.330423">
        <ele>906.021</ele>
        <time>1999-11-30T00:00:00Z</time>
      </trkpt>
      <trkpt lat="40.886454" lon="-1.330693">
        <ele>907.041</ele>
        <time>1999-11-30T00:00:00Z</time>
      </trkpt>
      <trkpt lat="40.885991" lon="-1.330993">
        <ele>907.005</ele>
        <time>1999-11-30T00:00:00Z</time>
      </trkpt>
      <trkpt lat="40.88541" lon="-1.331339">
        <ele>908.008</ele>
        <time>1999-11-30T00:00:00Z</time>
      </trkpt>
      <trkpt lat="40.885302" lon="-1.331398">
        <ele>908.043</ele>
        <time>1999-11-30T00:00:00Z</time>
      </trkpt>
      <trkpt lat="40.885227" lon="-1.331526">
        <ele>908.097</ele>
        <time>1999-11-30T00:00:00Z</time>
      </trkpt>
      <trkpt lat="40.885073" lon="-1.332017">
        <ele>910.068</ele>
        <time>1999-11-30T00:00:00Z</time>
      </trkpt>
      <trkpt lat="40.885007" lon="-1.332224">
        <ele>911.032</ele>
        <time>1999-11-30T00:00:00Z</time>
      </trkpt>
      <trkpt lat="40.884678" lon="-1.332406">
        <ele>911.057</ele>
        <time>1999-11-30T00:00:00Z</time>
      </trkpt>
      <trkpt lat="40.884182" lon="-1.332739">
        <ele>911.046</ele>
        <time>1999-11-30T00:00:00Z</time>
      </trkpt>
      <trkpt lat="40.884101" lon="-1.332941">
        <ele>913.087</ele>
        <time>1999-11-30T00:00:00Z</time>
      </trkpt>
      <trkpt lat="40.883947" lon="-1.332949">
        <ele>912.065</ele>
        <time>1999-11-30T00:00:00Z</time>
      </trkpt>
      <trkpt lat="40.883884" lon="-1.333127">
        <ele>914.022</ele>
        <time>1999-11-30T00:00:00Z</time>
      </trkpt>
      <trkpt lat="40.88363" lon="-1.333028">
        <ele>912.062</ele>
        <time>1999-11-30T00:00:00Z</time>
      </trkpt>
      <trkpt lat="40.883606" lon="-1.333142">
        <ele>913.008</ele>
        <time>1999-11-30T00:00:00Z</time>
      </trkpt>
      <trkpt lat="40.883251" lon="-1.333105">
        <ele>913.008</ele>
        <time>1999-11-30T00:00:00Z</time>
      </trkpt>
      <trkpt lat="40.882951" lon="-1.332943">
        <ele>911.063</ele>
        <time>1999-11-30T00:00:00Z</time>
      </trkpt>
      <trkpt lat="40.882811" lon="-1.332796">
        <ele>910.097</ele>
        <time>1999-11-30T00:00:00Z</time>
      </trkpt>
      <trkpt lat="40.882615" lon="-1.332047">
        <ele>907.058</ele>
        <time>1999-11-30T00:00:00Z</time>
      </trkpt>
      <trkpt lat="40.882294" lon="-1.33047">
        <ele>903.092</ele>
        <time>1999-11-30T00:00:00Z</time>
      </trkpt>
      <trkpt lat="40.882148" lon="-1.329885">
        <ele>901.057</ele>
        <time>1999-11-30T00:00:00Z</time>
      </trkpt>
      <trkpt lat="40.881935" lon="-1.329393">
        <ele>900.086</ele>
        <time>1999-11-30T00:00:00Z</time>
      </trkpt>
      <trkpt lat="40.88173" lon="-1.329069">
        <ele>900.027</ele>
        <time>1999-11-30T00:00:00Z</time>
      </trkpt>
      <trkpt lat="40.881501" lon="-1.328905">
        <ele>900.035</ele>
        <time>1999-11-30T00:00:00Z</time>
      </trkpt>
      <trkpt lat="40.881275" lon="-1.328749">
        <ele>900.099</ele>
        <time>1999-11-30T00:00:00Z</time>
      </trkpt>
      <trkpt lat="40.88108" lon="-1.328694">
        <ele>900.007</ele>
        <time>1999-11-30T00:00:00Z</time>
      </trkpt>
      <trkpt lat="40.880891" lon="-1.328672">
        <ele>901.027</ele>
        <time>1999-11-30T00:00:00Z</time>
      </trkpt>
      <trkpt lat="40.880656" lon="-1.328648">
        <ele>902.008</ele>
        <time>1999-11-30T00:00:00Z</time>
      </trkpt>
      <trkpt lat="40.880464" lon="-1.328668">
        <ele>902.050</ele>
        <time>1999-11-30T00:00:00Z</time>
      </trkpt>
      <trkpt lat="40.880257" lon="-1.328763">
        <ele>902.034</ele>
        <time>1999-11-30T00:00:00Z</time>
      </trkpt>
      <trkpt lat="40.879835" lon="-1.328951">
        <ele>902.075</ele>
        <time>1999-11-30T00:00:00Z</time>
      </trkpt>
      <trkpt lat="40.879477" lon="-1.32907">
        <ele>901.029</ele>
        <time>1999-11-30T00:00:00Z</time>
      </trkpt>
      <trkpt lat="40.878641" lon="-1.32911">
        <ele>902.014</ele>
        <time>1999-11-30T00:00:00Z</time>
      </trkpt>
      <trkpt lat="40.877558" lon="-1.329186">
        <ele>902.093</ele>
        <time>1999-11-30T00:00:00Z</time>
      </trkpt>
      <trkpt lat="40.876867" lon="-1.329181">
        <ele>902.034</ele>
        <time>1999-11-30T00:00:00Z</time>
      </trkpt>
      <trkpt lat="40.876744" lon="-1.329165">
        <ele>902.062</ele>
        <time>1999-11-30T00:00:00Z</time>
      </trkpt>
      <trkpt lat="40.876306" lon="-1.328788">
        <ele>903.078</ele>
        <time>1999-11-30T00:00:00Z</time>
      </trkpt>
      <trkpt lat="40.876122" lon="-1.328687">
        <ele>903.033</ele>
        <time>1999-11-30T00:00:00Z</time>
      </trkpt>
      <trkpt lat="40.875928" lon="-1.328575">
        <ele>904.026</ele>
        <time>1999-11-30T00:00:00Z</time>
      </trkpt>
      <trkpt lat="40.874619" lon="-1.327518">
        <ele>906.008</ele>
        <time>1999-11-30T00:00:00Z</time>
      </trkpt>
      <trkpt lat="40.874303" lon="-1.327281">
        <ele>906.018</ele>
        <time>1999-11-30T00:00:00Z</time>
      </trkpt>
      <trkpt lat="40.874138" lon="-1.327111">
        <ele>906.052</ele>
        <time>1999-11-30T00:00:00Z</time>
      </trkpt>
      <trkpt lat="40.874" lon="-1.326904">
        <ele>907.073</ele>
        <time>1999-11-30T00:00:00Z</time>
      </trkpt>
      <trkpt lat="40.873809" lon="-1.326716">
        <ele>907.077</ele>
        <time>1999-11-30T00:00:00Z</time>
      </trkpt>
      <trkpt lat="40.872959" lon="-1.325964">
        <ele>907.092</ele>
        <time>1999-11-30T00:00:00Z</time>
      </trkpt>
      <trkpt lat="40.872619" lon="-1.325622">
        <ele>908.031</ele>
        <time>1999-11-30T00:00:00Z</time>
      </trkpt>
      <trkpt lat="40.872385" lon="-1.325469">
        <ele>908.012</ele>
        <time>1999-11-30T00:00:00Z</time>
      </trkpt>
      <trkpt lat="40.872098" lon="-1.325217">
        <ele>908.060</ele>
        <time>1999-11-30T00:00:00Z</time>
      </trkpt>
      <trkpt lat="40.871822" lon="-1.324956">
        <ele>909.052</ele>
        <time>1999-11-30T00:00:00Z</time>
      </trkpt>
      <trkpt lat="40.87157" lon="-1.324773">
        <ele>909.053</ele>
        <time>1999-11-30T00:00:00Z</time>
      </trkpt>
      <trkpt lat="40.871264" lon="-1.324404">
        <ele>909.008</ele>
        <time>1999-11-30T00:00:00Z</time>
      </trkpt>
      <trkpt lat="40.871027" lon="-1.324225">
        <ele>909.008</ele>
        <time>1999-11-30T00:00:00Z</time>
      </trkpt>
      <trkpt lat="40.870762" lon="-1.324115">
        <ele>910.046</ele>
        <time>1999-11-30T00:00:00Z</time>
      </trkpt>
      <trkpt lat="40.870487" lon="-1.324092">
        <ele>910.060</ele>
        <time>1999-11-30T00:00:00Z</time>
      </trkpt>
      <trkpt lat="40.869996" lon="-1.32418">
        <ele>910.071</ele>
        <time>1999-11-30T00:00:00Z</time>
      </trkpt>
      <trkpt lat="40.869723" lon="-1.324281">
        <ele>910.065</ele>
        <time>1999-11-30T00:00:00Z</time>
      </trkpt>
      <trkpt lat="40.869413" lon="-1.32445">
        <ele>910.070</ele>
        <time>1999-11-30T00:00:00Z</time>
      </trkpt>
      <trkpt lat="40.869281" lon="-1.32459">
        <ele>910.099</ele>
        <time>1999-11-30T00:00:00Z</time>
      </trkpt>
      <trkpt lat="40.868971" lon="-1.324997">
        <ele>910.040</ele>
        <time>1999-11-30T00:00:00Z</time>
      </trkpt>
      <trkpt lat="40.868806" lon="-1.325066">
        <ele>910.068</ele>
        <time>1999-11-30T00:00:00Z</time>
      </trkpt>
      <trkpt lat="40.868596" lon="-1.325007">
        <ele>910.094</ele>
        <time>1999-11-30T00:00:00Z</time>
      </trkpt>
      <trkpt lat="40.868371" lon="-1.324895">
        <ele>910.057</ele>
        <time>1999-11-30T00:00:00Z</time>
      </trkpt>
      <trkpt lat="40.868213" lon="-1.324847">
        <ele>910.022</ele>
        <time>1999-11-30T00:00:00Z</time>
      </trkpt>
      <trkpt lat="40.867953" lon="-1.324812">
        <ele>910.008</ele>
        <time>1999-11-30T00:00:00Z</time>
      </trkpt>
      <trkpt lat="40.867552" lon="-1.324622">
        <ele>910.060</ele>
        <time>1999-11-30T00:00:00Z</time>
      </trkpt>
      <trkpt lat="40.867197" lon="-1.324217">
        <ele>910.034</ele>
        <time>1999-11-30T00:00:00Z</time>
      </trkpt>
      <trkpt lat="40.866954" lon="-1.323894">
        <ele>910.035</ele>
        <time>1999-11-30T00:00:00Z</time>
      </trkpt>
      <trkpt lat="40.866828" lon="-1.323863">
        <ele>910.019</ele>
        <time>1999-11-30T00:00:00Z</time>
      </trkpt>
      <trkpt lat="40.866517" lon="-1.323985">
        <ele>910.064</ele>
        <time>1999-11-30T00:00:00Z</time>
      </trkpt>
      <trkpt lat="40.865704" lon="-1.324344">
        <ele>910.043</ele>
        <time>1999-11-30T00:00:00Z</time>
      </trkpt>
      <trkpt lat="40.86562" lon="-1.324286">
        <ele>910.044</ele>
        <time>1999-11-30T00:00:00Z</time>
      </trkpt>
      <trkpt lat="40.865286" lon="-1.324151">
        <ele>910.012</ele>
        <time>1999-11-30T00:00:00Z</time>
      </trkpt>
      <trkpt lat="40.864874" lon="-1.323954">
        <ele>910.097</ele>
        <time>1999-11-30T00:00:00Z</time>
      </trkpt>
      <trkpt lat="40.86483" lon="-1.323884">
        <ele>910.023</ele>
        <time>1999-11-30T00:00:00Z</time>
      </trkpt>
      <trkpt lat="40.864598" lon="-1.323894">
        <ele>910.025</ele>
        <time>1999-11-30T00:00:00Z</time>
      </trkpt>
      <trkpt lat="40.863815" lon="-1.323604">
        <ele>910.008</ele>
        <time>1999-11-30T00:00:00Z</time>
      </trkpt>
      <trkpt lat="40.863561" lon="-1.323599">
        <ele>910.080</ele>
        <time>1999-11-30T00:00:00Z</time>
      </trkpt>
      <trkpt lat="40.863467" lon="-1.323508">
        <ele>910.014</ele>
        <time>1999-11-30T00:00:00Z</time>
      </trkpt>
      <trkpt lat="40.863302" lon="-1.322991">
        <ele>910.035</ele>
        <time>1999-11-30T00:00:00Z</time>
      </trkpt>
      <trkpt lat="40.863174" lon="-1.322831">
        <ele>910.099</ele>
        <time>1999-11-30T00:00:00Z</time>
      </trkpt>
      <trkpt lat="40.861632" lon="-1.32232">
        <ele>910.074</ele>
        <time>1999-11-30T00:00:00Z</time>
      </trkpt>
      <trkpt lat="40.860637" lon="-1.321961">
        <ele>910.023</ele>
        <time>1999-11-30T00:00:00Z</time>
      </trkpt>
      <trkpt lat="40.86038" lon="-1.321862">
        <ele>910.044</ele>
        <time>1999-11-30T00:00:00Z</time>
      </trkpt>
      <trkpt lat="40.860261" lon="-1.321921">
        <ele>910.032</ele>
        <time>1999-11-30T00:00:00Z</time>
      </trkpt>
      <trkpt lat="40.85934" lon="-1.322567">
        <ele>910.032</ele>
        <time>1999-11-30T00:00:00Z</time>
      </trkpt>
      <trkpt lat="40.859152" lon="-1.322601">
        <ele>910.092</ele>
        <time>1999-11-30T00:00:00Z</time>
      </trkpt>
      <trkpt lat="40.858496" lon="-1.322588">
        <ele>910.011</ele>
        <time>1999-11-30T00:00:00Z</time>
      </trkpt>
      <trkpt lat="40.857228" lon="-1.322575">
        <ele>911.008</ele>
        <time>1999-11-30T00:00:00Z</time>
      </trkpt>
      <trkpt lat="40.856453" lon="-1.322508">
        <ele>911.024</ele>
        <time>1999-11-30T00:00:00Z</time>
      </trkpt>
      <trkpt lat="40.85575" lon="-1.322582">
        <ele>911.098</ele>
        <time>1999-11-30T00:00:00Z</time>
      </trkpt>
      <trkpt lat="40.854994" lon="-1.322533">
        <ele>912.049</ele>
        <time>1999-11-30T00:00:00Z</time>
      </trkpt>
      <trkpt lat="40.854645" lon="-1.322564">
        <ele>912.043</ele>
        <time>1999-11-30T00:00:00Z</time>
      </trkpt>
      <trkpt lat="40.854266" lon="-1.322676">
        <ele>913.088</ele>
        <time>1999-11-30T00:00:00Z</time>
      </trkpt>
      <trkpt lat="40.85354" lon="-1.322777">
        <ele>913.037</ele>
        <time>1999-11-30T00:00:00Z</time>
      </trkpt>
      <trkpt lat="40.852734" lon="-1.322831">
        <ele>914.038</ele>
        <time>1999-11-30T00:00:00Z</time>
      </trkpt>
      <trkpt lat="40.852478" lon="-1.322777">
        <ele>915.086</ele>
        <time>1999-11-30T00:00:00Z</time>
      </trkpt>
      <trkpt lat="40.852365" lon="-1.322633">
        <ele>915.023</ele>
        <time>1999-11-30T00:00:00Z</time>
      </trkpt>
      <trkpt lat="40.852132" lon="-1.322375">
        <ele>916.083</ele>
        <time>1999-11-30T00:00:00Z</time>
      </trkpt>
      <trkpt lat="40.851768" lon="-1.322146">
        <ele>917.011</ele>
        <time>1999-11-30T00:00:00Z</time>
      </trkpt>
      <trkpt lat="40.851399" lon="-1.322009">
        <ele>918.008</ele>
        <time>1999-11-30T00:00:00Z</time>
      </trkpt>
      <trkpt lat="40.851021" lon="-1.322004">
        <ele>919.013</ele>
        <time>1999-11-30T00:00:00Z</time>
      </trkpt>
      <trkpt lat="40.850646" lon="-1.32201">
        <ele>919.037</ele>
        <time>1999-11-30T00:00:00Z</time>
      </trkpt>
      <trkpt lat="40.850235" lon="-1.322141">
        <ele>919.088</ele>
        <time>1999-11-30T00:00:00Z</time>
      </trkpt>
      <trkpt lat="40.849653" lon="-1.322396">
        <ele>918.052</ele>
        <time>1999-11-30T00:00:00Z</time>
      </trkpt>
      <trkpt lat="40.849233" lon="-1.32252">
        <ele>919.087</ele>
        <time>1999-11-30T00:00:00Z</time>
      </trkpt>
      <trkpt lat="40.848985" lon="-1.322733">
        <ele>918.046</ele>
        <time>1999-11-30T00:00:00Z</time>
      </trkpt>
      <trkpt lat="40.848525" lon="-1.32296">
        <ele>918.047</ele>
        <time>1999-11-30T00:00:00Z</time>
      </trkpt>
      <trkpt lat="40.848062" lon="-1.323281">
        <ele>917.035</ele>
        <time>1999-11-30T00:00:00Z</time>
      </trkpt>
      <trkpt lat="40.847808" lon="-1.323517">
        <ele>917.016</ele>
        <time>1999-11-30T00:00:00Z</time>
      </trkpt>
      <trkpt lat="40.847621" lon="-1.323608">
        <ele>916.076</ele>
        <time>1999-11-30T00:00:00Z</time>
      </trkpt>
      <trkpt lat="40.847363" lon="-1.323623">
        <ele>916.013</ele>
        <time>1999-11-30T00:00:00Z</time>
      </trkpt>
      <trkpt lat="40.846526" lon="-1.323587">
        <ele>919.008</ele>
        <time>1999-11-30T00:00:00Z</time>
      </trkpt>
      <trkpt lat="40.846284" lon="-1.323635">
        <ele>918.092</ele>
        <time>1999-11-30T00:00:00Z</time>
      </trkpt>
      <trkpt lat="40.845662" lon="-1.323605">
        <ele>919.066</ele>
        <time>1999-11-30T00:00:00Z</time>
      </trkpt>
      <trkpt lat="40.845087" lon="-1.323604">
        <ele>919.037</ele>
        <time>1999-11-30T00:00:00Z</time>
      </trkpt>
      <trkpt lat="40.844887" lon="-1.323617">
        <ele>919.041</ele>
        <time>1999-11-30T00:00:00Z</time>
      </trkpt>
      <trkpt lat="40.844616" lon="-1.323719">
        <ele>919.096</ele>
        <time>1999-11-30T00:00:00Z</time>
      </trkpt>
      <trkpt lat="40.843551" lon="-1.324284">
        <ele>919.035</ele>
        <time>1999-11-30T00:00:00Z</time>
      </trkpt>
      <trkpt lat="40.843258" lon="-1.324412">
        <ele>919.086</ele>
        <time>1999-11-30T00:00:00Z</time>
      </trkpt>
      <trkpt lat="40.842935" lon="-1.324443">
        <ele>919.014</ele>
        <time>1999-11-30T00:00:00Z</time>
      </trkpt>
      <trkpt lat="40.842588" lon="-1.324429">
        <ele>920.068</ele>
        <time>1999-11-30T00:00:00Z</time>
      </trkpt>
      <trkpt lat="40.842432" lon="-1.324482">
        <ele>920.042</ele>
        <time>1999-11-30T00:00:00Z</time>
      </trkpt>
      <trkpt lat="40.842102" lon="-1.324671">
        <ele>920.026</ele>
        <time>1999-11-30T00:00:00Z</time>
      </trkpt>
      <trkpt lat="40.841772" lon="-1.324792">
        <ele>920.008</ele>
        <time>1999-11-30T00:00:00Z</time>
      </trkpt>
      <trkpt lat="40.841432" lon="-1.324823">
        <ele>921.037</ele>
        <time>1999-11-30T00:00:00Z</time>
      </trkpt>
      <trkpt lat="40.840894" lon="-1.325086">
        <ele>921.061</ele>
        <time>1999-11-30T00:00:00Z</time>
      </trkpt>
      <trkpt lat="40.84053" lon="-1.325227">
        <ele>921.022</ele>
        <time>1999-11-30T00:00:00Z</time>
      </trkpt>
      <trkpt lat="40.840138" lon="-1.325267">
        <ele>921.026</ele>
        <time>1999-11-30T00:00:00Z</time>
      </trkpt>
      <trkpt lat="40.840043" lon="-1.325217">
        <ele>922.021</ele>
        <time>1999-11-30T00:00:00Z</time>
      </trkpt>
      <trkpt lat="40.839597" lon="-1.325213">
        <ele>922.060</ele>
        <time>1999-11-30T00:00:00Z</time>
      </trkpt>
      <trkpt lat="40.839241" lon="-1.325146">
        <ele>922.051</ele>
        <time>1999-11-30T00:00:00Z</time>
      </trkpt>
      <trkpt lat="40.838919" lon="-1.325061">
        <ele>922.099</ele>
        <time>1999-11-30T00:00:00Z</time>
      </trkpt>
      <trkpt lat="40.838473" lon="-1.325057">
        <ele>922.074</ele>
        <time>1999-11-30T00:00:00Z</time>
      </trkpt>
      <trkpt lat="40.838008" lon="-1.325201">
        <ele>922.056</ele>
        <time>1999-11-30T00:00:00Z</time>
      </trkpt>
      <trkpt lat="40.837662" lon="-1.325273">
        <ele>923.021</ele>
        <time>1999-11-30T00:00:00Z</time>
      </trkpt>
      <trkpt lat="40.837734" lon="-1.325671">
        <ele>922.008</ele>
        <time>1999-11-30T00:00:00Z</time>
      </trkpt>
      <trkpt lat="40.837265" lon="-1.325754">
        <ele>922.078</ele>
        <time>1999-11-30T00:00:00Z</time>
      </trkpt>
      <trkpt lat="40.837167" lon="-1.325888">
        <ele>922.082</ele>
        <time>1999-11-30T00:00:00Z</time>
      </trkpt>
      <trkpt lat="40.837044" lon="-1.325997">
        <ele>922.033</ele>
        <time>1999-11-30T00:00:00Z</time>
      </trkpt>
      <trkpt lat="40.836915" lon="-1.32665">
        <ele>922.057</ele>
        <time>1999-11-30T00:00:00Z</time>
      </trkpt>
      <trkpt lat="40.837034" lon="-1.327977">
        <ele>920.062</ele>
        <time>1999-11-30T00:00:00Z</time>
      </trkpt>
      <trkpt lat="40.837162" lon="-1.329343">
        <ele>919.031</ele>
        <time>1999-11-30T00:00:00Z</time>
      </trkpt>
      <trkpt lat="40.837325" lon="-1.330972">
        <ele>916.072</ele>
        <time>1999-11-30T00:00:00Z</time>
      </trkpt>
      <trkpt lat="40.83749" lon="-1.332515">
        <ele>915.090</ele>
        <time>1999-11-30T00:00:00Z</time>
      </trkpt>
      <trkpt lat="40.837494" lon="-1.333589">
        <ele>915.015</ele>
        <time>1999-11-30T00:00:00Z</time>
      </trkpt>
      <trkpt lat="40.837053" lon="-1.333593">
        <ele>915.065</ele>
        <time>1999-11-30T00:00:00Z</time>
      </trkpt>
      <trkpt lat="40.836755" lon="-1.333566">
        <ele>915.011</ele>
        <time>1999-11-30T00:00:00Z</time>
      </trkpt>
      <trkpt lat="40.836323" lon="-1.333581">
        <ele>916.008</ele>
        <time>1999-11-30T00:00:00Z</time>
      </trkpt>
      <trkpt lat="40.835737" lon="-1.333486">
        <ele>917.082</ele>
        <time>1999-11-30T00:00:00Z</time>
      </trkpt>
      <trkpt lat="40.835315" lon="-1.333429">
        <ele>917.096</ele>
        <time>1999-11-30T00:00:00Z</time>
      </trkpt>
      <trkpt lat="40.835083" lon="-1.333375">
        <ele>917.037</ele>
        <time>1999-11-30T00:00:00Z</time>
      </trkpt>
      <trkpt lat="40.83481" lon="-1.333121">
        <ele>917.051</ele>
        <time>1999-11-30T00:00:00Z</time>
      </trkpt>
      <trkpt lat="40.834556" lon="-1.332954">
        <ele>916.086</ele>
        <time>1999-11-30T00:00:00Z</time>
      </trkpt>
      <trkpt lat="40.834236" lon="-1.332566">
        <ele>916.025</ele>
        <time>1999-11-30T00:00:00Z</time>
      </trkpt>
      <trkpt lat="40.83394" lon="-1.33214">
        <ele>916.066</ele>
        <time>1999-11-30T00:00:00Z</time>
      </trkpt>
      <trkpt lat="40.83367" lon="-1.331891">
        <ele>917.084</ele>
        <time>1999-11-30T00:00:00Z</time>
      </trkpt>
      <trkpt lat="40.83345" lon="-1.331712">
        <ele>917.071</ele>
        <time>1999-11-30T00:00:00Z</time>
      </trkpt>
      <trkpt lat="40.833276" lon="-1.331554">
        <ele>917.041</ele>
        <time>1999-11-30T00:00:00Z</time>
      </trkpt>
      <trkpt lat="40.833143" lon="-1.331475">
        <ele>917.015</ele>
        <time>1999-11-30T00:00:00Z</time>
      </trkpt>
      <trkpt lat="40.832973" lon="-1.331422">
        <ele>918.008</ele>
        <time>1999-11-30T00:00:00Z</time>
      </trkpt>
      <trkpt lat="40.832868" lon="-1.331244">
        <ele>918.088</ele>
        <time>1999-11-30T00:00:00Z</time>
      </trkpt>
      <trkpt lat="40.832757" lon="-1.330911">
        <ele>918.022</ele>
        <time>1999-11-30T00:00:00Z</time>
      </trkpt>
      <trkpt lat="40.83269" lon="-1.33083">
        <ele>918.023</ele>
        <time>1999-11-30T00:00:00Z</time>
      </trkpt>
      <trkpt lat="40.832529" lon="-1.33083">
        <ele>918.027</ele>
        <time>1999-11-30T00:00:00Z</time>
      </trkpt>
      <trkpt lat="40.832238" lon="-1.330886">
        <ele>918.092</ele>
        <time>1999-11-30T00:00:00Z</time>
      </trkpt>
      <trkpt lat="40.831633" lon="-1.330973">
        <ele>919.081</ele>
        <time>1999-11-30T00:00:00Z</time>
      </trkpt>
      <trkpt lat="40.830988" lon="-1.331121">
        <ele>919.022</ele>
        <time>1999-11-30T00:00:00Z</time>
      </trkpt>
      <trkpt lat="40.830417" lon="-1.331241">
        <ele>919.020</ele>
        <time>1999-11-30T00:00:00Z</time>
      </trkpt>
      <trkpt lat="40.830298" lon="-1.331267">
        <ele>919.096</ele>
        <time>1999-11-30T00:00:00Z</time>
      </trkpt>
      <trkpt lat="40.830109" lon="-1.331303">
        <ele>919.031</ele>
        <time>1999-11-30T00:00:00Z</time>
      </trkpt>
      <trkpt lat="40.829771" lon="-1.331384">
        <ele>919.024</ele>
        <time>1999-11-30T00:00:00Z</time>
      </trkpt>
      <trkpt lat="40.829553" lon="-1.331458">
        <ele>919.008</ele>
        <time>1999-11-30T00:00:00Z</time>
      </trkpt>
      <trkpt lat="40.829392" lon="-1.331563">
        <ele>920.070</ele>
        <time>1999-11-30T00:00:00Z</time>
      </trkpt>
      <trkpt lat="40.829343" lon="-1.33172">
        <ele>920.064</ele>
        <time>1999-11-30T00:00:00Z</time>
      </trkpt>
      <trkpt lat="40.829164" lon="-1.332264">
        <ele>920.055</ele>
        <time>1999-11-30T00:00:00Z</time>
      </trkpt>
      <trkpt lat="40.829078" lon="-1.332357">
        <ele>920.059</ele>
        <time>1999-11-30T00:00:00Z</time>
      </trkpt>
      <trkpt lat="40.828471" lon="-1.332821">
        <ele>920.014</ele>
        <time>1999-11-30T00:00:00Z</time>
      </trkpt>
      <trkpt lat="40.828201" lon="-1.3329">
        <ele>920.033</ele>
        <time>1999-11-30T00:00:00Z</time>
      </trkpt>
      <trkpt lat="40.827519" lon="-1.333304">
        <ele>920.024</ele>
        <time>1999-11-30T00:00:00Z</time>
      </trkpt>
      <trkpt lat="40.827335" lon="-1.333472">
        <ele>920.022</ele>
        <time>1999-11-30T00:00:00Z</time>
      </trkpt>
      <trkpt lat="40.82724" lon="-1.333678">
        <ele>920.092</ele>
        <time>1999-11-30T00:00:00Z</time>
      </trkpt>
      <trkpt lat="40.827047" lon="-1.333891">
        <ele>920.073</ele>
        <time>1999-11-30T00:00:00Z</time>
      </trkpt>
      <trkpt lat="40.826266" lon="-1.334492">
        <ele>920.020</ele>
        <time>1999-11-30T00:00:00Z</time>
      </trkpt>
      <trkpt lat="40.82587" lon="-1.334791">
        <ele>920.008</ele>
        <time>1999-11-30T00:00:00Z</time>
      </trkpt>
      <trkpt lat="40.826056" lon="-1.335337">
        <ele>920.070</ele>
        <time>1999-11-30T00:00:00Z</time>
      </trkpt>
      <trkpt lat="40.826351" lon="-1.336414">
        <ele>921.034</ele>
        <time>1999-11-30T00:00:00Z</time>
      </trkpt>
      <trkpt lat="40.826409" lon="-1.336796">
        <ele>921.025</ele>
        <time>1999-11-30T00:00:00Z</time>
      </trkpt>
      <trkpt lat="40.826417" lon="-1.337497">
        <ele>923.079</ele>
        <time>1999-11-30T00:00:00Z</time>
      </trkpt>
      <trkpt lat="40.825785" lon="-1.337503">
        <ele>924.094</ele>
        <time>1999-11-30T00:00:00Z</time>
      </trkpt>
      <trkpt lat="40.825764" lon="-1.336928">
        <ele>922.023</ele>
        <time>1999-11-30T00:00:00Z</time>
      </trkpt>
      <trkpt lat="40.824978" lon="-1.336888">
        <ele>923.094</ele>
        <time>1999-11-30T00:00:00Z</time>
      </trkpt>
      <trkpt lat="40.823683" lon="-1.337168">
        <ele>926.082</ele>
        <time>1999-11-30T00:00:00Z</time>
      </trkpt>
      <trkpt lat="40.822826" lon="-1.337357">
        <ele>929.099</ele>
        <time>1999-11-30T00:00:00Z</time>
      </trkpt>
      <trkpt lat="40.822162" lon="-1.337458">
        <ele>931.007</ele>
        <time>1999-11-30T00:00:00Z</time>
      </trkpt>
      <trkpt lat="40.821481" lon="-1.33762">
        <ele>932.027</ele>
        <time>1999-11-30T00:00:00Z</time>
      </trkpt>
      <trkpt lat="40.821069" lon="-1.337696">
        <ele>933.008</ele>
        <time>1999-11-30T00:00:00Z</time>
      </trkpt>
      <trkpt lat="40.820466" lon="-1.337906">
        <ele>934.050</ele>
        <time>1999-11-30T00:00:00Z</time>
      </trkpt>
      <trkpt lat="40.819832" lon="-1.338154">
        <ele>934.054</ele>
        <time>1999-11-30T00:00:00Z</time>
      </trkpt>
      <trkpt lat="40.819054" lon="-1.338523">
        <ele>935.065</ele>
        <time>1999-11-30T00:00:00Z</time>
      </trkpt>
      <trkpt lat="40.818627" lon="-1.338747">
        <ele>935.029</ele>
        <time>1999-11-30T00:00:00Z</time>
      </trkpt>
      <trkpt lat="40.818405" lon="-1.339057">
        <ele>936.064</ele>
        <time>1999-11-30T00:00:00Z</time>
      </trkpt>
      <trkpt lat="40.818294" lon="-1.339287">
        <ele>937.083</ele>
        <time>1999-11-30T00:00:00Z</time>
      </trkpt>
      <trkpt lat="40.818232" lon="-1.339354">
        <ele>937.044</ele>
        <time>1999-11-30T00:00:00Z</time>
      </trkpt>
      <trkpt lat="40.818106" lon="-1.339366">
        <ele>937.062</ele>
        <time>1999-11-30T00:00:00Z</time>
      </trkpt>
      <trkpt lat="40.817395" lon="-1.339368">
        <ele>938.084</ele>
        <time>1999-11-30T00:00:00Z</time>
      </trkpt>
      <trkpt lat="40.81661" lon="-1.339435">
        <ele>939.007</ele>
        <time>1999-11-30T00:00:00Z</time>
      </trkpt>
      <trkpt lat="40.815894" lon="-1.339595">
        <ele>940.017</ele>
        <time>1999-11-30T00:00:00Z</time>
      </trkpt>
      <trkpt lat="40.815581" lon="-1.339757">
        <ele>939.008</ele>
        <time>1999-11-30T00:00:00Z</time>
      </trkpt>
      <trkpt lat="40.815423" lon="-1.33987">
        <ele>939.059</ele>
        <time>1999-11-30T00:00:00Z</time>
      </trkpt>
      <trkpt lat="40.815325" lon="-1.340071">
        <ele>939.073</ele>
        <time>1999-11-30T00:00:00Z</time>
      </trkpt>
      <trkpt lat="40.815289" lon="-1.340288">
        <ele>939.064</ele>
        <time>1999-11-30T00:00:00Z</time>
      </trkpt>
      <trkpt lat="40.815399" lon="-1.340852">
        <ele>940.088</ele>
        <time>1999-11-30T00:00:00Z</time>
      </trkpt>
      <trkpt lat="40.815598" lon="-1.341735">
        <ele>940.053</ele>
        <time>1999-11-30T00:00:00Z</time>
      </trkpt>
      <trkpt lat="40.815635" lon="-1.342036">
        <ele>940.012</ele>
        <time>1999-11-30T00:00:00Z</time>
      </trkpt>
      <trkpt lat="40.815617" lon="-1.342248">
        <ele>941.053</ele>
        <time>1999-11-30T00:00:00Z</time>
      </trkpt>
      <trkpt lat="40.815405" lon="-1.342947">
        <ele>941.021</ele>
        <time>1999-11-30T00:00:00Z</time>
      </trkpt>
      <trkpt lat="40.815316" lon="-1.342896">
        <ele>941.096</ele>
        <time>1999-11-30T00:00:00Z</time>
      </trkpt>
      <trkpt lat="40.815138" lon="-1.342847">
        <ele>941.031</ele>
        <time>1999-11-30T00:00:00Z</time>
      </trkpt>
      <trkpt lat="40.814911" lon="-1.342828">
        <ele>940.024</ele>
        <time>1999-11-30T00:00:00Z</time>
      </trkpt>
      <trkpt lat="40.814502" lon="-1.342863">
        <ele>939.008</ele>
        <time>1999-11-30T00:00:00Z</time>
      </trkpt>
      <trkpt lat="40.813932" lon="-1.342934">
        <ele>938.010</ele>
        <time>1999-11-30T00:00:00Z</time>
      </trkpt>
      <trkpt lat="40.813548" lon="-1.343">
        <ele>937.024</ele>
        <time>1999-11-30T00:00:00Z</time>
      </trkpt>
      <trkpt lat="40.812981" lon="-1.343058">
        <ele>935.095</ele>
        <time>1999-11-30T00:00:00Z</time>
      </trkpt>
      <trkpt lat="40.812575" lon="-1.34309">
        <ele>934.069</ele>
        <time>1999-11-30T00:00:00Z</time>
      </trkpt>
      <trkpt lat="40.812193" lon="-1.343109">
        <ele>933.024</ele>
        <time>1999-11-30T00:00:00Z</time>
      </trkpt>
      <trkpt lat="40.811971" lon="-1.343114">
        <ele>933.033</ele>
        <time>1999-11-30T00:00:00Z</time>
      </trkpt>
      <trkpt lat="40.811099" lon="-1.343717">
        <ele>936.024</ele>
        <time>1999-11-30T00:00:00Z</time>
      </trkpt>
      <trkpt lat="40.810328" lon="-1.344205">
        <ele>940.042</ele>
        <time>1999-11-30T00:00:00Z</time>
      </trkpt>
      <trkpt lat="40.809842" lon="-1.344606">
        <ele>940.016</ele>
        <time>1999-11-30T00:00:00Z</time>
      </trkpt>
      <trkpt lat="40.809469" lon="-1.344942">
        <ele>940.076</ele>
        <time>1999-11-30T00:00:00Z</time>
      </trkpt>
      <trkpt lat="40.809091" lon="-1.345191">
        <ele>939.013</ele>
        <time>1999-11-30T00:00:00Z</time>
      </trkpt>
      <trkpt lat="40.808096" lon="-1.346228">
        <ele>938.008</ele>
        <time>1999-11-30T00:00:00Z</time>
      </trkpt>
      <trkpt lat="40.806644" lon="-1.347919">
        <ele>936.062</ele>
        <time>1999-11-30T00:00:00Z</time>
      </trkpt>
      <trkpt lat="40.804762" lon="-1.350505">
        <ele>946.076</ele>
        <time>1999-11-30T00:00:00Z</time>
      </trkpt>
      <trkpt lat="40.80362" lon="-1.352135">
        <ele>945.087</ele>
        <time>1999-11-30T00:00:00Z</time>
      </trkpt>
      <trkpt lat="40.803065" lon="-1.352932">
        <ele>946.041</ele>
        <time>1999-11-30T00:00:00Z</time>
      </trkpt>
      <trkpt lat="40.802508" lon="-1.353536">
        <ele>948.086</ele>
        <time>1999-11-30T00:00:00Z</time>
      </trkpt>
      <trkpt lat="40.802341" lon="-1.353739">
        <ele>948.085</ele>
        <time>1999-11-30T00:00:00Z</time>
      </trkpt>
      <trkpt lat="40.802167" lon="-1.354051">
        <ele>949.046</ele>
        <time>1999-11-30T00:00:00Z</time>
      </trkpt>
      <trkpt lat="40.802026" lon="-1.354343">
        <ele>950.054</ele>
        <time>1999-11-30T00:00:00Z</time>
      </trkpt>
      <trkpt lat="40.801884" lon="-1.354507">
        <ele>950.087</ele>
        <time>1999-11-30T00:00:00Z</time>
      </trkpt>
      <trkpt lat="40.801655" lon="-1.354669">
        <ele>950.042</ele>
        <time>1999-11-30T00:00:00Z</time>
      </trkpt>
      <trkpt lat="40.801468" lon="-1.354759">
        <ele>950.026</ele>
        <time>1999-11-30T00:00:00Z</time>
      </trkpt>
      <trkpt lat="40.801267" lon="-1.354911">
        <ele>950.008</ele>
        <time>1999-11-30T00:00:00Z</time>
      </trkpt>
      <trkpt lat="40.801046" lon="-1.35514">
        <ele>950.099</ele>
        <time>1999-11-30T00:00:00Z</time>
      </trkpt>
      <trkpt lat="40.800726" lon="-1.355635">
        <ele>951.023</ele>
        <time>1999-11-30T00:00:00Z</time>
      </trkpt>
      <trkpt lat="40.800401" lon="-1.35598">
        <ele>951.084</ele>
        <time>1999-11-30T00:00:00Z</time>
      </trkpt>
      <trkpt lat="40.799771" lon="-1.356334">
        <ele>949.098</ele>
        <time>1999-11-30T00:00:00Z</time>
      </trkpt>
      <trkpt lat="40.798684" lon="-1.357087">
        <ele>946.073</ele>
        <time>1999-11-30T00:00:00Z</time>
      </trkpt>
      <trkpt lat="40.797663" lon="-1.357832">
        <ele>945.092</ele>
        <time>1999-11-30T00:00:00Z</time>
      </trkpt>
      <trkpt lat="40.797069" lon="-1.358202">
        <ele>945.033</ele>
        <time>1999-11-30T00:00:00Z</time>
      </trkpt>
      <trkpt lat="40.796484" lon="-1.358552">
        <ele>945.051</ele>
        <time>1999-11-30T00:00:00Z</time>
      </trkpt>
      <trkpt lat="40.795502" lon="-1.359022">
        <ele>945.044</ele>
        <time>1999-11-30T00:00:00Z</time>
      </trkpt>
      <trkpt lat="40.794687" lon="-1.359404">
        <ele>945.005</ele>
        <time>1999-11-30T00:00:00Z</time>
      </trkpt>
      <trkpt lat="40.794081" lon="-1.35967">
        <ele>945.015</ele>
        <time>1999-11-30T00:00:00Z</time>
      </trkpt>
      <trkpt lat="40.793214" lon="-1.359977">
        <ele>946.008</ele>
        <time>1999-11-30T00:00:00Z</time>
      </trkpt>
      <trkpt lat="40.792796" lon="-1.360122">
        <ele>945.095</ele>
        <time>1999-11-30T00:00:00Z</time>
      </trkpt>
      <trkpt lat="40.792621" lon="-1.360218">
        <ele>945.019</ele>
        <time>1999-11-30T00:00:00Z</time>
      </trkpt>
      <trkpt lat="40.792529" lon="-1.360302">
        <ele>946.040</ele>
        <time>1999-11-30T00:00:00Z</time>
      </trkpt>
      <trkpt lat="40.792495" lon="-1.360419">
        <ele>946.094</ele>
        <time>1999-11-30T00:00:00Z</time>
      </trkpt>
      <trkpt lat="40.792541" lon="-1.360807">
        <ele>947.099</ele>
        <time>1999-11-30T00:00:00Z</time>
      </trkpt>
      <trkpt lat="40.792537" lon="-1.361216">
        <ele>949.068</ele>
        <time>1999-11-30T00:00:00Z</time>
      </trkpt>
      <trkpt lat="40.792545" lon="-1.36147">
        <ele>950.069</ele>
        <time>1999-11-30T00:00:00Z</time>
      </trkpt>
      <trkpt lat="40.792663" lon="-1.361878">
        <ele>950.067</ele>
        <time>1999-11-30T00:00:00Z</time>
      </trkpt>
      <trkpt lat="40.792687" lon="-1.362041">
        <ele>950.023</ele>
        <time>1999-11-30T00:00:00Z</time>
      </trkpt>
      <trkpt lat="40.792639" lon="-1.362168">
        <ele>950.083</ele>
        <time>1999-11-30T00:00:00Z</time>
      </trkpt>
      <trkpt lat="40.792575" lon="-1.362235">
        <ele>950.011</ele>
        <time>1999-11-30T00:00:00Z</time>
      </trkpt>
      <trkpt lat="40.792521" lon="-1.36225">
        <ele>950.008</ele>
        <time>1999-11-30T00:00:00Z</time>
      </trkpt>
      <trkpt lat="40.792525" lon="-1.362038">
        <ele>950.033</ele>
        <time>1999-11-30T00:00:00Z</time>
      </trkpt>
      <trkpt lat="40.792518" lon="-1.361706">
        <ele>950.027</ele>
        <time>1999-11-30T00:00:00Z</time>
      </trkpt>
      <trkpt lat="40.79247" lon="-1.361535">
        <ele>950.098</ele>
        <time>1999-11-30T00:00:00Z</time>
      </trkpt>
      <trkpt lat="40.79237" lon="-1.361371">
        <ele>949.052</ele>
        <time>1999-11-30T00:00:00Z</time>
      </trkpt>
      <trkpt lat="40.792142" lon="-1.361156">
        <ele>949.077</ele>
        <time>1999-11-30T00:00:00Z</time>
      </trkpt>
      <trkpt lat="40.792027" lon="-1.360952">
        <ele>948.096</ele>
        <time>1999-11-30T00:00:00Z</time>
      </trkpt>
      <trkpt lat="40.791937" lon="-1.360301">
        <ele>946.067</ele>
        <time>1999-11-30T00:00:00Z</time>
      </trkpt>
      <trkpt lat="40.79179" lon="-1.359324">
        <ele>941.035</ele>
        <time>1999-11-30T00:00:00Z</time>
      </trkpt>
      <trkpt lat="40.79179" lon="-1.359007">
        <ele>940.076</ele>
        <time>1999-11-30T00:00:00Z</time>
      </trkpt>
      <trkpt lat="40.791897" lon="-1.358542">
        <ele>940.090</ele>
        <time>1999-11-30T00:00:00Z</time>
      </trkpt>
      <trkpt lat="40.791966" lon="-1.358196">
        <ele>940.019</ele>
        <time>1999-11-30T00:00:00Z</time>
      </trkpt>
      <trkpt lat="40.792058" lon="-1.357549">
        <ele>940.008</ele>
        <time>1999-11-30T00:00:00Z</time>
      </trkpt>
      <trkpt lat="40.792058" lon="-1.357228">
        <ele>940.058</ele>
        <time>1999-11-30T00:00:00Z</time>
      </trkpt>
      <trkpt lat="40.791833" lon="-1.3555">
        <ele>940.072</ele>
        <time>1999-11-30T00:00:00Z</time>
      </trkpt>
      <trkpt lat="40.791351" lon="-1.355191">
        <ele>940.073</ele>
        <time>1999-11-30T00:00:00Z</time>
      </trkpt>
      <trkpt lat="40.791253" lon="-1.355065">
        <ele>940.057</ele>
        <time>1999-11-30T00:00:00Z</time>
      </trkpt>
      <trkpt lat="40.791098" lon="-1.354842">
        <ele>940.082</ele>
        <time>1999-11-30T00:00:00Z</time>
      </trkpt>
      <trkpt lat="40.790996" lon="-1.354603">
        <ele>940.011</ele>
        <time>1999-11-30T00:00:00Z</time>
      </trkpt>
      <trkpt lat="40.79096" lon="-1.354409">
        <ele>940.082</ele>
        <time>1999-11-30T00:00:00Z</time>
      </trkpt>
      <trkpt lat="40.790803" lon="-1.354287">
        <ele>940.090</ele>
        <time>1999-11-30T00:00:00Z</time>
      </trkpt>
      <trkpt lat="40.790659" lon="-1.353902">
        <ele>940.042</ele>
        <time>1999-11-30T00:00:00Z</time>
      </trkpt>
      <trkpt lat="40.790382" lon="-1.353823">
        <ele>940.022</ele>
        <time>1999-11-30T00:00:00Z</time>
      </trkpt>
      <trkpt lat="40.790368" lon="-1.353829">
        <ele>940.014</ele>
        <time>1999-11-30T00:00:00Z</time>
      </trkpt>
      <trkpt lat="40.790368" lon="-1.353829">
        <ele>940.008</ele>
        <time>1999-11-30T00:00:00Z</time>
      </trkpt>
      <trkpt lat="40.790054" lon="-1.354006">
        <ele>940.085</ele>
        <time>1999-11-30T00:00:00Z</time>
      </trkpt>
      <trkpt lat="40.789746" lon="-1.354138">
        <ele>940.079</ele>
        <time>1999-11-30T00:00:00Z</time>
      </trkpt>
      <trkpt lat="40.789746" lon="-1.354138">
        <ele>940.080</ele>
        <time>1999-11-30T00:00:00Z</time>
      </trkpt>
      <trkpt lat="40.789699" lon="-1.354404">
        <ele>940.094</ele>
        <time>1999-11-30T00:00:00Z</time>
      </trkpt>
      <trkpt lat="40.789678" lon="-1.354899">
        <ele>940.089</ele>
        <time>1999-11-30T00:00:00Z</time>
      </trkpt>
      <trkpt lat="40.789486" lon="-1.354887">
        <ele>940.048</ele>
        <time>1999-11-30T00:00:00Z</time>
      </trkpt>
      <trkpt lat="40.789447" lon="-1.355056">
        <ele>940.029</ele>
        <time>1999-11-30T00:00:00Z</time>
      </trkpt>
      <trkpt lat="40.789341" lon="-1.355486">
        <ele>940.037</ele>
        <time>1999-11-30T00:00:00Z</time>
      </trkpt>
      <trkpt lat="40.789346" lon="-1.355976">
        <ele>940.027</ele>
        <time>1999-11-30T00:00:00Z</time>
      </trkpt>
      <trkpt lat="40.789401" lon="-1.356627">
        <ele>941.068</ele>
        <time>1999-11-30T00:00:00Z</time>
      </trkpt>
      <trkpt lat="40.789441" lon="-1.357107">
        <ele>941.014</ele>
        <time>1999-11-30T00:00:00Z</time>
      </trkpt>
      <trkpt lat="40.789481" lon="-1.357211">
        <ele>941.008</ele>
        <time>1999-11-30T00:00:00Z</time>
      </trkpt>
      <trkpt lat="40.78948" lon="-1.357325">
        <ele>941.043</ele>
        <time>1999-11-30T00:00:00Z</time>
      </trkpt>
      <trkpt lat="40.789427" lon="-1.357566">
        <ele>941.047</ele>
        <time>1999-11-30T00:00:00Z</time>
      </trkpt>
      <trkpt lat="40.78925" lon="-1.358175">
        <ele>942.038</ele>
        <time>1999-11-30T00:00:00Z</time>
      </trkpt>
      <trkpt lat="40.789083" lon="-1.359">
        <ele>945.092</ele>
        <time>1999-11-30T00:00:00Z</time>
      </trkpt>
      <trkpt lat="40.788937" lon="-1.35951">
        <ele>947.097</ele>
        <time>1999-11-30T00:00:00Z</time>
      </trkpt>
      <trkpt lat="40.788844" lon="-1.359789">
        <ele>948.046</ele>
        <time>1999-11-30T00:00:00Z</time>
      </trkpt>
      <trkpt lat="40.788769" lon="-1.360088">
        <ele>947.037</ele>
        <time>1999-11-30T00:00:00Z</time>
      </trkpt>
      <trkpt lat="40.788841" lon="-1.360209">
        <ele>946.075</ele>
        <time>1999-11-30T00:00:00Z</time>
      </trkpt>
      <trkpt lat="40.789068" lon="-1.360252">
        <ele>941.038</ele>
        <time>1999-11-30T00:00:00Z</time>
      </trkpt>
      <trkpt lat="40.789337" lon="-1.360231">
        <ele>938.070</ele>
        <time>1999-11-30T00:00:00Z</time>
      </trkpt>
      <trkpt lat="40.789345" lon="-1.360824">
        <ele>939.017</ele>
        <time>1999-11-30T00:00:00Z</time>
      </trkpt>
      <trkpt lat="40.788896" lon="-1.360866">
        <ele>942.008</ele>
        <time>1999-11-30T00:00:00Z</time>
      </trkpt>
      <trkpt lat="40.788773" lon="-1.360942">
        <ele>944.044</ele>
        <time>1999-11-30T00:00:00Z</time>
      </trkpt>
      <trkpt lat="40.788595" lon="-1.361233">
        <ele>945.088</ele>
        <time>1999-11-30T00:00:00Z</time>
      </trkpt>
      <trkpt lat="40.788389" lon="-1.361665">
        <ele>946.029</ele>
        <time>1999-11-30T00:00:00Z</time>
      </trkpt>
      <trkpt lat="40.788353" lon="-1.361806">
        <ele>945.093</ele>
        <time>1999-11-30T00:00:00Z</time>
      </trkpt>
      <trkpt lat="40.788418" lon="-1.362108">
        <ele>944.098</ele>
        <time>1999-11-30T00:00:00Z</time>
      </trkpt>
      <trkpt lat="40.788423" lon="-1.362584">
        <ele>942.087</ele>
        <time>1999-11-30T00:00:00Z</time>
      </trkpt>
      <trkpt lat="40.788417" lon="-1.363197">
        <ele>942.078</ele>
        <time>1999-11-30T00:00:00Z</time>
      </trkpt>
      <trkpt lat="40.788444" lon="-1.363501">
        <ele>942.086</ele>
        <time>1999-11-30T00:00:00Z</time>
      </trkpt>
      <trkpt lat="40.788449" lon="-1.363814">
        <ele>941.047</ele>
        <time>1999-11-30T00:00:00Z</time>
      </trkpt>
      <trkpt lat="40.788388" lon="-1.364029">
        <ele>942.029</ele>
        <time>1999-11-30T00:00:00Z</time>
      </trkpt>
      <trkpt lat="40.788344" lon="-1.364166">
        <ele>943.021</ele>
        <time>1999-11-30T00:00:00Z</time>
      </trkpt>
      <trkpt lat="40.788374" lon="-1.364288">
        <ele>943.008</ele>
        <time>1999-11-30T00:00:00Z</time>
      </trkpt>
      <trkpt lat="40.78852" lon="-1.364399">
        <ele>941.085</ele>
        <time>1999-11-30T00:00:00Z</time>
      </trkpt>
      <trkpt lat="40.788847" lon="-1.364574">
        <ele>943.019</ele>
        <time>1999-11-30T00:00:00Z</time>
      </trkpt>
      <trkpt lat="40.788971" lon="-1.364723">
        <ele>944.050</ele>
        <time>1999-11-30T00:00:00Z</time>
      </trkpt>
      <trkpt lat="40.789066" lon="-1.364934">
        <ele>946.034</ele>
        <time>1999-11-30T00:00:00Z</time>
      </trkpt>
      <trkpt lat="40.789078" lon="-1.365352">
        <ele>947.019</ele>
        <time>1999-11-30T00:00:00Z</time>
      </trkpt>
      <trkpt lat="40.789095" lon="-1.365789">
        <ele>948.078</ele>
        <time>1999-11-30T00:00:00Z</time>
      </trkpt>
      <trkpt lat="40.789137" lon="-1.366198">
        <ele>949.089</ele>
        <time>1999-11-30T00:00:00Z</time>
      </trkpt>
      <trkpt lat="40.789157" lon="-1.366534">
        <ele>949.027</ele>
        <time>1999-11-30T00:00:00Z</time>
      </trkpt>
      <trkpt lat="40.789086" lon="-1.367007">
        <ele>951.068</ele>
        <time>1999-11-30T00:00:00Z</time>
      </trkpt>
      <trkpt lat="40.788996" lon="-1.367341">
        <ele>951.042</ele>
        <time>1999-11-30T00:00:00Z</time>
      </trkpt>
      <trkpt lat="40.788845" lon="-1.36782">
        <ele>951.026</ele>
        <time>1999-11-30T00:00:00Z</time>
      </trkpt>
      <trkpt lat="40.788728" lon="-1.368337">
        <ele>951.008</ele>
        <time>1999-11-30T00:00:00Z</time>
      </trkpt>
      <trkpt lat="40.78872" lon="-1.368742">
        <ele>951.057</ele>
        <time>1999-11-30T00:00:00Z</time>
      </trkpt>
      <trkpt lat="40.788822" lon="-1.369123">
        <ele>952.091</ele>
        <time>1999-11-30T00:00:00Z</time>
      </trkpt>
      <trkpt lat="40.788922" lon="-1.369433">
        <ele>953.042</ele>
        <time>1999-11-30T00:00:00Z</time>
      </trkpt>
      <trkpt lat="40.789161" lon="-1.369563">
        <ele>955.066</ele>
        <time>1999-11-30T00:00:00Z</time>
      </trkpt>
      <trkpt lat="40.789669" lon="-1.369787">
        <ele>958.041</ele>
        <time>1999-11-30T00:00:00Z</time>
      </trkpt>
      <trkpt lat="40.789946" lon="-1.370005">
        <ele>960.060</ele>
        <time>1999-11-30T00:00:00Z</time>
      </trkpt>
      <trkpt lat="40.790294" lon="-1.370361">
        <ele>961.081</ele>
        <time>1999-11-30T00:00:00Z</time>
      </trkpt>
      <trkpt lat="40.790567" lon="-1.370524">
        <ele>961.099</ele>
        <time>1999-11-30T00:00:00Z</time>
      </trkpt>
      <trkpt lat="40.790805" lon="-1.370595">
        <ele>961.076</ele>
        <time>1999-11-30T00:00:00Z</time>
      </trkpt>
      <trkpt lat="40.791181" lon="-1.37061">
        <ele>961.090</ele>
        <time>1999-11-30T00:00:00Z</time>
      </trkpt>
      <trkpt lat="40.791499" lon="-1.37061">
        <ele>961.019</ele>
        <time>1999-11-30T00:00:00Z</time>
      </trkpt>
      <trkpt lat="40.791866" lon="-1.370657">
        <ele>961.008</ele>
        <time>1999-11-30T00:00:00Z</time>
      </trkpt>
      <trkpt lat="40.792071" lon="-1.370711">
        <ele>961.088</ele>
        <time>1999-11-30T00:00:00Z</time>
      </trkpt>
      <trkpt lat="40.792244" lon="-1.372213">
        <ele>962.052</ele>
        <time>1999-11-30T00:00:00Z</time>
      </trkpt>
      <trkpt lat="40.792785" lon="-1.377039">
        <ele>967.053</ele>
        <time>1999-11-30T00:00:00Z</time>
      </trkpt>
      <trkpt lat="40.793324" lon="-1.381919">
        <ele>974.047</ele>
        <time>1999-11-30T00:00:00Z</time>
      </trkpt>
      <trkpt lat="40.794138" lon="-1.389095">
        <ele>981.092</ele>
        <time>1999-11-30T00:00:00Z</time>
      </trkpt>
      <trkpt lat="40.794774" lon="-1.395037">
        <ele>994.021</ele>
        <time>1999-11-30T00:00:00Z</time>
      </trkpt>
      <trkpt lat="40.794752" lon="-1.395268">
        <ele>995.022</ele>
        <time>1999-11-30T00:00:00Z</time>
      </trkpt>
      <trkpt lat="40.794315" lon="-1.396676">
        <ele>999.020</ele>
        <time>1999-11-30T00:00:00Z</time>
      </trkpt>
      <trkpt lat="40.792947" lon="-1.400803">
        <ele>1001.017</ele>
        <time>1999-11-30T00:00:00Z</time>
      </trkpt>
      <trkpt lat="40.792504" lon="-1.402128">
        <ele>1001.087</ele>
        <time>1999-11-30T00:00:00Z</time>
      </trkpt>
      <trkpt lat="40.792029" lon="-1.403621">
        <ele>1000.015</ele>
        <time>1999-11-30T00:00:00Z</time>
      </trkpt>
      <trkpt lat="40.791051" lon="-1.406584">
        <ele>1000.008</ele>
        <time>1999-11-30T00:00:00Z</time>
      </trkpt>
      <trkpt lat="40.790074" lon="-1.409583">
        <ele>1001.082</ele>
        <time>1999-11-30T00:00:00Z</time>
      </trkpt>
      <trkpt lat="40.789201" lon="-1.412245">
        <ele>1001.076</ele>
        <time>1999-11-30T00:00:00Z</time>
      </trkpt>
      <trkpt lat="40.788221" lon="-1.415216">
        <ele>1000.027</ele>
        <time>1999-11-30T00:00:00Z</time>
      </trkpt>
      <trkpt lat="40.787366" lon="-1.417843">
        <ele>1001.091</ele>
        <time>1999-11-30T00:00:00Z</time>
      </trkpt>
      <trkpt lat="40.786254" lon="-1.421189">
        <ele>1000.016</ele>
        <time>1999-11-30T00:00:00Z</time>
      </trkpt>
      <trkpt lat="40.785388" lon="-1.423833">
        <ele>1000.045</ele>
        <time>1999-11-30T00:00:00Z</time>
      </trkpt>
      <trkpt lat="40.783907" lon="-1.428365">
        <ele>1001.066</ele>
        <time>1999-11-30T00:00:00Z</time>
      </trkpt>
      <trkpt lat="40.783625" lon="-1.429202">
        <ele>1001.034</ele>
        <time>1999-11-30T00:00:00Z</time>
      </trkpt>
      <trkpt lat="40.78356" lon="-1.429447">
        <ele>1001.082</ele>
        <time>1999-11-30T00:00:00Z</time>
      </trkpt>
      <trkpt lat="40.783537" lon="-1.429585">
        <ele>1001.043</ele>
        <time>1999-11-30T00:00:00Z</time>
      </trkpt>
      <trkpt lat="40.78352" lon="-1.429888">
        <ele>1001.017</ele>
        <time>1999-11-30T00:00:00Z</time>
      </trkpt>
      <trkpt lat="40.783395" lon="-1.430658">
        <ele>1002.008</ele>
        <time>1999-11-30T00:00:00Z</time>
      </trkpt>
      <trkpt lat="40.783282" lon="-1.431352">
        <ele>1002.059</ele>
        <time>1999-11-30T00:00:00Z</time>
      </trkpt>
      <trkpt lat="40.783159" lon="-1.432174">
        <ele>1003.013</ele>
        <time>1999-11-30T00:00:00Z</time>
      </trkpt>
      <trkpt lat="40.782929" lon="-1.433716">
        <ele>1003.014</ele>
        <time>1999-11-30T00:00:00Z</time>
      </trkpt>
      <trkpt lat="40.782706" lon="-1.435165">
        <ele>1004.068</ele>
        <time>1999-11-30T00:00:00Z</time>
      </trkpt>
      <trkpt lat="40.782473" lon="-1.436758">
        <ele>1005.043</ele>
        <time>1999-11-30T00:00:00Z</time>
      </trkpt>
      <trkpt lat="40.782185" lon="-1.438479">
        <ele>1006.052</ele>
        <time>1999-11-30T00:00:00Z</time>
      </trkpt>
      <trkpt lat="40.782039" lon="-1.439556">
        <ele>1007.043</ele>
        <time>1999-11-30T00:00:00Z</time>
      </trkpt>
      <trkpt lat="40.781495" lon="-1.442999">
        <ele>1010.091</ele>
        <time>1999-11-30T00:00:00Z</time>
      </trkpt>
      <trkpt lat="40.781103" lon="-1.445494">
        <ele>1012.089</ele>
        <time>1999-11-30T00:00:00Z</time>
      </trkpt>
      <trkpt lat="40.780665" lon="-1.448401">
        <ele>1015.006</ele>
        <time>1999-11-30T00:00:00Z</time>
      </trkpt>
      <trkpt lat="40.779492" lon="-1.455879">
        <ele>1024.026</ele>
        <time>1999-11-30T00:00:00Z</time>
      </trkpt>
      <trkpt lat="40.778946" lon="-1.459346">
        <ele>1029.008</ele>
        <time>1999-11-30T00:00:00Z</time>
      </trkpt>
      <trkpt lat="40.778749" lon="-1.460679">
        <ele>1031.079</ele>
        <time>1999-11-30T00:00:00Z</time>
      </trkpt>
      <trkpt lat="40.778715" lon="-1.461063">
        <ele>1033.043</ele>
        <time>1999-11-30T00:00:00Z</time>
      </trkpt>
      <trkpt lat="40.778644" lon="-1.462252">
        <ele>1036.044</ele>
        <time>1999-11-30T00:00:00Z</time>
      </trkpt>
      <trkpt lat="40.778518" lon="-1.464296">
        <ele>1040.058</ele>
        <time>1999-11-30T00:00:00Z</time>
      </trkpt>
      <trkpt lat="40.778306" lon="-1.467996">
        <ele>1044.043</ele>
        <time>1999-11-30T00:00:00Z</time>
      </trkpt>
      <trkpt lat="40.778073" lon="-1.472142">
        <ele>1052.042</ele>
        <time>1999-11-30T00:00:00Z</time>
      </trkpt>
      <trkpt lat="40.778016" lon="-1.473244">
        <ele>1055.053</ele>
        <time>1999-11-30T00:00:00Z</time>
      </trkpt>
      <trkpt lat="40.77794" lon="-1.474434">
        <ele>1058.061</ele>
        <time>1999-11-30T00:00:00Z</time>
      </trkpt>
      <trkpt lat="40.777772" lon="-1.476964">
        <ele>1059.025</ele>
        <time>1999-11-30T00:00:00Z</time>
      </trkpt>
      <trkpt lat="40.777555" lon="-1.481188">
        <ele>1063.026</ele>
        <time>1999-11-30T00:00:00Z</time>
      </trkpt>
      <trkpt lat="40.777352" lon="-1.48595">
        <ele>1069.008</ele>
        <time>1999-11-30T00:00:00Z</time>
      </trkpt>
      <trkpt lat="40.777184" lon="-1.490565">
        <ele>1085.008</ele>
        <time>1999-11-30T00:00:00Z</time>
      </trkpt>
      <trkpt lat="40.777094" lon="-1.492878">
        <ele>1095.063</ele>
        <time>1999-11-30T00:00:00Z</time>
      </trkpt>
      <trkpt lat="40.777068" lon="-1.493054">
        <ele>1096.087</ele>
        <time>1999-11-30T00:00:00Z</time>
      </trkpt>
      <trkpt lat="40.776873" lon="-1.492996">
        <ele>1095.038</ele>
        <time>1999-11-30T00:00:00Z</time>
      </trkpt>
      <trkpt lat="40.776627" lon="-1.492922">
        <ele>1094.042</ele>
        <time>1999-11-30T00:00:00Z</time>
      </trkpt>
      <trkpt lat="40.775945" lon="-1.492929">
        <ele>1092.047</ele>
        <time>1999-11-30T00:00:00Z</time>
      </trkpt>
      <trkpt lat="40.77535" lon="-1.492736">
        <ele>1091.086</ele>
        <time>1999-11-30T00:00:00Z</time>
      </trkpt>
      <trkpt lat="40.775005" lon="-1.492669">
        <ele>1091.057</ele>
        <time>1999-11-30T00:00:00Z</time>
      </trkpt>
      <trkpt lat="40.774656" lon="-1.492828">
        <ele>1089.045</ele>
        <time>1999-11-30T00:00:00Z</time>
      </trkpt>
      <trkpt lat="40.774331" lon="-1.492814">
        <ele>1084.049</ele>
        <time>1999-11-30T00:00:00Z</time>
      </trkpt>
      <trkpt lat="40.774053" lon="-1.492703">
        <ele>1081.002</ele>
        <time>1999-11-30T00:00:00Z</time>
      </trkpt>
      <trkpt lat="40.773381" lon="-1.49279">
        <ele>1086.022</ele>
        <time>1999-11-30T00:00:00Z</time>
      </trkpt>
      <trkpt lat="40.773338" lon="-1.492846">
        <ele>1087.008</ele>
        <time>1999-11-30T00:00:00Z</time>
      </trkpt>
      <trkpt lat="40.773361" lon="-1.49351">
        <ele>1090.085</ele>
        <time>1999-11-30T00:00:00Z</time>
      </trkpt>
      <trkpt lat="40.773411" lon="-1.494084">
        <ele>1090.029</ele>
        <time>1999-11-30T00:00:00Z</time>
      </trkpt>
      <trkpt lat="40.773479" lon="-1.494384">
        <ele>1090.090</ele>
        <time>1999-11-30T00:00:00Z</time>
      </trkpt>
      <trkpt lat="40.773561" lon="-1.494579">
        <ele>1090.024</ele>
        <time>1999-11-30T00:00:00Z</time>
      </trkpt>
      <trkpt lat="40.773661" lon="-1.494744">
        <ele>1089.039</ele>
        <time>1999-11-30T00:00:00Z</time>
      </trkpt>
      <trkpt lat="40.773706" lon="-1.495013">
        <ele>1089.088</ele>
        <time>1999-11-30T00:00:00Z</time>
      </trkpt>
      <trkpt lat="40.773764" lon="-1.495449">
        <ele>1089.089</ele>
        <time>1999-11-30T00:00:00Z</time>
      </trkpt>
      <trkpt lat="40.773737" lon="-1.495774">
        <ele>1089.047</ele>
        <time>1999-11-30T00:00:00Z</time>
      </trkpt>
      <trkpt lat="40.773648" lon="-1.496395">
        <ele>1089.098</ele>
        <time>1999-11-30T00:00:00Z</time>
      </trkpt>
      <trkpt lat="40.773577" lon="-1.496709">
        <ele>1090.015</ele>
        <time>1999-11-30T00:00:00Z</time>
      </trkpt>
      <trkpt lat="40.773504" lon="-1.496829">
        <ele>1090.026</ele>
        <time>1999-11-30T00:00:00Z</time>
      </trkpt>
      <trkpt lat="40.773515" lon="-1.49693">
        <ele>1090.008</ele>
        <time>1999-11-30T00:00:00Z</time>
      </trkpt>
      <trkpt lat="40.773504" lon="-1.497201">
        <ele>1089.040</ele>
        <time>1999-11-30T00:00:00Z</time>
      </trkpt>
      <trkpt lat="40.773418" lon="-1.497884">
        <ele>1089.074</ele>
        <time>1999-11-30T00:00:00Z</time>
      </trkpt>
      <trkpt lat="40.773396" lon="-1.498374">
        <ele>1090.035</ele>
        <time>1999-11-30T00:00:00Z</time>
      </trkpt>
      <trkpt lat="40.77336" lon="-1.498742">
        <ele>1090.099</ele>
        <time>1999-11-30T00:00:00Z</time>
      </trkpt>
      <trkpt lat="40.7732" lon="-1.498996">
        <ele>1091.084</ele>
        <time>1999-11-30T00:00:00Z</time>
      </trkpt>
      <trkpt lat="40.77313" lon="-1.499147">
        <ele>1092.013</ele>
        <time>1999-11-30T00:00:00Z</time>
      </trkpt>
      <trkpt lat="40.772975" lon="-1.499778">
        <ele>1093.054</ele>
        <time>1999-11-30T00:00:00Z</time>
      </trkpt>
      <trkpt lat="40.772935" lon="-1.500127">
        <ele>1094.072</ele>
        <time>1999-11-30T00:00:00Z</time>
      </trkpt>
      <trkpt lat="40.772887" lon="-1.500491">
        <ele>1095.046</ele>
        <time>1999-11-30T00:00:00Z</time>
      </trkpt>
      <trkpt lat="40.772737" lon="-1.501172">
        <ele>1096.088</ele>
        <time>1999-11-30T00:00:00Z</time>
      </trkpt>
      <trkpt lat="40.77266" lon="-1.501606">
        <ele>1096.016</ele>
        <time>1999-11-30T00:00:00Z</time>
      </trkpt>
      <trkpt lat="40.772597" lon="-1.502">
        <ele>1097.008</ele>
        <time>1999-11-30T00:00:00Z</time>
      </trkpt>
      <trkpt lat="40.772534" lon="-1.50231">
        <ele>1097.095</ele>
        <time>1999-11-30T00:00:00Z</time>
      </trkpt>
      <trkpt lat="40.772516" lon="-1.502617">
        <ele>1098.049</ele>
        <time>1999-11-30T00:00:00Z</time>
      </trkpt>
      <trkpt lat="40.772337" lon="-1.503215">
        <ele>1099.050</ele>
        <time>1999-11-30T00:00:00Z</time>
      </trkpt>
      <trkpt lat="40.772241" lon="-1.503604">
        <ele>1100.024</ele>
        <time>1999-11-30T00:00:00Z</time>
      </trkpt>
      <trkpt lat="40.772115" lon="-1.504004">
        <ele>1104.059</ele>
        <time>1999-11-30T00:00:00Z</time>
      </trkpt>
      <trkpt lat="40.771988" lon="-1.504258">
        <ele>1107.058</ele>
        <time>1999-11-30T00:00:00Z</time>
      </trkpt>
      <trkpt lat="40.771918" lon="-1.504357">
        <ele>1108.059</ele>
        <time>1999-11-30T00:00:00Z</time>
      </trkpt>
      <trkpt lat="40.771624" lon="-1.504538">
        <ele>1111.077</ele>
        <time>1999-11-30T00:00:00Z</time>
      </trkpt>
      <trkpt lat="40.771267" lon="-1.504686">
        <ele>1112.061</ele>
        <time>1999-11-30T00:00:00Z</time>
      </trkpt>
      <trkpt lat="40.771184" lon="-1.504764">
        <ele>1113.021</ele>
        <time>1999-11-30T00:00:00Z</time>
      </trkpt>
      <trkpt lat="40.771106" lon="-1.504941">
        <ele>1114.013</ele>
        <time>1999-11-30T00:00:00Z</time>
      </trkpt>
      <trkpt lat="40.770975" lon="-1.505299">
        <ele>1116.008</ele>
        <time>1999-11-30T00:00:00Z</time>
      </trkpt>
      <trkpt lat="40.770941" lon="-1.505509">
        <ele>1116.087</ele>
        <time>1999-11-30T00:00:00Z</time>
      </trkpt>
      <trkpt lat="40.77094" lon="-1.505772">
        <ele>1117.091</ele>
        <time>1999-11-30T00:00:00Z</time>
      </trkpt>
      <trkpt lat="40.770942" lon="-1.505964">
        <ele>1117.032</ele>
        <time>1999-11-30T00:00:00Z</time>
      </trkpt>
      <trkpt lat="40.770958" lon="-1.506103">
        <ele>1117.096</ele>
        <time>1999-11-30T00:00:00Z</time>
      </trkpt>
      <trkpt lat="40.77091" lon="-1.506227">
        <ele>1116.021</ele>
        <time>1999-11-30T00:00:00Z</time>
      </trkpt>
      <trkpt lat="40.770939" lon="-1.506342">
        <ele>1116.030</ele>
        <time>1999-11-30T00:00:00Z</time>
      </trkpt>
      <trkpt lat="40.770981" lon="-1.506587">
        <ele>1115.071</ele>
        <time>1999-11-30T00:00:00Z</time>
      </trkpt>
      <trkpt lat="40.771007" lon="-1.506877">
        <ele>1114.069</ele>
        <time>1999-11-30T00:00:00Z</time>
      </trkpt>
      <trkpt lat="40.771046" lon="-1.507156">
        <ele>1113.036</ele>
        <time>1999-11-30T00:00:00Z</time>
      </trkpt>
      <trkpt lat="40.771074" lon="-1.507249">
        <ele>1112.017</ele>
        <time>1999-11-30T00:00:00Z</time>
      </trkpt>
      <trkpt lat="40.771079" lon="-1.507307">
        <ele>1112.018</ele>
        <time>1999-11-30T00:00:00Z</time>
      </trkpt>
      <trkpt lat="40.770881" lon="-1.507707">
        <ele>1114.008</ele>
        <time>1999-11-30T00:00:00Z</time>
      </trkpt>
      <trkpt lat="40.770839" lon="-1.507836">
        <ele>1115.054</ele>
        <time>1999-11-30T00:00:00Z</time>
      </trkpt>
      <trkpt lat="40.770796" lon="-1.50796">
        <ele>1116.078</ele>
        <time>1999-11-30T00:00:00Z</time>
      </trkpt>
      <trkpt lat="40.770361" lon="-1.508616">
        <ele>1118.089</ele>
        <time>1999-11-30T00:00:00Z</time>
      </trkpt>
      <trkpt lat="40.770296" lon="-1.508741">
        <ele>1118.093</ele>
        <time>1999-11-30T00:00:00Z</time>
      </trkpt>
      <trkpt lat="40.770118" lon="-1.509272">
        <ele>1118.098</ele>
        <time>1999-11-30T00:00:00Z</time>
      </trkpt>
      <trkpt lat="40.770074" lon="-1.509556">
        <ele>1118.077</ele>
        <time>1999-11-30T00:00:00Z</time>
      </trkpt>
      <trkpt lat="40.770068" lon="-1.509899">
        <ele>1119.038</ele>
        <time>1999-11-30T00:00:00Z</time>
      </trkpt>
      <trkpt lat="40.770066" lon="-1.510511">
        <ele>1123.016</ele>
        <time>1999-11-30T00:00:00Z</time>
      </trkpt>
      <trkpt lat="40.770078" lon="-1.510738">
        <ele>1125.072</ele>
        <time>1999-11-30T00:00:00Z</time>
      </trkpt>
      <trkpt lat="40.770129" lon="-1.510849">
        <ele>1126.013</ele>
        <time>1999-11-30T00:00:00Z</time>
      </trkpt>
      <trkpt lat="40.770204" lon="-1.510992">
        <ele>1128.014</ele>
        <time>1999-11-30T00:00:00Z</time>
      </trkpt>
      <trkpt lat="40.770292" lon="-1.51104">
        <ele>1128.008</ele>
        <time>1999-11-30T00:00:00Z</time>
      </trkpt>
      <trkpt lat="40.77045" lon="-1.511027">
        <ele>1129.038</ele>
        <time>1999-11-30T00:00:00Z</time>
      </trkpt>
      <trkpt lat="40.770552" lon="-1.511089">
        <ele>1130.042</ele>
        <time>1999-11-30T00:00:00Z</time>
      </trkpt>
      <trkpt lat="40.770583" lon="-1.511229">
        <ele>1130.043</ele>
        <time>1999-11-30T00:00:00Z</time>
      </trkpt>
      <trkpt lat="40.770624" lon="-1.51144">
        <ele>1130.047</ele>
        <time>1999-11-30T00:00:00Z</time>
      </trkpt>
      <trkpt lat="40.770714" lon="-1.511563">
        <ele>1130.052</ele>
        <time>1999-11-30T00:00:00Z</time>
      </trkpt>
      <trkpt lat="40.770804" lon="-1.511672">
        <ele>1130.061</ele>
        <time>1999-11-30T00:00:00Z</time>
      </trkpt>
      <trkpt lat="40.770836" lon="-1.511817">
        <ele>1131.042</ele>
        <time>1999-11-30T00:00:00Z</time>
      </trkpt>
      <trkpt lat="40.770804" lon="-1.512111">
        <ele>1133.090</ele>
        <time>1999-11-30T00:00:00Z</time>
      </trkpt>
      <trkpt lat="40.770762" lon="-1.51253">
        <ele>1137.058</ele>
        <time>1999-11-30T00:00:00Z</time>
      </trkpt>
      <trkpt lat="40.77067" lon="-1.513302">
        <ele>1144.052</ele>
        <time>1999-11-30T00:00:00Z</time>
      </trkpt>
      <trkpt lat="40.770575" lon="-1.513879">
        <ele>1149.017</ele>
        <time>1999-11-30T00:00:00Z</time>
      </trkpt>
      <trkpt lat="40.770558" lon="-1.514157">
        <ele>1150.008</ele>
        <time>1999-11-30T00:00:00Z</time>
      </trkpt>
      <trkpt lat="40.770552" lon="-1.51474">
        <ele>1152.076</ele>
        <time>1999-11-30T00:00:00Z</time>
      </trkpt>
      <trkpt lat="40.770516" lon="-1.515067">
        <ele>1152.030</ele>
        <time>1999-11-30T00:00:00Z</time>
      </trkpt>
      <trkpt lat="40.770518" lon="-1.515356">
        <ele>1152.021</ele>
        <time>1999-11-30T00:00:00Z</time>
      </trkpt>
      <trkpt lat="40.770472" lon="-1.515845">
        <ele>1152.035</ele>
        <time>1999-11-30T00:00:00Z</time>
      </trkpt>
      <trkpt lat="40.770478" lon="-1.51602">
        <ele>1152.050</ele>
        <time>1999-11-30T00:00:00Z</time>
      </trkpt>
      <trkpt lat="40.770468" lon="-1.516287">
        <ele>1153.039</ele>
        <time>1999-11-30T00:00:00Z</time>
      </trkpt>
      <trkpt lat="40.770437" lon="-1.516494">
        <ele>1154.020</ele>
        <time>1999-11-30T00:00:00Z</time>
      </trkpt>
      <trkpt lat="40.770382" lon="-1.516789">
        <ele>1155.068</ele>
        <time>1999-11-30T00:00:00Z</time>
      </trkpt>
      <trkpt lat="40.770439" lon="-1.517099">
        <ele>1158.051</ele>
        <time>1999-11-30T00:00:00Z</time>
      </trkpt>
      <trkpt lat="40.770516" lon="-1.517586">
        <ele>1161.001</ele>
        <time>1999-11-30T00:00:00Z</time>
      </trkpt>
      <trkpt lat="40.770534" lon="-1.517953">
        <ele>1163.011</ele>
        <time>1999-11-30T00:00:00Z</time>
      </trkpt>
      <trkpt lat="40.770516" lon="-1.518187">
        <ele>1164.008</ele>
        <time>1999-11-30T00:00:00Z</time>
      </trkpt>
      <trkpt lat="40.770553" lon="-1.518435">
        <ele>1166.016</ele>
        <time>1999-11-30T00:00:00Z</time>
      </trkpt>
      <trkpt lat="40.770649" lon="-1.518753">
        <ele>1168.010</ele>
        <time>1999-11-30T00:00:00Z</time>
      </trkpt>
      <trkpt lat="40.770685" lon="-1.518969">
        <ele>1169.071</ele>
        <time>1999-11-30T00:00:00Z</time>
      </trkpt>
      <trkpt lat="40.770711" lon="-1.519292">
        <ele>1170.035</ele>
        <time>1999-11-30T00:00:00Z</time>
      </trkpt>
      <trkpt lat="40.770745" lon="-1.519628">
        <ele>1170.090</ele>
        <time>1999-11-30T00:00:00Z</time>
      </trkpt>
      <trkpt lat="40.770809" lon="-1.519961">
        <ele>1171.059</ele>
        <time>1999-11-30T00:00:00Z</time>
      </trkpt>
      <trkpt lat="40.770887" lon="-1.520239">
        <ele>1171.090</ele>
        <time>1999-11-30T00:00:00Z</time>
      </trkpt>
      <trkpt lat="40.771012" lon="-1.520576">
        <ele>1172.058</ele>
        <time>1999-11-30T00:00:00Z</time>
      </trkpt>
      <trkpt lat="40.771046" lon="-1.520865">
        <ele>1171.083</ele>
        <time>1999-11-30T00:00:00Z</time>
      </trkpt>
      <trkpt lat="40.77103" lon="-1.521349">
        <ele>1171.025</ele>
        <time>1999-11-30T00:00:00Z</time>
      </trkpt>
      <trkpt lat="40.771004" lon="-1.521704">
        <ele>1171.017</ele>
        <time>1999-11-30T00:00:00Z</time>
      </trkpt>
      <trkpt lat="40.770943" lon="-1.522153">
        <ele>1171.008</ele>
        <time>1999-11-30T00:00:00Z</time>
      </trkpt>
      <trkpt lat="40.770936" lon="-1.522561">
        <ele>1172.059</ele>
        <time>1999-11-30T00:00:00Z</time>
      </trkpt>
      <trkpt lat="40.770932" lon="-1.522786">
        <ele>1175.033</ele>
        <time>1999-11-30T00:00:00Z</time>
      </trkpt>
      <trkpt lat="40.770894" lon="-1.523071">
        <ele>1177.044</ele>
        <time>1999-11-30T00:00:00Z</time>
      </trkpt>
      <trkpt lat="40.770734" lon="-1.523337">
        <ele>1180.088</ele>
        <time>1999-11-30T00:00:00Z</time>
      </trkpt>
      <trkpt lat="40.770411" lon="-1.523665">
        <ele>1181.033</ele>
        <time>1999-11-30T00:00:00Z</time>
      </trkpt>
      <trkpt lat="40.770182" lon="-1.52387">
        <ele>1180.032</ele>
        <time>1999-11-30T00:00:00Z</time>
      </trkpt>
      <trkpt lat="40.769967" lon="-1.523986">
        <ele>1178.043</ele>
        <time>1999-11-30T00:00:00Z</time>
      </trkpt>
      <trkpt lat="40.769793" lon="-1.523976">
        <ele>1177.011</ele>
        <time>1999-11-30T00:00:00Z</time>
      </trkpt>
      <trkpt lat="40.769662" lon="-1.52402">
        <ele>1176.053</ele>
        <time>1999-11-30T00:00:00Z</time>
      </trkpt>
      <trkpt lat="40.769532" lon="-1.524181">
        <ele>1176.004</ele>
        <time>1999-11-30T00:00:00Z</time>
      </trkpt>
      <trkpt lat="40.769451" lon="-1.524504">
        <ele>1175.014</ele>
        <time>1999-11-30T00:00:00Z</time>
      </trkpt>
      <trkpt lat="40.769421" lon="-1.524905">
        <ele>1174.008</ele>
        <time>1999-11-30T00:00:00Z</time>
      </trkpt>
      <trkpt lat="40.769346" lon="-1.525288">
        <ele>1172.096</ele>
        <time>1999-11-30T00:00:00Z</time>
      </trkpt>
      <trkpt lat="40.769299" lon="-1.52572">
        <ele>1172.010</ele>
        <time>1999-11-30T00:00:00Z</time>
      </trkpt>
      <trkpt lat="40.769241" lon="-1.526151">
        <ele>1172.061</ele>
        <time>1999-11-30T00:00:00Z</time>
      </trkpt>
      <trkpt lat="40.769289" lon="-1.526531">
        <ele>1172.035</ele>
        <time>1999-11-30T00:00:00Z</time>
      </trkpt>
      <trkpt lat="40.769413" lon="-1.527187">
        <ele>1173.030</ele>
        <time>1999-11-30T00:00:00Z</time>
      </trkpt>
      <trkpt lat="40.769616" lon="-1.527862">
        <ele>1172.069</ele>
        <time>1999-11-30T00:00:00Z</time>
      </trkpt>
      <trkpt lat="40.769646" lon="-1.52809">
        <ele>1174.080</ele>
        <time>1999-11-30T00:00:00Z</time>
      </trkpt>
      <trkpt lat="40.769612" lon="-1.528333">
        <ele>1177.058</ele>
        <time>1999-11-30T00:00:00Z</time>
      </trkpt>
      <trkpt lat="40.769474" lon="-1.528655">
        <ele>1178.026</ele>
        <time>1999-11-30T00:00:00Z</time>
      </trkpt>
      <trkpt lat="40.769345" lon="-1.528929">
        <ele>1178.047</ele>
        <time>1999-11-30T00:00:00Z</time>
      </trkpt>
      <trkpt lat="40.769181" lon="-1.529245">
        <ele>1180.011</ele>
        <time>1999-11-30T00:00:00Z</time>
      </trkpt>
      <trkpt lat="40.769084" lon="-1.529455">
        <ele>1182.008</ele>
        <time>1999-11-30T00:00:00Z</time>
      </trkpt>
      <trkpt lat="40.769003" lon="-1.529785">
        <ele>1187.083</ele>
        <time>1999-11-30T00:00:00Z</time>
      </trkpt>
      <trkpt lat="40.769027" lon="-1.530173">
        <ele>1190.037</ele>
        <time>1999-11-30T00:00:00Z</time>
      </trkpt>
      <trkpt lat="40.769023" lon="-1.530586">
        <ele>1191.028</ele>
        <time>1999-11-30T00:00:00Z</time>
      </trkpt>
      <trkpt lat="40.769008" lon="-1.530995">
        <ele>1194.042</ele>
        <time>1999-11-30T00:00:00Z</time>
      </trkpt>
      <trkpt lat="40.76885" lon="-1.531851">
        <ele>1200.097</ele>
        <time>1999-11-30T00:00:00Z</time>
      </trkpt>
      <trkpt lat="40.76871" lon="-1.532373">
        <ele>1201.036</ele>
        <time>1999-11-30T00:00:00Z</time>
      </trkpt>
      <trkpt lat="40.768581" lon="-1.533077">
        <ele>1206.047</ele>
        <time>1999-11-30T00:00:00Z</time>
      </trkpt>
      <trkpt lat="40.768473" lon="-1.533732">
        <ele>1213.085</ele>
        <time>1999-11-30T00:00:00Z</time>
      </trkpt>
      <trkpt lat="40.768322" lon="-1.534177">
        <ele>1219.064</ele>
        <time>1999-11-30T00:00:00Z</time>
      </trkpt>
      <trkpt lat="40.768262" lon="-1.534533">
        <ele>1221.006</ele>
        <time>1999-11-30T00:00:00Z</time>
      </trkpt>
      <trkpt lat="40.768256" lon="-1.534908">
        <ele>1223.016</ele>
        <time>1999-11-30T00:00:00Z</time>
      </trkpt>
      <trkpt lat="40.768305" lon="-1.535268">
        <ele>1225.008</ele>
        <time>1999-11-30T00:00:00Z</time>
      </trkpt>
      <trkpt lat="40.768262" lon="-1.535677">
        <ele>1230.097</ele>
        <time>1999-11-30T00:00:00Z</time>
      </trkpt>
      <trkpt lat="40.768337" lon="-1.536369">
        <ele>1233.051</ele>
        <time>1999-11-30T00:00:00Z</time>
      </trkpt>
      <trkpt lat="40.768382" lon="-1.536745">
        <ele>1235.042</ele>
        <time>1999-11-30T00:00:00Z</time>
      </trkpt>
      <trkpt lat="40.768305" lon="-1.537077">
        <ele>1239.066</ele>
        <time>1999-11-30T00:00:00Z</time>
      </trkpt>
      <trkpt lat="40.768207" lon="-1.537266">
        <ele>1240.061</ele>
        <time>1999-11-30T00:00:00Z</time>
      </trkpt>
      <trkpt lat="40.767826" lon="-1.537926">
        <ele>1242.030</ele>
        <time>1999-11-30T00:00:00Z</time>
      </trkpt>
      <trkpt lat="40.767605" lon="-1.538262">
        <ele>1242.031</ele>
        <time>1999-11-30T00:00:00Z</time>
      </trkpt>
      <trkpt lat="40.767235" lon="-1.538815">
        <ele>1243.019</ele>
        <time>1999-11-30T00:00:00Z</time>
      </trkpt>
      <trkpt lat="40.767161" lon="-1.539151">
        <ele>1244.053</ele>
        <time>1999-11-30T00:00:00Z</time>
      </trkpt>
      <trkpt lat="40.767088" lon="-1.539322">
        <ele>1245.004</ele>
        <time>1999-11-30T00:00:00Z</time>
      </trkpt>
      <trkpt lat="40.766997" lon="-1.539476">
        <ele>1246.014</ele>
        <time>1999-11-30T00:00:00Z</time>
      </trkpt>
      <trkpt lat="40.766895" lon="-1.539756">
        <ele>1247.008</ele>
        <time>1999-11-30T00:00:00Z</time>
      </trkpt>
      <trkpt lat="40.766787" lon="-1.540043">
        <ele>1248.046</ele>
        <time>1999-11-30T00:00:00Z</time>
      </trkpt>
      <trkpt lat="40.766814" lon="-1.540403">
        <ele>1250.070</ele>
        <time>1999-11-30T00:00:00Z</time>
      </trkpt>
      <trkpt lat="40.766922" lon="-1.541066">
        <ele>1251.011</ele>
        <time>1999-11-30T00:00:00Z</time>
      </trkpt>
      <trkpt lat="40.766983" lon="-1.541383">
        <ele>1251.035</ele>
        <time>1999-11-30T00:00:00Z</time>
      </trkpt>
      <trkpt lat="40.767049" lon="-1.542135">
        <ele>1250.050</ele>
        <time>1999-11-30T00:00:00Z</time>
      </trkpt>
      <trkpt lat="40.767183" lon="-1.542724">
        <ele>1245.089</ele>
        <time>1999-11-30T00:00:00Z</time>
      </trkpt>
      <trkpt lat="40.767435" lon="-1.543062">
        <ele>1243.030</ele>
        <time>1999-11-30T00:00:00Z</time>
      </trkpt>
      <trkpt lat="40.767677" lon="-1.543374">
        <ele>1235.048</ele>
        <time>1999-11-30T00:00:00Z</time>
      </trkpt>
      <trkpt lat="40.767813" lon="-1.543828">
        <ele>1226.096</ele>
        <time>1999-11-30T00:00:00Z</time>
      </trkpt>
      <trkpt lat="40.767874" lon="-1.544285">
        <ele>1215.031</ele>
        <time>1999-11-30T00:00:00Z</time>
      </trkpt>
      <trkpt lat="40.767814" lon="-1.544833">
        <ele>1206.024</ele>
        <time>1999-11-30T00:00:00Z</time>
      </trkpt>
      <trkpt lat="40.767818" lon="-1.545068">
        <ele>1201.008</ele>
        <time>1999-11-30T00:00:00Z</time>
      </trkpt>
      <trkpt lat="40.768" lon="-1.545477">
        <ele>1194.050</ele>
        <time>1999-11-30T00:00:00Z</time>
      </trkpt>
      <trkpt lat="40.76823" lon="-1.545892">
        <ele>1188.024</ele>
        <time>1999-11-30T00:00:00Z</time>
      </trkpt>
      <trkpt lat="40.768337" lon="-1.546416">
        <ele>1183.085</ele>
        <time>1999-11-30T00:00:00Z</time>
      </trkpt>
      <trkpt lat="40.76836" lon="-1.547086">
        <ele>1177.029</ele>
        <time>1999-11-30T00:00:00Z</time>
      </trkpt>
      <trkpt lat="40.768316" lon="-1.548062">
        <ele>1168.064</ele>
        <time>1999-11-30T00:00:00Z</time>
      </trkpt>
      <trkpt lat="40.768264" lon="-1.548487">
        <ele>1167.013</ele>
        <time>1999-11-30T00:00:00Z</time>
      </trkpt>
      <trkpt lat="40.768257" lon="-1.548853">
        <ele>1165.014</ele>
        <time>1999-11-30T00:00:00Z</time>
      </trkpt>
      <trkpt lat="40.76821" lon="-1.549102">
        <ele>1163.082</ele>
        <time>1999-11-30T00:00:00Z</time>
      </trkpt>
      <trkpt lat="40.768154" lon="-1.549354">
        <ele>1162.035</ele>
        <time>1999-11-30T00:00:00Z</time>
      </trkpt>
      <trkpt lat="40.768185" lon="-1.549633">
        <ele>1161.086</ele>
        <time>1999-11-30T00:00:00Z</time>
      </trkpt>
      <trkpt lat="40.768205" lon="-1.549869">
        <ele>1160.014</ele>
        <time>1999-11-30T00:00:00Z</time>
      </trkpt>
      <trkpt lat="40.768186" lon="-1.550042">
        <ele>1159.008</ele>
        <time>1999-11-30T00:00:00Z</time>
      </trkpt>
      <trkpt lat="40.768172" lon="-1.550209">
        <ele>1158.094</ele>
        <time>1999-11-30T00:00:00Z</time>
      </trkpt>
      <trkpt lat="40.768196" lon="-1.550487">
        <ele>1156.098</ele>
        <time>1999-11-30T00:00:00Z</time>
      </trkpt>
      <trkpt lat="40.768222" lon="-1.550997">
        <ele>1154.079</ele>
        <time>1999-11-30T00:00:00Z</time>
      </trkpt>
      <trkpt lat="40.768192" lon="-1.551487">
        <ele>1152.033</ele>
        <time>1999-11-30T00:00:00Z</time>
      </trkpt>
      <trkpt lat="40.768169" lon="-1.551934">
        <ele>1151.038</ele>
        <time>1999-11-30T00:00:00Z</time>
      </trkpt>
      <trkpt lat="40.768144" lon="-1.552492">
        <ele>1150.017</ele>
        <time>1999-11-30T00:00:00Z</time>
      </trkpt>
      <trkpt lat="40.768151" lon="-1.55274">
        <ele>1150.098</ele>
        <time>1999-11-30T00:00:00Z</time>
      </trkpt>
      <trkpt lat="40.768162" lon="-1.552986">
        <ele>1150.046</ele>
        <time>1999-11-30T00:00:00Z</time>
      </trkpt>
      <trkpt lat="40.768128" lon="-1.553251">
        <ele>1150.095</ele>
        <time>1999-11-30T00:00:00Z</time>
      </trkpt>
      <trkpt lat="40.768069" lon="-1.554031">
        <ele>1153.049</ele>
        <time>1999-11-30T00:00:00Z</time>
      </trkpt>
      <trkpt lat="40.768015" lon="-1.554677">
        <ele>1156.023</ele>
        <time>1999-11-30T00:00:00Z</time>
      </trkpt>
      <trkpt lat="40.767976" lon="-1.555119">
        <ele>1158.008</ele>
        <time>1999-11-30T00:00:00Z</time>
      </trkpt>
      <trkpt lat="40.767984" lon="-1.55543">
        <ele>1159.040</ele>
        <time>1999-11-30T00:00:00Z</time>
      </trkpt>
      <trkpt lat="40.768024" lon="-1.555688">
        <ele>1161.054</ele>
        <time>1999-11-30T00:00:00Z</time>
      </trkpt>
      <trkpt lat="40.768114" lon="-1.555997">
        <ele>1162.075</ele>
        <time>1999-11-30T00:00:00Z</time>
      </trkpt>
      <trkpt lat="40.768206" lon="-1.556216">
        <ele>1164.029</ele>
        <time>1999-11-30T00:00:00Z</time>
      </trkpt>
      <trkpt lat="40.768259" lon="-1.556537">
        <ele>1166.094</ele>
        <time>1999-11-30T00:00:00Z</time>
      </trkpt>
      <trkpt lat="40.768273" lon="-1.556955">
        <ele>1168.023</ele>
        <time>1999-11-30T00:00:00Z</time>
      </trkpt>
      <trkpt lat="40.768341" lon="-1.557502">
        <ele>1171.094</ele>
        <time>1999-11-30T00:00:00Z</time>
      </trkpt>
      <trkpt lat="40.768425" lon="-1.558026">
        <ele>1174.062</ele>
        <time>1999-11-30T00:00:00Z</time>
      </trkpt>
      <trkpt lat="40.768797" lon="-1.558547">
        <ele>1175.074</ele>
        <time>1999-11-30T00:00:00Z</time>
      </trkpt>
      <trkpt lat="40.769126" lon="-1.559026">
        <ele>1175.056</ele>
        <time>1999-11-30T00:00:00Z</time>
      </trkpt>
      <trkpt lat="40.76921" lon="-1.559257">
        <ele>1176.021</ele>
        <time>1999-11-30T00:00:00Z</time>
      </trkpt>
      <trkpt lat="40.769305" lon="-1.559627">
        <ele>1177.008</ele>
        <time>1999-11-30T00:00:00Z</time>
      </trkpt>
      <trkpt lat="40.769475" lon="-1.560627">
        <ele>1178.048</ele>
        <time>1999-11-30T00:00:00Z</time>
      </trkpt>
      <trkpt lat="40.769559" lon="-1.561297">
        <ele>1178.092</ele>
        <time>1999-11-30T00:00:00Z</time>
      </trkpt>
      <trkpt lat="40.769603" lon="-1.561582">
        <ele>1179.013</ele>
        <time>1999-11-30T00:00:00Z</time>
      </trkpt>
      <trkpt lat="40.769685" lon="-1.561747">
        <ele>1180.017</ele>
        <time>1999-11-30T00:00:00Z</time>
      </trkpt>
      <trkpt lat="40.769762" lon="-1.561811">
        <ele>1180.092</ele>
        <time>1999-11-30T00:00:00Z</time>
      </trkpt>
      <trkpt lat="40.770546" lon="-1.56224">
        <ele>1183.041</ele>
        <time>1999-11-30T00:00:00Z</time>
      </trkpt>
      <trkpt lat="40.771484" lon="-1.562839">
        <ele>1189.082</ele>
        <time>1999-11-30T00:00:00Z</time>
      </trkpt>
      <trkpt lat="40.772967" lon="-1.563784">
        <ele>1190.070</ele>
        <time>1999-11-30T00:00:00Z</time>
      </trkpt>
      <trkpt lat="40.774012" lon="-1.564474">
        <ele>1189.021</ele>
        <time>1999-11-30T00:00:00Z</time>
      </trkpt>
      <trkpt lat="40.774588" lon="-1.564847">
        <ele>1191.041</ele>
        <time>1999-11-30T00:00:00Z</time>
      </trkpt>
      <trkpt lat="40.775124" lon="-1.565248">
        <ele>1193.005</ele>
        <time>1999-11-30T00:00:00Z</time>
      </trkpt>
      <trkpt lat="40.775665" lon="-1.565655">
        <ele>1192.008</ele>
        <time>1999-11-30T00:00:00Z</time>
      </trkpt>
      <trkpt lat="40.776034" lon="-1.566052">
        <ele>1192.043</ele>
        <time>1999-11-30T00:00:00Z</time>
      </trkpt>
      <trkpt lat="40.776379" lon="-1.566504">
        <ele>1191.047</ele>
        <time>1999-11-30T00:00:00Z</time>
      </trkpt>
      <trkpt lat="40.77658" lon="-1.566631">
        <ele>1190.068</ele>
        <time>1999-11-30T00:00:00Z</time>
      </trkpt>
      <trkpt lat="40.776859" lon="-1.566966">
        <ele>1188.042</ele>
        <time>1999-11-30T00:00:00Z</time>
      </trkpt>
      <trkpt lat="40.77726" lon="-1.567403">
        <ele>1187.047</ele>
        <time>1999-11-30T00:00:00Z</time>
      </trkpt>
      <trkpt lat="40.777722" lon="-1.567959">
        <ele>1187.076</ele>
        <time>1999-11-30T00:00:00Z</time>
      </trkpt>
      <trkpt lat="40.778119" lon="-1.568216">
        <ele>1186.087</ele>
        <time>1999-11-30T00:00:00Z</time>
      </trkpt>
      <trkpt lat="40.778265" lon="-1.5683">
        <ele>1185.065</ele>
        <time>1999-11-30T00:00:00Z</time>
      </trkpt>
      <trkpt lat="40.778542" lon="-1.568458">
        <ele>1184.097</ele>
        <time>1999-11-30T00:00:00Z</time>
      </trkpt>
      <trkpt lat="40.778866" lon="-1.56882">
        <ele>1185.023</ele>
        <time>1999-11-30T00:00:00Z</time>
      </trkpt>
      <trkpt lat="40.779158" lon="-1.568958">
        <ele>1185.025</ele>
        <time>1999-11-30T00:00:00Z</time>
      </trkpt>
      <trkpt lat="40.77883" lon="-1.569937">
        <ele>1188.008</ele>
        <time>1999-11-30T00:00:00Z</time>
      </trkpt>
      <trkpt lat="40.779348" lon="-1.570094">
        <ele>1189.040</ele>
        <time>1999-11-30T00:00:00Z</time>
      </trkpt>
      <trkpt lat="40.779744" lon="-1.570575">
        <ele>1189.044</ele>
        <time>1999-11-30T00:00:00Z</time>
      </trkpt>
      <trkpt lat="40.779984" lon="-1.570695">
        <ele>1190.095</ele>
        <time>1999-11-30T00:00:00Z</time>
      </trkpt>
      <trkpt lat="40.779883" lon="-1.570861">
        <ele>1189.079</ele>
        <time>1999-11-30T00:00:00Z</time>
      </trkpt>
      <trkpt lat="40.779794" lon="-1.571067">
        <ele>1191.054</ele>
        <time>1999-11-30T00:00:00Z</time>
      </trkpt>
      <trkpt lat="40.779476" lon="-1.571428">
        <ele>1192.093</ele>
        <time>1999-11-30T00:00:00Z</time>
      </trkpt>
      <trkpt lat="40.779125" lon="-1.571772">
        <ele>1193.034</ele>
        <time>1999-11-30T00:00:00Z</time>
      </trkpt>
      <trkpt lat="40.778534" lon="-1.572531">
        <ele>1193.072</ele>
        <time>1999-11-30T00:00:00Z</time>
      </trkpt>
      <trkpt lat="40.778221" lon="-1.572951">
        <ele>1194.075</ele>
        <time>1999-11-30T00:00:00Z</time>
      </trkpt>
      <trkpt lat="40.778151" lon="-1.573217">
        <ele>1195.028</ele>
        <time>1999-11-30T00:00:00Z</time>
      </trkpt>
      <trkpt lat="40.778148" lon="-1.573427">
        <ele>1196.020</ele>
        <time>1999-11-30T00:00:00Z</time>
      </trkpt>
      <trkpt lat="40.778032" lon="-1.574075">
        <ele>1199.008</ele>
        <time>1999-11-30T00:00:00Z</time>
      </trkpt>
      <trkpt lat="40.777977" lon="-1.574536">
        <ele>1201.098</ele>
        <time>1999-11-30T00:00:00Z</time>
      </trkpt>
      <trkpt lat="40.77793" lon="-1.57511">
        <ele>1204.052</ele>
        <time>1999-11-30T00:00:00Z</time>
      </trkpt>
      <trkpt lat="40.777702" lon="-1.576996">
        <ele>1213.083</ele>
        <time>1999-11-30T00:00:00Z</time>
      </trkpt>
      <trkpt lat="40.777582" lon="-1.57815">
        <ele>1219.017</ele>
        <time>1999-11-30T00:00:00Z</time>
      </trkpt>
      <trkpt lat="40.777492" lon="-1.578955">
        <ele>1223.092</ele>
        <time>1999-11-30T00:00:00Z</time>
      </trkpt>
      <trkpt lat="40.777457" lon="-1.579363">
        <ele>1227.091</ele>
        <time>1999-11-30T00:00:00Z</time>
      </trkpt>
      <trkpt lat="40.77748" lon="-1.57978">
        <ele>1229.052</ele>
        <time>1999-11-30T00:00:00Z</time>
      </trkpt>
      <trkpt lat="40.77753" lon="-1.580298">
        <ele>1232.060</ele>
        <time>1999-11-30T00:00:00Z</time>
      </trkpt>
      <trkpt lat="40.777617" lon="-1.580623">
        <ele>1233.011</ele>
        <time>1999-11-30T00:00:00Z</time>
      </trkpt>
      <trkpt lat="40.777574" lon="-1.581236">
        <ele>1233.021</ele>
        <time>1999-11-30T00:00:00Z</time>
      </trkpt>
      <trkpt lat="40.777546" lon="-1.581743">
        <ele>1232.003</ele>
        <time>1999-11-30T00:00:00Z</time>
      </trkpt>
      <trkpt lat="40.777479" lon="-1.582066">
        <ele>1232.008</ele>
        <time>1999-11-30T00:00:00Z</time>
      </trkpt>
      <trkpt lat="40.777403" lon="-1.582279">
        <ele>1232.012</ele>
        <time>1999-11-30T00:00:00Z</time>
      </trkpt>
      <trkpt lat="40.777269" lon="-1.582387">
        <ele>1232.086</ele>
        <time>1999-11-30T00:00:00Z</time>
      </trkpt>
      <trkpt lat="40.777094" lon="-1.582476">
        <ele>1233.067</ele>
        <time>1999-11-30T00:00:00Z</time>
      </trkpt>
      <trkpt lat="40.777032" lon="-1.582603">
        <ele>1233.051</ele>
        <time>1999-11-30T00:00:00Z</time>
      </trkpt>
      <trkpt lat="40.776965" lon="-1.582919">
        <ele>1234.076</ele>
        <time>1999-11-30T00:00:00Z</time>
      </trkpt>
      <trkpt lat="40.776828" lon="-1.583955">
        <ele>1234.035</ele>
        <time>1999-11-30T00:00:00Z</time>
      </trkpt>
      <trkpt lat="40.776702" lon="-1.584649">
        <ele>1235.056</ele>
        <time>1999-11-30T00:00:00Z</time>
      </trkpt>
      <trkpt lat="40.776638" lon="-1.585177">
        <ele>1236.094</ele>
        <time>1999-11-30T00:00:00Z</time>
      </trkpt>
      <trkpt lat="40.776599" lon="-1.585644">
        <ele>1238.066</ele>
        <time>1999-11-30T00:00:00Z</time>
      </trkpt>
      <trkpt lat="40.776516" lon="-1.585844">
        <ele>1239.029</ele>
        <time>1999-11-30T00:00:00Z</time>
      </trkpt>
      <trkpt lat="40.776423" lon="-1.58597">
        <ele>1240.021</ele>
        <time>1999-11-30T00:00:00Z</time>
      </trkpt>
      <trkpt lat="40.776068" lon="-1.586413">
        <ele>1242.008</ele>
        <time>1999-11-30T00:00:00Z</time>
      </trkpt>
      <trkpt lat="40.775759" lon="-1.58684">
        <ele>1244.027</ele>
        <time>1999-11-30T00:00:00Z</time>
      </trkpt>
      <trkpt lat="40.775578" lon="-1.587199">
        <ele>1245.011</ele>
        <time>1999-11-30T00:00:00Z</time>
      </trkpt>
      <trkpt lat="40.775444" lon="-1.587735">
        <ele>1246.072</ele>
        <time>1999-11-30T00:00:00Z</time>
      </trkpt>
      <trkpt lat="40.775386" lon="-1.587995">
        <ele>1247.076</ele>
        <time>1999-11-30T00:00:00Z</time>
      </trkpt>
      <trkpt lat="40.77534" lon="-1.588236">
        <ele>1247.041</ele>
        <time>1999-11-30T00:00:00Z</time>
      </trkpt>
      <trkpt lat="40.775316" lon="-1.588486">
        <ele>1247.020</ele>
        <time>1999-11-30T00:00:00Z</time>
      </trkpt>
      <trkpt lat="40.775369" lon="-1.588861">
        <ele>1246.021</ele>
        <time>1999-11-30T00:00:00Z</time>
      </trkpt>
      <trkpt lat="40.775441" lon="-1.589435">
        <ele>1243.019</ele>
        <time>1999-11-30T00:00:00Z</time>
      </trkpt>
      <trkpt lat="40.775486" lon="-1.589832">
        <ele>1240.099</ele>
        <time>1999-11-30T00:00:00Z</time>
      </trkpt>
      <trkpt lat="40.775499" lon="-1.589924">
        <ele>1240.007</ele>
        <time>1999-11-30T00:00:00Z</time>
      </trkpt>
      <trkpt lat="40.77547" lon="-1.589973">
        <ele>1239.027</ele>
        <time>1999-11-30T00:00:00Z</time>
      </trkpt>
      <trkpt lat="40.775372" lon="-1.590156">
        <ele>1239.008</ele>
        <time>1999-11-30T00:00:00Z</time>
      </trkpt>
      <trkpt lat="40.775279" lon="-1.590233">
        <ele>1239.010</ele>
        <time>1999-11-30T00:00:00Z</time>
      </trkpt>
      <trkpt lat="40.775115" lon="-1.590338">
        <ele>1240.034</ele>
        <time>1999-11-30T00:00:00Z</time>
      </trkpt>
      <trkpt lat="40.774969" lon="-1.590455">
        <ele>1240.055</ele>
        <time>1999-11-30T00:00:00Z</time>
      </trkpt>
      <trkpt lat="40.774851" lon="-1.590585">
        <ele>1241.079</ele>
        <time>1999-11-30T00:00:00Z</time>
      </trkpt>
      <trkpt lat="40.774779" lon="-1.590679">
        <ele>1241.014</ele>
        <time>1999-11-30T00:00:00Z</time>
      </trkpt>
      <trkpt lat="40.774742" lon="-1.59102">
        <ele>1240.033</ele>
        <time>1999-11-30T00:00:00Z</time>
      </trkpt>
      <trkpt lat="40.77469" lon="-1.591333">
        <ele>1239.044</ele>
        <time>1999-11-30T00:00:00Z</time>
      </trkpt>
      <trkpt lat="40.774617" lon="-1.59155">
        <ele>1238.092</ele>
        <time>1999-11-30T00:00:00Z</time>
      </trkpt>
      <trkpt lat="40.774491" lon="-1.591734">
        <ele>1238.013</ele>
        <time>1999-11-30T00:00:00Z</time>
      </trkpt>
      <trkpt lat="40.774305" lon="-1.591895">
        <ele>1238.043</ele>
        <time>1999-11-30T00:00:00Z</time>
      </trkpt>
      <trkpt lat="40.7741" lon="-1.59203">
        <ele>1239.007</ele>
        <time>1999-11-30T00:00:00Z</time>
      </trkpt>
      <trkpt lat="40.773892" lon="-1.592202">
        <ele>1239.008</ele>
        <time>1999-11-30T00:00:00Z</time>
      </trkpt>
      <trkpt lat="40.773687" lon="-1.592389">
        <ele>1239.072</ele>
        <time>1999-11-30T00:00:00Z</time>
      </trkpt>
      <trkpt lat="40.773303" lon="-1.592627">
        <ele>1240.046</ele>
        <time>1999-11-30T00:00:00Z</time>
      </trkpt>
      <trkpt lat="40.773112" lon="-1.592803">
        <ele>1240.067</ele>
        <time>1999-11-30T00:00:00Z</time>
      </trkpt>
      <trkpt lat="40.772936" lon="-1.59301">
        <ele>1240.021</ele>
        <time>1999-11-30T00:00:00Z</time>
      </trkpt>
      <trkpt lat="40.772683" lon="-1.593273">
        <ele>1239.096</ele>
        <time>1999-11-30T00:00:00Z</time>
      </trkpt>
      <trkpt lat="40.772084" lon="-1.593744">
        <ele>1240.025</ele>
        <time>1999-11-30T00:00:00Z</time>
      </trkpt>
      <trkpt lat="40.771716" lon="-1.594059">
        <ele>1239.056</ele>
        <time>1999-11-30T00:00:00Z</time>
      </trkpt>
      <trkpt lat="40.7714" lon="-1.594339">
        <ele>1239.064</ele>
        <time>1999-11-30T00:00:00Z</time>
      </trkpt>
      <trkpt lat="40.770908" lon="-1.59472">
        <ele>1239.065</ele>
        <time>1999-11-30T00:00:00Z</time>
      </trkpt>
      <trkpt lat="40.77052" lon="-1.595067">
        <ele>1239.068</ele>
        <time>1999-11-30T00:00:00Z</time>
      </trkpt>
      <trkpt lat="40.769864" lon="-1.595713">
        <ele>1239.014</ele>
        <time>1999-11-30T00:00:00Z</time>
      </trkpt>
      <trkpt lat="40.769257" lon="-1.596363">
        <ele>1238.008</ele>
        <time>1999-11-30T00:00:00Z</time>
      </trkpt>
      <trkpt lat="40.768942" lon="-1.596647">
        <ele>1238.067</ele>
        <time>1999-11-30T00:00:00Z</time>
      </trkpt>
      <trkpt lat="40.768643" lon="-1.596852">
        <ele>1239.081</ele>
        <time>1999-11-30T00:00:00Z</time>
      </trkpt>
      <trkpt lat="40.768288" lon="-1.597026">
        <ele>1239.022</ele>
        <time>1999-11-30T00:00:00Z</time>
      </trkpt>
      <trkpt lat="40.767971" lon="-1.597142">
        <ele>1239.086</ele>
        <time>1999-11-30T00:00:00Z</time>
      </trkpt>
      <trkpt lat="40.767687" lon="-1.597253">
        <ele>1239.051</ele>
        <time>1999-11-30T00:00:00Z</time>
      </trkpt>
      <trkpt lat="40.767249" lon="-1.597487">
        <ele>1241.090</ele>
        <time>1999-11-30T00:00:00Z</time>
      </trkpt>
      <trkpt lat="40.766725" lon="-1.59779">
        <ele>1242.071</ele>
        <time>1999-11-30T00:00:00Z</time>
      </trkpt>
      <trkpt lat="40.766175" lon="-1.598042">
        <ele>1242.079</ele>
        <time>1999-11-30T00:00:00Z</time>
      </trkpt>
      <trkpt lat="40.765748" lon="-1.598161">
        <ele>1242.017</ele>
        <time>1999-11-30T00:00:00Z</time>
      </trkpt>
      <trkpt lat="40.765403" lon="-1.598199">
        <ele>1243.087</ele>
        <time>1999-11-30T00:00:00Z</time>
      </trkpt>
      <trkpt lat="40.764955" lon="-1.598198">
        <ele>1244.015</ele>
        <time>1999-11-30T00:00:00Z</time>
      </trkpt>
      <trkpt lat="40.764657" lon="-1.598205">
        <ele>1245.008</ele>
        <time>1999-11-30T00:00:00Z</time>
      </trkpt>
      <trkpt lat="40.764498" lon="-1.598219">
        <ele>1245.072</ele>
        <time>1999-11-30T00:00:00Z</time>
      </trkpt>
      <trkpt lat="40.764348" lon="-1.598248">
        <ele>1245.066</ele>
        <time>1999-11-30T00:00:00Z</time>
      </trkpt>
      <trkpt lat="40.764178" lon="-1.598324">
        <ele>1246.087</ele>
        <time>1999-11-30T00:00:00Z</time>
      </trkpt>
      <trkpt lat="40.763942" lon="-1.598507">
        <ele>1246.091</ele>
        <time>1999-11-30T00:00:00Z</time>
      </trkpt>
      <trkpt lat="40.763269" lon="-1.599012">
        <ele>1248.016</ele>
        <time>1999-11-30T00:00:00Z</time>
      </trkpt>
      <trkpt lat="40.763033" lon="-1.599184">
        <ele>1248.045</ele>
        <time>1999-11-30T00:00:00Z</time>
      </trkpt>
      <trkpt lat="40.762494" lon="-1.5993">
        <ele>1249.026</ele>
        <time>1999-11-30T00:00:00Z</time>
      </trkpt>
      <trkpt lat="40.76192" lon="-1.599345">
        <ele>1249.014</ele>
        <time>1999-11-30T00:00:00Z</time>
      </trkpt>
      <trkpt lat="40.761676" lon="-1.59937">
        <ele>1250.042</ele>
        <time>1999-11-30T00:00:00Z</time>
      </trkpt>
      <trkpt lat="40.761529" lon="-1.599373">
        <ele>1250.022</ele>
        <time>1999-11-30T00:00:00Z</time>
      </trkpt>
      <trkpt lat="40.761525" lon="-1.599463">
        <ele>1250.014</ele>
        <time>1999-11-30T00:00:00Z</time>
      </trkpt>
      <trkpt lat="40.761586" lon="-1.599585">
        <ele>1250.008</ele>
        <time>1999-11-30T00:00:00Z</time>
      </trkpt>
      <trkpt lat="40.761725" lon="-1.599783">
        <ele>1250.065</ele>
        <time>1999-11-30T00:00:00Z</time>
      </trkpt>
      <trkpt lat="40.761918" lon="-1.600218">
        <ele>1252.099</ele>
        <time>1999-11-30T00:00:00Z</time>
      </trkpt>
      <trkpt lat="40.761955" lon="-1.600417">
        <ele>1252.080</ele>
        <time>1999-11-30T00:00:00Z</time>
      </trkpt>
      <trkpt lat="40.761972" lon="-1.600514">
        <ele>1253.094</ele>
        <time>1999-11-30T00:00:00Z</time>
      </trkpt>
      <trkpt lat="40.762013" lon="-1.6006">
        <ele>1253.019</ele>
        <time>1999-11-30T00:00:00Z</time>
      </trkpt>
      <trkpt lat="40.76219" lon="-1.600654">
        <ele>1252.098</ele>
        <time>1999-11-30T00:00:00Z</time>
      </trkpt>
      <trkpt lat="40.762346" lon="-1.600767">
        <ele>1251.049</ele>
        <time>1999-11-30T00:00:00Z</time>
      </trkpt>
      <trkpt lat="40.762582" lon="-1.601046">
        <ele>1250.027</ele>
        <time>1999-11-30T00:00:00Z</time>
      </trkpt>
      <trkpt lat="40.763098" lon="-1.601794">
        <ele>1253.082</ele>
        <time>1999-11-30T00:00:00Z</time>
      </trkpt>
      <trkpt lat="40.763522" lon="-1.60226">
        <ele>1255.043</ele>
        <time>1999-11-30T00:00:00Z</time>
      </trkpt>
      <trkpt lat="40.763826" lon="-1.602659">
        <ele>1256.017</ele>
        <time>1999-11-30T00:00:00Z</time>
      </trkpt>
      <trkpt lat="40.763958" lon="-1.602969">
        <ele>1256.008</ele>
        <time>1999-11-30T00:00:00Z</time>
      </trkpt>
      <trkpt lat="40.764206" lon="-1.603798">
        <ele>1258.049</ele>
        <time>1999-11-30T00:00:00Z</time>
      </trkpt>
      <trkpt lat="40.764485" lon="-1.604656">
        <ele>1259.043</ele>
        <time>1999-11-30T00:00:00Z</time>
      </trkpt>
      <trkpt lat="40.764621" lon="-1.605018">
        <ele>1259.034</ele>
        <time>1999-11-30T00:00:00Z</time>
      </trkpt>
      <trkpt lat="40.764799" lon="-1.605461">
        <ele>1259.058</ele>
        <time>1999-11-30T00:00:00Z</time>
      </trkpt>
      <trkpt lat="40.765041" lon="-1.605849">
        <ele>1259.043</ele>
        <time>1999-11-30T00:00:00Z</time>
      </trkpt>
      <trkpt lat="40.765293" lon="-1.606283">
        <ele>1258.012</ele>
        <time>1999-11-30T00:00:00Z</time>
      </trkpt>
      <trkpt lat="40.765563" lon="-1.606754">
        <ele>1258.083</ele>
        <time>1999-11-30T00:00:00Z</time>
      </trkpt>
      <trkpt lat="40.765989" lon="-1.607342">
        <ele>1258.031</ele>
        <time>1999-11-30T00:00:00Z</time>
      </trkpt>
      <trkpt lat="40.766386" lon="-1.607814">
        <ele>1258.079</ele>
        <time>1999-11-30T00:00:00Z</time>
      </trkpt>
      <trkpt lat="40.76665" lon="-1.608168">
        <ele>1258.005</ele>
        <time>1999-11-30T00:00:00Z</time>
      </trkpt>
      <trkpt lat="40.76688" lon="-1.608574">
        <ele>1260.025</ele>
        <time>1999-11-30T00:00:00Z</time>
      </trkpt>
      <trkpt lat="40.767188" lon="-1.608962">
        <ele>1259.008</ele>
        <time>1999-11-30T00:00:00Z</time>
      </trkpt>
      <trkpt lat="40.767288" lon="-1.609128">
        <ele>1260.058</ele>
        <time>1999-11-30T00:00:00Z</time>
      </trkpt>
      <trkpt lat="40.767329" lon="-1.60929">
        <ele>1260.042</ele>
        <time>1999-11-30T00:00:00Z</time>
      </trkpt>
      <trkpt lat="40.767374" lon="-1.609387">
        <ele>1261.013</ele>
        <time>1999-11-30T00:00:00Z</time>
      </trkpt>
      <trkpt lat="40.767619" lon="-1.609585">
        <ele>1261.067</ele>
        <time>1999-11-30T00:00:00Z</time>
      </trkpt>
      <trkpt lat="40.767771" lon="-1.609796">
        <ele>1261.062</ele>
        <time>1999-11-30T00:00:00Z</time>
      </trkpt>
      <trkpt lat="40.767881" lon="-1.610129">
        <ele>1262.011</ele>
        <time>1999-11-30T00:00:00Z</time>
      </trkpt>
      <trkpt lat="40.767992" lon="-1.61051">
        <ele>1262.072</ele>
        <time>1999-11-30T00:00:00Z</time>
      </trkpt>
      <trkpt lat="40.768081" lon="-1.610839">
        <ele>1262.060</ele>
        <time>1999-11-30T00:00:00Z</time>
      </trkpt>
      <trkpt lat="40.768254" lon="-1.611076">
        <ele>1262.032</ele>
        <time>1999-11-30T00:00:00Z</time>
      </trkpt>
      <trkpt lat="40.768392" lon="-1.611372">
        <ele>1261.092</ele>
        <time>1999-11-30T00:00:00Z</time>
      </trkpt>
      <trkpt lat="40.768484" lon="-1.611748">
        <ele>1261.011</ele>
        <time>1999-11-30T00:00:00Z</time>
      </trkpt>
      <trkpt lat="40.76853" lon="-1.612016">
        <ele>1260.008</ele>
        <time>1999-11-30T00:00:00Z</time>
      </trkpt>
      <trkpt lat="40.768613" lon="-1.61233">
        <ele>1260.054</ele>
        <time>1999-11-30T00:00:00Z</time>
      </trkpt>
      <trkpt lat="40.768721" lon="-1.612636">
        <ele>1262.078</ele>
        <time>1999-11-30T00:00:00Z</time>
      </trkpt>
      <trkpt lat="40.768823" lon="-1.612783">
        <ele>1262.049</ele>
        <time>1999-11-30T00:00:00Z</time>
      </trkpt>
      <trkpt lat="40.768973" lon="-1.61287">
        <ele>1262.023</ele>
        <time>1999-11-30T00:00:00Z</time>
      </trkpt>
      <trkpt lat="40.769107" lon="-1.612915">
        <ele>1263.068</ele>
        <time>1999-11-30T00:00:00Z</time>
      </trkpt>
      <trkpt lat="40.769323" lon="-1.612942">
        <ele>1263.027</ele>
        <time>1999-11-30T00:00:00Z</time>
      </trkpt>
      <trkpt lat="40.769474" lon="-1.612988">
        <ele>1263.058</ele>
        <time>1999-11-30T00:00:00Z</time>
      </trkpt>
      <trkpt lat="40.769649" lon="-1.613076">
        <ele>1264.026</ele>
        <time>1999-11-30T00:00:00Z</time>
      </trkpt>
      <trkpt lat="40.769846" lon="-1.613162">
        <ele>1264.023</ele>
        <time>1999-11-30T00:00:00Z</time>
      </trkpt>
      <trkpt lat="40.770065" lon="-1.613248">
        <ele>1262.083</ele>
        <time>1999-11-30T00:00:00Z</time>
      </trkpt>
      <trkpt lat="40.770357" lon="-1.613328">
        <ele>1260.011</ele>
        <time>1999-11-30T00:00:00Z</time>
      </trkpt>
      <trkpt lat="40.770631" lon="-1.613301">
        <ele>1259.008</ele>
        <time>1999-11-30T00:00:00Z</time>
      </trkpt>
      <trkpt lat="40.770885" lon="-1.613296">
        <ele>1259.043</ele>
        <time>1999-11-30T00:00:00Z</time>
      </trkpt>
      <trkpt lat="40.77116" lon="-1.613311">
        <ele>1258.037</ele>
        <time>1999-11-30T00:00:00Z</time>
      </trkpt>
      <trkpt lat="40.771294" lon="-1.613291">
        <ele>1258.018</ele>
        <time>1999-11-30T00:00:00Z</time>
      </trkpt>
      <trkpt lat="40.771538" lon="-1.613227">
        <ele>1257.022</ele>
        <time>1999-11-30T00:00:00Z</time>
      </trkpt>
      <trkpt lat="40.771795" lon="-1.613159">
        <ele>1255.027</ele>
        <time>1999-11-30T00:00:00Z</time>
      </trkpt>
      <trkpt lat="40.77199" lon="-1.613141">
        <ele>1253.036</ele>
        <time>1999-11-30T00:00:00Z</time>
      </trkpt>
      <trkpt lat="40.772162" lon="-1.613187">
        <ele>1251.087</ele>
        <time>1999-11-30T00:00:00Z</time>
      </trkpt>
      <trkpt lat="40.772336" lon="-1.613296">
        <ele>1250.015</ele>
        <time>1999-11-30T00:00:00Z</time>
      </trkpt>
      <trkpt lat="40.77246" lon="-1.613361">
        <ele>1250.028</ele>
        <time>1999-11-30T00:00:00Z</time>
      </trkpt>
      <trkpt lat="40.772754" lon="-1.613441">
        <ele>1250.089</ele>
        <time>1999-11-30T00:00:00Z</time>
      </trkpt>
      <trkpt lat="40.772898" lon="-1.613507">
        <ele>1250.017</ele>
        <time>1999-11-30T00:00:00Z</time>
      </trkpt>
      <trkpt lat="40.773" lon="-1.613581">
        <ele>1250.008</ele>
        <time>1999-11-30T00:00:00Z</time>
      </trkpt>
      <trkpt lat="40.773382" lon="-1.613663">
        <ele>1250.073</ele>
        <time>1999-11-30T00:00:00Z</time>
      </trkpt>
      <trkpt lat="40.773633" lon="-1.613685">
        <ele>1250.057</ele>
        <time>1999-11-30T00:00:00Z</time>
      </trkpt>
      <trkpt lat="40.773874" lon="-1.613739">
        <ele>1250.038</ele>
        <time>1999-11-30T00:00:00Z</time>
      </trkpt>
      <trkpt lat="40.774023" lon="-1.613817">
        <ele>1250.052</ele>
        <time>1999-11-30T00:00:00Z</time>
      </trkpt>
      <trkpt lat="40.774103" lon="-1.613901">
        <ele>1250.077</ele>
        <time>1999-11-30T00:00:00Z</time>
      </trkpt>
      <trkpt lat="40.774101" lon="-1.614087">
        <ele>1250.056</ele>
        <time>1999-11-30T00:00:00Z</time>
      </trkpt>
      <trkpt lat="40.774048" lon="-1.614219">
        <ele>1250.017</ele>
        <time>1999-11-30T00:00:00Z</time>
      </trkpt>
      <trkpt lat="40.773961" lon="-1.614407">
        <ele>1251.015</ele>
        <time>1999-11-30T00:00:00Z</time>
      </trkpt>
      <trkpt lat="40.773891" lon="-1.614597">
        <ele>1252.077</ele>
        <time>1999-11-30T00:00:00Z</time>
      </trkpt>
      <trkpt lat="40.773871" lon="-1.614817">
        <ele>1253.061</ele>
        <time>1999-11-30T00:00:00Z</time>
      </trkpt>
      <trkpt lat="40.773849" lon="-1.615154">
        <ele>1254.027</ele>
        <time>1999-11-30T00:00:00Z</time>
      </trkpt>
      <trkpt lat="40.773793" lon="-1.615341">
        <ele>1255.008</ele>
        <time>1999-11-30T00:00:00Z</time>
      </trkpt>
      <trkpt lat="40.773729" lon="-1.615501">
        <ele>1256.018</ele>
        <time>1999-11-30T00:00:00Z</time>
      </trkpt>
      <trkpt lat="40.773653" lon="-1.615785">
        <ele>1258.032</ele>
        <time>1999-11-30T00:00:00Z</time>
      </trkpt>
      <trkpt lat="40.773619" lon="-1.616082">
        <ele>1260.073</ele>
        <time>1999-11-30T00:00:00Z</time>
      </trkpt>
      <trkpt lat="40.773558" lon="-1.616384">
        <ele>1261.027</ele>
        <time>1999-11-30T00:00:00Z</time>
      </trkpt>
      <trkpt lat="40.77355" lon="-1.616619">
        <ele>1261.062</ele>
        <time>1999-11-30T00:00:00Z</time>
      </trkpt>
      <trkpt lat="40.773534" lon="-1.616912">
        <ele>1261.031</ele>
        <time>1999-11-30T00:00:00Z</time>
      </trkpt>
      <trkpt lat="40.773482" lon="-1.617117">
        <ele>1260.062</ele>
        <time>1999-11-30T00:00:00Z</time>
      </trkpt>
      <trkpt lat="40.773297" lon="-1.617507">
        <ele>1262.070</ele>
        <time>1999-11-30T00:00:00Z</time>
      </trkpt>
      <trkpt lat="40.77317" lon="-1.6178">
        <ele>1264.063</ele>
        <time>1999-11-30T00:00:00Z</time>
      </trkpt>
      <trkpt lat="40.77312" lon="-1.618024">
        <ele>1264.044</ele>
        <time>1999-11-30T00:00:00Z</time>
      </trkpt>
      <trkpt lat="40.773048" lon="-1.618281">
        <ele>1265.018</ele>
        <time>1999-11-30T00:00:00Z</time>
      </trkpt>
      <trkpt lat="40.772979" lon="-1.618429">
        <ele>1266.008</ele>
        <time>1999-11-30T00:00:00Z</time>
      </trkpt>
      <trkpt lat="40.77282" lon="-1.618704">
        <ele>1267.017</ele>
        <time>1999-11-30T00:00:00Z</time>
      </trkpt>
      <trkpt lat="40.772681" lon="-1.618893">
        <ele>1268.041</ele>
        <time>1999-11-30T00:00:00Z</time>
      </trkpt>
      <trkpt lat="40.772572" lon="-1.619138">
        <ele>1269.072</ele>
        <time>1999-11-30T00:00:00Z</time>
      </trkpt>
      <trkpt lat="40.77247" lon="-1.619458">
        <ele>1271.046</ele>
        <time>1999-11-30T00:00:00Z</time>
      </trkpt>
      <trkpt lat="40.772341" lon="-1.619758">
        <ele>1272.061</ele>
        <time>1999-11-30T00:00:00Z</time>
      </trkpt>
      <trkpt lat="40.77215" lon="-1.620222">
        <ele>1274.010</ele>
        <time>1999-11-30T00:00:00Z</time>
      </trkpt>
      <trkpt lat="40.771968" lon="-1.620719">
        <ele>1275.011</ele>
        <time>1999-11-30T00:00:00Z</time>
      </trkpt>
      <trkpt lat="40.771875" lon="-1.621075">
        <ele>1277.029</ele>
        <time>1999-11-30T00:00:00Z</time>
      </trkpt>
      <trkpt lat="40.771854" lon="-1.621293">
        <ele>1277.068</ele>
        <time>1999-11-30T00:00:00Z</time>
      </trkpt>
      <trkpt lat="40.771837" lon="-1.621701">
        <ele>1278.042</ele>
        <time>1999-11-30T00:00:00Z</time>
      </trkpt>
      <trkpt lat="40.771829" lon="-1.622215">
        <ele>1282.026</ele>
        <time>1999-11-30T00:00:00Z</time>
      </trkpt>
      <trkpt lat="40.771839" lon="-1.622887">
        <ele>1287.008</ele>
        <time>1999-11-30T00:00:00Z</time>
      </trkpt>
      <trkpt lat="40.77184" lon="-1.623398">
        <ele>1290.047</ele>
        <time>1999-11-30T00:00:00Z</time>
      </trkpt>
      <trkpt lat="40.771833" lon="-1.623678">
        <ele>1292.071</ele>
        <time>1999-11-30T00:00:00Z</time>
      </trkpt>
      <trkpt lat="40.771869" lon="-1.623956">
        <ele>1292.032</ele>
        <time>1999-11-30T00:00:00Z</time>
      </trkpt>
      <trkpt lat="40.771882" lon="-1.624159">
        <ele>1293.016</ele>
        <time>1999-11-30T00:00:00Z</time>
      </trkpt>
      <trkpt lat="40.771871" lon="-1.624592">
        <ele>1293.091</ele>
        <time>1999-11-30T00:00:00Z</time>
      </trkpt>
      <trkpt lat="40.771865" lon="-1.625225">
        <ele>1292.020</ele>
        <time>1999-11-30T00:00:00Z</time>
      </trkpt>
      <trkpt lat="40.771893" lon="-1.625723">
        <ele>1290.031</ele>
        <time>1999-11-30T00:00:00Z</time>
      </trkpt>
      <trkpt lat="40.771953" lon="-1.626672">
        <ele>1288.069</ele>
        <time>1999-11-30T00:00:00Z</time>
      </trkpt>
      <trkpt lat="40.771994" lon="-1.627169">
        <ele>1287.082</ele>
        <time>1999-11-30T00:00:00Z</time>
      </trkpt>
      <trkpt lat="40.772073" lon="-1.628297">
        <ele>1285.043</ele>
        <time>1999-11-30T00:00:00Z</time>
      </trkpt>
      <trkpt lat="40.772129" lon="-1.62918">
        <ele>1283.017</ele>
        <time>1999-11-30T00:00:00Z</time>
      </trkpt>
      <trkpt lat="40.772176" lon="-1.629728">
        <ele>1282.008</ele>
        <time>1999-11-30T00:00:00Z</time>
      </trkpt>
      <trkpt lat="40.772242" lon="-1.630226">
        <ele>1280.079</ele>
        <time>1999-11-30T00:00:00Z</time>
      </trkpt>
      <trkpt lat="40.772406" lon="-1.631098">
        <ele>1277.053</ele>
        <time>1999-11-30T00:00:00Z</time>
      </trkpt>
      <trkpt lat="40.772604" lon="-1.632113">
        <ele>1274.084</ele>
        <time>1999-11-30T00:00:00Z</time>
      </trkpt>
      <trkpt lat="40.772687" lon="-1.632433">
        <ele>1273.088</ele>
        <time>1999-11-30T00:00:00Z</time>
      </trkpt>
      <trkpt lat="40.772864" lon="-1.632958">
        <ele>1272.023</ele>
        <time>1999-11-30T00:00:00Z</time>
      </trkpt>
      <trkpt lat="40.773249" lon="-1.634018">
        <ele>1269.072</ele>
        <time>1999-11-30T00:00:00Z</time>
      </trkpt>
      <trkpt lat="40.77348" lon="-1.634693">
        <ele>1269.043</ele>
        <time>1999-11-30T00:00:00Z</time>
      </trkpt>
      <trkpt lat="40.773865" lon="-1.635808">
        <ele>1269.031</ele>
        <time>1999-11-30T00:00:00Z</time>
      </trkpt>
      <trkpt lat="40.774022" lon="-1.636244">
        <ele>1269.066</ele>
        <time>1999-11-30T00:00:00Z</time>
      </trkpt>
      <trkpt lat="40.77469" lon="-1.638146">
        <ele>1265.029</ele>
        <time>1999-11-30T00:00:00Z</time>
      </trkpt>
      <trkpt lat="40.774921" lon="-1.638802">
        <ele>1263.021</ele>
        <time>1999-11-30T00:00:00Z</time>
      </trkpt>
      <trkpt lat="40.774982" lon="-1.638985">
        <ele>1262.008</ele>
        <time>1999-11-30T00:00:00Z</time>
      </trkpt>
      <trkpt lat="40.775098" lon="-1.639576">
        <ele>1260.577</ele>
        <time>1999-11-30T00:00:00Z</time>
      </trkpt>
      <trkpt lat="40.775104" lon="-1.640062">
        <ele>1260.091</ele>
        <time>1999-11-30T00:00:00Z</time>
      </trkpt>
      <trkpt lat="40.77501" lon="-1.64052">
        <ele>1260.072</ele>
        <time>1999-11-30T00:00:00Z</time>
      </trkpt>
      <trkpt lat="40.775079" lon="-1.641075">
        <ele>1259.256</ele>
        <time>1999-11-30T00:00:00Z</time>
      </trkpt>
      <trkpt lat="40.775277" lon="-1.641864">
        <ele>1256.841</ele>
        <time>1999-11-30T00:00:00Z</time>
      </trkpt>
      <trkpt lat="40.775422" lon="-1.642912">
        <ele>1253.230</ele>
        <time>1999-11-30T00:00:00Z</time>
      </trkpt>
      <trkpt lat="40.775396" lon="-1.643365">
        <ele>1250.971</ele>
        <time>1999-11-30T00:00:00Z</time>
      </trkpt>
      <trkpt lat="40.775551" lon="-1.643887">
        <ele>1250.019</ele>
        <time>1999-11-30T00:00:00Z</time>
      </trkpt>
      <trkpt lat="40.775646" lon="-1.644415">
        <ele>1250.016</ele>
        <time>1999-11-30T00:00:00Z</time>
      </trkpt>
      <trkpt lat="40.775665" lon="-1.644957">
        <ele>1250.076</ele>
        <time>1999-11-30T00:00:00Z</time>
      </trkpt>
      <trkpt lat="40.776127" lon="-1.6454">
        <ele>1249.013</ele>
        <time>1999-11-30T00:00:00Z</time>
      </trkpt>
      <trkpt lat="40.775827" lon="-1.646451">
        <ele>1249.008</ele>
        <time>1999-11-30T00:00:00Z</time>
      </trkpt>
      <trkpt lat="40.775865" lon="-1.647043">
        <ele>1249.042</ele>
        <time>1999-11-30T00:00:00Z</time>
      </trkpt>
      <trkpt lat="40.775771" lon="-1.647563">
        <ele>1249.026</ele>
        <time>1999-11-30T00:00:00Z</time>
      </trkpt>
      <trkpt lat="40.775581" lon="-1.648439">
        <ele>1248.087</ele>
        <time>1999-11-30T00:00:00Z</time>
      </trkpt>
      <trkpt lat="40.775468" lon="-1.648871">
        <ele>1248.031</ele>
        <time>1999-11-30T00:00:00Z</time>
      </trkpt>
      <trkpt lat="40.775331" lon="-1.649844">
        <ele>1248.076</ele>
        <time>1999-11-30T00:00:00Z</time>
      </trkpt>
      <trkpt lat="40.775279" lon="-1.6504">
        <ele>1247.035</ele>
        <time>1999-11-30T00:00:00Z</time>
      </trkpt>
      <trkpt lat="40.775272" lon="-1.651057">
        <ele>1247.076</ele>
        <time>1999-11-30T00:00:00Z</time>
      </trkpt>
      <trkpt lat="40.775365" lon="-1.652306">
        <ele>1242.074</ele>
        <time>1999-11-30T00:00:00Z</time>
      </trkpt>
      <trkpt lat="40.775389" lon="-1.65265">
        <ele>1241.089</ele>
        <time>1999-11-30T00:00:00Z</time>
      </trkpt>
      <trkpt lat="40.775318" lon="-1.652789">
        <ele>1240.006</ele>
        <time>1999-11-30T00:00:00Z</time>
      </trkpt>
      <trkpt lat="40.775076" lon="-1.653134">
        <ele>1240.026</ele>
        <time>1999-11-30T00:00:00Z</time>
      </trkpt>
      <trkpt lat="40.774827" lon="-1.653542">
        <ele>1240.008</ele>
        <time>1999-11-30T00:00:00Z</time>
      </trkpt>
      <trkpt lat="40.77484" lon="-1.653699">
        <ele>1240.089</ele>
        <time>1999-11-30T00:00:00Z</time>
      </trkpt>
      <trkpt lat="40.775017" lon="-1.654373">
        <ele>1240.073</ele>
        <time>1999-11-30T00:00:00Z</time>
      </trkpt>
      <trkpt lat="40.775143" lon="-1.65499">
        <ele>1239.014</ele>
        <time>1999-11-30T00:00:00Z</time>
      </trkpt>
      <trkpt lat="40.775278" lon="-1.65625">
        <ele>1237.058</ele>
        <time>1999-11-30T00:00:00Z</time>
      </trkpt>
      <trkpt lat="40.775385" lon="-1.657382">
        <ele>1235.043</ele>
        <time>1999-11-30T00:00:00Z</time>
      </trkpt>
      <trkpt lat="40.775358" lon="-1.657926">
        <ele>1234.052</ele>
        <time>1999-11-30T00:00:00Z</time>
      </trkpt>
      <trkpt lat="40.775309" lon="-1.658314">
        <ele>1233.073</ele>
        <time>1999-11-30T00:00:00Z</time>
      </trkpt>
      <trkpt lat="40.775292" lon="-1.658633">
        <ele>1232.031</ele>
        <time>1999-11-30T00:00:00Z</time>
      </trkpt>
      <trkpt lat="40.775333" lon="-1.658974">
        <ele>1231.098</ele>
        <time>1999-11-30T00:00:00Z</time>
      </trkpt>
      <trkpt lat="40.775518" lon="-1.659467">
        <ele>1231.015</ele>
        <time>1999-11-30T00:00:00Z</time>
      </trkpt>
      <trkpt lat="40.775743" lon="-1.660459">
        <ele>1233.026</ele>
        <time>1999-11-30T00:00:00Z</time>
      </trkpt>
      <trkpt lat="40.775919" lon="-1.661458">
        <ele>1235.008</ele>
        <time>1999-11-30T00:00:00Z</time>
      </trkpt>
      <trkpt lat="40.775937" lon="-1.661865">
        <ele>1232.030</ele>
        <time>1999-11-30T00:00:00Z</time>
      </trkpt>
      <trkpt lat="40.77605" lon="-1.662459">
        <ele>1230.024</ele>
        <time>1999-11-30T00:00:00Z</time>
      </trkpt>
      <trkpt lat="40.776213" lon="-1.663004">
        <ele>1229.035</ele>
        <time>1999-11-30T00:00:00Z</time>
      </trkpt>
      <trkpt lat="40.776499" lon="-1.663658">
        <ele>1229.089</ele>
        <time>1999-11-30T00:00:00Z</time>
      </trkpt>
      <trkpt lat="40.776598" lon="-1.663971">
        <ele>1229.074</ele>
        <time>1999-11-30T00:00:00Z</time>
      </trkpt>
      <trkpt lat="40.776663" lon="-1.664357">
        <ele>1228.033</ele>
        <time>1999-11-30T00:00:00Z</time>
      </trkpt>
      <trkpt lat="40.776737" lon="-1.664739">
        <ele>1228.054</ele>
        <time>1999-11-30T00:00:00Z</time>
      </trkpt>
      <trkpt lat="40.776818" lon="-1.664967">
        <ele>1227.012</ele>
        <time>1999-11-30T00:00:00Z</time>
      </trkpt>
      <trkpt lat="40.777013" lon="-1.665398">
        <ele>1228.037</ele>
        <time>1999-11-30T00:00:00Z</time>
      </trkpt>
      <trkpt lat="40.777094" lon="-1.665649">
        <ele>1229.049</ele>
        <time>1999-11-30T00:00:00Z</time>
      </trkpt>
      <trkpt lat="40.777157" lon="-1.665976">
        <ele>1228.013</ele>
        <time>1999-11-30T00:00:00Z</time>
      </trkpt>
      <trkpt lat="40.777398" lon="-1.666563">
        <ele>1228.008</ele>
        <time>1999-11-30T00:00:00Z</time>
      </trkpt>
      <trkpt lat="40.777744" lon="-1.667392">
        <ele>1228.054</ele>
        <time>1999-11-30T00:00:00Z</time>
      </trkpt>
      <trkpt lat="40.778159" lon="-1.668438">
        <ele>1230.078</ele>
        <time>1999-11-30T00:00:00Z</time>
      </trkpt>
      <trkpt lat="40.778624" lon="-1.669905">
        <ele>1236.079</ele>
        <time>1999-11-30T00:00:00Z</time>
      </trkpt>
      <trkpt lat="40.778867" lon="-1.670492">
        <ele>1238.093</ele>
        <time>1999-11-30T00:00:00Z</time>
      </trkpt>
      <trkpt lat="40.779651" lon="-1.671685">
        <ele>1241.068</ele>
        <time>1999-11-30T00:00:00Z</time>
      </trkpt>
      <trkpt lat="40.780287" lon="-1.672597">
        <ele>1249.037</ele>
        <time>1999-11-30T00:00:00Z</time>
      </trkpt>
      <trkpt lat="40.780922" lon="-1.673448">
        <ele>1258.088</ele>
        <time>1999-11-30T00:00:00Z</time>
      </trkpt>
      <trkpt lat="40.781383" lon="-1.673836">
        <ele>1257.036</ele>
        <time>1999-11-30T00:00:00Z</time>
      </trkpt>
      <trkpt lat="40.781847" lon="-1.674284">
        <ele>1249.036</ele>
        <time>1999-11-30T00:00:00Z</time>
      </trkpt>
      <trkpt lat="40.782002" lon="-1.674492">
        <ele>1248.017</ele>
        <time>1999-11-30T00:00:00Z</time>
      </trkpt>
      <trkpt lat="40.781827" lon="-1.674942">
        <ele>1250.018</ele>
        <time>1999-11-30T00:00:00Z</time>
      </trkpt>
      <trkpt lat="40.781414" lon="-1.675877">
        <ele>1256.008</ele>
        <time>1999-11-30T00:00:00Z</time>
      </trkpt>
      <trkpt lat="40.781078" lon="-1.676545">
        <ele>1261.034</ele>
        <time>1999-11-30T00:00:00Z</time>
      </trkpt>
      <trkpt lat="40.780792" lon="-1.676923">
        <ele>1262.068</ele>
        <time>1999-11-30T00:00:00Z</time>
      </trkpt>
      <trkpt lat="40.780497" lon="-1.677185">
        <ele>1261.029</ele>
        <time>1999-11-30T00:00:00Z</time>
      </trkpt>
      <trkpt lat="40.780358" lon="-1.677369">
        <ele>1260.063</ele>
        <time>1999-11-30T00:00:00Z</time>
      </trkpt>
      <trkpt lat="40.780284" lon="-1.677622">
        <ele>1257.028</ele>
        <time>1999-11-30T00:00:00Z</time>
      </trkpt>
      <trkpt lat="40.780204" lon="-1.677862">
        <ele>1257.097</ele>
        <time>1999-11-30T00:00:00Z</time>
      </trkpt>
      <trkpt lat="40.780069" lon="-1.678123">
        <ele>1257.068</ele>
        <time>1999-11-30T00:00:00Z</time>
      </trkpt>
      <trkpt lat="40.779605" lon="-1.67863">
        <ele>1259.066</ele>
        <time>1999-11-30T00:00:00Z</time>
      </trkpt>
      <trkpt lat="40.779314" lon="-1.678956">
        <ele>1257.024</ele>
        <time>1999-11-30T00:00:00Z</time>
      </trkpt>
      <trkpt lat="40.779115" lon="-1.679248">
        <ele>1255.004</ele>
        <time>1999-11-30T00:00:00Z</time>
      </trkpt>
      <trkpt lat="40.77896" lon="-1.679541">
        <ele>1253.014</ele>
        <time>1999-11-30T00:00:00Z</time>
      </trkpt>
      <trkpt lat="40.778816" lon="-1.679976">
        <ele>1251.008</ele>
        <time>1999-11-30T00:00:00Z</time>
      </trkpt>
      <trkpt lat="40.778688" lon="-1.680303">
        <ele>1249.023</ele>
        <time>1999-11-30T00:00:00Z</time>
      </trkpt>
      <trkpt lat="40.778533" lon="-1.680684">
        <ele>1246.037</ele>
        <time>1999-11-30T00:00:00Z</time>
      </trkpt>
      <trkpt lat="40.77846" lon="-1.681053">
        <ele>1243.018</ele>
        <time>1999-11-30T00:00:00Z</time>
      </trkpt>
      <trkpt lat="40.7784" lon="-1.681451">
        <ele>1240.082</ele>
        <time>1999-11-30T00:00:00Z</time>
      </trkpt>
      <trkpt lat="40.778312" lon="-1.682112">
        <ele>1235.037</ele>
        <time>1999-11-30T00:00:00Z</time>
      </trkpt>
      <trkpt lat="40.778245" lon="-1.682359">
        <ele>1231.076</ele>
        <time>1999-11-30T00:00:00Z</time>
      </trkpt>
      <trkpt lat="40.778204" lon="-1.682636">
        <ele>1227.037</ele>
        <time>1999-11-30T00:00:00Z</time>
      </trkpt>
      <trkpt lat="40.778218" lon="-1.683112">
        <ele>1220.075</ele>
        <time>1999-11-30T00:00:00Z</time>
      </trkpt>
      <trkpt lat="40.778202" lon="-1.683334">
        <ele>1216.017</ele>
        <time>1999-11-30T00:00:00Z</time>
      </trkpt>
      <trkpt lat="40.778202" lon="-1.683481">
        <ele>1214.087</ele>
        <time>1999-11-30T00:00:00Z</time>
      </trkpt>
      <trkpt lat="40.778283" lon="-1.683626">
        <ele>1213.015</ele>
        <time>1999-11-30T00:00:00Z</time>
      </trkpt>
      <trkpt lat="40.778649" lon="-1.683968">
        <ele>1211.008</ele>
        <time>1999-11-30T00:00:00Z</time>
      </trkpt>
      <trkpt lat="40.778939" lon="-1.684127">
        <ele>1210.082</ele>
        <time>1999-11-30T00:00:00Z</time>
      </trkpt>
      <trkpt lat="40.77936" lon="-1.684212">
        <ele>1211.016</ele>
        <time>1999-11-30T00:00:00Z</time>
      </trkpt>
      <trkpt lat="40.77981" lon="-1.684273">
        <ele>1211.027</ele>
        <time>1999-11-30T00:00:00Z</time>
      </trkpt>
      <trkpt lat="40.780222" lon="-1.684339">
        <ele>1210.011</ele>
        <time>1999-11-30T00:00:00Z</time>
      </trkpt>
      <trkpt lat="40.780505" lon="-1.684362">
        <ele>1212.056</ele>
        <time>1999-11-30T00:00:00Z</time>
      </trkpt>
      <trkpt lat="40.780665" lon="-1.684365">
        <ele>1214.025</ele>
        <time>1999-11-30T00:00:00Z</time>
      </trkpt>
      <trkpt lat="40.780755" lon="-1.68438">
        <ele>1214.036</ele>
        <time>1999-11-30T00:00:00Z</time>
      </trkpt>
      <trkpt lat="40.780801" lon="-1.684423">
        <ele>1215.094</ele>
        <time>1999-11-30T00:00:00Z</time>
      </trkpt>
      <trkpt lat="40.780867" lon="-1.684544">
        <ele>1215.062</ele>
        <time>1999-11-30T00:00:00Z</time>
      </trkpt>
      <trkpt lat="40.780926" lon="-1.684696">
        <ele>1216.083</ele>
        <time>1999-11-30T00:00:00Z</time>
      </trkpt>
      <trkpt lat="40.780947" lon="-1.684848">
        <ele>1216.011</ele>
        <time>1999-11-30T00:00:00Z</time>
      </trkpt>
      <trkpt lat="40.780923" lon="-1.685018">
        <ele>1215.008</ele>
        <time>1999-11-30T00:00:00Z</time>
      </trkpt>
      <trkpt lat="40.780827" lon="-1.685388">
        <ele>1212.037</ele>
        <time>1999-11-30T00:00:00Z</time>
      </trkpt>
      <trkpt lat="40.780782" lon="-1.685792">
        <ele>1210.081</ele>
        <time>1999-11-30T00:00:00Z</time>
      </trkpt>
      <trkpt lat="40.780762" lon="-1.686443">
        <ele>1209.042</ele>
        <time>1999-11-30T00:00:00Z</time>
      </trkpt>
      <trkpt lat="40.7807" lon="-1.687012">
        <ele>1209.036</ele>
        <time>1999-11-30T00:00:00Z</time>
      </trkpt>
      <trkpt lat="40.780676" lon="-1.68736">
        <ele>1209.011</ele>
        <time>1999-11-30T00:00:00Z</time>
      </trkpt>
      <trkpt lat="40.780721" lon="-1.687551">
        <ele>1209.010</ele>
        <time>1999-11-30T00:00:00Z</time>
      </trkpt>
      <trkpt lat="40.780908" lon="-1.687822">
        <ele>1209.071</ele>
        <time>1999-11-30T00:00:00Z</time>
      </trkpt>
      <trkpt lat="40.781097" lon="-1.688021">
        <ele>1208.029</ele>
        <time>1999-11-30T00:00:00Z</time>
      </trkpt>
      <trkpt lat="40.781477" lon="-1.688211">
        <ele>1208.044</ele>
        <time>1999-11-30T00:00:00Z</time>
      </trkpt>
      <trkpt lat="40.781847" lon="-1.688392">
        <ele>1208.005</ele>
        <time>1999-11-30T00:00:00Z</time>
      </trkpt>
      <trkpt lat="40.782048" lon="-1.688545">
        <ele>1207.015</ele>
        <time>1999-11-30T00:00:00Z</time>
      </trkpt>
      <trkpt lat="40.782233" lon="-1.688668">
        <ele>1208.008</ele>
        <time>1999-11-30T00:00:00Z</time>
      </trkpt>
      <trkpt lat="40.782327" lon="-1.688811">
        <ele>1209.075</ele>
        <time>1999-11-30T00:00:00Z</time>
      </trkpt>
      <trkpt lat="40.782368" lon="-1.68897">
        <ele>1208.039</ele>
        <time>1999-11-30T00:00:00Z</time>
      </trkpt>
      <trkpt lat="40.78237" lon="-1.689105">
        <ele>1208.090</ele>
        <time>1999-11-30T00:00:00Z</time>
      </trkpt>
      <trkpt lat="40.782363" lon="-1.689192">
        <ele>1207.024</ele>
        <time>1999-11-30T00:00:00Z</time>
      </trkpt>
      <trkpt lat="40.782343" lon="-1.689327">
        <ele>1206.069</ele>
        <time>1999-11-30T00:00:00Z</time>
      </trkpt>
      <trkpt lat="40.782368" lon="-1.689437">
        <ele>1205.028</ele>
        <time>1999-11-30T00:00:00Z</time>
      </trkpt>
      <trkpt lat="40.782458" lon="-1.689609">
        <ele>1205.069</ele>
        <time>1999-11-30T00:00:00Z</time>
      </trkpt>
      <trkpt lat="40.78262" lon="-1.689844">
        <ele>1206.027</ele>
        <time>1999-11-30T00:00:00Z</time>
      </trkpt>
      <trkpt lat="40.782671" lon="-1.689984">
        <ele>1206.038</ele>
        <time>1999-11-30T00:00:00Z</time>
      </trkpt>
      <trkpt lat="40.78267" lon="-1.690115">
        <ele>1206.070</ele>
        <time>1999-11-30T00:00:00Z</time>
      </trkpt>
      <trkpt lat="40.782795" lon="-1.690192">
        <ele>1208.017</ele>
        <time>1999-11-30T00:00:00Z</time>
      </trkpt>
      <trkpt lat="40.783138" lon="-1.690431">
        <ele>1209.008</ele>
        <time>1999-11-30T00:00:00Z</time>
      </trkpt>
      <trkpt lat="40.783634" lon="-1.690784">
        <ele>1210.074</ele>
        <time>1999-11-30T00:00:00Z</time>
      </trkpt>
      <trkpt lat="40.783755" lon="-1.690881">
        <ele>1210.068</ele>
        <time>1999-11-30T00:00:00Z</time>
      </trkpt>
      <trkpt lat="40.783832" lon="-1.690997">
        <ele>1210.049</ele>
        <time>1999-11-30T00:00:00Z</time>
      </trkpt>
      <trkpt lat="40.783929" lon="-1.69128">
        <ele>1210.083</ele>
        <time>1999-11-30T00:00:00Z</time>
      </trkpt>
      <trkpt lat="40.784075" lon="-1.691729">
        <ele>1212.018</ele>
        <time>1999-11-30T00:00:00Z</time>
      </trkpt>
      <trkpt lat="40.784171" lon="-1.691992">
        <ele>1212.027</ele>
        <time>1999-11-30T00:00:00Z</time>
      </trkpt>
      <trkpt lat="40.784234" lon="-1.692083">
        <ele>1212.018</ele>
        <time>1999-11-30T00:00:00Z</time>
      </trkpt>
      <trkpt lat="40.784317" lon="-1.692134">
        <ele>1212.046</ele>
        <time>1999-11-30T00:00:00Z</time>
      </trkpt>
      <trkpt lat="40.7844" lon="-1.692155">
        <ele>1212.015</ele>
        <time>1999-11-30T00:00:00Z</time>
      </trkpt>
      <trkpt lat="40.784539" lon="-1.69215">
        <ele>1213.065</ele>
        <time>1999-11-30T00:00:00Z</time>
      </trkpt>
      <trkpt lat="40.785063" lon="-1.692147">
        <ele>1214.011</ele>
        <time>1999-11-30T00:00:00Z</time>
      </trkpt>
      <trkpt lat="40.785377" lon="-1.692156">
        <ele>1214.008</ele>
        <time>1999-11-30T00:00:00Z</time>
      </trkpt>
      <trkpt lat="40.786036" lon="-1.692235">
        <ele>1212.042</ele>
        <time>1999-11-30T00:00:00Z</time>
      </trkpt>
      <trkpt lat="40.786606" lon="-1.692307">
        <ele>1210.036</ele>
        <time>1999-11-30T00:00:00Z</time>
      </trkpt>
      <trkpt lat="40.786933" lon="-1.692362">
        <ele>1209.097</ele>
        <time>1999-11-30T00:00:00Z</time>
      </trkpt>
      <trkpt lat="40.787205" lon="-1.692502">
        <ele>1208.091</ele>
        <time>1999-11-30T00:00:00Z</time>
      </trkpt>
      <trkpt lat="40.787663" lon="-1.692756">
        <ele>1209.096</ele>
        <time>1999-11-30T00:00:00Z</time>
      </trkpt>
      <trkpt lat="40.788269" lon="-1.693096">
        <ele>1210.035</ele>
        <time>1999-11-30T00:00:00Z</time>
      </trkpt>
      <trkpt lat="40.788907" lon="-1.693458">
        <ele>1213.016</ele>
        <time>1999-11-30T00:00:00Z</time>
      </trkpt>
      <trkpt lat="40.789153" lon="-1.693577">
        <ele>1216.024</ele>
        <time>1999-11-30T00:00:00Z</time>
      </trkpt>
      <trkpt lat="40.789311" lon="-1.693718">
        <ele>1219.019</ele>
        <time>1999-11-30T00:00:00Z</time>
      </trkpt>
      <trkpt lat="40.789408" lon="-1.69392">
        <ele>1220.009</ele>
        <time>1999-11-30T00:00:00Z</time>
      </trkpt>
      <trkpt lat="40.789584" lon="-1.694499">
        <ele>1221.019</ele>
        <time>1999-11-30T00:00:00Z</time>
      </trkpt>
      <trkpt lat="40.78966" lon="-1.694815">
        <ele>1222.008</ele>
        <time>1999-11-30T00:00:00Z</time>
      </trkpt>
      <trkpt lat="40.789664" lon="-1.695591">
        <ele>1222.072</ele>
        <time>1999-11-30T00:00:00Z</time>
      </trkpt>
      <trkpt lat="40.789695" lon="-1.696498">
        <ele>1223.066</ele>
        <time>1999-11-30T00:00:00Z</time>
      </trkpt>
      <trkpt lat="40.789665" lon="-1.69675">
        <ele>1223.087</ele>
        <time>1999-11-30T00:00:00Z</time>
      </trkpt>
      <trkpt lat="40.789606" lon="-1.696901">
        <ele>1223.081</ele>
        <time>1999-11-30T00:00:00Z</time>
      </trkpt>
      <trkpt lat="40.789275" lon="-1.697253">
        <ele>1227.096</ele>
        <time>1999-11-30T00:00:00Z</time>
      </trkpt>
      <trkpt lat="40.789137" lon="-1.69745">
        <ele>1230.075</ele>
        <time>1999-11-30T00:00:00Z</time>
      </trkpt>
      <trkpt lat="40.788908" lon="-1.69822">
        <ele>1229.036</ele>
        <time>1999-11-30T00:00:00Z</time>
      </trkpt>
      <trkpt lat="40.788625" lon="-1.699145">
        <ele>1223.084</ele>
        <time>1999-11-30T00:00:00Z</time>
      </trkpt>
      <trkpt lat="40.788611" lon="-1.699398">
        <ele>1221.079</ele>
        <time>1999-11-30T00:00:00Z</time>
      </trkpt>
      <trkpt lat="40.78863" lon="-1.69969">
        <ele>1219.005</ele>
        <time>1999-11-30T00:00:00Z</time>
      </trkpt>
      <trkpt lat="40.788772" lon="-1.700215">
        <ele>1216.025</ele>
        <time>1999-11-30T00:00:00Z</time>
      </trkpt>
      <trkpt lat="40.789034" lon="-1.701023">
        <ele>1211.008</ele>
        <time>1999-11-30T00:00:00Z</time>
      </trkpt>
      <trkpt lat="40.789428" lon="-1.70186">
        <ele>1211.098</ele>
        <time>1999-11-30T00:00:00Z</time>
      </trkpt>
      <trkpt lat="40.789482" lon="-1.702081">
        <ele>1211.012</ele>
        <time>1999-11-30T00:00:00Z</time>
      </trkpt>
      <trkpt lat="40.789457" lon="-1.702315">
        <ele>1211.083</ele>
        <time>1999-11-30T00:00:00Z</time>
      </trkpt>
      <trkpt lat="40.789217" lon="-1.703125">
        <ele>1211.087</ele>
        <time>1999-11-30T00:00:00Z</time>
      </trkpt>
      <trkpt lat="40.788924" lon="-1.70417">
        <ele>1213.082</ele>
        <time>1999-11-30T00:00:00Z</time>
      </trkpt>
      <trkpt lat="40.788584" lon="-1.705342">
        <ele>1212.071</ele>
        <time>1999-11-30T00:00:00Z</time>
      </trkpt>
      <trkpt lat="40.788332" lon="-1.70617">
        <ele>1210.022</ele>
        <time>1999-11-30T00:00:00Z</time>
      </trkpt>
      <trkpt lat="40.788281" lon="-1.706287">
        <ele>1210.050</ele>
        <time>1999-11-30T00:00:00Z</time>
      </trkpt>
      <trkpt lat="40.788265" lon="-1.706431">
        <ele>1209.055</ele>
        <time>1999-11-30T00:00:00Z</time>
      </trkpt>
      <trkpt lat="40.788257" lon="-1.706619">
        <ele>1208.007</ele>
        <time>1999-11-30T00:00:00Z</time>
      </trkpt>
      <trkpt lat="40.788217" lon="-1.706712">
        <ele>1207.017</ele>
        <time>1999-11-30T00:00:00Z</time>
      </trkpt>
      <trkpt lat="40.788165" lon="-1.706773">
        <ele>1207.008</ele>
        <time>1999-11-30T00:00:00Z</time>
      </trkpt>
      <trkpt lat="40.788095" lon="-1.706787">
        <ele>1206.036</ele>
        <time>1999-11-30T00:00:00Z</time>
      </trkpt>
      <trkpt lat="40.787902" lon="-1.70669">
        <ele>1205.030</ele>
        <time>1999-11-30T00:00:00Z</time>
      </trkpt>
      <trkpt lat="40.787767" lon="-1.706633">
        <ele>1204.061</ele>
        <time>1999-11-30T00:00:00Z</time>
      </trkpt>
      <trkpt lat="40.787647" lon="-1.70666">
        <ele>1203.035</ele>
        <time>1999-11-30T00:00:00Z</time>
      </trkpt>
      <trkpt lat="40.787458" lon="-1.706787">
        <ele>1201.040</ele>
        <time>1999-11-30T00:00:00Z</time>
      </trkpt>
      <trkpt lat="40.787219" lon="-1.706947">
        <ele>1200.079</ele>
        <time>1999-11-30T00:00:00Z</time>
      </trkpt>
      <trkpt lat="40.786952" lon="-1.707066">
        <ele>1197.010</ele>
        <time>1999-11-30T00:00:00Z</time>
      </trkpt>
      <trkpt lat="40.786823" lon="-1.707116">
        <ele>1195.098</ele>
        <time>1999-11-30T00:00:00Z</time>
      </trkpt>
      <trkpt lat="40.786744" lon="-1.707164">
        <ele>1193.073</ele>
        <time>1999-11-30T00:00:00Z</time>
      </trkpt>
      <trkpt lat="40.786675" lon="-1.707252">
        <ele>1191.085</ele>
        <time>1999-11-30T00:00:00Z</time>
      </trkpt>
      <trkpt lat="40.786616" lon="-1.707335">
        <ele>1190.013</ele>
        <time>1999-11-30T00:00:00Z</time>
      </trkpt>
      <trkpt lat="40.786596" lon="-1.707421">
        <ele>1189.008</ele>
        <time>1999-11-30T00:00:00Z</time>
      </trkpt>
      <trkpt lat="40.78649" lon="-1.70763">
        <ele>1186.088</ele>
        <time>1999-11-30T00:00:00Z</time>
      </trkpt>
      <trkpt lat="40.786759" lon="-1.707953">
        <ele>1184.082</ele>
        <time>1999-11-30T00:00:00Z</time>
      </trkpt>
      <trkpt lat="40.787024" lon="-1.708326">
        <ele>1179.033</ele>
        <time>1999-11-30T00:00:00Z</time>
      </trkpt>
      <trkpt lat="40.787255" lon="-1.708581">
        <ele>1177.097</ele>
        <time>1999-11-30T00:00:00Z</time>
      </trkpt>
      <trkpt lat="40.787455" lon="-1.708698">
        <ele>1177.052</ele>
        <time>1999-11-30T00:00:00Z</time>
      </trkpt>
      <trkpt lat="40.788161" lon="-1.709184">
        <ele>1178.081</ele>
        <time>1999-11-30T00:00:00Z</time>
      </trkpt>
      <trkpt lat="40.788236" lon="-1.70934">
        <ele>1178.012</ele>
        <time>1999-11-30T00:00:00Z</time>
      </trkpt>
      <trkpt lat="40.788207" lon="-1.709483">
        <ele>1178.020</ele>
        <time>1999-11-30T00:00:00Z</time>
      </trkpt>
      <trkpt lat="40.787905" lon="-1.710353">
        <ele>1181.015</ele>
        <time>1999-11-30T00:00:00Z</time>
      </trkpt>
      <trkpt lat="40.787993" lon="-1.710543">
        <ele>1182.065</ele>
        <time>1999-11-30T00:00:00Z</time>
      </trkpt>
      <trkpt lat="40.788188" lon="-1.710712">
        <ele>1185.011</ele>
        <time>1999-11-30T00:00:00Z</time>
      </trkpt>
      <trkpt lat="40.788873" lon="-1.711207">
        <ele>1189.008</ele>
        <time>1999-11-30T00:00:00Z</time>
      </trkpt>
      <trkpt lat="40.789446" lon="-1.711646">
        <ele>1194.062</ele>
        <time>1999-11-30T00:00:00Z</time>
      </trkpt>
      <trkpt lat="40.789886" lon="-1.711977">
        <ele>1197.086</ele>
        <time>1999-11-30T00:00:00Z</time>
      </trkpt>
      <trkpt lat="40.790104" lon="-1.712055">
        <ele>1199.047</ele>
        <time>1999-11-30T00:00:00Z</time>
      </trkpt>
      <trkpt lat="40.790803" lon="-1.712151">
        <ele>1203.011</ele>
        <time>1999-11-30T00:00:00Z</time>
      </trkpt>
      <trkpt lat="40.791065" lon="-1.712185">
        <ele>1204.066</ele>
        <time>1999-11-30T00:00:00Z</time>
      </trkpt>
      <trkpt lat="40.791166" lon="-1.712277">
        <ele>1204.075</ele>
        <time>1999-11-30T00:00:00Z</time>
      </trkpt>
      <trkpt lat="40.791281" lon="-1.712416">
        <ele>1205.016</ele>
        <time>1999-11-30T00:00:00Z</time>
      </trkpt>
      <trkpt lat="40.791648" lon="-1.712881">
        <ele>1206.084</ele>
        <time>1999-11-30T00:00:00Z</time>
      </trkpt>
      <trkpt lat="40.792004" lon="-1.713327">
        <ele>1207.018</ele>
        <time>1999-11-30T00:00:00Z</time>
      </trkpt>
      <trkpt lat="40.792335" lon="-1.713762">
        <ele>1208.098</ele>
        <time>1999-11-30T00:00:00Z</time>
      </trkpt>
      <trkpt lat="40.792597" lon="-1.714027">
        <ele>1210.017</ele>
        <time>1999-11-30T00:00:00Z</time>
      </trkpt>
      <trkpt lat="40.793142" lon="-1.714403">
        <ele>1215.008</ele>
        <time>1999-11-30T00:00:00Z</time>
      </trkpt>
      <trkpt lat="40.793752" lon="-1.714829">
        <ele>1220.052</ele>
        <time>1999-11-30T00:00:00Z</time>
      </trkpt>
      <trkpt lat="40.794075" lon="-1.715057">
        <ele>1220.056</ele>
        <time>1999-11-30T00:00:00Z</time>
      </trkpt>
      <trkpt lat="40.794303" lon="-1.715272">
        <ele>1220.017</ele>
        <time>1999-11-30T00:00:00Z</time>
      </trkpt>
      <trkpt lat="40.794781" lon="-1.715802">
        <ele>1220.081</ele>
        <time>1999-11-30T00:00:00Z</time>
      </trkpt>
      <trkpt lat="40.795525" lon="-1.716733">
        <ele>1220.046</ele>
        <time>1999-11-30T00:00:00Z</time>
      </trkpt>
      <trkpt lat="40.796057" lon="-1.717379">
        <ele>1218.025</ele>
        <time>1999-11-30T00:00:00Z</time>
      </trkpt>
      <trkpt lat="40.796411" lon="-1.718033">
        <ele>1213.086</ele>
        <time>1999-11-30T00:00:00Z</time>
      </trkpt>
      <trkpt lat="40.796991" lon="-1.719013">
        <ele>1209.064</ele>
        <time>1999-11-30T00:00:00Z</time>
      </trkpt>
      <trkpt lat="40.79741" lon="-1.719613">
        <ele>1208.069</ele>
        <time>1999-11-30T00:00:00Z</time>
      </trkpt>
      <trkpt lat="40.797722" lon="-1.720025">
        <ele>1208.004</ele>
        <time>1999-11-30T00:00:00Z</time>
      </trkpt>
      <trkpt lat="40.798129" lon="-1.720551">
        <ele>1208.024</ele>
        <time>1999-11-30T00:00:00Z</time>
      </trkpt>
      <trkpt lat="40.798492" lon="-1.721024">
        <ele>1207.008</ele>
        <time>1999-11-30T00:00:00Z</time>
      </trkpt>
      <trkpt lat="40.798839" lon="-1.721493">
        <ele>1206.027</ele>
        <time>1999-11-30T00:00:00Z</time>
      </trkpt>
      <trkpt lat="40.799149" lon="-1.721943">
        <ele>1206.051</ele>
        <time>1999-11-30T00:00:00Z</time>
      </trkpt>
      <trkpt lat="40.799409" lon="-1.722406">
        <ele>1204.092</ele>
        <time>1999-11-30T00:00:00Z</time>
      </trkpt>
      <trkpt lat="40.799625" lon="-1.722901">
        <ele>1203.026</ele>
        <time>1999-11-30T00:00:00Z</time>
      </trkpt>
      <trkpt lat="40.799842" lon="-1.723529">
        <ele>1202.061</ele>
        <time>1999-11-30T00:00:00Z</time>
      </trkpt>
      <trkpt lat="40.799935" lon="-1.723929">
        <ele>1200.010</ele>
        <time>1999-11-30T00:00:00Z</time>
      </trkpt>
      <trkpt lat="40.799976" lon="-1.72419">
        <ele>1200.041</ele>
        <time>1999-11-30T00:00:00Z</time>
      </trkpt>
      <trkpt lat="40.799973" lon="-1.724699">
        <ele>1198.039</ele>
        <time>1999-11-30T00:00:00Z</time>
      </trkpt>
      <trkpt lat="40.79983" lon="-1.725953">
        <ele>1198.027</ele>
        <time>1999-11-30T00:00:00Z</time>
      </trkpt>
      <trkpt lat="40.799743" lon="-1.726315">
        <ele>1198.068</ele>
        <time>1999-11-30T00:00:00Z</time>
      </trkpt>
      <trkpt lat="40.799333" lon="-1.727317">
        <ele>1201.014</ele>
        <time>1999-11-30T00:00:00Z</time>
      </trkpt>
      <trkpt lat="40.799023" lon="-1.727946">
        <ele>1202.008</ele>
        <time>1999-11-30T00:00:00Z</time>
      </trkpt>
      <trkpt lat="40.798768" lon="-1.728401">
        <ele>1200.093</ele>
        <time>1999-11-30T00:00:00Z</time>
      </trkpt>
      <trkpt lat="40.798666" lon="-1.728643">
        <ele>1200.097</ele>
        <time>1999-11-30T00:00:00Z</time>
      </trkpt>
      <trkpt lat="40.79847" lon="-1.729328">
        <ele>1201.078</ele>
        <time>1999-11-30T00:00:00Z</time>
      </trkpt>
      <trkpt lat="40.798218" lon="-1.730155">
        <ele>1200.052</ele>
        <time>1999-11-30T00:00:00Z</time>
      </trkpt>
      <trkpt lat="40.798034" lon="-1.730793">
        <ele>1196.097</ele>
        <time>1999-11-30T00:00:00Z</time>
      </trkpt>
      <trkpt lat="40.798013" lon="-1.73097">
        <ele>1195.046</ele>
        <time>1999-11-30T00:00:00Z</time>
      </trkpt>
      <trkpt lat="40.798056" lon="-1.731113">
        <ele>1195.087</ele>
        <time>1999-11-30T00:00:00Z</time>
      </trkpt>
      <trkpt lat="40.798209" lon="-1.731306">
        <ele>1197.045</ele>
        <time>1999-11-30T00:00:00Z</time>
      </trkpt>
      <trkpt lat="40.79827" lon="-1.731425">
        <ele>1198.088</ele>
        <time>1999-11-30T00:00:00Z</time>
      </trkpt>
      <trkpt lat="40.798325" lon="-1.731572">
        <ele>1199.024</ele>
        <time>1999-11-30T00:00:00Z</time>
      </trkpt>
      <trkpt lat="40.79836" lon="-1.731872">
        <ele>1199.026</ele>
        <time>1999-11-30T00:00:00Z</time>
      </trkpt>
      <trkpt lat="40.798396" lon="-1.732156">
        <ele>1198.008</ele>
        <time>1999-11-30T00:00:00Z</time>
      </trkpt>
      <trkpt lat="40.798459" lon="-1.732698">
        <ele>1197.079</ele>
        <time>1999-11-30T00:00:00Z</time>
      </trkpt>
      <trkpt lat="40.798443" lon="-1.732986">
        <ele>1197.023</ele>
        <time>1999-11-30T00:00:00Z</time>
      </trkpt>
      <trkpt lat="40.798488" lon="-1.7332">
        <ele>1197.084</ele>
        <time>1999-11-30T00:00:00Z</time>
      </trkpt>
      <trkpt lat="40.798664" lon="-1.73359">
        <ele>1198.018</ele>
        <time>1999-11-30T00:00:00Z</time>
      </trkpt>
      <trkpt lat="40.799097" lon="-1.734447">
        <ele>1198.053</ele>
        <time>1999-11-30T00:00:00Z</time>
      </trkpt>
      <trkpt lat="40.799562" lon="-1.735227">
        <ele>1202.032</ele>
        <time>1999-11-30T00:00:00Z</time>
      </trkpt>
      <trkpt lat="40.799864" lon="-1.735739">
        <ele>1209.063</ele>
        <time>1999-11-30T00:00:00Z</time>
      </trkpt>
      <trkpt lat="40.800172" lon="-1.736323">
        <ele>1213.061</ele>
        <time>1999-11-30T00:00:00Z</time>
      </trkpt>
      <trkpt lat="40.800471" lon="-1.736711">
        <ele>1216.012</ele>
        <time>1999-11-30T00:00:00Z</time>
      </trkpt>
      <trkpt lat="40.800705" lon="-1.736991">
        <ele>1218.032</ele>
        <time>1999-11-30T00:00:00Z</time>
      </trkpt>
      <trkpt lat="40.800798" lon="-1.737169">
        <ele>1218.005</ele>
        <time>1999-11-30T00:00:00Z</time>
      </trkpt>
      <trkpt lat="40.800894" lon="-1.737506">
        <ele>1218.008</ele>
        <time>1999-11-30T00:00:00Z</time>
      </trkpt>
      <trkpt lat="40.801233" lon="-1.739212">
        <ele>1223.062</ele>
        <time>1999-11-30T00:00:00Z</time>
      </trkpt>
      <trkpt lat="40.801546" lon="-1.740715">
        <ele>1226.076</ele>
        <time>1999-11-30T00:00:00Z</time>
      </trkpt>
      <trkpt lat="40.801699" lon="-1.741508">
        <ele>1228.097</ele>
        <time>1999-11-30T00:00:00Z</time>
      </trkpt>
      <trkpt lat="40.801853" lon="-1.742004">
        <ele>1229.041</ele>
        <time>1999-11-30T00:00:00Z</time>
      </trkpt>
      <trkpt lat="40.802082" lon="-1.742589">
        <ele>1229.096</ele>
        <time>1999-11-30T00:00:00Z</time>
      </trkpt>
      <trkpt lat="40.802351" lon="-1.743364">
        <ele>1229.025</ele>
        <time>1999-11-30T00:00:00Z</time>
      </trkpt>
      <trkpt lat="40.802706" lon="-1.744371">
        <ele>1229.056</ele>
        <time>1999-11-30T00:00:00Z</time>
      </trkpt>
      <trkpt lat="40.802941" lon="-1.745041">
        <ele>1230.014</ele>
        <time>1999-11-30T00:00:00Z</time>
      </trkpt>
      <trkpt lat="40.803087" lon="-1.745363">
        <ele>1231.068</ele>
        <time>1999-11-30T00:00:00Z</time>
      </trkpt>
      <trkpt lat="40.803312" lon="-1.745643">
        <ele>1233.042</ele>
        <time>1999-11-30T00:00:00Z</time>
      </trkpt>
      <trkpt lat="40.803674" lon="-1.745991">
        <ele>1234.026</ele>
        <time>1999-11-30T00:00:00Z</time>
      </trkpt>
      <trkpt lat="40.803921" lon="-1.746268">
        <ele>1235.008</ele>
        <time>1999-11-30T00:00:00Z</time>
      </trkpt>
      <trkpt lat="40.804189" lon="-1.746664">
        <ele>1235.097</ele>
        <time>1999-11-30T00:00:00Z</time>
      </trkpt>
      <trkpt lat="40.804696" lon="-1.747513">
        <ele>1233.021</ele>
        <time>1999-11-30T00:00:00Z</time>
      </trkpt>
      <trkpt lat="40.805312" lon="-1.748621">
        <ele>1232.082</ele>
        <time>1999-11-30T00:00:00Z</time>
      </trkpt>
      <trkpt lat="40.805752" lon="-1.749529">
        <ele>1231.066</ele>
        <time>1999-11-30T00:00:00Z</time>
      </trkpt>
      <trkpt lat="40.806038" lon="-1.750237">
        <ele>1230.061</ele>
        <time>1999-11-30T00:00:00Z</time>
      </trkpt>
      <trkpt lat="40.806564" lon="-1.751464">
        <ele>1230.030</ele>
        <time>1999-11-30T00:00:00Z</time>
      </trkpt>
      <trkpt lat="40.806951" lon="-1.752451">
        <ele>1229.081</ele>
        <time>1999-11-30T00:00:00Z</time>
      </trkpt>
      <trkpt lat="40.807158" lon="-1.752973">
        <ele>1229.039</ele>
        <time>1999-11-30T00:00:00Z</time>
      </trkpt>
      <trkpt lat="40.80726" lon="-1.753288">
        <ele>1228.081</ele>
        <time>1999-11-30T00:00:00Z</time>
      </trkpt>
      <trkpt lat="40.807504" lon="-1.753732">
        <ele>1228.061</ele>
        <time>1999-11-30T00:00:00Z</time>
      </trkpt>
      <trkpt lat="40.807855" lon="-1.75433">
        <ele>1228.017</ele>
        <time>1999-11-30T00:00:00Z</time>
      </trkpt>
      <trkpt lat="40.808286" lon="-1.755043">
        <ele>1228.008</ele>
        <time>1999-11-30T00:00:00Z</time>
      </trkpt>
      <trkpt lat="40.808483" lon="-1.755477">
        <ele>1228.019</ele>
        <time>1999-11-30T00:00:00Z</time>
      </trkpt>
      <trkpt lat="40.808712" lon="-1.756057">
        <ele>1226.053</ele>
        <time>1999-11-30T00:00:00Z</time>
      </trkpt>
      <trkpt lat="40.809055" lon="-1.756773">
        <ele>1226.064</ele>
        <time>1999-11-30T00:00:00Z</time>
      </trkpt>
      <trkpt lat="40.809355" lon="-1.757391">
        <ele>1224.018</ele>
        <time>1999-11-30T00:00:00Z</time>
      </trkpt>
      <trkpt lat="40.8095" lon="-1.757661">
        <ele>1223.063</ele>
        <time>1999-11-30T00:00:00Z</time>
      </trkpt>
      <trkpt lat="40.809653" lon="-1.757846">
        <ele>1223.012</ele>
        <time>1999-11-30T00:00:00Z</time>
      </trkpt>
      <trkpt lat="40.809986" lon="-1.758206">
        <ele>1223.013</ele>
        <time>1999-11-30T00:00:00Z</time>
      </trkpt>
      <trkpt lat="40.810295" lon="-1.758532">
        <ele>1224.011</ele>
        <time>1999-11-30T00:00:00Z</time>
      </trkpt>
      <trkpt lat="40.810613" lon="-1.758912">
        <ele>1224.085</ele>
        <time>1999-11-30T00:00:00Z</time>
      </trkpt>
      <trkpt lat="40.810802" lon="-1.759127">
        <ele>1225.089</ele>
        <time>1999-11-30T00:00:00Z</time>
      </trkpt>
      <trkpt lat="40.81069" lon="-1.759238">
        <ele>1225.017</ele>
        <time>1999-11-30T00:00:00Z</time>
      </trkpt>
      <trkpt lat="40.810453" lon="-1.759473">
        <ele>1226.008</ele>
        <time>1999-11-30T00:00:00Z</time>
      </trkpt>
      <trkpt lat="40.810139" lon="-1.759764">
        <ele>1225.039</ele>
        <time>1999-11-30T00:00:00Z</time>
      </trkpt>
      <trkpt lat="40.809851" lon="-1.759975">
        <ele>1224.053</ele>
        <time>1999-11-30T00:00:00Z</time>
      </trkpt>
      <trkpt lat="40.80958" lon="-1.760113">
        <ele>1223.034</ele>
        <time>1999-11-30T00:00:00Z</time>
      </trkpt>
      <trkpt lat="40.809129" lon="-1.760309">
        <ele>1221.028</ele>
        <time>1999-11-30T00:00:00Z</time>
      </trkpt>
      <trkpt lat="40.808709" lon="-1.760442">
        <ele>1220.033</ele>
        <time>1999-11-30T00:00:00Z</time>
      </trkpt>
      <trkpt lat="40.808" lon="-1.760662">
        <ele>1220.032</ele>
        <time>1999-11-30T00:00:00Z</time>
      </trkpt>
      <trkpt lat="40.807297" lon="-1.760874">
        <ele>1220.023</ele>
        <time>1999-11-30T00:00:00Z</time>
      </trkpt>
      <trkpt lat="40.806967" lon="-1.76104">
        <ele>1221.081</ele>
        <time>1999-11-30T00:00:00Z</time>
      </trkpt>
      <trkpt lat="40.80632" lon="-1.761169">
        <ele>1225.041</ele>
        <time>1999-11-30T00:00:00Z</time>
      </trkpt>
      <trkpt lat="40.805799" lon="-1.761315">
        <ele>1230.081</ele>
        <time>1999-11-30T00:00:00Z</time>
      </trkpt>
      <trkpt lat="40.805459" lon="-1.761418">
        <ele>1233.009</ele>
        <time>1999-11-30T00:00:00Z</time>
      </trkpt>
      <trkpt lat="40.805218" lon="-1.761432">
        <ele>1235.008</ele>
        <time>1999-11-30T00:00:00Z</time>
      </trkpt>
      <trkpt lat="40.804826" lon="-1.761377">
        <ele>1238.045</ele>
        <time>1999-11-30T00:00:00Z</time>
      </trkpt>
      <trkpt lat="40.804253" lon="-1.761295">
        <ele>1241.029</ele>
        <time>1999-11-30T00:00:00Z</time>
      </trkpt>
      <trkpt lat="40.803819" lon="-1.761323">
        <ele>1241.010</ele>
        <time>1999-11-30T00:00:00Z</time>
      </trkpt>
      <trkpt lat="40.803207" lon="-1.761388">
        <ele>1233.074</ele>
        <time>1999-11-30T00:00:00Z</time>
      </trkpt>
      <trkpt lat="40.802786" lon="-1.7614">
        <ele>1227.069</ele>
        <time>1999-11-30T00:00:00Z</time>
      </trkpt>
      <trkpt lat="40.802579" lon="-1.761329">
        <ele>1224.038</ele>
        <time>1999-11-30T00:00:00Z</time>
      </trkpt>
      <trkpt lat="40.802378" lon="-1.761271">
        <ele>1222.069</ele>
        <time>1999-11-30T00:00:00Z</time>
      </trkpt>
      <trkpt lat="40.802228" lon="-1.761299">
        <ele>1219.087</ele>
        <time>1999-11-30T00:00:00Z</time>
      </trkpt>
      <trkpt lat="40.8019" lon="-1.761432">
        <ele>1215.076</ele>
        <time>1999-11-30T00:00:00Z</time>
      </trkpt>
      <trkpt lat="40.801425" lon="-1.761664">
        <ele>1209.090</ele>
        <time>1999-11-30T00:00:00Z</time>
      </trkpt>
      <trkpt lat="40.801001" lon="-1.761879">
        <ele>1208.019</ele>
        <time>1999-11-30T00:00:00Z</time>
      </trkpt>
      <trkpt lat="40.800772" lon="-1.762023">
        <ele>1208.008</ele>
        <time>1999-11-30T00:00:00Z</time>
      </trkpt>
      <trkpt lat="40.800616" lon="-1.762202">
        <ele>1209.038</ele>
        <time>1999-11-30T00:00:00Z</time>
      </trkpt>
      <trkpt lat="40.800239" lon="-1.762698">
        <ele>1213.042</ele>
        <time>1999-11-30T00:00:00Z</time>
      </trkpt>
      <trkpt lat="40.800046" lon="-1.762906">
        <ele>1216.043</ele>
        <time>1999-11-30T00:00:00Z</time>
      </trkpt>
      <trkpt lat="40.799856" lon="-1.763027">
        <ele>1218.047</ele>
        <time>1999-11-30T00:00:00Z</time>
      </trkpt>
      <trkpt lat="40.799552" lon="-1.763114">
        <ele>1219.062</ele>
        <time>1999-11-30T00:00:00Z</time>
      </trkpt>
      <trkpt lat="40.799306" lon="-1.763115">
        <ele>1213.081</ele>
        <time>1999-11-30T00:00:00Z</time>
      </trkpt>
      <trkpt lat="40.799133" lon="-1.763215">
        <ele>1209.082</ele>
        <time>1999-11-30T00:00:00Z</time>
      </trkpt>
      <trkpt lat="40.79903" lon="-1.763332">
        <ele>1207.010</ele>
        <time>1999-11-30T00:00:00Z</time>
      </trkpt>
      <trkpt lat="40.798916" lon="-1.763626">
        <ele>1203.046</ele>
        <time>1999-11-30T00:00:00Z</time>
      </trkpt>
      <trkpt lat="40.798799" lon="-1.764096">
        <ele>1199.088</ele>
        <time>1999-11-30T00:00:00Z</time>
      </trkpt>
      <trkpt lat="40.798695" lon="-1.764486">
        <ele>1194.016</ele>
        <time>1999-11-30T00:00:00Z</time>
      </trkpt>
      <trkpt lat="40.798547" lon="-1.764849">
        <ele>1189.008</ele>
        <time>1999-11-30T00:00:00Z</time>
      </trkpt>
      <trkpt lat="40.798465" lon="-1.765056">
        <ele>1187.065</ele>
        <time>1999-11-30T00:00:00Z</time>
      </trkpt>
      <trkpt lat="40.798269" lon="-1.765287">
        <ele>1186.029</ele>
        <time>1999-11-30T00:00:00Z</time>
      </trkpt>
      <trkpt lat="40.798081" lon="-1.765483">
        <ele>1184.080</ele>
        <time>1999-11-30T00:00:00Z</time>
      </trkpt>
      <trkpt lat="40.797676" lon="-1.765764">
        <ele>1182.054</ele>
        <time>1999-11-30T00:00:00Z</time>
      </trkpt>
      <trkpt lat="40.797444" lon="-1.76596">
        <ele>1180.049</ele>
        <time>1999-11-30T00:00:00Z</time>
      </trkpt>
      <trkpt lat="40.797194" lon="-1.766212">
        <ele>1179.038</ele>
        <time>1999-11-30T00:00:00Z</time>
      </trkpt>
      <trkpt lat="40.797032" lon="-1.766552">
        <ele>1180.029</ele>
        <time>1999-11-30T00:00:00Z</time>
      </trkpt>
      <trkpt lat="40.796846" lon="-1.766983">
        <ele>1183.067</ele>
        <time>1999-11-30T00:00:00Z</time>
      </trkpt>
      <trkpt lat="40.796793" lon="-1.767254">
        <ele>1185.056</ele>
        <time>1999-11-30T00:00:00Z</time>
      </trkpt>
      <trkpt lat="40.796836" lon="-1.767539">
        <ele>1185.059</ele>
        <time>1999-11-30T00:00:00Z</time>
      </trkpt>
      <trkpt lat="40.79688" lon="-1.767755">
        <ele>1183.014</ele>
        <time>1999-11-30T00:00:00Z</time>
      </trkpt>
      <trkpt lat="40.796857" lon="-1.768007">
        <ele>1183.008</ele>
        <time>1999-11-30T00:00:00Z</time>
      </trkpt>
      <trkpt lat="40.79679" lon="-1.768236">
        <ele>1182.026</ele>
        <time>1999-11-30T00:00:00Z</time>
      </trkpt>
      <trkpt lat="40.796716" lon="-1.768441">
        <ele>1180.050</ele>
        <time>1999-11-30T00:00:00Z</time>
      </trkpt>
      <trkpt lat="40.79656" lon="-1.768601">
        <ele>1182.061</ele>
        <time>1999-11-30T00:00:00Z</time>
      </trkpt>
      <trkpt lat="40.796404" lon="-1.768668">
        <ele>1184.085</ele>
        <time>1999-11-30T00:00:00Z</time>
      </trkpt>
      <trkpt lat="40.796218" lon="-1.768649">
        <ele>1185.060</ele>
        <time>1999-11-30T00:00:00Z</time>
      </trkpt>
      <trkpt lat="40.796088" lon="-1.768553">
        <ele>1185.079</ele>
        <time>1999-11-30T00:00:00Z</time>
      </trkpt>
      <trkpt lat="40.795956" lon="-1.768491">
        <ele>1185.080</ele>
        <time>1999-11-30T00:00:00Z</time>
      </trkpt>
      <trkpt lat="40.795789" lon="-1.768523">
        <ele>1184.068</ele>
        <time>1999-11-30T00:00:00Z</time>
      </trkpt>
      <trkpt lat="40.795477" lon="-1.768593">
        <ele>1180.058</ele>
        <time>1999-11-30T00:00:00Z</time>
      </trkpt>
      <trkpt lat="40.794972" lon="-1.768707">
        <ele>1175.052</ele>
        <time>1999-11-30T00:00:00Z</time>
      </trkpt>
      <trkpt lat="40.794528" lon="-1.768819">
        <ele>1172.017</ele>
        <time>1999-11-30T00:00:00Z</time>
      </trkpt>
      <trkpt lat="40.794296" lon="-1.768974">
        <ele>1171.008</ele>
        <time>1999-11-30T00:00:00Z</time>
      </trkpt>
      <trkpt lat="40.793741" lon="-1.769344">
        <ele>1168.086</ele>
        <time>1999-11-30T00:00:00Z</time>
      </trkpt>
      <trkpt lat="40.793181" lon="-1.769719">
        <ele>1161.090</ele>
        <time>1999-11-30T00:00:00Z</time>
      </trkpt>
      <trkpt lat="40.792858" lon="-1.769939">
        <ele>1156.061</ele>
        <time>1999-11-30T00:00:00Z</time>
      </trkpt>
      <trkpt lat="40.792701" lon="-1.770093">
        <ele>1153.045</ele>
        <time>1999-11-30T00:00:00Z</time>
      </trkpt>
      <trkpt lat="40.792631" lon="-1.770222">
        <ele>1150.070</ele>
        <time>1999-11-30T00:00:00Z</time>
      </trkpt>
      <trkpt lat="40.792629" lon="-1.770378">
        <ele>1148.019</ele>
        <time>1999-11-30T00:00:00Z</time>
      </trkpt>
      <trkpt lat="40.792755" lon="-1.77059">
        <ele>1145.020</ele>
        <time>1999-11-30T00:00:00Z</time>
      </trkpt>
      <trkpt lat="40.793293" lon="-1.771171">
        <ele>1138.038</ele>
        <time>1999-11-30T00:00:00Z</time>
      </trkpt>
      <trkpt lat="40.793387" lon="-1.771262">
        <ele>1136.076</ele>
        <time>1999-11-30T00:00:00Z</time>
      </trkpt>
      <trkpt lat="40.793428" lon="-1.771382">
        <ele>1134.090</ele>
        <time>1999-11-30T00:00:00Z</time>
      </trkpt>
      <trkpt lat="40.793361" lon="-1.771457">
        <ele>1132.019</ele>
        <time>1999-11-30T00:00:00Z</time>
      </trkpt>
      <trkpt lat="40.793276" lon="-1.77147">
        <ele>1131.008</ele>
        <time>1999-11-30T00:00:00Z</time>
      </trkpt>
      <trkpt lat="40.792857" lon="-1.771546">
        <ele>1128.078</ele>
        <time>1999-11-30T00:00:00Z</time>
      </trkpt>
      <trkpt lat="40.792438" lon="-1.771633">
        <ele>1125.032</ele>
        <time>1999-11-30T00:00:00Z</time>
      </trkpt>
      <trkpt lat="40.792277" lon="-1.771678">
        <ele>1123.063</ele>
        <time>1999-11-30T00:00:00Z</time>
      </trkpt>
      <trkpt lat="40.792228" lon="-1.771712">
        <ele>1122.067</ele>
        <time>1999-11-30T00:00:00Z</time>
      </trkpt>
      <trkpt lat="40.792189" lon="-1.771812">
        <ele>1121.082</ele>
        <time>1999-11-30T00:00:00Z</time>
      </trkpt>
      <trkpt lat="40.792249" lon="-1.771932">
        <ele>1120.081</ele>
        <time>1999-11-30T00:00:00Z</time>
      </trkpt>
      <trkpt lat="40.792441" lon="-1.772076">
        <ele>1120.022</ele>
        <time>1999-11-30T00:00:00Z</time>
      </trkpt>
      <trkpt lat="40.792727" lon="-1.772236">
        <ele>1119.070</ele>
        <time>1999-11-30T00:00:00Z</time>
      </trkpt>
      <trkpt lat="40.793484" lon="-1.772497">
        <ele>1119.055</ele>
        <time>1999-11-30T00:00:00Z</time>
      </trkpt>
      <trkpt lat="40.794224" lon="-1.772825">
        <ele>1119.007</ele>
        <time>1999-11-30T00:00:00Z</time>
      </trkpt>
      <trkpt lat="40.795108" lon="-1.773235">
        <ele>1120.017</ele>
        <time>1999-11-30T00:00:00Z</time>
      </trkpt>
      <trkpt lat="40.795322" lon="-1.77337">
        <ele>1120.008</ele>
        <time>1999-11-30T00:00:00Z</time>
      </trkpt>
      <trkpt lat="40.795413" lon="-1.77346">
        <ele>1120.026</ele>
        <time>1999-11-30T00:00:00Z</time>
      </trkpt>
      <trkpt lat="40.795647" lon="-1.773916">
        <ele>1119.070</ele>
        <time>1999-11-30T00:00:00Z</time>
      </trkpt>
      <trkpt lat="40.795875" lon="-1.774268">
        <ele>1119.031</ele>
        <time>1999-11-30T00:00:00Z</time>
      </trkpt>
      <trkpt lat="40.796511" lon="-1.774765">
        <ele>1119.065</ele>
        <time>1999-11-30T00:00:00Z</time>
      </trkpt>
      <trkpt lat="40.797055" lon="-1.775245">
        <ele>1118.090</ele>
        <time>1999-11-30T00:00:00Z</time>
      </trkpt>
      <trkpt lat="40.797723" lon="-1.776069">
        <ele>1120.029</ele>
        <time>1999-11-30T00:00:00Z</time>
      </trkpt>
      <trkpt lat="40.798238" lon="-1.776723">
        <ele>1128.080</ele>
        <time>1999-11-30T00:00:00Z</time>
      </trkpt>
      <trkpt lat="40.798605" lon="-1.777183">
        <ele>1130.048</ele>
        <time>1999-11-30T00:00:00Z</time>
      </trkpt>
      <trkpt lat="40.798783" lon="-1.777596">
        <ele>1131.022</ele>
        <time>1999-11-30T00:00:00Z</time>
      </trkpt>
      <trkpt lat="40.799101" lon="-1.77846">
        <ele>1131.062</ele>
        <time>1999-11-30T00:00:00Z</time>
      </trkpt>
      <trkpt lat="40.799247" lon="-1.778777">
        <ele>1132.008</ele>
        <time>1999-11-30T00:00:00Z</time>
      </trkpt>
      <trkpt lat="40.799375" lon="-1.778952">
        <ele>1134.008</ele>
        <time>1999-11-30T00:00:00Z</time>
      </trkpt>
      <trkpt lat="40.800069" lon="-1.779353">
        <ele>1136.083</ele>
        <time>1999-11-30T00:00:00Z</time>
      </trkpt>
      <trkpt lat="40.800422" lon="-1.77962">
        <ele>1135.017</ele>
        <time>1999-11-30T00:00:00Z</time>
      </trkpt>
      <trkpt lat="40.800761" lon="-1.780093">
        <ele>1133.058</ele>
        <time>1999-11-30T00:00:00Z</time>
      </trkpt>
      <trkpt lat="40.801444" lon="-1.781062">
        <ele>1127.092</ele>
        <time>1999-11-30T00:00:00Z</time>
      </trkpt>
      <trkpt lat="40.801632" lon="-1.781269">
        <ele>1126.057</ele>
        <time>1999-11-30T00:00:00Z</time>
      </trkpt>
      <trkpt lat="40.802715" lon="-1.782153">
        <ele>1125.086</ele>
        <time>1999-11-30T00:00:00Z</time>
      </trkpt>
      <trkpt lat="40.803258" lon="-1.782807">
        <ele>1124.037</ele>
        <time>1999-11-30T00:00:00Z</time>
      </trkpt>
      <trkpt lat="40.803405" lon="-1.782934">
        <ele>1123.095</ele>
        <time>1999-11-30T00:00:00Z</time>
      </trkpt>
      <trkpt lat="40.803871" lon="-1.78304">
        <ele>1126.016</ele>
        <time>1999-11-30T00:00:00Z</time>
      </trkpt>
      <trkpt lat="40.804116" lon="-1.783112">
        <ele>1125.076</ele>
        <time>1999-11-30T00:00:00Z</time>
      </trkpt>
      <trkpt lat="40.804249" lon="-1.783185">
        <ele>1124.013</ele>
        <time>1999-11-30T00:00:00Z</time>
      </trkpt>
      <trkpt lat="40.804479" lon="-1.783221">
        <ele>1124.008</ele>
        <time>1999-11-30T00:00:00Z</time>
      </trkpt>
      <trkpt lat="40.804661" lon="-1.783217">
        <ele>1125.032</ele>
        <time>1999-11-30T00:00:00Z</time>
      </trkpt>
      <trkpt lat="40.804891" lon="-1.783268">
        <ele>1126.016</ele>
        <time>1999-11-30T00:00:00Z</time>
      </trkpt>
      <trkpt lat="40.805446" lon="-1.783469">
        <ele>1129.017</ele>
        <time>1999-11-30T00:00:00Z</time>
      </trkpt>
      <trkpt lat="40.805677" lon="-1.78362">
        <ele>1129.011</ele>
        <time>1999-11-30T00:00:00Z</time>
      </trkpt>
      <trkpt lat="40.805898" lon="-1.783837">
        <ele>1129.076</ele>
        <time>1999-11-30T00:00:00Z</time>
      </trkpt>
      <trkpt lat="40.806064" lon="-1.784103">
        <ele>1127.055</ele>
        <time>1999-11-30T00:00:00Z</time>
      </trkpt>
      <trkpt lat="40.806112" lon="-1.78429">
        <ele>1127.026</ele>
        <time>1999-11-30T00:00:00Z</time>
      </trkpt>
      <trkpt lat="40.806148" lon="-1.78453">
        <ele>1127.064</ele>
        <time>1999-11-30T00:00:00Z</time>
      </trkpt>
      <trkpt lat="40.806162" lon="-1.784613">
        <ele>1127.013</ele>
        <time>1999-11-30T00:00:00Z</time>
      </trkpt>
      <trkpt lat="40.806277" lon="-1.784635">
        <ele>1128.043</ele>
        <time>1999-11-30T00:00:00Z</time>
      </trkpt>
      <trkpt lat="40.80636" lon="-1.784657">
        <ele>1128.007</ele>
        <time>1999-11-30T00:00:00Z</time>
      </trkpt>
      <trkpt lat="40.806389" lon="-1.784712">
        <ele>1128.008</ele>
        <time>1999-11-30T00:00:00Z</time>
      </trkpt>
      <trkpt lat="40.806349" lon="-1.785399">
        <ele>1128.082</ele>
        <time>1999-11-30T00:00:00Z</time>
      </trkpt>
      <trkpt lat="40.806303" lon="-1.785621">
        <ele>1129.046</ele>
        <time>1999-11-30T00:00:00Z</time>
      </trkpt>
      <trkpt lat="40.806107" lon="-1.785793">
        <ele>1130.027</ele>
        <time>1999-11-30T00:00:00Z</time>
      </trkpt>
      <trkpt lat="40.805906" lon="-1.78598">
        <ele>1131.041</ele>
        <time>1999-11-30T00:00:00Z</time>
      </trkpt>
      <trkpt lat="40.805713" lon="-1.786222">
        <ele>1132.066</ele>
        <time>1999-11-30T00:00:00Z</time>
      </trkpt>
      <trkpt lat="40.805604" lon="-1.786475">
        <ele>1132.025</ele>
        <time>1999-11-30T00:00:00Z</time>
      </trkpt>
      <trkpt lat="40.805447" lon="-1.786601">
        <ele>1132.036</ele>
        <time>1999-11-30T00:00:00Z</time>
      </trkpt>
      <trkpt lat="40.804966" lon="-1.787129">
        <ele>1130.014</ele>
        <time>1999-11-30T00:00:00Z</time>
      </trkpt>
      <trkpt lat="40.804568" lon="-1.78761">
        <ele>1130.044</ele>
        <time>1999-11-30T00:00:00Z</time>
      </trkpt>
      <trkpt lat="40.804153" lon="-1.787871">
        <ele>1130.005</ele>
        <time>1999-11-30T00:00:00Z</time>
      </trkpt>
      <trkpt lat="40.80381" lon="-1.788144">
        <ele>1130.015</ele>
        <time>1999-11-30T00:00:00Z</time>
      </trkpt>
      <trkpt lat="40.803453" lon="-1.788624">
        <ele>1130.008</ele>
        <time>1999-11-30T00:00:00Z</time>
      </trkpt>
      <trkpt lat="40.803238" lon="-1.788969">
        <ele>1130.075</ele>
        <time>1999-11-30T00:00:00Z</time>
      </trkpt>
      <trkpt lat="40.802852" lon="-1.789927">
        <ele>1133.089</ele>
        <time>1999-11-30T00:00:00Z</time>
      </trkpt>
      <trkpt lat="40.802072" lon="-1.791812">
        <ele>1139.070</ele>
        <time>1999-11-30T00:00:00Z</time>
      </trkpt>
      <trkpt lat="40.80161" lon="-1.792944">
        <ele>1140.034</ele>
        <time>1999-11-30T00:00:00Z</time>
      </trkpt>
      <trkpt lat="40.801519" lon="-1.793207">
        <ele>1140.049</ele>
        <time>1999-11-30T00:00:00Z</time>
      </trkpt>
      <trkpt lat="40.801437" lon="-1.793766">
        <ele>1140.068</ele>
        <time>1999-11-30T00:00:00Z</time>
      </trkpt>
      <trkpt lat="40.801236" lon="-1.79504">
        <ele>1139.059</ele>
        <time>1999-11-30T00:00:00Z</time>
      </trkpt>
      <trkpt lat="40.801174" lon="-1.795483">
        <ele>1136.087</ele>
        <time>1999-11-30T00:00:00Z</time>
      </trkpt>
      <trkpt lat="40.801153" lon="-1.796827">
        <ele>1130.091</ele>
        <time>1999-11-30T00:00:00Z</time>
      </trkpt>
      <trkpt lat="40.801234" lon="-1.800246">
        <ele>1121.081</ele>
        <time>1999-11-30T00:00:00Z</time>
      </trkpt>
      <trkpt lat="40.801224" lon="-1.800879">
        <ele>1121.019</ele>
        <time>1999-11-30T00:00:00Z</time>
      </trkpt>
      <trkpt lat="40.801217" lon="-1.801284">
        <ele>1122.008</ele>
        <time>1999-11-30T00:00:00Z</time>
      </trkpt>
      <trkpt lat="40.801116" lon="-1.801546">
        <ele>1123.070</ele>
        <time>1999-11-30T00:00:00Z</time>
      </trkpt>
      <trkpt lat="40.800556" lon="-1.802412">
        <ele>1128.094</ele>
        <time>1999-11-30T00:00:00Z</time>
      </trkpt>
      <trkpt lat="40.800218" lon="-1.802971">
        <ele>1129.075</ele>
        <time>1999-11-30T00:00:00Z</time>
      </trkpt>
      <trkpt lat="40.800095" lon="-1.803105">
        <ele>1129.069</ele>
        <time>1999-11-30T00:00:00Z</time>
      </trkpt>
      <trkpt lat="40.799941" lon="-1.803176">
        <ele>1130.034</ele>
        <time>1999-11-30T00:00:00Z</time>
      </trkpt>
      <trkpt lat="40.798927" lon="-1.803407">
        <ele>1131.083</ele>
        <time>1999-11-30T00:00:00Z</time>
      </trkpt>
      <trkpt lat="40.797832" lon="-1.803671">
        <ele>1130.044</ele>
        <time>1999-11-30T00:00:00Z</time>
      </trkpt>
      <trkpt lat="40.797962" lon="-1.803954">
        <ele>1130.022</ele>
        <time>1999-11-30T00:00:00Z</time>
      </trkpt>
      <trkpt lat="40.798146" lon="-1.804422">
        <ele>1131.057</ele>
        <time>1999-11-30T00:00:00Z</time>
      </trkpt>
      <trkpt lat="40.798284" lon="-1.804828">
        <ele>1132.000</ele>
        <time>1999-11-30T00:00:00Z</time>
      </trkpt>
      <trkpt lat="40.797895" lon="-1.805168">
        <ele>1133.020</ele>
        <time>1999-11-30T00:00:00Z</time>
      </trkpt>
      <trkpt lat="40.798709" lon="-1.805992">
        <ele>1133.008</ele>
        <time>1999-11-30T00:00:00Z</time>
      </trkpt>
      <trkpt lat="40.799244" lon="-1.806544">
        <ele>1135.016</ele>
        <time>1999-11-30T00:00:00Z</time>
      </trkpt>
      <trkpt lat="40.799567" lon="-1.807013">
        <ele>1135.020</ele>
        <time>1999-11-30T00:00:00Z</time>
      </trkpt>
      <trkpt lat="40.799961" lon="-1.807861">
        <ele>1135.091</ele>
        <time>1999-11-30T00:00:00Z</time>
      </trkpt>
      <trkpt lat="40.800145" lon="-1.808292">
        <ele>1135.025</ele>
        <time>1999-11-30T00:00:00Z</time>
      </trkpt>
      <trkpt lat="40.800433" lon="-1.808746">
        <ele>1135.050</ele>
        <time>1999-11-30T00:00:00Z</time>
      </trkpt>
      <trkpt lat="40.800583" lon="-1.809281">
        <ele>1135.029</ele>
        <time>1999-11-30T00:00:00Z</time>
      </trkpt>
      <trkpt lat="40.800905" lon="-1.809656">
        <ele>1135.030</ele>
        <time>1999-11-30T00:00:00Z</time>
      </trkpt>
      <trkpt lat="40.801231" lon="-1.810307">
        <ele>1135.028</ele>
        <time>1999-11-30T00:00:00Z</time>
      </trkpt>
      <trkpt lat="40.801556" lon="-1.810989">
        <ele>1135.035</ele>
        <time>1999-11-30T00:00:00Z</time>
      </trkpt>
      <trkpt lat="40.802298" lon="-1.811791">
        <ele>1135.086</ele>
        <time>1999-11-30T00:00:00Z</time>
      </trkpt>
      <trkpt lat="40.802579" lon="-1.812213">
        <ele>1135.014</ele>
        <time>1999-11-30T00:00:00Z</time>
      </trkpt>
      <trkpt lat="40.802932" lon="-1.813052">
        <ele>1135.008</ele>
        <time>1999-11-30T00:00:00Z</time>
      </trkpt>
      <trkpt lat="40.803197" lon="-1.813578">
        <ele>1135.054</ele>
        <time>1999-11-30T00:00:00Z</time>
      </trkpt>
      <trkpt lat="40.803605" lon="-1.814033">
        <ele>1135.088</ele>
        <time>1999-11-30T00:00:00Z</time>
      </trkpt>
      <trkpt lat="40.804133" lon="-1.814933">
        <ele>1135.059</ele>
        <time>1999-11-30T00:00:00Z</time>
      </trkpt>
      <trkpt lat="40.804548" lon="-1.815583">
        <ele>1135.023</ele>
        <time>1999-11-30T00:00:00Z</time>
      </trkpt>
      <trkpt lat="40.805257" lon="-1.816392">
        <ele>1135.088</ele>
        <time>1999-11-30T00:00:00Z</time>
      </trkpt>
      <trkpt lat="40.806058" lon="-1.81725">
        <ele>1135.087</ele>
        <time>1999-11-30T00:00:00Z</time>
      </trkpt>
      <trkpt lat="40.806438" lon="-1.817762">
        <ele>1135.078</ele>
        <time>1999-11-30T00:00:00Z</time>
      </trkpt>
      <trkpt lat="40.806883" lon="-1.818537">
        <ele>1135.016</ele>
        <time>1999-11-30T00:00:00Z</time>
      </trkpt>
      <trkpt lat="40.807405" lon="-1.81935">
        <ele>1135.025</ele>
        <time>1999-11-30T00:00:00Z</time>
      </trkpt>
      <trkpt lat="40.807713" lon="-1.819799">
        <ele>1136.026</ele>
        <time>1999-11-30T00:00:00Z</time>
      </trkpt>
      <trkpt lat="40.80805" lon="-1.820855">
        <ele>1136.008</ele>
        <time>1999-11-30T00:00:00Z</time>
      </trkpt>
      <trkpt lat="40.808372" lon="-1.822278">
        <ele>1136.008</ele>
        <time>1999-11-30T00:00:00Z</time>
      </trkpt>
      <trkpt lat="40.808865" lon="-1.824014">
        <ele>1136.073</ele>
        <time>1999-11-30T00:00:00Z</time>
      </trkpt>
      <trkpt lat="40.80922" lon="-1.824956">
        <ele>1137.027</ele>
        <time>1999-11-30T00:00:00Z</time>
      </trkpt>
      <trkpt lat="40.809724" lon="-1.825888">
        <ele>1137.078</ele>
        <time>1999-11-30T00:00:00Z</time>
      </trkpt>
      <trkpt lat="40.809974" lon="-1.8268">
        <ele>1138.062</ele>
        <time>1999-11-30T00:00:00Z</time>
      </trkpt>
      <trkpt lat="40.810109" lon="-1.827316">
        <ele>1138.067</ele>
        <time>1999-11-30T00:00:00Z</time>
      </trkpt>
      <trkpt lat="40.810442" lon="-1.827949">
        <ele>1138.056</ele>
        <time>1999-11-30T00:00:00Z</time>
      </trkpt>
      <trkpt lat="40.811115" lon="-1.827545">
        <ele>1139.027</ele>
        <time>1999-11-30T00:00:00Z</time>
      </trkpt>
      <trkpt lat="40.811623" lon="-1.827234">
        <ele>1140.035</ele>
        <time>1999-11-30T00:00:00Z</time>
      </trkpt>
      <trkpt lat="40.811715" lon="-1.827653">
        <ele>1140.018</ele>
        <time>1999-11-30T00:00:00Z</time>
      </trkpt>
      <trkpt lat="40.811868" lon="-1.828192">
        <ele>1139.098</ele>
        <time>1999-11-30T00:00:00Z</time>
      </trkpt>
      <trkpt lat="40.812103" lon="-1.828849">
        <ele>1138.017</ele>
        <time>1999-11-30T00:00:00Z</time>
      </trkpt>
      <trkpt lat="40.812196" lon="-1.829083">
        <ele>1138.008</ele>
        <time>1999-11-30T00:00:00Z</time>
      </trkpt>
      <trkpt lat="40.812217" lon="-1.829249">
        <ele>1138.072</ele>
        <time>1999-11-30T00:00:00Z</time>
      </trkpt>
      <trkpt lat="40.812229" lon="-1.829607">
        <ele>1137.016</ele>
        <time>1999-11-30T00:00:00Z</time>
      </trkpt>
      <trkpt lat="40.812413" lon="-1.830505">
        <ele>1136.027</ele>
        <time>1999-11-30T00:00:00Z</time>
      </trkpt>
      <trkpt lat="40.812541" lon="-1.831096">
        <ele>1135.051</ele>
        <time>1999-11-30T00:00:00Z</time>
      </trkpt>
      <trkpt lat="40.812647" lon="-1.831698">
        <ele>1134.016</ele>
        <time>1999-11-30T00:00:00Z</time>
      </trkpt>
      <trkpt lat="40.812753" lon="-1.832051">
        <ele>1133.055</ele>
        <time>1999-11-30T00:00:00Z</time>
      </trkpt>
      <trkpt lat="40.812711" lon="-1.832125">
        <ele>1133.046</ele>
        <time>1999-11-30T00:00:00Z</time>
      </trkpt>
      <trkpt lat="40.812663" lon="-1.832261">
        <ele>1133.054</ele>
        <time>1999-11-30T00:00:00Z</time>
      </trkpt>
      <trkpt lat="40.812652" lon="-1.832526">
        <ele>1134.014</ele>
        <time>1999-11-30T00:00:00Z</time>
      </trkpt>
      <trkpt lat="40.812672" lon="-1.83291">
        <ele>1133.054</ele>
        <time>1999-11-30T00:00:00Z</time>
      </trkpt>
      <trkpt lat="40.812653" lon="-1.833162">
        <ele>1134.009</ele>
        <time>1999-11-30T00:00:00Z</time>
      </trkpt>
      <trkpt lat="40.812601" lon="-1.83364">
        <ele>1134.008</ele>
        <time>1999-11-30T00:00:00Z</time>
      </trkpt>
      <trkpt lat="40.812577" lon="-1.83398">
        <ele>1134.092</ele>
        <time>1999-11-30T00:00:00Z</time>
      </trkpt>
      <trkpt lat="40.812589" lon="-1.834203">
        <ele>1134.096</ele>
        <time>1999-11-30T00:00:00Z</time>
      </trkpt>
      <trkpt lat="40.812584" lon="-1.83526">
        <ele>1135.067</ele>
        <time>1999-11-30T00:00:00Z</time>
      </trkpt>
      <trkpt lat="40.812591" lon="-1.83565">
        <ele>1136.091</ele>
        <time>1999-11-30T00:00:00Z</time>
      </trkpt>
      <trkpt lat="40.812572" lon="-1.835975">
        <ele>1136.086</ele>
        <time>1999-11-30T00:00:00Z</time>
      </trkpt>
      <trkpt lat="40.812537" lon="-1.836279">
        <ele>1137.095</ele>
        <time>1999-11-30T00:00:00Z</time>
      </trkpt>
      <trkpt lat="40.812494" lon="-1.836474">
        <ele>1137.096</ele>
        <time>1999-11-30T00:00:00Z</time>
      </trkpt>
      <trkpt lat="40.81251" lon="-1.836704">
        <ele>1137.034</ele>
        <time>1999-11-30T00:00:00Z</time>
      </trkpt>
      <trkpt lat="40.812583" lon="-1.837133">
        <ele>1138.067</ele>
        <time>1999-11-30T00:00:00Z</time>
      </trkpt>
      <trkpt lat="40.812636" lon="-1.837455">
        <ele>1138.081</ele>
        <time>1999-11-30T00:00:00Z</time>
      </trkpt>
      <trkpt lat="40.812638" lon="-1.837724">
        <ele>1139.019</ele>
        <time>1999-11-30T00:00:00Z</time>
      </trkpt>
      <trkpt lat="40.81265" lon="-1.837997">
        <ele>1139.008</ele>
        <time>1999-11-30T00:00:00Z</time>
      </trkpt>
      <trkpt lat="40.812691" lon="-1.838263">
        <ele>1139.057</ele>
        <time>1999-11-30T00:00:00Z</time>
      </trkpt>
      <trkpt lat="40.812882" lon="-1.838872">
        <ele>1140.091</ele>
        <time>1999-11-30T00:00:00Z</time>
      </trkpt>
      <trkpt lat="40.813108" lon="-1.839483">
        <ele>1140.052</ele>
        <time>1999-11-30T00:00:00Z</time>
      </trkpt>
      <trkpt lat="40.813235" lon="-1.839857">
        <ele>1139.066</ele>
        <time>1999-11-30T00:00:00Z</time>
      </trkpt>
      <trkpt lat="40.813452" lon="-1.840266">
        <ele>1137.081</ele>
        <time>1999-11-30T00:00:00Z</time>
      </trkpt>
      <trkpt lat="40.813463" lon="-1.840374">
        <ele>1136.090</ele>
        <time>1999-11-30T00:00:00Z</time>
      </trkpt>
      <trkpt lat="40.813447" lon="-1.8405">
        <ele>1136.031</ele>
        <time>1999-11-30T00:00:00Z</time>
      </trkpt>
      <trkpt lat="40.81344" lon="-1.840688">
        <ele>1134.039</ele>
        <time>1999-11-30T00:00:00Z</time>
      </trkpt>
      <trkpt lat="40.813559" lon="-1.841193">
        <ele>1132.063</ele>
        <time>1999-11-30T00:00:00Z</time>
      </trkpt>
      <trkpt lat="40.813719" lon="-1.841645">
        <ele>1130.044</ele>
        <time>1999-11-30T00:00:00Z</time>
      </trkpt>
      <trkpt lat="40.813983" lon="-1.842293">
        <ele>1127.018</ele>
        <time>1999-11-30T00:00:00Z</time>
      </trkpt>
      <trkpt lat="40.814081" lon="-1.842476">
        <ele>1125.008</ele>
        <time>1999-11-30T00:00:00Z</time>
      </trkpt>
      <trkpt lat="40.814167" lon="-1.842569">
        <ele>1125.097</ele>
        <time>1999-11-30T00:00:00Z</time>
      </trkpt>
      <trkpt lat="40.814195" lon="-1.842778">
        <ele>1123.071</ele>
        <time>1999-11-30T00:00:00Z</time>
      </trkpt>
      <trkpt lat="40.814187" lon="-1.84295">
        <ele>1122.032</ele>
        <time>1999-11-30T00:00:00Z</time>
      </trkpt>
      <trkpt lat="40.814122" lon="-1.843175">
        <ele>1121.026</ele>
        <time>1999-11-30T00:00:00Z</time>
      </trkpt>
      <trkpt lat="40.814069" lon="-1.843459">
        <ele>1120.091</ele>
        <time>1999-11-30T00:00:00Z</time>
      </trkpt>
      <trkpt lat="40.814051" lon="-1.843836">
        <ele>1119.020</ele>
        <time>1999-11-30T00:00:00Z</time>
      </trkpt>
      <trkpt lat="40.814051" lon="-1.844094">
        <ele>1117.041</ele>
        <time>1999-11-30T00:00:00Z</time>
      </trkpt>
      <trkpt lat="40.814104" lon="-1.844419">
        <ele>1113.049</ele>
        <time>1999-11-30T00:00:00Z</time>
      </trkpt>
      <trkpt lat="40.814073" lon="-1.844655">
        <ele>1110.018</ele>
        <time>1999-11-30T00:00:00Z</time>
      </trkpt>
      <trkpt lat="40.81404" lon="-1.844814">
        <ele>1110.098</ele>
        <time>1999-11-30T00:00:00Z</time>
      </trkpt>
      <trkpt lat="40.814044" lon="-1.845572">
        <ele>1106.017</ele>
        <time>1999-11-30T00:00:00Z</time>
      </trkpt>
      <trkpt lat="40.814066" lon="-1.8461">
        <ele>1100.008</ele>
        <time>1999-11-30T00:00:00Z</time>
      </trkpt>
      <trkpt lat="40.814039" lon="-1.846443">
        <ele>1100.072</ele>
        <time>1999-11-30T00:00:00Z</time>
      </trkpt>
      <trkpt lat="40.814102" lon="-1.84713">
        <ele>1096.086</ele>
        <time>1999-11-30T00:00:00Z</time>
      </trkpt>
      <trkpt lat="40.81411" lon="-1.84752">
        <ele>1092.037</ele>
        <time>1999-11-30T00:00:00Z</time>
      </trkpt>
      <trkpt lat="40.813979" lon="-1.848085">
        <ele>1089.031</ele>
        <time>1999-11-30T00:00:00Z</time>
      </trkpt>
      <trkpt lat="40.813846" lon="-1.848509">
        <ele>1087.026</ele>
        <time>1999-11-30T00:00:00Z</time>
      </trkpt>
      <trkpt lat="40.813681" lon="-1.849034">
        <ele>1084.015</ele>
        <time>1999-11-30T00:00:00Z</time>
      </trkpt>
      <trkpt lat="40.813606" lon="-1.849299">
        <ele>1083.066</ele>
        <time>1999-11-30T00:00:00Z</time>
      </trkpt>
      <trkpt lat="40.813565" lon="-1.849771">
        <ele>1081.094</ele>
        <time>1999-11-30T00:00:00Z</time>
      </trkpt>
      <trkpt lat="40.813477" lon="-1.850436">
        <ele>1080.069</ele>
        <time>1999-11-30T00:00:00Z</time>
      </trkpt>
      <trkpt lat="40.813398" lon="-1.85082">
        <ele>1080.004</ele>
        <time>1999-11-30T00:00:00Z</time>
      </trkpt>
      <trkpt lat="40.813265" lon="-1.851164">
        <ele>1081.024</ele>
        <time>1999-11-30T00:00:00Z</time>
      </trkpt>
      <trkpt lat="40.813054" lon="-1.851584">
        <ele>1081.008</ele>
        <time>1999-11-30T00:00:00Z</time>
      </trkpt>
      <trkpt lat="40.813166" lon="-1.85173">
        <ele>1081.027</ele>
        <time>1999-11-30T00:00:00Z</time>
      </trkpt>
      <trkpt lat="40.813408" lon="-1.852098">
        <ele>1081.061</ele>
        <time>1999-11-30T00:00:00Z</time>
      </trkpt>
      <trkpt lat="40.813617" lon="-1.852406">
        <ele>1080.082</ele>
        <time>1999-11-30T00:00:00Z</time>
      </trkpt>
      <trkpt lat="40.813746" lon="-1.852701">
        <ele>1080.046</ele>
        <time>1999-11-30T00:00:00Z</time>
      </trkpt>
      <trkpt lat="40.81383" lon="-1.852883">
        <ele>1080.021</ele>
        <time>1999-11-30T00:00:00Z</time>
      </trkpt>
      <trkpt lat="40.813947" lon="-1.853054">
        <ele>1080.080</ele>
        <time>1999-11-30T00:00:00Z</time>
      </trkpt>
      <trkpt lat="40.81421" lon="-1.853364">
        <ele>1080.021</ele>
        <time>1999-11-30T00:00:00Z</time>
      </trkpt>
      <trkpt lat="40.814489" lon="-1.853707">
        <ele>1080.089</ele>
        <time>1999-11-30T00:00:00Z</time>
      </trkpt>
      <trkpt lat="40.81484" lon="-1.854175">
        <ele>1080.024</ele>
        <time>1999-11-30T00:00:00Z</time>
      </trkpt>
      <trkpt lat="40.81523" lon="-1.854632">
        <ele>1080.004</ele>
        <time>1999-11-30T00:00:00Z</time>
      </trkpt>
      <trkpt lat="40.815511" lon="-1.854986">
        <ele>1080.014</ele>
        <time>1999-11-30T00:00:00Z</time>
      </trkpt>
      <trkpt lat="40.8158" lon="-1.855398">
        <ele>1080.008</ele>
        <time>1999-11-30T00:00:00Z</time>
      </trkpt>
      <trkpt lat="40.816024" lon="-1.855693">
        <ele>1080.053</ele>
        <time>1999-11-30T00:00:00Z</time>
      </trkpt>
      <trkpt lat="40.816182" lon="-1.855947">
        <ele>1080.017</ele>
        <time>1999-11-30T00:00:00Z</time>
      </trkpt>
      <trkpt lat="40.816242" lon="-1.856118">
        <ele>1080.038</ele>
        <time>1999-11-30T00:00:00Z</time>
      </trkpt>
      <trkpt lat="40.816279" lon="-1.85626">
        <ele>1080.042</ele>
        <time>1999-11-30T00:00:00Z</time>
      </trkpt>
      <trkpt lat="40.816274" lon="-1.856403">
        <ele>1080.037</ele>
        <time>1999-11-30T00:00:00Z</time>
      </trkpt>
      <trkpt lat="40.816227" lon="-1.856505">
        <ele>1080.056</ele>
        <time>1999-11-30T00:00:00Z</time>
      </trkpt>
      <trkpt lat="40.816125" lon="-1.856595">
        <ele>1080.037</ele>
        <time>1999-11-30T00:00:00Z</time>
      </trkpt>
      <trkpt lat="40.815963" lon="-1.856677">
        <ele>1080.035</ele>
        <time>1999-11-30T00:00:00Z</time>
      </trkpt>
      <trkpt lat="40.815763" lon="-1.856782">
        <ele>1080.021</ele>
        <time>1999-11-30T00:00:00Z</time>
      </trkpt>
      <trkpt lat="40.815457" lon="-1.856828">
        <ele>1080.041</ele>
        <time>1999-11-30T00:00:00Z</time>
      </trkpt>
      <trkpt lat="40.814736" lon="-1.856913">
        <ele>1080.005</ele>
        <time>1999-11-30T00:00:00Z</time>
      </trkpt>
      <trkpt lat="40.814133" lon="-1.856991">
        <ele>1080.008</ele>
        <time>1999-11-30T00:00:00Z</time>
      </trkpt>
      <trkpt lat="40.814031" lon="-1.857026">
        <ele>1080.013</ele>
        <time>1999-11-30T00:00:00Z</time>
      </trkpt>
      <trkpt lat="40.813943" lon="-1.857086">
        <ele>1080.097</ele>
        <time>1999-11-30T00:00:00Z</time>
      </trkpt>
      <trkpt lat="40.813873" lon="-1.857192">
        <ele>1080.058</ele>
        <time>1999-11-30T00:00:00Z</time>
      </trkpt>
      <trkpt lat="40.813838" lon="-1.857457">
        <ele>1080.082</ele>
        <time>1999-11-30T00:00:00Z</time>
      </trkpt>
      <trkpt lat="40.813818" lon="-1.857677">
        <ele>1080.027</ele>
        <time>1999-11-30T00:00:00Z</time>
      </trkpt>
      <trkpt lat="40.813774" lon="-1.857871">
        <ele>1080.016</ele>
        <time>1999-11-30T00:00:00Z</time>
      </trkpt>
      <trkpt lat="40.813682" lon="-1.858103">
        <ele>1080.097</ele>
        <time>1999-11-30T00:00:00Z</time>
      </trkpt>
      <trkpt lat="40.813526" lon="-1.858207">
        <ele>1080.035</ele>
        <time>1999-11-30T00:00:00Z</time>
      </trkpt>
      <trkpt lat="40.81303" lon="-1.858408">
        <ele>1080.074</ele>
        <time>1999-11-30T00:00:00Z</time>
      </trkpt>
      <trkpt lat="40.812538" lon="-1.858686">
        <ele>1080.056</ele>
        <time>1999-11-30T00:00:00Z</time>
      </trkpt>
      <trkpt lat="40.812051" lon="-1.85893">
        <ele>1081.021</ele>
        <time>1999-11-30T00:00:00Z</time>
      </trkpt>
      <trkpt lat="40.811721" lon="-1.859074">
        <ele>1083.008</ele>
        <time>1999-11-30T00:00:00Z</time>
      </trkpt>
      <trkpt lat="40.811613" lon="-1.859151">
        <ele>1083.098</ele>
        <time>1999-11-30T00:00:00Z</time>
      </trkpt>
      <trkpt lat="40.811526" lon="-1.859264">
        <ele>1084.012</ele>
        <time>1999-11-30T00:00:00Z</time>
      </trkpt>
      <trkpt lat="40.811505" lon="-1.859506">
        <ele>1084.013</ele>
        <time>1999-11-30T00:00:00Z</time>
      </trkpt>
      <trkpt lat="40.811521" lon="-1.859813">
        <ele>1085.017</ele>
        <time>1999-11-30T00:00:00Z</time>
      </trkpt>
      <trkpt lat="40.811626" lon="-1.860156">
        <ele>1084.092</ele>
        <time>1999-11-30T00:00:00Z</time>
      </trkpt>
      <trkpt lat="40.81188" lon="-1.860681">
        <ele>1083.021</ele>
        <time>1999-11-30T00:00:00Z</time>
      </trkpt>
      <trkpt lat="40.812045" lon="-1.861158">
        <ele>1082.032</ele>
        <time>1999-11-30T00:00:00Z</time>
      </trkpt>
      <trkpt lat="40.812168" lon="-1.861623">
        <ele>1082.090</ele>
        <time>1999-11-30T00:00:00Z</time>
      </trkpt>
      <trkpt lat="40.812231" lon="-1.862145">
        <ele>1082.082</ele>
        <time>1999-11-30T00:00:00Z</time>
      </trkpt>
      <trkpt lat="40.812323" lon="-1.862876">
        <ele>1080.043</ele>
        <time>1999-11-30T00:00:00Z</time>
      </trkpt>
      <trkpt lat="40.812466" lon="-1.863743">
        <ele>1080.017</ele>
        <time>1999-11-30T00:00:00Z</time>
      </trkpt>
      <trkpt lat="40.812616" lon="-1.864334">
        <ele>1080.008</ele>
        <time>1999-11-30T00:00:00Z</time>
      </trkpt>
      <trkpt lat="40.812729" lon="-1.864807">
        <ele>1081.049</ele>
        <time>1999-11-30T00:00:00Z</time>
      </trkpt>
      <trkpt lat="40.812945" lon="-1.865366">
        <ele>1081.053</ele>
        <time>1999-11-30T00:00:00Z</time>
      </trkpt>
      <trkpt lat="40.813126" lon="-1.865931">
        <ele>1080.024</ele>
        <time>1999-11-30T00:00:00Z</time>
      </trkpt>
      <trkpt lat="40.813306" lon="-1.866592">
        <ele>1080.058</ele>
        <time>1999-11-30T00:00:00Z</time>
      </trkpt>
      <trkpt lat="40.813478" lon="-1.867291">
        <ele>1080.013</ele>
        <time>1999-11-30T00:00:00Z</time>
      </trkpt>
      <trkpt lat="40.813504" lon="-1.867694">
        <ele>1081.012</ele>
        <time>1999-11-30T00:00:00Z</time>
      </trkpt>
      <trkpt lat="40.813548" lon="-1.868529">
        <ele>1079.073</ele>
        <time>1999-11-30T00:00:00Z</time>
      </trkpt>
      <trkpt lat="40.813587" lon="-1.86897">
        <ele>1078.081</ele>
        <time>1999-11-30T00:00:00Z</time>
      </trkpt>
      <trkpt lat="40.81368" lon="-1.869478">
        <ele>1078.077</ele>
        <time>1999-11-30T00:00:00Z</time>
      </trkpt>
      <trkpt lat="40.813787" lon="-1.869812">
        <ele>1078.061</ele>
        <time>1999-11-30T00:00:00Z</time>
      </trkpt>
      <trkpt lat="40.81395" lon="-1.870214">
        <ele>1078.027</ele>
        <time>1999-11-30T00:00:00Z</time>
      </trkpt>
      <trkpt lat="40.814271" lon="-1.870759">
        <ele>1077.008</ele>
        <time>1999-11-30T00:00:00Z</time>
      </trkpt>
      <trkpt lat="40.814659" lon="-1.871289">
        <ele>1078.028</ele>
        <time>1999-11-30T00:00:00Z</time>
      </trkpt>
      <trkpt lat="40.815155" lon="-1.871874">
        <ele>1078.022</ele>
        <time>1999-11-30T00:00:00Z</time>
      </trkpt>
      <trkpt lat="40.815854" lon="-1.872734">
        <ele>1078.073</ele>
        <time>1999-11-30T00:00:00Z</time>
      </trkpt>
      <trkpt lat="40.816359" lon="-1.873314">
        <ele>1077.067</ele>
        <time>1999-11-30T00:00:00Z</time>
      </trkpt>
      <trkpt lat="40.816705" lon="-1.873639">
        <ele>1076.082</ele>
        <time>1999-11-30T00:00:00Z</time>
      </trkpt>
      <trkpt lat="40.817277" lon="-1.87426">
        <ele>1077.031</ele>
        <time>1999-11-30T00:00:00Z</time>
      </trkpt>
      <trkpt lat="40.817862" lon="-1.874901">
        <ele>1076.052</ele>
        <time>1999-11-30T00:00:00Z</time>
      </trkpt>
      <trkpt lat="40.818294" lon="-1.875356">
        <ele>1076.040</ele>
        <time>1999-11-30T00:00:00Z</time>
      </trkpt>
      <trkpt lat="40.818617" lon="-1.87574">
        <ele>1076.087</ele>
        <time>1999-11-30T00:00:00Z</time>
      </trkpt>
      <trkpt lat="40.818984" lon="-1.876206">
        <ele>1076.042</ele>
        <time>1999-11-30T00:00:00Z</time>
      </trkpt>
      <trkpt lat="40.819195" lon="-1.876512">
        <ele>1075.026</ele>
        <time>1999-11-30T00:00:00Z</time>
      </trkpt>
      <trkpt lat="40.819334" lon="-1.876835">
        <ele>1075.008</ele>
        <time>1999-11-30T00:00:00Z</time>
      </trkpt>
      <trkpt lat="40.819429" lon="-1.877212">
        <ele>1074.019</ele>
        <time>1999-11-30T00:00:00Z</time>
      </trkpt>
      <trkpt lat="40.819561" lon="-1.877625">
        <ele>1074.043</ele>
        <time>1999-11-30T00:00:00Z</time>
      </trkpt>
      <trkpt lat="40.819731" lon="-1.877879">
        <ele>1073.084</ele>
        <time>1999-11-30T00:00:00Z</time>
      </trkpt>
      <trkpt lat="40.819901" lon="-1.878197">
        <ele>1072.088</ele>
        <time>1999-11-30T00:00:00Z</time>
      </trkpt>
      <trkpt lat="40.820108" lon="-1.87844">
        <ele>1072.053</ele>
        <time>1999-11-30T00:00:00Z</time>
      </trkpt>
      <trkpt lat="40.820436" lon="-1.878603">
        <ele>1072.032</ele>
        <time>1999-11-30T00:00:00Z</time>
      </trkpt>
      <trkpt lat="40.820825" lon="-1.878764">
        <ele>1072.033</ele>
        <time>1999-11-30T00:00:00Z</time>
      </trkpt>
      <trkpt lat="40.821041" lon="-1.878797">
        <ele>1073.031</ele>
        <time>1999-11-30T00:00:00Z</time>
      </trkpt>
      <trkpt lat="40.821225" lon="-1.878868">
        <ele>1074.076</ele>
        <time>1999-11-30T00:00:00Z</time>
      </trkpt>
      <trkpt lat="40.821326" lon="-1.878982">
        <ele>1074.090</ele>
        <time>1999-11-30T00:00:00Z</time>
      </trkpt>
      <trkpt lat="40.821363" lon="-1.879159">
        <ele>1073.019</ele>
        <time>1999-11-30T00:00:00Z</time>
      </trkpt>
      <trkpt lat="40.821332" lon="-1.879607">
        <ele>1073.008</ele>
        <time>1999-11-30T00:00:00Z</time>
      </trkpt>
      <trkpt lat="40.821271" lon="-1.8803">
        <ele>1075.058</ele>
        <time>1999-11-30T00:00:00Z</time>
      </trkpt>
      <trkpt lat="40.821215" lon="-1.880859">
        <ele>1076.072</ele>
        <time>1999-11-30T00:00:00Z</time>
      </trkpt>
      <trkpt lat="40.821231" lon="-1.881187">
        <ele>1076.073</ele>
        <time>1999-11-30T00:00:00Z</time>
      </trkpt>
      <trkpt lat="40.821304" lon="-1.881708">
        <ele>1076.077</ele>
        <time>1999-11-30T00:00:00Z</time>
      </trkpt>
      <trkpt lat="40.821363" lon="-1.882006">
        <ele>1075.022</ele>
        <time>1999-11-30T00:00:00Z</time>
      </trkpt>
      <trkpt lat="40.821541" lon="-1.882245">
        <ele>1076.031</ele>
        <time>1999-11-30T00:00:00Z</time>
      </trkpt>
      <trkpt lat="40.821799" lon="-1.882483">
        <ele>1075.092</ele>
        <time>1999-11-30T00:00:00Z</time>
      </trkpt>
      <trkpt lat="40.821976" lon="-1.882601">
        <ele>1075.040</ele>
        <time>1999-11-30T00:00:00Z</time>
      </trkpt>
      <trkpt lat="40.822188" lon="-1.882644">
        <ele>1075.098</ele>
        <time>1999-11-30T00:00:00Z</time>
      </trkpt>
      <trkpt lat="40.822487" lon="-1.882634">
        <ele>1075.015</ele>
        <time>1999-11-30T00:00:00Z</time>
      </trkpt>
      <trkpt lat="40.822835" lon="-1.882675">
        <ele>1073.026</ele>
        <time>1999-11-30T00:00:00Z</time>
      </trkpt>
      <trkpt lat="40.823278" lon="-1.882799">
        <ele>1074.008</ele>
        <time>1999-11-30T00:00:00Z</time>
      </trkpt>
      <trkpt lat="40.823894" lon="-1.882894">
        <ele>1072.020</ele>
        <time>1999-11-30T00:00:00Z</time>
      </trkpt>
      <trkpt lat="40.824278" lon="-1.882987">
        <ele>1070.064</ele>
        <time>1999-11-30T00:00:00Z</time>
      </trkpt>
      <trkpt lat="40.824705" lon="-1.883017">
        <ele>1068.025</ele>
        <time>1999-11-30T00:00:00Z</time>
      </trkpt>
      <trkpt lat="40.825036" lon="-1.882985">
        <ele>1069.089</ele>
        <time>1999-11-30T00:00:00Z</time>
      </trkpt>
      <trkpt lat="40.825335" lon="-1.882959">
        <ele>1068.094</ele>
        <time>1999-11-30T00:00:00Z</time>
      </trkpt>
      <trkpt lat="40.825903" lon="-1.883065">
        <ele>1066.073</ele>
        <time>1999-11-30T00:00:00Z</time>
      </trkpt>
      <trkpt lat="40.826454" lon="-1.883156">
        <ele>1066.074</ele>
        <time>1999-11-30T00:00:00Z</time>
      </trkpt>
      <trkpt lat="40.826886" lon="-1.883206">
        <ele>1065.082</ele>
        <time>1999-11-30T00:00:00Z</time>
      </trkpt>
      <trkpt lat="40.827162" lon="-1.883291">
        <ele>1065.095</ele>
        <time>1999-11-30T00:00:00Z</time>
      </trkpt>
      <trkpt lat="40.827459" lon="-1.883459">
        <ele>1065.049</ele>
        <time>1999-11-30T00:00:00Z</time>
      </trkpt>
      <trkpt lat="40.82815" lon="-1.883957">
        <ele>1067.023</ele>
        <time>1999-11-30T00:00:00Z</time>
      </trkpt>
      <trkpt lat="40.829126" lon="-1.884603">
        <ele>1067.008</ele>
        <time>1999-11-30T00:00:00Z</time>
      </trkpt>
      <trkpt lat="40.829845" lon="-1.88509">
        <ele>1068.080</ele>
        <time>1999-11-30T00:00:00Z</time>
      </trkpt>
      <trkpt lat="40.830507" lon="-1.885457">
        <ele>1067.024</ele>
        <time>1999-11-30T00:00:00Z</time>
      </trkpt>
      <trkpt lat="40.831344" lon="-1.885826">
        <ele>1064.085</ele>
        <time>1999-11-30T00:00:00Z</time>
      </trkpt>
      <trkpt lat="40.831645" lon="-1.88601">
        <ele>1062.039</ele>
        <time>1999-11-30T00:00:00Z</time>
      </trkpt>
      <trkpt lat="40.831685" lon="-1.886078">
        <ele>1061.054</ele>
        <time>1999-11-30T00:00:00Z</time>
      </trkpt>
      <trkpt lat="40.831374" lon="-1.886845">
        <ele>1061.093</ele>
        <time>1999-11-30T00:00:00Z</time>
      </trkpt>
      <trkpt lat="40.830834" lon="-1.887937">
        <ele>1062.094</ele>
        <time>1999-11-30T00:00:00Z</time>
      </trkpt>
      <trkpt lat="40.830547" lon="-1.888387">
        <ele>1063.012</ele>
        <time>1999-11-30T00:00:00Z</time>
      </trkpt>
      <trkpt lat="40.830264" lon="-1.888855">
        <ele>1063.096</ele>
        <time>1999-11-30T00:00:00Z</time>
      </trkpt>
      <trkpt lat="40.83015" lon="-1.88904">
        <ele>1063.031</ele>
        <time>1999-11-30T00:00:00Z</time>
      </trkpt>
      <trkpt lat="40.830101" lon="-1.889098">
        <ele>1063.024</ele>
        <time>1999-11-30T00:00:00Z</time>
      </trkpt>
      <trkpt lat="40.830037" lon="-1.889325">
        <ele>1064.008</ele>
        <time>1999-11-30T00:00:00Z</time>
      </trkpt>
      <trkpt lat="40.830134" lon="-1.889445">
        <ele>1063.060</ele>
        <time>1999-11-30T00:00:00Z</time>
      </trkpt>
      <trkpt lat="40.830305" lon="-1.889763">
        <ele>1062.084</ele>
        <time>1999-11-30T00:00:00Z</time>
      </trkpt>
      <trkpt lat="40.830475" lon="-1.890044">
        <ele>1062.095</ele>
        <time>1999-11-30T00:00:00Z</time>
      </trkpt>
      <trkpt lat="40.830537" lon="-1.890227">
        <ele>1063.029</ele>
        <time>1999-11-30T00:00:00Z</time>
      </trkpt>
      <trkpt lat="40.830628" lon="-1.890399">
        <ele>1064.024</ele>
        <time>1999-11-30T00:00:00Z</time>
      </trkpt>
      <trkpt lat="40.830796" lon="-1.890433">
        <ele>1063.033</ele>
        <time>1999-11-30T00:00:00Z</time>
      </trkpt>
      <trkpt lat="40.831055" lon="-1.890331">
        <ele>1062.094</ele>
        <time>1999-11-30T00:00:00Z</time>
      </trkpt>
      <trkpt lat="40.831283" lon="-1.890251">
        <ele>1061.062</ele>
        <time>1999-11-30T00:00:00Z</time>
      </trkpt>
      <trkpt lat="40.831468" lon="-1.890141">
        <ele>1060.014</ele>
        <time>1999-11-30T00:00:00Z</time>
      </trkpt>
      <trkpt lat="40.83165" lon="-1.890047">
        <ele>1060.054</ele>
        <time>1999-11-30T00:00:00Z</time>
      </trkpt>
      <trkpt lat="40.831892" lon="-1.89001">
        <ele>1061.009</ele>
        <time>1999-11-30T00:00:00Z</time>
      </trkpt>
      <trkpt lat="40.832169" lon="-1.889985">
        <ele>1061.008</ele>
        <time>1999-11-30T00:00:00Z</time>
      </trkpt>
      <trkpt lat="40.832394" lon="-1.889894">
        <ele>1061.012</ele>
        <time>1999-11-30T00:00:00Z</time>
      </trkpt>
      <trkpt lat="40.832751" lon="-1.889647">
        <ele>1063.026</ele>
        <time>1999-11-30T00:00:00Z</time>
      </trkpt>
      <trkpt lat="40.83316" lon="-1.889251">
        <ele>1068.037</ele>
        <time>1999-11-30T00:00:00Z</time>
      </trkpt>
      <trkpt lat="40.833451" lon="-1.888794">
        <ele>1073.011</ele>
        <time>1999-11-30T00:00:00Z</time>
      </trkpt>
      <trkpt lat="40.833611" lon="-1.888553">
        <ele>1069.086</ele>
        <time>1999-11-30T00:00:00Z</time>
      </trkpt>
      <trkpt lat="40.833812" lon="-1.88842">
        <ele>1067.095</ele>
        <time>1999-11-30T00:00:00Z</time>
      </trkpt>
      <trkpt lat="40.83409" lon="-1.888328">
        <ele>1065.086</ele>
        <time>1999-11-30T00:00:00Z</time>
      </trkpt>
      <trkpt lat="40.834443" lon="-1.888264">
        <ele>1062.094</ele>
        <time>1999-11-30T00:00:00Z</time>
      </trkpt>
      <trkpt lat="40.834797" lon="-1.888208">
        <ele>1061.047</ele>
        <time>1999-11-30T00:00:00Z</time>
      </trkpt>
      <trkpt lat="40.835082" lon="-1.888224">
        <ele>1061.029</ele>
        <time>1999-11-30T00:00:00Z</time>
      </trkpt>
      <trkpt lat="40.835459" lon="-1.888313">
        <ele>1061.021</ele>
        <time>1999-11-30T00:00:00Z</time>
      </trkpt>
      <trkpt lat="40.836137" lon="-1.888452">
        <ele>1061.008</ele>
        <time>1999-11-30T00:00:00Z</time>
      </trkpt>
      <trkpt lat="40.836593" lon="-1.888519">
        <ele>1061.065</ele>
        <time>1999-11-30T00:00:00Z</time>
      </trkpt>
      <trkpt lat="40.837065" lon="-1.888578">
        <ele>1060.019</ele>
        <time>1999-11-30T00:00:00Z</time>
      </trkpt>
      <trkpt lat="40.837493" lon="-1.888683">
        <ele>1060.060</ele>
        <time>1999-11-30T00:00:00Z</time>
      </trkpt>
      <trkpt lat="40.837772" lon="-1.888778">
        <ele>1060.034</ele>
        <time>1999-11-30T00:00:00Z</time>
      </trkpt>
      <trkpt lat="40.838087" lon="-1.888973">
        <ele>1060.069</ele>
        <time>1999-11-30T00:00:00Z</time>
      </trkpt>
      <trkpt lat="40.838651" lon="-1.889118">
        <ele>1063.068</ele>
        <time>1999-11-30T00:00:00Z</time>
      </trkpt>
      <trkpt lat="40.839067" lon="-1.889206">
        <ele>1070.049</ele>
        <time>1999-11-30T00:00:00Z</time>
      </trkpt>
      <trkpt lat="40.839411" lon="-1.889172">
        <ele>1076.027</ele>
        <time>1999-11-30T00:00:00Z</time>
      </trkpt>
      <trkpt lat="40.839796" lon="-1.889074">
        <ele>1079.017</ele>
        <time>1999-11-30T00:00:00Z</time>
      </trkpt>
      <trkpt lat="40.839996" lon="-1.888908">
        <ele>1076.087</ele>
        <time>1999-11-30T00:00:00Z</time>
      </trkpt>
      <trkpt lat="40.840112" lon="-1.888769">
        <ele>1073.015</ele>
        <time>1999-11-30T00:00:00Z</time>
      </trkpt>
      <trkpt lat="40.840387" lon="-1.888706">
        <ele>1071.008</ele>
        <time>1999-11-30T00:00:00Z</time>
      </trkpt>
      <trkpt lat="40.840671" lon="-1.888709">
        <ele>1066.082</ele>
        <time>1999-11-30T00:00:00Z</time>
      </trkpt>
      <trkpt lat="40.840808" lon="-1.88877">
        <ele>1064.066</ele>
        <time>1999-11-30T00:00:00Z</time>
      </trkpt>
      <trkpt lat="40.840974" lon="-1.888883">
        <ele>1062.087</ele>
        <time>1999-11-30T00:00:00Z</time>
      </trkpt>
      <trkpt lat="40.841112" lon="-1.88909">
        <ele>1061.091</ele>
        <time>1999-11-30T00:00:00Z</time>
      </trkpt>
      <trkpt lat="40.841206" lon="-1.889346">
        <ele>1062.096</ele>
        <time>1999-11-30T00:00:00Z</time>
      </trkpt>
      <trkpt lat="40.84123" lon="-1.889554">
        <ele>1063.065</ele>
        <time>1999-11-30T00:00:00Z</time>
      </trkpt>
      <trkpt lat="40.841279" lon="-1.889732">
        <ele>1065.046</ele>
        <time>1999-11-30T00:00:00Z</time>
      </trkpt>
      <trkpt lat="40.841446" lon="-1.890029">
        <ele>1064.074</ele>
        <time>1999-11-30T00:00:00Z</time>
      </trkpt>
      <trkpt lat="40.841605" lon="-1.890343">
        <ele>1063.046</ele>
        <time>1999-11-30T00:00:00Z</time>
      </trkpt>
      <trkpt lat="40.841765" lon="-1.890619">
        <ele>1061.088</ele>
        <time>1999-11-30T00:00:00Z</time>
      </trkpt>
      <trkpt lat="40.841859" lon="-1.890834">
        <ele>1061.016</ele>
        <time>1999-11-30T00:00:00Z</time>
      </trkpt>
      <trkpt lat="40.841859" lon="-1.890834">
        <ele>1061.008</ele>
        <time>1999-11-30T00:00:00Z</time>
      </trkpt>
      <trkpt lat="40.841911" lon="-1.891004">
        <ele>1062.015</ele>
        <time>1999-11-30T00:00:00Z</time>
      </trkpt>
      <trkpt lat="40.841969" lon="-1.891136">
        <ele>1064.059</ele>
        <time>1999-11-30T00:00:00Z</time>
      </trkpt>
      <trkpt lat="40.841941" lon="-1.891189">
        <ele>1065.040</ele>
        <time>1999-11-30T00:00:00Z</time>
      </trkpt>
      <trkpt lat="40.841941" lon="-1.891189">
        <ele>1065.064</ele>
        <time>1999-11-30T00:00:00Z</time>
      </trkpt>
      <trkpt lat="40.841718" lon="-1.891457">
        <ele>1069.029</ele>
        <time>1999-11-30T00:00:00Z</time>
      </trkpt>
      <trkpt lat="40.841399" lon="-1.891827">
        <ele>1071.068</ele>
        <time>1999-11-30T00:00:00Z</time>
      </trkpt>
      <trkpt lat="40.841101" lon="-1.8922">
        <ele>1072.059</ele>
        <time>1999-11-30T00:00:00Z</time>
      </trkpt>
      <trkpt lat="40.841046" lon="-1.892376">
        <ele>1074.047</ele>
        <time>1999-11-30T00:00:00Z</time>
      </trkpt>
      <trkpt lat="40.840913" lon="-1.893225">
        <ele>1078.091</ele>
        <time>1999-11-30T00:00:00Z</time>
      </trkpt>
      <trkpt lat="40.84073" lon="-1.894546">
        <ele>1087.081</ele>
        <time>1999-11-30T00:00:00Z</time>
      </trkpt>
      <trkpt lat="40.840573" lon="-1.895078">
        <ele>1090.019</ele>
        <time>1999-11-30T00:00:00Z</time>
      </trkpt>
      <trkpt lat="40.840319" lon="-1.89574">
        <ele>1093.008</ele>
        <time>1999-11-30T00:00:00Z</time>
      </trkpt>
      <trkpt lat="40.840076" lon="-1.896366">
        <ele>1100.010</ele>
        <time>1999-11-30T00:00:00Z</time>
      </trkpt>
      <trkpt lat="40.839964" lon="-1.896741">
        <ele>1102.074</ele>
        <time>1999-11-30T00:00:00Z</time>
      </trkpt>
      <trkpt lat="40.839923" lon="-1.896957">
        <ele>1103.095</ele>
        <time>1999-11-30T00:00:00Z</time>
      </trkpt>
      <trkpt lat="40.839888" lon="-1.897331">
        <ele>1104.099</ele>
        <time>1999-11-30T00:00:00Z</time>
      </trkpt>
      <trkpt lat="40.839897" lon="-1.897811">
        <ele>1103.084</ele>
        <time>1999-11-30T00:00:00Z</time>
      </trkpt>
      <trkpt lat="40.839945" lon="-1.898415">
        <ele>1106.053</ele>
        <time>1999-11-30T00:00:00Z</time>
      </trkpt>
      <trkpt lat="40.839967" lon="-1.8988">
        <ele>1109.024</ele>
        <time>1999-11-30T00:00:00Z</time>
      </trkpt>
      <trkpt lat="40.839936" lon="-1.89923">
        <ele>1110.012</ele>
        <time>1999-11-30T00:00:00Z</time>
      </trkpt>
      <trkpt lat="40.839846" lon="-1.899673">
        <ele>1110.064</ele>
        <time>1999-11-30T00:00:00Z</time>
      </trkpt>
      <trkpt lat="40.83961" lon="-1.900225">
        <ele>1117.006</ele>
        <time>1999-11-30T00:00:00Z</time>
      </trkpt>
      <trkpt lat="40.839209" lon="-1.900917">
        <ele>1121.016</ele>
        <time>1999-11-30T00:00:00Z</time>
      </trkpt>
      <trkpt lat="40.83884" lon="-1.901454">
        <ele>1118.008</ele>
        <time>1999-11-30T00:00:00Z</time>
      </trkpt>
      <trkpt lat="40.838475" lon="-1.901834">
        <ele>1125.097</ele>
        <time>1999-11-30T00:00:00Z</time>
      </trkpt>
      <trkpt lat="40.838107" lon="-1.902037">
        <ele>1133.051</ele>
        <time>1999-11-30T00:00:00Z</time>
      </trkpt>
      <trkpt lat="40.837683" lon="-1.902107">
        <ele>1137.032</ele>
        <time>1999-11-30T00:00:00Z</time>
      </trkpt>
      <trkpt lat="40.837228" lon="-1.902114">
        <ele>1138.046</ele>
        <time>1999-11-30T00:00:00Z</time>
      </trkpt>
      <trkpt lat="40.836845" lon="-1.902092">
        <ele>1138.061</ele>
        <time>1999-11-30T00:00:00Z</time>
      </trkpt>
      <trkpt lat="40.836506" lon="-1.902092">
        <ele>1138.060</ele>
        <time>1999-11-30T00:00:00Z</time>
      </trkpt>
      <trkpt lat="40.836078" lon="-1.902268">
        <ele>1145.051</ele>
        <time>1999-11-30T00:00:00Z</time>
      </trkpt>
      <trkpt lat="40.835703" lon="-1.902547">
        <ele>1150.069</ele>
        <time>1999-11-30T00:00:00Z</time>
      </trkpt>
      <trkpt lat="40.835242" lon="-1.902944">
        <ele>1157.038</ele>
        <time>1999-11-30T00:00:00Z</time>
      </trkpt>
      <trkpt lat="40.834604" lon="-1.903532">
        <ele>1158.070</ele>
        <time>1999-11-30T00:00:00Z</time>
      </trkpt>
      <trkpt lat="40.834071" lon="-1.903998">
        <ele>1161.017</ele>
        <time>1999-11-30T00:00:00Z</time>
      </trkpt>
      <trkpt lat="40.833741" lon="-1.904474">
        <ele>1165.008</ele>
        <time>1999-11-30T00:00:00Z</time>
      </trkpt>
      <trkpt lat="40.833461" lon="-1.904885">
        <ele>1163.044</ele>
        <time>1999-11-30T00:00:00Z</time>
      </trkpt>
      <trkpt lat="40.833279" lon="-1.905166">
        <ele>1163.078</ele>
        <time>1999-11-30T00:00:00Z</time>
      </trkpt>
      <trkpt lat="40.833122" lon="-1.905308">
        <ele>1163.049</ele>
        <time>1999-11-30T00:00:00Z</time>
      </trkpt>
      <trkpt lat="40.832939" lon="-1.905474">
        <ele>1163.013</ele>
        <time>1999-11-30T00:00:00Z</time>
      </trkpt>
      <trkpt lat="40.832655" lon="-1.905712">
        <ele>1164.028</ele>
        <time>1999-11-30T00:00:00Z</time>
      </trkpt>
      <trkpt lat="40.832428" lon="-1.905911">
        <ele>1163.077</ele>
        <time>1999-11-30T00:00:00Z</time>
      </trkpt>
      <trkpt lat="40.832194" lon="-1.906105">
        <ele>1161.088</ele>
        <time>1999-11-30T00:00:00Z</time>
      </trkpt>
      <trkpt lat="40.831979" lon="-1.906301">
        <ele>1160.036</ele>
        <time>1999-11-30T00:00:00Z</time>
      </trkpt>
      <trkpt lat="40.831764" lon="-1.906489">
        <ele>1160.011</ele>
        <time>1999-11-30T00:00:00Z</time>
      </trkpt>
      <trkpt lat="40.831602" lon="-1.906648">
        <ele>1158.021</ele>
        <time>1999-11-30T00:00:00Z</time>
      </trkpt>
      <trkpt lat="40.83145" lon="-1.90677">
        <ele>1157.003</ele>
        <time>1999-11-30T00:00:00Z</time>
      </trkpt>
      <trkpt lat="40.831358" lon="-1.906865">
        <ele>1156.008</ele>
        <time>1999-11-30T00:00:00Z</time>
      </trkpt>
      <trkpt lat="40.831264" lon="-1.907051">
        <ele>1156.082</ele>
        <time>1999-11-30T00:00:00Z</time>
      </trkpt>
      <trkpt lat="40.831192" lon="-1.907251">
        <ele>1155.096</ele>
        <time>1999-11-30T00:00:00Z</time>
      </trkpt>
      <trkpt lat="40.831071" lon="-1.907587">
        <ele>1156.047</ele>
        <time>1999-11-30T00:00:00Z</time>
      </trkpt>
      <trkpt lat="40.830944" lon="-1.907843">
        <ele>1157.081</ele>
        <time>1999-11-30T00:00:00Z</time>
      </trkpt>
      <trkpt lat="40.830855" lon="-1.907973">
        <ele>1157.026</ele>
        <time>1999-11-30T00:00:00Z</time>
      </trkpt>
      <trkpt lat="40.830756" lon="-1.908118">
        <ele>1157.015</ele>
        <time>1999-11-30T00:00:00Z</time>
      </trkpt>
      <trkpt lat="40.830589" lon="-1.908311">
        <ele>1156.026</ele>
        <time>1999-11-30T00:00:00Z</time>
      </trkpt>
      <trkpt lat="40.830411" lon="-1.908569">
        <ele>1155.054</ele>
        <time>1999-11-30T00:00:00Z</time>
      </trkpt>
      <trkpt lat="40.830318" lon="-1.908734">
        <ele>1154.074</ele>
        <time>1999-11-30T00:00:00Z</time>
      </trkpt>
      <trkpt lat="40.830171" lon="-1.908845">
        <ele>1153.056</ele>
        <time>1999-11-30T00:00:00Z</time>
      </trkpt>
      <trkpt lat="40.829992" lon="-1.90889">
        <ele>1154.021</ele>
        <time>1999-11-30T00:00:00Z</time>
      </trkpt>
      <trkpt lat="40.829859" lon="-1.908965">
        <ele>1154.008</ele>
        <time>1999-11-30T00:00:00Z</time>
      </trkpt>
      <trkpt lat="40.829754" lon="-1.909041">
        <ele>1152.078</ele>
        <time>1999-11-30T00:00:00Z</time>
      </trkpt>
      <trkpt lat="40.829591" lon="-1.909168">
        <ele>1150.092</ele>
        <time>1999-11-30T00:00:00Z</time>
      </trkpt>
      <trkpt lat="40.829458" lon="-1.909253">
        <ele>1148.063</ele>
        <time>1999-11-30T00:00:00Z</time>
      </trkpt>
      <trkpt lat="40.829298" lon="-1.909284">
        <ele>1147.097</ele>
        <time>1999-11-30T00:00:00Z</time>
      </trkpt>
      <trkpt lat="40.829099" lon="-1.909262">
        <ele>1148.042</ele>
        <time>1999-11-30T00:00:00Z</time>
      </trkpt>
      <trkpt lat="40.828887" lon="-1.909239">
        <ele>1149.081</ele>
        <time>1999-11-30T00:00:00Z</time>
      </trkpt>
      <trkpt lat="40.828717" lon="-1.909255">
        <ele>1148.052</ele>
        <time>1999-11-30T00:00:00Z</time>
      </trkpt>
      <trkpt lat="40.828499" lon="-1.909296">
        <ele>1146.050</ele>
        <time>1999-11-30T00:00:00Z</time>
      </trkpt>
      <trkpt lat="40.828271" lon="-1.909294">
        <ele>1145.091</ele>
        <time>1999-11-30T00:00:00Z</time>
      </trkpt>
      <trkpt lat="40.828135" lon="-1.909293">
        <ele>1145.081</ele>
        <time>1999-11-30T00:00:00Z</time>
      </trkpt>
      <trkpt lat="40.827991" lon="-1.909286">
        <ele>1144.019</ele>
        <time>1999-11-30T00:00:00Z</time>
      </trkpt>
      <trkpt lat="40.827859" lon="-1.909355">
        <ele>1142.008</ele>
        <time>1999-11-30T00:00:00Z</time>
      </trkpt>
      <trkpt lat="40.827694" lon="-1.909435">
        <ele>1140.040</ele>
        <time>1999-11-30T00:00:00Z</time>
      </trkpt>
      <trkpt lat="40.827483" lon="-1.909467">
        <ele>1139.094</ele>
        <time>1999-11-30T00:00:00Z</time>
      </trkpt>
      <trkpt lat="40.827276" lon="-1.909408">
        <ele>1141.065</ele>
        <time>1999-11-30T00:00:00Z</time>
      </trkpt>
      <trkpt lat="40.827113" lon="-1.909475">
        <ele>1140.099</ele>
        <time>1999-11-30T00:00:00Z</time>
      </trkpt>
      <trkpt lat="40.826821" lon="-1.909639">
        <ele>1140.024</ele>
        <time>1999-11-30T00:00:00Z</time>
      </trkpt>
      <trkpt lat="40.826657" lon="-1.909752">
        <ele>1139.023</ele>
        <time>1999-11-30T00:00:00Z</time>
      </trkpt>
      <trkpt lat="40.826468" lon="-1.909786">
        <ele>1139.014</ele>
        <time>1999-11-30T00:00:00Z</time>
      </trkpt>
      <trkpt lat="40.82632" lon="-1.909859">
        <ele>1138.042</ele>
        <time>1999-11-30T00:00:00Z</time>
      </trkpt>
      <trkpt lat="40.826095" lon="-1.909921">
        <ele>1137.052</ele>
        <time>1999-11-30T00:00:00Z</time>
      </trkpt>
      <trkpt lat="40.825856" lon="-1.909904">
        <ele>1137.053</ele>
        <time>1999-11-30T00:00:00Z</time>
      </trkpt>
      <trkpt lat="40.82573" lon="-1.909864">
        <ele>1137.008</ele>
        <time>1999-11-30T00:00:00Z</time>
      </trkpt>
      <trkpt lat="40.825644" lon="-1.90982">
        <ele>1137.008</ele>
        <time>1999-11-30T00:00:00Z</time>
      </trkpt>
      <trkpt lat="40.825574" lon="-1.909816">
        <ele>1137.096</ele>
        <time>1999-11-30T00:00:00Z</time>
      </trkpt>
      <trkpt lat="40.825492" lon="-1.909839">
        <ele>1136.090</ele>
        <time>1999-11-30T00:00:00Z</time>
      </trkpt>
      <trkpt lat="40.825398" lon="-1.909903">
        <ele>1136.031</ele>
        <time>1999-11-30T00:00:00Z</time>
      </trkpt>
      <trkpt lat="40.825274" lon="-1.910015">
        <ele>1135.065</ele>
        <time>1999-11-30T00:00:00Z</time>
      </trkpt>
      <trkpt lat="40.825104" lon="-1.910169">
        <ele>1134.010</ele>
        <time>1999-11-30T00:00:00Z</time>
      </trkpt>
      <trkpt lat="40.8249" lon="-1.910284">
        <ele>1132.029</ele>
        <time>1999-11-30T00:00:00Z</time>
      </trkpt>
      <trkpt lat="40.82467" lon="-1.910348">
        <ele>1132.070</ele>
        <time>1999-11-30T00:00:00Z</time>
      </trkpt>
      <trkpt lat="40.824433" lon="-1.910353">
        <ele>1132.058</ele>
        <time>1999-11-30T00:00:00Z</time>
      </trkpt>
      <trkpt lat="40.824177" lon="-1.910333">
        <ele>1131.024</ele>
        <time>1999-11-30T00:00:00Z</time>
      </trkpt>
      <trkpt lat="40.823939" lon="-1.910244">
        <ele>1131.004</ele>
        <time>1999-11-30T00:00:00Z</time>
      </trkpt>
      <trkpt lat="40.823821" lon="-1.910218">
        <ele>1132.014</ele>
        <time>1999-11-30T00:00:00Z</time>
      </trkpt>
      <trkpt lat="40.823647" lon="-1.910237">
        <ele>1132.008</ele>
        <time>1999-11-30T00:00:00Z</time>
      </trkpt>
      <trkpt lat="40.823472" lon="-1.910287">
        <ele>1132.043</ele>
        <time>1999-11-30T00:00:00Z</time>
      </trkpt>
      <trkpt lat="40.823273" lon="-1.910433">
        <ele>1133.097</ele>
        <time>1999-11-30T00:00:00Z</time>
      </trkpt>
      <trkpt lat="40.823109" lon="-1.910492">
        <ele>1134.098</ele>
        <time>1999-11-30T00:00:00Z</time>
      </trkpt>
      <trkpt lat="40.822933" lon="-1.910482">
        <ele>1134.092</ele>
        <time>1999-11-30T00:00:00Z</time>
      </trkpt>
      <trkpt lat="40.822794" lon="-1.910496">
        <ele>1133.087</ele>
        <time>1999-11-30T00:00:00Z</time>
      </trkpt>
      <trkpt lat="40.82265" lon="-1.910525">
        <ele>1132.096</ele>
        <time>1999-11-30T00:00:00Z</time>
      </trkpt>
      <trkpt lat="40.822513" lon="-1.910579">
        <ele>1131.067</ele>
        <time>1999-11-30T00:00:00Z</time>
      </trkpt>
      <trkpt lat="40.822378" lon="-1.910581">
        <ele>1131.065</ele>
        <time>1999-11-30T00:00:00Z</time>
      </trkpt>
      <trkpt lat="40.822147" lon="-1.910532">
        <ele>1131.099</ele>
        <time>1999-11-30T00:00:00Z</time>
      </trkpt>
      <trkpt lat="40.821962" lon="-1.910505">
        <ele>1131.007</ele>
        <time>1999-11-30T00:00:00Z</time>
      </trkpt>
      <trkpt lat="40.821779" lon="-1.910571">
        <ele>1130.027</ele>
        <time>1999-11-30T00:00:00Z</time>
      </trkpt>
      <trkpt lat="40.821588" lon="-1.910592">
        <ele>1131.008</ele>
        <time>1999-11-30T00:00:00Z</time>
      </trkpt>
      <trkpt lat="40.821344" lon="-1.910622">
        <ele>1131.040</ele>
        <time>1999-11-30T00:00:00Z</time>
      </trkpt>
      <trkpt lat="40.821172" lon="-1.910645">
        <ele>1131.044</ele>
        <time>1999-11-30T00:00:00Z</time>
      </trkpt>
      <trkpt lat="40.820952" lon="-1.91073">
        <ele>1129.015</ele>
        <time>1999-11-30T00:00:00Z</time>
      </trkpt>
      <trkpt lat="40.820754" lon="-1.910724">
        <ele>1129.029</ele>
        <time>1999-11-30T00:00:00Z</time>
      </trkpt>
      <trkpt lat="40.820553" lon="-1.910668">
        <ele>1130.024</ele>
        <time>1999-11-30T00:00:00Z</time>
      </trkpt>
      <trkpt lat="40.82042" lon="-1.910592">
        <ele>1129.013</ele>
        <time>1999-11-30T00:00:00Z</time>
      </trkpt>
      <trkpt lat="40.820291" lon="-1.910443">
        <ele>1129.044</ele>
        <time>1999-11-30T00:00:00Z</time>
      </trkpt>
      <trkpt lat="40.820146" lon="-1.910345">
        <ele>1128.032</ele>
        <time>1999-11-30T00:00:00Z</time>
      </trkpt>
      <trkpt lat="40.820013" lon="-1.910222">
        <ele>1126.095</ele>
        <time>1999-11-30T00:00:00Z</time>
      </trkpt>
      <trkpt lat="40.819883" lon="-1.910109">
        <ele>1124.049</ele>
        <time>1999-11-30T00:00:00Z</time>
      </trkpt>
      <trkpt lat="40.819732" lon="-1.909956">
        <ele>1123.023</ele>
        <time>1999-11-30T00:00:00Z</time>
      </trkpt>
      <trkpt lat="40.819668" lon="-1.909854">
        <ele>1123.008</ele>
        <time>1999-11-30T00:00:00Z</time>
      </trkpt>
      <trkpt lat="40.819553" lon="-1.909672">
        <ele>1122.050</ele>
        <time>1999-11-30T00:00:00Z</time>
      </trkpt>
      <trkpt lat="40.819453" lon="-1.909616">
        <ele>1121.044</ele>
        <time>1999-11-30T00:00:00Z</time>
      </trkpt>
      <trkpt lat="40.819364" lon="-1.909602">
        <ele>1120.025</ele>
        <time>1999-11-30T00:00:00Z</time>
      </trkpt>
      <trkpt lat="40.81926" lon="-1.909663">
        <ele>1118.049</ele>
        <time>1999-11-30T00:00:00Z</time>
      </trkpt>
      <trkpt lat="40.819269" lon="-1.909785">
        <ele>1118.024</ele>
        <time>1999-11-30T00:00:00Z</time>
      </trkpt>
      <trkpt lat="40.819282" lon="-1.909914">
        <ele>1118.073</ele>
        <time>1999-11-30T00:00:00Z</time>
      </trkpt>
      <trkpt lat="40.819258" lon="-1.909985">
        <ele>1117.024</ele>
        <time>1999-11-30T00:00:00Z</time>
      </trkpt>
      <trkpt lat="40.819122" lon="-1.910183">
        <ele>1115.072</ele>
        <time>1999-11-30T00:00:00Z</time>
      </trkpt>
      <trkpt lat="40.818752" lon="-1.910605">
        <ele>1111.071</ele>
        <time>1999-11-30T00:00:00Z</time>
      </trkpt>
      <trkpt lat="40.818793" lon="-1.910747">
        <ele>1110.041</ele>
        <time>1999-11-30T00:00:00Z</time>
      </trkpt>
      <trkpt lat="40.818979" lon="-1.911142">
        <ele>1110.015</ele>
        <time>1999-11-30T00:00:00Z</time>
      </trkpt>
      <trkpt lat="40.819187" lon="-1.911536">
        <ele>1110.008</ele>
        <time>1999-11-30T00:00:00Z</time>
      </trkpt>
      <trkpt lat="40.819262" lon="-1.911737">
        <ele>1110.018</ele>
        <time>1999-11-30T00:00:00Z</time>
      </trkpt>
      <trkpt lat="40.819277" lon="-1.912005">
        <ele>1109.072</ele>
        <time>1999-11-30T00:00:00Z</time>
      </trkpt>
      <trkpt lat="40.819329" lon="-1.912161">
        <ele>1109.073</ele>
        <time>1999-11-30T00:00:00Z</time>
      </trkpt>
      <trkpt lat="40.819471" lon="-1.912288">
        <ele>1109.077</ele>
        <time>1999-11-30T00:00:00Z</time>
      </trkpt>
      <trkpt lat="40.819642" lon="-1.912363">
        <ele>1109.042</ele>
        <time>1999-11-30T00:00:00Z</time>
      </trkpt>
      <trkpt lat="40.819859" lon="-1.912354">
        <ele>1108.041</ele>
        <time>1999-11-30T00:00:00Z</time>
      </trkpt>
      <trkpt lat="40.820173" lon="-1.912248">
        <ele>1106.082</ele>
        <time>1999-11-30T00:00:00Z</time>
      </trkpt>
      <trkpt lat="40.820427" lon="-1.912104">
        <ele>1106.030</ele>
        <time>1999-11-30T00:00:00Z</time>
      </trkpt>
      <trkpt lat="40.820682" lon="-1.912044">
        <ele>1105.041</ele>
        <time>1999-11-30T00:00:00Z</time>
      </trkpt>
      <trkpt lat="40.82084" lon="-1.912069">
        <ele>1103.081</ele>
        <time>1999-11-30T00:00:00Z</time>
      </trkpt>
      <trkpt lat="40.821024" lon="-1.91215">
        <ele>1102.009</ele>
        <time>1999-11-30T00:00:00Z</time>
      </trkpt>
      <trkpt lat="40.821247" lon="-1.912343">
        <ele>1100.008</ele>
        <time>1999-11-30T00:00:00Z</time>
      </trkpt>
      <trkpt lat="40.821611" lon="-1.912556">
        <ele>1100.035</ele>
        <time>1999-11-30T00:00:00Z</time>
      </trkpt>
      <trkpt lat="40.821675" lon="-1.912627">
        <ele>1100.059</ele>
        <time>1999-11-30T00:00:00Z</time>
      </trkpt>
      <trkpt lat="40.821672" lon="-1.912706">
        <ele>1099.060</ele>
        <time>1999-11-30T00:00:00Z</time>
      </trkpt>
      <trkpt lat="40.821613" lon="-1.912791">
        <ele>1099.094</ele>
        <time>1999-11-30T00:00:00Z</time>
      </trkpt>
      <trkpt lat="40.821113" lon="-1.913085">
        <ele>1100.069</ele>
        <time>1999-11-30T00:00:00Z</time>
      </trkpt>
      <trkpt lat="40.820568" lon="-1.913436">
        <ele>1105.098</ele>
        <time>1999-11-30T00:00:00Z</time>
      </trkpt>
      <trkpt lat="40.820204" lon="-1.913637">
        <ele>1107.039</ele>
        <time>1999-11-30T00:00:00Z</time>
      </trkpt>
      <trkpt lat="40.81983" lon="-1.91375">
        <ele>1108.077</ele>
        <time>1999-11-30T00:00:00Z</time>
      </trkpt>
      <trkpt lat="40.819481" lon="-1.913806">
        <ele>1108.085</ele>
        <time>1999-11-30T00:00:00Z</time>
      </trkpt>
      <trkpt lat="40.819013" lon="-1.913876">
        <ele>1111.089</ele>
        <time>1999-11-30T00:00:00Z</time>
      </trkpt>
      <trkpt lat="40.818682" lon="-1.913931">
        <ele>1114.017</ele>
        <time>1999-11-30T00:00:00Z</time>
      </trkpt>
      <trkpt lat="40.818373" lon="-1.914065">
        <ele>1118.008</ele>
        <time>1999-11-30T00:00:00Z</time>
      </trkpt>
      <trkpt lat="40.818081" lon="-1.914244">
        <ele>1120.079</ele>
        <time>1999-11-30T00:00:00Z</time>
      </trkpt>
      <trkpt lat="40.817832" lon="-1.914472">
        <ele>1120.013</ele>
        <time>1999-11-30T00:00:00Z</time>
      </trkpt>
      <trkpt lat="40.817588" lon="-1.914812">
        <ele>1122.024</ele>
        <time>1999-11-30T00:00:00Z</time>
      </trkpt>
      <trkpt lat="40.817403" lon="-1.915118">
        <ele>1123.098</ele>
        <time>1999-11-30T00:00:00Z</time>
      </trkpt>
      <trkpt lat="40.817236" lon="-1.915429">
        <ele>1126.073</ele>
        <time>1999-11-30T00:00:00Z</time>
      </trkpt>
      <trkpt lat="40.81711" lon="-1.915615">
        <ele>1127.022</ele>
        <time>1999-11-30T00:00:00Z</time>
      </trkpt>
      <trkpt lat="40.816955" lon="-1.915836">
        <ele>1128.063</ele>
        <time>1999-11-30T00:00:00Z</time>
      </trkpt>
      <trkpt lat="40.817074" lon="-1.916188">
        <ele>1129.011</ele>
        <time>1999-11-30T00:00:00Z</time>
      </trkpt>
      <trkpt lat="40.817303" lon="-1.916987">
        <ele>1125.079</ele>
        <time>1999-11-30T00:00:00Z</time>
      </trkpt>
      <trkpt lat="40.817197" lon="-1.917341">
        <ele>1122.005</ele>
        <time>1999-11-30T00:00:00Z</time>
      </trkpt>
      <trkpt lat="40.816896" lon="-1.918103">
        <ele>1117.025</ele>
        <time>1999-11-30T00:00:00Z</time>
      </trkpt>
      <trkpt lat="40.816689" lon="-1.918444">
        <ele>1115.008</ele>
        <time>1999-11-30T00:00:00Z</time>
      </trkpt>
      <trkpt lat="40.81646" lon="-1.91854">
        <ele>1114.098</ele>
        <time>1999-11-30T00:00:00Z</time>
      </trkpt>
      <trkpt lat="40.816109" lon="-1.918706">
        <ele>1112.022</ele>
        <time>1999-11-30T00:00:00Z</time>
      </trkpt>
      <trkpt lat="40.815888" lon="-1.918799">
        <ele>1111.093</ele>
        <time>1999-11-30T00:00:00Z</time>
      </trkpt>
      <trkpt lat="40.815815" lon="-1.918921">
        <ele>1110.047</ele>
        <time>1999-11-30T00:00:00Z</time>
      </trkpt>
      <trkpt lat="40.815819" lon="-1.919078">
        <ele>1109.032</ele>
        <time>1999-11-30T00:00:00Z</time>
      </trkpt>
      <trkpt lat="40.815893" lon="-1.919244">
        <ele>1109.051</ele>
        <time>1999-11-30T00:00:00Z</time>
      </trkpt>
      <trkpt lat="40.816226" lon="-1.919378">
        <ele>1108.072</ele>
        <time>1999-11-30T00:00:00Z</time>
      </trkpt>
      <trkpt lat="40.816919" lon="-1.919622">
        <ele>1104.030</ele>
        <time>1999-11-30T00:00:00Z</time>
      </trkpt>
      <trkpt lat="40.817514" lon="-1.919821">
        <ele>1100.047</ele>
        <time>1999-11-30T00:00:00Z</time>
      </trkpt>
      <trkpt lat="40.817622" lon="-1.919948">
        <ele>1100.029</ele>
        <time>1999-11-30T00:00:00Z</time>
      </trkpt>
      <trkpt lat="40.817728" lon="-1.920378">
        <ele>1101.021</ele>
        <time>1999-11-30T00:00:00Z</time>
      </trkpt>
      <trkpt lat="40.817916" lon="-1.921249">
        <ele>1108.008</ele>
        <time>1999-11-30T00:00:00Z</time>
      </trkpt>
      <trkpt lat="40.818015" lon="-1.922049">
        <ele>1112.015</ele>
        <time>1999-11-30T00:00:00Z</time>
      </trkpt>
      <trkpt lat="40.818067" lon="-1.92294">
        <ele>1114.079</ele>
        <time>1999-11-30T00:00:00Z</time>
      </trkpt>
      <trkpt lat="40.81809" lon="-1.923408">
        <ele>1113.090</ele>
        <time>1999-11-30T00:00:00Z</time>
      </trkpt>
      <trkpt lat="40.818032" lon="-1.923654">
        <ele>1113.044</ele>
        <time>1999-11-30T00:00:00Z</time>
      </trkpt>
      <trkpt lat="40.818001" lon="-1.923945">
        <ele>1113.059</ele>
        <time>1999-11-30T00:00:00Z</time>
      </trkpt>
      <trkpt lat="40.818018" lon="-1.9242">
        <ele>1113.068</ele>
        <time>1999-11-30T00:00:00Z</time>
      </trkpt>
      <trkpt lat="40.818123" lon="-1.924569">
        <ele>1112.049</ele>
        <time>1999-11-30T00:00:00Z</time>
      </trkpt>
      <trkpt lat="40.818127" lon="-1.924937">
        <ele>1113.047</ele>
        <time>1999-11-30T00:00:00Z</time>
      </trkpt>
      <trkpt lat="40.818099" lon="-1.925515">
        <ele>1113.067</ele>
        <time>1999-11-30T00:00:00Z</time>
      </trkpt>
      <trkpt lat="40.818047" lon="-1.92648">
        <ele>1113.081</ele>
        <time>1999-11-30T00:00:00Z</time>
      </trkpt>
      <trkpt lat="40.818016" lon="-1.927024">
        <ele>1112.019</ele>
        <time>1999-11-30T00:00:00Z</time>
      </trkpt>
      <trkpt lat="40.818094" lon="-1.927387">
        <ele>1112.008</ele>
        <time>1999-11-30T00:00:00Z</time>
      </trkpt>
      <trkpt lat="40.818383" lon="-1.928088">
        <ele>1115.017</ele>
        <time>1999-11-30T00:00:00Z</time>
      </trkpt>
      <trkpt lat="40.818656" lon="-1.928601">
        <ele>1115.081</ele>
        <time>1999-11-30T00:00:00Z</time>
      </trkpt>
      <trkpt lat="40.818724" lon="-1.92885">
        <ele>1115.032</ele>
        <time>1999-11-30T00:00:00Z</time>
      </trkpt>
      <trkpt lat="40.818775" lon="-1.929214">
        <ele>1114.046</ele>
        <time>1999-11-30T00:00:00Z</time>
      </trkpt>
      <trkpt lat="40.81885" lon="-1.929558">
        <ele>1113.011</ele>
        <time>1999-11-30T00:00:00Z</time>
      </trkpt>
      <trkpt lat="40.81901" lon="-1.929887">
        <ele>1111.050</ele>
        <time>1999-11-30T00:00:00Z</time>
      </trkpt>
      <trkpt lat="40.819221" lon="-1.93024">
        <ele>1110.041</ele>
        <time>1999-11-30T00:00:00Z</time>
      </trkpt>
      <trkpt lat="40.819465" lon="-1.930633">
        <ele>1109.039</ele>
        <time>1999-11-30T00:00:00Z</time>
      </trkpt>
      <trkpt lat="40.819664" lon="-1.930979">
        <ele>1109.037</ele>
        <time>1999-11-30T00:00:00Z</time>
      </trkpt>
      <trkpt lat="40.819754" lon="-1.931306">
        <ele>1108.049</ele>
        <time>1999-11-30T00:00:00Z</time>
      </trkpt>
      <trkpt lat="40.81979" lon="-1.931825">
        <ele>1104.013</ele>
        <time>1999-11-30T00:00:00Z</time>
      </trkpt>
      <trkpt lat="40.819794" lon="-1.93231">
        <ele>1100.008</ele>
        <time>1999-11-30T00:00:00Z</time>
      </trkpt>
      <trkpt lat="40.819803" lon="-1.932626">
        <ele>1100.034</ele>
        <time>1999-11-30T00:00:00Z</time>
      </trkpt>
      <trkpt lat="40.819908" lon="-1.933042">
        <ele>1100.078</ele>
        <time>1999-11-30T00:00:00Z</time>
      </trkpt>
      <trkpt lat="40.820049" lon="-1.93337">
        <ele>1101.069</ele>
        <time>1999-11-30T00:00:00Z</time>
      </trkpt>
      <trkpt lat="40.820093" lon="-1.933639">
        <ele>1102.083</ele>
        <time>1999-11-30T00:00:00Z</time>
      </trkpt>
      <trkpt lat="40.820086" lon="-1.934009">
        <ele>1102.018</ele>
        <time>1999-11-30T00:00:00Z</time>
      </trkpt>
      <trkpt lat="40.820114" lon="-1.934325">
        <ele>1102.057</ele>
        <time>1999-11-30T00:00:00Z</time>
      </trkpt>
      <trkpt lat="40.820235" lon="-1.934607">
        <ele>1102.038</ele>
        <time>1999-11-30T00:00:00Z</time>
      </trkpt>
      <trkpt lat="40.820552" lon="-1.93507">
        <ele>1103.096</ele>
        <time>1999-11-30T00:00:00Z</time>
      </trkpt>
      <trkpt lat="40.820706" lon="-1.935355">
        <ele>1106.063</ele>
        <time>1999-11-30T00:00:00Z</time>
      </trkpt>
      <trkpt lat="40.820927" lon="-1.935888">
        <ele>1106.044</ele>
        <time>1999-11-30T00:00:00Z</time>
      </trkpt>
      <trkpt lat="40.821122" lon="-1.936471">
        <ele>1100.018</ele>
        <time>1999-11-30T00:00:00Z</time>
      </trkpt>
      <trkpt lat="40.821211" lon="-1.936778">
        <ele>1095.008</ele>
        <time>1999-11-30T00:00:00Z</time>
      </trkpt>
      <trkpt lat="40.821197" lon="-1.936927">
        <ele>1092.037</ele>
        <time>1999-11-30T00:00:00Z</time>
      </trkpt>
      <trkpt lat="40.821153" lon="-1.937069">
        <ele>1091.091</ele>
        <time>1999-11-30T00:00:00Z</time>
      </trkpt>
      <trkpt lat="40.821121" lon="-1.937242">
        <ele>1088.082</ele>
        <time>1999-11-30T00:00:00Z</time>
      </trkpt>
      <trkpt lat="40.821131" lon="-1.93751">
        <ele>1084.056</ele>
        <time>1999-11-30T00:00:00Z</time>
      </trkpt>
      <trkpt lat="40.821172" lon="-1.937875">
        <ele>1080.021</ele>
        <time>1999-11-30T00:00:00Z</time>
      </trkpt>
      <trkpt lat="40.821253" lon="-1.938218">
        <ele>1078.070</ele>
        <time>1999-11-30T00:00:00Z</time>
      </trkpt>
      <trkpt lat="40.821405" lon="-1.938534">
        <ele>1077.041</ele>
        <time>1999-11-30T00:00:00Z</time>
      </trkpt>
      <trkpt lat="40.821637" lon="-1.938976">
        <ele>1076.049</ele>
        <time>1999-11-30T00:00:00Z</time>
      </trkpt>
      <trkpt lat="40.8217" lon="-1.939161">
        <ele>1075.062</ele>
        <time>1999-11-30T00:00:00Z</time>
      </trkpt>
      <trkpt lat="40.821724" lon="-1.939317">
        <ele>1074.083</ele>
        <time>1999-11-30T00:00:00Z</time>
      </trkpt>
      <trkpt lat="40.821723" lon="-1.939581">
        <ele>1073.011</ele>
        <time>1999-11-30T00:00:00Z</time>
      </trkpt>
      <trkpt lat="40.821715" lon="-1.939879">
        <ele>1072.008</ele>
        <time>1999-11-30T00:00:00Z</time>
      </trkpt>
      <trkpt lat="40.821743" lon="-1.940128">
        <ele>1070.057</ele>
        <time>1999-11-30T00:00:00Z</time>
      </trkpt>
      <trkpt lat="40.821799" lon="-1.940586">
        <ele>1068.051</ele>
        <time>1999-11-30T00:00:00Z</time>
      </trkpt>
      <trkpt lat="40.821838" lon="-1.940891">
        <ele>1068.052</ele>
        <time>1999-11-30T00:00:00Z</time>
      </trkpt>
      <trkpt lat="40.821883" lon="-1.941108">
        <ele>1069.046</ele>
        <time>1999-11-30T00:00:00Z</time>
      </trkpt>
      <trkpt lat="40.821881" lon="-1.941361">
        <ele>1070.051</ele>
        <time>1999-11-30T00:00:00Z</time>
      </trkpt>
      <trkpt lat="40.821784" lon="-1.941829">
        <ele>1067.080</ele>
        <time>1999-11-30T00:00:00Z</time>
      </trkpt>
      <trkpt lat="40.821606" lon="-1.942461">
        <ele>1062.011</ele>
        <time>1999-11-30T00:00:00Z</time>
      </trkpt>
      <trkpt lat="40.821486" lon="-1.942764">
        <ele>1061.089</ele>
        <time>1999-11-30T00:00:00Z</time>
      </trkpt>
      <trkpt lat="40.821282" lon="-1.94318">
        <ele>1061.017</ele>
        <time>1999-11-30T00:00:00Z</time>
      </trkpt>
      <trkpt lat="40.821133" lon="-1.943424">
        <ele>1060.087</ele>
        <time>1999-11-30T00:00:00Z</time>
      </trkpt>
      <trkpt lat="40.821" lon="-1.943604">
        <ele>1059.015</ele>
        <time>1999-11-30T00:00:00Z</time>
      </trkpt>
      <trkpt lat="40.820883" lon="-1.94374">
        <ele>1059.008</ele>
        <time>1999-11-30T00:00:00Z</time>
      </trkpt>
      <trkpt lat="40.820819" lon="-1.94387">
        <ele>1058.012</ele>
        <time>1999-11-30T00:00:00Z</time>
      </trkpt>
      <trkpt lat="40.820792" lon="-1.944086">
        <ele>1055.056</ele>
        <time>1999-11-30T00:00:00Z</time>
      </trkpt>
      <trkpt lat="40.820713" lon="-1.944796">
        <ele>1050.087</ele>
        <time>1999-11-30T00:00:00Z</time>
      </trkpt>
      <trkpt lat="40.82062" lon="-1.945377">
        <ele>1046.031</ele>
        <time>1999-11-30T00:00:00Z</time>
      </trkpt>
      <trkpt lat="40.820598" lon="-1.945682">
        <ele>1044.096</ele>
        <time>1999-11-30T00:00:00Z</time>
      </trkpt>
      <trkpt lat="40.820636" lon="-1.945878">
        <ele>1043.075</ele>
        <time>1999-11-30T00:00:00Z</time>
      </trkpt>
      <trkpt lat="40.820776" lon="-1.946297">
        <ele>1042.096</ele>
        <time>1999-11-30T00:00:00Z</time>
      </trkpt>
      <trkpt lat="40.820974" lon="-1.946932">
        <ele>1044.084</ele>
        <time>1999-11-30T00:00:00Z</time>
      </trkpt>
      <trkpt lat="40.821071" lon="-1.947244">
        <ele>1045.016</ele>
        <time>1999-11-30T00:00:00Z</time>
      </trkpt>
      <trkpt lat="40.821148" lon="-1.947388">
        <ele>1046.076</ele>
        <time>1999-11-30T00:00:00Z</time>
      </trkpt>
      <trkpt lat="40.821238" lon="-1.94745">
        <ele>1047.013</ele>
        <time>1999-11-30T00:00:00Z</time>
      </trkpt>
      <trkpt lat="40.8216" lon="-1.947508">
        <ele>1051.008</ele>
        <time>1999-11-30T00:00:00Z</time>
      </trkpt>
      <trkpt lat="40.822209" lon="-1.947565">
        <ele>1057.082</ele>
        <time>1999-11-30T00:00:00Z</time>
      </trkpt>
      <trkpt lat="40.822533" lon="-1.947616">
        <ele>1060.096</ele>
        <time>1999-11-30T00:00:00Z</time>
      </trkpt>
      <trkpt lat="40.822725" lon="-1.947818">
        <ele>1061.037</ele>
        <time>1999-11-30T00:00:00Z</time>
      </trkpt>
      <trkpt lat="40.822925" lon="-1.94803">
        <ele>1061.041</ele>
        <time>1999-11-30T00:00:00Z</time>
      </trkpt>
      <trkpt lat="40.823061" lon="-1.948164">
        <ele>1061.066</ele>
        <time>1999-11-30T00:00:00Z</time>
      </trkpt>
      <trkpt lat="40.823259" lon="-1.948341">
        <ele>1060.095</ele>
        <time>1999-11-30T00:00:00Z</time>
      </trkpt>
      <trkpt lat="40.823393" lon="-1.948466">
        <ele>1060.056</ele>
        <time>1999-11-30T00:00:00Z</time>
      </trkpt>
      <trkpt lat="40.823508" lon="-1.948636">
        <ele>1060.054</ele>
        <time>1999-11-30T00:00:00Z</time>
      </trkpt>
      <trkpt lat="40.823957" lon="-1.949456">
        <ele>1057.043</ele>
        <time>1999-11-30T00:00:00Z</time>
      </trkpt>
      <trkpt lat="40.824371" lon="-1.950189">
        <ele>1057.064</ele>
        <time>1999-11-30T00:00:00Z</time>
      </trkpt>
      <trkpt lat="40.82488" lon="-1.951107">
        <ele>1057.010</ele>
        <time>1999-11-30T00:00:00Z</time>
      </trkpt>
      <trkpt lat="40.825305" lon="-1.951863">
        <ele>1056.008</ele>
        <time>1999-11-30T00:00:00Z</time>
      </trkpt>
      <trkpt lat="40.825505" lon="-1.952223">
        <ele>1054.015</ele>
        <time>1999-11-30T00:00:00Z</time>
      </trkpt>
      <trkpt lat="40.825622" lon="-1.952554">
        <ele>1053.029</ele>
        <time>1999-11-30T00:00:00Z</time>
      </trkpt>
      <trkpt lat="40.825743" lon="-1.952999">
        <ele>1050.090</ele>
        <time>1999-11-30T00:00:00Z</time>
      </trkpt>
      <trkpt lat="40.826007" lon="-1.953889">
        <ele>1047.054</ele>
        <time>1999-11-30T00:00:00Z</time>
      </trkpt>
      <trkpt lat="40.826242" lon="-1.95475">
        <ele>1045.059</ele>
        <time>1999-11-30T00:00:00Z</time>
      </trkpt>
      <trkpt lat="40.8265" lon="-1.955599">
        <ele>1044.018</ele>
        <time>1999-11-30T00:00:00Z</time>
      </trkpt>
      <trkpt lat="40.826621" lon="-1.956195">
        <ele>1042.079</ele>
        <time>1999-11-30T00:00:00Z</time>
      </trkpt>
      <trkpt lat="40.8267" lon="-1.95666">
        <ele>1041.097</ele>
        <time>1999-11-30T00:00:00Z</time>
      </trkpt>
      <trkpt lat="40.826723" lon="-1.957094">
        <ele>1040.033</ele>
        <time>1999-11-30T00:00:00Z</time>
      </trkpt>
      <trkpt lat="40.826689" lon="-1.957564">
        <ele>1039.023</ele>
        <time>1999-11-30T00:00:00Z</time>
      </trkpt>
      <trkpt lat="40.826655" lon="-1.957942">
        <ele>1039.015</ele>
        <time>1999-11-30T00:00:00Z</time>
      </trkpt>
      <trkpt lat="40.82676" lon="-1.958401">
        <ele>1038.008</ele>
        <time>1999-11-30T00:00:00Z</time>
      </trkpt>
      <trkpt lat="40.82688" lon="-1.958867">
        <ele>1038.064</ele>
        <time>1999-11-30T00:00:00Z</time>
      </trkpt>
      <trkpt lat="40.827045" lon="-1.959652">
        <ele>1037.078</ele>
        <time>1999-11-30T00:00:00Z</time>
      </trkpt>
      <trkpt lat="40.827086" lon="-1.95992">
        <ele>1037.099</ele>
        <time>1999-11-30T00:00:00Z</time>
      </trkpt>
      <trkpt lat="40.827088" lon="-1.960121">
        <ele>1038.053</ele>
        <time>1999-11-30T00:00:00Z</time>
      </trkpt>
      <trkpt lat="40.827052" lon="-1.960432">
        <ele>1038.028</ele>
        <time>1999-11-30T00:00:00Z</time>
      </trkpt>
      <trkpt lat="40.826931" lon="-1.961095">
        <ele>1036.057</ele>
        <time>1999-11-30T00:00:00Z</time>
      </trkpt>
      <trkpt lat="40.826767" lon="-1.961927">
        <ele>1033.098</ele>
        <time>1999-11-30T00:00:00Z</time>
      </trkpt>
      <trkpt lat="40.826645" lon="-1.962583">
        <ele>1032.066</ele>
        <time>1999-11-30T00:00:00Z</time>
      </trkpt>
      <trkpt lat="40.826451" lon="-1.963608">
        <ele>1030.037</ele>
        <time>1999-11-30T00:00:00Z</time>
      </trkpt>
      <trkpt lat="40.826325" lon="-1.964405">
        <ele>1028.049</ele>
        <time>1999-11-30T00:00:00Z</time>
      </trkpt>
      <trkpt lat="40.826255" lon="-1.964789">
        <ele>1027.013</ele>
        <time>1999-11-30T00:00:00Z</time>
      </trkpt>
      <trkpt lat="40.826146" lon="-1.965095">
        <ele>1027.008</ele>
        <time>1999-11-30T00:00:00Z</time>
      </trkpt>
      <trkpt lat="40.825828" lon="-1.965753">
        <ele>1028.064</ele>
        <time>1999-11-30T00:00:00Z</time>
      </trkpt>
      <trkpt lat="40.82569" lon="-1.965989">
        <ele>1028.038</ele>
        <time>1999-11-30T00:00:00Z</time>
      </trkpt>
      <trkpt lat="40.825578" lon="-1.966217">
        <ele>1029.099</ele>
        <time>1999-11-30T00:00:00Z</time>
      </trkpt>
      <trkpt lat="40.825471" lon="-1.96642">
        <ele>1029.033</ele>
        <time>1999-11-30T00:00:00Z</time>
      </trkpt>
      <trkpt lat="40.825232" lon="-1.96675">
        <ele>1031.068</ele>
        <time>1999-11-30T00:00:00Z</time>
      </trkpt>
      <trkpt lat="40.825139" lon="-1.966589">
        <ele>1031.027</ele>
        <time>1999-11-30T00:00:00Z</time>
      </trkpt>
      <trkpt lat="40.825066" lon="-1.966345">
        <ele>1031.028</ele>
        <time>1999-11-30T00:00:00Z</time>
      </trkpt>
      <trkpt lat="40.824909" lon="-1.966169">
        <ele>1032.086</ele>
        <time>1999-11-30T00:00:00Z</time>
      </trkpt>
      <trkpt lat="40.824655" lon="-1.965934">
        <ele>1033.027</ele>
        <time>1999-11-30T00:00:00Z</time>
      </trkpt>
      <trkpt lat="40.824513" lon="-1.965685">
        <ele>1034.068</ele>
        <time>1999-11-30T00:00:00Z</time>
      </trkpt>
      <trkpt lat="40.824484" lon="-1.965341">
        <ele>1035.014</ele>
        <time>1999-11-30T00:00:00Z</time>
      </trkpt>
      <trkpt lat="40.824532" lon="-1.965135">
        <ele>1035.008</ele>
        <time>1999-11-30T00:00:00Z</time>
      </trkpt>
      <trkpt lat="40.824712" lon="-1.964934">
        <ele>1037.073</ele>
        <time>1999-11-30T00:00:00Z</time>
      </trkpt>
      <trkpt lat="40.82485" lon="-1.964687">
        <ele>1038.027</ele>
        <time>1999-11-30T00:00:00Z</time>
      </trkpt>
      <trkpt lat="40.824949" lon="-1.964494">
        <ele>1040.098</ele>
        <time>1999-11-30T00:00:00Z</time>
      </trkpt>
      <trkpt lat="40.824932" lon="-1.964288">
        <ele>1041.012</ele>
        <time>1999-11-30T00:00:00Z</time>
      </trkpt>
      <trkpt lat="40.824799" lon="-1.963946">
        <ele>1042.037</ele>
        <time>1999-11-30T00:00:00Z</time>
      </trkpt>
      <trkpt lat="40.824538" lon="-1.963435">
        <ele>1045.026</ele>
        <time>1999-11-30T00:00:00Z</time>
      </trkpt>
      <trkpt lat="40.824364" lon="-1.963139">
        <ele>1047.037</ele>
        <time>1999-11-30T00:00:00Z</time>
      </trkpt>
      <trkpt lat="40.824157" lon="-1.963004">
        <ele>1049.085</ele>
        <time>1999-11-30T00:00:00Z</time>
      </trkpt>
      <trkpt lat="40.82386" lon="-1.962982">
        <ele>1051.059</ele>
        <time>1999-11-30T00:00:00Z</time>
      </trkpt>
      <trkpt lat="40.823628" lon="-1.962939">
        <ele>1052.003</ele>
        <time>1999-11-30T00:00:00Z</time>
      </trkpt>
      <trkpt lat="40.823532" lon="-1.962841">
        <ele>1052.023</ele>
        <time>1999-11-30T00:00:00Z</time>
      </trkpt>
      <trkpt lat="40.823515" lon="-1.962614">
        <ele>1053.008</ele>
        <time>1999-11-30T00:00:00Z</time>
      </trkpt>
      <trkpt lat="40.823496" lon="-1.962209">
        <ele>1054.066</ele>
        <time>1999-11-30T00:00:00Z</time>
      </trkpt>
      <trkpt lat="40.82346" lon="-1.962056">
        <ele>1054.010</ele>
        <time>1999-11-30T00:00:00Z</time>
      </trkpt>
      <trkpt lat="40.823405" lon="-1.962015">
        <ele>1055.031</ele>
        <time>1999-11-30T00:00:00Z</time>
      </trkpt>
      <trkpt lat="40.823292" lon="-1.962027">
        <ele>1056.015</ele>
        <time>1999-11-30T00:00:00Z</time>
      </trkpt>
      <trkpt lat="40.823168" lon="-1.962086">
        <ele>1058.090</ele>
        <time>1999-11-30T00:00:00Z</time>
      </trkpt>
      <trkpt lat="40.822728" lon="-1.962278">
        <ele>1060.059</ele>
        <time>1999-11-30T00:00:00Z</time>
      </trkpt>
      <trkpt lat="40.822312" lon="-1.962464">
        <ele>1060.080</ele>
        <time>1999-11-30T00:00:00Z</time>
      </trkpt>
      <trkpt lat="40.822035" lon="-1.96252">
        <ele>1061.098</ele>
        <time>1999-11-30T00:00:00Z</time>
      </trkpt>
      <trkpt lat="40.821791" lon="-1.962581">
        <ele>1062.074</ele>
        <time>1999-11-30T00:00:00Z</time>
      </trkpt>
      <trkpt lat="40.821593" lon="-1.962648">
        <ele>1065.056</ele>
        <time>1999-11-30T00:00:00Z</time>
      </trkpt>
      <trkpt lat="40.821471" lon="-1.96274">
        <ele>1066.021</ele>
        <time>1999-11-30T00:00:00Z</time>
      </trkpt>
      <trkpt lat="40.821376" lon="-1.962895">
        <ele>1068.008</ele>
        <time>1999-11-30T00:00:00Z</time>
      </trkpt>
      <trkpt lat="40.82127" lon="-1.963095">
        <ele>1070.088</ele>
        <time>1999-11-30T00:00:00Z</time>
      </trkpt>
      <trkpt lat="40.821102" lon="-1.963316">
        <ele>1070.022</ele>
        <time>1999-11-30T00:00:00Z</time>
      </trkpt>
      <trkpt lat="40.820594" lon="-1.963728">
        <ele>1072.083</ele>
        <time>1999-11-30T00:00:00Z</time>
      </trkpt>
      <trkpt lat="40.820163" lon="-1.964004">
        <ele>1080.087</ele>
        <time>1999-11-30T00:00:00Z</time>
      </trkpt>
      <trkpt lat="40.819989" lon="-1.964115">
        <ele>1082.012</ele>
        <time>1999-11-30T00:00:00Z</time>
      </trkpt>
      <trkpt lat="40.819853" lon="-1.964143">
        <ele>1082.091</ele>
        <time>1999-11-30T00:00:00Z</time>
      </trkpt>
      <trkpt lat="40.819711" lon="-1.964043">
        <ele>1081.042</ele>
        <time>1999-11-30T00:00:00Z</time>
      </trkpt>
      <trkpt lat="40.819685" lon="-1.96387">
        <ele>1082.010</ele>
        <time>1999-11-30T00:00:00Z</time>
      </trkpt>
      <trkpt lat="40.819702" lon="-1.963582">
        <ele>1083.046</ele>
        <time>1999-11-30T00:00:00Z</time>
      </trkpt>
      <trkpt lat="40.819601" lon="-1.963173">
        <ele>1086.088</ele>
        <time>1999-11-30T00:00:00Z</time>
      </trkpt>
      <trkpt lat="40.819453" lon="-1.962938">
        <ele>1089.016</ele>
        <time>1999-11-30T00:00:00Z</time>
      </trkpt>
      <trkpt lat="40.819216" lon="-1.962615">
        <ele>1092.008</ele>
        <time>1999-11-30T00:00:00Z</time>
      </trkpt>
      <trkpt lat="40.818994" lon="-1.962323">
        <ele>1092.045</ele>
        <time>1999-11-30T00:00:00Z</time>
      </trkpt>
      <trkpt lat="40.818876" lon="-1.962184">
        <ele>1092.099</ele>
        <time>1999-11-30T00:00:00Z</time>
      </trkpt>
      <trkpt lat="40.818783" lon="-1.962179">
        <ele>1094.070</ele>
        <time>1999-11-30T00:00:00Z</time>
      </trkpt>
      <trkpt lat="40.818736" lon="-1.962251">
        <ele>1095.064</ele>
        <time>1999-11-30T00:00:00Z</time>
      </trkpt>
      <trkpt lat="40.818761" lon="-1.962378">
        <ele>1097.049</ele>
        <time>1999-11-30T00:00:00Z</time>
      </trkpt>
      <trkpt lat="40.81886" lon="-1.962562">
        <ele>1099.078</ele>
        <time>1999-11-30T00:00:00Z</time>
      </trkpt>
      <trkpt lat="40.81895" lon="-1.962766">
        <ele>1099.099</ele>
        <time>1999-11-30T00:00:00Z</time>
      </trkpt>
      <trkpt lat="40.819005" lon="-1.962932">
        <ele>1099.057</ele>
        <time>1999-11-30T00:00:00Z</time>
      </trkpt>
      <trkpt lat="40.819011" lon="-1.963111">
        <ele>1100.046</ele>
        <time>1999-11-30T00:00:00Z</time>
      </trkpt>
      <trkpt lat="40.818904" lon="-1.96367">
        <ele>1103.088</ele>
        <time>1999-11-30T00:00:00Z</time>
      </trkpt>
      <trkpt lat="40.818859" lon="-1.964107">
        <ele>1104.016</ele>
        <time>1999-11-30T00:00:00Z</time>
      </trkpt>
      <trkpt lat="40.818788" lon="-1.964307">
        <ele>1105.008</ele>
        <time>1999-11-30T00:00:00Z</time>
      </trkpt>
      <trkpt lat="40.81863" lon="-1.964547">
        <ele>1107.055</ele>
        <time>1999-11-30T00:00:00Z</time>
      </trkpt>
      <trkpt lat="40.818422" lon="-1.96471">
        <ele>1109.049</ele>
        <time>1999-11-30T00:00:00Z</time>
      </trkpt>
      <trkpt lat="40.818155" lon="-1.964816">
        <ele>1111.020</ele>
        <time>1999-11-30T00:00:00Z</time>
      </trkpt>
      <trkpt lat="40.817883" lon="-1.964937">
        <ele>1113.064</ele>
        <time>1999-11-30T00:00:00Z</time>
      </trkpt>
      <trkpt lat="40.817636" lon="-1.96503">
        <ele>1113.079</ele>
        <time>1999-11-30T00:00:00Z</time>
      </trkpt>
      <trkpt lat="40.817456" lon="-1.965007">
        <ele>1116.078</ele>
        <time>1999-11-30T00:00:00Z</time>
      </trkpt>
      <trkpt lat="40.817135" lon="-1.965083">
        <ele>1120.039</ele>
        <time>1999-11-30T00:00:00Z</time>
      </trkpt>
      <trkpt lat="40.816907" lon="-1.965169">
        <ele>1121.017</ele>
        <time>1999-11-30T00:00:00Z</time>
      </trkpt>
      <trkpt lat="40.816727" lon="-1.965268">
        <ele>1120.072</ele>
        <time>1999-11-30T00:00:00Z</time>
      </trkpt>
      <trkpt lat="40.81669" lon="-1.965378">
        <ele>1121.013</ele>
        <time>1999-11-30T00:00:00Z</time>
      </trkpt>
      <trkpt lat="40.81673" lon="-1.965582">
        <ele>1123.014</ele>
        <time>1999-11-30T00:00:00Z</time>
      </trkpt>
      <trkpt lat="40.816849" lon="-1.965728">
        <ele>1123.008</ele>
        <time>1999-11-30T00:00:00Z</time>
      </trkpt>
      <trkpt lat="40.816932" lon="-1.965874">
        <ele>1123.098</ele>
        <time>1999-11-30T00:00:00Z</time>
      </trkpt>
      <trkpt lat="40.816963" lon="-1.966015">
        <ele>1123.032</ele>
        <time>1999-11-30T00:00:00Z</time>
      </trkpt>
      <trkpt lat="40.816941" lon="-1.966246">
        <ele>1124.063</ele>
        <time>1999-11-30T00:00:00Z</time>
      </trkpt>
      <trkpt lat="40.816962" lon="-1.966489">
        <ele>1125.017</ele>
        <time>1999-11-30T00:00:00Z</time>
      </trkpt>
      <trkpt lat="40.817018" lon="-1.96668">
        <ele>1128.022</ele>
        <time>1999-11-30T00:00:00Z</time>
      </trkpt>
      <trkpt lat="40.817097" lon="-1.96682">
        <ele>1129.071</ele>
        <time>1999-11-30T00:00:00Z</time>
      </trkpt>
      <trkpt lat="40.817215" lon="-1.966959">
        <ele>1129.012</ele>
        <time>1999-11-30T00:00:00Z</time>
      </trkpt>
      <trkpt lat="40.81727" lon="-1.967157">
        <ele>1130.040</ele>
        <time>1999-11-30T00:00:00Z</time>
      </trkpt>
      <trkpt lat="40.817268" lon="-1.967452">
        <ele>1131.077</ele>
        <time>1999-11-30T00:00:00Z</time>
      </trkpt>
      <trkpt lat="40.817319" lon="-1.967675">
        <ele>1132.061</ele>
        <time>1999-11-30T00:00:00Z</time>
      </trkpt>
      <trkpt lat="40.817482" lon="-1.967974">
        <ele>1134.027</ele>
        <time>1999-11-30T00:00:00Z</time>
      </trkpt>
      <trkpt lat="40.817625" lon="-1.968222">
        <ele>1136.008</ele>
        <time>1999-11-30T00:00:00Z</time>
      </trkpt>
      <trkpt lat="40.8177" lon="-1.968438">
        <ele>1137.018</ele>
        <time>1999-11-30T00:00:00Z</time>
      </trkpt>
      <trkpt lat="40.817737" lon="-1.968733">
        <ele>1140.012</ele>
        <time>1999-11-30T00:00:00Z</time>
      </trkpt>
      <trkpt lat="40.817896" lon="-1.969063">
        <ele>1141.053</ele>
        <time>1999-11-30T00:00:00Z</time>
      </trkpt>
      <trkpt lat="40.818149" lon="-1.969553">
        <ele>1143.017</ele>
        <time>1999-11-30T00:00:00Z</time>
      </trkpt>
      <trkpt lat="40.818338" lon="-1.970012">
        <ele>1148.032</ele>
        <time>1999-11-30T00:00:00Z</time>
      </trkpt>
      <trkpt lat="40.818557" lon="-1.970534">
        <ele>1150.061</ele>
        <time>1999-11-30T00:00:00Z</time>
      </trkpt>
      <trkpt lat="40.818637" lon="-1.97084">
        <ele>1150.032</ele>
        <time>1999-11-30T00:00:00Z</time>
      </trkpt>
      <trkpt lat="40.818625" lon="-1.971058">
        <ele>1150.070</ele>
        <time>1999-11-30T00:00:00Z</time>
      </trkpt>
      <trkpt lat="40.818587" lon="-1.971206">
        <ele>1151.046</ele>
        <time>1999-11-30T00:00:00Z</time>
      </trkpt>
      <trkpt lat="40.818451" lon="-1.971304">
        <ele>1153.088</ele>
        <time>1999-11-30T00:00:00Z</time>
      </trkpt>
      <trkpt lat="40.818252" lon="-1.971321">
        <ele>1153.016</ele>
        <time>1999-11-30T00:00:00Z</time>
      </trkpt>
      <trkpt lat="40.817949" lon="-1.97121">
        <ele>1154.008</ele>
        <time>1999-11-30T00:00:00Z</time>
      </trkpt>
      <trkpt lat="40.817571" lon="-1.97087">
        <ele>1160.085</ele>
        <time>1999-11-30T00:00:00Z</time>
      </trkpt>
      <trkpt lat="40.817357" lon="-1.970822">
        <ele>1165.039</ele>
        <time>1999-11-30T00:00:00Z</time>
      </trkpt>
      <trkpt lat="40.817294" lon="-1.970899">
        <ele>1164.010</ele>
        <time>1999-11-30T00:00:00Z</time>
      </trkpt>
      <trkpt lat="40.817315" lon="-1.971085">
        <ele>1161.084</ele>
        <time>1999-11-30T00:00:00Z</time>
      </trkpt>
      <trkpt lat="40.817312" lon="-1.971284">
        <ele>1159.099</ele>
        <time>1999-11-30T00:00:00Z</time>
      </trkpt>
      <trkpt lat="40.817235" lon="-1.971407">
        <ele>1161.028</ele>
        <time>1999-11-30T00:00:00Z</time>
      </trkpt>
      <trkpt lat="40.81709" lon="-1.971499">
        <ele>1163.039</ele>
        <time>1999-11-30T00:00:00Z</time>
      </trkpt>
      <trkpt lat="40.81692" lon="-1.97155">
        <ele>1166.047</ele>
        <time>1999-11-30T00:00:00Z</time>
      </trkpt>
      <trkpt lat="40.816761" lon="-1.971608">
        <ele>1167.083</ele>
        <time>1999-11-30T00:00:00Z</time>
      </trkpt>
      <trkpt lat="40.816624" lon="-1.971651">
        <ele>1168.025</ele>
        <time>1999-11-30T00:00:00Z</time>
      </trkpt>
      <trkpt lat="40.81659" lon="-1.971739">
        <ele>1167.017</ele>
        <time>1999-11-30T00:00:00Z</time>
      </trkpt>
      <trkpt lat="40.8166" lon="-1.971877">
        <ele>1166.008</ele>
        <time>1999-11-30T00:00:00Z</time>
      </trkpt>
      <trkpt lat="40.816675" lon="-1.972101">
        <ele>1164.089</ele>
        <time>1999-11-30T00:00:00Z</time>
      </trkpt>
      <trkpt lat="40.816778" lon="-1.97232">
        <ele>1165.063</ele>
        <time>1999-11-30T00:00:00Z</time>
      </trkpt>
      <trkpt lat="40.816811" lon="-1.972458">
        <ele>1166.014</ele>
        <time>1999-11-30T00:00:00Z</time>
      </trkpt>
      <trkpt lat="40.816785" lon="-1.972602">
        <ele>1168.068</ele>
        <time>1999-11-30T00:00:00Z</time>
      </trkpt>
      <trkpt lat="40.816715" lon="-1.97267">
        <ele>1169.073</ele>
        <time>1999-11-30T00:00:00Z</time>
      </trkpt>
      <trkpt lat="40.816642" lon="-1.972763">
        <ele>1170.012</ele>
        <time>1999-11-30T00:00:00Z</time>
      </trkpt>
      <trkpt lat="40.816571" lon="-1.97287">
        <ele>1170.063</ele>
        <time>1999-11-30T00:00:00Z</time>
      </trkpt>
      <trkpt lat="40.816477" lon="-1.972869">
        <ele>1171.061</ele>
        <time>1999-11-30T00:00:00Z</time>
      </trkpt>
      <trkpt lat="40.816419" lon="-1.972883">
        <ele>1172.087</ele>
        <time>1999-11-30T00:00:00Z</time>
      </trkpt>
      <trkpt lat="40.816362" lon="-1.972903">
        <ele>1172.042</ele>
        <time>1999-11-30T00:00:00Z</time>
      </trkpt>
      <trkpt lat="40.816303" lon="-1.972928">
        <ele>1173.026</ele>
        <time>1999-11-30T00:00:00Z</time>
      </trkpt>
      <trkpt lat="40.816252" lon="-1.972967">
        <ele>1173.008</ele>
        <time>1999-11-30T00:00:00Z</time>
      </trkpt>
      <trkpt lat="40.816191" lon="-1.973041">
        <ele>1174.059</ele>
        <time>1999-11-30T00:00:00Z</time>
      </trkpt>
      <trkpt lat="40.816107" lon="-1.973213">
        <ele>1175.093</ele>
        <time>1999-11-30T00:00:00Z</time>
      </trkpt>
      <trkpt lat="40.816033" lon="-1.973411">
        <ele>1175.054</ele>
        <time>1999-11-30T00:00:00Z</time>
      </trkpt>
      <trkpt lat="40.815959" lon="-1.973561">
        <ele>1176.078</ele>
        <time>1999-11-30T00:00:00Z</time>
      </trkpt>
      <trkpt lat="40.81589" lon="-1.973566">
        <ele>1176.093</ele>
        <time>1999-11-30T00:00:00Z</time>
      </trkpt>
      <trkpt lat="40.815396" lon="-1.973142">
        <ele>1178.072</ele>
        <time>1999-11-30T00:00:00Z</time>
      </trkpt>
      <trkpt lat="40.814426" lon="-1.972366">
        <ele>1179.033</ele>
        <time>1999-11-30T00:00:00Z</time>
      </trkpt>
      <trkpt lat="40.81387" lon="-1.971961">
        <ele>1183.061</ele>
        <time>1999-11-30T00:00:00Z</time>
      </trkpt>
      <trkpt lat="40.81352" lon="-1.971819">
        <ele>1185.079</ele>
        <time>1999-11-30T00:00:00Z</time>
      </trkpt>
      <trkpt lat="40.813129" lon="-1.97154">
        <ele>1185.005</ele>
        <time>1999-11-30T00:00:00Z</time>
      </trkpt>
      <trkpt lat="40.812768" lon="-1.971322">
        <ele>1184.025</ele>
        <time>1999-11-30T00:00:00Z</time>
      </trkpt>
      <trkpt lat="40.812519" lon="-1.971042">
        <ele>1183.008</ele>
        <time>1999-11-30T00:00:00Z</time>
      </trkpt>
      <trkpt lat="40.812259" lon="-1.97083">
        <ele>1181.048</ele>
        <time>1999-11-30T00:00:00Z</time>
      </trkpt>
      <trkpt lat="40.812037" lon="-1.970626">
        <ele>1179.082</ele>
        <time>1999-11-30T00:00:00Z</time>
      </trkpt>
      <trkpt lat="40.811234" lon="-1.969818">
        <ele>1174.013</ele>
        <time>1999-11-30T00:00:00Z</time>
      </trkpt>
      <trkpt lat="40.810692" lon="-1.969326">
        <ele>1169.097</ele>
        <time>1999-11-30T00:00:00Z</time>
      </trkpt>
      <trkpt lat="40.809919" lon="-1.968652">
        <ele>1167.042</ele>
        <time>1999-11-30T00:00:00Z</time>
      </trkpt>
      <trkpt lat="40.809348" lon="-1.968191">
        <ele>1165.071</ele>
        <time>1999-11-30T00:00:00Z</time>
      </trkpt>
      <trkpt lat="40.808932" lon="-1.967786">
        <ele>1161.062</ele>
        <time>1999-11-30T00:00:00Z</time>
      </trkpt>
      <trkpt lat="40.80863" lon="-1.967505">
        <ele>1161.070</ele>
        <time>1999-11-30T00:00:00Z</time>
      </trkpt>
      <trkpt lat="40.807966" lon="-1.966954">
        <ele>1163.059</ele>
        <time>1999-11-30T00:00:00Z</time>
      </trkpt>
      <trkpt lat="40.807484" lon="-1.96644">
        <ele>1160.003</ele>
        <time>1999-11-30T00:00:00Z</time>
      </trkpt>
      <trkpt lat="40.807092" lon="-1.965968">
        <ele>1154.023</ele>
        <time>1999-11-30T00:00:00Z</time>
      </trkpt>
      <trkpt lat="40.806545" lon="-1.965213">
        <ele>1155.008</ele>
        <time>1999-11-30T00:00:00Z</time>
      </trkpt>
      <trkpt lat="40.805927" lon="-1.964416">
        <ele>1152.026</ele>
        <time>1999-11-30T00:00:00Z</time>
      </trkpt>
      <trkpt lat="40.80568" lon="-1.964119">
        <ele>1146.050</ele>
        <time>1999-11-30T00:00:00Z</time>
      </trkpt>
      <trkpt lat="40.805362" lon="-1.963933">
        <ele>1141.021</ele>
        <time>1999-11-30T00:00:00Z</time>
      </trkpt>
      <trkpt lat="40.80519" lon="-1.96377">
        <ele>1139.075</ele>
        <time>1999-11-30T00:00:00Z</time>
      </trkpt>
      <trkpt lat="40.804963" lon="-1.96353">
        <ele>1136.050</ele>
        <time>1999-11-30T00:00:00Z</time>
      </trkpt>
      <trkpt lat="40.804816" lon="-1.963513">
        <ele>1136.079</ele>
        <time>1999-11-30T00:00:00Z</time>
      </trkpt>
      <trkpt lat="40.804525" lon="-1.96336">
        <ele>1130.040</ele>
        <time>1999-11-30T00:00:00Z</time>
      </trkpt>
      <trkpt lat="40.804247" lon="-1.963284">
        <ele>1129.058</ele>
        <time>1999-11-30T00:00:00Z</time>
      </trkpt>
      <trkpt lat="40.804087" lon="-1.962977">
        <ele>1125.054</ele>
        <time>1999-11-30T00:00:00Z</time>
      </trkpt>
      <trkpt lat="40.803897" lon="-1.96266">
        <ele>1123.056</ele>
        <time>1999-11-30T00:00:00Z</time>
      </trkpt>
      <trkpt lat="40.803678" lon="-1.962356">
        <ele>1121.011</ele>
        <time>1999-11-30T00:00:00Z</time>
      </trkpt>
      <trkpt lat="40.803478" lon="-1.962067">
        <ele>1115.008</ele>
        <time>1999-11-30T00:00:00Z</time>
      </trkpt>
      <trkpt lat="40.803338" lon="-1.961853">
        <ele>1112.096</ele>
        <time>1999-11-30T00:00:00Z</time>
      </trkpt>
      <trkpt lat="40.803206" lon="-1.961733">
        <ele>1111.040</ele>
        <time>1999-11-30T00:00:00Z</time>
      </trkpt>
      <trkpt lat="40.803084" lon="-1.961669">
        <ele>1110.081</ele>
        <time>1999-11-30T00:00:00Z</time>
      </trkpt>
      <trkpt lat="40.802962" lon="-1.961691">
        <ele>1110.055</ele>
        <time>1999-11-30T00:00:00Z</time>
      </trkpt>
      <trkpt lat="40.802775" lon="-1.961724">
        <ele>1110.010</ele>
        <time>1999-11-30T00:00:00Z</time>
      </trkpt>
      <trkpt lat="40.80272" lon="-1.961674">
        <ele>1109.069</ele>
        <time>1999-11-30T00:00:00Z</time>
      </trkpt>
      <trkpt lat="40.802733" lon="-1.961583">
        <ele>1108.080</ele>
        <time>1999-11-30T00:00:00Z</time>
      </trkpt>
      <trkpt lat="40.80287" lon="-1.961509">
        <ele>1108.048</ele>
        <time>1999-11-30T00:00:00Z</time>
      </trkpt>
      <trkpt lat="40.802993" lon="-1.961409">
        <ele>1108.043</ele>
        <time>1999-11-30T00:00:00Z</time>
      </trkpt>
      <trkpt lat="40.803068" lon="-1.961266">
        <ele>1107.064</ele>
        <time>1999-11-30T00:00:00Z</time>
      </trkpt>
      <trkpt lat="40.80316" lon="-1.961192">
        <ele>1107.010</ele>
        <time>1999-11-30T00:00:00Z</time>
      </trkpt>
      <trkpt lat="40.803337" lon="-1.961143">
        <ele>1108.008</ele>
        <time>1999-11-30T00:00:00Z</time>
      </trkpt>
      <trkpt lat="40.803725" lon="-1.961013">
        <ele>1108.055</ele>
        <time>1999-11-30T00:00:00Z</time>
      </trkpt>
      <trkpt lat="40.804023" lon="-1.960768">
        <ele>1106.079</ele>
        <time>1999-11-30T00:00:00Z</time>
      </trkpt>
      <trkpt lat="40.804214" lon="-1.960608">
        <ele>1103.010</ele>
        <time>1999-11-30T00:00:00Z</time>
      </trkpt>
      <trkpt lat="40.804608" lon="-1.960342">
        <ele>1102.084</ele>
        <time>1999-11-30T00:00:00Z</time>
      </trkpt>
      <trkpt lat="40.805163" lon="-1.959845">
        <ele>1100.019</ele>
        <time>1999-11-30T00:00:00Z</time>
      </trkpt>
      <trkpt lat="40.805659" lon="-1.959406">
        <ele>1100.028</ele>
        <time>1999-11-30T00:00:00Z</time>
      </trkpt>
      <trkpt lat="40.80613" lon="-1.958924">
        <ele>1101.039</ele>
        <time>1999-11-30T00:00:00Z</time>
      </trkpt>
      <trkpt lat="40.806399" lon="-1.958587">
        <ele>1100.097</ele>
        <time>1999-11-30T00:00:00Z</time>
      </trkpt>
      <trkpt lat="40.806571" lon="-1.958383">
        <ele>1100.099</ele>
        <time>1999-11-30T00:00:00Z</time>
      </trkpt>
      <trkpt lat="40.806662" lon="-1.958029">
        <ele>1098.007</ele>
        <time>1999-11-30T00:00:00Z</time>
      </trkpt>
      <trkpt lat="40.806767" lon="-1.957683">
        <ele>1095.027</ele>
        <time>1999-11-30T00:00:00Z</time>
      </trkpt>
      <trkpt lat="40.806773" lon="-1.957439">
        <ele>1093.008</ele>
        <time>1999-11-30T00:00:00Z</time>
      </trkpt>
      <trkpt lat="40.806684" lon="-1.957039">
        <ele>1090.050</ele>
        <time>1999-11-30T00:00:00Z</time>
      </trkpt>
      <trkpt lat="40.806587" lon="-1.95661">
        <ele>1090.054</ele>
        <time>1999-11-30T00:00:00Z</time>
      </trkpt>
      <trkpt lat="40.806583" lon="-1.956363">
        <ele>1090.055</ele>
        <time>1999-11-30T00:00:00Z</time>
      </trkpt>
      <trkpt lat="40.806632" lon="-1.956182">
        <ele>1090.049</ele>
        <time>1999-11-30T00:00:00Z</time>
      </trkpt>
      <trkpt lat="40.806697" lon="-1.955999">
        <ele>1092.094</ele>
        <time>1999-11-30T00:00:00Z</time>
      </trkpt>
      <trkpt lat="40.806809" lon="-1.955795">
        <ele>1092.073</ele>
        <time>1999-11-30T00:00:00Z</time>
      </trkpt>
      <trkpt lat="40.806879" lon="-1.95568">
        <ele>1090.034</ele>
        <time>1999-11-30T00:00:00Z</time>
      </trkpt>
      <trkpt lat="40.806897" lon="-1.955565">
        <ele>1090.042</ele>
        <time>1999-11-30T00:00:00Z</time>
      </trkpt>
      <trkpt lat="40.806833" lon="-1.95538">
        <ele>1091.099</ele>
        <time>1999-11-30T00:00:00Z</time>
      </trkpt>
      <trkpt lat="40.806669" lon="-1.95513">
        <ele>1094.007</ele>
        <time>1999-11-30T00:00:00Z</time>
      </trkpt>
      <trkpt lat="40.806456" lon="-1.954654">
        <ele>1095.027</ele>
        <time>1999-11-30T00:00:00Z</time>
      </trkpt>
      <trkpt lat="40.806337" lon="-1.954225">
        <ele>1096.008</ele>
        <time>1999-11-30T00:00:00Z</time>
      </trkpt>
      <trkpt lat="40.80628" lon="-1.953955">
        <ele>1098.070</ele>
        <time>1999-11-30T00:00:00Z</time>
      </trkpt>
      <trkpt lat="40.8062" lon="-1.953727">
        <ele>1099.074</ele>
        <time>1999-11-30T00:00:00Z</time>
      </trkpt>
      <trkpt lat="40.805952" lon="-1.953416">
        <ele>1100.035</ele>
        <time>1999-11-30T00:00:00Z</time>
      </trkpt>
      <trkpt lat="40.805789" lon="-1.953283">
        <ele>1102.049</ele>
        <time>1999-11-30T00:00:00Z</time>
      </trkpt>
      <trkpt lat="40.805692" lon="-1.953053">
        <ele>1103.054</ele>
        <time>1999-11-30T00:00:00Z</time>
      </trkpt>
      <trkpt lat="40.805432" lon="-1.952399">
        <ele>1102.043</ele>
        <time>1999-11-30T00:00:00Z</time>
      </trkpt>
      <trkpt lat="40.805304" lon="-1.952122">
        <ele>1099.034</ele>
        <time>1999-11-30T00:00:00Z</time>
      </trkpt>
      <trkpt lat="40.805129" lon="-1.951834">
        <ele>1095.062</ele>
        <time>1999-11-30T00:00:00Z</time>
      </trkpt>
      <trkpt lat="40.805087" lon="-1.951594">
        <ele>1092.046</ele>
        <time>1999-11-30T00:00:00Z</time>
      </trkpt>
      <trkpt lat="40.805143" lon="-1.951316">
        <ele>1090.088</ele>
        <time>1999-11-30T00:00:00Z</time>
      </trkpt>
      <trkpt lat="40.805244" lon="-1.951085">
        <ele>1089.016</ele>
        <time>1999-11-30T00:00:00Z</time>
      </trkpt>
      <trkpt lat="40.805258" lon="-1.950929">
        <ele>1088.008</ele>
        <time>1999-11-30T00:00:00Z</time>
      </trkpt>
      <trkpt lat="40.805233" lon="-1.950567">
        <ele>1082.095</ele>
        <time>1999-11-30T00:00:00Z</time>
      </trkpt>
      <trkpt lat="40.80528" lon="-1.950337">
        <ele>1081.019</ele>
        <time>1999-11-30T00:00:00Z</time>
      </trkpt>
      <trkpt lat="40.805383" lon="-1.949941">
        <ele>1080.060</ele>
        <time>1999-11-30T00:00:00Z</time>
      </trkpt>
      <trkpt lat="40.805447" lon="-1.949687">
        <ele>1080.054</ele>
        <time>1999-11-30T00:00:00Z</time>
      </trkpt>
      <trkpt lat="40.805463" lon="-1.949377">
        <ele>1079.079</ele>
        <time>1999-11-30T00:00:00Z</time>
      </trkpt>
      <trkpt lat="40.805443" lon="-1.948985">
        <ele>1080.078</ele>
        <time>1999-11-30T00:00:00Z</time>
      </trkpt>
      <trkpt lat="40.805352" lon="-1.948658">
        <ele>1086.099</ele>
        <time>1999-11-30T00:00:00Z</time>
      </trkpt>
      <trkpt lat="40.805265" lon="-1.948372">
        <ele>1089.027</ele>
        <time>1999-11-30T00:00:00Z</time>
      </trkpt>
      <trkpt lat="40.805218" lon="-1.948068">
        <ele>1090.087</ele>
        <time>1999-11-30T00:00:00Z</time>
      </trkpt>
      <trkpt lat="40.805119" lon="-1.947785">
        <ele>1091.042</ele>
        <time>1999-11-30T00:00:00Z</time>
      </trkpt>
      <trkpt lat="40.805011" lon="-1.94765">
        <ele>1092.026</ele>
        <time>1999-11-30T00:00:00Z</time>
      </trkpt>
      <trkpt lat="40.80497" lon="-1.947641">
        <ele>1093.008</ele>
        <time>1999-11-30T00:00:00Z</time>
      </trkpt>
      <trkpt lat="40.804892" lon="-1.947669">
        <ele>1094.049</ele>
        <time>1999-11-30T00:00:00Z</time>
      </trkpt>
      <trkpt lat="40.804833" lon="-1.94767">
        <ele>1094.083</ele>
        <time>1999-11-30T00:00:00Z</time>
      </trkpt>
      <trkpt lat="40.804679" lon="-1.947599">
        <ele>1097.044</ele>
        <time>1999-11-30T00:00:00Z</time>
      </trkpt>
      <trkpt lat="40.804561" lon="-1.94757">
        <ele>1098.038</ele>
        <time>1999-11-30T00:00:00Z</time>
      </trkpt>
      <trkpt lat="40.804293" lon="-1.947522">
        <ele>1099.093</ele>
        <time>1999-11-30T00:00:00Z</time>
      </trkpt>
      <trkpt lat="40.804008" lon="-1.947486">
        <ele>1101.082</ele>
        <time>1999-11-30T00:00:00Z</time>
      </trkpt>
      <trkpt lat="40.803724" lon="-1.947494">
        <ele>1104.063</ele>
        <time>1999-11-30T00:00:00Z</time>
      </trkpt>
      <trkpt lat="40.803539" lon="-1.947508">
        <ele>1107.061</ele>
        <time>1999-11-30T00:00:00Z</time>
      </trkpt>
      <trkpt lat="40.803405" lon="-1.947526">
        <ele>1107.051</ele>
        <time>1999-11-30T00:00:00Z</time>
      </trkpt>
      <trkpt lat="40.803306" lon="-1.947481">
        <ele>1108.001</ele>
        <time>1999-11-30T00:00:00Z</time>
      </trkpt>
      <trkpt lat="40.803194" lon="-1.947295">
        <ele>1112.011</ele>
        <time>1999-11-30T00:00:00Z</time>
      </trkpt>
      <trkpt lat="40.802903" lon="-1.946892">
        <ele>1114.008</ele>
        <time>1999-11-30T00:00:00Z</time>
      </trkpt>
      <trkpt lat="40.802761" lon="-1.946662">
        <ele>1116.096</ele>
        <time>1999-11-30T00:00:00Z</time>
      </trkpt>
      <trkpt lat="40.802644" lon="-1.946523">
        <ele>1119.090</ele>
        <time>1999-11-30T00:00:00Z</time>
      </trkpt>
      <trkpt lat="40.802519" lon="-1.946455">
        <ele>1120.091</ele>
        <time>1999-11-30T00:00:00Z</time>
      </trkpt>
      <trkpt lat="40.802314" lon="-1.946423">
        <ele>1124.095</ele>
        <time>1999-11-30T00:00:00Z</time>
      </trkpt>
      <trkpt lat="40.802154" lon="-1.94642">
        <ele>1124.040</ele>
        <time>1999-11-30T00:00:00Z</time>
      </trkpt>
      <trkpt lat="40.801978" lon="-1.946344">
        <ele>1126.079</ele>
        <time>1999-11-30T00:00:00Z</time>
      </trkpt>
      <trkpt lat="40.801762" lon="-1.9464">
        <ele>1125.090</ele>
        <time>1999-11-30T00:00:00Z</time>
      </trkpt>
      <trkpt lat="40.801577" lon="-1.946481">
        <ele>1127.068</ele>
        <time>1999-11-30T00:00:00Z</time>
      </trkpt>
      <trkpt lat="40.801427" lon="-1.946492">
        <ele>1129.036</ele>
        <time>1999-11-30T00:00:00Z</time>
      </trkpt>
      <trkpt lat="40.801351" lon="-1.946408">
        <ele>1129.017</ele>
        <time>1999-11-30T00:00:00Z</time>
      </trkpt>
      <trkpt lat="40.80127" lon="-1.946251">
        <ele>1127.018</ele>
        <time>1999-11-30T00:00:00Z</time>
      </trkpt>
      <trkpt lat="40.801212" lon="-1.946126">
        <ele>1126.008</ele>
        <time>1999-11-30T00:00:00Z</time>
      </trkpt>
      <trkpt lat="40.801156" lon="-1.9459">
        <ele>1123.064</ele>
        <time>1999-11-30T00:00:00Z</time>
      </trkpt>
      <trkpt lat="40.801131" lon="-1.945693">
        <ele>1121.038</ele>
        <time>1999-11-30T00:00:00Z</time>
      </trkpt>
      <trkpt lat="40.801179" lon="-1.94547">
        <ele>1120.069</ele>
        <time>1999-11-30T00:00:00Z</time>
      </trkpt>
      <trkpt lat="40.8013" lon="-1.945326">
        <ele>1120.063</ele>
        <time>1999-11-30T00:00:00Z</time>
      </trkpt>
      <trkpt lat="40.801628" lon="-1.945079">
        <ele>1119.038</ele>
        <time>1999-11-30T00:00:00Z</time>
      </trkpt>
      <trkpt lat="40.802033" lon="-1.944814">
        <ele>1113.017</ele>
        <time>1999-11-30T00:00:00Z</time>
      </trkpt>
      <trkpt lat="40.802155" lon="-1.944782">
        <ele>1113.088</ele>
        <time>1999-11-30T00:00:00Z</time>
      </trkpt>
      <trkpt lat="40.802336" lon="-1.944794">
        <ele>1112.056</ele>
        <time>1999-11-30T00:00:00Z</time>
      </trkpt>
      <trkpt lat="40.80269" lon="-1.944875">
        <ele>1109.073</ele>
        <time>1999-11-30T00:00:00Z</time>
      </trkpt>
      <trkpt lat="40.802882" lon="-1.944882">
        <ele>1107.085</ele>
        <time>1999-11-30T00:00:00Z</time>
      </trkpt>
      <trkpt lat="40.803074" lon="-1.944929">
        <ele>1106.013</ele>
        <time>1999-11-30T00:00:00Z</time>
      </trkpt>
      <trkpt lat="40.803344" lon="-1.945056">
        <ele>1107.008</ele>
        <time>1999-11-30T00:00:00Z</time>
      </trkpt>
      <trkpt lat="40.803549" lon="-1.94518">
        <ele>1106.068</ele>
        <time>1999-11-30T00:00:00Z</time>
      </trkpt>
      <trkpt lat="40.803807" lon="-1.945378">
        <ele>1104.052</ele>
        <time>1999-11-30T00:00:00Z</time>
      </trkpt>
      <trkpt lat="40.804061" lon="-1.945444">
        <ele>1101.043</ele>
        <time>1999-11-30T00:00:00Z</time>
      </trkpt>
      <trkpt lat="40.80423" lon="-1.945447">
        <ele>1100.027</ele>
        <time>1999-11-30T00:00:00Z</time>
      </trkpt>
      <trkpt lat="40.80441" lon="-1.945449">
        <ele>1100.062</ele>
        <time>1999-11-30T00:00:00Z</time>
      </trkpt>
      <trkpt lat="40.804507" lon="-1.945503">
        <ele>1100.091</ele>
        <time>1999-11-30T00:00:00Z</time>
      </trkpt>
      <trkpt lat="40.804596" lon="-1.945643">
        <ele>1100.062</ele>
        <time>1999-11-30T00:00:00Z</time>
      </trkpt>
      <trkpt lat="40.804682" lon="-1.945738">
        <ele>1099.070</ele>
        <time>1999-11-30T00:00:00Z</time>
      </trkpt>
      <trkpt lat="40.804751" lon="-1.945757">
        <ele>1099.049</ele>
        <time>1999-11-30T00:00:00Z</time>
      </trkpt>
      <trkpt lat="40.804797" lon="-1.945716">
        <ele>1098.002</ele>
        <time>1999-11-30T00:00:00Z</time>
      </trkpt>
      <trkpt lat="40.804823" lon="-1.945619">
        <ele>1098.022</ele>
        <time>1999-11-30T00:00:00Z</time>
      </trkpt>
      <trkpt lat="40.804764" lon="-1.945484">
        <ele>1098.008</ele>
        <time>1999-11-30T00:00:00Z</time>
      </trkpt>
      <trkpt lat="40.804663" lon="-1.945344">
        <ele>1098.065</ele>
        <time>1999-11-30T00:00:00Z</time>
      </trkpt>
      <trkpt lat="40.804577" lon="-1.945219">
        <ele>1098.029</ele>
        <time>1999-11-30T00:00:00Z</time>
      </trkpt>
      <trkpt lat="40.804461" lon="-1.945029">
        <ele>1097.020</ele>
        <time>1999-11-30T00:00:00Z</time>
      </trkpt>
      <trkpt lat="40.804093" lon="-1.944712">
        <ele>1094.034</ele>
        <time>1999-11-30T00:00:00Z</time>
      </trkpt>
      <trkpt lat="40.803686" lon="-1.944289">
        <ele>1091.029</ele>
        <time>1999-11-30T00:00:00Z</time>
      </trkpt>
      <trkpt lat="40.803523" lon="-1.944059">
        <ele>1090.048</ele>
        <time>1999-11-30T00:00:00Z</time>
      </trkpt>
      <trkpt lat="40.803491" lon="-1.943933">
        <ele>1090.099</ele>
        <time>1999-11-30T00:00:00Z</time>
      </trkpt>
      <trkpt lat="40.803512" lon="-1.94374">
        <ele>1090.037</ele>
        <time>1999-11-30T00:00:00Z</time>
      </trkpt>
      <trkpt lat="40.803606" lon="-1.943542">
        <ele>1090.057</ele>
        <time>1999-11-30T00:00:00Z</time>
      </trkpt>
      <trkpt lat="40.80359" lon="-1.943452">
        <ele>1091.000</ele>
        <time>1999-11-30T00:00:00Z</time>
      </trkpt>
      <trkpt lat="40.803447" lon="-1.943368">
        <ele>1094.020</ele>
        <time>1999-11-30T00:00:00Z</time>
      </trkpt>
      <trkpt lat="40.803158" lon="-1.943231">
        <ele>1098.008</ele>
        <time>1999-11-30T00:00:00Z</time>
      </trkpt>
      <trkpt lat="40.802677" lon="-1.943097">
        <ele>1102.076</ele>
        <time>1999-11-30T00:00:00Z</time>
      </trkpt>
      <trkpt lat="40.80175" lon="-1.94288">
        <ele>1102.030</ele>
        <time>1999-11-30T00:00:00Z</time>
      </trkpt>
      <trkpt lat="40.800923" lon="-1.942706">
        <ele>1110.041</ele>
        <time>1999-11-30T00:00:00Z</time>
      </trkpt>
      <trkpt lat="40.800531" lon="-1.942616">
        <ele>1112.035</ele>
        <time>1999-11-30T00:00:00Z</time>
      </trkpt>
      <trkpt lat="40.800354" lon="-1.942543">
        <ele>1114.050</ele>
        <time>1999-11-30T00:00:00Z</time>
      </trkpt>
      <trkpt lat="40.800187" lon="-1.942415">
        <ele>1115.079</ele>
        <time>1999-11-30T00:00:00Z</time>
      </trkpt>
      <trkpt lat="40.799769" lon="-1.942027">
        <ele>1119.060</ele>
        <time>1999-11-30T00:00:00Z</time>
      </trkpt>
      <trkpt lat="40.798725" lon="-1.941094">
        <ele>1129.068</ele>
        <time>1999-11-30T00:00:00Z</time>
      </trkpt>
      <trkpt lat="40.797726" lon="-1.940211">
        <ele>1136.025</ele>
        <time>1999-11-30T00:00:00Z</time>
      </trkpt>
      <trkpt lat="40.797479" lon="-1.940058">
        <ele>1136.026</ele>
        <time>1999-11-30T00:00:00Z</time>
      </trkpt>
      <trkpt lat="40.796843" lon="-1.939806">
        <ele>1131.008</ele>
        <time>1999-11-30T00:00:00Z</time>
      </trkpt>
      <trkpt lat="40.796173" lon="-1.939539">
        <ele>1121.008</ele>
        <time>1999-11-30T00:00:00Z</time>
      </trkpt>
      <trkpt lat="40.795407" lon="-1.939268">
        <ele>1114.023</ele>
        <time>1999-11-30T00:00:00Z</time>
      </trkpt>
      <trkpt lat="40.794948" lon="-1.939093">
        <ele>1109.027</ele>
        <time>1999-11-30T00:00:00Z</time>
      </trkpt>
      <trkpt lat="40.794744" lon="-1.939051">
        <ele>1110.058</ele>
        <time>1999-11-30T00:00:00Z</time>
      </trkpt>
      <trkpt lat="40.794525" lon="-1.939029">
        <ele>1110.072</ele>
        <time>1999-11-30T00:00:00Z</time>
      </trkpt>
      <trkpt lat="40.793896" lon="-1.939019">
        <ele>1111.057</ele>
        <time>1999-11-30T00:00:00Z</time>
      </trkpt>
      <trkpt lat="40.793278" lon="-1.939014">
        <ele>1112.086</ele>
        <time>1999-11-30T00:00:00Z</time>
      </trkpt>
      <trkpt lat="40.793194" lon="-1.93903">
        <ele>1112.037</ele>
        <time>1999-11-30T00:00:00Z</time>
      </trkpt>
      <trkpt lat="40.793022" lon="-1.939204">
        <ele>1115.035</ele>
        <time>1999-11-30T00:00:00Z</time>
      </trkpt>
      <trkpt lat="40.792896" lon="-1.939293">
        <ele>1116.081</ele>
        <time>1999-11-30T00:00:00Z</time>
      </trkpt>
      <trkpt lat="40.792687" lon="-1.939432">
        <ele>1117.061</ele>
        <time>1999-11-30T00:00:00Z</time>
      </trkpt>
      <trkpt lat="40.792527" lon="-1.939632">
        <ele>1118.017</ele>
        <time>1999-11-30T00:00:00Z</time>
      </trkpt>
      <trkpt lat="40.792418" lon="-1.939845">
        <ele>1120.008</ele>
        <time>1999-11-30T00:00:00Z</time>
      </trkpt>
      <trkpt lat="40.792302" lon="-1.940166">
        <ele>1123.089</ele>
        <time>1999-11-30T00:00:00Z</time>
      </trkpt>
      <trkpt lat="40.792132" lon="-1.940416">
        <ele>1126.033</ele>
        <time>1999-11-30T00:00:00Z</time>
      </trkpt>
      <trkpt lat="40.792025" lon="-1.940478">
        <ele>1127.074</ele>
        <time>1999-11-30T00:00:00Z</time>
      </trkpt>
      <trkpt lat="40.791902" lon="-1.94049">
        <ele>1129.058</ele>
        <time>1999-11-30T00:00:00Z</time>
      </trkpt>
      <trkpt lat="40.791683" lon="-1.940468">
        <ele>1130.073</ele>
        <time>1999-11-30T00:00:00Z</time>
      </trkpt>
      <trkpt lat="40.791448" lon="-1.940472">
        <ele>1131.022</ele>
        <time>1999-11-30T00:00:00Z</time>
      </trkpt>
      <trkpt lat="40.791284" lon="-1.940561">
        <ele>1133.033</ele>
        <time>1999-11-30T00:00:00Z</time>
      </trkpt>
      <trkpt lat="40.790938" lon="-1.940895">
        <ele>1138.071</ele>
        <time>1999-11-30T00:00:00Z</time>
      </trkpt>
      <trkpt lat="40.790623" lon="-1.941319">
        <ele>1140.054</ele>
        <time>1999-11-30T00:00:00Z</time>
      </trkpt>
      <trkpt lat="40.790408" lon="-1.941636">
        <ele>1141.056</ele>
        <time>1999-11-30T00:00:00Z</time>
      </trkpt>
      <trkpt lat="40.790214" lon="-1.941904">
        <ele>1143.011</ele>
        <time>1999-11-30T00:00:00Z</time>
      </trkpt>
      <trkpt lat="40.790041" lon="-1.942064">
        <ele>1145.008</ele>
        <time>1999-11-30T00:00:00Z</time>
      </trkpt>
      <trkpt lat="40.789837" lon="-1.942196">
        <ele>1148.036</ele>
        <time>1999-11-30T00:00:00Z</time>
      </trkpt>
      <trkpt lat="40.789621" lon="-1.942292">
        <ele>1151.080</ele>
        <time>1999-11-30T00:00:00Z</time>
      </trkpt>
      <trkpt lat="40.789432" lon="-1.942404">
        <ele>1151.011</ele>
        <time>1999-11-30T00:00:00Z</time>
      </trkpt>
      <trkpt lat="40.789377" lon="-1.942461">
        <ele>1152.025</ele>
        <time>1999-11-30T00:00:00Z</time>
      </trkpt>
      <trkpt lat="40.789306" lon="-1.942664">
        <ele>1152.010</ele>
        <time>1999-11-30T00:00:00Z</time>
      </trkpt>
      <trkpt lat="40.789259" lon="-1.942939">
        <ele>1154.019</ele>
        <time>1999-11-30T00:00:00Z</time>
      </trkpt>
      <trkpt lat="40.789214" lon="-1.943322">
        <ele>1156.040</ele>
        <time>1999-11-30T00:00:00Z</time>
      </trkpt>
      <trkpt lat="40.789198" lon="-1.943568">
        <ele>1158.028</ele>
        <time>1999-11-30T00:00:00Z</time>
      </trkpt>
      <trkpt lat="40.789162" lon="-1.94368">
        <ele>1159.054</ele>
        <time>1999-11-30T00:00:00Z</time>
      </trkpt>
      <trkpt lat="40.789093" lon="-1.943716">
        <ele>1160.056</ele>
        <time>1999-11-30T00:00:00Z</time>
      </trkpt>
      <trkpt lat="40.788888" lon="-1.943752">
        <ele>1159.011</ele>
        <time>1999-11-30T00:00:00Z</time>
      </trkpt>
      <trkpt lat="40.788815" lon="-1.943792">
        <ele>1159.008</ele>
        <time>1999-11-30T00:00:00Z</time>
      </trkpt>
      <trkpt lat="40.788607" lon="-1.944024">
        <ele>1160.086</ele>
        <time>1999-11-30T00:00:00Z</time>
      </trkpt>
      <trkpt lat="40.78856" lon="-1.944176">
        <ele>1161.010</ele>
        <time>1999-11-30T00:00:00Z</time>
      </trkpt>
      <trkpt lat="40.788546" lon="-1.944343">
        <ele>1163.011</ele>
        <time>1999-11-30T00:00:00Z</time>
      </trkpt>
      <trkpt lat="40.788578" lon="-1.944575">
        <ele>1164.085</ele>
        <time>1999-11-30T00:00:00Z</time>
      </trkpt>
      <trkpt lat="40.78869" lon="-1.944798">
        <ele>1167.040</ele>
        <time>1999-11-30T00:00:00Z</time>
      </trkpt>
      <trkpt lat="40.78874" lon="-1.944943">
        <ele>1169.069</ele>
        <time>1999-11-30T00:00:00Z</time>
      </trkpt>
      <trkpt lat="40.788779" lon="-1.945164">
        <ele>1168.010</ele>
        <time>1999-11-30T00:00:00Z</time>
      </trkpt>
      <trkpt lat="40.788934" lon="-1.945486">
        <ele>1170.028</ele>
        <time>1999-11-30T00:00:00Z</time>
      </trkpt>
      <trkpt lat="40.789054" lon="-1.94582">
        <ele>1172.027</ele>
        <time>1999-11-30T00:00:00Z</time>
      </trkpt>
      <trkpt lat="40.789182" lon="-1.946178">
        <ele>1174.068</ele>
        <time>1999-11-30T00:00:00Z</time>
      </trkpt>
      <trkpt lat="40.789431" lon="-1.946924">
        <ele>1177.014</ele>
        <time>1999-11-30T00:00:00Z</time>
      </trkpt>
      <trkpt lat="40.789634" lon="-1.94743">
        <ele>1181.008</ele>
        <time>1999-11-30T00:00:00Z</time>
      </trkpt>
      <trkpt lat="40.789692" lon="-1.947609">
        <ele>1181.093</ele>
        <time>1999-11-30T00:00:00Z</time>
      </trkpt>
      <trkpt lat="40.789718" lon="-1.94778">
        <ele>1181.047</ele>
        <time>1999-11-30T00:00:00Z</time>
      </trkpt>
      <trkpt lat="40.789729" lon="-1.947905">
        <ele>1181.088</ele>
        <time>1999-11-30T00:00:00Z</time>
      </trkpt>
      <trkpt lat="40.789723" lon="-1.948029">
        <ele>1181.032</ele>
        <time>1999-11-30T00:00:00Z</time>
      </trkpt>
      <trkpt lat="40.789764" lon="-1.94831">
        <ele>1181.037</ele>
        <time>1999-11-30T00:00:00Z</time>
      </trkpt>
      <trkpt lat="40.789848" lon="-1.948582">
        <ele>1181.066</ele>
        <time>1999-11-30T00:00:00Z</time>
      </trkpt>
      <trkpt lat="40.789928" lon="-1.94881">
        <ele>1181.057</ele>
        <time>1999-11-30T00:00:00Z</time>
      </trkpt>
      <trkpt lat="40.789963" lon="-1.949014">
        <ele>1180.025</ele>
        <time>1999-11-30T00:00:00Z</time>
      </trkpt>
      <trkpt lat="40.789939" lon="-1.94931">
        <ele>1181.022</ele>
        <time>1999-11-30T00:00:00Z</time>
      </trkpt>
      <trkpt lat="40.789863" lon="-1.949742">
        <ele>1182.062</ele>
        <time>1999-11-30T00:00:00Z</time>
      </trkpt>
      <trkpt lat="40.789763" lon="-1.950078">
        <ele>1182.008</ele>
        <time>1999-11-30T00:00:00Z</time>
      </trkpt>
      <trkpt lat="40.789623" lon="-1.950389">
        <ele>1182.008</ele>
        <time>1999-11-30T00:00:00Z</time>
      </trkpt>
      <trkpt lat="40.789502" lon="-1.950539">
        <ele>1181.013</ele>
        <time>1999-11-30T00:00:00Z</time>
      </trkpt>
      <trkpt lat="40.789309" lon="-1.95069">
        <ele>1184.047</ele>
        <time>1999-11-30T00:00:00Z</time>
      </trkpt>
      <trkpt lat="40.789099" lon="-1.950871">
        <ele>1186.078</ele>
        <time>1999-11-30T00:00:00Z</time>
      </trkpt>
      <trkpt lat="40.788956" lon="-1.951062">
        <ele>1187.012</ele>
        <time>1999-11-30T00:00:00Z</time>
      </trkpt>
      <trkpt lat="40.788808" lon="-1.951238">
        <ele>1188.047</ele>
        <time>1999-11-30T00:00:00Z</time>
      </trkpt>
      <trkpt lat="40.788573" lon="-1.951551">
        <ele>1189.016</ele>
        <time>1999-11-30T00:00:00Z</time>
      </trkpt>
      <trkpt lat="40.78838" lon="-1.95171">
        <ele>1192.037</ele>
        <time>1999-11-30T00:00:00Z</time>
      </trkpt>
      <trkpt lat="40.788215" lon="-1.951828">
        <ele>1195.035</ele>
        <time>1999-11-30T00:00:00Z</time>
      </trkpt>
      <trkpt lat="40.788103" lon="-1.951916">
        <ele>1196.099</ele>
        <time>1999-11-30T00:00:00Z</time>
      </trkpt>
      <trkpt lat="40.787789" lon="-1.952089">
        <ele>1200.007</ele>
        <time>1999-11-30T00:00:00Z</time>
      </trkpt>
      <trkpt lat="40.787533" lon="-1.952197">
        <ele>1202.027</ele>
        <time>1999-11-30T00:00:00Z</time>
      </trkpt>
      <trkpt lat="40.787337" lon="-1.952287">
        <ele>1203.008</ele>
        <time>1999-11-30T00:00:00Z</time>
      </trkpt>
      <trkpt lat="40.787249" lon="-1.95237">
        <ele>1202.020</ele>
        <time>1999-11-30T00:00:00Z</time>
      </trkpt>
      <trkpt lat="40.78716" lon="-1.95248">
        <ele>1203.094</ele>
        <time>1999-11-30T00:00:00Z</time>
      </trkpt>
      <trkpt lat="40.787017" lon="-1.95268">
        <ele>1204.055</ele>
        <time>1999-11-30T00:00:00Z</time>
      </trkpt>
      <trkpt lat="40.786835" lon="-1.952876">
        <ele>1206.079</ele>
        <time>1999-11-30T00:00:00Z</time>
      </trkpt>
      <trkpt lat="40.786623" lon="-1.953064">
        <ele>1207.034</ele>
        <time>1999-11-30T00:00:00Z</time>
      </trkpt>
      <trkpt lat="40.786359" lon="-1.95332">
        <ele>1206.093</ele>
        <time>1999-11-30T00:00:00Z</time>
      </trkpt>
      <trkpt lat="40.786027" lon="-1.953568">
        <ele>1206.074</ele>
        <time>1999-11-30T00:00:00Z</time>
      </trkpt>
      <trkpt lat="40.78586" lon="-1.95374">
        <ele>1207.022</ele>
        <time>1999-11-30T00:00:00Z</time>
      </trkpt>
      <trkpt lat="40.785748" lon="-1.953885">
        <ele>1207.017</ele>
        <time>1999-11-30T00:00:00Z</time>
      </trkpt>
      <trkpt lat="40.785708" lon="-1.954059">
        <ele>1206.087</ele>
        <time>1999-11-30T00:00:00Z</time>
      </trkpt>
      <trkpt lat="40.785698" lon="-1.954314">
        <ele>1205.015</ele>
        <time>1999-11-30T00:00:00Z</time>
      </trkpt>
      <trkpt lat="40.785666" lon="-1.954488">
        <ele>1206.008</ele>
        <time>1999-11-30T00:00:00Z</time>
      </trkpt>
      <trkpt lat="40.785561" lon="-1.954645">
        <ele>1206.092</ele>
        <time>1999-11-30T00:00:00Z</time>
      </trkpt>
      <trkpt lat="40.785346" lon="-1.954864">
        <ele>1207.056</ele>
        <time>1999-11-30T00:00:00Z</time>
      </trkpt>
      <trkpt lat="40.785148" lon="-1.955081">
        <ele>1207.047</ele>
        <time>1999-11-30T00:00:00Z</time>
      </trkpt>
      <trkpt lat="40.785055" lon="-1.955231">
        <ele>1208.061</ele>
        <time>1999-11-30T00:00:00Z</time>
      </trkpt>
      <trkpt lat="40.784944" lon="-1.955431">
        <ele>1208.036</ele>
        <time>1999-11-30T00:00:00Z</time>
      </trkpt>
      <trkpt lat="40.784879" lon="-1.955664">
        <ele>1209.035</ele>
        <time>1999-11-30T00:00:00Z</time>
      </trkpt>
      <trkpt lat="40.784853" lon="-1.955935">
        <ele>1209.076</ele>
        <time>1999-11-30T00:00:00Z</time>
      </trkpt>
      <trkpt lat="40.784837" lon="-1.956201">
        <ele>1209.084</ele>
        <time>1999-11-30T00:00:00Z</time>
      </trkpt>
      <trkpt lat="40.784824" lon="-1.956552">
        <ele>1210.096</ele>
        <time>1999-11-30T00:00:00Z</time>
      </trkpt>
      <trkpt lat="40.784868" lon="-1.95683">
        <ele>1212.031</ele>
        <time>1999-11-30T00:00:00Z</time>
      </trkpt>
      <trkpt lat="40.784948" lon="-1.95721">
        <ele>1214.024</ele>
        <time>1999-11-30T00:00:00Z</time>
      </trkpt>
      <trkpt lat="40.78502" lon="-1.957544">
        <ele>1217.008</ele>
        <time>1999-11-30T00:00:00Z</time>
      </trkpt>
      <trkpt lat="40.785141" lon="-1.957904">
        <ele>1222.090</ele>
        <time>1999-11-30T00:00:00Z</time>
      </trkpt>
      <trkpt lat="40.785215" lon="-1.958223">
        <ele>1226.034</ele>
        <time>1999-11-30T00:00:00Z</time>
      </trkpt>
      <trkpt lat="40.785231" lon="-1.958413">
        <ele>1228.025</ele>
        <time>1999-11-30T00:00:00Z</time>
      </trkpt>
      <trkpt lat="40.785247" lon="-1.958618">
        <ele>1229.039</ele>
        <time>1999-11-30T00:00:00Z</time>
      </trkpt>
      <trkpt lat="40.785256" lon="-1.958833">
        <ele>1230.054</ele>
        <time>1999-11-30T00:00:00Z</time>
      </trkpt>
      <trkpt lat="40.785273" lon="-1.959101">
        <ele>1230.093</ele>
        <time>1999-11-30T00:00:00Z</time>
      </trkpt>
      <trkpt lat="40.785323" lon="-1.959257">
        <ele>1231.044</ele>
        <time>1999-11-30T00:00:00Z</time>
      </trkpt>
      <trkpt lat="40.785406" lon="-1.959407">
        <ele>1231.082</ele>
        <time>1999-11-30T00:00:00Z</time>
      </trkpt>
      <trkpt lat="40.785479" lon="-1.95954">
        <ele>1232.064</ele>
        <time>1999-11-30T00:00:00Z</time>
      </trkpt>
      <trkpt lat="40.785483" lon="-1.959609">
        <ele>1232.006</ele>
        <time>1999-11-30T00:00:00Z</time>
      </trkpt>
      <trkpt lat="40.785402" lon="-1.959643">
        <ele>1232.016</ele>
        <time>1999-11-30T00:00:00Z</time>
      </trkpt>
      <trkpt lat="40.785246" lon="-1.959618">
        <ele>1233.008</ele>
        <time>1999-11-30T00:00:00Z</time>
      </trkpt>
      <trkpt lat="40.785021" lon="-1.959549">
        <ele>1233.097</ele>
        <time>1999-11-30T00:00:00Z</time>
      </trkpt>
      <trkpt lat="40.784894" lon="-1.95943">
        <ele>1233.011</ele>
        <time>1999-11-30T00:00:00Z</time>
      </trkpt>
      <trkpt lat="40.78472" lon="-1.9592">
        <ele>1234.032</ele>
        <time>1999-11-30T00:00:00Z</time>
      </trkpt>
      <trkpt lat="40.784544" lon="-1.958985">
        <ele>1235.036</ele>
        <time>1999-11-30T00:00:00Z</time>
      </trkpt>
      <trkpt lat="40.784273" lon="-1.958622">
        <ele>1237.091</ele>
        <time>1999-11-30T00:00:00Z</time>
      </trkpt>
      <trkpt lat="40.784027" lon="-1.958333">
        <ele>1238.020</ele>
        <time>1999-11-30T00:00:00Z</time>
      </trkpt>
      <trkpt lat="40.783738" lon="-1.958116">
        <ele>1240.011</ele>
        <time>1999-11-30T00:00:00Z</time>
      </trkpt>
      <trkpt lat="40.783439" lon="-1.957919">
        <ele>1242.069</ele>
        <time>1999-11-30T00:00:00Z</time>
      </trkpt>
      <trkpt lat="40.782843" lon="-1.957175">
        <ele>1247.046</ele>
        <time>1999-11-30T00:00:00Z</time>
      </trkpt>
      <trkpt lat="40.782108" lon="-1.956375">
        <ele>1249.088</ele>
        <time>1999-11-30T00:00:00Z</time>
      </trkpt>
      <trkpt lat="40.781334" lon="-1.955529">
        <ele>1252.016</ele>
        <time>1999-11-30T00:00:00Z</time>
      </trkpt>
      <trkpt lat="40.780742" lon="-1.954795">
        <ele>1251.008</ele>
        <time>1999-11-30T00:00:00Z</time>
      </trkpt>
      <trkpt lat="40.78016" lon="-1.954247">
        <ele>1251.045</ele>
        <time>1999-11-30T00:00:00Z</time>
      </trkpt>
      <trkpt lat="40.779681" lon="-1.953693">
        <ele>1251.049</ele>
        <time>1999-11-30T00:00:00Z</time>
      </trkpt>
      <trkpt lat="40.779162" lon="-1.953083">
        <ele>1252.060</ele>
        <time>1999-11-30T00:00:00Z</time>
      </trkpt>
      <trkpt lat="40.779041" lon="-1.952845">
        <ele>1252.024</ele>
        <time>1999-11-30T00:00:00Z</time>
      </trkpt>
      <trkpt lat="40.778914" lon="-1.952405">
        <ele>1250.099</ele>
        <time>1999-11-30T00:00:00Z</time>
      </trkpt>
      <trkpt lat="40.778784" lon="-1.952038">
        <ele>1250.048</ele>
        <time>1999-11-30T00:00:00Z</time>
      </trkpt>
      <trkpt lat="40.778426" lon="-1.951347">
        <ele>1253.079</ele>
        <time>1999-11-30T00:00:00Z</time>
      </trkpt>
      <trkpt lat="40.778017" lon="-1.950636">
        <ele>1253.027</ele>
        <time>1999-11-30T00:00:00Z</time>
      </trkpt>
      <trkpt lat="40.777587" lon="-1.949889">
        <ele>1254.012</ele>
        <time>1999-11-30T00:00:00Z</time>
      </trkpt>
      <trkpt lat="40.777287" lon="-1.949524">
        <ele>1255.032</ele>
        <time>1999-11-30T00:00:00Z</time>
      </trkpt>
      <trkpt lat="40.776725" lon="-1.948899">
        <ele>1255.005</ele>
        <time>1999-11-30T00:00:00Z</time>
      </trkpt>
      <trkpt lat="40.775965" lon="-1.948042">
        <ele>1254.008</ele>
        <time>1999-11-30T00:00:00Z</time>
      </trkpt>
      <trkpt lat="40.775526" lon="-1.94753">
        <ele>1253.062</ele>
        <time>1999-11-30T00:00:00Z</time>
      </trkpt>
      <trkpt lat="40.775187" lon="-1.947233">
        <ele>1252.036</ele>
        <time>1999-11-30T00:00:00Z</time>
      </trkpt>
      <trkpt lat="40.774727" lon="-1.94697">
        <ele>1252.057</ele>
        <time>1999-11-30T00:00:00Z</time>
      </trkpt>
      <trkpt lat="40.77446" lon="-1.946787">
        <ele>1251.011</ele>
        <time>1999-11-30T00:00:00Z</time>
      </trkpt>
      <trkpt lat="40.77426" lon="-1.946531">
        <ele>1250.056</ele>
        <time>1999-11-30T00:00:00Z</time>
      </trkpt>
      <trkpt lat="40.774072" lon="-1.946305">
        <ele>1250.075</ele>
        <time>1999-11-30T00:00:00Z</time>
      </trkpt>
      <trkpt lat="40.774022" lon="-1.94604">
        <ele>1249.026</ele>
        <time>1999-11-30T00:00:00Z</time>
      </trkpt>
      <trkpt lat="40.77411" lon="-1.945768">
        <ele>1249.074</ele>
        <time>1999-11-30T00:00:00Z</time>
      </trkpt>
      <trkpt lat="40.774331" lon="-1.94524">
        <ele>1243.075</ele>
        <time>1999-11-30T00:00:00Z</time>
      </trkpt>
      <trkpt lat="40.774513" lon="-1.944789">
        <ele>1241.028</ele>
        <time>1999-11-30T00:00:00Z</time>
      </trkpt>
      <trkpt lat="40.774566" lon="-1.944534">
        <ele>1240.020</ele>
        <time>1999-11-30T00:00:00Z</time>
      </trkpt>
      <trkpt lat="40.774544" lon="-1.944311">
        <ele>1238.008</ele>
        <time>1999-11-30T00:00:00Z</time>
      </trkpt>
      <trkpt lat="40.774467" lon="-1.944073">
        <ele>1239.048</ele>
        <time>1999-11-30T00:00:00Z</time>
      </trkpt>
      <trkpt lat="40.774425" lon="-1.943856">
        <ele>1238.012</ele>
        <time>1999-11-30T00:00:00Z</time>
      </trkpt>
      <trkpt lat="40.774439" lon="-1.943626">
        <ele>1237.063</ele>
        <time>1999-11-30T00:00:00Z</time>
      </trkpt>
      <trkpt lat="40.774432" lon="-1.943309">
        <ele>1236.017</ele>
        <time>1999-11-30T00:00:00Z</time>
      </trkpt>
      <trkpt lat="40.774403" lon="-1.943117">
        <ele>1236.062</ele>
        <time>1999-11-30T00:00:00Z</time>
      </trkpt>
      <trkpt lat="40.774342" lon="-1.942952">
        <ele>1235.031</ele>
        <time>1999-11-30T00:00:00Z</time>
      </trkpt>
      <trkpt lat="40.774222" lon="-1.942855">
        <ele>1234.072</ele>
        <time>1999-11-30T00:00:00Z</time>
      </trkpt>
      <trkpt lat="40.774068" lon="-1.942821">
        <ele>1234.030</ele>
        <time>1999-11-30T00:00:00Z</time>
      </trkpt>
      <trkpt lat="40.773937" lon="-1.942823">
        <ele>1233.066</ele>
        <time>1999-11-30T00:00:00Z</time>
      </trkpt>
      <trkpt lat="40.77382" lon="-1.942872">
        <ele>1231.029</ele>
        <time>1999-11-30T00:00:00Z</time>
      </trkpt>
      <trkpt lat="40.773745" lon="-1.942956">
        <ele>1230.021</ele>
        <time>1999-11-30T00:00:00Z</time>
      </trkpt>
      <trkpt lat="40.773711" lon="-1.943097">
        <ele>1230.008</ele>
        <time>1999-11-30T00:00:00Z</time>
      </trkpt>
      <trkpt lat="40.773685" lon="-1.943332">
        <ele>1231.057</ele>
        <time>1999-11-30T00:00:00Z</time>
      </trkpt>
      <trkpt lat="40.773672" lon="-1.943592">
        <ele>1229.071</ele>
        <time>1999-11-30T00:00:00Z</time>
      </trkpt>
      <trkpt lat="40.773639" lon="-1.943847">
        <ele>1227.062</ele>
        <time>1999-11-30T00:00:00Z</time>
      </trkpt>
      <trkpt lat="40.773573" lon="-1.944066">
        <ele>1225.076</ele>
        <time>1999-11-30T00:00:00Z</time>
      </trkpt>
      <trkpt lat="40.773469" lon="-1.944149">
        <ele>1223.041</ele>
        <time>1999-11-30T00:00:00Z</time>
      </trkpt>
      <trkpt lat="40.773364" lon="-1.944149">
        <ele>1222.060</ele>
        <time>1999-11-30T00:00:00Z</time>
      </trkpt>
      <trkpt lat="40.773145" lon="-1.943978">
        <ele>1222.041</ele>
        <time>1999-11-30T00:00:00Z</time>
      </trkpt>
      <trkpt lat="40.772857" lon="-1.943822">
        <ele>1221.059</ele>
        <time>1999-11-30T00:00:00Z</time>
      </trkpt>
      <trkpt lat="40.772558" lon="-1.943671">
        <ele>1218.074</ele>
        <time>1999-11-30T00:00:00Z</time>
      </trkpt>
      <trkpt lat="40.772362" lon="-1.943441">
        <ele>1216.056</ele>
        <time>1999-11-30T00:00:00Z</time>
      </trkpt>
      <trkpt lat="40.771988" lon="-1.942938">
        <ele>1213.021</ele>
        <time>1999-11-30T00:00:00Z</time>
      </trkpt>
      <trkpt lat="40.771643" lon="-1.942469">
        <ele>1208.008</ele>
        <time>1999-11-30T00:00:00Z</time>
      </trkpt>
      <trkpt lat="40.771517" lon="-1.9421">
        <ele>1204.088</ele>
        <time>1999-11-30T00:00:00Z</time>
      </trkpt>
      <trkpt lat="40.77133" lon="-1.941236">
        <ele>1200.092</ele>
        <time>1999-11-30T00:00:00Z</time>
      </trkpt>
      <trkpt lat="40.771149" lon="-1.94039">
        <ele>1200.063</ele>
        <time>1999-11-30T00:00:00Z</time>
      </trkpt>
      <trkpt lat="40.771022" lon="-1.940112">
        <ele>1200.087</ele>
        <time>1999-11-30T00:00:00Z</time>
      </trkpt>
      <trkpt lat="40.769909" lon="-1.940107">
        <ele>1198.022</ele>
        <time>1999-11-30T00:00:00Z</time>
      </trkpt>
      <trkpt lat="40.768347" lon="-1.940081">
        <ele>1194.071</ele>
        <time>1999-11-30T00:00:00Z</time>
      </trkpt>
      <trkpt lat="40.76745" lon="-1.939989">
        <ele>1190.012</ele>
        <time>1999-11-30T00:00:00Z</time>
      </trkpt>
      <trkpt lat="40.766664" lon="-1.939804">
        <ele>1186.020</ele>
        <time>1999-11-30T00:00:00Z</time>
      </trkpt>
      <trkpt lat="40.766489" lon="-1.939771">
        <ele>1184.079</ele>
        <time>1999-11-30T00:00:00Z</time>
      </trkpt>
      <trkpt lat="40.76651" lon="-1.939632">
        <ele>1184.005</ele>
        <time>1999-11-30T00:00:00Z</time>
      </trkpt>
      <trkpt lat="40.766818" lon="-1.939664">
        <ele>1188.025</ele>
        <time>1999-11-30T00:00:00Z</time>
      </trkpt>
      <trkpt lat="40.767078" lon="-1.939569">
        <ele>1190.008</ele>
        <time>1999-11-30T00:00:00Z</time>
      </trkpt>
      <trkpt lat="40.76759" lon="-1.939255">
        <ele>1191.038</ele>
        <time>1999-11-30T00:00:00Z</time>
      </trkpt>
      <trkpt lat="40.767968" lon="-1.939045">
        <ele>1197.072</ele>
        <time>1999-11-30T00:00:00Z</time>
      </trkpt>
      <trkpt lat="40.768348" lon="-1.938731">
        <ele>1200.013</ele>
        <time>1999-11-30T00:00:00Z</time>
      </trkpt>
      <trkpt lat="40.768604" lon="-1.938365">
        <ele>1203.067</ele>
        <time>1999-11-30T00:00:00Z</time>
      </trkpt>
      <trkpt lat="40.76861" lon="-1.938231">
        <ele>1204.092</ele>
        <time>1999-11-30T00:00:00Z</time>
      </trkpt>
      <trkpt lat="40.768542" lon="-1.937991">
        <ele>1205.071</ele>
        <time>1999-11-30T00:00:00Z</time>
      </trkpt>
      <trkpt lat="40.768431" lon="-1.93784">
        <ele>1205.062</ele>
        <time>1999-11-30T00:00:00Z</time>
      </trkpt>
      <trkpt lat="40.768217" lon="-1.937737">
        <ele>1203.050</ele>
        <time>1999-11-30T00:00:00Z</time>
      </trkpt>
      <trkpt lat="40.767943" lon="-1.937734">
        <ele>1202.049</ele>
        <time>1999-11-30T00:00:00Z</time>
      </trkpt>
      <trkpt lat="40.767691" lon="-1.93761">
        <ele>1201.002</ele>
        <time>1999-11-30T00:00:00Z</time>
      </trkpt>
      <trkpt lat="40.767471" lon="-1.937408">
        <ele>1200.022</ele>
        <time>1999-11-30T00:00:00Z</time>
      </trkpt>
      <trkpt lat="40.767247" lon="-1.937097">
        <ele>1198.008</ele>
        <time>1999-11-30T00:00:00Z</time>
      </trkpt>
      <trkpt lat="40.766799" lon="-1.936637">
        <ele>1194.065</ele>
        <time>1999-11-30T00:00:00Z</time>
      </trkpt>
      <trkpt lat="40.766453" lon="-1.936344">
        <ele>1190.069</ele>
        <time>1999-11-30T00:00:00Z</time>
      </trkpt>
      <trkpt lat="40.765889" lon="-1.935838">
        <ele>1186.030</ele>
        <time>1999-11-30T00:00:00Z</time>
      </trkpt>
      <trkpt lat="40.765365" lon="-1.935343">
        <ele>1186.024</ele>
        <time>1999-11-30T00:00:00Z</time>
      </trkpt>
      <trkpt lat="40.764973" lon="-1.935042">
        <ele>1183.019</ele>
        <time>1999-11-30T00:00:00Z</time>
      </trkpt>
      <trkpt lat="40.764468" lon="-1.934925">
        <ele>1179.018</ele>
        <time>1999-11-30T00:00:00Z</time>
      </trkpt>
      <trkpt lat="40.764141" lon="-1.934805">
        <ele>1178.049</ele>
        <time>1999-11-30T00:00:00Z</time>
      </trkpt>
      <trkpt lat="40.763721" lon="-1.934282">
        <ele>1178.067</ele>
        <time>1999-11-30T00:00:00Z</time>
      </trkpt>
      <trkpt lat="40.763277" lon="-1.933631">
        <ele>1177.046</ele>
        <time>1999-11-30T00:00:00Z</time>
      </trkpt>
      <trkpt lat="40.762631" lon="-1.933395">
        <ele>1182.088</ele>
        <time>1999-11-30T00:00:00Z</time>
      </trkpt>
      <trkpt lat="40.762085" lon="-1.933162">
        <ele>1193.016</ele>
        <time>1999-11-30T00:00:00Z</time>
      </trkpt>
      <trkpt lat="40.761868" lon="-1.932996">
        <ele>1198.008</ele>
        <time>1999-11-30T00:00:00Z</time>
      </trkpt>
      <trkpt lat="40.761646" lon="-1.932705">
        <ele>1200.075</ele>
        <time>1999-11-30T00:00:00Z</time>
      </trkpt>
      <trkpt lat="40.761468" lon="-1.932342">
        <ele>1204.059</ele>
        <time>1999-11-30T00:00:00Z</time>
      </trkpt>
      <trkpt lat="40.761294" lon="-1.931961">
        <ele>1208.070</ele>
        <time>1999-11-30T00:00:00Z</time>
      </trkpt>
      <trkpt lat="40.761087" lon="-1.931696">
        <ele>1210.054</ele>
        <time>1999-11-30T00:00:00Z</time>
      </trkpt>
      <trkpt lat="40.760644" lon="-1.931455">
        <ele>1214.019</ele>
        <time>1999-11-30T00:00:00Z</time>
      </trkpt>
      <trkpt lat="40.759868" lon="-1.930945">
        <ele>1221.038</ele>
        <time>1999-11-30T00:00:00Z</time>
      </trkpt>
      <trkpt lat="40.75923" lon="-1.930475">
        <ele>1220.039</ele>
        <time>1999-11-30T00:00:00Z</time>
      </trkpt>
      <trkpt lat="40.758689" lon="-1.930114">
        <ele>1215.077</ele>
        <time>1999-11-30T00:00:00Z</time>
      </trkpt>
      <trkpt lat="40.758049" lon="-1.929495">
        <ele>1204.072</ele>
        <time>1999-11-30T00:00:00Z</time>
      </trkpt>
      <trkpt lat="40.757265" lon="-1.928855">
        <ele>1193.013</ele>
        <time>1999-11-30T00:00:00Z</time>
      </trkpt>
      <trkpt lat="40.756693" lon="-1.928243">
        <ele>1181.014</ele>
        <time>1999-11-30T00:00:00Z</time>
      </trkpt>
      <trkpt lat="40.756354" lon="-1.927998">
        <ele>1180.008</ele>
        <time>1999-11-30T00:00:00Z</time>
      </trkpt>
      <trkpt lat="40.755791" lon="-1.927596">
        <ele>1177.068</ele>
        <time>1999-11-30T00:00:00Z</time>
      </trkpt>
      <trkpt lat="40.755407" lon="-1.927352">
        <ele>1177.012</ele>
        <time>1999-11-30T00:00:00Z</time>
      </trkpt>
      <trkpt lat="40.75516" lon="-1.926994">
        <ele>1174.013</ele>
        <time>1999-11-30T00:00:00Z</time>
      </trkpt>
      <trkpt lat="40.754925" lon="-1.926887">
        <ele>1173.057</ele>
        <time>1999-11-30T00:00:00Z</time>
      </trkpt>
      <trkpt lat="40.754584" lon="-1.926847">
        <ele>1173.082</ele>
        <time>1999-11-30T00:00:00Z</time>
      </trkpt>
      <trkpt lat="40.754134" lon="-1.926863">
        <ele>1174.091</ele>
        <time>1999-11-30T00:00:00Z</time>
      </trkpt>
      <trkpt lat="40.753644" lon="-1.926841">
        <ele>1172.032</ele>
        <time>1999-11-30T00:00:00Z</time>
      </trkpt>
      <trkpt lat="40.753233" lon="-1.926875">
        <ele>1172.090</ele>
        <time>1999-11-30T00:00:00Z</time>
      </trkpt>
      <trkpt lat="40.752691" lon="-1.927066">
        <ele>1169.034</ele>
        <time>1999-11-30T00:00:00Z</time>
      </trkpt>
      <trkpt lat="40.752416" lon="-1.927264">
        <ele>1167.055</ele>
        <time>1999-11-30T00:00:00Z</time>
      </trkpt>
      <trkpt lat="40.752113" lon="-1.92764">
        <ele>1165.010</ele>
        <time>1999-11-30T00:00:00Z</time>
      </trkpt>
      <trkpt lat="40.751927" lon="-1.92776">
        <ele>1165.008</ele>
        <time>1999-11-30T00:00:00Z</time>
      </trkpt>
      <trkpt lat="40.751712" lon="-1.927775">
        <ele>1164.064</ele>
        <time>1999-11-30T00:00:00Z</time>
      </trkpt>
      <trkpt lat="40.751479" lon="-1.927846">
        <ele>1163.058</ele>
        <time>1999-11-30T00:00:00Z</time>
      </trkpt>
      <trkpt lat="40.751316" lon="-1.928139">
        <ele>1163.079</ele>
        <time>1999-11-30T00:00:00Z</time>
      </trkpt>
      <trkpt lat="40.751092" lon="-1.928572">
        <ele>1163.053</ele>
        <time>1999-11-30T00:00:00Z</time>
      </trkpt>
      <trkpt lat="40.750928" lon="-1.928958">
        <ele>1163.038</ele>
        <time>1999-11-30T00:00:00Z</time>
      </trkpt>
      <trkpt lat="40.750858" lon="-1.929296">
        <ele>1163.097</ele>
        <time>1999-11-30T00:00:00Z</time>
      </trkpt>
      <trkpt lat="40.750751" lon="-1.929669">
        <ele>1160.098</ele>
        <time>1999-11-30T00:00:00Z</time>
      </trkpt>
      <trkpt lat="40.750538" lon="-1.929875">
        <ele>1157.056</ele>
        <time>1999-11-30T00:00:00Z</time>
      </trkpt>
      <trkpt lat="40.750015" lon="-1.930166">
        <ele>1149.074</ele>
        <time>1999-11-30T00:00:00Z</time>
      </trkpt>
      <trkpt lat="40.749691" lon="-1.930297">
        <ele>1148.056</ele>
        <time>1999-11-30T00:00:00Z</time>
      </trkpt>
      <trkpt lat="40.749493" lon="-1.930382">
        <ele>1146.021</ele>
        <time>1999-11-30T00:00:00Z</time>
      </trkpt>
      <trkpt lat="40.749288" lon="-1.930501">
        <ele>1144.008</ele>
        <time>1999-11-30T00:00:00Z</time>
      </trkpt>
      <trkpt lat="40.749163" lon="-1.930564">
        <ele>1142.068</ele>
        <time>1999-11-30T00:00:00Z</time>
      </trkpt>
      <trkpt lat="40.749154" lon="-1.93058">
        <ele>1142.052</ele>
        <time>1999-11-30T00:00:00Z</time>
      </trkpt>
      <trkpt lat="40.749049" lon="-1.930931">
        <ele>1140.013</ele>
        <time>1999-11-30T00:00:00Z</time>
      </trkpt>
      <trkpt lat="40.7487" lon="-1.930953">
        <ele>1137.077</ele>
        <time>1999-11-30T00:00:00Z</time>
      </trkpt>
      <trkpt lat="40.748521" lon="-1.931441">
        <ele>1137.012</ele>
        <time>1999-11-30T00:00:00Z</time>
      </trkpt>
      <trkpt lat="40.748517" lon="-1.931444">
        <ele>1137.031</ele>
        <time>1999-11-30T00:00:00Z</time>
      </trkpt>
      <trkpt lat="40.74844" lon="-1.931751">
        <ele>1136.022</ele>
        <time>1999-11-30T00:00:00Z</time>
      </trkpt>
      <trkpt lat="40.748397" lon="-1.932654">
        <ele>1133.070</ele>
        <time>1999-11-30T00:00:00Z</time>
      </trkpt>
      <trkpt lat="40.748379" lon="-1.933221">
        <ele>1133.029</ele>
        <time>1999-11-30T00:00:00Z</time>
      </trkpt>
      <trkpt lat="40.74824" lon="-1.933877">
        <ele>1132.000</ele>
        <time>1999-11-30T00:00:00Z</time>
      </trkpt>
      <trkpt lat="40.748162" lon="-1.934232">
        <ele>1131.020</ele>
        <time>1999-11-30T00:00:00Z</time>
      </trkpt>
      <trkpt lat="40.74813" lon="-1.934315">
        <ele>1130.008</ele>
        <time>1999-11-30T00:00:00Z</time>
      </trkpt>
      <trkpt lat="40.747719" lon="-1.934317">
        <ele>1129.093</ele>
        <time>1999-11-30T00:00:00Z</time>
      </trkpt>
      <trkpt lat="40.74762" lon="-1.934835">
        <ele>1128.057</ele>
        <time>1999-11-30T00:00:00Z</time>
      </trkpt>
      <trkpt lat="40.747419" lon="-1.935805">
        <ele>1127.038</ele>
        <time>1999-11-30T00:00:00Z</time>
      </trkpt>
      <trkpt lat="40.747183" lon="-1.936693">
        <ele>1127.052</ele>
        <time>1999-11-30T00:00:00Z</time>
      </trkpt>
      <trkpt lat="40.747002" lon="-1.937429">
        <ele>1126.027</ele>
        <time>1999-11-30T00:00:00Z</time>
      </trkpt>
      <trkpt lat="40.746963" lon="-1.937915">
        <ele>1126.066</ele>
        <time>1999-11-30T00:00:00Z</time>
      </trkpt>
      <trkpt lat="40.746909" lon="-1.938461">
        <ele>1126.067</ele>
        <time>1999-11-30T00:00:00Z</time>
      </trkpt>
      <trkpt lat="40.746543" lon="-1.939427">
        <ele>1127.085</ele>
        <time>1999-11-30T00:00:00Z</time>
      </trkpt>
      <trkpt lat="40.746296" lon="-1.940093">
        <ele>1130.037</ele>
        <time>1999-11-30T00:00:00Z</time>
      </trkpt>
      <trkpt lat="40.746173" lon="-1.940665">
        <ele>1134.049</ele>
        <time>1999-11-30T00:00:00Z</time>
      </trkpt>
      <trkpt lat="40.745987" lon="-1.941334">
        <ele>1138.013</ele>
        <time>1999-11-30T00:00:00Z</time>
      </trkpt>
      <trkpt lat="40.745706" lon="-1.941824">
        <ele>1141.008</ele>
        <time>1999-11-30T00:00:00Z</time>
      </trkpt>
      <trkpt lat="40.74541" lon="-1.942463">
        <ele>1141.064</ele>
        <time>1999-11-30T00:00:00Z</time>
      </trkpt>
      <trkpt lat="40.745099" lon="-1.942953">
        <ele>1145.068</ele>
        <time>1999-11-30T00:00:00Z</time>
      </trkpt>
      <trkpt lat="40.744822" lon="-1.943584">
        <ele>1149.019</ele>
        <time>1999-11-30T00:00:00Z</time>
      </trkpt>
      <trkpt lat="40.744566" lon="-1.94419">
        <ele>1147.043</ele>
        <time>1999-11-30T00:00:00Z</time>
      </trkpt>
      <trkpt lat="40.744204" lon="-1.944643">
        <ele>1147.068</ele>
        <time>1999-11-30T00:00:00Z</time>
      </trkpt>
      <trkpt lat="40.74362" lon="-1.945049">
        <ele>1150.047</ele>
        <time>1999-11-30T00:00:00Z</time>
      </trkpt>
      <trkpt lat="40.743052" lon="-1.94538">
        <ele>1155.028</ele>
        <time>1999-11-30T00:00:00Z</time>
      </trkpt>
      <trkpt lat="40.742539" lon="-1.945498">
        <ele>1158.056</ele>
        <time>1999-11-30T00:00:00Z</time>
      </trkpt>
      <trkpt lat="40.742144" lon="-1.945293">
        <ele>1160.031</ele>
        <time>1999-11-30T00:00:00Z</time>
      </trkpt>
      <trkpt lat="40.741769" lon="-1.945008">
        <ele>1161.061</ele>
        <time>1999-11-30T00:00:00Z</time>
      </trkpt>
      <trkpt lat="40.741329" lon="-1.944897">
        <ele>1162.007</ele>
        <time>1999-11-30T00:00:00Z</time>
      </trkpt>
      <trkpt lat="40.740779" lon="-1.944877">
        <ele>1165.008</ele>
        <time>1999-11-30T00:00:00Z</time>
      </trkpt>
      <trkpt lat="40.740485" lon="-1.944827">
        <ele>1170.044</ele>
        <time>1999-11-30T00:00:00Z</time>
      </trkpt>
      <trkpt lat="40.740204" lon="-1.944518">
        <ele>1178.028</ele>
        <time>1999-11-30T00:00:00Z</time>
      </trkpt>
      <trkpt lat="40.739862" lon="-1.944425">
        <ele>1181.049</ele>
        <time>1999-11-30T00:00:00Z</time>
      </trkpt>
      <trkpt lat="40.739565" lon="-1.944461">
        <ele>1182.023</ele>
        <time>1999-11-30T00:00:00Z</time>
      </trkpt>
      <trkpt lat="40.739388" lon="-1.94445">
        <ele>1179.088</ele>
        <time>1999-11-30T00:00:00Z</time>
      </trkpt>
      <trkpt lat="40.739062" lon="-1.944749">
        <ele>1176.077</ele>
        <time>1999-11-30T00:00:00Z</time>
      </trkpt>
      <trkpt lat="40.738733" lon="-1.945009">
        <ele>1174.028</ele>
        <time>1999-11-30T00:00:00Z</time>
      </trkpt>
      <trkpt lat="40.738267" lon="-1.945271">
        <ele>1168.026</ele>
        <time>1999-11-30T00:00:00Z</time>
      </trkpt>
      <trkpt lat="40.737897" lon="-1.9455">
        <ele>1158.054</ele>
        <time>1999-11-30T00:00:00Z</time>
      </trkpt>
      <trkpt lat="40.737632" lon="-1.945932">
        <ele>1151.056</ele>
        <time>1999-11-30T00:00:00Z</time>
      </trkpt>
      <trkpt lat="40.737519" lon="-1.945876">
        <ele>1146.011</ele>
        <time>1999-11-30T00:00:00Z</time>
      </trkpt>
      <trkpt lat="40.737282" lon="-1.945507">
        <ele>1136.008</ele>
        <time>1999-11-30T00:00:00Z</time>
      </trkpt>
      <trkpt lat="40.737046" lon="-1.94517">
        <ele>1129.016</ele>
        <time>1999-11-30T00:00:00Z</time>
      </trkpt>
      <trkpt lat="40.736724" lon="-1.944787">
        <ele>1124.020</ele>
        <time>1999-11-30T00:00:00Z</time>
      </trkpt>
      <trkpt lat="40.73645" lon="-1.944626">
        <ele>1122.091</ele>
        <time>1999-11-30T00:00:00Z</time>
      </trkpt>
      <trkpt lat="40.736204" lon="-1.944525">
        <ele>1120.045</ele>
        <time>1999-11-30T00:00:00Z</time>
      </trkpt>
      <trkpt lat="40.73596" lon="-1.944504">
        <ele>1119.040</ele>
        <time>1999-11-30T00:00:00Z</time>
      </trkpt>
      <trkpt lat="40.735685" lon="-1.944504">
        <ele>1118.089</ele>
        <time>1999-11-30T00:00:00Z</time>
      </trkpt>
      <trkpt lat="40.735502" lon="-1.944606">
        <ele>1117.060</ele>
        <time>1999-11-30T00:00:00Z</time>
      </trkpt>
      <trkpt lat="40.735433" lon="-1.944422">
        <ele>1117.068</ele>
        <time>1999-11-30T00:00:00Z</time>
      </trkpt>
      <trkpt lat="40.735433" lon="-1.944422">
        <ele>1117.054</ele>
        <time>1999-11-30T00:00:00Z</time>
      </trkpt>
      <trkpt lat="40.735282" lon="-1.944153">
        <ele>1118.056</ele>
        <time>1999-11-30T00:00:00Z</time>
      </trkpt>
      <trkpt lat="40.735159" lon="-1.943966">
        <ele>1118.011</ele>
        <time>1999-11-30T00:00:00Z</time>
      </trkpt>
      <trkpt lat="40.734945" lon="-1.943714">
        <ele>1119.008</ele>
        <time>1999-11-30T00:00:00Z</time>
      </trkpt>
      <trkpt lat="40.734556" lon="-1.943438">
        <ele>1119.026</ele>
        <time>1999-11-30T00:00:00Z</time>
      </trkpt>
      <trkpt lat="40.734068" lon="-1.943139">
        <ele>1119.010</ele>
        <time>1999-11-30T00:00:00Z</time>
      </trkpt>
      <trkpt lat="40.733105" lon="-1.942596">
        <ele>1119.011</ele>
        <time>1999-11-30T00:00:00Z</time>
      </trkpt>
      <trkpt lat="40.732443" lon="-1.942144">
        <ele>1119.075</ele>
        <time>1999-11-30T00:00:00Z</time>
      </trkpt>
      <trkpt lat="40.732059" lon="-1.941824">
        <ele>1120.070</ele>
        <time>1999-11-30T00:00:00Z</time>
      </trkpt>
      <trkpt lat="40.731516" lon="-1.941281">
        <ele>1120.039</ele>
        <time>1999-11-30T00:00:00Z</time>
      </trkpt>
      <trkpt lat="40.731063" lon="-1.940743">
        <ele>1121.060</ele>
        <time>1999-11-30T00:00:00Z</time>
      </trkpt>
      <trkpt lat="40.730768" lon="-1.940285">
        <ele>1124.028</ele>
        <time>1999-11-30T00:00:00Z</time>
      </trkpt>
      <trkpt lat="40.730597" lon="-1.939874">
        <ele>1125.059</ele>
        <time>1999-11-30T00:00:00Z</time>
      </trkpt>
      <trkpt lat="40.730435" lon="-1.939363">
        <ele>1125.003</ele>
        <time>1999-11-30T00:00:00Z</time>
      </trkpt>
      <trkpt lat="40.730242" lon="-1.938532">
        <ele>1128.023</ele>
        <time>1999-11-30T00:00:00Z</time>
      </trkpt>
      <trkpt lat="40.729978" lon="-1.937265">
        <ele>1129.008</ele>
        <time>1999-11-30T00:00:00Z</time>
      </trkpt>
      <trkpt lat="40.729766" lon="-1.936473">
        <ele>1129.036</ele>
        <time>1999-11-30T00:00:00Z</time>
      </trkpt>
      <trkpt lat="40.729492" lon="-1.935682">
        <ele>1128.060</ele>
        <time>1999-11-30T00:00:00Z</time>
      </trkpt>
      <trkpt lat="40.729081" lon="-1.934574">
        <ele>1131.011</ele>
        <time>1999-11-30T00:00:00Z</time>
      </trkpt>
      <trkpt lat="40.728582" lon="-1.933185">
        <ele>1132.035</ele>
        <time>1999-11-30T00:00:00Z</time>
      </trkpt>
      <trkpt lat="40.728308" lon="-1.932469">
        <ele>1131.090</ele>
        <time>1999-11-30T00:00:00Z</time>
      </trkpt>
      <trkpt lat="40.728081" lon="-1.932022">
        <ele>1130.069</ele>
        <time>1999-11-30T00:00:00Z</time>
      </trkpt>
      <trkpt lat="40.727849" lon="-1.931693">
        <ele>1130.090</ele>
        <time>1999-11-30T00:00:00Z</time>
      </trkpt>
      <trkpt lat="40.727589" lon="-1.931453">
        <ele>1130.098</ele>
        <time>1999-11-30T00:00:00Z</time>
      </trkpt>
      <trkpt lat="40.727306" lon="-1.931257">
        <ele>1130.056</ele>
        <time>1999-11-30T00:00:00Z</time>
      </trkpt>
      <trkpt lat="40.726598" lon="-1.930968">
        <ele>1133.059</ele>
        <time>1999-11-30T00:00:00Z</time>
      </trkpt>
      <trkpt lat="40.725962" lon="-1.93064">
        <ele>1136.014</ele>
        <time>1999-11-30T00:00:00Z</time>
      </trkpt>
      <trkpt lat="40.725382" lon="-1.930292">
        <ele>1136.008</ele>
        <time>1999-11-30T00:00:00Z</time>
      </trkpt>
      <trkpt lat="40.724864" lon="-1.929962">
        <ele>1136.056</ele>
        <time>1999-11-30T00:00:00Z</time>
      </trkpt>
      <trkpt lat="40.724308" lon="-1.929533">
        <ele>1137.060</ele>
        <time>1999-11-30T00:00:00Z</time>
      </trkpt>
      <trkpt lat="40.72364" lon="-1.928917">
        <ele>1136.071</ele>
        <time>1999-11-30T00:00:00Z</time>
      </trkpt>
      <trkpt lat="40.723488" lon="-1.928679">
        <ele>1135.045</ele>
        <time>1999-11-30T00:00:00Z</time>
      </trkpt>
      <trkpt lat="40.72345" lon="-1.928503">
        <ele>1136.060</ele>
        <time>1999-11-30T00:00:00Z</time>
      </trkpt>
      <trkpt lat="40.723181" lon="-1.927906">
        <ele>1136.059</ele>
        <time>1999-11-30T00:00:00Z</time>
      </trkpt>
      <trkpt lat="40.723" lon="-1.92753">
        <ele>1135.070</ele>
        <time>1999-11-30T00:00:00Z</time>
      </trkpt>
      <trkpt lat="40.722806" lon="-1.927147">
        <ele>1135.048</ele>
        <time>1999-11-30T00:00:00Z</time>
      </trkpt>
      <trkpt lat="40.72264" lon="-1.926844">
        <ele>1135.083</ele>
        <time>1999-11-30T00:00:00Z</time>
      </trkpt>
      <trkpt lat="40.722438" lon="-1.926617">
        <ele>1136.025</ele>
        <time>1999-11-30T00:00:00Z</time>
      </trkpt>
      <trkpt lat="40.722026" lon="-1.926208">
        <ele>1136.017</ele>
        <time>1999-11-30T00:00:00Z</time>
      </trkpt>
      <trkpt lat="40.721897" lon="-1.926113">
        <ele>1137.008</ele>
        <time>1999-11-30T00:00:00Z</time>
      </trkpt>
      <trkpt lat="40.721562" lon="-1.926019">
        <ele>1137.029</ele>
        <time>1999-11-30T00:00:00Z</time>
      </trkpt>
      <trkpt lat="40.721027" lon="-1.925938">
        <ele>1138.023</ele>
        <time>1999-11-30T00:00:00Z</time>
      </trkpt>
      <trkpt lat="40.720684" lon="-1.925848">
        <ele>1138.094</ele>
        <time>1999-11-30T00:00:00Z</time>
      </trkpt>
      <trkpt lat="40.720495" lon="-1.925758">
        <ele>1139.078</ele>
        <time>1999-11-30T00:00:00Z</time>
      </trkpt>
      <trkpt lat="40.720284" lon="-1.925536">
        <ele>1139.063</ele>
        <time>1999-11-30T00:00:00Z</time>
      </trkpt>
      <trkpt lat="40.719995" lon="-1.925129">
        <ele>1139.032</ele>
        <time>1999-11-30T00:00:00Z</time>
      </trkpt>
      <trkpt lat="40.719654" lon="-1.924658">
        <ele>1139.073</ele>
        <time>1999-11-30T00:00:00Z</time>
      </trkpt>
      <trkpt lat="40.719291" lon="-1.924195">
        <ele>1139.021</ele>
        <time>1999-11-30T00:00:00Z</time>
      </trkpt>
      <trkpt lat="40.718901" lon="-1.923656">
        <ele>1139.042</ele>
        <time>1999-11-30T00:00:00Z</time>
      </trkpt>
      <trkpt lat="40.718835" lon="-1.923494">
        <ele>1139.022</ele>
        <time>1999-11-30T00:00:00Z</time>
      </trkpt>
      <trkpt lat="40.718791" lon="-1.92294">
        <ele>1144.014</ele>
        <time>1999-11-30T00:00:00Z</time>
      </trkpt>
      <trkpt lat="40.718773" lon="-1.922417">
        <ele>1147.008</ele>
        <time>1999-11-30T00:00:00Z</time>
      </trkpt>
      <trkpt lat="40.718755" lon="-1.921995">
        <ele>1146.045</ele>
        <time>1999-11-30T00:00:00Z</time>
      </trkpt>
      <trkpt lat="40.718646" lon="-1.921711">
        <ele>1145.089</ele>
        <time>1999-11-30T00:00:00Z</time>
      </trkpt>
      <trkpt lat="40.718394" lon="-1.921418">
        <ele>1145.040</ele>
        <time>1999-11-30T00:00:00Z</time>
      </trkpt>
      <trkpt lat="40.718036" lon="-1.92105">
        <ele>1145.064</ele>
        <time>1999-11-30T00:00:00Z</time>
      </trkpt>
      <trkpt lat="40.716993" lon="-1.919913">
        <ele>1147.049</ele>
        <time>1999-11-30T00:00:00Z</time>
      </trkpt>
      <trkpt lat="40.716363" lon="-1.919224">
        <ele>1149.098</ele>
        <time>1999-11-30T00:00:00Z</time>
      </trkpt>
      <trkpt lat="40.716088" lon="-1.918836">
        <ele>1152.059</ele>
        <time>1999-11-30T00:00:00Z</time>
      </trkpt>
      <trkpt lat="40.715875" lon="-1.918459">
        <ele>1155.027</ele>
        <time>1999-11-30T00:00:00Z</time>
      </trkpt>
      <trkpt lat="40.715481" lon="-1.917724">
        <ele>1152.079</ele>
        <time>1999-11-30T00:00:00Z</time>
      </trkpt>
      <trkpt lat="40.715276" lon="-1.917443">
        <ele>1149.005</ele>
        <time>1999-11-30T00:00:00Z</time>
      </trkpt>
      <trkpt lat="40.714801" lon="-1.916974">
        <ele>1152.025</ele>
        <time>1999-11-30T00:00:00Z</time>
      </trkpt>
      <trkpt lat="40.714255" lon="-1.916444">
        <ele>1151.008</ele>
        <time>1999-11-30T00:00:00Z</time>
      </trkpt>
      <trkpt lat="40.713986" lon="-1.916197">
        <ele>1151.078</ele>
        <time>1999-11-30T00:00:00Z</time>
      </trkpt>
      <trkpt lat="40.713807" lon="-1.916108">
        <ele>1150.012</ele>
        <time>1999-11-30T00:00:00Z</time>
      </trkpt>
      <trkpt lat="40.712442" lon="-1.915564">
        <ele>1156.073</ele>
        <time>1999-11-30T00:00:00Z</time>
      </trkpt>
      <trkpt lat="40.712096" lon="-1.915389">
        <ele>1157.017</ele>
        <time>1999-11-30T00:00:00Z</time>
      </trkpt>
      <trkpt lat="40.711137" lon="-1.91487">
        <ele>1158.082</ele>
        <time>1999-11-30T00:00:00Z</time>
      </trkpt>
      <trkpt lat="40.71058" lon="-1.914549">
        <ele>1158.041</ele>
        <time>1999-11-30T00:00:00Z</time>
      </trkpt>
      <trkpt lat="40.710181" lon="-1.914176">
        <ele>1159.072</ele>
        <time>1999-11-30T00:00:00Z</time>
      </trkpt>
      <trkpt lat="40.70942" lon="-1.913374">
        <ele>1159.010</ele>
        <time>1999-11-30T00:00:00Z</time>
      </trkpt>
      <trkpt lat="40.709007" lon="-1.912961">
        <ele>1159.018</ele>
        <time>1999-11-30T00:00:00Z</time>
      </trkpt>
      <trkpt lat="40.707595" lon="-1.912062">
        <ele>1159.098</ele>
        <time>1999-11-30T00:00:00Z</time>
      </trkpt>
      <trkpt lat="40.707195" lon="-1.91182">
        <ele>1159.017</ele>
        <time>1999-11-30T00:00:00Z</time>
      </trkpt>
      <trkpt lat="40.706623" lon="-1.911521">
        <ele>1160.008</ele>
        <time>1999-11-30T00:00:00Z</time>
      </trkpt>
      <trkpt lat="40.706356" lon="-1.911441">
        <ele>1160.062</ele>
        <time>1999-11-30T00:00:00Z</time>
      </trkpt>
      <trkpt lat="40.705972" lon="-1.911458">
        <ele>1160.056</ele>
        <time>1999-11-30T00:00:00Z</time>
      </trkpt>
      <trkpt lat="40.705572" lon="-1.911493">
        <ele>1160.047</ele>
        <time>1999-11-30T00:00:00Z</time>
      </trkpt>
      <trkpt lat="40.705428" lon="-1.911467">
        <ele>1160.081</ele>
        <time>1999-11-30T00:00:00Z</time>
      </trkpt>
      <trkpt lat="40.705344" lon="-1.911381">
        <ele>1161.066</ele>
        <time>1999-11-30T00:00:00Z</time>
      </trkpt>
      <trkpt lat="40.705244" lon="-1.911181">
        <ele>1161.085</ele>
        <time>1999-11-30T00:00:00Z</time>
      </trkpt>
      <trkpt lat="40.705082" lon="-1.910819">
        <ele>1162.036</ele>
        <time>1999-11-30T00:00:00Z</time>
      </trkpt>
      <trkpt lat="40.704909" lon="-1.910357">
        <ele>1164.054</ele>
        <time>1999-11-30T00:00:00Z</time>
      </trkpt>
      <trkpt lat="40.704783" lon="-1.910147">
        <ele>1165.091</ele>
        <time>1999-11-30T00:00:00Z</time>
      </trkpt>
      <trkpt lat="40.7046" lon="-1.910032">
        <ele>1165.081</ele>
        <time>1999-11-30T00:00:00Z</time>
      </trkpt>
      <trkpt lat="40.704258" lon="-1.91">
        <ele>1166.019</ele>
        <time>1999-11-30T00:00:00Z</time>
      </trkpt>
      <trkpt lat="40.703842" lon="-1.909975">
        <ele>1167.008</ele>
        <time>1999-11-30T00:00:00Z</time>
      </trkpt>
      <trkpt lat="40.703435" lon="-1.909843">
        <ele>1168.050</ele>
        <time>1999-11-30T00:00:00Z</time>
      </trkpt>
      <trkpt lat="40.702773" lon="-1.909587">
        <ele>1166.084</ele>
        <time>1999-11-30T00:00:00Z</time>
      </trkpt>
      <trkpt lat="40.702128" lon="-1.909344">
        <ele>1165.075</ele>
        <time>1999-11-30T00:00:00Z</time>
      </trkpt>
      <trkpt lat="40.701869" lon="-1.909175">
        <ele>1164.049</ele>
        <time>1999-11-30T00:00:00Z</time>
      </trkpt>
      <trkpt lat="40.701597" lon="-1.908866">
        <ele>1164.074</ele>
        <time>1999-11-30T00:00:00Z</time>
      </trkpt>
      <trkpt lat="40.701012" lon="-1.908229">
        <ele>1163.063</ele>
        <time>1999-11-30T00:00:00Z</time>
      </trkpt>
      <trkpt lat="40.699588" lon="-1.906664">
        <ele>1166.054</ele>
        <time>1999-11-30T00:00:00Z</time>
      </trkpt>
      <trkpt lat="40.698676" lon="-1.90562">
        <ele>1168.022</ele>
        <time>1999-11-30T00:00:00Z</time>
      </trkpt>
      <trkpt lat="40.698239" lon="-1.905179">
        <ele>1169.098</ele>
        <time>1999-11-30T00:00:00Z</time>
      </trkpt>
      <trkpt lat="40.697987" lon="-1.904728">
        <ele>1169.015</ele>
        <time>1999-11-30T00:00:00Z</time>
      </trkpt>
      <trkpt lat="40.697795" lon="-1.904385">
        <ele>1168.026</ele>
        <time>1999-11-30T00:00:00Z</time>
      </trkpt>
      <trkpt lat="40.697673" lon="-1.904506">
        <ele>1168.008</ele>
        <time>1999-11-30T00:00:00Z</time>
      </trkpt>
      <trkpt lat="40.697559" lon="-1.904688">
        <ele>1168.030</ele>
        <time>1999-11-30T00:00:00Z</time>
      </trkpt>
      <trkpt lat="40.697392" lon="-1.904767">
        <ele>1168.014</ele>
        <time>1999-11-30T00:00:00Z</time>
      </trkpt>
      <trkpt lat="40.697023" lon="-1.904744">
        <ele>1169.065</ele>
        <time>1999-11-30T00:00:00Z</time>
      </trkpt>
      <trkpt lat="40.696776" lon="-1.904706">
        <ele>1170.089</ele>
        <time>1999-11-30T00:00:00Z</time>
      </trkpt>
      <trkpt lat="40.696726" lon="-1.90467">
        <ele>1169.074</ele>
        <time>1999-11-30T00:00:00Z</time>
      </trkpt>
      <trkpt lat="40.696384" lon="-1.904359">
        <ele>1169.073</ele>
        <time>1999-11-30T00:00:00Z</time>
      </trkpt>
      <trkpt lat="40.696089" lon="-1.904098">
        <ele>1169.054</ele>
        <time>1999-11-30T00:00:00Z</time>
      </trkpt>
      <trkpt lat="40.695726" lon="-1.903923">
        <ele>1170.012</ele>
        <time>1999-11-30T00:00:00Z</time>
      </trkpt>
      <trkpt lat="40.695414" lon="-1.903783">
        <ele>1171.049</ele>
        <time>1999-11-30T00:00:00Z</time>
      </trkpt>
      <trkpt lat="40.695029" lon="-1.903461">
        <ele>1171.002</ele>
        <time>1999-11-30T00:00:00Z</time>
      </trkpt>
      <trkpt lat="40.694717" lon="-1.90328">
        <ele>1172.022</ele>
        <time>1999-11-30T00:00:00Z</time>
      </trkpt>
      <trkpt lat="40.694442" lon="-1.903256">
        <ele>1173.008</ele>
        <time>1999-11-30T00:00:00Z</time>
      </trkpt>
      <trkpt lat="40.69403" lon="-1.903289">
        <ele>1174.085</ele>
        <time>1999-11-30T00:00:00Z</time>
      </trkpt>
      <trkpt lat="40.693845" lon="-1.903278">
        <ele>1174.049</ele>
        <time>1999-11-30T00:00:00Z</time>
      </trkpt>
      <trkpt lat="40.693782" lon="-1.903206">
        <ele>1174.050</ele>
        <time>1999-11-30T00:00:00Z</time>
      </trkpt>
      <trkpt lat="40.693856" lon="-1.902841">
        <ele>1172.044</ele>
        <time>1999-11-30T00:00:00Z</time>
      </trkpt>
      <trkpt lat="40.694007" lon="-1.902297">
        <ele>1170.079</ele>
        <time>1999-11-30T00:00:00Z</time>
      </trkpt>
      <trkpt lat="40.694086" lon="-1.902014">
        <ele>1170.088</ele>
        <time>1999-11-30T00:00:00Z</time>
      </trkpt>
      <trkpt lat="40.694182" lon="-1.901763">
        <ele>1170.019</ele>
        <time>1999-11-30T00:00:00Z</time>
      </trkpt>
      <trkpt lat="40.694181" lon="-1.901588">
        <ele>1172.087</ele>
        <time>1999-11-30T00:00:00Z</time>
      </trkpt>
      <trkpt lat="40.694143" lon="-1.901403">
        <ele>1173.023</ele>
        <time>1999-11-30T00:00:00Z</time>
      </trkpt>
      <trkpt lat="40.694092" lon="-1.901217">
        <ele>1175.083</ele>
        <time>1999-11-30T00:00:00Z</time>
      </trkpt>
      <trkpt lat="40.693829" lon="-1.900775">
        <ele>1173.011</ele>
        <time>1999-11-30T00:00:00Z</time>
      </trkpt>
      <trkpt lat="40.693597" lon="-1.900413">
        <ele>1173.008</ele>
        <time>1999-11-30T00:00:00Z</time>
      </trkpt>
      <trkpt lat="40.6938" lon="-1.899904">
        <ele>1174.093</ele>
        <time>1999-11-30T00:00:00Z</time>
      </trkpt>
      <trkpt lat="40.694217" lon="-1.899023">
        <ele>1174.017</ele>
        <time>1999-11-30T00:00:00Z</time>
      </trkpt>
      <trkpt lat="40.694409" lon="-1.898363">
        <ele>1175.068</ele>
        <time>1999-11-30T00:00:00Z</time>
      </trkpt>
      <trkpt lat="40.69452" lon="-1.897779">
        <ele>1177.062</ele>
        <time>1999-11-30T00:00:00Z</time>
      </trkpt>
      <trkpt lat="40.694631" lon="-1.897315">
        <ele>1178.097</ele>
        <time>1999-11-30T00:00:00Z</time>
      </trkpt>
      <trkpt lat="40.694689" lon="-1.897019">
        <ele>1178.076</ele>
        <time>1999-11-30T00:00:00Z</time>
      </trkpt>
      <trkpt lat="40.694688" lon="-1.89689">
        <ele>1178.047</ele>
        <time>1999-11-30T00:00:00Z</time>
      </trkpt>
      <trkpt lat="40.694609" lon="-1.896761">
        <ele>1177.065</ele>
        <time>1999-11-30T00:00:00Z</time>
      </trkpt>
      <trkpt lat="40.694113" lon="-1.896353">
        <ele>1176.041</ele>
        <time>1999-11-30T00:00:00Z</time>
      </trkpt>
      <trkpt lat="40.693763" lon="-1.895994">
        <ele>1177.081</ele>
        <time>1999-11-30T00:00:00Z</time>
      </trkpt>
      <trkpt lat="40.693459" lon="-1.895774">
        <ele>1178.009</ele>
        <time>1999-11-30T00:00:00Z</time>
      </trkpt>
      <trkpt lat="40.69308" lon="-1.895588">
        <ele>1188.008</ele>
        <time>1999-11-30T00:00:00Z</time>
      </trkpt>
      <trkpt lat="40.692703" lon="-1.895433">
        <ele>1196.065</ele>
        <time>1999-11-30T00:00:00Z</time>
      </trkpt>
      <trkpt lat="40.692553" lon="-1.895255">
        <ele>1198.089</ele>
        <time>1999-11-30T00:00:00Z</time>
      </trkpt>
      <trkpt lat="40.692363" lon="-1.89486">
        <ele>1197.080</ele>
        <time>1999-11-30T00:00:00Z</time>
      </trkpt>
      <trkpt lat="40.692188" lon="-1.894491">
        <ele>1197.014</ele>
        <time>1999-11-30T00:00:00Z</time>
      </trkpt>
      <trkpt lat="40.692043" lon="-1.894171">
        <ele>1197.089</ele>
        <time>1999-11-30T00:00:00Z</time>
      </trkpt>
      <trkpt lat="40.6919" lon="-1.893682">
        <ele>1193.038</ele>
        <time>1999-11-30T00:00:00Z</time>
      </trkpt>
      <trkpt lat="40.691834" lon="-1.89305">
        <ele>1190.029</ele>
        <time>1999-11-30T00:00:00Z</time>
      </trkpt>
      <trkpt lat="40.6918" lon="-1.892598">
        <ele>1188.057</ele>
        <time>1999-11-30T00:00:00Z</time>
      </trkpt>
      <trkpt lat="40.691751" lon="-1.892073">
        <ele>1186.089</ele>
        <time>1999-11-30T00:00:00Z</time>
      </trkpt>
      <trkpt lat="40.691672" lon="-1.891827">
        <ele>1186.006</ele>
        <time>1999-11-30T00:00:00Z</time>
      </trkpt>
      <trkpt lat="40.691519" lon="-1.891637">
        <ele>1186.026</ele>
        <time>1999-11-30T00:00:00Z</time>
      </trkpt>
      <trkpt lat="40.691059" lon="-1.891193">
        <ele>1188.008</ele>
        <time>1999-11-30T00:00:00Z</time>
      </trkpt>
      <trkpt lat="40.690737" lon="-1.890917">
        <ele>1188.059</ele>
        <time>1999-11-30T00:00:00Z</time>
      </trkpt>
      <trkpt lat="40.690513" lon="-1.890783">
        <ele>1189.043</ele>
        <time>1999-11-30T00:00:00Z</time>
      </trkpt>
      <trkpt lat="40.690341" lon="-1.890742">
        <ele>1189.014</ele>
        <time>1999-11-30T00:00:00Z</time>
      </trkpt>
      <trkpt lat="40.690168" lon="-1.890603">
        <ele>1189.058</ele>
        <time>1999-11-30T00:00:00Z</time>
      </trkpt>
      <trkpt lat="40.690002" lon="-1.890303">
        <ele>1189.093</ele>
        <time>1999-11-30T00:00:00Z</time>
      </trkpt>
      <trkpt lat="40.689871" lon="-1.890052">
        <ele>1189.072</ele>
        <time>1999-11-30T00:00:00Z</time>
      </trkpt>
      <trkpt lat="40.689758" lon="-1.889961">
        <ele>1189.043</ele>
        <time>1999-11-30T00:00:00Z</time>
      </trkpt>
      <trkpt lat="40.68946" lon="-1.889875">
        <ele>1189.021</ele>
        <time>1999-11-30T00:00:00Z</time>
      </trkpt>
      <trkpt lat="40.688977" lon="-1.889764">
        <ele>1189.051</ele>
        <time>1999-11-30T00:00:00Z</time>
      </trkpt>
      <trkpt lat="40.688337" lon="-1.889595">
        <ele>1188.001</ele>
        <time>1999-11-30T00:00:00Z</time>
      </trkpt>
      <trkpt lat="40.687983" lon="-1.889517">
        <ele>1190.011</ele>
        <time>1999-11-30T00:00:00Z</time>
      </trkpt>
      <trkpt lat="40.687821" lon="-1.889394">
        <ele>1190.008</ele>
        <time>1999-11-30T00:00:00Z</time>
      </trkpt>
      <trkpt lat="40.68764" lon="-1.889174">
        <ele>1193.046</ele>
        <time>1999-11-30T00:00:00Z</time>
      </trkpt>
      <trkpt lat="40.687192" lon="-1.888545">
        <ele>1197.080</ele>
        <time>1999-11-30T00:00:00Z</time>
      </trkpt>
      <trkpt lat="40.686687" lon="-1.887856">
        <ele>1200.051</ele>
        <time>1999-11-30T00:00:00Z</time>
      </trkpt>
      <trkpt lat="40.686214" lon="-1.886957">
        <ele>1199.085</ele>
        <time>1999-11-30T00:00:00Z</time>
      </trkpt>
      <trkpt lat="40.68565" lon="-1.885927">
        <ele>1199.080</ele>
        <time>1999-11-30T00:00:00Z</time>
      </trkpt>
      <trkpt lat="40.685323" lon="-1.885328">
        <ele>1210.049</ele>
        <time>1999-11-30T00:00:00Z</time>
      </trkpt>
      <trkpt lat="40.685136" lon="-1.884773">
        <ele>1216.010</ele>
        <time>1999-11-30T00:00:00Z</time>
      </trkpt>
      <trkpt lat="40.685034" lon="-1.884577">
        <ele>1216.068</ele>
        <time>1999-11-30T00:00:00Z</time>
      </trkpt>
      <trkpt lat="40.684752" lon="-1.884282">
        <ele>1214.032</ele>
        <time>1999-11-30T00:00:00Z</time>
      </trkpt>
      <trkpt lat="40.683863" lon="-1.883472">
        <ele>1214.092</ele>
        <time>1999-11-30T00:00:00Z</time>
      </trkpt>
      <trkpt lat="40.683334" lon="-1.883051">
        <ele>1214.011</ele>
        <time>1999-11-30T00:00:00Z</time>
      </trkpt>
      <trkpt lat="40.682992" lon="-1.882797">
        <ele>1215.008</ele>
        <time>1999-11-30T00:00:00Z</time>
      </trkpt>
      <trkpt lat="40.682737" lon="-1.882694">
        <ele>1214.074</ele>
        <time>1999-11-30T00:00:00Z</time>
      </trkpt>
      <trkpt lat="40.682233" lon="-1.882499">
        <ele>1211.098</ele>
        <time>1999-11-30T00:00:00Z</time>
      </trkpt>
      <trkpt lat="40.681766" lon="-1.882275">
        <ele>1208.029</ele>
        <time>1999-11-30T00:00:00Z</time>
      </trkpt>
      <trkpt lat="40.681226" lon="-1.882064">
        <ele>1208.093</ele>
        <time>1999-11-30T00:00:00Z</time>
      </trkpt>
      <trkpt lat="40.681022" lon="-1.881813">
        <ele>1209.028</ele>
        <time>1999-11-30T00:00:00Z</time>
      </trkpt>
      <trkpt lat="40.680608" lon="-1.88125">
        <ele>1210.087</ele>
        <time>1999-11-30T00:00:00Z</time>
      </trkpt>
      <trkpt lat="40.680456" lon="-1.881111">
        <ele>1211.038</ele>
        <time>1999-11-30T00:00:00Z</time>
      </trkpt>
      <trkpt lat="40.680307" lon="-1.881045">
        <ele>1211.036</ele>
        <time>1999-11-30T00:00:00Z</time>
      </trkpt>
      <trkpt lat="40.680106" lon="-1.881009">
        <ele>1211.032</ele>
        <time>1999-11-30T00:00:00Z</time>
      </trkpt>
      <trkpt lat="40.679793" lon="-1.880849">
        <ele>1213.092</ele>
        <time>1999-11-30T00:00:00Z</time>
      </trkpt>
      <trkpt lat="40.679623" lon="-1.880795">
        <ele>1214.011</ele>
        <time>1999-11-30T00:00:00Z</time>
      </trkpt>
      <trkpt lat="40.679428" lon="-1.880672">
        <ele>1215.008</ele>
        <time>1999-11-30T00:00:00Z</time>
      </trkpt>
      <trkpt lat="40.679311" lon="-1.880689">
        <ele>1214.044</ele>
        <time>1999-11-30T00:00:00Z</time>
      </trkpt>
      <trkpt lat="40.679184" lon="-1.88077">
        <ele>1215.018</ele>
        <time>1999-11-30T00:00:00Z</time>
      </trkpt>
      <trkpt lat="40.679001" lon="-1.880802">
        <ele>1217.049</ele>
        <time>1999-11-30T00:00:00Z</time>
      </trkpt>
      <trkpt lat="40.678747" lon="-1.880813">
        <ele>1221.023</ele>
        <time>1999-11-30T00:00:00Z</time>
      </trkpt>
      <trkpt lat="40.67854" lon="-1.88082">
        <ele>1224.018</ele>
        <time>1999-11-30T00:00:00Z</time>
      </trkpt>
      <trkpt lat="40.678329" lon="-1.880748">
        <ele>1224.077</ele>
        <time>1999-11-30T00:00:00Z</time>
      </trkpt>
      <trkpt lat="40.678183" lon="-1.88061">
        <ele>1223.088</ele>
        <time>1999-11-30T00:00:00Z</time>
      </trkpt>
      <trkpt lat="40.677831" lon="-1.880327">
        <ele>1224.046</ele>
        <time>1999-11-30T00:00:00Z</time>
      </trkpt>
      <trkpt lat="40.677587" lon="-1.88018">
        <ele>1228.022</ele>
        <time>1999-11-30T00:00:00Z</time>
      </trkpt>
      <trkpt lat="40.677167" lon="-1.880057">
        <ele>1234.062</ele>
        <time>1999-11-30T00:00:00Z</time>
      </trkpt>
      <trkpt lat="40.676614" lon="-1.879994">
        <ele>1239.008</ele>
        <time>1999-11-30T00:00:00Z</time>
      </trkpt>
      <trkpt lat="40.676225" lon="-1.879948">
        <ele>1241.008</ele>
        <time>1999-11-30T00:00:00Z</time>
      </trkpt>
      <trkpt lat="40.676019" lon="-1.879962">
        <ele>1241.063</ele>
        <time>1999-11-30T00:00:00Z</time>
      </trkpt>
      <trkpt lat="40.675896" lon="-1.880068">
        <ele>1241.087</ele>
        <time>1999-11-30T00:00:00Z</time>
      </trkpt>
      <trkpt lat="40.675776" lon="-1.88025">
        <ele>1241.078</ele>
        <time>1999-11-30T00:00:00Z</time>
      </trkpt>
      <trkpt lat="40.675588" lon="-1.88052">
        <ele>1239.082</ele>
        <time>1999-11-30T00:00:00Z</time>
      </trkpt>
      <trkpt lat="40.675492" lon="-1.880577">
        <ele>1238.097</ele>
        <time>1999-11-30T00:00:00Z</time>
      </trkpt>
      <trkpt lat="40.675333" lon="-1.880629">
        <ele>1237.036</ele>
        <time>1999-11-30T00:00:00Z</time>
      </trkpt>
      <trkpt lat="40.674406" lon="-1.880702">
        <ele>1236.027</ele>
        <time>1999-11-30T00:00:00Z</time>
      </trkpt>
      <trkpt lat="40.67393" lon="-1.880736">
        <ele>1236.045</ele>
        <time>1999-11-30T00:00:00Z</time>
      </trkpt>
      <trkpt lat="40.673533" lon="-1.880773">
        <ele>1240.099</ele>
        <time>1999-11-30T00:00:00Z</time>
      </trkpt>
      <trkpt lat="40.673357" lon="-1.880784">
        <ele>1242.007</ele>
        <time>1999-11-30T00:00:00Z</time>
      </trkpt>
      <trkpt lat="40.673195" lon="-1.88081">
        <ele>1245.027</ele>
        <time>1999-11-30T00:00:00Z</time>
      </trkpt>
      <trkpt lat="40.673095" lon="-1.880893">
        <ele>1247.008</ele>
        <time>1999-11-30T00:00:00Z</time>
      </trkpt>
      <trkpt lat="40.672929" lon="-1.881165">
        <ele>1248.070</ele>
        <time>1999-11-30T00:00:00Z</time>
      </trkpt>
      <trkpt lat="40.672784" lon="-1.881508">
        <ele>1252.034</ele>
        <time>1999-11-30T00:00:00Z</time>
      </trkpt>
      <trkpt lat="40.672741" lon="-1.881713">
        <ele>1255.045</ele>
        <time>1999-11-30T00:00:00Z</time>
      </trkpt>
      <trkpt lat="40.672737" lon="-1.881944">
        <ele>1257.069</ele>
        <time>1999-11-30T00:00:00Z</time>
      </trkpt>
      <trkpt lat="40.672759" lon="-1.88243">
        <ele>1261.084</ele>
        <time>1999-11-30T00:00:00Z</time>
      </trkpt>
      <trkpt lat="40.672802" lon="-1.88307">
        <ele>1265.033</ele>
        <time>1999-11-30T00:00:00Z</time>
      </trkpt>
      <trkpt lat="40.672843" lon="-1.883592">
        <ele>1269.084</ele>
        <time>1999-11-30T00:00:00Z</time>
      </trkpt>
      <trkpt lat="40.672923" lon="-1.88408">
        <ele>1276.012</ele>
        <time>1999-11-30T00:00:00Z</time>
      </trkpt>
      <trkpt lat="40.672956" lon="-1.88429">
        <ele>1277.027</ele>
        <time>1999-11-30T00:00:00Z</time>
      </trkpt>
      <trkpt lat="40.672958" lon="-1.884496">
        <ele>1279.068</ele>
        <time>1999-11-30T00:00:00Z</time>
      </trkpt>
      <trkpt lat="40.672925" lon="-1.884614">
        <ele>1281.014</ele>
        <time>1999-11-30T00:00:00Z</time>
      </trkpt>
      <trkpt lat="40.672832" lon="-1.884784">
        <ele>1285.008</ele>
        <time>1999-11-30T00:00:00Z</time>
      </trkpt>
      <trkpt lat="40.672666" lon="-1.884944">
        <ele>1291.023</ele>
        <time>1999-11-30T00:00:00Z</time>
      </trkpt>
      <trkpt lat="40.672506" lon="-1.884971">
        <ele>1295.067</ele>
        <time>1999-11-30T00:00:00Z</time>
      </trkpt>
      <trkpt lat="40.672396" lon="-1.884914">
        <ele>1298.018</ele>
        <time>1999-11-30T00:00:00Z</time>
      </trkpt>
      <trkpt lat="40.672267" lon="-1.88476">
        <ele>1299.022</ele>
        <time>1999-11-30T00:00:00Z</time>
      </trkpt>
      <trkpt lat="40.672083" lon="-1.884563">
        <ele>1301.017</ele>
        <time>1999-11-30T00:00:00Z</time>
      </trkpt>
      <trkpt lat="40.67179" lon="-1.884219">
        <ele>1304.046</ele>
        <time>1999-11-30T00:00:00Z</time>
      </trkpt>
      <trkpt lat="40.671448" lon="-1.883823">
        <ele>1308.017</ele>
        <time>1999-11-30T00:00:00Z</time>
      </trkpt>
      <trkpt lat="40.671209" lon="-1.883619">
        <ele>1309.025</ele>
        <time>1999-11-30T00:00:00Z</time>
      </trkpt>
      <trkpt lat="40.670972" lon="-1.883469">
        <ele>1310.077</ele>
        <time>1999-11-30T00:00:00Z</time>
      </trkpt>
      <trkpt lat="40.670768" lon="-1.883399">
        <ele>1310.061</ele>
        <time>1999-11-30T00:00:00Z</time>
      </trkpt>
      <trkpt lat="40.67058" lon="-1.883385">
        <ele>1311.027</ele>
        <time>1999-11-30T00:00:00Z</time>
      </trkpt>
      <trkpt lat="40.670352" lon="-1.883444">
        <ele>1312.008</ele>
        <time>1999-11-30T00:00:00Z</time>
      </trkpt>
      <trkpt lat="40.669912" lon="-1.883642">
        <ele>1312.038</ele>
        <time>1999-11-30T00:00:00Z</time>
      </trkpt>
      <trkpt lat="40.66957" lon="-1.883801">
        <ele>1313.042</ele>
        <time>1999-11-30T00:00:00Z</time>
      </trkpt>
      <trkpt lat="40.669427" lon="-1.883823">
        <ele>1313.043</ele>
        <time>1999-11-30T00:00:00Z</time>
      </trkpt>
      <trkpt lat="40.669274" lon="-1.883738">
        <ele>1312.087</ele>
        <time>1999-11-30T00:00:00Z</time>
      </trkpt>
      <trkpt lat="40.668781" lon="-1.88334">
        <ele>1314.022</ele>
        <time>1999-11-30T00:00:00Z</time>
      </trkpt>
      <trkpt lat="40.667901" lon="-1.882545">
        <ele>1330.061</ele>
        <time>1999-11-30T00:00:00Z</time>
      </trkpt>
      <trkpt lat="40.66723" lon="-1.88205">
        <ele>1327.022</ele>
        <time>1999-11-30T00:00:00Z</time>
      </trkpt>
      <trkpt lat="40.666531" lon="-1.881731">
        <ele>1322.050</ele>
        <time>1999-11-30T00:00:00Z</time>
      </trkpt>
      <trkpt lat="40.666291" lon="-1.881665">
        <ele>1325.045</ele>
        <time>1999-11-30T00:00:00Z</time>
      </trkpt>
      <trkpt lat="40.665689" lon="-1.881728">
        <ele>1332.047</ele>
        <time>1999-11-30T00:00:00Z</time>
      </trkpt>
      <trkpt lat="40.665311" lon="-1.881794">
        <ele>1333.011</ele>
        <time>1999-11-30T00:00:00Z</time>
      </trkpt>
      <trkpt lat="40.665158" lon="-1.881745">
        <ele>1332.008</ele>
        <time>1999-11-30T00:00:00Z</time>
      </trkpt>
      <trkpt lat="40.664825" lon="-1.881455">
        <ele>1332.065</ele>
        <time>1999-11-30T00:00:00Z</time>
      </trkpt>
      <trkpt lat="40.664459" lon="-1.881296">
        <ele>1339.019</ele>
        <time>1999-11-30T00:00:00Z</time>
      </trkpt>
      <trkpt lat="40.66421" lon="-1.88126">
        <ele>1342.070</ele>
        <time>1999-11-30T00:00:00Z</time>
      </trkpt>
      <trkpt lat="40.663889" lon="-1.881366">
        <ele>1346.024</ele>
        <time>1999-11-30T00:00:00Z</time>
      </trkpt>
      <trkpt lat="40.663547" lon="-1.881586">
        <ele>1351.059</ele>
        <time>1999-11-30T00:00:00Z</time>
      </trkpt>
      <trkpt lat="40.663229" lon="-1.881842">
        <ele>1355.048</ele>
        <time>1999-11-30T00:00:00Z</time>
      </trkpt>
      <trkpt lat="40.663149" lon="-1.881964">
        <ele>1356.069</ele>
        <time>1999-11-30T00:00:00Z</time>
      </trkpt>
      <trkpt lat="40.663102" lon="-1.88215">
        <ele>1355.017</ele>
        <time>1999-11-30T00:00:00Z</time>
      </trkpt>
      <trkpt lat="40.662969" lon="-1.883112">
        <ele>1371.095</ele>
        <time>1999-11-30T00:00:00Z</time>
      </trkpt>
      <trkpt lat="40.662943" lon="-1.883471">
        <ele>1378.049</ele>
        <time>1999-11-30T00:00:00Z</time>
      </trkpt>
      <trkpt lat="40.662983" lon="-1.883652">
        <ele>1380.023</ele>
        <time>1999-11-30T00:00:00Z</time>
      </trkpt>
      <trkpt lat="40.663088" lon="-1.883842">
        <ele>1381.008</ele>
        <time>1999-11-30T00:00:00Z</time>
      </trkpt>
      <trkpt lat="40.663311" lon="-1.884144">
        <ele>1381.010</ele>
        <time>1999-11-30T00:00:00Z</time>
      </trkpt>
      <trkpt lat="40.663716" lon="-1.884575">
        <ele>1380.044</ele>
        <time>1999-11-30T00:00:00Z</time>
      </trkpt>
      <trkpt lat="40.663889" lon="-1.884772">
        <ele>1379.035</ele>
        <time>1999-11-30T00:00:00Z</time>
      </trkpt>
      <trkpt lat="40.663963" lon="-1.88491">
        <ele>1378.099</ele>
        <time>1999-11-30T00:00:00Z</time>
      </trkpt>
      <trkpt lat="40.663951" lon="-1.885083">
        <ele>1378.084</ele>
        <time>1999-11-30T00:00:00Z</time>
      </trkpt>
      <trkpt lat="40.663782" lon="-1.885514">
        <ele>1381.023</ele>
        <time>1999-11-30T00:00:00Z</time>
      </trkpt>
      <trkpt lat="40.663241" lon="-1.886654">
        <ele>1398.034</ele>
        <time>1999-11-30T00:00:00Z</time>
      </trkpt>
      <trkpt lat="40.663121" lon="-1.887005">
        <ele>1399.092</ele>
        <time>1999-11-30T00:00:00Z</time>
      </trkpt>
      <trkpt lat="40.663025" lon="-1.886745">
        <ele>1399.056</ele>
        <time>1999-11-30T00:00:00Z</time>
      </trkpt>
      <trkpt lat="40.662885" lon="-1.88667">
        <ele>1400.059</ele>
        <time>1999-11-30T00:00:00Z</time>
      </trkpt>
      <trkpt lat="40.662732" lon="-1.886681">
        <ele>1400.014</ele>
        <time>1999-11-30T00:00:00Z</time>
      </trkpt>
      <trkpt lat="40.662577" lon="-1.886621">
        <ele>1400.008</ele>
        <time>1999-11-30T00:00:00Z</time>
      </trkpt>
      <trkpt lat="40.66248" lon="-1.886458">
        <ele>1401.026</ele>
        <time>1999-11-30T00:00:00Z</time>
      </trkpt>
      <trkpt lat="40.662212" lon="-1.886064">
        <ele>1402.080</ele>
        <time>1999-11-30T00:00:00Z</time>
      </trkpt>
      <trkpt lat="40.661979" lon="-1.885758">
        <ele>1402.041</ele>
        <time>1999-11-30T00:00:00Z</time>
      </trkpt>
      <trkpt lat="40.661757" lon="-1.885496">
        <ele>1401.015</ele>
        <time>1999-11-30T00:00:00Z</time>
      </trkpt>
      <trkpt lat="40.661554" lon="-1.885357">
        <ele>1401.010</ele>
        <time>1999-11-30T00:00:00Z</time>
      </trkpt>
      <trkpt lat="40.661419" lon="-1.885254">
        <ele>1401.089</ele>
        <time>1999-11-30T00:00:00Z</time>
      </trkpt>
      <trkpt lat="40.661275" lon="-1.885171">
        <ele>1401.020</ele>
        <time>1999-11-30T00:00:00Z</time>
      </trkpt>
      <trkpt lat="40.661092" lon="-1.885049">
        <ele>1401.078</ele>
        <time>1999-11-30T00:00:00Z</time>
      </trkpt>
      <trkpt lat="40.660935" lon="-1.884946">
        <ele>1401.065</ele>
        <time>1999-11-30T00:00:00Z</time>
      </trkpt>
      <trkpt lat="40.660808" lon="-1.884848">
        <ele>1402.068</ele>
        <time>1999-11-30T00:00:00Z</time>
      </trkpt>
      <trkpt lat="40.66063" lon="-1.884414">
        <ele>1401.014</ele>
        <time>1999-11-30T00:00:00Z</time>
      </trkpt>
      <trkpt lat="40.660579" lon="-1.884143">
        <ele>1401.008</ele>
        <time>1999-11-30T00:00:00Z</time>
      </trkpt>
      <trkpt lat="40.660498" lon="-1.884">
        <ele>1401.047</ele>
        <time>1999-11-30T00:00:00Z</time>
      </trkpt>
      <trkpt lat="40.660373" lon="-1.88391">
        <ele>1401.061</ele>
        <time>1999-11-30T00:00:00Z</time>
      </trkpt>
      <trkpt lat="40.660135" lon="-1.883807">
        <ele>1401.012</ele>
        <time>1999-11-30T00:00:00Z</time>
      </trkpt>
      <trkpt lat="40.659963" lon="-1.883673">
        <ele>1401.026</ele>
        <time>1999-11-30T00:00:00Z</time>
      </trkpt>
      <trkpt lat="40.659732" lon="-1.883589">
        <ele>1400.091</ele>
        <time>1999-11-30T00:00:00Z</time>
      </trkpt>
      <trkpt lat="40.659587" lon="-1.88348">
        <ele>1400.060</ele>
        <time>1999-11-30T00:00:00Z</time>
      </trkpt>
      <trkpt lat="40.659446" lon="-1.883289">
        <ele>1400.021</ele>
        <time>1999-11-30T00:00:00Z</time>
      </trkpt>
      <trkpt lat="40.659311" lon="-1.883053">
        <ele>1400.019</ele>
        <time>1999-11-30T00:00:00Z</time>
      </trkpt>
      <trkpt lat="40.659208" lon="-1.882916">
        <ele>1400.033</ele>
        <time>1999-11-30T00:00:00Z</time>
      </trkpt>
      <trkpt lat="40.659025" lon="-1.882752">
        <ele>1401.023</ele>
        <time>1999-11-30T00:00:00Z</time>
      </trkpt>
      <trkpt lat="40.658817" lon="-1.882631">
        <ele>1401.015</ele>
        <time>1999-11-30T00:00:00Z</time>
      </trkpt>
      <trkpt lat="40.658664" lon="-1.882448">
        <ele>1403.008</ele>
        <time>1999-11-30T00:00:00Z</time>
      </trkpt>
      <trkpt lat="40.658488" lon="-1.882362">
        <ele>1404.094</ele>
        <time>1999-11-30T00:00:00Z</time>
      </trkpt>
      <trkpt lat="40.658182" lon="-1.882234">
        <ele>1408.038</ele>
        <time>1999-11-30T00:00:00Z</time>
      </trkpt>
      <trkpt lat="40.657952" lon="-1.882">
        <ele>1410.059</ele>
        <time>1999-11-30T00:00:00Z</time>
      </trkpt>
      <trkpt lat="40.657804" lon="-1.881736">
        <ele>1410.083</ele>
        <time>1999-11-30T00:00:00Z</time>
      </trkpt>
      <trkpt lat="40.657588" lon="-1.881283">
        <ele>1410.028</ele>
        <time>1999-11-30T00:00:00Z</time>
      </trkpt>
      <trkpt lat="40.657437" lon="-1.880928">
        <ele>1410.057</ele>
        <time>1999-11-30T00:00:00Z</time>
      </trkpt>
      <trkpt lat="40.657318" lon="-1.880793">
        <ele>1410.078</ele>
        <time>1999-11-30T00:00:00Z</time>
      </trkpt>
      <trkpt lat="40.657182" lon="-1.880724">
        <ele>1410.076</ele>
        <time>1999-11-30T00:00:00Z</time>
      </trkpt>
      <trkpt lat="40.657019" lon="-1.880666">
        <ele>1410.038</ele>
        <time>1999-11-30T00:00:00Z</time>
      </trkpt>
      <trkpt lat="40.656929" lon="-1.880534">
        <ele>1410.070</ele>
        <time>1999-11-30T00:00:00Z</time>
      </trkpt>
      <trkpt lat="40.656859" lon="-1.880283">
        <ele>1408.017</ele>
        <time>1999-11-30T00:00:00Z</time>
      </trkpt>
      <trkpt lat="40.656836" lon="-1.880079">
        <ele>1406.008</ele>
        <time>1999-11-30T00:00:00Z</time>
      </trkpt>
      <trkpt lat="40.656857" lon="-1.879917">
        <ele>1405.024</ele>
        <time>1999-11-30T00:00:00Z</time>
      </trkpt>
      <trkpt lat="40.656856" lon="-1.879786">
        <ele>1404.048</ele>
        <time>1999-11-30T00:00:00Z</time>
      </trkpt>
      <trkpt lat="40.656817" lon="-1.879513">
        <ele>1400.079</ele>
        <time>1999-11-30T00:00:00Z</time>
      </trkpt>
      <trkpt lat="40.656742" lon="-1.879113">
        <ele>1393.023</ele>
        <time>1999-11-30T00:00:00Z</time>
      </trkpt>
      <trkpt lat="40.656668" lon="-1.878696">
        <ele>1387.058</ele>
        <time>1999-11-30T00:00:00Z</time>
      </trkpt>
      <trkpt lat="40.656683" lon="-1.878432">
        <ele>1385.067</ele>
        <time>1999-11-30T00:00:00Z</time>
      </trkpt>
      <trkpt lat="40.656658" lon="-1.878263">
        <ele>1383.078</ele>
        <time>1999-11-30T00:00:00Z</time>
      </trkpt>
      <trkpt lat="40.656609" lon="-1.878197">
        <ele>1382.086</ele>
        <time>1999-11-30T00:00:00Z</time>
      </trkpt>
      <trkpt lat="40.656424" lon="-1.878156">
        <ele>1380.071</ele>
        <time>1999-11-30T00:00:00Z</time>
      </trkpt>
      <trkpt lat="40.65616" lon="-1.878119">
        <ele>1379.041</ele>
        <time>1999-11-30T00:00:00Z</time>
      </trkpt>
      <trkpt lat="40.655979" lon="-1.878202">
        <ele>1380.015</ele>
        <time>1999-11-30T00:00:00Z</time>
      </trkpt>
      <trkpt lat="40.655737" lon="-1.878196">
        <ele>1380.008</ele>
        <time>1999-11-30T00:00:00Z</time>
      </trkpt>
      <trkpt lat="40.655533" lon="-1.878101">
        <ele>1381.038</ele>
        <time>1999-11-30T00:00:00Z</time>
      </trkpt>
      <trkpt lat="40.655383" lon="-1.878063">
        <ele>1381.012</ele>
        <time>1999-11-30T00:00:00Z</time>
      </trkpt>
      <trkpt lat="40.655085" lon="-1.878013">
        <ele>1379.043</ele>
        <time>1999-11-30T00:00:00Z</time>
      </trkpt>
      <trkpt lat="40.654849" lon="-1.878078">
        <ele>1376.097</ele>
        <time>1999-11-30T00:00:00Z</time>
      </trkpt>
      <trkpt lat="40.654462" lon="-1.878153">
        <ele>1373.092</ele>
        <time>1999-11-30T00:00:00Z</time>
      </trkpt>
      <trkpt lat="40.654279" lon="-1.878001">
        <ele>1371.011</ele>
        <time>1999-11-30T00:00:00Z</time>
      </trkpt>
      <trkpt lat="40.654064" lon="-1.877902">
        <ele>1370.052</ele>
        <time>1999-11-30T00:00:00Z</time>
      </trkpt>
      <trkpt lat="40.653882" lon="-1.877788">
        <ele>1370.070</ele>
        <time>1999-11-30T00:00:00Z</time>
      </trkpt>
      <trkpt lat="40.653557" lon="-1.877744">
        <ele>1370.053</ele>
        <time>1999-11-30T00:00:00Z</time>
      </trkpt>
      <trkpt lat="40.653174" lon="-1.877662">
        <ele>1372.004</ele>
        <time>1999-11-30T00:00:00Z</time>
      </trkpt>
      <trkpt lat="40.652912" lon="-1.877589">
        <ele>1374.014</ele>
        <time>1999-11-30T00:00:00Z</time>
      </trkpt>
      <trkpt lat="40.652763" lon="-1.877547">
        <ele>1376.008</ele>
        <time>1999-11-30T00:00:00Z</time>
      </trkpt>
      <trkpt lat="40.652696" lon="-1.877568">
        <ele>1377.096</ele>
        <time>1999-11-30T00:00:00Z</time>
      </trkpt>
      <trkpt lat="40.652564" lon="-1.877545">
        <ele>1378.040</ele>
        <time>1999-11-30T00:00:00Z</time>
      </trkpt>
      <trkpt lat="40.652452" lon="-1.877475">
        <ele>1380.081</ele>
        <time>1999-11-30T00:00:00Z</time>
      </trkpt>
      <trkpt lat="40.652287" lon="-1.877431">
        <ele>1381.095</ele>
        <time>1999-11-30T00:00:00Z</time>
      </trkpt>
      <trkpt lat="40.652137" lon="-1.87737">
        <ele>1383.060</ele>
        <time>1999-11-30T00:00:00Z</time>
      </trkpt>
      <trkpt lat="40.652011" lon="-1.877263">
        <ele>1384.069</ele>
        <time>1999-11-30T00:00:00Z</time>
      </trkpt>
      <trkpt lat="40.651943" lon="-1.877141">
        <ele>1386.020</ele>
        <time>1999-11-30T00:00:00Z</time>
      </trkpt>
      <trkpt lat="40.651834" lon="-1.877065">
        <ele>1388.048</ele>
        <time>1999-11-30T00:00:00Z</time>
      </trkpt>
      <trkpt lat="40.6515" lon="-1.876988">
        <ele>1391.072</ele>
        <time>1999-11-30T00:00:00Z</time>
      </trkpt>
      <trkpt lat="40.651365" lon="-1.876923">
        <ele>1393.013</ele>
        <time>1999-11-30T00:00:00Z</time>
      </trkpt>
      <trkpt lat="40.651174" lon="-1.876886">
        <ele>1396.014</ele>
        <time>1999-11-30T00:00:00Z</time>
      </trkpt>
      <trkpt lat="40.651053" lon="-1.876825">
        <ele>1398.008</ele>
        <time>1999-11-30T00:00:00Z</time>
      </trkpt>
      <trkpt lat="40.650964" lon="-1.876561">
        <ele>1401.088</ele>
        <time>1999-11-30T00:00:00Z</time>
      </trkpt>
      <trkpt lat="40.65089" lon="-1.876301">
        <ele>1404.072</ele>
        <time>1999-11-30T00:00:00Z</time>
      </trkpt>
      <trkpt lat="40.650907" lon="-1.876018">
        <ele>1406.033</ele>
        <time>1999-11-30T00:00:00Z</time>
      </trkpt>
      <trkpt lat="40.650939" lon="-1.87574">
        <ele>1407.087</ele>
        <time>1999-11-30T00:00:00Z</time>
      </trkpt>
      <trkpt lat="40.650972" lon="-1.875241">
        <ele>1409.062</ele>
        <time>1999-11-30T00:00:00Z</time>
      </trkpt>
      <trkpt lat="40.651055" lon="-1.874908">
        <ele>1411.051</ele>
        <time>1999-11-30T00:00:00Z</time>
      </trkpt>
      <trkpt lat="40.651142" lon="-1.874739">
        <ele>1411.082</ele>
        <time>1999-11-30T00:00:00Z</time>
      </trkpt>
      <trkpt lat="40.651271" lon="-1.874551">
        <ele>1411.010</ele>
        <time>1999-11-30T00:00:00Z</time>
      </trkpt>
      <trkpt lat="40.651475" lon="-1.874417">
        <ele>1411.039</ele>
        <time>1999-11-30T00:00:00Z</time>
      </trkpt>
      <trkpt lat="40.651575" lon="-1.874225">
        <ele>1411.001</ele>
        <time>1999-11-30T00:00:00Z</time>
      </trkpt>
      <trkpt lat="40.651501" lon="-1.874055">
        <ele>1412.021</ele>
        <time>1999-11-30T00:00:00Z</time>
      </trkpt>
      <trkpt lat="40.651315" lon="-1.873656">
        <ele>1412.008</ele>
        <time>1999-11-30T00:00:00Z</time>
      </trkpt>
      <trkpt lat="40.651079" lon="-1.87326">
        <ele>1411.094</ele>
        <time>1999-11-30T00:00:00Z</time>
      </trkpt>
      <trkpt lat="40.650747" lon="-1.872826">
        <ele>1406.068</ele>
        <time>1999-11-30T00:00:00Z</time>
      </trkpt>
      <trkpt lat="40.650445" lon="-1.872373">
        <ele>1404.039</ele>
        <time>1999-11-30T00:00:00Z</time>
      </trkpt>
      <trkpt lat="40.650432" lon="-1.87181">
        <ele>1396.013</ele>
        <time>1999-11-30T00:00:00Z</time>
      </trkpt>
      <trkpt lat="40.650417" lon="-1.871444">
        <ele>1391.048</ele>
        <time>1999-11-30T00:00:00Z</time>
      </trkpt>
      <trkpt lat="40.650466" lon="-1.871115">
        <ele>1388.017</ele>
        <time>1999-11-30T00:00:00Z</time>
      </trkpt>
      <trkpt lat="40.65045" lon="-1.87065">
        <ele>1388.098</ele>
        <time>1999-11-30T00:00:00Z</time>
      </trkpt>
      <trkpt lat="40.650579" lon="-1.870175">
        <ele>1382.056</ele>
        <time>1999-11-30T00:00:00Z</time>
      </trkpt>
      <trkpt lat="40.650605" lon="-1.8699">
        <ele>1381.062</ele>
        <time>1999-11-30T00:00:00Z</time>
      </trkpt>
      <trkpt lat="40.650528" lon="-1.86968">
        <ele>1381.083</ele>
        <time>1999-11-30T00:00:00Z</time>
      </trkpt>
      <trkpt lat="40.650363" lon="-1.869462">
        <ele>1383.011</ele>
        <time>1999-11-30T00:00:00Z</time>
      </trkpt>
      <trkpt lat="40.649953" lon="-1.869103">
        <ele>1382.008</ele>
        <time>1999-11-30T00:00:00Z</time>
      </trkpt>
      <trkpt lat="40.649887" lon="-1.868989">
        <ele>1380.097</ele>
        <time>1999-11-30T00:00:00Z</time>
      </trkpt>
      <trkpt lat="40.649944" lon="-1.868828">
        <ele>1378.071</ele>
        <time>1999-11-30T00:00:00Z</time>
      </trkpt>
      <trkpt lat="40.650064" lon="-1.868597">
        <ele>1374.042</ele>
        <time>1999-11-30T00:00:00Z</time>
      </trkpt>
      <trkpt lat="40.650169" lon="-1.868595">
        <ele>1374.076</ele>
        <time>1999-11-30T00:00:00Z</time>
      </trkpt>
      <trkpt lat="40.650302" lon="-1.868601">
        <ele>1371.051</ele>
        <time>1999-11-30T00:00:00Z</time>
      </trkpt>
      <trkpt lat="40.650388" lon="-1.868523">
        <ele>1368.030</ele>
        <time>1999-11-30T00:00:00Z</time>
      </trkpt>
      <trkpt lat="40.650491" lon="-1.868308">
        <ele>1364.061</ele>
        <time>1999-11-30T00:00:00Z</time>
      </trkpt>
      <trkpt lat="40.650751" lon="-1.868204">
        <ele>1362.019</ele>
        <time>1999-11-30T00:00:00Z</time>
      </trkpt>
      <trkpt lat="40.651342" lon="-1.867942">
        <ele>1366.079</ele>
        <time>1999-11-30T00:00:00Z</time>
      </trkpt>
      <trkpt lat="40.652028" lon="-1.867458">
        <ele>1364.005</ele>
        <time>1999-11-30T00:00:00Z</time>
      </trkpt>
      <trkpt lat="40.65227" lon="-1.867263">
        <ele>1359.025</ele>
        <time>1999-11-30T00:00:00Z</time>
      </trkpt>
      <trkpt lat="40.65235" lon="-1.867124">
        <ele>1356.008</ele>
        <time>1999-11-30T00:00:00Z</time>
      </trkpt>
      <trkpt lat="40.652349" lon="-1.866995">
        <ele>1357.058</ele>
        <time>1999-11-30T00:00:00Z</time>
      </trkpt>
      <trkpt lat="40.652278" lon="-1.866836">
        <ele>1361.022</ele>
        <time>1999-11-30T00:00:00Z</time>
      </trkpt>
      <trkpt lat="40.652136" lon="-1.866579">
        <ele>1364.073</ele>
        <time>1999-11-30T00:00:00Z</time>
      </trkpt>
      <trkpt lat="40.652058" lon="-1.866306">
        <ele>1361.037</ele>
        <time>1999-11-30T00:00:00Z</time>
      </trkpt>
      <trkpt lat="40.652061" lon="-1.866007">
        <ele>1359.082</ele>
        <time>1999-11-30T00:00:00Z</time>
      </trkpt>
      <trkpt lat="40.652167" lon="-1.865648">
        <ele>1357.021</ele>
        <time>1999-11-30T00:00:00Z</time>
      </trkpt>
      <trkpt lat="40.652372" lon="-1.865148">
        <ele>1355.062</ele>
        <time>1999-11-30T00:00:00Z</time>
      </trkpt>
      <trkpt lat="40.652484" lon="-1.86475">
        <ele>1354.020</ele>
        <time>1999-11-30T00:00:00Z</time>
      </trkpt>
      <trkpt lat="40.652477" lon="-1.864605">
        <ele>1356.074</ele>
        <time>1999-11-30T00:00:00Z</time>
      </trkpt>
      <trkpt lat="40.652171" lon="-1.864259">
        <ele>1357.056</ele>
        <time>1999-11-30T00:00:00Z</time>
      </trkpt>
      <trkpt lat="40.651756" lon="-1.863954">
        <ele>1356.021</ele>
        <time>1999-11-30T00:00:00Z</time>
      </trkpt>
      <trkpt lat="40.651418" lon="-1.863852">
        <ele>1354.008</ele>
        <time>1999-11-30T00:00:00Z</time>
      </trkpt>
      <trkpt lat="40.651017" lon="-1.863829">
        <ele>1353.018</ele>
        <time>1999-11-30T00:00:00Z</time>
      </trkpt>
      <trkpt lat="40.65064" lon="-1.863904">
        <ele>1350.082</ele>
        <time>1999-11-30T00:00:00Z</time>
      </trkpt>
      <trkpt lat="40.650229" lon="-1.864109">
        <ele>1345.043</ele>
        <time>1999-11-30T00:00:00Z</time>
      </trkpt>
      <trkpt lat="40.649865" lon="-1.864344">
        <ele>1340.087</ele>
        <time>1999-11-30T00:00:00Z</time>
      </trkpt>
      <trkpt lat="40.649502" lon="-1.864647">
        <ele>1335.062</ele>
        <time>1999-11-30T00:00:00Z</time>
      </trkpt>
      <trkpt lat="40.649146" lon="-1.865012">
        <ele>1333.061</ele>
        <time>1999-11-30T00:00:00Z</time>
      </trkpt>
      <trkpt lat="40.648589" lon="-1.865777">
        <ele>1331.082</ele>
        <time>1999-11-30T00:00:00Z</time>
      </trkpt>
      <trkpt lat="40.648251" lon="-1.866271">
        <ele>1321.030</ele>
        <time>1999-11-30T00:00:00Z</time>
      </trkpt>
      <trkpt lat="40.647895" lon="-1.866628">
        <ele>1308.096</ele>
        <time>1999-11-30T00:00:00Z</time>
      </trkpt>
      <trkpt lat="40.647519" lon="-1.866794">
        <ele>1295.031</ele>
        <time>1999-11-30T00:00:00Z</time>
      </trkpt>
      <trkpt lat="40.647183" lon="-1.866876">
        <ele>1290.024</ele>
        <time>1999-11-30T00:00:00Z</time>
      </trkpt>
      <trkpt lat="40.646811" lon="-1.866837">
        <ele>1286.008</ele>
        <time>1999-11-30T00:00:00Z</time>
      </trkpt>
      <trkpt lat="40.646374" lon="-1.866714">
        <ele>1283.050</ele>
        <time>1999-11-30T00:00:00Z</time>
      </trkpt>
      <trkpt lat="40.645523" lon="-1.866416">
        <ele>1277.044</ele>
        <time>1999-11-30T00:00:00Z</time>
      </trkpt>
      <trkpt lat="40.644205" lon="-1.865966">
        <ele>1271.085</ele>
        <time>1999-11-30T00:00:00Z</time>
      </trkpt>
      <trkpt lat="40.642549" lon="-1.865345">
        <ele>1268.089</ele>
        <time>1999-11-30T00:00:00Z</time>
      </trkpt>
      <trkpt lat="40.641365" lon="-1.864892">
        <ele>1259.064</ele>
        <time>1999-11-30T00:00:00Z</time>
      </trkpt>
      <trkpt lat="40.640998" lon="-1.864784">
        <ele>1258.023</ele>
        <time>1999-11-30T00:00:00Z</time>
      </trkpt>
      <trkpt lat="40.640715" lon="-1.864763">
        <ele>1256.074</ele>
        <time>1999-11-30T00:00:00Z</time>
      </trkpt>
      <trkpt lat="40.640208" lon="-1.865829">
        <ele>1251.042</ele>
        <time>1999-11-30T00:00:00Z</time>
      </trkpt>
      <trkpt lat="40.639744" lon="-1.866653">
        <ele>1250.077</ele>
        <time>1999-11-30T00:00:00Z</time>
      </trkpt>
      <trkpt lat="40.63939" lon="-1.86808">
        <ele>1249.061</ele>
        <time>1999-11-30T00:00:00Z</time>
      </trkpt>
      <trkpt lat="40.639247" lon="-1.868793">
        <ele>1252.027</ele>
        <time>1999-11-30T00:00:00Z</time>
      </trkpt>
      <trkpt lat="40.639129" lon="-1.869702">
        <ele>1252.008</ele>
        <time>1999-11-30T00:00:00Z</time>
      </trkpt>
      <trkpt lat="40.638925" lon="-1.870314">
        <ele>1251.098</ele>
        <time>1999-11-30T00:00:00Z</time>
      </trkpt>
      <trkpt lat="40.637964" lon="-1.869903">
        <ele>1241.062</ele>
        <time>1999-11-30T00:00:00Z</time>
      </trkpt>
      <trkpt lat="40.637919" lon="-1.870453">
        <ele>1240.053</ele>
        <time>1999-11-30T00:00:00Z</time>
      </trkpt>
      <trkpt lat="40.637795" lon="-1.871228">
        <ele>1240.087</ele>
        <time>1999-11-30T00:00:00Z</time>
      </trkpt>
      <trkpt lat="40.637815" lon="-1.8715">
        <ele>1240.022</ele>
        <time>1999-11-30T00:00:00Z</time>
      </trkpt>
      <trkpt lat="40.637902" lon="-1.871776">
        <ele>1240.051</ele>
        <time>1999-11-30T00:00:00Z</time>
      </trkpt>
      <trkpt lat="40.638103" lon="-1.871865">
        <ele>1241.042</ele>
        <time>1999-11-30T00:00:00Z</time>
      </trkpt>
      <trkpt lat="40.638095" lon="-1.872273">
        <ele>1240.070</ele>
        <time>1999-11-30T00:00:00Z</time>
      </trkpt>
      <trkpt lat="40.638142" lon="-1.873527">
        <ele>1242.036</ele>
        <time>1999-11-30T00:00:00Z</time>
      </trkpt>
      <trkpt lat="40.637996" lon="-1.873906">
        <ele>1241.017</ele>
        <time>1999-11-30T00:00:00Z</time>
      </trkpt>
      <trkpt lat="40.637782" lon="-1.874424">
        <ele>1239.018</ele>
        <time>1999-11-30T00:00:00Z</time>
      </trkpt>
      <trkpt lat="40.637523" lon="-1.875392">
        <ele>1244.008</ele>
        <time>1999-11-30T00:00:00Z</time>
      </trkpt>
      <trkpt lat="40.637324" lon="-1.875806">
        <ele>1251.084</ele>
        <time>1999-11-30T00:00:00Z</time>
      </trkpt>
      <trkpt lat="40.637123" lon="-1.875955">
        <ele>1243.088</ele>
        <time>1999-11-30T00:00:00Z</time>
      </trkpt>
      <trkpt lat="40.637108" lon="-1.876282">
        <ele>1241.099</ele>
        <time>1999-11-30T00:00:00Z</time>
      </trkpt>
      <trkpt lat="40.63725" lon="-1.876762">
        <ele>1239.033</ele>
        <time>1999-11-30T00:00:00Z</time>
      </trkpt>
      <trkpt lat="40.637461" lon="-1.877532">
        <ele>1238.088</ele>
        <time>1999-11-30T00:00:00Z</time>
      </trkpt>
      <trkpt lat="40.637505" lon="-1.878244">
        <ele>1236.037</ele>
        <time>1999-11-30T00:00:00Z</time>
      </trkpt>
      <trkpt lat="40.637508" lon="-1.878643">
        <ele>1232.028</ele>
        <time>1999-11-30T00:00:00Z</time>
      </trkpt>
      <trkpt lat="40.637465" lon="-1.878946">
        <ele>1230.056</ele>
        <time>1999-11-30T00:00:00Z</time>
      </trkpt>
      <trkpt lat="40.637431" lon="-1.879273">
        <ele>1238.054</ele>
        <time>1999-11-30T00:00:00Z</time>
      </trkpt>
      <trkpt lat="40.637555" lon="-1.879657">
        <ele>1251.056</ele>
        <time>1999-11-30T00:00:00Z</time>
      </trkpt>
      <trkpt lat="40.637937" lon="-1.880074">
        <ele>1249.011</ele>
        <time>1999-11-30T00:00:00Z</time>
      </trkpt>
      <trkpt lat="40.638199" lon="-1.88054">
        <ele>1249.008</ele>
        <time>1999-11-30T00:00:00Z</time>
      </trkpt>
      <trkpt lat="40.638443" lon="-1.88102">
        <ele>1252.026</ele>
        <time>1999-11-30T00:00:00Z</time>
      </trkpt>
      <trkpt lat="40.638816" lon="-1.881594">
        <ele>1256.070</ele>
        <time>1999-11-30T00:00:00Z</time>
      </trkpt>
      <trkpt lat="40.63943" lon="-1.882224">
        <ele>1264.021</ele>
        <time>1999-11-30T00:00:00Z</time>
      </trkpt>
      <trkpt lat="40.639971" lon="-1.882964">
        <ele>1274.045</ele>
        <time>1999-11-30T00:00:00Z</time>
      </trkpt>
      <trkpt lat="40.64032" lon="-1.883864">
        <ele>1275.030</ele>
        <time>1999-11-30T00:00:00Z</time>
      </trkpt>
      <trkpt lat="40.640534" lon="-1.885021">
        <ele>1274.099</ele>
        <time>1999-11-30T00:00:00Z</time>
      </trkpt>
      <trkpt lat="40.640618" lon="-1.886083">
        <ele>1274.010</ele>
        <time>1999-11-30T00:00:00Z</time>
      </trkpt>
      <trkpt lat="40.640512" lon="-1.886628">
        <ele>1276.048</ele>
        <time>1999-11-30T00:00:00Z</time>
      </trkpt>
      <trkpt lat="40.640208" lon="-1.887504">
        <ele>1276.046</ele>
        <time>1999-11-30T00:00:00Z</time>
      </trkpt>
      <trkpt lat="40.639875" lon="-1.888318">
        <ele>1274.088</ele>
        <time>1999-11-30T00:00:00Z</time>
      </trkpt>
      <trkpt lat="40.639493" lon="-1.888796">
        <ele>1276.016</ele>
        <time>1999-11-30T00:00:00Z</time>
      </trkpt>
      <trkpt lat="40.63923" lon="-1.889127">
        <ele>1279.008</ele>
        <time>1999-11-30T00:00:00Z</time>
      </trkpt>
      <trkpt lat="40.639092" lon="-1.889201">
        <ele>1283.025</ele>
        <time>1999-11-30T00:00:00Z</time>
      </trkpt>
      <trkpt lat="40.638815" lon="-1.889145">
        <ele>1288.019</ele>
        <time>1999-11-30T00:00:00Z</time>
      </trkpt>
      <trkpt lat="40.638566" lon="-1.889101">
        <ele>1288.020</ele>
        <time>1999-11-30T00:00:00Z</time>
      </trkpt>
      <trkpt lat="40.638245" lon="-1.889179">
        <ele>1285.024</ele>
        <time>1999-11-30T00:00:00Z</time>
      </trkpt>
      <trkpt lat="40.637996" lon="-1.889099">
        <ele>1283.059</ele>
        <time>1999-11-30T00:00:00Z</time>
      </trkpt>
      <trkpt lat="40.637689" lon="-1.888814">
        <ele>1282.068</ele>
        <time>1999-11-30T00:00:00Z</time>
      </trkpt>
      <trkpt lat="40.637329" lon="-1.888711">
        <ele>1278.089</ele>
        <time>1999-11-30T00:00:00Z</time>
      </trkpt>
      <trkpt lat="40.636952" lon="-1.888645">
        <ele>1278.017</ele>
        <time>1999-11-30T00:00:00Z</time>
      </trkpt>
      <trkpt lat="40.636722" lon="-1.888733">
        <ele>1276.031</ele>
        <time>1999-11-30T00:00:00Z</time>
      </trkpt>
      <trkpt lat="40.636531" lon="-1.888954">
        <ele>1272.061</ele>
        <time>1999-11-30T00:00:00Z</time>
      </trkpt>
      <trkpt lat="40.636291" lon="-1.888909">
        <ele>1273.007</ele>
        <time>1999-11-30T00:00:00Z</time>
      </trkpt>
      <trkpt lat="40.636024" lon="-1.888866">
        <ele>1274.008</ele>
        <time>1999-11-30T00:00:00Z</time>
      </trkpt>
      <trkpt lat="40.635712" lon="-1.889004">
        <ele>1271.094</ele>
        <time>1999-11-30T00:00:00Z</time>
      </trkpt>
      <trkpt lat="40.635454" lon="-1.888959">
        <ele>1271.098</ele>
        <time>1999-11-30T00:00:00Z</time>
      </trkpt>
      <trkpt lat="40.63501" lon="-1.888737">
        <ele>1268.099</ele>
        <time>1999-11-30T00:00:00Z</time>
      </trkpt>
      <trkpt lat="40.634445" lon="-1.888433">
        <ele>1266.023</ele>
        <time>1999-11-30T00:00:00Z</time>
      </trkpt>
      <trkpt lat="40.634028" lon="-1.888041">
        <ele>1265.028</ele>
        <time>1999-11-30T00:00:00Z</time>
      </trkpt>
      <trkpt lat="40.633797" lon="-1.887912">
        <ele>1264.087</ele>
        <time>1999-11-30T00:00:00Z</time>
      </trkpt>
      <trkpt lat="40.633428" lon="-1.887882">
        <ele>1261.048</ele>
        <time>1999-11-30T00:00:00Z</time>
      </trkpt>
      <trkpt lat="40.633132" lon="-1.887717">
        <ele>1259.076</ele>
        <time>1999-11-30T00:00:00Z</time>
      </trkpt>
      <trkpt lat="40.632842" lon="-1.887299">
        <ele>1259.025</ele>
        <time>1999-11-30T00:00:00Z</time>
      </trkpt>
      <trkpt lat="40.632421" lon="-1.886533">
        <ele>1260.026</ele>
        <time>1999-11-30T00:00:00Z</time>
      </trkpt>
      <trkpt lat="40.632059" lon="-1.886225">
        <ele>1261.008</ele>
        <time>1999-11-30T00:00:00Z</time>
      </trkpt>
      <trkpt lat="40.631608" lon="-1.886208">
        <ele>1262.008</ele>
        <time>1999-11-30T00:00:00Z</time>
      </trkpt>
      <trkpt lat="40.631211" lon="-1.88613">
        <ele>1256.033</ele>
        <time>1999-11-30T00:00:00Z</time>
      </trkpt>
      <trkpt lat="40.630929" lon="-1.8859">
        <ele>1252.047</ele>
        <time>1999-11-30T00:00:00Z</time>
      </trkpt>
      <trkpt lat="40.630661" lon="-1.885605">
        <ele>1250.088</ele>
        <time>1999-11-30T00:00:00Z</time>
      </trkpt>
      <trkpt lat="40.63038" lon="-1.885494">
        <ele>1245.092</ele>
        <time>1999-11-30T00:00:00Z</time>
      </trkpt>
      <trkpt lat="40.630011" lon="-1.885336">
        <ele>1241.097</ele>
        <time>1999-11-30T00:00:00Z</time>
      </trkpt>
      <trkpt lat="40.629576" lon="-1.885237">
        <ele>1229.066</ele>
        <time>1999-11-30T00:00:00Z</time>
      </trkpt>
      <trkpt lat="40.629324" lon="-1.885125">
        <ele>1224.027</ele>
        <time>1999-11-30T00:00:00Z</time>
      </trkpt>
      <trkpt lat="40.629131" lon="-1.884858">
        <ele>1230.015</ele>
        <time>1999-11-30T00:00:00Z</time>
      </trkpt>
      <trkpt lat="40.628835" lon="-1.884022">
        <ele>1231.089</ele>
        <time>1999-11-30T00:00:00Z</time>
      </trkpt>
      <trkpt lat="40.62863" lon="-1.883369">
        <ele>1228.006</ele>
        <time>1999-11-30T00:00:00Z</time>
      </trkpt>
      <trkpt lat="40.628368" lon="-1.8829">
        <ele>1220.026</ele>
        <time>1999-11-30T00:00:00Z</time>
      </trkpt>
      <trkpt lat="40.62802" lon="-1.882674">
        <ele>1213.008</ele>
        <time>1999-11-30T00:00:00Z</time>
      </trkpt>
      <trkpt lat="40.627553" lon="-1.882344">
        <ele>1212.099</ele>
        <time>1999-11-30T00:00:00Z</time>
      </trkpt>
      <trkpt lat="40.627175" lon="-1.881992">
        <ele>1210.083</ele>
        <time>1999-11-30T00:00:00Z</time>
      </trkpt>
      <trkpt lat="40.62704" lon="-1.881744">
        <ele>1211.024</ele>
        <time>1999-11-30T00:00:00Z</time>
      </trkpt>
      <trkpt lat="40.62703" lon="-1.881493">
        <ele>1212.048</ele>
        <time>1999-11-30T00:00:00Z</time>
      </trkpt>
      <trkpt lat="40.627109" lon="-1.88124">
        <ele>1215.043</ele>
        <time>1999-11-30T00:00:00Z</time>
      </trkpt>
      <trkpt lat="40.627267" lon="-1.88088">
        <ele>1218.062</ele>
        <time>1999-11-30T00:00:00Z</time>
      </trkpt>
      <trkpt lat="40.627249" lon="-1.880504">
        <ele>1221.053</ele>
        <time>1999-11-30T00:00:00Z</time>
      </trkpt>
      <trkpt lat="40.627164" lon="-1.880148">
        <ele>1220.051</ele>
        <time>1999-11-30T00:00:00Z</time>
      </trkpt>
      <trkpt lat="40.627052" lon="-1.879966">
        <ele>1221.039</ele>
        <time>1999-11-30T00:00:00Z</time>
      </trkpt>
      <trkpt lat="40.626733" lon="-1.87974">
        <ele>1224.001</ele>
        <time>1999-11-30T00:00:00Z</time>
      </trkpt>
      <trkpt lat="40.626547" lon="-1.879521">
        <ele>1222.021</ele>
        <time>1999-11-30T00:00:00Z</time>
      </trkpt>
      <trkpt lat="40.626478" lon="-1.879194">
        <ele>1219.008</ele>
        <time>1999-11-30T00:00:00Z</time>
      </trkpt>
      <trkpt lat="40.626341" lon="-1.878722">
        <ele>1219.024</ele>
        <time>1999-11-30T00:00:00Z</time>
      </trkpt>
      <trkpt lat="40.62619" lon="-1.878281">
        <ele>1217.048</ele>
        <time>1999-11-30T00:00:00Z</time>
      </trkpt>
      <trkpt lat="40.625973" lon="-1.877937">
        <ele>1218.069</ele>
        <time>1999-11-30T00:00:00Z</time>
      </trkpt>
      <trkpt lat="40.625742" lon="-1.87766">
        <ele>1218.023</ele>
        <time>1999-11-30T00:00:00Z</time>
      </trkpt>
      <trkpt lat="40.625456" lon="-1.877028">
        <ele>1218.078</ele>
        <time>1999-11-30T00:00:00Z</time>
      </trkpt>
      <trkpt lat="40.625131" lon="-1.876232">
        <ele>1218.037</ele>
        <time>1999-11-30T00:00:00Z</time>
      </trkpt>
      <trkpt lat="40.624797" lon="-1.875145">
        <ele>1218.028</ele>
        <time>1999-11-30T00:00:00Z</time>
      </trkpt>
      <trkpt lat="40.624601" lon="-1.874618">
        <ele>1220.096</ele>
        <time>1999-11-30T00:00:00Z</time>
      </trkpt>
      <trkpt lat="40.62437" lon="-1.874338">
        <ele>1221.037</ele>
        <time>1999-11-30T00:00:00Z</time>
      </trkpt>
      <trkpt lat="40.624103" lon="-1.874111">
        <ele>1225.049</ele>
        <time>1999-11-30T00:00:00Z</time>
      </trkpt>
      <trkpt lat="40.623736" lon="-1.873908">
        <ele>1234.013</ele>
        <time>1999-11-30T00:00:00Z</time>
      </trkpt>
      <trkpt lat="40.623353" lon="-1.873784">
        <ele>1237.008</ele>
        <time>1999-11-30T00:00:00Z</time>
      </trkpt>
      <trkpt lat="40.622794" lon="-1.873755">
        <ele>1232.014</ele>
        <time>1999-11-30T00:00:00Z</time>
      </trkpt>
      <trkpt lat="40.622014" lon="-1.873412">
        <ele>1229.088</ele>
        <time>1999-11-30T00:00:00Z</time>
      </trkpt>
      <trkpt lat="40.621694" lon="-1.873232">
        <ele>1232.099</ele>
        <time>1999-11-30T00:00:00Z</time>
      </trkpt>
      <trkpt lat="40.621396" lon="-1.872882">
        <ele>1233.053</ele>
        <time>1999-11-30T00:00:00Z</time>
      </trkpt>
      <trkpt lat="40.621116" lon="-1.872493">
        <ele>1240.068</ele>
        <time>1999-11-30T00:00:00Z</time>
      </trkpt>
      <trkpt lat="40.621044" lon="-1.87234">
        <ele>1239.027</ele>
        <time>1999-11-30T00:00:00Z</time>
      </trkpt>
      <trkpt lat="40.621024" lon="-1.872062">
        <ele>1236.098</ele>
        <time>1999-11-30T00:00:00Z</time>
      </trkpt>
      <trkpt lat="40.621032" lon="-1.871699">
        <ele>1236.086</ele>
        <time>1999-11-30T00:00:00Z</time>
      </trkpt>
      <trkpt lat="40.620989" lon="-1.871515">
        <ele>1238.079</ele>
        <time>1999-11-30T00:00:00Z</time>
      </trkpt>
      <trkpt lat="40.620892" lon="-1.871292">
        <ele>1242.005</ele>
        <time>1999-11-30T00:00:00Z</time>
      </trkpt>
      <trkpt lat="40.62078" lon="-1.87124">
        <ele>1244.025</ele>
        <time>1999-11-30T00:00:00Z</time>
      </trkpt>
      <trkpt lat="40.620675" lon="-1.871311">
        <ele>1244.008</ele>
        <time>1999-11-30T00:00:00Z</time>
      </trkpt>
      <trkpt lat="40.620465" lon="-1.871477">
        <ele>1245.048</ele>
        <time>1999-11-30T00:00:00Z</time>
      </trkpt>
      <trkpt lat="40.620289" lon="-1.871534">
        <ele>1247.022</ele>
        <time>1999-11-30T00:00:00Z</time>
      </trkpt>
      <trkpt lat="40.620106" lon="-1.871475">
        <ele>1251.013</ele>
        <time>1999-11-30T00:00:00Z</time>
      </trkpt>
      <trkpt lat="40.619935" lon="-1.871447">
        <ele>1255.067</ele>
        <time>1999-11-30T00:00:00Z</time>
      </trkpt>
      <trkpt lat="40.619812" lon="-1.871503">
        <ele>1257.022</ele>
        <time>1999-11-30T00:00:00Z</time>
      </trkpt>
      <trkpt lat="40.61958" lon="-1.871824">
        <ele>1260.071</ele>
        <time>1999-11-30T00:00:00Z</time>
      </trkpt>
      <trkpt lat="40.619277" lon="-1.87213">
        <ele>1263.072</ele>
        <time>1999-11-30T00:00:00Z</time>
      </trkpt>
      <trkpt lat="40.619149" lon="-1.87231">
        <ele>1265.010</ele>
        <time>1999-11-30T00:00:00Z</time>
      </trkpt>
      <trkpt lat="40.619073" lon="-1.872326">
        <ele>1269.034</ele>
        <time>1999-11-30T00:00:00Z</time>
      </trkpt>
      <trkpt lat="40.619001" lon="-1.872204">
        <ele>1274.055</ele>
        <time>1999-11-30T00:00:00Z</time>
      </trkpt>
      <trkpt lat="40.618921" lon="-1.871835">
        <ele>1281.010</ele>
        <time>1999-11-30T00:00:00Z</time>
      </trkpt>
      <trkpt lat="40.618866" lon="-1.871604">
        <ele>1283.008</ele>
        <time>1999-11-30T00:00:00Z</time>
      </trkpt>
      <trkpt lat="40.61874" lon="-1.871382">
        <ele>1287.024</ele>
        <time>1999-11-30T00:00:00Z</time>
      </trkpt>
      <trkpt lat="40.618708" lon="-1.871113">
        <ele>1289.068</ele>
        <time>1999-11-30T00:00:00Z</time>
      </trkpt>
      <trkpt lat="40.61863" lon="-1.870921">
        <ele>1292.049</ele>
        <time>1999-11-30T00:00:00Z</time>
      </trkpt>
      <trkpt lat="40.618615" lon="-1.87069">
        <ele>1293.043</ele>
        <time>1999-11-30T00:00:00Z</time>
      </trkpt>
      <trkpt lat="40.618547" lon="-1.870336">
        <ele>1297.038</ele>
        <time>1999-11-30T00:00:00Z</time>
      </trkpt>
      <trkpt lat="40.618427" lon="-1.870075">
        <ele>1301.067</ele>
        <time>1999-11-30T00:00:00Z</time>
      </trkpt>
      <trkpt lat="40.618161" lon="-1.869933">
        <ele>1306.048</ele>
        <time>1999-11-30T00:00:00Z</time>
      </trkpt>
      <trkpt lat="40.61803" lon="-1.869742">
        <ele>1304.016</ele>
        <time>1999-11-30T00:00:00Z</time>
      </trkpt>
      <trkpt lat="40.617815" lon="-1.869529">
        <ele>1306.032</ele>
        <time>1999-11-30T00:00:00Z</time>
      </trkpt>
      <trkpt lat="40.617448" lon="-1.869196">
        <ele>1311.092</ele>
        <time>1999-11-30T00:00:00Z</time>
      </trkpt>
      <trkpt lat="40.617051" lon="-1.868925">
        <ele>1314.011</ele>
        <time>1999-11-30T00:00:00Z</time>
      </trkpt>
      <trkpt lat="40.616779" lon="-1.868806">
        <ele>1318.008</ele>
        <time>1999-11-30T00:00:00Z</time>
      </trkpt>
      <trkpt lat="40.616272" lon="-1.868706">
        <ele>1318.044</ele>
        <time>1999-11-30T00:00:00Z</time>
      </trkpt>
      <trkpt lat="40.615942" lon="-1.868619">
        <ele>1312.058</ele>
        <time>1999-11-30T00:00:00Z</time>
      </trkpt>
      <trkpt lat="40.615558" lon="-1.868455">
        <ele>1312.069</ele>
        <time>1999-11-30T00:00:00Z</time>
      </trkpt>
      <trkpt lat="40.615226" lon="-1.868198">
        <ele>1306.023</ele>
        <time>1999-11-30T00:00:00Z</time>
      </trkpt>
      <trkpt lat="40.614817" lon="-1.867981">
        <ele>1303.028</ele>
        <time>1999-11-30T00:00:00Z</time>
      </trkpt>
      <trkpt lat="40.614374" lon="-1.867796">
        <ele>1311.047</ele>
        <time>1999-11-30T00:00:00Z</time>
      </trkpt>
      <trkpt lat="40.61388" lon="-1.867758">
        <ele>1320.098</ele>
        <time>1999-11-30T00:00:00Z</time>
      </trkpt>
      <trkpt lat="40.613408" lon="-1.867689">
        <ele>1321.086</ele>
        <time>1999-11-30T00:00:00Z</time>
      </trkpt>
      <trkpt lat="40.612962" lon="-1.867735">
        <ele>1322.038</ele>
        <time>1999-11-30T00:00:00Z</time>
      </trkpt>
      <trkpt lat="40.612621" lon="-1.867794">
        <ele>1326.070</ele>
        <time>1999-11-30T00:00:00Z</time>
      </trkpt>
      <trkpt lat="40.612222" lon="-1.867941">
        <ele>1329.017</ele>
        <time>1999-11-30T00:00:00Z</time>
      </trkpt>
      <trkpt lat="40.611953" lon="-1.868037">
        <ele>1333.008</ele>
        <time>1999-11-30T00:00:00Z</time>
      </trkpt>
      <trkpt lat="40.611854" lon="-1.868179">
        <ele>1335.034</ele>
        <time>1999-11-30T00:00:00Z</time>
      </trkpt>
      <trkpt lat="40.611762" lon="-1.868396">
        <ele>1337.068</ele>
        <time>1999-11-30T00:00:00Z</time>
      </trkpt>
      <trkpt lat="40.611641" lon="-1.868622">
        <ele>1338.029</ele>
        <time>1999-11-30T00:00:00Z</time>
      </trkpt>
      <trkpt lat="40.61152" lon="-1.868933">
        <ele>1338.043</ele>
        <time>1999-11-30T00:00:00Z</time>
      </trkpt>
      <trkpt lat="40.611516" lon="-1.869188">
        <ele>1340.078</ele>
        <time>1999-11-30T00:00:00Z</time>
      </trkpt>
      <trkpt lat="40.611508" lon="-1.869481">
        <ele>1345.087</ele>
        <time>1999-11-30T00:00:00Z</time>
      </trkpt>
      <trkpt lat="40.611539" lon="-1.869674">
        <ele>1348.058</ele>
        <time>1999-11-30T00:00:00Z</time>
      </trkpt>
      <trkpt lat="40.611635" lon="-1.869827">
        <ele>1352.016</ele>
        <time>1999-11-30T00:00:00Z</time>
      </trkpt>
      <trkpt lat="40.611765" lon="-1.869971">
        <ele>1357.065</ele>
        <time>1999-11-30T00:00:00Z</time>
      </trkpt>
      <trkpt lat="40.611718" lon="-1.870512">
        <ele>1367.068</ele>
        <time>1999-11-30T00:00:00Z</time>
      </trkpt>
      <trkpt lat="40.611626" lon="-1.870745">
        <ele>1370.014</ele>
        <time>1999-11-30T00:00:00Z</time>
      </trkpt>
      <trkpt lat="40.611497" lon="-1.870846">
        <ele>1370.008</ele>
        <time>1999-11-30T00:00:00Z</time>
      </trkpt>
      <trkpt lat="40.611228" lon="-1.871018">
        <ele>1373.027</ele>
        <time>1999-11-30T00:00:00Z</time>
      </trkpt>
      <trkpt lat="40.611162" lon="-1.871123">
        <ele>1377.091</ele>
        <time>1999-11-30T00:00:00Z</time>
      </trkpt>
      <trkpt lat="40.61116" lon="-1.871301">
        <ele>1381.072</ele>
        <time>1999-11-30T00:00:00Z</time>
      </trkpt>
      <trkpt lat="40.61123" lon="-1.871517">
        <ele>1384.086</ele>
        <time>1999-11-30T00:00:00Z</time>
      </trkpt>
      <trkpt lat="40.611387" lon="-1.871795">
        <ele>1388.021</ele>
        <time>1999-11-30T00:00:00Z</time>
      </trkpt>
      <trkpt lat="40.611586" lon="-1.872162">
        <ele>1396.050</ele>
        <time>1999-11-30T00:00:00Z</time>
      </trkpt>
      <trkpt lat="40.611784" lon="-1.872421">
        <ele>1395.091</ele>
        <time>1999-11-30T00:00:00Z</time>
      </trkpt>
      <trkpt lat="40.611926" lon="-1.872724">
        <ele>1396.059</ele>
        <time>1999-11-30T00:00:00Z</time>
      </trkpt>
      <trkpt lat="40.612015" lon="-1.87294">
        <ele>1396.074</ele>
        <time>1999-11-30T00:00:00Z</time>
      </trkpt>
      <trkpt lat="40.612066" lon="-1.873171">
        <ele>1397.056</ele>
        <time>1999-11-30T00:00:00Z</time>
      </trkpt>
      <trkpt lat="40.612059" lon="-1.873319">
        <ele>1397.021</ele>
        <time>1999-11-30T00:00:00Z</time>
      </trkpt>
      <trkpt lat="40.611938" lon="-1.873568">
        <ele>1399.008</ele>
        <time>1999-11-30T00:00:00Z</time>
      </trkpt>
      <trkpt lat="40.611846" lon="-1.873737">
        <ele>1399.018</ele>
        <time>1999-11-30T00:00:00Z</time>
      </trkpt>
      <trkpt lat="40.611682" lon="-1.873987">
        <ele>1399.082</ele>
        <time>1999-11-30T00:00:00Z</time>
      </trkpt>
      <trkpt lat="40.611516" lon="-1.874295">
        <ele>1400.073</ele>
        <time>1999-11-30T00:00:00Z</time>
      </trkpt>
      <trkpt lat="40.611316" lon="-1.874565">
        <ele>1401.057</ele>
        <time>1999-11-30T00:00:00Z</time>
      </trkpt>
      <trkpt lat="40.611235" lon="-1.87474">
        <ele>1403.072</ele>
        <time>1999-11-30T00:00:00Z</time>
      </trkpt>
      <trkpt lat="40.611221" lon="-1.874913">
        <ele>1404.011</ele>
        <time>1999-11-30T00:00:00Z</time>
      </trkpt>
      <trkpt lat="40.611223" lon="-1.875045">
        <ele>1405.072</ele>
        <time>1999-11-30T00:00:00Z</time>
      </trkpt>
      <trkpt lat="40.611174" lon="-1.875096">
        <ele>1405.060</ele>
        <time>1999-11-30T00:00:00Z</time>
      </trkpt>
      <trkpt lat="40.610945" lon="-1.875144">
        <ele>1405.018</ele>
        <time>1999-11-30T00:00:00Z</time>
      </trkpt>
      <trkpt lat="40.610747" lon="-1.875275">
        <ele>1405.098</ele>
        <time>1999-11-30T00:00:00Z</time>
      </trkpt>
      <trkpt lat="40.610353" lon="-1.875741">
        <ele>1403.017</ele>
        <time>1999-11-30T00:00:00Z</time>
      </trkpt>
      <trkpt lat="40.6101" lon="-1.876017">
        <ele>1401.008</ele>
        <time>1999-11-30T00:00:00Z</time>
      </trkpt>
      <trkpt lat="40.609929" lon="-1.876212">
        <ele>1400.082</ele>
        <time>1999-11-30T00:00:00Z</time>
      </trkpt>
      <trkpt lat="40.609829" lon="-1.876337">
        <ele>1400.056</ele>
        <time>1999-11-30T00:00:00Z</time>
      </trkpt>
      <trkpt lat="40.609724" lon="-1.876388">
        <ele>1399.097</ele>
        <time>1999-11-30T00:00:00Z</time>
      </trkpt>
      <trkpt lat="40.6096" lon="-1.87639">
        <ele>1399.051</ele>
        <time>1999-11-30T00:00:00Z</time>
      </trkpt>
      <trkpt lat="40.609512" lon="-1.876308">
        <ele>1399.076</ele>
        <time>1999-11-30T00:00:00Z</time>
      </trkpt>
      <trkpt lat="40.609398" lon="-1.876112">
        <ele>1399.065</ele>
        <time>1999-11-30T00:00:00Z</time>
      </trkpt>
      <trkpt lat="40.609171" lon="-1.875697">
        <ele>1403.066</ele>
        <time>1999-11-30T00:00:00Z</time>
      </trkpt>
      <trkpt lat="40.609067" lon="-1.875402">
        <ele>1404.024</ele>
        <time>1999-11-30T00:00:00Z</time>
      </trkpt>
      <trkpt lat="40.609015" lon="-1.875077">
        <ele>1404.038</ele>
        <time>1999-11-30T00:00:00Z</time>
      </trkpt>
      <trkpt lat="40.608922" lon="-1.874808">
        <ele>1405.070</ele>
        <time>1999-11-30T00:00:00Z</time>
      </trkpt>
      <trkpt lat="40.608765" lon="-1.874505">
        <ele>1406.017</ele>
        <time>1999-11-30T00:00:00Z</time>
      </trkpt>
      <trkpt lat="40.608544" lon="-1.874182">
        <ele>1409.008</ele>
        <time>1999-11-30T00:00:00Z</time>
      </trkpt>
      <trkpt lat="40.608383" lon="-1.873909">
        <ele>1412.064</ele>
        <time>1999-11-30T00:00:00Z</time>
      </trkpt>
      <trkpt lat="40.608266" lon="-1.873837">
        <ele>1413.098</ele>
        <time>1999-11-30T00:00:00Z</time>
      </trkpt>
      <trkpt lat="40.608119" lon="-1.873829">
        <ele>1415.049</ele>
        <time>1999-11-30T00:00:00Z</time>
      </trkpt>
      <trkpt lat="40.607932" lon="-1.873887">
        <ele>1418.063</ele>
        <time>1999-11-30T00:00:00Z</time>
      </trkpt>
      <trkpt lat="40.607816" lon="-1.873948">
        <ele>1419.058</ele>
        <time>1999-11-30T00:00:00Z</time>
      </trkpt>
      <trkpt lat="40.607741" lon="-1.873989">
        <ele>1420.067</ele>
        <time>1999-11-30T00:00:00Z</time>
      </trkpt>
      <trkpt lat="40.60763" lon="-1.874153">
        <ele>1423.038</ele>
        <time>1999-11-30T00:00:00Z</time>
      </trkpt>
      <trkpt lat="40.607437" lon="-1.874438">
        <ele>1427.046</ele>
        <time>1999-11-30T00:00:00Z</time>
      </trkpt>
      <trkpt lat="40.607282" lon="-1.874766">
        <ele>1430.013</ele>
        <time>1999-11-30T00:00:00Z</time>
      </trkpt>
      <trkpt lat="40.607251" lon="-1.875013">
        <ele>1432.043</ele>
        <time>1999-11-30T00:00:00Z</time>
      </trkpt>
      <trkpt lat="40.607174" lon="-1.875266">
        <ele>1433.007</ele>
        <time>1999-11-30T00:00:00Z</time>
      </trkpt>
      <trkpt lat="40.60707" lon="-1.875407">
        <ele>1434.008</ele>
        <time>1999-11-30T00:00:00Z</time>
      </trkpt>
      <trkpt lat="40.606947" lon="-1.875473">
        <ele>1435.052</ele>
        <time>1999-11-30T00:00:00Z</time>
      </trkpt>
      <trkpt lat="40.606815" lon="-1.87544">
        <ele>1436.036</ele>
        <time>1999-11-30T00:00:00Z</time>
      </trkpt>
      <trkpt lat="40.606644" lon="-1.87531">
        <ele>1438.067</ele>
        <time>1999-11-30T00:00:00Z</time>
      </trkpt>
      <trkpt lat="40.606401" lon="-1.875096">
        <ele>1440.031</ele>
        <time>1999-11-30T00:00:00Z</time>
      </trkpt>
      <trkpt lat="40.6062" lon="-1.874903">
        <ele>1442.036</ele>
        <time>1999-11-30T00:00:00Z</time>
      </trkpt>
      <trkpt lat="40.605988" lon="-1.874748">
        <ele>1443.085</ele>
        <time>1999-11-30T00:00:00Z</time>
      </trkpt>
      <trkpt lat="40.60582" lon="-1.874465">
        <ele>1443.086</ele>
        <time>1999-11-30T00:00:00Z</time>
      </trkpt>
      <trkpt lat="40.605625" lon="-1.874246">
        <ele>1443.074</ele>
        <time>1999-11-30T00:00:00Z</time>
      </trkpt>
      <trkpt lat="40.605444" lon="-1.874155">
        <ele>1443.079</ele>
        <time>1999-11-30T00:00:00Z</time>
      </trkpt>
      <trkpt lat="40.605293" lon="-1.874084">
        <ele>1444.005</ele>
        <time>1999-11-30T00:00:00Z</time>
      </trkpt>
      <trkpt lat="40.605079" lon="-1.874092">
        <ele>1444.025</ele>
        <time>1999-11-30T00:00:00Z</time>
      </trkpt>
      <trkpt lat="40.604887" lon="-1.874101">
        <ele>1444.008</ele>
        <time>1999-11-30T00:00:00Z</time>
      </trkpt>
      <trkpt lat="40.604714" lon="-1.87401">
        <ele>1444.028</ele>
        <time>1999-11-30T00:00:00Z</time>
      </trkpt>
      <trkpt lat="40.604467" lon="-1.873841">
        <ele>1445.012</ele>
        <time>1999-11-30T00:00:00Z</time>
      </trkpt>
      <trkpt lat="40.604274" lon="-1.873687">
        <ele>1447.073</ele>
        <time>1999-11-30T00:00:00Z</time>
      </trkpt>
      <trkpt lat="40.604072" lon="-1.873379">
        <ele>1450.037</ele>
        <time>1999-11-30T00:00:00Z</time>
      </trkpt>
      <trkpt lat="40.603995" lon="-1.873208">
        <ele>1451.072</ele>
        <time>1999-11-30T00:00:00Z</time>
      </trkpt>
      <trkpt lat="40.603982" lon="-1.873065">
        <ele>1452.091</ele>
        <time>1999-11-30T00:00:00Z</time>
      </trkpt>
      <trkpt lat="40.604014" lon="-1.872813">
        <ele>1454.052</ele>
        <time>1999-11-30T00:00:00Z</time>
      </trkpt>
      <trkpt lat="40.604015" lon="-1.872571">
        <ele>1456.070</ele>
        <time>1999-11-30T00:00:00Z</time>
      </trkpt>
      <trkpt lat="40.604006" lon="-1.872413">
        <ele>1457.094</ele>
        <time>1999-11-30T00:00:00Z</time>
      </trkpt>
      <trkpt lat="40.603909" lon="-1.872065">
        <ele>1460.057</ele>
        <time>1999-11-30T00:00:00Z</time>
      </trkpt>
      <trkpt lat="40.603864" lon="-1.871729">
        <ele>1460.022</ele>
        <time>1999-11-30T00:00:00Z</time>
      </trkpt>
      <trkpt lat="40.603797" lon="-1.871484">
        <ele>1461.008</ele>
        <time>1999-11-30T00:00:00Z</time>
      </trkpt>
      <trkpt lat="40.603693" lon="-1.871259">
        <ele>1462.070</ele>
        <time>1999-11-30T00:00:00Z</time>
      </trkpt>
      <trkpt lat="40.603673" lon="-1.871091">
        <ele>1463.014</ele>
        <time>1999-11-30T00:00:00Z</time>
      </trkpt>
      <trkpt lat="40.603689" lon="-1.870785">
        <ele>1465.045</ele>
        <time>1999-11-30T00:00:00Z</time>
      </trkpt>
      <trkpt lat="40.60372" lon="-1.870553">
        <ele>1467.059</ele>
        <time>1999-11-30T00:00:00Z</time>
      </trkpt>
      <trkpt lat="40.603764" lon="-1.870394">
        <ele>1468.034</ele>
        <time>1999-11-30T00:00:00Z</time>
      </trkpt>
      <trkpt lat="40.603767" lon="-1.870276">
        <ele>1469.043</ele>
        <time>1999-11-30T00:00:00Z</time>
      </trkpt>
      <trkpt lat="40.60372" lon="-1.870138">
        <ele>1471.034</ele>
        <time>1999-11-30T00:00:00Z</time>
      </trkpt>
      <trkpt lat="40.603716" lon="-1.87002">
        <ele>1471.062</ele>
        <time>1999-11-30T00:00:00Z</time>
      </trkpt>
      <trkpt lat="40.603777" lon="-1.869792">
        <ele>1472.049</ele>
        <time>1999-11-30T00:00:00Z</time>
      </trkpt>
      <trkpt lat="40.603787" lon="-1.869619">
        <ele>1472.002</ele>
        <time>1999-11-30T00:00:00Z</time>
      </trkpt>
      <trkpt lat="40.603736" lon="-1.869442">
        <ele>1474.022</ele>
        <time>1999-11-30T00:00:00Z</time>
      </trkpt>
      <trkpt lat="40.603621" lon="-1.869148">
        <ele>1476.008</ele>
        <time>1999-11-30T00:00:00Z</time>
      </trkpt>
      <trkpt lat="40.603432" lon="-1.868776">
        <ele>1481.025</ele>
        <time>1999-11-30T00:00:00Z</time>
      </trkpt>
      <trkpt lat="40.603288" lon="-1.868305">
        <ele>1487.039</ele>
        <time>1999-11-30T00:00:00Z</time>
      </trkpt>
      <trkpt lat="40.603148" lon="-1.86773">
        <ele>1493.080</ele>
        <time>1999-11-30T00:00:00Z</time>
      </trkpt>
      <trkpt lat="40.602961" lon="-1.867111">
        <ele>1497.034</ele>
        <time>1999-11-30T00:00:00Z</time>
      </trkpt>
      <trkpt lat="40.602845" lon="-1.866837">
        <ele>1500.019</ele>
        <time>1999-11-30T00:00:00Z</time>
      </trkpt>
      <trkpt lat="40.602644" lon="-1.866564">
        <ele>1502.028</ele>
        <time>1999-11-30T00:00:00Z</time>
      </trkpt>
      <trkpt lat="40.602302" lon="-1.86622">
        <ele>1505.089</ele>
        <time>1999-11-30T00:00:00Z</time>
      </trkpt>
      <trkpt lat="40.601811" lon="-1.865699">
        <ele>1506.047</ele>
        <time>1999-11-30T00:00:00Z</time>
      </trkpt>
      <trkpt lat="40.601233" lon="-1.865038">
        <ele>1515.078</ele>
        <time>1999-11-30T00:00:00Z</time>
      </trkpt>
      <trkpt lat="40.600633" lon="-1.864432">
        <ele>1524.033</ele>
        <time>1999-11-30T00:00:00Z</time>
      </trkpt>
      <trkpt lat="40.599952" lon="-1.863713">
        <ele>1528.026</ele>
        <time>1999-11-30T00:00:00Z</time>
      </trkpt>
      <trkpt lat="40.599558" lon="-1.863315">
        <ele>1528.008</ele>
        <time>1999-11-30T00:00:00Z</time>
      </trkpt>
      <trkpt lat="40.599283" lon="-1.86296">
        <ele>1527.098</ele>
        <time>1999-11-30T00:00:00Z</time>
      </trkpt>
      <trkpt lat="40.599065" lon="-1.862559">
        <ele>1524.022</ele>
        <time>1999-11-30T00:00:00Z</time>
      </trkpt>
      <trkpt lat="40.598759" lon="-1.862026">
        <ele>1523.033</ele>
        <time>1999-11-30T00:00:00Z</time>
      </trkpt>
      <trkpt lat="40.598605" lon="-1.861752">
        <ele>1523.027</ele>
        <time>1999-11-30T00:00:00Z</time>
      </trkpt>
      <trkpt lat="40.59854" lon="-1.861551">
        <ele>1524.062</ele>
        <time>1999-11-30T00:00:00Z</time>
      </trkpt>
      <trkpt lat="40.598542" lon="-1.861408">
        <ele>1524.071</ele>
        <time>1999-11-30T00:00:00Z</time>
      </trkpt>
      <trkpt lat="40.598664" lon="-1.861169">
        <ele>1524.092</ele>
        <time>1999-11-30T00:00:00Z</time>
      </trkpt>
      <trkpt lat="40.599104" lon="-1.860372">
        <ele>1525.060</ele>
        <time>1999-11-30T00:00:00Z</time>
      </trkpt>
      <trkpt lat="40.59951" lon="-1.859586">
        <ele>1529.031</ele>
        <time>1999-11-30T00:00:00Z</time>
      </trkpt>
      <trkpt lat="40.599612" lon="-1.859337">
        <ele>1529.061</ele>
        <time>1999-11-30T00:00:00Z</time>
      </trkpt>
      <trkpt lat="40.599652" lon="-1.859115">
        <ele>1530.007</ele>
        <time>1999-11-30T00:00:00Z</time>
      </trkpt>
      <trkpt lat="40.59964" lon="-1.85869">
        <ele>1531.008</ele>
        <time>1999-11-30T00:00:00Z</time>
      </trkpt>
      <trkpt lat="40.599596" lon="-1.858055">
        <ele>1536.024</ele>
        <time>1999-11-30T00:00:00Z</time>
      </trkpt>
      <trkpt lat="40.599556" lon="-1.857818">
        <ele>1539.068</ele>
        <time>1999-11-30T00:00:00Z</time>
      </trkpt>
      <trkpt lat="40.599483" lon="-1.857676">
        <ele>1540.089</ele>
        <time>1999-11-30T00:00:00Z</time>
      </trkpt>
      <trkpt lat="40.599285" lon="-1.857448">
        <ele>1542.063</ele>
        <time>1999-11-30T00:00:00Z</time>
      </trkpt>
      <trkpt lat="40.598637" lon="-1.856866">
        <ele>1543.098</ele>
        <time>1999-11-30T00:00:00Z</time>
      </trkpt>
      <trkpt lat="40.597646" lon="-1.855951">
        <ele>1546.047</ele>
        <time>1999-11-30T00:00:00Z</time>
      </trkpt>
      <trkpt lat="40.596966" lon="-1.855238">
        <ele>1556.078</ele>
        <time>1999-11-30T00:00:00Z</time>
      </trkpt>
      <trkpt lat="40.596776" lon="-1.855048">
        <ele>1557.066</ele>
        <time>1999-11-30T00:00:00Z</time>
      </trkpt>
      <trkpt lat="40.596602" lon="-1.854942">
        <ele>1557.039</ele>
        <time>1999-11-30T00:00:00Z</time>
      </trkpt>
      <trkpt lat="40.596338" lon="-1.854853">
        <ele>1558.001</ele>
        <time>1999-11-30T00:00:00Z</time>
      </trkpt>
      <trkpt lat="40.595348" lon="-1.8545">
        <ele>1556.021</ele>
        <time>1999-11-30T00:00:00Z</time>
      </trkpt>
      <trkpt lat="40.594997" lon="-1.854338">
        <ele>1554.008</ele>
        <time>1999-11-30T00:00:00Z</time>
      </trkpt>
      <trkpt lat="40.594917" lon="-1.854197">
        <ele>1552.084</ele>
        <time>1999-11-30T00:00:00Z</time>
      </trkpt>
      <trkpt lat="40.594903" lon="-1.854009">
        <ele>1550.028</ele>
        <time>1999-11-30T00:00:00Z</time>
      </trkpt>
      <trkpt lat="40.594962" lon="-1.853801">
        <ele>1549.059</ele>
        <time>1999-11-30T00:00:00Z</time>
      </trkpt>
      <trkpt lat="40.59508" lon="-1.853577">
        <ele>1549.053</ele>
        <time>1999-11-30T00:00:00Z</time>
      </trkpt>
      <trkpt lat="40.595299" lon="-1.853317">
        <ele>1549.058</ele>
        <time>1999-11-30T00:00:00Z</time>
      </trkpt>
      <trkpt lat="40.595994" lon="-1.852461">
        <ele>1557.087</ele>
        <time>1999-11-30T00:00:00Z</time>
      </trkpt>
      <trkpt lat="40.596883" lon="-1.851479">
        <ele>1563.068</ele>
        <time>1999-11-30T00:00:00Z</time>
      </trkpt>
      <trkpt lat="40.597826" lon="-1.8506">
        <ele>1561.076</ele>
        <time>1999-11-30T00:00:00Z</time>
      </trkpt>
      <trkpt lat="40.598045" lon="-1.850319">
        <ele>1560.045</ele>
        <time>1999-11-30T00:00:00Z</time>
      </trkpt>
      <trkpt lat="40.59813" lon="-1.85016">
        <ele>1560.047</ele>
        <time>1999-11-30T00:00:00Z</time>
      </trkpt>
      <trkpt lat="40.598132" lon="-1.850007">
        <ele>1560.011</ele>
        <time>1999-11-30T00:00:00Z</time>
      </trkpt>
      <trkpt lat="40.598078" lon="-1.84984">
        <ele>1560.008</ele>
        <time>1999-11-30T00:00:00Z</time>
      </trkpt>
      <trkpt lat="40.597938" lon="-1.849793">
        <ele>1559.055</ele>
        <time>1999-11-30T00:00:00Z</time>
      </trkpt>
      <trkpt lat="40.597754" lon="-1.849777">
        <ele>1559.049</ele>
        <time>1999-11-30T00:00:00Z</time>
      </trkpt>
      <trkpt lat="40.597495" lon="-1.849806">
        <ele>1559.060</ele>
        <time>1999-11-30T00:00:00Z</time>
      </trkpt>
      <trkpt lat="40.59731" lon="-1.849804">
        <ele>1560.024</ele>
        <time>1999-11-30T00:00:00Z</time>
      </trkpt>
      <trkpt lat="40.597045" lon="-1.84968">
        <ele>1558.099</ele>
        <time>1999-11-30T00:00:00Z</time>
      </trkpt>
      <trkpt lat="40.596811" lon="-1.849566">
        <ele>1556.078</ele>
        <time>1999-11-30T00:00:00Z</time>
      </trkpt>
      <trkpt lat="40.596648" lon="-1.849411">
        <ele>1554.059</ele>
        <time>1999-11-30T00:00:00Z</time>
      </trkpt>
      <trkpt lat="40.596583" lon="-1.849289">
        <ele>1551.027</ele>
        <time>1999-11-30T00:00:00Z</time>
      </trkpt>
      <trkpt lat="40.596571" lon="-1.849195">
        <ele>1549.096</ele>
        <time>1999-11-30T00:00:00Z</time>
      </trkpt>
      <trkpt lat="40.596622" lon="-1.849106">
        <ele>1544.031</ele>
        <time>1999-11-30T00:00:00Z</time>
      </trkpt>
      <trkpt lat="40.596788" lon="-1.849142">
        <ele>1543.024</ele>
        <time>1999-11-30T00:00:00Z</time>
      </trkpt>
      <trkpt lat="40.597112" lon="-1.849191">
        <ele>1542.008</ele>
        <time>1999-11-30T00:00:00Z</time>
      </trkpt>
      <trkpt lat="40.597289" lon="-1.849163">
        <ele>1539.080</ele>
        <time>1999-11-30T00:00:00Z</time>
      </trkpt>
      <trkpt lat="40.597468" lon="-1.849096">
        <ele>1538.044</ele>
        <time>1999-11-30T00:00:00Z</time>
      </trkpt>
      <trkpt lat="40.597865" lon="-1.848852">
        <ele>1536.025</ele>
        <time>1999-11-30T00:00:00Z</time>
      </trkpt>
      <trkpt lat="40.598029" lon="-1.848731">
        <ele>1535.069</ele>
        <time>1999-11-30T00:00:00Z</time>
      </trkpt>
      <trkpt lat="40.598186" lon="-1.848585">
        <ele>1532.024</ele>
        <time>1999-11-30T00:00:00Z</time>
      </trkpt>
      <trkpt lat="40.598414" lon="-1.848463">
        <ele>1530.073</ele>
        <time>1999-11-30T00:00:00Z</time>
      </trkpt>
      <trkpt lat="40.59895" lon="-1.84831">
        <ele>1524.014</ele>
        <time>1999-11-30T00:00:00Z</time>
      </trkpt>
      <trkpt lat="40.599397" lon="-1.848234">
        <ele>1520.042</ele>
        <time>1999-11-30T00:00:00Z</time>
      </trkpt>
      <trkpt lat="40.599728" lon="-1.848228">
        <ele>1516.077</ele>
        <time>1999-11-30T00:00:00Z</time>
      </trkpt>
      <trkpt lat="40.599965" lon="-1.848273">
        <ele>1515.061</ele>
        <time>1999-11-30T00:00:00Z</time>
      </trkpt>
      <trkpt lat="40.600448" lon="-1.848438">
        <ele>1505.027</ele>
        <time>1999-11-30T00:00:00Z</time>
      </trkpt>
      <trkpt lat="40.600727" lon="-1.848467">
        <ele>1500.008</ele>
        <time>1999-11-30T00:00:00Z</time>
      </trkpt>
      <trkpt lat="40.600941" lon="-1.848419">
        <ele>1496.088</ele>
        <time>1999-11-30T00:00:00Z</time>
      </trkpt>
      <trkpt lat="40.601297" lon="-1.848255">
        <ele>1489.072</ele>
        <time>1999-11-30T00:00:00Z</time>
      </trkpt>
      <trkpt lat="40.601667" lon="-1.848061">
        <ele>1487.013</ele>
        <time>1999-11-30T00:00:00Z</time>
      </trkpt>
      <trkpt lat="40.601884" lon="-1.847959">
        <ele>1483.097</ele>
        <time>1999-11-30T00:00:00Z</time>
      </trkpt>
      <trkpt lat="40.602102" lon="-1.84795">
        <ele>1479.042</ele>
        <time>1999-11-30T00:00:00Z</time>
      </trkpt>
      <trkpt lat="40.60246" lon="-1.848033">
        <ele>1475.091</ele>
        <time>1999-11-30T00:00:00Z</time>
      </trkpt>
      <trkpt lat="40.603073" lon="-1.848333">
        <ele>1469.082</ele>
        <time>1999-11-30T00:00:00Z</time>
      </trkpt>
      <trkpt lat="40.604198" lon="-1.848807">
        <ele>1445.050</ele>
        <time>1999-11-30T00:00:00Z</time>
      </trkpt>
      <trkpt lat="40.604607" lon="-1.849097">
        <ele>1436.079</ele>
        <time>1999-11-30T00:00:00Z</time>
      </trkpt>
      <trkpt lat="40.604911" lon="-1.849382">
        <ele>1431.005</ele>
        <time>1999-11-30T00:00:00Z</time>
      </trkpt>
      <trkpt lat="40.605082" lon="-1.849533">
        <ele>1430.025</ele>
        <time>1999-11-30T00:00:00Z</time>
      </trkpt>
      <trkpt lat="40.605281" lon="-1.849569">
        <ele>1427.008</ele>
        <time>1999-11-30T00:00:00Z</time>
      </trkpt>
      <trkpt lat="40.605518" lon="-1.849545">
        <ele>1421.038</ele>
        <time>1999-11-30T00:00:00Z</time>
      </trkpt>
      <trkpt lat="40.605841" lon="-1.84946">
        <ele>1410.082</ele>
        <time>1999-11-30T00:00:00Z</time>
      </trkpt>
      <trkpt lat="40.6061" lon="-1.849445">
        <ele>1408.093</ele>
        <time>1999-11-30T00:00:00Z</time>
      </trkpt>
      <trkpt lat="40.606315" lon="-1.849517">
        <ele>1406.047</ele>
        <time>1999-11-30T00:00:00Z</time>
      </trkpt>
      <trkpt lat="40.60675" lon="-1.849736">
        <ele>1401.032</ele>
        <time>1999-11-30T00:00:00Z</time>
      </trkpt>
      <trkpt lat="40.607108" lon="-1.849848">
        <ele>1400.011</ele>
        <time>1999-11-30T00:00:00Z</time>
      </trkpt>
      <trkpt lat="40.607708" lon="-1.850025">
        <ele>1395.062</ele>
        <time>1999-11-30T00:00:00Z</time>
      </trkpt>
      <trkpt lat="40.608322" lon="-1.850079">
        <ele>1394.010</ele>
        <time>1999-11-30T00:00:00Z</time>
      </trkpt>
      <trkpt lat="40.608746" lon="-1.850057">
        <ele>1396.054</ele>
        <time>1999-11-30T00:00:00Z</time>
      </trkpt>
      <trkpt lat="40.60899" lon="-1.849954">
        <ele>1399.056</ele>
        <time>1999-11-30T00:00:00Z</time>
      </trkpt>
      <trkpt lat="40.609244" lon="-1.849757">
        <ele>1401.011</ele>
        <time>1999-11-30T00:00:00Z</time>
      </trkpt>
      <trkpt lat="40.609608" lon="-1.849361">
        <ele>1399.008</ele>
        <time>1999-11-30T00:00:00Z</time>
      </trkpt>
      <trkpt lat="40.609908" lon="-1.848922">
        <ele>1396.076</ele>
        <time>1999-11-30T00:00:00Z</time>
      </trkpt>
      <trkpt lat="40.610082" lon="-1.848613">
        <ele>1396.070</ele>
        <time>1999-11-30T00:00:00Z</time>
      </trkpt>
      <trkpt lat="40.610261" lon="-1.848442">
        <ele>1395.011</ele>
        <time>1999-11-30T00:00:00Z</time>
      </trkpt>
      <trkpt lat="40.610489" lon="-1.84825">
        <ele>1393.045</ele>
        <time>1999-11-30T00:00:00Z</time>
      </trkpt>
      <trkpt lat="40.610599" lon="-1.848085">
        <ele>1393.010</ele>
        <time>1999-11-30T00:00:00Z</time>
      </trkpt>
      <trkpt lat="40.610647" lon="-1.847937">
        <ele>1394.069</ele>
        <time>1999-11-30T00:00:00Z</time>
      </trkpt>
      <trkpt lat="40.610622" lon="-1.84771">
        <ele>1398.020</ele>
        <time>1999-11-30T00:00:00Z</time>
      </trkpt>
      <trkpt lat="40.610571" lon="-1.84747">
        <ele>1403.018</ele>
        <time>1999-11-30T00:00:00Z</time>
      </trkpt>
      <trkpt lat="40.610568" lon="-1.847223">
        <ele>1403.029</ele>
        <time>1999-11-30T00:00:00Z</time>
      </trkpt>
      <trkpt lat="40.610627" lon="-1.847044">
        <ele>1402.000</ele>
        <time>1999-11-30T00:00:00Z</time>
      </trkpt>
      <trkpt lat="40.610745" lon="-1.846844">
        <ele>1398.020</ele>
        <time>1999-11-30T00:00:00Z</time>
      </trkpt>
      <trkpt lat="40.611098" lon="-1.846345">
        <ele>1389.008</ele>
        <time>1999-11-30T00:00:00Z</time>
      </trkpt>
      <trkpt lat="40.611327" lon="-1.845995">
        <ele>1389.033</ele>
        <time>1999-11-30T00:00:00Z</time>
      </trkpt>
      <trkpt lat="40.6114" lon="-1.845753">
        <ele>1390.097</ele>
        <time>1999-11-30T00:00:00Z</time>
      </trkpt>
      <trkpt lat="40.611489" lon="-1.845568">
        <ele>1389.078</ele>
        <time>1999-11-30T00:00:00Z</time>
      </trkpt>
      <trkpt lat="40.611756" lon="-1.845238">
        <ele>1389.032</ele>
        <time>1999-11-30T00:00:00Z</time>
      </trkpt>
      <trkpt lat="40.611901" lon="-1.845107">
        <ele>1388.027</ele>
        <time>1999-11-30T00:00:00Z</time>
      </trkpt>
      <trkpt lat="40.612261" lon="-1.845012">
        <ele>1384.086</ele>
        <time>1999-11-30T00:00:00Z</time>
      </trkpt>
      <trkpt lat="40.612745" lon="-1.844836">
        <ele>1378.077</ele>
        <time>1999-11-30T00:00:00Z</time>
      </trkpt>
      <trkpt lat="40.6133" lon="-1.844678">
        <ele>1369.075</ele>
        <time>1999-11-30T00:00:00Z</time>
      </trkpt>
      <trkpt lat="40.61348" lon="-1.844606">
        <ele>1365.045</ele>
        <time>1999-11-30T00:00:00Z</time>
      </trkpt>
      <trkpt lat="40.613517" lon="-1.844522">
        <ele>1362.047</ele>
        <time>1999-11-30T00:00:00Z</time>
      </trkpt>
      <trkpt lat="40.613489" lon="-1.844448">
        <ele>1361.011</ele>
        <time>1999-11-30T00:00:00Z</time>
      </trkpt>
      <trkpt lat="40.613425" lon="-1.844375">
        <ele>1360.008</ele>
        <time>1999-11-30T00:00:00Z</time>
      </trkpt>
      <trkpt lat="40.61327" lon="-1.844358">
        <ele>1361.035</ele>
        <time>1999-11-30T00:00:00Z</time>
      </trkpt>
      <trkpt lat="40.613085" lon="-1.844282">
        <ele>1359.089</ele>
        <time>1999-11-30T00:00:00Z</time>
      </trkpt>
      <trkpt lat="40.612955" lon="-1.844082">
        <ele>1354.010</ele>
        <time>1999-11-30T00:00:00Z</time>
      </trkpt>
      <trkpt lat="40.612715" lon="-1.84377">
        <ele>1349.014</ele>
        <time>1999-11-30T00:00:00Z</time>
      </trkpt>
      <trkpt lat="40.612548" lon="-1.843576">
        <ele>1345.019</ele>
        <time>1999-11-30T00:00:00Z</time>
      </trkpt>
      <trkpt lat="40.612312" lon="-1.842958">
        <ele>1339.028</ele>
        <time>1999-11-30T00:00:00Z</time>
      </trkpt>
      <trkpt lat="40.612212" lon="-1.842728">
        <ele>1339.019</ele>
        <time>1999-11-30T00:00:00Z</time>
      </trkpt>
      <trkpt lat="40.612083" lon="-1.842592">
        <ele>1341.037</ele>
        <time>1999-11-30T00:00:00Z</time>
      </trkpt>
      <trkpt lat="40.611871" lon="-1.842482">
        <ele>1342.014</ele>
        <time>1999-11-30T00:00:00Z</time>
      </trkpt>
      <trkpt lat="40.611516" lon="-1.842281">
        <ele>1340.054</ele>
        <time>1999-11-30T00:00:00Z</time>
      </trkpt>
      <trkpt lat="40.611172" lon="-1.842159">
        <ele>1337.009</ele>
        <time>1999-11-30T00:00:00Z</time>
      </trkpt>
      <trkpt lat="40.610866" lon="-1.842011">
        <ele>1333.008</ele>
        <time>1999-11-30T00:00:00Z</time>
      </trkpt>
      <trkpt lat="40.61065" lon="-1.841847">
        <ele>1328.052</ele>
        <time>1999-11-30T00:00:00Z</time>
      </trkpt>
      <trkpt lat="40.61044" lon="-1.841579">
        <ele>1323.096</ele>
        <time>1999-11-30T00:00:00Z</time>
      </trkpt>
      <trkpt lat="40.610021" lon="-1.840673">
        <ele>1313.027</ele>
        <time>1999-11-30T00:00:00Z</time>
      </trkpt>
      <trkpt lat="40.609468" lon="-1.839533">
        <ele>1310.031</ele>
        <time>1999-11-30T00:00:00Z</time>
      </trkpt>
      <trkpt lat="40.609075" lon="-1.838593">
        <ele>1304.096</ele>
        <time>1999-11-30T00:00:00Z</time>
      </trkpt>
      <trkpt lat="40.608938" lon="-1.838417">
        <ele>1303.075</ele>
        <time>1999-11-30T00:00:00Z</time>
      </trkpt>
      <trkpt lat="40.608745" lon="-1.838272">
        <ele>1301.046</ele>
        <time>1999-11-30T00:00:00Z</time>
      </trkpt>
      <trkpt lat="40.608582" lon="-1.838107">
        <ele>1300.014</ele>
        <time>1999-11-30T00:00:00Z</time>
      </trkpt>
      <trkpt lat="40.608542" lon="-1.83794">
        <ele>1300.035</ele>
        <time>1999-11-30T00:00:00Z</time>
      </trkpt>
      <trkpt lat="40.60854" lon="-1.837728">
        <ele>1300.086</ele>
        <time>1999-11-30T00:00:00Z</time>
      </trkpt>
      <trkpt lat="40.608681" lon="-1.837538">
        <ele>1300.014</ele>
        <time>1999-11-30T00:00:00Z</time>
      </trkpt>
      <trkpt lat="40.609108" lon="-1.836983">
        <ele>1299.008</ele>
        <time>1999-11-30T00:00:00Z</time>
      </trkpt>
      <trkpt lat="40.609611" lon="-1.836189">
        <ele>1312.034</ele>
        <time>1999-11-30T00:00:00Z</time>
      </trkpt>
      <trkpt lat="40.609692" lon="-1.835966">
        <ele>1316.098</ele>
        <time>1999-11-30T00:00:00Z</time>
      </trkpt>
      <trkpt lat="40.609694" lon="-1.835778">
        <ele>1321.089</ele>
        <time>1999-11-30T00:00:00Z</time>
      </trkpt>
      <trkpt lat="40.609643" lon="-1.835636">
        <ele>1323.043</ele>
        <time>1999-11-30T00:00:00Z</time>
      </trkpt>
      <trkpt lat="40.609526" lon="-1.835515">
        <ele>1328.058</ele>
        <time>1999-11-30T00:00:00Z</time>
      </trkpt>
      <trkpt lat="40.609396" lon="-1.835384">
        <ele>1330.017</ele>
        <time>1999-11-30T00:00:00Z</time>
      </trkpt>
      <trkpt lat="40.609362" lon="-1.835281">
        <ele>1328.048</ele>
        <time>1999-11-30T00:00:00Z</time>
      </trkpt>
      <trkpt lat="40.609432" lon="-1.835136">
        <ele>1323.016</ele>
        <time>1999-11-30T00:00:00Z</time>
      </trkpt>
      <trkpt lat="40.609592" lon="-1.835011">
        <ele>1319.049</ele>
        <time>1999-11-30T00:00:00Z</time>
      </trkpt>
      <trkpt lat="40.609753" lon="-1.834899">
        <ele>1318.002</ele>
        <time>1999-11-30T00:00:00Z</time>
      </trkpt>
      <trkpt lat="40.609797" lon="-1.834765">
        <ele>1322.022</ele>
        <time>1999-11-30T00:00:00Z</time>
      </trkpt>
      <trkpt lat="40.609787" lon="-1.834563">
        <ele>1329.008</ele>
        <time>1999-11-30T00:00:00Z</time>
      </trkpt>
      <trkpt lat="40.609703" lon="-1.834407">
        <ele>1329.055</ele>
        <time>1999-11-30T00:00:00Z</time>
      </trkpt>
      <trkpt lat="40.609569" lon="-1.834236">
        <ele>1331.049</ele>
        <time>1999-11-30T00:00:00Z</time>
      </trkpt>
      <trkpt lat="40.609473" lon="-1.834026">
        <ele>1333.040</ele>
        <time>1999-11-30T00:00:00Z</time>
      </trkpt>
      <trkpt lat="40.609399" lon="-1.833725">
        <ele>1334.064</ele>
        <time>1999-11-30T00:00:00Z</time>
      </trkpt>
      <trkpt lat="40.60932" lon="-1.833431">
        <ele>1338.059</ele>
        <time>1999-11-30T00:00:00Z</time>
      </trkpt>
      <trkpt lat="40.609221" lon="-1.833275">
        <ele>1341.018</ele>
        <time>1999-11-30T00:00:00Z</time>
      </trkpt>
      <trkpt lat="40.608954" lon="-1.832905">
        <ele>1346.089</ele>
        <time>1999-11-30T00:00:00Z</time>
      </trkpt>
      <trkpt lat="40.608796" lon="-1.832547">
        <ele>1345.067</ele>
        <time>1999-11-30T00:00:00Z</time>
      </trkpt>
      <trkpt lat="40.608685" lon="-1.832272">
        <ele>1345.093</ele>
        <time>1999-11-30T00:00:00Z</time>
      </trkpt>
      <trkpt lat="40.608452" lon="-1.831916">
        <ele>1345.065</ele>
        <time>1999-11-30T00:00:00Z</time>
      </trkpt>
      <trkpt lat="40.608288" lon="-1.831786">
        <ele>1347.021</ele>
        <time>1999-11-30T00:00:00Z</time>
      </trkpt>
      <trkpt lat="40.608073" lon="-1.831686">
        <ele>1349.008</ele>
        <time>1999-11-30T00:00:00Z</time>
      </trkpt>
      <trkpt lat="40.607763" lon="-1.831523">
        <ele>1355.060</ele>
        <time>1999-11-30T00:00:00Z</time>
      </trkpt>
      <trkpt lat="40.607468" lon="-1.831351">
        <ele>1353.024</ele>
        <time>1999-11-30T00:00:00Z</time>
      </trkpt>
      <trkpt lat="40.607263" lon="-1.831167">
        <ele>1353.025</ele>
        <time>1999-11-30T00:00:00Z</time>
      </trkpt>
      <trkpt lat="40.60714" lon="-1.830947">
        <ele>1347.039</ele>
        <time>1999-11-30T00:00:00Z</time>
      </trkpt>
      <trkpt lat="40.607027" lon="-1.83055">
        <ele>1344.064</ele>
        <time>1999-11-30T00:00:00Z</time>
      </trkpt>
      <trkpt lat="40.606848" lon="-1.829886">
        <ele>1349.093</ele>
        <time>1999-11-30T00:00:00Z</time>
      </trkpt>
      <trkpt lat="40.606643" lon="-1.829407">
        <ele>1352.024</ele>
        <time>1999-11-30T00:00:00Z</time>
      </trkpt>
      <trkpt lat="40.606398" lon="-1.828611">
        <ele>1362.082</ele>
        <time>1999-11-30T00:00:00Z</time>
      </trkpt>
      <trkpt lat="40.606291" lon="-1.828381">
        <ele>1363.098</ele>
        <time>1999-11-30T00:00:00Z</time>
      </trkpt>
      <trkpt lat="40.606134" lon="-1.828157">
        <ele>1360.015</ele>
        <time>1999-11-30T00:00:00Z</time>
      </trkpt>
      <trkpt lat="40.605985" lon="-1.827922">
        <ele>1358.026</ele>
        <time>1999-11-30T00:00:00Z</time>
      </trkpt>
      <trkpt lat="40.605847" lon="-1.827688">
        <ele>1358.008</ele>
        <time>1999-11-30T00:00:00Z</time>
      </trkpt>
      <trkpt lat="40.605641" lon="-1.827371">
        <ele>1356.020</ele>
        <time>1999-11-30T00:00:00Z</time>
      </trkpt>
      <trkpt lat="40.60515" lon="-1.826827">
        <ele>1350.024</ele>
        <time>1999-11-30T00:00:00Z</time>
      </trkpt>
      <trkpt lat="40.604838" lon="-1.826438">
        <ele>1352.025</ele>
        <time>1999-11-30T00:00:00Z</time>
      </trkpt>
      <trkpt lat="40.604745" lon="-1.826232">
        <ele>1354.059</ele>
        <time>1999-11-30T00:00:00Z</time>
      </trkpt>
      <trkpt lat="40.604728" lon="-1.825991">
        <ele>1355.034</ele>
        <time>1999-11-30T00:00:00Z</time>
      </trkpt>
      <trkpt lat="40.604748" lon="-1.825684">
        <ele>1356.033</ele>
        <time>1999-11-30T00:00:00Z</time>
      </trkpt>
      <trkpt lat="40.6047" lon="-1.825418">
        <ele>1358.084</ele>
        <time>1999-11-30T00:00:00Z</time>
      </trkpt>
      <trkpt lat="40.604607" lon="-1.825208">
        <ele>1360.052</ele>
        <time>1999-11-30T00:00:00Z</time>
      </trkpt>
      <trkpt lat="40.604455" lon="-1.825023">
        <ele>1362.094</ele>
        <time>1999-11-30T00:00:00Z</time>
      </trkpt>
      <trkpt lat="40.604282" lon="-1.824686">
        <ele>1364.057</ele>
        <time>1999-11-30T00:00:00Z</time>
      </trkpt>
      <trkpt lat="40.604009" lon="-1.824025">
        <ele>1372.022</ele>
        <time>1999-11-30T00:00:00Z</time>
      </trkpt>
      <trkpt lat="40.603898" lon="-1.823597">
        <ele>1369.008</ele>
        <time>1999-11-30T00:00:00Z</time>
      </trkpt>
      <trkpt lat="40.603881" lon="-1.823326">
        <ele>1361.080</ele>
        <time>1999-11-30T00:00:00Z</time>
      </trkpt>
      <trkpt lat="40.603823" lon="-1.823164">
        <ele>1361.064</ele>
        <time>1999-11-30T00:00:00Z</time>
      </trkpt>
      <trkpt lat="40.603667" lon="-1.823043">
        <ele>1363.035</ele>
        <time>1999-11-30T00:00:00Z</time>
      </trkpt>
      <trkpt lat="40.603348" lon="-1.822733">
        <ele>1365.059</ele>
        <time>1999-11-30T00:00:00Z</time>
      </trkpt>
      <trkpt lat="40.602994" lon="-1.8223">
        <ele>1373.084</ele>
        <time>1999-11-30T00:00:00Z</time>
      </trkpt>
      <trkpt lat="40.602779" lon="-1.821889">
        <ele>1361.013</ele>
        <time>1999-11-30T00:00:00Z</time>
      </trkpt>
      <trkpt lat="40.602719" lon="-1.82153">
        <ele>1353.094</ele>
        <time>1999-11-30T00:00:00Z</time>
      </trkpt>
      <trkpt lat="40.602688" lon="-1.821023">
        <ele>1354.022</ele>
        <time>1999-11-30T00:00:00Z</time>
      </trkpt>
      <trkpt lat="40.602659" lon="-1.820722">
        <ele>1355.035</ele>
        <time>1999-11-30T00:00:00Z</time>
      </trkpt>
      <trkpt lat="40.602581" lon="-1.820506">
        <ele>1356.086</ele>
        <time>1999-11-30T00:00:00Z</time>
      </trkpt>
      <trkpt lat="40.602423" lon="-1.820134">
        <ele>1354.014</ele>
        <time>1999-11-30T00:00:00Z</time>
      </trkpt>
      <trkpt lat="40.602263" lon="-1.819633">
        <ele>1353.008</ele>
        <time>1999-11-30T00:00:00Z</time>
      </trkpt>
      <trkpt lat="40.602226" lon="-1.81923">
        <ele>1352.064</ele>
        <time>1999-11-30T00:00:00Z</time>
      </trkpt>
      <trkpt lat="40.602197" lon="-1.818692">
        <ele>1351.088</ele>
        <time>1999-11-30T00:00:00Z</time>
      </trkpt>
      <trkpt lat="40.602156" lon="-1.818268">
        <ele>1355.029</ele>
        <time>1999-11-30T00:00:00Z</time>
      </trkpt>
      <trkpt lat="40.602065" lon="-1.817876">
        <ele>1361.073</ele>
        <time>1999-11-30T00:00:00Z</time>
      </trkpt>
      <trkpt lat="40.601835" lon="-1.817391">
        <ele>1361.078</ele>
        <time>1999-11-30T00:00:00Z</time>
      </trkpt>
      <trkpt lat="40.601707" lon="-1.817092">
        <ele>1361.017</ele>
        <time>1999-11-30T00:00:00Z</time>
      </trkpt>
      <trkpt lat="40.601655" lon="-1.816777">
        <ele>1363.018</ele>
        <time>1999-11-30T00:00:00Z</time>
      </trkpt>
      <trkpt lat="40.601734" lon="-1.816416">
        <ele>1361.016</ele>
        <time>1999-11-30T00:00:00Z</time>
      </trkpt>
      <trkpt lat="40.601884" lon="-1.815954">
        <ele>1360.059</ele>
        <time>1999-11-30T00:00:00Z</time>
      </trkpt>
      <trkpt lat="40.602163" lon="-1.815372">
        <ele>1351.003</ele>
        <time>1999-11-30T00:00:00Z</time>
      </trkpt>
      <trkpt lat="40.602468" lon="-1.814686">
        <ele>1346.023</ele>
        <time>1999-11-30T00:00:00Z</time>
      </trkpt>
      <trkpt lat="40.602609" lon="-1.814397">
        <ele>1344.008</ele>
        <time>1999-11-30T00:00:00Z</time>
      </trkpt>
      <trkpt lat="40.602715" lon="-1.814193">
        <ele>1342.046</ele>
        <time>1999-11-30T00:00:00Z</time>
      </trkpt>
      <trkpt lat="40.603087" lon="-1.814117">
        <ele>1338.070</ele>
        <time>1999-11-30T00:00:00Z</time>
      </trkpt>
      <trkpt lat="40.603482" lon="-1.81411">
        <ele>1335.031</ele>
        <time>1999-11-30T00:00:00Z</time>
      </trkpt>
      <trkpt lat="40.603795" lon="-1.814159">
        <ele>1331.055</ele>
        <time>1999-11-30T00:00:00Z</time>
      </trkpt>
      <trkpt lat="40.604191" lon="-1.81427">
        <ele>1327.020</ele>
        <time>1999-11-30T00:00:00Z</time>
      </trkpt>
      <trkpt lat="40.604504" lon="-1.814363">
        <ele>1325.089</ele>
        <time>1999-11-30T00:00:00Z</time>
      </trkpt>
      <trkpt lat="40.604703" lon="-1.81437">
        <ele>1323.030</ele>
        <time>1999-11-30T00:00:00Z</time>
      </trkpt>
      <trkpt lat="40.604857" lon="-1.814318">
        <ele>1321.088</ele>
        <time>1999-11-30T00:00:00Z</time>
      </trkpt>
      <trkpt lat="40.605047" lon="-1.814167">
        <ele>1320.022</ele>
        <time>1999-11-30T00:00:00Z</time>
      </trkpt>
      <trkpt lat="40.605282" lon="-1.813975">
        <ele>1319.062</ele>
        <time>1999-11-30T00:00:00Z</time>
      </trkpt>
      <trkpt lat="40.605496" lon="-1.813887">
        <ele>1317.008</ele>
        <time>1999-11-30T00:00:00Z</time>
      </trkpt>
      <trkpt lat="40.60574" lon="-1.813858">
        <ele>1315.008</ele>
        <time>1999-11-30T00:00:00Z</time>
      </trkpt>
      <trkpt lat="40.605928" lon="-1.813825">
        <ele>1314.093</ele>
        <time>1999-11-30T00:00:00Z</time>
      </trkpt>
      <trkpt lat="40.606088" lon="-1.813709">
        <ele>1312.057</ele>
        <time>1999-11-30T00:00:00Z</time>
      </trkpt>
      <trkpt lat="40.606168" lon="-1.813505">
        <ele>1312.038</ele>
        <time>1999-11-30T00:00:00Z</time>
      </trkpt>
      <trkpt lat="40.606177" lon="-1.813219">
        <ele>1311.022</ele>
        <time>1999-11-30T00:00:00Z</time>
      </trkpt>
      <trkpt lat="40.606146" lon="-1.812716">
        <ele>1310.087</ele>
        <time>1999-11-30T00:00:00Z</time>
      </trkpt>
      <trkpt lat="40.606155" lon="-1.812494">
        <ele>1310.076</ele>
        <time>1999-11-30T00:00:00Z</time>
      </trkpt>
      <trkpt lat="40.606269" lon="-1.81227">
        <ele>1309.027</ele>
        <time>1999-11-30T00:00:00Z</time>
      </trkpt>
      <trkpt lat="40.606459" lon="-1.812064">
        <ele>1309.035</ele>
        <time>1999-11-30T00:00:00Z</time>
      </trkpt>
      <trkpt lat="40.60683" lon="-1.811569">
        <ele>1309.052</ele>
        <time>1999-11-30T00:00:00Z</time>
      </trkpt>
      <trkpt lat="40.60736" lon="-1.810877">
        <ele>1312.053</ele>
        <time>1999-11-30T00:00:00Z</time>
      </trkpt>
      <trkpt lat="40.606758" lon="-1.810157">
        <ele>1312.008</ele>
        <time>1999-11-30T00:00:00Z</time>
      </trkpt>
      <trkpt lat="40.60554" lon="-1.808683">
        <ele>1313.008</ele>
        <time>1999-11-30T00:00:00Z</time>
      </trkpt>
      <trkpt lat="40.603984" lon="-1.807312">
        <ele>1317.076</ele>
        <time>1999-11-30T00:00:00Z</time>
      </trkpt>
      <trkpt lat="40.602909" lon="-1.806444">
        <ele>1316.030</ele>
        <time>1999-11-30T00:00:00Z</time>
      </trkpt>
      <trkpt lat="40.602556" lon="-1.805924">
        <ele>1319.031</ele>
        <time>1999-11-30T00:00:00Z</time>
      </trkpt>
      <trkpt lat="40.602211" lon="-1.805238">
        <ele>1322.075</ele>
        <time>1999-11-30T00:00:00Z</time>
      </trkpt>
      <trkpt lat="40.601771" lon="-1.804511">
        <ele>1326.080</ele>
        <time>1999-11-30T00:00:00Z</time>
      </trkpt>
      <trkpt lat="40.601181" lon="-1.803677">
        <ele>1324.079</ele>
        <time>1999-11-30T00:00:00Z</time>
      </trkpt>
      <trkpt lat="40.600845" lon="-1.802797">
        <ele>1321.060</ele>
        <time>1999-11-30T00:00:00Z</time>
      </trkpt>
      <trkpt lat="40.600699" lon="-1.801969">
        <ele>1323.068</ele>
        <time>1999-11-30T00:00:00Z</time>
      </trkpt>
      <trkpt lat="40.600741" lon="-1.800929">
        <ele>1322.065</ele>
        <time>1999-11-30T00:00:00Z</time>
      </trkpt>
      <trkpt lat="40.600858" lon="-1.800027">
        <ele>1323.068</ele>
        <time>1999-11-30T00:00:00Z</time>
      </trkpt>
      <trkpt lat="40.600852" lon="-1.799376">
        <ele>1324.014</ele>
        <time>1999-11-30T00:00:00Z</time>
      </trkpt>
      <trkpt lat="40.600673" lon="-1.798424">
        <ele>1323.008</ele>
        <time>1999-11-30T00:00:00Z</time>
      </trkpt>
      <trkpt lat="40.600251" lon="-1.79742">
        <ele>1325.087</ele>
        <time>1999-11-30T00:00:00Z</time>
      </trkpt>
      <trkpt lat="40.599892" lon="-1.79643">
        <ele>1328.031</ele>
        <time>1999-11-30T00:00:00Z</time>
      </trkpt>
      <trkpt lat="40.599591" lon="-1.794926">
        <ele>1332.012</ele>
        <time>1999-11-30T00:00:00Z</time>
      </trkpt>
      <trkpt lat="40.599244" lon="-1.793949">
        <ele>1332.026</ele>
        <time>1999-11-30T00:00:00Z</time>
      </trkpt>
      <trkpt lat="40.598815" lon="-1.793319">
        <ele>1327.031</ele>
        <time>1999-11-30T00:00:00Z</time>
      </trkpt>
      <trkpt lat="40.598164" lon="-1.792694">
        <ele>1329.090</ele>
        <time>1999-11-30T00:00:00Z</time>
      </trkpt>
      <trkpt lat="40.597683" lon="-1.792079">
        <ele>1331.071</ele>
        <time>1999-11-30T00:00:00Z</time>
      </trkpt>
      <trkpt lat="40.597207" lon="-1.791049">
        <ele>1339.019</ele>
        <time>1999-11-30T00:00:00Z</time>
      </trkpt>
      <trkpt lat="40.596671" lon="-1.790242">
        <ele>1341.063</ele>
        <time>1999-11-30T00:00:00Z</time>
      </trkpt>
      <trkpt lat="40.595883" lon="-1.789578">
        <ele>1333.044</ele>
        <time>1999-11-30T00:00:00Z</time>
      </trkpt>
      <trkpt lat="40.595131" lon="-1.789272">
        <ele>1335.018</ele>
        <time>1999-11-30T00:00:00Z</time>
      </trkpt>
      <trkpt lat="40.594338" lon="-1.789204">
        <ele>1339.008</ele>
        <time>1999-11-30T00:00:00Z</time>
      </trkpt>
      <trkpt lat="40.593474" lon="-1.78933">
        <ele>1342.067</ele>
        <time>1999-11-30T00:00:00Z</time>
      </trkpt>
      <trkpt lat="40.592085" lon="-1.789785">
        <ele>1342.061</ele>
        <time>1999-11-30T00:00:00Z</time>
      </trkpt>
      <trkpt lat="40.591706" lon="-1.789833">
        <ele>1344.052</ele>
        <time>1999-11-30T00:00:00Z</time>
      </trkpt>
      <trkpt lat="40.591271" lon="-1.789702">
        <ele>1347.046</ele>
        <time>1999-11-30T00:00:00Z</time>
      </trkpt>
      <trkpt lat="40.590943" lon="-1.789625">
        <ele>1344.041</ele>
        <time>1999-11-30T00:00:00Z</time>
      </trkpt>
      <trkpt lat="40.590271" lon="-1.789956">
        <ele>1344.020</ele>
        <time>1999-11-30T00:00:00Z</time>
      </trkpt>
      <trkpt lat="40.589809" lon="-1.790144">
        <ele>1344.061</ele>
        <time>1999-11-30T00:00:00Z</time>
      </trkpt>
      <trkpt lat="40.58925" lon="-1.790237">
        <ele>1343.049</ele>
        <time>1999-11-30T00:00:00Z</time>
      </trkpt>
      <trkpt lat="40.588974" lon="-1.790035">
        <ele>1343.046</ele>
        <time>1999-11-30T00:00:00Z</time>
      </trkpt>
      <trkpt lat="40.588854" lon="-1.789704">
        <ele>1344.088</ele>
        <time>1999-11-30T00:00:00Z</time>
      </trkpt>
      <trkpt lat="40.588854" lon="-1.789704">
        <ele>1344.016</ele>
        <time>1999-11-30T00:00:00Z</time>
      </trkpt>
      <trkpt lat="40.588854" lon="-1.789704">
        <ele>1344.008</ele>
        <time>1999-11-30T00:00:00Z</time>
      </trkpt>
      <trkpt lat="40.588933" lon="-1.789204">
        <ele>1348.075</ele>
        <time>1999-11-30T00:00:00Z</time>
      </trkpt>
      <trkpt lat="40.588969" lon="-1.788622">
        <ele>1349.019</ele>
        <time>1999-11-30T00:00:00Z</time>
      </trkpt>
      <trkpt lat="40.588707" lon="-1.787796">
        <ele>1350.030</ele>
        <time>1999-11-30T00:00:00Z</time>
      </trkpt>
      <trkpt lat="40.588478" lon="-1.787094">
        <ele>1350.024</ele>
        <time>1999-11-30T00:00:00Z</time>
      </trkpt>
      <trkpt lat="40.587963" lon="-1.786286">
        <ele>1350.059</ele>
        <time>1999-11-30T00:00:00Z</time>
      </trkpt>
      <trkpt lat="40.587682" lon="-1.785668">
        <ele>1352.078</ele>
        <time>1999-11-30T00:00:00Z</time>
      </trkpt>
      <trkpt lat="40.587751" lon="-1.78521">
        <ele>1353.069</ele>
        <time>1999-11-30T00:00:00Z</time>
      </trkpt>
      <trkpt lat="40.587873" lon="-1.784724">
        <ele>1354.057</ele>
        <time>1999-11-30T00:00:00Z</time>
      </trkpt>
      <trkpt lat="40.58811" lon="-1.784137">
        <ele>1356.053</ele>
        <time>1999-11-30T00:00:00Z</time>
      </trkpt>
      <trkpt lat="40.588157" lon="-1.783638">
        <ele>1357.004</ele>
        <time>1999-11-30T00:00:00Z</time>
      </trkpt>
      <trkpt lat="40.588088" lon="-1.783127">
        <ele>1356.014</ele>
        <time>1999-11-30T00:00:00Z</time>
      </trkpt>
      <trkpt lat="40.587871" lon="-1.78255">
        <ele>1354.008</ele>
        <time>1999-11-30T00:00:00Z</time>
      </trkpt>
      <trkpt lat="40.587897" lon="-1.782051">
        <ele>1354.076</ele>
        <time>1999-11-30T00:00:00Z</time>
      </trkpt>
      <trkpt lat="40.588127" lon="-1.781742">
        <ele>1355.070</ele>
        <time>1999-11-30T00:00:00Z</time>
      </trkpt>
      <trkpt lat="40.588579" lon="-1.781637">
        <ele>1360.091</ele>
        <time>1999-11-30T00:00:00Z</time>
      </trkpt>
      <trkpt lat="40.588935" lon="-1.781325">
        <ele>1359.075</ele>
        <time>1999-11-30T00:00:00Z</time>
      </trkpt>
      <trkpt lat="40.589383" lon="-1.780791">
        <ele>1363.020</ele>
        <time>1999-11-30T00:00:00Z</time>
      </trkpt>
      <trkpt lat="40.589833" lon="-1.780423">
        <ele>1365.019</ele>
        <time>1999-11-30T00:00:00Z</time>
      </trkpt>
      <trkpt lat="40.590175" lon="-1.779794">
        <ele>1369.010</ele>
        <time>1999-11-30T00:00:00Z</time>
      </trkpt>
      <trkpt lat="40.590531" lon="-1.779579">
        <ele>1369.038</ele>
        <time>1999-11-30T00:00:00Z</time>
      </trkpt>
      <trkpt lat="40.591268" lon="-1.779331">
        <ele>1375.052</ele>
        <time>1999-11-30T00:00:00Z</time>
      </trkpt>
      <trkpt lat="40.59138" lon="-1.778983">
        <ele>1375.053</ele>
        <time>1999-11-30T00:00:00Z</time>
      </trkpt>
      <trkpt lat="40.591249" lon="-1.778528">
        <ele>1380.008</ele>
        <time>1999-11-30T00:00:00Z</time>
      </trkpt>
      <trkpt lat="40.590867" lon="-1.778369">
        <ele>1383.008</ele>
        <time>1999-11-30T00:00:00Z</time>
      </trkpt>
      <trkpt lat="40.590675" lon="-1.778206">
        <ele>1383.016</ele>
        <time>1999-11-30T00:00:00Z</time>
      </trkpt>
      <trkpt lat="40.590619" lon="-1.77782">
        <ele>1384.010</ele>
        <time>1999-11-30T00:00:00Z</time>
      </trkpt>
      <trkpt lat="40.590763" lon="-1.777484">
        <ele>1385.071</ele>
        <time>1999-11-30T00:00:00Z</time>
      </trkpt>
      <trkpt lat="40.591075" lon="-1.777091">
        <ele>1388.015</ele>
        <time>1999-11-30T00:00:00Z</time>
      </trkpt>
      <trkpt lat="40.591271" lon="-1.776713">
        <ele>1390.040</ele>
        <time>1999-11-30T00:00:00Z</time>
      </trkpt>
      <trkpt lat="40.591321" lon="-1.776366">
        <ele>1396.069</ele>
        <time>1999-11-30T00:00:00Z</time>
      </trkpt>
      <trkpt lat="40.591179" lon="-1.775926">
        <ele>1401.030</ele>
        <time>1999-11-30T00:00:00Z</time>
      </trkpt>
      <trkpt lat="40.590464" lon="-1.775219">
        <ele>1402.088</ele>
        <time>1999-11-30T00:00:00Z</time>
      </trkpt>
      <trkpt lat="40.589729" lon="-1.77454">
        <ele>1406.093</ele>
        <time>1999-11-30T00:00:00Z</time>
      </trkpt>
      <trkpt lat="40.589293" lon="-1.774271">
        <ele>1409.065</ele>
        <time>1999-11-30T00:00:00Z</time>
      </trkpt>
      <trkpt lat="40.588541" lon="-1.774063">
        <ele>1410.021</ele>
        <time>1999-11-30T00:00:00Z</time>
      </trkpt>
      <trkpt lat="40.588339" lon="-1.773873">
        <ele>1411.008</ele>
        <time>1999-11-30T00:00:00Z</time>
      </trkpt>
      <trkpt lat="40.58824" lon="-1.773473">
        <ele>1411.020</ele>
        <time>1999-11-30T00:00:00Z</time>
      </trkpt>
      <trkpt lat="40.588133" lon="-1.772367">
        <ele>1418.054</ele>
        <time>1999-11-30T00:00:00Z</time>
      </trkpt>
      <trkpt lat="40.588133" lon="-1.771399">
        <ele>1414.095</ele>
        <time>1999-11-30T00:00:00Z</time>
      </trkpt>
      <trkpt lat="40.588306" lon="-1.770827">
        <ele>1418.029</ele>
        <time>1999-11-30T00:00:00Z</time>
      </trkpt>
      <trkpt lat="40.588426" lon="-1.770216">
        <ele>1416.014</ele>
        <time>1999-11-30T00:00:00Z</time>
      </trkpt>
      <trkpt lat="40.588653" lon="-1.769727">
        <ele>1419.013</ele>
        <time>1999-11-30T00:00:00Z</time>
      </trkpt>
      <trkpt lat="40.588828" lon="-1.76924">
        <ele>1419.044</ele>
        <time>1999-11-30T00:00:00Z</time>
      </trkpt>
      <trkpt lat="40.588885" lon="-1.768671">
        <ele>1422.052</ele>
        <time>1999-11-30T00:00:00Z</time>
      </trkpt>
      <trkpt lat="40.588721" lon="-1.768106">
        <ele>1423.042</ele>
        <time>1999-11-30T00:00:00Z</time>
      </trkpt>
      <trkpt lat="40.58831" lon="-1.767269">
        <ele>1425.022</ele>
        <time>1999-11-30T00:00:00Z</time>
      </trkpt>
      <trkpt lat="40.587947" lon="-1.766832">
        <ele>1429.014</ele>
        <time>1999-11-30T00:00:00Z</time>
      </trkpt>
      <trkpt lat="40.587459" lon="-1.766536">
        <ele>1426.008</ele>
        <time>1999-11-30T00:00:00Z</time>
      </trkpt>
      <trkpt lat="40.586843" lon="-1.766244">
        <ele>1429.025</ele>
        <time>1999-11-30T00:00:00Z</time>
      </trkpt>
      <trkpt lat="40.58649" lon="-1.765834">
        <ele>1428.019</ele>
        <time>1999-11-30T00:00:00Z</time>
      </trkpt>
      <trkpt lat="40.586177" lon="-1.765134">
        <ele>1427.060</ele>
        <time>1999-11-30T00:00:00Z</time>
      </trkpt>
      <trkpt lat="40.586001" lon="-1.764486">
        <ele>1424.064</ele>
        <time>1999-11-30T00:00:00Z</time>
      </trkpt>
      <trkpt lat="40.586111" lon="-1.763903">
        <ele>1422.069</ele>
        <time>1999-11-30T00:00:00Z</time>
      </trkpt>
      <trkpt lat="40.586053" lon="-1.76342">
        <ele>1419.048</ele>
        <time>1999-11-30T00:00:00Z</time>
      </trkpt>
      <trkpt lat="40.586037" lon="-1.76299">
        <ele>1419.049</ele>
        <time>1999-11-30T00:00:00Z</time>
      </trkpt>
      <trkpt lat="40.586339" lon="-1.76257">
        <ele>1415.057</ele>
        <time>1999-11-30T00:00:00Z</time>
      </trkpt>
      <trkpt lat="40.586628" lon="-1.761997">
        <ele>1415.019</ele>
        <time>1999-11-30T00:00:00Z</time>
      </trkpt>
      <trkpt lat="40.586907" lon="-1.761327">
        <ele>1411.009</ele>
        <time>1999-11-30T00:00:00Z</time>
      </trkpt>
      <trkpt lat="40.586912" lon="-1.760897">
        <ele>1410.019</ele>
        <time>1999-11-30T00:00:00Z</time>
      </trkpt>
      <trkpt lat="40.58674" lon="-1.760541">
        <ele>1411.008</ele>
        <time>1999-11-30T00:00:00Z</time>
      </trkpt>
      <trkpt lat="40.5864" lon="-1.760395">
        <ele>1409.022</ele>
        <time>1999-11-30T00:00:00Z</time>
      </trkpt>
      <trkpt lat="40.585829" lon="-1.760253">
        <ele>1409.056</ele>
        <time>1999-11-30T00:00:00Z</time>
      </trkpt>
      <trkpt lat="40.585465" lon="-1.759816">
        <ele>1408.047</ele>
        <time>1999-11-30T00:00:00Z</time>
      </trkpt>
      <trkpt lat="40.585141" lon="-1.759117">
        <ele>1411.031</ele>
        <time>1999-11-30T00:00:00Z</time>
      </trkpt>
      <trkpt lat="40.585188" lon="-1.758534">
        <ele>1413.056</ele>
        <time>1999-11-30T00:00:00Z</time>
      </trkpt>
      <trkpt lat="40.585088" lon="-1.758093">
        <ele>1412.025</ele>
        <time>1999-11-30T00:00:00Z</time>
      </trkpt>
      <trkpt lat="40.584344" lon="-1.757664">
        <ele>1410.066</ele>
        <time>1999-11-30T00:00:00Z</time>
      </trkpt>
      <trkpt lat="40.584076" lon="-1.757281">
        <ele>1412.024</ele>
        <time>1999-11-30T00:00:00Z</time>
      </trkpt>
      <trkpt lat="40.583869" lon="-1.756675">
        <ele>1417.084</ele>
        <time>1999-11-30T00:00:00Z</time>
      </trkpt>
      <trkpt lat="40.583588" lon="-1.756113">
        <ele>1416.007</ele>
        <time>1999-11-30T00:00:00Z</time>
      </trkpt>
      <trkpt lat="40.583214" lon="-1.75558">
        <ele>1418.017</ele>
        <time>1999-11-30T00:00:00Z</time>
      </trkpt>
      <trkpt lat="40.582797" lon="-1.755172">
        <ele>1421.008</ele>
        <time>1999-11-30T00:00:00Z</time>
      </trkpt>
      <trkpt lat="40.582375" lon="-1.755139">
        <ele>1421.089</ele>
        <time>1999-11-30T00:00:00Z</time>
      </trkpt>
      <trkpt lat="40.581754" lon="-1.755316">
        <ele>1418.013</ele>
        <time>1999-11-30T00:00:00Z</time>
      </trkpt>
      <trkpt lat="40.581007" lon="-1.755496">
        <ele>1418.044</ele>
        <time>1999-11-30T00:00:00Z</time>
      </trkpt>
      <trkpt lat="40.580375" lon="-1.755646">
        <ele>1418.048</ele>
        <time>1999-11-30T00:00:00Z</time>
      </trkpt>
      <trkpt lat="40.579793" lon="-1.755615">
        <ele>1419.073</ele>
        <time>1999-11-30T00:00:00Z</time>
      </trkpt>
      <trkpt lat="40.579157" lon="-1.755392">
        <ele>1420.092</ele>
        <time>1999-11-30T00:00:00Z</time>
      </trkpt>
      <trkpt lat="40.578573" lon="-1.754946">
        <ele>1426.083</ele>
        <time>1999-11-30T00:00:00Z</time>
      </trkpt>
      <trkpt lat="40.578304" lon="-1.754466">
        <ele>1427.021</ele>
        <time>1999-11-30T00:00:00Z</time>
      </trkpt>
      <trkpt lat="40.578105" lon="-1.753695">
        <ele>1428.031</ele>
        <time>1999-11-30T00:00:00Z</time>
      </trkpt>
      <trkpt lat="40.577894" lon="-1.75273">
        <ele>1432.061</ele>
        <time>1999-11-30T00:00:00Z</time>
      </trkpt>
      <trkpt lat="40.577688" lon="-1.752194">
        <ele>1435.007</ele>
        <time>1999-11-30T00:00:00Z</time>
      </trkpt>
      <trkpt lat="40.577485" lon="-1.752003">
        <ele>1436.008</ele>
        <time>1999-11-30T00:00:00Z</time>
      </trkpt>
      <trkpt lat="40.576756" lon="-1.751962">
        <ele>1434.054</ele>
        <time>1999-11-30T00:00:00Z</time>
      </trkpt>
      <trkpt lat="40.576397" lon="-1.751871">
        <ele>1431.078</ele>
        <time>1999-11-30T00:00:00Z</time>
      </trkpt>
      <trkpt lat="40.576202" lon="-1.751501">
        <ele>1441.069</ele>
        <time>1999-11-30T00:00:00Z</time>
      </trkpt>
      <trkpt lat="40.575811" lon="-1.751411">
        <ele>1438.083</ele>
        <time>1999-11-30T00:00:00Z</time>
      </trkpt>
      <trkpt lat="40.575497" lon="-1.751625">
        <ele>1436.038</ele>
        <time>1999-11-30T00:00:00Z</time>
      </trkpt>
      <trkpt lat="40.575172" lon="-1.751867">
        <ele>1433.077</ele>
        <time>1999-11-30T00:00:00Z</time>
      </trkpt>
      <trkpt lat="40.574803" lon="-1.751873">
        <ele>1436.028</ele>
        <time>1999-11-30T00:00:00Z</time>
      </trkpt>
      <trkpt lat="40.574473" lon="-1.751644">
        <ele>1436.096</ele>
        <time>1999-11-30T00:00:00Z</time>
      </trkpt>
      <trkpt lat="40.574236" lon="-1.751206">
        <ele>1436.055</ele>
        <time>1999-11-30T00:00:00Z</time>
      </trkpt>
      <trkpt lat="40.574207" lon="-1.750528">
        <ele>1437.007</ele>
        <time>1999-11-30T00:00:00Z</time>
      </trkpt>
      <trkpt lat="40.574169" lon="-1.749919">
        <ele>1438.017</ele>
        <time>1999-11-30T00:00:00Z</time>
      </trkpt>
      <trkpt lat="40.573986" lon="-1.749577">
        <ele>1439.008</ele>
        <time>1999-11-30T00:00:00Z</time>
      </trkpt>
      <trkpt lat="40.573605" lon="-1.749528">
        <ele>1440.016</ele>
        <time>1999-11-30T00:00:00Z</time>
      </trkpt>
      <trkpt lat="40.573258" lon="-1.749604">
        <ele>1439.060</ele>
        <time>1999-11-30T00:00:00Z</time>
      </trkpt>
      <trkpt lat="40.572401" lon="-1.749384">
        <ele>1444.071</ele>
        <time>1999-11-30T00:00:00Z</time>
      </trkpt>
      <trkpt lat="40.571871" lon="-1.749256">
        <ele>1447.025</ele>
        <time>1999-11-30T00:00:00Z</time>
      </trkpt>
      <trkpt lat="40.571616" lon="-1.749053">
        <ele>1445.030</ele>
        <time>1999-11-30T00:00:00Z</time>
      </trkpt>
      <trkpt lat="40.571453" lon="-1.748627">
        <ele>1446.099</ele>
        <time>1999-11-30T00:00:00Z</time>
      </trkpt>
      <trkpt lat="40.571227" lon="-1.748257">
        <ele>1450.040</ele>
        <time>1999-11-30T00:00:00Z</time>
      </trkpt>
      <trkpt lat="40.570833" lon="-1.747905">
        <ele>1451.078</ele>
        <time>1999-11-30T00:00:00Z</time>
      </trkpt>
      <trkpt lat="40.570364" lon="-1.747526">
        <ele>1450.041</ele>
        <time>1999-11-30T00:00:00Z</time>
      </trkpt>
      <trkpt lat="40.5698" lon="-1.747121">
        <ele>1450.081</ele>
        <time>1999-11-30T00:00:00Z</time>
      </trkpt>
      <trkpt lat="40.56944" lon="-1.74699">
        <ele>1449.009</ele>
        <time>1999-11-30T00:00:00Z</time>
      </trkpt>
      <trkpt lat="40.56904" lon="-1.747122">
        <ele>1448.008</ele>
        <time>1999-11-30T00:00:00Z</time>
      </trkpt>
      <trkpt lat="40.568715" lon="-1.74728">
        <ele>1448.015</ele>
        <time>1999-11-30T00:00:00Z</time>
      </trkpt>
      <trkpt lat="40.568377" lon="-1.747328">
        <ele>1447.019</ele>
        <time>1999-11-30T00:00:00Z</time>
      </trkpt>
      <trkpt lat="40.567933" lon="-1.747239">
        <ele>1448.010</ele>
        <time>1999-11-30T00:00:00Z</time>
      </trkpt>
      <trkpt lat="40.567346" lon="-1.746614">
        <ele>1451.024</ele>
        <time>1999-11-30T00:00:00Z</time>
      </trkpt>
      <trkpt lat="40.566683" lon="-1.745823">
        <ele>1453.059</ele>
        <time>1999-11-30T00:00:00Z</time>
      </trkpt>
      <trkpt lat="40.56583" lon="-1.745078">
        <ele>1456.088</ele>
        <time>1999-11-30T00:00:00Z</time>
      </trkpt>
      <trkpt lat="40.565403" lon="-1.744573">
        <ele>1458.039</ele>
        <time>1999-11-30T00:00:00Z</time>
      </trkpt>
      <trkpt lat="40.56509" lon="-1.743997">
        <ele>1457.097</ele>
        <time>1999-11-30T00:00:00Z</time>
      </trkpt>
      <trkpt lat="40.56466" lon="-1.743231">
        <ele>1459.043</ele>
        <time>1999-11-30T00:00:00Z</time>
      </trkpt>
      <trkpt lat="40.564005" lon="-1.742274">
        <ele>1459.064</ele>
        <time>1999-11-30T00:00:00Z</time>
      </trkpt>
      <trkpt lat="40.563547" lon="-1.741936">
        <ele>1460.010</ele>
        <time>1999-11-30T00:00:00Z</time>
      </trkpt>
      <trkpt lat="40.562911" lon="-1.741658">
        <ele>1461.008</ele>
        <time>1999-11-30T00:00:00Z</time>
      </trkpt>
      <trkpt lat="40.562284" lon="-1.741254">
        <ele>1462.065</ele>
        <time>1999-11-30T00:00:00Z</time>
      </trkpt>
      <trkpt lat="40.561825" lon="-1.740792">
        <ele>1463.099</ele>
        <time>1999-11-30T00:00:00Z</time>
      </trkpt>
      <trkpt lat="40.561385" lon="-1.740164">
        <ele>1463.020</ele>
        <time>1999-11-30T00:00:00Z</time>
      </trkpt>
      <trkpt lat="40.561041" lon="-1.739575">
        <ele>1463.024</ele>
        <time>1999-11-30T00:00:00Z</time>
      </trkpt>
      <trkpt lat="40.560316" lon="-1.738938">
        <ele>1465.059</ele>
        <time>1999-11-30T00:00:00Z</time>
      </trkpt>
      <trkpt lat="40.559847" lon="-1.738504">
        <ele>1469.038</ele>
        <time>1999-11-30T00:00:00Z</time>
      </trkpt>
      <trkpt lat="40.559311" lon="-1.737767">
        <ele>1473.059</ele>
        <time>1999-11-30T00:00:00Z</time>
      </trkpt>
      <trkpt lat="40.558862" lon="-1.737263">
        <ele>1474.017</ele>
        <time>1999-11-30T00:00:00Z</time>
      </trkpt>
      <trkpt lat="40.558476" lon="-1.736946">
        <ele>1473.048</ele>
        <time>1999-11-30T00:00:00Z</time>
      </trkpt>
      <trkpt lat="40.557886" lon="-1.736217">
        <ele>1478.061</ele>
        <time>1999-11-30T00:00:00Z</time>
      </trkpt>
      <trkpt lat="40.55747" lon="-1.735937">
        <ele>1478.017</ele>
        <time>1999-11-30T00:00:00Z</time>
      </trkpt>
      <trkpt lat="40.557137" lon="-1.735611">
        <ele>1478.008</ele>
        <time>1999-11-30T00:00:00Z</time>
      </trkpt>
      <trkpt lat="40.556965" lon="-1.735305">
        <ele>1478.065</ele>
        <time>1999-11-30T00:00:00Z</time>
      </trkpt>
      <trkpt lat="40.556749" lon="-1.734833">
        <ele>1480.059</ele>
        <time>1999-11-30T00:00:00Z</time>
      </trkpt>
      <trkpt lat="40.556441" lon="-1.734474">
        <ele>1480.080</ele>
        <time>1999-11-30T00:00:00Z</time>
      </trkpt>
      <trkpt lat="40.55615" lon="-1.734015">
        <ele>1484.044</ele>
        <time>1999-11-30T00:00:00Z</time>
      </trkpt>
      <trkpt lat="40.555894" lon="-1.733057">
        <ele>1485.049</ele>
        <time>1999-11-30T00:00:00Z</time>
      </trkpt>
      <trkpt lat="40.555759" lon="-1.732275">
        <ele>1485.028</ele>
        <time>1999-11-30T00:00:00Z</time>
      </trkpt>
      <trkpt lat="40.555815" lon="-1.73192">
        <ele>1484.049</ele>
        <time>1999-11-30T00:00:00Z</time>
      </trkpt>
      <trkpt lat="40.556089" lon="-1.73156">
        <ele>1482.057</ele>
        <time>1999-11-30T00:00:00Z</time>
      </trkpt>
      <trkpt lat="40.556431" lon="-1.731222">
        <ele>1484.042</ele>
        <time>1999-11-30T00:00:00Z</time>
      </trkpt>
      <trkpt lat="40.556621" lon="-1.73082">
        <ele>1484.022</ele>
        <time>1999-11-30T00:00:00Z</time>
      </trkpt>
      <trkpt lat="40.556671" lon="-1.730056">
        <ele>1485.014</ele>
        <time>1999-11-30T00:00:00Z</time>
      </trkpt>
      <trkpt lat="40.556671" lon="-1.730056">
        <ele>1485.008</ele>
        <time>1999-11-30T00:00:00Z</time>
      </trkpt>
      <trkpt lat="40.556596" lon="-1.729339">
        <ele>1486.025</ele>
        <time>1999-11-30T00:00:00Z</time>
      </trkpt>
      <trkpt lat="40.556418" lon="-1.72848">
        <ele>1486.069</ele>
        <time>1999-11-30T00:00:00Z</time>
      </trkpt>
      <trkpt lat="40.556282" lon="-1.727597">
        <ele>1486.050</ele>
        <time>1999-11-30T00:00:00Z</time>
      </trkpt>
      <trkpt lat="40.556248" lon="-1.726856">
        <ele>1487.064</ele>
        <time>1999-11-30T00:00:00Z</time>
      </trkpt>
      <trkpt lat="40.556304" lon="-1.726546">
        <ele>1487.049</ele>
        <time>1999-11-30T00:00:00Z</time>
      </trkpt>
      <trkpt lat="40.556594" lon="-1.726131">
        <ele>1489.078</ele>
        <time>1999-11-30T00:00:00Z</time>
      </trkpt>
      <trkpt lat="40.556769" lon="-1.725907">
        <ele>1489.069</ele>
        <time>1999-11-30T00:00:00Z</time>
      </trkpt>
      <trkpt lat="40.556791" lon="-1.725641">
        <ele>1490.077</ele>
        <time>1999-11-30T00:00:00Z</time>
      </trkpt>
      <trkpt lat="40.556667" lon="-1.725112">
        <ele>1490.048</ele>
        <time>1999-11-30T00:00:00Z</time>
      </trkpt>
      <trkpt lat="40.556373" lon="-1.724377">
        <ele>1492.061</ele>
        <time>1999-11-30T00:00:00Z</time>
      </trkpt>
      <trkpt lat="40.556004" lon="-1.723864">
        <ele>1492.017</ele>
        <time>1999-11-30T00:00:00Z</time>
      </trkpt>
      <trkpt lat="40.555242" lon="-1.722806">
        <ele>1498.008</ele>
        <time>1999-11-30T00:00:00Z</time>
      </trkpt>
      <trkpt lat="40.555025" lon="-1.722278">
        <ele>1502.095</ele>
        <time>1999-11-30T00:00:00Z</time>
      </trkpt>
      <trkpt lat="40.554898" lon="-1.721529">
        <ele>1499.059</ele>
        <time>1999-11-30T00:00:00Z</time>
      </trkpt>
      <trkpt lat="40.554867" lon="-1.720988">
        <ele>1497.060</ele>
        <time>1999-11-30T00:00:00Z</time>
      </trkpt>
      <trkpt lat="40.554952" lon="-1.720245">
        <ele>1498.084</ele>
        <time>1999-11-30T00:00:00Z</time>
      </trkpt>
      <trkpt lat="40.555116" lon="-1.719092">
        <ele>1499.059</ele>
        <time>1999-11-30T00:00:00Z</time>
      </trkpt>
      <trkpt lat="40.555247" lon="-1.717928">
        <ele>1498.068</ele>
        <time>1999-11-30T00:00:00Z</time>
      </trkpt>
      <trkpt lat="40.55541" lon="-1.716686">
        <ele>1501.049</ele>
        <time>1999-11-30T00:00:00Z</time>
      </trkpt>
      <trkpt lat="40.555434" lon="-1.715856">
        <ele>1505.097</ele>
        <time>1999-11-30T00:00:00Z</time>
      </trkpt>
      <trkpt lat="40.555368" lon="-1.715216">
        <ele>1508.074</ele>
        <time>1999-11-30T00:00:00Z</time>
      </trkpt>
      <trkpt lat="40.555184" lon="-1.714566">
        <ele>1506.056</ele>
        <time>1999-11-30T00:00:00Z</time>
      </trkpt>
      <trkpt lat="40.554827" lon="-1.713545">
        <ele>1506.021</ele>
        <time>1999-11-30T00:00:00Z</time>
      </trkpt>
      <trkpt lat="40.554559" lon="-1.712688">
        <ele>1509.008</ele>
        <time>1999-11-30T00:00:00Z</time>
      </trkpt>
      <trkpt lat="40.554477" lon="-1.712096">
        <ele>1508.088</ele>
        <time>1999-11-30T00:00:00Z</time>
      </trkpt>
      <trkpt lat="40.554414" lon="-1.71125">
        <ele>1510.022</ele>
        <time>1999-11-30T00:00:00Z</time>
      </trkpt>
      <trkpt lat="40.554352" lon="-1.710495">
        <ele>1512.033</ele>
        <time>1999-11-30T00:00:00Z</time>
      </trkpt>
      <trkpt lat="40.554231" lon="-1.709854">
        <ele>1514.087</ele>
        <time>1999-11-30T00:00:00Z</time>
      </trkpt>
      <trkpt lat="40.553968" lon="-1.70892">
        <ele>1516.062</ele>
        <time>1999-11-30T00:00:00Z</time>
      </trkpt>
      <trkpt lat="40.553565" lon="-1.707571">
        <ele>1519.011</ele>
        <time>1999-11-30T00:00:00Z</time>
      </trkpt>
      <trkpt lat="40.553382" lon="-1.706671">
        <ele>1519.042</ele>
        <time>1999-11-30T00:00:00Z</time>
      </trkpt>
      <trkpt lat="40.553272" lon="-1.705959">
        <ele>1520.010</ele>
        <time>1999-11-30T00:00:00Z</time>
      </trkpt>
      <trkpt lat="40.553169" lon="-1.70493">
        <ele>1527.049</ele>
        <time>1999-11-30T00:00:00Z</time>
      </trkpt>
      <trkpt lat="40.553055" lon="-1.703944">
        <ele>1531.002</ele>
        <time>1999-11-30T00:00:00Z</time>
      </trkpt>
      <trkpt lat="40.552942" lon="-1.703522">
        <ele>1532.022</ele>
        <time>1999-11-30T00:00:00Z</time>
      </trkpt>
      <trkpt lat="40.552749" lon="-1.703066">
        <ele>1534.008</ele>
        <time>1999-11-30T00:00:00Z</time>
      </trkpt>
      <trkpt lat="40.55248" lon="-1.702633">
        <ele>1536.015</ele>
        <time>1999-11-30T00:00:00Z</time>
      </trkpt>
      <trkpt lat="40.55218" lon="-1.702315">
        <ele>1538.069</ele>
        <time>1999-11-30T00:00:00Z</time>
      </trkpt>
      <trkpt lat="40.551805" lon="-1.702053">
        <ele>1538.020</ele>
        <time>1999-11-30T00:00:00Z</time>
      </trkpt>
      <trkpt lat="40.55134" lon="-1.701829">
        <ele>1545.054</ele>
        <time>1999-11-30T00:00:00Z</time>
      </trkpt>
      <trkpt lat="40.550799" lon="-1.701705">
        <ele>1548.039</ele>
        <time>1999-11-30T00:00:00Z</time>
      </trkpt>
      <trkpt lat="40.549314" lon="-1.701352">
        <ele>1554.048</ele>
        <time>1999-11-30T00:00:00Z</time>
      </trkpt>
      <trkpt lat="40.548902" lon="-1.701163">
        <ele>1558.089</ele>
        <time>1999-11-30T00:00:00Z</time>
      </trkpt>
      <trkpt lat="40.548386" lon="-1.700819">
        <ele>1557.027</ele>
        <time>1999-11-30T00:00:00Z</time>
      </trkpt>
      <trkpt lat="40.547879" lon="-1.700278">
        <ele>1555.092</ele>
        <time>1999-11-30T00:00:00Z</time>
      </trkpt>
      <trkpt lat="40.54744" lon="-1.699574">
        <ele>1559.073</ele>
        <time>1999-11-30T00:00:00Z</time>
      </trkpt>
      <trkpt lat="40.547108" lon="-1.698768">
        <ele>1564.020</ele>
        <time>1999-11-30T00:00:00Z</time>
      </trkpt>
      <trkpt lat="40.54652" lon="-1.697268">
        <ele>1571.008</ele>
        <time>1999-11-30T00:00:00Z</time>
      </trkpt>
      <trkpt lat="40.545836" lon="-1.695423">
        <ele>1576.090</ele>
        <time>1999-11-30T00:00:00Z</time>
      </trkpt>
      <trkpt lat="40.545779" lon="-1.695114">
        <ele>1575.074</ele>
        <time>1999-11-30T00:00:00Z</time>
      </trkpt>
      <trkpt lat="40.545716" lon="-1.695019">
        <ele>1574.045</ele>
        <time>1999-11-30T00:00:00Z</time>
      </trkpt>
      <trkpt lat="40.545587" lon="-1.69508">
        <ele>1574.049</ele>
        <time>1999-11-30T00:00:00Z</time>
      </trkpt>
      <trkpt lat="40.545475" lon="-1.695135">
        <ele>1574.044</ele>
        <time>1999-11-30T00:00:00Z</time>
      </trkpt>
      <trkpt lat="40.545404" lon="-1.694989">
        <ele>1574.013</ele>
        <time>1999-11-30T00:00:00Z</time>
      </trkpt>
      <trkpt lat="40.545268" lon="-1.694916">
        <ele>1574.084</ele>
        <time>1999-11-30T00:00:00Z</time>
      </trkpt>
      <trkpt lat="40.545174" lon="-1.694757">
        <ele>1573.072</ele>
        <time>1999-11-30T00:00:00Z</time>
      </trkpt>
      <trkpt lat="40.545143" lon="-1.694517">
        <ele>1572.093</ele>
        <time>1999-11-30T00:00:00Z</time>
      </trkpt>
      <trkpt lat="40.544994" lon="-1.694057">
        <ele>1570.065</ele>
        <time>1999-11-30T00:00:00Z</time>
      </trkpt>
      <trkpt lat="40.544953" lon="-1.693508">
        <ele>1564.021</ele>
        <time>1999-11-30T00:00:00Z</time>
      </trkpt>
      <trkpt lat="40.544885" lon="-1.693143">
        <ele>1559.008</ele>
        <time>1999-11-30T00:00:00Z</time>
      </trkpt>
      <trkpt lat="40.544707" lon="-1.692796">
        <ele>1555.020</ele>
        <time>1999-11-30T00:00:00Z</time>
      </trkpt>
      <trkpt lat="40.54457" lon="-1.692304">
        <ele>1552.084</ele>
        <time>1999-11-30T00:00:00Z</time>
      </trkpt>
      <trkpt lat="40.544491" lon="-1.691861">
        <ele>1549.025</ele>
        <time>1999-11-30T00:00:00Z</time>
      </trkpt>
      <trkpt lat="40.544449" lon="-1.691238">
        <ele>1542.029</ele>
        <time>1999-11-30T00:00:00Z</time>
      </trkpt>
      <trkpt lat="40.544347" lon="-1.690844">
        <ele>1537.034</ele>
        <time>1999-11-30T00:00:00Z</time>
      </trkpt>
      <trkpt lat="40.544178" lon="-1.690518">
        <ele>1533.073</ele>
        <time>1999-11-30T00:00:00Z</time>
      </trkpt>
      <trkpt lat="40.544005" lon="-1.690104">
        <ele>1529.034</ele>
        <time>1999-11-30T00:00:00Z</time>
      </trkpt>
      <trkpt lat="40.543862" lon="-1.689736">
        <ele>1527.032</ele>
        <time>1999-11-30T00:00:00Z</time>
      </trkpt>
      <trkpt lat="40.543725" lon="-1.689392">
        <ele>1524.058</ele>
        <time>1999-11-30T00:00:00Z</time>
      </trkpt>
      <trkpt lat="40.543575" lon="-1.689081">
        <ele>1522.052</ele>
        <time>1999-11-30T00:00:00Z</time>
      </trkpt>
      <trkpt lat="40.543386" lon="-1.688718">
        <ele>1519.017</ele>
        <time>1999-11-30T00:00:00Z</time>
      </trkpt>
      <trkpt lat="40.54319" lon="-1.688443">
        <ele>1516.008</ele>
        <time>1999-11-30T00:00:00Z</time>
      </trkpt>
      <trkpt lat="40.543161" lon="-1.688352">
        <ele>1515.076</ele>
        <time>1999-11-30T00:00:00Z</time>
      </trkpt>
      <trkpt lat="40.543153" lon="-1.688205">
        <ele>1514.040</ele>
        <time>1999-11-30T00:00:00Z</time>
      </trkpt>
      <trkpt lat="40.54317" lon="-1.688018">
        <ele>1512.041</ele>
        <time>1999-11-30T00:00:00Z</time>
      </trkpt>
      <trkpt lat="40.543276" lon="-1.68753">
        <ele>1510.015</ele>
        <time>1999-11-30T00:00:00Z</time>
      </trkpt>
      <trkpt lat="40.543434" lon="-1.686566">
        <ele>1505.050</ele>
        <time>1999-11-30T00:00:00Z</time>
      </trkpt>
      <trkpt lat="40.543477" lon="-1.68631">
        <ele>1503.069</ele>
        <time>1999-11-30T00:00:00Z</time>
      </trkpt>
      <trkpt lat="40.543615" lon="-1.686076">
        <ele>1503.090</ele>
        <time>1999-11-30T00:00:00Z</time>
      </trkpt>
      <trkpt lat="40.54389" lon="-1.685616">
        <ele>1501.048</ele>
        <time>1999-11-30T00:00:00Z</time>
      </trkpt>
      <trkpt lat="40.544092" lon="-1.685292">
        <ele>1500.011</ele>
        <time>1999-11-30T00:00:00Z</time>
      </trkpt>
      <trkpt lat="40.544121" lon="-1.685176">
        <ele>1500.021</ele>
        <time>1999-11-30T00:00:00Z</time>
      </trkpt>
      <trkpt lat="40.544094" lon="-1.685037">
        <ele>1499.003</ele>
        <time>1999-11-30T00:00:00Z</time>
      </trkpt>
      <trkpt lat="40.544" lon="-1.684765">
        <ele>1499.008</ele>
        <time>1999-11-30T00:00:00Z</time>
      </trkpt>
      <trkpt lat="40.543924" lon="-1.684609">
        <ele>1499.032</ele>
        <time>1999-11-30T00:00:00Z</time>
      </trkpt>
      <trkpt lat="40.543851" lon="-1.684482">
        <ele>1499.056</ele>
        <time>1999-11-30T00:00:00Z</time>
      </trkpt>
      <trkpt lat="40.543835" lon="-1.684361">
        <ele>1499.057</ele>
        <time>1999-11-30T00:00:00Z</time>
      </trkpt>
      <trkpt lat="40.543853" lon="-1.684292">
        <ele>1499.041</ele>
        <time>1999-11-30T00:00:00Z</time>
      </trkpt>
      <trkpt lat="40.544082" lon="-1.683956">
        <ele>1498.066</ele>
        <time>1999-11-30T00:00:00Z</time>
      </trkpt>
      <trkpt lat="40.544253" lon="-1.683731">
        <ele>1497.055</ele>
        <time>1999-11-30T00:00:00Z</time>
      </trkpt>
      <trkpt lat="40.544578" lon="-1.68302">
        <ele>1494.066</ele>
        <time>1999-11-30T00:00:00Z</time>
      </trkpt>
      <trkpt lat="40.544794" lon="-1.682695">
        <ele>1493.064</ele>
        <time>1999-11-30T00:00:00Z</time>
      </trkpt>
      <trkpt lat="40.545062" lon="-1.682412">
        <ele>1493.099</ele>
        <time>1999-11-30T00:00:00Z</time>
      </trkpt>
      <trkpt lat="40.545168" lon="-1.682212">
        <ele>1494.007</ele>
        <time>1999-11-30T00:00:00Z</time>
      </trkpt>
      <trkpt lat="40.545282" lon="-1.681928">
        <ele>1495.027</ele>
        <time>1999-11-30T00:00:00Z</time>
      </trkpt>
      <trkpt lat="40.545395" lon="-1.681386">
        <ele>1495.008</ele>
        <time>1999-11-30T00:00:00Z</time>
      </trkpt>
      <trkpt lat="40.545692" lon="-1.680621">
        <ele>1493.090</ele>
        <time>1999-11-30T00:00:00Z</time>
      </trkpt>
      <trkpt lat="40.546045" lon="-1.680021">
        <ele>1494.044</ele>
        <time>1999-11-30T00:00:00Z</time>
      </trkpt>
      <trkpt lat="40.546401" lon="-1.679248">
        <ele>1491.085</ele>
        <time>1999-11-30T00:00:00Z</time>
      </trkpt>
      <trkpt lat="40.546654" lon="-1.678773">
        <ele>1487.079</ele>
        <time>1999-11-30T00:00:00Z</time>
      </trkpt>
      <trkpt lat="40.546992" lon="-1.678388">
        <ele>1486.044</ele>
        <time>1999-11-30T00:00:00Z</time>
      </trkpt>
      <trkpt lat="40.54724" lon="-1.67802">
        <ele>1485.023</ele>
        <time>1999-11-30T00:00:00Z</time>
      </trkpt>
      <trkpt lat="40.547363" lon="-1.677791">
        <ele>1485.054</ele>
        <time>1999-11-30T00:00:00Z</time>
      </trkpt>
      <trkpt lat="40.54757" lon="-1.677265">
        <ele>1487.042</ele>
        <time>1999-11-30T00:00:00Z</time>
      </trkpt>
      <trkpt lat="40.547768" lon="-1.676661">
        <ele>1487.027</ele>
        <time>1999-11-30T00:00:00Z</time>
      </trkpt>
      <trkpt lat="40.54788" lon="-1.676167">
        <ele>1483.068</ele>
        <time>1999-11-30T00:00:00Z</time>
      </trkpt>
      <trkpt lat="40.548172" lon="-1.675192">
        <ele>1480.014</ele>
        <time>1999-11-30T00:00:00Z</time>
      </trkpt>
      <trkpt lat="40.548339" lon="-1.674277">
        <ele>1476.008</ele>
        <time>1999-11-30T00:00:00Z</time>
      </trkpt>
      <trkpt lat="40.548466" lon="-1.673637">
        <ele>1474.063</ele>
        <time>1999-11-30T00:00:00Z</time>
      </trkpt>
      <trkpt lat="40.54846" lon="-1.673255">
        <ele>1474.017</ele>
        <time>1999-11-30T00:00:00Z</time>
      </trkpt>
      <trkpt lat="40.548395" lon="-1.672759">
        <ele>1472.048</ele>
        <time>1999-11-30T00:00:00Z</time>
      </trkpt>
      <trkpt lat="40.548366" lon="-1.672019">
        <ele>1472.062</ele>
        <time>1999-11-30T00:00:00Z</time>
      </trkpt>
      <trkpt lat="40.548312" lon="-1.671201">
        <ele>1471.087</ele>
        <time>1999-11-30T00:00:00Z</time>
      </trkpt>
      <trkpt lat="40.548371" lon="-1.67058">
        <ele>1471.026</ele>
        <time>1999-11-30T00:00:00Z</time>
      </trkpt>
      <trkpt lat="40.548403" lon="-1.670119">
        <ele>1473.097</ele>
        <time>1999-11-30T00:00:00Z</time>
      </trkpt>
      <trkpt lat="40.548351" lon="-1.669889">
        <ele>1472.045</ele>
        <time>1999-11-30T00:00:00Z</time>
      </trkpt>
      <trkpt lat="40.54819" lon="-1.669445">
        <ele>1471.041</ele>
        <time>1999-11-30T00:00:00Z</time>
      </trkpt>
      <trkpt lat="40.547956" lon="-1.668756">
        <ele>1470.081</ele>
        <time>1999-11-30T00:00:00Z</time>
      </trkpt>
      <trkpt lat="40.547902" lon="-1.668349">
        <ele>1470.009</ele>
        <time>1999-11-30T00:00:00Z</time>
      </trkpt>
      <trkpt lat="40.547963" lon="-1.66801">
        <ele>1470.008</ele>
        <time>1999-11-30T00:00:00Z</time>
      </trkpt>
      <trkpt lat="40.548169" lon="-1.667509">
        <ele>1467.065</ele>
        <time>1999-11-30T00:00:00Z</time>
      </trkpt>
      <trkpt lat="40.548259" lon="-1.667202">
        <ele>1465.019</ele>
        <time>1999-11-30T00:00:00Z</time>
      </trkpt>
      <trkpt lat="40.548276" lon="-1.666949">
        <ele>1465.030</ele>
        <time>1999-11-30T00:00:00Z</time>
      </trkpt>
      <trkpt lat="40.548185" lon="-1.666636">
        <ele>1464.044</ele>
        <time>1999-11-30T00:00:00Z</time>
      </trkpt>
      <trkpt lat="40.54766" lon="-1.665531">
        <ele>1463.079</ele>
        <time>1999-11-30T00:00:00Z</time>
      </trkpt>
      <trkpt lat="40.547448" lon="-1.664961">
        <ele>1459.048</ele>
        <time>1999-11-30T00:00:00Z</time>
      </trkpt>
      <trkpt lat="40.547391" lon="-1.66463">
        <ele>1457.059</ele>
        <time>1999-11-30T00:00:00Z</time>
      </trkpt>
      <trkpt lat="40.547429" lon="-1.664429">
        <ele>1457.017</ele>
        <time>1999-11-30T00:00:00Z</time>
      </trkpt>
      <trkpt lat="40.547581" lon="-1.664134">
        <ele>1454.021</ele>
        <time>1999-11-30T00:00:00Z</time>
      </trkpt>
      <trkpt lat="40.547696" lon="-1.663865">
        <ele>1452.041</ele>
        <time>1999-11-30T00:00:00Z</time>
      </trkpt>
      <trkpt lat="40.547779" lon="-1.663552">
        <ele>1451.005</ele>
        <time>1999-11-30T00:00:00Z</time>
      </trkpt>
      <trkpt lat="40.547821" lon="-1.662865">
        <ele>1450.008</ele>
        <time>1999-11-30T00:00:00Z</time>
      </trkpt>
      <trkpt lat="40.547847" lon="-1.662226">
        <ele>1448.043</ele>
        <time>1999-11-30T00:00:00Z</time>
      </trkpt>
      <trkpt lat="40.547912" lon="-1.661665">
        <ele>1447.037</ele>
        <time>1999-11-30T00:00:00Z</time>
      </trkpt>
      <trkpt lat="40.548043" lon="-1.661371">
        <ele>1446.028</ele>
        <time>1999-11-30T00:00:00Z</time>
      </trkpt>
      <trkpt lat="40.548095" lon="-1.661055">
        <ele>1445.072</ele>
        <time>1999-11-30T00:00:00Z</time>
      </trkpt>
      <trkpt lat="40.548144" lon="-1.660628">
        <ele>1443.077</ele>
        <time>1999-11-30T00:00:00Z</time>
      </trkpt>
      <trkpt lat="40.548229" lon="-1.660371">
        <ele>1442.046</ele>
        <time>1999-11-30T00:00:00Z</time>
      </trkpt>
      <trkpt lat="40.548364" lon="-1.660085">
        <ele>1442.087</ele>
        <time>1999-11-30T00:00:00Z</time>
      </trkpt>
      <trkpt lat="40.548695" lon="-1.659595">
        <ele>1443.055</ele>
        <time>1999-11-30T00:00:00Z</time>
      </trkpt>
      <trkpt lat="40.548915" lon="-1.659181">
        <ele>1443.055</ele>
        <time>1999-11-30T00:00:00Z</time>
      </trkpt>
      <trkpt lat="40.548958" lon="-1.658703">
        <ele>1441.007</ele>
        <time>1999-11-30T00:00:00Z</time>
      </trkpt>
      <trkpt lat="40.548965" lon="-1.65804">
        <ele>1440.017</ele>
        <time>1999-11-30T00:00:00Z</time>
      </trkpt>
      <trkpt lat="40.549007" lon="-1.657442">
        <ele>1440.008</ele>
        <time>1999-11-30T00:00:00Z</time>
      </trkpt>
      <trkpt lat="40.549195" lon="-1.656694">
        <ele>1440.066</ele>
        <time>1999-11-30T00:00:00Z</time>
      </trkpt>
      <trkpt lat="40.549527" lon="-1.655712">
        <ele>1439.050</ele>
        <time>1999-11-30T00:00:00Z</time>
      </trkpt>
      <trkpt lat="40.549663" lon="-1.655333">
        <ele>1439.071</ele>
        <time>1999-11-30T00:00:00Z</time>
      </trkpt>
      <trkpt lat="40.549713" lon="-1.654925">
        <ele>1439.075</ele>
        <time>1999-11-30T00:00:00Z</time>
      </trkpt>
      <trkpt lat="40.549673" lon="-1.654431">
        <ele>1438.070</ele>
        <time>1999-11-30T00:00:00Z</time>
      </trkpt>
      <trkpt lat="40.549731" lon="-1.653952">
        <ele>1438.089</ele>
        <time>1999-11-30T00:00:00Z</time>
      </trkpt>
      <trkpt lat="40.549921" lon="-1.652798">
        <ele>1437.010</ele>
        <time>1999-11-30T00:00:00Z</time>
      </trkpt>
      <trkpt lat="40.549979" lon="-1.652411">
        <ele>1437.068</ele>
        <time>1999-11-30T00:00:00Z</time>
      </trkpt>
      <trkpt lat="40.549848" lon="-1.651966">
        <ele>1434.057</ele>
        <time>1999-11-30T00:00:00Z</time>
      </trkpt>
      <trkpt lat="40.549775" lon="-1.651431">
        <ele>1432.000</ele>
        <time>1999-11-30T00:00:00Z</time>
      </trkpt>
      <trkpt lat="40.549457" lon="-1.651351">
        <ele>1429.020</ele>
        <time>1999-11-30T00:00:00Z</time>
      </trkpt>
      <trkpt lat="40.549263" lon="-1.651208">
        <ele>1429.008</ele>
        <time>1999-11-30T00:00:00Z</time>
      </trkpt>
      <trkpt lat="40.549234" lon="-1.651012">
        <ele>1429.096</ele>
        <time>1999-11-30T00:00:00Z</time>
      </trkpt>
      <trkpt lat="40.549408" lon="-1.650777">
        <ele>1429.060</ele>
        <time>1999-11-30T00:00:00Z</time>
      </trkpt>
      <trkpt lat="40.549452" lon="-1.650269">
        <ele>1429.081</ele>
        <time>1999-11-30T00:00:00Z</time>
      </trkpt>
      <trkpt lat="40.549405" lon="-1.649746">
        <ele>1429.035</ele>
        <time>1999-11-30T00:00:00Z</time>
      </trkpt>
      <trkpt lat="40.549494" lon="-1.649249">
        <ele>1429.030</ele>
        <time>1999-11-30T00:00:00Z</time>
      </trkpt>
      <trkpt lat="40.54974" lon="-1.648935">
        <ele>1429.059</ele>
        <time>1999-11-30T00:00:00Z</time>
      </trkpt>
      <trkpt lat="40.550068" lon="-1.648588">
        <ele>1429.060</ele>
        <time>1999-11-30T00:00:00Z</time>
      </trkpt>
      <trkpt lat="40.55032" lon="-1.648297">
        <ele>1428.028</ele>
        <time>1999-11-30T00:00:00Z</time>
      </trkpt>
      <trkpt lat="40.55061" lon="-1.647845">
        <ele>1426.087</ele>
        <time>1999-11-30T00:00:00Z</time>
      </trkpt>
      <trkpt lat="40.550828" lon="-1.647465">
        <ele>1425.042</ele>
        <time>1999-11-30T00:00:00Z</time>
      </trkpt>
      <trkpt lat="40.550948" lon="-1.64726">
        <ele>1426.026</ele>
        <time>1999-11-30T00:00:00Z</time>
      </trkpt>
      <trkpt lat="40.550992" lon="-1.647081">
        <ele>1426.008</ele>
        <time>1999-11-30T00:00:00Z</time>
      </trkpt>
      <trkpt lat="40.551017" lon="-1.646907">
        <ele>1425.029</ele>
        <time>1999-11-30T00:00:00Z</time>
      </trkpt>
      <trkpt lat="40.551024" lon="-1.646717">
        <ele>1425.073</ele>
        <time>1999-11-30T00:00:00Z</time>
      </trkpt>
      <trkpt lat="40.551002" lon="-1.64646">
        <ele>1424.054</ele>
        <time>1999-11-30T00:00:00Z</time>
      </trkpt>
      <trkpt lat="40.551008" lon="-1.646151">
        <ele>1425.098</ele>
        <time>1999-11-30T00:00:00Z</time>
      </trkpt>
      <trkpt lat="40.551053" lon="-1.645741">
        <ele>1427.063</ele>
        <time>1999-11-30T00:00:00Z</time>
      </trkpt>
      <trkpt lat="40.551169" lon="-1.645136">
        <ele>1427.052</ele>
        <time>1999-11-30T00:00:00Z</time>
      </trkpt>
      <trkpt lat="40.551231" lon="-1.644657">
        <ele>1424.043</ele>
        <time>1999-11-30T00:00:00Z</time>
      </trkpt>
      <trkpt lat="40.551426" lon="-1.643572">
        <ele>1423.061</ele>
        <time>1999-11-30T00:00:00Z</time>
      </trkpt>
      <trkpt lat="40.551511" lon="-1.642805">
        <ele>1423.075</ele>
        <time>1999-11-30T00:00:00Z</time>
      </trkpt>
      <trkpt lat="40.551507" lon="-1.642365">
        <ele>1422.028</ele>
        <time>1999-11-30T00:00:00Z</time>
      </trkpt>
      <trkpt lat="40.551433" lon="-1.641859">
        <ele>1422.020</ele>
        <time>1999-11-30T00:00:00Z</time>
      </trkpt>
      <trkpt lat="40.55121" lon="-1.64095">
        <ele>1422.008</ele>
        <time>1999-11-30T00:00:00Z</time>
      </trkpt>
      <trkpt lat="40.551105" lon="-1.64063">
        <ele>1418.098</ele>
        <time>1999-11-30T00:00:00Z</time>
      </trkpt>
      <trkpt lat="40.550968" lon="-1.6405">
        <ele>1416.082</ele>
        <time>1999-11-30T00:00:00Z</time>
      </trkpt>
      <trkpt lat="40.550692" lon="-1.640329">
        <ele>1412.013</ele>
        <time>1999-11-30T00:00:00Z</time>
      </trkpt>
      <trkpt lat="40.55033" lon="-1.640057">
        <ele>1410.097</ele>
        <time>1999-11-30T00:00:00Z</time>
      </trkpt>
      <trkpt lat="40.55008" lon="-1.639842">
        <ele>1410.072</ele>
        <time>1999-11-30T00:00:00Z</time>
      </trkpt>
      <trkpt lat="40.54975" lon="-1.639363">
        <ele>1411.041</ele>
        <time>1999-11-30T00:00:00Z</time>
      </trkpt>
      <trkpt lat="40.549432" lon="-1.639025">
        <ele>1412.092</ele>
        <time>1999-11-30T00:00:00Z</time>
      </trkpt>
      <trkpt lat="40.54917" lon="-1.638678">
        <ele>1413.040</ele>
        <time>1999-11-30T00:00:00Z</time>
      </trkpt>
      <trkpt lat="40.548559" lon="-1.638233">
        <ele>1417.019</ele>
        <time>1999-11-30T00:00:00Z</time>
      </trkpt>
      <trkpt lat="40.548021" lon="-1.637774">
        <ele>1419.009</ele>
        <time>1999-11-30T00:00:00Z</time>
      </trkpt>
      <trkpt lat="40.547786" lon="-1.637516">
        <ele>1420.019</ele>
        <time>1999-11-30T00:00:00Z</time>
      </trkpt>
      <trkpt lat="40.547692" lon="-1.637158">
        <ele>1419.008</ele>
        <time>1999-11-30T00:00:00Z</time>
      </trkpt>
      <trkpt lat="40.547401" lon="-1.636094">
        <ele>1420.082</ele>
        <time>1999-11-30T00:00:00Z</time>
      </trkpt>
      <trkpt lat="40.547196" lon="-1.635223">
        <ele>1420.056</ele>
        <time>1999-11-30T00:00:00Z</time>
      </trkpt>
      <trkpt lat="40.547065" lon="-1.634743">
        <ele>1419.077</ele>
        <time>1999-11-30T00:00:00Z</time>
      </trkpt>
      <trkpt lat="40.546846" lon="-1.634261">
        <ele>1419.051</ele>
        <time>1999-11-30T00:00:00Z</time>
      </trkpt>
      <trkpt lat="40.54669" lon="-1.633845">
        <ele>1419.056</ele>
        <time>1999-11-30T00:00:00Z</time>
      </trkpt>
      <trkpt lat="40.546601" lon="-1.633384">
        <ele>1419.055</ele>
        <time>1999-11-30T00:00:00Z</time>
      </trkpt>
      <trkpt lat="40.546498" lon="-1.632864">
        <ele>1421.076</ele>
        <time>1999-11-30T00:00:00Z</time>
      </trkpt>
      <trkpt lat="40.546384" lon="-1.632191">
        <ele>1419.084</ele>
        <time>1999-11-30T00:00:00Z</time>
      </trkpt>
      <trkpt lat="40.546239" lon="-1.631782">
        <ele>1418.039</ele>
        <time>1999-11-30T00:00:00Z</time>
      </trkpt>
      <trkpt lat="40.545999" lon="-1.631382">
        <ele>1417.001</ele>
        <time>1999-11-30T00:00:00Z</time>
      </trkpt>
      <trkpt lat="40.545709" lon="-1.630998">
        <ele>1416.021</ele>
        <time>1999-11-30T00:00:00Z</time>
      </trkpt>
      <trkpt lat="40.545524" lon="-1.630546">
        <ele>1415.008</ele>
        <time>1999-11-30T00:00:00Z</time>
      </trkpt>
      <trkpt lat="40.545286" lon="-1.629898">
        <ele>1414.064</ele>
        <time>1999-11-30T00:00:00Z</time>
      </trkpt>
      <trkpt lat="40.544858" lon="-1.628802">
        <ele>1410.068</ele>
        <time>1999-11-30T00:00:00Z</time>
      </trkpt>
      <trkpt lat="40.544596" lon="-1.628151">
        <ele>1412.029</ele>
        <time>1999-11-30T00:00:00Z</time>
      </trkpt>
      <trkpt lat="40.544285" lon="-1.627562">
        <ele>1414.083</ele>
        <time>1999-11-30T00:00:00Z</time>
      </trkpt>
      <trkpt lat="40.544084" lon="-1.627103">
        <ele>1415.068</ele>
        <time>1999-11-30T00:00:00Z</time>
      </trkpt>
      <trkpt lat="40.543863" lon="-1.626501">
        <ele>1416.017</ele>
        <time>1999-11-30T00:00:00Z</time>
      </trkpt>
      <trkpt lat="40.543536" lon="-1.625956">
        <ele>1417.078</ele>
        <time>1999-11-30T00:00:00Z</time>
      </trkpt>
      <trkpt lat="40.543217" lon="-1.625463">
        <ele>1420.066</ele>
        <time>1999-11-30T00:00:00Z</time>
      </trkpt>
      <trkpt lat="40.542778" lon="-1.624819">
        <ele>1423.043</ele>
        <time>1999-11-30T00:00:00Z</time>
      </trkpt>
      <trkpt lat="40.542214" lon="-1.624205">
        <ele>1425.064</ele>
        <time>1999-11-30T00:00:00Z</time>
      </trkpt>
      <trkpt lat="40.541489" lon="-1.62343">
        <ele>1426.010</ele>
        <time>1999-11-30T00:00:00Z</time>
      </trkpt>
      <trkpt lat="40.54114" lon="-1.62298">
        <ele>1427.008</ele>
        <time>1999-11-30T00:00:00Z</time>
      </trkpt>
      <trkpt lat="40.540807" lon="-1.622452">
        <ele>1428.095</ele>
        <time>1999-11-30T00:00:00Z</time>
      </trkpt>
      <trkpt lat="40.540569" lon="-1.622051">
        <ele>1431.019</ele>
        <time>1999-11-30T00:00:00Z</time>
      </trkpt>
      <trkpt lat="40.540472" lon="-1.621864">
        <ele>1433.020</ele>
        <time>1999-11-30T00:00:00Z</time>
      </trkpt>
      <trkpt lat="40.540457" lon="-1.621691">
        <ele>1434.074</ele>
        <time>1999-11-30T00:00:00Z</time>
      </trkpt>
      <trkpt lat="40.540515" lon="-1.62153">
        <ele>1433.029</ele>
        <time>1999-11-30T00:00:00Z</time>
      </trkpt>
      <trkpt lat="40.540586" lon="-1.621395">
        <ele>1433.058</ele>
        <time>1999-11-30T00:00:00Z</time>
      </trkpt>
      <trkpt lat="40.540605" lon="-1.621284">
        <ele>1433.079</ele>
        <time>1999-11-30T00:00:00Z</time>
      </trkpt>
      <trkpt lat="40.540533" lon="-1.620965">
        <ele>1434.037</ele>
        <time>1999-11-30T00:00:00Z</time>
      </trkpt>
      <trkpt lat="40.540391" lon="-1.620502">
        <ele>1435.033</ele>
        <time>1999-11-30T00:00:00Z</time>
      </trkpt>
      <trkpt lat="40.540183" lon="-1.619977">
        <ele>1436.023</ele>
        <time>1999-11-30T00:00:00Z</time>
      </trkpt>
      <trkpt lat="40.539875" lon="-1.619217">
        <ele>1437.015</ele>
        <time>1999-11-30T00:00:00Z</time>
      </trkpt>
      <trkpt lat="40.539778" lon="-1.618833">
        <ele>1437.008</ele>
        <time>1999-11-30T00:00:00Z</time>
      </trkpt>
      <trkpt lat="40.539733" lon="-1.618556">
        <ele>1436.014</ele>
        <time>1999-11-30T00:00:00Z</time>
      </trkpt>
      <trkpt lat="40.539555" lon="-1.618058">
        <ele>1438.038</ele>
        <time>1999-11-30T00:00:00Z</time>
      </trkpt>
      <trkpt lat="40.539234" lon="-1.617458">
        <ele>1439.049</ele>
        <time>1999-11-30T00:00:00Z</time>
      </trkpt>
      <trkpt lat="40.539035" lon="-1.617015">
        <ele>1439.093</ele>
        <time>1999-11-30T00:00:00Z</time>
      </trkpt>
      <trkpt lat="40.538908" lon="-1.616755">
        <ele>1439.038</ele>
        <time>1999-11-30T00:00:00Z</time>
      </trkpt>
      <trkpt lat="40.538667" lon="-1.616507">
        <ele>1439.077</ele>
        <time>1999-11-30T00:00:00Z</time>
      </trkpt>
      <trkpt lat="40.538421" lon="-1.616293">
        <ele>1440.088</ele>
        <time>1999-11-30T00:00:00Z</time>
      </trkpt>
      <trkpt lat="40.538142" lon="-1.616104">
        <ele>1440.096</ele>
        <time>1999-11-30T00:00:00Z</time>
      </trkpt>
      <trkpt lat="40.537835" lon="-1.615854">
        <ele>1440.022</ele>
        <time>1999-11-30T00:00:00Z</time>
      </trkpt>
      <trkpt lat="40.537662" lon="-1.615708">
        <ele>1440.062</ele>
        <time>1999-11-30T00:00:00Z</time>
      </trkpt>
      <trkpt lat="40.537456" lon="-1.615392">
        <ele>1442.008</ele>
        <time>1999-11-30T00:00:00Z</time>
      </trkpt>
      <trkpt lat="40.537235" lon="-1.615005">
        <ele>1444.008</ele>
        <time>1999-11-30T00:00:00Z</time>
      </trkpt>
      <trkpt lat="40.536928" lon="-1.614516">
        <ele>1447.013</ele>
        <time>1999-11-30T00:00:00Z</time>
      </trkpt>
      <trkpt lat="40.53682" lon="-1.614213">
        <ele>1448.017</ele>
        <time>1999-11-30T00:00:00Z</time>
      </trkpt>
      <trkpt lat="40.536786" lon="-1.613871">
        <ele>1449.028</ele>
        <time>1999-11-30T00:00:00Z</time>
      </trkpt>
      <trkpt lat="40.536739" lon="-1.613517">
        <ele>1449.042</ele>
        <time>1999-11-30T00:00:00Z</time>
      </trkpt>
      <trkpt lat="40.53662" lon="-1.613116">
        <ele>1450.087</ele>
        <time>1999-11-30T00:00:00Z</time>
      </trkpt>
      <trkpt lat="40.536394" lon="-1.612575">
        <ele>1450.056</ele>
        <time>1999-11-30T00:00:00Z</time>
      </trkpt>
      <trkpt lat="40.535978" lon="-1.611924">
        <ele>1452.087</ele>
        <time>1999-11-30T00:00:00Z</time>
      </trkpt>
      <trkpt lat="40.535554" lon="-1.611475">
        <ele>1454.085</ele>
        <time>1999-11-30T00:00:00Z</time>
      </trkpt>
      <trkpt lat="40.535232" lon="-1.611163">
        <ele>1455.033</ele>
        <time>1999-11-30T00:00:00Z</time>
      </trkpt>
      <trkpt lat="40.534503" lon="-1.610365">
        <ele>1459.023</ele>
        <time>1999-11-30T00:00:00Z</time>
      </trkpt>
      <trkpt lat="40.533221" lon="-1.608969">
        <ele>1462.015</ele>
        <time>1999-11-30T00:00:00Z</time>
      </trkpt>
      <trkpt lat="40.532675" lon="-1.60842">
        <ele>1465.008</ele>
        <time>1999-11-30T00:00:00Z</time>
      </trkpt>
      <trkpt lat="40.532219" lon="-1.607922">
        <ele>1467.014</ele>
        <time>1999-11-30T00:00:00Z</time>
      </trkpt>
      <trkpt lat="40.531773" lon="-1.607462">
        <ele>1468.088</ele>
        <time>1999-11-30T00:00:00Z</time>
      </trkpt>
      <trkpt lat="40.531355" lon="-1.607001">
        <ele>1469.079</ele>
        <time>1999-11-30T00:00:00Z</time>
      </trkpt>
      <trkpt lat="40.53067" lon="-1.606157">
        <ele>1470.043</ele>
        <time>1999-11-30T00:00:00Z</time>
      </trkpt>
      <trkpt lat="40.530208" lon="-1.605615">
        <ele>1472.068</ele>
        <time>1999-11-30T00:00:00Z</time>
      </trkpt>
      <trkpt lat="40.529864" lon="-1.605224">
        <ele>1473.057</ele>
        <time>1999-11-30T00:00:00Z</time>
      </trkpt>
      <trkpt lat="40.5292" lon="-1.604456">
        <ele>1473.078</ele>
        <time>1999-11-30T00:00:00Z</time>
      </trkpt>
      <trkpt lat="40.528477" lon="-1.60363">
        <ele>1474.046</ele>
        <time>1999-11-30T00:00:00Z</time>
      </trkpt>
      <trkpt lat="40.527885" lon="-1.602931">
        <ele>1473.073</ele>
        <time>1999-11-30T00:00:00Z</time>
      </trkpt>
      <trkpt lat="40.527632" lon="-1.602678">
        <ele>1473.085</ele>
        <time>1999-11-30T00:00:00Z</time>
      </trkpt>
      <trkpt lat="40.527033" lon="-1.602118">
        <ele>1473.013</ele>
        <time>1999-11-30T00:00:00Z</time>
      </trkpt>
      <trkpt lat="40.526691" lon="-1.601822">
        <ele>1473.008</ele>
        <time>1999-11-30T00:00:00Z</time>
      </trkpt>
      <trkpt lat="40.526276" lon="-1.601451">
        <ele>1474.078</ele>
        <time>1999-11-30T00:00:00Z</time>
      </trkpt>
      <trkpt lat="40.525993" lon="-1.601212">
        <ele>1475.062</ele>
        <time>1999-11-30T00:00:00Z</time>
      </trkpt>
      <trkpt lat="40.525768" lon="-1.601076">
        <ele>1476.053</ele>
        <time>1999-11-30T00:00:00Z</time>
      </trkpt>
      <trkpt lat="40.525683" lon="-1.601031">
        <ele>1476.027</ele>
        <time>1999-11-30T00:00:00Z</time>
      </trkpt>
      <trkpt lat="40.525615" lon="-1.600951">
        <ele>1477.032</ele>
        <time>1999-11-30T00:00:00Z</time>
      </trkpt>
      <trkpt lat="40.525575" lon="-1.600725">
        <ele>1477.021</ele>
        <time>1999-11-30T00:00:00Z</time>
      </trkpt>
      <trkpt lat="40.525516" lon="-1.60046">
        <ele>1477.082</ele>
        <time>1999-11-30T00:00:00Z</time>
      </trkpt>
      <trkpt lat="40.525424" lon="-1.60022">
        <ele>1477.040</ele>
        <time>1999-11-30T00:00:00Z</time>
      </trkpt>
      <trkpt lat="40.525216" lon="-1.599923">
        <ele>1478.048</ele>
        <time>1999-11-30T00:00:00Z</time>
      </trkpt>
      <trkpt lat="40.524796" lon="-1.599419">
        <ele>1480.061</ele>
        <time>1999-11-30T00:00:00Z</time>
      </trkpt>
      <trkpt lat="40.524671" lon="-1.599278">
        <ele>1481.017</ele>
        <time>1999-11-30T00:00:00Z</time>
      </trkpt>
      <trkpt lat="40.524506" lon="-1.599099">
        <ele>1482.008</ele>
        <time>1999-11-30T00:00:00Z</time>
      </trkpt>
      <trkpt lat="40.524332" lon="-1.598865">
        <ele>1484.025</ele>
        <time>1999-11-30T00:00:00Z</time>
      </trkpt>
      <trkpt lat="40.5242" lon="-1.598564">
        <ele>1484.069</ele>
        <time>1999-11-30T00:00:00Z</time>
      </trkpt>
      <trkpt lat="40.524026" lon="-1.598284">
        <ele>1484.060</ele>
        <time>1999-11-30T00:00:00Z</time>
      </trkpt>
      <trkpt lat="40.523798" lon="-1.597979">
        <ele>1483.024</ele>
        <time>1999-11-30T00:00:00Z</time>
      </trkpt>
      <trkpt lat="40.52353" lon="-1.597699">
        <ele>1483.049</ele>
        <time>1999-11-30T00:00:00Z</time>
      </trkpt>
      <trkpt lat="40.523157" lon="-1.597422">
        <ele>1481.028</ele>
        <time>1999-11-30T00:00:00Z</time>
      </trkpt>
      <trkpt lat="40.522641" lon="-1.597129">
        <ele>1481.059</ele>
        <time>1999-11-30T00:00:00Z</time>
      </trkpt>
      <trkpt lat="40.522475" lon="-1.596987">
        <ele>1480.037</ele>
        <time>1999-11-30T00:00:00Z</time>
      </trkpt>
      <trkpt lat="40.522182" lon="-1.596771">
        <ele>1478.062</ele>
        <time>1999-11-30T00:00:00Z</time>
      </trkpt>
      <trkpt lat="40.521734" lon="-1.596518">
        <ele>1477.083</ele>
        <time>1999-11-30T00:00:00Z</time>
      </trkpt>
      <trkpt lat="40.521499" lon="-1.596422">
        <ele>1477.011</ele>
        <time>1999-11-30T00:00:00Z</time>
      </trkpt>
      <trkpt lat="40.521334" lon="-1.596371">
        <ele>1478.008</ele>
        <time>1999-11-30T00:00:00Z</time>
      </trkpt>
      <trkpt lat="40.521229" lon="-1.59628">
        <ele>1478.087</ele>
        <time>1999-11-30T00:00:00Z</time>
      </trkpt>
      <trkpt lat="40.521077" lon="-1.596106">
        <ele>1480.081</ele>
        <time>1999-11-30T00:00:00Z</time>
      </trkpt>
      <trkpt lat="40.520937" lon="-1.596026">
        <ele>1481.082</ele>
        <time>1999-11-30T00:00:00Z</time>
      </trkpt>
      <trkpt lat="40.520836" lon="-1.595982">
        <ele>1483.086</ele>
        <time>1999-11-30T00:00:00Z</time>
      </trkpt>
      <trkpt lat="40.520661" lon="-1.595926">
        <ele>1485.031</ele>
        <time>1999-11-30T00:00:00Z</time>
      </trkpt>
      <trkpt lat="40.520527" lon="-1.595824">
        <ele>1486.080</ele>
        <time>1999-11-30T00:00:00Z</time>
      </trkpt>
      <trkpt lat="40.520345" lon="-1.595594">
        <ele>1489.061</ele>
        <time>1999-11-30T00:00:00Z</time>
      </trkpt>
      <trkpt lat="40.520105" lon="-1.595261">
        <ele>1492.079</ele>
        <time>1999-11-30T00:00:00Z</time>
      </trkpt>
      <trkpt lat="40.51992" lon="-1.595036">
        <ele>1495.078</ele>
        <time>1999-11-30T00:00:00Z</time>
      </trkpt>
      <trkpt lat="40.51961" lon="-1.59485">
        <ele>1496.033</ele>
        <time>1999-11-30T00:00:00Z</time>
      </trkpt>
      <trkpt lat="40.519232" lon="-1.594573">
        <ele>1497.026</ele>
        <time>1999-11-30T00:00:00Z</time>
      </trkpt>
      <trkpt lat="40.519084" lon="-1.594424">
        <ele>1498.008</ele>
        <time>1999-11-30T00:00:00Z</time>
      </trkpt>
      <trkpt lat="40.518911" lon="-1.594199">
        <ele>1498.068</ele>
        <time>1999-11-30T00:00:00Z</time>
      </trkpt>
      <trkpt lat="40.5187" lon="-1.594046">
        <ele>1499.062</ele>
        <time>1999-11-30T00:00:00Z</time>
      </trkpt>
      <trkpt lat="40.518507" lon="-1.593904">
        <ele>1500.073</ele>
        <time>1999-11-30T00:00:00Z</time>
      </trkpt>
      <trkpt lat="40.518353" lon="-1.593756">
        <ele>1502.087</ele>
        <time>1999-11-30T00:00:00Z</time>
      </trkpt>
      <trkpt lat="40.518272" lon="-1.593546">
        <ele>1505.022</ele>
        <time>1999-11-30T00:00:00Z</time>
      </trkpt>
      <trkpt lat="40.518157" lon="-1.593036">
        <ele>1509.031</ele>
        <time>1999-11-30T00:00:00Z</time>
      </trkpt>
      <trkpt lat="40.517991" lon="-1.592526">
        <ele>1510.052</ele>
        <time>1999-11-30T00:00:00Z</time>
      </trkpt>
      <trkpt lat="40.517736" lon="-1.592104">
        <ele>1513.010</ele>
        <time>1999-11-30T00:00:00Z</time>
      </trkpt>
      <trkpt lat="40.517551" lon="-1.591856">
        <ele>1515.091</ele>
        <time>1999-11-30T00:00:00Z</time>
      </trkpt>
      <trkpt lat="40.517372" lon="-1.591702">
        <ele>1517.081</ele>
        <time>1999-11-30T00:00:00Z</time>
      </trkpt>
      <trkpt lat="40.517196" lon="-1.591631">
        <ele>1519.019</ele>
        <time>1999-11-30T00:00:00Z</time>
      </trkpt>
      <trkpt lat="40.517079" lon="-1.591546">
        <ele>1521.008</ele>
        <time>1999-11-30T00:00:00Z</time>
      </trkpt>
      <trkpt lat="40.516839" lon="-1.591213">
        <ele>1525.040</ele>
        <time>1999-11-30T00:00:00Z</time>
      </trkpt>
      <trkpt lat="40.516671" lon="-1.591007">
        <ele>1527.064</ele>
        <time>1999-11-30T00:00:00Z</time>
      </trkpt>
      <trkpt lat="40.516367" lon="-1.590504">
        <ele>1530.045</ele>
        <time>1999-11-30T00:00:00Z</time>
      </trkpt>
      <trkpt lat="40.516208" lon="-1.590255">
        <ele>1530.049</ele>
        <time>1999-11-30T00:00:00Z</time>
      </trkpt>
      <trkpt lat="40.516018" lon="-1.590079">
        <ele>1529.024</ele>
        <time>1999-11-30T00:00:00Z</time>
      </trkpt>
      <trkpt lat="40.515748" lon="-1.589851">
        <ele>1528.083</ele>
        <time>1999-11-30T00:00:00Z</time>
      </trkpt>
      <trkpt lat="40.515364" lon="-1.589485">
        <ele>1523.074</ele>
        <time>1999-11-30T00:00:00Z</time>
      </trkpt>
      <trkpt lat="40.515082" lon="-1.588978">
        <ele>1520.012</ele>
        <time>1999-11-30T00:00:00Z</time>
      </trkpt>
      <trkpt lat="40.51494" lon="-1.588723">
        <ele>1519.089</ele>
        <time>1999-11-30T00:00:00Z</time>
      </trkpt>
      <trkpt lat="40.514831" lon="-1.588614">
        <ele>1518.006</ele>
        <time>1999-11-30T00:00:00Z</time>
      </trkpt>
      <trkpt lat="40.514694" lon="-1.58856">
        <ele>1518.026</ele>
        <time>1999-11-30T00:00:00Z</time>
      </trkpt>
      <trkpt lat="40.514608" lon="-1.58845">
        <ele>1519.008</ele>
        <time>1999-11-30T00:00:00Z</time>
      </trkpt>
      <trkpt lat="40.514338" lon="-1.588205">
        <ele>1520.079</ele>
        <time>1999-11-30T00:00:00Z</time>
      </trkpt>
      <trkpt lat="40.514148" lon="-1.58808">
        <ele>1522.083</ele>
        <time>1999-11-30T00:00:00Z</time>
      </trkpt>
      <trkpt lat="40.513964" lon="-1.587956">
        <ele>1524.044</ele>
        <time>1999-11-30T00:00:00Z</time>
      </trkpt>
      <trkpt lat="40.513763" lon="-1.5878">
        <ele>1526.028</ele>
        <time>1999-11-30T00:00:00Z</time>
      </trkpt>
      <trkpt lat="40.513614" lon="-1.587747">
        <ele>1527.043</ele>
        <time>1999-11-30T00:00:00Z</time>
      </trkpt>
      <trkpt lat="40.513355" lon="-1.587706">
        <ele>1531.032</ele>
        <time>1999-11-30T00:00:00Z</time>
      </trkpt>
      <trkpt lat="40.513127" lon="-1.587594">
        <ele>1534.083</ele>
        <time>1999-11-30T00:00:00Z</time>
      </trkpt>
      <trkpt lat="40.512856" lon="-1.587313">
        <ele>1537.091</ele>
        <time>1999-11-30T00:00:00Z</time>
      </trkpt>
      <trkpt lat="40.512477" lon="-1.586953">
        <ele>1542.053</ele>
        <time>1999-11-30T00:00:00Z</time>
      </trkpt>
      <trkpt lat="40.512173" lon="-1.586739">
        <ele>1547.004</ele>
        <time>1999-11-30T00:00:00Z</time>
      </trkpt>
      <trkpt lat="40.511951" lon="-1.586603">
        <ele>1550.014</ele>
        <time>1999-11-30T00:00:00Z</time>
      </trkpt>
      <trkpt lat="40.511746" lon="-1.586566">
        <ele>1552.008</ele>
        <time>1999-11-30T00:00:00Z</time>
      </trkpt>
      <trkpt lat="40.511505" lon="-1.586661">
        <ele>1555.016</ele>
        <time>1999-11-30T00:00:00Z</time>
      </trkpt>
      <trkpt lat="40.511153" lon="-1.586905">
        <ele>1558.020</ele>
        <time>1999-11-30T00:00:00Z</time>
      </trkpt>
      <trkpt lat="40.510863" lon="-1.587113">
        <ele>1561.021</ele>
        <time>1999-11-30T00:00:00Z</time>
      </trkpt>
      <trkpt lat="40.510412" lon="-1.587396">
        <ele>1564.095</ele>
        <time>1999-11-30T00:00:00Z</time>
      </trkpt>
      <trkpt lat="40.510118" lon="-1.587571">
        <ele>1563.080</ele>
        <time>1999-11-30T00:00:00Z</time>
      </trkpt>
      <trkpt lat="40.509804" lon="-1.587832">
        <ele>1564.079</ele>
        <time>1999-11-30T00:00:00Z</time>
      </trkpt>
      <trkpt lat="40.509449" lon="-1.587285">
        <ele>1560.050</ele>
        <time>1999-11-30T00:00:00Z</time>
      </trkpt>
      <trkpt lat="40.509418" lon="-1.587233">
        <ele>1559.018</ele>
        <time>1999-11-30T00:00:00Z</time>
      </trkpt>
      <trkpt lat="40.509013" lon="-1.587237">
        <ele>1560.085</ele>
        <time>1999-11-30T00:00:00Z</time>
      </trkpt>
      <trkpt lat="40.508662" lon="-1.586808">
        <ele>1559.089</ele>
        <time>1999-11-30T00:00:00Z</time>
      </trkpt>
      <trkpt lat="40.508402" lon="-1.586444">
        <ele>1558.017</ele>
        <time>1999-11-30T00:00:00Z</time>
      </trkpt>
      <trkpt lat="40.507967" lon="-1.585889">
        <ele>1558.008</ele>
        <time>1999-11-30T00:00:00Z</time>
      </trkpt>
      <trkpt lat="40.507837" lon="-1.585669">
        <ele>1559.039</ele>
        <time>1999-11-30T00:00:00Z</time>
      </trkpt>
      <trkpt lat="40.507746" lon="-1.585418">
        <ele>1559.053</ele>
        <time>1999-11-30T00:00:00Z</time>
      </trkpt>
      <trkpt lat="40.507664" lon="-1.585125">
        <ele>1558.064</ele>
        <time>1999-11-30T00:00:00Z</time>
      </trkpt>
      <trkpt lat="40.507504" lon="-1.584772">
        <ele>1557.018</ele>
        <time>1999-11-30T00:00:00Z</time>
      </trkpt>
      <trkpt lat="40.507117" lon="-1.584055">
        <ele>1555.013</ele>
        <time>1999-11-30T00:00:00Z</time>
      </trkpt>
      <trkpt lat="40.506627" lon="-1.582991">
        <ele>1550.022</ele>
        <time>1999-11-30T00:00:00Z</time>
      </trkpt>
      <trkpt lat="40.506225" lon="-1.582241">
        <ele>1547.093</ele>
        <time>1999-11-30T00:00:00Z</time>
      </trkpt>
      <trkpt lat="40.505916" lon="-1.581721">
        <ele>1543.081</ele>
        <time>1999-11-30T00:00:00Z</time>
      </trkpt>
      <trkpt lat="40.505643" lon="-1.581295">
        <ele>1541.038</ele>
        <time>1999-11-30T00:00:00Z</time>
      </trkpt>
      <trkpt lat="40.505421" lon="-1.580932">
        <ele>1539.070</ele>
        <time>1999-11-30T00:00:00Z</time>
      </trkpt>
      <trkpt lat="40.505288" lon="-1.580689">
        <ele>1538.017</ele>
        <time>1999-11-30T00:00:00Z</time>
      </trkpt>
      <trkpt lat="40.50521" lon="-1.580516">
        <ele>1537.008</ele>
        <time>1999-11-30T00:00:00Z</time>
      </trkpt>
      <trkpt lat="40.505124" lon="-1.580419">
        <ele>1535.084</ele>
        <time>1999-11-30T00:00:00Z</time>
      </trkpt>
      <trkpt lat="40.505043" lon="-1.580345">
        <ele>1534.078</ele>
        <time>1999-11-30T00:00:00Z</time>
      </trkpt>
      <trkpt lat="40.504874" lon="-1.580336">
        <ele>1532.029</ele>
        <time>1999-11-30T00:00:00Z</time>
      </trkpt>
      <trkpt lat="40.504664" lon="-1.580265">
        <ele>1531.063</ele>
        <time>1999-11-30T00:00:00Z</time>
      </trkpt>
      <trkpt lat="40.504587" lon="-1.580202">
        <ele>1532.058</ele>
        <time>1999-11-30T00:00:00Z</time>
      </trkpt>
      <trkpt lat="40.504536" lon="-1.58004">
        <ele>1531.047</ele>
        <time>1999-11-30T00:00:00Z</time>
      </trkpt>
      <trkpt lat="40.504497" lon="-1.579819">
        <ele>1532.088</ele>
        <time>1999-11-30T00:00:00Z</time>
      </trkpt>
      <trkpt lat="40.504468" lon="-1.579557">
        <ele>1531.036</ele>
        <time>1999-11-30T00:00:00Z</time>
      </trkpt>
      <trkpt lat="40.50438" lon="-1.579349">
        <ele>1532.063</ele>
        <time>1999-11-30T00:00:00Z</time>
      </trkpt>
      <trkpt lat="40.504244" lon="-1.579136">
        <ele>1533.044</ele>
        <time>1999-11-30T00:00:00Z</time>
      </trkpt>
      <trkpt lat="40.504011" lon="-1.579006">
        <ele>1534.018</ele>
        <time>1999-11-30T00:00:00Z</time>
      </trkpt>
      <trkpt lat="40.503716" lon="-1.578913">
        <ele>1535.008</ele>
        <time>1999-11-30T00:00:00Z</time>
      </trkpt>
      <trkpt lat="40.503537" lon="-1.578877">
        <ele>1537.027</ele>
        <time>1999-11-30T00:00:00Z</time>
      </trkpt>
      <trkpt lat="40.503348" lon="-1.578746">
        <ele>1537.081</ele>
        <time>1999-11-30T00:00:00Z</time>
      </trkpt>
      <trkpt lat="40.50312" lon="-1.578634">
        <ele>1538.062</ele>
        <time>1999-11-30T00:00:00Z</time>
      </trkpt>
      <trkpt lat="40.502878" lon="-1.578598">
        <ele>1540.036</ele>
        <time>1999-11-30T00:00:00Z</time>
      </trkpt>
      <trkpt lat="40.50261" lon="-1.578493">
        <ele>1540.011</ele>
        <time>1999-11-30T00:00:00Z</time>
      </trkpt>
      <trkpt lat="40.5024" lon="-1.578416">
        <ele>1540.010</ele>
        <time>1999-11-30T00:00:00Z</time>
      </trkpt>
      <trkpt lat="40.502314" lon="-1.578376">
        <ele>1540.021</ele>
        <time>1999-11-30T00:00:00Z</time>
      </trkpt>
      <trkpt lat="40.502263" lon="-1.578238">
        <ele>1540.089</ele>
        <time>1999-11-30T00:00:00Z</time>
      </trkpt>
      <trkpt lat="40.502247" lon="-1.577999">
        <ele>1540.028</ele>
        <time>1999-11-30T00:00:00Z</time>
      </trkpt>
      <trkpt lat="40.502326" lon="-1.577863">
        <ele>1542.089</ele>
        <time>1999-11-30T00:00:00Z</time>
      </trkpt>
      <trkpt lat="40.502544" lon="-1.577805">
        <ele>1543.017</ele>
        <time>1999-11-30T00:00:00Z</time>
      </trkpt>
      <trkpt lat="40.502872" lon="-1.577635">
        <ele>1544.008</ele>
        <time>1999-11-30T00:00:00Z</time>
      </trkpt>
      <trkpt lat="40.503366" lon="-1.577275">
        <ele>1548.053</ele>
        <time>1999-11-30T00:00:00Z</time>
      </trkpt>
      <trkpt lat="40.503576" lon="-1.577014">
        <ele>1549.017</ele>
        <time>1999-11-30T00:00:00Z</time>
      </trkpt>
      <trkpt lat="40.503672" lon="-1.576801">
        <ele>1550.058</ele>
        <time>1999-11-30T00:00:00Z</time>
      </trkpt>
      <trkpt lat="40.503705" lon="-1.576555">
        <ele>1550.072</ele>
        <time>1999-11-30T00:00:00Z</time>
      </trkpt>
      <trkpt lat="40.503652" lon="-1.576229">
        <ele>1552.047</ele>
        <time>1999-11-30T00:00:00Z</time>
      </trkpt>
      <trkpt lat="40.503527" lon="-1.575904">
        <ele>1555.056</ele>
        <time>1999-11-30T00:00:00Z</time>
      </trkpt>
      <trkpt lat="40.50327" lon="-1.575279">
        <ele>1558.077</ele>
        <time>1999-11-30T00:00:00Z</time>
      </trkpt>
      <trkpt lat="40.502911" lon="-1.574365">
        <ele>1561.045</ele>
        <time>1999-11-30T00:00:00Z</time>
      </trkpt>
      <trkpt lat="40.502801" lon="-1.574092">
        <ele>1562.083</ele>
        <time>1999-11-30T00:00:00Z</time>
      </trkpt>
      <trkpt lat="40.502563" lon="-1.573612">
        <ele>1562.025</ele>
        <time>1999-11-30T00:00:00Z</time>
      </trkpt>
      <trkpt lat="40.502344" lon="-1.57318">
        <ele>1561.017</ele>
        <time>1999-11-30T00:00:00Z</time>
      </trkpt>
      <trkpt lat="40.50216" lon="-1.572764">
        <ele>1560.008</ele>
        <time>1999-11-30T00:00:00Z</time>
      </trkpt>
      <trkpt lat="40.502043" lon="-1.572294">
        <ele>1559.079</ele>
        <time>1999-11-30T00:00:00Z</time>
      </trkpt>
      <trkpt lat="40.501904" lon="-1.571531">
        <ele>1558.093</ele>
        <time>1999-11-30T00:00:00Z</time>
      </trkpt>
      <trkpt lat="40.501666" lon="-1.570578">
        <ele>1552.084</ele>
        <time>1999-11-30T00:00:00Z</time>
      </trkpt>
      <trkpt lat="40.501524" lon="-1.570155">
        <ele>1554.038</ele>
        <time>1999-11-30T00:00:00Z</time>
      </trkpt>
      <trkpt lat="40.501515" lon="-1.569916">
        <ele>1554.023</ele>
        <time>1999-11-30T00:00:00Z</time>
      </trkpt>
      <trkpt lat="40.501595" lon="-1.569523">
        <ele>1553.022</ele>
        <time>1999-11-30T00:00:00Z</time>
      </trkpt>
      <trkpt lat="40.501715" lon="-1.569124">
        <ele>1553.073</ele>
        <time>1999-11-30T00:00:00Z</time>
      </trkpt>
      <trkpt lat="40.501732" lon="-1.568849">
        <ele>1552.041</ele>
        <time>1999-11-30T00:00:00Z</time>
      </trkpt>
      <trkpt lat="40.501684" lon="-1.568482">
        <ele>1550.017</ele>
        <time>1999-11-30T00:00:00Z</time>
      </trkpt>
      <trkpt lat="40.501571" lon="-1.568029">
        <ele>1551.087</ele>
        <time>1999-11-30T00:00:00Z</time>
      </trkpt>
      <trkpt lat="40.501472" lon="-1.567582">
        <ele>1552.015</ele>
        <time>1999-11-30T00:00:00Z</time>
      </trkpt>
      <trkpt lat="40.50144" lon="-1.567151">
        <ele>1551.008</ele>
        <time>1999-11-30T00:00:00Z</time>
      </trkpt>
      <trkpt lat="40.501451" lon="-1.566619">
        <ele>1551.032</ele>
        <time>1999-11-30T00:00:00Z</time>
      </trkpt>
      <trkpt lat="40.501434" lon="-1.566292">
        <ele>1551.076</ele>
        <time>1999-11-30T00:00:00Z</time>
      </trkpt>
      <trkpt lat="40.50138" lon="-1.565978">
        <ele>1549.047</ele>
        <time>1999-11-30T00:00:00Z</time>
      </trkpt>
      <trkpt lat="40.501273" lon="-1.565589">
        <ele>1547.081</ele>
        <time>1999-11-30T00:00:00Z</time>
      </trkpt>
      <trkpt lat="40.50108" lon="-1.56511">
        <ele>1545.096</ele>
        <time>1999-11-30T00:00:00Z</time>
      </trkpt>
      <trkpt lat="40.500873" lon="-1.564629">
        <ele>1544.075</ele>
        <time>1999-11-30T00:00:00Z</time>
      </trkpt>
      <trkpt lat="40.500745" lon="-1.564257">
        <ele>1542.026</ele>
        <time>1999-11-30T00:00:00Z</time>
      </trkpt>
      <trkpt lat="40.500618" lon="-1.56375">
        <ele>1540.084</ele>
        <time>1999-11-30T00:00:00Z</time>
      </trkpt>
      <trkpt lat="40.500488" lon="-1.563388">
        <ele>1539.099</ele>
        <time>1999-11-30T00:00:00Z</time>
      </trkpt>
      <trkpt lat="40.500297" lon="-1.563071">
        <ele>1539.007</ele>
        <time>1999-11-30T00:00:00Z</time>
      </trkpt>
      <trkpt lat="40.500156" lon="-1.562747">
        <ele>1539.027</ele>
        <time>1999-11-30T00:00:00Z</time>
      </trkpt>
      <trkpt lat="40.500049" lon="-1.562358">
        <ele>1538.008</ele>
        <time>1999-11-30T00:00:00Z</time>
      </trkpt>
      <trkpt lat="40.49997" lon="-1.562074">
        <ele>1537.040</ele>
        <time>1999-11-30T00:00:00Z</time>
      </trkpt>
      <trkpt lat="40.49985" lon="-1.561836">
        <ele>1536.064</ele>
        <time>1999-11-30T00:00:00Z</time>
      </trkpt>
      <trkpt lat="40.499719" lon="-1.561659">
        <ele>1535.015</ele>
        <time>1999-11-30T00:00:00Z</time>
      </trkpt>
      <trkpt lat="40.49948" lon="-1.56143">
        <ele>1535.069</ele>
        <time>1999-11-30T00:00:00Z</time>
      </trkpt>
      <trkpt lat="40.499131" lon="-1.561006">
        <ele>1531.024</ele>
        <time>1999-11-30T00:00:00Z</time>
      </trkpt>
      <trkpt lat="40.498929" lon="-1.560841">
        <ele>1530.013</ele>
        <time>1999-11-30T00:00:00Z</time>
      </trkpt>
      <trkpt lat="40.498601" lon="-1.560684">
        <ele>1526.014</ele>
        <time>1999-11-30T00:00:00Z</time>
      </trkpt>
      <trkpt lat="40.498336" lon="-1.560497">
        <ele>1522.042</ele>
        <time>1999-11-30T00:00:00Z</time>
      </trkpt>
      <trkpt lat="40.498057" lon="-1.560252">
        <ele>1519.091</ele>
        <time>1999-11-30T00:00:00Z</time>
      </trkpt>
      <trkpt lat="40.497403" lon="-1.559647">
        <ele>1514.081</ele>
        <time>1999-11-30T00:00:00Z</time>
      </trkpt>
      <trkpt lat="40.496794" lon="-1.559094">
        <ele>1511.019</ele>
        <time>1999-11-30T00:00:00Z</time>
      </trkpt>
      <trkpt lat="40.496113" lon="-1.558473">
        <ele>1509.008</ele>
        <time>1999-11-30T00:00:00Z</time>
      </trkpt>
      <trkpt lat="40.495532" lon="-1.557966">
        <ele>1508.070</ele>
        <time>1999-11-30T00:00:00Z</time>
      </trkpt>
      <trkpt lat="40.495252" lon="-1.557656">
        <ele>1509.094</ele>
        <time>1999-11-30T00:00:00Z</time>
      </trkpt>
      <trkpt lat="40.494806" lon="-1.557268">
        <ele>1509.095</ele>
        <time>1999-11-30T00:00:00Z</time>
      </trkpt>
      <trkpt lat="40.494341" lon="-1.556847">
        <ele>1510.099</ele>
        <time>1999-11-30T00:00:00Z</time>
      </trkpt>
      <trkpt lat="40.494041" lon="-1.556631">
        <ele>1509.014</ele>
        <time>1999-11-30T00:00:00Z</time>
      </trkpt>
      <trkpt lat="40.493462" lon="-1.556299">
        <ele>1511.063</ele>
        <time>1999-11-30T00:00:00Z</time>
      </trkpt>
      <trkpt lat="40.492905" lon="-1.555996">
        <ele>1510.034</ele>
        <time>1999-11-30T00:00:00Z</time>
      </trkpt>
      <trkpt lat="40.49242" lon="-1.555685">
        <ele>1511.052</ele>
        <time>1999-11-30T00:00:00Z</time>
      </trkpt>
      <trkpt lat="40.491773" lon="-1.555238">
        <ele>1516.034</ele>
        <time>1999-11-30T00:00:00Z</time>
      </trkpt>
      <trkpt lat="40.491409" lon="-1.555007">
        <ele>1518.055</ele>
        <time>1999-11-30T00:00:00Z</time>
      </trkpt>
      <trkpt lat="40.491203" lon="-1.554865">
        <ele>1518.010</ele>
        <time>1999-11-30T00:00:00Z</time>
      </trkpt>
      <trkpt lat="40.490956" lon="-1.554719">
        <ele>1518.008</ele>
        <time>1999-11-30T00:00:00Z</time>
      </trkpt>
      <trkpt lat="40.49031" lon="-1.554395">
        <ele>1517.034</ele>
        <time>1999-11-30T00:00:00Z</time>
      </trkpt>
      <trkpt lat="40.489802" lon="-1.554072">
        <ele>1515.058</ele>
        <time>1999-11-30T00:00:00Z</time>
      </trkpt>
      <trkpt lat="40.489339" lon="-1.55375">
        <ele>1512.069</ele>
        <time>1999-11-30T00:00:00Z</time>
      </trkpt>
      <trkpt lat="40.488992" lon="-1.553518">
        <ele>1510.083</ele>
        <time>1999-11-30T00:00:00Z</time>
      </trkpt>
      <trkpt lat="40.488528" lon="-1.553137">
        <ele>1509.048</ele>
        <time>1999-11-30T00:00:00Z</time>
      </trkpt>
      <trkpt lat="40.488037" lon="-1.552657">
        <ele>1503.097</ele>
        <time>1999-11-30T00:00:00Z</time>
      </trkpt>
      <trkpt lat="40.487368" lon="-1.551992">
        <ele>1499.058</ele>
        <time>1999-11-30T00:00:00Z</time>
      </trkpt>
      <trkpt lat="40.486527" lon="-1.551121">
        <ele>1500.066</ele>
        <time>1999-11-30T00:00:00Z</time>
      </trkpt>
      <trkpt lat="40.48642" lon="-1.550935">
        <ele>1501.047</ele>
        <time>1999-11-30T00:00:00Z</time>
      </trkpt>
      <trkpt lat="40.486357" lon="-1.550358">
        <ele>1504.029</ele>
        <time>1999-11-30T00:00:00Z</time>
      </trkpt>
      <trkpt lat="40.486283" lon="-1.549618">
        <ele>1508.021</ele>
        <time>1999-11-30T00:00:00Z</time>
      </trkpt>
      <trkpt lat="40.486222" lon="-1.548926">
        <ele>1513.008</ele>
        <time>1999-11-30T00:00:00Z</time>
      </trkpt>
      <trkpt lat="40.486141" lon="-1.548525">
        <ele>1516.065</ele>
        <time>1999-11-30T00:00:00Z</time>
      </trkpt>
      <trkpt lat="40.485919" lon="-1.547956">
        <ele>1520.059</ele>
        <time>1999-11-30T00:00:00Z</time>
      </trkpt>
      <trkpt lat="40.485673" lon="-1.547495">
        <ele>1528.060</ele>
        <time>1999-11-30T00:00:00Z</time>
      </trkpt>
      <trkpt lat="40.485419" lon="-1.547115">
        <ele>1530.054</ele>
        <time>1999-11-30T00:00:00Z</time>
      </trkpt>
      <trkpt lat="40.48516" lon="-1.546812">
        <ele>1528.069</ele>
        <time>1999-11-30T00:00:00Z</time>
      </trkpt>
      <trkpt lat="40.484831" lon="-1.546648">
        <ele>1523.068</ele>
        <time>1999-11-30T00:00:00Z</time>
      </trkpt>
      <trkpt lat="40.484446" lon="-1.546476">
        <ele>1516.099</ele>
        <time>1999-11-30T00:00:00Z</time>
      </trkpt>
      <trkpt lat="40.484212" lon="-1.546272">
        <ele>1513.077</ele>
        <time>1999-11-30T00:00:00Z</time>
      </trkpt>
      <trkpt lat="40.483938" lon="-1.545951">
        <ele>1512.024</ele>
        <time>1999-11-30T00:00:00Z</time>
      </trkpt>
      <trkpt lat="40.483796" lon="-1.545686">
        <ele>1510.004</ele>
        <time>1999-11-30T00:00:00Z</time>
      </trkpt>
      <trkpt lat="40.483621" lon="-1.545234">
        <ele>1510.014</ele>
        <time>1999-11-30T00:00:00Z</time>
      </trkpt>
      <trkpt lat="40.483493" lon="-1.544909">
        <ele>1510.008</ele>
        <time>1999-11-30T00:00:00Z</time>
      </trkpt>
      <trkpt lat="40.483454" lon="-1.544689">
        <ele>1510.093</ele>
        <time>1999-11-30T00:00:00Z</time>
      </trkpt>
      <trkpt lat="40.483303" lon="-1.544324">
        <ele>1515.047</ele>
        <time>1999-11-30T00:00:00Z</time>
      </trkpt>
      <trkpt lat="40.483184" lon="-1.544134">
        <ele>1519.018</ele>
        <time>1999-11-30T00:00:00Z</time>
      </trkpt>
      <trkpt lat="40.482889" lon="-1.544">
        <ele>1522.052</ele>
        <time>1999-11-30T00:00:00Z</time>
      </trkpt>
      <trkpt lat="40.482521" lon="-1.543857">
        <ele>1527.027</ele>
        <time>1999-11-30T00:00:00Z</time>
      </trkpt>
      <trkpt lat="40.482255" lon="-1.543588">
        <ele>1533.076</ele>
        <time>1999-11-30T00:00:00Z</time>
      </trkpt>
      <trkpt lat="40.481894" lon="-1.543188">
        <ele>1539.017</ele>
        <time>1999-11-30T00:00:00Z</time>
      </trkpt>
      <trkpt lat="40.481653" lon="-1.54308">
        <ele>1541.015</ele>
        <time>1999-11-30T00:00:00Z</time>
      </trkpt>
      <trkpt lat="40.481405" lon="-1.542846">
        <ele>1545.034</ele>
        <time>1999-11-30T00:00:00Z</time>
      </trkpt>
      <trkpt lat="40.4811" lon="-1.54247">
        <ele>1553.055</ele>
        <time>1999-11-30T00:00:00Z</time>
      </trkpt>
      <trkpt lat="40.480916" lon="-1.542184">
        <ele>1557.010</ele>
        <time>1999-11-30T00:00:00Z</time>
      </trkpt>
      <trkpt lat="40.48067" lon="-1.54165">
        <ele>1560.008</ele>
        <time>1999-11-30T00:00:00Z</time>
      </trkpt>
      <trkpt lat="40.4804" lon="-1.541032">
        <ele>1564.014</ele>
        <time>1999-11-30T00:00:00Z</time>
      </trkpt>
      <trkpt lat="40.480266" lon="-1.540736">
        <ele>1565.098</ele>
        <time>1999-11-30T00:00:00Z</time>
      </trkpt>
      <trkpt lat="40.480123" lon="-1.540459">
        <ele>1567.019</ele>
        <time>1999-11-30T00:00:00Z</time>
      </trkpt>
      <trkpt lat="40.479927" lon="-1.54016">
        <ele>1566.013</ele>
        <time>1999-11-30T00:00:00Z</time>
      </trkpt>
      <trkpt lat="40.479657" lon="-1.539758">
        <ele>1562.098</ele>
        <time>1999-11-30T00:00:00Z</time>
      </trkpt>
      <trkpt lat="40.479495" lon="-1.539347">
        <ele>1559.037</ele>
        <time>1999-11-30T00:00:00Z</time>
      </trkpt>
      <trkpt lat="40.479448" lon="-1.539068">
        <ele>1558.098</ele>
        <time>1999-11-30T00:00:00Z</time>
      </trkpt>
      <trkpt lat="40.479422" lon="-1.538806">
        <ele>1557.046</ele>
        <time>1999-11-30T00:00:00Z</time>
      </trkpt>
      <trkpt lat="40.479371" lon="-1.538626">
        <ele>1556.025</ele>
        <time>1999-11-30T00:00:00Z</time>
      </trkpt>
      <trkpt lat="40.479276" lon="-1.538506">
        <ele>1554.026</ele>
        <time>1999-11-30T00:00:00Z</time>
      </trkpt>
      <trkpt lat="40.47892" lon="-1.538204">
        <ele>1550.008</ele>
        <time>1999-11-30T00:00:00Z</time>
      </trkpt>
      <trkpt lat="40.478439" lon="-1.537746">
        <ele>1546.008</ele>
        <time>1999-11-30T00:00:00Z</time>
      </trkpt>
      <trkpt lat="40.478165" lon="-1.537473">
        <ele>1544.063</ele>
        <time>1999-11-30T00:00:00Z</time>
      </trkpt>
      <trkpt lat="40.477909" lon="-1.537119">
        <ele>1542.047</ele>
        <time>1999-11-30T00:00:00Z</time>
      </trkpt>
      <trkpt lat="40.477708" lon="-1.536794">
        <ele>1540.038</ele>
        <time>1999-11-30T00:00:00Z</time>
      </trkpt>
      <trkpt lat="40.477644" lon="-1.536674">
        <ele>1540.092</ele>
        <time>1999-11-30T00:00:00Z</time>
      </trkpt>
      <trkpt lat="40.477674" lon="-1.536545">
        <ele>1540.087</ele>
        <time>1999-11-30T00:00:00Z</time>
      </trkpt>
      <trkpt lat="40.477697" lon="-1.536375">
        <ele>1540.066</ele>
        <time>1999-11-30T00:00:00Z</time>
      </trkpt>
      <trkpt lat="40.477669" lon="-1.53626">
        <ele>1539.017</ele>
        <time>1999-11-30T00:00:00Z</time>
      </trkpt>
      <trkpt lat="40.477579" lon="-1.536155">
        <ele>1539.065</ele>
        <time>1999-11-30T00:00:00Z</time>
      </trkpt>
      <trkpt lat="40.477493" lon="-1.536023">
        <ele>1539.031</ele>
        <time>1999-11-30T00:00:00Z</time>
      </trkpt>
      <trkpt lat="40.47735" lon="-1.535979">
        <ele>1539.061</ele>
        <time>1999-11-30T00:00:00Z</time>
      </trkpt>
      <trkpt lat="40.477132" lon="-1.536002">
        <ele>1538.007</ele>
        <time>1999-11-30T00:00:00Z</time>
      </trkpt>
      <trkpt lat="40.476932" lon="-1.535849">
        <ele>1538.008</ele>
        <time>1999-11-30T00:00:00Z</time>
      </trkpt>
      <trkpt lat="40.47662" lon="-1.53571">
        <ele>1538.024</ele>
        <time>1999-11-30T00:00:00Z</time>
      </trkpt>
      <trkpt lat="40.476314" lon="-1.53546">
        <ele>1539.098</ele>
        <time>1999-11-30T00:00:00Z</time>
      </trkpt>
      <trkpt lat="40.47618" lon="-1.535354">
        <ele>1540.019</ele>
        <time>1999-11-30T00:00:00Z</time>
      </trkpt>
      <trkpt lat="40.475976" lon="-1.535286">
        <ele>1541.093</ele>
        <time>1999-11-30T00:00:00Z</time>
      </trkpt>
      <trkpt lat="40.475898" lon="-1.53524">
        <ele>1542.078</ele>
        <time>1999-11-30T00:00:00Z</time>
      </trkpt>
      <trkpt lat="40.475766" lon="-1.535109">
        <ele>1543.017</ele>
        <time>1999-11-30T00:00:00Z</time>
      </trkpt>
      <trkpt lat="40.475643" lon="-1.534963">
        <ele>1545.068</ele>
        <time>1999-11-30T00:00:00Z</time>
      </trkpt>
      <trkpt lat="40.475517" lon="-1.53485">
        <ele>1546.086</ele>
        <time>1999-11-30T00:00:00Z</time>
      </trkpt>
      <trkpt lat="40.475391" lon="-1.534812">
        <ele>1547.072</ele>
        <time>1999-11-30T00:00:00Z</time>
      </trkpt>
      <trkpt lat="40.4752" lon="-1.534792">
        <ele>1548.013</ele>
        <time>1999-11-30T00:00:00Z</time>
      </trkpt>
      <trkpt lat="40.475039" lon="-1.534766">
        <ele>1548.014</ele>
        <time>1999-11-30T00:00:00Z</time>
      </trkpt>
      <trkpt lat="40.474784" lon="-1.53479">
        <ele>1547.008</ele>
        <time>1999-11-30T00:00:00Z</time>
      </trkpt>
      <trkpt lat="40.474482" lon="-1.534841">
        <ele>1547.018</ele>
        <time>1999-11-30T00:00:00Z</time>
      </trkpt>
      <trkpt lat="40.474181" lon="-1.534803">
        <ele>1546.012</ele>
        <time>1999-11-30T00:00:00Z</time>
      </trkpt>
      <trkpt lat="40.473854" lon="-1.534781">
        <ele>1544.033</ele>
        <time>1999-11-30T00:00:00Z</time>
      </trkpt>
      <trkpt lat="40.473575" lon="-1.534813">
        <ele>1542.087</ele>
        <time>1999-11-30T00:00:00Z</time>
      </trkpt>
      <trkpt lat="40.473423" lon="-1.53486">
        <ele>1541.012</ele>
        <time>1999-11-30T00:00:00Z</time>
      </trkpt>
      <trkpt lat="40.473191" lon="-1.534955">
        <ele>1540.021</ele>
        <time>1999-11-30T00:00:00Z</time>
      </trkpt>
      <trkpt lat="40.473036" lon="-1.534959">
        <ele>1540.032</ele>
        <time>1999-11-30T00:00:00Z</time>
      </trkpt>
      <trkpt lat="40.472871" lon="-1.534905">
        <ele>1539.010</ele>
        <time>1999-11-30T00:00:00Z</time>
      </trkpt>
      <trkpt lat="40.472682" lon="-1.534818">
        <ele>1539.035</ele>
        <time>1999-11-30T00:00:00Z</time>
      </trkpt>
      <trkpt lat="40.472581" lon="-1.534735">
        <ele>1539.086</ele>
        <time>1999-11-30T00:00:00Z</time>
      </trkpt>
      <trkpt lat="40.47255" lon="-1.534658">
        <ele>1540.014</ele>
        <time>1999-11-30T00:00:00Z</time>
      </trkpt>
      <trkpt lat="40.472511" lon="-1.534434">
        <ele>1541.008</ele>
        <time>1999-11-30T00:00:00Z</time>
      </trkpt>
      <trkpt lat="40.472493" lon="-1.534182">
        <ele>1541.084</ele>
        <time>1999-11-30T00:00:00Z</time>
      </trkpt>
      <trkpt lat="40.472473" lon="-1.533989">
        <ele>1541.018</ele>
        <time>1999-11-30T00:00:00Z</time>
      </trkpt>
      <trkpt lat="40.472433" lon="-1.533895">
        <ele>1541.029</ele>
        <time>1999-11-30T00:00:00Z</time>
      </trkpt>
      <trkpt lat="40.47235" lon="-1.533799">
        <ele>1541.063</ele>
        <time>1999-11-30T00:00:00Z</time>
      </trkpt>
      <trkpt lat="40.472182" lon="-1.533691">
        <ele>1540.058</ele>
        <time>1999-11-30T00:00:00Z</time>
      </trkpt>
      <trkpt lat="40.472057" lon="-1.53359">
        <ele>1540.037</ele>
        <time>1999-11-30T00:00:00Z</time>
      </trkpt>
      <trkpt lat="40.471968" lon="-1.533489">
        <ele>1540.088</ele>
        <time>1999-11-30T00:00:00Z</time>
      </trkpt>
      <trkpt lat="40.471902" lon="-1.533332">
        <ele>1538.036</ele>
        <time>1999-11-30T00:00:00Z</time>
      </trkpt>
      <trkpt lat="40.471852" lon="-1.533147">
        <ele>1536.058</ele>
        <time>1999-11-30T00:00:00Z</time>
      </trkpt>
      <trkpt lat="40.471852" lon="-1.532966">
        <ele>1534.052</ele>
        <time>1999-11-30T00:00:00Z</time>
      </trkpt>
      <trkpt lat="40.471906" lon="-1.532688">
        <ele>1531.017</ele>
        <time>1999-11-30T00:00:00Z</time>
      </trkpt>
      <trkpt lat="40.47206" lon="-1.532383">
        <ele>1527.008</ele>
        <time>1999-11-30T00:00:00Z</time>
      </trkpt>
      <trkpt lat="40.472279" lon="-1.532042">
        <ele>1521.076</ele>
        <time>1999-11-30T00:00:00Z</time>
      </trkpt>
      <trkpt lat="40.472433" lon="-1.531826">
        <ele>1520.010</ele>
        <time>1999-11-30T00:00:00Z</time>
      </trkpt>
      <trkpt lat="40.472567" lon="-1.531527">
        <ele>1519.081</ele>
        <time>1999-11-30T00:00:00Z</time>
      </trkpt>
      <trkpt lat="40.472805" lon="-1.531111">
        <ele>1514.085</ele>
        <time>1999-11-30T00:00:00Z</time>
      </trkpt>
      <trkpt lat="40.473103" lon="-1.530693">
        <ele>1511.050</ele>
        <time>1999-11-30T00:00:00Z</time>
      </trkpt>
      <trkpt lat="40.473335" lon="-1.530443">
        <ele>1510.059</ele>
        <time>1999-11-30T00:00:00Z</time>
      </trkpt>
      <trkpt lat="40.473706" lon="-1.529923">
        <ele>1511.010</ele>
        <time>1999-11-30T00:00:00Z</time>
      </trkpt>
      <trkpt lat="40.474016" lon="-1.529509">
        <ele>1511.088</ele>
        <time>1999-11-30T00:00:00Z</time>
      </trkpt>
      <trkpt lat="40.474181" lon="-1.529146">
        <ele>1512.044</ele>
        <time>1999-11-30T00:00:00Z</time>
      </trkpt>
      <trkpt lat="40.474394" lon="-1.528644">
        <ele>1512.005</ele>
        <time>1999-11-30T00:00:00Z</time>
      </trkpt>
      <trkpt lat="40.474502" lon="-1.528204">
        <ele>1513.015</ele>
        <time>1999-11-30T00:00:00Z</time>
      </trkpt>
      <trkpt lat="40.474663" lon="-1.527688">
        <ele>1511.008</ele>
        <time>1999-11-30T00:00:00Z</time>
      </trkpt>
      <trkpt lat="40.474747" lon="-1.527391">
        <ele>1510.085</ele>
        <time>1999-11-30T00:00:00Z</time>
      </trkpt>
      <trkpt lat="40.474827" lon="-1.527174">
        <ele>1507.029</ele>
        <time>1999-11-30T00:00:00Z</time>
      </trkpt>
      <trkpt lat="40.47495" lon="-1.526984">
        <ele>1506.020</ele>
        <time>1999-11-30T00:00:00Z</time>
      </trkpt>
      <trkpt lat="40.475012" lon="-1.526891">
        <ele>1506.064</ele>
        <time>1999-11-30T00:00:00Z</time>
      </trkpt>
      <trkpt lat="40.475021" lon="-1.526825">
        <ele>1506.039</ele>
        <time>1999-11-30T00:00:00Z</time>
      </trkpt>
      <trkpt lat="40.474997" lon="-1.526687">
        <ele>1505.058</ele>
        <time>1999-11-30T00:00:00Z</time>
      </trkpt>
      <trkpt lat="40.47496" lon="-1.526541">
        <ele>1504.099</ele>
        <time>1999-11-30T00:00:00Z</time>
      </trkpt>
      <trkpt lat="40.474948" lon="-1.526323">
        <ele>1503.087</ele>
        <time>1999-11-30T00:00:00Z</time>
      </trkpt>
      <trkpt lat="40.474991" lon="-1.526101">
        <ele>1501.064</ele>
        <time>1999-11-30T00:00:00Z</time>
      </trkpt>
      <trkpt lat="40.475072" lon="-1.52588">
        <ele>1499.006</ele>
        <time>1999-11-30T00:00:00Z</time>
      </trkpt>
      <trkpt lat="40.475235" lon="-1.525607">
        <ele>1497.016</ele>
        <time>1999-11-30T00:00:00Z</time>
      </trkpt>
      <trkpt lat="40.475528" lon="-1.525284">
        <ele>1495.008</ele>
        <time>1999-11-30T00:00:00Z</time>
      </trkpt>
      <trkpt lat="40.475882" lon="-1.524854">
        <ele>1490.037</ele>
        <time>1999-11-30T00:00:00Z</time>
      </trkpt>
      <trkpt lat="40.476236" lon="-1.524475">
        <ele>1487.071</ele>
        <time>1999-11-30T00:00:00Z</time>
      </trkpt>
      <trkpt lat="40.476432" lon="-1.524224">
        <ele>1483.022</ele>
        <time>1999-11-30T00:00:00Z</time>
      </trkpt>
      <trkpt lat="40.476536" lon="-1.524115">
        <ele>1482.076</ele>
        <time>1999-11-30T00:00:00Z</time>
      </trkpt>
      <trkpt lat="40.476741" lon="-1.523975">
        <ele>1479.041</ele>
        <time>1999-11-30T00:00:00Z</time>
      </trkpt>
      <trkpt lat="40.476847" lon="-1.523861">
        <ele>1479.070</ele>
        <time>1999-11-30T00:00:00Z</time>
      </trkpt>
      <trkpt lat="40.477045" lon="-1.523537">
        <ele>1475.071</ele>
        <time>1999-11-30T00:00:00Z</time>
      </trkpt>
      <trkpt lat="40.477192" lon="-1.523327">
        <ele>1471.019</ele>
        <time>1999-11-30T00:00:00Z</time>
      </trkpt>
      <trkpt lat="40.477252" lon="-1.523282">
        <ele>1471.044</ele>
        <time>1999-11-30T00:00:00Z</time>
      </trkpt>
      <trkpt lat="40.477387" lon="-1.52324">
        <ele>1471.005</ele>
        <time>1999-11-30T00:00:00Z</time>
      </trkpt>
      <trkpt lat="40.477563" lon="-1.523181">
        <ele>1471.015</ele>
        <time>1999-11-30T00:00:00Z</time>
      </trkpt>
      <trkpt lat="40.477689" lon="-1.523115">
        <ele>1470.008</ele>
        <time>1999-11-30T00:00:00Z</time>
      </trkpt>
      <trkpt lat="40.477769" lon="-1.523024">
        <ele>1468.015</ele>
        <time>1999-11-30T00:00:00Z</time>
      </trkpt>
      <trkpt lat="40.477768" lon="-1.522915">
        <ele>1468.069</ele>
        <time>1999-11-30T00:00:00Z</time>
      </trkpt>
      <trkpt lat="40.477666" lon="-1.522604">
        <ele>1468.030</ele>
        <time>1999-11-30T00:00:00Z</time>
      </trkpt>
      <trkpt lat="40.47759" lon="-1.52231">
        <ele>1468.034</ele>
        <time>1999-11-30T00:00:00Z</time>
      </trkpt>
      <trkpt lat="40.47755" lon="-1.521839">
        <ele>1468.079</ele>
        <time>1999-11-30T00:00:00Z</time>
      </trkpt>
      <trkpt lat="40.477549" lon="-1.521442">
        <ele>1468.038</ele>
        <time>1999-11-30T00:00:00Z</time>
      </trkpt>
      <trkpt lat="40.477516" lon="-1.521185">
        <ele>1469.039</ele>
        <time>1999-11-30T00:00:00Z</time>
      </trkpt>
      <trkpt lat="40.477443" lon="-1.520835">
        <ele>1470.047</ele>
        <time>1999-11-30T00:00:00Z</time>
      </trkpt>
      <trkpt lat="40.477306" lon="-1.52049">
        <ele>1473.066</ele>
        <time>1999-11-30T00:00:00Z</time>
      </trkpt>
      <trkpt lat="40.477179" lon="-1.520308">
        <ele>1475.029</ele>
        <time>1999-11-30T00:00:00Z</time>
      </trkpt>
      <trkpt lat="40.477053" lon="-1.520082">
        <ele>1477.021</ele>
        <time>1999-11-30T00:00:00Z</time>
      </trkpt>
      <trkpt lat="40.476938" lon="-1.519799">
        <ele>1480.008</ele>
        <time>1999-11-30T00:00:00Z</time>
      </trkpt>
      <trkpt lat="40.476685" lon="-1.519451">
        <ele>1485.017</ele>
        <time>1999-11-30T00:00:00Z</time>
      </trkpt>
      <trkpt lat="40.476448" lon="-1.519115">
        <ele>1489.051</ele>
        <time>1999-11-30T00:00:00Z</time>
      </trkpt>
      <trkpt lat="40.476201" lon="-1.518786">
        <ele>1491.032</ele>
        <time>1999-11-30T00:00:00Z</time>
      </trkpt>
      <trkpt lat="40.476028" lon="-1.51862">
        <ele>1492.066</ele>
        <time>1999-11-30T00:00:00Z</time>
      </trkpt>
      <trkpt lat="40.475783" lon="-1.518487">
        <ele>1494.011</ele>
        <time>1999-11-30T00:00:00Z</time>
      </trkpt>
      <trkpt lat="40.475646" lon="-1.51823">
        <ele>1496.080</ele>
        <time>1999-11-30T00:00:00Z</time>
      </trkpt>
      <trkpt lat="40.475492" lon="-1.517915">
        <ele>1498.011</ele>
        <time>1999-11-30T00:00:00Z</time>
      </trkpt>
      <trkpt lat="40.475333" lon="-1.517498">
        <ele>1501.019</ele>
        <time>1999-11-30T00:00:00Z</time>
      </trkpt>
      <trkpt lat="40.475228" lon="-1.517184">
        <ele>1502.037</ele>
        <time>1999-11-30T00:00:00Z</time>
      </trkpt>
      <trkpt lat="40.475166" lon="-1.517035">
        <ele>1503.049</ele>
        <time>1999-11-30T00:00:00Z</time>
      </trkpt>
      <trkpt lat="40.474929" lon="-1.516795">
        <ele>1503.013</ele>
        <time>1999-11-30T00:00:00Z</time>
      </trkpt>
      <trkpt lat="40.47473" lon="-1.516635">
        <ele>1502.008</ele>
        <time>1999-11-30T00:00:00Z</time>
      </trkpt>
      <trkpt lat="40.474514" lon="-1.516483">
        <ele>1502.024</ele>
        <time>1999-11-30T00:00:00Z</time>
      </trkpt>
      <trkpt lat="40.474255" lon="-1.516416">
        <ele>1502.068</ele>
        <time>1999-11-30T00:00:00Z</time>
      </trkpt>
      <trkpt lat="40.474045" lon="-1.51637">
        <ele>1503.049</ele>
        <time>1999-11-30T00:00:00Z</time>
      </trkpt>
      <trkpt lat="40.473888" lon="-1.516284">
        <ele>1503.043</ele>
        <time>1999-11-30T00:00:00Z</time>
      </trkpt>
      <trkpt lat="40.473741" lon="-1.51626">
        <ele>1503.078</ele>
        <time>1999-11-30T00:00:00Z</time>
      </trkpt>
      <trkpt lat="40.473597" lon="-1.516219">
        <ele>1504.097</ele>
        <time>1999-11-30T00:00:00Z</time>
      </trkpt>
      <trkpt lat="40.473439" lon="-1.516138">
        <ele>1504.058</ele>
        <time>1999-11-30T00:00:00Z</time>
      </trkpt>
      <trkpt lat="40.473184" lon="-1.515931">
        <ele>1503.016</ele>
        <time>1999-11-30T00:00:00Z</time>
      </trkpt>
      <trkpt lat="40.473053" lon="-1.515876">
        <ele>1504.068</ele>
        <time>1999-11-30T00:00:00Z</time>
      </trkpt>
      <trkpt lat="40.47281" lon="-1.515867">
        <ele>1506.042</ele>
        <time>1999-11-30T00:00:00Z</time>
      </trkpt>
      <trkpt lat="40.471999" lon="-1.515681">
        <ele>1514.026</ele>
        <time>1999-11-30T00:00:00Z</time>
      </trkpt>
      <trkpt lat="40.47159" lon="-1.515553">
        <ele>1519.008</ele>
        <time>1999-11-30T00:00:00Z</time>
      </trkpt>
      <trkpt lat="40.471436" lon="-1.515519">
        <ele>1520.097</ele>
        <time>1999-11-30T00:00:00Z</time>
      </trkpt>
      <trkpt lat="40.471282" lon="-1.515549">
        <ele>1521.011</ele>
        <time>1999-11-30T00:00:00Z</time>
      </trkpt>
      <trkpt lat="40.471129" lon="-1.515573">
        <ele>1521.032</ele>
        <time>1999-11-30T00:00:00Z</time>
      </trkpt>
      <trkpt lat="40.470985" lon="-1.515545">
        <ele>1521.036</ele>
        <time>1999-11-30T00:00:00Z</time>
      </trkpt>
      <trkpt lat="40.470851" lon="-1.515535">
        <ele>1521.031</ele>
        <time>1999-11-30T00:00:00Z</time>
      </trkpt>
      <trkpt lat="40.470723" lon="-1.515534">
        <ele>1520.060</ele>
        <time>1999-11-30T00:00:00Z</time>
      </trkpt>
      <trkpt lat="40.470553" lon="-1.515497">
        <ele>1520.071</ele>
        <time>1999-11-30T00:00:00Z</time>
      </trkpt>
      <trkpt lat="40.470388" lon="-1.515432">
        <ele>1518.059</ele>
        <time>1999-11-30T00:00:00Z</time>
      </trkpt>
      <trkpt lat="40.470192" lon="-1.515409">
        <ele>1514.052</ele>
        <time>1999-11-30T00:00:00Z</time>
      </trkpt>
      <trkpt lat="40.469941" lon="-1.515332">
        <ele>1510.053</ele>
        <time>1999-11-30T00:00:00Z</time>
      </trkpt>
      <trkpt lat="40.469586" lon="-1.515159">
        <ele>1507.008</ele>
        <time>1999-11-30T00:00:00Z</time>
      </trkpt>
      <trkpt lat="40.469208" lon="-1.515011">
        <ele>1503.008</ele>
        <time>1999-11-30T00:00:00Z</time>
      </trkpt>
      <trkpt lat="40.468855" lon="-1.51478">
        <ele>1498.016</ele>
        <time>1999-11-30T00:00:00Z</time>
      </trkpt>
      <trkpt lat="40.468609" lon="-1.514641">
        <ele>1496.040</ele>
        <time>1999-11-30T00:00:00Z</time>
      </trkpt>
      <trkpt lat="40.468442" lon="-1.514565">
        <ele>1495.061</ele>
        <time>1999-11-30T00:00:00Z</time>
      </trkpt>
      <trkpt lat="40.468271" lon="-1.514569">
        <ele>1492.055</ele>
        <time>1999-11-30T00:00:00Z</time>
      </trkpt>
      <trkpt lat="40.468063" lon="-1.514596">
        <ele>1490.090</ele>
        <time>1999-11-30T00:00:00Z</time>
      </trkpt>
      <trkpt lat="40.467868" lon="-1.514583">
        <ele>1489.079</ele>
        <time>1999-11-30T00:00:00Z</time>
      </trkpt>
      <trkpt lat="40.467475" lon="-1.514403">
        <ele>1487.030</ele>
        <time>1999-11-30T00:00:00Z</time>
      </trkpt>
      <trkpt lat="40.467057" lon="-1.514296">
        <ele>1482.078</ele>
        <time>1999-11-30T00:00:00Z</time>
      </trkpt>
      <trkpt lat="40.46657" lon="-1.51415">
        <ele>1476.091</ele>
        <time>1999-11-30T00:00:00Z</time>
      </trkpt>
      <trkpt lat="40.466336" lon="-1.514047">
        <ele>1474.081</ele>
        <time>1999-11-30T00:00:00Z</time>
      </trkpt>
      <trkpt lat="40.466061" lon="-1.513955">
        <ele>1472.019</ele>
        <time>1999-11-30T00:00:00Z</time>
      </trkpt>
      <trkpt lat="40.465791" lon="-1.513917">
        <ele>1470.008</ele>
        <time>1999-11-30T00:00:00Z</time>
      </trkpt>
      <trkpt lat="40.465595" lon="-1.513884">
        <ele>1467.090</ele>
        <time>1999-11-30T00:00:00Z</time>
      </trkpt>
      <trkpt lat="40.465243" lon="-1.513834">
        <ele>1462.094</ele>
        <time>1999-11-30T00:00:00Z</time>
      </trkpt>
      <trkpt lat="40.465023" lon="-1.513795">
        <ele>1460.095</ele>
        <time>1999-11-30T00:00:00Z</time>
      </trkpt>
      <trkpt lat="40.464787" lon="-1.513751">
        <ele>1459.059</ele>
        <time>1999-11-30T00:00:00Z</time>
      </trkpt>
      <trkpt lat="40.464456" lon="-1.51374">
        <ele>1454.014</ele>
        <time>1999-11-30T00:00:00Z</time>
      </trkpt>
      <trkpt lat="40.463974" lon="-1.513769">
        <ele>1450.063</ele>
        <time>1999-11-30T00:00:00Z</time>
      </trkpt>
      <trkpt lat="40.463441" lon="-1.513758">
        <ele>1446.064</ele>
        <time>1999-11-30T00:00:00Z</time>
      </trkpt>
      <trkpt lat="40.463016" lon="-1.513724">
        <ele>1442.012</ele>
        <time>1999-11-30T00:00:00Z</time>
      </trkpt>
      <trkpt lat="40.462648" lon="-1.513713">
        <ele>1439.035</ele>
        <time>1999-11-30T00:00:00Z</time>
      </trkpt>
      <trkpt lat="40.462488" lon="-1.513699">
        <ele>1438.086</ele>
        <time>1999-11-30T00:00:00Z</time>
      </trkpt>
      <trkpt lat="40.462209" lon="-1.513714">
        <ele>1434.014</ele>
        <time>1999-11-30T00:00:00Z</time>
      </trkpt>
      <trkpt lat="40.462009" lon="-1.513727">
        <ele>1432.008</ele>
        <time>1999-11-30T00:00:00Z</time>
      </trkpt>
      <trkpt lat="40.461769" lon="-1.513644">
        <ele>1430.064</ele>
        <time>1999-11-30T00:00:00Z</time>
      </trkpt>
      <trkpt lat="40.461632" lon="-1.513598">
        <ele>1430.028</ele>
        <time>1999-11-30T00:00:00Z</time>
      </trkpt>
      <trkpt lat="40.461476" lon="-1.51357">
        <ele>1429.069</ele>
        <time>1999-11-30T00:00:00Z</time>
      </trkpt>
      <trkpt lat="40.461329" lon="-1.513578">
        <ele>1427.023</ele>
        <time>1999-11-30T00:00:00Z</time>
      </trkpt>
      <trkpt lat="40.461204" lon="-1.513577">
        <ele>1425.038</ele>
        <time>1999-11-30T00:00:00Z</time>
      </trkpt>
      <trkpt lat="40.461104" lon="-1.513547">
        <ele>1424.067</ele>
        <time>1999-11-30T00:00:00Z</time>
      </trkpt>
      <trkpt lat="40.460947" lon="-1.513497">
        <ele>1422.058</ele>
        <time>1999-11-30T00:00:00Z</time>
      </trkpt>
      <trkpt lat="40.460759" lon="-1.513408">
        <ele>1420.056</ele>
        <time>1999-11-30T00:00:00Z</time>
      </trkpt>
      <trkpt lat="40.460619" lon="-1.51334">
        <ele>1420.077</ele>
        <time>1999-11-30T00:00:00Z</time>
      </trkpt>
      <trkpt lat="40.460465" lon="-1.51332">
        <ele>1420.061</ele>
        <time>1999-11-30T00:00:00Z</time>
      </trkpt>
      <trkpt lat="40.460121" lon="-1.513301">
        <ele>1418.027</ele>
        <time>1999-11-30T00:00:00Z</time>
      </trkpt>
      <trkpt lat="40.459974" lon="-1.513265">
        <ele>1415.008</ele>
        <time>1999-11-30T00:00:00Z</time>
      </trkpt>
      <trkpt lat="40.45969" lon="-1.513129">
        <ele>1411.098</ele>
        <time>1999-11-30T00:00:00Z</time>
      </trkpt>
      <trkpt lat="40.459495" lon="-1.513035">
        <ele>1411.092</ele>
        <time>1999-11-30T00:00:00Z</time>
      </trkpt>
      <trkpt lat="40.459365" lon="-1.512984">
        <ele>1410.043</ele>
        <time>1999-11-30T00:00:00Z</time>
      </trkpt>
      <trkpt lat="40.459184" lon="-1.512979">
        <ele>1408.087</ele>
        <time>1999-11-30T00:00:00Z</time>
      </trkpt>
      <trkpt lat="40.458892" lon="-1.512973">
        <ele>1405.052</ele>
        <time>1999-11-30T00:00:00Z</time>
      </trkpt>
      <trkpt lat="40.458683" lon="-1.512937">
        <ele>1402.011</ele>
        <time>1999-11-30T00:00:00Z</time>
      </trkpt>
      <trkpt lat="40.458431" lon="-1.512921">
        <ele>1399.042</ele>
        <time>1999-11-30T00:00:00Z</time>
      </trkpt>
      <trkpt lat="40.45818" lon="-1.512962">
        <ele>1399.040</ele>
        <time>1999-11-30T00:00:00Z</time>
      </trkpt>
      <trkpt lat="40.458041" lon="-1.512986">
        <ele>1398.059</ele>
        <time>1999-11-30T00:00:00Z</time>
      </trkpt>
      <trkpt lat="40.457973" lon="-1.512966">
        <ele>1397.003</ele>
        <time>1999-11-30T00:00:00Z</time>
      </trkpt>
      <trkpt lat="40.457924" lon="-1.512892">
        <ele>1396.023</ele>
        <time>1999-11-30T00:00:00Z</time>
      </trkpt>
      <trkpt lat="40.457814" lon="-1.512769">
        <ele>1397.008</ele>
        <time>1999-11-30T00:00:00Z</time>
      </trkpt>
      <trkpt lat="40.457669" lon="-1.51271">
        <ele>1397.096</ele>
        <time>1999-11-30T00:00:00Z</time>
      </trkpt>
      <trkpt lat="40.457465" lon="-1.51267">
        <ele>1396.080</ele>
        <time>1999-11-30T00:00:00Z</time>
      </trkpt>
      <trkpt lat="40.45712" lon="-1.512616">
        <ele>1393.071</ele>
        <time>1999-11-30T00:00:00Z</time>
      </trkpt>
      <trkpt lat="40.456953" lon="-1.512602">
        <ele>1392.095</ele>
        <time>1999-11-30T00:00:00Z</time>
      </trkpt>
      <trkpt lat="40.456866" lon="-1.512647">
        <ele>1389.040</ele>
        <time>1999-11-30T00:00:00Z</time>
      </trkpt>
      <trkpt lat="40.456723" lon="-1.512651">
        <ele>1387.049</ele>
        <time>1999-11-30T00:00:00Z</time>
      </trkpt>
      <trkpt lat="40.45658" lon="-1.512627">
        <ele>1385.080</ele>
        <time>1999-11-30T00:00:00Z</time>
      </trkpt>
      <trkpt lat="40.456306" lon="-1.512486">
        <ele>1384.088</ele>
        <time>1999-11-30T00:00:00Z</time>
      </trkpt>
      <trkpt lat="40.456125" lon="-1.512446">
        <ele>1381.089</ele>
        <time>1999-11-30T00:00:00Z</time>
      </trkpt>
      <trkpt lat="40.456016" lon="-1.512458">
        <ele>1379.006</ele>
        <time>1999-11-30T00:00:00Z</time>
      </trkpt>
      <trkpt lat="40.455832" lon="-1.512461">
        <ele>1378.026</ele>
        <time>1999-11-30T00:00:00Z</time>
      </trkpt>
      <trkpt lat="40.455744" lon="-1.512503">
        <ele>1376.008</ele>
        <time>1999-11-30T00:00:00Z</time>
      </trkpt>
      <trkpt lat="40.455592" lon="-1.512582">
        <ele>1373.049</ele>
        <time>1999-11-30T00:00:00Z</time>
      </trkpt>
      <trkpt lat="40.455399" lon="-1.512663">
        <ele>1370.043</ele>
        <time>1999-11-30T00:00:00Z</time>
      </trkpt>
      <trkpt lat="40.455196" lon="-1.512769">
        <ele>1369.094</ele>
        <time>1999-11-30T00:00:00Z</time>
      </trkpt>
      <trkpt lat="40.455052" lon="-1.51292">
        <ele>1365.028</ele>
        <time>1999-11-30T00:00:00Z</time>
      </trkpt>
      <trkpt lat="40.454968" lon="-1.513024">
        <ele>1364.083</ele>
        <time>1999-11-30T00:00:00Z</time>
      </trkpt>
      <trkpt lat="40.454844" lon="-1.51316">
        <ele>1362.022</ele>
        <time>1999-11-30T00:00:00Z</time>
      </trkpt>
      <trkpt lat="40.454746" lon="-1.513211">
        <ele>1361.073</ele>
        <time>1999-11-30T00:00:00Z</time>
      </trkpt>
      <trkpt lat="40.454393" lon="-1.51334">
        <ele>1359.031</ele>
        <time>1999-11-30T00:00:00Z</time>
      </trkpt>
      <trkpt lat="40.454062" lon="-1.513472">
        <ele>1356.022</ele>
        <time>1999-11-30T00:00:00Z</time>
      </trkpt>
      <trkpt lat="40.45366" lon="-1.513694">
        <ele>1353.062</ele>
        <time>1999-11-30T00:00:00Z</time>
      </trkpt>
      <trkpt lat="40.453389" lon="-1.513815">
        <ele>1352.008</ele>
        <time>1999-11-30T00:00:00Z</time>
      </trkpt>
      <trkpt lat="40.453292" lon="-1.513898">
        <ele>1351.008</ele>
        <time>1999-11-30T00:00:00Z</time>
      </trkpt>
      <trkpt lat="40.453219" lon="-1.514051">
        <ele>1349.043</ele>
        <time>1999-11-30T00:00:00Z</time>
      </trkpt>
      <trkpt lat="40.453142" lon="-1.514191">
        <ele>1347.057</ele>
        <time>1999-11-30T00:00:00Z</time>
      </trkpt>
      <trkpt lat="40.453062" lon="-1.514278">
        <ele>1346.018</ele>
        <time>1999-11-30T00:00:00Z</time>
      </trkpt>
      <trkpt lat="40.45297" lon="-1.514338">
        <ele>1345.062</ele>
        <time>1999-11-30T00:00:00Z</time>
      </trkpt>
      <trkpt lat="40.452896" lon="-1.514362">
        <ele>1345.017</ele>
        <time>1999-11-30T00:00:00Z</time>
      </trkpt>
      <trkpt lat="40.452801" lon="-1.514364">
        <ele>1345.026</ele>
        <time>1999-11-30T00:00:00Z</time>
      </trkpt>
      <trkpt lat="40.452734" lon="-1.5144">
        <ele>1344.027</ele>
        <time>1999-11-30T00:00:00Z</time>
      </trkpt>
      <trkpt lat="40.452697" lon="-1.514477">
        <ele>1343.095</ele>
        <time>1999-11-30T00:00:00Z</time>
      </trkpt>
      <trkpt lat="40.452697" lon="-1.514535">
        <ele>1343.021</ele>
        <time>1999-11-30T00:00:00Z</time>
      </trkpt>
      <trkpt lat="40.452746" lon="-1.514583">
        <ele>1342.041</ele>
        <time>1999-11-30T00:00:00Z</time>
      </trkpt>
      <trkpt lat="40.452834" lon="-1.514568">
        <ele>1342.005</ele>
        <time>1999-11-30T00:00:00Z</time>
      </trkpt>
      <trkpt lat="40.45298" lon="-1.514542">
        <ele>1342.008</ele>
        <time>1999-11-30T00:00:00Z</time>
      </trkpt>
      <trkpt lat="40.453156" lon="-1.514498">
        <ele>1341.043</ele>
        <time>1999-11-30T00:00:00Z</time>
      </trkpt>
      <trkpt lat="40.453339" lon="-1.51441">
        <ele>1341.047</ele>
        <time>1999-11-30T00:00:00Z</time>
      </trkpt>
      <trkpt lat="40.453421" lon="-1.514385">
        <ele>1341.058</ele>
        <time>1999-11-30T00:00:00Z</time>
      </trkpt>
      <trkpt lat="40.453482" lon="-1.514389">
        <ele>1342.052</ele>
        <time>1999-11-30T00:00:00Z</time>
      </trkpt>
      <trkpt lat="40.453503" lon="-1.514424">
        <ele>1342.017</ele>
        <time>1999-11-30T00:00:00Z</time>
      </trkpt>
      <trkpt lat="40.453504" lon="-1.514517">
        <ele>1341.056</ele>
        <time>1999-11-30T00:00:00Z</time>
      </trkpt>
      <trkpt lat="40.45343" lon="-1.514648">
        <ele>1340.067</ele>
        <time>1999-11-30T00:00:00Z</time>
      </trkpt>
      <trkpt lat="40.453263" lon="-1.514847">
        <ele>1340.015</ele>
        <time>1999-11-30T00:00:00Z</time>
      </trkpt>
      <trkpt lat="40.45316" lon="-1.515006">
        <ele>1340.058</ele>
        <time>1999-11-30T00:00:00Z</time>
      </trkpt>
      <trkpt lat="40.453043" lon="-1.515223">
        <ele>1339.052</ele>
        <time>1999-11-30T00:00:00Z</time>
      </trkpt>
      <trkpt lat="40.452885" lon="-1.515391">
        <ele>1339.017</ele>
        <time>1999-11-30T00:00:00Z</time>
      </trkpt>
      <trkpt lat="40.452753" lon="-1.515447">
        <ele>1339.008</ele>
        <time>1999-11-30T00:00:00Z</time>
      </trkpt>
      <trkpt lat="40.452627" lon="-1.515467">
        <ele>1340.046</ele>
        <time>1999-11-30T00:00:00Z</time>
      </trkpt>
      <trkpt lat="40.452498" lon="-1.515408">
        <ele>1340.040</ele>
        <time>1999-11-30T00:00:00Z</time>
      </trkpt>
      <trkpt lat="40.452283" lon="-1.515332">
        <ele>1339.041</ele>
        <time>1999-11-30T00:00:00Z</time>
      </trkpt>
      <trkpt lat="40.452002" lon="-1.515272">
        <ele>1338.035</ele>
        <time>1999-11-30T00:00:00Z</time>
      </trkpt>
      <trkpt lat="40.451768" lon="-1.515269">
        <ele>1337.040</ele>
        <time>1999-11-30T00:00:00Z</time>
      </trkpt>
      <trkpt lat="40.45155" lon="-1.515233">
        <ele>1336.049</ele>
        <time>1999-11-30T00:00:00Z</time>
      </trkpt>
      <trkpt lat="40.451371" lon="-1.515143">
        <ele>1334.010</ele>
        <time>1999-11-30T00:00:00Z</time>
      </trkpt>
      <trkpt lat="40.450948" lon="-1.514992">
        <ele>1332.068</ele>
        <time>1999-11-30T00:00:00Z</time>
      </trkpt>
      <trkpt lat="40.450711" lon="-1.514832">
        <ele>1331.063</ele>
        <time>1999-11-30T00:00:00Z</time>
      </trkpt>
      <trkpt lat="40.450419" lon="-1.51471">
        <ele>1330.044</ele>
        <time>1999-11-30T00:00:00Z</time>
      </trkpt>
      <trkpt lat="40.450157" lon="-1.514603">
        <ele>1328.018</ele>
        <time>1999-11-30T00:00:00Z</time>
      </trkpt>
      <trkpt lat="40.449969" lon="-1.514545">
        <ele>1326.008</ele>
        <time>1999-11-30T00:00:00Z</time>
      </trkpt>
      <trkpt lat="40.449775" lon="-1.514585">
        <ele>1324.097</ele>
        <time>1999-11-30T00:00:00Z</time>
      </trkpt>
      <trkpt lat="40.449577" lon="-1.51454">
        <ele>1322.021</ele>
        <time>1999-11-30T00:00:00Z</time>
      </trkpt>
      <trkpt lat="40.44931" lon="-1.514484">
        <ele>1321.092</ele>
        <time>1999-11-30T00:00:00Z</time>
      </trkpt>
      <trkpt lat="40.449007" lon="-1.514469">
        <ele>1320.086</ele>
        <time>1999-11-30T00:00:00Z</time>
      </trkpt>
      <trkpt lat="40.448626" lon="-1.514437">
        <ele>1320.021</ele>
        <time>1999-11-30T00:00:00Z</time>
      </trkpt>
      <trkpt lat="40.448444" lon="-1.51437">
        <ele>1319.090</ele>
        <time>1999-11-30T00:00:00Z</time>
      </trkpt>
      <trkpt lat="40.448222" lon="-1.514286">
        <ele>1318.051</ele>
        <time>1999-11-30T00:00:00Z</time>
      </trkpt>
      <trkpt lat="40.448007" lon="-1.514228">
        <ele>1319.099</ele>
        <time>1999-11-30T00:00:00Z</time>
      </trkpt>
      <trkpt lat="40.44767" lon="-1.51424">
        <ele>1319.069</ele>
        <time>1999-11-30T00:00:00Z</time>
      </trkpt>
      <trkpt lat="40.447395" lon="-1.514238">
        <ele>1318.004</ele>
        <time>1999-11-30T00:00:00Z</time>
      </trkpt>
      <trkpt lat="40.447105" lon="-1.514257">
        <ele>1317.024</ele>
        <time>1999-11-30T00:00:00Z</time>
      </trkpt>
      <trkpt lat="40.446916" lon="-1.514319">
        <ele>1315.008</ele>
        <time>1999-11-30T00:00:00Z</time>
      </trkpt>
      <trkpt lat="40.446723" lon="-1.514385">
        <ele>1314.037</ele>
        <time>1999-11-30T00:00:00Z</time>
      </trkpt>
      <trkpt lat="40.446546" lon="-1.514394">
        <ele>1313.091</ele>
        <time>1999-11-30T00:00:00Z</time>
      </trkpt>
      <trkpt lat="40.446386" lon="-1.514389">
        <ele>1312.052</ele>
        <time>1999-11-30T00:00:00Z</time>
      </trkpt>
      <trkpt lat="40.446099" lon="-1.514377">
        <ele>1311.016</ele>
        <time>1999-11-30T00:00:00Z</time>
      </trkpt>
      <trkpt lat="40.445793" lon="-1.514322">
        <ele>1310.051</ele>
        <time>1999-11-30T00:00:00Z</time>
      </trkpt>
      <trkpt lat="40.445499" lon="-1.514231">
        <ele>1310.030</ele>
        <time>1999-11-30T00:00:00Z</time>
      </trkpt>
      <trkpt lat="40.445281" lon="-1.514191">
        <ele>1310.081</ele>
        <time>1999-11-30T00:00:00Z</time>
      </trkpt>
      <trkpt lat="40.444988" lon="-1.514175">
        <ele>1310.039</ele>
        <time>1999-11-30T00:00:00Z</time>
      </trkpt>
      <trkpt lat="40.444675" lon="-1.514137">
        <ele>1309.037</ele>
        <time>1999-11-30T00:00:00Z</time>
      </trkpt>
      <trkpt lat="40.444177" lon="-1.514091">
        <ele>1305.049</ele>
        <time>1999-11-30T00:00:00Z</time>
      </trkpt>
      <trkpt lat="40.443897" lon="-1.514021">
        <ele>1304.013</ele>
        <time>1999-11-30T00:00:00Z</time>
      </trkpt>
      <trkpt lat="40.443728" lon="-1.513993">
        <ele>1305.008</ele>
        <time>1999-11-30T00:00:00Z</time>
      </trkpt>
      <trkpt lat="40.443583" lon="-1.513974">
        <ele>1306.034</ele>
        <time>1999-11-30T00:00:00Z</time>
      </trkpt>
      <trkpt lat="40.443442" lon="-1.513879">
        <ele>1306.098</ele>
        <time>1999-11-30T00:00:00Z</time>
      </trkpt>
      <trkpt lat="40.443287" lon="-1.513749">
        <ele>1305.049</ele>
        <time>1999-11-30T00:00:00Z</time>
      </trkpt>
      <trkpt lat="40.443078" lon="-1.513598">
        <ele>1303.053</ele>
        <time>1999-11-30T00:00:00Z</time>
      </trkpt>
      <trkpt lat="40.442746" lon="-1.513493">
        <ele>1302.098</ele>
        <time>1999-11-30T00:00:00Z</time>
      </trkpt>
      <trkpt lat="40.442455" lon="-1.513393">
        <ele>1302.067</ele>
        <time>1999-11-30T00:00:00Z</time>
      </trkpt>
      <trkpt lat="40.442062" lon="-1.51321">
        <ele>1301.098</ele>
        <time>1999-11-30T00:00:00Z</time>
      </trkpt>
      <trkpt lat="40.441728" lon="-1.512964">
        <ele>1299.016</ele>
        <time>1999-11-30T00:00:00Z</time>
      </trkpt>
      <trkpt lat="40.441393" lon="-1.512832">
        <ele>1298.056</ele>
        <time>1999-11-30T00:00:00Z</time>
      </trkpt>
      <trkpt lat="40.441006" lon="-1.512681">
        <ele>1299.059</ele>
        <time>1999-11-30T00:00:00Z</time>
      </trkpt>
      <trkpt lat="40.440667" lon="-1.512506">
        <ele>1300.014</ele>
        <time>1999-11-30T00:00:00Z</time>
      </trkpt>
      <trkpt lat="40.44041" lon="-1.512347">
        <ele>1299.008</ele>
        <time>1999-11-30T00:00:00Z</time>
      </trkpt>
      <trkpt lat="40.440197" lon="-1.51216">
        <ele>1298.016</ele>
        <time>1999-11-30T00:00:00Z</time>
      </trkpt>
      <trkpt lat="40.439956" lon="-1.51197">
        <ele>1296.050</ele>
        <time>1999-11-30T00:00:00Z</time>
      </trkpt>
      <trkpt lat="40.439741" lon="-1.511854">
        <ele>1295.091</ele>
        <time>1999-11-30T00:00:00Z</time>
      </trkpt>
      <trkpt lat="40.439548" lon="-1.511751">
        <ele>1294.065</ele>
        <time>1999-11-30T00:00:00Z</time>
      </trkpt>
      <trkpt lat="40.439465" lon="-1.511614">
        <ele>1292.080</ele>
        <time>1999-11-30T00:00:00Z</time>
      </trkpt>
      <trkpt lat="40.439275" lon="-1.511347">
        <ele>1288.049</ele>
        <time>1999-11-30T00:00:00Z</time>
      </trkpt>
      <trkpt lat="40.43912" lon="-1.511209">
        <ele>1286.020</ele>
        <time>1999-11-30T00:00:00Z</time>
      </trkpt>
      <trkpt lat="40.438917" lon="-1.511088">
        <ele>1284.088</ele>
        <time>1999-11-30T00:00:00Z</time>
      </trkpt>
      <trkpt lat="40.438634" lon="-1.510992">
        <ele>1283.031</ele>
        <time>1999-11-30T00:00:00Z</time>
      </trkpt>
      <trkpt lat="40.438265" lon="-1.510929">
        <ele>1281.061</ele>
        <time>1999-11-30T00:00:00Z</time>
      </trkpt>
      <trkpt lat="40.438029" lon="-1.510929">
        <ele>1281.007</ele>
        <time>1999-11-30T00:00:00Z</time>
      </trkpt>
      <trkpt lat="40.437873" lon="-1.510955">
        <ele>1281.008</ele>
        <time>1999-11-30T00:00:00Z</time>
      </trkpt>
      <trkpt lat="40.437659" lon="-1.511009">
        <ele>1282.094</ele>
        <time>1999-11-30T00:00:00Z</time>
      </trkpt>
      <trkpt lat="40.43745" lon="-1.511066">
        <ele>1284.038</ele>
        <time>1999-11-30T00:00:00Z</time>
      </trkpt>
      <trkpt lat="40.437294" lon="-1.511078">
        <ele>1284.049</ele>
        <time>1999-11-30T00:00:00Z</time>
      </trkpt>
      <trkpt lat="40.4371" lon="-1.511069">
        <ele>1285.043</ele>
        <time>1999-11-30T00:00:00Z</time>
      </trkpt>
      <trkpt lat="40.4368" lon="-1.511049">
        <ele>1288.048</ele>
        <time>1999-11-30T00:00:00Z</time>
      </trkpt>
      <trkpt lat="40.436602" lon="-1.511027">
        <ele>1290.047</ele>
        <time>1999-11-30T00:00:00Z</time>
      </trkpt>
      <trkpt lat="40.436275" lon="-1.51095">
        <ele>1293.028</ele>
        <time>1999-11-30T00:00:00Z</time>
      </trkpt>
      <trkpt lat="40.436111" lon="-1.510922">
        <ele>1294.016</ele>
        <time>1999-11-30T00:00:00Z</time>
      </trkpt>
      <trkpt lat="40.43589" lon="-1.510941">
        <ele>1296.097</ele>
        <time>1999-11-30T00:00:00Z</time>
      </trkpt>
      <trkpt lat="40.435672" lon="-1.510941">
        <ele>1296.023</ele>
        <time>1999-11-30T00:00:00Z</time>
      </trkpt>
      <trkpt lat="40.435449" lon="-1.510901">
        <ele>1296.025</ele>
        <time>1999-11-30T00:00:00Z</time>
      </trkpt>
      <trkpt lat="40.435157" lon="-1.510854">
        <ele>1294.008</ele>
        <time>1999-11-30T00:00:00Z</time>
      </trkpt>
      <trkpt lat="40.434966" lon="-1.510876">
        <ele>1292.090</ele>
        <time>1999-11-30T00:00:00Z</time>
      </trkpt>
      <trkpt lat="40.434756" lon="-1.510917">
        <ele>1292.034</ele>
        <time>1999-11-30T00:00:00Z</time>
      </trkpt>
      <trkpt lat="40.43466" lon="-1.510897">
        <ele>1291.035</ele>
        <time>1999-11-30T00:00:00Z</time>
      </trkpt>
      <trkpt lat="40.434411" lon="-1.510809">
        <ele>1289.069</ele>
        <time>1999-11-30T00:00:00Z</time>
      </trkpt>
      <trkpt lat="40.434154" lon="-1.510721">
        <ele>1287.014</ele>
        <time>1999-11-30T00:00:00Z</time>
      </trkpt>
      <trkpt lat="40.43399" lon="-1.510671">
        <ele>1287.063</ele>
        <time>1999-11-30T00:00:00Z</time>
      </trkpt>
      <trkpt lat="40.433851" lon="-1.510666">
        <ele>1287.044</ele>
        <time>1999-11-30T00:00:00Z</time>
      </trkpt>
      <trkpt lat="40.433556" lon="-1.510778">
        <ele>1290.012</ele>
        <time>1999-11-30T00:00:00Z</time>
      </trkpt>
      <trkpt lat="40.433278" lon="-1.510834">
        <ele>1290.068</ele>
        <time>1999-11-30T00:00:00Z</time>
      </trkpt>
      <trkpt lat="40.433019" lon="-1.510826">
        <ele>1291.042</ele>
        <time>1999-11-30T00:00:00Z</time>
      </trkpt>
      <trkpt lat="40.432631" lon="-1.510777">
        <ele>1291.026</ele>
        <time>1999-11-30T00:00:00Z</time>
      </trkpt>
      <trkpt lat="40.432293" lon="-1.510762">
        <ele>1291.008</ele>
        <time>1999-11-30T00:00:00Z</time>
      </trkpt>
      <trkpt lat="40.431627" lon="-1.51083">
        <ele>1292.037</ele>
        <time>1999-11-30T00:00:00Z</time>
      </trkpt>
      <trkpt lat="40.431386" lon="-1.510871">
        <ele>1293.081</ele>
        <time>1999-11-30T00:00:00Z</time>
      </trkpt>
      <trkpt lat="40.431223" lon="-1.51087">
        <ele>1294.062</ele>
        <time>1999-11-30T00:00:00Z</time>
      </trkpt>
      <trkpt lat="40.430886" lon="-1.51086">
        <ele>1295.056</ele>
        <time>1999-11-30T00:00:00Z</time>
      </trkpt>
      <trkpt lat="40.430648" lon="-1.510905">
        <ele>1297.021</ele>
        <time>1999-11-30T00:00:00Z</time>
      </trkpt>
      <trkpt lat="40.430458" lon="-1.510963">
        <ele>1299.050</ele>
        <time>1999-11-30T00:00:00Z</time>
      </trkpt>
      <trkpt lat="40.430302" lon="-1.510961">
        <ele>1300.011</ele>
        <time>1999-11-30T00:00:00Z</time>
      </trkpt>
      <trkpt lat="40.430169" lon="-1.510893">
        <ele>1299.069</ele>
        <time>1999-11-30T00:00:00Z</time>
      </trkpt>
      <trkpt lat="40.430002" lon="-1.510902">
        <ele>1298.095</ele>
        <time>1999-11-30T00:00:00Z</time>
      </trkpt>
      <trkpt lat="40.42984" lon="-1.511039">
        <ele>1299.049</ele>
        <time>1999-11-30T00:00:00Z</time>
      </trkpt>
      <trkpt lat="40.429709" lon="-1.511175">
        <ele>1298.023</ele>
        <time>1999-11-30T00:00:00Z</time>
      </trkpt>
      <trkpt lat="40.42953" lon="-1.511224">
        <ele>1298.008</ele>
        <time>1999-11-30T00:00:00Z</time>
      </trkpt>
      <trkpt lat="40.42935" lon="-1.511206">
        <ele>1295.070</ele>
        <time>1999-11-30T00:00:00Z</time>
      </trkpt>
      <trkpt lat="40.429034" lon="-1.511266">
        <ele>1294.024</ele>
        <time>1999-11-30T00:00:00Z</time>
      </trkpt>
      <trkpt lat="40.428657" lon="-1.511381">
        <ele>1294.075</ele>
        <time>1999-11-30T00:00:00Z</time>
      </trkpt>
      <trkpt lat="40.428423" lon="-1.511426">
        <ele>1292.019</ele>
        <time>1999-11-30T00:00:00Z</time>
      </trkpt>
      <trkpt lat="40.42808" lon="-1.511523">
        <ele>1291.074</ele>
        <time>1999-11-30T00:00:00Z</time>
      </trkpt>
      <trkpt lat="40.427758" lon="-1.511646">
        <ele>1290.083</ele>
        <time>1999-11-30T00:00:00Z</time>
      </trkpt>
      <trkpt lat="40.427586" lon="-1.51172">
        <ele>1289.064</ele>
        <time>1999-11-30T00:00:00Z</time>
      </trkpt>
      <trkpt lat="40.427458" lon="-1.511839">
        <ele>1289.082</ele>
        <time>1999-11-30T00:00:00Z</time>
      </trkpt>
      <trkpt lat="40.427347" lon="-1.51198">
        <ele>1290.049</ele>
        <time>1999-11-30T00:00:00Z</time>
      </trkpt>
      <trkpt lat="40.427254" lon="-1.512147">
        <ele>1291.002</ele>
        <time>1999-11-30T00:00:00Z</time>
      </trkpt>
      <trkpt lat="40.42718" lon="-1.512446">
        <ele>1291.022</ele>
        <time>1999-11-30T00:00:00Z</time>
      </trkpt>
      <trkpt lat="40.427161" lon="-1.512585">
        <ele>1290.008</ele>
        <time>1999-11-30T00:00:00Z</time>
      </trkpt>
      <trkpt lat="40.427198" lon="-1.512825">
        <ele>1289.055</ele>
        <time>1999-11-30T00:00:00Z</time>
      </trkpt>
      <trkpt lat="40.427212" lon="-1.513034">
        <ele>1287.079</ele>
        <time>1999-11-30T00:00:00Z</time>
      </trkpt>
      <trkpt lat="40.427195" lon="-1.513372">
        <ele>1282.080</ele>
        <time>1999-11-30T00:00:00Z</time>
      </trkpt>
      <trkpt lat="40.427202" lon="-1.513573">
        <ele>1279.014</ele>
        <time>1999-11-30T00:00:00Z</time>
      </trkpt>
      <trkpt lat="40.427234" lon="-1.513769">
        <ele>1277.099</ele>
        <time>1999-11-30T00:00:00Z</time>
      </trkpt>
      <trkpt lat="40.427282" lon="-1.514008">
        <ele>1276.018</ele>
        <time>1999-11-30T00:00:00Z</time>
      </trkpt>
      <trkpt lat="40.427305" lon="-1.514226">
        <ele>1275.059</ele>
        <time>1999-11-30T00:00:00Z</time>
      </trkpt>
      <trkpt lat="40.427308" lon="-1.514435">
        <ele>1273.067</ele>
        <time>1999-11-30T00:00:00Z</time>
      </trkpt>
      <trkpt lat="40.42729" lon="-1.514916">
        <ele>1270.094</ele>
        <time>1999-11-30T00:00:00Z</time>
      </trkpt>
      <trkpt lat="40.427292" lon="-1.515326">
        <ele>1268.057</ele>
        <time>1999-11-30T00:00:00Z</time>
      </trkpt>
      <trkpt lat="40.427283" lon="-1.515949">
        <ele>1265.022</ele>
        <time>1999-11-30T00:00:00Z</time>
      </trkpt>
      <trkpt lat="40.427294" lon="-1.51627">
        <ele>1263.008</ele>
        <time>1999-11-30T00:00:00Z</time>
      </trkpt>
      <trkpt lat="40.427327" lon="-1.516527">
        <ele>1261.030</ele>
        <time>1999-11-30T00:00:00Z</time>
      </trkpt>
      <trkpt lat="40.427383" lon="-1.516886">
        <ele>1260.054</ele>
        <time>1999-11-30T00:00:00Z</time>
      </trkpt>
      <trkpt lat="40.427376" lon="-1.517083">
        <ele>1260.015</ele>
        <time>1999-11-30T00:00:00Z</time>
      </trkpt>
      <trkpt lat="40.427349" lon="-1.517359">
        <ele>1259.099</ele>
        <time>1999-11-30T00:00:00Z</time>
      </trkpt>
      <trkpt lat="40.427328" lon="-1.517605">
        <ele>1258.084</ele>
        <time>1999-11-30T00:00:00Z</time>
      </trkpt>
      <trkpt lat="40.427321" lon="-1.517855">
        <ele>1257.063</ele>
        <time>1999-11-30T00:00:00Z</time>
      </trkpt>
      <trkpt lat="40.427242" lon="-1.518038">
        <ele>1255.024</ele>
        <time>1999-11-30T00:00:00Z</time>
      </trkpt>
      <trkpt lat="40.42717" lon="-1.518241">
        <ele>1257.092</ele>
        <time>1999-11-30T00:00:00Z</time>
      </trkpt>
      <trkpt lat="40.427072" lon="-1.518554">
        <ele>1259.077</ele>
        <time>1999-11-30T00:00:00Z</time>
      </trkpt>
      <trkpt lat="40.427063" lon="-1.518742">
        <ele>1259.061</ele>
        <time>1999-11-30T00:00:00Z</time>
      </trkpt>
      <trkpt lat="40.427132" lon="-1.51903">
        <ele>1256.027</ele>
        <time>1999-11-30T00:00:00Z</time>
      </trkpt>
      <trkpt lat="40.427209" lon="-1.519184">
        <ele>1252.008</ele>
        <time>1999-11-30T00:00:00Z</time>
      </trkpt>
      <trkpt lat="40.427245" lon="-1.519356">
        <ele>1250.048</ele>
        <time>1999-11-30T00:00:00Z</time>
      </trkpt>
      <trkpt lat="40.427261" lon="-1.51957">
        <ele>1248.072</ele>
        <time>1999-11-30T00:00:00Z</time>
      </trkpt>
      <trkpt lat="40.427249" lon="-1.519877">
        <ele>1245.073</ele>
        <time>1999-11-30T00:00:00Z</time>
      </trkpt>
      <trkpt lat="40.427203" lon="-1.520071">
        <ele>1241.027</ele>
        <time>1999-11-30T00:00:00Z</time>
      </trkpt>
      <trkpt lat="40.427112" lon="-1.520624">
        <ele>1233.082</ele>
        <time>1999-11-30T00:00:00Z</time>
      </trkpt>
      <trkpt lat="40.427046" lon="-1.520836">
        <ele>1231.021</ele>
        <time>1999-11-30T00:00:00Z</time>
      </trkpt>
      <trkpt lat="40.426976" lon="-1.520976">
        <ele>1229.062</ele>
        <time>1999-11-30T00:00:00Z</time>
      </trkpt>
      <trkpt lat="40.426887" lon="-1.521072">
        <ele>1229.070</ele>
        <time>1999-11-30T00:00:00Z</time>
      </trkpt>
      <trkpt lat="40.426715" lon="-1.521234">
        <ele>1229.087</ele>
        <time>1999-11-30T00:00:00Z</time>
      </trkpt>
      <trkpt lat="40.426582" lon="-1.521319">
        <ele>1228.042</ele>
        <time>1999-11-30T00:00:00Z</time>
      </trkpt>
      <trkpt lat="40.426413" lon="-1.521361">
        <ele>1227.026</ele>
        <time>1999-11-30T00:00:00Z</time>
      </trkpt>
      <trkpt lat="40.426274" lon="-1.521386">
        <ele>1226.008</ele>
        <time>1999-11-30T00:00:00Z</time>
      </trkpt>
      <trkpt lat="40.42602" lon="-1.521302">
        <ele>1221.069</ele>
        <time>1999-11-30T00:00:00Z</time>
      </trkpt>
      <trkpt lat="40.425761" lon="-1.521101">
        <ele>1218.013</ele>
        <time>1999-11-30T00:00:00Z</time>
      </trkpt>
      <trkpt lat="40.425341" lon="-1.520764">
        <ele>1217.034</ele>
        <time>1999-11-30T00:00:00Z</time>
      </trkpt>
      <trkpt lat="40.425015" lon="-1.520495">
        <ele>1216.098</ele>
        <time>1999-11-30T00:00:00Z</time>
      </trkpt>
      <trkpt lat="40.424868" lon="-1.520387">
        <ele>1216.023</ele>
        <time>1999-11-30T00:00:00Z</time>
      </trkpt>
      <trkpt lat="40.424681" lon="-1.520299">
        <ele>1214.022</ele>
        <time>1999-11-30T00:00:00Z</time>
      </trkpt>
      <trkpt lat="40.424395" lon="-1.520297">
        <ele>1211.093</ele>
        <time>1999-11-30T00:00:00Z</time>
      </trkpt>
      <trkpt lat="40.424241" lon="-1.520238">
        <ele>1210.091</ele>
        <time>1999-11-30T00:00:00Z</time>
      </trkpt>
      <trkpt lat="40.424039" lon="-1.520136">
        <ele>1209.024</ele>
        <time>1999-11-30T00:00:00Z</time>
      </trkpt>
      <trkpt lat="40.423836" lon="-1.520011">
        <ele>1208.004</ele>
        <time>1999-11-30T00:00:00Z</time>
      </trkpt>
      <trkpt lat="40.423656" lon="-1.519881">
        <ele>1208.014</ele>
        <time>1999-11-30T00:00:00Z</time>
      </trkpt>
      <trkpt lat="40.423561" lon="-1.519827">
        <ele>1208.008</ele>
        <time>1999-11-30T00:00:00Z</time>
      </trkpt>
      <trkpt lat="40.423429" lon="-1.519761">
        <ele>1208.083</ele>
        <time>1999-11-30T00:00:00Z</time>
      </trkpt>
      <trkpt lat="40.423324" lon="-1.519586">
        <ele>1208.047</ele>
        <time>1999-11-30T00:00:00Z</time>
      </trkpt>
      <trkpt lat="40.423088" lon="-1.51923">
        <ele>1208.018</ele>
        <time>1999-11-30T00:00:00Z</time>
      </trkpt>
      <trkpt lat="40.422824" lon="-1.51887">
        <ele>1207.082</ele>
        <time>1999-11-30T00:00:00Z</time>
      </trkpt>
      <trkpt lat="40.422654" lon="-1.518531">
        <ele>1208.077</ele>
        <time>1999-11-30T00:00:00Z</time>
      </trkpt>
      <trkpt lat="40.422513" lon="-1.518147">
        <ele>1208.036</ele>
        <time>1999-11-30T00:00:00Z</time>
      </trkpt>
      <trkpt lat="40.42236" lon="-1.517683">
        <ele>1207.017</ele>
        <time>1999-11-30T00:00:00Z</time>
      </trkpt>
      <trkpt lat="40.422161" lon="-1.517237">
        <ele>1208.095</ele>
        <time>1999-11-30T00:00:00Z</time>
      </trkpt>
      <trkpt lat="40.42197" lon="-1.516969">
        <ele>1208.062</ele>
        <time>1999-11-30T00:00:00Z</time>
      </trkpt>
      <trkpt lat="40.421626" lon="-1.516719">
        <ele>1206.083</ele>
        <time>1999-11-30T00:00:00Z</time>
      </trkpt>
      <trkpt lat="40.421181" lon="-1.516502">
        <ele>1205.011</ele>
        <time>1999-11-30T00:00:00Z</time>
      </trkpt>
      <trkpt lat="40.420849" lon="-1.516327">
        <ele>1205.008</ele>
        <time>1999-11-30T00:00:00Z</time>
      </trkpt>
      <trkpt lat="40.420619" lon="-1.516171">
        <ele>1205.037</ele>
        <time>1999-11-30T00:00:00Z</time>
      </trkpt>
      <trkpt lat="40.420226" lon="-1.515747">
        <ele>1205.011</ele>
        <time>1999-11-30T00:00:00Z</time>
      </trkpt>
      <trkpt lat="40.419321" lon="-1.514731">
        <ele>1202.052</ele>
        <time>1999-11-30T00:00:00Z</time>
      </trkpt>
      <trkpt lat="40.419006" lon="-1.514368">
        <ele>1201.026</ele>
        <time>1999-11-30T00:00:00Z</time>
      </trkpt>
      <trkpt lat="40.418343" lon="-1.513617">
        <ele>1200.031</ele>
        <time>1999-11-30T00:00:00Z</time>
      </trkpt>
      <trkpt lat="40.417981" lon="-1.513255">
        <ele>1200.020</ele>
        <time>1999-11-30T00:00:00Z</time>
      </trkpt>
      <trkpt lat="40.417637" lon="-1.512995">
        <ele>1199.061</ele>
        <time>1999-11-30T00:00:00Z</time>
      </trkpt>
      <trkpt lat="40.417352" lon="-1.512726">
        <ele>1199.099</ele>
        <time>1999-11-30T00:00:00Z</time>
      </trkpt>
      <trkpt lat="40.41712" lon="-1.512423">
        <ele>1200.058</ele>
        <time>1999-11-30T00:00:00Z</time>
      </trkpt>
      <trkpt lat="40.4169" lon="-1.511996">
        <ele>1200.052</ele>
        <time>1999-11-30T00:00:00Z</time>
      </trkpt>
      <trkpt lat="40.416772" lon="-1.511693">
        <ele>1199.017</ele>
        <time>1999-11-30T00:00:00Z</time>
      </trkpt>
      <trkpt lat="40.41647" lon="-1.511156">
        <ele>1199.008</ele>
        <time>1999-11-30T00:00:00Z</time>
      </trkpt>
      <trkpt lat="40.415986" lon="-1.510319">
        <ele>1199.036</ele>
        <time>1999-11-30T00:00:00Z</time>
      </trkpt>
      <trkpt lat="40.415723" lon="-1.509969">
        <ele>1199.010</ele>
        <time>1999-11-30T00:00:00Z</time>
      </trkpt>
      <trkpt lat="40.415462" lon="-1.509719">
        <ele>1199.021</ele>
        <time>1999-11-30T00:00:00Z</time>
      </trkpt>
      <trkpt lat="40.415209" lon="-1.509542">
        <ele>1199.025</ele>
        <time>1999-11-30T00:00:00Z</time>
      </trkpt>
      <trkpt lat="40.414914" lon="-1.509384">
        <ele>1199.030</ele>
        <time>1999-11-30T00:00:00Z</time>
      </trkpt>
      <trkpt lat="40.414599" lon="-1.509272">
        <ele>1199.099</ele>
        <time>1999-11-30T00:00:00Z</time>
      </trkpt>
      <trkpt lat="40.414291" lon="-1.509161">
        <ele>1199.040</ele>
        <time>1999-11-30T00:00:00Z</time>
      </trkpt>
      <trkpt lat="40.414108" lon="-1.509056">
        <ele>1199.098</ele>
        <time>1999-11-30T00:00:00Z</time>
      </trkpt>
      <trkpt lat="40.413953" lon="-1.508913">
        <ele>1199.012</ele>
        <time>1999-11-30T00:00:00Z</time>
      </trkpt>
      <trkpt lat="40.413818" lon="-1.50867">
        <ele>1199.032</ele>
        <time>1999-11-30T00:00:00Z</time>
      </trkpt>
      <trkpt lat="40.413682" lon="-1.508409">
        <ele>1199.005</ele>
        <time>1999-11-30T00:00:00Z</time>
      </trkpt>
      <trkpt lat="40.413496" lon="-1.508012">
        <ele>1197.008</ele>
        <time>1999-11-30T00:00:00Z</time>
      </trkpt>
      <trkpt lat="40.413291" lon="-1.507797">
        <ele>1195.062</ele>
        <time>1999-11-30T00:00:00Z</time>
      </trkpt>
      <trkpt lat="40.413051" lon="-1.507593">
        <ele>1194.076</ele>
        <time>1999-11-30T00:00:00Z</time>
      </trkpt>
      <trkpt lat="40.412897" lon="-1.507523">
        <ele>1194.037</ele>
        <time>1999-11-30T00:00:00Z</time>
      </trkpt>
      <trkpt lat="40.412673" lon="-1.507473">
        <ele>1194.071</ele>
        <time>1999-11-30T00:00:00Z</time>
      </trkpt>
      <trkpt lat="40.412713" lon="-1.507354">
        <ele>1195.056</ele>
        <time>1999-11-30T00:00:00Z</time>
      </trkpt>
      <trkpt lat="40.412942" lon="-1.507203">
        <ele>1196.015</ele>
        <time>1999-11-30T00:00:00Z</time>
      </trkpt>
      <trkpt lat="40.413474" lon="-1.506909">
        <ele>1202.096</ele>
        <time>1999-11-30T00:00:00Z</time>
      </trkpt>
      <trkpt lat="40.413894" lon="-1.506517">
        <ele>1207.084</ele>
        <time>1999-11-30T00:00:00Z</time>
      </trkpt>
      <trkpt lat="40.414514" lon="-1.505883">
        <ele>1217.059</ele>
        <time>1999-11-30T00:00:00Z</time>
      </trkpt>
      <trkpt lat="40.414755" lon="-1.505713">
        <ele>1221.003</ele>
        <time>1999-11-30T00:00:00Z</time>
      </trkpt>
      <trkpt lat="40.415199" lon="-1.505485">
        <ele>1224.023</ele>
        <time>1999-11-30T00:00:00Z</time>
      </trkpt>
      <trkpt lat="40.415377" lon="-1.505271">
        <ele>1226.008</ele>
        <time>1999-11-30T00:00:00Z</time>
      </trkpt>
      <trkpt lat="40.415678" lon="-1.504863">
        <ele>1232.036</ele>
        <time>1999-11-30T00:00:00Z</time>
      </trkpt>
      <trkpt lat="40.415858" lon="-1.504713">
        <ele>1232.070</ele>
        <time>1999-11-30T00:00:00Z</time>
      </trkpt>
      <trkpt lat="40.416096" lon="-1.504315">
        <ele>1234.031</ele>
        <time>1999-11-30T00:00:00Z</time>
      </trkpt>
      <trkpt lat="40.416221" lon="-1.504212">
        <ele>1235.075</ele>
        <time>1999-11-30T00:00:00Z</time>
      </trkpt>
      <trkpt lat="40.416427" lon="-1.504026">
        <ele>1239.070</ele>
        <time>1999-11-30T00:00:00Z</time>
      </trkpt>
      <trkpt lat="40.4165" lon="-1.503946">
        <ele>1240.029</ele>
        <time>1999-11-30T00:00:00Z</time>
      </trkpt>
      <trkpt lat="40.416556" lon="-1.503843">
        <ele>1241.050</ele>
        <time>1999-11-30T00:00:00Z</time>
      </trkpt>
      <trkpt lat="40.41685" lon="-1.503587">
        <ele>1241.058</ele>
        <time>1999-11-30T00:00:00Z</time>
      </trkpt>
      <trkpt lat="40.417397" lon="-1.503299">
        <ele>1245.091</ele>
        <time>1999-11-30T00:00:00Z</time>
      </trkpt>
      <trkpt lat="40.41761" lon="-1.503104">
        <ele>1247.081</ele>
        <time>1999-11-30T00:00:00Z</time>
      </trkpt>
      <trkpt lat="40.417814" lon="-1.502721">
        <ele>1250.019</ele>
        <time>1999-11-30T00:00:00Z</time>
      </trkpt>
      <trkpt lat="40.417903" lon="-1.502263">
        <ele>1255.008</ele>
        <time>1999-11-30T00:00:00Z</time>
      </trkpt>
      <trkpt lat="40.418113" lon="-1.501811">
        <ele>1260.050</ele>
        <time>1999-11-30T00:00:00Z</time>
      </trkpt>
      <trkpt lat="40.418324" lon="-1.501128">
        <ele>1263.054</ele>
        <time>1999-11-30T00:00:00Z</time>
      </trkpt>
      <trkpt lat="40.418444" lon="-1.500695">
        <ele>1264.055</ele>
        <time>1999-11-30T00:00:00Z</time>
      </trkpt>
      <trkpt lat="40.418481" lon="-1.500401">
        <ele>1264.019</ele>
        <time>1999-11-30T00:00:00Z</time>
      </trkpt>
      <trkpt lat="40.4186" lon="-1.500147">
        <ele>1266.084</ele>
        <time>1999-11-30T00:00:00Z</time>
      </trkpt>
      <trkpt lat="40.418659" lon="-1.499896">
        <ele>1268.023</ele>
        <time>1999-11-30T00:00:00Z</time>
      </trkpt>
      <trkpt lat="40.418661" lon="-1.499652">
        <ele>1270.014</ele>
        <time>1999-11-30T00:00:00Z</time>
      </trkpt>
      <trkpt lat="40.41857" lon="-1.499403">
        <ele>1272.032</ele>
        <time>1999-11-30T00:00:00Z</time>
      </trkpt>
      <trkpt lat="40.418471" lon="-1.499204">
        <ele>1274.078</ele>
        <time>1999-11-30T00:00:00Z</time>
      </trkpt>
      <trkpt lat="40.418385" lon="-1.498869">
        <ele>1277.033</ele>
        <time>1999-11-30T00:00:00Z</time>
      </trkpt>
      <trkpt lat="40.418377" lon="-1.498621">
        <ele>1279.026</ele>
        <time>1999-11-30T00:00:00Z</time>
      </trkpt>
      <trkpt lat="40.41849" lon="-1.498373">
        <ele>1283.008</ele>
        <time>1999-11-30T00:00:00Z</time>
      </trkpt>
      <trkpt lat="40.418611" lon="-1.498298">
        <ele>1284.058</ele>
        <time>1999-11-30T00:00:00Z</time>
      </trkpt>
      <trkpt lat="40.4187" lon="-1.49821">
        <ele>1286.072</ele>
        <time>1999-11-30T00:00:00Z</time>
      </trkpt>
      <trkpt lat="40.418885" lon="-1.498092">
        <ele>1288.073</ele>
        <time>1999-11-30T00:00:00Z</time>
      </trkpt>
      <trkpt lat="40.419114" lon="-1.497921">
        <ele>1291.077</ele>
        <time>1999-11-30T00:00:00Z</time>
      </trkpt>
      <trkpt lat="40.419237" lon="-1.497918">
        <ele>1293.022</ele>
        <time>1999-11-30T00:00:00Z</time>
      </trkpt>
      <trkpt lat="40.419386" lon="-1.497961">
        <ele>1295.041</ele>
        <time>1999-11-30T00:00:00Z</time>
      </trkpt>
      <trkpt lat="40.419624" lon="-1.498065">
        <ele>1299.032</ele>
        <time>1999-11-30T00:00:00Z</time>
      </trkpt>
      <trkpt lat="40.419755" lon="-1.498113">
        <ele>1301.090</ele>
        <time>1999-11-30T00:00:00Z</time>
      </trkpt>
      <trkpt lat="40.420202" lon="-1.498115">
        <ele>1307.015</ele>
        <time>1999-11-30T00:00:00Z</time>
      </trkpt>
      <trkpt lat="40.420416" lon="-1.498087">
        <ele>1311.065</ele>
        <time>1999-11-30T00:00:00Z</time>
      </trkpt>
      <trkpt lat="40.42059" lon="-1.498032">
        <ele>1314.011</ele>
        <time>1999-11-30T00:00:00Z</time>
      </trkpt>
      <trkpt lat="40.42072" lon="-1.497972">
        <ele>1316.008</ele>
        <time>1999-11-30T00:00:00Z</time>
      </trkpt>
      <trkpt lat="40.420825" lon="-1.49798">
        <ele>1318.042</ele>
        <time>1999-11-30T00:00:00Z</time>
      </trkpt>
      <trkpt lat="40.420958" lon="-1.498075">
        <ele>1320.076</ele>
        <time>1999-11-30T00:00:00Z</time>
      </trkpt>
      <trkpt lat="40.421197" lon="-1.498253">
        <ele>1324.067</ele>
        <time>1999-11-30T00:00:00Z</time>
      </trkpt>
      <trkpt lat="40.421381" lon="-1.498312">
        <ele>1326.031</ele>
        <time>1999-11-30T00:00:00Z</time>
      </trkpt>
      <trkpt lat="40.421539" lon="-1.49836">
        <ele>1328.096</ele>
        <time>1999-11-30T00:00:00Z</time>
      </trkpt>
      <trkpt lat="40.421728" lon="-1.498378">
        <ele>1330.095</ele>
        <time>1999-11-30T00:00:00Z</time>
      </trkpt>
      <trkpt lat="40.421963" lon="-1.498356">
        <ele>1333.056</ele>
        <time>1999-11-30T00:00:00Z</time>
      </trkpt>
      <trkpt lat="40.422212" lon="-1.498316">
        <ele>1336.014</ele>
        <time>1999-11-30T00:00:00Z</time>
      </trkpt>
      <trkpt lat="40.422396" lon="-1.498335">
        <ele>1338.024</ele>
        <time>1999-11-30T00:00:00Z</time>
      </trkpt>
      <trkpt lat="40.42265" lon="-1.498364">
        <ele>1341.004</ele>
        <time>1999-11-30T00:00:00Z</time>
      </trkpt>
      <trkpt lat="40.422874" lon="-1.498416">
        <ele>1344.014</ele>
        <time>1999-11-30T00:00:00Z</time>
      </trkpt>
      <trkpt lat="40.423054" lon="-1.498441">
        <ele>1346.008</ele>
        <time>1999-11-30T00:00:00Z</time>
      </trkpt>
      <trkpt lat="40.423247" lon="-1.498431">
        <ele>1349.083</ele>
        <time>1999-11-30T00:00:00Z</time>
      </trkpt>
      <trkpt lat="40.42343" lon="-1.498438">
        <ele>1350.097</ele>
        <time>1999-11-30T00:00:00Z</time>
      </trkpt>
      <trkpt lat="40.423623" lon="-1.498462">
        <ele>1350.058</ele>
        <time>1999-11-30T00:00:00Z</time>
      </trkpt>
      <trkpt lat="40.423898" lon="-1.498445">
        <ele>1351.032</ele>
        <time>1999-11-30T00:00:00Z</time>
      </trkpt>
      <trkpt lat="40.424081" lon="-1.498395">
        <ele>1351.087</ele>
        <time>1999-11-30T00:00:00Z</time>
      </trkpt>
      <trkpt lat="40.424412" lon="-1.498233">
        <ele>1352.066</ele>
        <time>1999-11-30T00:00:00Z</time>
      </trkpt>
      <trkpt lat="40.424645" lon="-1.498039">
        <ele>1353.057</ele>
        <time>1999-11-30T00:00:00Z</time>
      </trkpt>
      <trkpt lat="40.424761" lon="-1.497865">
        <ele>1354.075</ele>
        <time>1999-11-30T00:00:00Z</time>
      </trkpt>
      <trkpt lat="40.42491" lon="-1.497546">
        <ele>1357.026</ele>
        <time>1999-11-30T00:00:00Z</time>
      </trkpt>
      <trkpt lat="40.425055" lon="-1.497246">
        <ele>1361.047</ele>
        <time>1999-11-30T00:00:00Z</time>
      </trkpt>
      <trkpt lat="40.425109" lon="-1.497033">
        <ele>1363.011</ele>
        <time>1999-11-30T00:00:00Z</time>
      </trkpt>
      <trkpt lat="40.425153" lon="-1.496705">
        <ele>1366.008</ele>
        <time>1999-11-30T00:00:00Z</time>
      </trkpt>
      <trkpt lat="40.425217" lon="-1.496245">
        <ele>1368.063</ele>
        <time>1999-11-30T00:00:00Z</time>
      </trkpt>
      <trkpt lat="40.425347" lon="-1.495854">
        <ele>1373.027</ele>
        <time>1999-11-30T00:00:00Z</time>
      </trkpt>
      <trkpt lat="40.425513" lon="-1.495438">
        <ele>1377.078</ele>
        <time>1999-11-30T00:00:00Z</time>
      </trkpt>
      <trkpt lat="40.425667" lon="-1.495194">
        <ele>1380.022</ele>
        <time>1999-11-30T00:00:00Z</time>
      </trkpt>
      <trkpt lat="40.42588" lon="-1.495052">
        <ele>1383.027</ele>
        <time>1999-11-30T00:00:00Z</time>
      </trkpt>
      <trkpt lat="40.42611" lon="-1.49495">
        <ele>1385.086</ele>
        <time>1999-11-30T00:00:00Z</time>
      </trkpt>
      <trkpt lat="40.42635" lon="-1.494938">
        <ele>1388.047</ele>
        <time>1999-11-30T00:00:00Z</time>
      </trkpt>
      <trkpt lat="40.426717" lon="-1.494884">
        <ele>1391.065</ele>
        <time>1999-11-30T00:00:00Z</time>
      </trkpt>
      <trkpt lat="40.42719" lon="-1.494887">
        <ele>1392.065</ele>
        <time>1999-11-30T00:00:00Z</time>
      </trkpt>
      <trkpt lat="40.427576" lon="-1.49487">
        <ele>1394.068</ele>
        <time>1999-11-30T00:00:00Z</time>
      </trkpt>
      <trkpt lat="40.428095" lon="-1.494752">
        <ele>1398.014</ele>
        <time>1999-11-30T00:00:00Z</time>
      </trkpt>
      <trkpt lat="40.428486" lon="-1.494593">
        <ele>1401.008</ele>
        <time>1999-11-30T00:00:00Z</time>
      </trkpt>
      <trkpt lat="40.428726" lon="-1.494392">
        <ele>1403.057</ele>
        <time>1999-11-30T00:00:00Z</time>
      </trkpt>
      <trkpt lat="40.429" lon="-1.494094">
        <ele>1407.051</ele>
        <time>1999-11-30T00:00:00Z</time>
      </trkpt>
      <trkpt lat="40.429233" lon="-1.493832">
        <ele>1411.012</ele>
        <time>1999-11-30T00:00:00Z</time>
      </trkpt>
      <trkpt lat="40.429622" lon="-1.493567">
        <ele>1416.086</ele>
        <time>1999-11-30T00:00:00Z</time>
      </trkpt>
      <trkpt lat="40.430051" lon="-1.493282">
        <ele>1421.011</ele>
        <time>1999-11-30T00:00:00Z</time>
      </trkpt>
      <trkpt lat="40.430589" lon="-1.492943">
        <ele>1428.020</ele>
        <time>1999-11-30T00:00:00Z</time>
      </trkpt>
      <trkpt lat="40.43089" lon="-1.492706">
        <ele>1432.031</ele>
        <time>1999-11-30T00:00:00Z</time>
      </trkpt>
      <trkpt lat="40.43129" lon="-1.492237">
        <ele>1438.049</ele>
        <time>1999-11-30T00:00:00Z</time>
      </trkpt>
      <trkpt lat="40.431737" lon="-1.491749">
        <ele>1442.011</ele>
        <time>1999-11-30T00:00:00Z</time>
      </trkpt>
      <trkpt lat="40.431985" lon="-1.491539">
        <ele>1445.021</ele>
        <time>1999-11-30T00:00:00Z</time>
      </trkpt>
      <trkpt lat="40.43218" lon="-1.491473">
        <ele>1446.003</ele>
        <time>1999-11-30T00:00:00Z</time>
      </trkpt>
      <trkpt lat="40.432517" lon="-1.491394">
        <ele>1449.008</ele>
        <time>1999-11-30T00:00:00Z</time>
      </trkpt>
      <trkpt lat="40.43286" lon="-1.491236">
        <ele>1451.032</ele>
        <time>1999-11-30T00:00:00Z</time>
      </trkpt>
      <trkpt lat="40.433224" lon="-1.491095">
        <ele>1454.076</ele>
        <time>1999-11-30T00:00:00Z</time>
      </trkpt>
      <trkpt lat="40.433218" lon="-1.490697">
        <ele>1454.037</ele>
        <time>1999-11-30T00:00:00Z</time>
      </trkpt>
      <trkpt lat="40.433165" lon="-1.490368">
        <ele>1455.041</ele>
        <time>1999-11-30T00:00:00Z</time>
      </trkpt>
      <trkpt lat="40.433162" lon="-1.490139">
        <ele>1455.026</ele>
        <time>1999-11-30T00:00:00Z</time>
      </trkpt>
      <trkpt lat="40.433174" lon="-1.48995">
        <ele>1455.055</ele>
        <time>1999-11-30T00:00:00Z</time>
      </trkpt>
      <trkpt lat="40.433157" lon="-1.489739">
        <ele>1455.046</ele>
        <time>1999-11-30T00:00:00Z</time>
      </trkpt>
      <trkpt lat="40.433081" lon="-1.489488">
        <ele>1455.024</ele>
        <time>1999-11-30T00:00:00Z</time>
      </trkpt>
      <trkpt lat="40.432955" lon="-1.48905">
        <ele>1454.063</ele>
        <time>1999-11-30T00:00:00Z</time>
      </trkpt>
      <trkpt lat="40.432887" lon="-1.488813">
        <ele>1454.044</ele>
        <time>1999-11-30T00:00:00Z</time>
      </trkpt>
      <trkpt lat="40.432792" lon="-1.488663">
        <ele>1453.018</ele>
        <time>1999-11-30T00:00:00Z</time>
      </trkpt>
      <trkpt lat="40.432697" lon="-1.488543">
        <ele>1451.008</ele>
        <time>1999-11-30T00:00:00Z</time>
      </trkpt>
      <trkpt lat="40.432637" lon="-1.488355">
        <ele>1451.077</ele>
        <time>1999-11-30T00:00:00Z</time>
      </trkpt>
      <trkpt lat="40.432564" lon="-1.488037">
        <ele>1450.091</ele>
        <time>1999-11-30T00:00:00Z</time>
      </trkpt>
      <trkpt lat="40.432512" lon="-1.487737">
        <ele>1448.032</ele>
        <time>1999-11-30T00:00:00Z</time>
      </trkpt>
      <trkpt lat="40.43244" lon="-1.487496">
        <ele>1447.016</ele>
        <time>1999-11-30T00:00:00Z</time>
      </trkpt>
      <trkpt lat="40.432284" lon="-1.487144">
        <ele>1445.071</ele>
        <time>1999-11-30T00:00:00Z</time>
      </trkpt>
      <trkpt lat="40.432233" lon="-1.486965">
        <ele>1444.070</ele>
        <time>1999-11-30T00:00:00Z</time>
      </trkpt>
      <trkpt lat="40.43212" lon="-1.486698">
        <ele>1444.011</ele>
        <time>1999-11-30T00:00:00Z</time>
      </trkpt>
      <trkpt lat="40.431913" lon="-1.486383">
        <ele>1444.039</ele>
        <time>1999-11-30T00:00:00Z</time>
      </trkpt>
      <trkpt lat="40.431738" lon="-1.486144">
        <ele>1446.065</ele>
        <time>1999-11-30T00:00:00Z</time>
      </trkpt>
      <trkpt lat="40.431453" lon="-1.485871">
        <ele>1449.068</ele>
        <time>1999-11-30T00:00:00Z</time>
      </trkpt>
      <trkpt lat="40.431275" lon="-1.485731">
        <ele>1450.014</ele>
        <time>1999-11-30T00:00:00Z</time>
      </trkpt>
      <trkpt lat="40.43102" lon="-1.485436">
        <ele>1451.008</ele>
        <time>1999-11-30T00:00:00Z</time>
      </trkpt>
      <trkpt lat="40.430689" lon="-1.485065">
        <ele>1451.027</ele>
        <time>1999-11-30T00:00:00Z</time>
      </trkpt>
      <trkpt lat="40.430465" lon="-1.484769">
        <ele>1451.011</ele>
        <time>1999-11-30T00:00:00Z</time>
      </trkpt>
      <trkpt lat="40.430277" lon="-1.484552">
        <ele>1451.042</ele>
        <time>1999-11-30T00:00:00Z</time>
      </trkpt>
      <trkpt lat="40.430044" lon="-1.48436">
        <ele>1450.086</ele>
        <time>1999-11-30T00:00:00Z</time>
      </trkpt>
      <trkpt lat="40.429651" lon="-1.484059">
        <ele>1445.091</ele>
        <time>1999-11-30T00:00:00Z</time>
      </trkpt>
      <trkpt lat="40.429203" lon="-1.483736">
        <ele>1438.040</ele>
        <time>1999-11-30T00:00:00Z</time>
      </trkpt>
      <trkpt lat="40.428819" lon="-1.483528">
        <ele>1434.011</ele>
        <time>1999-11-30T00:00:00Z</time>
      </trkpt>
      <trkpt lat="40.428338" lon="-1.48322">
        <ele>1430.079</ele>
        <time>1999-11-30T00:00:00Z</time>
      </trkpt>
      <trkpt lat="40.42817" lon="-1.483034">
        <ele>1427.012</ele>
        <time>1999-11-30T00:00:00Z</time>
      </trkpt>
      <trkpt lat="40.42801" lon="-1.482858">
        <ele>1426.032</ele>
        <time>1999-11-30T00:00:00Z</time>
      </trkpt>
      <trkpt lat="40.427663" lon="-1.482632">
        <ele>1426.005</ele>
        <time>1999-11-30T00:00:00Z</time>
      </trkpt>
      <trkpt lat="40.427513" lon="-1.4825">
        <ele>1427.008</ele>
        <time>1999-11-30T00:00:00Z</time>
      </trkpt>
      <trkpt lat="40.427348" lon="-1.482216">
        <ele>1430.072</ele>
        <time>1999-11-30T00:00:00Z</time>
      </trkpt>
      <trkpt lat="40.427254" lon="-1.481894">
        <ele>1430.036</ele>
        <time>1999-11-30T00:00:00Z</time>
      </trkpt>
      <trkpt lat="40.427087" lon="-1.48147">
        <ele>1430.037</ele>
        <time>1999-11-30T00:00:00Z</time>
      </trkpt>
      <trkpt lat="40.426904" lon="-1.481151">
        <ele>1428.031</ele>
        <time>1999-11-30T00:00:00Z</time>
      </trkpt>
      <trkpt lat="40.426718" lon="-1.480849">
        <ele>1426.086</ele>
        <time>1999-11-30T00:00:00Z</time>
      </trkpt>
      <trkpt lat="40.426567" lon="-1.480632">
        <ele>1426.035</ele>
        <time>1999-11-30T00:00:00Z</time>
      </trkpt>
      <trkpt lat="40.426535" lon="-1.480502">
        <ele>1425.096</ele>
        <time>1999-11-30T00:00:00Z</time>
      </trkpt>
      <trkpt lat="40.426566" lon="-1.480249">
        <ele>1423.094</ele>
        <time>1999-11-30T00:00:00Z</time>
      </trkpt>
      <trkpt lat="40.426711" lon="-1.479791">
        <ele>1419.089</ele>
        <time>1999-11-30T00:00:00Z</time>
      </trkpt>
      <trkpt lat="40.426802" lon="-1.47939">
        <ele>1416.006</ele>
        <time>1999-11-30T00:00:00Z</time>
      </trkpt>
      <trkpt lat="40.426974" lon="-1.478909">
        <ele>1412.026</ele>
        <time>1999-11-30T00:00:00Z</time>
      </trkpt>
      <trkpt lat="40.427096" lon="-1.478474">
        <ele>1411.008</ele>
        <time>1999-11-30T00:00:00Z</time>
      </trkpt>
      <trkpt lat="40.427151" lon="-1.47796">
        <ele>1411.039</ele>
        <time>1999-11-30T00:00:00Z</time>
      </trkpt>
      <trkpt lat="40.427244" lon="-1.477688">
        <ele>1411.063</ele>
        <time>1999-11-30T00:00:00Z</time>
      </trkpt>
      <trkpt lat="40.42745" lon="-1.477481">
        <ele>1412.024</ele>
        <time>1999-11-30T00:00:00Z</time>
      </trkpt>
      <trkpt lat="40.427647" lon="-1.477247">
        <ele>1413.018</ele>
        <time>1999-11-30T00:00:00Z</time>
      </trkpt>
      <trkpt lat="40.427785" lon="-1.477064">
        <ele>1413.053</ele>
        <time>1999-11-30T00:00:00Z</time>
      </trkpt>
      <trkpt lat="40.427865" lon="-1.476833">
        <ele>1414.062</ele>
        <time>1999-11-30T00:00:00Z</time>
      </trkpt>
      <trkpt lat="40.427842" lon="-1.476689">
        <ele>1414.013</ele>
        <time>1999-11-30T00:00:00Z</time>
      </trkpt>
      <trkpt lat="40.427762" lon="-1.476574">
        <ele>1415.041</ele>
        <time>1999-11-30T00:00:00Z</time>
      </trkpt>
      <trkpt lat="40.427598" lon="-1.476407">
        <ele>1415.085</ele>
        <time>1999-11-30T00:00:00Z</time>
      </trkpt>
      <trkpt lat="40.427465" lon="-1.476212">
        <ele>1415.089</ele>
        <time>1999-11-30T00:00:00Z</time>
      </trkpt>
      <trkpt lat="40.427149" lon="-1.475999">
        <ele>1410.017</ele>
        <time>1999-11-30T00:00:00Z</time>
      </trkpt>
      <trkpt lat="40.426723" lon="-1.475982">
        <ele>1405.008</ele>
        <time>1999-11-30T00:00:00Z</time>
      </trkpt>
      <trkpt lat="40.426522" lon="-1.475882">
        <ele>1402.049</ele>
        <time>1999-11-30T00:00:00Z</time>
      </trkpt>
      <trkpt lat="40.426434" lon="-1.475745">
        <ele>1401.053</ele>
        <time>1999-11-30T00:00:00Z</time>
      </trkpt>
      <trkpt lat="40.426298" lon="-1.475617">
        <ele>1400.024</ele>
        <time>1999-11-30T00:00:00Z</time>
      </trkpt>
      <trkpt lat="40.426118" lon="-1.475496">
        <ele>1400.028</ele>
        <time>1999-11-30T00:00:00Z</time>
      </trkpt>
      <trkpt lat="40.425943" lon="-1.475306">
        <ele>1403.023</ele>
        <time>1999-11-30T00:00:00Z</time>
      </trkpt>
      <trkpt lat="40.425715" lon="-1.475158">
        <ele>1405.012</ele>
        <time>1999-11-30T00:00:00Z</time>
      </trkpt>
      <trkpt lat="40.425081" lon="-1.474795">
        <ele>1407.073</ele>
        <time>1999-11-30T00:00:00Z</time>
      </trkpt>
      <trkpt lat="40.424738" lon="-1.474595">
        <ele>1403.011</ele>
        <time>1999-11-30T00:00:00Z</time>
      </trkpt>
      <trkpt lat="40.424511" lon="-1.47434">
        <ele>1399.019</ele>
        <time>1999-11-30T00:00:00Z</time>
      </trkpt>
      <trkpt lat="40.424354" lon="-1.474154">
        <ele>1397.009</ele>
        <time>1999-11-30T00:00:00Z</time>
      </trkpt>
      <trkpt lat="40.424224" lon="-1.473946">
        <ele>1395.019</ele>
        <time>1999-11-30T00:00:00Z</time>
      </trkpt>
      <trkpt lat="40.424106" lon="-1.473899">
        <ele>1393.008</ele>
        <time>1999-11-30T00:00:00Z</time>
      </trkpt>
      <trkpt lat="40.423977" lon="-1.473979">
        <ele>1392.072</ele>
        <time>1999-11-30T00:00:00Z</time>
      </trkpt>
      <trkpt lat="40.423786" lon="-1.474073">
        <ele>1391.056</ele>
        <time>1999-11-30T00:00:00Z</time>
      </trkpt>
      <trkpt lat="40.423666" lon="-1.474125">
        <ele>1391.017</ele>
        <time>1999-11-30T00:00:00Z</time>
      </trkpt>
      <trkpt lat="40.423583" lon="-1.474068">
        <ele>1391.021</ele>
        <time>1999-11-30T00:00:00Z</time>
      </trkpt>
      <trkpt lat="40.423529" lon="-1.473935">
        <ele>1391.016</ele>
        <time>1999-11-30T00:00:00Z</time>
      </trkpt>
      <trkpt lat="40.423416" lon="-1.473681">
        <ele>1392.075</ele>
        <time>1999-11-30T00:00:00Z</time>
      </trkpt>
      <trkpt lat="40.423244" lon="-1.473383">
        <ele>1394.076</ele>
        <time>1999-11-30T00:00:00Z</time>
      </trkpt>
      <trkpt lat="40.423112" lon="-1.473062">
        <ele>1395.064</ele>
        <time>1999-11-30T00:00:00Z</time>
      </trkpt>
      <trkpt lat="40.423025" lon="-1.472979">
        <ele>1396.025</ele>
        <time>1999-11-30T00:00:00Z</time>
      </trkpt>
      <trkpt lat="40.422838" lon="-1.472875">
        <ele>1399.026</ele>
        <time>1999-11-30T00:00:00Z</time>
      </trkpt>
      <trkpt lat="40.422606" lon="-1.472736">
        <ele>1401.008</ele>
        <time>1999-11-30T00:00:00Z</time>
      </trkpt>
      <trkpt lat="40.422374" lon="-1.47262">
        <ele>1402.008</ele>
        <time>1999-11-30T00:00:00Z</time>
      </trkpt>
      <trkpt lat="40.422233" lon="-1.472601">
        <ele>1403.083</ele>
        <time>1999-11-30T00:00:00Z</time>
      </trkpt>
      <trkpt lat="40.422033" lon="-1.472632">
        <ele>1405.097</ele>
        <time>1999-11-30T00:00:00Z</time>
      </trkpt>
      <trkpt lat="40.421928" lon="-1.472649">
        <ele>1406.088</ele>
        <time>1999-11-30T00:00:00Z</time>
      </trkpt>
      <trkpt lat="40.421848" lon="-1.472614">
        <ele>1407.072</ele>
        <time>1999-11-30T00:00:00Z</time>
      </trkpt>
      <trkpt lat="40.421771" lon="-1.472499">
        <ele>1407.027</ele>
        <time>1999-11-30T00:00:00Z</time>
      </trkpt>
      <trkpt lat="40.421724" lon="-1.472334">
        <ele>1407.066</ele>
        <time>1999-11-30T00:00:00Z</time>
      </trkpt>
      <trkpt lat="40.421619" lon="-1.471967">
        <ele>1410.047</ele>
        <time>1999-11-30T00:00:00Z</time>
      </trkpt>
      <trkpt lat="40.421527" lon="-1.471758">
        <ele>1412.045</ele>
        <time>1999-11-30T00:00:00Z</time>
      </trkpt>
      <trkpt lat="40.421407" lon="-1.471513">
        <ele>1412.094</ele>
        <time>1999-11-30T00:00:00Z</time>
      </trkpt>
      <trkpt lat="40.421325" lon="-1.47129">
        <ele>1413.057</ele>
        <time>1999-11-30T00:00:00Z</time>
      </trkpt>
      <trkpt lat="40.421298" lon="-1.471097">
        <ele>1414.022</ele>
        <time>1999-11-30T00:00:00Z</time>
      </trkpt>
      <trkpt lat="40.421253" lon="-1.47077">
        <ele>1416.008</ele>
        <time>1999-11-30T00:00:00Z</time>
      </trkpt>
      <trkpt lat="40.421171" lon="-1.470506">
        <ele>1418.070</ele>
        <time>1999-11-30T00:00:00Z</time>
      </trkpt>
      <trkpt lat="40.421113" lon="-1.470282">
        <ele>1419.064</ele>
        <time>1999-11-30T00:00:00Z</time>
      </trkpt>
      <trkpt lat="40.421081" lon="-1.470089">
        <ele>1420.095</ele>
        <time>1999-11-30T00:00:00Z</time>
      </trkpt>
      <trkpt lat="40.421033" lon="-1.4698">
        <ele>1420.029</ele>
        <time>1999-11-30T00:00:00Z</time>
      </trkpt>
      <trkpt lat="40.420936" lon="-1.469502">
        <ele>1420.064</ele>
        <time>1999-11-30T00:00:00Z</time>
      </trkpt>
      <trkpt lat="40.42077" lon="-1.469127">
        <ele>1419.053</ele>
        <time>1999-11-30T00:00:00Z</time>
      </trkpt>
      <trkpt lat="40.420624" lon="-1.468883">
        <ele>1420.054</ele>
        <time>1999-11-30T00:00:00Z</time>
      </trkpt>
      <trkpt lat="40.420446" lon="-1.468655">
        <ele>1420.082</ele>
        <time>1999-11-30T00:00:00Z</time>
      </trkpt>
      <trkpt lat="40.420318" lon="-1.46846">
        <ele>1421.061</ele>
        <time>1999-11-30T00:00:00Z</time>
      </trkpt>
      <trkpt lat="40.420139" lon="-1.468171">
        <ele>1422.021</ele>
        <time>1999-11-30T00:00:00Z</time>
      </trkpt>
      <trkpt lat="40.419982" lon="-1.467896">
        <ele>1422.013</ele>
        <time>1999-11-30T00:00:00Z</time>
      </trkpt>
      <trkpt lat="40.419866" lon="-1.467773">
        <ele>1422.008</ele>
        <time>1999-11-30T00:00:00Z</time>
      </trkpt>
      <trkpt lat="40.419653" lon="-1.467624">
        <ele>1421.077</ele>
        <time>1999-11-30T00:00:00Z</time>
      </trkpt>
      <trkpt lat="40.419405" lon="-1.467458">
        <ele>1421.081</ele>
        <time>1999-11-30T00:00:00Z</time>
      </trkpt>
      <trkpt lat="40.419194" lon="-1.467255">
        <ele>1423.082</ele>
        <time>1999-11-30T00:00:00Z</time>
      </trkpt>
      <trkpt lat="40.418903" lon="-1.466939">
        <ele>1424.076</ele>
        <time>1999-11-30T00:00:00Z</time>
      </trkpt>
      <trkpt lat="40.418689" lon="-1.466701">
        <ele>1424.011</ele>
        <time>1999-11-30T00:00:00Z</time>
      </trkpt>
      <trkpt lat="40.4185" lon="-1.466462">
        <ele>1424.050</ele>
        <time>1999-11-30T00:00:00Z</time>
      </trkpt>
      <trkpt lat="40.418334" lon="-1.466333">
        <ele>1424.081</ele>
        <time>1999-11-30T00:00:00Z</time>
      </trkpt>
      <trkpt lat="40.418089" lon="-1.466178">
        <ele>1422.089</ele>
        <time>1999-11-30T00:00:00Z</time>
      </trkpt>
      <trkpt lat="40.417813" lon="-1.466005">
        <ele>1419.016</ele>
        <time>1999-11-30T00:00:00Z</time>
      </trkpt>
      <trkpt lat="40.417675" lon="-1.465894">
        <ele>1418.076</ele>
        <time>1999-11-30T00:00:00Z</time>
      </trkpt>
      <trkpt lat="40.4175" lon="-1.465719">
        <ele>1416.013</ele>
        <time>1999-11-30T00:00:00Z</time>
      </trkpt>
      <trkpt lat="40.417334" lon="-1.465526">
        <ele>1415.008</ele>
        <time>1999-11-30T00:00:00Z</time>
      </trkpt>
      <trkpt lat="40.417228" lon="-1.465425">
        <ele>1414.082</ele>
        <time>1999-11-30T00:00:00Z</time>
      </trkpt>
      <trkpt lat="40.417145" lon="-1.465377">
        <ele>1414.096</ele>
        <time>1999-11-30T00:00:00Z</time>
      </trkpt>
      <trkpt lat="40.416997" lon="-1.46533">
        <ele>1413.077</ele>
        <time>1999-11-30T00:00:00Z</time>
      </trkpt>
      <trkpt lat="40.416846" lon="-1.465247">
        <ele>1413.071</ele>
        <time>1999-11-30T00:00:00Z</time>
      </trkpt>
      <trkpt lat="40.416729" lon="-1.465132">
        <ele>1412.036</ele>
        <time>1999-11-30T00:00:00Z</time>
      </trkpt>
      <trkpt lat="40.416615" lon="-1.464995">
        <ele>1411.095</ele>
        <time>1999-11-30T00:00:00Z</time>
      </trkpt>
      <trkpt lat="40.41638" lon="-1.464807">
        <ele>1407.026</ele>
        <time>1999-11-30T00:00:00Z</time>
      </trkpt>
      <trkpt lat="40.416187" lon="-1.464633">
        <ele>1402.064</ele>
        <time>1999-11-30T00:00:00Z</time>
      </trkpt>
      <trkpt lat="40.416033" lon="-1.464435">
        <ele>1398.014</ele>
        <time>1999-11-30T00:00:00Z</time>
      </trkpt>
      <trkpt lat="40.415886" lon="-1.464224">
        <ele>1395.054</ele>
        <time>1999-11-30T00:00:00Z</time>
      </trkpt>
      <trkpt lat="40.415616" lon="-1.463912">
        <ele>1392.009</ele>
        <time>1999-11-30T00:00:00Z</time>
      </trkpt>
      <trkpt lat="40.415205" lon="-1.46341">
        <ele>1384.008</ele>
        <time>1999-11-30T00:00:00Z</time>
      </trkpt>
      <trkpt lat="40.415046" lon="-1.463224">
        <ele>1381.042</ele>
        <time>1999-11-30T00:00:00Z</time>
      </trkpt>
      <trkpt lat="40.414943" lon="-1.463051">
        <ele>1379.076</ele>
        <time>1999-11-30T00:00:00Z</time>
      </trkpt>
      <trkpt lat="40.414794" lon="-1.462771">
        <ele>1375.017</ele>
        <time>1999-11-30T00:00:00Z</time>
      </trkpt>
      <trkpt lat="40.414539" lon="-1.462276">
        <ele>1368.031</ele>
        <time>1999-11-30T00:00:00Z</time>
      </trkpt>
      <trkpt lat="40.414371" lon="-1.462008">
        <ele>1366.026</ele>
        <time>1999-11-30T00:00:00Z</time>
      </trkpt>
      <trkpt lat="40.414294" lon="-1.461927">
        <ele>1365.035</ele>
        <time>1999-11-30T00:00:00Z</time>
      </trkpt>
      <trkpt lat="40.414106" lon="-1.461831">
        <ele>1363.026</ele>
        <time>1999-11-30T00:00:00Z</time>
      </trkpt>
      <trkpt lat="40.414003" lon="-1.461727">
        <ele>1362.024</ele>
        <time>1999-11-30T00:00:00Z</time>
      </trkpt>
      <trkpt lat="40.413925" lon="-1.461585">
        <ele>1361.053</ele>
        <time>1999-11-30T00:00:00Z</time>
      </trkpt>
      <trkpt lat="40.413869" lon="-1.461425">
        <ele>1360.004</ele>
        <time>1999-11-30T00:00:00Z</time>
      </trkpt>
      <trkpt lat="40.413847" lon="-1.461222">
        <ele>1359.014</ele>
        <time>1999-11-30T00:00:00Z</time>
      </trkpt>
      <trkpt lat="40.413811" lon="-1.460994">
        <ele>1357.008</ele>
        <time>1999-11-30T00:00:00Z</time>
      </trkpt>
      <trkpt lat="40.413713" lon="-1.460656">
        <ele>1354.026</ele>
        <time>1999-11-30T00:00:00Z</time>
      </trkpt>
      <trkpt lat="40.413625" lon="-1.460404">
        <ele>1351.020</ele>
        <time>1999-11-30T00:00:00Z</time>
      </trkpt>
      <trkpt lat="40.413514" lon="-1.460278">
        <ele>1349.091</ele>
        <time>1999-11-30T00:00:00Z</time>
      </trkpt>
      <trkpt lat="40.413396" lon="-1.460238">
        <ele>1348.045</ele>
        <time>1999-11-30T00:00:00Z</time>
      </trkpt>
      <trkpt lat="40.41327" lon="-1.460248">
        <ele>1348.090</ele>
        <time>1999-11-30T00:00:00Z</time>
      </trkpt>
      <trkpt lat="40.413054" lon="-1.460281">
        <ele>1346.059</ele>
        <time>1999-11-30T00:00:00Z</time>
      </trkpt>
      <trkpt lat="40.412858" lon="-1.460285">
        <ele>1346.080</ele>
        <time>1999-11-30T00:00:00Z</time>
      </trkpt>
      <trkpt lat="40.412712" lon="-1.460271">
        <ele>1346.088</ele>
        <time>1999-11-30T00:00:00Z</time>
      </trkpt>
      <trkpt lat="40.412592" lon="-1.46021">
        <ele>1347.094</ele>
        <time>1999-11-30T00:00:00Z</time>
      </trkpt>
      <trkpt lat="40.412483" lon="-1.460073">
        <ele>1346.057</ele>
        <time>1999-11-30T00:00:00Z</time>
      </trkpt>
      <trkpt lat="40.412385" lon="-1.459907">
        <ele>1345.022</ele>
        <time>1999-11-30T00:00:00Z</time>
      </trkpt>
      <trkpt lat="40.412341" lon="-1.459815">
        <ele>1345.008</ele>
        <time>1999-11-30T00:00:00Z</time>
      </trkpt>
      <trkpt lat="40.412272" lon="-1.459588">
        <ele>1344.060</ele>
        <time>1999-11-30T00:00:00Z</time>
      </trkpt>
      <trkpt lat="40.41223" lon="-1.459351">
        <ele>1343.044</ele>
        <time>1999-11-30T00:00:00Z</time>
      </trkpt>
      <trkpt lat="40.412228" lon="-1.459135">
        <ele>1343.035</ele>
        <time>1999-11-30T00:00:00Z</time>
      </trkpt>
      <trkpt lat="40.412208" lon="-1.458911">
        <ele>1343.099</ele>
        <time>1999-11-30T00:00:00Z</time>
      </trkpt>
      <trkpt lat="40.412174" lon="-1.458705">
        <ele>1342.074</ele>
        <time>1999-11-30T00:00:00Z</time>
      </trkpt>
      <trkpt lat="40.412065" lon="-1.458461">
        <ele>1339.023</ele>
        <time>1999-11-30T00:00:00Z</time>
      </trkpt>
      <trkpt lat="40.411976" lon="-1.458215">
        <ele>1338.044</ele>
        <time>1999-11-30T00:00:00Z</time>
      </trkpt>
      <trkpt lat="40.411939" lon="-1.457987">
        <ele>1337.052</ele>
        <time>1999-11-30T00:00:00Z</time>
      </trkpt>
      <trkpt lat="40.411958" lon="-1.457688">
        <ele>1337.061</ele>
        <time>1999-11-30T00:00:00Z</time>
      </trkpt>
      <trkpt lat="40.411966" lon="-1.457416">
        <ele>1337.021</ele>
        <time>1999-11-30T00:00:00Z</time>
      </trkpt>
      <trkpt lat="40.411936" lon="-1.457228">
        <ele>1337.013</ele>
        <time>1999-11-30T00:00:00Z</time>
      </trkpt>
      <trkpt lat="40.411838" lon="-1.456953">
        <ele>1338.008</ele>
        <time>1999-11-30T00:00:00Z</time>
      </trkpt>
      <trkpt lat="40.411775" lon="-1.456708">
        <ele>1339.027</ele>
        <time>1999-11-30T00:00:00Z</time>
      </trkpt>
      <trkpt lat="40.41176" lon="-1.456458">
        <ele>1339.011</ele>
        <time>1999-11-30T00:00:00Z</time>
      </trkpt>
      <trkpt lat="40.411772" lon="-1.456152">
        <ele>1340.052</ele>
        <time>1999-11-30T00:00:00Z</time>
      </trkpt>
      <trkpt lat="40.411741" lon="-1.455776">
        <ele>1343.056</ele>
        <time>1999-11-30T00:00:00Z</time>
      </trkpt>
      <trkpt lat="40.411721" lon="-1.45536">
        <ele>1346.011</ele>
        <time>1999-11-30T00:00:00Z</time>
      </trkpt>
      <trkpt lat="40.411743" lon="-1.454967">
        <ele>1346.030</ele>
        <time>1999-11-30T00:00:00Z</time>
      </trkpt>
      <trkpt lat="40.411754" lon="-1.454721">
        <ele>1344.081</ele>
        <time>1999-11-30T00:00:00Z</time>
      </trkpt>
      <trkpt lat="40.411786" lon="-1.454623">
        <ele>1343.079</ele>
        <time>1999-11-30T00:00:00Z</time>
      </trkpt>
      <trkpt lat="40.411843" lon="-1.454537">
        <ele>1342.051</ele>
        <time>1999-11-30T00:00:00Z</time>
      </trkpt>
      <trkpt lat="40.412056" lon="-1.454394">
        <ele>1341.001</ele>
        <time>1999-11-30T00:00:00Z</time>
      </trkpt>
      <trkpt lat="40.412176" lon="-1.454228">
        <ele>1341.011</ele>
        <time>1999-11-30T00:00:00Z</time>
      </trkpt>
      <trkpt lat="40.412468" lon="-1.453929">
        <ele>1342.008</ele>
        <time>1999-11-30T00:00:00Z</time>
      </trkpt>
      <trkpt lat="40.412781" lon="-1.453837">
        <ele>1342.056</ele>
        <time>1999-11-30T00:00:00Z</time>
      </trkpt>
      <trkpt lat="40.413291" lon="-1.453602">
        <ele>1338.050</ele>
        <time>1999-11-30T00:00:00Z</time>
      </trkpt>
      <trkpt lat="40.413511" lon="-1.453533">
        <ele>1334.041</ele>
        <time>1999-11-30T00:00:00Z</time>
      </trkpt>
      <trkpt lat="40.413739" lon="-1.453354">
        <ele>1331.085</ele>
        <time>1999-11-30T00:00:00Z</time>
      </trkpt>
      <trkpt lat="40.413901" lon="-1.45313">
        <ele>1330.090</ele>
        <time>1999-11-30T00:00:00Z</time>
      </trkpt>
      <trkpt lat="40.414007" lon="-1.45294">
        <ele>1328.029</ele>
        <time>1999-11-30T00:00:00Z</time>
      </trkpt>
      <trkpt lat="40.41406" lon="-1.452736">
        <ele>1327.060</ele>
        <time>1999-11-30T00:00:00Z</time>
      </trkpt>
      <trkpt lat="40.414081" lon="-1.452539">
        <ele>1327.068</ele>
        <time>1999-11-30T00:00:00Z</time>
      </trkpt>
      <trkpt lat="40.414045" lon="-1.45225">
        <ele>1324.069</ele>
        <time>1999-11-30T00:00:00Z</time>
      </trkpt>
      <trkpt lat="40.413947" lon="-1.451688">
        <ele>1317.004</ele>
        <time>1999-11-30T00:00:00Z</time>
      </trkpt>
      <trkpt lat="40.413839" lon="-1.451155">
        <ele>1312.024</ele>
        <time>1999-11-30T00:00:00Z</time>
      </trkpt>
      <trkpt lat="40.413725" lon="-1.45049">
        <ele>1311.008</ele>
        <time>1999-11-30T00:00:00Z</time>
      </trkpt>
      <trkpt lat="40.413641" lon="-1.449995">
        <ele>1313.027</ele>
        <time>1999-11-30T00:00:00Z</time>
      </trkpt>
      <trkpt lat="40.413562" lon="-1.449544">
        <ele>1312.011</ele>
        <time>1999-11-30T00:00:00Z</time>
      </trkpt>
      <trkpt lat="40.413505" lon="-1.449217">
        <ele>1313.072</ele>
        <time>1999-11-30T00:00:00Z</time>
      </trkpt>
      <trkpt lat="40.41344" lon="-1.448983">
        <ele>1314.036</ele>
        <time>1999-11-30T00:00:00Z</time>
      </trkpt>
      <trkpt lat="40.413367" lon="-1.448819">
        <ele>1315.091</ele>
        <time>1999-11-30T00:00:00Z</time>
      </trkpt>
      <trkpt lat="40.413172" lon="-1.448595">
        <ele>1314.020</ele>
        <time>1999-11-30T00:00:00Z</time>
      </trkpt>
      <trkpt lat="40.412787" lon="-1.448291">
        <ele>1312.011</ele>
        <time>1999-11-30T00:00:00Z</time>
      </trkpt>
      <trkpt lat="40.412561" lon="-1.447978">
        <ele>1311.029</ele>
        <time>1999-11-30T00:00:00Z</time>
      </trkpt>
      <trkpt lat="40.412276" lon="-1.447416">
        <ele>1310.095</ele>
        <time>1999-11-30T00:00:00Z</time>
      </trkpt>
      <trkpt lat="40.412091" lon="-1.446955">
        <ele>1308.049</ele>
        <time>1999-11-30T00:00:00Z</time>
      </trkpt>
      <trkpt lat="40.411998" lon="-1.446508">
        <ele>1303.023</ele>
        <time>1999-11-30T00:00:00Z</time>
      </trkpt>
      <trkpt lat="40.411935" lon="-1.446427">
        <ele>1303.008</ele>
        <time>1999-11-30T00:00:00Z</time>
      </trkpt>
      <trkpt lat="40.411873" lon="-1.446424">
        <ele>1302.070</ele>
        <time>1999-11-30T00:00:00Z</time>
      </trkpt>
      <trkpt lat="40.411791" lon="-1.446484">
        <ele>1302.024</ele>
        <time>1999-11-30T00:00:00Z</time>
      </trkpt>
      <trkpt lat="40.411733" lon="-1.446529">
        <ele>1302.055</ele>
        <time>1999-11-30T00:00:00Z</time>
      </trkpt>
      <trkpt lat="40.411693" lon="-1.446522">
        <ele>1301.059</ele>
        <time>1999-11-30T00:00:00Z</time>
      </trkpt>
      <trkpt lat="40.411672" lon="-1.446468">
        <ele>1299.084</ele>
        <time>1999-11-30T00:00:00Z</time>
      </trkpt>
      <trkpt lat="40.411686" lon="-1.446347">
        <ele>1297.063</ele>
        <time>1999-11-30T00:00:00Z</time>
      </trkpt>
      <trkpt lat="40.411724" lon="-1.446063">
        <ele>1292.024</ele>
        <time>1999-11-30T00:00:00Z</time>
      </trkpt>
      <trkpt lat="40.411731" lon="-1.445714">
        <ele>1286.052</ele>
        <time>1999-11-30T00:00:00Z</time>
      </trkpt>
      <trkpt lat="40.411729" lon="-1.4456">
        <ele>1284.069</ele>
        <time>1999-11-30T00:00:00Z</time>
      </trkpt>
      <trkpt lat="40.41174" lon="-1.445563">
        <ele>1283.004</ele>
        <time>1999-11-30T00:00:00Z</time>
      </trkpt>
      <trkpt lat="40.411804" lon="-1.44555">
        <ele>1282.024</ele>
        <time>1999-11-30T00:00:00Z</time>
      </trkpt>
      <trkpt lat="40.411957" lon="-1.445577">
        <ele>1280.008</ele>
        <time>1999-11-30T00:00:00Z</time>
      </trkpt>
      <trkpt lat="40.41223" lon="-1.445582">
        <ele>1274.017</ele>
        <time>1999-11-30T00:00:00Z</time>
      </trkpt>
      <trkpt lat="40.412476" lon="-1.44565">
        <ele>1270.081</ele>
        <time>1999-11-30T00:00:00Z</time>
      </trkpt>
      <trkpt lat="40.412538" lon="-1.445654">
        <ele>1269.052</ele>
        <time>1999-11-30T00:00:00Z</time>
      </trkpt>
      <trkpt lat="40.412552" lon="-1.445606">
        <ele>1267.016</ele>
        <time>1999-11-30T00:00:00Z</time>
      </trkpt>
      <trkpt lat="40.41254" lon="-1.445515">
        <ele>1266.021</ele>
        <time>1999-11-30T00:00:00Z</time>
      </trkpt>
      <trkpt lat="40.412464" lon="-1.445326">
        <ele>1263.080</ele>
        <time>1999-11-30T00:00:00Z</time>
      </trkpt>
      <trkpt lat="40.412379" lon="-1.445148">
        <ele>1260.031</ele>
        <time>1999-11-30T00:00:00Z</time>
      </trkpt>
      <trkpt lat="40.412194" lon="-1.444999">
        <ele>1259.079</ele>
        <time>1999-11-30T00:00:00Z</time>
      </trkpt>
      <trkpt lat="40.412032" lon="-1.444875">
        <ele>1257.011</ele>
        <time>1999-11-30T00:00:00Z</time>
      </trkpt>
      <trkpt lat="40.411827" lon="-1.444634">
        <ele>1252.021</ele>
        <time>1999-11-30T00:00:00Z</time>
      </trkpt>
      <trkpt lat="40.411502" lon="-1.444193">
        <ele>1247.003</ele>
        <time>1999-11-30T00:00:00Z</time>
      </trkpt>
      <trkpt lat="40.411267" lon="-1.443838">
        <ele>1245.008</ele>
        <time>1999-11-30T00:00:00Z</time>
      </trkpt>
      <trkpt lat="40.411108" lon="-1.443709">
        <ele>1244.092</ele>
        <time>1999-11-30T00:00:00Z</time>
      </trkpt>
      <trkpt lat="40.410984" lon="-1.443668">
        <ele>1243.016</ele>
        <time>1999-11-30T00:00:00Z</time>
      </trkpt>
      <trkpt lat="40.410868" lon="-1.443621">
        <ele>1242.057</ele>
        <time>1999-11-30T00:00:00Z</time>
      </trkpt>
      <trkpt lat="40.4108" lon="-1.443453">
        <ele>1241.061</ele>
        <time>1999-11-30T00:00:00Z</time>
      </trkpt>
      <trkpt lat="40.410753" lon="-1.443408">
        <ele>1240.056</ele>
        <time>1999-11-30T00:00:00Z</time>
      </trkpt>
      <trkpt lat="40.410593" lon="-1.443521">
        <ele>1241.035</ele>
        <time>1999-11-30T00:00:00Z</time>
      </trkpt>
      <trkpt lat="40.410406" lon="-1.443549">
        <ele>1240.076</ele>
        <time>1999-11-30T00:00:00Z</time>
      </trkpt>
      <trkpt lat="40.410223" lon="-1.443564">
        <ele>1240.084</ele>
        <time>1999-11-30T00:00:00Z</time>
      </trkpt>
      <trkpt lat="40.410117" lon="-1.443562">
        <ele>1241.022</ele>
        <time>1999-11-30T00:00:00Z</time>
      </trkpt>
      <trkpt lat="40.410009" lon="-1.44349">
        <ele>1241.062</ele>
        <time>1999-11-30T00:00:00Z</time>
      </trkpt>
      <trkpt lat="40.409942" lon="-1.443418">
        <ele>1240.008</ele>
        <time>1999-11-30T00:00:00Z</time>
      </trkpt>
      <trkpt lat="40.409897" lon="-1.443426">
        <ele>1240.008</ele>
        <time>1999-11-30T00:00:00Z</time>
      </trkpt>
      <trkpt lat="40.409884" lon="-1.44346">
        <ele>1240.073</ele>
        <time>1999-11-30T00:00:00Z</time>
      </trkpt>
      <trkpt lat="40.409922" lon="-1.443569">
        <ele>1238.017</ele>
        <time>1999-11-30T00:00:00Z</time>
      </trkpt>
      <trkpt lat="40.410103" lon="-1.443921">
        <ele>1232.098</ele>
        <time>1999-11-30T00:00:00Z</time>
      </trkpt>
      <trkpt lat="40.410318" lon="-1.444216">
        <ele>1228.052</ele>
        <time>1999-11-30T00:00:00Z</time>
      </trkpt>
      <trkpt lat="40.410433" lon="-1.444396">
        <ele>1227.057</ele>
        <time>1999-11-30T00:00:00Z</time>
      </trkpt>
      <trkpt lat="40.410497" lon="-1.444526">
        <ele>1228.056</ele>
        <time>1999-11-30T00:00:00Z</time>
      </trkpt>
      <trkpt lat="40.410521" lon="-1.444653">
        <ele>1228.057</ele>
        <time>1999-11-30T00:00:00Z</time>
      </trkpt>
      <trkpt lat="40.4105" lon="-1.444712">
        <ele>1227.035</ele>
        <time>1999-11-30T00:00:00Z</time>
      </trkpt>
      <trkpt lat="40.410409" lon="-1.444804">
        <ele>1223.023</ele>
        <time>1999-11-30T00:00:00Z</time>
      </trkpt>
      <trkpt lat="40.410275" lon="-1.44497">
        <ele>1218.083</ele>
        <time>1999-11-30T00:00:00Z</time>
      </trkpt>
      <trkpt lat="40.410225" lon="-1.445088">
        <ele>1216.011</ele>
        <time>1999-11-30T00:00:00Z</time>
      </trkpt>
      <trkpt lat="40.410223" lon="-1.445196">
        <ele>1216.008</ele>
        <time>1999-11-30T00:00:00Z</time>
      </trkpt>
      <trkpt lat="40.410229" lon="-1.445318">
        <ele>1216.013</ele>
        <time>1999-11-30T00:00:00Z</time>
      </trkpt>
      <trkpt lat="40.410192" lon="-1.445382">
        <ele>1215.037</ele>
        <time>1999-11-30T00:00:00Z</time>
      </trkpt>
      <trkpt lat="40.410088" lon="-1.445472">
        <ele>1211.028</ele>
        <time>1999-11-30T00:00:00Z</time>
      </trkpt>
      <trkpt lat="40.409947" lon="-1.445551">
        <ele>1207.062</ele>
        <time>1999-11-30T00:00:00Z</time>
      </trkpt>
      <trkpt lat="40.409826" lon="-1.445654">
        <ele>1206.017</ele>
        <time>1999-11-30T00:00:00Z</time>
      </trkpt>
      <trkpt lat="40.40974" lon="-1.445676">
        <ele>1205.076</ele>
        <time>1999-11-30T00:00:00Z</time>
      </trkpt>
      <trkpt lat="40.409712" lon="-1.445618">
        <ele>1203.017</ele>
        <time>1999-11-30T00:00:00Z</time>
      </trkpt>
      <trkpt lat="40.40976" lon="-1.445447">
        <ele>1202.085</ele>
        <time>1999-11-30T00:00:00Z</time>
      </trkpt>
      <trkpt lat="40.409786" lon="-1.445279">
        <ele>1200.099</ele>
        <time>1999-11-30T00:00:00Z</time>
      </trkpt>
      <trkpt lat="40.409777" lon="-1.445161">
        <ele>1201.007</ele>
        <time>1999-11-30T00:00:00Z</time>
      </trkpt>
      <trkpt lat="40.409704" lon="-1.44508">
        <ele>1200.027</ele>
        <time>1999-11-30T00:00:00Z</time>
      </trkpt>
      <trkpt lat="40.409621" lon="-1.445056">
        <ele>1198.008</ele>
        <time>1999-11-30T00:00:00Z</time>
      </trkpt>
      <trkpt lat="40.409454" lon="-1.445022">
        <ele>1193.060</ele>
        <time>1999-11-30T00:00:00Z</time>
      </trkpt>
      <trkpt lat="40.409307" lon="-1.444961">
        <ele>1189.014</ele>
        <time>1999-11-30T00:00:00Z</time>
      </trkpt>
      <trkpt lat="40.409218" lon="-1.444887">
        <ele>1187.015</ele>
        <time>1999-11-30T00:00:00Z</time>
      </trkpt>
      <trkpt lat="40.409111" lon="-1.444787">
        <ele>1186.039</ele>
        <time>1999-11-30T00:00:00Z</time>
      </trkpt>
      <trkpt lat="40.409047" lon="-1.444763">
        <ele>1185.064</ele>
        <time>1999-11-30T00:00:00Z</time>
      </trkpt>
      <trkpt lat="40.409021" lon="-1.444779">
        <ele>1184.033</ele>
        <time>1999-11-30T00:00:00Z</time>
      </trkpt>
      <trkpt lat="40.408909" lon="-1.444662">
        <ele>1182.014</ele>
        <time>1999-11-30T00:00:00Z</time>
      </trkpt>
      <trkpt lat="40.408848" lon="-1.44461">
        <ele>1181.062</ele>
        <time>1999-11-30T00:00:00Z</time>
      </trkpt>
      <trkpt lat="40.408802" lon="-1.444573">
        <ele>1180.085</ele>
        <time>1999-11-30T00:00:00Z</time>
      </trkpt>
      <trkpt lat="40.408768" lon="-1.444594">
        <ele>1178.089</ele>
        <time>1999-11-30T00:00:00Z</time>
      </trkpt>
      <trkpt lat="40.408676" lon="-1.444476">
        <ele>1177.017</ele>
        <time>1999-11-30T00:00:00Z</time>
      </trkpt>
      <trkpt lat="40.408619" lon="-1.444357">
        <ele>1177.008</ele>
        <time>1999-11-30T00:00:00Z</time>
      </trkpt>
      <trkpt lat="40.408523" lon="-1.444511">
        <ele>1170.089</ele>
        <time>1999-11-30T00:00:00Z</time>
      </trkpt>
      <trkpt lat="40.408504" lon="-1.44454">
        <ele>1169.063</ele>
        <time>1999-11-30T00:00:00Z</time>
      </trkpt>
      <trkpt lat="40.408455" lon="-1.444515">
        <ele>1168.014</ele>
        <time>1999-11-30T00:00:00Z</time>
      </trkpt>
      <trkpt lat="40.408383" lon="-1.444364">
        <ele>1169.098</ele>
        <time>1999-11-30T00:00:00Z</time>
      </trkpt>
      <trkpt lat="40.408291" lon="-1.444218">
        <ele>1169.083</ele>
        <time>1999-11-30T00:00:00Z</time>
      </trkpt>
      <trkpt lat="40.408203" lon="-1.444129">
        <ele>1169.012</ele>
        <time>1999-11-30T00:00:00Z</time>
      </trkpt>
      <trkpt lat="40.408077" lon="-1.444044">
        <ele>1168.043</ele>
        <time>1999-11-30T00:00:00Z</time>
      </trkpt>
      <trkpt lat="40.407989" lon="-1.443924">
        <ele>1167.041</ele>
        <time>1999-11-30T00:00:00Z</time>
      </trkpt>
      <trkpt lat="40.407888" lon="-1.443704">
        <ele>1161.043</ele>
        <time>1999-11-30T00:00:00Z</time>
      </trkpt>
      <trkpt lat="40.407833" lon="-1.443607">
        <ele>1158.064</ele>
        <time>1999-11-30T00:00:00Z</time>
      </trkpt>
      <trkpt lat="40.407721" lon="-1.443477">
        <ele>1154.010</ele>
        <time>1999-11-30T00:00:00Z</time>
      </trkpt>
      <trkpt lat="40.407684" lon="-1.443497">
        <ele>1154.008</ele>
        <time>1999-11-30T00:00:00Z</time>
      </trkpt>
      <trkpt lat="40.407447" lon="-1.443741">
        <ele>1155.075</ele>
        <time>1999-11-30T00:00:00Z</time>
      </trkpt>
      <trkpt lat="40.407275" lon="-1.443774">
        <ele>1150.089</ele>
        <time>1999-11-30T00:00:00Z</time>
      </trkpt>
      <trkpt lat="40.407051" lon="-1.443878">
        <ele>1147.070</ele>
        <time>1999-11-30T00:00:00Z</time>
      </trkpt>
      <trkpt lat="40.40686" lon="-1.443918">
        <ele>1147.074</ele>
        <time>1999-11-30T00:00:00Z</time>
      </trkpt>
      <trkpt lat="40.406674" lon="-1.443919">
        <ele>1147.079</ele>
        <time>1999-11-30T00:00:00Z</time>
      </trkpt>
      <trkpt lat="40.406501" lon="-1.443887">
        <ele>1147.048</ele>
        <time>1999-11-30T00:00:00Z</time>
      </trkpt>
      <trkpt lat="40.406493" lon="-1.443825">
        <ele>1144.059</ele>
        <time>1999-11-30T00:00:00Z</time>
      </trkpt>
      <trkpt lat="40.406493" lon="-1.443825">
        <ele>1144.027</ele>
        <time>1999-11-30T00:00:00Z</time>
      </trkpt>
      <trkpt lat="40.406591" lon="-1.443826">
        <ele>1143.063</ele>
        <time>1999-11-30T00:00:00Z</time>
      </trkpt>
      <trkpt lat="40.406901" lon="-1.443717">
        <ele>1138.044</ele>
        <time>1999-11-30T00:00:00Z</time>
      </trkpt>
      <trkpt lat="40.407291" lon="-1.443456">
        <ele>1139.018</ele>
        <time>1999-11-30T00:00:00Z</time>
      </trkpt>
      <trkpt lat="40.407455" lon="-1.443197">
        <ele>1133.008</ele>
        <time>1999-11-30T00:00:00Z</time>
      </trkpt>
      <trkpt lat="40.407537" lon="-1.443094">
        <ele>1133.067</ele>
        <time>1999-11-30T00:00:00Z</time>
      </trkpt>
      <trkpt lat="40.407665" lon="-1.44282">
        <ele>1129.051</ele>
        <time>1999-11-30T00:00:00Z</time>
      </trkpt>
      <trkpt lat="40.407683" lon="-1.442655">
        <ele>1128.092</ele>
        <time>1999-11-30T00:00:00Z</time>
      </trkpt>
      <trkpt lat="40.407696" lon="-1.442558">
        <ele>1128.076</ele>
        <time>1999-11-30T00:00:00Z</time>
      </trkpt>
      <trkpt lat="40.407684" lon="-1.442389">
        <ele>1127.041</ele>
        <time>1999-11-30T00:00:00Z</time>
      </trkpt>
      <trkpt lat="40.407659" lon="-1.442141">
        <ele>1128.060</ele>
        <time>1999-11-30T00:00:00Z</time>
      </trkpt>
      <trkpt lat="40.407597" lon="-1.441652">
        <ele>1123.061</ele>
        <time>1999-11-30T00:00:00Z</time>
      </trkpt>
      <trkpt lat="40.407611" lon="-1.441253">
        <ele>1121.099</ele>
        <time>1999-11-30T00:00:00Z</time>
      </trkpt>
      <trkpt lat="40.407656" lon="-1.440838">
        <ele>1122.089</ele>
        <time>1999-11-30T00:00:00Z</time>
      </trkpt>
      <trkpt lat="40.407722" lon="-1.440425">
        <ele>1123.006</ele>
        <time>1999-11-30T00:00:00Z</time>
      </trkpt>
      <trkpt lat="40.407772" lon="-1.440191">
        <ele>1122.026</ele>
        <time>1999-11-30T00:00:00Z</time>
      </trkpt>
      <trkpt lat="40.40785" lon="-1.439888">
        <ele>1123.008</ele>
        <time>1999-11-30T00:00:00Z</time>
      </trkpt>
      <trkpt lat="40.407961" lon="-1.439704">
        <ele>1123.039</ele>
        <time>1999-11-30T00:00:00Z</time>
      </trkpt>
      <trkpt lat="40.408059" lon="-1.43955">
        <ele>1123.073</ele>
        <time>1999-11-30T00:00:00Z</time>
      </trkpt>
      <trkpt lat="40.408059" lon="-1.43955">
        <ele>1123.074</ele>
        <time>1999-11-30T00:00:00Z</time>
      </trkpt>
      <trkpt lat="40.408031" lon="-1.439485">
        <ele>1121.048</ele>
        <time>1999-11-30T00:00:00Z</time>
      </trkpt>
      <trkpt lat="40.407897" lon="-1.439367">
        <ele>1119.013</ele>
        <time>1999-11-30T00:00:00Z</time>
      </trkpt>
      <trkpt lat="40.407782" lon="-1.439238">
        <ele>1119.052</ele>
        <time>1999-11-30T00:00:00Z</time>
      </trkpt>
      <trkpt lat="40.40777" lon="-1.438958">
        <ele>1118.033</ele>
        <time>1999-11-30T00:00:00Z</time>
      </trkpt>
      <trkpt lat="40.407791" lon="-1.438766">
        <ele>1117.011</ele>
        <time>1999-11-30T00:00:00Z</time>
      </trkpt>
      <trkpt lat="40.407875" lon="-1.438494">
        <ele>1118.015</ele>
        <time>1999-11-30T00:00:00Z</time>
      </trkpt>
      <trkpt lat="40.408043" lon="-1.437992">
        <ele>1118.065</ele>
        <time>1999-11-30T00:00:00Z</time>
      </trkpt>
      <trkpt lat="40.408252" lon="-1.437466">
        <ele>1119.011</ele>
        <time>1999-11-30T00:00:00Z</time>
      </trkpt>
      <trkpt lat="40.408369" lon="-1.437167">
        <ele>1118.008</ele>
        <time>1999-11-30T00:00:00Z</time>
      </trkpt>
      <trkpt lat="40.408457" lon="-1.436955">
        <ele>1117.072</ele>
        <time>1999-11-30T00:00:00Z</time>
      </trkpt>
      <trkpt lat="40.408588" lon="-1.436627">
        <ele>1117.066</ele>
        <time>1999-11-30T00:00:00Z</time>
      </trkpt>
      <trkpt lat="40.408841" lon="-1.436065">
        <ele>1117.047</ele>
        <time>1999-11-30T00:00:00Z</time>
      </trkpt>
      <trkpt lat="40.409024" lon="-1.43573">
        <ele>1120.011</ele>
        <time>1999-11-30T00:00:00Z</time>
      </trkpt>
      <trkpt lat="40.409247" lon="-1.435417">
        <ele>1122.016</ele>
        <time>1999-11-30T00:00:00Z</time>
      </trkpt>
      <trkpt lat="40.40947" lon="-1.435284">
        <ele>1122.095</ele>
        <time>1999-11-30T00:00:00Z</time>
      </trkpt>
      <trkpt lat="40.40968" lon="-1.435073">
        <ele>1122.086</ele>
        <time>1999-11-30T00:00:00Z</time>
      </trkpt>
      <trkpt lat="40.409768" lon="-1.434822">
        <ele>1124.084</ele>
        <time>1999-11-30T00:00:00Z</time>
      </trkpt>
      <trkpt lat="40.409858" lon="-1.434548">
        <ele>1124.031</ele>
        <time>1999-11-30T00:00:00Z</time>
      </trkpt>
      <trkpt lat="40.409916" lon="-1.434176">
        <ele>1123.061</ele>
        <time>1999-11-30T00:00:00Z</time>
      </trkpt>
      <trkpt lat="40.409879" lon="-1.434027">
        <ele>1124.007</ele>
        <time>1999-11-30T00:00:00Z</time>
      </trkpt>
      <trkpt lat="40.409783" lon="-1.433771">
        <ele>1125.008</ele>
        <time>1999-11-30T00:00:00Z</time>
      </trkpt>
      <trkpt lat="40.409902" lon="-1.43352">
        <ele>1122.084</ele>
        <time>1999-11-30T00:00:00Z</time>
      </trkpt>
      <trkpt lat="40.410232" lon="-1.432533">
        <ele>1121.018</ele>
        <time>1999-11-30T00:00:00Z</time>
      </trkpt>
      <trkpt lat="40.41037" lon="-1.432026">
        <ele>1124.089</ele>
        <time>1999-11-30T00:00:00Z</time>
      </trkpt>
      <trkpt lat="40.410499" lon="-1.43123">
        <ele>1128.073</ele>
        <time>1999-11-30T00:00:00Z</time>
      </trkpt>
      <trkpt lat="40.410604" lon="-1.430459">
        <ele>1129.088</ele>
        <time>1999-11-30T00:00:00Z</time>
      </trkpt>
      <trkpt lat="40.410631" lon="-1.429895">
        <ele>1130.067</ele>
        <time>1999-11-30T00:00:00Z</time>
      </trkpt>
      <trkpt lat="40.410591" lon="-1.42951">
        <ele>1132.018</ele>
        <time>1999-11-30T00:00:00Z</time>
      </trkpt>
      <trkpt lat="40.410543" lon="-1.429261">
        <ele>1134.016</ele>
        <time>1999-11-30T00:00:00Z</time>
      </trkpt>
      <trkpt lat="40.410424" lon="-1.428644">
        <ele>1138.089</ele>
        <time>1999-11-30T00:00:00Z</time>
      </trkpt>
      <trkpt lat="40.410331" lon="-1.427859">
        <ele>1143.006</ele>
        <time>1999-11-30T00:00:00Z</time>
      </trkpt>
      <trkpt lat="40.410275" lon="-1.427461">
        <ele>1145.026</ele>
        <time>1999-11-30T00:00:00Z</time>
      </trkpt>
      <trkpt lat="40.410001" lon="-1.426973">
        <ele>1146.008</ele>
        <time>1999-11-30T00:00:00Z</time>
      </trkpt>
      <trkpt lat="40.40984" lon="-1.426744">
        <ele>1150.099</ele>
        <time>1999-11-30T00:00:00Z</time>
      </trkpt>
      <trkpt lat="40.409721" lon="-1.426652">
        <ele>1153.033</ele>
        <time>1999-11-30T00:00:00Z</time>
      </trkpt>
      <trkpt lat="40.40957" lon="-1.426604">
        <ele>1154.054</ele>
        <time>1999-11-30T00:00:00Z</time>
      </trkpt>
      <trkpt lat="40.409477" lon="-1.426525">
        <ele>1156.088</ele>
        <time>1999-11-30T00:00:00Z</time>
      </trkpt>
      <trkpt lat="40.409351" lon="-1.426345">
        <ele>1159.053</ele>
        <time>1999-11-30T00:00:00Z</time>
      </trkpt>
      <trkpt lat="40.409215" lon="-1.426168">
        <ele>1161.032</ele>
        <time>1999-11-30T00:00:00Z</time>
      </trkpt>
      <trkpt lat="40.409156" lon="-1.426002">
        <ele>1163.033</ele>
        <time>1999-11-30T00:00:00Z</time>
      </trkpt>
      <trkpt lat="40.409113" lon="-1.425711">
        <ele>1165.061</ele>
        <time>1999-11-30T00:00:00Z</time>
      </trkpt>
      <trkpt lat="40.409109" lon="-1.425377">
        <ele>1169.018</ele>
        <time>1999-11-30T00:00:00Z</time>
      </trkpt>
      <trkpt lat="40.409161" lon="-1.425287">
        <ele>1172.098</ele>
        <time>1999-11-30T00:00:00Z</time>
      </trkpt>
      <trkpt lat="40.409211" lon="-1.425277">
        <ele>1173.017</ele>
        <time>1999-11-30T00:00:00Z</time>
      </trkpt>
      <trkpt lat="40.409241" lon="-1.425432">
        <ele>1172.008</ele>
        <time>1999-11-30T00:00:00Z</time>
      </trkpt>
      <trkpt lat="40.409299" lon="-1.425509">
        <ele>1172.082</ele>
        <time>1999-11-30T00:00:00Z</time>
      </trkpt>
      <trkpt lat="40.409391" lon="-1.425443">
        <ele>1173.026</ele>
        <time>1999-11-30T00:00:00Z</time>
      </trkpt>
      <trkpt lat="40.409447" lon="-1.425361">
        <ele>1175.057</ele>
        <time>1999-11-30T00:00:00Z</time>
      </trkpt>
      <trkpt lat="40.409464" lon="-1.425153">
        <ele>1177.011</ele>
        <time>1999-11-30T00:00:00Z</time>
      </trkpt>
      <trkpt lat="40.409479" lon="-1.424881">
        <ele>1181.076</ele>
        <time>1999-11-30T00:00:00Z</time>
      </trkpt>
      <trkpt lat="40.409442" lon="-1.424611">
        <ele>1184.065</ele>
        <time>1999-11-30T00:00:00Z</time>
      </trkpt>
      <trkpt lat="40.409361" lon="-1.424322">
        <ele>1185.096</ele>
        <time>1999-11-30T00:00:00Z</time>
      </trkpt>
      <trkpt lat="40.409366" lon="-1.424">
        <ele>1187.094</ele>
        <time>1999-11-30T00:00:00Z</time>
      </trkpt>
      <trkpt lat="40.409388" lon="-1.423686">
        <ele>1191.015</ele>
        <time>1999-11-30T00:00:00Z</time>
      </trkpt>
      <trkpt lat="40.409368" lon="-1.423512">
        <ele>1193.065</ele>
        <time>1999-11-30T00:00:00Z</time>
      </trkpt>
      <trkpt lat="40.409279" lon="-1.423433">
        <ele>1194.011</ele>
        <time>1999-11-30T00:00:00Z</time>
      </trkpt>
      <trkpt lat="40.409066" lon="-1.423345">
        <ele>1195.008</ele>
        <time>1999-11-30T00:00:00Z</time>
      </trkpt>
      <trkpt lat="40.408971" lon="-1.423285">
        <ele>1196.052</ele>
        <time>1999-11-30T00:00:00Z</time>
      </trkpt>
      <trkpt lat="40.408916" lon="-1.423167">
        <ele>1198.056</ele>
        <time>1999-11-30T00:00:00Z</time>
      </trkpt>
      <trkpt lat="40.408853" lon="-1.422909">
        <ele>1201.057</ele>
        <time>1999-11-30T00:00:00Z</time>
      </trkpt>
      <trkpt lat="40.408839" lon="-1.422761">
        <ele>1203.061</ele>
        <time>1999-11-30T00:00:00Z</time>
      </trkpt>
      <trkpt lat="40.40889" lon="-1.422726">
        <ele>1204.066</ele>
        <time>1999-11-30T00:00:00Z</time>
      </trkpt>
      <trkpt lat="40.408981" lon="-1.422776">
        <ele>1205.085</ele>
        <time>1999-11-30T00:00:00Z</time>
      </trkpt>
      <trkpt lat="40.409072" lon="-1.422763">
        <ele>1207.026</ele>
        <time>1999-11-30T00:00:00Z</time>
      </trkpt>
      <trkpt lat="40.409076" lon="-1.422571">
        <ele>1210.044</ele>
        <time>1999-11-30T00:00:00Z</time>
      </trkpt>
      <trkpt lat="40.40901" lon="-1.422366">
        <ele>1210.079</ele>
        <time>1999-11-30T00:00:00Z</time>
      </trkpt>
      <trkpt lat="40.409085" lon="-1.422155">
        <ele>1213.005</ele>
        <time>1999-11-30T00:00:00Z</time>
      </trkpt>
      <trkpt lat="40.409207" lon="-1.42188">
        <ele>1219.025</ele>
        <time>1999-11-30T00:00:00Z</time>
      </trkpt>
      <trkpt lat="40.409235" lon="-1.421632">
        <ele>1222.008</ele>
        <time>1999-11-30T00:00:00Z</time>
      </trkpt>
      <trkpt lat="40.409068" lon="-1.421435">
        <ele>1220.098</ele>
        <time>1999-11-30T00:00:00Z</time>
      </trkpt>
      <trkpt lat="40.408829" lon="-1.421316">
        <ele>1222.012</ele>
        <time>1999-11-30T00:00:00Z</time>
      </trkpt>
      <trkpt lat="40.408666" lon="-1.42117">
        <ele>1226.023</ele>
        <time>1999-11-30T00:00:00Z</time>
      </trkpt>
      <trkpt lat="40.408524" lon="-1.421062">
        <ele>1227.077</ele>
        <time>1999-11-30T00:00:00Z</time>
      </trkpt>
      <trkpt lat="40.408378" lon="-1.4209">
        <ele>1228.062</ele>
        <time>1999-11-30T00:00:00Z</time>
      </trkpt>
      <trkpt lat="40.40834" lon="-1.420659">
        <ele>1230.081</ele>
        <time>1999-11-30T00:00:00Z</time>
      </trkpt>
      <trkpt lat="40.408337" lon="-1.420207">
        <ele>1232.082</ele>
        <time>1999-11-30T00:00:00Z</time>
      </trkpt>
      <trkpt lat="40.408371" lon="-1.419991">
        <ele>1235.020</ele>
        <time>1999-11-30T00:00:00Z</time>
      </trkpt>
      <trkpt lat="40.408478" lon="-1.419722">
        <ele>1237.068</ele>
        <time>1999-11-30T00:00:00Z</time>
      </trkpt>
      <trkpt lat="40.408583" lon="-1.419542">
        <ele>1238.042</ele>
        <time>1999-11-30T00:00:00Z</time>
      </trkpt>
      <trkpt lat="40.408686" lon="-1.419383">
        <ele>1238.026</ele>
        <time>1999-11-30T00:00:00Z</time>
      </trkpt>
      <trkpt lat="40.408859" lon="-1.419231">
        <ele>1241.008</ele>
        <time>1999-11-30T00:00:00Z</time>
      </trkpt>
      <trkpt lat="40.40893" lon="-1.419014">
        <ele>1242.037</ele>
        <time>1999-11-30T00:00:00Z</time>
      </trkpt>
      <trkpt lat="40.409026" lon="-1.418778">
        <ele>1245.031</ele>
        <time>1999-11-30T00:00:00Z</time>
      </trkpt>
      <trkpt lat="40.409133" lon="-1.418635">
        <ele>1248.042</ele>
        <time>1999-11-30T00:00:00Z</time>
      </trkpt>
      <trkpt lat="40.409165" lon="-1.418382">
        <ele>1250.086</ele>
        <time>1999-11-30T00:00:00Z</time>
      </trkpt>
      <trkpt lat="40.409165" lon="-1.418186">
        <ele>1252.071</ele>
        <time>1999-11-30T00:00:00Z</time>
      </trkpt>
      <trkpt lat="40.40913" lon="-1.418101">
        <ele>1252.030</ele>
        <time>1999-11-30T00:00:00Z</time>
      </trkpt>
      <trkpt lat="40.409037" lon="-1.418118">
        <ele>1250.041</ele>
        <time>1999-11-30T00:00:00Z</time>
      </trkpt>
      <trkpt lat="40.408814" lon="-1.41822">
        <ele>1248.019</ele>
        <time>1999-11-30T00:00:00Z</time>
      </trkpt>
      <trkpt lat="40.408688" lon="-1.418282">
        <ele>1248.059</ele>
        <time>1999-11-30T00:00:00Z</time>
      </trkpt>
      <trkpt lat="40.408594" lon="-1.418296">
        <ele>1248.003</ele>
        <time>1999-11-30T00:00:00Z</time>
      </trkpt>
      <trkpt lat="40.408485" lon="-1.418194">
        <ele>1249.023</ele>
        <time>1999-11-30T00:00:00Z</time>
      </trkpt>
      <trkpt lat="40.408378" lon="-1.417985">
        <ele>1250.008</ele>
        <time>1999-11-30T00:00:00Z</time>
      </trkpt>
      <trkpt lat="40.408276" lon="-1.417865">
        <ele>1250.016</ele>
        <time>1999-11-30T00:00:00Z</time>
      </trkpt>
      <trkpt lat="40.408108" lon="-1.41774">
        <ele>1251.080</ele>
        <time>1999-11-30T00:00:00Z</time>
      </trkpt>
      <trkpt lat="40.408004" lon="-1.417616">
        <ele>1252.091</ele>
        <time>1999-11-30T00:00:00Z</time>
      </trkpt>
      <trkpt lat="40.40767" lon="-1.417027">
        <ele>1258.035</ele>
        <time>1999-11-30T00:00:00Z</time>
      </trkpt>
      <trkpt lat="40.407546" lon="-1.416739">
        <ele>1261.010</ele>
        <time>1999-11-30T00:00:00Z</time>
      </trkpt>
      <trkpt lat="40.407369" lon="-1.41656">
        <ele>1262.059</ele>
        <time>1999-11-30T00:00:00Z</time>
      </trkpt>
      <trkpt lat="40.407147" lon="-1.416483">
        <ele>1265.090</ele>
        <time>1999-11-30T00:00:00Z</time>
      </trkpt>
      <trkpt lat="40.406974" lon="-1.41648">
        <ele>1267.078</ele>
        <time>1999-11-30T00:00:00Z</time>
      </trkpt>
      <trkpt lat="40.406782" lon="-1.416292">
        <ele>1271.083</ele>
        <time>1999-11-30T00:00:00Z</time>
      </trkpt>
      <trkpt lat="40.406604" lon="-1.416207">
        <ele>1273.025</ele>
        <time>1999-11-30T00:00:00Z</time>
      </trkpt>
      <trkpt lat="40.406435" lon="-1.416063">
        <ele>1276.017</ele>
        <time>1999-11-30T00:00:00Z</time>
      </trkpt>
      <trkpt lat="40.406288" lon="-1.416062">
        <ele>1276.008</ele>
        <time>1999-11-30T00:00:00Z</time>
      </trkpt>
      <trkpt lat="40.406174" lon="-1.416035">
        <ele>1277.029</ele>
        <time>1999-11-30T00:00:00Z</time>
      </trkpt>
      <trkpt lat="40.406082" lon="-1.415951">
        <ele>1279.063</ele>
        <time>1999-11-30T00:00:00Z</time>
      </trkpt>
      <trkpt lat="40.406055" lon="-1.415859">
        <ele>1280.024</ele>
        <time>1999-11-30T00:00:00Z</time>
      </trkpt>
      <trkpt lat="40.406164" lon="-1.415713">
        <ele>1283.038</ele>
        <time>1999-11-30T00:00:00Z</time>
      </trkpt>
      <trkpt lat="40.406218" lon="-1.415526">
        <ele>1287.023</ele>
        <time>1999-11-30T00:00:00Z</time>
      </trkpt>
      <trkpt lat="40.406395" lon="-1.415374">
        <ele>1290.042</ele>
        <time>1999-11-30T00:00:00Z</time>
      </trkpt>
      <trkpt lat="40.406613" lon="-1.415161">
        <ele>1294.093</ele>
        <time>1999-11-30T00:00:00Z</time>
      </trkpt>
      <trkpt lat="40.406716" lon="-1.414999">
        <ele>1297.081</ele>
        <time>1999-11-30T00:00:00Z</time>
      </trkpt>
      <trkpt lat="40.40676" lon="-1.414824">
        <ele>1299.069</ele>
        <time>1999-11-30T00:00:00Z</time>
      </trkpt>
      <trkpt lat="40.40695" lon="-1.414578">
        <ele>1303.004</ele>
        <time>1999-11-30T00:00:00Z</time>
      </trkpt>
      <trkpt lat="40.407099" lon="-1.414211">
        <ele>1308.024</ele>
        <time>1999-11-30T00:00:00Z</time>
      </trkpt>
      <trkpt lat="40.407153" lon="-1.413801">
        <ele>1311.008</ele>
        <time>1999-11-30T00:00:00Z</time>
      </trkpt>
      <trkpt lat="40.407408" lon="-1.413567">
        <ele>1310.037</ele>
        <time>1999-11-30T00:00:00Z</time>
      </trkpt>
      <trkpt lat="40.407545" lon="-1.413467">
        <ele>1307.071</ele>
        <time>1999-11-30T00:00:00Z</time>
      </trkpt>
      <trkpt lat="40.407652" lon="-1.41342">
        <ele>1305.072</ele>
        <time>1999-11-30T00:00:00Z</time>
      </trkpt>
      <trkpt lat="40.407705" lon="-1.41336">
        <ele>1306.026</ele>
        <time>1999-11-30T00:00:00Z</time>
      </trkpt>
      <trkpt lat="40.407704" lon="-1.413237">
        <ele>1306.051</ele>
        <time>1999-11-30T00:00:00Z</time>
      </trkpt>
      <trkpt lat="40.407729" lon="-1.412961">
        <ele>1305.050</ele>
        <time>1999-11-30T00:00:00Z</time>
      </trkpt>
      <trkpt lat="40.407675" lon="-1.412523">
        <ele>1303.021</ele>
        <time>1999-11-30T00:00:00Z</time>
      </trkpt>
      <trkpt lat="40.407706" lon="-1.412236">
        <ele>1303.079</ele>
        <time>1999-11-30T00:00:00Z</time>
      </trkpt>
      <trkpt lat="40.407729" lon="-1.412058">
        <ele>1301.071</ele>
        <time>1999-11-30T00:00:00Z</time>
      </trkpt>
      <trkpt lat="40.407982" lon="-1.411866">
        <ele>1299.041</ele>
        <time>1999-11-30T00:00:00Z</time>
      </trkpt>
      <trkpt lat="40.408173" lon="-1.41181">
        <ele>1296.015</ele>
        <time>1999-11-30T00:00:00Z</time>
      </trkpt>
      <trkpt lat="40.408361" lon="-1.411832">
        <ele>1297.008</ele>
        <time>1999-11-30T00:00:00Z</time>
      </trkpt>
      <trkpt lat="40.408488" lon="-1.411824">
        <ele>1299.068</ele>
        <time>1999-11-30T00:00:00Z</time>
      </trkpt>
      <trkpt lat="40.408552" lon="-1.411746">
        <ele>1298.052</ele>
        <time>1999-11-30T00:00:00Z</time>
      </trkpt>
      <trkpt lat="40.408639" lon="-1.411499">
        <ele>1298.023</ele>
        <time>1999-11-30T00:00:00Z</time>
      </trkpt>
      <trkpt lat="40.408686" lon="-1.411307">
        <ele>1297.027</ele>
        <time>1999-11-30T00:00:00Z</time>
      </trkpt>
      <trkpt lat="40.408777" lon="-1.410905">
        <ele>1296.092</ele>
        <time>1999-11-30T00:00:00Z</time>
      </trkpt>
      <trkpt lat="40.408832" lon="-1.41054">
        <ele>1297.071</ele>
        <time>1999-11-30T00:00:00Z</time>
      </trkpt>
      <trkpt lat="40.408902" lon="-1.410306">
        <ele>1297.012</ele>
        <time>1999-11-30T00:00:00Z</time>
      </trkpt>
      <trkpt lat="40.409071" lon="-1.410113">
        <ele>1299.070</ele>
        <time>1999-11-30T00:00:00Z</time>
      </trkpt>
      <trkpt lat="40.409106" lon="-1.409968">
        <ele>1298.049</ele>
        <time>1999-11-30T00:00:00Z</time>
      </trkpt>
      <trkpt lat="40.409104" lon="-1.409812">
        <ele>1298.002</ele>
        <time>1999-11-30T00:00:00Z</time>
      </trkpt>
      <trkpt lat="40.409068" lon="-1.409696">
        <ele>1297.022</ele>
        <time>1999-11-30T00:00:00Z</time>
      </trkpt>
      <trkpt lat="40.408957" lon="-1.409453">
        <ele>1296.008</ele>
        <time>1999-11-30T00:00:00Z</time>
      </trkpt>
      <trkpt lat="40.408912" lon="-1.409166">
        <ele>1296.065</ele>
        <time>1999-11-30T00:00:00Z</time>
      </trkpt>
      <trkpt lat="40.408846" lon="-1.408799">
        <ele>1295.089</ele>
        <time>1999-11-30T00:00:00Z</time>
      </trkpt>
      <trkpt lat="40.408804" lon="-1.408338">
        <ele>1294.030</ele>
        <time>1999-11-30T00:00:00Z</time>
      </trkpt>
      <trkpt lat="40.408808" lon="-1.408059">
        <ele>1294.014</ele>
        <time>1999-11-30T00:00:00Z</time>
      </trkpt>
      <trkpt lat="40.408765" lon="-1.407928">
        <ele>1293.099</ele>
        <time>1999-11-30T00:00:00Z</time>
      </trkpt>
      <trkpt lat="40.40866" lon="-1.407668">
        <ele>1293.028</ele>
        <time>1999-11-30T00:00:00Z</time>
      </trkpt>
      <trkpt lat="40.408504" lon="-1.407172">
        <ele>1293.029</ele>
        <time>1999-11-30T00:00:00Z</time>
      </trkpt>
      <trkpt lat="40.408386" lon="-1.406738">
        <ele>1291.047</ele>
        <time>1999-11-30T00:00:00Z</time>
      </trkpt>
      <trkpt lat="40.408406" lon="-1.40646">
        <ele>1291.055</ele>
        <time>1999-11-30T00:00:00Z</time>
      </trkpt>
      <trkpt lat="40.408452" lon="-1.406172">
        <ele>1289.007</ele>
        <time>1999-11-30T00:00:00Z</time>
      </trkpt>
      <trkpt lat="40.408534" lon="-1.40568">
        <ele>1284.017</ele>
        <time>1999-11-30T00:00:00Z</time>
      </trkpt>
      <trkpt lat="40.408663" lon="-1.40541">
        <ele>1282.008</ele>
        <time>1999-11-30T00:00:00Z</time>
      </trkpt>
      <trkpt lat="40.408963" lon="-1.404932">
        <ele>1275.016</ele>
        <time>1999-11-30T00:00:00Z</time>
      </trkpt>
      <trkpt lat="40.409116" lon="-1.404696">
        <ele>1273.010</ele>
        <time>1999-11-30T00:00:00Z</time>
      </trkpt>
      <trkpt lat="40.409183" lon="-1.404486">
        <ele>1272.051</ele>
        <time>1999-11-30T00:00:00Z</time>
      </trkpt>
      <trkpt lat="40.409214" lon="-1.404205">
        <ele>1269.095</ele>
        <time>1999-11-30T00:00:00Z</time>
      </trkpt>
      <trkpt lat="40.409228" lon="-1.403889">
        <ele>1267.090</ele>
        <time>1999-11-30T00:00:00Z</time>
      </trkpt>
      <trkpt lat="40.409149" lon="-1.403636">
        <ele>1263.079</ele>
        <time>1999-11-30T00:00:00Z</time>
      </trkpt>
      <trkpt lat="40.409112" lon="-1.403198">
        <ele>1261.040</ele>
        <time>1999-11-30T00:00:00Z</time>
      </trkpt>
      <trkpt lat="40.409029" lon="-1.402903">
        <ele>1259.088</ele>
        <time>1999-11-30T00:00:00Z</time>
      </trkpt>
      <trkpt lat="40.408867" lon="-1.402728">
        <ele>1255.037</ele>
        <time>1999-11-30T00:00:00Z</time>
      </trkpt>
      <trkpt lat="40.408672" lon="-1.402677">
        <ele>1251.049</ele>
        <time>1999-11-30T00:00:00Z</time>
      </trkpt>
      <trkpt lat="40.408559" lon="-1.40257">
        <ele>1250.013</ele>
        <time>1999-11-30T00:00:00Z</time>
      </trkpt>
      <trkpt lat="40.408446" lon="-1.402394">
        <ele>1249.008</ele>
        <time>1999-11-30T00:00:00Z</time>
      </trkpt>
      <trkpt lat="40.40839" lon="-1.402188">
        <ele>1249.084</ele>
        <time>1999-11-30T00:00:00Z</time>
      </trkpt>
      <trkpt lat="40.408384" lon="-1.402006">
        <ele>1248.058</ele>
        <time>1999-11-30T00:00:00Z</time>
      </trkpt>
      <trkpt lat="40.408393" lon="-1.401899">
        <ele>1247.049</ele>
        <time>1999-11-30T00:00:00Z</time>
      </trkpt>
      <trkpt lat="40.408522" lon="-1.401495">
        <ele>1246.093</ele>
        <time>1999-11-30T00:00:00Z</time>
      </trkpt>
      <trkpt lat="40.408659" lon="-1.401195">
        <ele>1242.038</ele>
        <time>1999-11-30T00:00:00Z</time>
      </trkpt>
      <trkpt lat="40.408768" lon="-1.401096">
        <ele>1239.067</ele>
        <time>1999-11-30T00:00:00Z</time>
      </trkpt>
      <trkpt lat="40.408978" lon="-1.401084">
        <ele>1237.058</ele>
        <time>1999-11-30T00:00:00Z</time>
      </trkpt>
      <trkpt lat="40.409165" lon="-1.401106">
        <ele>1234.046</ele>
        <time>1999-11-30T00:00:00Z</time>
      </trkpt>
      <trkpt lat="40.409337" lon="-1.401179">
        <ele>1231.067</ele>
        <time>1999-11-30T00:00:00Z</time>
      </trkpt>
      <trkpt lat="40.409408" lon="-1.401263">
        <ele>1232.081</ele>
        <time>1999-11-30T00:00:00Z</time>
      </trkpt>
      <trkpt lat="40.409447" lon="-1.401351">
        <ele>1232.019</ele>
        <time>1999-11-30T00:00:00Z</time>
      </trkpt>
      <trkpt lat="40.409504" lon="-1.401461">
        <ele>1232.008</ele>
        <time>1999-11-30T00:00:00Z</time>
      </trkpt>
      <trkpt lat="40.409577" lon="-1.401448">
        <ele>1232.097</ele>
        <time>1999-11-30T00:00:00Z</time>
      </trkpt>
      <trkpt lat="40.409594" lon="-1.401348">
        <ele>1231.021</ele>
        <time>1999-11-30T00:00:00Z</time>
      </trkpt>
      <trkpt lat="40.409623" lon="-1.40122">
        <ele>1230.042</ele>
        <time>1999-11-30T00:00:00Z</time>
      </trkpt>
      <trkpt lat="40.409695" lon="-1.401163">
        <ele>1230.086</ele>
        <time>1999-11-30T00:00:00Z</time>
      </trkpt>
      <trkpt lat="40.409769" lon="-1.401128">
        <ele>1230.061</ele>
        <time>1999-11-30T00:00:00Z</time>
      </trkpt>
      <trkpt lat="40.409796" lon="-1.400979">
        <ele>1231.060</ele>
        <time>1999-11-30T00:00:00Z</time>
      </trkpt>
      <trkpt lat="40.409777" lon="-1.400702">
        <ele>1232.081</ele>
        <time>1999-11-30T00:00:00Z</time>
      </trkpt>
      <trkpt lat="40.409722" lon="-1.40057">
        <ele>1233.029</ele>
        <time>1999-11-30T00:00:00Z</time>
      </trkpt>
      <trkpt lat="40.409649" lon="-1.400423">
        <ele>1235.043</ele>
        <time>1999-11-30T00:00:00Z</time>
      </trkpt>
      <trkpt lat="40.409572" lon="-1.400355">
        <ele>1235.064</ele>
        <time>1999-11-30T00:00:00Z</time>
      </trkpt>
      <trkpt lat="40.409399" lon="-1.399999">
        <ele>1236.010</ele>
        <time>1999-11-30T00:00:00Z</time>
      </trkpt>
      <trkpt lat="40.409266" lon="-1.399742">
        <ele>1235.008</ele>
        <time>1999-11-30T00:00:00Z</time>
      </trkpt>
      <trkpt lat="40.409165" lon="-1.399471">
        <ele>1234.015</ele>
        <time>1999-11-30T00:00:00Z</time>
      </trkpt>
      <trkpt lat="40.409127" lon="-1.399249">
        <ele>1233.099</ele>
        <time>1999-11-30T00:00:00Z</time>
      </trkpt>
      <trkpt lat="40.409137" lon="-1.398823">
        <ele>1234.040</ele>
        <time>1999-11-30T00:00:00Z</time>
      </trkpt>
      <trkpt lat="40.409085" lon="-1.398546">
        <ele>1233.034</ele>
        <time>1999-11-30T00:00:00Z</time>
      </trkpt>
      <trkpt lat="40.409102" lon="-1.398178">
        <ele>1234.039</ele>
        <time>1999-11-30T00:00:00Z</time>
      </trkpt>
      <trkpt lat="40.409165" lon="-1.397782">
        <ele>1235.048</ele>
        <time>1999-11-30T00:00:00Z</time>
      </trkpt>
      <trkpt lat="40.409182" lon="-1.397553">
        <ele>1235.069</ele>
        <time>1999-11-30T00:00:00Z</time>
      </trkpt>
      <trkpt lat="40.409173" lon="-1.397443">
        <ele>1233.027</ele>
        <time>1999-11-30T00:00:00Z</time>
      </trkpt>
      <trkpt lat="40.409347" lon="-1.396804">
        <ele>1233.052</ele>
        <time>1999-11-30T00:00:00Z</time>
      </trkpt>
      <trkpt lat="40.409472" lon="-1.396424">
        <ele>1234.053</ele>
        <time>1999-11-30T00:00:00Z</time>
      </trkpt>
      <trkpt lat="40.409514" lon="-1.396203">
        <ele>1235.008</ele>
        <time>1999-11-30T00:00:00Z</time>
      </trkpt>
      <trkpt lat="40.409477" lon="-1.396016">
        <ele>1234.008</ele>
        <time>1999-11-30T00:00:00Z</time>
      </trkpt>
      <trkpt lat="40.409493" lon="-1.395708">
        <ele>1233.046</ele>
        <time>1999-11-30T00:00:00Z</time>
      </trkpt>
      <trkpt lat="40.409605" lon="-1.395022">
        <ele>1220.030</ele>
        <time>1999-11-30T00:00:00Z</time>
      </trkpt>
      <trkpt lat="40.409746" lon="-1.394793">
        <ele>1215.041</ele>
        <time>1999-11-30T00:00:00Z</time>
      </trkpt>
      <trkpt lat="40.409858" lon="-1.394664">
        <ele>1213.045</ele>
        <time>1999-11-30T00:00:00Z</time>
      </trkpt>
      <trkpt lat="40.409932" lon="-1.394634">
        <ele>1213.060</ele>
        <time>1999-11-30T00:00:00Z</time>
      </trkpt>
      <trkpt lat="40.409987" lon="-1.394558">
        <ele>1213.099</ele>
        <time>1999-11-30T00:00:00Z</time>
      </trkpt>
      <trkpt lat="40.41001" lon="-1.39439">
        <ele>1212.010</ele>
        <time>1999-11-30T00:00:00Z</time>
      </trkpt>
      <trkpt lat="40.409959" lon="-1.394155">
        <ele>1211.028</ele>
        <time>1999-11-30T00:00:00Z</time>
      </trkpt>
      <trkpt lat="40.409897" lon="-1.393926">
        <ele>1210.054</ele>
        <time>1999-11-30T00:00:00Z</time>
      </trkpt>
      <trkpt lat="40.40987" lon="-1.393785">
        <ele>1209.056</ele>
        <time>1999-11-30T00:00:00Z</time>
      </trkpt>
      <trkpt lat="40.409869" lon="-1.393656">
        <ele>1208.011</ele>
        <time>1999-11-30T00:00:00Z</time>
      </trkpt>
      <trkpt lat="40.409899" lon="-1.393495">
        <ele>1207.008</ele>
        <time>1999-11-30T00:00:00Z</time>
      </trkpt>
      <trkpt lat="40.409972" lon="-1.393302">
        <ele>1206.016</ele>
        <time>1999-11-30T00:00:00Z</time>
      </trkpt>
      <trkpt lat="40.410065" lon="-1.393084">
        <ele>1204.020</ele>
        <time>1999-11-30T00:00:00Z</time>
      </trkpt>
      <trkpt lat="40.410185" lon="-1.392744">
        <ele>1201.021</ele>
        <time>1999-11-30T00:00:00Z</time>
      </trkpt>
      <trkpt lat="40.410269" lon="-1.392467">
        <ele>1198.065</ele>
        <time>1999-11-30T00:00:00Z</time>
      </trkpt>
      <trkpt lat="40.410315" lon="-1.392284">
        <ele>1196.060</ele>
        <time>1999-11-30T00:00:00Z</time>
      </trkpt>
      <trkpt lat="40.410317" lon="-1.392052">
        <ele>1194.029</ele>
        <time>1999-11-30T00:00:00Z</time>
      </trkpt>
      <trkpt lat="40.410264" lon="-1.391628">
        <ele>1188.090</ele>
        <time>1999-11-30T00:00:00Z</time>
      </trkpt>
      <trkpt lat="40.410359" lon="-1.391382">
        <ele>1185.098</ele>
        <time>1999-11-30T00:00:00Z</time>
      </trkpt>
      <trkpt lat="40.41044" lon="-1.391232">
        <ele>1183.097</ele>
        <time>1999-11-30T00:00:00Z</time>
      </trkpt>
      <trkpt lat="40.410525" lon="-1.391165">
        <ele>1181.023</ele>
        <time>1999-11-30T00:00:00Z</time>
      </trkpt>
      <trkpt lat="40.410668" lon="-1.391182">
        <ele>1181.025</ele>
        <time>1999-11-30T00:00:00Z</time>
      </trkpt>
      <trkpt lat="40.410787" lon="-1.391139">
        <ele>1180.008</ele>
        <time>1999-11-30T00:00:00Z</time>
      </trkpt>
      <trkpt lat="40.410864" lon="-1.390992">
        <ele>1178.090</ele>
        <time>1999-11-30T00:00:00Z</time>
      </trkpt>
      <trkpt lat="40.410946" lon="-1.390885">
        <ele>1177.024</ele>
        <time>1999-11-30T00:00:00Z</time>
      </trkpt>
      <trkpt lat="40.410966" lon="-1.390751">
        <ele>1176.035</ele>
        <time>1999-11-30T00:00:00Z</time>
      </trkpt>
      <trkpt lat="40.410966" lon="-1.390536">
        <ele>1173.099</ele>
        <time>1999-11-30T00:00:00Z</time>
      </trkpt>
      <trkpt lat="40.410906" lon="-1.390236">
        <ele>1170.094</ele>
        <time>1999-11-30T00:00:00Z</time>
      </trkpt>
      <trkpt lat="40.410812" lon="-1.389988">
        <ele>1168.093</ele>
        <time>1999-11-30T00:00:00Z</time>
      </trkpt>
      <trkpt lat="40.410769" lon="-1.389834">
        <ele>1166.014</ele>
        <time>1999-11-30T00:00:00Z</time>
      </trkpt>
      <trkpt lat="40.410747" lon="-1.38969">
        <ele>1164.052</ele>
        <time>1999-11-30T00:00:00Z</time>
      </trkpt>
      <trkpt lat="40.410763" lon="-1.38942">
        <ele>1161.063</ele>
        <time>1999-11-30T00:00:00Z</time>
      </trkpt>
      <trkpt lat="40.410825" lon="-1.389135">
        <ele>1158.044</ele>
        <time>1999-11-30T00:00:00Z</time>
      </trkpt>
      <trkpt lat="40.410857" lon="-1.388942">
        <ele>1154.018</ele>
        <time>1999-11-30T00:00:00Z</time>
      </trkpt>
      <trkpt lat="40.410824" lon="-1.38872">
        <ele>1150.008</ele>
        <time>1999-11-30T00:00:00Z</time>
      </trkpt>
      <trkpt lat="40.410789" lon="-1.388484">
        <ele>1146.057</ele>
        <time>1999-11-30T00:00:00Z</time>
      </trkpt>
      <trkpt lat="40.410759" lon="-1.388147">
        <ele>1143.031</ele>
        <time>1999-11-30T00:00:00Z</time>
      </trkpt>
      <trkpt lat="40.410699" lon="-1.387956">
        <ele>1139.072</ele>
        <time>1999-11-30T00:00:00Z</time>
      </trkpt>
      <trkpt lat="40.410632" lon="-1.387783">
        <ele>1136.076</ele>
        <time>1999-11-30T00:00:00Z</time>
      </trkpt>
      <trkpt lat="40.410535" lon="-1.387585">
        <ele>1132.091</ele>
        <time>1999-11-30T00:00:00Z</time>
      </trkpt>
      <trkpt lat="40.410492" lon="-1.387336">
        <ele>1130.090</ele>
        <time>1999-11-30T00:00:00Z</time>
      </trkpt>
      <trkpt lat="40.410462" lon="-1.387096">
        <ele>1130.051</ele>
        <time>1999-11-30T00:00:00Z</time>
      </trkpt>
      <trkpt lat="40.410472" lon="-1.38697">
        <ele>1130.059</ele>
        <time>1999-11-30T00:00:00Z</time>
      </trkpt>
      <trkpt lat="40.410493" lon="-1.386863">
        <ele>1129.054</ele>
        <time>1999-11-30T00:00:00Z</time>
      </trkpt>
      <trkpt lat="40.410465" lon="-1.38676">
        <ele>1129.056</ele>
        <time>1999-11-30T00:00:00Z</time>
      </trkpt>
      <trkpt lat="40.410418" lon="-1.386587">
        <ele>1130.011</ele>
        <time>1999-11-30T00:00:00Z</time>
      </trkpt>
      <trkpt lat="40.410344" lon="-1.386249">
        <ele>1130.008</ele>
        <time>1999-11-30T00:00:00Z</time>
      </trkpt>
      <trkpt lat="40.410187" lon="-1.385653">
        <ele>1129.036</ele>
        <time>1999-11-30T00:00:00Z</time>
      </trkpt>
      <trkpt lat="40.409904" lon="-1.384939">
        <ele>1127.030</ele>
        <time>1999-11-30T00:00:00Z</time>
      </trkpt>
      <trkpt lat="40.409697" lon="-1.38439">
        <ele>1125.031</ele>
        <time>1999-11-30T00:00:00Z</time>
      </trkpt>
      <trkpt lat="40.409112" lon="-1.382845">
        <ele>1127.025</ele>
        <time>1999-11-30T00:00:00Z</time>
      </trkpt>
      <trkpt lat="40.408833" lon="-1.381916">
        <ele>1125.090</ele>
        <time>1999-11-30T00:00:00Z</time>
      </trkpt>
      <trkpt lat="40.40875" lon="-1.381379">
        <ele>1124.049</ele>
        <time>1999-11-30T00:00:00Z</time>
      </trkpt>
      <trkpt lat="40.408648" lon="-1.380855">
        <ele>1123.010</ele>
        <time>1999-11-30T00:00:00Z</time>
      </trkpt>
      <trkpt lat="40.40849" lon="-1.380072">
        <ele>1122.098</ele>
        <time>1999-11-30T00:00:00Z</time>
      </trkpt>
      <trkpt lat="40.408406" lon="-1.379545">
        <ele>1121.089</ele>
        <time>1999-11-30T00:00:00Z</time>
      </trkpt>
      <trkpt lat="40.408237" lon="-1.378879">
        <ele>1121.006</ele>
        <time>1999-11-30T00:00:00Z</time>
      </trkpt>
      <trkpt lat="40.40803" lon="-1.378185">
        <ele>1121.026</ele>
        <time>1999-11-30T00:00:00Z</time>
      </trkpt>
      <trkpt lat="40.407865" lon="-1.377863">
        <ele>1121.008</ele>
        <time>1999-11-30T00:00:00Z</time>
      </trkpt>
      <trkpt lat="40.407716" lon="-1.377565">
        <ele>1120.059</ele>
        <time>1999-11-30T00:00:00Z</time>
      </trkpt>
      <trkpt lat="40.407632" lon="-1.377378">
        <ele>1119.023</ele>
        <time>1999-11-30T00:00:00Z</time>
      </trkpt>
      <trkpt lat="40.407609" lon="-1.377257">
        <ele>1118.064</ele>
        <time>1999-11-30T00:00:00Z</time>
      </trkpt>
      <trkpt lat="40.407619" lon="-1.37707">
        <ele>1118.098</ele>
        <time>1999-11-30T00:00:00Z</time>
      </trkpt>
      <trkpt lat="40.407637" lon="-1.376899">
        <ele>1117.033</ele>
        <time>1999-11-30T00:00:00Z</time>
      </trkpt>
      <trkpt lat="40.407537" lon="-1.376241">
        <ele>1113.062</ele>
        <time>1999-11-30T00:00:00Z</time>
      </trkpt>
      <trkpt lat="40.407483" lon="-1.375838">
        <ele>1112.043</ele>
        <time>1999-11-30T00:00:00Z</time>
      </trkpt>
      <trkpt lat="40.407409" lon="-1.375012">
        <ele>1109.041</ele>
        <time>1999-11-30T00:00:00Z</time>
      </trkpt>
      <trkpt lat="40.40735" lon="-1.374116">
        <ele>1108.066</ele>
        <time>1999-11-30T00:00:00Z</time>
      </trkpt>
      <trkpt lat="40.407251" lon="-1.373121">
        <ele>1104.029</ele>
        <time>1999-11-30T00:00:00Z</time>
      </trkpt>
      <trkpt lat="40.407115" lon="-1.372385">
        <ele>1101.021</ele>
        <time>1999-11-30T00:00:00Z</time>
      </trkpt>
      <trkpt lat="40.407075" lon="-1.372118">
        <ele>1100.008</ele>
        <time>1999-11-30T00:00:00Z</time>
      </trkpt>
      <trkpt lat="40.407056" lon="-1.371783">
        <ele>1099.037</ele>
        <time>1999-11-30T00:00:00Z</time>
      </trkpt>
      <trkpt lat="40.407007" lon="-1.371437">
        <ele>1099.011</ele>
        <time>1999-11-30T00:00:00Z</time>
      </trkpt>
      <trkpt lat="40.406956" lon="-1.37115">
        <ele>1099.072</ele>
        <time>1999-11-30T00:00:00Z</time>
      </trkpt>
      <trkpt lat="40.406905" lon="-1.370668">
        <ele>1099.096</ele>
        <time>1999-11-30T00:00:00Z</time>
      </trkpt>
      <trkpt lat="40.406846" lon="-1.370292">
        <ele>1100.081</ele>
        <time>1999-11-30T00:00:00Z</time>
      </trkpt>
      <trkpt lat="40.406759" lon="-1.370064">
        <ele>1100.050</ele>
        <time>1999-11-30T00:00:00Z</time>
      </trkpt>
      <trkpt lat="40.406564" lon="-1.369676">
        <ele>1100.031</ele>
        <time>1999-11-30T00:00:00Z</time>
      </trkpt>
      <trkpt lat="40.406513" lon="-1.369558">
        <ele>1100.059</ele>
        <time>1999-11-30T00:00:00Z</time>
      </trkpt>
      <trkpt lat="40.406493" lon="-1.36939">
        <ele>1100.089</ele>
        <time>1999-11-30T00:00:00Z</time>
      </trkpt>
      <trkpt lat="40.406507" lon="-1.36903">
        <ele>1100.006</ele>
        <time>1999-11-30T00:00:00Z</time>
      </trkpt>
      <trkpt lat="40.406513" lon="-1.368797">
        <ele>1100.026</ele>
        <time>1999-11-30T00:00:00Z</time>
      </trkpt>
      <trkpt lat="40.406519" lon="-1.368526">
        <ele>1100.008</ele>
        <time>1999-11-30T00:00:00Z</time>
      </trkpt>
      <trkpt lat="40.406502" lon="-1.368258">
        <ele>1100.039</ele>
        <time>1999-11-30T00:00:00Z</time>
      </trkpt>
      <trkpt lat="40.406434" lon="-1.367964">
        <ele>1100.063</ele>
        <time>1999-11-30T00:00:00Z</time>
      </trkpt>
      <trkpt lat="40.406245" lon="-1.367455">
        <ele>1100.034</ele>
        <time>1999-11-30T00:00:00Z</time>
      </trkpt>
      <trkpt lat="40.406111" lon="-1.367132">
        <ele>1100.088</ele>
        <time>1999-11-30T00:00:00Z</time>
      </trkpt>
      <trkpt lat="40.405934" lon="-1.366795">
        <ele>1098.013</ele>
        <time>1999-11-30T00:00:00Z</time>
      </trkpt>
      <trkpt lat="40.405749" lon="-1.366443">
        <ele>1094.092</ele>
        <time>1999-11-30T00:00:00Z</time>
      </trkpt>
      <trkpt lat="40.405617" lon="-1.366008">
        <ele>1092.013</ele>
        <time>1999-11-30T00:00:00Z</time>
      </trkpt>
      <trkpt lat="40.405513" lon="-1.365664">
        <ele>1091.071</ele>
        <time>1999-11-30T00:00:00Z</time>
      </trkpt>
      <trkpt lat="40.405503" lon="-1.365441">
        <ele>1090.022</ele>
        <time>1999-11-30T00:00:00Z</time>
      </trkpt>
      <trkpt lat="40.40549" lon="-1.365093">
        <ele>1087.062</ele>
        <time>1999-11-30T00:00:00Z</time>
      </trkpt>
      <trkpt lat="40.405434" lon="-1.364828">
        <ele>1084.008</ele>
        <time>1999-11-30T00:00:00Z</time>
      </trkpt>
      <trkpt lat="40.405319" lon="-1.36452">
        <ele>1079.008</ele>
        <time>1999-11-30T00:00:00Z</time>
      </trkpt>
      <trkpt lat="40.405301" lon="-1.364295">
        <ele>1076.043</ele>
        <time>1999-11-30T00:00:00Z</time>
      </trkpt>
      <trkpt lat="40.405258" lon="-1.363606">
        <ele>1070.017</ele>
        <time>1999-11-30T00:00:00Z</time>
      </trkpt>
      <trkpt lat="40.405187" lon="-1.363116">
        <ele>1068.048</ele>
        <time>1999-11-30T00:00:00Z</time>
      </trkpt>
      <trkpt lat="40.405143" lon="-1.362627">
        <ele>1066.032</ele>
        <time>1999-11-30T00:00:00Z</time>
      </trkpt>
      <trkpt lat="40.405125" lon="-1.36225">
        <ele>1063.027</ele>
        <time>1999-11-30T00:00:00Z</time>
      </trkpt>
      <trkpt lat="40.40508" lon="-1.362124">
        <ele>1062.036</ele>
        <time>1999-11-30T00:00:00Z</time>
      </trkpt>
      <trkpt lat="40.404961" lon="-1.361905">
        <ele>1062.097</ele>
        <time>1999-11-30T00:00:00Z</time>
      </trkpt>
      <trkpt lat="40.404925" lon="-1.361787">
        <ele>1062.095</ele>
        <time>1999-11-30T00:00:00Z</time>
      </trkpt>
      <trkpt lat="40.404941" lon="-1.361569">
        <ele>1062.092</ele>
        <time>1999-11-30T00:00:00Z</time>
      </trkpt>
      <trkpt lat="40.404954" lon="-1.361378">
        <ele>1064.073</ele>
        <time>1999-11-30T00:00:00Z</time>
      </trkpt>
      <trkpt lat="40.404969" lon="-1.361189">
        <ele>1066.020</ele>
        <time>1999-11-30T00:00:00Z</time>
      </trkpt>
      <trkpt lat="40.405027" lon="-1.361114">
        <ele>1067.008</ele>
        <time>1999-11-30T00:00:00Z</time>
      </trkpt>
      <trkpt lat="40.405251" lon="-1.360952">
        <ele>1071.030</ele>
        <time>1999-11-30T00:00:00Z</time>
      </trkpt>
      <trkpt lat="40.405418" lon="-1.360846">
        <ele>1073.034</ele>
        <time>1999-11-30T00:00:00Z</time>
      </trkpt>
      <trkpt lat="40.405483" lon="-1.360754">
        <ele>1075.065</ele>
        <time>1999-11-30T00:00:00Z</time>
      </trkpt>
      <trkpt lat="40.405579" lon="-1.360572">
        <ele>1078.049</ele>
        <time>1999-11-30T00:00:00Z</time>
      </trkpt>
      <trkpt lat="40.405704" lon="-1.36043">
        <ele>1080.074</ele>
        <time>1999-11-30T00:00:00Z</time>
      </trkpt>
      <trkpt lat="40.405887" lon="-1.360378">
        <ele>1081.073</ele>
        <time>1999-11-30T00:00:00Z</time>
      </trkpt>
      <trkpt lat="40.406126" lon="-1.360321">
        <ele>1081.014</ele>
        <time>1999-11-30T00:00:00Z</time>
      </trkpt>
      <trkpt lat="40.406222" lon="-1.360235">
        <ele>1083.082</ele>
        <time>1999-11-30T00:00:00Z</time>
      </trkpt>
      <trkpt lat="40.406325" lon="-1.360005">
        <ele>1086.062</ele>
        <time>1999-11-30T00:00:00Z</time>
      </trkpt>
      <trkpt lat="40.406444" lon="-1.359618">
        <ele>1090.083</ele>
        <time>1999-11-30T00:00:00Z</time>
      </trkpt>
      <trkpt lat="40.406471" lon="-1.35944">
        <ele>1090.011</ele>
        <time>1999-11-30T00:00:00Z</time>
      </trkpt>
      <trkpt lat="40.406444" lon="-1.359094">
        <ele>1089.008</ele>
        <time>1999-11-30T00:00:00Z</time>
      </trkpt>
      <trkpt lat="40.406425" lon="-1.358899">
        <ele>1087.097</ele>
        <time>1999-11-30T00:00:00Z</time>
      </trkpt>
      <trkpt lat="40.406446" lon="-1.358699">
        <ele>1084.091</ele>
        <time>1999-11-30T00:00:00Z</time>
      </trkpt>
      <trkpt lat="40.406535" lon="-1.358449">
        <ele>1080.012</ele>
        <time>1999-11-30T00:00:00Z</time>
      </trkpt>
      <trkpt lat="40.406672" lon="-1.358131">
        <ele>1077.076</ele>
        <time>1999-11-30T00:00:00Z</time>
      </trkpt>
      <trkpt lat="40.406984" lon="-1.35752">
        <ele>1071.031</ele>
        <time>1999-11-30T00:00:00Z</time>
      </trkpt>
      <trkpt lat="40.407239" lon="-1.357131">
        <ele>1068.020</ele>
        <time>1999-11-30T00:00:00Z</time>
      </trkpt>
      <trkpt lat="40.40746" lon="-1.356605">
        <ele>1063.081</ele>
        <time>1999-11-30T00:00:00Z</time>
      </trkpt>
      <trkpt lat="40.407541" lon="-1.356295">
        <ele>1062.019</ele>
        <time>1999-11-30T00:00:00Z</time>
      </trkpt>
      <trkpt lat="40.407556" lon="-1.356011">
        <ele>1061.086</ele>
        <time>1999-11-30T00:00:00Z</time>
      </trkpt>
      <trkpt lat="40.407541" lon="-1.355775">
        <ele>1058.060</ele>
        <time>1999-11-30T00:00:00Z</time>
      </trkpt>
      <trkpt lat="40.407502" lon="-1.355453">
        <ele>1055.026</ele>
        <time>1999-11-30T00:00:00Z</time>
      </trkpt>
      <trkpt lat="40.407522" lon="-1.354915">
        <ele>1050.008</ele>
        <time>1999-11-30T00:00:00Z</time>
      </trkpt>
      <trkpt lat="40.407588" lon="-1.354446">
        <ele>1044.029</ele>
        <time>1999-11-30T00:00:00Z</time>
      </trkpt>
      <trkpt lat="40.407581" lon="-1.353943">
        <ele>1040.013</ele>
        <time>1999-11-30T00:00:00Z</time>
      </trkpt>
      <trkpt lat="40.407604" lon="-1.353815">
        <ele>1042.014</ele>
        <time>1999-11-30T00:00:00Z</time>
      </trkpt>
      <trkpt lat="40.407764" lon="-1.353624">
        <ele>1041.028</ele>
        <time>1999-11-30T00:00:00Z</time>
      </trkpt>
      <trkpt lat="40.407946" lon="-1.353364">
        <ele>1042.093</ele>
        <time>1999-11-30T00:00:00Z</time>
      </trkpt>
      <trkpt lat="40.408067" lon="-1.353043">
        <ele>1043.042</ele>
        <time>1999-11-30T00:00:00Z</time>
      </trkpt>
      <trkpt lat="40.408138" lon="-1.352704">
        <ele>1044.093</ele>
        <time>1999-11-30T00:00:00Z</time>
      </trkpt>
      <trkpt lat="40.40822" lon="-1.352252">
        <ele>1044.081</ele>
        <time>1999-11-30T00:00:00Z</time>
      </trkpt>
      <trkpt lat="40.408355" lon="-1.351665">
        <ele>1044.045</ele>
        <time>1999-11-30T00:00:00Z</time>
      </trkpt>
      <trkpt lat="40.408503" lon="-1.351231">
        <ele>1043.047</ele>
        <time>1999-11-30T00:00:00Z</time>
      </trkpt>
      <trkpt lat="40.408718" lon="-1.350803">
        <ele>1041.011</ele>
        <time>1999-11-30T00:00:00Z</time>
      </trkpt>
      <trkpt lat="40.408992" lon="-1.350311">
        <ele>1040.008</ele>
        <time>1999-11-30T00:00:00Z</time>
      </trkpt>
      <trkpt lat="40.409164" lon="-1.350026">
        <ele>1039.055</ele>
        <time>1999-11-30T00:00:00Z</time>
      </trkpt>
      <trkpt lat="40.409318" lon="-1.349842">
        <ele>1039.099</ele>
        <time>1999-11-30T00:00:00Z</time>
      </trkpt>
      <trkpt lat="40.40954" lon="-1.349594">
        <ele>1035.020</ele>
        <time>1999-11-30T00:00:00Z</time>
      </trkpt>
      <trkpt lat="40.409768" lon="-1.349333">
        <ele>1030.044</ele>
        <time>1999-11-30T00:00:00Z</time>
      </trkpt>
      <trkpt lat="40.410062" lon="-1.34905">
        <ele>1028.029</ele>
        <time>1999-11-30T00:00:00Z</time>
      </trkpt>
      <trkpt lat="40.410324" lon="-1.348871">
        <ele>1029.028</ele>
        <time>1999-11-30T00:00:00Z</time>
      </trkpt>
      <trkpt lat="40.410505" lon="-1.348778">
        <ele>1030.049</ele>
        <time>1999-11-30T00:00:00Z</time>
      </trkpt>
      <trkpt lat="40.410543" lon="-1.348612">
        <ele>1030.017</ele>
        <time>1999-11-30T00:00:00Z</time>
      </trkpt>
      <trkpt lat="40.410653" lon="-1.348275">
        <ele>1031.082</ele>
        <time>1999-11-30T00:00:00Z</time>
      </trkpt>
      <trkpt lat="40.41072" lon="-1.347937">
        <ele>1032.043</ele>
        <time>1999-11-30T00:00:00Z</time>
      </trkpt>
      <trkpt lat="40.410775" lon="-1.347456">
        <ele>1032.017</ele>
        <time>1999-11-30T00:00:00Z</time>
      </trkpt>
      <trkpt lat="40.41074" lon="-1.346956">
        <ele>1031.008</ele>
        <time>1999-11-30T00:00:00Z</time>
      </trkpt>
      <trkpt lat="40.410792" lon="-1.346517">
        <ele>1031.079</ele>
        <time>1999-11-30T00:00:00Z</time>
      </trkpt>
      <trkpt lat="40.410963" lon="-1.345993">
        <ele>1032.013</ele>
        <time>1999-11-30T00:00:00Z</time>
      </trkpt>
      <trkpt lat="40.411156" lon="-1.34537">
        <ele>1034.064</ele>
        <time>1999-11-30T00:00:00Z</time>
      </trkpt>
      <trkpt lat="40.411184" lon="-1.345004">
        <ele>1034.078</ele>
        <time>1999-11-30T00:00:00Z</time>
      </trkpt>
      <trkpt lat="40.411211" lon="-1.344472">
        <ele>1033.093</ele>
        <time>1999-11-30T00:00:00Z</time>
      </trkpt>
      <trkpt lat="40.41129" lon="-1.343499">
        <ele>1034.062</ele>
        <time>1999-11-30T00:00:00Z</time>
      </trkpt>
      <trkpt lat="40.411286" lon="-1.343215">
        <ele>1034.043</ele>
        <time>1999-11-30T00:00:00Z</time>
      </trkpt>
      <trkpt lat="40.411222" lon="-1.342752">
        <ele>1033.081</ele>
        <time>1999-11-30T00:00:00Z</time>
      </trkpt>
      <trkpt lat="40.411131" lon="-1.342217">
        <ele>1031.067</ele>
        <time>1999-11-30T00:00:00Z</time>
      </trkpt>
      <trkpt lat="40.411005" lon="-1.341434">
        <ele>1029.081</ele>
        <time>1999-11-30T00:00:00Z</time>
      </trkpt>
      <trkpt lat="40.410976" lon="-1.34099">
        <ele>1028.019</ele>
        <time>1999-11-30T00:00:00Z</time>
      </trkpt>
      <trkpt lat="40.410978" lon="-1.34059">
        <ele>1027.008</ele>
        <time>1999-11-30T00:00:00Z</time>
      </trkpt>
      <trkpt lat="40.411055" lon="-1.340334">
        <ele>1028.027</ele>
        <time>1999-11-30T00:00:00Z</time>
      </trkpt>
      <trkpt lat="40.411337" lon="-1.33992">
        <ele>1030.031</ele>
        <time>1999-11-30T00:00:00Z</time>
      </trkpt>
      <trkpt lat="40.411683" lon="-1.339427">
        <ele>1031.012</ele>
        <time>1999-11-30T00:00:00Z</time>
      </trkpt>
      <trkpt lat="40.411768" lon="-1.339336">
        <ele>1031.066</ele>
        <time>1999-11-30T00:00:00Z</time>
      </trkpt>
      <trkpt lat="40.411862" lon="-1.339461">
        <ele>1032.081</ele>
        <time>1999-11-30T00:00:00Z</time>
      </trkpt>
      <trkpt lat="40.412015" lon="-1.339539">
        <ele>1033.090</ele>
        <time>1999-11-30T00:00:00Z</time>
      </trkpt>
      <trkpt lat="40.412213" lon="-1.339525">
        <ele>1033.061</ele>
        <time>1999-11-30T00:00:00Z</time>
      </trkpt>
      <trkpt lat="40.412433" lon="-1.339498">
        <ele>1033.059</ele>
        <time>1999-11-30T00:00:00Z</time>
      </trkpt>
      <trkpt lat="40.412711" lon="-1.339497">
        <ele>1034.037</ele>
        <time>1999-11-30T00:00:00Z</time>
      </trkpt>
      <trkpt lat="40.413015" lon="-1.33947">
        <ele>1034.049</ele>
        <time>1999-11-30T00:00:00Z</time>
      </trkpt>
      <trkpt lat="40.413259" lon="-1.339458">
        <ele>1034.013</ele>
        <time>1999-11-30T00:00:00Z</time>
      </trkpt>
      <trkpt lat="40.413448" lon="-1.339498">
        <ele>1035.008</ele>
        <time>1999-11-30T00:00:00Z</time>
      </trkpt>
      <trkpt lat="40.413602" lon="-1.339519">
        <ele>1036.054</ele>
        <time>1999-11-30T00:00:00Z</time>
      </trkpt>
      <trkpt lat="40.413765" lon="-1.339512">
        <ele>1036.028</ele>
        <time>1999-11-30T00:00:00Z</time>
      </trkpt>
      <trkpt lat="40.413959" lon="-1.339431">
        <ele>1037.099</ele>
        <time>1999-11-30T00:00:00Z</time>
      </trkpt>
      <trkpt lat="40.414277" lon="-1.339344">
        <ele>1039.093</ele>
        <time>1999-11-30T00:00:00Z</time>
      </trkpt>
      <trkpt lat="40.414494" lon="-1.339324">
        <ele>1040.028</ele>
        <time>1999-11-30T00:00:00Z</time>
      </trkpt>
      <trkpt lat="40.414627" lon="-1.339317">
        <ele>1040.037</ele>
        <time>1999-11-30T00:00:00Z</time>
      </trkpt>
      <trkpt lat="40.414726" lon="-1.339337">
        <ele>1040.068</ele>
        <time>1999-11-30T00:00:00Z</time>
      </trkpt>
      <trkpt lat="40.41481" lon="-1.339414">
        <ele>1040.036</ele>
        <time>1999-11-30T00:00:00Z</time>
      </trkpt>
      <trkpt lat="40.414864" lon="-1.339507">
        <ele>1041.098</ele>
        <time>1999-11-30T00:00:00Z</time>
      </trkpt>
      <trkpt lat="40.4149" lon="-1.339605">
        <ele>1042.015</ele>
        <time>1999-11-30T00:00:00Z</time>
      </trkpt>
      <trkpt lat="40.414928" lon="-1.339746">
        <ele>1044.026</ele>
        <time>1999-11-30T00:00:00Z</time>
      </trkpt>
      <trkpt lat="40.414906" lon="-1.33987">
        <ele>1046.008</ele>
        <time>1999-11-30T00:00:00Z</time>
      </trkpt>
      <trkpt lat="40.414893" lon="-1.339947">
        <ele>1047.090</ele>
        <time>1999-11-30T00:00:00Z</time>
      </trkpt>
      <trkpt lat="40.414903" lon="-1.340021">
        <ele>1048.034</ele>
        <time>1999-11-30T00:00:00Z</time>
      </trkpt>
      <trkpt lat="40.414969" lon="-1.340061">
        <ele>1047.035</ele>
        <time>1999-11-30T00:00:00Z</time>
      </trkpt>
      <trkpt lat="40.415093" lon="-1.340102">
        <ele>1047.069</ele>
        <time>1999-11-30T00:00:00Z</time>
      </trkpt>
      <trkpt lat="40.415304" lon="-1.340157">
        <ele>1046.094</ele>
        <time>1999-11-30T00:00:00Z</time>
      </trkpt>
      <trkpt lat="40.415511" lon="-1.340253">
        <ele>1046.083</ele>
        <time>1999-11-30T00:00:00Z</time>
      </trkpt>
      <trkpt lat="40.415801" lon="-1.340451">
        <ele>1046.094</ele>
        <time>1999-11-30T00:00:00Z</time>
      </trkpt>
      <trkpt lat="40.416001" lon="-1.340564">
        <ele>1046.042</ele>
        <time>1999-11-30T00:00:00Z</time>
      </trkpt>
      <trkpt lat="40.416181" lon="-1.340648">
        <ele>1046.092</ele>
        <time>1999-11-30T00:00:00Z</time>
      </trkpt>
      <trkpt lat="40.416306" lon="-1.340797">
        <ele>1046.073</ele>
        <time>1999-11-30T00:00:00Z</time>
      </trkpt>
      <trkpt lat="40.41647" lon="-1.341096">
        <ele>1047.020</ele>
        <time>1999-11-30T00:00:00Z</time>
      </trkpt>
      <trkpt lat="40.416637" lon="-1.341418">
        <ele>1050.008</ele>
        <time>1999-11-30T00:00:00Z</time>
      </trkpt>
      <trkpt lat="40.416747" lon="-1.341696">
        <ele>1051.070</ele>
        <time>1999-11-30T00:00:00Z</time>
      </trkpt>
      <trkpt lat="40.416878" lon="-1.342035">
        <ele>1052.054</ele>
        <time>1999-11-30T00:00:00Z</time>
      </trkpt>
      <trkpt lat="40.416977" lon="-1.342241">
        <ele>1053.045</ele>
        <time>1999-11-30T00:00:00Z</time>
      </trkpt>
      <trkpt lat="40.417171" lon="-1.342458">
        <ele>1054.059</ele>
        <time>1999-11-30T00:00:00Z</time>
      </trkpt>
      <trkpt lat="40.4174" lon="-1.342607">
        <ele>1055.074</ele>
        <time>1999-11-30T00:00:00Z</time>
      </trkpt>
      <trkpt lat="40.417696" lon="-1.342666">
        <ele>1057.083</ele>
        <time>1999-11-30T00:00:00Z</time>
      </trkpt>
      <trkpt lat="40.417985" lon="-1.342735">
        <ele>1058.094</ele>
        <time>1999-11-30T00:00:00Z</time>
      </trkpt>
      <trkpt lat="40.418175" lon="-1.342863">
        <ele>1060.062</ele>
        <time>1999-11-30T00:00:00Z</time>
      </trkpt>
      <trkpt lat="40.418578" lon="-1.343001">
        <ele>1062.035</ele>
        <time>1999-11-30T00:00:00Z</time>
      </trkpt>
      <trkpt lat="40.418766" lon="-1.34313">
        <ele>1064.086</ele>
        <time>1999-11-30T00:00:00Z</time>
      </trkpt>
      <trkpt lat="40.418894" lon="-1.343266">
        <ele>1066.014</ele>
        <time>1999-11-30T00:00:00Z</time>
      </trkpt>
      <trkpt lat="40.419" lon="-1.343418">
        <ele>1067.008</ele>
        <time>1999-11-30T00:00:00Z</time>
      </trkpt>
      <trkpt lat="40.419079" lon="-1.343499">
        <ele>1068.014</ele>
        <time>1999-11-30T00:00:00Z</time>
      </trkpt>
      <trkpt lat="40.419146" lon="-1.343516">
        <ele>1068.028</ele>
        <time>1999-11-30T00:00:00Z</time>
      </trkpt>
      <trkpt lat="40.419303" lon="-1.343483">
        <ele>1069.099</ele>
        <time>1999-11-30T00:00:00Z</time>
      </trkpt>
      <trkpt lat="40.419405" lon="-1.3435">
        <ele>1069.043</ele>
        <time>1999-11-30T00:00:00Z</time>
      </trkpt>
      <trkpt lat="40.419512" lon="-1.343539">
        <ele>1070.018</ele>
        <time>1999-11-30T00:00:00Z</time>
      </trkpt>
      <trkpt lat="40.419632" lon="-1.343517">
        <ele>1071.077</ele>
        <time>1999-11-30T00:00:00Z</time>
      </trkpt>
      <trkpt lat="40.41975" lon="-1.343413">
        <ele>1073.028</ele>
        <time>1999-11-30T00:00:00Z</time>
      </trkpt>
      <trkpt lat="40.419882" lon="-1.343254">
        <ele>1077.016</ele>
        <time>1999-11-30T00:00:00Z</time>
      </trkpt>
      <trkpt lat="40.419911" lon="-1.3432">
        <ele>1078.018</ele>
        <time>1999-11-30T00:00:00Z</time>
      </trkpt>
      <trkpt lat="40.419917" lon="-1.343144">
        <ele>1079.098</ele>
        <time>1999-11-30T00:00:00Z</time>
      </trkpt>
      <trkpt lat="40.419742" lon="-1.342929">
        <ele>1079.017</ele>
        <time>1999-11-30T00:00:00Z</time>
      </trkpt>
      <trkpt lat="40.419655" lon="-1.342574">
        <ele>1082.008</ele>
        <time>1999-11-30T00:00:00Z</time>
      </trkpt>
      <trkpt lat="40.419565" lon="-1.342361">
        <ele>1083.092</ele>
        <time>1999-11-30T00:00:00Z</time>
      </trkpt>
      <trkpt lat="40.419532" lon="-1.342245">
        <ele>1085.026</ele>
        <time>1999-11-30T00:00:00Z</time>
      </trkpt>
      <trkpt lat="40.419522" lon="-1.342093">
        <ele>1087.067</ele>
        <time>1999-11-30T00:00:00Z</time>
      </trkpt>
      <trkpt lat="40.41954" lon="-1.341992">
        <ele>1088.081</ele>
        <time>1999-11-30T00:00:00Z</time>
      </trkpt>
      <trkpt lat="40.419612" lon="-1.341971">
        <ele>1090.066</ele>
        <time>1999-11-30T00:00:00Z</time>
      </trkpt>
      <trkpt lat="40.419685" lon="-1.341975">
        <ele>1091.075</ele>
        <time>1999-11-30T00:00:00Z</time>
      </trkpt>
      <trkpt lat="40.419738" lon="-1.341945">
        <ele>1092.056</ele>
        <time>1999-11-30T00:00:00Z</time>
      </trkpt>
      <trkpt lat="40.419749" lon="-1.341847">
        <ele>1094.074</ele>
        <time>1999-11-30T00:00:00Z</time>
      </trkpt>
      <trkpt lat="40.419749" lon="-1.341847">
        <ele>1094.072</ele>
        <time>1999-11-30T00:00:00Z</time>
      </trkpt>
      <trkpt lat="40.419845" lon="-1.341831">
        <ele>1096.013</ele>
        <time>1999-11-30T00:00:00Z</time>
      </trkpt>
      <trkpt lat="40.419954" lon="-1.341836">
        <ele>1098.014</ele>
        <time>1999-11-30T00:00:00Z</time>
      </trkpt>
      <trkpt lat="40.420078" lon="-1.341851">
        <ele>1100.008</ele>
        <time>1999-11-30T00:00:00Z</time>
      </trkpt>
      <trkpt lat="40.420123" lon="-1.34185">
        <ele>1101.068</ele>
        <time>1999-11-30T00:00:00Z</time>
      </trkpt>
      <trkpt lat="40.420126" lon="-1.341783">
        <ele>1102.062</ele>
        <time>1999-11-30T00:00:00Z</time>
      </trkpt>
      <trkpt lat="40.42012" lon="-1.341674">
        <ele>1104.073</ele>
        <time>1999-11-30T00:00:00Z</time>
      </trkpt>
      <trkpt lat="40.420127" lon="-1.341495">
        <ele>1107.027</ele>
        <time>1999-11-30T00:00:00Z</time>
      </trkpt>
      <trkpt lat="40.420162" lon="-1.341395">
        <ele>1109.032</ele>
        <time>1999-11-30T00:00:00Z</time>
      </trkpt>
      <trkpt lat="40.42017" lon="-1.3413">
        <ele>1110.091</ele>
        <time>1999-11-30T00:00:00Z</time>
      </trkpt>
      <trkpt lat="40.420189" lon="-1.341134">
        <ele>1113.012</ele>
        <time>1999-11-30T00:00:00Z</time>
      </trkpt>
      <trkpt lat="40.420189" lon="-1.341017">
        <ele>1114.090</ele>
        <time>1999-11-30T00:00:00Z</time>
      </trkpt>
      <trkpt lat="40.42018" lon="-1.340926">
        <ele>1116.014</ele>
        <time>1999-11-30T00:00:00Z</time>
      </trkpt>
      <trkpt lat="40.420222" lon="-1.340919">
        <ele>1116.054</ele>
        <time>1999-11-30T00:00:00Z</time>
      </trkpt>
      <trkpt lat="40.42031" lon="-1.340921">
        <ele>1118.009</ele>
        <time>1999-11-30T00:00:00Z</time>
      </trkpt>
      <trkpt lat="40.420401" lon="-1.340948">
        <ele>1119.008</ele>
        <time>1999-11-30T00:00:00Z</time>
      </trkpt>
      <trkpt lat="40.420528" lon="-1.340997">
        <ele>1121.072</ele>
        <time>1999-11-30T00:00:00Z</time>
      </trkpt>
      <trkpt lat="40.420634" lon="-1.341016">
        <ele>1123.076</ele>
        <time>1999-11-30T00:00:00Z</time>
      </trkpt>
      <trkpt lat="40.420653" lon="-1.340903">
        <ele>1124.067</ele>
        <time>1999-11-30T00:00:00Z</time>
      </trkpt>
      <trkpt lat="40.420679" lon="-1.340848">
        <ele>1125.061</ele>
        <time>1999-11-30T00:00:00Z</time>
      </trkpt>
      <trkpt lat="40.420715" lon="-1.340801">
        <ele>1126.056</ele>
        <time>1999-11-30T00:00:00Z</time>
      </trkpt>
      <trkpt lat="40.42072" lon="-1.340703">
        <ele>1127.085</ele>
        <time>1999-11-30T00:00:00Z</time>
      </trkpt>
      <trkpt lat="40.420744" lon="-1.340596">
        <ele>1128.066</ele>
        <time>1999-11-30T00:00:00Z</time>
      </trkpt>
      <trkpt lat="40.420766" lon="-1.340553">
        <ele>1128.064</ele>
        <time>1999-11-30T00:00:00Z</time>
      </trkpt>
      <trkpt lat="40.4208" lon="-1.34052">
        <ele>1129.095</ele>
        <time>1999-11-30T00:00:00Z</time>
      </trkpt>
      <trkpt lat="40.420902" lon="-1.34051">
        <ele>1130.049</ele>
        <time>1999-11-30T00:00:00Z</time>
      </trkpt>
      <trkpt lat="40.42099" lon="-1.340527">
        <ele>1131.023</ele>
        <time>1999-11-30T00:00:00Z</time>
      </trkpt>
      <trkpt lat="40.421064" lon="-1.340542">
        <ele>1132.008</ele>
        <time>1999-11-30T00:00:00Z</time>
      </trkpt>
      <trkpt lat="40.421212" lon="-1.340409">
        <ele>1132.050</ele>
        <time>1999-11-30T00:00:00Z</time>
      </trkpt>
      <trkpt lat="40.421297" lon="-1.340298">
        <ele>1132.094</ele>
        <time>1999-11-30T00:00:00Z</time>
      </trkpt>
      <trkpt lat="40.421336" lon="-1.340206">
        <ele>1131.075</ele>
        <time>1999-11-30T00:00:00Z</time>
      </trkpt>
      <trkpt lat="40.421383" lon="-1.340072">
        <ele>1130.099</ele>
        <time>1999-11-30T00:00:00Z</time>
      </trkpt>
      <trkpt lat="40.421397" lon="-1.339962">
        <ele>1128.074</ele>
        <time>1999-11-30T00:00:00Z</time>
      </trkpt>
      <trkpt lat="40.421552" lon="-1.339935">
        <ele>1127.013</ele>
        <time>1999-11-30T00:00:00Z</time>
      </trkpt>
      <trkpt lat="40.421632" lon="-1.339945">
        <ele>1126.024</ele>
        <time>1999-11-30T00:00:00Z</time>
      </trkpt>
      <trkpt lat="40.421726" lon="-1.339995">
        <ele>1126.052</ele>
        <time>1999-11-30T00:00:00Z</time>
      </trkpt>
      <trkpt lat="40.42184" lon="-1.340098">
        <ele>1126.073</ele>
        <time>1999-11-30T00:00:00Z</time>
      </trkpt>
      <trkpt lat="40.421935" lon="-1.340139">
        <ele>1126.085</ele>
        <time>1999-11-30T00:00:00Z</time>
      </trkpt>
      <trkpt lat="40.422032" lon="-1.340109">
        <ele>1125.013</ele>
        <time>1999-11-30T00:00:00Z</time>
      </trkpt>
      <trkpt lat="40.422133" lon="-1.340009">
        <ele>1123.008</ele>
        <time>1999-11-30T00:00:00Z</time>
      </trkpt>
      <trkpt lat="40.422229" lon="-1.339924">
        <ele>1122.098</ele>
        <time>1999-11-30T00:00:00Z</time>
      </trkpt>
      <trkpt lat="40.422358" lon="-1.339931">
        <ele>1122.052</ele>
        <time>1999-11-30T00:00:00Z</time>
      </trkpt>
      <trkpt lat="40.422554" lon="-1.339916">
        <ele>1122.043</ele>
        <time>1999-11-30T00:00:00Z</time>
      </trkpt>
      <trkpt lat="40.422695" lon="-1.339838">
        <ele>1121.067</ele>
        <time>1999-11-30T00:00:00Z</time>
      </trkpt>
      <trkpt lat="40.422852" lon="-1.339713">
        <ele>1121.072</ele>
        <time>1999-11-30T00:00:00Z</time>
      </trkpt>
      <trkpt lat="40.422945" lon="-1.33963">
        <ele>1121.091</ele>
        <time>1999-11-30T00:00:00Z</time>
      </trkpt>
      <trkpt lat="40.423109" lon="-1.339544">
        <ele>1120.022</ele>
        <time>1999-11-30T00:00:00Z</time>
      </trkpt>
      <trkpt lat="40.423173" lon="-1.33954">
        <ele>1120.030</ele>
        <time>1999-11-30T00:00:00Z</time>
      </trkpt>
      <trkpt lat="40.423253" lon="-1.339535">
        <ele>1119.022</ele>
        <time>1999-11-30T00:00:00Z</time>
      </trkpt>
      <trkpt lat="40.423368" lon="-1.33946">
        <ele>1118.062</ele>
        <time>1999-11-30T00:00:00Z</time>
      </trkpt>
      <trkpt lat="40.423465" lon="-1.339383">
        <ele>1116.008</ele>
        <time>1999-11-30T00:00:00Z</time>
      </trkpt>
      <trkpt lat="40.423548" lon="-1.339367">
        <ele>1116.008</ele>
        <time>1999-11-30T00:00:00Z</time>
      </trkpt>
      <trkpt lat="40.423656" lon="-1.339397">
        <ele>1116.093</ele>
        <time>1999-11-30T00:00:00Z</time>
      </trkpt>
      <trkpt lat="40.423758" lon="-1.339392">
        <ele>1117.037</ele>
        <time>1999-11-30T00:00:00Z</time>
      </trkpt>
      <trkpt lat="40.423827" lon="-1.339362">
        <ele>1117.028</ele>
        <time>1999-11-30T00:00:00Z</time>
      </trkpt>
      <trkpt lat="40.423954" lon="-1.339373">
        <ele>1118.022</ele>
        <time>1999-11-30T00:00:00Z</time>
      </trkpt>
      <trkpt lat="40.42412" lon="-1.339345">
        <ele>1119.047</ele>
        <time>1999-11-30T00:00:00Z</time>
      </trkpt>
      <trkpt lat="40.424383" lon="-1.339292">
        <ele>1119.046</ele>
        <time>1999-11-30T00:00:00Z</time>
      </trkpt>
      <trkpt lat="40.42469" lon="-1.339208">
        <ele>1119.017</ele>
        <time>1999-11-30T00:00:00Z</time>
      </trkpt>
      <trkpt lat="40.424924" lon="-1.339135">
        <ele>1120.035</ele>
        <time>1999-11-30T00:00:00Z</time>
      </trkpt>
      <trkpt lat="40.425158" lon="-1.339019">
        <ele>1121.033</ele>
        <time>1999-11-30T00:00:00Z</time>
      </trkpt>
      <trkpt lat="40.425274" lon="-1.338882">
        <ele>1121.023</ele>
        <time>1999-11-30T00:00:00Z</time>
      </trkpt>
      <trkpt lat="40.425464" lon="-1.33858">
        <ele>1123.015</ele>
        <time>1999-11-30T00:00:00Z</time>
      </trkpt>
      <trkpt lat="40.42566" lon="-1.338297">
        <ele>1124.008</ele>
        <time>1999-11-30T00:00:00Z</time>
      </trkpt>
      <trkpt lat="40.425923" lon="-1.338013">
        <ele>1124.014</ele>
        <time>1999-11-30T00:00:00Z</time>
      </trkpt>
      <trkpt lat="40.42635" lon="-1.337612">
        <ele>1126.088</ele>
        <time>1999-11-30T00:00:00Z</time>
      </trkpt>
      <trkpt lat="40.426537" lon="-1.337429">
        <ele>1127.099</ele>
        <time>1999-11-30T00:00:00Z</time>
      </trkpt>
      <trkpt lat="40.426658" lon="-1.33721">
        <ele>1128.093</ele>
        <time>1999-11-30T00:00:00Z</time>
      </trkpt>
      <trkpt lat="40.426833" lon="-1.337026">
        <ele>1129.078</ele>
        <time>1999-11-30T00:00:00Z</time>
      </trkpt>
      <trkpt lat="40.427021" lon="-1.336874">
        <ele>1129.057</ele>
        <time>1999-11-30T00:00:00Z</time>
      </trkpt>
      <trkpt lat="40.427234" lon="-1.336742">
        <ele>1129.058</ele>
        <time>1999-11-30T00:00:00Z</time>
      </trkpt>
      <trkpt lat="40.427358" lon="-1.336703">
        <ele>1129.066</ele>
        <time>1999-11-30T00:00:00Z</time>
      </trkpt>
      <trkpt lat="40.427471" lon="-1.336688">
        <ele>1129.053</ele>
        <time>1999-11-30T00:00:00Z</time>
      </trkpt>
      <trkpt lat="40.427578" lon="-1.336633">
        <ele>1130.004</ele>
        <time>1999-11-30T00:00:00Z</time>
      </trkpt>
      <trkpt lat="40.427742" lon="-1.336599">
        <ele>1130.014</ele>
        <time>1999-11-30T00:00:00Z</time>
      </trkpt>
      <trkpt lat="40.427928" lon="-1.336572">
        <ele>1130.008</ele>
        <time>1999-11-30T00:00:00Z</time>
      </trkpt>
      <trkpt lat="40.428042" lon="-1.336531">
        <ele>1131.026</ele>
        <time>1999-11-30T00:00:00Z</time>
      </trkpt>
      <trkpt lat="40.428204" lon="-1.336452">
        <ele>1131.070</ele>
        <time>1999-11-30T00:00:00Z</time>
      </trkpt>
      <trkpt lat="40.428315" lon="-1.336423">
        <ele>1132.031</ele>
        <time>1999-11-30T00:00:00Z</time>
      </trkpt>
      <trkpt lat="40.428441" lon="-1.336436">
        <ele>1133.075</ele>
        <time>1999-11-30T00:00:00Z</time>
      </trkpt>
      <trkpt lat="40.428606" lon="-1.336407">
        <ele>1134.010</ele>
        <time>1999-11-30T00:00:00Z</time>
      </trkpt>
      <trkpt lat="40.428747" lon="-1.336364">
        <ele>1135.089</ele>
        <time>1999-11-30T00:00:00Z</time>
      </trkpt>
      <trkpt lat="40.428875" lon="-1.336273">
        <ele>1135.010</ele>
        <time>1999-11-30T00:00:00Z</time>
      </trkpt>
      <trkpt lat="40.428953" lon="-1.336246">
        <ele>1135.078</ele>
        <time>1999-11-30T00:00:00Z</time>
      </trkpt>
      <trkpt lat="40.429029" lon="-1.336253">
        <ele>1136.096</ele>
        <time>1999-11-30T00:00:00Z</time>
      </trkpt>
      <trkpt lat="40.429065" lon="-1.336282">
        <ele>1136.031</ele>
        <time>1999-11-30T00:00:00Z</time>
      </trkpt>
      <trkpt lat="40.429097" lon="-1.336367">
        <ele>1136.024</ele>
        <time>1999-11-30T00:00:00Z</time>
      </trkpt>
      <trkpt lat="40.429114" lon="-1.336454">
        <ele>1137.008</ele>
        <time>1999-11-30T00:00:00Z</time>
      </trkpt>
      <trkpt lat="40.42913" lon="-1.336603">
        <ele>1137.030</ele>
        <time>1999-11-30T00:00:00Z</time>
      </trkpt>
      <trkpt lat="40.429146" lon="-1.336774">
        <ele>1138.054</ele>
        <time>1999-11-30T00:00:00Z</time>
      </trkpt>
      <trkpt lat="40.429224" lon="-1.336923">
        <ele>1139.095</ele>
        <time>1999-11-30T00:00:00Z</time>
      </trkpt>
      <trkpt lat="40.429371" lon="-1.337168">
        <ele>1140.099</ele>
        <time>1999-11-30T00:00:00Z</time>
      </trkpt>
      <trkpt lat="40.429474" lon="-1.337344">
        <ele>1140.094</ele>
        <time>1999-11-30T00:00:00Z</time>
      </trkpt>
      <trkpt lat="40.429546" lon="-1.337422">
        <ele>1140.073</ele>
        <time>1999-11-30T00:00:00Z</time>
      </trkpt>
      <trkpt lat="40.429626" lon="-1.337456">
        <ele>1140.034</ele>
        <time>1999-11-30T00:00:00Z</time>
      </trkpt>
      <trkpt lat="40.429697" lon="-1.337465">
        <ele>1140.052</ele>
        <time>1999-11-30T00:00:00Z</time>
      </trkpt>
      <trkpt lat="40.429775" lon="-1.33743">
        <ele>1140.055</ele>
        <time>1999-11-30T00:00:00Z</time>
      </trkpt>
      <trkpt lat="40.429758" lon="-1.337269">
        <ele>1140.007</ele>
        <time>1999-11-30T00:00:00Z</time>
      </trkpt>
      <trkpt lat="40.429756" lon="-1.336864">
        <ele>1139.017</ele>
        <time>1999-11-30T00:00:00Z</time>
      </trkpt>
      <trkpt lat="40.429666" lon="-1.336265">
        <ele>1137.008</ele>
        <time>1999-11-30T00:00:00Z</time>
      </trkpt>
      <trkpt lat="40.429727" lon="-1.336306">
        <ele>1137.076</ele>
        <time>1999-11-30T00:00:00Z</time>
      </trkpt>
      <trkpt lat="40.429831" lon="-1.336364">
        <ele>1137.070</ele>
        <time>1999-11-30T00:00:00Z</time>
      </trkpt>
      <trkpt lat="40.430047" lon="-1.336368">
        <ele>1138.091</ele>
        <time>1999-11-30T00:00:00Z</time>
      </trkpt>
      <trkpt lat="40.4305" lon="-1.336333">
        <ele>1136.075</ele>
        <time>1999-11-30T00:00:00Z</time>
      </trkpt>
      <trkpt lat="40.430937" lon="-1.336216">
        <ele>1135.060</ele>
        <time>1999-11-30T00:00:00Z</time>
      </trkpt>
      <trkpt lat="40.431327" lon="-1.336114">
        <ele>1133.089</ele>
        <time>1999-11-30T00:00:00Z</time>
      </trkpt>
      <trkpt lat="40.431486" lon="-1.335977">
        <ele>1132.050</ele>
        <time>1999-11-30T00:00:00Z</time>
      </trkpt>
      <trkpt lat="40.431587" lon="-1.335901">
        <ele>1131.058</ele>
        <time>1999-11-30T00:00:00Z</time>
      </trkpt>
      <trkpt lat="40.431712" lon="-1.335877">
        <ele>1131.062</ele>
        <time>1999-11-30T00:00:00Z</time>
      </trkpt>
      <trkpt lat="40.431881" lon="-1.335893">
        <ele>1130.083</ele>
        <time>1999-11-30T00:00:00Z</time>
      </trkpt>
      <trkpt lat="40.432022" lon="-1.335864">
        <ele>1130.011</ele>
        <time>1999-11-30T00:00:00Z</time>
      </trkpt>
      <trkpt lat="40.432139" lon="-1.335803">
        <ele>1130.008</ele>
        <time>1999-11-30T00:00:00Z</time>
      </trkpt>
      <trkpt lat="40.432292" lon="-1.335641">
        <ele>1130.047</ele>
        <time>1999-11-30T00:00:00Z</time>
      </trkpt>
      <trkpt lat="40.43254" lon="-1.335375">
        <ele>1129.031</ele>
        <time>1999-11-30T00:00:00Z</time>
      </trkpt>
      <trkpt lat="40.432857" lon="-1.335155">
        <ele>1129.042</ele>
        <time>1999-11-30T00:00:00Z</time>
      </trkpt>
      <trkpt lat="40.433356" lon="-1.334822">
        <ele>1129.076</ele>
        <time>1999-11-30T00:00:00Z</time>
      </trkpt>
      <trkpt lat="40.433733" lon="-1.334621">
        <ele>1128.071</ele>
        <time>1999-11-30T00:00:00Z</time>
      </trkpt>
      <trkpt lat="40.433981" lon="-1.334335">
        <ele>1127.070</ele>
        <time>1999-11-30T00:00:00Z</time>
      </trkpt>
      <trkpt lat="40.434113" lon="-1.334103">
        <ele>1126.011</ele>
        <time>1999-11-30T00:00:00Z</time>
      </trkpt>
      <trkpt lat="40.434198" lon="-1.33399">
        <ele>1125.029</ele>
        <time>1999-11-30T00:00:00Z</time>
      </trkpt>
      <trkpt lat="40.434301" lon="-1.333955">
        <ele>1125.094</ele>
        <time>1999-11-30T00:00:00Z</time>
      </trkpt>
      <trkpt lat="40.434583" lon="-1.333884">
        <ele>1124.057</ele>
        <time>1999-11-30T00:00:00Z</time>
      </trkpt>
      <trkpt lat="40.434738" lon="-1.333736">
        <ele>1124.022</ele>
        <time>1999-11-30T00:00:00Z</time>
      </trkpt>
      <trkpt lat="40.434971" lon="-1.333474">
        <ele>1123.008</ele>
        <time>1999-11-30T00:00:00Z</time>
      </trkpt>
      <trkpt lat="40.435297" lon="-1.333293">
        <ele>1123.060</ele>
        <time>1999-11-30T00:00:00Z</time>
      </trkpt>
      <trkpt lat="40.435813" lon="-1.332986">
        <ele>1122.064</ele>
        <time>1999-11-30T00:00:00Z</time>
      </trkpt>
      <trkpt lat="40.436256" lon="-1.332759">
        <ele>1120.085</ele>
        <time>1999-11-30T00:00:00Z</time>
      </trkpt>
      <trkpt lat="40.436654" lon="-1.332572">
        <ele>1120.029</ele>
        <time>1999-11-30T00:00:00Z</time>
      </trkpt>
      <trkpt lat="40.437042" lon="-1.332395">
        <ele>1120.074</ele>
        <time>1999-11-30T00:00:00Z</time>
      </trkpt>
      <trkpt lat="40.437169" lon="-1.332319">
        <ele>1120.083</ele>
        <time>1999-11-30T00:00:00Z</time>
      </trkpt>
      <trkpt lat="40.437161" lon="-1.332264">
        <ele>1120.024</ele>
        <time>1999-11-30T00:00:00Z</time>
      </trkpt>
      <trkpt lat="40.43703" lon="-1.332023">
        <ele>1120.072</ele>
        <time>1999-11-30T00:00:00Z</time>
      </trkpt>
      <trkpt lat="40.436686" lon="-1.331421">
        <ele>1120.073</ele>
        <time>1999-11-30T00:00:00Z</time>
      </trkpt>
      <trkpt lat="40.436525" lon="-1.331021">
        <ele>1120.085</ele>
        <time>1999-11-30T00:00:00Z</time>
      </trkpt>
      <trkpt lat="40.436287" lon="-1.330434">
        <ele>1120.013</ele>
        <time>1999-11-30T00:00:00Z</time>
      </trkpt>
      <trkpt lat="40.435854" lon="-1.329512">
        <ele>1120.008</ele>
        <time>1999-11-30T00:00:00Z</time>
      </trkpt>
      <trkpt lat="40.43546" lon="-1.328435">
        <ele>1119.098</ele>
        <time>1999-11-30T00:00:00Z</time>
      </trkpt>
      <trkpt lat="40.435359" lon="-1.328175">
        <ele>1119.012</ele>
        <time>1999-11-30T00:00:00Z</time>
      </trkpt>
      <trkpt lat="40.435218" lon="-1.327938">
        <ele>1119.073</ele>
        <time>1999-11-30T00:00:00Z</time>
      </trkpt>
      <trkpt lat="40.435042" lon="-1.327718">
        <ele>1119.017</ele>
        <time>1999-11-30T00:00:00Z</time>
      </trkpt>
      <trkpt lat="40.4349" lon="-1.327522">
        <ele>1118.082</ele>
        <time>1999-11-30T00:00:00Z</time>
      </trkpt>
      <trkpt lat="40.434825" lon="-1.327322">
        <ele>1118.031</ele>
        <time>1999-11-30T00:00:00Z</time>
      </trkpt>
      <trkpt lat="40.434671" lon="-1.326864">
        <ele>1117.072</ele>
        <time>1999-11-30T00:00:00Z</time>
      </trkpt>
      <trkpt lat="40.434436" lon="-1.326167">
        <ele>1115.080</ele>
        <time>1999-11-30T00:00:00Z</time>
      </trkpt>
      <trkpt lat="40.434368" lon="-1.326006">
        <ele>1115.045</ele>
        <time>1999-11-30T00:00:00Z</time>
      </trkpt>
      <trkpt lat="40.434196" lon="-1.32575">
        <ele>1114.047</ele>
        <time>1999-11-30T00:00:00Z</time>
      </trkpt>
      <trkpt lat="40.434167" lon="-1.325631">
        <ele>1113.011</ele>
        <time>1999-11-30T00:00:00Z</time>
      </trkpt>
      <trkpt lat="40.434179" lon="-1.325379">
        <ele>1112.008</ele>
        <time>1999-11-30T00:00:00Z</time>
      </trkpt>
      <trkpt lat="40.434222" lon="-1.324492">
        <ele>1110.025</ele>
        <time>1999-11-30T00:00:00Z</time>
      </trkpt>
      <trkpt lat="40.434296" lon="-1.323843">
        <ele>1110.099</ele>
        <time>1999-11-30T00:00:00Z</time>
      </trkpt>
      <trkpt lat="40.434374" lon="-1.323201">
        <ele>1110.070</ele>
        <time>1999-11-30T00:00:00Z</time>
      </trkpt>
      <trkpt lat="40.434401" lon="-1.322714">
        <ele>1110.054</ele>
        <time>1999-11-30T00:00:00Z</time>
      </trkpt>
      <trkpt lat="40.434431" lon="-1.322415">
        <ele>1110.039</ele>
        <time>1999-11-30T00:00:00Z</time>
      </trkpt>
      <trkpt lat="40.434516" lon="-1.321989">
        <ele>1110.078</ele>
        <time>1999-11-30T00:00:00Z</time>
      </trkpt>
      <trkpt lat="40.434624" lon="-1.321506">
        <ele>1110.059</ele>
        <time>1999-11-30T00:00:00Z</time>
      </trkpt>
      <trkpt lat="40.434712" lon="-1.320913">
        <ele>1110.017</ele>
        <time>1999-11-30T00:00:00Z</time>
      </trkpt>
      <trkpt lat="40.434853" lon="-1.320177">
        <ele>1110.055</ele>
        <time>1999-11-30T00:00:00Z</time>
      </trkpt>
      <trkpt lat="40.434957" lon="-1.31962">
        <ele>1110.007</ele>
        <time>1999-11-30T00:00:00Z</time>
      </trkpt>
      <trkpt lat="40.435032" lon="-1.319159">
        <ele>1110.017</ele>
        <time>1999-11-30T00:00:00Z</time>
      </trkpt>
      <trkpt lat="40.435065" lon="-1.318774">
        <ele>1109.008</ele>
        <time>1999-11-30T00:00:00Z</time>
      </trkpt>
      <trkpt lat="40.435029" lon="-1.318353">
        <ele>1108.086</ele>
        <time>1999-11-30T00:00:00Z</time>
      </trkpt>
      <trkpt lat="40.434962" lon="-1.317843">
        <ele>1106.070</ele>
        <time>1999-11-30T00:00:00Z</time>
      </trkpt>
      <trkpt lat="40.434924" lon="-1.317594">
        <ele>1105.031</ele>
        <time>1999-11-30T00:00:00Z</time>
      </trkpt>
      <trkpt lat="40.434831" lon="-1.317329">
        <ele>1104.035</ele>
        <time>1999-11-30T00:00:00Z</time>
      </trkpt>
      <trkpt lat="40.434708" lon="-1.316992">
        <ele>1103.090</ele>
        <time>1999-11-30T00:00:00Z</time>
      </trkpt>
      <trkpt lat="40.434592" lon="-1.316667">
        <ele>1101.089</ele>
        <time>1999-11-30T00:00:00Z</time>
      </trkpt>
      <trkpt lat="40.434553" lon="-1.316412">
        <ele>1100.090</ele>
        <time>1999-11-30T00:00:00Z</time>
      </trkpt>
      <trkpt lat="40.434567" lon="-1.316195">
        <ele>1100.018</ele>
        <time>1999-11-30T00:00:00Z</time>
      </trkpt>
      <trkpt lat="40.434624" lon="-1.315988">
        <ele>1100.013</ele>
        <time>1999-11-30T00:00:00Z</time>
      </trkpt>
      <trkpt lat="40.434709" lon="-1.315734">
        <ele>1100.043</ele>
        <time>1999-11-30T00:00:00Z</time>
      </trkpt>
      <trkpt lat="40.434886" lon="-1.315299">
        <ele>1100.007</ele>
        <time>1999-11-30T00:00:00Z</time>
      </trkpt>
      <trkpt lat="40.434913" lon="-1.315099">
        <ele>1100.008</ele>
        <time>1999-11-30T00:00:00Z</time>
      </trkpt>
      <trkpt lat="40.434903" lon="-1.314996">
        <ele>1100.012</ele>
        <time>1999-11-30T00:00:00Z</time>
      </trkpt>
      <trkpt lat="40.434856" lon="-1.314923">
        <ele>1100.026</ele>
        <time>1999-11-30T00:00:00Z</time>
      </trkpt>
      <trkpt lat="40.434758" lon="-1.314854">
        <ele>1100.027</ele>
        <time>1999-11-30T00:00:00Z</time>
      </trkpt>
      <trkpt lat="40.434626" lon="-1.314848">
        <ele>1100.061</ele>
        <time>1999-11-30T00:00:00Z</time>
      </trkpt>
      <trkpt lat="40.434517" lon="-1.314794">
        <ele>1100.086</ele>
        <time>1999-11-30T00:00:00Z</time>
      </trkpt>
      <trkpt lat="40.434491" lon="-1.314705">
        <ele>1100.035</ele>
        <time>1999-11-30T00:00:00Z</time>
      </trkpt>
      <trkpt lat="40.434463" lon="-1.31451">
        <ele>1100.046</ele>
        <time>1999-11-30T00:00:00Z</time>
      </trkpt>
      <trkpt lat="40.434415" lon="-1.314348">
        <ele>1100.024</ele>
        <time>1999-11-30T00:00:00Z</time>
      </trkpt>
      <trkpt lat="40.434329" lon="-1.314272">
        <ele>1100.071</ele>
        <time>1999-11-30T00:00:00Z</time>
      </trkpt>
      <trkpt lat="40.434152" lon="-1.314169">
        <ele>1101.041</ele>
        <time>1999-11-30T00:00:00Z</time>
      </trkpt>
      <trkpt lat="40.43378" lon="-1.313918">
        <ele>1102.015</ele>
        <time>1999-11-30T00:00:00Z</time>
      </trkpt>
      <trkpt lat="40.433444" lon="-1.31366">
        <ele>1103.008</ele>
        <time>1999-11-30T00:00:00Z</time>
      </trkpt>
      <trkpt lat="40.433093" lon="-1.313296">
        <ele>1104.098</ele>
        <time>1999-11-30T00:00:00Z</time>
      </trkpt>
      <trkpt lat="40.432883" lon="-1.313081">
        <ele>1105.022</ele>
        <time>1999-11-30T00:00:00Z</time>
      </trkpt>
      <trkpt lat="40.432552" lon="-1.312717">
        <ele>1106.053</ele>
        <time>1999-11-30T00:00:00Z</time>
      </trkpt>
      <trkpt lat="40.432144" lon="-1.312289">
        <ele>1107.017</ele>
        <time>1999-11-30T00:00:00Z</time>
      </trkpt>
      <trkpt lat="40.432115" lon="-1.312189">
        <ele>1107.042</ele>
        <time>1999-11-30T00:00:00Z</time>
      </trkpt>
      <trkpt lat="40.432113" lon="-1.312073">
        <ele>1107.091</ele>
        <time>1999-11-30T00:00:00Z</time>
      </trkpt>
      <trkpt lat="40.432133" lon="-1.311914">
        <ele>1107.062</ele>
        <time>1999-11-30T00:00:00Z</time>
      </trkpt>
      <trkpt lat="40.43212" lon="-1.311802">
        <ele>1107.040</ele>
        <time>1999-11-30T00:00:00Z</time>
      </trkpt>
      <trkpt lat="40.432081" lon="-1.311724">
        <ele>1107.047</ele>
        <time>1999-11-30T00:00:00Z</time>
      </trkpt>
      <trkpt lat="40.431985" lon="-1.311651">
        <ele>1107.029</ele>
        <time>1999-11-30T00:00:00Z</time>
      </trkpt>
      <trkpt lat="40.431893" lon="-1.311524">
        <ele>1108.021</ele>
        <time>1999-11-30T00:00:00Z</time>
      </trkpt>
      <trkpt lat="40.431834" lon="-1.31138">
        <ele>1108.008</ele>
        <time>1999-11-30T00:00:00Z</time>
      </trkpt>
      <trkpt lat="40.431794" lon="-1.311137">
        <ele>1108.065</ele>
        <time>1999-11-30T00:00:00Z</time>
      </trkpt>
      <trkpt lat="40.431777" lon="-1.310886">
        <ele>1108.079</ele>
        <time>1999-11-30T00:00:00Z</time>
      </trkpt>
      <trkpt lat="40.431776" lon="-1.310631">
        <ele>1106.030</ele>
        <time>1999-11-30T00:00:00Z</time>
      </trkpt>
      <trkpt lat="40.431755" lon="-1.310523">
        <ele>1106.094</ele>
        <time>1999-11-30T00:00:00Z</time>
      </trkpt>
      <trkpt lat="40.431697" lon="-1.310365">
        <ele>1106.089</ele>
        <time>1999-11-30T00:00:00Z</time>
      </trkpt>
      <trkpt lat="40.431563" lon="-1.310142">
        <ele>1106.068</ele>
        <time>1999-11-30T00:00:00Z</time>
      </trkpt>
      <trkpt lat="40.431419" lon="-1.30989">
        <ele>1107.089</ele>
        <time>1999-11-30T00:00:00Z</time>
      </trkpt>
      <trkpt lat="40.431344" lon="-1.30972">
        <ele>1107.027</ele>
        <time>1999-11-30T00:00:00Z</time>
      </trkpt>
      <trkpt lat="40.431314" lon="-1.309487">
        <ele>1107.027</ele>
        <time>1999-11-30T00:00:00Z</time>
      </trkpt>
      <trkpt lat="40.431325" lon="-1.309197">
        <ele>1107.068</ele>
        <time>1999-11-30T00:00:00Z</time>
      </trkpt>
      <trkpt lat="40.431381" lon="-1.308775">
        <ele>1107.014</ele>
        <time>1999-11-30T00:00:00Z</time>
      </trkpt>
      <trkpt lat="40.431517" lon="-1.308181">
        <ele>1105.008</ele>
        <time>1999-11-30T00:00:00Z</time>
      </trkpt>
      <trkpt lat="40.43166" lon="-1.307697">
        <ele>1101.013</ele>
        <time>1999-11-30T00:00:00Z</time>
      </trkpt>
      <trkpt lat="40.43179" lon="-1.307298">
        <ele>1100.067</ele>
        <time>1999-11-30T00:00:00Z</time>
      </trkpt>
      <trkpt lat="40.43191" lon="-1.307204">
        <ele>1099.048</ele>
        <time>1999-11-30T00:00:00Z</time>
      </trkpt>
      <trkpt lat="40.432119" lon="-1.307102">
        <ele>1098.042</ele>
        <time>1999-11-30T00:00:00Z</time>
      </trkpt>
      <trkpt lat="40.432327" lon="-1.306786">
        <ele>1094.057</ele>
        <time>1999-11-30T00:00:00Z</time>
      </trkpt>
      <trkpt lat="40.432446" lon="-1.306442">
        <ele>1092.086</ele>
        <time>1999-11-30T00:00:00Z</time>
      </trkpt>
      <trkpt lat="40.432496" lon="-1.306184">
        <ele>1091.077</ele>
        <time>1999-11-30T00:00:00Z</time>
      </trkpt>
      <trkpt lat="40.432509" lon="-1.305929">
        <ele>1090.045</ele>
        <time>1999-11-30T00:00:00Z</time>
      </trkpt>
      <trkpt lat="40.432487" lon="-1.305765">
        <ele>1089.075</ele>
        <time>1999-11-30T00:00:00Z</time>
      </trkpt>
      <trkpt lat="40.432399" lon="-1.305644">
        <ele>1089.028</ele>
        <time>1999-11-30T00:00:00Z</time>
      </trkpt>
      <trkpt lat="40.432281" lon="-1.305555">
        <ele>1090.020</ele>
        <time>1999-11-30T00:00:00Z</time>
      </trkpt>
      <trkpt lat="40.432027" lon="-1.305435">
        <ele>1090.008</ele>
        <time>1999-11-30T00:00:00Z</time>
      </trkpt>
      <trkpt lat="40.431934" lon="-1.305309">
        <ele>1089.038</ele>
        <time>1999-11-30T00:00:00Z</time>
      </trkpt>
      <trkpt lat="40.43191" lon="-1.305122">
        <ele>1089.072</ele>
        <time>1999-11-30T00:00:00Z</time>
      </trkpt>
      <trkpt lat="40.432039" lon="-1.304937">
        <ele>1089.023</ele>
        <time>1999-11-30T00:00:00Z</time>
      </trkpt>
      <trkpt lat="40.432169" lon="-1.304868">
        <ele>1089.097</ele>
        <time>1999-11-30T00:00:00Z</time>
      </trkpt>
      <trkpt lat="40.432375" lon="-1.30485">
        <ele>1089.042</ele>
        <time>1999-11-30T00:00:00Z</time>
      </trkpt>
      <trkpt lat="40.432646" lon="-1.304809">
        <ele>1089.021</ele>
        <time>1999-11-30T00:00:00Z</time>
      </trkpt>
      <trkpt lat="40.432754" lon="-1.304732">
        <ele>1088.072</ele>
        <time>1999-11-30T00:00:00Z</time>
      </trkpt>
      <trkpt lat="40.4329" lon="-1.3045">
        <ele>1088.080</ele>
        <time>1999-11-30T00:00:00Z</time>
      </trkpt>
      <trkpt lat="40.433091" lon="-1.304197">
        <ele>1088.069</ele>
        <time>1999-11-30T00:00:00Z</time>
      </trkpt>
      <trkpt lat="40.433169" lon="-1.304182">
        <ele>1087.004</ele>
        <time>1999-11-30T00:00:00Z</time>
      </trkpt>
      <trkpt lat="40.433248" lon="-1.304206">
        <ele>1086.024</ele>
        <time>1999-11-30T00:00:00Z</time>
      </trkpt>
      <trkpt lat="40.433408" lon="-1.304239">
        <ele>1084.008</ele>
        <time>1999-11-30T00:00:00Z</time>
      </trkpt>
      <trkpt lat="40.43355" lon="-1.304244">
        <ele>1082.087</ele>
        <time>1999-11-30T00:00:00Z</time>
      </trkpt>
      <trkpt lat="40.433633" lon="-1.304142">
        <ele>1081.041</ele>
        <time>1999-11-30T00:00:00Z</time>
      </trkpt>
      <trkpt lat="40.433687" lon="-1.304016">
        <ele>1081.082</ele>
        <time>1999-11-30T00:00:00Z</time>
      </trkpt>
      <trkpt lat="40.433722" lon="-1.303849">
        <ele>1081.056</ele>
        <time>1999-11-30T00:00:00Z</time>
      </trkpt>
      <trkpt lat="40.43377" lon="-1.303542">
        <ele>1080.031</ele>
        <time>1999-11-30T00:00:00Z</time>
      </trkpt>
      <trkpt lat="40.43381" lon="-1.303131">
        <ele>1079.030</ele>
        <time>1999-11-30T00:00:00Z</time>
      </trkpt>
      <trkpt lat="40.43383" lon="-1.302959">
        <ele>1079.081</ele>
        <time>1999-11-30T00:00:00Z</time>
      </trkpt>
      <trkpt lat="40.433877" lon="-1.302654">
        <ele>1080.029</ele>
        <time>1999-11-30T00:00:00Z</time>
      </trkpt>
      <trkpt lat="40.433991" lon="-1.30234">
        <ele>1079.093</ele>
        <time>1999-11-30T00:00:00Z</time>
      </trkpt>
      <trkpt lat="40.434069" lon="-1.302116">
        <ele>1079.065</ele>
        <time>1999-11-30T00:00:00Z</time>
      </trkpt>
      <trkpt lat="40.434118" lon="-1.301865">
        <ele>1080.021</ele>
        <time>1999-11-30T00:00:00Z</time>
      </trkpt>
      <trkpt lat="40.434208" lon="-1.301567">
        <ele>1079.008</ele>
        <time>1999-11-30T00:00:00Z</time>
      </trkpt>
      <trkpt lat="40.434318" lon="-1.301308">
        <ele>1079.060</ele>
        <time>1999-11-30T00:00:00Z</time>
      </trkpt>
      <trkpt lat="40.434484" lon="-1.301092">
        <ele>1078.084</ele>
        <time>1999-11-30T00:00:00Z</time>
      </trkpt>
      <trkpt lat="40.434739" lon="-1.300713">
        <ele>1078.015</ele>
        <time>1999-11-30T00:00:00Z</time>
      </trkpt>
      <trkpt lat="40.435033" lon="-1.300334">
        <ele>1079.039</ele>
        <time>1999-11-30T00:00:00Z</time>
      </trkpt>
      <trkpt lat="40.435321" lon="-1.300161">
        <ele>1078.054</ele>
        <time>1999-11-30T00:00:00Z</time>
      </trkpt>
      <trkpt lat="40.435578" lon="-1.299999">
        <ele>1077.083</ele>
        <time>1999-11-30T00:00:00Z</time>
      </trkpt>
      <trkpt lat="40.435938" lon="-1.299526">
        <ele>1074.034</ele>
        <time>1999-11-30T00:00:00Z</time>
      </trkpt>
      <trkpt lat="40.43601" lon="-1.299235">
        <ele>1073.072</ele>
        <time>1999-11-30T00:00:00Z</time>
      </trkpt>
      <trkpt lat="40.436052" lon="-1.299043">
        <ele>1072.061</ele>
        <time>1999-11-30T00:00:00Z</time>
      </trkpt>
      <trkpt lat="40.436026" lon="-1.298864">
        <ele>1071.021</ele>
        <time>1999-11-30T00:00:00Z</time>
      </trkpt>
      <trkpt lat="40.435942" lon="-1.29862">
        <ele>1070.013</ele>
        <time>1999-11-30T00:00:00Z</time>
      </trkpt>
      <trkpt lat="40.435852" lon="-1.298471">
        <ele>1070.008</ele>
        <time>1999-11-30T00:00:00Z</time>
      </trkpt>
      <trkpt lat="40.435874" lon="-1.29831">
        <ele>1070.017</ele>
        <time>1999-11-30T00:00:00Z</time>
      </trkpt>
      <trkpt lat="40.435899" lon="-1.298014">
        <ele>1070.011</ele>
        <time>1999-11-30T00:00:00Z</time>
      </trkpt>
      <trkpt lat="40.435889" lon="-1.297776">
        <ele>1070.092</ele>
        <time>1999-11-30T00:00:00Z</time>
      </trkpt>
      <trkpt lat="40.435906" lon="-1.297618">
        <ele>1070.096</ele>
        <time>1999-11-30T00:00:00Z</time>
      </trkpt>
      <trkpt lat="40.435962" lon="-1.297418">
        <ele>1069.011</ele>
        <time>1999-11-30T00:00:00Z</time>
      </trkpt>
      <trkpt lat="40.436014" lon="-1.297297">
        <ele>1069.010</ele>
        <time>1999-11-30T00:00:00Z</time>
      </trkpt>
      <trkpt lat="40.436078" lon="-1.29707">
        <ele>1069.071</ele>
        <time>1999-11-30T00:00:00Z</time>
      </trkpt>
      <trkpt lat="40.43615" lon="-1.296841">
        <ele>1069.089</ele>
        <time>1999-11-30T00:00:00Z</time>
      </trkpt>
      <trkpt lat="40.436155" lon="-1.296654">
        <ele>1069.077</ele>
        <time>1999-11-30T00:00:00Z</time>
      </trkpt>
      <trkpt lat="40.436165" lon="-1.296465">
        <ele>1069.061</ele>
        <time>1999-11-30T00:00:00Z</time>
      </trkpt>
      <trkpt lat="40.436311" lon="-1.296234">
        <ele>1068.027</ele>
        <time>1999-11-30T00:00:00Z</time>
      </trkpt>
      <trkpt lat="40.436404" lon="-1.295996">
        <ele>1068.008</ele>
        <time>1999-11-30T00:00:00Z</time>
      </trkpt>
      <trkpt lat="40.43648" lon="-1.295814">
        <ele>1069.078</ele>
        <time>1999-11-30T00:00:00Z</time>
      </trkpt>
      <trkpt lat="40.43662" lon="-1.295639">
        <ele>1069.012</ele>
        <time>1999-11-30T00:00:00Z</time>
      </trkpt>
      <trkpt lat="40.436742" lon="-1.295571">
        <ele>1069.073</ele>
        <time>1999-11-30T00:00:00Z</time>
      </trkpt>
      <trkpt lat="40.43704" lon="-1.295449">
        <ele>1069.077</ele>
        <time>1999-11-30T00:00:00Z</time>
      </trkpt>
      <trkpt lat="40.437391" lon="-1.295469">
        <ele>1068.032</ele>
        <time>1999-11-30T00:00:00Z</time>
      </trkpt>
      <trkpt lat="40.437681" lon="-1.295502">
        <ele>1068.011</ele>
        <time>1999-11-30T00:00:00Z</time>
      </trkpt>
      <trkpt lat="40.437905" lon="-1.295549">
        <ele>1068.082</ele>
        <time>1999-11-30T00:00:00Z</time>
      </trkpt>
      <trkpt lat="40.438201" lon="-1.295492">
        <ele>1069.040</ele>
        <time>1999-11-30T00:00:00Z</time>
      </trkpt>
      <trkpt lat="40.438383" lon="-1.295529">
        <ele>1069.035</ele>
        <time>1999-11-30T00:00:00Z</time>
      </trkpt>
      <trkpt lat="40.438581" lon="-1.295448">
        <ele>1069.086</ele>
        <time>1999-11-30T00:00:00Z</time>
      </trkpt>
      <trkpt lat="40.438695" lon="-1.295363">
        <ele>1069.014</ele>
        <time>1999-11-30T00:00:00Z</time>
      </trkpt>
      <trkpt lat="40.438806" lon="-1.295155">
        <ele>1067.008</ele>
        <time>1999-11-30T00:00:00Z</time>
      </trkpt>
      <trkpt lat="40.438767" lon="-1.295095">
        <ele>1067.054</ele>
        <time>1999-11-30T00:00:00Z</time>
      </trkpt>
      <trkpt lat="40.438781" lon="-1.295006">
        <ele>1066.088</ele>
        <time>1999-11-30T00:00:00Z</time>
      </trkpt>
      <trkpt lat="40.438842" lon="-1.294893">
        <ele>1064.029</ele>
        <time>1999-11-30T00:00:00Z</time>
      </trkpt>
      <trkpt lat="40.438751" lon="-1.29477">
        <ele>1063.063</ele>
        <time>1999-11-30T00:00:00Z</time>
      </trkpt>
      <trkpt lat="40.438735" lon="-1.294634">
        <ele>1063.078</ele>
        <time>1999-11-30T00:00:00Z</time>
      </trkpt>
      <trkpt lat="40.438833" lon="-1.294342">
        <ele>1060.057</ele>
        <time>1999-11-30T00:00:00Z</time>
      </trkpt>
      <trkpt lat="40.438903" lon="-1.294179">
        <ele>1060.048</ele>
        <time>1999-11-30T00:00:00Z</time>
      </trkpt>
      <trkpt lat="40.439082" lon="-1.293802">
        <ele>1061.086</ele>
        <time>1999-11-30T00:00:00Z</time>
      </trkpt>
      <trkpt lat="40.439499" lon="-1.293511">
        <ele>1065.043</ele>
        <time>1999-11-30T00:00:00Z</time>
      </trkpt>
      <trkpt lat="40.439724" lon="-1.293209">
        <ele>1063.064</ele>
        <time>1999-11-30T00:00:00Z</time>
      </trkpt>
      <trkpt lat="40.439854" lon="-1.293061">
        <ele>1061.010</ele>
        <time>1999-11-30T00:00:00Z</time>
      </trkpt>
      <trkpt lat="40.439933" lon="-1.292704">
        <ele>1060.008</ele>
        <time>1999-11-30T00:00:00Z</time>
      </trkpt>
      <trkpt lat="40.440007" lon="-1.291997">
        <ele>1058.025</ele>
        <time>1999-11-30T00:00:00Z</time>
      </trkpt>
      <trkpt lat="40.440055" lon="-1.291572">
        <ele>1058.069</ele>
        <time>1999-11-30T00:00:00Z</time>
      </trkpt>
      <trkpt lat="40.44037" lon="-1.291215">
        <ele>1058.010</ele>
        <time>1999-11-30T00:00:00Z</time>
      </trkpt>
      <trkpt lat="40.440486" lon="-1.291013">
        <ele>1058.014</ele>
        <time>1999-11-30T00:00:00Z</time>
      </trkpt>
      <trkpt lat="40.44063" lon="-1.290756">
        <ele>1057.079</ele>
        <time>1999-11-30T00:00:00Z</time>
      </trkpt>
      <trkpt lat="40.440777" lon="-1.290694">
        <ele>1057.038</ele>
        <time>1999-11-30T00:00:00Z</time>
      </trkpt>
      <trkpt lat="40.44084" lon="-1.290778">
        <ele>1057.049</ele>
        <time>1999-11-30T00:00:00Z</time>
      </trkpt>
      <trkpt lat="40.441023" lon="-1.290945">
        <ele>1057.087</ele>
        <time>1999-11-30T00:00:00Z</time>
      </trkpt>
      <trkpt lat="40.441196" lon="-1.290963">
        <ele>1058.019</ele>
        <time>1999-11-30T00:00:00Z</time>
      </trkpt>
      <trkpt lat="40.441396" lon="-1.290915">
        <ele>1058.009</ele>
        <time>1999-11-30T00:00:00Z</time>
      </trkpt>
      <trkpt lat="40.441598" lon="-1.290939">
        <ele>1059.019</ele>
        <time>1999-11-30T00:00:00Z</time>
      </trkpt>
      <trkpt lat="40.441766" lon="-1.29088">
        <ele>1058.008</ele>
        <time>1999-11-30T00:00:00Z</time>
      </trkpt>
      <trkpt lat="40.441895" lon="-1.290795">
        <ele>1058.082</ele>
        <time>1999-11-30T00:00:00Z</time>
      </trkpt>
      <trkpt lat="40.442008" lon="-1.290598">
        <ele>1059.016</ele>
        <time>1999-11-30T00:00:00Z</time>
      </trkpt>
      <trkpt lat="40.442149" lon="-1.290487">
        <ele>1060.027</ele>
        <time>1999-11-30T00:00:00Z</time>
      </trkpt>
      <trkpt lat="40.44228" lon="-1.290504">
        <ele>1063.031</ele>
        <time>1999-11-30T00:00:00Z</time>
      </trkpt>
      <trkpt lat="40.442457" lon="-1.290431">
        <ele>1064.016</ele>
        <time>1999-11-30T00:00:00Z</time>
      </trkpt>
      <trkpt lat="40.442543" lon="-1.290423">
        <ele>1065.025</ele>
        <time>1999-11-30T00:00:00Z</time>
      </trkpt>
      <trkpt lat="40.44275" lon="-1.290464">
        <ele>1066.096</ele>
        <time>1999-11-30T00:00:00Z</time>
      </trkpt>
      <trkpt lat="40.442939" lon="-1.290534">
        <ele>1066.054</ele>
        <time>1999-11-30T00:00:00Z</time>
      </trkpt>
      <trkpt lat="40.443128" lon="-1.290612">
        <ele>1066.099</ele>
        <time>1999-11-30T00:00:00Z</time>
      </trkpt>
      <trkpt lat="40.44322" lon="-1.29068">
        <ele>1066.007</ele>
        <time>1999-11-30T00:00:00Z</time>
      </trkpt>
      <trkpt lat="40.443262" lon="-1.290774">
        <ele>1067.027</ele>
        <time>1999-11-30T00:00:00Z</time>
      </trkpt>
      <trkpt lat="40.443429" lon="-1.290812">
        <ele>1067.008</ele>
        <time>1999-11-30T00:00:00Z</time>
      </trkpt>
      <trkpt lat="40.443835" lon="-1.290814">
        <ele>1068.050</ele>
        <time>1999-11-30T00:00:00Z</time>
      </trkpt>
      <trkpt lat="40.444352" lon="-1.290752">
        <ele>1070.064</ele>
        <time>1999-11-30T00:00:00Z</time>
      </trkpt>
      <trkpt lat="40.444853" lon="-1.290592">
        <ele>1070.045</ele>
        <time>1999-11-30T00:00:00Z</time>
      </trkpt>
      <trkpt lat="40.445353" lon="-1.290523">
        <ele>1069.019</ele>
        <time>1999-11-30T00:00:00Z</time>
      </trkpt>
      <trkpt lat="40.445761" lon="-1.29063">
        <ele>1069.044</ele>
        <time>1999-11-30T00:00:00Z</time>
      </trkpt>
      <trkpt lat="40.446111" lon="-1.290772">
        <ele>1070.043</ele>
        <time>1999-11-30T00:00:00Z</time>
      </trkpt>
      <trkpt lat="40.446222" lon="-1.290744">
        <ele>1070.094</ele>
        <time>1999-11-30T00:00:00Z</time>
      </trkpt>
      <trkpt lat="40.446249" lon="-1.290639">
        <ele>1070.012</ele>
        <time>1999-11-30T00:00:00Z</time>
      </trkpt>
      <trkpt lat="40.446343" lon="-1.290603">
        <ele>1070.089</ele>
        <time>1999-11-30T00:00:00Z</time>
      </trkpt>
      <trkpt lat="40.446511" lon="-1.290595">
        <ele>1069.006</ele>
        <time>1999-11-30T00:00:00Z</time>
      </trkpt>
      <trkpt lat="40.446654" lon="-1.290575">
        <ele>1069.026</ele>
        <time>1999-11-30T00:00:00Z</time>
      </trkpt>
      <trkpt lat="40.446819" lon="-1.290437">
        <ele>1067.008</ele>
        <time>1999-11-30T00:00:00Z</time>
      </trkpt>
      <trkpt lat="40.446895" lon="-1.290324">
        <ele>1065.019</ele>
        <time>1999-11-30T00:00:00Z</time>
      </trkpt>
      <trkpt lat="40.446951" lon="-1.29026">
        <ele>1065.013</ele>
        <time>1999-11-30T00:00:00Z</time>
      </trkpt>
      <trkpt lat="40.447054" lon="-1.290292">
        <ele>1065.034</ele>
        <time>1999-11-30T00:00:00Z</time>
      </trkpt>
      <trkpt lat="40.447172" lon="-1.290341">
        <ele>1065.028</ele>
        <time>1999-11-30T00:00:00Z</time>
      </trkpt>
      <trkpt lat="40.447241" lon="-1.290423">
        <ele>1066.023</ele>
        <time>1999-11-30T00:00:00Z</time>
      </trkpt>
      <trkpt lat="40.447293" lon="-1.290421">
        <ele>1066.052</ele>
        <time>1999-11-30T00:00:00Z</time>
      </trkpt>
      <trkpt lat="40.447388" lon="-1.290388">
        <ele>1065.033</ele>
        <time>1999-11-30T00:00:00Z</time>
      </trkpt>
      <trkpt lat="40.44741" lon="-1.290305">
        <ele>1065.031</ele>
        <time>1999-11-30T00:00:00Z</time>
      </trkpt>
      <trkpt lat="40.447466" lon="-1.290096">
        <ele>1063.095</ele>
        <time>1999-11-30T00:00:00Z</time>
      </trkpt>
      <trkpt lat="40.447592" lon="-1.289761">
        <ele>1061.049</ele>
        <time>1999-11-30T00:00:00Z</time>
      </trkpt>
      <trkpt lat="40.447659" lon="-1.289627">
        <ele>1061.023</ele>
        <time>1999-11-30T00:00:00Z</time>
      </trkpt>
      <trkpt lat="40.447835" lon="-1.289409">
        <ele>1061.008</ele>
        <time>1999-11-30T00:00:00Z</time>
      </trkpt>
      <trkpt lat="40.448121" lon="-1.289089">
        <ele>1062.010</ele>
        <time>1999-11-30T00:00:00Z</time>
      </trkpt>
      <trkpt lat="40.44831" lon="-1.288942">
        <ele>1062.024</ele>
        <time>1999-11-30T00:00:00Z</time>
      </trkpt>
      <trkpt lat="40.448477" lon="-1.288856">
        <ele>1062.035</ele>
        <time>1999-11-30T00:00:00Z</time>
      </trkpt>
      <trkpt lat="40.448618" lon="-1.28881">
        <ele>1061.099</ele>
        <time>1999-11-30T00:00:00Z</time>
      </trkpt>
      <trkpt lat="40.448778" lon="-1.288788">
        <ele>1059.094</ele>
        <time>1999-11-30T00:00:00Z</time>
      </trkpt>
      <trkpt lat="40.448819" lon="-1.288595">
        <ele>1056.033</ele>
        <time>1999-11-30T00:00:00Z</time>
      </trkpt>
      <trkpt lat="40.448929" lon="-1.288486">
        <ele>1054.034</ele>
        <time>1999-11-30T00:00:00Z</time>
      </trkpt>
      <trkpt lat="40.449162" lon="-1.28848">
        <ele>1054.082</ele>
        <time>1999-11-30T00:00:00Z</time>
      </trkpt>
      <trkpt lat="40.449356" lon="-1.288326">
        <ele>1053.039</ele>
        <time>1999-11-30T00:00:00Z</time>
      </trkpt>
      <trkpt lat="40.449455" lon="-1.288243">
        <ele>1053.001</ele>
        <time>1999-11-30T00:00:00Z</time>
      </trkpt>
      <trkpt lat="40.44957" lon="-1.288119">
        <ele>1051.021</ele>
        <time>1999-11-30T00:00:00Z</time>
      </trkpt>
      <trkpt lat="40.449703" lon="-1.287999">
        <ele>1050.008</ele>
        <time>1999-11-30T00:00:00Z</time>
      </trkpt>
      <trkpt lat="40.44983" lon="-1.287941">
        <ele>1048.034</ele>
        <time>1999-11-30T00:00:00Z</time>
      </trkpt>
      <trkpt lat="40.449858" lon="-1.287861">
        <ele>1048.038</ele>
        <time>1999-11-30T00:00:00Z</time>
      </trkpt>
      <trkpt lat="40.44976" lon="-1.287624">
        <ele>1046.069</ele>
        <time>1999-11-30T00:00:00Z</time>
      </trkpt>
      <trkpt lat="40.45002" lon="-1.287517">
        <ele>1043.043</ele>
        <time>1999-11-30T00:00:00Z</time>
      </trkpt>
      <trkpt lat="40.450478" lon="-1.287205">
        <ele>1040.028</ele>
        <time>1999-11-30T00:00:00Z</time>
      </trkpt>
      <trkpt lat="40.450749" lon="-1.287131">
        <ele>1040.067</ele>
        <time>1999-11-30T00:00:00Z</time>
      </trkpt>
      <trkpt lat="40.451041" lon="-1.287157">
        <ele>1040.048</ele>
        <time>1999-11-30T00:00:00Z</time>
      </trkpt>
      <trkpt lat="40.451422" lon="-1.287359">
        <ele>1039.026</ele>
        <time>1999-11-30T00:00:00Z</time>
      </trkpt>
      <trkpt lat="40.452014" lon="-1.287643">
        <ele>1037.038</ele>
        <time>1999-11-30T00:00:00Z</time>
      </trkpt>
      <trkpt lat="40.4524" lon="-1.287677">
        <ele>1038.070</ele>
        <time>1999-11-30T00:00:00Z</time>
      </trkpt>
      <trkpt lat="40.45264" lon="-1.287685">
        <ele>1039.017</ele>
        <time>1999-11-30T00:00:00Z</time>
      </trkpt>
      <trkpt lat="40.452841" lon="-1.288122">
        <ele>1037.008</ele>
        <time>1999-11-30T00:00:00Z</time>
      </trkpt>
      <trkpt lat="40.45313" lon="-1.288693">
        <ele>1030.094</ele>
        <time>1999-11-30T00:00:00Z</time>
      </trkpt>
      <trkpt lat="40.453406" lon="-1.289127">
        <ele>1027.068</ele>
        <time>1999-11-30T00:00:00Z</time>
      </trkpt>
      <trkpt lat="40.45371" lon="-1.290159">
        <ele>1021.069</ele>
        <time>1999-11-30T00:00:00Z</time>
      </trkpt>
      <trkpt lat="40.453604" lon="-1.290598">
        <ele>1020.093</ele>
        <time>1999-11-30T00:00:00Z</time>
      </trkpt>
      <trkpt lat="40.453445" lon="-1.29121">
        <ele>1022.028</ele>
        <time>1999-11-30T00:00:00Z</time>
      </trkpt>
      <trkpt lat="40.453471" lon="-1.291464">
        <ele>1023.027</ele>
        <time>1999-11-30T00:00:00Z</time>
      </trkpt>
      <trkpt lat="40.44852" lon="-1.243791">
        <ele>1009.819</ele>
        <time>2020-08-28T09:58:14Z</time>
      </trkpt>
      <trkpt lat="40.448469" lon="-1.243758">
        <ele>1009.609</ele>
        <time>2020-08-28T09:58:55Z</time>
      </trkpt>
      <trkpt lat="40.448421" lon="-1.243699">
        <ele>1009.719</ele>
        <time>2020-08-28T09:58:58Z</time>
      </trkpt>
      <trkpt lat="40.448392" lon="-1.243644">
        <ele>1009.708</ele>
        <time>2020-08-28T09:59:00Z</time>
      </trkpt>
      <trkpt lat="40.448336" lon="-1.2436">
        <ele>1009.636</ele>
        <time>2020-08-28T09:59:02Z</time>
      </trkpt>
      <trkpt lat="40.448292" lon="-1.243539">
        <ele>1009.546</ele>
        <time>2020-08-28T09:59:04Z</time>
      </trkpt>
      <trkpt lat="40.448243" lon="-1.243479">
        <ele>1009.638</ele>
        <time>2020-08-28T09:59:06Z</time>
      </trkpt>
      <trkpt lat="40.448186" lon="-1.243412">
        <ele>1009.720</ele>
        <time>2020-08-28T09:59:08Z</time>
      </trkpt>
      <trkpt lat="40.448128" lon="-1.243346">
        <ele>1009.688</ele>
        <time>2020-08-28T09:59:10Z</time>
      </trkpt>
      <trkpt lat="40.44807" lon="-1.243283">
        <ele>1009.475</ele>
        <time>2020-08-28T09:59:12Z</time>
      </trkpt>
      <trkpt lat="40.448013" lon="-1.243215">
        <ele>1009.363</ele>
        <time>2020-08-28T09:59:14Z</time>
      </trkpt>
      <trkpt lat="40.447956" lon="-1.24314">
        <ele>1009.433</ele>
        <time>2020-08-28T09:59:16Z</time>
      </trkpt>
      <trkpt lat="40.447896" lon="-1.243067">
        <ele>1009.558</ele>
        <time>2020-08-28T09:59:18Z</time>
      </trkpt>
      <trkpt lat="40.447836" lon="-1.242997">
        <ele>1009.652</ele>
        <time>2020-08-28T09:59:20Z</time>
      </trkpt>
      <trkpt lat="40.447774" lon="-1.242922">
        <ele>1009.617</ele>
        <time>2020-08-28T09:59:22Z</time>
      </trkpt>
      <trkpt lat="40.447712" lon="-1.242851">
        <ele>1009.608</ele>
        <time>2020-08-28T09:59:24Z</time>
      </trkpt>
      <trkpt lat="40.447643" lon="-1.242781">
        <ele>1009.620</ele>
        <time>2020-08-28T09:59:26Z</time>
      </trkpt>
      <trkpt lat="40.447578" lon="-1.242706">
        <ele>1009.590</ele>
        <time>2020-08-28T09:59:28Z</time>
      </trkpt>
      <trkpt lat="40.447543" lon="-1.242667">
        <ele>1009.432</ele>
        <time>2020-08-28T09:59:29Z</time>
      </trkpt>
      <trkpt lat="40.447484" lon="-1.242588">
        <ele>1009.464</ele>
        <time>2020-08-28T09:59:31Z</time>
      </trkpt>
      <trkpt lat="40.447421" lon="-1.24251">
        <ele>1009.482</ele>
        <time>2020-08-28T09:59:33Z</time>
      </trkpt>
      <trkpt lat="40.447357" lon="-1.242434">
        <ele>1009.489</ele>
        <time>2020-08-28T09:59:35Z</time>
      </trkpt>
      <trkpt lat="40.447291" lon="-1.242356">
        <ele>1009.447</ele>
        <time>2020-08-28T09:59:37Z</time>
      </trkpt>
      <trkpt lat="40.447223" lon="-1.24228">
        <ele>1009.477</ele>
        <time>2020-08-28T09:59:39Z</time>
      </trkpt>
      <trkpt lat="40.447153" lon="-1.242209">
        <ele>1009.477</ele>
        <time>2020-08-28T09:59:41Z</time>
      </trkpt>
      <trkpt lat="40.447088" lon="-1.242128">
        <ele>1009.461</ele>
        <time>2020-08-28T09:59:43Z</time>
      </trkpt>
      <trkpt lat="40.447053" lon="-1.242088">
        <ele>1009.427</ele>
        <time>2020-08-28T09:59:44Z</time>
      </trkpt>
      <trkpt lat="40.446987" lon="-1.242015">
        <ele>1009.408</ele>
        <time>2020-08-28T09:59:46Z</time>
      </trkpt>
      <trkpt lat="40.446923" lon="-1.241938">
        <ele>1009.442</ele>
        <time>2020-08-28T09:59:48Z</time>
      </trkpt>
      <trkpt lat="40.446888" lon="-1.241898">
        <ele>1009.442</ele>
        <time>2020-08-28T09:59:49Z</time>
      </trkpt>
      <trkpt lat="40.446853" lon="-1.241859">
        <ele>1009.484</ele>
        <time>2020-08-28T09:59:50Z</time>
      </trkpt>
      <trkpt lat="40.44682" lon="-1.241818">
        <ele>1009.426</ele>
        <time>2020-08-28T09:59:51Z</time>
      </trkpt>
      <trkpt lat="40.446786" lon="-1.241776">
        <ele>1009.444</ele>
        <time>2020-08-28T09:59:52Z</time>
      </trkpt>
      <trkpt lat="40.446722" lon="-1.241697">
        <ele>1009.481</ele>
        <time>2020-08-28T09:59:54Z</time>
      </trkpt>
      <trkpt lat="40.446654" lon="-1.24162">
        <ele>1009.419</ele>
        <time>2020-08-28T09:59:56Z</time>
      </trkpt>
      <trkpt lat="40.446586" lon="-1.241543">
        <ele>1009.419</ele>
        <time>2020-08-28T09:59:58Z</time>
      </trkpt>
      <trkpt lat="40.446552" lon="-1.241501">
        <ele>1009.413</ele>
        <time>2020-08-28T09:59:59Z</time>
      </trkpt>
      <trkpt lat="40.44649" lon="-1.241424">
        <ele>1009.443</ele>
        <time>2020-08-28T10:00:01Z</time>
      </trkpt>
      <trkpt lat="40.446456" lon="-1.241381">
        <ele>1009.407</ele>
        <time>2020-08-28T10:00:02Z</time>
      </trkpt>
      <trkpt lat="40.44639" lon="-1.241308">
        <ele>1009.408</ele>
        <time>2020-08-28T10:00:04Z</time>
      </trkpt>
      <trkpt lat="40.446355" lon="-1.241266">
        <ele>1009.496</ele>
        <time>2020-08-28T10:00:05Z</time>
      </trkpt>
      <trkpt lat="40.446292" lon="-1.241187">
        <ele>1009.426</ele>
        <time>2020-08-28T10:00:07Z</time>
      </trkpt>
      <trkpt lat="40.446223" lon="-1.241108">
        <ele>1009.328</ele>
        <time>2020-08-28T10:00:09Z</time>
      </trkpt>
      <trkpt lat="40.44616" lon="-1.241036">
        <ele>1009.330</ele>
        <time>2020-08-28T10:00:11Z</time>
      </trkpt>
      <trkpt lat="40.446125" lon="-1.240994">
        <ele>1009.358</ele>
        <time>2020-08-28T10:00:12Z</time>
      </trkpt>
      <trkpt lat="40.44606" lon="-1.240918">
        <ele>1009.445</ele>
        <time>2020-08-28T10:00:14Z</time>
      </trkpt>
      <trkpt lat="40.446027" lon="-1.240877">
        <ele>1009.433</ele>
        <time>2020-08-28T10:00:15Z</time>
      </trkpt>
      <trkpt lat="40.445962" lon="-1.2408">
        <ele>1009.563</ele>
        <time>2020-08-28T10:00:17Z</time>
      </trkpt>
      <trkpt lat="40.445896" lon="-1.240725">
        <ele>1009.638</ele>
        <time>2020-08-28T10:00:18Z</time>
      </trkpt>
      <trkpt lat="40.445862" lon="-1.240684">
        <ele>1009.670</ele>
        <time>2020-08-28T10:00:19Z</time>
      </trkpt>
      <trkpt lat="40.445793" lon="-1.240611">
        <ele>1009.517</ele>
        <time>2020-08-28T10:00:21Z</time>
      </trkpt>
      <trkpt lat="40.445758" lon="-1.240571">
        <ele>1009.508</ele>
        <time>2020-08-28T10:00:22Z</time>
      </trkpt>
      <trkpt lat="40.445693" lon="-1.240491">
        <ele>1009.528</ele>
        <time>2020-08-28T10:00:24Z</time>
      </trkpt>
      <trkpt lat="40.445629" lon="-1.240411">
        <ele>1009.648</ele>
        <time>2020-08-28T10:00:26Z</time>
      </trkpt>
      <trkpt lat="40.445557" lon="-1.240342">
        <ele>1009.660</ele>
        <time>2020-08-28T10:00:28Z</time>
      </trkpt>
      <trkpt lat="40.445492" lon="-1.240259">
        <ele>1009.572</ele>
        <time>2020-08-28T10:00:30Z</time>
      </trkpt>
      <trkpt lat="40.445424" lon="-1.240185">
        <ele>1009.470</ele>
        <time>2020-08-28T10:00:32Z</time>
      </trkpt>
      <trkpt lat="40.445389" lon="-1.240147">
        <ele>1009.397</ele>
        <time>2020-08-28T10:00:33Z</time>
      </trkpt>
      <trkpt lat="40.445354" lon="-1.240105">
        <ele>1009.375</ele>
        <time>2020-08-28T10:00:34Z</time>
      </trkpt>
      <trkpt lat="40.445287" lon="-1.24003">
        <ele>1009.365</ele>
        <time>2020-08-28T10:00:36Z</time>
      </trkpt>
      <trkpt lat="40.445222" lon="-1.239951">
        <ele>1009.336</ele>
        <time>2020-08-28T10:00:38Z</time>
      </trkpt>
      <trkpt lat="40.445155" lon="-1.239875">
        <ele>1009.317</ele>
        <time>2020-08-28T10:00:40Z</time>
      </trkpt>
      <trkpt lat="40.44512" lon="-1.239835">
        <ele>1009.318</ele>
        <time>2020-08-28T10:00:41Z</time>
      </trkpt>
      <trkpt lat="40.445084" lon="-1.239793">
        <ele>1009.308</ele>
        <time>2020-08-28T10:00:42Z</time>
      </trkpt>
      <trkpt lat="40.445018" lon="-1.239716">
        <ele>1009.358</ele>
        <time>2020-08-28T10:00:44Z</time>
      </trkpt>
      <trkpt lat="40.44495" lon="-1.23964">
        <ele>1009.368</ele>
        <time>2020-08-28T10:00:46Z</time>
      </trkpt>
      <trkpt lat="40.444883" lon="-1.23956">
        <ele>1009.390</ele>
        <time>2020-08-28T10:00:48Z</time>
      </trkpt>
      <trkpt lat="40.444847" lon="-1.23952">
        <ele>1009.372</ele>
        <time>2020-08-28T10:00:49Z</time>
      </trkpt>
      <trkpt lat="40.444811" lon="-1.239482">
        <ele>1009.390</ele>
        <time>2020-08-28T10:00:50Z</time>
      </trkpt>
      <trkpt lat="40.444776" lon="-1.239442">
        <ele>1009.387</ele>
        <time>2020-08-28T10:00:51Z</time>
      </trkpt>
      <trkpt lat="40.444742" lon="-1.239401">
        <ele>1009.355</ele>
        <time>2020-08-28T10:00:52Z</time>
      </trkpt>
      <trkpt lat="40.444707" lon="-1.23936">
        <ele>1009.315</ele>
        <time>2020-08-28T10:00:53Z</time>
      </trkpt>
      <trkpt lat="40.444642" lon="-1.239279">
        <ele>1009.372</ele>
        <time>2020-08-28T10:00:55Z</time>
      </trkpt>
      <trkpt lat="40.444607" lon="-1.239236">
        <ele>1009.313</ele>
        <time>2020-08-28T10:00:56Z</time>
      </trkpt>
      <trkpt lat="40.444573" lon="-1.239192">
        <ele>1009.314</ele>
        <time>2020-08-28T10:00:57Z</time>
      </trkpt>
      <trkpt lat="40.44454" lon="-1.239152">
        <ele>1009.308</ele>
        <time>2020-08-28T10:00:58Z</time>
      </trkpt>
      <trkpt lat="40.444505" lon="-1.239115">
        <ele>1009.282</ele>
        <time>2020-08-28T10:00:59Z</time>
      </trkpt>
      <trkpt lat="40.444471" lon="-1.239072">
        <ele>1009.192</ele>
        <time>2020-08-28T10:01:00Z</time>
      </trkpt>
      <trkpt lat="40.444435" lon="-1.239034">
        <ele>1009.084</ele>
        <time>2020-08-28T10:01:01Z</time>
      </trkpt>
      <trkpt lat="40.444399" lon="-1.238995">
        <ele>1009.086</ele>
        <time>2020-08-28T10:01:02Z</time>
      </trkpt>
      <trkpt lat="40.444362" lon="-1.23896">
        <ele>1009.054</ele>
        <time>2020-08-28T10:01:03Z</time>
      </trkpt>
      <trkpt lat="40.444329" lon="-1.238918">
        <ele>1009.071</ele>
        <time>2020-08-28T10:01:04Z</time>
      </trkpt>
      <trkpt lat="40.444293" lon="-1.238878">
        <ele>1009.089</ele>
        <time>2020-08-28T10:01:05Z</time>
      </trkpt>
      <trkpt lat="40.444257" lon="-1.238834">
        <ele>1009.019</ele>
        <time>2020-08-28T10:01:06Z</time>
      </trkpt>
      <trkpt lat="40.444221" lon="-1.238793">
        <ele>1009.043</ele>
        <time>2020-08-28T10:01:07Z</time>
      </trkpt>
      <trkpt lat="40.444185" lon="-1.238752">
        <ele>1009.064</ele>
        <time>2020-08-28T10:01:08Z</time>
      </trkpt>
      <trkpt lat="40.444151" lon="-1.238714">
        <ele>1009.010</ele>
        <time>2020-08-28T10:01:09Z</time>
      </trkpt>
      <trkpt lat="40.444114" lon="-1.238671">
        <ele>1008.908</ele>
        <time>2020-08-28T10:01:10Z</time>
      </trkpt>
      <trkpt lat="40.444079" lon="-1.238631">
        <ele>1008.939</ele>
        <time>2020-08-28T10:01:11Z</time>
      </trkpt>
      <trkpt lat="40.444044" lon="-1.238589">
        <ele>1008.949</ele>
        <time>2020-08-28T10:01:12Z</time>
      </trkpt>
      <trkpt lat="40.444008" lon="-1.238545">
        <ele>1008.931</ele>
        <time>2020-08-28T10:01:13Z</time>
      </trkpt>
      <trkpt lat="40.443971" lon="-1.238503">
        <ele>1008.923</ele>
        <time>2020-08-28T10:01:14Z</time>
      </trkpt>
      <trkpt lat="40.443903" lon="-1.238418">
        <ele>1008.981</ele>
        <time>2020-08-28T10:01:16Z</time>
      </trkpt>
      <trkpt lat="40.443869" lon="-1.238375">
        <ele>1008.918</ele>
        <time>2020-08-28T10:01:17Z</time>
      </trkpt>
      <trkpt lat="40.443832" lon="-1.238335">
        <ele>1008.946</ele>
        <time>2020-08-28T10:01:18Z</time>
      </trkpt>
      <trkpt lat="40.443764" lon="-1.238258">
        <ele>1008.956</ele>
        <time>2020-08-28T10:01:20Z</time>
      </trkpt>
      <trkpt lat="40.443697" lon="-1.238181">
        <ele>1008.895</ele>
        <time>2020-08-28T10:01:22Z</time>
      </trkpt>
      <trkpt lat="40.443663" lon="-1.238142">
        <ele>1008.849</ele>
        <time>2020-08-28T10:01:23Z</time>
      </trkpt>
      <trkpt lat="40.443629" lon="-1.238103">
        <ele>1008.823</ele>
        <time>2020-08-28T10:01:24Z</time>
      </trkpt>
      <trkpt lat="40.443562" lon="-1.238024">
        <ele>1008.708</ele>
        <time>2020-08-28T10:01:26Z</time>
      </trkpt>
      <trkpt lat="40.443496" lon="-1.237945">
        <ele>1008.734</ele>
        <time>2020-08-28T10:01:28Z</time>
      </trkpt>
      <trkpt lat="40.443461" lon="-1.237907">
        <ele>1008.754</ele>
        <time>2020-08-28T10:01:29Z</time>
      </trkpt>
      <trkpt lat="40.443395" lon="-1.237827">
        <ele>1008.876</ele>
        <time>2020-08-28T10:01:31Z</time>
      </trkpt>
      <trkpt lat="40.44336" lon="-1.237785">
        <ele>1008.838</ele>
        <time>2020-08-28T10:01:32Z</time>
      </trkpt>
      <trkpt lat="40.443324" lon="-1.237745">
        <ele>1008.866</ele>
        <time>2020-08-28T10:01:33Z</time>
      </trkpt>
      <trkpt lat="40.443254" lon="-1.237665">
        <ele>1008.863</ele>
        <time>2020-08-28T10:01:35Z</time>
      </trkpt>
      <trkpt lat="40.44322" lon="-1.237622">
        <ele>1008.891</ele>
        <time>2020-08-28T10:01:36Z</time>
      </trkpt>
      <trkpt lat="40.443184" lon="-1.237586">
        <ele>1008.891</ele>
        <time>2020-08-28T10:01:37Z</time>
      </trkpt>
      <trkpt lat="40.443147" lon="-1.237545">
        <ele>1008.763</ele>
        <time>2020-08-28T10:01:38Z</time>
      </trkpt>
      <trkpt lat="40.443111" lon="-1.237503">
        <ele>1008.744</ele>
        <time>2020-08-28T10:01:39Z</time>
      </trkpt>
      <trkpt lat="40.443074" lon="-1.237459">
        <ele>1008.618</ele>
        <time>2020-08-28T10:01:40Z</time>
      </trkpt>
      <trkpt lat="40.443034" lon="-1.237415">
        <ele>1008.608</ele>
        <time>2020-08-28T10:01:41Z</time>
      </trkpt>
      <trkpt lat="40.442964" lon="-1.237327">
        <ele>1008.581</ele>
        <time>2020-08-28T10:01:43Z</time>
      </trkpt>
      <trkpt lat="40.442928" lon="-1.237289">
        <ele>1008.551</ele>
        <time>2020-08-28T10:01:44Z</time>
      </trkpt>
      <trkpt lat="40.442894" lon="-1.237247">
        <ele>1008.583</ele>
        <time>2020-08-28T10:01:45Z</time>
      </trkpt>
      <trkpt lat="40.442858" lon="-1.237203">
        <ele>1008.585</ele>
        <time>2020-08-28T10:01:46Z</time>
      </trkpt>
      <trkpt lat="40.442824" lon="-1.237163">
        <ele>1008.543</ele>
        <time>2020-08-28T10:01:47Z</time>
      </trkpt>
      <trkpt lat="40.442789" lon="-1.23712">
        <ele>1008.560</ele>
        <time>2020-08-28T10:01:48Z</time>
      </trkpt>
      <trkpt lat="40.442752" lon="-1.237078">
        <ele>1008.588</ele>
        <time>2020-08-28T10:01:49Z</time>
      </trkpt>
      <trkpt lat="40.442716" lon="-1.237034">
        <ele>1008.558</ele>
        <time>2020-08-28T10:01:50Z</time>
      </trkpt>
      <trkpt lat="40.442681" lon="-1.236993">
        <ele>1008.582</ele>
        <time>2020-08-28T10:01:51Z</time>
      </trkpt>
      <trkpt lat="40.442646" lon="-1.236954">
        <ele>1008.543</ele>
        <time>2020-08-28T10:01:52Z</time>
      </trkpt>
      <trkpt lat="40.442609" lon="-1.236911">
        <ele>1008.517</ele>
        <time>2020-08-28T10:01:53Z</time>
      </trkpt>
      <trkpt lat="40.442573" lon="-1.236869">
        <ele>1008.508</ele>
        <time>2020-08-28T10:01:54Z</time>
      </trkpt>
      <trkpt lat="40.442538" lon="-1.236821">
        <ele>1008.563</ele>
        <time>2020-08-28T10:01:55Z</time>
      </trkpt>
      <trkpt lat="40.442504" lon="-1.236782">
        <ele>1008.573</ele>
        <time>2020-08-28T10:01:56Z</time>
      </trkpt>
      <trkpt lat="40.442468" lon="-1.236743">
        <ele>1008.555</ele>
        <time>2020-08-28T10:01:57Z</time>
      </trkpt>
      <trkpt lat="40.442433" lon="-1.236699">
        <ele>1008.517</ele>
        <time>2020-08-28T10:01:58Z</time>
      </trkpt>
      <trkpt lat="40.442399" lon="-1.236654">
        <ele>1008.585</ele>
        <time>2020-08-28T10:01:59Z</time>
      </trkpt>
      <trkpt lat="40.442363" lon="-1.236611">
        <ele>1008.582</ele>
        <time>2020-08-28T10:02:00Z</time>
      </trkpt>
      <trkpt lat="40.442328" lon="-1.236571">
        <ele>1008.570</ele>
        <time>2020-08-28T10:02:01Z</time>
      </trkpt>
      <trkpt lat="40.442289" lon="-1.236529">
        <ele>1008.540</ele>
        <time>2020-08-28T10:02:02Z</time>
      </trkpt>
      <trkpt lat="40.44225" lon="-1.236484">
        <ele>1008.566</ele>
        <time>2020-08-28T10:02:03Z</time>
      </trkpt>
      <trkpt lat="40.442214" lon="-1.236444">
        <ele>1008.429</ele>
        <time>2020-08-28T10:02:04Z</time>
      </trkpt>
      <trkpt lat="40.442177" lon="-1.236401">
        <ele>1008.321</ele>
        <time>2020-08-28T10:02:05Z</time>
      </trkpt>
      <trkpt lat="40.442143" lon="-1.236357">
        <ele>1008.308</ele>
        <time>2020-08-28T10:02:06Z</time>
      </trkpt>
      <trkpt lat="40.442107" lon="-1.236316">
        <ele>1008.311</ele>
        <time>2020-08-28T10:02:07Z</time>
      </trkpt>
      <trkpt lat="40.442069" lon="-1.23627">
        <ele>1008.321</ele>
        <time>2020-08-28T10:02:08Z</time>
      </trkpt>
      <trkpt lat="40.442031" lon="-1.23623">
        <ele>1008.313</ele>
        <time>2020-08-28T10:02:09Z</time>
      </trkpt>
      <trkpt lat="40.441992" lon="-1.236187">
        <ele>1008.325</ele>
        <time>2020-08-28T10:02:10Z</time>
      </trkpt>
      <trkpt lat="40.441922" lon="-1.23611">
        <ele>1008.373</ele>
        <time>2020-08-28T10:02:12Z</time>
      </trkpt>
      <trkpt lat="40.441883" lon="-1.236071">
        <ele>1008.370</ele>
        <time>2020-08-28T10:02:13Z</time>
      </trkpt>
      <trkpt lat="40.441846" lon="-1.23603">
        <ele>1008.338</ele>
        <time>2020-08-28T10:02:14Z</time>
      </trkpt>
      <trkpt lat="40.44181" lon="-1.235982">
        <ele>1008.368</ele>
        <time>2020-08-28T10:02:15Z</time>
      </trkpt>
      <trkpt lat="40.441773" lon="-1.235942">
        <ele>1008.251</ele>
        <time>2020-08-28T10:02:16Z</time>
      </trkpt>
      <trkpt lat="40.441738" lon="-1.235896">
        <ele>1008.101</ele>
        <time>2020-08-28T10:02:17Z</time>
      </trkpt>
      <trkpt lat="40.4417" lon="-1.235851">
        <ele>1008.011</ele>
        <time>2020-08-28T10:02:18Z</time>
      </trkpt>
      <trkpt lat="40.441664" lon="-1.235806">
        <ele>1007.908</ele>
        <time>2020-08-28T10:02:19Z</time>
      </trkpt>
      <trkpt lat="40.441625" lon="-1.235766">
        <ele>1007.820</ele>
        <time>2020-08-28T10:02:20Z</time>
      </trkpt>
      <trkpt lat="40.441588" lon="-1.235722">
        <ele>1007.730</ele>
        <time>2020-08-28T10:02:21Z</time>
      </trkpt>
      <trkpt lat="40.441552" lon="-1.235684">
        <ele>1007.782</ele>
        <time>2020-08-28T10:02:22Z</time>
      </trkpt>
      <trkpt lat="40.441514" lon="-1.235638">
        <ele>1007.714</ele>
        <time>2020-08-28T10:02:23Z</time>
      </trkpt>
      <trkpt lat="40.441476" lon="-1.235596">
        <ele>1007.762</ele>
        <time>2020-08-28T10:02:24Z</time>
      </trkpt>
      <trkpt lat="40.441439" lon="-1.235552">
        <ele>1007.759</ele>
        <time>2020-08-28T10:02:25Z</time>
      </trkpt>
      <trkpt lat="40.441401" lon="-1.235509">
        <ele>1007.787</ele>
        <time>2020-08-28T10:02:26Z</time>
      </trkpt>
      <trkpt lat="40.441363" lon="-1.235466">
        <ele>1007.757</ele>
        <time>2020-08-28T10:02:27Z</time>
      </trkpt>
      <trkpt lat="40.441328" lon="-1.235427">
        <ele>1007.715</ele>
        <time>2020-08-28T10:02:28Z</time>
      </trkpt>
      <trkpt lat="40.441293" lon="-1.235383">
        <ele>1007.765</ele>
        <time>2020-08-28T10:02:29Z</time>
      </trkpt>
      <trkpt lat="40.441256" lon="-1.235342">
        <ele>1007.711</ele>
        <time>2020-08-28T10:02:30Z</time>
      </trkpt>
      <trkpt lat="40.441217" lon="-1.235295">
        <ele>1007.708</ele>
        <time>2020-08-28T10:02:31Z</time>
      </trkpt>
      <trkpt lat="40.44118" lon="-1.235254">
        <ele>1007.776</ele>
        <time>2020-08-28T10:02:32Z</time>
      </trkpt>
      <trkpt lat="40.441144" lon="-1.235213">
        <ele>1007.786</ele>
        <time>2020-08-28T10:02:33Z</time>
      </trkpt>
      <trkpt lat="40.441106" lon="-1.235173">
        <ele>1007.618</ele>
        <time>2020-08-28T10:02:34Z</time>
      </trkpt>
      <trkpt lat="40.441068" lon="-1.235133">
        <ele>1007.670</ele>
        <time>2020-08-28T10:02:35Z</time>
      </trkpt>
      <trkpt lat="40.44103" lon="-1.235093">
        <ele>1007.688</ele>
        <time>2020-08-28T10:02:36Z</time>
      </trkpt>
      <trkpt lat="40.440996" lon="-1.235049">
        <ele>1007.665</ele>
        <time>2020-08-28T10:02:37Z</time>
      </trkpt>
      <trkpt lat="40.440955" lon="-1.235003">
        <ele>1007.663</ele>
        <time>2020-08-28T10:02:38Z</time>
      </trkpt>
      <trkpt lat="40.440915" lon="-1.234962">
        <ele>1007.683</ele>
        <time>2020-08-28T10:02:39Z</time>
      </trkpt>
      <trkpt lat="40.440876" lon="-1.234914">
        <ele>1007.616</ele>
        <time>2020-08-28T10:02:40Z</time>
      </trkpt>
      <trkpt lat="40.440837" lon="-1.234868">
        <ele>1007.676</ele>
        <time>2020-08-28T10:02:41Z</time>
      </trkpt>
      <trkpt lat="40.440799" lon="-1.234824">
        <ele>1007.613</ele>
        <time>2020-08-28T10:02:42Z</time>
      </trkpt>
      <trkpt lat="40.44076" lon="-1.234779">
        <ele>1007.508</ele>
        <time>2020-08-28T10:02:43Z</time>
      </trkpt>
      <trkpt lat="40.440722" lon="-1.234735">
        <ele>1007.586</ele>
        <time>2020-08-28T10:02:44Z</time>
      </trkpt>
      <trkpt lat="40.440682" lon="-1.234688">
        <ele>1007.516</ele>
        <time>2020-08-28T10:02:45Z</time>
      </trkpt>
      <trkpt lat="40.440645" lon="-1.234637">
        <ele>1007.588</ele>
        <time>2020-08-28T10:02:46Z</time>
      </trkpt>
      <trkpt lat="40.440606" lon="-1.234594">
        <ele>1007.550</ele>
        <time>2020-08-28T10:02:47Z</time>
      </trkpt>
      <trkpt lat="40.440568" lon="-1.23455">
        <ele>1007.538</ele>
        <time>2020-08-28T10:02:48Z</time>
      </trkpt>
      <trkpt lat="40.440529" lon="-1.234505">
        <ele>1007.585</ele>
        <time>2020-08-28T10:02:49Z</time>
      </trkpt>
      <trkpt lat="40.440492" lon="-1.234457">
        <ele>1007.593</ele>
        <time>2020-08-28T10:02:50Z</time>
      </trkpt>
      <trkpt lat="40.440451" lon="-1.234411">
        <ele>1007.593</ele>
        <time>2020-08-28T10:02:51Z</time>
      </trkpt>
      <trkpt lat="40.440412" lon="-1.234367">
        <ele>1007.598</ele>
        <time>2020-08-28T10:02:52Z</time>
      </trkpt>
      <trkpt lat="40.440372" lon="-1.234318">
        <ele>1007.515</ele>
        <time>2020-08-28T10:02:53Z</time>
      </trkpt>
      <trkpt lat="40.440335" lon="-1.234273">
        <ele>1007.526</ele>
        <time>2020-08-28T10:02:54Z</time>
      </trkpt>
      <trkpt lat="40.440298" lon="-1.234228">
        <ele>1007.508</ele>
        <time>2020-08-28T10:02:55Z</time>
      </trkpt>
      <trkpt lat="40.440263" lon="-1.234185">
        <ele>1007.514</ele>
        <time>2020-08-28T10:02:56Z</time>
      </trkpt>
      <trkpt lat="40.440223" lon="-1.23414">
        <ele>1007.514</ele>
        <time>2020-08-28T10:02:57Z</time>
      </trkpt>
      <trkpt lat="40.440184" lon="-1.234095">
        <ele>1007.546</ele>
        <time>2020-08-28T10:02:58Z</time>
      </trkpt>
      <trkpt lat="40.440144" lon="-1.234054">
        <ele>1007.588</ele>
        <time>2020-08-28T10:02:59Z</time>
      </trkpt>
      <trkpt lat="40.440107" lon="-1.234007">
        <ele>1007.556</ele>
        <time>2020-08-28T10:03:00Z</time>
      </trkpt>
      <trkpt lat="40.440071" lon="-1.233963">
        <ele>1007.523</ele>
        <time>2020-08-28T10:03:01Z</time>
      </trkpt>
      <trkpt lat="40.440032" lon="-1.23392">
        <ele>1007.581</ele>
        <time>2020-08-28T10:03:02Z</time>
      </trkpt>
      <trkpt lat="40.439991" lon="-1.233874">
        <ele>1007.551</ele>
        <time>2020-08-28T10:03:03Z</time>
      </trkpt>
      <trkpt lat="40.43995" lon="-1.23383">
        <ele>1007.493</ele>
        <time>2020-08-28T10:03:04Z</time>
      </trkpt>
      <trkpt lat="40.439912" lon="-1.233784">
        <ele>1007.465</ele>
        <time>2020-08-28T10:03:05Z</time>
      </trkpt>
      <trkpt lat="40.439873" lon="-1.233743">
        <ele>1007.421</ele>
        <time>2020-08-28T10:03:06Z</time>
      </trkpt>
      <trkpt lat="40.439835" lon="-1.233698">
        <ele>1007.308</ele>
        <time>2020-08-28T10:03:07Z</time>
      </trkpt>
      <trkpt lat="40.439795" lon="-1.233656">
        <ele>1007.364</ele>
        <time>2020-08-28T10:03:08Z</time>
      </trkpt>
      <trkpt lat="40.439759" lon="-1.233614">
        <ele>1007.354</ele>
        <time>2020-08-28T10:03:09Z</time>
      </trkpt>
      <trkpt lat="40.43972" lon="-1.233567">
        <ele>1007.346</ele>
        <time>2020-08-28T10:03:10Z</time>
      </trkpt>
      <trkpt lat="40.439684" lon="-1.233517">
        <ele>1007.298</ele>
        <time>2020-08-28T10:03:11Z</time>
      </trkpt>
      <trkpt lat="40.439645" lon="-1.23347">
        <ele>1007.216</ele>
        <time>2020-08-28T10:03:12Z</time>
      </trkpt>
      <trkpt lat="40.439608" lon="-1.233424">
        <ele>1007.243</ele>
        <time>2020-08-28T10:03:13Z</time>
      </trkpt>
      <trkpt lat="40.439571" lon="-1.233374">
        <ele>1007.251</ele>
        <time>2020-08-28T10:03:14Z</time>
      </trkpt>
      <trkpt lat="40.439533" lon="-1.233332">
        <ele>1007.281</ele>
        <time>2020-08-28T10:03:15Z</time>
      </trkpt>
      <trkpt lat="40.439498" lon="-1.233288">
        <ele>1007.247</ele>
        <time>2020-08-28T10:03:16Z</time>
      </trkpt>
      <trkpt lat="40.439463" lon="-1.233238">
        <ele>1007.229</ele>
        <time>2020-08-28T10:03:17Z</time>
      </trkpt>
      <trkpt lat="40.439427" lon="-1.233196">
        <ele>1007.221</ele>
        <time>2020-08-28T10:03:18Z</time>
      </trkpt>
      <trkpt lat="40.439358" lon="-1.233119">
        <ele>1007.208</ele>
        <time>2020-08-28T10:03:20Z</time>
      </trkpt>
      <trkpt lat="40.43932" lon="-1.233076">
        <ele>1007.219</ele>
        <time>2020-08-28T10:03:21Z</time>
      </trkpt>
      <trkpt lat="40.439286" lon="-1.233033">
        <ele>1007.279</ele>
        <time>2020-08-28T10:03:22Z</time>
      </trkpt>
      <trkpt lat="40.439216" lon="-1.232958">
        <ele>1007.221</ele>
        <time>2020-08-28T10:03:24Z</time>
      </trkpt>
      <trkpt lat="40.439183" lon="-1.232912">
        <ele>1007.243</ele>
        <time>2020-08-28T10:03:25Z</time>
      </trkpt>
      <trkpt lat="40.439145" lon="-1.23287">
        <ele>1007.211</ele>
        <time>2020-08-28T10:03:26Z</time>
      </trkpt>
      <trkpt lat="40.439108" lon="-1.232828">
        <ele>1007.198</ele>
        <time>2020-08-28T10:03:27Z</time>
      </trkpt>
      <trkpt lat="40.439071" lon="-1.232782">
        <ele>1007.036</ele>
        <time>2020-08-28T10:03:28Z</time>
      </trkpt>
      <trkpt lat="40.439037" lon="-1.232742">
        <ele>1007.086</ele>
        <time>2020-08-28T10:03:29Z</time>
      </trkpt>
      <trkpt lat="40.438999" lon="-1.232701">
        <ele>1007.049</ele>
        <time>2020-08-28T10:03:30Z</time>
      </trkpt>
      <trkpt lat="40.43896" lon="-1.23266">
        <ele>1007.002</ele>
        <time>2020-08-28T10:03:31Z</time>
      </trkpt>
      <trkpt lat="40.438921" lon="-1.232618">
        <ele>1007.022</ele>
        <time>2020-08-28T10:03:32Z</time>
      </trkpt>
      <trkpt lat="40.438882" lon="-1.232583">
        <ele>1007.008</ele>
        <time>2020-08-28T10:03:33Z</time>
      </trkpt>
      <trkpt lat="40.438845" lon="-1.232538">
        <ele>1007.099</ele>
        <time>2020-08-28T10:03:34Z</time>
      </trkpt>
      <trkpt lat="40.43881" lon="-1.232488">
        <ele>1007.099</ele>
        <time>2020-08-28T10:03:35Z</time>
      </trkpt>
      <trkpt lat="40.438771" lon="-1.232445">
        <ele>1007.041</ele>
        <time>2020-08-28T10:03:36Z</time>
      </trkpt>
      <trkpt lat="40.438733" lon="-1.232395">
        <ele>1007.083</ele>
        <time>2020-08-28T10:03:37Z</time>
      </trkpt>
      <trkpt lat="40.438696" lon="-1.232354">
        <ele>1007.011</ele>
        <time>2020-08-28T10:03:38Z</time>
      </trkpt>
      <trkpt lat="40.438655" lon="-1.232314">
        <ele>1006.918</ele>
        <time>2020-08-28T10:03:39Z</time>
      </trkpt>
      <trkpt lat="40.438617" lon="-1.232277">
        <ele>1006.826</ele>
        <time>2020-08-28T10:03:40Z</time>
      </trkpt>
      <trkpt lat="40.43858" lon="-1.232229">
        <ele>1006.736</ele>
        <time>2020-08-28T10:03:41Z</time>
      </trkpt>
      <trkpt lat="40.438543" lon="-1.232185">
        <ele>1006.712</ele>
        <time>2020-08-28T10:03:42Z</time>
      </trkpt>
      <trkpt lat="40.438504" lon="-1.232146">
        <ele>1006.732</ele>
        <time>2020-08-28T10:03:43Z</time>
      </trkpt>
      <trkpt lat="40.438466" lon="-1.232101">
        <ele>1006.705</ele>
        <time>2020-08-28T10:03:44Z</time>
      </trkpt>
      <trkpt lat="40.438427" lon="-1.232052">
        <ele>1006.708</ele>
        <time>2020-08-28T10:03:45Z</time>
      </trkpt>
      <trkpt lat="40.438389" lon="-1.23201">
        <ele>1006.766</ele>
        <time>2020-08-28T10:03:46Z</time>
      </trkpt>
      <trkpt lat="40.438353" lon="-1.231967">
        <ele>1006.776</ele>
        <time>2020-08-28T10:03:47Z</time>
      </trkpt>
      <trkpt lat="40.438317" lon="-1.231922">
        <ele>1006.678</ele>
        <time>2020-08-28T10:03:48Z</time>
      </trkpt>
      <trkpt lat="40.43828" lon="-1.231877">
        <ele>1006.640</ele>
        <time>2020-08-28T10:03:49Z</time>
      </trkpt>
      <trkpt lat="40.43824" lon="-1.231831">
        <ele>1006.658</ele>
        <time>2020-08-28T10:03:50Z</time>
      </trkpt>
      <trkpt lat="40.438202" lon="-1.231788">
        <ele>1006.635</ele>
        <time>2020-08-28T10:03:51Z</time>
      </trkpt>
      <trkpt lat="40.438165" lon="-1.231741">
        <ele>1006.663</ele>
        <time>2020-08-28T10:03:52Z</time>
      </trkpt>
      <trkpt lat="40.438125" lon="-1.231699">
        <ele>1006.683</ele>
        <time>2020-08-28T10:03:53Z</time>
      </trkpt>
      <trkpt lat="40.438086" lon="-1.231656">
        <ele>1006.697</ele>
        <time>2020-08-28T10:03:54Z</time>
      </trkpt>
      <trkpt lat="40.438049" lon="-1.23161">
        <ele>1006.523</ele>
        <time>2020-08-28T10:03:55Z</time>
      </trkpt>
      <trkpt lat="40.43801" lon="-1.231564">
        <ele>1006.525</ele>
        <time>2020-08-28T10:03:56Z</time>
      </trkpt>
      <trkpt lat="40.437972" lon="-1.231522">
        <ele>1006.508</ele>
        <time>2020-08-28T10:03:57Z</time>
      </trkpt>
      <trkpt lat="40.437932" lon="-1.231473">
        <ele>1006.534</ele>
        <time>2020-08-28T10:03:58Z</time>
      </trkpt>
      <trkpt lat="40.437896" lon="-1.231436">
        <ele>1006.524</ele>
        <time>2020-08-28T10:03:59Z</time>
      </trkpt>
      <trkpt lat="40.437858" lon="-1.23139">
        <ele>1006.516</ele>
        <time>2020-08-28T10:04:00Z</time>
      </trkpt>
      <trkpt lat="40.437821" lon="-1.231343">
        <ele>1006.548</ele>
        <time>2020-08-28T10:04:01Z</time>
      </trkpt>
      <trkpt lat="40.437781" lon="-1.231301">
        <ele>1006.596</ele>
        <time>2020-08-28T10:04:02Z</time>
      </trkpt>
      <trkpt lat="40.437744" lon="-1.231253">
        <ele>1006.583</ele>
        <time>2020-08-28T10:04:03Z</time>
      </trkpt>
      <trkpt lat="40.437706" lon="-1.231209">
        <ele>1006.521</ele>
        <time>2020-08-28T10:04:04Z</time>
      </trkpt>
      <trkpt lat="40.437671" lon="-1.231168">
        <ele>1006.531</ele>
        <time>2020-08-28T10:04:05Z</time>
      </trkpt>
      <trkpt lat="40.437633" lon="-1.231122">
        <ele>1006.519</ele>
        <time>2020-08-28T10:04:06Z</time>
      </trkpt>
      <trkpt lat="40.437594" lon="-1.231083">
        <ele>1006.509</ele>
        <time>2020-08-28T10:04:07Z</time>
      </trkpt>
      <trkpt lat="40.43756" lon="-1.231042">
        <ele>1006.519</ele>
        <time>2020-08-28T10:04:08Z</time>
      </trkpt>
      <trkpt lat="40.437527" lon="-1.230997">
        <ele>1006.508</ele>
        <time>2020-08-28T10:04:09Z</time>
      </trkpt>
      <trkpt lat="40.437491" lon="-1.230956">
        <ele>1006.526</ele>
        <time>2020-08-28T10:04:10Z</time>
      </trkpt>
      <trkpt lat="40.437456" lon="-1.230919">
        <ele>1006.526</ele>
        <time>2020-08-28T10:04:11Z</time>
      </trkpt>
      <trkpt lat="40.437388" lon="-1.230842">
        <ele>1006.448</ele>
        <time>2020-08-28T10:04:13Z</time>
      </trkpt>
      <trkpt lat="40.437351" lon="-1.230803">
        <ele>1006.430</ele>
        <time>2020-08-28T10:04:14Z</time>
      </trkpt>
      <trkpt lat="40.437315" lon="-1.23076">
        <ele>1006.448</ele>
        <time>2020-08-28T10:04:15Z</time>
      </trkpt>
      <trkpt lat="40.437278" lon="-1.230718">
        <ele>1006.435</ele>
        <time>2020-08-28T10:04:16Z</time>
      </trkpt>
      <trkpt lat="40.437241" lon="-1.230674">
        <ele>1006.493</ele>
        <time>2020-08-28T10:04:17Z</time>
      </trkpt>
      <trkpt lat="40.437206" lon="-1.230634">
        <ele>1006.453</ele>
        <time>2020-08-28T10:04:18Z</time>
      </trkpt>
      <trkpt lat="40.43717" lon="-1.230596">
        <ele>1006.459</ele>
        <time>2020-08-28T10:04:19Z</time>
      </trkpt>
      <trkpt lat="40.437137" lon="-1.230555">
        <ele>1006.403</ele>
        <time>2020-08-28T10:04:20Z</time>
      </trkpt>
      <trkpt lat="40.437102" lon="-1.230514">
        <ele>1006.423</ele>
        <time>2020-08-28T10:04:21Z</time>
      </trkpt>
      <trkpt lat="40.437067" lon="-1.230472">
        <ele>1006.408</ele>
        <time>2020-08-28T10:04:22Z</time>
      </trkpt>
      <trkpt lat="40.437034" lon="-1.230428">
        <ele>1006.410</ele>
        <time>2020-08-28T10:04:23Z</time>
      </trkpt>
      <trkpt lat="40.436998" lon="-1.230385">
        <ele>1006.490</ele>
        <time>2020-08-28T10:04:24Z</time>
      </trkpt>
      <trkpt lat="40.43696" lon="-1.230345">
        <ele>1006.482</ele>
        <time>2020-08-28T10:04:25Z</time>
      </trkpt>
      <trkpt lat="40.436925" lon="-1.230305">
        <ele>1006.464</ele>
        <time>2020-08-28T10:04:26Z</time>
      </trkpt>
      <trkpt lat="40.43689" lon="-1.230267">
        <ele>1006.442</ele>
        <time>2020-08-28T10:04:27Z</time>
      </trkpt>
      <trkpt lat="40.436855" lon="-1.230227">
        <ele>1006.479</ele>
        <time>2020-08-28T10:04:28Z</time>
      </trkpt>
      <trkpt lat="40.436819" lon="-1.230183">
        <ele>1006.497</ele>
        <time>2020-08-28T10:04:29Z</time>
      </trkpt>
      <trkpt lat="40.436783" lon="-1.230145">
        <ele>1006.447</ele>
        <time>2020-08-28T10:04:30Z</time>
      </trkpt>
      <trkpt lat="40.436749" lon="-1.230105">
        <ele>1006.431</ele>
        <time>2020-08-28T10:04:31Z</time>
      </trkpt>
      <trkpt lat="40.436713" lon="-1.230063">
        <ele>1006.461</ele>
        <time>2020-08-28T10:04:32Z</time>
      </trkpt>
      <trkpt lat="40.436644" lon="-1.229986">
        <ele>1006.407</ele>
        <time>2020-08-28T10:04:34Z</time>
      </trkpt>
      <trkpt lat="40.436609" lon="-1.229945">
        <ele>1006.408</ele>
        <time>2020-08-28T10:04:35Z</time>
      </trkpt>
      <trkpt lat="40.436539" lon="-1.229868">
        <ele>1006.448</ele>
        <time>2020-08-28T10:04:37Z</time>
      </trkpt>
      <trkpt lat="40.436505" lon="-1.229829">
        <ele>1006.488</ele>
        <time>2020-08-28T10:04:38Z</time>
      </trkpt>
      <trkpt lat="40.436468" lon="-1.229794">
        <ele>1006.470</ele>
        <time>2020-08-28T10:04:39Z</time>
      </trkpt>
      <trkpt lat="40.436431" lon="-1.22975">
        <ele>1006.492</ele>
        <time>2020-08-28T10:04:40Z</time>
      </trkpt>
      <trkpt lat="40.436358" lon="-1.229671">
        <ele>1006.320</ele>
        <time>2020-08-28T10:04:42Z</time>
      </trkpt>
      <trkpt lat="40.436295" lon="-1.229593">
        <ele>1006.327</ele>
        <time>2020-08-28T10:04:44Z</time>
      </trkpt>
      <trkpt lat="40.436262" lon="-1.22955">
        <ele>1006.375</ele>
        <time>2020-08-28T10:04:45Z</time>
      </trkpt>
      <trkpt lat="40.436226" lon="-1.229508">
        <ele>1006.325</ele>
        <time>2020-08-28T10:04:46Z</time>
      </trkpt>
      <trkpt lat="40.43619" lon="-1.229466">
        <ele>1006.315</ele>
        <time>2020-08-28T10:04:47Z</time>
      </trkpt>
      <trkpt lat="40.436124" lon="-1.229386">
        <ele>1006.265</ele>
        <time>2020-08-28T10:04:49Z</time>
      </trkpt>
      <trkpt lat="40.43609" lon="-1.229342">
        <ele>1006.211</ele>
        <time>2020-08-28T10:04:50Z</time>
      </trkpt>
      <trkpt lat="40.436055" lon="-1.229299">
        <ele>1006.208</ele>
        <time>2020-08-28T10:04:51Z</time>
      </trkpt>
      <trkpt lat="40.43602" lon="-1.229257">
        <ele>1006.226</ele>
        <time>2020-08-28T10:04:52Z</time>
      </trkpt>
      <trkpt lat="40.435984" lon="-1.229216">
        <ele>1006.216</ele>
        <time>2020-08-28T10:04:53Z</time>
      </trkpt>
      <trkpt lat="40.435912" lon="-1.229131">
        <ele>1006.098</ele>
        <time>2020-08-28T10:04:55Z</time>
      </trkpt>
      <trkpt lat="40.435877" lon="-1.229089">
        <ele>1006.050</ele>
        <time>2020-08-28T10:04:56Z</time>
      </trkpt>
      <trkpt lat="40.435837" lon="-1.229046">
        <ele>1006.068</ele>
        <time>2020-08-28T10:04:57Z</time>
      </trkpt>
      <trkpt lat="40.4358" lon="-1.229007">
        <ele>1006.075</ele>
        <time>2020-08-28T10:04:58Z</time>
      </trkpt>
      <trkpt lat="40.435763" lon="-1.228963">
        <ele>1006.053</ele>
        <time>2020-08-28T10:04:59Z</time>
      </trkpt>
      <trkpt lat="40.435726" lon="-1.22892">
        <ele>1006.043</ele>
        <time>2020-08-28T10:05:00Z</time>
      </trkpt>
      <trkpt lat="40.43569" lon="-1.228871">
        <ele>1006.057</ele>
        <time>2020-08-28T10:05:01Z</time>
      </trkpt>
      <trkpt lat="40.435659" lon="-1.228825">
        <ele>1005.900</ele>
        <time>2020-08-28T10:05:02Z</time>
      </trkpt>
      <trkpt lat="40.435622" lon="-1.228781">
        <ele>1005.920</ele>
        <time>2020-08-28T10:05:03Z</time>
      </trkpt>
      <trkpt lat="40.435583" lon="-1.22874">
        <ele>1005.908</ele>
        <time>2020-08-28T10:05:04Z</time>
      </trkpt>
      <trkpt lat="40.435544" lon="-1.228696">
        <ele>1005.930</ele>
        <time>2020-08-28T10:05:05Z</time>
      </trkpt>
      <trkpt lat="40.435505" lon="-1.228654">
        <ele>1005.940</ele>
        <time>2020-08-28T10:05:06Z</time>
      </trkpt>
      <trkpt lat="40.435467" lon="-1.228608">
        <ele>1005.962</ele>
        <time>2020-08-28T10:05:07Z</time>
      </trkpt>
      <trkpt lat="40.435432" lon="-1.228561">
        <ele>1005.954</ele>
        <time>2020-08-28T10:05:08Z</time>
      </trkpt>
      <trkpt lat="40.435395" lon="-1.228517">
        <ele>1005.972</ele>
        <time>2020-08-28T10:05:09Z</time>
      </trkpt>
      <trkpt lat="40.435358" lon="-1.228471">
        <ele>1005.949</ele>
        <time>2020-08-28T10:05:10Z</time>
      </trkpt>
      <trkpt lat="40.435321" lon="-1.228425">
        <ele>1005.917</ele>
        <time>2020-08-28T10:05:11Z</time>
      </trkpt>
      <trkpt lat="40.43528" lon="-1.228381">
        <ele>1005.977</ele>
        <time>2020-08-28T10:05:12Z</time>
      </trkpt>
      <trkpt lat="40.435243" lon="-1.228341">
        <ele>1006.066</ele>
        <time>2020-08-28T10:05:13Z</time>
      </trkpt>
      <trkpt lat="40.435205" lon="-1.228294">
        <ele>1006.029</ele>
        <time>2020-08-28T10:05:14Z</time>
      </trkpt>
      <trkpt lat="40.435167" lon="-1.228248">
        <ele>1006.021</ele>
        <time>2020-08-28T10:05:15Z</time>
      </trkpt>
      <trkpt lat="40.435129" lon="-1.228206">
        <ele>1006.008</ele>
        <time>2020-08-28T10:05:16Z</time>
      </trkpt>
      <trkpt lat="40.435092" lon="-1.228163">
        <ele>1006.171</ele>
        <time>2020-08-28T10:05:17Z</time>
      </trkpt>
      <trkpt lat="40.435055" lon="-1.228117">
        <ele>1006.271</ele>
        <time>2020-08-28T10:05:18Z</time>
      </trkpt>
      <trkpt lat="40.435016" lon="-1.228074">
        <ele>1006.283</ele>
        <time>2020-08-28T10:05:19Z</time>
      </trkpt>
      <trkpt lat="40.434974" lon="-1.228034">
        <ele>1006.275</ele>
        <time>2020-08-28T10:05:20Z</time>
      </trkpt>
      <trkpt lat="40.43494" lon="-1.227991">
        <ele>1006.233</ele>
        <time>2020-08-28T10:05:21Z</time>
      </trkpt>
      <trkpt lat="40.434905" lon="-1.227947">
        <ele>1006.290</ele>
        <time>2020-08-28T10:05:22Z</time>
      </trkpt>
      <trkpt lat="40.434866" lon="-1.2279">
        <ele>1006.278</ele>
        <time>2020-08-28T10:05:23Z</time>
      </trkpt>
      <trkpt lat="40.434824" lon="-1.227854">
        <ele>1006.258</ele>
        <time>2020-08-28T10:05:24Z</time>
      </trkpt>
      <trkpt lat="40.434784" lon="-1.227812">
        <ele>1006.222</ele>
        <time>2020-08-28T10:05:25Z</time>
      </trkpt>
      <trkpt lat="40.434748" lon="-1.227764">
        <ele>1006.162</ele>
        <time>2020-08-28T10:05:26Z</time>
      </trkpt>
      <trkpt lat="40.434711" lon="-1.227717">
        <ele>1006.108</ele>
        <time>2020-08-28T10:05:27Z</time>
      </trkpt>
      <trkpt lat="40.434671" lon="-1.22767">
        <ele>1006.108</ele>
        <time>2020-08-28T10:05:28Z</time>
      </trkpt>
      <trkpt lat="40.434634" lon="-1.227623">
        <ele>1006.077</ele>
        <time>2020-08-28T10:05:29Z</time>
      </trkpt>
      <trkpt lat="40.434596" lon="-1.227576">
        <ele>1005.957</ele>
        <time>2020-08-28T10:05:30Z</time>
      </trkpt>
      <trkpt lat="40.434559" lon="-1.227534">
        <ele>1005.959</ele>
        <time>2020-08-28T10:05:31Z</time>
      </trkpt>
      <trkpt lat="40.434518" lon="-1.227488">
        <ele>1005.951</ele>
        <time>2020-08-28T10:05:32Z</time>
      </trkpt>
      <trkpt lat="40.434477" lon="-1.22744">
        <ele>1005.979</ele>
        <time>2020-08-28T10:05:33Z</time>
      </trkpt>
      <trkpt lat="40.43444" lon="-1.227393">
        <ele>1005.956</ele>
        <time>2020-08-28T10:05:34Z</time>
      </trkpt>
      <trkpt lat="40.434401" lon="-1.227348">
        <ele>1005.964</ele>
        <time>2020-08-28T10:05:35Z</time>
      </trkpt>
      <trkpt lat="40.434363" lon="-1.227302">
        <ele>1005.914</ele>
        <time>2020-08-28T10:05:36Z</time>
      </trkpt>
      <trkpt lat="40.434327" lon="-1.227255">
        <ele>1005.956</ele>
        <time>2020-08-28T10:05:37Z</time>
      </trkpt>
      <trkpt lat="40.434289" lon="-1.227211">
        <ele>1005.959</ele>
        <time>2020-08-28T10:05:38Z</time>
      </trkpt>
      <trkpt lat="40.434246" lon="-1.227165">
        <ele>1005.914</ele>
        <time>2020-08-28T10:05:39Z</time>
      </trkpt>
      <trkpt lat="40.434207" lon="-1.227127">
        <ele>1005.908</ele>
        <time>2020-08-28T10:05:40Z</time>
      </trkpt>
      <trkpt lat="40.434169" lon="-1.227081">
        <ele>1005.940</ele>
        <time>2020-08-28T10:05:41Z</time>
      </trkpt>
      <trkpt lat="40.434133" lon="-1.227035">
        <ele>1005.930</ele>
        <time>2020-08-28T10:05:42Z</time>
      </trkpt>
      <trkpt lat="40.434094" lon="-1.22699">
        <ele>1005.912</ele>
        <time>2020-08-28T10:05:43Z</time>
      </trkpt>
      <trkpt lat="40.434054" lon="-1.226945">
        <ele>1005.914</ele>
        <time>2020-08-28T10:05:44Z</time>
      </trkpt>
      <trkpt lat="40.434015" lon="-1.226905">
        <ele>1005.972</ele>
        <time>2020-08-28T10:05:45Z</time>
      </trkpt>
      <trkpt lat="40.433978" lon="-1.226861">
        <ele>1005.989</ele>
        <time>2020-08-28T10:05:46Z</time>
      </trkpt>
      <trkpt lat="40.43394" lon="-1.226817">
        <ele>1005.837</ele>
        <time>2020-08-28T10:05:47Z</time>
      </trkpt>
      <trkpt lat="40.433902" lon="-1.226773">
        <ele>1005.777</ele>
        <time>2020-08-28T10:05:48Z</time>
      </trkpt>
      <trkpt lat="40.433864" lon="-1.226732">
        <ele>1005.764</ele>
        <time>2020-08-28T10:05:49Z</time>
      </trkpt>
      <trkpt lat="40.433829" lon="-1.226687">
        <ele>1005.706</ele>
        <time>2020-08-28T10:05:50Z</time>
      </trkpt>
      <trkpt lat="40.433793" lon="-1.226649">
        <ele>1005.716</ele>
        <time>2020-08-28T10:05:51Z</time>
      </trkpt>
      <trkpt lat="40.433757" lon="-1.226603">
        <ele>1005.708</ele>
        <time>2020-08-28T10:05:52Z</time>
      </trkpt>
      <trkpt lat="40.43372" lon="-1.226561">
        <ele>1005.751</ele>
        <time>2020-08-28T10:05:53Z</time>
      </trkpt>
      <trkpt lat="40.433679" lon="-1.226515">
        <ele>1005.751</ele>
        <time>2020-08-28T10:05:54Z</time>
      </trkpt>
      <trkpt lat="40.433646" lon="-1.22647">
        <ele>1005.713</ele>
        <time>2020-08-28T10:05:55Z</time>
      </trkpt>
      <trkpt lat="40.433609" lon="-1.226431">
        <ele>1005.725</ele>
        <time>2020-08-28T10:05:56Z</time>
      </trkpt>
      <trkpt lat="40.433571" lon="-1.226389">
        <ele>1005.733</ele>
        <time>2020-08-28T10:05:57Z</time>
      </trkpt>
      <trkpt lat="40.433532" lon="-1.226342">
        <ele>1005.710</ele>
        <time>2020-08-28T10:05:58Z</time>
      </trkpt>
      <trkpt lat="40.433497" lon="-1.226296">
        <ele>1005.778</ele>
        <time>2020-08-28T10:05:59Z</time>
      </trkpt>
      <trkpt lat="40.433457" lon="-1.22625">
        <ele>1005.738</ele>
        <time>2020-08-28T10:06:00Z</time>
      </trkpt>
      <trkpt lat="40.433419" lon="-1.226208">
        <ele>1005.722</ele>
        <time>2020-08-28T10:06:01Z</time>
      </trkpt>
      <trkpt lat="40.43338" lon="-1.226168">
        <ele>1005.762</ele>
        <time>2020-08-28T10:06:02Z</time>
      </trkpt>
      <trkpt lat="40.433342" lon="-1.226121">
        <ele>1005.708</ele>
        <time>2020-08-28T10:06:03Z</time>
      </trkpt>
      <trkpt lat="40.433303" lon="-1.226073">
        <ele>1005.708</ele>
        <time>2020-08-28T10:06:04Z</time>
      </trkpt>
      <trkpt lat="40.433263" lon="-1.226028">
        <ele>1005.727</ele>
        <time>2020-08-28T10:06:05Z</time>
      </trkpt>
      <trkpt lat="40.433227" lon="-1.225985">
        <ele>1005.757</ele>
        <time>2020-08-28T10:06:06Z</time>
      </trkpt>
      <trkpt lat="40.433186" lon="-1.225938">
        <ele>1005.789</ele>
        <time>2020-08-28T10:06:07Z</time>
      </trkpt>
      <trkpt lat="40.433147" lon="-1.225897">
        <ele>1005.781</ele>
        <time>2020-08-28T10:06:08Z</time>
      </trkpt>
      <trkpt lat="40.433108" lon="-1.225851">
        <ele>1005.729</ele>
        <time>2020-08-28T10:06:09Z</time>
      </trkpt>
      <trkpt lat="40.43307" lon="-1.225809">
        <ele>1005.756</ele>
        <time>2020-08-28T10:06:10Z</time>
      </trkpt>
      <trkpt lat="40.433034" lon="-1.225762">
        <ele>1005.744</ele>
        <time>2020-08-28T10:06:11Z</time>
      </trkpt>
      <trkpt lat="40.432994" lon="-1.225717">
        <ele>1005.724</ele>
        <time>2020-08-28T10:06:12Z</time>
      </trkpt>
      <trkpt lat="40.432953" lon="-1.225672">
        <ele>1005.777</ele>
        <time>2020-08-28T10:06:13Z</time>
      </trkpt>
      <trkpt lat="40.432915" lon="-1.225627">
        <ele>1005.761</ele>
        <time>2020-08-28T10:06:14Z</time>
      </trkpt>
      <trkpt lat="40.432874" lon="-1.225581">
        <ele>1005.727</ele>
        <time>2020-08-28T10:06:15Z</time>
      </trkpt>
      <trkpt lat="40.432836" lon="-1.225538">
        <ele>1005.708</ele>
        <time>2020-08-28T10:06:16Z</time>
      </trkpt>
      <trkpt lat="40.432795" lon="-1.22549">
        <ele>1005.742</ele>
        <time>2020-08-28T10:06:17Z</time>
      </trkpt>
      <trkpt lat="40.432755" lon="-1.225447">
        <ele>1005.792</ele>
        <time>2020-08-28T10:06:18Z</time>
      </trkpt>
      <trkpt lat="40.432715" lon="-1.2254">
        <ele>1005.744</ele>
        <time>2020-08-28T10:06:19Z</time>
      </trkpt>
      <trkpt lat="40.432676" lon="-1.225357">
        <ele>1005.616</ele>
        <time>2020-08-28T10:06:20Z</time>
      </trkpt>
      <trkpt lat="40.432635" lon="-1.225306">
        <ele>1005.674</ele>
        <time>2020-08-28T10:06:21Z</time>
      </trkpt>
      <trkpt lat="40.432597" lon="-1.22526">
        <ele>1005.641</ele>
        <time>2020-08-28T10:06:22Z</time>
      </trkpt>
      <trkpt lat="40.432556" lon="-1.225213">
        <ele>1005.639</ele>
        <time>2020-08-28T10:06:23Z</time>
      </trkpt>
      <trkpt lat="40.432517" lon="-1.22517">
        <ele>1005.689</ele>
        <time>2020-08-28T10:06:24Z</time>
      </trkpt>
      <trkpt lat="40.432477" lon="-1.225125">
        <ele>1005.646</ele>
        <time>2020-08-28T10:06:25Z</time>
      </trkpt>
      <trkpt lat="40.432441" lon="-1.225078">
        <ele>1005.688</ele>
        <time>2020-08-28T10:06:26Z</time>
      </trkpt>
      <trkpt lat="40.432397" lon="-1.225032">
        <ele>1005.616</ele>
        <time>2020-08-28T10:06:27Z</time>
      </trkpt>
      <trkpt lat="40.432359" lon="-1.22499">
        <ele>1005.608</ele>
        <time>2020-08-28T10:06:28Z</time>
      </trkpt>
      <trkpt lat="40.432322" lon="-1.224945">
        <ele>1005.679</ele>
        <time>2020-08-28T10:06:29Z</time>
      </trkpt>
      <trkpt lat="40.43228" lon="-1.224898">
        <ele>1005.689</ele>
        <time>2020-08-28T10:06:30Z</time>
      </trkpt>
      <trkpt lat="40.432242" lon="-1.224852">
        <ele>1005.671</ele>
        <time>2020-08-28T10:06:31Z</time>
      </trkpt>
      <trkpt lat="40.432207" lon="-1.224805">
        <ele>1005.673</ele>
        <time>2020-08-28T10:06:32Z</time>
      </trkpt>
      <trkpt lat="40.43217" lon="-1.224766">
        <ele>1005.611</ele>
        <time>2020-08-28T10:06:33Z</time>
      </trkpt>
      <trkpt lat="40.432133" lon="-1.22472">
        <ele>1005.678</ele>
        <time>2020-08-28T10:06:34Z</time>
      </trkpt>
      <trkpt lat="40.432092" lon="-1.224676">
        <ele>1005.656</ele>
        <time>2020-08-28T10:06:35Z</time>
      </trkpt>
      <trkpt lat="40.432054" lon="-1.224631">
        <ele>1005.636</ele>
        <time>2020-08-28T10:06:36Z</time>
      </trkpt>
      <trkpt lat="40.432015" lon="-1.224593">
        <ele>1005.627</ele>
        <time>2020-08-28T10:06:37Z</time>
      </trkpt>
      <trkpt lat="40.431977" lon="-1.224549">
        <ele>1005.668</ele>
        <time>2020-08-28T10:06:38Z</time>
      </trkpt>
      <trkpt lat="40.43194" lon="-1.224504">
        <ele>1005.614</ele>
        <time>2020-08-28T10:06:39Z</time>
      </trkpt>
      <trkpt lat="40.431901" lon="-1.224463">
        <ele>1005.608</ele>
        <time>2020-08-28T10:06:40Z</time>
      </trkpt>
      <trkpt lat="40.431864" lon="-1.224419">
        <ele>1005.697</ele>
        <time>2020-08-28T10:06:41Z</time>
      </trkpt>
      <trkpt lat="40.431826" lon="-1.224371">
        <ele>1005.517</ele>
        <time>2020-08-28T10:06:42Z</time>
      </trkpt>
      <trkpt lat="40.431788" lon="-1.224329">
        <ele>1005.569</ele>
        <time>2020-08-28T10:06:43Z</time>
      </trkpt>
      <trkpt lat="40.431752" lon="-1.224287">
        <ele>1005.591</ele>
        <time>2020-08-28T10:06:44Z</time>
      </trkpt>
      <trkpt lat="40.431714" lon="-1.224241">
        <ele>1005.559</ele>
        <time>2020-08-28T10:06:45Z</time>
      </trkpt>
      <trkpt lat="40.431677" lon="-1.224195">
        <ele>1005.566</ele>
        <time>2020-08-28T10:06:46Z</time>
      </trkpt>
      <trkpt lat="40.431643" lon="-1.224154">
        <ele>1005.514</ele>
        <time>2020-08-28T10:06:47Z</time>
      </trkpt>
      <trkpt lat="40.431604" lon="-1.224113">
        <ele>1005.674</ele>
        <time>2020-08-28T10:06:48Z</time>
      </trkpt>
      <trkpt lat="40.431568" lon="-1.22407">
        <ele>1005.775</ele>
        <time>2020-08-28T10:06:49Z</time>
      </trkpt>
      <trkpt lat="40.431533" lon="-1.224027">
        <ele>1005.728</ele>
        <time>2020-08-28T10:06:50Z</time>
      </trkpt>
      <trkpt lat="40.431493" lon="-1.223981">
        <ele>1005.720</ele>
        <time>2020-08-28T10:06:51Z</time>
      </trkpt>
      <trkpt lat="40.431455" lon="-1.223942">
        <ele>1005.708</ele>
        <time>2020-08-28T10:06:52Z</time>
      </trkpt>
      <trkpt lat="40.431417" lon="-1.223896">
        <ele>1005.662</ele>
        <time>2020-08-28T10:06:53Z</time>
      </trkpt>
      <trkpt lat="40.431382" lon="-1.223853">
        <ele>1005.652</ele>
        <time>2020-08-28T10:06:54Z</time>
      </trkpt>
      <trkpt lat="40.431342" lon="-1.223806">
        <ele>1005.634</ele>
        <time>2020-08-28T10:06:55Z</time>
      </trkpt>
      <trkpt lat="40.431306" lon="-1.22376">
        <ele>1005.686</ele>
        <time>2020-08-28T10:06:56Z</time>
      </trkpt>
      <trkpt lat="40.431269" lon="-1.223716">
        <ele>1005.634</ele>
        <time>2020-08-28T10:06:57Z</time>
      </trkpt>
      <trkpt lat="40.431232" lon="-1.223671">
        <ele>1005.691</ele>
        <time>2020-08-28T10:06:58Z</time>
      </trkpt>
      <trkpt lat="40.431194" lon="-1.223627">
        <ele>1005.679</ele>
        <time>2020-08-28T10:06:59Z</time>
      </trkpt>
      <trkpt lat="40.431154" lon="-1.223582">
        <ele>1005.689</ele>
        <time>2020-08-28T10:07:00Z</time>
      </trkpt>
      <trkpt lat="40.431118" lon="-1.223537">
        <ele>1005.633</ele>
        <time>2020-08-28T10:07:01Z</time>
      </trkpt>
      <trkpt lat="40.431081" lon="-1.223495">
        <ele>1005.623</ele>
        <time>2020-08-28T10:07:02Z</time>
      </trkpt>
      <trkpt lat="40.431043" lon="-1.223455">
        <ele>1005.615</ele>
        <time>2020-08-28T10:07:03Z</time>
      </trkpt>
      <trkpt lat="40.431008" lon="-1.223409">
        <ele>1005.608</ele>
        <time>2020-08-28T10:07:04Z</time>
      </trkpt>
      <trkpt lat="40.43097" lon="-1.223364">
        <ele>1005.628</ele>
        <time>2020-08-28T10:07:05Z</time>
      </trkpt>
      <trkpt lat="40.430932" lon="-1.223321">
        <ele>1005.688</ele>
        <time>2020-08-28T10:07:06Z</time>
      </trkpt>
      <trkpt lat="40.430891" lon="-1.223282">
        <ele>1005.580</ele>
        <time>2020-08-28T10:07:07Z</time>
      </trkpt>
      <trkpt lat="40.430852" lon="-1.223241">
        <ele>1005.442</ele>
        <time>2020-08-28T10:07:08Z</time>
      </trkpt>
      <trkpt lat="40.430816" lon="-1.223199">
        <ele>1005.440</ele>
        <time>2020-08-28T10:07:09Z</time>
      </trkpt>
      <trkpt lat="40.430776" lon="-1.223152">
        <ele>1005.427</ele>
        <time>2020-08-28T10:07:10Z</time>
      </trkpt>
      <trkpt lat="40.43074" lon="-1.223111">
        <ele>1005.425</ele>
        <time>2020-08-28T10:07:11Z</time>
      </trkpt>
      <trkpt lat="40.430704" lon="-1.223069">
        <ele>1005.465</ele>
        <time>2020-08-28T10:07:12Z</time>
      </trkpt>
      <trkpt lat="40.430664" lon="-1.223024">
        <ele>1005.423</ele>
        <time>2020-08-28T10:07:13Z</time>
      </trkpt>
      <trkpt lat="40.430628" lon="-1.222984">
        <ele>1005.483</ele>
        <time>2020-08-28T10:07:14Z</time>
      </trkpt>
      <trkpt lat="40.430592" lon="-1.222941">
        <ele>1005.411</ele>
        <time>2020-08-28T10:07:15Z</time>
      </trkpt>
      <trkpt lat="40.430556" lon="-1.222897">
        <ele>1005.408</ele>
        <time>2020-08-28T10:07:16Z</time>
      </trkpt>
      <trkpt lat="40.430519" lon="-1.222856">
        <ele>1005.477</ele>
        <time>2020-08-28T10:07:17Z</time>
      </trkpt>
      <trkpt lat="40.430482" lon="-1.222813">
        <ele>1005.487</ele>
        <time>2020-08-28T10:07:18Z</time>
      </trkpt>
      <trkpt lat="40.430444" lon="-1.222766">
        <ele>1005.419</ele>
        <time>2020-08-28T10:07:19Z</time>
      </trkpt>
      <trkpt lat="40.430406" lon="-1.222722">
        <ele>1005.481</ele>
        <time>2020-08-28T10:07:20Z</time>
      </trkpt>
      <trkpt lat="40.43037" lon="-1.222678">
        <ele>1005.419</ele>
        <time>2020-08-28T10:07:21Z</time>
      </trkpt>
      <trkpt lat="40.430333" lon="-1.222633">
        <ele>1005.466</ele>
        <time>2020-08-28T10:07:22Z</time>
      </trkpt>
      <trkpt lat="40.430297" lon="-1.222588">
        <ele>1005.424</ele>
        <time>2020-08-28T10:07:23Z</time>
      </trkpt>
      <trkpt lat="40.430262" lon="-1.222546">
        <ele>1005.434</ele>
        <time>2020-08-28T10:07:24Z</time>
      </trkpt>
      <trkpt lat="40.430225" lon="-1.222504">
        <ele>1005.452</ele>
        <time>2020-08-28T10:07:25Z</time>
      </trkpt>
      <trkpt lat="40.430189" lon="-1.222464">
        <ele>1005.453</ele>
        <time>2020-08-28T10:07:26Z</time>
      </trkpt>
      <trkpt lat="40.430154" lon="-1.222415">
        <ele>1005.408</ele>
        <time>2020-08-28T10:07:27Z</time>
      </trkpt>
      <trkpt lat="40.430119" lon="-1.222373">
        <ele>1005.408</ele>
        <time>2020-08-28T10:07:28Z</time>
      </trkpt>
      <trkpt lat="40.430083" lon="-1.222332">
        <ele>1005.580</ele>
        <time>2020-08-28T10:07:29Z</time>
      </trkpt>
      <trkpt lat="40.430046" lon="-1.22229">
        <ele>1005.560</ele>
        <time>2020-08-28T10:07:30Z</time>
      </trkpt>
      <trkpt lat="40.43001" lon="-1.222247">
        <ele>1005.562</ele>
        <time>2020-08-28T10:07:31Z</time>
      </trkpt>
      <trkpt lat="40.429978" lon="-1.222205">
        <ele>1005.564</ele>
        <time>2020-08-28T10:07:32Z</time>
      </trkpt>
      <trkpt lat="40.42994" lon="-1.222165">
        <ele>1005.512</ele>
        <time>2020-08-28T10:07:33Z</time>
      </trkpt>
      <trkpt lat="40.429903" lon="-1.222121">
        <ele>1005.529</ele>
        <time>2020-08-28T10:07:34Z</time>
      </trkpt>
      <trkpt lat="40.429865" lon="-1.222074">
        <ele>1005.557</ele>
        <time>2020-08-28T10:07:35Z</time>
      </trkpt>
      <trkpt lat="40.429828" lon="-1.222033">
        <ele>1005.567</ele>
        <time>2020-08-28T10:07:36Z</time>
      </trkpt>
      <trkpt lat="40.429786" lon="-1.221989">
        <ele>1005.498</ele>
        <time>2020-08-28T10:07:37Z</time>
      </trkpt>
      <trkpt lat="40.429749" lon="-1.221946">
        <ele>1005.415</ele>
        <time>2020-08-28T10:07:38Z</time>
      </trkpt>
      <trkpt lat="40.429721" lon="-1.221896">
        <ele>1005.326</ele>
        <time>2020-08-28T10:07:39Z</time>
      </trkpt>
      <trkpt lat="40.429727" lon="-1.221787">
        <ele>1005.308</ele>
        <time>2020-08-28T10:07:41Z</time>
      </trkpt>
      <trkpt lat="40.42975" lon="-1.221682">
        <ele>1005.314</ele>
        <time>2020-08-28T10:07:43Z</time>
      </trkpt>
      <trkpt lat="40.42977" lon="-1.221611">
        <ele>1005.144</ele>
        <time>2020-08-28T10:07:45Z</time>
      </trkpt>
      <trkpt lat="40.429784" lon="-1.221551">
        <ele>1004.846</ele>
        <time>2020-08-28T10:07:47Z</time>
      </trkpt>
      <trkpt lat="40.429786" lon="-1.221478">
        <ele>1004.438</ele>
        <time>2020-08-28T10:07:49Z</time>
      </trkpt>
      <trkpt lat="40.429779" lon="-1.221407">
        <ele>1003.996</ele>
        <time>2020-08-28T10:07:51Z</time>
      </trkpt>
      <trkpt lat="40.429773" lon="-1.221326">
        <ele>1003.533</ele>
        <time>2020-08-28T10:07:53Z</time>
      </trkpt>
      <trkpt lat="40.429747" lon="-1.221246">
        <ele>1003.481</ele>
        <time>2020-08-28T10:07:55Z</time>
      </trkpt>
      <trkpt lat="40.429704" lon="-1.221194">
        <ele>1003.471</ele>
        <time>2020-08-28T10:07:57Z</time>
      </trkpt>
      <trkpt lat="40.429655" lon="-1.221152">
        <ele>1003.525</ele>
        <time>2020-08-28T10:07:59Z</time>
      </trkpt>
      <trkpt lat="40.429609" lon="-1.221134">
        <ele>1003.626</ele>
        <time>2020-08-28T10:08:01Z</time>
      </trkpt>
      <trkpt lat="40.429551" lon="-1.221101">
        <ele>1003.708</ele>
        <time>2020-08-28T10:08:04Z</time>
      </trkpt>
      <trkpt lat="40.429497" lon="-1.221069">
        <ele>1003.808</ele>
        <time>2020-08-28T10:08:06Z</time>
      </trkpt>
      <trkpt lat="40.429443" lon="-1.22102">
        <ele>1003.937</ele>
        <time>2020-08-28T10:08:08Z</time>
      </trkpt>
      <trkpt lat="40.429393" lon="-1.220957">
        <ele>1003.937</ele>
        <time>2020-08-28T10:08:10Z</time>
      </trkpt>
      <trkpt lat="40.429348" lon="-1.220886">
        <ele>1004.079</ele>
        <time>2020-08-28T10:08:12Z</time>
      </trkpt>
      <trkpt lat="40.429305" lon="-1.220812">
        <ele>1004.041</ele>
        <time>2020-08-28T10:08:14Z</time>
      </trkpt>
      <trkpt lat="40.429262" lon="-1.220731">
        <ele>1004.159</ele>
        <time>2020-08-28T10:08:16Z</time>
      </trkpt>
      <trkpt lat="40.429217" lon="-1.220651">
        <ele>1004.216</ele>
        <time>2020-08-28T10:08:18Z</time>
      </trkpt>
      <trkpt lat="40.429174" lon="-1.22056">
        <ele>1004.234</ele>
        <time>2020-08-28T10:08:20Z</time>
      </trkpt>
      <trkpt lat="40.429127" lon="-1.220476">
        <ele>1004.244</ele>
        <time>2020-08-28T10:08:22Z</time>
      </trkpt>
      <trkpt lat="40.429082" lon="-1.22039">
        <ele>1004.148</ele>
        <time>2020-08-28T10:08:24Z</time>
      </trkpt>
      <trkpt lat="40.429031" lon="-1.220306">
        <ele>1003.961</ele>
        <time>2020-08-28T10:08:26Z</time>
      </trkpt>
      <trkpt lat="40.42898" lon="-1.22022">
        <ele>1003.817</ele>
        <time>2020-08-28T10:08:28Z</time>
      </trkpt>
      <trkpt lat="40.428931" lon="-1.22013">
        <ele>1003.808</ele>
        <time>2020-08-28T10:08:30Z</time>
      </trkpt>
      <trkpt lat="40.428876" lon="-1.220049">
        <ele>1003.839</ele>
        <time>2020-08-28T10:08:32Z</time>
      </trkpt>
      <trkpt lat="40.428833" lon="-1.219954">
        <ele>1003.829</ele>
        <time>2020-08-28T10:08:34Z</time>
      </trkpt>
      <trkpt lat="40.428774" lon="-1.219871">
        <ele>1003.981</ele>
        <time>2020-08-28T10:08:36Z</time>
      </trkpt>
      <trkpt lat="40.428727" lon="-1.21978">
        <ele>1004.033</ele>
        <time>2020-08-28T10:08:38Z</time>
      </trkpt>
      <trkpt lat="40.428677" lon="-1.219695">
        <ele>1003.911</ele>
        <time>2020-08-28T10:08:40Z</time>
      </trkpt>
      <trkpt lat="40.42863" lon="-1.219611">
        <ele>1003.938</ele>
        <time>2020-08-28T10:08:42Z</time>
      </trkpt>
      <trkpt lat="40.428575" lon="-1.219531">
        <ele>1003.876</ele>
        <time>2020-08-28T10:08:44Z</time>
      </trkpt>
      <trkpt lat="40.42851" lon="-1.219454">
        <ele>1003.956</ele>
        <time>2020-08-28T10:08:46Z</time>
      </trkpt>
      <trkpt lat="40.428449" lon="-1.219377">
        <ele>1003.915</ele>
        <time>2020-08-28T10:08:48Z</time>
      </trkpt>
      <trkpt lat="40.428388" lon="-1.219297">
        <ele>1003.965</ele>
        <time>2020-08-28T10:08:50Z</time>
      </trkpt>
      <trkpt lat="40.428327" lon="-1.219217">
        <ele>1003.911</ele>
        <time>2020-08-28T10:08:52Z</time>
      </trkpt>
      <trkpt lat="40.428262" lon="-1.219138">
        <ele>1004.008</ele>
        <time>2020-08-28T10:08:54Z</time>
      </trkpt>
      <trkpt lat="40.428231" lon="-1.219094">
        <ele>1004.136</ele>
        <time>2020-08-28T10:08:55Z</time>
      </trkpt>
      <trkpt lat="40.428204" lon="-1.219047">
        <ele>1004.226</ele>
        <time>2020-08-28T10:08:56Z</time>
      </trkpt>
      <trkpt lat="40.428172" lon="-1.219004">
        <ele>1004.288</ele>
        <time>2020-08-28T10:08:57Z</time>
      </trkpt>
      <trkpt lat="40.428138" lon="-1.218961">
        <ele>1004.220</ele>
        <time>2020-08-28T10:08:58Z</time>
      </trkpt>
      <trkpt lat="40.428079" lon="-1.218874">
        <ele>1004.028</ele>
        <time>2020-08-28T10:09:00Z</time>
      </trkpt>
      <trkpt lat="40.428024" lon="-1.218788">
        <ele>1003.995</ele>
        <time>2020-08-28T10:09:02Z</time>
      </trkpt>
      <trkpt lat="40.427966" lon="-1.218702">
        <ele>1003.913</ele>
        <time>2020-08-28T10:09:04Z</time>
      </trkpt>
      <trkpt lat="40.427914" lon="-1.218612">
        <ele>1004.083</ele>
        <time>2020-08-28T10:09:06Z</time>
      </trkpt>
      <trkpt lat="40.427885" lon="-1.218562">
        <ele>1004.156</ele>
        <time>2020-08-28T10:09:07Z</time>
      </trkpt>
      <trkpt lat="40.427837" lon="-1.218493">
        <ele>1004.159</ele>
        <time>2020-08-28T10:09:09Z</time>
      </trkpt>
      <trkpt lat="40.427817" lon="-1.218431">
        <ele>1003.714</ele>
        <time>2020-08-28T10:09:43Z</time>
      </trkpt>
      <trkpt lat="40.427764" lon="-1.218364">
        <ele>1003.508</ele>
        <time>2020-08-28T10:11:31Z</time>
      </trkpt>
      <trkpt lat="40.427746" lon="-1.218289">
        <ele>1003.440</ele>
        <time>2020-08-28T10:11:34Z</time>
      </trkpt>
      <trkpt lat="40.427725" lon="-1.218219">
        <ele>1003.310</ele>
        <time>2020-08-28T10:11:36Z</time>
      </trkpt>
      <trkpt lat="40.42771" lon="-1.218144">
        <ele>1003.212</ele>
        <time>2020-08-28T10:11:38Z</time>
      </trkpt>
      <trkpt lat="40.427691" lon="-1.218062">
        <ele>1003.184</ele>
        <time>2020-08-28T10:11:40Z</time>
      </trkpt>
      <trkpt lat="40.427674" lon="-1.217979">
        <ele>1003.122</ele>
        <time>2020-08-28T10:11:42Z</time>
      </trkpt>
      <trkpt lat="40.427653" lon="-1.217905">
        <ele>1003.149</ele>
        <time>2020-08-28T10:11:44Z</time>
      </trkpt>
      <trkpt lat="40.427648" lon="-1.217823">
        <ele>1003.127</ele>
        <time>2020-08-28T10:11:46Z</time>
      </trkpt>
      <trkpt lat="40.427644" lon="-1.217743">
        <ele>1003.057</ele>
        <time>2020-08-28T10:11:48Z</time>
      </trkpt>
      <trkpt lat="40.427636" lon="-1.21766">
        <ele>1003.033</ele>
        <time>2020-08-28T10:11:50Z</time>
      </trkpt>
      <trkpt lat="40.427635" lon="-1.217567">
        <ele>1003.023</ele>
        <time>2020-08-28T10:11:52Z</time>
      </trkpt>
      <trkpt lat="40.427619" lon="-1.217482">
        <ele>1003.115</ele>
        <time>2020-08-28T10:11:54Z</time>
      </trkpt>
      <trkpt lat="40.427591" lon="-1.217401">
        <ele>1003.108</ele>
        <time>2020-08-28T10:11:56Z</time>
      </trkpt>
      <trkpt lat="40.427559" lon="-1.217326">
        <ele>1003.018</ele>
        <time>2020-08-28T10:11:58Z</time>
      </trkpt>
      <trkpt lat="40.427507" lon="-1.217248">
        <ele>1002.918</ele>
        <time>2020-08-28T10:12:00Z</time>
      </trkpt>
      <trkpt lat="40.427468" lon="-1.217219">
        <ele>1002.810</ele>
        <time>2020-08-28T10:12:01Z</time>
      </trkpt>
      <trkpt lat="40.427393" lon="-1.217176">
        <ele>1002.632</ele>
        <time>2020-08-28T10:12:03Z</time>
      </trkpt>
      <trkpt lat="40.427327" lon="-1.217132">
        <ele>1002.520</ele>
        <time>2020-08-28T10:12:05Z</time>
      </trkpt>
      <trkpt lat="40.427257" lon="-1.217092">
        <ele>1002.687</ele>
        <time>2020-08-28T10:12:07Z</time>
      </trkpt>
      <trkpt lat="40.42719" lon="-1.217047">
        <ele>1002.825</ele>
        <time>2020-08-28T10:12:09Z</time>
      </trkpt>
      <trkpt lat="40.42712" lon="-1.217001">
        <ele>1002.915</ele>
        <time>2020-08-28T10:12:11Z</time>
      </trkpt>
      <trkpt lat="40.427058" lon="-1.216961">
        <ele>1003.037</ele>
        <time>2020-08-28T10:12:13Z</time>
      </trkpt>
      <trkpt lat="40.426995" lon="-1.216924">
        <ele>1003.249</ele>
        <time>2020-08-28T10:12:15Z</time>
      </trkpt>
      <trkpt lat="40.426928" lon="-1.216897">
        <ele>1003.513</ele>
        <time>2020-08-28T10:12:17Z</time>
      </trkpt>
      <trkpt lat="40.426853" lon="-1.216864">
        <ele>1003.708</ele>
        <time>2020-08-28T10:12:19Z</time>
      </trkpt>
      <trkpt lat="40.426785" lon="-1.216847">
        <ele>1003.898</ele>
        <time>2020-08-28T10:12:21Z</time>
      </trkpt>
      <trkpt lat="40.42672" lon="-1.216809">
        <ele>1003.978</ele>
        <time>2020-08-28T10:12:23Z</time>
      </trkpt>
      <trkpt lat="40.426645" lon="-1.216798">
        <ele>1004.050</ele>
        <time>2020-08-28T10:12:25Z</time>
      </trkpt>
      <trkpt lat="40.426573" lon="-1.2168">
        <ele>1004.192</ele>
        <time>2020-08-28T10:12:27Z</time>
      </trkpt>
      <trkpt lat="40.426501" lon="-1.216797">
        <ele>1004.250</ele>
        <time>2020-08-28T10:12:29Z</time>
      </trkpt>
      <trkpt lat="40.426432" lon="-1.216801">
        <ele>1004.317</ele>
        <time>2020-08-28T10:12:31Z</time>
      </trkpt>
      <trkpt lat="40.42637" lon="-1.21681">
        <ele>1004.545</ele>
        <time>2020-08-28T10:12:33Z</time>
      </trkpt>
      <trkpt lat="40.426309" lon="-1.216815">
        <ele>1004.725</ele>
        <time>2020-08-28T10:12:35Z</time>
      </trkpt>
      <trkpt lat="40.426248" lon="-1.216826">
        <ele>1005.056</ele>
        <time>2020-08-28T10:12:37Z</time>
      </trkpt>
      <trkpt lat="40.42619" lon="-1.216824">
        <ele>1005.559</ele>
        <time>2020-08-28T10:12:39Z</time>
      </trkpt>
      <trkpt lat="40.426133" lon="-1.216806">
        <ele>1005.814</ele>
        <time>2020-08-28T10:12:41Z</time>
      </trkpt>
      <trkpt lat="40.426079" lon="-1.216773">
        <ele>1006.008</ele>
        <time>2020-08-28T10:12:43Z</time>
      </trkpt>
      <trkpt lat="40.426034" lon="-1.216722">
        <ele>1006.370</ele>
        <time>2020-08-28T10:12:45Z</time>
      </trkpt>
      <trkpt lat="40.426003" lon="-1.216654">
        <ele>1006.830</ele>
        <time>2020-08-28T10:12:47Z</time>
      </trkpt>
      <trkpt lat="40.425982" lon="-1.216583">
        <ele>1007.462</ele>
        <time>2020-08-28T10:12:49Z</time>
      </trkpt>
      <trkpt lat="40.425968" lon="-1.21651">
        <ele>1008.074</ele>
        <time>2020-08-28T10:12:51Z</time>
      </trkpt>
      <trkpt lat="40.42598" lon="-1.21644">
        <ele>1008.662</ele>
        <time>2020-08-28T10:12:53Z</time>
      </trkpt>
      <trkpt lat="40.425993" lon="-1.216374">
        <ele>1009.149</ele>
        <time>2020-08-28T10:12:55Z</time>
      </trkpt>
      <trkpt lat="40.426016" lon="-1.216321">
        <ele>1009.427</ele>
        <time>2020-08-28T10:12:57Z</time>
      </trkpt>
      <trkpt lat="40.426036" lon="-1.216263">
        <ele>1009.787</ele>
        <time>2020-08-28T10:12:59Z</time>
      </trkpt>
      <trkpt lat="40.426059" lon="-1.216209">
        <ele>1010.275</ele>
        <time>2020-08-28T10:13:01Z</time>
      </trkpt>
      <trkpt lat="40.426072" lon="-1.216151">
        <ele>1010.728</ele>
        <time>2020-08-28T10:13:03Z</time>
      </trkpt>
      <trkpt lat="40.426091" lon="-1.216084">
        <ele>1011.220</ele>
        <time>2020-08-28T10:13:05Z</time>
      </trkpt>
      <trkpt lat="40.426111" lon="-1.216019">
        <ele>1011.508</ele>
        <time>2020-08-28T10:13:07Z</time>
      </trkpt>
      <trkpt lat="40.42613" lon="-1.215947">
        <ele>1011.682</ele>
        <time>2020-08-28T10:13:09Z</time>
      </trkpt>
      <trkpt lat="40.426143" lon="-1.21588">
        <ele>1011.922</ele>
        <time>2020-08-28T10:13:11Z</time>
      </trkpt>
      <trkpt lat="40.426154" lon="-1.215802">
        <ele>1012.154</ele>
        <time>2020-08-28T10:13:13Z</time>
      </trkpt>
      <trkpt lat="40.426155" lon="-1.215724">
        <ele>1012.216</ele>
        <time>2020-08-28T10:13:15Z</time>
      </trkpt>
      <trkpt lat="40.426138" lon="-1.215646">
        <ele>1012.134</ele>
        <time>2020-08-28T10:13:17Z</time>
      </trkpt>
      <trkpt lat="40.426107" lon="-1.215573">
        <ele>1012.071</ele>
        <time>2020-08-28T10:13:19Z</time>
      </trkpt>
      <trkpt lat="40.426056" lon="-1.215499">
        <ele>1012.089</ele>
        <time>2020-08-28T10:13:21Z</time>
      </trkpt>
      <trkpt lat="40.425981" lon="-1.215464">
        <ele>1012.079</ele>
        <time>2020-08-28T10:13:23Z</time>
      </trkpt>
      <trkpt lat="40.425899" lon="-1.215474">
        <ele>1011.942</ele>
        <time>2020-08-28T10:13:25Z</time>
      </trkpt>
      <trkpt lat="40.425853" lon="-1.215487">
        <ele>1011.722</ele>
        <time>2020-08-28T10:13:26Z</time>
      </trkpt>
      <trkpt lat="40.42581" lon="-1.215517">
        <ele>1011.414</ele>
        <time>2020-08-28T10:13:27Z</time>
      </trkpt>
      <trkpt lat="40.425772" lon="-1.215551">
        <ele>1011.108</ele>
        <time>2020-08-28T10:13:28Z</time>
      </trkpt>
      <trkpt lat="40.425728" lon="-1.215582">
        <ele>1010.859</ele>
        <time>2020-08-28T10:13:29Z</time>
      </trkpt>
      <trkpt lat="40.425683" lon="-1.215601">
        <ele>1010.549</ele>
        <time>2020-08-28T10:13:30Z</time>
      </trkpt>
      <trkpt lat="40.42563" lon="-1.215617">
        <ele>1010.331</ele>
        <time>2020-08-28T10:13:31Z</time>
      </trkpt>
      <trkpt lat="40.425571" lon="-1.215627">
        <ele>1010.043</ele>
        <time>2020-08-28T10:13:32Z</time>
      </trkpt>
      <trkpt lat="40.425507" lon="-1.215635">
        <ele>1009.741</ele>
        <time>2020-08-28T10:13:33Z</time>
      </trkpt>
      <trkpt lat="40.425443" lon="-1.215637">
        <ele>1009.378</ele>
        <time>2020-08-28T10:13:34Z</time>
      </trkpt>
      <trkpt lat="40.425374" lon="-1.215628">
        <ele>1008.956</ele>
        <time>2020-08-28T10:13:35Z</time>
      </trkpt>
      <trkpt lat="40.425303" lon="-1.215608">
        <ele>1008.516</ele>
        <time>2020-08-28T10:13:36Z</time>
      </trkpt>
      <trkpt lat="40.425228" lon="-1.215576">
        <ele>1008.179</ele>
        <time>2020-08-28T10:13:37Z</time>
      </trkpt>
      <trkpt lat="40.425151" lon="-1.21554">
        <ele>1007.705</ele>
        <time>2020-08-28T10:13:38Z</time>
      </trkpt>
      <trkpt lat="40.425079" lon="-1.215506">
        <ele>1007.325</ele>
        <time>2020-08-28T10:13:39Z</time>
      </trkpt>
      <trkpt lat="40.425007" lon="-1.215471">
        <ele>1006.908</ele>
        <time>2020-08-28T10:13:40Z</time>
      </trkpt>
      <trkpt lat="40.424936" lon="-1.215437">
        <ele>1006.572</ele>
        <time>2020-08-28T10:13:41Z</time>
      </trkpt>
      <trkpt lat="40.424867" lon="-1.215404">
        <ele>1006.142</ele>
        <time>2020-08-28T10:13:42Z</time>
      </trkpt>
      <trkpt lat="40.424802" lon="-1.215374">
        <ele>1005.814</ele>
        <time>2020-08-28T10:13:43Z</time>
      </trkpt>
      <trkpt lat="40.42474" lon="-1.215348">
        <ele>1005.536</ele>
        <time>2020-08-28T10:13:44Z</time>
      </trkpt>
      <trkpt lat="40.424683" lon="-1.215327">
        <ele>1005.394</ele>
        <time>2020-08-28T10:13:45Z</time>
      </trkpt>
      <trkpt lat="40.424626" lon="-1.21531">
        <ele>1004.971</ele>
        <time>2020-08-28T10:13:46Z</time>
      </trkpt>
      <trkpt lat="40.424568" lon="-1.215285">
        <ele>1004.739</ele>
        <time>2020-08-28T10:13:47Z</time>
      </trkpt>
      <trkpt lat="40.424517" lon="-1.215261">
        <ele>1004.519</ele>
        <time>2020-08-28T10:13:48Z</time>
      </trkpt>
      <trkpt lat="40.424463" lon="-1.215237">
        <ele>1004.319</ele>
        <time>2020-08-28T10:13:49Z</time>
      </trkpt>
      <trkpt lat="40.424407" lon="-1.215215">
        <ele>1004.009</ele>
        <time>2020-08-28T10:13:50Z</time>
      </trkpt>
      <trkpt lat="40.424351" lon="-1.215202">
        <ele>1003.719</ele>
        <time>2020-08-28T10:13:51Z</time>
      </trkpt>
      <trkpt lat="40.424289" lon="-1.215194">
        <ele>1003.508</ele>
        <time>2020-08-28T10:13:52Z</time>
      </trkpt>
      <trkpt lat="40.424243" lon="-1.215187">
        <ele>1003.486</ele>
        <time>2020-08-28T10:13:53Z</time>
      </trkpt>
      <trkpt lat="40.424196" lon="-1.215185">
        <ele>1003.426</ele>
        <time>2020-08-28T10:13:54Z</time>
      </trkpt>
      <trkpt lat="40.424114" lon="-1.21519">
        <ele>1003.878</ele>
        <time>2020-08-28T10:13:56Z</time>
      </trkpt>
      <trkpt lat="40.424037" lon="-1.215187">
        <ele>1004.510</ele>
        <time>2020-08-28T10:13:58Z</time>
      </trkpt>
      <trkpt lat="40.423963" lon="-1.215174">
        <ele>1005.198</ele>
        <time>2020-08-28T10:14:00Z</time>
      </trkpt>
      <trkpt lat="40.423896" lon="-1.215127">
        <ele>1005.555</ele>
        <time>2020-08-28T10:14:02Z</time>
      </trkpt>
      <trkpt lat="40.423838" lon="-1.215064">
        <ele>1005.783</ele>
        <time>2020-08-28T10:14:04Z</time>
      </trkpt>
      <trkpt lat="40.423777" lon="-1.214996">
        <ele>1005.893</ele>
        <time>2020-08-28T10:14:06Z</time>
      </trkpt>
      <trkpt lat="40.423717" lon="-1.214925">
        <ele>1005.883</ele>
        <time>2020-08-28T10:14:08Z</time>
      </trkpt>
      <trkpt lat="40.423656" lon="-1.214851">
        <ele>1005.825</ele>
        <time>2020-08-28T10:14:10Z</time>
      </trkpt>
      <trkpt lat="40.423595" lon="-1.214769">
        <ele>1005.817</ele>
        <time>2020-08-28T10:14:12Z</time>
      </trkpt>
      <trkpt lat="40.423531" lon="-1.214695">
        <ele>1005.908</ele>
        <time>2020-08-28T10:14:14Z</time>
      </trkpt>
      <trkpt lat="40.423494" lon="-1.214658">
        <ele>1006.033</ele>
        <time>2020-08-28T10:14:15Z</time>
      </trkpt>
      <trkpt lat="40.42343" lon="-1.214583">
        <ele>1006.153</ele>
        <time>2020-08-28T10:14:17Z</time>
      </trkpt>
      <trkpt lat="40.423397" lon="-1.214542">
        <ele>1006.125</ele>
        <time>2020-08-28T10:14:18Z</time>
      </trkpt>
      <trkpt lat="40.423338" lon="-1.214464">
        <ele>1006.117</ele>
        <time>2020-08-28T10:14:20Z</time>
      </trkpt>
      <trkpt lat="40.423276" lon="-1.214386">
        <ele>1006.195</ele>
        <time>2020-08-28T10:14:22Z</time>
      </trkpt>
      <trkpt lat="40.42321" lon="-1.214308">
        <ele>1006.122</ele>
        <time>2020-08-28T10:14:24Z</time>
      </trkpt>
      <trkpt lat="40.423143" lon="-1.214236">
        <ele>1006.120</ele>
        <time>2020-08-28T10:14:26Z</time>
      </trkpt>
      <trkpt lat="40.423082" lon="-1.214157">
        <ele>1006.160</ele>
        <time>2020-08-28T10:14:28Z</time>
      </trkpt>
      <trkpt lat="40.423049" lon="-1.214116">
        <ele>1006.194</ele>
        <time>2020-08-28T10:14:29Z</time>
      </trkpt>
      <trkpt lat="40.422977" lon="-1.214049">
        <ele>1006.257</ele>
        <time>2020-08-28T10:14:31Z</time>
      </trkpt>
      <trkpt lat="40.422913" lon="-1.213973">
        <ele>1006.222</ele>
        <time>2020-08-28T10:14:33Z</time>
      </trkpt>
      <trkpt lat="40.422879" lon="-1.213934">
        <ele>1006.108</ele>
        <time>2020-08-28T10:14:34Z</time>
      </trkpt>
      <trkpt lat="40.422816" lon="-1.213859">
        <ele>1006.144</ele>
        <time>2020-08-28T10:14:36Z</time>
      </trkpt>
      <trkpt lat="40.422783" lon="-1.213818">
        <ele>1006.144</ele>
        <time>2020-08-28T10:14:37Z</time>
      </trkpt>
      <trkpt lat="40.42272" lon="-1.213743">
        <ele>1006.256</ele>
        <time>2020-08-28T10:14:39Z</time>
      </trkpt>
      <trkpt lat="40.422653" lon="-1.213671">
        <ele>1006.268</ele>
        <time>2020-08-28T10:14:41Z</time>
      </trkpt>
      <trkpt lat="40.422588" lon="-1.213598">
        <ele>1006.216</ele>
        <time>2020-08-28T10:14:43Z</time>
      </trkpt>
      <trkpt lat="40.422525" lon="-1.213522">
        <ele>1006.293</ele>
        <time>2020-08-28T10:14:45Z</time>
      </trkpt>
      <trkpt lat="40.422462" lon="-1.213452">
        <ele>1006.231</ele>
        <time>2020-08-28T10:14:47Z</time>
      </trkpt>
      <trkpt lat="40.422395" lon="-1.213382">
        <ele>1006.291</ele>
        <time>2020-08-28T10:14:49Z</time>
      </trkpt>
      <trkpt lat="40.42236" lon="-1.213343">
        <ele>1006.249</ele>
        <time>2020-08-28T10:14:50Z</time>
      </trkpt>
      <trkpt lat="40.422298" lon="-1.213264">
        <ele>1006.102</ele>
        <time>2020-08-28T10:14:52Z</time>
      </trkpt>
      <trkpt lat="40.422231" lon="-1.213194">
        <ele>1006.122</ele>
        <time>2020-08-28T10:14:54Z</time>
      </trkpt>
      <trkpt lat="40.422197" lon="-1.213154">
        <ele>1006.108</ele>
        <time>2020-08-28T10:14:55Z</time>
      </trkpt>
      <trkpt lat="40.422133" lon="-1.213075">
        <ele>1006.119</ele>
        <time>2020-08-28T10:14:57Z</time>
      </trkpt>
      <trkpt lat="40.422068" lon="-1.213">
        <ele>1006.149</ele>
        <time>2020-08-28T10:14:59Z</time>
      </trkpt>
      <trkpt lat="40.422004" lon="-1.212925">
        <ele>1006.181</ele>
        <time>2020-08-28T10:15:01Z</time>
      </trkpt>
      <trkpt lat="40.42194" lon="-1.212852">
        <ele>1006.213</ele>
        <time>2020-08-28T10:15:03Z</time>
      </trkpt>
      <trkpt lat="40.421874" lon="-1.212776">
        <ele>1006.331</ele>
        <time>2020-08-28T10:15:05Z</time>
      </trkpt>
      <trkpt lat="40.421805" lon="-1.212705">
        <ele>1006.398</ele>
        <time>2020-08-28T10:15:07Z</time>
      </trkpt>
      <trkpt lat="40.421744" lon="-1.212625">
        <ele>1006.396</ele>
        <time>2020-08-28T10:15:09Z</time>
      </trkpt>
      <trkpt lat="40.421708" lon="-1.212588">
        <ele>1006.396</ele>
        <time>2020-08-28T10:15:10Z</time>
      </trkpt>
      <trkpt lat="40.421673" lon="-1.212549">
        <ele>1006.353</ele>
        <time>2020-08-28T10:15:11Z</time>
      </trkpt>
      <trkpt lat="40.421639" lon="-1.212504">
        <ele>1006.304</ele>
        <time>2020-08-28T10:15:12Z</time>
      </trkpt>
      <trkpt lat="40.42157" lon="-1.212428">
        <ele>1006.314</ele>
        <time>2020-08-28T10:15:14Z</time>
      </trkpt>
      <trkpt lat="40.421501" lon="-1.212353">
        <ele>1006.208</ele>
        <time>2020-08-28T10:15:16Z</time>
      </trkpt>
      <trkpt lat="40.421467" lon="-1.21231">
        <ele>1006.150</ele>
        <time>2020-08-28T10:15:17Z</time>
      </trkpt>
      <trkpt lat="40.421432" lon="-1.212271">
        <ele>1006.160</ele>
        <time>2020-08-28T10:15:18Z</time>
      </trkpt>
      <trkpt lat="40.421399" lon="-1.21223">
        <ele>1006.122</ele>
        <time>2020-08-28T10:15:19Z</time>
      </trkpt>
      <trkpt lat="40.421363" lon="-1.212191">
        <ele>1006.114</ele>
        <time>2020-08-28T10:15:20Z</time>
      </trkpt>
      <trkpt lat="40.421325" lon="-1.21215">
        <ele>1006.282</ele>
        <time>2020-08-28T10:15:21Z</time>
      </trkpt>
      <trkpt lat="40.421288" lon="-1.212106">
        <ele>1006.229</ele>
        <time>2020-08-28T10:15:22Z</time>
      </trkpt>
      <trkpt lat="40.421252" lon="-1.212062">
        <ele>1006.287</ele>
        <time>2020-08-28T10:15:23Z</time>
      </trkpt>
      <trkpt lat="40.421217" lon="-1.212023">
        <ele>1006.277</ele>
        <time>2020-08-28T10:15:24Z</time>
      </trkpt>
      <trkpt lat="40.421181" lon="-1.211981">
        <ele>1006.294</ele>
        <time>2020-08-28T10:15:25Z</time>
      </trkpt>
      <trkpt lat="40.421146" lon="-1.211942">
        <ele>1006.257</ele>
        <time>2020-08-28T10:15:26Z</time>
      </trkpt>
      <trkpt lat="40.421105" lon="-1.211898">
        <ele>1006.222</ele>
        <time>2020-08-28T10:15:27Z</time>
      </trkpt>
      <trkpt lat="40.421067" lon="-1.211857">
        <ele>1006.208</ele>
        <time>2020-08-28T10:15:28Z</time>
      </trkpt>
      <trkpt lat="40.421032" lon="-1.211813">
        <ele>1006.124</ele>
        <time>2020-08-28T10:15:29Z</time>
      </trkpt>
      <trkpt lat="40.420994" lon="-1.21177">
        <ele>1006.174</ele>
        <time>2020-08-28T10:15:30Z</time>
      </trkpt>
      <trkpt lat="40.420959" lon="-1.211727">
        <ele>1006.166</ele>
        <time>2020-08-28T10:15:31Z</time>
      </trkpt>
      <trkpt lat="40.420923" lon="-1.211681">
        <ele>1006.158</ele>
        <time>2020-08-28T10:15:32Z</time>
      </trkpt>
      <trkpt lat="40.420887" lon="-1.211642">
        <ele>1006.156</ele>
        <time>2020-08-28T10:15:33Z</time>
      </trkpt>
      <trkpt lat="40.420846" lon="-1.211602">
        <ele>1006.183</ele>
        <time>2020-08-28T10:15:34Z</time>
      </trkpt>
      <trkpt lat="40.420811" lon="-1.211556">
        <ele>1006.171</ele>
        <time>2020-08-28T10:15:35Z</time>
      </trkpt>
      <trkpt lat="40.420773" lon="-1.211511">
        <ele>1006.121</ele>
        <time>2020-08-28T10:15:36Z</time>
      </trkpt>
      <trkpt lat="40.420736" lon="-1.211466">
        <ele>1006.135</ele>
        <time>2020-08-28T10:15:37Z</time>
      </trkpt>
      <trkpt lat="40.420697" lon="-1.211421">
        <ele>1006.186</ele>
        <time>2020-08-28T10:15:38Z</time>
      </trkpt>
      <trkpt lat="40.420664" lon="-1.211374">
        <ele>1006.114</ele>
        <time>2020-08-28T10:15:39Z</time>
      </trkpt>
      <trkpt lat="40.420625" lon="-1.211329">
        <ele>1006.108</ele>
        <time>2020-08-28T10:15:40Z</time>
      </trkpt>
      <trkpt lat="40.420588" lon="-1.211287">
        <ele>1006.118</ele>
        <time>2020-08-28T10:15:41Z</time>
      </trkpt>
      <trkpt lat="40.42055" lon="-1.211242">
        <ele>1006.118</ele>
        <time>2020-08-28T10:15:42Z</time>
      </trkpt>
      <trkpt lat="40.420515" lon="-1.211198">
        <ele>1006.120</ele>
        <time>2020-08-28T10:15:43Z</time>
      </trkpt>
      <trkpt lat="40.420478" lon="-1.211149">
        <ele>1006.112</ele>
        <time>2020-08-28T10:15:44Z</time>
      </trkpt>
      <trkpt lat="40.420441" lon="-1.211108">
        <ele>1006.190</ele>
        <time>2020-08-28T10:15:45Z</time>
      </trkpt>
      <trkpt lat="40.420404" lon="-1.211062">
        <ele>1006.137</ele>
        <time>2020-08-28T10:15:46Z</time>
      </trkpt>
      <trkpt lat="40.420365" lon="-1.211019">
        <ele>1006.185</ele>
        <time>2020-08-28T10:15:47Z</time>
      </trkpt>
      <trkpt lat="40.420326" lon="-1.210975">
        <ele>1006.155</ele>
        <time>2020-08-28T10:15:48Z</time>
      </trkpt>
      <trkpt lat="40.420287" lon="-1.210934">
        <ele>1006.181</ele>
        <time>2020-08-28T10:15:49Z</time>
      </trkpt>
      <trkpt lat="40.42025" lon="-1.21089">
        <ele>1006.161</ele>
        <time>2020-08-28T10:15:50Z</time>
      </trkpt>
      <trkpt lat="40.420214" lon="-1.210847">
        <ele>1006.117</ele>
        <time>2020-08-28T10:15:51Z</time>
      </trkpt>
      <trkpt lat="40.420178" lon="-1.210803">
        <ele>1006.108</ele>
        <time>2020-08-28T10:15:52Z</time>
      </trkpt>
      <trkpt lat="40.420141" lon="-1.210756">
        <ele>1006.123</ele>
        <time>2020-08-28T10:15:53Z</time>
      </trkpt>
      <trkpt lat="40.420105" lon="-1.210712">
        <ele>1006.153</ele>
        <time>2020-08-28T10:15:54Z</time>
      </trkpt>
      <trkpt lat="40.420068" lon="-1.210665">
        <ele>1006.125</ele>
        <time>2020-08-28T10:15:55Z</time>
      </trkpt>
      <trkpt lat="40.42003" lon="-1.210622">
        <ele>1006.117</ele>
        <time>2020-08-28T10:15:56Z</time>
      </trkpt>
      <trkpt lat="40.419993" lon="-1.210577">
        <ele>1006.175</ele>
        <time>2020-08-28T10:15:57Z</time>
      </trkpt>
      <trkpt lat="40.419956" lon="-1.210534">
        <ele>1006.182</ele>
        <time>2020-08-28T10:15:58Z</time>
      </trkpt>
      <trkpt lat="40.41992" lon="-1.210488">
        <ele>1006.120</ele>
        <time>2020-08-28T10:15:59Z</time>
      </trkpt>
      <trkpt lat="40.419883" lon="-1.210444">
        <ele>1006.190</ele>
        <time>2020-08-28T10:16:00Z</time>
      </trkpt>
      <trkpt lat="40.419845" lon="-1.210404">
        <ele>1006.185</ele>
        <time>2020-08-28T10:16:01Z</time>
      </trkpt>
      <trkpt lat="40.419805" lon="-1.210363">
        <ele>1006.189</ele>
        <time>2020-08-28T10:16:02Z</time>
      </trkpt>
      <trkpt lat="40.419768" lon="-1.210317">
        <ele>1006.117</ele>
        <time>2020-08-28T10:16:03Z</time>
      </trkpt>
      <trkpt lat="40.419733" lon="-1.210276">
        <ele>1006.108</ele>
        <time>2020-08-28T10:16:04Z</time>
      </trkpt>
      <trkpt lat="40.419694" lon="-1.210231">
        <ele>1006.123</ele>
        <time>2020-08-28T10:16:05Z</time>
      </trkpt>
      <trkpt lat="40.419656" lon="-1.210188">
        <ele>1006.123</ele>
        <time>2020-08-28T10:16:06Z</time>
      </trkpt>
      <trkpt lat="40.419617" lon="-1.210146">
        <ele>1006.125</ele>
        <time>2020-08-28T10:16:07Z</time>
      </trkpt>
      <trkpt lat="40.419578" lon="-1.210099">
        <ele>1006.187</ele>
        <time>2020-08-28T10:16:08Z</time>
      </trkpt>
      <trkpt lat="40.419543" lon="-1.210053">
        <ele>1006.115</ele>
        <time>2020-08-28T10:16:09Z</time>
      </trkpt>
      <trkpt lat="40.419505" lon="-1.210008">
        <ele>1006.182</ele>
        <time>2020-08-28T10:16:10Z</time>
      </trkpt>
      <trkpt lat="40.419467" lon="-1.209965">
        <ele>1006.120</ele>
        <time>2020-08-28T10:16:11Z</time>
      </trkpt>
      <trkpt lat="40.419426" lon="-1.209923">
        <ele>1006.120</ele>
        <time>2020-08-28T10:16:12Z</time>
      </trkpt>
      <trkpt lat="40.419389" lon="-1.20988">
        <ele>1006.182</ele>
        <time>2020-08-28T10:16:13Z</time>
      </trkpt>
      <trkpt lat="40.419352" lon="-1.209835">
        <ele>1006.143</ele>
        <time>2020-08-28T10:16:14Z</time>
      </trkpt>
      <trkpt lat="40.419312" lon="-1.20979">
        <ele>1006.117</ele>
        <time>2020-08-28T10:16:15Z</time>
      </trkpt>
      <trkpt lat="40.419271" lon="-1.209745">
        <ele>1006.108</ele>
        <time>2020-08-28T10:16:16Z</time>
      </trkpt>
      <trkpt lat="40.419234" lon="-1.209701">
        <ele>1006.093</ele>
        <time>2020-08-28T10:16:17Z</time>
      </trkpt>
      <trkpt lat="40.419192" lon="-1.209658">
        <ele>1005.973</ele>
        <time>2020-08-28T10:16:18Z</time>
      </trkpt>
      <trkpt lat="40.419153" lon="-1.209611">
        <ele>1005.845</ele>
        <time>2020-08-28T10:16:19Z</time>
      </trkpt>
      <trkpt lat="40.419112" lon="-1.209565">
        <ele>1005.847</ele>
        <time>2020-08-28T10:16:20Z</time>
      </trkpt>
      <trkpt lat="40.419072" lon="-1.20952">
        <ele>1005.825</ele>
        <time>2020-08-28T10:16:21Z</time>
      </trkpt>
      <trkpt lat="40.419031" lon="-1.209476">
        <ele>1005.862</ele>
        <time>2020-08-28T10:16:22Z</time>
      </trkpt>
      <trkpt lat="40.418992" lon="-1.209429">
        <ele>1005.840</ele>
        <time>2020-08-28T10:16:23Z</time>
      </trkpt>
      <trkpt lat="40.418955" lon="-1.209384">
        <ele>1005.830</ele>
        <time>2020-08-28T10:16:24Z</time>
      </trkpt>
      <trkpt lat="40.418913" lon="-1.20934">
        <ele>1005.732</ele>
        <time>2020-08-28T10:16:25Z</time>
      </trkpt>
      <trkpt lat="40.418872" lon="-1.209294">
        <ele>1005.792</ele>
        <time>2020-08-28T10:16:26Z</time>
      </trkpt>
      <trkpt lat="40.418833" lon="-1.209246">
        <ele>1005.711</ele>
        <time>2020-08-28T10:16:27Z</time>
      </trkpt>
      <trkpt lat="40.418791" lon="-1.209196">
        <ele>1005.608</ele>
        <time>2020-08-28T10:16:28Z</time>
      </trkpt>
      <trkpt lat="40.41875" lon="-1.209152">
        <ele>1005.668</ele>
        <time>2020-08-28T10:16:29Z</time>
      </trkpt>
      <trkpt lat="40.418711" lon="-1.209102">
        <ele>1005.668</ele>
        <time>2020-08-28T10:16:30Z</time>
      </trkpt>
      <trkpt lat="40.41867" lon="-1.209051">
        <ele>1005.550</ele>
        <time>2020-08-28T10:16:31Z</time>
      </trkpt>
      <trkpt lat="40.418629" lon="-1.209001">
        <ele>1005.492</ele>
        <time>2020-08-28T10:16:32Z</time>
      </trkpt>
      <trkpt lat="40.418591" lon="-1.208949">
        <ele>1005.310</ele>
        <time>2020-08-28T10:16:33Z</time>
      </trkpt>
      <trkpt lat="40.418553" lon="-1.208898">
        <ele>1005.287</ele>
        <time>2020-08-28T10:16:34Z</time>
      </trkpt>
      <trkpt lat="40.418515" lon="-1.208853">
        <ele>1005.125</ele>
        <time>2020-08-28T10:16:35Z</time>
      </trkpt>
      <trkpt lat="40.418474" lon="-1.208803">
        <ele>1005.135</ele>
        <time>2020-08-28T10:16:36Z</time>
      </trkpt>
      <trkpt lat="40.418436" lon="-1.208754">
        <ele>1005.151</ele>
        <time>2020-08-28T10:16:37Z</time>
      </trkpt>
      <trkpt lat="40.418397" lon="-1.208705">
        <ele>1005.101</ele>
        <time>2020-08-28T10:16:38Z</time>
      </trkpt>
      <trkpt lat="40.418358" lon="-1.208658">
        <ele>1005.111</ele>
        <time>2020-08-28T10:16:39Z</time>
      </trkpt>
      <trkpt lat="40.418318" lon="-1.208609">
        <ele>1005.108</ele>
        <time>2020-08-28T10:16:40Z</time>
      </trkpt>
      <trkpt lat="40.418281" lon="-1.208562">
        <ele>1005.110</ele>
        <time>2020-08-28T10:16:41Z</time>
      </trkpt>
      <trkpt lat="40.418244" lon="-1.208512">
        <ele>1005.190</ele>
        <time>2020-08-28T10:16:42Z</time>
      </trkpt>
      <trkpt lat="40.418205" lon="-1.208463">
        <ele>1005.132</ele>
        <time>2020-08-28T10:16:43Z</time>
      </trkpt>
      <trkpt lat="40.418166" lon="-1.208414">
        <ele>1005.184</ele>
        <time>2020-08-28T10:16:44Z</time>
      </trkpt>
      <trkpt lat="40.418127" lon="-1.208366">
        <ele>1005.192</ele>
        <time>2020-08-28T10:16:45Z</time>
      </trkpt>
      <trkpt lat="40.418083" lon="-1.208317">
        <ele>1005.129</ele>
        <time>2020-08-28T10:16:46Z</time>
      </trkpt>
      <trkpt lat="40.418044" lon="-1.208268">
        <ele>1005.157</ele>
        <time>2020-08-28T10:16:47Z</time>
      </trkpt>
      <trkpt lat="40.418003" lon="-1.208216">
        <ele>1005.167</ele>
        <time>2020-08-28T10:16:48Z</time>
      </trkpt>
      <trkpt lat="40.41796" lon="-1.20817">
        <ele>1005.152</ele>
        <time>2020-08-28T10:16:49Z</time>
      </trkpt>
      <trkpt lat="40.417919" lon="-1.208125">
        <ele>1004.953</ele>
        <time>2020-08-28T10:16:50Z</time>
      </trkpt>
      <trkpt lat="40.417875" lon="-1.208083">
        <ele>1004.808</ele>
        <time>2020-08-28T10:16:51Z</time>
      </trkpt>
      <trkpt lat="40.417832" lon="-1.208034">
        <ele>1004.808</ele>
        <time>2020-08-28T10:16:52Z</time>
      </trkpt>
      <trkpt lat="40.417792" lon="-1.207985">
        <ele>1004.850</ele>
        <time>2020-08-28T10:16:53Z</time>
      </trkpt>
      <trkpt lat="40.417756" lon="-1.20794">
        <ele>1004.870</ele>
        <time>2020-08-28T10:16:54Z</time>
      </trkpt>
      <trkpt lat="40.417717" lon="-1.207896">
        <ele>1004.872</ele>
        <time>2020-08-28T10:16:55Z</time>
      </trkpt>
      <trkpt lat="40.417675" lon="-1.207852">
        <ele>1004.834</ele>
        <time>2020-08-28T10:16:56Z</time>
      </trkpt>
      <trkpt lat="40.417633" lon="-1.207805">
        <ele>1004.892</ele>
        <time>2020-08-28T10:16:57Z</time>
      </trkpt>
      <trkpt lat="40.417591" lon="-1.207761">
        <ele>1004.879</ele>
        <time>2020-08-28T10:16:58Z</time>
      </trkpt>
      <trkpt lat="40.417553" lon="-1.207713">
        <ele>1004.817</ele>
        <time>2020-08-28T10:16:59Z</time>
      </trkpt>
      <trkpt lat="40.417516" lon="-1.207668">
        <ele>1004.867</ele>
        <time>2020-08-28T10:17:00Z</time>
      </trkpt>
      <trkpt lat="40.417473" lon="-1.207618">
        <ele>1004.887</ele>
        <time>2020-08-28T10:17:01Z</time>
      </trkpt>
      <trkpt lat="40.417435" lon="-1.207572">
        <ele>1004.842</ele>
        <time>2020-08-28T10:17:02Z</time>
      </trkpt>
      <trkpt lat="40.417396" lon="-1.207516">
        <ele>1004.826</ele>
        <time>2020-08-28T10:17:03Z</time>
      </trkpt>
      <trkpt lat="40.417358" lon="-1.207467">
        <ele>1004.808</ele>
        <time>2020-08-28T10:17:04Z</time>
      </trkpt>
      <trkpt lat="40.41732" lon="-1.20742">
        <ele>1004.863</ele>
        <time>2020-08-28T10:17:05Z</time>
      </trkpt>
      <trkpt lat="40.417287" lon="-1.207374">
        <ele>1004.833</ele>
        <time>2020-08-28T10:17:06Z</time>
      </trkpt>
      <trkpt lat="40.417251" lon="-1.20733">
        <ele>1004.845</ele>
        <time>2020-08-28T10:17:07Z</time>
      </trkpt>
      <trkpt lat="40.417213" lon="-1.207288">
        <ele>1004.887</ele>
        <time>2020-08-28T10:17:08Z</time>
      </trkpt>
      <trkpt lat="40.417173" lon="-1.207245">
        <ele>1004.855</ele>
        <time>2020-08-28T10:17:09Z</time>
      </trkpt>
      <trkpt lat="40.417134" lon="-1.207201">
        <ele>1004.862</ele>
        <time>2020-08-28T10:17:10Z</time>
      </trkpt>
      <trkpt lat="40.417096" lon="-1.207158">
        <ele>1004.880</ele>
        <time>2020-08-28T10:17:11Z</time>
      </trkpt>
      <trkpt lat="40.417057" lon="-1.207113">
        <ele>1004.820</ele>
        <time>2020-08-28T10:17:12Z</time>
      </trkpt>
      <trkpt lat="40.417016" lon="-1.207069">
        <ele>1004.838</ele>
        <time>2020-08-28T10:17:13Z</time>
      </trkpt>
      <trkpt lat="40.416976" lon="-1.207019">
        <ele>1004.870</ele>
        <time>2020-08-28T10:17:14Z</time>
      </trkpt>
      <trkpt lat="40.416932" lon="-1.206978">
        <ele>1004.817</ele>
        <time>2020-08-28T10:17:15Z</time>
      </trkpt>
      <trkpt lat="40.416892" lon="-1.206935">
        <ele>1004.808</ele>
        <time>2020-08-28T10:17:16Z</time>
      </trkpt>
      <trkpt lat="40.416855" lon="-1.20689">
        <ele>1004.838</ele>
        <time>2020-08-28T10:17:17Z</time>
      </trkpt>
      <trkpt lat="40.416819" lon="-1.206849">
        <ele>1004.828</ele>
        <time>2020-08-28T10:17:18Z</time>
      </trkpt>
      <trkpt lat="40.416782" lon="-1.206808">
        <ele>1004.880</ele>
        <time>2020-08-28T10:17:19Z</time>
      </trkpt>
      <trkpt lat="40.41674" lon="-1.206771">
        <ele>1004.812</ele>
        <time>2020-08-28T10:17:20Z</time>
      </trkpt>
      <trkpt lat="40.416705" lon="-1.206725">
        <ele>1004.830</ele>
        <time>2020-08-28T10:17:21Z</time>
      </trkpt>
      <trkpt lat="40.416671" lon="-1.206679">
        <ele>1004.817</ele>
        <time>2020-08-28T10:17:22Z</time>
      </trkpt>
      <trkpt lat="40.416637" lon="-1.206627">
        <ele>1004.885</ele>
        <time>2020-08-28T10:17:23Z</time>
      </trkpt>
      <trkpt lat="40.416609" lon="-1.206571">
        <ele>1004.855</ele>
        <time>2020-08-28T10:17:24Z</time>
      </trkpt>
      <trkpt lat="40.41658" lon="-1.206518">
        <ele>1004.898</ele>
        <time>2020-08-28T10:17:25Z</time>
      </trkpt>
      <trkpt lat="40.416552" lon="-1.206462">
        <ele>1004.815</ele>
        <time>2020-08-28T10:17:26Z</time>
      </trkpt>
      <trkpt lat="40.416531" lon="-1.206407">
        <ele>1004.826</ele>
        <time>2020-08-28T10:17:27Z</time>
      </trkpt>
      <trkpt lat="40.416506" lon="-1.206351">
        <ele>1004.808</ele>
        <time>2020-08-28T10:17:28Z</time>
      </trkpt>
      <trkpt lat="40.416484" lon="-1.206298">
        <ele>1004.824</ele>
        <time>2020-08-28T10:17:29Z</time>
      </trkpt>
      <trkpt lat="40.416461" lon="-1.206245">
        <ele>1004.934</ele>
        <time>2020-08-28T10:17:30Z</time>
      </trkpt>
      <trkpt lat="40.416441" lon="-1.206191">
        <ele>1005.076</ele>
        <time>2020-08-28T10:17:31Z</time>
      </trkpt>
      <trkpt lat="40.416404" lon="-1.206081">
        <ele>1005.118</ele>
        <time>2020-08-28T10:17:33Z</time>
      </trkpt>
      <trkpt lat="40.416363" lon="-1.20603">
        <ele>1005.126</ele>
        <time>2020-08-28T10:17:35Z</time>
      </trkpt>
      <trkpt lat="40.416345" lon="-1.205954">
        <ele>1005.173</ele>
        <time>2020-08-28T10:17:36Z</time>
      </trkpt>
      <trkpt lat="40.416327" lon="-1.205886">
        <ele>1005.131</ele>
        <time>2020-08-28T10:17:37Z</time>
      </trkpt>
      <trkpt lat="40.416307" lon="-1.205827">
        <ele>1005.171</ele>
        <time>2020-08-28T10:17:38Z</time>
      </trkpt>
      <trkpt lat="40.41628" lon="-1.205771">
        <ele>1005.128</ele>
        <time>2020-08-28T10:17:39Z</time>
      </trkpt>
      <trkpt lat="40.416263" lon="-1.205709">
        <ele>1005.189</ele>
        <time>2020-08-28T10:17:40Z</time>
      </trkpt>
      <trkpt lat="40.416252" lon="-1.205642">
        <ele>1005.117</ele>
        <time>2020-08-28T10:17:41Z</time>
      </trkpt>
      <trkpt lat="40.416211" lon="-1.205539">
        <ele>1005.008</ele>
        <time>2020-08-28T10:17:43Z</time>
      </trkpt>
      <trkpt lat="40.416185" lon="-1.205484">
        <ele>1005.057</ele>
        <time>2020-08-28T10:17:44Z</time>
      </trkpt>
      <trkpt lat="40.416178" lon="-1.205414">
        <ele>1005.087</ele>
        <time>2020-08-28T10:17:45Z</time>
      </trkpt>
      <trkpt lat="40.416166" lon="-1.205348">
        <ele>1005.019</ele>
        <time>2020-08-28T10:17:46Z</time>
      </trkpt>
      <trkpt lat="40.416155" lon="-1.205281">
        <ele>1005.011</ele>
        <time>2020-08-28T10:17:47Z</time>
      </trkpt>
      <trkpt lat="40.416141" lon="-1.205168">
        <ele>1005.139</ele>
        <time>2020-08-28T10:17:49Z</time>
      </trkpt>
      <trkpt lat="40.416128" lon="-1.205057">
        <ele>1005.276</ele>
        <time>2020-08-28T10:17:51Z</time>
      </trkpt>
      <trkpt lat="40.416121" lon="-1.204951">
        <ele>1005.434</ele>
        <time>2020-08-28T10:17:53Z</time>
      </trkpt>
      <trkpt lat="40.416115" lon="-1.204871">
        <ele>1005.454</ele>
        <time>2020-08-28T10:17:55Z</time>
      </trkpt>
      <trkpt lat="40.416104" lon="-1.204787">
        <ele>1005.425</ele>
        <time>2020-08-28T10:17:57Z</time>
      </trkpt>
      <trkpt lat="40.416098" lon="-1.204712">
        <ele>1005.426</ele>
        <time>2020-08-28T10:17:59Z</time>
      </trkpt>
      <trkpt lat="40.416097" lon="-1.204647">
        <ele>1005.408</ele>
        <time>2020-08-28T10:18:01Z</time>
      </trkpt>
      <trkpt lat="40.416104" lon="-1.204566">
        <ele>1005.508</ele>
        <time>2020-08-28T10:18:04Z</time>
      </trkpt>
      <trkpt lat="40.41606" lon="-1.204516">
        <ele>1005.347</ele>
        <time>2020-08-28T10:18:12Z</time>
      </trkpt>
      <trkpt lat="40.416036" lon="-1.204427">
        <ele>1005.147</ele>
        <time>2020-08-28T10:18:14Z</time>
      </trkpt>
      <trkpt lat="40.416019" lon="-1.204329">
        <ele>1004.979</ele>
        <time>2020-08-28T10:18:16Z</time>
      </trkpt>
      <trkpt lat="40.415993" lon="-1.204234">
        <ele>1004.541</ele>
        <time>2020-08-28T10:18:18Z</time>
      </trkpt>
      <trkpt lat="40.415969" lon="-1.204133">
        <ele>1003.969</ele>
        <time>2020-08-28T10:18:20Z</time>
      </trkpt>
      <trkpt lat="40.41595" lon="-1.204027">
        <ele>1003.536</ele>
        <time>2020-08-28T10:18:22Z</time>
      </trkpt>
      <trkpt lat="40.415929" lon="-1.203968">
        <ele>1003.424</ele>
        <time>2020-08-28T10:18:23Z</time>
      </trkpt>
      <trkpt lat="40.41592" lon="-1.203909">
        <ele>1003.384</ele>
        <time>2020-08-28T10:18:24Z</time>
      </trkpt>
      <trkpt lat="40.415899" lon="-1.203803">
        <ele>1003.075</ele>
        <time>2020-08-28T10:18:26Z</time>
      </trkpt>
      <trkpt lat="40.415874" lon="-1.203705">
        <ele>1002.728</ele>
        <time>2020-08-28T10:18:28Z</time>
      </trkpt>
      <trkpt lat="40.415858" lon="-1.203602">
        <ele>1002.420</ele>
        <time>2020-08-28T10:18:30Z</time>
      </trkpt>
      <trkpt lat="40.41584" lon="-1.203535">
        <ele>1002.108</ele>
        <time>2020-08-28T10:18:32Z</time>
      </trkpt>
      <trkpt lat="40.415913" lon="-1.20398">
        <ele>1002.632</ele>
        <time>2020-08-28T10:19:15Z</time>
      </trkpt>
      <trkpt lat="40.415933" lon="-1.204059">
        <ele>1002.952</ele>
        <time>2020-08-28T10:19:18Z</time>
      </trkpt>
      <trkpt lat="40.415963" lon="-1.204138">
        <ele>1003.274</ele>
        <time>2020-08-28T10:19:21Z</time>
      </trkpt>
      <trkpt lat="40.415972" lon="-1.204198">
        <ele>1003.466</ele>
        <time>2020-08-28T10:19:23Z</time>
      </trkpt>
      <trkpt lat="40.415994" lon="-1.204281">
        <ele>1003.764</ele>
        <time>2020-08-28T10:19:26Z</time>
      </trkpt>
      <trkpt lat="40.416009" lon="-1.204342">
        <ele>1003.911</ele>
        <time>2020-08-28T10:19:28Z</time>
      </trkpt>
      <trkpt lat="40.416026" lon="-1.204423">
        <ele>1004.279</ele>
        <time>2020-08-28T10:19:31Z</time>
      </trkpt>
      <trkpt lat="40.416039" lon="-1.204495">
        <ele>1004.539</ele>
        <time>2020-08-28T10:19:34Z</time>
      </trkpt>
      <trkpt lat="40.416049" lon="-1.204564">
        <ele>1005.091</ele>
        <time>2020-08-28T10:19:37Z</time>
      </trkpt>
      <trkpt lat="40.416063" lon="-1.204629">
        <ele>1005.481</ele>
        <time>2020-08-28T10:19:40Z</time>
      </trkpt>
      <trkpt lat="40.41607" lon="-1.204699">
        <ele>1005.819</ele>
        <time>2020-08-28T10:19:43Z</time>
      </trkpt>
      <trkpt lat="40.416114" lon="-1.204686">
        <ele>1006.008</ele>
        <time>2020-08-28T10:19:48Z</time>
      </trkpt>
      <trkpt lat="40.416113" lon="-1.204607">
        <ele>1006.284</ele>
        <time>2020-08-28T10:19:52Z</time>
      </trkpt>
      <trkpt lat="40.416112" lon="-1.204525">
        <ele>1006.274</ele>
        <time>2020-08-28T10:19:55Z</time>
      </trkpt>
      <trkpt lat="40.416109" lon="-1.204464">
        <ele>1006.296</ele>
        <time>2020-08-28T10:19:57Z</time>
      </trkpt>
      <trkpt lat="40.41611" lon="-1.204403">
        <ele>1006.248</ele>
        <time>2020-08-28T10:19:59Z</time>
      </trkpt>
      <trkpt lat="40.416104" lon="-1.204344">
        <ele>1006.266</ele>
        <time>2020-08-28T10:20:01Z</time>
      </trkpt>
      <trkpt lat="40.41611" lon="-1.204258">
        <ele>1006.343</ele>
        <time>2020-08-28T10:20:04Z</time>
      </trkpt>
      <trkpt lat="40.416105" lon="-1.204195">
        <ele>1006.461</ele>
        <time>2020-08-28T10:20:06Z</time>
      </trkpt>
      <trkpt lat="40.416114" lon="-1.204129">
        <ele>1006.611</ele>
        <time>2020-08-28T10:20:08Z</time>
      </trkpt>
      <trkpt lat="40.416116" lon="-1.204043">
        <ele>1006.971</ele>
        <time>2020-08-28T10:20:11Z</time>
      </trkpt>
      <trkpt lat="40.41612" lon="-1.203976">
        <ele>1006.941</ele>
        <time>2020-08-28T10:20:13Z</time>
      </trkpt>
      <trkpt lat="40.416137" lon="-1.203916">
        <ele>1006.815</ele>
        <time>2020-08-28T10:20:15Z</time>
      </trkpt>
      <trkpt lat="40.416139" lon="-1.203852">
        <ele>1006.808</ele>
        <time>2020-08-28T10:20:17Z</time>
      </trkpt>
      <trkpt lat="40.416148" lon="-1.203786">
        <ele>1006.812</ele>
        <time>2020-08-28T10:20:19Z</time>
      </trkpt>
      <trkpt lat="40.416159" lon="-1.203728">
        <ele>1006.762</ele>
        <time>2020-08-28T10:20:21Z</time>
      </trkpt>
      <trkpt lat="40.416163" lon="-1.203651">
        <ele>1006.734</ele>
        <time>2020-08-28T10:20:23Z</time>
      </trkpt>
      <trkpt lat="40.416169" lon="-1.203587">
        <ele>1006.956</ele>
        <time>2020-08-28T10:20:25Z</time>
      </trkpt>
      <trkpt lat="40.416178" lon="-1.203523">
        <ele>1007.074</ele>
        <time>2020-08-28T10:20:27Z</time>
      </trkpt>
      <trkpt lat="40.416182" lon="-1.203455">
        <ele>1006.981</ele>
        <time>2020-08-28T10:20:29Z</time>
      </trkpt>
      <trkpt lat="40.416191" lon="-1.203386">
        <ele>1006.889</ele>
        <time>2020-08-28T10:20:31Z</time>
      </trkpt>
      <trkpt lat="40.416197" lon="-1.203316">
        <ele>1006.989</ele>
        <time>2020-08-28T10:20:33Z</time>
      </trkpt>
      <trkpt lat="40.416208" lon="-1.20323">
        <ele>1006.961</ele>
        <time>2020-08-28T10:20:36Z</time>
      </trkpt>
      <trkpt lat="40.416213" lon="-1.203167">
        <ele>1006.921</ele>
        <time>2020-08-28T10:20:38Z</time>
      </trkpt>
      <trkpt lat="40.416223" lon="-1.203077">
        <ele>1006.913</ele>
        <time>2020-08-28T10:20:41Z</time>
      </trkpt>
      <trkpt lat="40.416233" lon="-1.203014">
        <ele>1007.008</ele>
        <time>2020-08-28T10:20:43Z</time>
      </trkpt>
      <trkpt lat="40.416241" lon="-1.202953">
        <ele>1007.251</ele>
        <time>2020-08-28T10:20:45Z</time>
      </trkpt>
      <trkpt lat="40.416248" lon="-1.20289">
        <ele>1007.591</ele>
        <time>2020-08-28T10:20:47Z</time>
      </trkpt>
      <trkpt lat="40.416249" lon="-1.202823">
        <ele>1008.243</ele>
        <time>2020-08-28T10:20:50Z</time>
      </trkpt>
      <trkpt lat="40.416251" lon="-1.202747">
        <ele>1008.855</ele>
        <time>2020-08-28T10:20:53Z</time>
      </trkpt>
      <trkpt lat="40.416257" lon="-1.202665">
        <ele>1009.343</ele>
        <time>2020-08-28T10:20:56Z</time>
      </trkpt>
      <trkpt lat="40.416265" lon="-1.202594">
        <ele>1009.430</ele>
        <time>2020-08-28T10:20:58Z</time>
      </trkpt>
      <trkpt lat="40.416269" lon="-1.202518">
        <ele>1009.278</ele>
        <time>2020-08-28T10:21:00Z</time>
      </trkpt>
      <trkpt lat="40.41628" lon="-1.202424">
        <ele>1008.838</ele>
        <time>2020-08-28T10:21:02Z</time>
      </trkpt>
      <trkpt lat="40.416299" lon="-1.202343">
        <ele>1008.281</ele>
        <time>2020-08-28T10:21:04Z</time>
      </trkpt>
      <trkpt lat="40.416309" lon="-1.202254">
        <ele>1007.861</ele>
        <time>2020-08-28T10:21:06Z</time>
      </trkpt>
      <trkpt lat="40.416328" lon="-1.202146">
        <ele>1007.417</ele>
        <time>2020-08-28T10:21:08Z</time>
      </trkpt>
      <trkpt lat="40.416342" lon="-1.202043">
        <ele>1007.108</ele>
        <time>2020-08-28T10:21:10Z</time>
      </trkpt>
      <trkpt lat="40.416354" lon="-1.201943">
        <ele>1006.963</ele>
        <time>2020-08-28T10:21:12Z</time>
      </trkpt>
      <trkpt lat="40.416368" lon="-1.201854">
        <ele>1006.853</ele>
        <time>2020-08-28T10:21:14Z</time>
      </trkpt>
      <trkpt lat="40.41638" lon="-1.201774">
        <ele>1006.885</ele>
        <time>2020-08-28T10:21:16Z</time>
      </trkpt>
      <trkpt lat="40.416392" lon="-1.201681">
        <ele>1006.937</ele>
        <time>2020-08-28T10:21:18Z</time>
      </trkpt>
      <trkpt lat="40.416401" lon="-1.201599">
        <ele>1007.075</ele>
        <time>2020-08-28T10:21:20Z</time>
      </trkpt>
      <trkpt lat="40.416415" lon="-1.201515">
        <ele>1007.162</ele>
        <time>2020-08-28T10:21:22Z</time>
      </trkpt>
      <trkpt lat="40.416427" lon="-1.201438">
        <ele>1007.230</ele>
        <time>2020-08-28T10:21:24Z</time>
      </trkpt>
      <trkpt lat="40.41643" lon="-1.20135">
        <ele>1007.330</ele>
        <time>2020-08-28T10:21:26Z</time>
      </trkpt>
      <trkpt lat="40.416434" lon="-1.201272">
        <ele>1007.472</ele>
        <time>2020-08-28T10:21:28Z</time>
      </trkpt>
      <trkpt lat="40.416441" lon="-1.201182">
        <ele>1007.513</ele>
        <time>2020-08-28T10:21:30Z</time>
      </trkpt>
      <trkpt lat="40.416449" lon="-1.201089">
        <ele>1007.514</ele>
        <time>2020-08-28T10:21:32Z</time>
      </trkpt>
      <trkpt lat="40.416458" lon="-1.201003">
        <ele>1007.508</ele>
        <time>2020-08-28T10:21:34Z</time>
      </trkpt>
      <trkpt lat="40.416465" lon="-1.20091">
        <ele>1007.462</ele>
        <time>2020-08-28T10:21:36Z</time>
      </trkpt>
      <trkpt lat="40.416481" lon="-1.200826">
        <ele>1007.452</ele>
        <time>2020-08-28T10:21:38Z</time>
      </trkpt>
      <trkpt lat="40.416488" lon="-1.200737">
        <ele>1007.514</ele>
        <time>2020-08-28T10:21:40Z</time>
      </trkpt>
      <trkpt lat="40.416502" lon="-1.200642">
        <ele>1007.716</ele>
        <time>2020-08-28T10:21:42Z</time>
      </trkpt>
      <trkpt lat="40.41651" lon="-1.200545">
        <ele>1007.734</ele>
        <time>2020-08-28T10:21:44Z</time>
      </trkpt>
      <trkpt lat="40.416524" lon="-1.200452">
        <ele>1007.791</ele>
        <time>2020-08-28T10:21:46Z</time>
      </trkpt>
      <trkpt lat="40.416534" lon="-1.200362">
        <ele>1007.639</ele>
        <time>2020-08-28T10:21:48Z</time>
      </trkpt>
      <trkpt lat="40.416547" lon="-1.200269">
        <ele>1007.779</ele>
        <time>2020-08-28T10:21:50Z</time>
      </trkpt>
      <trkpt lat="40.41656" lon="-1.20017">
        <ele>1007.735</ele>
        <time>2020-08-28T10:21:52Z</time>
      </trkpt>
      <trkpt lat="40.416569" lon="-1.200074">
        <ele>1007.886</ele>
        <time>2020-08-28T10:21:54Z</time>
      </trkpt>
      <trkpt lat="40.41658" lon="-1.199977">
        <ele>1007.814</ele>
        <time>2020-08-28T10:21:56Z</time>
      </trkpt>
      <trkpt lat="40.416593" lon="-1.199881">
        <ele>1007.708</ele>
        <time>2020-08-28T10:21:58Z</time>
      </trkpt>
      <trkpt lat="40.416607" lon="-1.199778">
        <ele>1007.618</ele>
        <time>2020-08-28T10:22:00Z</time>
      </trkpt>
      <trkpt lat="40.416616" lon="-1.199682">
        <ele>1007.618</ele>
        <time>2020-08-28T10:22:02Z</time>
      </trkpt>
      <trkpt lat="40.416623" lon="-1.199585">
        <ele>1007.730</ele>
        <time>2020-08-28T10:22:04Z</time>
      </trkpt>
      <trkpt lat="40.416629" lon="-1.199491">
        <ele>1007.992</ele>
        <time>2020-08-28T10:22:06Z</time>
      </trkpt>
      <trkpt lat="40.416631" lon="-1.199391">
        <ele>1008.110</ele>
        <time>2020-08-28T10:22:08Z</time>
      </trkpt>
      <trkpt lat="40.416631" lon="-1.199289">
        <ele>1008.187</ele>
        <time>2020-08-28T10:22:10Z</time>
      </trkpt>
      <trkpt lat="40.416632" lon="-1.199184">
        <ele>1008.025</ele>
        <time>2020-08-28T10:22:12Z</time>
      </trkpt>
      <trkpt lat="40.416631" lon="-1.199081">
        <ele>1007.935</ele>
        <time>2020-08-28T10:22:14Z</time>
      </trkpt>
      <trkpt lat="40.416628" lon="-1.198975">
        <ele>1007.977</ele>
        <time>2020-08-28T10:22:16Z</time>
      </trkpt>
      <trkpt lat="40.41662" lon="-1.198867">
        <ele>1007.961</ele>
        <time>2020-08-28T10:22:18Z</time>
      </trkpt>
      <trkpt lat="40.416613" lon="-1.198764">
        <ele>1007.927</ele>
        <time>2020-08-28T10:22:20Z</time>
      </trkpt>
      <trkpt lat="40.416601" lon="-1.198658">
        <ele>1007.908</ele>
        <time>2020-08-28T10:22:22Z</time>
      </trkpt>
      <trkpt lat="40.416594" lon="-1.198597">
        <ele>1007.912</ele>
        <time>2020-08-28T10:22:23Z</time>
      </trkpt>
      <trkpt lat="40.416579" lon="-1.198493">
        <ele>1007.952</ele>
        <time>2020-08-28T10:22:25Z</time>
      </trkpt>
      <trkpt lat="40.416562" lon="-1.198379">
        <ele>1007.974</ele>
        <time>2020-08-28T10:22:27Z</time>
      </trkpt>
      <trkpt lat="40.416537" lon="-1.198267">
        <ele>1007.876</ele>
        <time>2020-08-28T10:22:29Z</time>
      </trkpt>
      <trkpt lat="40.416512" lon="-1.198155">
        <ele>1007.714</ele>
        <time>2020-08-28T10:22:31Z</time>
      </trkpt>
      <trkpt lat="40.416493" lon="-1.198092">
        <ele>1007.621</ele>
        <time>2020-08-28T10:22:32Z</time>
      </trkpt>
      <trkpt lat="40.416476" lon="-1.198034">
        <ele>1007.569</ele>
        <time>2020-08-28T10:22:33Z</time>
      </trkpt>
      <trkpt lat="40.416462" lon="-1.197977">
        <ele>1007.479</ele>
        <time>2020-08-28T10:22:34Z</time>
      </trkpt>
      <trkpt lat="40.416446" lon="-1.197918">
        <ele>1007.392</ele>
        <time>2020-08-28T10:22:35Z</time>
      </trkpt>
      <trkpt lat="40.416425" lon="-1.19786">
        <ele>1007.373</ele>
        <time>2020-08-28T10:22:36Z</time>
      </trkpt>
      <trkpt lat="40.416408" lon="-1.197802">
        <ele>1007.320</ele>
        <time>2020-08-28T10:22:37Z</time>
      </trkpt>
      <trkpt lat="40.41639" lon="-1.197739">
        <ele>1007.308</ele>
        <time>2020-08-28T10:22:38Z</time>
      </trkpt>
      <trkpt lat="40.41637" lon="-1.197685">
        <ele>1007.394</ele>
        <time>2020-08-28T10:22:39Z</time>
      </trkpt>
      <trkpt lat="40.416351" lon="-1.197626">
        <ele>1007.384</ele>
        <time>2020-08-28T10:22:40Z</time>
      </trkpt>
      <trkpt lat="40.416331" lon="-1.197569">
        <ele>1007.356</ele>
        <time>2020-08-28T10:22:41Z</time>
      </trkpt>
      <trkpt lat="40.416315" lon="-1.19751">
        <ele>1007.348</ele>
        <time>2020-08-28T10:22:42Z</time>
      </trkpt>
      <trkpt lat="40.416295" lon="-1.197454">
        <ele>1007.336</ele>
        <time>2020-08-28T10:22:43Z</time>
      </trkpt>
      <trkpt lat="40.416275" lon="-1.197396">
        <ele>1007.343</ele>
        <time>2020-08-28T10:22:44Z</time>
      </trkpt>
      <trkpt lat="40.416255" lon="-1.197338">
        <ele>1007.351</ele>
        <time>2020-08-28T10:22:45Z</time>
      </trkpt>
      <trkpt lat="40.416235" lon="-1.197279">
        <ele>1007.391</ele>
        <time>2020-08-28T10:22:46Z</time>
      </trkpt>
      <trkpt lat="40.416215" lon="-1.197222">
        <ele>1007.369</ele>
        <time>2020-08-28T10:22:47Z</time>
      </trkpt>
      <trkpt lat="40.416198" lon="-1.197159">
        <ele>1007.304</ele>
        <time>2020-08-28T10:22:48Z</time>
      </trkpt>
      <trkpt lat="40.41616" lon="-1.197044">
        <ele>1007.424</ele>
        <time>2020-08-28T10:22:50Z</time>
      </trkpt>
      <trkpt lat="40.416148" lon="-1.196986">
        <ele>1007.408</ele>
        <time>2020-08-28T10:22:51Z</time>
      </trkpt>
      <trkpt lat="40.416127" lon="-1.196925">
        <ele>1007.411</ele>
        <time>2020-08-28T10:22:52Z</time>
      </trkpt>
      <trkpt lat="40.416105" lon="-1.196862">
        <ele>1007.411</ele>
        <time>2020-08-28T10:22:53Z</time>
      </trkpt>
      <trkpt lat="40.416085" lon="-1.196805">
        <ele>1007.423</ele>
        <time>2020-08-28T10:22:54Z</time>
      </trkpt>
      <trkpt lat="40.41607" lon="-1.196746">
        <ele>1007.415</ele>
        <time>2020-08-28T10:22:55Z</time>
      </trkpt>
      <trkpt lat="40.416046" lon="-1.196685">
        <ele>1007.423</ele>
        <time>2020-08-28T10:22:56Z</time>
      </trkpt>
      <trkpt lat="40.416004" lon="-1.196578">
        <ele>1007.230</ele>
        <time>2020-08-28T10:22:58Z</time>
      </trkpt>
      <trkpt lat="40.415971" lon="-1.196465">
        <ele>1007.238</ele>
        <time>2020-08-28T10:23:00Z</time>
      </trkpt>
      <trkpt lat="40.415957" lon="-1.196408">
        <ele>1007.358</ele>
        <time>2020-08-28T10:23:01Z</time>
      </trkpt>
      <trkpt lat="40.415941" lon="-1.196351">
        <ele>1007.433</ele>
        <time>2020-08-28T10:23:02Z</time>
      </trkpt>
      <trkpt lat="40.415925" lon="-1.196295">
        <ele>1007.523</ele>
        <time>2020-08-28T10:23:03Z</time>
      </trkpt>
      <trkpt lat="40.415907" lon="-1.19624">
        <ele>1007.615</ele>
        <time>2020-08-28T10:23:04Z</time>
      </trkpt>
      <trkpt lat="40.415876" lon="-1.196128">
        <ele>1007.708</ele>
        <time>2020-08-28T10:23:06Z</time>
      </trkpt>
      <trkpt lat="40.415841" lon="-1.196016">
        <ele>1007.778</ele>
        <time>2020-08-28T10:23:08Z</time>
      </trkpt>
      <trkpt lat="40.415811" lon="-1.195908">
        <ele>1007.798</ele>
        <time>2020-08-28T10:23:10Z</time>
      </trkpt>
      <trkpt lat="40.415794" lon="-1.195846">
        <ele>1007.740</ele>
        <time>2020-08-28T10:23:11Z</time>
      </trkpt>
      <trkpt lat="40.415777" lon="-1.195786">
        <ele>1007.662</ele>
        <time>2020-08-28T10:23:12Z</time>
      </trkpt>
      <trkpt lat="40.415745" lon="-1.195678">
        <ele>1007.540</ele>
        <time>2020-08-28T10:23:14Z</time>
      </trkpt>
      <trkpt lat="40.415712" lon="-1.195572">
        <ele>1007.487</ele>
        <time>2020-08-28T10:23:16Z</time>
      </trkpt>
      <trkpt lat="40.415692" lon="-1.195518">
        <ele>1007.465</ele>
        <time>2020-08-28T10:23:17Z</time>
      </trkpt>
      <trkpt lat="40.415658" lon="-1.195408">
        <ele>1007.445</ele>
        <time>2020-08-28T10:23:19Z</time>
      </trkpt>
      <trkpt lat="40.415638" lon="-1.195353">
        <ele>1007.486</ele>
        <time>2020-08-28T10:23:20Z</time>
      </trkpt>
      <trkpt lat="40.41562" lon="-1.195299">
        <ele>1007.460</ele>
        <time>2020-08-28T10:23:21Z</time>
      </trkpt>
      <trkpt lat="40.415599" lon="-1.195241">
        <ele>1007.426</ele>
        <time>2020-08-28T10:23:22Z</time>
      </trkpt>
      <trkpt lat="40.415583" lon="-1.195186">
        <ele>1007.408</ele>
        <time>2020-08-28T10:23:23Z</time>
      </trkpt>
      <trkpt lat="40.415552" lon="-1.195087">
        <ele>1007.563</ele>
        <time>2020-08-28T10:23:25Z</time>
      </trkpt>
      <trkpt lat="40.415515" lon="-1.194988">
        <ele>1007.623</ele>
        <time>2020-08-28T10:23:27Z</time>
      </trkpt>
      <trkpt lat="40.415485" lon="-1.194883">
        <ele>1007.635</ele>
        <time>2020-08-28T10:23:29Z</time>
      </trkpt>
      <trkpt lat="40.415457" lon="-1.194778">
        <ele>1007.697</ele>
        <time>2020-08-28T10:23:31Z</time>
      </trkpt>
      <trkpt lat="40.415422" lon="-1.194685">
        <ele>1007.635</ele>
        <time>2020-08-28T10:23:33Z</time>
      </trkpt>
      <trkpt lat="40.41539" lon="-1.194582">
        <ele>1007.642</ele>
        <time>2020-08-28T10:23:35Z</time>
      </trkpt>
      <trkpt lat="40.415371" lon="-1.194528">
        <ele>1007.620</ele>
        <time>2020-08-28T10:23:36Z</time>
      </trkpt>
      <trkpt lat="40.415356" lon="-1.194472">
        <ele>1007.620</ele>
        <time>2020-08-28T10:23:37Z</time>
      </trkpt>
      <trkpt lat="40.415322" lon="-1.194363">
        <ele>1007.649</ele>
        <time>2020-08-28T10:23:39Z</time>
      </trkpt>
      <trkpt lat="40.415287" lon="-1.194263">
        <ele>1007.602</ele>
        <time>2020-08-28T10:23:41Z</time>
      </trkpt>
      <trkpt lat="40.415257" lon="-1.194165">
        <ele>1007.722</ele>
        <time>2020-08-28T10:23:43Z</time>
      </trkpt>
      <trkpt lat="40.415229" lon="-1.194061">
        <ele>1007.708</ele>
        <time>2020-08-28T10:23:45Z</time>
      </trkpt>
      <trkpt lat="40.415196" lon="-1.193964">
        <ele>1007.749</ele>
        <time>2020-08-28T10:23:47Z</time>
      </trkpt>
      <trkpt lat="40.415162" lon="-1.193859">
        <ele>1007.779</ele>
        <time>2020-08-28T10:23:49Z</time>
      </trkpt>
      <trkpt lat="40.415132" lon="-1.193756">
        <ele>1007.611</ele>
        <time>2020-08-28T10:23:51Z</time>
      </trkpt>
      <trkpt lat="40.415098" lon="-1.193648">
        <ele>1007.513</ele>
        <time>2020-08-28T10:23:53Z</time>
      </trkpt>
      <trkpt lat="40.415062" lon="-1.193544">
        <ele>1007.461</ele>
        <time>2020-08-28T10:23:55Z</time>
      </trkpt>
      <trkpt lat="40.415035" lon="-1.193444">
        <ele>1007.498</ele>
        <time>2020-08-28T10:23:57Z</time>
      </trkpt>
      <trkpt lat="40.415003" lon="-1.193344">
        <ele>1007.416</ele>
        <time>2020-08-28T10:23:59Z</time>
      </trkpt>
      <trkpt lat="40.414973" lon="-1.193251">
        <ele>1007.586</ele>
        <time>2020-08-28T10:24:01Z</time>
      </trkpt>
      <trkpt lat="40.414949" lon="-1.193171">
        <ele>1007.674</ele>
        <time>2020-08-28T10:24:03Z</time>
      </trkpt>
      <trkpt lat="40.41492" lon="-1.193084">
        <ele>1007.756</ele>
        <time>2020-08-28T10:24:05Z</time>
      </trkpt>
      <trkpt lat="40.414887" lon="-1.192997">
        <ele>1007.721</ele>
        <time>2020-08-28T10:24:07Z</time>
      </trkpt>
      <trkpt lat="40.41486" lon="-1.192902">
        <ele>1007.808</ele>
        <time>2020-08-28T10:24:09Z</time>
      </trkpt>
      <trkpt lat="40.414831" lon="-1.192812">
        <ele>1007.812</ele>
        <time>2020-08-28T10:24:11Z</time>
      </trkpt>
      <trkpt lat="40.414801" lon="-1.192724">
        <ele>1007.812</ele>
        <time>2020-08-28T10:24:13Z</time>
      </trkpt>
      <trkpt lat="40.414773" lon="-1.192638">
        <ele>1007.824</ele>
        <time>2020-08-28T10:24:15Z</time>
      </trkpt>
      <trkpt lat="40.414747" lon="-1.192554">
        <ele>1007.876</ele>
        <time>2020-08-28T10:24:17Z</time>
      </trkpt>
      <trkpt lat="40.414723" lon="-1.192494">
        <ele>1007.824</ele>
        <time>2020-08-28T10:24:19Z</time>
      </trkpt>
      <trkpt lat="40.414698" lon="-1.192422">
        <ele>1007.841</ele>
        <time>2020-08-28T10:24:22Z</time>
      </trkpt>
      <trkpt lat="40.414664" lon="-1.192375">
        <ele>1008.159</ele>
        <time>2020-08-28T10:25:33Z</time>
      </trkpt>
      <trkpt lat="40.414642" lon="-1.192303">
        <ele>1008.149</ele>
        <time>2020-08-28T10:25:36Z</time>
      </trkpt>
      <trkpt lat="40.414613" lon="-1.192224">
        <ele>1008.182</ele>
        <time>2020-08-28T10:25:39Z</time>
      </trkpt>
      <trkpt lat="40.414583" lon="-1.192144">
        <ele>1008.243</ele>
        <time>2020-08-28T10:25:42Z</time>
      </trkpt>
      <trkpt lat="40.414553" lon="-1.19208">
        <ele>1008.217</ele>
        <time>2020-08-28T10:25:44Z</time>
      </trkpt>
      <trkpt lat="40.414526" lon="-1.192009">
        <ele>1008.208</ele>
        <time>2020-08-28T10:25:46Z</time>
      </trkpt>
      <trkpt lat="40.414493" lon="-1.191934">
        <ele>1008.123</ele>
        <time>2020-08-28T10:25:48Z</time>
      </trkpt>
      <trkpt lat="40.414461" lon="-1.191856">
        <ele>1008.043</ele>
        <time>2020-08-28T10:25:50Z</time>
      </trkpt>
      <trkpt lat="40.414421" lon="-1.191781">
        <ele>1007.945</ele>
        <time>2020-08-28T10:25:52Z</time>
      </trkpt>
      <trkpt lat="40.414381" lon="-1.191697">
        <ele>1007.977</ele>
        <time>2020-08-28T10:25:54Z</time>
      </trkpt>
      <trkpt lat="40.414331" lon="-1.191614">
        <ele>1007.945</ele>
        <time>2020-08-28T10:25:56Z</time>
      </trkpt>
      <trkpt lat="40.414282" lon="-1.191532">
        <ele>1007.842</ele>
        <time>2020-08-28T10:25:58Z</time>
      </trkpt>
      <trkpt lat="40.414232" lon="-1.191444">
        <ele>1007.740</ele>
        <time>2020-08-28T10:26:00Z</time>
      </trkpt>
      <trkpt lat="40.414179" lon="-1.191355">
        <ele>1007.790</ele>
        <time>2020-08-28T10:26:02Z</time>
      </trkpt>
      <trkpt lat="40.414127" lon="-1.191278">
        <ele>1007.742</ele>
        <time>2020-08-28T10:26:04Z</time>
      </trkpt>
      <trkpt lat="40.414071" lon="-1.191195">
        <ele>1007.722</ele>
        <time>2020-08-28T10:26:06Z</time>
      </trkpt>
      <trkpt lat="40.414015" lon="-1.191118">
        <ele>1007.714</ele>
        <time>2020-08-28T10:26:08Z</time>
      </trkpt>
      <trkpt lat="40.413955" lon="-1.191043">
        <ele>1007.808</ele>
        <time>2020-08-28T10:26:10Z</time>
      </trkpt>
      <trkpt lat="40.413894" lon="-1.190967">
        <ele>1007.919</ele>
        <time>2020-08-28T10:26:12Z</time>
      </trkpt>
      <trkpt lat="40.413833" lon="-1.190888">
        <ele>1007.979</ele>
        <time>2020-08-28T10:26:14Z</time>
      </trkpt>
      <trkpt lat="40.413774" lon="-1.190815">
        <ele>1007.911</ele>
        <time>2020-08-28T10:26:16Z</time>
      </trkpt>
      <trkpt lat="40.41371" lon="-1.190742">
        <ele>1007.883</ele>
        <time>2020-08-28T10:26:18Z</time>
      </trkpt>
      <trkpt lat="40.413647" lon="-1.190665">
        <ele>1007.711</ele>
        <time>2020-08-28T10:26:20Z</time>
      </trkpt>
      <trkpt lat="40.413576" lon="-1.190589">
        <ele>1007.688</ele>
        <time>2020-08-28T10:26:22Z</time>
      </trkpt>
      <trkpt lat="40.41354" lon="-1.190549">
        <ele>1007.566</ele>
        <time>2020-08-28T10:26:23Z</time>
      </trkpt>
      <trkpt lat="40.4135" lon="-1.190506">
        <ele>1007.476</ele>
        <time>2020-08-28T10:26:24Z</time>
      </trkpt>
      <trkpt lat="40.413461" lon="-1.190467">
        <ele>1007.312</ele>
        <time>2020-08-28T10:26:25Z</time>
      </trkpt>
      <trkpt lat="40.413421" lon="-1.190422">
        <ele>1007.232</ele>
        <time>2020-08-28T10:26:26Z</time>
      </trkpt>
      <trkpt lat="40.413388" lon="-1.190381">
        <ele>1007.105</ele>
        <time>2020-08-28T10:26:27Z</time>
      </trkpt>
      <trkpt lat="40.41335" lon="-1.190342">
        <ele>1007.008</ele>
        <time>2020-08-28T10:26:28Z</time>
      </trkpt>
      <trkpt lat="40.413312" lon="-1.190304">
        <ele>1007.016</ele>
        <time>2020-08-28T10:26:29Z</time>
      </trkpt>
      <trkpt lat="40.41327" lon="-1.190267">
        <ele>1006.986</ele>
        <time>2020-08-28T10:26:30Z</time>
      </trkpt>
      <trkpt lat="40.413197" lon="-1.190191">
        <ele>1006.828</ele>
        <time>2020-08-28T10:26:32Z</time>
      </trkpt>
      <trkpt lat="40.413129" lon="-1.19012">
        <ele>1006.710</ele>
        <time>2020-08-28T10:26:34Z</time>
      </trkpt>
      <trkpt lat="40.413064" lon="-1.190046">
        <ele>1006.678</ele>
        <time>2020-08-28T10:26:36Z</time>
      </trkpt>
      <trkpt lat="40.413023" lon="-1.190011">
        <ele>1006.575</ele>
        <time>2020-08-28T10:26:37Z</time>
      </trkpt>
      <trkpt lat="40.412985" lon="-1.189968">
        <ele>1006.473</ele>
        <time>2020-08-28T10:26:38Z</time>
      </trkpt>
      <trkpt lat="40.412949" lon="-1.189929">
        <ele>1006.353</ele>
        <time>2020-08-28T10:26:39Z</time>
      </trkpt>
      <trkpt lat="40.412913" lon="-1.189889">
        <ele>1006.381</ele>
        <time>2020-08-28T10:26:40Z</time>
      </trkpt>
      <trkpt lat="40.412844" lon="-1.189822">
        <ele>1006.361</ele>
        <time>2020-08-28T10:26:42Z</time>
      </trkpt>
      <trkpt lat="40.412808" lon="-1.189782">
        <ele>1006.317</ele>
        <time>2020-08-28T10:26:43Z</time>
      </trkpt>
      <trkpt lat="40.412772" lon="-1.189743">
        <ele>1006.308</ele>
        <time>2020-08-28T10:26:44Z</time>
      </trkpt>
      <trkpt lat="40.412735" lon="-1.189706">
        <ele>1006.373</ele>
        <time>2020-08-28T10:26:45Z</time>
      </trkpt>
      <trkpt lat="40.412698" lon="-1.189666">
        <ele>1006.233</ele>
        <time>2020-08-28T10:26:46Z</time>
      </trkpt>
      <trkpt lat="40.412659" lon="-1.189625">
        <ele>1006.155</ele>
        <time>2020-08-28T10:26:47Z</time>
      </trkpt>
      <trkpt lat="40.41262" lon="-1.189584">
        <ele>1006.047</ele>
        <time>2020-08-28T10:26:48Z</time>
      </trkpt>
      <trkpt lat="40.412583" lon="-1.189541">
        <ele>1005.955</ele>
        <time>2020-08-28T10:26:49Z</time>
      </trkpt>
      <trkpt lat="40.412546" lon="-1.189503">
        <ele>1005.962</ele>
        <time>2020-08-28T10:26:50Z</time>
      </trkpt>
      <trkpt lat="40.412505" lon="-1.189468">
        <ele>1005.910</ele>
        <time>2020-08-28T10:26:51Z</time>
      </trkpt>
      <trkpt lat="40.41247" lon="-1.189428">
        <ele>1005.940</ele>
        <time>2020-08-28T10:26:52Z</time>
      </trkpt>
      <trkpt lat="40.412432" lon="-1.189388">
        <ele>1005.927</ele>
        <time>2020-08-28T10:26:53Z</time>
      </trkpt>
      <trkpt lat="40.412393" lon="-1.189344">
        <ele>1005.968</ele>
        <time>2020-08-28T10:26:54Z</time>
      </trkpt>
      <trkpt lat="40.412357" lon="-1.189303">
        <ele>1005.814</ele>
        <time>2020-08-28T10:26:55Z</time>
      </trkpt>
      <trkpt lat="40.412322" lon="-1.189261">
        <ele>1005.708</ele>
        <time>2020-08-28T10:26:56Z</time>
      </trkpt>
      <trkpt lat="40.412284" lon="-1.189223">
        <ele>1005.767</ele>
        <time>2020-08-28T10:26:57Z</time>
      </trkpt>
      <trkpt lat="40.412246" lon="-1.189183">
        <ele>1005.777</ele>
        <time>2020-08-28T10:26:58Z</time>
      </trkpt>
      <trkpt lat="40.412208" lon="-1.189144">
        <ele>1005.719</ele>
        <time>2020-08-28T10:26:59Z</time>
      </trkpt>
      <trkpt lat="40.412171" lon="-1.189102">
        <ele>1005.791</ele>
        <time>2020-08-28T10:27:00Z</time>
      </trkpt>
      <trkpt lat="40.412134" lon="-1.189062">
        <ele>1005.779</ele>
        <time>2020-08-28T10:27:01Z</time>
      </trkpt>
      <trkpt lat="40.412094" lon="-1.189021">
        <ele>1005.766</ele>
        <time>2020-08-28T10:27:02Z</time>
      </trkpt>
      <trkpt lat="40.412055" lon="-1.188976">
        <ele>1005.654</ele>
        <time>2020-08-28T10:27:03Z</time>
      </trkpt>
      <trkpt lat="40.41202" lon="-1.188936">
        <ele>1005.564</ele>
        <time>2020-08-28T10:27:04Z</time>
      </trkpt>
      <trkpt lat="40.411981" lon="-1.18889">
        <ele>1005.487</ele>
        <time>2020-08-28T10:27:05Z</time>
      </trkpt>
      <trkpt lat="40.411943" lon="-1.188853">
        <ele>1005.342</ele>
        <time>2020-08-28T10:27:06Z</time>
      </trkpt>
      <trkpt lat="40.411903" lon="-1.18882">
        <ele>1005.326</ele>
        <time>2020-08-28T10:27:07Z</time>
      </trkpt>
      <trkpt lat="40.411865" lon="-1.188777">
        <ele>1005.308</ele>
        <time>2020-08-28T10:27:08Z</time>
      </trkpt>
      <trkpt lat="40.411829" lon="-1.188739">
        <ele>1005.323</ele>
        <time>2020-08-28T10:27:09Z</time>
      </trkpt>
      <trkpt lat="40.411787" lon="-1.188706">
        <ele>1005.363</ele>
        <time>2020-08-28T10:27:10Z</time>
      </trkpt>
      <trkpt lat="40.411748" lon="-1.188673">
        <ele>1005.345</ele>
        <time>2020-08-28T10:27:11Z</time>
      </trkpt>
      <trkpt lat="40.411718" lon="-1.188625">
        <ele>1005.327</ele>
        <time>2020-08-28T10:27:12Z</time>
      </trkpt>
      <trkpt lat="40.411652" lon="-1.188561">
        <ele>1005.335</ele>
        <time>2020-08-28T10:27:14Z</time>
      </trkpt>
      <trkpt lat="40.411614" lon="-1.188529">
        <ele>1005.332</ele>
        <time>2020-08-28T10:27:15Z</time>
      </trkpt>
      <trkpt lat="40.411551" lon="-1.188464">
        <ele>1005.220</ele>
        <time>2020-08-28T10:27:17Z</time>
      </trkpt>
      <trkpt lat="40.411484" lon="-1.188396">
        <ele>1005.270</ele>
        <time>2020-08-28T10:27:19Z</time>
      </trkpt>
      <trkpt lat="40.411449" lon="-1.188356">
        <ele>1005.278</ele>
        <time>2020-08-28T10:27:20Z</time>
      </trkpt>
      <trkpt lat="40.411385" lon="-1.188284">
        <ele>1005.233</ele>
        <time>2020-08-28T10:27:22Z</time>
      </trkpt>
      <trkpt lat="40.411329" lon="-1.188223">
        <ele>1005.126</ele>
        <time>2020-08-28T10:27:24Z</time>
      </trkpt>
      <trkpt lat="40.411277" lon="-1.188164">
        <ele>1005.108</ele>
        <time>2020-08-28T10:27:26Z</time>
      </trkpt>
      <trkpt lat="40.411221" lon="-1.188103">
        <ele>1005.172</ele>
        <time>2020-08-28T10:27:28Z</time>
      </trkpt>
      <trkpt lat="40.411153" lon="-1.188041">
        <ele>1005.082</ele>
        <time>2020-08-28T10:27:30Z</time>
      </trkpt>
      <trkpt lat="40.411119" lon="-1.188">
        <ele>1005.074</ele>
        <time>2020-08-28T10:27:31Z</time>
      </trkpt>
      <trkpt lat="40.411084" lon="-1.18796">
        <ele>1005.046</ele>
        <time>2020-08-28T10:27:32Z</time>
      </trkpt>
      <trkpt lat="40.411049" lon="-1.187921">
        <ele>1005.074</ele>
        <time>2020-08-28T10:27:33Z</time>
      </trkpt>
      <trkpt lat="40.411015" lon="-1.187882">
        <ele>1005.051</ele>
        <time>2020-08-28T10:27:34Z</time>
      </trkpt>
      <trkpt lat="40.410979" lon="-1.187844">
        <ele>1005.059</ele>
        <time>2020-08-28T10:27:35Z</time>
      </trkpt>
      <trkpt lat="40.410941" lon="-1.187806">
        <ele>1005.079</ele>
        <time>2020-08-28T10:27:36Z</time>
      </trkpt>
      <trkpt lat="40.410902" lon="-1.18777">
        <ele>1005.097</ele>
        <time>2020-08-28T10:27:37Z</time>
      </trkpt>
      <trkpt lat="40.410835" lon="-1.187687">
        <ele>1005.023</ele>
        <time>2020-08-28T10:27:39Z</time>
      </trkpt>
      <trkpt lat="40.410799" lon="-1.187648">
        <ele>1005.025</ele>
        <time>2020-08-28T10:27:40Z</time>
      </trkpt>
      <trkpt lat="40.41076" lon="-1.187606">
        <ele>1005.008</ele>
        <time>2020-08-28T10:27:41Z</time>
      </trkpt>
      <trkpt lat="40.410723" lon="-1.187565">
        <ele>1005.044</ele>
        <time>2020-08-28T10:27:42Z</time>
      </trkpt>
      <trkpt lat="40.410687" lon="-1.187525">
        <ele>1005.064</ele>
        <time>2020-08-28T10:27:43Z</time>
      </trkpt>
      <trkpt lat="40.410651" lon="-1.187485">
        <ele>1005.026</ele>
        <time>2020-08-28T10:27:44Z</time>
      </trkpt>
      <trkpt lat="40.410615" lon="-1.187446">
        <ele>1005.098</ele>
        <time>2020-08-28T10:27:45Z</time>
      </trkpt>
      <trkpt lat="40.410577" lon="-1.187407">
        <ele>1005.036</ele>
        <time>2020-08-28T10:27:46Z</time>
      </trkpt>
      <trkpt lat="40.410541" lon="-1.187364">
        <ele>1005.073</ele>
        <time>2020-08-28T10:27:47Z</time>
      </trkpt>
      <trkpt lat="40.410504" lon="-1.187326">
        <ele>1005.071</ele>
        <time>2020-08-28T10:27:48Z</time>
      </trkpt>
      <trkpt lat="40.410466" lon="-1.187285">
        <ele>1005.031</ele>
        <time>2020-08-28T10:27:49Z</time>
      </trkpt>
      <trkpt lat="40.410429" lon="-1.187248">
        <ele>1005.094</ele>
        <time>2020-08-28T10:27:50Z</time>
      </trkpt>
      <trkpt lat="40.410393" lon="-1.187208">
        <ele>1005.057</ele>
        <time>2020-08-28T10:27:51Z</time>
      </trkpt>
      <trkpt lat="40.410353" lon="-1.187164">
        <ele>1005.022</ele>
        <time>2020-08-28T10:27:52Z</time>
      </trkpt>
      <trkpt lat="40.410319" lon="-1.187126">
        <ele>1005.008</ele>
        <time>2020-08-28T10:27:53Z</time>
      </trkpt>
      <trkpt lat="40.410282" lon="-1.187082">
        <ele>1005.074</ele>
        <time>2020-08-28T10:27:54Z</time>
      </trkpt>
      <trkpt lat="40.410249" lon="-1.187041">
        <ele>1005.034</ele>
        <time>2020-08-28T10:27:55Z</time>
      </trkpt>
      <trkpt lat="40.410209" lon="-1.187002">
        <ele>1005.096</ele>
        <time>2020-08-28T10:27:56Z</time>
      </trkpt>
      <trkpt lat="40.410171" lon="-1.186961">
        <ele>1005.098</ele>
        <time>2020-08-28T10:27:57Z</time>
      </trkpt>
      <trkpt lat="40.410137" lon="-1.186911">
        <ele>1005.086</ele>
        <time>2020-08-28T10:27:58Z</time>
      </trkpt>
      <trkpt lat="40.410103" lon="-1.186867">
        <ele>1005.083</ele>
        <time>2020-08-28T10:27:59Z</time>
      </trkpt>
      <trkpt lat="40.410065" lon="-1.186821">
        <ele>1005.071</ele>
        <time>2020-08-28T10:28:00Z</time>
      </trkpt>
      <trkpt lat="40.410025" lon="-1.186784">
        <ele>1004.931</ele>
        <time>2020-08-28T10:28:01Z</time>
      </trkpt>
      <trkpt lat="40.409986" lon="-1.18674">
        <ele>1004.879</ele>
        <time>2020-08-28T10:28:02Z</time>
      </trkpt>
      <trkpt lat="40.409948" lon="-1.186697">
        <ele>1004.705</ele>
        <time>2020-08-28T10:28:03Z</time>
      </trkpt>
      <trkpt lat="40.409906" lon="-1.186656">
        <ele>1004.625</ele>
        <time>2020-08-28T10:28:04Z</time>
      </trkpt>
      <trkpt lat="40.409864" lon="-1.186615">
        <ele>1004.508</ele>
        <time>2020-08-28T10:28:05Z</time>
      </trkpt>
      <trkpt lat="40.40982" lon="-1.186575">
        <ele>1004.562</ele>
        <time>2020-08-28T10:28:06Z</time>
      </trkpt>
      <trkpt lat="40.409778" lon="-1.186534">
        <ele>1004.542</ele>
        <time>2020-08-28T10:28:07Z</time>
      </trkpt>
      <trkpt lat="40.409736" lon="-1.186491">
        <ele>1004.474</ele>
        <time>2020-08-28T10:28:08Z</time>
      </trkpt>
      <trkpt lat="40.409696" lon="-1.186447">
        <ele>1004.416</ele>
        <time>2020-08-28T10:28:09Z</time>
      </trkpt>
      <trkpt lat="40.409656" lon="-1.186402">
        <ele>1004.414</ele>
        <time>2020-08-28T10:28:10Z</time>
      </trkpt>
      <trkpt lat="40.409615" lon="-1.18636">
        <ele>1004.491</ele>
        <time>2020-08-28T10:28:11Z</time>
      </trkpt>
      <trkpt lat="40.409572" lon="-1.186318">
        <ele>1004.489</ele>
        <time>2020-08-28T10:28:12Z</time>
      </trkpt>
      <trkpt lat="40.409528" lon="-1.186276">
        <ele>1004.499</ele>
        <time>2020-08-28T10:28:13Z</time>
      </trkpt>
      <trkpt lat="40.40949" lon="-1.186236">
        <ele>1004.422</ele>
        <time>2020-08-28T10:28:14Z</time>
      </trkpt>
      <trkpt lat="40.409451" lon="-1.186194">
        <ele>1004.462</ele>
        <time>2020-08-28T10:28:15Z</time>
      </trkpt>
      <trkpt lat="40.409409" lon="-1.18615">
        <ele>1004.408</ele>
        <time>2020-08-28T10:28:16Z</time>
      </trkpt>
      <trkpt lat="40.409369" lon="-1.186108">
        <ele>1004.408</ele>
        <time>2020-08-28T10:28:17Z</time>
      </trkpt>
      <trkpt lat="40.40933" lon="-1.186069">
        <ele>1004.357</ele>
        <time>2020-08-28T10:28:18Z</time>
      </trkpt>
      <trkpt lat="40.409289" lon="-1.186024">
        <ele>1004.327</ele>
        <time>2020-08-28T10:28:19Z</time>
      </trkpt>
      <trkpt lat="40.409248" lon="-1.185977">
        <ele>1004.299</ele>
        <time>2020-08-28T10:28:20Z</time>
      </trkpt>
      <trkpt lat="40.409209" lon="-1.185932">
        <ele>1004.111</ele>
        <time>2020-08-28T10:28:21Z</time>
      </trkpt>
      <trkpt lat="40.409169" lon="-1.18589">
        <ele>1004.119</ele>
        <time>2020-08-28T10:28:22Z</time>
      </trkpt>
      <trkpt lat="40.409128" lon="-1.185848">
        <ele>1004.186</ele>
        <time>2020-08-28T10:28:23Z</time>
      </trkpt>
      <trkpt lat="40.40909" lon="-1.185808">
        <ele>1004.094</ele>
        <time>2020-08-28T10:28:24Z</time>
      </trkpt>
      <trkpt lat="40.409048" lon="-1.185765">
        <ele>1004.014</ele>
        <time>2020-08-28T10:28:25Z</time>
      </trkpt>
      <trkpt lat="40.409007" lon="-1.185726">
        <ele>1004.014</ele>
        <time>2020-08-28T10:28:26Z</time>
      </trkpt>
      <trkpt lat="40.408966" lon="-1.185683">
        <ele>1004.054</ele>
        <time>2020-08-28T10:28:27Z</time>
      </trkpt>
      <trkpt lat="40.408926" lon="-1.18564">
        <ele>1004.009</ele>
        <time>2020-08-28T10:28:28Z</time>
      </trkpt>
      <trkpt lat="40.408887" lon="-1.185598">
        <ele>1004.008</ele>
        <time>2020-08-28T10:28:29Z</time>
      </trkpt>
      <trkpt lat="40.408849" lon="-1.185555">
        <ele>1004.016</ele>
        <time>2020-08-28T10:28:30Z</time>
      </trkpt>
      <trkpt lat="40.408808" lon="-1.185511">
        <ele>1004.056</ele>
        <time>2020-08-28T10:28:31Z</time>
      </trkpt>
      <trkpt lat="40.408766" lon="-1.185471">
        <ele>1004.088</ele>
        <time>2020-08-28T10:28:32Z</time>
      </trkpt>
      <trkpt lat="40.408728" lon="-1.185432">
        <ele>1004.060</ele>
        <time>2020-08-28T10:28:33Z</time>
      </trkpt>
      <trkpt lat="40.408689" lon="-1.18539">
        <ele>1004.048</ele>
        <time>2020-08-28T10:28:34Z</time>
      </trkpt>
      <trkpt lat="40.408645" lon="-1.185349">
        <ele>1004.075</ele>
        <time>2020-08-28T10:28:35Z</time>
      </trkpt>
      <trkpt lat="40.408607" lon="-1.18531">
        <ele>1004.033</ele>
        <time>2020-08-28T10:28:36Z</time>
      </trkpt>
      <trkpt lat="40.408565" lon="-1.185268">
        <ele>1003.963</ele>
        <time>2020-08-28T10:28:37Z</time>
      </trkpt>
      <trkpt lat="40.408527" lon="-1.185229">
        <ele>1003.992</ele>
        <time>2020-08-28T10:28:38Z</time>
      </trkpt>
      <trkpt lat="40.40849" lon="-1.18519">
        <ele>1003.873</ele>
        <time>2020-08-28T10:28:39Z</time>
      </trkpt>
      <trkpt lat="40.40845" lon="-1.18515">
        <ele>1003.820</ele>
        <time>2020-08-28T10:28:40Z</time>
      </trkpt>
      <trkpt lat="40.408411" lon="-1.185109">
        <ele>1003.808</ele>
        <time>2020-08-28T10:28:41Z</time>
      </trkpt>
      <trkpt lat="40.408372" lon="-1.185063">
        <ele>1003.834</ele>
        <time>2020-08-28T10:28:42Z</time>
      </trkpt>
      <trkpt lat="40.408332" lon="-1.18502">
        <ele>1003.844</ele>
        <time>2020-08-28T10:28:43Z</time>
      </trkpt>
      <trkpt lat="40.408287" lon="-1.184977">
        <ele>1003.896</ele>
        <time>2020-08-28T10:28:44Z</time>
      </trkpt>
      <trkpt lat="40.408248" lon="-1.184933">
        <ele>1003.738</ele>
        <time>2020-08-28T10:28:45Z</time>
      </trkpt>
      <trkpt lat="40.408206" lon="-1.18489">
        <ele>1003.636</ele>
        <time>2020-08-28T10:28:46Z</time>
      </trkpt>
      <trkpt lat="40.408166" lon="-1.184849">
        <ele>1003.673</ele>
        <time>2020-08-28T10:28:47Z</time>
      </trkpt>
      <trkpt lat="40.408125" lon="-1.184807">
        <ele>1003.661</ele>
        <time>2020-08-28T10:28:48Z</time>
      </trkpt>
      <trkpt lat="40.408083" lon="-1.184766">
        <ele>1003.611</ele>
        <time>2020-08-28T10:28:49Z</time>
      </trkpt>
      <trkpt lat="40.408043" lon="-1.184723">
        <ele>1003.667</ele>
        <time>2020-08-28T10:28:50Z</time>
      </trkpt>
      <trkpt lat="40.408002" lon="-1.184682">
        <ele>1003.681</ele>
        <time>2020-08-28T10:28:51Z</time>
      </trkpt>
      <trkpt lat="40.407959" lon="-1.184639">
        <ele>1003.619</ele>
        <time>2020-08-28T10:28:52Z</time>
      </trkpt>
      <trkpt lat="40.407919" lon="-1.184596">
        <ele>1003.608</ele>
        <time>2020-08-28T10:28:53Z</time>
      </trkpt>
      <trkpt lat="40.407878" lon="-1.18455">
        <ele>1003.671</ele>
        <time>2020-08-28T10:28:54Z</time>
      </trkpt>
      <trkpt lat="40.407837" lon="-1.184506">
        <ele>1003.611</ele>
        <time>2020-08-28T10:28:55Z</time>
      </trkpt>
      <trkpt lat="40.407797" lon="-1.18446">
        <ele>1003.663</ele>
        <time>2020-08-28T10:28:56Z</time>
      </trkpt>
      <trkpt lat="40.407757" lon="-1.184419">
        <ele>1003.655</ele>
        <time>2020-08-28T10:28:57Z</time>
      </trkpt>
      <trkpt lat="40.407718" lon="-1.184377">
        <ele>1003.623</ele>
        <time>2020-08-28T10:28:58Z</time>
      </trkpt>
      <trkpt lat="40.407677" lon="-1.184331">
        <ele>1003.530</ele>
        <time>2020-08-28T10:28:59Z</time>
      </trkpt>
      <trkpt lat="40.407637" lon="-1.184286">
        <ele>1003.538</ele>
        <time>2020-08-28T10:29:00Z</time>
      </trkpt>
      <trkpt lat="40.407599" lon="-1.184238">
        <ele>1003.598</ele>
        <time>2020-08-28T10:29:01Z</time>
      </trkpt>
      <trkpt lat="40.407562" lon="-1.184194">
        <ele>1003.591</ele>
        <time>2020-08-28T10:29:02Z</time>
      </trkpt>
      <trkpt lat="40.407525" lon="-1.18415">
        <ele>1003.581</ele>
        <time>2020-08-28T10:29:03Z</time>
      </trkpt>
      <trkpt lat="40.407488" lon="-1.184112">
        <ele>1003.519</ele>
        <time>2020-08-28T10:29:04Z</time>
      </trkpt>
      <trkpt lat="40.407449" lon="-1.184067">
        <ele>1003.508</ele>
        <time>2020-08-28T10:29:05Z</time>
      </trkpt>
      <trkpt lat="40.407409" lon="-1.184027">
        <ele>1003.594</ele>
        <time>2020-08-28T10:29:06Z</time>
      </trkpt>
      <trkpt lat="40.407367" lon="-1.18399">
        <ele>1003.524</ele>
        <time>2020-08-28T10:29:07Z</time>
      </trkpt>
      <trkpt lat="40.40733" lon="-1.183946">
        <ele>1003.566</ele>
        <time>2020-08-28T10:29:08Z</time>
      </trkpt>
      <trkpt lat="40.407287" lon="-1.183904">
        <ele>1003.528</ele>
        <time>2020-08-28T10:29:09Z</time>
      </trkpt>
      <trkpt lat="40.407248" lon="-1.183862">
        <ele>1003.536</ele>
        <time>2020-08-28T10:29:10Z</time>
      </trkpt>
      <trkpt lat="40.40721" lon="-1.18382">
        <ele>1003.543</ele>
        <time>2020-08-28T10:29:11Z</time>
      </trkpt>
      <trkpt lat="40.40717" lon="-1.18378">
        <ele>1003.531</ele>
        <time>2020-08-28T10:29:12Z</time>
      </trkpt>
      <trkpt lat="40.407127" lon="-1.183736">
        <ele>1003.491</ele>
        <time>2020-08-28T10:29:13Z</time>
      </trkpt>
      <trkpt lat="40.40709" lon="-1.183694">
        <ele>1003.476</ele>
        <time>2020-08-28T10:29:14Z</time>
      </trkpt>
      <trkpt lat="40.40705" lon="-1.183653">
        <ele>1003.490</ele>
        <time>2020-08-28T10:29:15Z</time>
      </trkpt>
      <trkpt lat="40.407006" lon="-1.183613">
        <ele>1003.419</ele>
        <time>2020-08-28T10:29:16Z</time>
      </trkpt>
      <trkpt lat="40.406968" lon="-1.183572">
        <ele>1003.408</ele>
        <time>2020-08-28T10:29:17Z</time>
      </trkpt>
      <trkpt lat="40.406928" lon="-1.183526">
        <ele>1003.432</ele>
        <time>2020-08-28T10:29:18Z</time>
      </trkpt>
      <trkpt lat="40.406888" lon="-1.183485">
        <ele>1003.442</ele>
        <time>2020-08-28T10:29:19Z</time>
      </trkpt>
      <trkpt lat="40.406847" lon="-1.183442">
        <ele>1003.474</ele>
        <time>2020-08-28T10:29:20Z</time>
      </trkpt>
      <trkpt lat="40.406808" lon="-1.1834">
        <ele>1003.426</ele>
        <time>2020-08-28T10:29:21Z</time>
      </trkpt>
      <trkpt lat="40.406771" lon="-1.183356">
        <ele>1003.454</ele>
        <time>2020-08-28T10:29:22Z</time>
      </trkpt>
      <trkpt lat="40.40673" lon="-1.183313">
        <ele>1003.451</ele>
        <time>2020-08-28T10:29:23Z</time>
      </trkpt>
      <trkpt lat="40.406687" lon="-1.183271">
        <ele>1003.459</ele>
        <time>2020-08-28T10:29:24Z</time>
      </trkpt>
      <trkpt lat="40.406646" lon="-1.183228">
        <ele>1003.379</ele>
        <time>2020-08-28T10:29:25Z</time>
      </trkpt>
      <trkpt lat="40.406603" lon="-1.183184">
        <ele>1003.382</ele>
        <time>2020-08-28T10:29:26Z</time>
      </trkpt>
      <trkpt lat="40.406564" lon="-1.183141">
        <ele>1003.343</ele>
        <time>2020-08-28T10:29:27Z</time>
      </trkpt>
      <trkpt lat="40.40652" lon="-1.183093">
        <ele>1003.317</ele>
        <time>2020-08-28T10:29:28Z</time>
      </trkpt>
      <trkpt lat="40.406475" lon="-1.183047">
        <ele>1003.308</ele>
        <time>2020-08-28T10:29:29Z</time>
      </trkpt>
      <trkpt lat="40.406432" lon="-1.183004">
        <ele>1003.313</ele>
        <time>2020-08-28T10:29:30Z</time>
      </trkpt>
      <trkpt lat="40.40639" lon="-1.182962">
        <ele>1003.323</ele>
        <time>2020-08-28T10:29:31Z</time>
      </trkpt>
      <trkpt lat="40.406347" lon="-1.182921">
        <ele>1003.375</ele>
        <time>2020-08-28T10:29:32Z</time>
      </trkpt>
      <trkpt lat="40.406307" lon="-1.182878">
        <ele>1003.267</ele>
        <time>2020-08-28T10:29:33Z</time>
      </trkpt>
      <trkpt lat="40.406264" lon="-1.182835">
        <ele>1003.245</ele>
        <time>2020-08-28T10:29:34Z</time>
      </trkpt>
      <trkpt lat="40.406225" lon="-1.182792">
        <ele>1003.222</ele>
        <time>2020-08-28T10:29:35Z</time>
      </trkpt>
      <trkpt lat="40.406183" lon="-1.182748">
        <ele>1003.240</ele>
        <time>2020-08-28T10:29:36Z</time>
      </trkpt>
      <trkpt lat="40.406141" lon="-1.182704">
        <ele>1003.250</ele>
        <time>2020-08-28T10:29:37Z</time>
      </trkpt>
      <trkpt lat="40.406098" lon="-1.182666">
        <ele>1003.292</ele>
        <time>2020-08-28T10:29:38Z</time>
      </trkpt>
      <trkpt lat="40.406056" lon="-1.182621">
        <ele>1003.273</ele>
        <time>2020-08-28T10:29:39Z</time>
      </trkpt>
      <trkpt lat="40.406015" lon="-1.182579">
        <ele>1003.220</ele>
        <time>2020-08-28T10:29:40Z</time>
      </trkpt>
      <trkpt lat="40.405973" lon="-1.182536">
        <ele>1003.208</ele>
        <time>2020-08-28T10:29:41Z</time>
      </trkpt>
      <trkpt lat="40.405933" lon="-1.182491">
        <ele>1003.284</ele>
        <time>2020-08-28T10:29:42Z</time>
      </trkpt>
      <trkpt lat="40.405894" lon="-1.182447">
        <ele>1003.214</ele>
        <time>2020-08-28T10:29:43Z</time>
      </trkpt>
      <trkpt lat="40.405853" lon="-1.182404">
        <ele>1003.276</ele>
        <time>2020-08-28T10:29:44Z</time>
      </trkpt>
      <trkpt lat="40.40581" lon="-1.182364">
        <ele>1003.228</ele>
        <time>2020-08-28T10:29:45Z</time>
      </trkpt>
      <trkpt lat="40.405769" lon="-1.18232">
        <ele>1003.246</ele>
        <time>2020-08-28T10:29:46Z</time>
      </trkpt>
      <trkpt lat="40.405729" lon="-1.182276">
        <ele>1003.293</ele>
        <time>2020-08-28T10:29:47Z</time>
      </trkpt>
      <trkpt lat="40.405689" lon="-1.18223">
        <ele>1003.221</ele>
        <time>2020-08-28T10:29:48Z</time>
      </trkpt>
      <trkpt lat="40.405648" lon="-1.182187">
        <ele>1003.221</ele>
        <time>2020-08-28T10:29:49Z</time>
      </trkpt>
      <trkpt lat="40.405609" lon="-1.182145">
        <ele>1003.219</ele>
        <time>2020-08-28T10:29:50Z</time>
      </trkpt>
      <trkpt lat="40.40557" lon="-1.182107">
        <ele>1003.209</ele>
        <time>2020-08-28T10:29:51Z</time>
      </trkpt>
      <trkpt lat="40.40553" lon="-1.182058">
        <ele>1003.219</ele>
        <time>2020-08-28T10:29:52Z</time>
      </trkpt>
      <trkpt lat="40.40549" lon="-1.182015">
        <ele>1003.208</ele>
        <time>2020-08-28T10:29:53Z</time>
      </trkpt>
      <trkpt lat="40.405448" lon="-1.181977">
        <ele>1003.286</ele>
        <time>2020-08-28T10:29:54Z</time>
      </trkpt>
      <trkpt lat="40.405406" lon="-1.18193">
        <ele>1003.226</ele>
        <time>2020-08-28T10:29:55Z</time>
      </trkpt>
      <trkpt lat="40.405364" lon="-1.18188">
        <ele>1003.298</ele>
        <time>2020-08-28T10:29:56Z</time>
      </trkpt>
      <trkpt lat="40.405323" lon="-1.181837">
        <ele>1003.210</ele>
        <time>2020-08-28T10:29:57Z</time>
      </trkpt>
      <trkpt lat="40.405282" lon="-1.181795">
        <ele>1003.218</ele>
        <time>2020-08-28T10:29:58Z</time>
      </trkpt>
      <trkpt lat="40.405239" lon="-1.181751">
        <ele>1003.275</ele>
        <time>2020-08-28T10:29:59Z</time>
      </trkpt>
      <trkpt lat="40.405197" lon="-1.181705">
        <ele>1003.273</ele>
        <time>2020-08-28T10:30:00Z</time>
      </trkpt>
      <trkpt lat="40.405159" lon="-1.181658">
        <ele>1003.173</ele>
        <time>2020-08-28T10:30:01Z</time>
      </trkpt>
      <trkpt lat="40.405118" lon="-1.181614">
        <ele>1003.187</ele>
        <time>2020-08-28T10:30:02Z</time>
      </trkpt>
      <trkpt lat="40.405078" lon="-1.181568">
        <ele>1003.042</ele>
        <time>2020-08-28T10:30:03Z</time>
      </trkpt>
      <trkpt lat="40.405039" lon="-1.181525">
        <ele>1003.026</ele>
        <time>2020-08-28T10:30:04Z</time>
      </trkpt>
      <trkpt lat="40.404998" lon="-1.18148">
        <ele>1003.008</ele>
        <time>2020-08-28T10:30:05Z</time>
      </trkpt>
      <trkpt lat="40.404954" lon="-1.181432">
        <ele>1003.073</ele>
        <time>2020-08-28T10:30:06Z</time>
      </trkpt>
      <trkpt lat="40.404913" lon="-1.181395">
        <ele>1003.063</ele>
        <time>2020-08-28T10:30:07Z</time>
      </trkpt>
      <trkpt lat="40.404871" lon="-1.181351">
        <ele>1003.015</ele>
        <time>2020-08-28T10:30:08Z</time>
      </trkpt>
      <trkpt lat="40.404827" lon="-1.181304">
        <ele>1002.917</ele>
        <time>2020-08-28T10:30:09Z</time>
      </trkpt>
      <trkpt lat="40.404786" lon="-1.181261">
        <ele>1002.945</ele>
        <time>2020-08-28T10:30:10Z</time>
      </trkpt>
      <trkpt lat="40.404746" lon="-1.181216">
        <ele>1002.872</ele>
        <time>2020-08-28T10:30:11Z</time>
      </trkpt>
      <trkpt lat="40.404707" lon="-1.181171">
        <ele>1002.730</ele>
        <time>2020-08-28T10:30:12Z</time>
      </trkpt>
      <trkpt lat="40.404667" lon="-1.181122">
        <ele>1002.680</ele>
        <time>2020-08-28T10:30:13Z</time>
      </trkpt>
      <trkpt lat="40.404628" lon="-1.181079">
        <ele>1002.643</ele>
        <time>2020-08-28T10:30:14Z</time>
      </trkpt>
      <trkpt lat="40.404587" lon="-1.181025">
        <ele>1002.564</ele>
        <time>2020-08-28T10:30:15Z</time>
      </trkpt>
      <trkpt lat="40.404553" lon="-1.180976">
        <ele>1002.410</ele>
        <time>2020-08-28T10:30:16Z</time>
      </trkpt>
      <trkpt lat="40.404512" lon="-1.180928">
        <ele>1002.308</ele>
        <time>2020-08-28T10:30:17Z</time>
      </trkpt>
      <trkpt lat="40.404475" lon="-1.180884">
        <ele>1002.339</ele>
        <time>2020-08-28T10:30:18Z</time>
      </trkpt>
      <trkpt lat="40.404438" lon="-1.180835">
        <ele>1002.359</ele>
        <time>2020-08-28T10:30:19Z</time>
      </trkpt>
      <trkpt lat="40.404401" lon="-1.180785">
        <ele>1002.381</ele>
        <time>2020-08-28T10:30:20Z</time>
      </trkpt>
      <trkpt lat="40.404366" lon="-1.180742">
        <ele>1002.363</ele>
        <time>2020-08-28T10:30:21Z</time>
      </trkpt>
      <trkpt lat="40.404331" lon="-1.180692">
        <ele>1002.391</ele>
        <time>2020-08-28T10:30:22Z</time>
      </trkpt>
      <trkpt lat="40.404295" lon="-1.180641">
        <ele>1002.338</ele>
        <time>2020-08-28T10:30:23Z</time>
      </trkpt>
      <trkpt lat="40.40426" lon="-1.180593">
        <ele>1002.346</ele>
        <time>2020-08-28T10:30:24Z</time>
      </trkpt>
      <trkpt lat="40.404224" lon="-1.180543">
        <ele>1002.396</ele>
        <time>2020-08-28T10:30:25Z</time>
      </trkpt>
      <trkpt lat="40.404192" lon="-1.180495">
        <ele>1002.379</ele>
        <time>2020-08-28T10:30:26Z</time>
      </trkpt>
      <trkpt lat="40.404157" lon="-1.180445">
        <ele>1002.305</ele>
        <time>2020-08-28T10:30:27Z</time>
      </trkpt>
      <trkpt lat="40.404124" lon="-1.180391">
        <ele>1002.325</ele>
        <time>2020-08-28T10:30:28Z</time>
      </trkpt>
      <trkpt lat="40.404089" lon="-1.180346">
        <ele>1002.308</ele>
        <time>2020-08-28T10:30:29Z</time>
      </trkpt>
      <trkpt lat="40.404056" lon="-1.180297">
        <ele>1002.392</ele>
        <time>2020-08-28T10:30:30Z</time>
      </trkpt>
      <trkpt lat="40.404024" lon="-1.180245">
        <ele>1002.392</ele>
        <time>2020-08-28T10:30:31Z</time>
      </trkpt>
      <trkpt lat="40.403994" lon="-1.180195">
        <ele>1002.394</ele>
        <time>2020-08-28T10:30:32Z</time>
      </trkpt>
      <trkpt lat="40.403967" lon="-1.180146">
        <ele>1002.326</ele>
        <time>2020-08-28T10:30:33Z</time>
      </trkpt>
      <trkpt lat="40.40394" lon="-1.180089">
        <ele>1002.364</ele>
        <time>2020-08-28T10:30:34Z</time>
      </trkpt>
      <trkpt lat="40.40391" lon="-1.180043">
        <ele>1002.371</ele>
        <time>2020-08-28T10:30:35Z</time>
      </trkpt>
      <trkpt lat="40.403882" lon="-1.179993">
        <ele>1002.359</ele>
        <time>2020-08-28T10:30:36Z</time>
      </trkpt>
      <trkpt lat="40.403858" lon="-1.17994">
        <ele>1002.329</ele>
        <time>2020-08-28T10:30:37Z</time>
      </trkpt>
      <trkpt lat="40.403836" lon="-1.179884">
        <ele>1002.388</ele>
        <time>2020-08-28T10:30:38Z</time>
      </trkpt>
      <trkpt lat="40.403815" lon="-1.179827">
        <ele>1002.324</ele>
        <time>2020-08-28T10:30:39Z</time>
      </trkpt>
      <trkpt lat="40.403785" lon="-1.179775">
        <ele>1002.326</ele>
        <time>2020-08-28T10:30:40Z</time>
      </trkpt>
      <trkpt lat="40.403755" lon="-1.179724">
        <ele>1002.308</ele>
        <time>2020-08-28T10:30:41Z</time>
      </trkpt>
      <trkpt lat="40.403708" lon="-1.179623">
        <ele>1002.333</ele>
        <time>2020-08-28T10:30:43Z</time>
      </trkpt>
      <trkpt lat="40.40367" lon="-1.179527">
        <ele>1002.573</ele>
        <time>2020-08-28T10:30:45Z</time>
      </trkpt>
      <trkpt lat="40.403633" lon="-1.179443">
        <ele>1002.735</ele>
        <time>2020-08-28T10:30:47Z</time>
      </trkpt>
      <trkpt lat="40.403595" lon="-1.179362">
        <ele>1003.057</ele>
        <time>2020-08-28T10:30:49Z</time>
      </trkpt>
      <trkpt lat="40.40356" lon="-1.179293">
        <ele>1003.415</ele>
        <time>2020-08-28T10:30:51Z</time>
      </trkpt>
      <trkpt lat="40.403529" lon="-1.179226">
        <ele>1003.922</ele>
        <time>2020-08-28T10:30:53Z</time>
      </trkpt>
      <trkpt lat="40.403498" lon="-1.179149">
        <ele>1004.640</ele>
        <time>2020-08-28T10:30:56Z</time>
      </trkpt>
      <trkpt lat="40.403475" lon="-1.17907">
        <ele>1005.110</ele>
        <time>2020-08-28T10:30:59Z</time>
      </trkpt>
      <trkpt lat="40.403441" lon="-1.179008">
        <ele>1005.747</ele>
        <time>2020-08-28T10:31:02Z</time>
      </trkpt>
      <trkpt lat="40.403416" lon="-1.178929">
        <ele>1006.229</ele>
        <time>2020-08-28T10:31:05Z</time>
      </trkpt>
      <trkpt lat="40.403388" lon="-1.178882">
        <ele>1006.521</ele>
        <time>2020-08-28T10:31:07Z</time>
      </trkpt>
      <trkpt lat="40.403377" lon="-1.178823">
        <ele>1006.908</ele>
        <time>2020-08-28T10:31:09Z</time>
      </trkpt>
      <trkpt lat="40.403352" lon="-1.178767">
        <ele>1007.369</ele>
        <time>2020-08-28T10:31:11Z</time>
      </trkpt>
      <trkpt lat="40.403323" lon="-1.178686">
        <ele>1007.879</ele>
        <time>2020-08-28T10:31:14Z</time>
      </trkpt>
      <trkpt lat="40.40331" lon="-1.178627">
        <ele>1008.111</ele>
        <time>2020-08-28T10:31:16Z</time>
      </trkpt>
      <trkpt lat="40.403288" lon="-1.178573">
        <ele>1008.463</ele>
        <time>2020-08-28T10:31:18Z</time>
      </trkpt>
      <trkpt lat="40.403265" lon="-1.17852">
        <ele>1008.671</ele>
        <time>2020-08-28T10:31:20Z</time>
      </trkpt>
      <trkpt lat="40.403248" lon="-1.178458">
        <ele>1008.828</ele>
        <time>2020-08-28T10:31:22Z</time>
      </trkpt>
      <trkpt lat="40.403222" lon="-1.178402">
        <ele>1009.116</ele>
        <time>2020-08-28T10:31:24Z</time>
      </trkpt>
      <trkpt lat="40.403204" lon="-1.178339">
        <ele>1009.386</ele>
        <time>2020-08-28T10:31:26Z</time>
      </trkpt>
      <trkpt lat="40.403186" lon="-1.178278">
        <ele>1009.555</ele>
        <time>2020-08-28T10:31:28Z</time>
      </trkpt>
      <trkpt lat="40.403169" lon="-1.178213">
        <ele>1009.607</ele>
        <time>2020-08-28T10:31:30Z</time>
      </trkpt>
      <trkpt lat="40.403142" lon="-1.178161">
        <ele>1009.717</ele>
        <time>2020-08-28T10:31:32Z</time>
      </trkpt>
      <trkpt lat="40.403115" lon="-1.178095">
        <ele>1009.808</ele>
        <time>2020-08-28T10:31:34Z</time>
      </trkpt>
      <trkpt lat="40.403093" lon="-1.178022">
        <ele>1009.940</ele>
        <time>2020-08-28T10:31:36Z</time>
      </trkpt>
      <trkpt lat="40.403063" lon="-1.177951">
        <ele>1010.070</ele>
        <time>2020-08-28T10:31:38Z</time>
      </trkpt>
      <trkpt lat="40.403028" lon="-1.177872">
        <ele>1010.022</ele>
        <time>2020-08-28T10:31:40Z</time>
      </trkpt>
      <trkpt lat="40.403005" lon="-1.17777">
        <ele>1010.074</ele>
        <time>2020-08-28T10:31:42Z</time>
      </trkpt>
      <trkpt lat="40.402963" lon="-1.177692">
        <ele>1009.852</ele>
        <time>2020-08-28T10:31:44Z</time>
      </trkpt>
      <trkpt lat="40.402925" lon="-1.177585">
        <ele>1009.639</ele>
        <time>2020-08-28T10:31:46Z</time>
      </trkpt>
      <trkpt lat="40.40291" lon="-1.177528">
        <ele>1009.437</ele>
        <time>2020-08-28T10:31:47Z</time>
      </trkpt>
      <trkpt lat="40.402892" lon="-1.177469">
        <ele>1009.297</ele>
        <time>2020-08-28T10:31:48Z</time>
      </trkpt>
      <trkpt lat="40.402873" lon="-1.177401">
        <ele>1009.068</ele>
        <time>2020-08-28T10:31:49Z</time>
      </trkpt>
      <trkpt lat="40.40284" lon="-1.177335">
        <ele>1008.742</ele>
        <time>2020-08-28T10:31:50Z</time>
      </trkpt>
      <trkpt lat="40.402813" lon="-1.177269">
        <ele>1008.426</ele>
        <time>2020-08-28T10:31:51Z</time>
      </trkpt>
      <trkpt lat="40.402794" lon="-1.1772">
        <ele>1008.108</ele>
        <time>2020-08-28T10:31:52Z</time>
      </trkpt>
      <trkpt lat="40.40277" lon="-1.177133">
        <ele>1007.881</ele>
        <time>2020-08-28T10:31:53Z</time>
      </trkpt>
      <trkpt lat="40.402744" lon="-1.177068">
        <ele>1007.431</ele>
        <time>2020-08-28T10:31:54Z</time>
      </trkpt>
      <trkpt lat="40.40272" lon="-1.176999">
        <ele>1007.043</ele>
        <time>2020-08-28T10:31:55Z</time>
      </trkpt>
      <trkpt lat="40.402707" lon="-1.176921">
        <ele>1006.585</ele>
        <time>2020-08-28T10:31:56Z</time>
      </trkpt>
      <trkpt lat="40.402671" lon="-1.176843">
        <ele>1006.083</ele>
        <time>2020-08-28T10:31:57Z</time>
      </trkpt>
      <trkpt lat="40.402638" lon="-1.176765">
        <ele>1005.580</ele>
        <time>2020-08-28T10:31:58Z</time>
      </trkpt>
      <trkpt lat="40.402603" lon="-1.17669">
        <ele>1005.058</ele>
        <time>2020-08-28T10:31:59Z</time>
      </trkpt>
      <trkpt lat="40.402575" lon="-1.176612">
        <ele>1004.518</ele>
        <time>2020-08-28T10:32:00Z</time>
      </trkpt>
      <trkpt lat="40.402552" lon="-1.176532">
        <ele>1004.014</ele>
        <time>2020-08-28T10:32:01Z</time>
      </trkpt>
      <trkpt lat="40.402521" lon="-1.176449">
        <ele>1003.554</ele>
        <time>2020-08-28T10:32:02Z</time>
      </trkpt>
      <trkpt lat="40.402486" lon="-1.176368">
        <ele>1003.009</ele>
        <time>2020-08-28T10:32:03Z</time>
      </trkpt>
      <trkpt lat="40.402446" lon="-1.176293">
        <ele>1001.908</ele>
        <time>2020-08-28T10:32:04Z</time>
      </trkpt>
      <trkpt lat="40.402413" lon="-1.176217">
        <ele>1001.476</ele>
        <time>2020-08-28T10:32:05Z</time>
      </trkpt>
      <trkpt lat="40.402378" lon="-1.176151">
        <ele>1001.016</ele>
        <time>2020-08-28T10:32:06Z</time>
      </trkpt>
      <trkpt lat="40.402339" lon="-1.176107">
        <ele>1000.628</ele>
        <time>2020-08-28T10:32:07Z</time>
      </trkpt>
      <trkpt lat="40.40231" lon="-1.176039">
        <ele>1000.390</ele>
        <time>2020-08-28T10:32:08Z</time>
      </trkpt>
      <trkpt lat="40.402296" lon="-1.175966">
        <ele>1000.128</ele>
        <time>2020-08-28T10:32:09Z</time>
      </trkpt>
      <trkpt lat="40.402282" lon="-1.175908">
        <ele>1000.125</ele>
        <time>2020-08-28T10:32:10Z</time>
      </trkpt>
      <trkpt lat="40.402244" lon="-1.175815">
        <ele>1000.293</ele>
        <time>2020-08-28T10:32:12Z</time>
      </trkpt>
      <trkpt lat="40.402208" lon="-1.175721">
        <ele>1000.533</ele>
        <time>2020-08-28T10:32:14Z</time>
      </trkpt>
      <trkpt lat="40.40218" lon="-1.17564">
        <ele>1000.677</ele>
        <time>2020-08-28T10:32:16Z</time>
      </trkpt>
      <trkpt lat="40.402142" lon="-1.175546">
        <ele>1000.861</ele>
        <time>2020-08-28T10:32:18Z</time>
      </trkpt>
      <trkpt lat="40.402103" lon="-1.175437">
        <ele>1000.827</ele>
        <time>2020-08-28T10:32:20Z</time>
      </trkpt>
      <trkpt lat="40.402069" lon="-1.175346">
        <ele>1000.708</ele>
        <time>2020-08-28T10:32:22Z</time>
      </trkpt>
      <trkpt lat="40.402032" lon="-1.175246">
        <ele>1000.772</ele>
        <time>2020-08-28T10:32:24Z</time>
      </trkpt>
      <trkpt lat="40.402014" lon="-1.175191">
        <ele>1000.792</ele>
        <time>2020-08-28T10:32:25Z</time>
      </trkpt>
      <trkpt lat="40.401976" lon="-1.175086">
        <ele>1000.754</ele>
        <time>2020-08-28T10:32:27Z</time>
      </trkpt>
      <trkpt lat="40.401962" lon="-1.175029">
        <ele>1000.746</ele>
        <time>2020-08-28T10:32:28Z</time>
      </trkpt>
      <trkpt lat="40.401921" lon="-1.174934">
        <ele>1000.734</ele>
        <time>2020-08-28T10:32:30Z</time>
      </trkpt>
      <trkpt lat="40.401888" lon="-1.174832">
        <ele>1000.781</ele>
        <time>2020-08-28T10:32:32Z</time>
      </trkpt>
      <trkpt lat="40.401854" lon="-1.174737">
        <ele>1000.739</ele>
        <time>2020-08-28T10:32:34Z</time>
      </trkpt>
      <trkpt lat="40.401822" lon="-1.174636">
        <ele>1000.799</ele>
        <time>2020-08-28T10:32:36Z</time>
      </trkpt>
      <trkpt lat="40.401789" lon="-1.174537">
        <ele>1000.775</ele>
        <time>2020-08-28T10:32:38Z</time>
      </trkpt>
      <trkpt lat="40.401758" lon="-1.174449">
        <ele>1000.728</ele>
        <time>2020-08-28T10:32:40Z</time>
      </trkpt>
      <trkpt lat="40.401722" lon="-1.17435">
        <ele>1000.720</ele>
        <time>2020-08-28T10:32:42Z</time>
      </trkpt>
      <trkpt lat="40.401701" lon="-1.174298">
        <ele>1000.708</ele>
        <time>2020-08-28T10:32:43Z</time>
      </trkpt>
      <trkpt lat="40.40167" lon="-1.174203">
        <ele>1000.672</ele>
        <time>2020-08-28T10:32:45Z</time>
      </trkpt>
      <trkpt lat="40.401635" lon="-1.174105">
        <ele>1000.672</ele>
        <time>2020-08-28T10:32:47Z</time>
      </trkpt>
      <trkpt lat="40.401599" lon="-1.174002">
        <ele>1000.634</ele>
        <time>2020-08-28T10:32:49Z</time>
      </trkpt>
      <trkpt lat="40.401562" lon="-1.173901">
        <ele>1000.536</ele>
        <time>2020-08-28T10:32:51Z</time>
      </trkpt>
      <trkpt lat="40.401524" lon="-1.173798">
        <ele>1000.594</ele>
        <time>2020-08-28T10:32:53Z</time>
      </trkpt>
      <trkpt lat="40.401488" lon="-1.173704">
        <ele>1000.531</ele>
        <time>2020-08-28T10:32:55Z</time>
      </trkpt>
      <trkpt lat="40.401455" lon="-1.173609">
        <ele>1000.589</ele>
        <time>2020-08-28T10:32:57Z</time>
      </trkpt>
      <trkpt lat="40.401419" lon="-1.173505">
        <ele>1000.439</ele>
        <time>2020-08-28T10:32:59Z</time>
      </trkpt>
      <trkpt lat="40.401387" lon="-1.173408">
        <ele>1000.428</ele>
        <time>2020-08-28T10:33:01Z</time>
      </trkpt>
      <trkpt lat="40.401349" lon="-1.17331">
        <ele>1000.389</ele>
        <time>2020-08-28T10:33:03Z</time>
      </trkpt>
      <trkpt lat="40.401302" lon="-1.173212">
        <ele>1000.317</ele>
        <time>2020-08-28T10:33:05Z</time>
      </trkpt>
      <trkpt lat="40.401268" lon="-1.173109">
        <ele>1000.308</ele>
        <time>2020-08-28T10:33:07Z</time>
      </trkpt>
      <trkpt lat="40.401247" lon="-1.173056">
        <ele>1000.327</ele>
        <time>2020-08-28T10:33:08Z</time>
      </trkpt>
      <trkpt lat="40.401228" lon="-1.173001">
        <ele>1000.377</ele>
        <time>2020-08-28T10:33:09Z</time>
      </trkpt>
      <trkpt lat="40.401212" lon="-1.172945">
        <ele>1000.379</ele>
        <time>2020-08-28T10:33:10Z</time>
      </trkpt>
      <trkpt lat="40.401174" lon="-1.172841">
        <ele>1000.331</ele>
        <time>2020-08-28T10:33:12Z</time>
      </trkpt>
      <trkpt lat="40.401155" lon="-1.172786">
        <ele>1000.339</ele>
        <time>2020-08-28T10:33:13Z</time>
      </trkpt>
      <trkpt lat="40.401122" lon="-1.172685">
        <ele>1000.286</ele>
        <time>2020-08-28T10:33:15Z</time>
      </trkpt>
      <trkpt lat="40.401092" lon="-1.172581">
        <ele>1000.234</ele>
        <time>2020-08-28T10:33:17Z</time>
      </trkpt>
      <trkpt lat="40.401059" lon="-1.172484">
        <ele>1000.234</ele>
        <time>2020-08-28T10:33:19Z</time>
      </trkpt>
      <trkpt lat="40.401024" lon="-1.172377">
        <ele>1000.238</ele>
        <time>2020-08-28T10:33:21Z</time>
      </trkpt>
      <trkpt lat="40.400992" lon="-1.172274">
        <ele>1000.370</ele>
        <time>2020-08-28T10:33:23Z</time>
      </trkpt>
      <trkpt lat="40.400956" lon="-1.172179">
        <ele>1000.317</ele>
        <time>2020-08-28T10:33:25Z</time>
      </trkpt>
      <trkpt lat="40.400924" lon="-1.172087">
        <ele>1000.208</ele>
        <time>2020-08-28T10:33:27Z</time>
      </trkpt>
      <trkpt lat="40.40089" lon="-1.171991">
        <ele>1000.148</ele>
        <time>2020-08-28T10:33:29Z</time>
      </trkpt>
      <trkpt lat="40.400858" lon="-1.171892">
        <ele>1000.188</ele>
        <time>2020-08-28T10:33:31Z</time>
      </trkpt>
      <trkpt lat="40.400821" lon="-1.171787">
        <ele>1000.170</ele>
        <time>2020-08-28T10:33:33Z</time>
      </trkpt>
      <trkpt lat="40.400785" lon="-1.171683">
        <ele>1000.052</ele>
        <time>2020-08-28T10:33:35Z</time>
      </trkpt>
      <trkpt lat="40.400748" lon="-1.171583">
        <ele>999.910</ele>
        <time>2020-08-28T10:33:37Z</time>
      </trkpt>
      <trkpt lat="40.400712" lon="-1.17148">
        <ele>999.847</ele>
        <time>2020-08-28T10:33:39Z</time>
      </trkpt>
      <trkpt lat="40.400674" lon="-1.171382">
        <ele>999.795</ele>
        <time>2020-08-28T10:33:41Z</time>
      </trkpt>
      <trkpt lat="40.400638" lon="-1.171277">
        <ele>999.665</ele>
        <time>2020-08-28T10:33:43Z</time>
      </trkpt>
      <trkpt lat="40.400617" lon="-1.171223">
        <ele>999.657</ele>
        <time>2020-08-28T10:33:44Z</time>
      </trkpt>
      <trkpt lat="40.400581" lon="-1.171114">
        <ele>999.500</ele>
        <time>2020-08-28T10:33:46Z</time>
      </trkpt>
      <trkpt lat="40.400543" lon="-1.171014">
        <ele>999.520</ele>
        <time>2020-08-28T10:33:48Z</time>
      </trkpt>
      <trkpt lat="40.400506" lon="-1.170916">
        <ele>999.508</ele>
        <time>2020-08-28T10:33:50Z</time>
      </trkpt>
      <trkpt lat="40.400474" lon="-1.170807">
        <ele>999.540</ele>
        <time>2020-08-28T10:33:52Z</time>
      </trkpt>
      <trkpt lat="40.400436" lon="-1.170703">
        <ele>999.530</ele>
        <time>2020-08-28T10:33:54Z</time>
      </trkpt>
      <trkpt lat="40.400397" lon="-1.170596">
        <ele>999.482</ele>
        <time>2020-08-28T10:33:56Z</time>
      </trkpt>
      <trkpt lat="40.40036" lon="-1.170497">
        <ele>999.424</ele>
        <time>2020-08-28T10:33:58Z</time>
      </trkpt>
      <trkpt lat="40.400326" lon="-1.170393">
        <ele>999.432</ele>
        <time>2020-08-28T10:34:00Z</time>
      </trkpt>
      <trkpt lat="40.400286" lon="-1.170296">
        <ele>999.499</ele>
        <time>2020-08-28T10:34:02Z</time>
      </trkpt>
      <trkpt lat="40.400267" lon="-1.170242">
        <ele>999.487</ele>
        <time>2020-08-28T10:34:03Z</time>
      </trkpt>
      <trkpt lat="40.40023" lon="-1.17014">
        <ele>999.487</ele>
        <time>2020-08-28T10:34:05Z</time>
      </trkpt>
      <trkpt lat="40.400212" lon="-1.170082">
        <ele>999.396</ele>
        <time>2020-08-28T10:34:06Z</time>
      </trkpt>
      <trkpt lat="40.400175" lon="-1.169981">
        <ele>999.131</ele>
        <time>2020-08-28T10:34:08Z</time>
      </trkpt>
      <trkpt lat="40.400157" lon="-1.169927">
        <ele>999.124</ele>
        <time>2020-08-28T10:34:09Z</time>
      </trkpt>
      <trkpt lat="40.400137" lon="-1.169874">
        <ele>999.108</ele>
        <time>2020-08-28T10:34:10Z</time>
      </trkpt>
      <trkpt lat="40.400118" lon="-1.16982">
        <ele>999.194</ele>
        <time>2020-08-28T10:34:11Z</time>
      </trkpt>
      <trkpt lat="40.400079" lon="-1.169714">
        <ele>999.194</ele>
        <time>2020-08-28T10:34:13Z</time>
      </trkpt>
      <trkpt lat="40.400044" lon="-1.16961">
        <ele>999.156</ele>
        <time>2020-08-28T10:34:15Z</time>
      </trkpt>
      <trkpt lat="40.400008" lon="-1.16951">
        <ele>999.038</ele>
        <time>2020-08-28T10:34:17Z</time>
      </trkpt>
      <trkpt lat="40.399968" lon="-1.169407">
        <ele>999.046</ele>
        <time>2020-08-28T10:34:19Z</time>
      </trkpt>
      <trkpt lat="40.399951" lon="-1.169351">
        <ele>999.073</ele>
        <time>2020-08-28T10:34:20Z</time>
      </trkpt>
      <trkpt lat="40.399913" lon="-1.16925">
        <ele>999.091</ele>
        <time>2020-08-28T10:34:22Z</time>
      </trkpt>
      <trkpt lat="40.399876" lon="-1.169142">
        <ele>999.041</ele>
        <time>2020-08-28T10:34:24Z</time>
      </trkpt>
      <trkpt lat="40.399838" lon="-1.169036">
        <ele>998.963</ele>
        <time>2020-08-28T10:34:26Z</time>
      </trkpt>
      <trkpt lat="40.399817" lon="-1.16898">
        <ele>998.944</ele>
        <time>2020-08-28T10:34:27Z</time>
      </trkpt>
      <trkpt lat="40.399781" lon="-1.168873">
        <ele>998.818</ele>
        <time>2020-08-28T10:34:29Z</time>
      </trkpt>
      <trkpt lat="40.399745" lon="-1.168766">
        <ele>998.808</ele>
        <time>2020-08-28T10:34:31Z</time>
      </trkpt>
      <trkpt lat="40.399707" lon="-1.168658">
        <ele>998.891</ele>
        <time>2020-08-28T10:34:33Z</time>
      </trkpt>
      <trkpt lat="40.399688" lon="-1.168604">
        <ele>998.851</ele>
        <time>2020-08-28T10:34:34Z</time>
      </trkpt>
      <trkpt lat="40.399669" lon="-1.168549">
        <ele>998.813</ele>
        <time>2020-08-28T10:34:35Z</time>
      </trkpt>
      <trkpt lat="40.399652" lon="-1.168493">
        <ele>998.895</ele>
        <time>2020-08-28T10:34:36Z</time>
      </trkpt>
      <trkpt lat="40.399611" lon="-1.16839">
        <ele>998.893</ele>
        <time>2020-08-28T10:34:38Z</time>
      </trkpt>
      <trkpt lat="40.399593" lon="-1.168333">
        <ele>998.810</ele>
        <time>2020-08-28T10:34:39Z</time>
      </trkpt>
      <trkpt lat="40.399559" lon="-1.168224">
        <ele>998.788</ele>
        <time>2020-08-28T10:34:41Z</time>
      </trkpt>
      <trkpt lat="40.399521" lon="-1.168117">
        <ele>998.598</ele>
        <time>2020-08-28T10:34:43Z</time>
      </trkpt>
      <trkpt lat="40.3995" lon="-1.168061">
        <ele>998.427</ele>
        <time>2020-08-28T10:34:44Z</time>
      </trkpt>
      <trkpt lat="40.39948" lon="-1.168003">
        <ele>998.368</ele>
        <time>2020-08-28T10:34:45Z</time>
      </trkpt>
      <trkpt lat="40.399461" lon="-1.167945">
        <ele>998.214</ele>
        <time>2020-08-28T10:34:46Z</time>
      </trkpt>
      <trkpt lat="40.399424" lon="-1.167844">
        <ele>998.108</ele>
        <time>2020-08-28T10:34:48Z</time>
      </trkpt>
      <trkpt lat="40.399385" lon="-1.167743">
        <ele>998.117</ele>
        <time>2020-08-28T10:34:50Z</time>
      </trkpt>
      <trkpt lat="40.399368" lon="-1.167688">
        <ele>998.127</ele>
        <time>2020-08-28T10:34:51Z</time>
      </trkpt>
      <trkpt lat="40.399333" lon="-1.167581">
        <ele>998.179</ele>
        <time>2020-08-28T10:34:53Z</time>
      </trkpt>
      <trkpt lat="40.399312" lon="-1.167527">
        <ele>998.171</ele>
        <time>2020-08-28T10:34:54Z</time>
      </trkpt>
      <trkpt lat="40.399292" lon="-1.167469">
        <ele>998.159</ele>
        <time>2020-08-28T10:34:55Z</time>
      </trkpt>
      <trkpt lat="40.399272" lon="-1.167413">
        <ele>998.076</ele>
        <time>2020-08-28T10:34:56Z</time>
      </trkpt>
      <trkpt lat="40.399233" lon="-1.167304">
        <ele>997.914</ele>
        <time>2020-08-28T10:34:58Z</time>
      </trkpt>
      <trkpt lat="40.399191" lon="-1.167203">
        <ele>997.894</ele>
        <time>2020-08-28T10:35:00Z</time>
      </trkpt>
      <trkpt lat="40.399172" lon="-1.167145">
        <ele>997.895</ele>
        <time>2020-08-28T10:35:01Z</time>
      </trkpt>
      <trkpt lat="40.399153" lon="-1.16709">
        <ele>997.849</ele>
        <time>2020-08-28T10:35:02Z</time>
      </trkpt>
      <trkpt lat="40.399134" lon="-1.167036">
        <ele>997.823</ele>
        <time>2020-08-28T10:35:03Z</time>
      </trkpt>
      <trkpt lat="40.399117" lon="-1.16698">
        <ele>997.808</ele>
        <time>2020-08-28T10:35:04Z</time>
      </trkpt>
      <trkpt lat="40.399098" lon="-1.166926">
        <ele>997.844</ele>
        <time>2020-08-28T10:35:05Z</time>
      </trkpt>
      <trkpt lat="40.399077" lon="-1.166871">
        <ele>997.834</ele>
        <time>2020-08-28T10:35:06Z</time>
      </trkpt>
      <trkpt lat="40.399058" lon="-1.166815">
        <ele>997.816</ele>
        <time>2020-08-28T10:35:07Z</time>
      </trkpt>
      <trkpt lat="40.399038" lon="-1.166759">
        <ele>997.848</ele>
        <time>2020-08-28T10:35:08Z</time>
      </trkpt>
      <trkpt lat="40.399019" lon="-1.166705">
        <ele>997.876</ele>
        <time>2020-08-28T10:35:09Z</time>
      </trkpt>
      <trkpt lat="40.398998" lon="-1.166646">
        <ele>997.813</ele>
        <time>2020-08-28T10:35:10Z</time>
      </trkpt>
      <trkpt lat="40.398963" lon="-1.166541">
        <ele>997.781</ele>
        <time>2020-08-28T10:35:12Z</time>
      </trkpt>
      <trkpt lat="40.398945" lon="-1.166483">
        <ele>997.791</ele>
        <time>2020-08-28T10:35:13Z</time>
      </trkpt>
      <trkpt lat="40.398926" lon="-1.166427">
        <ele>997.711</ele>
        <time>2020-08-28T10:35:14Z</time>
      </trkpt>
      <trkpt lat="40.398903" lon="-1.166373">
        <ele>997.721</ele>
        <time>2020-08-28T10:35:15Z</time>
      </trkpt>
      <trkpt lat="40.398884" lon="-1.166316">
        <ele>997.703</ele>
        <time>2020-08-28T10:35:16Z</time>
      </trkpt>
      <trkpt lat="40.398866" lon="-1.16626">
        <ele>997.708</ele>
        <time>2020-08-28T10:35:17Z</time>
      </trkpt>
      <trkpt lat="40.398847" lon="-1.166206">
        <ele>997.746</ele>
        <time>2020-08-28T10:35:18Z</time>
      </trkpt>
      <trkpt lat="40.398828" lon="-1.166153">
        <ele>997.786</ele>
        <time>2020-08-28T10:35:19Z</time>
      </trkpt>
      <trkpt lat="40.398806" lon="-1.166097">
        <ele>997.718</ele>
        <time>2020-08-28T10:35:20Z</time>
      </trkpt>
      <trkpt lat="40.398788" lon="-1.166041">
        <ele>997.740</ele>
        <time>2020-08-28T10:35:21Z</time>
      </trkpt>
      <trkpt lat="40.39877" lon="-1.165986">
        <ele>997.758</ele>
        <time>2020-08-28T10:35:22Z</time>
      </trkpt>
      <trkpt lat="40.398752" lon="-1.165929">
        <ele>997.765</ele>
        <time>2020-08-28T10:35:23Z</time>
      </trkpt>
      <trkpt lat="40.398732" lon="-1.165874">
        <ele>997.733</ele>
        <time>2020-08-28T10:35:24Z</time>
      </trkpt>
      <trkpt lat="40.398696" lon="-1.165766">
        <ele>997.753</ele>
        <time>2020-08-28T10:35:26Z</time>
      </trkpt>
      <trkpt lat="40.398677" lon="-1.165712">
        <ele>997.718</ele>
        <time>2020-08-28T10:35:27Z</time>
      </trkpt>
      <trkpt lat="40.398639" lon="-1.16561">
        <ele>997.798</ele>
        <time>2020-08-28T10:35:29Z</time>
      </trkpt>
      <trkpt lat="40.398621" lon="-1.165556">
        <ele>997.717</ele>
        <time>2020-08-28T10:35:30Z</time>
      </trkpt>
      <trkpt lat="40.398582" lon="-1.165451">
        <ele>997.708</ele>
        <time>2020-08-28T10:35:32Z</time>
      </trkpt>
      <trkpt lat="40.398562" lon="-1.165394">
        <ele>997.726</ele>
        <time>2020-08-28T10:35:33Z</time>
      </trkpt>
      <trkpt lat="40.398522" lon="-1.16529">
        <ele>997.736</ele>
        <time>2020-08-28T10:35:35Z</time>
      </trkpt>
      <trkpt lat="40.398485" lon="-1.165184">
        <ele>997.768</ele>
        <time>2020-08-28T10:35:37Z</time>
      </trkpt>
      <trkpt lat="40.398468" lon="-1.165128">
        <ele>997.740</ele>
        <time>2020-08-28T10:35:38Z</time>
      </trkpt>
      <trkpt lat="40.398431" lon="-1.16502">
        <ele>997.748</ele>
        <time>2020-08-28T10:35:40Z</time>
      </trkpt>
      <trkpt lat="40.3984" lon="-1.164935">
        <ele>997.775</ele>
        <time>2020-08-28T10:35:42Z</time>
      </trkpt>
      <trkpt lat="40.398362" lon="-1.16483">
        <ele>997.773</ele>
        <time>2020-08-28T10:35:44Z</time>
      </trkpt>
      <trkpt lat="40.398341" lon="-1.164773">
        <ele>997.783</ele>
        <time>2020-08-28T10:35:45Z</time>
      </trkpt>
      <trkpt lat="40.398321" lon="-1.164715">
        <ele>997.725</ele>
        <time>2020-08-28T10:35:46Z</time>
      </trkpt>
      <trkpt lat="40.398299" lon="-1.164661">
        <ele>997.726</ele>
        <time>2020-08-28T10:35:47Z</time>
      </trkpt>
      <trkpt lat="40.398281" lon="-1.164605">
        <ele>997.708</ele>
        <time>2020-08-28T10:35:48Z</time>
      </trkpt>
      <trkpt lat="40.398261" lon="-1.164552">
        <ele>997.708</ele>
        <time>2020-08-28T10:35:49Z</time>
      </trkpt>
      <trkpt lat="40.398241" lon="-1.164496">
        <ele>997.747</ele>
        <time>2020-08-28T10:35:50Z</time>
      </trkpt>
      <trkpt lat="40.398222" lon="-1.164442">
        <ele>997.787</ele>
        <time>2020-08-28T10:35:51Z</time>
      </trkpt>
      <trkpt lat="40.398203" lon="-1.164385">
        <ele>997.749</ele>
        <time>2020-08-28T10:35:52Z</time>
      </trkpt>
      <trkpt lat="40.398165" lon="-1.164279">
        <ele>997.811</ele>
        <time>2020-08-28T10:35:54Z</time>
      </trkpt>
      <trkpt lat="40.398145" lon="-1.164221">
        <ele>997.869</ele>
        <time>2020-08-28T10:35:55Z</time>
      </trkpt>
      <trkpt lat="40.398127" lon="-1.164162">
        <ele>997.866</ele>
        <time>2020-08-28T10:35:56Z</time>
      </trkpt>
      <trkpt lat="40.39809" lon="-1.164059">
        <ele>997.774</ele>
        <time>2020-08-28T10:35:58Z</time>
      </trkpt>
      <trkpt lat="40.398069" lon="-1.164001">
        <ele>997.744</ele>
        <time>2020-08-28T10:35:59Z</time>
      </trkpt>
      <trkpt lat="40.398029" lon="-1.163895">
        <ele>997.747</ele>
        <time>2020-08-28T10:36:01Z</time>
      </trkpt>
      <trkpt lat="40.397994" lon="-1.163793">
        <ele>997.729</ele>
        <time>2020-08-28T10:36:03Z</time>
      </trkpt>
      <trkpt lat="40.397959" lon="-1.163688">
        <ele>997.621</ele>
        <time>2020-08-28T10:36:05Z</time>
      </trkpt>
      <trkpt lat="40.397923" lon="-1.16358">
        <ele>997.608</ele>
        <time>2020-08-28T10:36:07Z</time>
      </trkpt>
      <trkpt lat="40.397904" lon="-1.163527">
        <ele>997.639</ele>
        <time>2020-08-28T10:36:08Z</time>
      </trkpt>
      <trkpt lat="40.397864" lon="-1.163423">
        <ele>997.639</ele>
        <time>2020-08-28T10:36:10Z</time>
      </trkpt>
      <trkpt lat="40.397847" lon="-1.163365">
        <ele>997.671</ele>
        <time>2020-08-28T10:36:11Z</time>
      </trkpt>
      <trkpt lat="40.397808" lon="-1.163256">
        <ele>997.613</ele>
        <time>2020-08-28T10:36:13Z</time>
      </trkpt>
      <trkpt lat="40.397768" lon="-1.163154">
        <ele>997.671</ele>
        <time>2020-08-28T10:36:15Z</time>
      </trkpt>
      <trkpt lat="40.397747" lon="-1.163101">
        <ele>997.618</ele>
        <time>2020-08-28T10:36:16Z</time>
      </trkpt>
      <trkpt lat="40.397709" lon="-1.162997">
        <ele>997.536</ele>
        <time>2020-08-28T10:36:18Z</time>
      </trkpt>
      <trkpt lat="40.397671" lon="-1.162892">
        <ele>997.586</ele>
        <time>2020-08-28T10:36:20Z</time>
      </trkpt>
      <trkpt lat="40.397634" lon="-1.162787">
        <ele>997.574</ele>
        <time>2020-08-28T10:36:22Z</time>
      </trkpt>
      <trkpt lat="40.397599" lon="-1.162684">
        <ele>997.556</ele>
        <time>2020-08-28T10:36:24Z</time>
      </trkpt>
      <trkpt lat="40.397563" lon="-1.16258">
        <ele>997.421</ele>
        <time>2020-08-28T10:36:26Z</time>
      </trkpt>
      <trkpt lat="40.397524" lon="-1.162473">
        <ele>997.408</ele>
        <time>2020-08-28T10:36:28Z</time>
      </trkpt>
      <trkpt lat="40.397492" lon="-1.162368">
        <ele>997.442</ele>
        <time>2020-08-28T10:36:30Z</time>
      </trkpt>
      <trkpt lat="40.397453" lon="-1.162264">
        <ele>997.482</ele>
        <time>2020-08-28T10:36:32Z</time>
      </trkpt>
      <trkpt lat="40.397434" lon="-1.162207">
        <ele>997.444</ele>
        <time>2020-08-28T10:36:33Z</time>
      </trkpt>
      <trkpt lat="40.397398" lon="-1.162101">
        <ele>997.366</ele>
        <time>2020-08-28T10:36:35Z</time>
      </trkpt>
      <trkpt lat="40.397375" lon="-1.162044">
        <ele>997.344</ele>
        <time>2020-08-28T10:36:36Z</time>
      </trkpt>
      <trkpt lat="40.397337" lon="-1.161937">
        <ele>997.381</ele>
        <time>2020-08-28T10:36:38Z</time>
      </trkpt>
      <trkpt lat="40.397295" lon="-1.16183">
        <ele>997.399</ele>
        <time>2020-08-28T10:36:40Z</time>
      </trkpt>
      <trkpt lat="40.397271" lon="-1.161779">
        <ele>997.349</ele>
        <time>2020-08-28T10:36:41Z</time>
      </trkpt>
      <trkpt lat="40.397238" lon="-1.161685">
        <ele>997.328</ele>
        <time>2020-08-28T10:36:43Z</time>
      </trkpt>
      <trkpt lat="40.39721" lon="-1.161596">
        <ele>997.389</ele>
        <time>2020-08-28T10:36:45Z</time>
      </trkpt>
      <trkpt lat="40.397181" lon="-1.161526">
        <ele>997.317</ele>
        <time>2020-08-28T10:36:47Z</time>
      </trkpt>
      <trkpt lat="40.397153" lon="-1.161448">
        <ele>997.208</ele>
        <time>2020-08-28T10:36:49Z</time>
      </trkpt>
      <trkpt lat="40.397119" lon="-1.161362">
        <ele>997.197</ele>
        <time>2020-08-28T10:36:51Z</time>
      </trkpt>
      <trkpt lat="40.397087" lon="-1.161267">
        <ele>997.117</ele>
        <time>2020-08-28T10:36:53Z</time>
      </trkpt>
      <trkpt lat="40.397053" lon="-1.161178">
        <ele>997.139</ele>
        <time>2020-08-28T10:36:55Z</time>
      </trkpt>
      <trkpt lat="40.397018" lon="-1.161088">
        <ele>997.131</ele>
        <time>2020-08-28T10:36:57Z</time>
      </trkpt>
      <trkpt lat="40.396984" lon="-1.160992">
        <ele>997.119</ele>
        <time>2020-08-28T10:36:59Z</time>
      </trkpt>
      <trkpt lat="40.396952" lon="-1.160898">
        <ele>997.166</ele>
        <time>2020-08-28T10:37:01Z</time>
      </trkpt>
      <trkpt lat="40.396918" lon="-1.160804">
        <ele>997.254</ele>
        <time>2020-08-28T10:37:03Z</time>
      </trkpt>
      <trkpt lat="40.396885" lon="-1.160705">
        <ele>997.344</ele>
        <time>2020-08-28T10:37:05Z</time>
      </trkpt>
      <trkpt lat="40.39685" lon="-1.160607">
        <ele>997.462</ele>
        <time>2020-08-28T10:37:07Z</time>
      </trkpt>
      <trkpt lat="40.396818" lon="-1.160514">
        <ele>997.483</ele>
        <time>2020-08-28T10:37:09Z</time>
      </trkpt>
      <trkpt lat="40.396783" lon="-1.160413">
        <ele>997.411</ele>
        <time>2020-08-28T10:37:11Z</time>
      </trkpt>
      <trkpt lat="40.39675" lon="-1.160315">
        <ele>997.408</ele>
        <time>2020-08-28T10:37:13Z</time>
      </trkpt>
      <trkpt lat="40.396731" lon="-1.160258">
        <ele>997.431</ele>
        <time>2020-08-28T10:37:14Z</time>
      </trkpt>
      <trkpt lat="40.396695" lon="-1.160162">
        <ele>997.491</ele>
        <time>2020-08-28T10:37:16Z</time>
      </trkpt>
      <trkpt lat="40.396675" lon="-1.160105">
        <ele>997.423</ele>
        <time>2020-08-28T10:37:17Z</time>
      </trkpt>
      <trkpt lat="40.396642" lon="-1.160007">
        <ele>997.465</ele>
        <time>2020-08-28T10:37:19Z</time>
      </trkpt>
      <trkpt lat="40.396624" lon="-1.159953">
        <ele>997.463</ele>
        <time>2020-08-28T10:37:20Z</time>
      </trkpt>
      <trkpt lat="40.396605" lon="-1.159898">
        <ele>997.420</ele>
        <time>2020-08-28T10:37:21Z</time>
      </trkpt>
      <trkpt lat="40.396574" lon="-1.159801">
        <ele>997.428</ele>
        <time>2020-08-28T10:37:23Z</time>
      </trkpt>
      <trkpt lat="40.396537" lon="-1.159701">
        <ele>997.418</ele>
        <time>2020-08-28T10:37:25Z</time>
      </trkpt>
      <trkpt lat="40.396499" lon="-1.159604">
        <ele>997.492</ele>
        <time>2020-08-28T10:37:27Z</time>
      </trkpt>
      <trkpt lat="40.396464" lon="-1.159502">
        <ele>997.473</ele>
        <time>2020-08-28T10:37:29Z</time>
      </trkpt>
      <trkpt lat="40.396433" lon="-1.159404">
        <ele>997.420</ele>
        <time>2020-08-28T10:37:31Z</time>
      </trkpt>
      <trkpt lat="40.396396" lon="-1.1593">
        <ele>997.408</ele>
        <time>2020-08-28T10:37:33Z</time>
      </trkpt>
      <trkpt lat="40.396362" lon="-1.159198">
        <ele>997.334</ele>
        <time>2020-08-28T10:37:35Z</time>
      </trkpt>
      <trkpt lat="40.396328" lon="-1.159092">
        <ele>997.234</ele>
        <time>2020-08-28T10:37:37Z</time>
      </trkpt>
      <trkpt lat="40.396309" lon="-1.159039">
        <ele>997.286</ele>
        <time>2020-08-28T10:37:38Z</time>
      </trkpt>
      <trkpt lat="40.39627" lon="-1.158934">
        <ele>997.298</ele>
        <time>2020-08-28T10:37:40Z</time>
      </trkpt>
      <trkpt lat="40.396233" lon="-1.15883">
        <ele>997.126</ele>
        <time>2020-08-28T10:37:42Z</time>
      </trkpt>
      <trkpt lat="40.396201" lon="-1.158733">
        <ele>997.163</ele>
        <time>2020-08-28T10:37:44Z</time>
      </trkpt>
      <trkpt lat="40.396163" lon="-1.158634">
        <ele>997.161</ele>
        <time>2020-08-28T10:37:46Z</time>
      </trkpt>
      <trkpt lat="40.396123" lon="-1.15855">
        <ele>997.131</ele>
        <time>2020-08-28T10:37:48Z</time>
      </trkpt>
      <trkpt lat="40.396086" lon="-1.158452">
        <ele>997.031</ele>
        <time>2020-08-28T10:37:50Z</time>
      </trkpt>
      <trkpt lat="40.396059" lon="-1.158401">
        <ele>996.961</ele>
        <time>2020-08-28T10:37:51Z</time>
      </trkpt>
      <trkpt lat="40.396003" lon="-1.158307">
        <ele>996.607</ele>
        <time>2020-08-28T10:37:53Z</time>
      </trkpt>
      <trkpt lat="40.395973" lon="-1.158261">
        <ele>996.508</ele>
        <time>2020-08-28T10:37:54Z</time>
      </trkpt>
      <trkpt lat="40.395907" lon="-1.158185">
        <ele>996.228</ele>
        <time>2020-08-28T10:37:56Z</time>
      </trkpt>
      <trkpt lat="40.395849" lon="-1.158124">
        <ele>995.878</ele>
        <time>2020-08-28T10:37:58Z</time>
      </trkpt>
      <trkpt lat="40.395794" lon="-1.158069">
        <ele>995.290</ele>
        <time>2020-08-28T10:38:00Z</time>
      </trkpt>
      <trkpt lat="40.39575" lon="-1.158019">
        <ele>994.932</ele>
        <time>2020-08-28T10:38:02Z</time>
      </trkpt>
      <trkpt lat="40.395704" lon="-1.15797">
        <ele>994.780</ele>
        <time>2020-08-28T10:38:04Z</time>
      </trkpt>
      <trkpt lat="40.395668" lon="-1.157926">
        <ele>994.537</ele>
        <time>2020-08-28T10:38:06Z</time>
      </trkpt>
      <trkpt lat="40.395634" lon="-1.157887">
        <ele>994.325</ele>
        <time>2020-08-28T10:38:08Z</time>
      </trkpt>
      <trkpt lat="40.395604" lon="-1.157835">
        <ele>994.295</ele>
        <time>2020-08-28T10:38:10Z</time>
      </trkpt>
      <trkpt lat="40.395573" lon="-1.157787">
        <ele>994.185</ele>
        <time>2020-08-28T10:38:12Z</time>
      </trkpt>
      <trkpt lat="40.395539" lon="-1.157713">
        <ele>993.889</ele>
        <time>2020-08-28T10:38:15Z</time>
      </trkpt>
      <trkpt lat="40.395547" lon="-1.157652">
        <ele>993.717</ele>
        <time>2020-08-28T10:38:19Z</time>
      </trkpt>
      <trkpt lat="40.395593" lon="-1.157631">
        <ele>993.808</ele>
        <time>2020-08-28T10:38:39Z</time>
      </trkpt>
      <trkpt lat="40.395634" lon="-1.157601">
        <ele>993.623</ele>
        <time>2020-08-28T10:38:48Z</time>
      </trkpt>
      <trkpt lat="40.395673" lon="-1.15754">
        <ele>993.563</ele>
        <time>2020-08-28T10:38:52Z</time>
      </trkpt>
      <trkpt lat="40.395703" lon="-1.157495">
        <ele>993.365</ele>
        <time>2020-08-28T10:38:57Z</time>
      </trkpt>
      <trkpt lat="40.395735" lon="-1.157445">
        <ele>993.427</ele>
        <time>2020-08-28T10:39:00Z</time>
      </trkpt>
      <trkpt lat="40.395777" lon="-1.157388">
        <ele>993.545</ele>
        <time>2020-08-28T10:39:04Z</time>
      </trkpt>
      <trkpt lat="40.395806" lon="-1.157334">
        <ele>993.652</ele>
        <time>2020-08-28T10:39:07Z</time>
      </trkpt>
      <trkpt lat="40.395825" lon="-1.157275">
        <ele>993.640</ele>
        <time>2020-08-28T10:39:10Z</time>
      </trkpt>
      <trkpt lat="40.395841" lon="-1.157204">
        <ele>993.650</ele>
        <time>2020-08-28T10:39:13Z</time>
      </trkpt>
      <trkpt lat="40.395916" lon="-1.157138">
        <ele>993.754</ele>
        <time>2020-08-28T10:39:15Z</time>
      </trkpt>
      <trkpt lat="40.395921" lon="-1.157057">
        <ele>993.756</ele>
        <time>2020-08-28T10:39:17Z</time>
      </trkpt>
      <trkpt lat="40.395939" lon="-1.156984">
        <ele>993.811</ele>
        <time>2020-08-28T10:39:20Z</time>
      </trkpt>
      <trkpt lat="40.395942" lon="-1.156924">
        <ele>994.008</ele>
        <time>2020-08-28T10:39:23Z</time>
      </trkpt>
      <trkpt lat="40.39593" lon="-1.156853">
        <ele>994.210</ele>
        <time>2020-08-28T10:39:26Z</time>
      </trkpt>
      <trkpt lat="40.395887" lon="-1.156797">
        <ele>994.640</ele>
        <time>2020-08-28T10:39:29Z</time>
      </trkpt>
      <trkpt lat="40.395843" lon="-1.156741">
        <ele>994.912</ele>
        <time>2020-08-28T10:39:32Z</time>
      </trkpt>
      <trkpt lat="40.395802" lon="-1.156706">
        <ele>995.174</ele>
        <time>2020-08-28T10:39:35Z</time>
      </trkpt>
      <trkpt lat="40.395757" lon="-1.156675">
        <ele>995.242</ele>
        <time>2020-08-28T10:39:38Z</time>
      </trkpt>
      <trkpt lat="40.395714" lon="-1.15664">
        <ele>995.439</ele>
        <time>2020-08-28T10:39:41Z</time>
      </trkpt>
      <trkpt lat="40.395668" lon="-1.156609">
        <ele>995.767</ele>
        <time>2020-08-28T10:39:44Z</time>
      </trkpt>
      <trkpt lat="40.395632" lon="-1.156573">
        <ele>995.767</ele>
        <time>2020-08-28T10:39:46Z</time>
      </trkpt>
      <trkpt lat="40.395583" lon="-1.156523">
        <ele>995.751</ele>
        <time>2020-08-28T10:39:49Z</time>
      </trkpt>
      <trkpt lat="40.395547" lon="-1.156481">
        <ele>995.901</ele>
        <time>2020-08-28T10:39:51Z</time>
      </trkpt>
      <trkpt lat="40.395517" lon="-1.156419">
        <ele>995.911</ele>
        <time>2020-08-28T10:39:53Z</time>
      </trkpt>
      <trkpt lat="40.395476" lon="-1.156362">
        <ele>995.908</ele>
        <time>2020-08-28T10:39:55Z</time>
      </trkpt>
      <trkpt lat="40.395429" lon="-1.156308">
        <ele>995.890</ele>
        <time>2020-08-28T10:39:57Z</time>
      </trkpt>
      <trkpt lat="40.395386" lon="-1.156238">
        <ele>995.760</ele>
        <time>2020-08-28T10:39:59Z</time>
      </trkpt>
      <trkpt lat="40.395339" lon="-1.156173">
        <ele>995.642</ele>
        <time>2020-08-28T10:40:01Z</time>
      </trkpt>
      <trkpt lat="40.395294" lon="-1.156096">
        <ele>995.534</ele>
        <time>2020-08-28T10:40:03Z</time>
      </trkpt>
      <trkpt lat="40.39525" lon="-1.156034">
        <ele>995.492</ele>
        <time>2020-08-28T10:40:05Z</time>
      </trkpt>
      <trkpt lat="40.395225" lon="-1.155961">
        <ele>995.299</ele>
        <time>2020-08-28T10:40:45Z</time>
      </trkpt>
      <trkpt lat="40.395196" lon="-1.155909">
        <ele>995.267</ele>
        <time>2020-08-28T10:40:47Z</time>
      </trkpt>
      <trkpt lat="40.395175" lon="-1.155851">
        <ele>995.247</ele>
        <time>2020-08-28T10:40:49Z</time>
      </trkpt>
      <trkpt lat="40.395144" lon="-1.155784">
        <ele>995.138</ele>
        <time>2020-08-28T10:40:51Z</time>
      </trkpt>
      <trkpt lat="40.395113" lon="-1.1557">
        <ele>995.070</ele>
        <time>2020-08-28T10:40:53Z</time>
      </trkpt>
      <trkpt lat="40.395064" lon="-1.155624">
        <ele>994.917</ele>
        <time>2020-08-28T10:40:55Z</time>
      </trkpt>
      <trkpt lat="40.395036" lon="-1.155538">
        <ele>994.808</ele>
        <time>2020-08-28T10:40:57Z</time>
      </trkpt>
      <trkpt lat="40.395009" lon="-1.155443">
        <ele>994.788</ele>
        <time>2020-08-28T10:40:59Z</time>
      </trkpt>
      <trkpt lat="40.394975" lon="-1.155349">
        <ele>994.688</ele>
        <time>2020-08-28T10:41:01Z</time>
      </trkpt>
      <trkpt lat="40.394956" lon="-1.155295">
        <ele>994.570</ele>
        <time>2020-08-28T10:41:02Z</time>
      </trkpt>
      <trkpt lat="40.394919" lon="-1.155194">
        <ele>994.462</ele>
        <time>2020-08-28T10:41:04Z</time>
      </trkpt>
      <trkpt lat="40.394882" lon="-1.155091">
        <ele>994.310</ele>
        <time>2020-08-28T10:41:06Z</time>
      </trkpt>
      <trkpt lat="40.394864" lon="-1.155031">
        <ele>994.287</ele>
        <time>2020-08-28T10:41:07Z</time>
      </trkpt>
      <trkpt lat="40.394846" lon="-1.154975">
        <ele>994.115</ele>
        <time>2020-08-28T10:41:08Z</time>
      </trkpt>
      <trkpt lat="40.394831" lon="-1.154919">
        <ele>994.185</ele>
        <time>2020-08-28T10:41:09Z</time>
      </trkpt>
      <trkpt lat="40.394811" lon="-1.154865">
        <ele>994.129</ele>
        <time>2020-08-28T10:41:10Z</time>
      </trkpt>
      <trkpt lat="40.394787" lon="-1.154812">
        <ele>994.000</ele>
        <time>2020-08-28T10:41:11Z</time>
      </trkpt>
      <trkpt lat="40.394766" lon="-1.154754">
        <ele>993.920</ele>
        <time>2020-08-28T10:41:12Z</time>
      </trkpt>
      <trkpt lat="40.394748" lon="-1.154696">
        <ele>993.808</ele>
        <time>2020-08-28T10:41:13Z</time>
      </trkpt>
      <trkpt lat="40.394709" lon="-1.154588">
        <ele>993.777</ele>
        <time>2020-08-28T10:41:15Z</time>
      </trkpt>
      <trkpt lat="40.394688" lon="-1.154529">
        <ele>993.677</ele>
        <time>2020-08-28T10:41:16Z</time>
      </trkpt>
      <trkpt lat="40.394669" lon="-1.154472">
        <ele>993.689</ele>
        <time>2020-08-28T10:41:17Z</time>
      </trkpt>
      <trkpt lat="40.394652" lon="-1.154412">
        <ele>993.521</ele>
        <time>2020-08-28T10:41:18Z</time>
      </trkpt>
      <trkpt lat="40.394624" lon="-1.154292">
        <ele>993.469</ele>
        <time>2020-08-28T10:41:20Z</time>
      </trkpt>
      <trkpt lat="40.394601" lon="-1.154233">
        <ele>993.346</ele>
        <time>2020-08-28T10:41:21Z</time>
      </trkpt>
      <trkpt lat="40.39458" lon="-1.154176">
        <ele>993.294</ele>
        <time>2020-08-28T10:41:22Z</time>
      </trkpt>
      <trkpt lat="40.394557" lon="-1.15412">
        <ele>993.144</ele>
        <time>2020-08-28T10:41:23Z</time>
      </trkpt>
      <trkpt lat="40.394535" lon="-1.154065">
        <ele>993.041</ele>
        <time>2020-08-28T10:41:24Z</time>
      </trkpt>
      <trkpt lat="40.394513" lon="-1.154008">
        <ele>993.081</ele>
        <time>2020-08-28T10:41:25Z</time>
      </trkpt>
      <trkpt lat="40.394473" lon="-1.153902">
        <ele>992.909</ele>
        <time>2020-08-28T10:41:27Z</time>
      </trkpt>
      <trkpt lat="40.394452" lon="-1.153839">
        <ele>992.908</ele>
        <time>2020-08-28T10:41:28Z</time>
      </trkpt>
      <trkpt lat="40.394409" lon="-1.153729">
        <ele>992.849</ele>
        <time>2020-08-28T10:41:30Z</time>
      </trkpt>
      <trkpt lat="40.39439" lon="-1.153673">
        <ele>992.819</ele>
        <time>2020-08-28T10:41:31Z</time>
      </trkpt>
      <trkpt lat="40.394367" lon="-1.153619">
        <ele>992.821</ele>
        <time>2020-08-28T10:41:32Z</time>
      </trkpt>
      <trkpt lat="40.394344" lon="-1.153568">
        <ele>992.883</ele>
        <time>2020-08-28T10:41:33Z</time>
      </trkpt>
      <trkpt lat="40.394309" lon="-1.153461">
        <ele>992.711</ele>
        <time>2020-08-28T10:41:35Z</time>
      </trkpt>
      <trkpt lat="40.394289" lon="-1.153407">
        <ele>992.758</ele>
        <time>2020-08-28T10:41:36Z</time>
      </trkpt>
      <trkpt lat="40.394267" lon="-1.153352">
        <ele>992.676</ele>
        <time>2020-08-28T10:41:37Z</time>
      </trkpt>
      <trkpt lat="40.394248" lon="-1.153297">
        <ele>992.656</ele>
        <time>2020-08-28T10:41:38Z</time>
      </trkpt>
      <trkpt lat="40.39421" lon="-1.153192">
        <ele>992.573</ele>
        <time>2020-08-28T10:41:40Z</time>
      </trkpt>
      <trkpt lat="40.394196" lon="-1.153135">
        <ele>992.585</ele>
        <time>2020-08-28T10:41:41Z</time>
      </trkpt>
      <trkpt lat="40.394176" lon="-1.153082">
        <ele>992.513</ele>
        <time>2020-08-28T10:41:42Z</time>
      </trkpt>
      <trkpt lat="40.394158" lon="-1.153026">
        <ele>992.508</ele>
        <time>2020-08-28T10:41:43Z</time>
      </trkpt>
      <trkpt lat="40.39412" lon="-1.152918">
        <ele>992.482</ele>
        <time>2020-08-28T10:41:45Z</time>
      </trkpt>
      <trkpt lat="40.394081" lon="-1.152812">
        <ele>992.322</ele>
        <time>2020-08-28T10:41:47Z</time>
      </trkpt>
      <trkpt lat="40.394062" lon="-1.152755">
        <ele>992.314</ele>
        <time>2020-08-28T10:41:48Z</time>
      </trkpt>
      <trkpt lat="40.394024" lon="-1.15265">
        <ele>992.296</ele>
        <time>2020-08-28T10:41:50Z</time>
      </trkpt>
      <trkpt lat="40.393987" lon="-1.152557">
        <ele>992.184</ele>
        <time>2020-08-28T10:41:52Z</time>
      </trkpt>
      <trkpt lat="40.393958" lon="-1.152464">
        <ele>992.051</ele>
        <time>2020-08-28T10:41:54Z</time>
      </trkpt>
      <trkpt lat="40.39393" lon="-1.152378">
        <ele>991.959</ele>
        <time>2020-08-28T10:41:56Z</time>
      </trkpt>
      <trkpt lat="40.393906" lon="-1.152304">
        <ele>991.829</ele>
        <time>2020-08-28T10:41:58Z</time>
      </trkpt>
      <trkpt lat="40.393875" lon="-1.152232">
        <ele>991.885</ele>
        <time>2020-08-28T10:42:00Z</time>
      </trkpt>
      <trkpt lat="40.393851" lon="-1.152159">
        <ele>991.789</ele>
        <time>2020-08-28T10:42:02Z</time>
      </trkpt>
      <trkpt lat="40.393831" lon="-1.152105">
        <ele>991.717</ele>
        <time>2020-08-28T10:42:04Z</time>
      </trkpt>
      <trkpt lat="40.393812" lon="-1.152037">
        <ele>991.808</ele>
        <time>2020-08-28T10:42:07Z</time>
      </trkpt>
      <trkpt lat="40.393792" lon="-1.151974">
        <ele>991.733</ele>
        <time>2020-08-28T10:42:11Z</time>
      </trkpt>
      <trkpt lat="40.393767" lon="-1.151922">
        <ele>991.653</ele>
        <time>2020-08-28T10:42:13Z</time>
      </trkpt>
      <trkpt lat="40.393739" lon="-1.151851">
        <ele>991.585</ele>
        <time>2020-08-28T10:42:15Z</time>
      </trkpt>
      <trkpt lat="40.393715" lon="-1.151773">
        <ele>991.477</ele>
        <time>2020-08-28T10:42:17Z</time>
      </trkpt>
      <trkpt lat="40.393684" lon="-1.151687">
        <ele>991.335</ele>
        <time>2020-08-28T10:42:19Z</time>
      </trkpt>
      <trkpt lat="40.393662" lon="-1.151596">
        <ele>991.242</ele>
        <time>2020-08-28T10:42:21Z</time>
      </trkpt>
      <trkpt lat="40.393629" lon="-1.151496">
        <ele>991.260</ele>
        <time>2020-08-28T10:42:23Z</time>
      </trkpt>
      <trkpt lat="40.39359" lon="-1.151396">
        <ele>991.130</ele>
        <time>2020-08-28T10:42:25Z</time>
      </trkpt>
      <trkpt lat="40.393553" lon="-1.151295">
        <ele>991.033</ele>
        <time>2020-08-28T10:42:27Z</time>
      </trkpt>
      <trkpt lat="40.393518" lon="-1.151191">
        <ele>990.923</ele>
        <time>2020-08-28T10:42:29Z</time>
      </trkpt>
      <trkpt lat="40.393497" lon="-1.151138">
        <ele>990.915</ele>
        <time>2020-08-28T10:42:30Z</time>
      </trkpt>
      <trkpt lat="40.393464" lon="-1.15103">
        <ele>990.908</ele>
        <time>2020-08-28T10:42:32Z</time>
      </trkpt>
      <trkpt lat="40.393441" lon="-1.150979">
        <ele>990.958</ele>
        <time>2020-08-28T10:42:33Z</time>
      </trkpt>
      <trkpt lat="40.393408" lon="-1.150872">
        <ele>990.888</ele>
        <time>2020-08-28T10:42:35Z</time>
      </trkpt>
      <trkpt lat="40.393368" lon="-1.150766">
        <ele>990.710</ele>
        <time>2020-08-28T10:42:37Z</time>
      </trkpt>
      <trkpt lat="40.393325" lon="-1.150667">
        <ele>990.632</ele>
        <time>2020-08-28T10:42:39Z</time>
      </trkpt>
      <trkpt lat="40.393302" lon="-1.150611">
        <ele>990.670</ele>
        <time>2020-08-28T10:42:40Z</time>
      </trkpt>
      <trkpt lat="40.393268" lon="-1.150501">
        <ele>990.477</ele>
        <time>2020-08-28T10:42:42Z</time>
      </trkpt>
      <trkpt lat="40.393234" lon="-1.150393">
        <ele>990.295</ele>
        <time>2020-08-28T10:42:44Z</time>
      </trkpt>
      <trkpt lat="40.393216" lon="-1.150333">
        <ele>990.125</ele>
        <time>2020-08-28T10:42:45Z</time>
      </trkpt>
      <trkpt lat="40.393194" lon="-1.150282">
        <ele>990.057</ele>
        <time>2020-08-28T10:42:46Z</time>
      </trkpt>
      <trkpt lat="40.393156" lon="-1.150183">
        <ele>989.800</ele>
        <time>2020-08-28T10:42:48Z</time>
      </trkpt>
      <trkpt lat="40.393137" lon="-1.150124">
        <ele>989.720</ele>
        <time>2020-08-28T10:42:49Z</time>
      </trkpt>
      <trkpt lat="40.393118" lon="-1.150069">
        <ele>989.708</ele>
        <time>2020-08-28T10:42:50Z</time>
      </trkpt>
      <trkpt lat="40.393096" lon="-1.150014">
        <ele>989.610</ele>
        <time>2020-08-28T10:42:51Z</time>
      </trkpt>
      <trkpt lat="40.393074" lon="-1.149959">
        <ele>989.520</ele>
        <time>2020-08-28T10:42:52Z</time>
      </trkpt>
      <trkpt lat="40.393055" lon="-1.149903">
        <ele>989.422</ele>
        <time>2020-08-28T10:42:53Z</time>
      </trkpt>
      <trkpt lat="40.393048" lon="-1.149844">
        <ele>989.334</ele>
        <time>2020-08-28T10:42:54Z</time>
      </trkpt>
      <trkpt lat="40.393032" lon="-1.149785">
        <ele>989.242</ele>
        <time>2020-08-28T10:42:55Z</time>
      </trkpt>
      <trkpt lat="40.39299" lon="-1.14968">
        <ele>989.029</ele>
        <time>2020-08-28T10:42:57Z</time>
      </trkpt>
      <trkpt lat="40.392972" lon="-1.149625">
        <ele>988.997</ele>
        <time>2020-08-28T10:42:58Z</time>
      </trkpt>
      <trkpt lat="40.392933" lon="-1.149519">
        <ele>988.847</ele>
        <time>2020-08-28T10:43:00Z</time>
      </trkpt>
      <trkpt lat="40.392892" lon="-1.149418">
        <ele>988.819</ele>
        <time>2020-08-28T10:43:02Z</time>
      </trkpt>
      <trkpt lat="40.392871" lon="-1.149365">
        <ele>988.709</ele>
        <time>2020-08-28T10:43:03Z</time>
      </trkpt>
      <trkpt lat="40.392834" lon="-1.149262">
        <ele>988.619</ele>
        <time>2020-08-28T10:43:05Z</time>
      </trkpt>
      <trkpt lat="40.392814" lon="-1.149209">
        <ele>988.608</ele>
        <time>2020-08-28T10:43:06Z</time>
      </trkpt>
      <trkpt lat="40.392794" lon="-1.149155">
        <ele>988.696</ele>
        <time>2020-08-28T10:43:07Z</time>
      </trkpt>
      <trkpt lat="40.392773" lon="-1.149102">
        <ele>988.556</ele>
        <time>2020-08-28T10:43:08Z</time>
      </trkpt>
      <trkpt lat="40.392756" lon="-1.149044">
        <ele>988.458</ele>
        <time>2020-08-28T10:43:09Z</time>
      </trkpt>
      <trkpt lat="40.392717" lon="-1.148938">
        <ele>988.220</ele>
        <time>2020-08-28T10:43:11Z</time>
      </trkpt>
      <trkpt lat="40.392678" lon="-1.148832">
        <ele>988.158</ele>
        <time>2020-08-28T10:43:13Z</time>
      </trkpt>
      <trkpt lat="40.392656" lon="-1.148775">
        <ele>988.185</ele>
        <time>2020-08-28T10:43:14Z</time>
      </trkpt>
      <trkpt lat="40.392637" lon="-1.148719">
        <ele>988.193</ele>
        <time>2020-08-28T10:43:15Z</time>
      </trkpt>
      <trkpt lat="40.392618" lon="-1.148661">
        <ele>988.153</ele>
        <time>2020-08-28T10:43:16Z</time>
      </trkpt>
      <trkpt lat="40.392598" lon="-1.148603">
        <ele>988.184</ele>
        <time>2020-08-28T10:43:17Z</time>
      </trkpt>
      <trkpt lat="40.392579" lon="-1.148546">
        <ele>988.107</ele>
        <time>2020-08-28T10:43:18Z</time>
      </trkpt>
      <trkpt lat="40.392556" lon="-1.148489">
        <ele>988.117</ele>
        <time>2020-08-28T10:43:19Z</time>
      </trkpt>
      <trkpt lat="40.392537" lon="-1.148427">
        <ele>988.108</ele>
        <time>2020-08-28T10:43:20Z</time>
      </trkpt>
      <trkpt lat="40.392516" lon="-1.148369">
        <ele>988.173</ele>
        <time>2020-08-28T10:43:21Z</time>
      </trkpt>
      <trkpt lat="40.392496" lon="-1.148305">
        <ele>988.063</ele>
        <time>2020-08-28T10:43:22Z</time>
      </trkpt>
      <trkpt lat="40.392477" lon="-1.148243">
        <ele>988.095</ele>
        <time>2020-08-28T10:43:23Z</time>
      </trkpt>
      <trkpt lat="40.392453" lon="-1.148181">
        <ele>987.927</ele>
        <time>2020-08-28T10:43:24Z</time>
      </trkpt>
      <trkpt lat="40.392433" lon="-1.148118">
        <ele>987.975</ele>
        <time>2020-08-28T10:43:25Z</time>
      </trkpt>
      <trkpt lat="40.392415" lon="-1.148063">
        <ele>987.872</ele>
        <time>2020-08-28T10:43:26Z</time>
      </trkpt>
      <trkpt lat="40.392395" lon="-1.148002">
        <ele>987.760</ele>
        <time>2020-08-28T10:43:27Z</time>
      </trkpt>
      <trkpt lat="40.392377" lon="-1.147935">
        <ele>987.650</ele>
        <time>2020-08-28T10:43:28Z</time>
      </trkpt>
      <trkpt lat="40.392359" lon="-1.147872">
        <ele>987.546</ele>
        <time>2020-08-28T10:43:29Z</time>
      </trkpt>
      <trkpt lat="40.392339" lon="-1.147805">
        <ele>987.488</ele>
        <time>2020-08-28T10:43:30Z</time>
      </trkpt>
      <trkpt lat="40.39232" lon="-1.147738">
        <ele>987.316</ele>
        <time>2020-08-28T10:43:31Z</time>
      </trkpt>
      <trkpt lat="40.392305" lon="-1.147671">
        <ele>987.208</ele>
        <time>2020-08-28T10:43:32Z</time>
      </trkpt>
      <trkpt lat="40.392289" lon="-1.147606">
        <ele>987.159</ele>
        <time>2020-08-28T10:43:33Z</time>
      </trkpt>
      <trkpt lat="40.392273" lon="-1.147541">
        <ele>987.099</ele>
        <time>2020-08-28T10:43:34Z</time>
      </trkpt>
      <trkpt lat="40.392259" lon="-1.147473">
        <ele>986.961</ele>
        <time>2020-08-28T10:43:35Z</time>
      </trkpt>
      <trkpt lat="40.392246" lon="-1.147407">
        <ele>986.873</ele>
        <time>2020-08-28T10:43:36Z</time>
      </trkpt>
      <trkpt lat="40.392231" lon="-1.147338">
        <ele>986.791</ele>
        <time>2020-08-28T10:43:37Z</time>
      </trkpt>
      <trkpt lat="40.392218" lon="-1.147272">
        <ele>986.648</ele>
        <time>2020-08-28T10:43:38Z</time>
      </trkpt>
      <trkpt lat="40.392207" lon="-1.147206">
        <ele>986.546</ele>
        <time>2020-08-28T10:43:39Z</time>
      </trkpt>
      <trkpt lat="40.392197" lon="-1.147134">
        <ele>986.486</ele>
        <time>2020-08-28T10:43:40Z</time>
      </trkpt>
      <trkpt lat="40.392178" lon="-1.147077">
        <ele>986.357</ele>
        <time>2020-08-28T10:43:41Z</time>
      </trkpt>
      <trkpt lat="40.392168" lon="-1.147014">
        <ele>986.200</ele>
        <time>2020-08-28T10:43:42Z</time>
      </trkpt>
      <trkpt lat="40.392161" lon="-1.146943">
        <ele>986.120</ele>
        <time>2020-08-28T10:43:43Z</time>
      </trkpt>
      <trkpt lat="40.392154" lon="-1.146871">
        <ele>986.008</ele>
        <time>2020-08-28T10:43:44Z</time>
      </trkpt>
      <trkpt lat="40.392148" lon="-1.146805">
        <ele>985.910</ele>
        <time>2020-08-28T10:43:45Z</time>
      </trkpt>
      <trkpt lat="40.39214" lon="-1.14674">
        <ele>985.710</ele>
        <time>2020-08-28T10:43:46Z</time>
      </trkpt>
      <trkpt lat="40.392134" lon="-1.146672">
        <ele>985.782</ele>
        <time>2020-08-28T10:43:47Z</time>
      </trkpt>
      <trkpt lat="40.392128" lon="-1.146605">
        <ele>985.674</ele>
        <time>2020-08-28T10:43:48Z</time>
      </trkpt>
      <trkpt lat="40.392125" lon="-1.14654">
        <ele>985.582</ele>
        <time>2020-08-28T10:43:49Z</time>
      </trkpt>
      <trkpt lat="40.392124" lon="-1.146473">
        <ele>985.539</ele>
        <time>2020-08-28T10:43:50Z</time>
      </trkpt>
      <trkpt lat="40.39212" lon="-1.146404">
        <ele>985.457</ele>
        <time>2020-08-28T10:43:51Z</time>
      </trkpt>
      <trkpt lat="40.392116" lon="-1.146337">
        <ele>985.347</ele>
        <time>2020-08-28T10:43:52Z</time>
      </trkpt>
      <trkpt lat="40.392113" lon="-1.146273">
        <ele>985.274</ele>
        <time>2020-08-28T10:43:53Z</time>
      </trkpt>
      <trkpt lat="40.39211" lon="-1.146202">
        <ele>984.756</ele>
        <time>2020-08-28T10:43:54Z</time>
      </trkpt>
      <trkpt lat="40.392117" lon="-1.14614">
        <ele>984.721</ele>
        <time>2020-08-28T10:43:55Z</time>
      </trkpt>
      <trkpt lat="40.392114" lon="-1.146078">
        <ele>984.708</ele>
        <time>2020-08-28T10:43:56Z</time>
      </trkpt>
      <trkpt lat="40.392115" lon="-1.146013">
        <ele>984.652</ele>
        <time>2020-08-28T10:43:57Z</time>
      </trkpt>
      <trkpt lat="40.392117" lon="-1.145947">
        <ele>984.612</ele>
        <time>2020-08-28T10:43:58Z</time>
      </trkpt>
      <trkpt lat="40.392119" lon="-1.145881">
        <ele>984.654</ele>
        <time>2020-08-28T10:43:59Z</time>
      </trkpt>
      <trkpt lat="40.392119" lon="-1.145818">
        <ele>984.626</ele>
        <time>2020-08-28T10:44:00Z</time>
      </trkpt>
      <trkpt lat="40.392119" lon="-1.145758">
        <ele>984.474</ele>
        <time>2020-08-28T10:44:01Z</time>
      </trkpt>
      <trkpt lat="40.39212" lon="-1.145695">
        <ele>984.331</ele>
        <time>2020-08-28T10:44:02Z</time>
      </trkpt>
      <trkpt lat="40.392119" lon="-1.145635">
        <ele>984.219</ele>
        <time>2020-08-28T10:44:03Z</time>
      </trkpt>
      <trkpt lat="40.392119" lon="-1.145574">
        <ele>984.179</ele>
        <time>2020-08-28T10:44:04Z</time>
      </trkpt>
      <trkpt lat="40.392119" lon="-1.145513">
        <ele>984.056</ele>
        <time>2020-08-28T10:44:05Z</time>
      </trkpt>
      <trkpt lat="40.392119" lon="-1.14545">
        <ele>983.959</ele>
        <time>2020-08-28T10:44:06Z</time>
      </trkpt>
      <trkpt lat="40.392121" lon="-1.145385">
        <ele>983.814</ele>
        <time>2020-08-28T10:44:07Z</time>
      </trkpt>
      <trkpt lat="40.39212" lon="-1.14532">
        <ele>983.508</ele>
        <time>2020-08-28T10:44:08Z</time>
      </trkpt>
      <trkpt lat="40.392118" lon="-1.145256">
        <ele>983.450</ele>
        <time>2020-08-28T10:44:09Z</time>
      </trkpt>
      <trkpt lat="40.39212" lon="-1.145189">
        <ele>983.360</ele>
        <time>2020-08-28T10:44:10Z</time>
      </trkpt>
      <trkpt lat="40.392119" lon="-1.145126">
        <ele>983.252</ele>
        <time>2020-08-28T10:44:11Z</time>
      </trkpt>
      <trkpt lat="40.39212" lon="-1.14506">
        <ele>983.274</ele>
        <time>2020-08-28T10:44:12Z</time>
      </trkpt>
      <trkpt lat="40.392122" lon="-1.144995">
        <ele>983.122</ele>
        <time>2020-08-28T10:44:13Z</time>
      </trkpt>
      <trkpt lat="40.392121" lon="-1.144932">
        <ele>983.059</ele>
        <time>2020-08-28T10:44:14Z</time>
      </trkpt>
      <trkpt lat="40.392122" lon="-1.144863">
        <ele>983.017</ele>
        <time>2020-08-28T10:44:15Z</time>
      </trkpt>
      <trkpt lat="40.392119" lon="-1.144799">
        <ele>982.947</ele>
        <time>2020-08-28T10:44:16Z</time>
      </trkpt>
      <trkpt lat="40.392118" lon="-1.144733">
        <ele>982.851</ele>
        <time>2020-08-28T10:44:17Z</time>
      </trkpt>
      <trkpt lat="40.392115" lon="-1.144671">
        <ele>982.801</ele>
        <time>2020-08-28T10:44:18Z</time>
      </trkpt>
      <trkpt lat="40.392116" lon="-1.144597">
        <ele>982.811</ele>
        <time>2020-08-28T10:44:19Z</time>
      </trkpt>
      <trkpt lat="40.392116" lon="-1.14453">
        <ele>982.708</ele>
        <time>2020-08-28T10:44:20Z</time>
      </trkpt>
      <trkpt lat="40.392118" lon="-1.144463">
        <ele>982.610</ele>
        <time>2020-08-28T10:44:21Z</time>
      </trkpt>
      <trkpt lat="40.392119" lon="-1.14439">
        <ele>982.520</ele>
        <time>2020-08-28T10:44:22Z</time>
      </trkpt>
      <trkpt lat="40.392116" lon="-1.144321">
        <ele>982.472</ele>
        <time>2020-08-28T10:44:23Z</time>
      </trkpt>
      <trkpt lat="40.392115" lon="-1.144248">
        <ele>982.334</ele>
        <time>2020-08-28T10:44:24Z</time>
      </trkpt>
      <trkpt lat="40.392116" lon="-1.144175">
        <ele>982.272</ele>
        <time>2020-08-28T10:44:25Z</time>
      </trkpt>
      <trkpt lat="40.392116" lon="-1.144105">
        <ele>982.159</ele>
        <time>2020-08-28T10:44:26Z</time>
      </trkpt>
      <trkpt lat="40.392121" lon="-1.144034">
        <ele>982.097</ele>
        <time>2020-08-28T10:44:27Z</time>
      </trkpt>
      <trkpt lat="40.39212" lon="-1.143963">
        <ele>981.987</ele>
        <time>2020-08-28T10:44:28Z</time>
      </trkpt>
      <trkpt lat="40.392118" lon="-1.143897">
        <ele>981.878</ele>
        <time>2020-08-28T10:44:29Z</time>
      </trkpt>
      <trkpt lat="40.392118" lon="-1.143828">
        <ele>981.733</ele>
        <time>2020-08-28T10:44:30Z</time>
      </trkpt>
      <trkpt lat="40.392122" lon="-1.143763">
        <ele>981.626</ele>
        <time>2020-08-28T10:44:31Z</time>
      </trkpt>
      <trkpt lat="40.39212" lon="-1.143697">
        <ele>981.608</ele>
        <time>2020-08-28T10:44:32Z</time>
      </trkpt>
      <trkpt lat="40.392117" lon="-1.143631">
        <ele>981.542</ele>
        <time>2020-08-28T10:44:33Z</time>
      </trkpt>
      <trkpt lat="40.392117" lon="-1.143562">
        <ele>981.472</ele>
        <time>2020-08-28T10:44:34Z</time>
      </trkpt>
      <trkpt lat="40.392115" lon="-1.143498">
        <ele>981.394</ele>
        <time>2020-08-28T10:44:35Z</time>
      </trkpt>
      <trkpt lat="40.392112" lon="-1.143438">
        <ele>981.216</ele>
        <time>2020-08-28T10:44:36Z</time>
      </trkpt>
      <trkpt lat="40.392116" lon="-1.143332">
        <ele>981.114</ele>
        <time>2020-08-28T10:44:38Z</time>
      </trkpt>
      <trkpt lat="40.392111" lon="-1.143242">
        <ele>981.041</ele>
        <time>2020-08-28T10:44:40Z</time>
      </trkpt>
      <trkpt lat="40.392112" lon="-1.143163">
        <ele>980.959</ele>
        <time>2020-08-28T10:44:42Z</time>
      </trkpt>
      <trkpt lat="40.392107" lon="-1.143093">
        <ele>980.879</ele>
        <time>2020-08-28T10:44:44Z</time>
      </trkpt>
      <trkpt lat="40.392104" lon="-1.143018">
        <ele>980.811</ele>
        <time>2020-08-28T10:44:46Z</time>
      </trkpt>
      <trkpt lat="40.392098" lon="-1.142947">
        <ele>980.821</ele>
        <time>2020-08-28T10:44:48Z</time>
      </trkpt>
      <trkpt lat="40.392095" lon="-1.142881">
        <ele>980.803</ele>
        <time>2020-08-28T10:44:50Z</time>
      </trkpt>
      <trkpt lat="40.392091" lon="-1.142821">
        <ele>980.808</ele>
        <time>2020-08-28T10:44:52Z</time>
      </trkpt>
      <trkpt lat="40.39208" lon="-1.142746">
        <ele>980.996</ele>
        <time>2020-08-28T10:44:55Z</time>
      </trkpt>
      <trkpt lat="40.392069" lon="-1.142684">
        <ele>981.046</ele>
        <time>2020-08-28T10:44:57Z</time>
      </trkpt>
      <trkpt lat="40.392058" lon="-1.142613">
        <ele>981.058</ele>
        <time>2020-08-28T10:44:59Z</time>
      </trkpt>
      <trkpt lat="40.392038" lon="-1.142527">
        <ele>980.960</ele>
        <time>2020-08-28T10:45:01Z</time>
      </trkpt>
      <trkpt lat="40.392022" lon="-1.142443">
        <ele>980.718</ele>
        <time>2020-08-28T10:45:03Z</time>
      </trkpt>
      <trkpt lat="40.392" lon="-1.14235">
        <ele>980.675</ele>
        <time>2020-08-28T10:45:05Z</time>
      </trkpt>
      <trkpt lat="40.391982" lon="-1.142259">
        <ele>980.593</ele>
        <time>2020-08-28T10:45:07Z</time>
      </trkpt>
      <trkpt lat="40.391964" lon="-1.14218">
        <ele>980.473</ele>
        <time>2020-08-28T10:45:09Z</time>
      </trkpt>
      <trkpt lat="40.391938" lon="-1.142105">
        <ele>980.493</ele>
        <time>2020-08-28T10:45:12Z</time>
      </trkpt>
      <trkpt lat="40.391916" lon="-1.142035">
        <ele>980.365</ele>
        <time>2020-08-28T10:45:15Z</time>
      </trkpt>
      <trkpt lat="40.391897" lon="-1.14198">
        <ele>980.221</ele>
        <time>2020-08-28T10:45:49Z</time>
      </trkpt>
      <trkpt lat="40.391874" lon="-1.141907">
        <ele>980.108</ele>
        <time>2020-08-28T10:46:03Z</time>
      </trkpt>
      <trkpt lat="40.391853" lon="-1.141847">
        <ele>980.034</ele>
        <time>2020-08-28T10:46:05Z</time>
      </trkpt>
      <trkpt lat="40.391823" lon="-1.141781">
        <ele>979.974</ele>
        <time>2020-08-28T10:46:07Z</time>
      </trkpt>
      <trkpt lat="40.391795" lon="-1.141714">
        <ele>979.886</ele>
        <time>2020-08-28T10:46:09Z</time>
      </trkpt>
      <trkpt lat="40.391769" lon="-1.141644">
        <ele>979.768</ele>
        <time>2020-08-28T10:46:11Z</time>
      </trkpt>
      <trkpt lat="40.391738" lon="-1.141575">
        <ele>979.586</ele>
        <time>2020-08-28T10:46:13Z</time>
      </trkpt>
      <trkpt lat="40.391705" lon="-1.141514">
        <ele>979.323</ele>
        <time>2020-08-28T10:46:15Z</time>
      </trkpt>
      <trkpt lat="40.391667" lon="-1.141457">
        <ele>979.241</ele>
        <time>2020-08-28T10:46:17Z</time>
      </trkpt>
      <trkpt lat="40.391627" lon="-1.141391">
        <ele>979.161</ele>
        <time>2020-08-28T10:46:19Z</time>
      </trkpt>
      <trkpt lat="40.391589" lon="-1.141321">
        <ele>979.016</ele>
        <time>2020-08-28T10:46:21Z</time>
      </trkpt>
      <trkpt lat="40.391541" lon="-1.141237">
        <ele>978.976</ele>
        <time>2020-08-28T10:46:23Z</time>
      </trkpt>
      <trkpt lat="40.391492" lon="-1.141159">
        <ele>978.813</ele>
        <time>2020-08-28T10:46:25Z</time>
      </trkpt>
      <trkpt lat="40.391449" lon="-1.141075">
        <ele>978.708</ele>
        <time>2020-08-28T10:46:27Z</time>
      </trkpt>
      <trkpt lat="40.391406" lon="-1.140992">
        <ele>978.616</ele>
        <time>2020-08-28T10:46:29Z</time>
      </trkpt>
      <trkpt lat="40.391362" lon="-1.14091">
        <ele>978.546</ele>
        <time>2020-08-28T10:46:31Z</time>
      </trkpt>
      <trkpt lat="40.391315" lon="-1.140834">
        <ele>978.518</ele>
        <time>2020-08-28T10:46:33Z</time>
      </trkpt>
      <trkpt lat="40.391273" lon="-1.140764">
        <ele>978.680</ele>
        <time>2020-08-28T10:46:35Z</time>
      </trkpt>
      <trkpt lat="40.391231" lon="-1.140711">
        <ele>978.868</ele>
        <time>2020-08-28T10:46:37Z</time>
      </trkpt>
      <trkpt lat="40.391185" lon="-1.14067">
        <ele>979.315</ele>
        <time>2020-08-28T10:46:39Z</time>
      </trkpt>
      <trkpt lat="40.391148" lon="-1.140624">
        <ele>979.623</ele>
        <time>2020-08-28T10:46:41Z</time>
      </trkpt>
      <trkpt lat="40.39111" lon="-1.140581">
        <ele>979.933</ele>
        <time>2020-08-28T10:46:43Z</time>
      </trkpt>
      <trkpt lat="40.391076" lon="-1.14054">
        <ele>980.389</ele>
        <time>2020-08-28T10:46:45Z</time>
      </trkpt>
      <trkpt lat="40.391023" lon="-1.140489">
        <ele>980.906</ele>
        <time>2020-08-28T10:46:48Z</time>
      </trkpt>
      <trkpt lat="40.390984" lon="-1.140458">
        <ele>981.426</ele>
        <time>2020-08-28T10:46:51Z</time>
      </trkpt>
      <trkpt lat="40.39095" lon="-1.140408">
        <ele>981.908</ele>
        <time>2020-08-28T10:46:54Z</time>
      </trkpt>
      <trkpt lat="40.390916" lon="-1.140328">
        <ele>982.193</ele>
        <time>2020-08-28T10:46:57Z</time>
      </trkpt>
      <trkpt lat="40.390884" lon="-1.140279">
        <ele>981.993</ele>
        <time>2020-08-28T10:46:59Z</time>
      </trkpt>
      <trkpt lat="40.390855" lon="-1.14023">
        <ele>981.435</ele>
        <time>2020-08-28T10:47:01Z</time>
      </trkpt>
      <trkpt lat="40.390822" lon="-1.140181">
        <ele>981.047</ele>
        <time>2020-08-28T10:47:03Z</time>
      </trkpt>
      <trkpt lat="40.390783" lon="-1.14012">
        <ele>980.685</ele>
        <time>2020-08-28T10:47:05Z</time>
      </trkpt>
      <trkpt lat="40.390745" lon="-1.140058">
        <ele>980.262</ele>
        <time>2020-08-28T10:47:07Z</time>
      </trkpt>
      <trkpt lat="40.3907" lon="-1.139997">
        <ele>979.860</ele>
        <time>2020-08-28T10:47:09Z</time>
      </trkpt>
      <trkpt lat="40.39066" lon="-1.139939">
        <ele>979.580</ele>
        <time>2020-08-28T10:47:11Z</time>
      </trkpt>
      <trkpt lat="40.390613" lon="-1.139879">
        <ele>979.347</ele>
        <time>2020-08-28T10:47:13Z</time>
      </trkpt>
      <trkpt lat="40.390569" lon="-1.139809">
        <ele>979.129</ele>
        <time>2020-08-28T10:47:15Z</time>
      </trkpt>
      <trkpt lat="40.390517" lon="-1.139733">
        <ele>978.921</ele>
        <time>2020-08-28T10:47:17Z</time>
      </trkpt>
      <trkpt lat="40.390466" lon="-1.139659">
        <ele>978.608</ele>
        <time>2020-08-28T10:47:19Z</time>
      </trkpt>
      <trkpt lat="40.390415" lon="-1.139591">
        <ele>978.449</ele>
        <time>2020-08-28T10:47:21Z</time>
      </trkpt>
      <trkpt lat="40.39036" lon="-1.139523">
        <ele>978.249</ele>
        <time>2020-08-28T10:47:23Z</time>
      </trkpt>
      <trkpt lat="40.390314" lon="-1.139449">
        <ele>978.191</ele>
        <time>2020-08-28T10:47:25Z</time>
      </trkpt>
      <trkpt lat="40.390266" lon="-1.139375">
        <ele>978.123</ele>
        <time>2020-08-28T10:47:27Z</time>
      </trkpt>
      <trkpt lat="40.390221" lon="-1.1393">
        <ele>978.121</ele>
        <time>2020-08-28T10:47:29Z</time>
      </trkpt>
      <trkpt lat="40.390173" lon="-1.139222">
        <ele>978.138</ele>
        <time>2020-08-28T10:47:31Z</time>
      </trkpt>
      <trkpt lat="40.390122" lon="-1.139147">
        <ele>978.036</ele>
        <time>2020-08-28T10:47:33Z</time>
      </trkpt>
      <trkpt lat="40.390071" lon="-1.139074">
        <ele>977.966</ele>
        <time>2020-08-28T10:47:35Z</time>
      </trkpt>
      <trkpt lat="40.390026" lon="-1.139005">
        <ele>977.987</ele>
        <time>2020-08-28T10:47:37Z</time>
      </trkpt>
      <trkpt lat="40.389975" lon="-1.138936">
        <ele>977.942</ele>
        <time>2020-08-28T10:47:39Z</time>
      </trkpt>
      <trkpt lat="40.389924" lon="-1.138863">
        <ele>977.826</ele>
        <time>2020-08-28T10:47:41Z</time>
      </trkpt>
      <trkpt lat="40.389872" lon="-1.138784">
        <ele>977.708</ele>
        <time>2020-08-28T10:47:43Z</time>
      </trkpt>
      <trkpt lat="40.389824" lon="-1.1387">
        <ele>977.753</ele>
        <time>2020-08-28T10:47:45Z</time>
      </trkpt>
      <trkpt lat="40.389773" lon="-1.138622">
        <ele>977.743</ele>
        <time>2020-08-28T10:47:47Z</time>
      </trkpt>
      <trkpt lat="40.389716" lon="-1.138549">
        <ele>977.755</ele>
        <time>2020-08-28T10:47:49Z</time>
      </trkpt>
      <trkpt lat="40.389664" lon="-1.138473">
        <ele>977.797</ele>
        <time>2020-08-28T10:47:51Z</time>
      </trkpt>
      <trkpt lat="40.38961" lon="-1.138395">
        <ele>977.655</ele>
        <time>2020-08-28T10:47:53Z</time>
      </trkpt>
      <trkpt lat="40.38956" lon="-1.138313">
        <ele>977.572</ele>
        <time>2020-08-28T10:47:55Z</time>
      </trkpt>
      <trkpt lat="40.389508" lon="-1.13823">
        <ele>977.470</ele>
        <time>2020-08-28T10:47:57Z</time>
      </trkpt>
      <trkpt lat="40.389453" lon="-1.138145">
        <ele>977.360</ele>
        <time>2020-08-28T10:47:59Z</time>
      </trkpt>
      <trkpt lat="40.389404" lon="-1.138064">
        <ele>977.223</ele>
        <time>2020-08-28T10:48:01Z</time>
      </trkpt>
      <trkpt lat="40.389346" lon="-1.13798">
        <ele>977.183</ele>
        <time>2020-08-28T10:48:03Z</time>
      </trkpt>
      <trkpt lat="40.389296" lon="-1.137891">
        <ele>976.911</ele>
        <time>2020-08-28T10:48:05Z</time>
      </trkpt>
      <trkpt lat="40.389238" lon="-1.137807">
        <ele>976.808</ele>
        <time>2020-08-28T10:48:07Z</time>
      </trkpt>
      <trkpt lat="40.389209" lon="-1.13776">
        <ele>976.867</ele>
        <time>2020-08-28T10:48:08Z</time>
      </trkpt>
      <trkpt lat="40.389177" lon="-1.137711">
        <ele>976.887</ele>
        <time>2020-08-28T10:48:09Z</time>
      </trkpt>
      <trkpt lat="40.389145" lon="-1.137668">
        <ele>976.879</ele>
        <time>2020-08-28T10:48:10Z</time>
      </trkpt>
      <trkpt lat="40.389115" lon="-1.137621">
        <ele>976.831</ele>
        <time>2020-08-28T10:48:11Z</time>
      </trkpt>
      <trkpt lat="40.389086" lon="-1.137573">
        <ele>976.779</ele>
        <time>2020-08-28T10:48:12Z</time>
      </trkpt>
      <trkpt lat="40.389059" lon="-1.137522">
        <ele>976.786</ele>
        <time>2020-08-28T10:48:13Z</time>
      </trkpt>
      <trkpt lat="40.389027" lon="-1.137477">
        <ele>976.794</ele>
        <time>2020-08-28T10:48:14Z</time>
      </trkpt>
      <trkpt lat="40.38896" lon="-1.1374">
        <ele>976.614</ele>
        <time>2020-08-28T10:48:16Z</time>
      </trkpt>
      <trkpt lat="40.388928" lon="-1.137357">
        <ele>976.694</ele>
        <time>2020-08-28T10:48:17Z</time>
      </trkpt>
      <trkpt lat="40.388897" lon="-1.13731">
        <ele>976.557</ele>
        <time>2020-08-28T10:48:18Z</time>
      </trkpt>
      <trkpt lat="40.388862" lon="-1.137258">
        <ele>976.422</ele>
        <time>2020-08-28T10:48:19Z</time>
      </trkpt>
      <trkpt lat="40.388829" lon="-1.13721">
        <ele>976.308</ele>
        <time>2020-08-28T10:48:20Z</time>
      </trkpt>
      <trkpt lat="40.388796" lon="-1.13716">
        <ele>976.294</ele>
        <time>2020-08-28T10:48:21Z</time>
      </trkpt>
      <trkpt lat="40.388764" lon="-1.137109">
        <ele>976.134</ele>
        <time>2020-08-28T10:48:22Z</time>
      </trkpt>
      <trkpt lat="40.388731" lon="-1.137054">
        <ele>976.046</ele>
        <time>2020-08-28T10:48:23Z</time>
      </trkpt>
      <trkpt lat="40.388696" lon="-1.137004">
        <ele>975.928</ele>
        <time>2020-08-28T10:48:24Z</time>
      </trkpt>
      <trkpt lat="40.388664" lon="-1.136955">
        <ele>975.876</ele>
        <time>2020-08-28T10:48:25Z</time>
      </trkpt>
      <trkpt lat="40.388632" lon="-1.136909">
        <ele>975.743</ele>
        <time>2020-08-28T10:48:26Z</time>
      </trkpt>
      <trkpt lat="40.3886" lon="-1.136861">
        <ele>975.671</ele>
        <time>2020-08-28T10:48:27Z</time>
      </trkpt>
      <trkpt lat="40.388569" lon="-1.13681">
        <ele>975.681</ele>
        <time>2020-08-28T10:48:28Z</time>
      </trkpt>
      <trkpt lat="40.388539" lon="-1.136759">
        <ele>975.614</ele>
        <time>2020-08-28T10:48:29Z</time>
      </trkpt>
      <trkpt lat="40.38851" lon="-1.136714">
        <ele>975.654</ele>
        <time>2020-08-28T10:48:30Z</time>
      </trkpt>
      <trkpt lat="40.388446" lon="-1.136621">
        <ele>975.509</ele>
        <time>2020-08-28T10:48:32Z</time>
      </trkpt>
      <trkpt lat="40.38838" lon="-1.136531">
        <ele>975.408</ele>
        <time>2020-08-28T10:48:34Z</time>
      </trkpt>
      <trkpt lat="40.388343" lon="-1.136482">
        <ele>975.396</ele>
        <time>2020-08-28T10:48:35Z</time>
      </trkpt>
      <trkpt lat="40.388307" lon="-1.136434">
        <ele>975.236</ele>
        <time>2020-08-28T10:48:36Z</time>
      </trkpt>
      <trkpt lat="40.388271" lon="-1.136383">
        <ele>975.198</ele>
        <time>2020-08-28T10:48:37Z</time>
      </trkpt>
      <trkpt lat="40.388237" lon="-1.136335">
        <ele>975.070</ele>
        <time>2020-08-28T10:48:38Z</time>
      </trkpt>
      <trkpt lat="40.388201" lon="-1.13629">
        <ele>974.958</ele>
        <time>2020-08-28T10:48:39Z</time>
      </trkpt>
      <trkpt lat="40.388167" lon="-1.136244">
        <ele>974.885</ele>
        <time>2020-08-28T10:48:40Z</time>
      </trkpt>
      <trkpt lat="40.388136" lon="-1.136197">
        <ele>974.713</ele>
        <time>2020-08-28T10:48:41Z</time>
      </trkpt>
      <trkpt lat="40.388103" lon="-1.136149">
        <ele>974.673</ele>
        <time>2020-08-28T10:48:42Z</time>
      </trkpt>
      <trkpt lat="40.388072" lon="-1.136097">
        <ele>974.637</ele>
        <time>2020-08-28T10:48:43Z</time>
      </trkpt>
      <trkpt lat="40.388036" lon="-1.136051">
        <ele>974.649</ele>
        <time>2020-08-28T10:48:44Z</time>
      </trkpt>
      <trkpt lat="40.388002" lon="-1.136005">
        <ele>974.613</ele>
        <time>2020-08-28T10:48:45Z</time>
      </trkpt>
      <trkpt lat="40.387969" lon="-1.135956">
        <ele>974.608</ele>
        <time>2020-08-28T10:48:46Z</time>
      </trkpt>
      <trkpt lat="40.387939" lon="-1.135906">
        <ele>974.598</ele>
        <time>2020-08-28T10:48:47Z</time>
      </trkpt>
      <trkpt lat="40.387911" lon="-1.135852">
        <ele>974.538</ele>
        <time>2020-08-28T10:48:48Z</time>
      </trkpt>
      <trkpt lat="40.38788" lon="-1.135797">
        <ele>974.480</ele>
        <time>2020-08-28T10:48:49Z</time>
      </trkpt>
      <trkpt lat="40.387852" lon="-1.135745">
        <ele>974.482</ele>
        <time>2020-08-28T10:48:50Z</time>
      </trkpt>
      <trkpt lat="40.387825" lon="-1.135688">
        <ele>974.450</ele>
        <time>2020-08-28T10:48:51Z</time>
      </trkpt>
      <trkpt lat="40.387798" lon="-1.135632">
        <ele>974.487</ele>
        <time>2020-08-28T10:48:52Z</time>
      </trkpt>
      <trkpt lat="40.387768" lon="-1.135577">
        <ele>974.465</ele>
        <time>2020-08-28T10:48:53Z</time>
      </trkpt>
      <trkpt lat="40.387735" lon="-1.135524">
        <ele>974.385</ele>
        <time>2020-08-28T10:48:54Z</time>
      </trkpt>
      <trkpt lat="40.387706" lon="-1.135474">
        <ele>974.282</ele>
        <time>2020-08-28T10:48:55Z</time>
      </trkpt>
      <trkpt lat="40.387673" lon="-1.135425">
        <ele>974.143</ele>
        <time>2020-08-28T10:48:56Z</time>
      </trkpt>
      <trkpt lat="40.387649" lon="-1.135363">
        <ele>974.017</ele>
        <time>2020-08-28T10:48:57Z</time>
      </trkpt>
      <trkpt lat="40.387623" lon="-1.135307">
        <ele>974.008</ele>
        <time>2020-08-28T10:48:58Z</time>
      </trkpt>
      <trkpt lat="40.387594" lon="-1.135255">
        <ele>974.083</ele>
        <time>2020-08-28T10:48:59Z</time>
      </trkpt>
      <trkpt lat="40.38757" lon="-1.135199">
        <ele>974.093</ele>
        <time>2020-08-28T10:49:00Z</time>
      </trkpt>
      <trkpt lat="40.387545" lon="-1.135145">
        <ele>974.095</ele>
        <time>2020-08-28T10:49:01Z</time>
      </trkpt>
      <trkpt lat="40.387521" lon="-1.13509">
        <ele>974.017</ele>
        <time>2020-08-28T10:49:02Z</time>
      </trkpt>
      <trkpt lat="40.387495" lon="-1.135031">
        <ele>973.945</ele>
        <time>2020-08-28T10:49:03Z</time>
      </trkpt>
      <trkpt lat="40.387472" lon="-1.134974">
        <ele>973.862</ele>
        <time>2020-08-28T10:49:04Z</time>
      </trkpt>
      <trkpt lat="40.38745" lon="-1.134918">
        <ele>973.880</ele>
        <time>2020-08-28T10:49:05Z</time>
      </trkpt>
      <trkpt lat="40.387429" lon="-1.134857">
        <ele>973.880</ele>
        <time>2020-08-28T10:49:06Z</time>
      </trkpt>
      <trkpt lat="40.387409" lon="-1.1348">
        <ele>973.851</ele>
        <time>2020-08-28T10:49:07Z</time>
      </trkpt>
      <trkpt lat="40.387383" lon="-1.134741">
        <ele>973.801</ele>
        <time>2020-08-28T10:49:08Z</time>
      </trkpt>
      <trkpt lat="40.387366" lon="-1.134676">
        <ele>973.811</ele>
        <time>2020-08-28T10:49:09Z</time>
      </trkpt>
      <trkpt lat="40.387341" lon="-1.134615">
        <ele>973.708</ele>
        <time>2020-08-28T10:49:10Z</time>
      </trkpt>
      <trkpt lat="40.387319" lon="-1.134555">
        <ele>973.640</ele>
        <time>2020-08-28T10:49:11Z</time>
      </trkpt>
      <trkpt lat="40.387298" lon="-1.134498">
        <ele>973.570</ele>
        <time>2020-08-28T10:49:12Z</time>
      </trkpt>
      <trkpt lat="40.387281" lon="-1.134431">
        <ele>973.432</ele>
        <time>2020-08-28T10:49:13Z</time>
      </trkpt>
      <trkpt lat="40.387262" lon="-1.134366">
        <ele>973.374</ele>
        <time>2020-08-28T10:49:14Z</time>
      </trkpt>
      <trkpt lat="40.387243" lon="-1.134309">
        <ele>973.292</ele>
        <time>2020-08-28T10:49:15Z</time>
      </trkpt>
      <trkpt lat="40.38722" lon="-1.134247">
        <ele>973.179</ele>
        <time>2020-08-28T10:49:16Z</time>
      </trkpt>
      <trkpt lat="40.387201" lon="-1.134186">
        <ele>973.067</ele>
        <time>2020-08-28T10:49:17Z</time>
      </trkpt>
      <trkpt lat="40.387182" lon="-1.134121">
        <ele>972.967</ele>
        <time>2020-08-28T10:49:18Z</time>
      </trkpt>
      <trkpt lat="40.387165" lon="-1.134053">
        <ele>972.833</ele>
        <time>2020-08-28T10:49:19Z</time>
      </trkpt>
      <trkpt lat="40.387149" lon="-1.133991">
        <ele>972.723</ele>
        <time>2020-08-28T10:49:20Z</time>
      </trkpt>
      <trkpt lat="40.387134" lon="-1.133926">
        <ele>972.715</ele>
        <time>2020-08-28T10:49:21Z</time>
      </trkpt>
      <trkpt lat="40.387119" lon="-1.133859">
        <ele>972.708</ele>
        <time>2020-08-28T10:49:22Z</time>
      </trkpt>
      <trkpt lat="40.387106" lon="-1.133789">
        <ele>972.718</ele>
        <time>2020-08-28T10:49:23Z</time>
      </trkpt>
      <trkpt lat="40.387095" lon="-1.133719">
        <ele>972.768</ele>
        <time>2020-08-28T10:49:24Z</time>
      </trkpt>
      <trkpt lat="40.387082" lon="-1.13366">
        <ele>972.660</ele>
        <time>2020-08-28T10:49:25Z</time>
      </trkpt>
      <trkpt lat="40.387069" lon="-1.133593">
        <ele>972.582</ele>
        <time>2020-08-28T10:49:26Z</time>
      </trkpt>
      <trkpt lat="40.387059" lon="-1.133522">
        <ele>972.410</ele>
        <time>2020-08-28T10:49:27Z</time>
      </trkpt>
      <trkpt lat="40.387045" lon="-1.133453">
        <ele>972.357</ele>
        <time>2020-08-28T10:49:28Z</time>
      </trkpt>
      <trkpt lat="40.387042" lon="-1.133383">
        <ele>972.215</ele>
        <time>2020-08-28T10:49:29Z</time>
      </trkpt>
      <trkpt lat="40.387035" lon="-1.133317">
        <ele>972.145</ele>
        <time>2020-08-28T10:49:30Z</time>
      </trkpt>
      <trkpt lat="40.387023" lon="-1.133249">
        <ele>972.081</ele>
        <time>2020-08-28T10:49:31Z</time>
      </trkpt>
      <trkpt lat="40.387011" lon="-1.133179">
        <ele>971.961</ele>
        <time>2020-08-28T10:49:32Z</time>
      </trkpt>
      <trkpt lat="40.387" lon="-1.133105">
        <ele>971.817</ele>
        <time>2020-08-28T10:49:33Z</time>
      </trkpt>
      <trkpt lat="40.386989" lon="-1.133032">
        <ele>971.708</ele>
        <time>2020-08-28T10:49:34Z</time>
      </trkpt>
      <trkpt lat="40.386977" lon="-1.132956">
        <ele>971.623</ele>
        <time>2020-08-28T10:49:35Z</time>
      </trkpt>
      <trkpt lat="40.386966" lon="-1.13288">
        <ele>971.583</ele>
        <time>2020-08-28T10:49:36Z</time>
      </trkpt>
      <trkpt lat="40.386957" lon="-1.132805">
        <ele>971.515</ele>
        <time>2020-08-28T10:49:37Z</time>
      </trkpt>
      <trkpt lat="40.386947" lon="-1.132736">
        <ele>971.497</ele>
        <time>2020-08-28T10:49:38Z</time>
      </trkpt>
      <trkpt lat="40.386934" lon="-1.132653">
        <ele>971.345</ele>
        <time>2020-08-28T10:49:39Z</time>
      </trkpt>
      <trkpt lat="40.386924" lon="-1.132577">
        <ele>971.212</ele>
        <time>2020-08-28T10:49:40Z</time>
      </trkpt>
      <trkpt lat="40.386912" lon="-1.132501">
        <ele>971.130</ele>
        <time>2020-08-28T10:49:41Z</time>
      </trkpt>
      <trkpt lat="40.386901" lon="-1.132422">
        <ele>970.910</ele>
        <time>2020-08-28T10:49:42Z</time>
      </trkpt>
      <trkpt lat="40.386889" lon="-1.132342">
        <ele>970.763</ele>
        <time>2020-08-28T10:49:43Z</time>
      </trkpt>
      <trkpt lat="40.386878" lon="-1.132261">
        <ele>970.644</ele>
        <time>2020-08-28T10:49:44Z</time>
      </trkpt>
      <trkpt lat="40.386869" lon="-1.132187">
        <ele>970.518</ele>
        <time>2020-08-28T10:49:45Z</time>
      </trkpt>
      <trkpt lat="40.386857" lon="-1.13211">
        <ele>970.508</ele>
        <time>2020-08-28T10:49:46Z</time>
      </trkpt>
      <trkpt lat="40.386845" lon="-1.132029">
        <ele>970.591</ele>
        <time>2020-08-28T10:49:47Z</time>
      </trkpt>
      <trkpt lat="40.386832" lon="-1.131949">
        <ele>970.491</ele>
        <time>2020-08-28T10:49:48Z</time>
      </trkpt>
      <trkpt lat="40.38682" lon="-1.131869">
        <ele>970.373</ele>
        <time>2020-08-28T10:49:49Z</time>
      </trkpt>
      <trkpt lat="40.386815" lon="-1.131789">
        <ele>970.285</ele>
        <time>2020-08-28T10:49:50Z</time>
      </trkpt>
      <trkpt lat="40.386804" lon="-1.131707">
        <ele>970.123</ele>
        <time>2020-08-28T10:49:51Z</time>
      </trkpt>
      <trkpt lat="40.386791" lon="-1.131627">
        <ele>970.080</ele>
        <time>2020-08-28T10:49:52Z</time>
      </trkpt>
      <trkpt lat="40.386779" lon="-1.131544">
        <ele>969.988</ele>
        <time>2020-08-28T10:49:53Z</time>
      </trkpt>
      <trkpt lat="40.386769" lon="-1.131467">
        <ele>969.888</ele>
        <time>2020-08-28T10:49:54Z</time>
      </trkpt>
      <trkpt lat="40.386765" lon="-1.131389">
        <ele>969.577</ele>
        <time>2020-08-28T10:49:55Z</time>
      </trkpt>
      <trkpt lat="40.38676" lon="-1.131312">
        <ele>969.461</ele>
        <time>2020-08-28T10:49:56Z</time>
      </trkpt>
      <trkpt lat="40.386751" lon="-1.131225">
        <ele>969.327</ele>
        <time>2020-08-28T10:49:57Z</time>
      </trkpt>
      <trkpt lat="40.386737" lon="-1.131147">
        <ele>969.208</ele>
        <time>2020-08-28T10:49:58Z</time>
      </trkpt>
      <trkpt lat="40.386729" lon="-1.131065">
        <ele>969.232</ele>
        <time>2020-08-28T10:49:59Z</time>
      </trkpt>
      <trkpt lat="40.386715" lon="-1.130989">
        <ele>969.172</ele>
        <time>2020-08-28T10:50:00Z</time>
      </trkpt>
      <trkpt lat="40.386701" lon="-1.130916">
        <ele>969.024</ele>
        <time>2020-08-28T10:50:01Z</time>
      </trkpt>
      <trkpt lat="40.38669" lon="-1.130834">
        <ele>968.996</ele>
        <time>2020-08-28T10:50:02Z</time>
      </trkpt>
      <trkpt lat="40.386683" lon="-1.130749">
        <ele>968.844</ele>
        <time>2020-08-28T10:50:03Z</time>
      </trkpt>
      <trkpt lat="40.386673" lon="-1.130667">
        <ele>968.611</ele>
        <time>2020-08-28T10:50:04Z</time>
      </trkpt>
      <trkpt lat="40.386662" lon="-1.130588">
        <ele>968.569</ele>
        <time>2020-08-28T10:50:05Z</time>
      </trkpt>
      <trkpt lat="40.386653" lon="-1.130508">
        <ele>968.419</ele>
        <time>2020-08-28T10:50:06Z</time>
      </trkpt>
      <trkpt lat="40.386646" lon="-1.130429">
        <ele>968.345</ele>
        <time>2020-08-28T10:50:07Z</time>
      </trkpt>
      <trkpt lat="40.386629" lon="-1.130342">
        <ele>968.247</ele>
        <time>2020-08-28T10:50:08Z</time>
      </trkpt>
      <trkpt lat="40.386623" lon="-1.130267">
        <ele>968.111</ele>
        <time>2020-08-28T10:50:09Z</time>
      </trkpt>
      <trkpt lat="40.386608" lon="-1.130183">
        <ele>968.008</ele>
        <time>2020-08-28T10:50:10Z</time>
      </trkpt>
      <trkpt lat="40.386598" lon="-1.130099">
        <ele>967.989</ele>
        <time>2020-08-28T10:50:11Z</time>
      </trkpt>
      <trkpt lat="40.386591" lon="-1.130014">
        <ele>967.819</ele>
        <time>2020-08-28T10:50:12Z</time>
      </trkpt>
      <trkpt lat="40.386581" lon="-1.129938">
        <ele>967.841</ele>
        <time>2020-08-28T10:50:13Z</time>
      </trkpt>
      <trkpt lat="40.386572" lon="-1.129855">
        <ele>967.833</ele>
        <time>2020-08-28T10:50:14Z</time>
      </trkpt>
      <trkpt lat="40.386564" lon="-1.129775">
        <ele>967.871</ele>
        <time>2020-08-28T10:50:15Z</time>
      </trkpt>
      <trkpt lat="40.386554" lon="-1.129689">
        <ele>967.748</ele>
        <time>2020-08-28T10:50:16Z</time>
      </trkpt>
      <trkpt lat="40.386551" lon="-1.12962">
        <ele>967.426</ele>
        <time>2020-08-28T10:50:17Z</time>
      </trkpt>
      <trkpt lat="40.386538" lon="-1.129538">
        <ele>967.376</ele>
        <time>2020-08-28T10:50:18Z</time>
      </trkpt>
      <trkpt lat="40.386526" lon="-1.129457">
        <ele>967.276</ele>
        <time>2020-08-28T10:50:19Z</time>
      </trkpt>
      <trkpt lat="40.386518" lon="-1.129377">
        <ele>967.190</ele>
        <time>2020-08-28T10:50:20Z</time>
      </trkpt>
      <trkpt lat="40.386506" lon="-1.129298">
        <ele>967.019</ele>
        <time>2020-08-28T10:50:21Z</time>
      </trkpt>
      <trkpt lat="40.386494" lon="-1.129216">
        <ele>966.908</ele>
        <time>2020-08-28T10:50:22Z</time>
      </trkpt>
      <trkpt lat="40.386482" lon="-1.129132">
        <ele>966.822</ele>
        <time>2020-08-28T10:50:23Z</time>
      </trkpt>
      <trkpt lat="40.386469" lon="-1.129044">
        <ele>966.752</ele>
        <time>2020-08-28T10:50:24Z</time>
      </trkpt>
      <trkpt lat="40.386457" lon="-1.128965">
        <ele>966.624</ele>
        <time>2020-08-28T10:50:25Z</time>
      </trkpt>
      <trkpt lat="40.386442" lon="-1.128881">
        <ele>966.576</ele>
        <time>2020-08-28T10:50:26Z</time>
      </trkpt>
      <trkpt lat="40.38643" lon="-1.128804">
        <ele>966.444</ele>
        <time>2020-08-28T10:50:27Z</time>
      </trkpt>
      <trkpt lat="40.386417" lon="-1.128725">
        <ele>966.331</ele>
        <time>2020-08-28T10:50:28Z</time>
      </trkpt>
      <trkpt lat="40.386401" lon="-1.128643">
        <ele>966.299</ele>
        <time>2020-08-28T10:50:29Z</time>
      </trkpt>
      <trkpt lat="40.38639" lon="-1.128566">
        <ele>966.219</ele>
        <time>2020-08-28T10:50:30Z</time>
      </trkpt>
      <trkpt lat="40.386377" lon="-1.128495">
        <ele>966.289</ele>
        <time>2020-08-28T10:50:31Z</time>
      </trkpt>
      <trkpt lat="40.386366" lon="-1.128413">
        <ele>966.206</ele>
        <time>2020-08-28T10:50:32Z</time>
      </trkpt>
      <trkpt lat="40.386351" lon="-1.128342">
        <ele>966.226</ele>
        <time>2020-08-28T10:50:33Z</time>
      </trkpt>
      <trkpt lat="40.38634" lon="-1.128268">
        <ele>966.208</ele>
        <time>2020-08-28T10:50:34Z</time>
      </trkpt>
      <trkpt lat="40.386327" lon="-1.128189">
        <ele>966.113</ele>
        <time>2020-08-28T10:50:35Z</time>
      </trkpt>
      <trkpt lat="40.386313" lon="-1.128117">
        <ele>966.063</ele>
        <time>2020-08-28T10:50:36Z</time>
      </trkpt>
      <trkpt lat="40.386303" lon="-1.128044">
        <ele>965.975</ele>
        <time>2020-08-28T10:50:37Z</time>
      </trkpt>
      <trkpt lat="40.386295" lon="-1.127975">
        <ele>965.957</ele>
        <time>2020-08-28T10:50:38Z</time>
      </trkpt>
      <trkpt lat="40.386286" lon="-1.127904">
        <ele>966.035</ele>
        <time>2020-08-28T10:50:39Z</time>
      </trkpt>
      <trkpt lat="40.386274" lon="-1.127837">
        <ele>966.052</ele>
        <time>2020-08-28T10:50:40Z</time>
      </trkpt>
      <trkpt lat="40.386266" lon="-1.127765">
        <ele>966.080</ele>
        <time>2020-08-28T10:50:41Z</time>
      </trkpt>
      <trkpt lat="40.386258" lon="-1.127699">
        <ele>966.010</ele>
        <time>2020-08-28T10:50:42Z</time>
      </trkpt>
      <trkpt lat="40.386247" lon="-1.127631">
        <ele>965.937</ele>
        <time>2020-08-28T10:50:43Z</time>
      </trkpt>
      <trkpt lat="40.386238" lon="-1.127561">
        <ele>965.849</ele>
        <time>2020-08-28T10:50:44Z</time>
      </trkpt>
      <trkpt lat="40.386229" lon="-1.127495">
        <ele>965.713</ele>
        <time>2020-08-28T10:50:45Z</time>
      </trkpt>
      <trkpt lat="40.386219" lon="-1.127436">
        <ele>965.608</ele>
        <time>2020-08-28T10:50:46Z</time>
      </trkpt>
      <trkpt lat="40.386209" lon="-1.127371">
        <ele>965.558</ele>
        <time>2020-08-28T10:50:47Z</time>
      </trkpt>
      <trkpt lat="40.386202" lon="-1.127302">
        <ele>965.348</ele>
        <time>2020-08-28T10:50:48Z</time>
      </trkpt>
      <trkpt lat="40.386196" lon="-1.12723">
        <ele>965.180</ele>
        <time>2020-08-28T10:50:49Z</time>
      </trkpt>
      <trkpt lat="40.386184" lon="-1.127159">
        <ele>965.022</ele>
        <time>2020-08-28T10:50:50Z</time>
      </trkpt>
      <trkpt lat="40.386177" lon="-1.127088">
        <ele>964.890</ele>
        <time>2020-08-28T10:50:51Z</time>
      </trkpt>
      <trkpt lat="40.386164" lon="-1.127016">
        <ele>964.657</ele>
        <time>2020-08-28T10:50:52Z</time>
      </trkpt>
      <trkpt lat="40.386155" lon="-1.126945">
        <ele>964.565</ele>
        <time>2020-08-28T10:50:53Z</time>
      </trkpt>
      <trkpt lat="40.386147" lon="-1.126871">
        <ele>964.435</ele>
        <time>2020-08-28T10:50:54Z</time>
      </trkpt>
      <trkpt lat="40.386136" lon="-1.126804">
        <ele>964.373</ele>
        <time>2020-08-28T10:50:55Z</time>
      </trkpt>
      <trkpt lat="40.386125" lon="-1.126733">
        <ele>964.285</ele>
        <time>2020-08-28T10:50:56Z</time>
      </trkpt>
      <trkpt lat="40.386115" lon="-1.126663">
        <ele>964.113</ele>
        <time>2020-08-28T10:50:57Z</time>
      </trkpt>
      <trkpt lat="40.386108" lon="-1.126595">
        <ele>964.008</ele>
        <time>2020-08-28T10:50:58Z</time>
      </trkpt>
      <trkpt lat="40.386099" lon="-1.126523">
        <ele>963.982</ele>
        <time>2020-08-28T10:50:59Z</time>
      </trkpt>
      <trkpt lat="40.386091" lon="-1.126448">
        <ele>963.862</ele>
        <time>2020-08-28T10:51:00Z</time>
      </trkpt>
      <trkpt lat="40.386091" lon="-1.126369">
        <ele>963.654</ele>
        <time>2020-08-28T10:51:01Z</time>
      </trkpt>
      <trkpt lat="40.386095" lon="-1.126292">
        <ele>963.576</ele>
        <time>2020-08-28T10:51:02Z</time>
      </trkpt>
      <trkpt lat="40.386067" lon="-1.126219">
        <ele>963.494</ele>
        <time>2020-08-28T10:51:03Z</time>
      </trkpt>
      <trkpt lat="40.386057" lon="-1.126156">
        <ele>963.341</ele>
        <time>2020-08-28T10:51:04Z</time>
      </trkpt>
      <trkpt lat="40.386052" lon="-1.126083">
        <ele>963.269</ele>
        <time>2020-08-28T10:51:05Z</time>
      </trkpt>
      <trkpt lat="40.386043" lon="-1.126006">
        <ele>963.189</ele>
        <time>2020-08-28T10:51:06Z</time>
      </trkpt>
      <trkpt lat="40.38604" lon="-1.125937">
        <ele>963.166</ele>
        <time>2020-08-28T10:51:07Z</time>
      </trkpt>
      <trkpt lat="40.386026" lon="-1.125864">
        <ele>963.029</ele>
        <time>2020-08-28T10:51:08Z</time>
      </trkpt>
      <trkpt lat="40.386014" lon="-1.125786">
        <ele>962.921</ele>
        <time>2020-08-28T10:51:09Z</time>
      </trkpt>
      <trkpt lat="40.386004" lon="-1.125717">
        <ele>962.808</ele>
        <time>2020-08-28T10:51:10Z</time>
      </trkpt>
      <trkpt lat="40.385994" lon="-1.125648">
        <ele>962.721</ele>
        <time>2020-08-28T10:51:11Z</time>
      </trkpt>
      <trkpt lat="40.385984" lon="-1.125573">
        <ele>962.631</ele>
        <time>2020-08-28T10:51:12Z</time>
      </trkpt>
      <trkpt lat="40.385977" lon="-1.125503">
        <ele>962.573</ele>
        <time>2020-08-28T10:51:13Z</time>
      </trkpt>
      <trkpt lat="40.385964" lon="-1.125431">
        <ele>962.455</ele>
        <time>2020-08-28T10:51:14Z</time>
      </trkpt>
      <trkpt lat="40.385956" lon="-1.12536">
        <ele>962.333</ele>
        <time>2020-08-28T10:51:15Z</time>
      </trkpt>
      <trkpt lat="40.385952" lon="-1.12529">
        <ele>962.280</ele>
        <time>2020-08-28T10:51:16Z</time>
      </trkpt>
      <trkpt lat="40.38594" lon="-1.125219">
        <ele>962.288</ele>
        <time>2020-08-28T10:51:17Z</time>
      </trkpt>
      <trkpt lat="40.385926" lon="-1.125142">
        <ele>962.128</ele>
        <time>2020-08-28T10:51:18Z</time>
      </trkpt>
      <trkpt lat="40.385913" lon="-1.125076">
        <ele>962.013</ele>
        <time>2020-08-28T10:51:19Z</time>
      </trkpt>
      <trkpt lat="40.385906" lon="-1.125007">
        <ele>961.943</ele>
        <time>2020-08-28T10:51:20Z</time>
      </trkpt>
      <trkpt lat="40.385894" lon="-1.124934">
        <ele>961.807</ele>
        <time>2020-08-28T10:51:21Z</time>
      </trkpt>
      <trkpt lat="40.385889" lon="-1.124862">
        <ele>961.708</ele>
        <time>2020-08-28T10:51:22Z</time>
      </trkpt>
      <trkpt lat="40.385883" lon="-1.124791">
        <ele>961.586</ele>
        <time>2020-08-28T10:51:23Z</time>
      </trkpt>
      <trkpt lat="40.385873" lon="-1.124719">
        <ele>961.426</ele>
        <time>2020-08-28T10:51:24Z</time>
      </trkpt>
      <trkpt lat="40.385857" lon="-1.12464">
        <ele>961.368</ele>
        <time>2020-08-28T10:51:25Z</time>
      </trkpt>
      <trkpt lat="40.385849" lon="-1.124569">
        <ele>961.230</ele>
        <time>2020-08-28T10:51:26Z</time>
      </trkpt>
      <trkpt lat="40.385839" lon="-1.124503">
        <ele>961.138</ele>
        <time>2020-08-28T10:51:27Z</time>
      </trkpt>
      <trkpt lat="40.385831" lon="-1.124429">
        <ele>961.015</ele>
        <time>2020-08-28T10:51:28Z</time>
      </trkpt>
      <trkpt lat="40.38582" lon="-1.12435">
        <ele>960.933</ele>
        <time>2020-08-28T10:51:29Z</time>
      </trkpt>
      <trkpt lat="40.385811" lon="-1.124276">
        <ele>960.813</ele>
        <time>2020-08-28T10:51:30Z</time>
      </trkpt>
      <trkpt lat="40.3858" lon="-1.124202">
        <ele>960.773</ele>
        <time>2020-08-28T10:51:31Z</time>
      </trkpt>
      <trkpt lat="40.385791" lon="-1.124131">
        <ele>960.685</ele>
        <time>2020-08-28T10:51:32Z</time>
      </trkpt>
      <trkpt lat="40.38578" lon="-1.124058">
        <ele>960.513</ele>
        <time>2020-08-28T10:51:33Z</time>
      </trkpt>
      <trkpt lat="40.385768" lon="-1.123987">
        <ele>960.408</ele>
        <time>2020-08-28T10:51:34Z</time>
      </trkpt>
      <trkpt lat="40.38575" lon="-1.123914">
        <ele>960.352</ele>
        <time>2020-08-28T10:51:35Z</time>
      </trkpt>
      <trkpt lat="40.385738" lon="-1.123839">
        <ele>960.262</ele>
        <time>2020-08-28T10:51:36Z</time>
      </trkpt>
      <trkpt lat="40.38573" lon="-1.123771">
        <ele>960.184</ele>
        <time>2020-08-28T10:51:37Z</time>
      </trkpt>
      <trkpt lat="40.385723" lon="-1.123699">
        <ele>960.016</ele>
        <time>2020-08-28T10:51:38Z</time>
      </trkpt>
      <trkpt lat="40.38571" lon="-1.123619">
        <ele>960.074</ele>
        <time>2020-08-28T10:51:39Z</time>
      </trkpt>
      <trkpt lat="40.3857" lon="-1.123543">
        <ele>960.021</ele>
        <time>2020-08-28T10:51:40Z</time>
      </trkpt>
      <trkpt lat="40.38569" lon="-1.12347">
        <ele>960.079</ele>
        <time>2020-08-28T10:51:41Z</time>
      </trkpt>
      <trkpt lat="40.385681" lon="-1.123395">
        <ele>960.029</ele>
        <time>2020-08-28T10:51:42Z</time>
      </trkpt>
      <trkpt lat="40.385672" lon="-1.123315">
        <ele>959.985</ele>
        <time>2020-08-28T10:51:43Z</time>
      </trkpt>
      <trkpt lat="40.385669" lon="-1.123244">
        <ele>959.889</ele>
        <time>2020-08-28T10:51:44Z</time>
      </trkpt>
      <trkpt lat="40.385663" lon="-1.123173">
        <ele>959.717</ele>
        <time>2020-08-28T10:51:45Z</time>
      </trkpt>
      <trkpt lat="40.385653" lon="-1.123101">
        <ele>959.708</ele>
        <time>2020-08-28T10:51:46Z</time>
      </trkpt>
      <trkpt lat="40.385643" lon="-1.123029">
        <ele>959.763</ele>
        <time>2020-08-28T10:51:47Z</time>
      </trkpt>
      <trkpt lat="40.385631" lon="-1.122961">
        <ele>959.723</ele>
        <time>2020-08-28T10:51:48Z</time>
      </trkpt>
      <trkpt lat="40.385624" lon="-1.122892">
        <ele>959.785</ele>
        <time>2020-08-28T10:51:49Z</time>
      </trkpt>
      <trkpt lat="40.385618" lon="-1.122825">
        <ele>959.657</ele>
        <time>2020-08-28T10:51:50Z</time>
      </trkpt>
      <trkpt lat="40.385607" lon="-1.122756">
        <ele>959.545</ele>
        <time>2020-08-28T10:51:51Z</time>
      </trkpt>
      <trkpt lat="40.385596" lon="-1.122691">
        <ele>959.412</ele>
        <time>2020-08-28T10:51:52Z</time>
      </trkpt>
      <trkpt lat="40.385588" lon="-1.122628">
        <ele>959.390</ele>
        <time>2020-08-28T10:51:53Z</time>
      </trkpt>
      <trkpt lat="40.38558" lon="-1.122564">
        <ele>959.240</ele>
        <time>2020-08-28T10:51:54Z</time>
      </trkpt>
      <trkpt lat="40.385572" lon="-1.122504">
        <ele>959.123</ele>
        <time>2020-08-28T10:51:55Z</time>
      </trkpt>
      <trkpt lat="40.385564" lon="-1.122444">
        <ele>959.083</ele>
        <time>2020-08-28T10:51:56Z</time>
      </trkpt>
      <trkpt lat="40.385556" lon="-1.122383">
        <ele>958.911</ele>
        <time>2020-08-28T10:51:57Z</time>
      </trkpt>
      <trkpt lat="40.385548" lon="-1.122316">
        <ele>958.908</ele>
        <time>2020-08-28T10:51:58Z</time>
      </trkpt>
      <trkpt lat="40.385542" lon="-1.122256">
        <ele>958.937</ele>
        <time>2020-08-28T10:51:59Z</time>
      </trkpt>
      <trkpt lat="40.385536" lon="-1.122193">
        <ele>958.847</ele>
        <time>2020-08-28T10:52:00Z</time>
      </trkpt>
      <trkpt lat="40.385522" lon="-1.122124">
        <ele>958.779</ele>
        <time>2020-08-28T10:52:01Z</time>
      </trkpt>
      <trkpt lat="40.385517" lon="-1.12206">
        <ele>958.641</ele>
        <time>2020-08-28T10:52:02Z</time>
      </trkpt>
      <trkpt lat="40.385511" lon="-1.121993">
        <ele>958.549</ele>
        <time>2020-08-28T10:52:03Z</time>
      </trkpt>
      <trkpt lat="40.385501" lon="-1.121927">
        <ele>958.456</ele>
        <time>2020-08-28T10:52:04Z</time>
      </trkpt>
      <trkpt lat="40.38549" lon="-1.121862">
        <ele>958.364</ele>
        <time>2020-08-28T10:52:05Z</time>
      </trkpt>
      <trkpt lat="40.385486" lon="-1.121796">
        <ele>958.244</ele>
        <time>2020-08-28T10:52:06Z</time>
      </trkpt>
      <trkpt lat="40.385477" lon="-1.121723">
        <ele>958.181</ele>
        <time>2020-08-28T10:52:07Z</time>
      </trkpt>
      <trkpt lat="40.385467" lon="-1.121657">
        <ele>958.061</ele>
        <time>2020-08-28T10:52:08Z</time>
      </trkpt>
      <trkpt lat="40.385458" lon="-1.121587">
        <ele>957.917</ele>
        <time>2020-08-28T10:52:09Z</time>
      </trkpt>
      <trkpt lat="40.385447" lon="-1.121519">
        <ele>957.808</ele>
        <time>2020-08-28T10:52:10Z</time>
      </trkpt>
      <trkpt lat="40.385439" lon="-1.121448">
        <ele>957.763</ele>
        <time>2020-08-28T10:52:11Z</time>
      </trkpt>
      <trkpt lat="40.385428" lon="-1.121374">
        <ele>957.613</ele>
        <time>2020-08-28T10:52:12Z</time>
      </trkpt>
      <trkpt lat="40.385421" lon="-1.121306">
        <ele>957.545</ele>
        <time>2020-08-28T10:52:13Z</time>
      </trkpt>
      <trkpt lat="40.385412" lon="-1.12124">
        <ele>957.467</ele>
        <time>2020-08-28T10:52:14Z</time>
      </trkpt>
      <trkpt lat="40.3854" lon="-1.121169">
        <ele>957.495</ele>
        <time>2020-08-28T10:52:15Z</time>
      </trkpt>
      <trkpt lat="40.385388" lon="-1.121103">
        <ele>957.412</ele>
        <time>2020-08-28T10:52:16Z</time>
      </trkpt>
      <trkpt lat="40.385371" lon="-1.121035">
        <ele>957.360</ele>
        <time>2020-08-28T10:52:17Z</time>
      </trkpt>
      <trkpt lat="40.385357" lon="-1.12097">
        <ele>957.230</ele>
        <time>2020-08-28T10:52:18Z</time>
      </trkpt>
      <trkpt lat="40.385353" lon="-1.1209">
        <ele>957.148</ele>
        <time>2020-08-28T10:52:19Z</time>
      </trkpt>
      <trkpt lat="40.385344" lon="-1.120806">
        <ele>956.961</ele>
        <time>2020-08-28T10:52:21Z</time>
      </trkpt>
      <trkpt lat="40.385338" lon="-1.120731">
        <ele>956.917</ele>
        <time>2020-08-28T10:52:23Z</time>
      </trkpt>
      <trkpt lat="40.38532" lon="-1.120655">
        <ele>957.008</ele>
        <time>2020-08-28T10:52:25Z</time>
      </trkpt>
      <trkpt lat="40.385302" lon="-1.120559">
        <ele>957.079</ele>
        <time>2020-08-28T10:52:27Z</time>
      </trkpt>
      <trkpt lat="40.385289" lon="-1.120453">
        <ele>956.749</ele>
        <time>2020-08-28T10:52:29Z</time>
      </trkpt>
      <trkpt lat="40.385275" lon="-1.120346">
        <ele>956.691</ele>
        <time>2020-08-28T10:52:31Z</time>
      </trkpt>
      <trkpt lat="40.38526" lon="-1.120233">
        <ele>956.513</ele>
        <time>2020-08-28T10:52:33Z</time>
      </trkpt>
      <trkpt lat="40.385245" lon="-1.120116">
        <ele>956.591</ele>
        <time>2020-08-28T10:52:35Z</time>
      </trkpt>
      <trkpt lat="40.385237" lon="-1.120057">
        <ele>956.598</ele>
        <time>2020-08-28T10:52:36Z</time>
      </trkpt>
      <trkpt lat="40.385219" lon="-1.11994">
        <ele>956.456</ele>
        <time>2020-08-28T10:52:38Z</time>
      </trkpt>
      <trkpt lat="40.385213" lon="-1.119881">
        <ele>956.476</ele>
        <time>2020-08-28T10:52:39Z</time>
      </trkpt>
      <trkpt lat="40.385204" lon="-1.119816">
        <ele>956.455</ele>
        <time>2020-08-28T10:52:40Z</time>
      </trkpt>
      <trkpt lat="40.385195" lon="-1.119754">
        <ele>956.307</ele>
        <time>2020-08-28T10:52:41Z</time>
      </trkpt>
      <trkpt lat="40.385188" lon="-1.119691">
        <ele>956.217</ele>
        <time>2020-08-28T10:52:42Z</time>
      </trkpt>
      <trkpt lat="40.385181" lon="-1.119631">
        <ele>956.208</ele>
        <time>2020-08-28T10:52:43Z</time>
      </trkpt>
      <trkpt lat="40.385172" lon="-1.119571">
        <ele>956.270</ele>
        <time>2020-08-28T10:52:44Z</time>
      </trkpt>
      <trkpt lat="40.385162" lon="-1.119513">
        <ele>956.210</ele>
        <time>2020-08-28T10:52:45Z</time>
      </trkpt>
      <trkpt lat="40.385144" lon="-1.119403">
        <ele>956.162</ele>
        <time>2020-08-28T10:52:47Z</time>
      </trkpt>
      <trkpt lat="40.385128" lon="-1.119295">
        <ele>956.034</ele>
        <time>2020-08-28T10:52:49Z</time>
      </trkpt>
      <trkpt lat="40.38512" lon="-1.119181">
        <ele>955.872</ele>
        <time>2020-08-28T10:52:51Z</time>
      </trkpt>
      <trkpt lat="40.385105" lon="-1.119077">
        <ele>955.679</ele>
        <time>2020-08-28T10:52:53Z</time>
      </trkpt>
      <trkpt lat="40.385093" lon="-1.118963">
        <ele>955.417</ele>
        <time>2020-08-28T10:52:55Z</time>
      </trkpt>
      <trkpt lat="40.385086" lon="-1.118902">
        <ele>955.317</ele>
        <time>2020-08-28T10:52:56Z</time>
      </trkpt>
      <trkpt lat="40.385081" lon="-1.118843">
        <ele>955.249</ele>
        <time>2020-08-28T10:52:57Z</time>
      </trkpt>
      <trkpt lat="40.385071" lon="-1.118783">
        <ele>955.102</ele>
        <time>2020-08-28T10:52:58Z</time>
      </trkpt>
      <trkpt lat="40.385062" lon="-1.118725">
        <ele>955.122</ele>
        <time>2020-08-28T10:52:59Z</time>
      </trkpt>
      <trkpt lat="40.385052" lon="-1.118666">
        <ele>955.108</ele>
        <time>2020-08-28T10:53:00Z</time>
      </trkpt>
      <trkpt lat="40.385033" lon="-1.11855">
        <ele>955.079</ele>
        <time>2020-08-28T10:53:02Z</time>
      </trkpt>
      <trkpt lat="40.385026" lon="-1.118492">
        <ele>954.949</ele>
        <time>2020-08-28T10:53:03Z</time>
      </trkpt>
      <trkpt lat="40.385012" lon="-1.118379">
        <ele>954.791</ele>
        <time>2020-08-28T10:53:05Z</time>
      </trkpt>
      <trkpt lat="40.384999" lon="-1.11832">
        <ele>954.693</ele>
        <time>2020-08-28T10:53:06Z</time>
      </trkpt>
      <trkpt lat="40.384993" lon="-1.118261">
        <ele>954.571</ele>
        <time>2020-08-28T10:53:07Z</time>
      </trkpt>
      <trkpt lat="40.384977" lon="-1.118154">
        <ele>954.488</ele>
        <time>2020-08-28T10:53:09Z</time>
      </trkpt>
      <trkpt lat="40.384958" lon="-1.118039">
        <ele>954.366</ele>
        <time>2020-08-28T10:53:11Z</time>
      </trkpt>
      <trkpt lat="40.384939" lon="-1.117922">
        <ele>954.146</ele>
        <time>2020-08-28T10:53:13Z</time>
      </trkpt>
      <trkpt lat="40.384933" lon="-1.117862">
        <ele>954.084</ele>
        <time>2020-08-28T10:53:14Z</time>
      </trkpt>
      <trkpt lat="40.384912" lon="-1.117746">
        <ele>953.907</ele>
        <time>2020-08-28T10:53:16Z</time>
      </trkpt>
      <trkpt lat="40.384897" lon="-1.117634">
        <ele>953.917</ele>
        <time>2020-08-28T10:53:18Z</time>
      </trkpt>
      <trkpt lat="40.384891" lon="-1.117571">
        <ele>953.908</ele>
        <time>2020-08-28T10:53:19Z</time>
      </trkpt>
      <trkpt lat="40.384883" lon="-1.117507">
        <ele>953.813</ele>
        <time>2020-08-28T10:53:20Z</time>
      </trkpt>
      <trkpt lat="40.384873" lon="-1.117446">
        <ele>953.723</ele>
        <time>2020-08-28T10:53:21Z</time>
      </trkpt>
      <trkpt lat="40.384864" lon="-1.117381">
        <ele>953.695</ele>
        <time>2020-08-28T10:53:22Z</time>
      </trkpt>
      <trkpt lat="40.384859" lon="-1.117314">
        <ele>953.577</ele>
        <time>2020-08-28T10:53:23Z</time>
      </trkpt>
      <trkpt lat="40.384854" lon="-1.117252">
        <ele>953.495</ele>
        <time>2020-08-28T10:53:24Z</time>
      </trkpt>
      <trkpt lat="40.384843" lon="-1.117194">
        <ele>953.382</ele>
        <time>2020-08-28T10:53:25Z</time>
      </trkpt>
      <trkpt lat="40.384836" lon="-1.117132">
        <ele>953.210</ele>
        <time>2020-08-28T10:53:26Z</time>
      </trkpt>
      <trkpt lat="40.384827" lon="-1.117069">
        <ele>953.110</ele>
        <time>2020-08-28T10:53:27Z</time>
      </trkpt>
      <trkpt lat="40.384819" lon="-1.117006">
        <ele>953.152</ele>
        <time>2020-08-28T10:53:28Z</time>
      </trkpt>
      <trkpt lat="40.384813" lon="-1.11694">
        <ele>953.153</ele>
        <time>2020-08-28T10:53:29Z</time>
      </trkpt>
      <trkpt lat="40.3848" lon="-1.116874">
        <ele>953.008</ele>
        <time>2020-08-28T10:53:30Z</time>
      </trkpt>
      <trkpt lat="40.38479" lon="-1.116808">
        <ele>952.908</ele>
        <time>2020-08-28T10:53:31Z</time>
      </trkpt>
      <trkpt lat="40.384783" lon="-1.116742">
        <ele>952.950</ele>
        <time>2020-08-28T10:53:32Z</time>
      </trkpt>
      <trkpt lat="40.384772" lon="-1.116679">
        <ele>952.860</ele>
        <time>2020-08-28T10:53:33Z</time>
      </trkpt>
      <trkpt lat="40.38476" lon="-1.116615">
        <ele>952.792</ele>
        <time>2020-08-28T10:53:34Z</time>
      </trkpt>
      <trkpt lat="40.384744" lon="-1.116486">
        <ele>952.674</ele>
        <time>2020-08-28T10:53:36Z</time>
      </trkpt>
      <trkpt lat="40.384729" lon="-1.116421">
        <ele>952.552</ele>
        <time>2020-08-28T10:53:37Z</time>
      </trkpt>
      <trkpt lat="40.384721" lon="-1.116359">
        <ele>952.529</ele>
        <time>2020-08-28T10:53:38Z</time>
      </trkpt>
      <trkpt lat="40.384713" lon="-1.116292">
        <ele>952.517</ele>
        <time>2020-08-28T10:53:39Z</time>
      </trkpt>
      <trkpt lat="40.384708" lon="-1.116227">
        <ele>952.537</ele>
        <time>2020-08-28T10:53:40Z</time>
      </trkpt>
      <trkpt lat="40.384701" lon="-1.116165">
        <ele>952.545</ele>
        <time>2020-08-28T10:53:41Z</time>
      </trkpt>
      <trkpt lat="40.384688" lon="-1.116099">
        <ele>952.547</ele>
        <time>2020-08-28T10:53:42Z</time>
      </trkpt>
      <trkpt lat="40.384678" lon="-1.116032">
        <ele>952.411</ele>
        <time>2020-08-28T10:53:43Z</time>
      </trkpt>
      <trkpt lat="40.384662" lon="-1.115908">
        <ele>952.308</ele>
        <time>2020-08-28T10:53:45Z</time>
      </trkpt>
      <trkpt lat="40.384652" lon="-1.115848">
        <ele>952.339</ele>
        <time>2020-08-28T10:53:46Z</time>
      </trkpt>
      <trkpt lat="40.384648" lon="-1.115787">
        <ele>952.329</ele>
        <time>2020-08-28T10:53:47Z</time>
      </trkpt>
      <trkpt lat="40.384644" lon="-1.115728">
        <ele>952.381</ele>
        <time>2020-08-28T10:53:48Z</time>
      </trkpt>
      <trkpt lat="40.384643" lon="-1.115665">
        <ele>952.313</ele>
        <time>2020-08-28T10:53:49Z</time>
      </trkpt>
      <trkpt lat="40.384625" lon="-1.115607">
        <ele>952.281</ele>
        <time>2020-08-28T10:53:50Z</time>
      </trkpt>
      <trkpt lat="40.384617" lon="-1.115544">
        <ele>952.278</ele>
        <time>2020-08-28T10:53:51Z</time>
      </trkpt>
      <trkpt lat="40.384609" lon="-1.115476">
        <ele>952.176</ele>
        <time>2020-08-28T10:53:52Z</time>
      </trkpt>
      <trkpt lat="40.384588" lon="-1.115364">
        <ele>952.076</ele>
        <time>2020-08-28T10:53:54Z</time>
      </trkpt>
      <trkpt lat="40.384574" lon="-1.115252">
        <ele>951.839</ele>
        <time>2020-08-28T10:53:56Z</time>
      </trkpt>
      <trkpt lat="40.384558" lon="-1.11514">
        <ele>951.801</ele>
        <time>2020-08-28T10:53:58Z</time>
      </trkpt>
      <trkpt lat="40.384547" lon="-1.11508">
        <ele>951.821</ele>
        <time>2020-08-28T10:53:59Z</time>
      </trkpt>
      <trkpt lat="40.384531" lon="-1.115022">
        <ele>951.708</ele>
        <time>2020-08-28T10:54:00Z</time>
      </trkpt>
      <trkpt lat="40.384515" lon="-1.114912">
        <ele>951.688</ele>
        <time>2020-08-28T10:54:02Z</time>
      </trkpt>
      <trkpt lat="40.384494" lon="-1.114809">
        <ele>951.628</ele>
        <time>2020-08-28T10:54:04Z</time>
      </trkpt>
      <trkpt lat="40.384468" lon="-1.114693">
        <ele>951.640</ele>
        <time>2020-08-28T10:54:06Z</time>
      </trkpt>
      <trkpt lat="40.384453" lon="-1.114584">
        <ele>951.632</ele>
        <time>2020-08-28T10:54:08Z</time>
      </trkpt>
      <trkpt lat="40.384428" lon="-1.114476">
        <ele>951.620</ele>
        <time>2020-08-28T10:54:10Z</time>
      </trkpt>
      <trkpt lat="40.384402" lon="-1.114361">
        <ele>951.587</ele>
        <time>2020-08-28T10:54:12Z</time>
      </trkpt>
      <trkpt lat="40.384379" lon="-1.114251">
        <ele>951.535</ele>
        <time>2020-08-28T10:54:14Z</time>
      </trkpt>
      <trkpt lat="40.384361" lon="-1.114196">
        <ele>951.565</ele>
        <time>2020-08-28T10:54:15Z</time>
      </trkpt>
      <trkpt lat="40.384335" lon="-1.114089">
        <ele>951.595</ele>
        <time>2020-08-28T10:54:17Z</time>
      </trkpt>
      <trkpt lat="40.384314" lon="-1.113986">
        <ele>951.549</ele>
        <time>2020-08-28T10:54:19Z</time>
      </trkpt>
      <trkpt lat="40.384285" lon="-1.113887">
        <ele>951.523</ele>
        <time>2020-08-28T10:54:21Z</time>
      </trkpt>
      <trkpt lat="40.384259" lon="-1.113789">
        <ele>951.608</ele>
        <time>2020-08-28T10:54:23Z</time>
      </trkpt>
      <trkpt lat="40.384233" lon="-1.113682">
        <ele>951.674</ele>
        <time>2020-08-28T10:54:25Z</time>
      </trkpt>
      <trkpt lat="40.384205" lon="-1.113583">
        <ele>951.614</ele>
        <time>2020-08-28T10:54:27Z</time>
      </trkpt>
      <trkpt lat="40.384173" lon="-1.113483">
        <ele>951.686</ele>
        <time>2020-08-28T10:54:29Z</time>
      </trkpt>
      <trkpt lat="40.384142" lon="-1.113388">
        <ele>951.638</ele>
        <time>2020-08-28T10:54:31Z</time>
      </trkpt>
      <trkpt lat="40.384109" lon="-1.113291">
        <ele>951.716</ele>
        <time>2020-08-28T10:54:33Z</time>
      </trkpt>
      <trkpt lat="40.384078" lon="-1.113196">
        <ele>951.843</ele>
        <time>2020-08-28T10:54:35Z</time>
      </trkpt>
      <trkpt lat="40.384044" lon="-1.113101">
        <ele>951.981</ele>
        <time>2020-08-28T10:54:37Z</time>
      </trkpt>
      <trkpt lat="40.38401" lon="-1.112999">
        <ele>951.991</ele>
        <time>2020-08-28T10:54:39Z</time>
      </trkpt>
      <trkpt lat="40.383975" lon="-1.112898">
        <ele>951.893</ele>
        <time>2020-08-28T10:54:41Z</time>
      </trkpt>
      <trkpt lat="40.383941" lon="-1.112801">
        <ele>951.765</ele>
        <time>2020-08-28T10:54:43Z</time>
      </trkpt>
      <trkpt lat="40.383906" lon="-1.112699">
        <ele>951.721</ele>
        <time>2020-08-28T10:54:45Z</time>
      </trkpt>
      <trkpt lat="40.383869" lon="-1.112602">
        <ele>951.708</ele>
        <time>2020-08-28T10:54:47Z</time>
      </trkpt>
      <trkpt lat="40.383834" lon="-1.112507">
        <ele>951.624</ele>
        <time>2020-08-28T10:54:49Z</time>
      </trkpt>
      <trkpt lat="40.383795" lon="-1.112402">
        <ele>951.544</ele>
        <time>2020-08-28T10:54:51Z</time>
      </trkpt>
      <trkpt lat="40.383758" lon="-1.112315">
        <ele>951.586</ele>
        <time>2020-08-28T10:54:53Z</time>
      </trkpt>
      <trkpt lat="40.383724" lon="-1.112217">
        <ele>951.618</ele>
        <time>2020-08-28T10:54:55Z</time>
      </trkpt>
      <trkpt lat="40.383684" lon="-1.112121">
        <ele>951.786</ele>
        <time>2020-08-28T10:54:57Z</time>
      </trkpt>
      <trkpt lat="40.383645" lon="-1.112023">
        <ele>951.783</ele>
        <time>2020-08-28T10:54:59Z</time>
      </trkpt>
      <trkpt lat="40.383608" lon="-1.111926">
        <ele>951.661</ele>
        <time>2020-08-28T10:55:01Z</time>
      </trkpt>
      <trkpt lat="40.383569" lon="-1.111827">
        <ele>951.521</ele>
        <time>2020-08-28T10:55:03Z</time>
      </trkpt>
      <trkpt lat="40.383547" lon="-1.111775">
        <ele>951.568</ele>
        <time>2020-08-28T10:55:04Z</time>
      </trkpt>
      <trkpt lat="40.383504" lon="-1.111667">
        <ele>951.442</ele>
        <time>2020-08-28T10:55:06Z</time>
      </trkpt>
      <trkpt lat="40.383463" lon="-1.111567">
        <ele>951.226</ele>
        <time>2020-08-28T10:55:08Z</time>
      </trkpt>
      <trkpt lat="40.383442" lon="-1.111513">
        <ele>951.108</ele>
        <time>2020-08-28T10:55:09Z</time>
      </trkpt>
      <trkpt lat="40.383402" lon="-1.111405">
        <ele>951.081</ele>
        <time>2020-08-28T10:55:11Z</time>
      </trkpt>
      <trkpt lat="40.383382" lon="-1.111347">
        <ele>950.921</ele>
        <time>2020-08-28T10:55:12Z</time>
      </trkpt>
      <trkpt lat="40.383355" lon="-1.111298">
        <ele>950.973</ele>
        <time>2020-08-28T10:55:13Z</time>
      </trkpt>
      <trkpt lat="40.383333" lon="-1.111245">
        <ele>950.825</ele>
        <time>2020-08-28T10:55:14Z</time>
      </trkpt>
      <trkpt lat="40.383308" lon="-1.111189">
        <ele>950.783</ele>
        <time>2020-08-28T10:55:15Z</time>
      </trkpt>
      <trkpt lat="40.38329" lon="-1.111133">
        <ele>950.620</ele>
        <time>2020-08-28T10:55:16Z</time>
      </trkpt>
      <trkpt lat="40.383272" lon="-1.111074">
        <ele>950.518</ele>
        <time>2020-08-28T10:55:17Z</time>
      </trkpt>
      <trkpt lat="40.383255" lon="-1.111018">
        <ele>950.458</ele>
        <time>2020-08-28T10:55:18Z</time>
      </trkpt>
      <trkpt lat="40.38323" lon="-1.11096">
        <ele>950.417</ele>
        <time>2020-08-28T10:55:19Z</time>
      </trkpt>
      <trkpt lat="40.383208" lon="-1.110903">
        <ele>950.487</ele>
        <time>2020-08-28T10:55:20Z</time>
      </trkpt>
      <trkpt lat="40.383184" lon="-1.110845">
        <ele>950.415</ele>
        <time>2020-08-28T10:55:21Z</time>
      </trkpt>
      <trkpt lat="40.38314" lon="-1.110736">
        <ele>950.308</ele>
        <time>2020-08-28T10:55:23Z</time>
      </trkpt>
      <trkpt lat="40.383121" lon="-1.110677">
        <ele>950.216</ele>
        <time>2020-08-28T10:55:24Z</time>
      </trkpt>
      <trkpt lat="40.383096" lon="-1.110623">
        <ele>950.266</ele>
        <time>2020-08-28T10:55:25Z</time>
      </trkpt>
      <trkpt lat="40.383071" lon="-1.110569">
        <ele>950.248</ele>
        <time>2020-08-28T10:55:26Z</time>
      </trkpt>
      <trkpt lat="40.383047" lon="-1.110513">
        <ele>950.120</ele>
        <time>2020-08-28T10:55:27Z</time>
      </trkpt>
      <trkpt lat="40.383025" lon="-1.110455">
        <ele>950.038</ele>
        <time>2020-08-28T10:55:28Z</time>
      </trkpt>
      <trkpt lat="40.383" lon="-1.110399">
        <ele>949.985</ele>
        <time>2020-08-28T10:55:29Z</time>
      </trkpt>
      <trkpt lat="40.382973" lon="-1.110344">
        <ele>949.893</ele>
        <time>2020-08-28T10:55:30Z</time>
      </trkpt>
      <trkpt lat="40.382956" lon="-1.110284">
        <ele>949.623</ele>
        <time>2020-08-28T10:55:31Z</time>
      </trkpt>
      <trkpt lat="40.382934" lon="-1.11023">
        <ele>949.555</ele>
        <time>2020-08-28T10:55:32Z</time>
      </trkpt>
      <trkpt lat="40.382915" lon="-1.110172">
        <ele>949.407</ele>
        <time>2020-08-28T10:55:33Z</time>
      </trkpt>
      <trkpt lat="40.382892" lon="-1.110114">
        <ele>949.317</ele>
        <time>2020-08-28T10:55:34Z</time>
      </trkpt>
      <trkpt lat="40.382864" lon="-1.110062">
        <ele>949.208</ele>
        <time>2020-08-28T10:55:35Z</time>
      </trkpt>
      <trkpt lat="40.382841" lon="-1.109999">
        <ele>949.230</ele>
        <time>2020-08-28T10:55:36Z</time>
      </trkpt>
      <trkpt lat="40.382821" lon="-1.109936">
        <ele>949.110</ele>
        <time>2020-08-28T10:55:37Z</time>
      </trkpt>
      <trkpt lat="40.382796" lon="-1.109884">
        <ele>949.142</ele>
        <time>2020-08-28T10:55:38Z</time>
      </trkpt>
      <trkpt lat="40.382768" lon="-1.109833">
        <ele>949.194</ele>
        <time>2020-08-28T10:55:39Z</time>
      </trkpt>
      <trkpt lat="40.382748" lon="-1.109777">
        <ele>949.092</ele>
        <time>2020-08-28T10:55:40Z</time>
      </trkpt>
      <trkpt lat="40.382734" lon="-1.109713">
        <ele>948.999</ele>
        <time>2020-08-28T10:55:41Z</time>
      </trkpt>
      <trkpt lat="40.382712" lon="-1.109656">
        <ele>948.927</ele>
        <time>2020-08-28T10:55:42Z</time>
      </trkpt>
      <trkpt lat="40.382689" lon="-1.109604">
        <ele>948.827</ele>
        <time>2020-08-28T10:55:43Z</time>
      </trkpt>
      <trkpt lat="40.382666" lon="-1.109549">
        <ele>948.733</ele>
        <time>2020-08-28T10:55:44Z</time>
      </trkpt>
      <trkpt lat="40.382646" lon="-1.109496">
        <ele>948.623</ele>
        <time>2020-08-28T10:55:45Z</time>
      </trkpt>
      <trkpt lat="40.3826" lon="-1.109392">
        <ele>948.515</ele>
        <time>2020-08-28T10:55:47Z</time>
      </trkpt>
      <trkpt lat="40.382576" lon="-1.109339">
        <ele>948.408</ele>
        <time>2020-08-28T10:55:48Z</time>
      </trkpt>
      <trkpt lat="40.382553" lon="-1.109286">
        <ele>948.378</ele>
        <time>2020-08-28T10:55:49Z</time>
      </trkpt>
      <trkpt lat="40.38253" lon="-1.10923">
        <ele>948.358</ele>
        <time>2020-08-28T10:55:50Z</time>
      </trkpt>
      <trkpt lat="40.382485" lon="-1.109118">
        <ele>948.210</ele>
        <time>2020-08-28T10:55:52Z</time>
      </trkpt>
      <trkpt lat="40.382465" lon="-1.109062">
        <ele>948.182</ele>
        <time>2020-08-28T10:55:53Z</time>
      </trkpt>
      <trkpt lat="40.382444" lon="-1.109002">
        <ele>948.060</ele>
        <time>2020-08-28T10:55:54Z</time>
      </trkpt>
      <trkpt lat="40.38242" lon="-1.108946">
        <ele>947.947</ele>
        <time>2020-08-28T10:55:55Z</time>
      </trkpt>
      <trkpt lat="40.382395" lon="-1.108891">
        <ele>947.855</ele>
        <time>2020-08-28T10:55:56Z</time>
      </trkpt>
      <trkpt lat="40.382374" lon="-1.10883">
        <ele>947.755</ele>
        <time>2020-08-28T10:55:57Z</time>
      </trkpt>
      <trkpt lat="40.382353" lon="-1.108771">
        <ele>947.654</ele>
        <time>2020-08-28T10:55:58Z</time>
      </trkpt>
      <trkpt lat="40.382329" lon="-1.108713">
        <ele>947.556</ele>
        <time>2020-08-28T10:55:59Z</time>
      </trkpt>
      <trkpt lat="40.382307" lon="-1.108661">
        <ele>947.411</ele>
        <time>2020-08-28T10:56:00Z</time>
      </trkpt>
      <trkpt lat="40.382287" lon="-1.108606">
        <ele>947.308</ele>
        <time>2020-08-28T10:56:01Z</time>
      </trkpt>
      <trkpt lat="40.382267" lon="-1.108548">
        <ele>947.230</ele>
        <time>2020-08-28T10:56:02Z</time>
      </trkpt>
      <trkpt lat="40.382244" lon="-1.108491">
        <ele>947.130</ele>
        <time>2020-08-28T10:56:03Z</time>
      </trkpt>
      <trkpt lat="40.382224" lon="-1.108437">
        <ele>947.162</ele>
        <time>2020-08-28T10:56:04Z</time>
      </trkpt>
      <trkpt lat="40.382199" lon="-1.10838">
        <ele>947.174</ele>
        <time>2020-08-28T10:56:05Z</time>
      </trkpt>
      <trkpt lat="40.382154" lon="-1.108269">
        <ele>946.962</ele>
        <time>2020-08-28T10:56:07Z</time>
      </trkpt>
      <trkpt lat="40.382131" lon="-1.108217">
        <ele>946.889</ele>
        <time>2020-08-28T10:56:08Z</time>
      </trkpt>
      <trkpt lat="40.382111" lon="-1.108163">
        <ele>946.757</ele>
        <time>2020-08-28T10:56:09Z</time>
      </trkpt>
      <trkpt lat="40.382086" lon="-1.108107">
        <ele>946.637</ele>
        <time>2020-08-28T10:56:10Z</time>
      </trkpt>
      <trkpt lat="40.38206" lon="-1.108057">
        <ele>946.561</ele>
        <time>2020-08-28T10:56:11Z</time>
      </trkpt>
      <trkpt lat="40.382038" lon="-1.108005">
        <ele>946.421</ele>
        <time>2020-08-28T10:56:12Z</time>
      </trkpt>
      <trkpt lat="40.382021" lon="-1.10795">
        <ele>946.313</ele>
        <time>2020-08-28T10:56:13Z</time>
      </trkpt>
      <trkpt lat="40.382" lon="-1.107892">
        <ele>946.208</ele>
        <time>2020-08-28T10:56:14Z</time>
      </trkpt>
      <trkpt lat="40.381978" lon="-1.107835">
        <ele>946.181</ele>
        <time>2020-08-28T10:56:15Z</time>
      </trkpt>
      <trkpt lat="40.381954" lon="-1.107779">
        <ele>946.091</ele>
        <time>2020-08-28T10:56:16Z</time>
      </trkpt>
      <trkpt lat="40.381931" lon="-1.107725">
        <ele>945.983</ele>
        <time>2020-08-28T10:56:17Z</time>
      </trkpt>
      <trkpt lat="40.381912" lon="-1.107668">
        <ele>945.815</ele>
        <time>2020-08-28T10:56:18Z</time>
      </trkpt>
      <trkpt lat="40.381892" lon="-1.107612">
        <ele>945.893</ele>
        <time>2020-08-28T10:56:19Z</time>
      </trkpt>
      <trkpt lat="40.381872" lon="-1.107559">
        <ele>945.790</ele>
        <time>2020-08-28T10:56:20Z</time>
      </trkpt>
      <trkpt lat="40.381847" lon="-1.1075">
        <ele>945.698</ele>
        <time>2020-08-28T10:56:21Z</time>
      </trkpt>
      <trkpt lat="40.381825" lon="-1.107441">
        <ele>945.558</ele>
        <time>2020-08-28T10:56:22Z</time>
      </trkpt>
      <trkpt lat="40.381803" lon="-1.107387">
        <ele>945.443</ele>
        <time>2020-08-28T10:56:23Z</time>
      </trkpt>
      <trkpt lat="40.381783" lon="-1.107324">
        <ele>945.364</ele>
        <time>2020-08-28T10:56:24Z</time>
      </trkpt>
      <trkpt lat="40.381756" lon="-1.107268">
        <ele>945.210</ele>
        <time>2020-08-28T10:56:25Z</time>
      </trkpt>
      <trkpt lat="40.381728" lon="-1.107212">
        <ele>945.108</ele>
        <time>2020-08-28T10:56:26Z</time>
      </trkpt>
      <trkpt lat="40.381706" lon="-1.10715">
        <ele>945.059</ele>
        <time>2020-08-28T10:56:27Z</time>
      </trkpt>
      <trkpt lat="40.381681" lon="-1.107089">
        <ele>944.899</ele>
        <time>2020-08-28T10:56:28Z</time>
      </trkpt>
      <trkpt lat="40.381656" lon="-1.107039">
        <ele>944.721</ele>
        <time>2020-08-28T10:56:29Z</time>
      </trkpt>
      <trkpt lat="40.381634" lon="-1.106981">
        <ele>944.683</ele>
        <time>2020-08-28T10:56:30Z</time>
      </trkpt>
      <trkpt lat="40.38161" lon="-1.106922">
        <ele>944.551</ele>
        <time>2020-08-28T10:56:31Z</time>
      </trkpt>
      <trkpt lat="40.381582" lon="-1.106867">
        <ele>944.418</ele>
        <time>2020-08-28T10:56:32Z</time>
      </trkpt>
      <trkpt lat="40.38156" lon="-1.106804">
        <ele>944.376</ele>
        <time>2020-08-28T10:56:33Z</time>
      </trkpt>
      <trkpt lat="40.381541" lon="-1.106743">
        <ele>944.266</ele>
        <time>2020-08-28T10:56:34Z</time>
      </trkpt>
      <trkpt lat="40.381517" lon="-1.106686">
        <ele>944.169</ele>
        <time>2020-08-28T10:56:35Z</time>
      </trkpt>
      <trkpt lat="40.381494" lon="-1.106632">
        <ele>944.004</ele>
        <time>2020-08-28T10:56:36Z</time>
      </trkpt>
      <trkpt lat="40.381469" lon="-1.106569">
        <ele>944.024</ele>
        <time>2020-08-28T10:56:37Z</time>
      </trkpt>
      <trkpt lat="40.381442" lon="-1.106513">
        <ele>944.008</ele>
        <time>2020-08-28T10:56:38Z</time>
      </trkpt>
      <trkpt lat="40.381418" lon="-1.106455">
        <ele>944.051</ele>
        <time>2020-08-28T10:56:39Z</time>
      </trkpt>
      <trkpt lat="40.381395" lon="-1.106395">
        <ele>944.021</ele>
        <time>2020-08-28T10:56:40Z</time>
      </trkpt>
      <trkpt lat="40.381374" lon="-1.106335">
        <ele>944.063</ele>
        <time>2020-08-28T10:56:41Z</time>
      </trkpt>
      <trkpt lat="40.381347" lon="-1.106274">
        <ele>944.045</ele>
        <time>2020-08-28T10:56:42Z</time>
      </trkpt>
      <trkpt lat="40.381318" lon="-1.106212">
        <ele>943.973</ele>
        <time>2020-08-28T10:56:43Z</time>
      </trkpt>
      <trkpt lat="40.381296" lon="-1.106151">
        <ele>943.860</ele>
        <time>2020-08-28T10:56:44Z</time>
      </trkpt>
      <trkpt lat="40.381264" lon="-1.106101">
        <ele>943.748</ele>
        <time>2020-08-28T10:56:45Z</time>
      </trkpt>
      <trkpt lat="40.381242" lon="-1.106038">
        <ele>943.658</ele>
        <time>2020-08-28T10:56:46Z</time>
      </trkpt>
      <trkpt lat="40.381215" lon="-1.105986">
        <ele>943.519</ele>
        <time>2020-08-28T10:56:47Z</time>
      </trkpt>
      <trkpt lat="40.381195" lon="-1.105925">
        <ele>943.409</ele>
        <time>2020-08-28T10:56:48Z</time>
      </trkpt>
      <trkpt lat="40.381166" lon="-1.105861">
        <ele>943.219</ele>
        <time>2020-08-28T10:56:49Z</time>
      </trkpt>
      <trkpt lat="40.381148" lon="-1.105801">
        <ele>943.108</ele>
        <time>2020-08-28T10:56:50Z</time>
      </trkpt>
      <trkpt lat="40.381121" lon="-1.105742">
        <ele>943.096</ele>
        <time>2020-08-28T10:56:51Z</time>
      </trkpt>
      <trkpt lat="40.381086" lon="-1.105625">
        <ele>942.886</ele>
        <time>2020-08-28T10:56:53Z</time>
      </trkpt>
      <trkpt lat="40.381059" lon="-1.105562">
        <ele>942.748</ele>
        <time>2020-08-28T10:56:54Z</time>
      </trkpt>
      <trkpt lat="40.381036" lon="-1.105506">
        <ele>942.690</ele>
        <time>2020-08-28T10:56:55Z</time>
      </trkpt>
      <trkpt lat="40.381018" lon="-1.105445">
        <ele>942.538</ele>
        <time>2020-08-28T10:56:56Z</time>
      </trkpt>
      <trkpt lat="40.380996" lon="-1.105384">
        <ele>942.465</ele>
        <time>2020-08-28T10:56:57Z</time>
      </trkpt>
      <trkpt lat="40.380973" lon="-1.105325">
        <ele>942.313</ele>
        <time>2020-08-28T10:56:58Z</time>
      </trkpt>
      <trkpt lat="40.380951" lon="-1.105262">
        <ele>942.253</ele>
        <time>2020-08-28T10:56:59Z</time>
      </trkpt>
      <trkpt lat="40.38093" lon="-1.1052">
        <ele>942.117</ele>
        <time>2020-08-28T10:57:00Z</time>
      </trkpt>
      <trkpt lat="40.380906" lon="-1.10514">
        <ele>942.087</ele>
        <time>2020-08-28T10:57:01Z</time>
      </trkpt>
      <trkpt lat="40.380883" lon="-1.105086">
        <ele>941.915</ele>
        <time>2020-08-28T10:57:02Z</time>
      </trkpt>
      <trkpt lat="40.380862" lon="-1.105028">
        <ele>941.808</ele>
        <time>2020-08-28T10:57:03Z</time>
      </trkpt>
      <trkpt lat="40.380836" lon="-1.104971">
        <ele>941.796</ele>
        <time>2020-08-28T10:57:04Z</time>
      </trkpt>
      <trkpt lat="40.380816" lon="-1.104914">
        <ele>941.616</ele>
        <time>2020-08-28T10:57:05Z</time>
      </trkpt>
      <trkpt lat="40.380794" lon="-1.104854">
        <ele>941.588</ele>
        <time>2020-08-28T10:57:06Z</time>
      </trkpt>
      <trkpt lat="40.380771" lon="-1.104801">
        <ele>941.460</ele>
        <time>2020-08-28T10:57:07Z</time>
      </trkpt>
      <trkpt lat="40.380744" lon="-1.10474">
        <ele>941.498</ele>
        <time>2020-08-28T10:57:08Z</time>
      </trkpt>
      <trkpt lat="40.38072" lon="-1.104678">
        <ele>941.435</ele>
        <time>2020-08-28T10:57:09Z</time>
      </trkpt>
      <trkpt lat="40.380702" lon="-1.104623">
        <ele>941.433</ele>
        <time>2020-08-28T10:57:10Z</time>
      </trkpt>
      <trkpt lat="40.38068" lon="-1.104569">
        <ele>941.323</ele>
        <time>2020-08-28T10:57:11Z</time>
      </trkpt>
      <trkpt lat="40.380659" lon="-1.104515">
        <ele>941.261</ele>
        <time>2020-08-28T10:57:12Z</time>
      </trkpt>
      <trkpt lat="40.380635" lon="-1.104462">
        <ele>941.121</ele>
        <time>2020-08-28T10:57:13Z</time>
      </trkpt>
      <trkpt lat="40.380594" lon="-1.104356">
        <ele>941.013</ele>
        <time>2020-08-28T10:57:15Z</time>
      </trkpt>
      <trkpt lat="40.380571" lon="-1.104302">
        <ele>940.908</ele>
        <time>2020-08-28T10:57:16Z</time>
      </trkpt>
      <trkpt lat="40.380547" lon="-1.104249">
        <ele>940.861</ele>
        <time>2020-08-28T10:57:17Z</time>
      </trkpt>
      <trkpt lat="40.380527" lon="-1.104194">
        <ele>940.721</ele>
        <time>2020-08-28T10:57:18Z</time>
      </trkpt>
      <trkpt lat="40.380509" lon="-1.104136">
        <ele>940.683</ele>
        <time>2020-08-28T10:57:19Z</time>
      </trkpt>
      <trkpt lat="40.380486" lon="-1.10408">
        <ele>940.595</ele>
        <time>2020-08-28T10:57:20Z</time>
      </trkpt>
      <trkpt lat="40.380463" lon="-1.104022">
        <ele>940.443</ele>
        <time>2020-08-28T10:57:21Z</time>
      </trkpt>
      <trkpt lat="40.380438" lon="-1.103966">
        <ele>940.330</ele>
        <time>2020-08-28T10:57:22Z</time>
      </trkpt>
      <trkpt lat="40.380412" lon="-1.103913">
        <ele>940.238</ele>
        <time>2020-08-28T10:57:23Z</time>
      </trkpt>
      <trkpt lat="40.380392" lon="-1.103855">
        <ele>940.138</ele>
        <time>2020-08-28T10:57:24Z</time>
      </trkpt>
      <trkpt lat="40.38037" lon="-1.103796">
        <ele>940.073</ele>
        <time>2020-08-28T10:57:25Z</time>
      </trkpt>
      <trkpt lat="40.380346" lon="-1.103736">
        <ele>939.985</ele>
        <time>2020-08-28T10:57:26Z</time>
      </trkpt>
      <trkpt lat="40.380324" lon="-1.103682">
        <ele>939.813</ele>
        <time>2020-08-28T10:57:27Z</time>
      </trkpt>
      <trkpt lat="40.380302" lon="-1.103626">
        <ele>939.708</ele>
        <time>2020-08-28T10:57:28Z</time>
      </trkpt>
      <trkpt lat="40.380279" lon="-1.10357">
        <ele>939.652</ele>
        <time>2020-08-28T10:57:29Z</time>
      </trkpt>
      <trkpt lat="40.380256" lon="-1.103516">
        <ele>939.522</ele>
        <time>2020-08-28T10:57:30Z</time>
      </trkpt>
      <trkpt lat="40.380231" lon="-1.103462">
        <ele>939.454</ele>
        <time>2020-08-28T10:57:31Z</time>
      </trkpt>
      <trkpt lat="40.380202" lon="-1.103343">
        <ele>939.226</ele>
        <time>2020-08-28T10:57:33Z</time>
      </trkpt>
      <trkpt lat="40.380174" lon="-1.103287">
        <ele>939.154</ele>
        <time>2020-08-28T10:57:34Z</time>
      </trkpt>
      <trkpt lat="40.380147" lon="-1.103234">
        <ele>939.021</ele>
        <time>2020-08-28T10:57:35Z</time>
      </trkpt>
      <trkpt lat="40.380135" lon="-1.103177">
        <ele>938.929</ele>
        <time>2020-08-28T10:57:36Z</time>
      </trkpt>
      <trkpt lat="40.380113" lon="-1.10312">
        <ele>938.859</ele>
        <time>2020-08-28T10:57:37Z</time>
      </trkpt>
      <trkpt lat="40.380088" lon="-1.103064">
        <ele>938.742</ele>
        <time>2020-08-28T10:57:38Z</time>
      </trkpt>
      <trkpt lat="40.380066" lon="-1.10301">
        <ele>938.622</ele>
        <time>2020-08-28T10:57:39Z</time>
      </trkpt>
      <trkpt lat="40.380043" lon="-1.102951">
        <ele>938.514</ele>
        <time>2020-08-28T10:57:40Z</time>
      </trkpt>
      <trkpt lat="40.380023" lon="-1.102895">
        <ele>938.408</ele>
        <time>2020-08-28T10:57:41Z</time>
      </trkpt>
      <trkpt lat="40.380003" lon="-1.102837">
        <ele>938.389</ele>
        <time>2020-08-28T10:57:42Z</time>
      </trkpt>
      <trkpt lat="40.379979" lon="-1.102778">
        <ele>938.239</ele>
        <time>2020-08-28T10:57:43Z</time>
      </trkpt>
      <trkpt lat="40.379954" lon="-1.10272">
        <ele>938.151</ele>
        <time>2020-08-28T10:57:44Z</time>
      </trkpt>
      <trkpt lat="40.379931" lon="-1.102661">
        <ele>938.013</ele>
        <time>2020-08-28T10:57:45Z</time>
      </trkpt>
      <trkpt lat="40.379911" lon="-1.102601">
        <ele>937.931</ele>
        <time>2020-08-28T10:57:46Z</time>
      </trkpt>
      <trkpt lat="40.379887" lon="-1.102539">
        <ele>937.898</ele>
        <time>2020-08-28T10:57:47Z</time>
      </trkpt>
      <trkpt lat="40.379862" lon="-1.102479">
        <ele>937.786</ele>
        <time>2020-08-28T10:57:48Z</time>
      </trkpt>
      <trkpt lat="40.379838" lon="-1.102421">
        <ele>937.616</ele>
        <time>2020-08-28T10:57:49Z</time>
      </trkpt>
      <trkpt lat="40.379812" lon="-1.102361">
        <ele>937.543</ele>
        <time>2020-08-28T10:57:50Z</time>
      </trkpt>
      <trkpt lat="40.37979" lon="-1.102299">
        <ele>937.464</ele>
        <time>2020-08-28T10:57:51Z</time>
      </trkpt>
      <trkpt lat="40.379767" lon="-1.102237">
        <ele>937.310</ele>
        <time>2020-08-28T10:57:52Z</time>
      </trkpt>
      <trkpt lat="40.379747" lon="-1.102181">
        <ele>937.208</ele>
        <time>2020-08-28T10:57:53Z</time>
      </trkpt>
      <trkpt lat="40.379726" lon="-1.10212">
        <ele>937.169</ele>
        <time>2020-08-28T10:57:54Z</time>
      </trkpt>
      <trkpt lat="40.379703" lon="-1.102061">
        <ele>937.079</ele>
        <time>2020-08-28T10:57:55Z</time>
      </trkpt>
      <trkpt lat="40.379681" lon="-1.102003">
        <ele>936.991</ele>
        <time>2020-08-28T10:57:56Z</time>
      </trkpt>
      <trkpt lat="40.379658" lon="-1.10195">
        <ele>936.833</ele>
        <time>2020-08-28T10:57:57Z</time>
      </trkpt>
      <trkpt lat="40.379632" lon="-1.101891">
        <ele>936.791</ele>
        <time>2020-08-28T10:57:58Z</time>
      </trkpt>
      <trkpt lat="40.379613" lon="-1.101833">
        <ele>936.688</ele>
        <time>2020-08-28T10:57:59Z</time>
      </trkpt>
      <trkpt lat="40.379591" lon="-1.101773">
        <ele>936.576</ele>
        <time>2020-08-28T10:58:00Z</time>
      </trkpt>
      <trkpt lat="40.379565" lon="-1.101714">
        <ele>936.466</ele>
        <time>2020-08-28T10:58:01Z</time>
      </trkpt>
      <trkpt lat="40.379542" lon="-1.101656">
        <ele>936.451</ele>
        <time>2020-08-28T10:58:02Z</time>
      </trkpt>
      <trkpt lat="40.379518" lon="-1.101596">
        <ele>936.301</ele>
        <time>2020-08-28T10:58:03Z</time>
      </trkpt>
      <trkpt lat="40.379495" lon="-1.10154">
        <ele>936.211</ele>
        <time>2020-08-28T10:58:04Z</time>
      </trkpt>
      <trkpt lat="40.379474" lon="-1.101482">
        <ele>936.108</ele>
        <time>2020-08-28T10:58:05Z</time>
      </trkpt>
      <trkpt lat="40.379454" lon="-1.101424">
        <ele>936.040</ele>
        <time>2020-08-28T10:58:06Z</time>
      </trkpt>
      <trkpt lat="40.379427" lon="-1.101371">
        <ele>935.830</ele>
        <time>2020-08-28T10:58:07Z</time>
      </trkpt>
      <trkpt lat="40.379403" lon="-1.101309">
        <ele>935.722</ele>
        <time>2020-08-28T10:58:08Z</time>
      </trkpt>
      <trkpt lat="40.379385" lon="-1.101246">
        <ele>935.634</ele>
        <time>2020-08-28T10:58:09Z</time>
      </trkpt>
      <trkpt lat="40.379361" lon="-1.101188">
        <ele>935.532</ele>
        <time>2020-08-28T10:58:10Z</time>
      </trkpt>
      <trkpt lat="40.379335" lon="-1.101123">
        <ele>935.439</ele>
        <time>2020-08-28T10:58:11Z</time>
      </trkpt>
      <trkpt lat="40.379308" lon="-1.10106">
        <ele>935.357</ele>
        <time>2020-08-28T10:58:12Z</time>
      </trkpt>
      <trkpt lat="40.379286" lon="-1.100996">
        <ele>935.277</ele>
        <time>2020-08-28T10:58:13Z</time>
      </trkpt>
      <trkpt lat="40.379262" lon="-1.100939">
        <ele>935.152</ele>
        <time>2020-08-28T10:58:14Z</time>
      </trkpt>
      <trkpt lat="40.379237" lon="-1.100877">
        <ele>935.053</ele>
        <time>2020-08-28T10:58:15Z</time>
      </trkpt>
      <trkpt lat="40.379213" lon="-1.100812">
        <ele>934.808</ele>
        <time>2020-08-28T10:58:16Z</time>
      </trkpt>
      <trkpt lat="40.379186" lon="-1.100753">
        <ele>934.708</ele>
        <time>2020-08-28T10:58:17Z</time>
      </trkpt>
      <trkpt lat="40.379161" lon="-1.100685">
        <ele>934.650</ele>
        <time>2020-08-28T10:58:18Z</time>
      </trkpt>
      <trkpt lat="40.37914" lon="-1.100625">
        <ele>934.520</ele>
        <time>2020-08-28T10:58:19Z</time>
      </trkpt>
      <trkpt lat="40.379115" lon="-1.100563">
        <ele>934.492</ele>
        <time>2020-08-28T10:58:20Z</time>
      </trkpt>
      <trkpt lat="40.379087" lon="-1.100496">
        <ele>934.364</ele>
        <time>2020-08-28T10:58:21Z</time>
      </trkpt>
      <trkpt lat="40.379059" lon="-1.100429">
        <ele>934.262</ele>
        <time>2020-08-28T10:58:22Z</time>
      </trkpt>
      <trkpt lat="40.379035" lon="-1.100369">
        <ele>934.119</ele>
        <time>2020-08-28T10:58:23Z</time>
      </trkpt>
      <trkpt lat="40.37901" lon="-1.1003">
        <ele>934.067</ele>
        <time>2020-08-28T10:58:24Z</time>
      </trkpt>
      <trkpt lat="40.378986" lon="-1.100238">
        <ele>933.917</ele>
        <time>2020-08-28T10:58:25Z</time>
      </trkpt>
      <trkpt lat="40.378958" lon="-1.100174">
        <ele>933.858</ele>
        <time>2020-08-28T10:58:26Z</time>
      </trkpt>
      <trkpt lat="40.378933" lon="-1.100112">
        <ele>933.752</ele>
        <time>2020-08-28T10:58:27Z</time>
      </trkpt>
      <trkpt lat="40.378901" lon="-1.100044">
        <ele>933.617</ele>
        <time>2020-08-28T10:58:28Z</time>
      </trkpt>
      <trkpt lat="40.378876" lon="-1.099979">
        <ele>933.508</ele>
        <time>2020-08-28T10:58:29Z</time>
      </trkpt>
      <trkpt lat="40.378847" lon="-1.099911">
        <ele>933.470</ele>
        <time>2020-08-28T10:58:30Z</time>
      </trkpt>
      <trkpt lat="40.378818" lon="-1.099846">
        <ele>933.350</ele>
        <time>2020-08-28T10:58:31Z</time>
      </trkpt>
      <trkpt lat="40.378788" lon="-1.099785">
        <ele>933.262</ele>
        <time>2020-08-28T10:58:32Z</time>
      </trkpt>
      <trkpt lat="40.378762" lon="-1.099719">
        <ele>933.174</ele>
        <time>2020-08-28T10:58:33Z</time>
      </trkpt>
      <trkpt lat="40.378729" lon="-1.099653">
        <ele>933.072</ele>
        <time>2020-08-28T10:58:34Z</time>
      </trkpt>
      <trkpt lat="40.378704" lon="-1.099589">
        <ele>932.939</ele>
        <time>2020-08-28T10:58:35Z</time>
      </trkpt>
      <trkpt lat="40.378683" lon="-1.099525">
        <ele>932.857</ele>
        <time>2020-08-28T10:58:36Z</time>
      </trkpt>
      <trkpt lat="40.378659" lon="-1.099462">
        <ele>932.637</ele>
        <time>2020-08-28T10:58:37Z</time>
      </trkpt>
      <trkpt lat="40.378634" lon="-1.099399">
        <ele>932.559</ele>
        <time>2020-08-28T10:58:38Z</time>
      </trkpt>
      <trkpt lat="40.378606" lon="-1.099333">
        <ele>932.403</ele>
        <time>2020-08-28T10:58:39Z</time>
      </trkpt>
      <trkpt lat="40.378582" lon="-1.099268">
        <ele>932.323</ele>
        <time>2020-08-28T10:58:40Z</time>
      </trkpt>
      <trkpt lat="40.378556" lon="-1.099203">
        <ele>932.208</ele>
        <time>2020-08-28T10:58:41Z</time>
      </trkpt>
      <trkpt lat="40.378532" lon="-1.099142">
        <ele>932.110</ele>
        <time>2020-08-28T10:58:42Z</time>
      </trkpt>
      <trkpt lat="40.378508" lon="-1.099084">
        <ele>932.020</ele>
        <time>2020-08-28T10:58:43Z</time>
      </trkpt>
      <trkpt lat="40.378485" lon="-1.099024">
        <ele>931.982</ele>
        <time>2020-08-28T10:58:44Z</time>
      </trkpt>
      <trkpt lat="40.37846" lon="-1.098957">
        <ele>931.834</ele>
        <time>2020-08-28T10:58:45Z</time>
      </trkpt>
      <trkpt lat="40.378435" lon="-1.0989">
        <ele>931.882</ele>
        <time>2020-08-28T10:58:46Z</time>
      </trkpt>
      <trkpt lat="40.378413" lon="-1.098836">
        <ele>931.829</ele>
        <time>2020-08-28T10:58:47Z</time>
      </trkpt>
      <trkpt lat="40.37839" lon="-1.098772">
        <ele>931.767</ele>
        <time>2020-08-28T10:58:48Z</time>
      </trkpt>
      <trkpt lat="40.378364" lon="-1.098709">
        <ele>931.687</ele>
        <time>2020-08-28T10:58:49Z</time>
      </trkpt>
      <trkpt lat="40.37834" lon="-1.09865">
        <ele>931.546</ele>
        <time>2020-08-28T10:58:50Z</time>
      </trkpt>
      <trkpt lat="40.378314" lon="-1.098587">
        <ele>931.488</ele>
        <time>2020-08-28T10:58:51Z</time>
      </trkpt>
      <trkpt lat="40.378294" lon="-1.098525">
        <ele>931.316</ele>
        <time>2020-08-28T10:58:52Z</time>
      </trkpt>
      <trkpt lat="40.378267" lon="-1.098465">
        <ele>931.208</ele>
        <time>2020-08-28T10:58:53Z</time>
      </trkpt>
      <trkpt lat="40.378242" lon="-1.098404">
        <ele>931.129</ele>
        <time>2020-08-28T10:58:54Z</time>
      </trkpt>
      <trkpt lat="40.37822" lon="-1.098342">
        <ele>931.049</ele>
        <time>2020-08-28T10:58:55Z</time>
      </trkpt>
      <trkpt lat="40.378198" lon="-1.098284">
        <ele>930.971</ele>
        <time>2020-08-28T10:58:56Z</time>
      </trkpt>
      <trkpt lat="40.37817" lon="-1.09822">
        <ele>930.863</ele>
        <time>2020-08-28T10:58:57Z</time>
      </trkpt>
      <trkpt lat="40.37815" lon="-1.098154">
        <ele>930.731</ele>
        <time>2020-08-28T10:58:58Z</time>
      </trkpt>
      <trkpt lat="40.378129" lon="-1.098095">
        <ele>930.578</ele>
        <time>2020-08-28T10:58:59Z</time>
      </trkpt>
      <trkpt lat="40.378102" lon="-1.098039">
        <ele>930.466</ele>
        <time>2020-08-28T10:59:00Z</time>
      </trkpt>
      <trkpt lat="40.378076" lon="-1.097982">
        <ele>930.346</ele>
        <time>2020-08-28T10:59:01Z</time>
      </trkpt>
      <trkpt lat="40.378056" lon="-1.097924">
        <ele>930.298</ele>
        <time>2020-08-28T10:59:02Z</time>
      </trkpt>
      <trkpt lat="40.378038" lon="-1.097864">
        <ele>930.115</ele>
        <time>2020-08-28T10:59:03Z</time>
      </trkpt>
      <trkpt lat="40.378017" lon="-1.097805">
        <ele>930.126</ele>
        <time>2020-08-28T10:59:04Z</time>
      </trkpt>
      <trkpt lat="40.377997" lon="-1.097748">
        <ele>930.108</ele>
        <time>2020-08-28T10:59:05Z</time>
      </trkpt>
      <trkpt lat="40.377983" lon="-1.097688">
        <ele>930.184</ele>
        <time>2020-08-28T10:59:06Z</time>
      </trkpt>
      <trkpt lat="40.37797" lon="-1.097627">
        <ele>930.194</ele>
        <time>2020-08-28T10:59:07Z</time>
      </trkpt>
      <trkpt lat="40.377957" lon="-1.097566">
        <ele>930.166</ele>
        <time>2020-08-28T10:59:08Z</time>
      </trkpt>
      <trkpt lat="40.377942" lon="-1.097507">
        <ele>930.068</ele>
        <time>2020-08-28T10:59:09Z</time>
      </trkpt>
      <trkpt lat="40.37793" lon="-1.097449">
        <ele>929.916</ele>
        <time>2020-08-28T10:59:10Z</time>
      </trkpt>
      <trkpt lat="40.37791" lon="-1.097333">
        <ele>929.823</ele>
        <time>2020-08-28T10:59:12Z</time>
      </trkpt>
      <trkpt lat="40.377892" lon="-1.097225">
        <ele>929.831</ele>
        <time>2020-08-28T10:59:14Z</time>
      </trkpt>
      <trkpt lat="40.377884" lon="-1.097118">
        <ele>929.831</ele>
        <time>2020-08-28T10:59:16Z</time>
      </trkpt>
      <trkpt lat="40.377874" lon="-1.097056">
        <ele>929.899</ele>
        <time>2020-08-28T10:59:17Z</time>
      </trkpt>
      <trkpt lat="40.377866" lon="-1.096941">
        <ele>929.707</ele>
        <time>2020-08-28T10:59:19Z</time>
      </trkpt>
      <trkpt lat="40.377871" lon="-1.09683">
        <ele>929.527</ele>
        <time>2020-08-28T10:59:21Z</time>
      </trkpt>
      <trkpt lat="40.377875" lon="-1.096716">
        <ele>929.408</ele>
        <time>2020-08-28T10:59:23Z</time>
      </trkpt>
      <trkpt lat="40.377878" lon="-1.096651">
        <ele>929.324</ele>
        <time>2020-08-28T10:59:24Z</time>
      </trkpt>
      <trkpt lat="40.377895" lon="-1.096543">
        <ele>929.244</ele>
        <time>2020-08-28T10:59:26Z</time>
      </trkpt>
      <trkpt lat="40.377925" lon="-1.09644">
        <ele>929.136</ele>
        <time>2020-08-28T10:59:28Z</time>
      </trkpt>
      <trkpt lat="40.377946" lon="-1.096338">
        <ele>929.138</ele>
        <time>2020-08-28T10:59:30Z</time>
      </trkpt>
      <trkpt lat="40.377976" lon="-1.096248">
        <ele>929.276</ele>
        <time>2020-08-28T10:59:32Z</time>
      </trkpt>
      <trkpt lat="40.377995" lon="-1.096156">
        <ele>929.293</ele>
        <time>2020-08-28T10:59:34Z</time>
      </trkpt>
      <trkpt lat="40.378016" lon="-1.096076">
        <ele>929.211</ele>
        <time>2020-08-28T10:59:36Z</time>
      </trkpt>
      <trkpt lat="40.378057" lon="-1.095985">
        <ele>929.221</ele>
        <time>2020-08-28T10:59:38Z</time>
      </trkpt>
      <trkpt lat="40.378092" lon="-1.095893">
        <ele>929.212</ele>
        <time>2020-08-28T10:59:40Z</time>
      </trkpt>
      <trkpt lat="40.378127" lon="-1.095793">
        <ele>929.232</ele>
        <time>2020-08-28T10:59:42Z</time>
      </trkpt>
      <trkpt lat="40.378165" lon="-1.095702">
        <ele>929.205</ele>
        <time>2020-08-28T10:59:44Z</time>
      </trkpt>
      <trkpt lat="40.378212" lon="-1.095612">
        <ele>929.208</ele>
        <time>2020-08-28T10:59:46Z</time>
      </trkpt>
      <trkpt lat="40.378238" lon="-1.095562">
        <ele>929.216</ele>
        <time>2020-08-28T10:59:47Z</time>
      </trkpt>
      <trkpt lat="40.378274" lon="-1.095468">
        <ele>929.236</ele>
        <time>2020-08-28T10:59:49Z</time>
      </trkpt>
      <trkpt lat="40.378305" lon="-1.095382">
        <ele>929.268</ele>
        <time>2020-08-28T10:59:51Z</time>
      </trkpt>
      <trkpt lat="40.378342" lon="-1.095308">
        <ele>929.270</ele>
        <time>2020-08-28T10:59:53Z</time>
      </trkpt>
      <trkpt lat="40.378376" lon="-1.095245">
        <ele>929.288</ele>
        <time>2020-08-28T10:59:55Z</time>
      </trkpt>
      <trkpt lat="40.378407" lon="-1.095179">
        <ele>929.225</ele>
        <time>2020-08-28T10:59:57Z</time>
      </trkpt>
      <trkpt lat="40.378435" lon="-1.095115">
        <ele>929.283</ele>
        <time>2020-08-28T10:59:59Z</time>
      </trkpt>
      <trkpt lat="40.378467" lon="-1.095048">
        <ele>929.273</ele>
        <time>2020-08-28T11:00:01Z</time>
      </trkpt>
      <trkpt lat="40.378498" lon="-1.094979">
        <ele>929.221</ele>
        <time>2020-08-28T11:00:03Z</time>
      </trkpt>
      <trkpt lat="40.378527" lon="-1.094909">
        <ele>929.141</ele>
        <time>2020-08-28T11:00:05Z</time>
      </trkpt>
      <trkpt lat="40.378562" lon="-1.094841">
        <ele>929.105</ele>
        <time>2020-08-28T11:00:07Z</time>
      </trkpt>
      <trkpt lat="40.3786" lon="-1.094771">
        <ele>929.108</ele>
        <time>2020-08-28T11:00:09Z</time>
      </trkpt>
      <trkpt lat="40.37864" lon="-1.094691">
        <ele>929.137</ele>
        <time>2020-08-28T11:00:11Z</time>
      </trkpt>
      <trkpt lat="40.37868" lon="-1.094614">
        <ele>929.127</ele>
        <time>2020-08-28T11:00:13Z</time>
      </trkpt>
      <trkpt lat="40.378719" lon="-1.094535">
        <ele>929.149</ele>
        <time>2020-08-28T11:00:15Z</time>
      </trkpt>
      <trkpt lat="40.378756" lon="-1.094461">
        <ele>929.191</ele>
        <time>2020-08-28T11:00:17Z</time>
      </trkpt>
      <trkpt lat="40.378796" lon="-1.094374">
        <ele>929.199</ele>
        <time>2020-08-28T11:00:19Z</time>
      </trkpt>
      <trkpt lat="40.378835" lon="-1.0943">
        <ele>929.126</ele>
        <time>2020-08-28T11:00:21Z</time>
      </trkpt>
      <trkpt lat="40.378879" lon="-1.09424">
        <ele>929.194</ele>
        <time>2020-08-28T11:00:23Z</time>
      </trkpt>
      <trkpt lat="40.378921" lon="-1.094166">
        <ele>929.194</ele>
        <time>2020-08-28T11:00:25Z</time>
      </trkpt>
      <trkpt lat="40.378961" lon="-1.094087">
        <ele>929.322</ele>
        <time>2020-08-28T11:00:27Z</time>
      </trkpt>
      <trkpt lat="40.378989" lon="-1.094006">
        <ele>929.462</ele>
        <time>2020-08-28T11:00:29Z</time>
      </trkpt>
      <trkpt lat="40.379025" lon="-1.093929">
        <ele>929.408</ele>
        <time>2020-08-28T11:00:31Z</time>
      </trkpt>
      <trkpt lat="40.379065" lon="-1.093852">
        <ele>929.408</ele>
        <time>2020-08-28T11:00:33Z</time>
      </trkpt>
      <trkpt lat="40.379101" lon="-1.093759">
        <ele>929.447</ele>
        <time>2020-08-28T11:00:35Z</time>
      </trkpt>
      <trkpt lat="40.379139" lon="-1.093669">
        <ele>929.427</ele>
        <time>2020-08-28T11:00:37Z</time>
      </trkpt>
      <trkpt lat="40.379184" lon="-1.093576">
        <ele>929.479</ele>
        <time>2020-08-28T11:00:39Z</time>
      </trkpt>
      <trkpt lat="40.379229" lon="-1.09349">
        <ele>929.491</ele>
        <time>2020-08-28T11:00:41Z</time>
      </trkpt>
      <trkpt lat="40.379274" lon="-1.09341">
        <ele>929.459</ele>
        <time>2020-08-28T11:00:43Z</time>
      </trkpt>
      <trkpt lat="40.379318" lon="-1.093324">
        <ele>929.456</ele>
        <time>2020-08-28T11:00:45Z</time>
      </trkpt>
      <trkpt lat="40.379359" lon="-1.093238">
        <ele>929.514</ele>
        <time>2020-08-28T11:00:47Z</time>
      </trkpt>
      <trkpt lat="40.37941" lon="-1.093156">
        <ele>929.514</ele>
        <time>2020-08-28T11:00:49Z</time>
      </trkpt>
      <trkpt lat="40.379456" lon="-1.093074">
        <ele>929.449</ele>
        <time>2020-08-28T11:00:51Z</time>
      </trkpt>
      <trkpt lat="40.379507" lon="-1.092993">
        <ele>929.402</ele>
        <time>2020-08-28T11:00:53Z</time>
      </trkpt>
      <trkpt lat="40.379546" lon="-1.092908">
        <ele>929.422</ele>
        <time>2020-08-28T11:00:55Z</time>
      </trkpt>
      <trkpt lat="40.379583" lon="-1.092821">
        <ele>929.508</ele>
        <time>2020-08-28T11:00:57Z</time>
      </trkpt>
      <trkpt lat="40.379633" lon="-1.092734">
        <ele>929.529</ele>
        <time>2020-08-28T11:00:59Z</time>
      </trkpt>
      <trkpt lat="40.379674" lon="-1.092641">
        <ele>929.539</ele>
        <time>2020-08-28T11:01:01Z</time>
      </trkpt>
      <trkpt lat="40.379726" lon="-1.092551">
        <ele>929.531</ele>
        <time>2020-08-28T11:01:03Z</time>
      </trkpt>
      <trkpt lat="40.379754" lon="-1.092504">
        <ele>929.523</ele>
        <time>2020-08-28T11:01:04Z</time>
      </trkpt>
      <trkpt lat="40.37979" lon="-1.092406">
        <ele>929.511</ele>
        <time>2020-08-28T11:01:06Z</time>
      </trkpt>
      <trkpt lat="40.379845" lon="-1.092324">
        <ele>929.588</ele>
        <time>2020-08-28T11:01:08Z</time>
      </trkpt>
      <trkpt lat="40.37987" lon="-1.092274">
        <ele>929.536</ele>
        <time>2020-08-28T11:01:09Z</time>
      </trkpt>
      <trkpt lat="40.379914" lon="-1.09219">
        <ele>929.546</ele>
        <time>2020-08-28T11:01:11Z</time>
      </trkpt>
      <trkpt lat="40.379959" lon="-1.092101">
        <ele>929.592</ele>
        <time>2020-08-28T11:01:13Z</time>
      </trkpt>
      <trkpt lat="40.380004" lon="-1.092018">
        <ele>929.573</ele>
        <time>2020-08-28T11:01:15Z</time>
      </trkpt>
      <trkpt lat="40.380033" lon="-1.091937">
        <ele>929.520</ele>
        <time>2020-08-28T11:01:17Z</time>
      </trkpt>
      <trkpt lat="40.380071" lon="-1.091867">
        <ele>929.508</ele>
        <time>2020-08-28T11:01:19Z</time>
      </trkpt>
      <trkpt lat="40.380108" lon="-1.091783">
        <ele>929.554</ele>
        <time>2020-08-28T11:01:21Z</time>
      </trkpt>
      <trkpt lat="40.380145" lon="-1.091699">
        <ele>929.554</ele>
        <time>2020-08-28T11:01:23Z</time>
      </trkpt>
      <trkpt lat="40.380174" lon="-1.091612">
        <ele>929.516</ele>
        <time>2020-08-28T11:01:25Z</time>
      </trkpt>
      <trkpt lat="40.380198" lon="-1.091511">
        <ele>929.578</ele>
        <time>2020-08-28T11:01:27Z</time>
      </trkpt>
      <trkpt lat="40.380215" lon="-1.091414">
        <ele>929.546</ele>
        <time>2020-08-28T11:01:29Z</time>
      </trkpt>
      <trkpt lat="40.380233" lon="-1.091327">
        <ele>929.553</ele>
        <time>2020-08-28T11:01:31Z</time>
      </trkpt>
      <trkpt lat="40.38025" lon="-1.091255">
        <ele>929.611</ele>
        <time>2020-08-28T11:01:33Z</time>
      </trkpt>
      <trkpt lat="40.38026" lon="-1.091188">
        <ele>929.781</ele>
        <time>2020-08-28T11:01:35Z</time>
      </trkpt>
      <trkpt lat="40.380269" lon="-1.09111">
        <ele>929.849</ele>
        <time>2020-08-28T11:01:37Z</time>
      </trkpt>
      <trkpt lat="40.380279" lon="-1.091023">
        <ele>929.902</ele>
        <time>2020-08-28T11:01:39Z</time>
      </trkpt>
      <trkpt lat="40.380283" lon="-1.090941">
        <ele>930.022</ele>
        <time>2020-08-28T11:01:41Z</time>
      </trkpt>
      <trkpt lat="40.380283" lon="-1.09088">
        <ele>930.008</ele>
        <time>2020-08-28T11:01:43Z</time>
      </trkpt>
      <trkpt lat="40.380296" lon="-1.090818">
        <ele>930.159</ele>
        <time>2020-08-28T11:01:45Z</time>
      </trkpt>
      <trkpt lat="40.3803" lon="-1.090751">
        <ele>930.289</ele>
        <time>2020-08-28T11:01:47Z</time>
      </trkpt>
      <trkpt lat="40.380311" lon="-1.090665">
        <ele>930.361</ele>
        <time>2020-08-28T11:01:50Z</time>
      </trkpt>
      <trkpt lat="40.380312" lon="-1.090595">
        <ele>930.463</ele>
        <time>2020-08-28T11:01:52Z</time>
      </trkpt>
      <trkpt lat="40.380305" lon="-1.090533">
        <ele>930.591</ele>
        <time>2020-08-28T11:01:54Z</time>
      </trkpt>
      <trkpt lat="40.380278" lon="-1.09048">
        <ele>930.568</ele>
        <time>2020-08-28T11:01:56Z</time>
      </trkpt>
      <trkpt lat="40.380221" lon="-1.09043">
        <ele>930.596</ele>
        <time>2020-08-28T11:01:59Z</time>
      </trkpt>
      <trkpt lat="40.380161" lon="-1.090417">
        <ele>930.346</ele>
        <time>2020-08-28T11:02:01Z</time>
      </trkpt>
      <trkpt lat="40.380096" lon="-1.090426">
        <ele>930.039</ele>
        <time>2020-08-28T11:02:03Z</time>
      </trkpt>
      <trkpt lat="40.380015" lon="-1.090447">
        <ele>929.701</ele>
        <time>2020-08-28T11:02:05Z</time>
      </trkpt>
      <trkpt lat="40.379972" lon="-1.090482">
        <ele>929.521</ele>
        <time>2020-08-28T11:02:06Z</time>
      </trkpt>
      <trkpt lat="40.379938" lon="-1.090523">
        <ele>929.308</ele>
        <time>2020-08-28T11:02:07Z</time>
      </trkpt>
      <trkpt lat="40.379908" lon="-1.09058">
        <ele>929.068</ele>
        <time>2020-08-28T11:02:08Z</time>
      </trkpt>
      <trkpt lat="40.379887" lon="-1.090642">
        <ele>928.738</ele>
        <time>2020-08-28T11:02:09Z</time>
      </trkpt>
      <trkpt lat="40.379847" lon="-1.090742">
        <ele>928.040</ele>
        <time>2020-08-28T11:02:11Z</time>
      </trkpt>
      <trkpt lat="40.379811" lon="-1.090839">
        <ele>927.392</ele>
        <time>2020-08-28T11:02:13Z</time>
      </trkpt>
      <trkpt lat="40.37977" lon="-1.090943">
        <ele>926.520</ele>
        <time>2020-08-28T11:02:15Z</time>
      </trkpt>
      <trkpt lat="40.379747" lon="-1.090999">
        <ele>925.657</ele>
        <time>2020-08-28T11:02:16Z</time>
      </trkpt>
      <trkpt lat="40.379704" lon="-1.091102">
        <ele>924.645</ele>
        <time>2020-08-28T11:02:18Z</time>
      </trkpt>
      <trkpt lat="40.379643" lon="-1.091175">
        <ele>923.575</ele>
        <time>2020-08-28T11:02:20Z</time>
      </trkpt>
      <trkpt lat="40.379569" lon="-1.09121">
        <ele>922.512</ele>
        <time>2020-08-28T11:02:22Z</time>
      </trkpt>
      <trkpt lat="40.379488" lon="-1.091211">
        <ele>921.632</ele>
        <time>2020-08-28T11:02:24Z</time>
      </trkpt>
      <trkpt lat="40.379408" lon="-1.091182">
        <ele>920.705</ele>
        <time>2020-08-28T11:02:26Z</time>
      </trkpt>
      <trkpt lat="40.379329" lon="-1.09113">
        <ele>919.908</ele>
        <time>2020-08-28T11:02:28Z</time>
      </trkpt>
      <trkpt lat="40.379291" lon="-1.091091">
        <ele>919.516</ele>
        <time>2020-08-28T11:02:29Z</time>
      </trkpt>
      <trkpt lat="40.379254" lon="-1.091049">
        <ele>919.166</ele>
        <time>2020-08-28T11:02:30Z</time>
      </trkpt>
      <trkpt lat="40.379214" lon="-1.090951">
        <ele>918.538</ele>
        <time>2020-08-28T11:02:32Z</time>
      </trkpt>
      <trkpt lat="40.379173" lon="-1.090869">
        <ele>918.030</ele>
        <time>2020-08-28T11:02:34Z</time>
      </trkpt>
      <trkpt lat="40.379155" lon="-1.09077">
        <ele>917.698</ele>
        <time>2020-08-28T11:02:36Z</time>
      </trkpt>
      <trkpt lat="40.379142" lon="-1.090714">
        <ele>917.395</ele>
        <time>2020-08-28T11:02:37Z</time>
      </trkpt>
      <trkpt lat="40.379148" lon="-1.090602">
        <ele>917.073</ele>
        <time>2020-08-28T11:02:39Z</time>
      </trkpt>
      <trkpt lat="40.379157" lon="-1.090514">
        <ele>916.973</ele>
        <time>2020-08-28T11:02:41Z</time>
      </trkpt>
      <trkpt lat="40.379184" lon="-1.090439">
        <ele>917.094</ele>
        <time>2020-08-28T11:02:43Z</time>
      </trkpt>
      <trkpt lat="40.379212" lon="-1.09037">
        <ele>917.157</ele>
        <time>2020-08-28T11:02:45Z</time>
      </trkpt>
      <trkpt lat="40.37926" lon="-1.090326">
        <ele>917.222</ele>
        <time>2020-08-28T11:02:47Z</time>
      </trkpt>
      <trkpt lat="40.379294" lon="-1.090252">
        <ele>917.308</ele>
        <time>2020-08-28T11:02:49Z</time>
      </trkpt>
      <trkpt lat="40.3793" lon="-1.090157">
        <ele>917.474</ele>
        <time>2020-08-28T11:02:51Z</time>
      </trkpt>
      <trkpt lat="40.379336" lon="-1.090074">
        <ele>917.584</ele>
        <time>2020-08-28T11:02:53Z</time>
      </trkpt>
      <trkpt lat="40.379351" lon="-1.089994">
        <ele>917.656</ele>
        <time>2020-08-28T11:02:55Z</time>
      </trkpt>
      <trkpt lat="40.379354" lon="-1.089907">
        <ele>917.788</ele>
        <time>2020-08-28T11:02:57Z</time>
      </trkpt>
      <trkpt lat="40.379346" lon="-1.089832">
        <ele>917.986</ele>
        <time>2020-08-28T11:02:59Z</time>
      </trkpt>
      <trkpt lat="40.379357" lon="-1.089772">
        <ele>918.083</ele>
        <time>2020-08-28T11:03:01Z</time>
      </trkpt>
      <trkpt lat="40.379351" lon="-1.089694">
        <ele>918.291</ele>
        <time>2020-08-28T11:03:03Z</time>
      </trkpt>
      <trkpt lat="40.379346" lon="-1.089609">
        <ele>918.651</ele>
        <time>2020-08-28T11:03:06Z</time>
      </trkpt>
      <trkpt lat="40.379351" lon="-1.089549">
        <ele>918.855</ele>
        <time>2020-08-28T11:03:08Z</time>
      </trkpt>
      <trkpt lat="40.379365" lon="-1.089488">
        <ele>919.107</ele>
        <time>2020-08-28T11:03:11Z</time>
      </trkpt>
      <trkpt lat="40.379355" lon="-1.089425">
        <ele>919.417</ele>
        <time>2020-08-28T11:03:14Z</time>
      </trkpt>
      <trkpt lat="40.379344" lon="-1.089346">
        <ele>919.908</ele>
        <time>2020-08-28T11:03:18Z</time>
      </trkpt>
      <trkpt lat="40.379354" lon="-1.089286">
        <ele>920.310</ele>
        <time>2020-08-28T11:03:21Z</time>
      </trkpt>
      <trkpt lat="40.37933" lon="-1.089236">
        <ele>920.970</ele>
        <time>2020-08-28T11:03:24Z</time>
      </trkpt>
      <trkpt lat="40.379306" lon="-1.08918">
        <ele>921.462</ele>
        <time>2020-08-28T11:03:27Z</time>
      </trkpt>
      <trkpt lat="40.379284" lon="-1.089121">
        <ele>921.954</ele>
        <time>2020-08-28T11:03:30Z</time>
      </trkpt>
      <trkpt lat="40.379273" lon="-1.089059">
        <ele>922.422</ele>
        <time>2020-08-28T11:03:33Z</time>
      </trkpt>
      <trkpt lat="40.379253" lon="-1.089004">
        <ele>922.999</ele>
        <time>2020-08-28T11:03:36Z</time>
      </trkpt>
      <trkpt lat="40.379225" lon="-1.088958">
        <ele>923.437</ele>
        <time>2020-08-28T11:03:39Z</time>
      </trkpt>
      <trkpt lat="40.379201" lon="-1.088886">
        <ele>924.117</ele>
        <time>2020-08-28T11:03:43Z</time>
      </trkpt>
      <trkpt lat="40.379172" lon="-1.088823">
        <ele>925.087</ele>
        <time>2020-08-28T11:03:47Z</time>
      </trkpt>
      <trkpt lat="40.379143" lon="-1.088773">
        <ele>925.542</ele>
        <time>2020-08-28T11:03:50Z</time>
      </trkpt>
      <trkpt lat="40.37912" lon="-1.088703">
        <ele>926.426</ele>
        <time>2020-08-28T11:03:54Z</time>
      </trkpt>
      <trkpt lat="40.379092" lon="-1.088657">
        <ele>927.108</ele>
        <time>2020-08-28T11:03:57Z</time>
      </trkpt>
      <trkpt lat="40.379055" lon="-1.088604">
        <ele>928.063</ele>
        <time>2020-08-28T11:04:01Z</time>
      </trkpt>
      <trkpt lat="40.379008" lon="-1.08855">
        <ele>928.913</ele>
        <time>2020-08-28T11:04:05Z</time>
      </trkpt>
      <trkpt lat="40.37897" lon="-1.088497">
        <ele>929.965</ele>
        <time>2020-08-28T11:04:09Z</time>
      </trkpt>
      <trkpt lat="40.378928" lon="-1.088462">
        <ele>930.797</ele>
        <time>2020-08-28T11:04:13Z</time>
      </trkpt>
      <trkpt lat="40.37888" lon="-1.088427">
        <ele>931.575</ele>
        <time>2020-08-28T11:04:17Z</time>
      </trkpt>
      <trkpt lat="40.378829" lon="-1.088413">
        <ele>932.222</ele>
        <time>2020-08-28T11:04:21Z</time>
      </trkpt>
      <trkpt lat="40.378794" lon="-1.088376">
        <ele>932.790</ele>
        <time>2020-08-28T11:04:25Z</time>
      </trkpt>
      <trkpt lat="40.378747" lon="-1.08836">
        <ele>933.170</ele>
        <time>2020-08-28T11:04:29Z</time>
      </trkpt>
      <trkpt lat="40.37869" lon="-1.088351">
        <ele>933.211</ele>
        <time>2020-08-28T11:04:34Z</time>
      </trkpt>
      <trkpt lat="40.378644" lon="-1.088345">
        <ele>933.221</ele>
        <time>2020-08-28T11:04:38Z</time>
      </trkpt>
      <trkpt lat="40.378588" lon="-1.088335">
        <ele>933.303</ele>
        <time>2020-08-28T11:04:42Z</time>
      </trkpt>
      <trkpt lat="40.378543" lon="-1.088345">
        <ele>933.408</ele>
        <time>2020-08-28T11:04:45Z</time>
      </trkpt>
      <trkpt lat="40.378488" lon="-1.088341">
        <ele>933.646</ele>
        <time>2020-08-28T11:04:49Z</time>
      </trkpt>
      <trkpt lat="40.378431" lon="-1.088342">
        <ele>933.896</ele>
        <time>2020-08-28T11:04:53Z</time>
      </trkpt>
      <trkpt lat="40.37838" lon="-1.088336">
        <ele>933.958</ele>
        <time>2020-08-28T11:04:56Z</time>
      </trkpt>
      <trkpt lat="40.378331" lon="-1.088339">
        <ele>933.910</ele>
        <time>2020-08-28T11:04:59Z</time>
      </trkpt>
      <trkpt lat="40.378279" lon="-1.088338">
        <ele>933.988</ele>
        <time>2020-08-28T11:05:02Z</time>
      </trkpt>
      <trkpt lat="40.378224" lon="-1.088336">
        <ele>933.855</ele>
        <time>2020-08-28T11:05:05Z</time>
      </trkpt>
      <trkpt lat="40.378169" lon="-1.088338">
        <ele>933.783</ele>
        <time>2020-08-28T11:05:08Z</time>
      </trkpt>
      <trkpt lat="40.378121" lon="-1.088333">
        <ele>933.873</ele>
        <time>2020-08-28T11:05:11Z</time>
      </trkpt>
      <trkpt lat="40.378067" lon="-1.088338">
        <ele>933.963</ele>
        <time>2020-08-28T11:05:14Z</time>
      </trkpt>
      <trkpt lat="40.378009" lon="-1.088339">
        <ele>934.044</ele>
        <time>2020-08-28T11:05:17Z</time>
      </trkpt>
      <trkpt lat="40.377948" lon="-1.088338">
        <ele>934.218</ele>
        <time>2020-08-28T11:05:20Z</time>
      </trkpt>
      <trkpt lat="40.377882" lon="-1.088329">
        <ele>934.308</ele>
        <time>2020-08-28T11:05:23Z</time>
      </trkpt>
      <trkpt lat="40.377836" lon="-1.088333">
        <ele>934.451</ele>
        <time>2020-08-28T11:05:25Z</time>
      </trkpt>
      <trkpt lat="40.37779" lon="-1.088328">
        <ele>934.581</ele>
        <time>2020-08-28T11:05:27Z</time>
      </trkpt>
      <trkpt lat="40.37774" lon="-1.08833">
        <ele>934.613</ele>
        <time>2020-08-28T11:05:29Z</time>
      </trkpt>
      <trkpt lat="40.377691" lon="-1.088324">
        <ele>934.685</ele>
        <time>2020-08-28T11:05:31Z</time>
      </trkpt>
      <trkpt lat="40.377633" lon="-1.088327">
        <ele>934.683</ele>
        <time>2020-08-28T11:05:33Z</time>
      </trkpt>
      <trkpt lat="40.377573" lon="-1.088316">
        <ele>934.610</ele>
        <time>2020-08-28T11:05:35Z</time>
      </trkpt>
      <trkpt lat="40.377525" lon="-1.088328">
        <ele>934.768</ele>
        <time>2020-08-28T11:05:37Z</time>
      </trkpt>
      <trkpt lat="40.377467" lon="-1.088315">
        <ele>934.858</ele>
        <time>2020-08-28T11:05:39Z</time>
      </trkpt>
      <trkpt lat="40.377413" lon="-1.088319">
        <ele>934.934</ele>
        <time>2020-08-28T11:05:41Z</time>
      </trkpt>
      <trkpt lat="40.377364" lon="-1.088318">
        <ele>935.055</ele>
        <time>2020-08-28T11:05:43Z</time>
      </trkpt>
      <trkpt lat="40.37731" lon="-1.088313">
        <ele>935.110</ele>
        <time>2020-08-28T11:05:45Z</time>
      </trkpt>
      <trkpt lat="40.377259" lon="-1.088302">
        <ele>935.108</ele>
        <time>2020-08-28T11:05:47Z</time>
      </trkpt>
      <trkpt lat="40.377201" lon="-1.088298">
        <ele>935.218</ele>
        <time>2020-08-28T11:05:49Z</time>
      </trkpt>
      <trkpt lat="40.377145" lon="-1.088286">
        <ele>935.278</ele>
        <time>2020-08-28T11:05:51Z</time>
      </trkpt>
      <trkpt lat="40.37709" lon="-1.088274">
        <ele>935.240</ele>
        <time>2020-08-28T11:05:53Z</time>
      </trkpt>
      <trkpt lat="40.37704" lon="-1.088267">
        <ele>935.282</ele>
        <time>2020-08-28T11:05:55Z</time>
      </trkpt>
      <trkpt lat="40.376986" lon="-1.088247">
        <ele>935.340</ele>
        <time>2020-08-28T11:05:57Z</time>
      </trkpt>
      <trkpt lat="40.376928" lon="-1.088225">
        <ele>935.457</ele>
        <time>2020-08-28T11:05:59Z</time>
      </trkpt>
      <trkpt lat="40.376872" lon="-1.088203">
        <ele>935.515</ele>
        <time>2020-08-28T11:06:01Z</time>
      </trkpt>
      <trkpt lat="40.376816" lon="-1.088172">
        <ele>935.665</ele>
        <time>2020-08-28T11:06:03Z</time>
      </trkpt>
      <trkpt lat="40.376762" lon="-1.088135">
        <ele>935.722</ele>
        <time>2020-08-28T11:06:05Z</time>
      </trkpt>
      <trkpt lat="40.376704" lon="-1.088097">
        <ele>935.862</ele>
        <time>2020-08-28T11:06:07Z</time>
      </trkpt>
      <trkpt lat="40.376653" lon="-1.088068">
        <ele>935.908</ele>
        <time>2020-08-28T11:06:09Z</time>
      </trkpt>
      <trkpt lat="40.376603" lon="-1.088028">
        <ele>936.008</ele>
        <time>2020-08-28T11:06:11Z</time>
      </trkpt>
      <trkpt lat="40.376551" lon="-1.087989">
        <ele>936.197</ele>
        <time>2020-08-28T11:06:13Z</time>
      </trkpt>
      <trkpt lat="40.376498" lon="-1.087952">
        <ele>936.257</ele>
        <time>2020-08-28T11:06:15Z</time>
      </trkpt>
      <trkpt lat="40.376448" lon="-1.087911">
        <ele>936.259</ele>
        <time>2020-08-28T11:06:17Z</time>
      </trkpt>
      <trkpt lat="40.376398" lon="-1.087874">
        <ele>936.241</ele>
        <time>2020-08-28T11:06:19Z</time>
      </trkpt>
      <trkpt lat="40.376354" lon="-1.087833">
        <ele>936.319</ele>
        <time>2020-08-28T11:06:21Z</time>
      </trkpt>
      <trkpt lat="40.376301" lon="-1.087794">
        <ele>936.476</ele>
        <time>2020-08-28T11:06:23Z</time>
      </trkpt>
      <trkpt lat="40.376258" lon="-1.087753">
        <ele>936.544</ele>
        <time>2020-08-28T11:06:25Z</time>
      </trkpt>
      <trkpt lat="40.376209" lon="-1.087706">
        <ele>936.614</ele>
        <time>2020-08-28T11:06:27Z</time>
      </trkpt>
      <trkpt lat="40.376168" lon="-1.087659">
        <ele>936.799</ele>
        <time>2020-08-28T11:06:29Z</time>
      </trkpt>
      <trkpt lat="40.376119" lon="-1.087613">
        <ele>936.807</ele>
        <time>2020-08-28T11:06:31Z</time>
      </trkpt>
      <trkpt lat="40.376069" lon="-1.087583">
        <ele>936.827</ele>
        <time>2020-08-28T11:06:33Z</time>
      </trkpt>
      <trkpt lat="40.376019" lon="-1.087535">
        <ele>936.808</ele>
        <time>2020-08-28T11:06:35Z</time>
      </trkpt>
      <trkpt lat="40.375971" lon="-1.087494">
        <ele>936.814</ele>
        <time>2020-08-28T11:06:37Z</time>
      </trkpt>
      <trkpt lat="40.375923" lon="-1.087453">
        <ele>936.944</ele>
        <time>2020-08-28T11:06:39Z</time>
      </trkpt>
      <trkpt lat="40.375876" lon="-1.08741">
        <ele>937.176</ele>
        <time>2020-08-28T11:06:41Z</time>
      </trkpt>
      <trkpt lat="40.375829" lon="-1.087368">
        <ele>937.238</ele>
        <time>2020-08-28T11:06:43Z</time>
      </trkpt>
      <trkpt lat="40.37578" lon="-1.087321">
        <ele>937.276</ele>
        <time>2020-08-28T11:06:45Z</time>
      </trkpt>
      <trkpt lat="40.375726" lon="-1.087286">
        <ele>937.283</ele>
        <time>2020-08-28T11:06:47Z</time>
      </trkpt>
      <trkpt lat="40.375679" lon="-1.087241">
        <ele>937.361</ele>
        <time>2020-08-28T11:06:49Z</time>
      </trkpt>
      <trkpt lat="40.375631" lon="-1.087206">
        <ele>937.471</ele>
        <time>2020-08-28T11:06:51Z</time>
      </trkpt>
      <trkpt lat="40.375571" lon="-1.087168">
        <ele>937.486</ele>
        <time>2020-08-28T11:06:53Z</time>
      </trkpt>
      <trkpt lat="40.375522" lon="-1.087143">
        <ele>937.560</ele>
        <time>2020-08-28T11:06:55Z</time>
      </trkpt>
      <trkpt lat="40.375468" lon="-1.087116">
        <ele>937.526</ele>
        <time>2020-08-28T11:06:57Z</time>
      </trkpt>
      <trkpt lat="40.375411" lon="-1.087086">
        <ele>937.508</ele>
        <time>2020-08-28T11:06:59Z</time>
      </trkpt>
      <trkpt lat="40.375356" lon="-1.087059">
        <ele>937.593</ele>
        <time>2020-08-28T11:07:01Z</time>
      </trkpt>
      <trkpt lat="40.375302" lon="-1.087033">
        <ele>937.643</ele>
        <time>2020-08-28T11:07:03Z</time>
      </trkpt>
      <trkpt lat="40.375243" lon="-1.087018">
        <ele>937.725</ele>
        <time>2020-08-28T11:07:05Z</time>
      </trkpt>
      <trkpt lat="40.375183" lon="-1.087">
        <ele>937.887</ele>
        <time>2020-08-28T11:07:07Z</time>
      </trkpt>
      <trkpt lat="40.375123" lon="-1.086983">
        <ele>937.955</ele>
        <time>2020-08-28T11:07:09Z</time>
      </trkpt>
      <trkpt lat="40.375062" lon="-1.086974">
        <ele>938.042</ele>
        <time>2020-08-28T11:07:11Z</time>
      </trkpt>
      <trkpt lat="40.375006" lon="-1.086965">
        <ele>938.150</ele>
        <time>2020-08-28T11:07:13Z</time>
      </trkpt>
      <trkpt lat="40.374943" lon="-1.086961">
        <ele>938.140</ele>
        <time>2020-08-28T11:07:15Z</time>
      </trkpt>
      <trkpt lat="40.374884" lon="-1.086958">
        <ele>938.187</ele>
        <time>2020-08-28T11:07:17Z</time>
      </trkpt>
      <trkpt lat="40.374817" lon="-1.08696">
        <ele>938.142</ele>
        <time>2020-08-28T11:07:19Z</time>
      </trkpt>
      <trkpt lat="40.374753" lon="-1.08696">
        <ele>938.126</ele>
        <time>2020-08-28T11:07:21Z</time>
      </trkpt>
      <trkpt lat="40.374689" lon="-1.086964">
        <ele>938.108</ele>
        <time>2020-08-28T11:07:23Z</time>
      </trkpt>
      <trkpt lat="40.374626" lon="-1.086974">
        <ele>938.263</ele>
        <time>2020-08-28T11:07:25Z</time>
      </trkpt>
      <trkpt lat="40.374566" lon="-1.086986">
        <ele>938.293</ele>
        <time>2020-08-28T11:07:27Z</time>
      </trkpt>
      <trkpt lat="40.374505" lon="-1.087003">
        <ele>938.225</ele>
        <time>2020-08-28T11:07:29Z</time>
      </trkpt>
      <trkpt lat="40.374451" lon="-1.087017">
        <ele>938.387</ele>
        <time>2020-08-28T11:07:31Z</time>
      </trkpt>
      <trkpt lat="40.374393" lon="-1.087035">
        <ele>938.445</ele>
        <time>2020-08-28T11:07:33Z</time>
      </trkpt>
      <trkpt lat="40.374333" lon="-1.087054">
        <ele>938.572</ele>
        <time>2020-08-28T11:07:35Z</time>
      </trkpt>
      <trkpt lat="40.374279" lon="-1.087076">
        <ele>938.610</ele>
        <time>2020-08-28T11:07:37Z</time>
      </trkpt>
      <trkpt lat="40.374227" lon="-1.087104">
        <ele>938.650</ele>
        <time>2020-08-28T11:07:39Z</time>
      </trkpt>
      <trkpt lat="40.374174" lon="-1.087121">
        <ele>938.675</ele>
        <time>2020-08-28T11:07:41Z</time>
      </trkpt>
      <trkpt lat="40.374122" lon="-1.087141">
        <ele>938.628</ele>
        <time>2020-08-28T11:07:43Z</time>
      </trkpt>
      <trkpt lat="40.374066" lon="-1.087173">
        <ele>938.720</ele>
        <time>2020-08-28T11:07:45Z</time>
      </trkpt>
      <trkpt lat="40.374007" lon="-1.087209">
        <ele>938.808</ele>
        <time>2020-08-28T11:07:47Z</time>
      </trkpt>
      <trkpt lat="40.373955" lon="-1.087239">
        <ele>938.912</ele>
        <time>2020-08-28T11:07:49Z</time>
      </trkpt>
      <trkpt lat="40.373904" lon="-1.087283">
        <ele>938.952</ele>
        <time>2020-08-28T11:07:51Z</time>
      </trkpt>
      <trkpt lat="40.373851" lon="-1.087323">
        <ele>938.944</ele>
        <time>2020-08-28T11:07:53Z</time>
      </trkpt>
      <trkpt lat="40.373805" lon="-1.087366">
        <ele>938.986</ele>
        <time>2020-08-28T11:07:55Z</time>
      </trkpt>
      <trkpt lat="40.373757" lon="-1.08741">
        <ele>938.954</ele>
        <time>2020-08-28T11:07:57Z</time>
      </trkpt>
      <trkpt lat="40.373712" lon="-1.087452">
        <ele>939.061</ele>
        <time>2020-08-28T11:07:59Z</time>
      </trkpt>
      <trkpt lat="40.373673" lon="-1.087497">
        <ele>939.029</ele>
        <time>2020-08-28T11:08:01Z</time>
      </trkpt>
      <trkpt lat="40.373625" lon="-1.087543">
        <ele>939.049</ele>
        <time>2020-08-28T11:08:03Z</time>
      </trkpt>
      <trkpt lat="40.373583" lon="-1.087594">
        <ele>939.042</ele>
        <time>2020-08-28T11:08:05Z</time>
      </trkpt>
      <trkpt lat="40.373539" lon="-1.087652">
        <ele>939.022</ele>
        <time>2020-08-28T11:08:07Z</time>
      </trkpt>
      <trkpt lat="40.373496" lon="-1.087705">
        <ele>939.014</ele>
        <time>2020-08-28T11:08:09Z</time>
      </trkpt>
      <trkpt lat="40.37346" lon="-1.087766">
        <ele>939.008</ele>
        <time>2020-08-28T11:08:11Z</time>
      </trkpt>
      <trkpt lat="40.373418" lon="-1.08782">
        <ele>939.019</ele>
        <time>2020-08-28T11:08:13Z</time>
      </trkpt>
      <trkpt lat="40.373385" lon="-1.087886">
        <ele>939.019</ele>
        <time>2020-08-28T11:08:15Z</time>
      </trkpt>
      <trkpt lat="40.373353" lon="-1.087943">
        <ele>939.091</ele>
        <time>2020-08-28T11:08:17Z</time>
      </trkpt>
      <trkpt lat="40.373322" lon="-1.088006">
        <ele>939.163</ele>
        <time>2020-08-28T11:08:19Z</time>
      </trkpt>
      <trkpt lat="40.37329" lon="-1.08806">
        <ele>939.291</ele>
        <time>2020-08-28T11:08:21Z</time>
      </trkpt>
      <trkpt lat="40.37326" lon="-1.088114">
        <ele>939.278</ele>
        <time>2020-08-28T11:08:23Z</time>
      </trkpt>
      <trkpt lat="40.373225" lon="-1.08818">
        <ele>939.226</ele>
        <time>2020-08-28T11:08:25Z</time>
      </trkpt>
      <trkpt lat="40.373198" lon="-1.088232">
        <ele>939.296</ele>
        <time>2020-08-28T11:08:27Z</time>
      </trkpt>
      <trkpt lat="40.373162" lon="-1.088303">
        <ele>939.391</ele>
        <time>2020-08-28T11:08:29Z</time>
      </trkpt>
      <trkpt lat="40.373128" lon="-1.088365">
        <ele>939.481</ele>
        <time>2020-08-28T11:08:31Z</time>
      </trkpt>
      <trkpt lat="40.37309" lon="-1.088423">
        <ele>939.519</ele>
        <time>2020-08-28T11:08:33Z</time>
      </trkpt>
      <trkpt lat="40.373062" lon="-1.088493">
        <ele>939.508</ele>
        <time>2020-08-28T11:08:35Z</time>
      </trkpt>
      <trkpt lat="40.373027" lon="-1.088553">
        <ele>939.554</ele>
        <time>2020-08-28T11:08:37Z</time>
      </trkpt>
      <trkpt lat="40.372994" lon="-1.088616">
        <ele>939.544</ele>
        <time>2020-08-28T11:08:39Z</time>
      </trkpt>
      <trkpt lat="40.372954" lon="-1.088664">
        <ele>939.576</ele>
        <time>2020-08-28T11:08:41Z</time>
      </trkpt>
      <trkpt lat="40.372938" lon="-1.088741">
        <ele>939.528</ele>
        <time>2020-08-28T11:08:43Z</time>
      </trkpt>
      <trkpt lat="40.372915" lon="-1.088803">
        <ele>939.686</ele>
        <time>2020-08-28T11:08:45Z</time>
      </trkpt>
      <trkpt lat="40.372888" lon="-1.088861">
        <ele>939.763</ele>
        <time>2020-08-28T11:08:47Z</time>
      </trkpt>
      <trkpt lat="40.372868" lon="-1.088932">
        <ele>939.751</ele>
        <time>2020-08-28T11:08:49Z</time>
      </trkpt>
      <trkpt lat="40.372837" lon="-1.08899">
        <ele>939.841</ele>
        <time>2020-08-28T11:08:51Z</time>
      </trkpt>
      <trkpt lat="40.372809" lon="-1.089056">
        <ele>939.962</ele>
        <time>2020-08-28T11:08:53Z</time>
      </trkpt>
      <trkpt lat="40.372779" lon="-1.089124">
        <ele>940.083</ele>
        <time>2020-08-28T11:08:55Z</time>
      </trkpt>
      <trkpt lat="40.372746" lon="-1.089194">
        <ele>940.111</ele>
        <time>2020-08-28T11:08:57Z</time>
      </trkpt>
      <trkpt lat="40.372714" lon="-1.089254">
        <ele>940.108</ele>
        <time>2020-08-28T11:08:59Z</time>
      </trkpt>
      <trkpt lat="40.372681" lon="-1.08932">
        <ele>940.121</ele>
        <time>2020-08-28T11:09:01Z</time>
      </trkpt>
      <trkpt lat="40.372636" lon="-1.089387">
        <ele>940.271</ele>
        <time>2020-08-28T11:09:03Z</time>
      </trkpt>
      <trkpt lat="40.372602" lon="-1.089447">
        <ele>940.343</ele>
        <time>2020-08-28T11:09:05Z</time>
      </trkpt>
      <trkpt lat="40.372567" lon="-1.089516">
        <ele>940.495</ele>
        <time>2020-08-28T11:09:07Z</time>
      </trkpt>
      <trkpt lat="40.372533" lon="-1.089577">
        <ele>940.643</ele>
        <time>2020-08-28T11:09:09Z</time>
      </trkpt>
      <trkpt lat="40.372507" lon="-1.089639">
        <ele>940.830</ele>
        <time>2020-08-28T11:09:11Z</time>
      </trkpt>
      <trkpt lat="40.37247" lon="-1.089704">
        <ele>941.018</ele>
        <time>2020-08-28T11:09:13Z</time>
      </trkpt>
      <trkpt lat="40.372433" lon="-1.089776">
        <ele>941.098</ele>
        <time>2020-08-28T11:09:15Z</time>
      </trkpt>
      <trkpt lat="40.372405" lon="-1.089837">
        <ele>941.093</ele>
        <time>2020-08-28T11:09:17Z</time>
      </trkpt>
      <trkpt lat="40.37237" lon="-1.089901">
        <ele>941.165</ele>
        <time>2020-08-28T11:09:19Z</time>
      </trkpt>
      <trkpt lat="40.372337" lon="-1.089961">
        <ele>941.221</ele>
        <time>2020-08-28T11:09:21Z</time>
      </trkpt>
      <trkpt lat="40.372303" lon="-1.090023">
        <ele>941.308</ele>
        <time>2020-08-28T11:09:23Z</time>
      </trkpt>
      <trkpt lat="40.372275" lon="-1.090089">
        <ele>941.324</ele>
        <time>2020-08-28T11:09:25Z</time>
      </trkpt>
      <trkpt lat="40.37224" lon="-1.090158">
        <ele>941.494</ele>
        <time>2020-08-28T11:09:27Z</time>
      </trkpt>
      <trkpt lat="40.372216" lon="-1.090222">
        <ele>941.566</ele>
        <time>2020-08-28T11:09:29Z</time>
      </trkpt>
      <trkpt lat="40.372187" lon="-1.090292">
        <ele>941.558</ele>
        <time>2020-08-28T11:09:31Z</time>
      </trkpt>
      <trkpt lat="40.372161" lon="-1.090353">
        <ele>941.556</ele>
        <time>2020-08-28T11:09:33Z</time>
      </trkpt>
      <trkpt lat="40.372142" lon="-1.090427">
        <ele>941.623</ele>
        <time>2020-08-28T11:09:35Z</time>
      </trkpt>
      <trkpt lat="40.372121" lon="-1.0905">
        <ele>941.781</ele>
        <time>2020-08-28T11:09:37Z</time>
      </trkpt>
      <trkpt lat="40.3721" lon="-1.090573">
        <ele>941.831</ele>
        <time>2020-08-28T11:09:39Z</time>
      </trkpt>
      <trkpt lat="40.372083" lon="-1.090646">
        <ele>941.872</ele>
        <time>2020-08-28T11:09:41Z</time>
      </trkpt>
      <trkpt lat="40.372068" lon="-1.090722">
        <ele>941.813</ele>
        <time>2020-08-28T11:09:43Z</time>
      </trkpt>
      <trkpt lat="40.372054" lon="-1.090799">
        <ele>941.814</ele>
        <time>2020-08-28T11:09:45Z</time>
      </trkpt>
      <trkpt lat="40.372044" lon="-1.090873">
        <ele>941.808</ele>
        <time>2020-08-28T11:09:47Z</time>
      </trkpt>
      <trkpt lat="40.372032" lon="-1.090946">
        <ele>941.812</ele>
        <time>2020-08-28T11:09:49Z</time>
      </trkpt>
      <trkpt lat="40.372022" lon="-1.091035">
        <ele>941.862</ele>
        <time>2020-08-28T11:09:51Z</time>
      </trkpt>
      <trkpt lat="40.372008" lon="-1.091114">
        <ele>941.924</ele>
        <time>2020-08-28T11:09:53Z</time>
      </trkpt>
      <trkpt lat="40.372005" lon="-1.091198">
        <ele>942.076</ele>
        <time>2020-08-28T11:09:55Z</time>
      </trkpt>
      <trkpt lat="40.371998" lon="-1.091276">
        <ele>942.164</ele>
        <time>2020-08-28T11:09:57Z</time>
      </trkpt>
      <trkpt lat="40.371991" lon="-1.091351">
        <ele>942.241</ele>
        <time>2020-08-28T11:09:59Z</time>
      </trkpt>
      <trkpt lat="40.371988" lon="-1.09143">
        <ele>942.379</ele>
        <time>2020-08-28T11:10:01Z</time>
      </trkpt>
      <trkpt lat="40.371979" lon="-1.091508">
        <ele>942.389</ele>
        <time>2020-08-28T11:10:03Z</time>
      </trkpt>
      <trkpt lat="40.371975" lon="-1.091588">
        <ele>942.371</ele>
        <time>2020-08-28T11:10:05Z</time>
      </trkpt>
      <trkpt lat="40.371971" lon="-1.091666">
        <ele>942.441</ele>
        <time>2020-08-28T11:10:07Z</time>
      </trkpt>
      <trkpt lat="40.371957" lon="-1.091744">
        <ele>942.415</ele>
        <time>2020-08-28T11:10:09Z</time>
      </trkpt>
      <trkpt lat="40.371954" lon="-1.091818">
        <ele>942.508</ele>
        <time>2020-08-28T11:10:11Z</time>
      </trkpt>
      <trkpt lat="40.371949" lon="-1.091887">
        <ele>942.622</ele>
        <time>2020-08-28T11:10:13Z</time>
      </trkpt>
      <trkpt lat="40.371939" lon="-1.091968">
        <ele>942.792</ele>
        <time>2020-08-28T11:10:15Z</time>
      </trkpt>
      <trkpt lat="40.37193" lon="-1.092045">
        <ele>942.834</ele>
        <time>2020-08-28T11:10:17Z</time>
      </trkpt>
      <trkpt lat="40.371922" lon="-1.092123">
        <ele>942.986</ele>
        <time>2020-08-28T11:10:19Z</time>
      </trkpt>
      <trkpt lat="40.371916" lon="-1.092203">
        <ele>943.094</ele>
        <time>2020-08-28T11:10:21Z</time>
      </trkpt>
      <trkpt lat="40.37191" lon="-1.092281">
        <ele>943.131</ele>
        <time>2020-08-28T11:10:23Z</time>
      </trkpt>
      <trkpt lat="40.371902" lon="-1.092363">
        <ele>943.249</ele>
        <time>2020-08-28T11:10:25Z</time>
      </trkpt>
      <trkpt lat="40.371898" lon="-1.092442">
        <ele>943.369</ele>
        <time>2020-08-28T11:10:27Z</time>
      </trkpt>
      <trkpt lat="40.371886" lon="-1.092522">
        <ele>943.432</ele>
        <time>2020-08-28T11:10:29Z</time>
      </trkpt>
      <trkpt lat="40.371876" lon="-1.0926">
        <ele>943.592</ele>
        <time>2020-08-28T11:10:31Z</time>
      </trkpt>
      <trkpt lat="40.371867" lon="-1.092675">
        <ele>943.611</ele>
        <time>2020-08-28T11:10:33Z</time>
      </trkpt>
      <trkpt lat="40.371853" lon="-1.092752">
        <ele>943.708</ele>
        <time>2020-08-28T11:10:35Z</time>
      </trkpt>
      <trkpt lat="40.371843" lon="-1.092823">
        <ele>943.858</ele>
        <time>2020-08-28T11:10:37Z</time>
      </trkpt>
      <trkpt lat="40.371826" lon="-1.092903">
        <ele>943.868</ele>
        <time>2020-08-28T11:10:39Z</time>
      </trkpt>
      <trkpt lat="40.371808" lon="-1.092968">
        <ele>943.880</ele>
        <time>2020-08-28T11:10:41Z</time>
      </trkpt>
      <trkpt lat="40.371793" lon="-1.093041">
        <ele>943.842</ele>
        <time>2020-08-28T11:10:43Z</time>
      </trkpt>
      <trkpt lat="40.371765" lon="-1.093114">
        <ele>943.880</ele>
        <time>2020-08-28T11:10:45Z</time>
      </trkpt>
      <trkpt lat="40.371734" lon="-1.093186">
        <ele>943.977</ele>
        <time>2020-08-28T11:10:47Z</time>
      </trkpt>
      <trkpt lat="40.371703" lon="-1.093256">
        <ele>944.035</ele>
        <time>2020-08-28T11:10:49Z</time>
      </trkpt>
      <trkpt lat="40.371672" lon="-1.093325">
        <ele>944.185</ele>
        <time>2020-08-28T11:10:51Z</time>
      </trkpt>
      <trkpt lat="40.371644" lon="-1.093388">
        <ele>944.224</ele>
        <time>2020-08-28T11:10:53Z</time>
      </trkpt>
      <trkpt lat="40.371612" lon="-1.093454">
        <ele>944.404</ele>
        <time>2020-08-28T11:10:55Z</time>
      </trkpt>
      <trkpt lat="40.371579" lon="-1.09352">
        <ele>944.514</ele>
        <time>2020-08-28T11:10:57Z</time>
      </trkpt>
      <trkpt lat="40.371542" lon="-1.093587">
        <ele>944.608</ele>
        <time>2020-08-28T11:10:59Z</time>
      </trkpt>
      <trkpt lat="40.371505" lon="-1.093653">
        <ele>944.667</ele>
        <time>2020-08-28T11:11:01Z</time>
      </trkpt>
      <trkpt lat="40.371461" lon="-1.093715">
        <ele>944.767</ele>
        <time>2020-08-28T11:11:03Z</time>
      </trkpt>
      <trkpt lat="40.371423" lon="-1.093782">
        <ele>944.879</ele>
        <time>2020-08-28T11:11:05Z</time>
      </trkpt>
      <trkpt lat="40.371377" lon="-1.093843">
        <ele>944.961</ele>
        <time>2020-08-28T11:11:07Z</time>
      </trkpt>
      <trkpt lat="40.371332" lon="-1.093896">
        <ele>944.969</ele>
        <time>2020-08-28T11:11:09Z</time>
      </trkpt>
      <trkpt lat="40.371283" lon="-1.093951">
        <ele>944.926</ele>
        <time>2020-08-28T11:11:11Z</time>
      </trkpt>
      <trkpt lat="40.371234" lon="-1.094008">
        <ele>945.044</ele>
        <time>2020-08-28T11:11:13Z</time>
      </trkpt>
      <trkpt lat="40.371179" lon="-1.094057">
        <ele>945.174</ele>
        <time>2020-08-28T11:11:15Z</time>
      </trkpt>
      <trkpt lat="40.371124" lon="-1.094103">
        <ele>945.178</ele>
        <time>2020-08-28T11:11:17Z</time>
      </trkpt>
      <trkpt lat="40.371073" lon="-1.094144">
        <ele>945.133</ele>
        <time>2020-08-28T11:11:19Z</time>
      </trkpt>
      <trkpt lat="40.371023" lon="-1.094186">
        <ele>945.126</ele>
        <time>2020-08-28T11:11:21Z</time>
      </trkpt>
      <trkpt lat="40.370974" lon="-1.094223">
        <ele>945.208</ele>
        <time>2020-08-28T11:11:23Z</time>
      </trkpt>
      <trkpt lat="40.37092" lon="-1.094267">
        <ele>945.442</ele>
        <time>2020-08-28T11:11:25Z</time>
      </trkpt>
      <trkpt lat="40.370862" lon="-1.094307">
        <ele>945.512</ele>
        <time>2020-08-28T11:11:27Z</time>
      </trkpt>
      <trkpt lat="40.370803" lon="-1.094343">
        <ele>945.594</ele>
        <time>2020-08-28T11:11:29Z</time>
      </trkpt>
      <trkpt lat="40.370751" lon="-1.094369">
        <ele>945.616</ele>
        <time>2020-08-28T11:11:31Z</time>
      </trkpt>
      <trkpt lat="40.370695" lon="-1.09439">
        <ele>945.884</ele>
        <time>2020-08-28T11:11:33Z</time>
      </trkpt>
      <trkpt lat="40.370633" lon="-1.094417">
        <ele>945.981</ele>
        <time>2020-08-28T11:11:35Z</time>
      </trkpt>
      <trkpt lat="40.370574" lon="-1.09444">
        <ele>946.049</ele>
        <time>2020-08-28T11:11:37Z</time>
      </trkpt>
      <trkpt lat="40.37052" lon="-1.09446">
        <ele>946.169</ele>
        <time>2020-08-28T11:11:39Z</time>
      </trkpt>
      <trkpt lat="40.370465" lon="-1.094479">
        <ele>946.169</ele>
        <time>2020-08-28T11:11:41Z</time>
      </trkpt>
      <trkpt lat="40.370408" lon="-1.094491">
        <ele>946.204</ele>
        <time>2020-08-28T11:11:43Z</time>
      </trkpt>
      <trkpt lat="40.370352" lon="-1.094502">
        <ele>946.324</ele>
        <time>2020-08-28T11:11:45Z</time>
      </trkpt>
      <trkpt lat="40.370293" lon="-1.094522">
        <ele>946.408</ele>
        <time>2020-08-28T11:11:47Z</time>
      </trkpt>
      <trkpt lat="40.37023" lon="-1.094534">
        <ele>946.551</ele>
        <time>2020-08-28T11:11:49Z</time>
      </trkpt>
      <trkpt lat="40.370173" lon="-1.094544">
        <ele>946.771</ele>
        <time>2020-08-28T11:11:51Z</time>
      </trkpt>
      <trkpt lat="40.370113" lon="-1.09456">
        <ele>946.883</ele>
        <time>2020-08-28T11:11:53Z</time>
      </trkpt>
      <trkpt lat="40.370051" lon="-1.094571">
        <ele>946.845</ele>
        <time>2020-08-28T11:11:55Z</time>
      </trkpt>
      <trkpt lat="40.369997" lon="-1.094591">
        <ele>946.893</ele>
        <time>2020-08-28T11:11:57Z</time>
      </trkpt>
      <trkpt lat="40.369937" lon="-1.094605">
        <ele>946.860</ele>
        <time>2020-08-28T11:11:59Z</time>
      </trkpt>
      <trkpt lat="40.369878" lon="-1.094618">
        <ele>946.978</ele>
        <time>2020-08-28T11:12:01Z</time>
      </trkpt>
      <trkpt lat="40.369824" lon="-1.094628">
        <ele>947.078</ele>
        <time>2020-08-28T11:12:03Z</time>
      </trkpt>
      <trkpt lat="40.369766" lon="-1.094642">
        <ele>947.195</ele>
        <time>2020-08-28T11:12:05Z</time>
      </trkpt>
      <trkpt lat="40.369708" lon="-1.094656">
        <ele>947.249</ele>
        <time>2020-08-28T11:12:07Z</time>
      </trkpt>
      <trkpt lat="40.369653" lon="-1.094663">
        <ele>947.323</ele>
        <time>2020-08-28T11:12:09Z</time>
      </trkpt>
      <trkpt lat="40.369592" lon="-1.094678">
        <ele>947.408</ele>
        <time>2020-08-28T11:12:11Z</time>
      </trkpt>
      <trkpt lat="40.369533" lon="-1.094686">
        <ele>947.444</ele>
        <time>2020-08-28T11:12:13Z</time>
      </trkpt>
      <trkpt lat="40.369474" lon="-1.094693">
        <ele>947.484</ele>
        <time>2020-08-28T11:12:15Z</time>
      </trkpt>
      <trkpt lat="40.369411" lon="-1.094706">
        <ele>947.496</ele>
        <time>2020-08-28T11:12:17Z</time>
      </trkpt>
      <trkpt lat="40.369349" lon="-1.094723">
        <ele>947.518</ele>
        <time>2020-08-28T11:12:19Z</time>
      </trkpt>
      <trkpt lat="40.36929" lon="-1.09474">
        <ele>947.586</ele>
        <time>2020-08-28T11:12:21Z</time>
      </trkpt>
      <trkpt lat="40.369227" lon="-1.09476">
        <ele>947.693</ele>
        <time>2020-08-28T11:12:23Z</time>
      </trkpt>
      <trkpt lat="40.369169" lon="-1.094766">
        <ele>947.741</ele>
        <time>2020-08-28T11:12:25Z</time>
      </trkpt>
      <trkpt lat="40.369108" lon="-1.094783">
        <ele>947.761</ele>
        <time>2020-08-28T11:12:27Z</time>
      </trkpt>
      <trkpt lat="40.369054" lon="-1.094795">
        <ele>947.629</ele>
        <time>2020-08-28T11:12:29Z</time>
      </trkpt>
      <trkpt lat="40.368991" lon="-1.09481">
        <ele>947.600</ele>
        <time>2020-08-28T11:12:31Z</time>
      </trkpt>
      <trkpt lat="40.368931" lon="-1.094823">
        <ele>947.720</ele>
        <time>2020-08-28T11:12:33Z</time>
      </trkpt>
      <trkpt lat="40.368875" lon="-1.094838">
        <ele>947.708</ele>
        <time>2020-08-28T11:12:35Z</time>
      </trkpt>
      <trkpt lat="40.368819" lon="-1.094853">
        <ele>947.877</ele>
        <time>2020-08-28T11:12:37Z</time>
      </trkpt>
      <trkpt lat="40.36876" lon="-1.094859">
        <ele>947.997</ele>
        <time>2020-08-28T11:12:39Z</time>
      </trkpt>
      <trkpt lat="40.368701" lon="-1.094868">
        <ele>947.989</ele>
        <time>2020-08-28T11:12:41Z</time>
      </trkpt>
      <trkpt lat="40.368646" lon="-1.094875">
        <ele>947.981</ele>
        <time>2020-08-28T11:12:43Z</time>
      </trkpt>
      <trkpt lat="40.36859" lon="-1.09488">
        <ele>948.089</ele>
        <time>2020-08-28T11:12:45Z</time>
      </trkpt>
      <trkpt lat="40.368532" lon="-1.09488">
        <ele>948.196</ele>
        <time>2020-08-28T11:12:47Z</time>
      </trkpt>
      <trkpt lat="40.368477" lon="-1.094879">
        <ele>948.124</ele>
        <time>2020-08-28T11:12:49Z</time>
      </trkpt>
      <trkpt lat="40.368418" lon="-1.094878">
        <ele>948.134</ele>
        <time>2020-08-28T11:12:51Z</time>
      </trkpt>
      <trkpt lat="40.368355" lon="-1.094876">
        <ele>948.141</ele>
        <time>2020-08-28T11:12:53Z</time>
      </trkpt>
      <trkpt lat="40.368299" lon="-1.094877">
        <ele>948.181</ele>
        <time>2020-08-28T11:12:55Z</time>
      </trkpt>
      <trkpt lat="40.368243" lon="-1.094865">
        <ele>948.209</ele>
        <time>2020-08-28T11:12:57Z</time>
      </trkpt>
      <trkpt lat="40.368184" lon="-1.09486">
        <ele>948.308</ele>
        <time>2020-08-28T11:12:59Z</time>
      </trkpt>
      <trkpt lat="40.368129" lon="-1.094851">
        <ele>948.349</ele>
        <time>2020-08-28T11:13:01Z</time>
      </trkpt>
      <trkpt lat="40.368067" lon="-1.094842">
        <ele>948.389</ele>
        <time>2020-08-28T11:13:03Z</time>
      </trkpt>
      <trkpt lat="40.368007" lon="-1.09484">
        <ele>948.391</ele>
        <time>2020-08-28T11:13:05Z</time>
      </trkpt>
      <trkpt lat="40.367946" lon="-1.094825">
        <ele>948.333</ele>
        <time>2020-08-28T11:13:07Z</time>
      </trkpt>
      <trkpt lat="40.367889" lon="-1.094809">
        <ele>948.481</ele>
        <time>2020-08-28T11:13:09Z</time>
      </trkpt>
      <trkpt lat="40.367829" lon="-1.094792">
        <ele>948.658</ele>
        <time>2020-08-28T11:13:11Z</time>
      </trkpt>
      <trkpt lat="40.367772" lon="-1.094776">
        <ele>948.736</ele>
        <time>2020-08-28T11:13:13Z</time>
      </trkpt>
      <trkpt lat="40.367721" lon="-1.094757">
        <ele>948.816</ele>
        <time>2020-08-28T11:13:15Z</time>
      </trkpt>
      <trkpt lat="40.367666" lon="-1.094731">
        <ele>948.997</ele>
        <time>2020-08-28T11:13:17Z</time>
      </trkpt>
      <trkpt lat="40.367609" lon="-1.094702">
        <ele>949.023</ele>
        <time>2020-08-28T11:13:19Z</time>
      </trkpt>
      <trkpt lat="40.36755" lon="-1.094682">
        <ele>949.025</ele>
        <time>2020-08-28T11:13:21Z</time>
      </trkpt>
      <trkpt lat="40.367491" lon="-1.09466">
        <ele>949.008</ele>
        <time>2020-08-28T11:13:23Z</time>
      </trkpt>
      <trkpt lat="40.367434" lon="-1.094629">
        <ele>949.034</ele>
        <time>2020-08-28T11:13:25Z</time>
      </trkpt>
      <trkpt lat="40.367379" lon="-1.094594">
        <ele>949.154</ele>
        <time>2020-08-28T11:13:27Z</time>
      </trkpt>
      <trkpt lat="40.367325" lon="-1.094563">
        <ele>949.236</ele>
        <time>2020-08-28T11:13:29Z</time>
      </trkpt>
      <trkpt lat="40.367271" lon="-1.094523">
        <ele>949.328</ele>
        <time>2020-08-28T11:13:31Z</time>
      </trkpt>
      <trkpt lat="40.367216" lon="-1.09448">
        <ele>949.326</ele>
        <time>2020-08-28T11:13:33Z</time>
      </trkpt>
      <trkpt lat="40.367168" lon="-1.094432">
        <ele>949.433</ele>
        <time>2020-08-28T11:13:35Z</time>
      </trkpt>
      <trkpt lat="40.367116" lon="-1.094394">
        <ele>949.581</ele>
        <time>2020-08-28T11:13:37Z</time>
      </trkpt>
      <trkpt lat="40.367067" lon="-1.094352">
        <ele>949.641</ele>
        <time>2020-08-28T11:13:39Z</time>
      </trkpt>
      <trkpt lat="40.367011" lon="-1.094313">
        <ele>949.642</ele>
        <time>2020-08-28T11:13:41Z</time>
      </trkpt>
      <trkpt lat="40.36696" lon="-1.094267">
        <ele>949.622</ele>
        <time>2020-08-28T11:13:43Z</time>
      </trkpt>
      <trkpt lat="40.36691" lon="-1.094226">
        <ele>949.714</ele>
        <time>2020-08-28T11:13:45Z</time>
      </trkpt>
      <trkpt lat="40.366855" lon="-1.094185">
        <ele>949.708</ele>
        <time>2020-08-28T11:13:47Z</time>
      </trkpt>
      <trkpt lat="40.366807" lon="-1.094142">
        <ele>949.779</ele>
        <time>2020-08-28T11:13:49Z</time>
      </trkpt>
      <trkpt lat="40.366752" lon="-1.094098">
        <ele>949.769</ele>
        <time>2020-08-28T11:13:51Z</time>
      </trkpt>
      <trkpt lat="40.3667" lon="-1.094058">
        <ele>949.881</ele>
        <time>2020-08-28T11:13:53Z</time>
      </trkpt>
      <trkpt lat="40.366644" lon="-1.094017">
        <ele>949.983</ele>
        <time>2020-08-28T11:13:55Z</time>
      </trkpt>
      <trkpt lat="40.366591" lon="-1.093977">
        <ele>950.021</ele>
        <time>2020-08-28T11:13:57Z</time>
      </trkpt>
      <trkpt lat="40.36654" lon="-1.09394">
        <ele>950.158</ele>
        <time>2020-08-28T11:13:59Z</time>
      </trkpt>
      <trkpt lat="40.366487" lon="-1.0939">
        <ele>950.266</ele>
        <time>2020-08-28T11:14:01Z</time>
      </trkpt>
      <trkpt lat="40.366435" lon="-1.093861">
        <ele>950.286</ele>
        <time>2020-08-28T11:14:03Z</time>
      </trkpt>
      <trkpt lat="40.366388" lon="-1.093815">
        <ele>950.361</ele>
        <time>2020-08-28T11:14:05Z</time>
      </trkpt>
      <trkpt lat="40.366339" lon="-1.093777">
        <ele>950.521</ele>
        <time>2020-08-28T11:14:07Z</time>
      </trkpt>
      <trkpt lat="40.36629" lon="-1.093732">
        <ele>950.613</ele>
        <time>2020-08-28T11:14:09Z</time>
      </trkpt>
      <trkpt lat="40.366242" lon="-1.093684">
        <ele>950.608</ele>
        <time>2020-08-28T11:14:11Z</time>
      </trkpt>
      <trkpt lat="40.366199" lon="-1.093636">
        <ele>950.681</ele>
        <time>2020-08-28T11:14:13Z</time>
      </trkpt>
      <trkpt lat="40.366152" lon="-1.093589">
        <ele>950.751</ele>
        <time>2020-08-28T11:14:15Z</time>
      </trkpt>
      <trkpt lat="40.366104" lon="-1.093528">
        <ele>950.833</ele>
        <time>2020-08-28T11:14:17Z</time>
      </trkpt>
      <trkpt lat="40.366063" lon="-1.093478">
        <ele>950.935</ele>
        <time>2020-08-28T11:14:19Z</time>
      </trkpt>
      <trkpt lat="40.366021" lon="-1.093423">
        <ele>951.133</ele>
        <time>2020-08-28T11:14:21Z</time>
      </trkpt>
      <trkpt lat="40.365979" lon="-1.093361">
        <ele>951.230</ele>
        <time>2020-08-28T11:14:23Z</time>
      </trkpt>
      <trkpt lat="40.365934" lon="-1.093301">
        <ele>951.268</ele>
        <time>2020-08-28T11:14:25Z</time>
      </trkpt>
      <trkpt lat="40.365904" lon="-1.093241">
        <ele>951.358</ele>
        <time>2020-08-28T11:14:27Z</time>
      </trkpt>
      <trkpt lat="40.365866" lon="-1.093175">
        <ele>951.437</ele>
        <time>2020-08-28T11:14:29Z</time>
      </trkpt>
      <trkpt lat="40.365826" lon="-1.09311">
        <ele>951.549</ele>
        <time>2020-08-28T11:14:31Z</time>
      </trkpt>
      <trkpt lat="40.365795" lon="-1.093041">
        <ele>951.613</ele>
        <time>2020-08-28T11:14:33Z</time>
      </trkpt>
      <trkpt lat="40.365766" lon="-1.09297">
        <ele>951.708</ele>
        <time>2020-08-28T11:14:35Z</time>
      </trkpt>
      <trkpt lat="40.365732" lon="-1.09291">
        <ele>951.718</ele>
        <time>2020-08-28T11:14:37Z</time>
      </trkpt>
      <trkpt lat="40.365709" lon="-1.092845">
        <ele>951.898</ele>
        <time>2020-08-28T11:14:39Z</time>
      </trkpt>
      <trkpt lat="40.36568" lon="-1.092777">
        <ele>951.910</ele>
        <time>2020-08-28T11:14:41Z</time>
      </trkpt>
      <trkpt lat="40.365654" lon="-1.092705">
        <ele>952.042</ele>
        <time>2020-08-28T11:14:43Z</time>
      </trkpt>
      <trkpt lat="40.365632" lon="-1.092628">
        <ele>952.190</ele>
        <time>2020-08-28T11:14:45Z</time>
      </trkpt>
      <trkpt lat="40.365614" lon="-1.092547">
        <ele>952.297</ele>
        <time>2020-08-28T11:14:47Z</time>
      </trkpt>
      <trkpt lat="40.365595" lon="-1.092468">
        <ele>952.335</ele>
        <time>2020-08-28T11:14:49Z</time>
      </trkpt>
      <trkpt lat="40.365575" lon="-1.092383">
        <ele>952.455</ele>
        <time>2020-08-28T11:14:51Z</time>
      </trkpt>
      <trkpt lat="40.36555" lon="-1.092295">
        <ele>952.427</ele>
        <time>2020-08-28T11:14:53Z</time>
      </trkpt>
      <trkpt lat="40.36553" lon="-1.092211">
        <ele>952.568</ele>
        <time>2020-08-28T11:14:55Z</time>
      </trkpt>
      <trkpt lat="40.365502" lon="-1.09213">
        <ele>952.514</ele>
        <time>2020-08-28T11:14:57Z</time>
      </trkpt>
      <trkpt lat="40.365485" lon="-1.092049">
        <ele>952.508</ele>
        <time>2020-08-28T11:14:59Z</time>
      </trkpt>
      <trkpt lat="40.365459" lon="-1.09197">
        <ele>952.567</ele>
        <time>2020-08-28T11:15:01Z</time>
      </trkpt>
      <trkpt lat="40.365433" lon="-1.091891">
        <ele>952.547</ele>
        <time>2020-08-28T11:15:03Z</time>
      </trkpt>
      <trkpt lat="40.365416" lon="-1.091816">
        <ele>952.649</ele>
        <time>2020-08-28T11:15:05Z</time>
      </trkpt>
      <trkpt lat="40.365393" lon="-1.091742">
        <ele>952.781</ele>
        <time>2020-08-28T11:15:07Z</time>
      </trkpt>
      <trkpt lat="40.365376" lon="-1.091659">
        <ele>952.829</ele>
        <time>2020-08-28T11:15:09Z</time>
      </trkpt>
      <trkpt lat="40.365351" lon="-1.091582">
        <ele>952.856</ele>
        <time>2020-08-28T11:15:11Z</time>
      </trkpt>
      <trkpt lat="40.365324" lon="-1.091506">
        <ele>952.994</ele>
        <time>2020-08-28T11:15:13Z</time>
      </trkpt>
      <trkpt lat="40.365303" lon="-1.091423">
        <ele>953.044</ele>
        <time>2020-08-28T11:15:15Z</time>
      </trkpt>
      <trkpt lat="40.365278" lon="-1.091346">
        <ele>953.194</ele>
        <time>2020-08-28T11:15:17Z</time>
      </trkpt>
      <trkpt lat="40.365258" lon="-1.091264">
        <ele>953.257</ele>
        <time>2020-08-28T11:15:19Z</time>
      </trkpt>
      <trkpt lat="40.365235" lon="-1.091187">
        <ele>953.322</ele>
        <time>2020-08-28T11:15:21Z</time>
      </trkpt>
      <trkpt lat="40.365218" lon="-1.091113">
        <ele>953.408</ele>
        <time>2020-08-28T11:15:23Z</time>
      </trkpt>
      <trkpt lat="40.365189" lon="-1.091037">
        <ele>953.534</ele>
        <time>2020-08-28T11:15:25Z</time>
      </trkpt>
      <trkpt lat="40.365171" lon="-1.090957">
        <ele>953.674</ele>
        <time>2020-08-28T11:15:27Z</time>
      </trkpt>
      <trkpt lat="40.365146" lon="-1.090878">
        <ele>953.756</ele>
        <time>2020-08-28T11:15:29Z</time>
      </trkpt>
      <trkpt lat="40.365119" lon="-1.090798">
        <ele>953.828</ele>
        <time>2020-08-28T11:15:31Z</time>
      </trkpt>
      <trkpt lat="40.365098" lon="-1.090711">
        <ele>953.836</ele>
        <time>2020-08-28T11:15:33Z</time>
      </trkpt>
      <trkpt lat="40.365077" lon="-1.090629">
        <ele>953.813</ele>
        <time>2020-08-28T11:15:35Z</time>
      </trkpt>
      <trkpt lat="40.365053" lon="-1.090544">
        <ele>953.921</ele>
        <time>2020-08-28T11:15:37Z</time>
      </trkpt>
      <trkpt lat="40.365031" lon="-1.090464">
        <ele>954.021</ele>
        <time>2020-08-28T11:15:39Z</time>
      </trkpt>
      <trkpt lat="40.365001" lon="-1.090381">
        <ele>954.088</ele>
        <time>2020-08-28T11:15:41Z</time>
      </trkpt>
      <trkpt lat="40.36498" lon="-1.090303">
        <ele>954.024</ele>
        <time>2020-08-28T11:15:43Z</time>
      </trkpt>
      <trkpt lat="40.364954" lon="-1.09022">
        <ele>954.126</ele>
        <time>2020-08-28T11:15:45Z</time>
      </trkpt>
      <trkpt lat="40.364918" lon="-1.090135">
        <ele>954.208</ele>
        <time>2020-08-28T11:15:47Z</time>
      </trkpt>
      <trkpt lat="40.364901" lon="-1.090056">
        <ele>954.353</ele>
        <time>2020-08-28T11:15:49Z</time>
      </trkpt>
      <trkpt lat="40.364867" lon="-1.089982">
        <ele>954.413</ele>
        <time>2020-08-28T11:15:51Z</time>
      </trkpt>
      <trkpt lat="40.364838" lon="-1.089907">
        <ele>954.475</ele>
        <time>2020-08-28T11:15:53Z</time>
      </trkpt>
      <trkpt lat="40.364807" lon="-1.089841">
        <ele>954.477</ele>
        <time>2020-08-28T11:15:55Z</time>
      </trkpt>
      <trkpt lat="40.364774" lon="-1.089769">
        <ele>954.425</ele>
        <time>2020-08-28T11:15:57Z</time>
      </trkpt>
      <trkpt lat="40.36474" lon="-1.089703">
        <ele>954.482</ele>
        <time>2020-08-28T11:15:59Z</time>
      </trkpt>
      <trkpt lat="40.364704" lon="-1.089637">
        <ele>954.520</ele>
        <time>2020-08-28T11:16:01Z</time>
      </trkpt>
      <trkpt lat="40.364669" lon="-1.089572">
        <ele>954.620</ele>
        <time>2020-08-28T11:16:03Z</time>
      </trkpt>
      <trkpt lat="40.364635" lon="-1.089511">
        <ele>954.892</ele>
        <time>2020-08-28T11:16:05Z</time>
      </trkpt>
      <trkpt lat="40.364596" lon="-1.089463">
        <ele>954.973</ele>
        <time>2020-08-28T11:16:07Z</time>
      </trkpt>
      <trkpt lat="40.364557" lon="-1.089408">
        <ele>955.020</ele>
        <time>2020-08-28T11:16:09Z</time>
      </trkpt>
      <trkpt lat="40.364522" lon="-1.089356">
        <ele>955.708</ele>
        <time>2020-08-28T11:17:01Z</time>
      </trkpt>
      <trkpt lat="40.364521" lon="-1.089286">
        <ele>956.294</ele>
        <time>2020-08-28T11:20:32Z</time>
      </trkpt>
      <trkpt lat="40.364477" lon="-1.089246">
        <ele>956.684</ele>
        <time>2020-08-28T11:20:35Z</time>
      </trkpt>
      <trkpt lat="40.36443" lon="-1.089202">
        <ele>956.836</ele>
        <time>2020-08-28T11:20:38Z</time>
      </trkpt>
      <trkpt lat="40.364375" lon="-1.089151">
        <ele>957.058</ele>
        <time>2020-08-28T11:20:41Z</time>
      </trkpt>
      <trkpt lat="40.364327" lon="-1.089099">
        <ele>957.456</ele>
        <time>2020-08-28T11:20:44Z</time>
      </trkpt>
      <trkpt lat="40.364286" lon="-1.089064">
        <ele>957.613</ele>
        <time>2020-08-28T11:20:46Z</time>
      </trkpt>
      <trkpt lat="40.364238" lon="-1.089038">
        <ele>957.651</ele>
        <time>2020-08-28T11:20:48Z</time>
      </trkpt>
      <trkpt lat="40.364185" lon="-1.089013">
        <ele>957.591</ele>
        <time>2020-08-28T11:20:50Z</time>
      </trkpt>
      <trkpt lat="40.364135" lon="-1.088982">
        <ele>957.496</ele>
        <time>2020-08-28T11:20:52Z</time>
      </trkpt>
      <trkpt lat="40.364083" lon="-1.088954">
        <ele>957.431</ele>
        <time>2020-08-28T11:20:54Z</time>
      </trkpt>
      <trkpt lat="40.364027" lon="-1.088932">
        <ele>957.524</ele>
        <time>2020-08-28T11:20:56Z</time>
      </trkpt>
      <trkpt lat="40.363974" lon="-1.088901">
        <ele>957.608</ele>
        <time>2020-08-28T11:20:58Z</time>
      </trkpt>
      <trkpt lat="40.363919" lon="-1.088864">
        <ele>957.824</ele>
        <time>2020-08-28T11:21:00Z</time>
      </trkpt>
      <trkpt lat="40.363869" lon="-1.088833">
        <ele>957.914</ele>
        <time>2020-08-28T11:21:02Z</time>
      </trkpt>
      <trkpt lat="40.363821" lon="-1.088802">
        <ele>957.986</ele>
        <time>2020-08-28T11:21:04Z</time>
      </trkpt>
      <trkpt lat="40.363763" lon="-1.088774">
        <ele>957.978</ele>
        <time>2020-08-28T11:21:06Z</time>
      </trkpt>
      <trkpt lat="40.363705" lon="-1.088744">
        <ele>958.016</ele>
        <time>2020-08-28T11:21:08Z</time>
      </trkpt>
      <trkpt lat="40.363644" lon="-1.088716">
        <ele>958.163</ele>
        <time>2020-08-28T11:21:10Z</time>
      </trkpt>
      <trkpt lat="40.363593" lon="-1.088673">
        <ele>958.221</ele>
        <time>2020-08-28T11:21:12Z</time>
      </trkpt>
      <trkpt lat="40.363551" lon="-1.088632">
        <ele>958.361</ele>
        <time>2020-08-28T11:21:14Z</time>
      </trkpt>
      <trkpt lat="40.363496" lon="-1.088584">
        <ele>958.331</ele>
        <time>2020-08-28T11:21:16Z</time>
      </trkpt>
      <trkpt lat="40.363437" lon="-1.088553">
        <ele>958.361</ele>
        <time>2020-08-28T11:21:18Z</time>
      </trkpt>
      <trkpt lat="40.363383" lon="-1.088518">
        <ele>958.307</ele>
        <time>2020-08-28T11:21:20Z</time>
      </trkpt>
      <trkpt lat="40.363329" lon="-1.088485">
        <ele>958.408</ele>
        <time>2020-08-28T11:21:22Z</time>
      </trkpt>
      <trkpt lat="40.363287" lon="-1.08846">
        <ele>958.458</ele>
        <time>2020-08-28T11:21:24Z</time>
      </trkpt>
      <trkpt lat="40.363245" lon="-1.08842">
        <ele>958.538</ele>
        <time>2020-08-28T11:21:26Z</time>
      </trkpt>
      <trkpt lat="40.363189" lon="-1.088377">
        <ele>958.640</ele>
        <time>2020-08-28T11:21:28Z</time>
      </trkpt>
      <trkpt lat="40.363139" lon="-1.08834">
        <ele>958.862</ele>
        <time>2020-08-28T11:21:30Z</time>
      </trkpt>
      <trkpt lat="40.363091" lon="-1.088307">
        <ele>958.950</ele>
        <time>2020-08-28T11:21:32Z</time>
      </trkpt>
      <trkpt lat="40.363036" lon="-1.088275">
        <ele>958.957</ele>
        <time>2020-08-28T11:21:34Z</time>
      </trkpt>
      <trkpt lat="40.362976" lon="-1.088235">
        <ele>958.925</ele>
        <time>2020-08-28T11:21:36Z</time>
      </trkpt>
      <trkpt lat="40.362925" lon="-1.088197">
        <ele>959.075</ele>
        <time>2020-08-28T11:21:38Z</time>
      </trkpt>
      <trkpt lat="40.36287" lon="-1.088165">
        <ele>959.148</ele>
        <time>2020-08-28T11:21:40Z</time>
      </trkpt>
      <trkpt lat="40.362809" lon="-1.088134">
        <ele>959.161</ele>
        <time>2020-08-28T11:21:42Z</time>
      </trkpt>
      <trkpt lat="40.362753" lon="-1.088098">
        <ele>959.117</ele>
        <time>2020-08-28T11:21:44Z</time>
      </trkpt>
      <trkpt lat="40.362702" lon="-1.088058">
        <ele>959.208</ele>
        <time>2020-08-28T11:21:46Z</time>
      </trkpt>
      <trkpt lat="40.362646" lon="-1.088015">
        <ele>959.259</ele>
        <time>2020-08-28T11:21:48Z</time>
      </trkpt>
      <trkpt lat="40.36258" lon="-1.087981">
        <ele>959.419</ele>
        <time>2020-08-28T11:21:50Z</time>
      </trkpt>
      <trkpt lat="40.362521" lon="-1.087947">
        <ele>959.721</ele>
        <time>2020-08-28T11:21:52Z</time>
      </trkpt>
      <trkpt lat="40.362462" lon="-1.087911">
        <ele>959.833</ele>
        <time>2020-08-28T11:21:54Z</time>
      </trkpt>
      <trkpt lat="40.362411" lon="-1.087869">
        <ele>959.861</ele>
        <time>2020-08-28T11:21:56Z</time>
      </trkpt>
      <trkpt lat="40.362367" lon="-1.0878">
        <ele>960.068</ele>
        <time>2020-08-28T11:22:01Z</time>
      </trkpt>
      <trkpt lat="40.362326" lon="-1.087764">
        <ele>960.116</ele>
        <time>2020-08-28T11:22:04Z</time>
      </trkpt>
      <trkpt lat="40.362276" lon="-1.087733">
        <ele>960.256</ele>
        <time>2020-08-28T11:22:06Z</time>
      </trkpt>
      <trkpt lat="40.362228" lon="-1.087705">
        <ele>960.475</ele>
        <time>2020-08-28T11:22:08Z</time>
      </trkpt>
      <trkpt lat="40.362181" lon="-1.087675">
        <ele>960.628</ele>
        <time>2020-08-28T11:22:10Z</time>
      </trkpt>
      <trkpt lat="40.362131" lon="-1.087645">
        <ele>960.720</ele>
        <time>2020-08-28T11:22:12Z</time>
      </trkpt>
      <trkpt lat="40.362082" lon="-1.087616">
        <ele>960.708</ele>
        <time>2020-08-28T11:22:14Z</time>
      </trkpt>
      <trkpt lat="40.362038" lon="-1.087577">
        <ele>960.982</ele>
        <time>2020-08-28T11:22:16Z</time>
      </trkpt>
      <trkpt lat="40.361986" lon="-1.087553">
        <ele>961.182</ele>
        <time>2020-08-28T11:22:18Z</time>
      </trkpt>
      <trkpt lat="40.361943" lon="-1.08752">
        <ele>961.284</ele>
        <time>2020-08-28T11:22:20Z</time>
      </trkpt>
      <trkpt lat="40.361902" lon="-1.087484">
        <ele>961.246</ele>
        <time>2020-08-28T11:22:22Z</time>
      </trkpt>
      <trkpt lat="40.361857" lon="-1.087449">
        <ele>961.434</ele>
        <time>2020-08-28T11:22:24Z</time>
      </trkpt>
      <trkpt lat="40.361805" lon="-1.08742">
        <ele>961.641</ele>
        <time>2020-08-28T11:22:26Z</time>
      </trkpt>
      <trkpt lat="40.361756" lon="-1.087394">
        <ele>961.569</ele>
        <time>2020-08-28T11:22:28Z</time>
      </trkpt>
      <trkpt lat="40.361709" lon="-1.087359">
        <ele>961.389</ele>
        <time>2020-08-28T11:22:30Z</time>
      </trkpt>
      <trkpt lat="40.361664" lon="-1.087325">
        <ele>961.388</ele>
        <time>2020-08-28T11:22:32Z</time>
      </trkpt>
      <trkpt lat="40.361612" lon="-1.087298">
        <ele>961.324</ele>
        <time>2020-08-28T11:22:34Z</time>
      </trkpt>
      <trkpt lat="40.361561" lon="-1.087272">
        <ele>961.326</ele>
        <time>2020-08-28T11:22:36Z</time>
      </trkpt>
      <trkpt lat="40.361507" lon="-1.087251">
        <ele>961.408</ele>
        <time>2020-08-28T11:22:38Z</time>
      </trkpt>
      <trkpt lat="40.36146" lon="-1.087221">
        <ele>961.483</ele>
        <time>2020-08-28T11:22:40Z</time>
      </trkpt>
      <trkpt lat="40.361411" lon="-1.087195">
        <ele>961.533</ele>
        <time>2020-08-28T11:22:42Z</time>
      </trkpt>
      <trkpt lat="40.361358" lon="-1.08717">
        <ele>961.545</ele>
        <time>2020-08-28T11:22:44Z</time>
      </trkpt>
      <trkpt lat="40.361313" lon="-1.087133">
        <ele>961.647</ele>
        <time>2020-08-28T11:22:46Z</time>
      </trkpt>
      <trkpt lat="40.361262" lon="-1.087106">
        <ele>961.725</ele>
        <time>2020-08-28T11:22:48Z</time>
      </trkpt>
      <trkpt lat="40.361225" lon="-1.087068">
        <ele>961.872</ele>
        <time>2020-08-28T11:22:50Z</time>
      </trkpt>
      <trkpt lat="40.361188" lon="-1.087032">
        <ele>961.930</ele>
        <time>2020-08-28T11:22:52Z</time>
      </trkpt>
      <trkpt lat="40.361145" lon="-1.086998">
        <ele>962.070</ele>
        <time>2020-08-28T11:22:54Z</time>
      </trkpt>
      <trkpt lat="40.361081" lon="-1.086942">
        <ele>962.211</ele>
        <time>2020-08-28T11:22:57Z</time>
      </trkpt>
      <trkpt lat="40.361012" lon="-1.086882">
        <ele>962.421</ele>
        <time>2020-08-28T11:23:00Z</time>
      </trkpt>
      <trkpt lat="40.360962" lon="-1.086837">
        <ele>962.503</ele>
        <time>2020-08-28T11:23:03Z</time>
      </trkpt>
      <trkpt lat="40.360914" lon="-1.0868">
        <ele>962.608</ele>
        <time>2020-08-28T11:23:05Z</time>
      </trkpt>
      <trkpt lat="40.360867" lon="-1.086764">
        <ele>962.726</ele>
        <time>2020-08-28T11:23:07Z</time>
      </trkpt>
      <trkpt lat="40.360821" lon="-1.086728">
        <ele>962.976</ele>
        <time>2020-08-28T11:23:09Z</time>
      </trkpt>
      <trkpt lat="40.360777" lon="-1.086692">
        <ele>963.118</ele>
        <time>2020-08-28T11:23:11Z</time>
      </trkpt>
      <trkpt lat="40.360729" lon="-1.086659">
        <ele>963.310</ele>
        <time>2020-08-28T11:23:13Z</time>
      </trkpt>
      <trkpt lat="40.360674" lon="-1.086612">
        <ele>963.688</ele>
        <time>2020-08-28T11:23:15Z</time>
      </trkpt>
      <trkpt lat="40.36062" lon="-1.086569">
        <ele>963.885</ele>
        <time>2020-08-28T11:23:18Z</time>
      </trkpt>
      <trkpt lat="40.360568" lon="-1.086544">
        <ele>963.983</ele>
        <time>2020-08-28T11:23:20Z</time>
      </trkpt>
      <trkpt lat="40.360528" lon="-1.086515">
        <ele>964.013</ele>
        <time>2020-08-28T11:23:22Z</time>
      </trkpt>
      <trkpt lat="40.36048" lon="-1.086453">
        <ele>964.413</ele>
        <time>2020-08-28T11:23:25Z</time>
      </trkpt>
      <trkpt lat="40.36044" lon="-1.086426">
        <ele>964.643</ele>
        <time>2020-08-28T11:23:27Z</time>
      </trkpt>
      <trkpt lat="40.36041" lon="-1.086383">
        <ele>965.007</ele>
        <time>2020-08-28T11:23:29Z</time>
      </trkpt>
      <trkpt lat="40.360358" lon="-1.08632">
        <ele>965.208</ele>
        <time>2020-08-28T11:23:31Z</time>
      </trkpt>
      <trkpt lat="40.360316" lon="-1.086281">
        <ele>965.436</ele>
        <time>2020-08-28T11:23:33Z</time>
      </trkpt>
      <trkpt lat="40.360275" lon="-1.086252">
        <ele>965.416</ele>
        <time>2020-08-28T11:23:34Z</time>
      </trkpt>
      <trkpt lat="40.360197" lon="-1.086201">
        <ele>965.758</ele>
        <time>2020-08-28T11:23:37Z</time>
      </trkpt>
      <trkpt lat="40.360136" lon="-1.086181">
        <ele>965.850</ele>
        <time>2020-08-28T11:23:39Z</time>
      </trkpt>
      <trkpt lat="40.36008" lon="-1.086156">
        <ele>965.968</ele>
        <time>2020-08-28T11:23:41Z</time>
      </trkpt>
      <trkpt lat="40.360025" lon="-1.086123">
        <ele>965.935</ele>
        <time>2020-08-28T11:23:43Z</time>
      </trkpt>
      <trkpt lat="40.359985" lon="-1.086086">
        <ele>966.133</ele>
        <time>2020-08-28T11:23:45Z</time>
      </trkpt>
      <trkpt lat="40.359943" lon="-1.086058">
        <ele>966.373</ele>
        <time>2020-08-28T11:23:47Z</time>
      </trkpt>
      <trkpt lat="40.359901" lon="-1.086015">
        <ele>966.419</ele>
        <time>2020-08-28T11:23:49Z</time>
      </trkpt>
      <trkpt lat="40.359835" lon="-1.085978">
        <ele>966.609</ele>
        <time>2020-08-28T11:23:51Z</time>
      </trkpt>
      <trkpt lat="40.359796" lon="-1.085933">
        <ele>966.719</ele>
        <time>2020-08-28T11:23:53Z</time>
      </trkpt>
      <trkpt lat="40.359764" lon="-1.085878">
        <ele>967.008</ele>
        <time>2020-08-28T11:23:55Z</time>
      </trkpt>
      <trkpt lat="40.359704" lon="-1.085836">
        <ele>967.396</ele>
        <time>2020-08-28T11:23:57Z</time>
      </trkpt>
      <trkpt lat="40.359656" lon="-1.085802">
        <ele>967.476</ele>
        <time>2020-08-28T11:23:59Z</time>
      </trkpt>
      <trkpt lat="40.359604" lon="-1.085773">
        <ele>967.448</ele>
        <time>2020-08-28T11:24:01Z</time>
      </trkpt>
      <trkpt lat="40.359562" lon="-1.085722">
        <ele>967.530</ele>
        <time>2020-08-28T11:24:03Z</time>
      </trkpt>
      <trkpt lat="40.359516" lon="-1.08569">
        <ele>967.648</ele>
        <time>2020-08-28T11:24:05Z</time>
      </trkpt>
      <trkpt lat="40.359448" lon="-1.085666">
        <ele>967.785</ele>
        <time>2020-08-28T11:24:07Z</time>
      </trkpt>
      <trkpt lat="40.359396" lon="-1.085635">
        <ele>967.793</ele>
        <time>2020-08-28T11:24:09Z</time>
      </trkpt>
      <trkpt lat="40.35935" lon="-1.085593">
        <ele>967.893</ele>
        <time>2020-08-28T11:24:11Z</time>
      </trkpt>
      <trkpt lat="40.359291" lon="-1.085555">
        <ele>967.953</ele>
        <time>2020-08-28T11:24:13Z</time>
      </trkpt>
      <trkpt lat="40.359245" lon="-1.085504">
        <ele>968.004</ele>
        <time>2020-08-28T11:24:15Z</time>
      </trkpt>
      <trkpt lat="40.35919" lon="-1.085473">
        <ele>968.114</ele>
        <time>2020-08-28T11:24:17Z</time>
      </trkpt>
      <trkpt lat="40.359136" lon="-1.085437">
        <ele>968.108</ele>
        <time>2020-08-28T11:24:19Z</time>
      </trkpt>
      <trkpt lat="40.359085" lon="-1.08542">
        <ele>968.280</ele>
        <time>2020-08-28T11:24:21Z</time>
      </trkpt>
      <trkpt lat="40.359027" lon="-1.08539">
        <ele>968.280</ele>
        <time>2020-08-28T11:24:23Z</time>
      </trkpt>
      <trkpt lat="40.358982" lon="-1.085343">
        <ele>968.272</ele>
        <time>2020-08-28T11:24:25Z</time>
      </trkpt>
      <trkpt lat="40.358937" lon="-1.085296">
        <ele>968.274</ele>
        <time>2020-08-28T11:24:28Z</time>
      </trkpt>
      <trkpt lat="40.358907" lon="-1.085248">
        <ele>968.312</ele>
        <time>2020-08-28T11:24:31Z</time>
      </trkpt>
      <trkpt lat="40.358158" lon="-1.084699">
        <ele>968.969</ele>
        <time>2020-08-28T11:24:53Z</time>
      </trkpt>
      <trkpt lat="40.357916" lon="-1.084781">
        <ele>968.947</ele>
        <time>2020-08-28T11:24:54Z</time>
      </trkpt>
      <trkpt lat="40.357806" lon="-1.084793">
        <ele>969.057</ele>
        <time>2020-08-28T11:24:55Z</time>
      </trkpt>
      <trkpt lat="40.357753" lon="-1.084728">
        <ele>968.926</ele>
        <time>2020-08-28T11:24:56Z</time>
      </trkpt>
      <trkpt lat="40.357708" lon="-1.084698">
        <ele>969.047</ele>
        <time>2020-08-28T11:24:57Z</time>
      </trkpt>
      <trkpt lat="40.35765" lon="-1.084689">
        <ele>969.111</ele>
        <time>2020-08-28T11:24:59Z</time>
      </trkpt>
      <trkpt lat="40.357588" lon="-1.084661">
        <ele>969.308</ele>
        <time>2020-08-28T11:25:01Z</time>
      </trkpt>
      <trkpt lat="40.357542" lon="-1.084623">
        <ele>969.687</ele>
        <time>2020-08-28T11:25:03Z</time>
      </trkpt>
      <trkpt lat="40.357473" lon="-1.084584">
        <ele>969.747</ele>
        <time>2020-08-28T11:25:05Z</time>
      </trkpt>
      <trkpt lat="40.357425" lon="-1.084534">
        <ele>969.929</ele>
        <time>2020-08-28T11:25:08Z</time>
      </trkpt>
      <trkpt lat="40.35738" lon="-1.08451">
        <ele>970.281</ele>
        <time>2020-08-28T11:25:10Z</time>
      </trkpt>
      <trkpt lat="40.357335" lon="-1.084484">
        <ele>970.569</ele>
        <time>2020-08-28T11:25:12Z</time>
      </trkpt>
      <trkpt lat="40.357296" lon="-1.08445">
        <ele>970.646</ele>
        <time>2020-08-28T11:25:14Z</time>
      </trkpt>
      <trkpt lat="40.357253" lon="-1.084408">
        <ele>970.994</ele>
        <time>2020-08-28T11:25:17Z</time>
      </trkpt>
      <trkpt lat="40.357205" lon="-1.084376">
        <ele>971.094</ele>
        <time>2020-08-28T11:25:19Z</time>
      </trkpt>
      <trkpt lat="40.357172" lon="-1.084336">
        <ele>971.154</ele>
        <time>2020-08-28T11:25:21Z</time>
      </trkpt>
      <trkpt lat="40.357138" lon="-1.084295">
        <ele>971.256</ele>
        <time>2020-08-28T11:25:23Z</time>
      </trkpt>
      <trkpt lat="40.357099" lon="-1.084259">
        <ele>971.411</ele>
        <time>2020-08-28T11:25:25Z</time>
      </trkpt>
      <trkpt lat="40.357069" lon="-1.084214">
        <ele>971.708</ele>
        <time>2020-08-28T11:25:27Z</time>
      </trkpt>
      <trkpt lat="40.357031" lon="-1.084173">
        <ele>971.920</ele>
        <time>2020-08-28T11:25:29Z</time>
      </trkpt>
      <trkpt lat="40.356998" lon="-1.084127">
        <ele>972.010</ele>
        <time>2020-08-28T11:25:31Z</time>
      </trkpt>
      <trkpt lat="40.356935" lon="-1.084053">
        <ele>972.012</ele>
        <time>2020-08-28T11:25:33Z</time>
      </trkpt>
      <trkpt lat="40.356888" lon="-1.084028">
        <ele>971.944</ele>
        <time>2020-08-28T11:25:34Z</time>
      </trkpt>
      <trkpt lat="40.356857" lon="-1.083966">
        <ele>972.052</ele>
        <time>2020-08-28T11:25:37Z</time>
      </trkpt>
      <trkpt lat="40.35681" lon="-1.08392">
        <ele>972.149</ele>
        <time>2020-08-28T11:25:39Z</time>
      </trkpt>
      <trkpt lat="40.356778" lon="-1.083862">
        <ele>972.277</ele>
        <time>2020-08-28T11:25:41Z</time>
      </trkpt>
      <trkpt lat="40.356736" lon="-1.08381">
        <ele>972.457</ele>
        <time>2020-08-28T11:25:43Z</time>
      </trkpt>
      <trkpt lat="40.3567" lon="-1.083754">
        <ele>972.528</ele>
        <time>2020-08-28T11:25:45Z</time>
      </trkpt>
      <trkpt lat="40.35666" lon="-1.0837">
        <ele>972.789</ele>
        <time>2020-08-28T11:25:47Z</time>
      </trkpt>
      <trkpt lat="40.356638" lon="-1.083645">
        <ele>972.917</ele>
        <time>2020-08-28T11:25:49Z</time>
      </trkpt>
      <trkpt lat="40.356606" lon="-1.083581">
        <ele>973.008</ele>
        <time>2020-08-28T11:25:51Z</time>
      </trkpt>
      <trkpt lat="40.356577" lon="-1.083518">
        <ele>973.247</ele>
        <time>2020-08-28T11:25:53Z</time>
      </trkpt>
      <trkpt lat="40.356532" lon="-1.083437">
        <ele>973.487</ele>
        <time>2020-08-28T11:25:55Z</time>
      </trkpt>
      <trkpt lat="40.356505" lon="-1.083381">
        <ele>973.549</ele>
        <time>2020-08-28T11:25:57Z</time>
      </trkpt>
      <trkpt lat="40.356484" lon="-1.083321">
        <ele>973.771</ele>
        <time>2020-08-28T11:25:59Z</time>
      </trkpt>
      <trkpt lat="40.356449" lon="-1.083246">
        <ele>974.079</ele>
        <time>2020-08-28T11:26:02Z</time>
      </trkpt>
      <trkpt lat="40.356426" lon="-1.083194">
        <ele>974.116</ele>
        <time>2020-08-28T11:26:03Z</time>
      </trkpt>
      <trkpt lat="40.356417" lon="-1.083136">
        <ele>974.274</ele>
        <time>2020-08-28T11:26:05Z</time>
      </trkpt>
      <trkpt lat="40.356386" lon="-1.083066">
        <ele>974.384</ele>
        <time>2020-08-28T11:26:07Z</time>
      </trkpt>
      <trkpt lat="40.356364" lon="-1.083">
        <ele>974.547</ele>
        <time>2020-08-28T11:26:09Z</time>
      </trkpt>
      <trkpt lat="40.356323" lon="-1.082915">
        <ele>974.829</ele>
        <time>2020-08-28T11:26:11Z</time>
      </trkpt>
      <trkpt lat="40.356291" lon="-1.082811">
        <ele>975.021</ele>
        <time>2020-08-28T11:26:13Z</time>
      </trkpt>
      <trkpt lat="40.35627" lon="-1.082719">
        <ele>974.908</ele>
        <time>2020-08-28T11:26:15Z</time>
      </trkpt>
      <trkpt lat="40.356247" lon="-1.082631">
        <ele>974.959</ele>
        <time>2020-08-28T11:26:17Z</time>
      </trkpt>
      <trkpt lat="40.356227" lon="-1.082532">
        <ele>974.939</ele>
        <time>2020-08-28T11:26:19Z</time>
      </trkpt>
      <trkpt lat="40.356213" lon="-1.082473">
        <ele>975.051</ele>
        <time>2020-08-28T11:26:21Z</time>
      </trkpt>
      <trkpt lat="40.356214" lon="-1.082405">
        <ele>975.213</ele>
        <time>2020-08-28T11:26:23Z</time>
      </trkpt>
      <trkpt lat="40.356198" lon="-1.082341">
        <ele>975.341</ele>
        <time>2020-08-28T11:26:25Z</time>
      </trkpt>
      <trkpt lat="40.356201" lon="-1.08228">
        <ele>975.438</ele>
        <time>2020-08-28T11:26:27Z</time>
      </trkpt>
      <trkpt lat="40.356192" lon="-1.082213">
        <ele>975.596</ele>
        <time>2020-08-28T11:26:29Z</time>
      </trkpt>
      <trkpt lat="40.35619" lon="-1.082153">
        <ele>975.616</ele>
        <time>2020-08-28T11:26:31Z</time>
      </trkpt>
      <trkpt lat="40.356192" lon="-1.082078">
        <ele>975.817</ele>
        <time>2020-08-28T11:26:34Z</time>
      </trkpt>
      <trkpt lat="40.356193" lon="-1.08201">
        <ele>976.087</ele>
        <time>2020-08-28T11:26:36Z</time>
      </trkpt>
      <trkpt lat="40.356194" lon="-1.081905">
        <ele>976.215</ele>
        <time>2020-08-28T11:26:39Z</time>
      </trkpt>
      <trkpt lat="40.356202" lon="-1.081825">
        <ele>976.408</ele>
        <time>2020-08-28T11:26:42Z</time>
      </trkpt>
      <trkpt lat="40.356208" lon="-1.081746">
        <ele>976.486</ele>
        <time>2020-08-28T11:26:44Z</time>
      </trkpt>
      <trkpt lat="40.356214" lon="-1.081666">
        <ele>976.546</ele>
        <time>2020-08-28T11:26:46Z</time>
      </trkpt>
      <trkpt lat="40.356216" lon="-1.081586">
        <ele>976.658</ele>
        <time>2020-08-28T11:26:48Z</time>
      </trkpt>
      <trkpt lat="40.356221" lon="-1.081516">
        <ele>976.610</ele>
        <time>2020-08-28T11:26:50Z</time>
      </trkpt>
      <trkpt lat="40.356229" lon="-1.081435">
        <ele>976.758</ele>
        <time>2020-08-28T11:26:52Z</time>
      </trkpt>
      <trkpt lat="40.356229" lon="-1.081374">
        <ele>977.085</ele>
        <time>2020-08-28T11:26:54Z</time>
      </trkpt>
      <trkpt lat="40.356228" lon="-1.081289">
        <ele>977.243</ele>
        <time>2020-08-28T11:26:56Z</time>
      </trkpt>
      <trkpt lat="40.35624" lon="-1.081225">
        <ele>977.253</ele>
        <time>2020-08-28T11:26:58Z</time>
      </trkpt>
      <trkpt lat="40.356254" lon="-1.081163">
        <ele>977.423</ele>
        <time>2020-08-28T11:27:00Z</time>
      </trkpt>
      <trkpt lat="40.356268" lon="-1.081091">
        <ele>977.583</ele>
        <time>2020-08-28T11:27:02Z</time>
      </trkpt>
      <trkpt lat="40.356279" lon="-1.08103">
        <ele>977.511</ele>
        <time>2020-08-28T11:27:04Z</time>
      </trkpt>
      <trkpt lat="40.356283" lon="-1.080966">
        <ele>977.608</ele>
        <time>2020-08-28T11:27:06Z</time>
      </trkpt>
      <trkpt lat="40.356292" lon="-1.080904">
        <ele>977.957</ele>
        <time>2020-08-28T11:27:08Z</time>
      </trkpt>
      <trkpt lat="40.356313" lon="-1.080829">
        <ele>978.017</ele>
        <time>2020-08-28T11:27:10Z</time>
      </trkpt>
      <trkpt lat="40.356316" lon="-1.080754">
        <ele>978.089</ele>
        <time>2020-08-28T11:27:12Z</time>
      </trkpt>
      <trkpt lat="40.356321" lon="-1.080677">
        <ele>977.951</ele>
        <time>2020-08-28T11:27:14Z</time>
      </trkpt>
      <trkpt lat="40.356323" lon="-1.080608">
        <ele>977.939</ele>
        <time>2020-08-28T11:27:16Z</time>
      </trkpt>
      <trkpt lat="40.356341" lon="-1.080529">
        <ele>978.076</ele>
        <time>2020-08-28T11:27:18Z</time>
      </trkpt>
      <trkpt lat="40.356351" lon="-1.08046">
        <ele>978.224</ele>
        <time>2020-08-28T11:27:20Z</time>
      </trkpt>
      <trkpt lat="40.356365" lon="-1.080384">
        <ele>978.284</ele>
        <time>2020-08-28T11:27:22Z</time>
      </trkpt>
      <trkpt lat="40.356373" lon="-1.08032">
        <ele>978.226</ele>
        <time>2020-08-28T11:27:24Z</time>
      </trkpt>
      <trkpt lat="40.356396" lon="-1.080241">
        <ele>978.247</ele>
        <time>2020-08-28T11:27:26Z</time>
      </trkpt>
      <trkpt lat="40.356405" lon="-1.080168">
        <ele>978.311</ele>
        <time>2020-08-28T11:27:28Z</time>
      </trkpt>
      <trkpt lat="40.356413" lon="-1.080095">
        <ele>978.408</ele>
        <time>2020-08-28T11:27:30Z</time>
      </trkpt>
      <trkpt lat="40.356413" lon="-1.080015">
        <ele>978.517</ele>
        <time>2020-08-28T11:27:32Z</time>
      </trkpt>
      <trkpt lat="40.356415" lon="-1.079935">
        <ele>978.537</ele>
        <time>2020-08-28T11:27:34Z</time>
      </trkpt>
      <trkpt lat="40.356421" lon="-1.079864">
        <ele>978.649</ele>
        <time>2020-08-28T11:27:36Z</time>
      </trkpt>
      <trkpt lat="40.356429" lon="-1.079784">
        <ele>978.711</ele>
        <time>2020-08-28T11:27:38Z</time>
      </trkpt>
      <trkpt lat="40.356432" lon="-1.079705">
        <ele>978.929</ele>
        <time>2020-08-28T11:27:40Z</time>
      </trkpt>
      <trkpt lat="40.356448" lon="-1.079637">
        <ele>979.116</ele>
        <time>2020-08-28T11:27:42Z</time>
      </trkpt>
      <trkpt lat="40.356464" lon="-1.079568">
        <ele>979.394</ele>
        <time>2020-08-28T11:27:44Z</time>
      </trkpt>
      <trkpt lat="40.356493" lon="-1.079503">
        <ele>979.424</ele>
        <time>2020-08-28T11:27:46Z</time>
      </trkpt>
      <trkpt lat="40.356507" lon="-1.079436">
        <ele>979.682</ele>
        <time>2020-08-28T11:27:48Z</time>
      </trkpt>
      <trkpt lat="40.356511" lon="-1.07936">
        <ele>979.843</ele>
        <time>2020-08-28T11:27:50Z</time>
      </trkpt>
      <trkpt lat="40.356517" lon="-1.079288">
        <ele>980.017</ele>
        <time>2020-08-28T11:27:52Z</time>
      </trkpt>
      <trkpt lat="40.356526" lon="-1.079216">
        <ele>980.008</ele>
        <time>2020-08-28T11:27:54Z</time>
      </trkpt>
      <trkpt lat="40.356533" lon="-1.079157">
        <ele>980.163</ele>
        <time>2020-08-28T11:27:56Z</time>
      </trkpt>
      <trkpt lat="40.356542" lon="-1.079093">
        <ele>980.253</ele>
        <time>2020-08-28T11:27:58Z</time>
      </trkpt>
      <trkpt lat="40.35655" lon="-1.079025">
        <ele>980.325</ele>
        <time>2020-08-28T11:28:00Z</time>
      </trkpt>
      <trkpt lat="40.356553" lon="-1.078957">
        <ele>980.447</ele>
        <time>2020-08-28T11:28:02Z</time>
      </trkpt>
      <trkpt lat="40.35656" lon="-1.078885">
        <ele>980.665</ele>
        <time>2020-08-28T11:28:04Z</time>
      </trkpt>
      <trkpt lat="40.356583" lon="-1.078807">
        <ele>980.792</ele>
        <time>2020-08-28T11:28:06Z</time>
      </trkpt>
      <trkpt lat="40.356596" lon="-1.078741">
        <ele>980.740</ele>
        <time>2020-08-28T11:28:07Z</time>
      </trkpt>
      <trkpt lat="40.356625" lon="-1.078639">
        <ele>980.790</ele>
        <time>2020-08-28T11:28:09Z</time>
      </trkpt>
      <trkpt lat="40.356656" lon="-1.078542">
        <ele>980.897</ele>
        <time>2020-08-28T11:28:11Z</time>
      </trkpt>
      <trkpt lat="40.356694" lon="-1.078443">
        <ele>981.023</ele>
        <time>2020-08-28T11:28:13Z</time>
      </trkpt>
      <trkpt lat="40.356719" lon="-1.078363">
        <ele>981.125</ele>
        <time>2020-08-28T11:28:15Z</time>
      </trkpt>
      <trkpt lat="40.356738" lon="-1.078297">
        <ele>981.208</ele>
        <time>2020-08-28T11:28:17Z</time>
      </trkpt>
      <trkpt lat="40.356757" lon="-1.07821">
        <ele>981.274</ele>
        <time>2020-08-28T11:28:19Z</time>
      </trkpt>
      <trkpt lat="40.356766" lon="-1.078151">
        <ele>981.224</ele>
        <time>2020-08-28T11:28:21Z</time>
      </trkpt>
      <trkpt lat="40.356789" lon="-1.078085">
        <ele>981.236</ele>
        <time>2020-08-28T11:28:23Z</time>
      </trkpt>
      <trkpt lat="40.356801" lon="-1.078025">
        <ele>981.468</ele>
        <time>2020-08-28T11:28:25Z</time>
      </trkpt>
      <trkpt lat="40.356816" lon="-1.077956">
        <ele>981.546</ele>
        <time>2020-08-28T11:28:27Z</time>
      </trkpt>
      <trkpt lat="40.356838" lon="-1.077887">
        <ele>981.773</ele>
        <time>2020-08-28T11:28:29Z</time>
      </trkpt>
      <trkpt lat="40.356851" lon="-1.077816">
        <ele>981.911</ele>
        <time>2020-08-28T11:28:31Z</time>
      </trkpt>
      <trkpt lat="40.356865" lon="-1.077743">
        <ele>982.121</ele>
        <time>2020-08-28T11:28:33Z</time>
      </trkpt>
      <trkpt lat="40.356885" lon="-1.077676">
        <ele>982.311</ele>
        <time>2020-08-28T11:28:35Z</time>
      </trkpt>
      <trkpt lat="40.356904" lon="-1.07761">
        <ele>982.421</ele>
        <time>2020-08-28T11:28:37Z</time>
      </trkpt>
      <trkpt lat="40.35692" lon="-1.077541">
        <ele>982.603</ele>
        <time>2020-08-28T11:28:39Z</time>
      </trkpt>
      <trkpt lat="40.356936" lon="-1.077472">
        <ele>982.708</ele>
        <time>2020-08-28T11:28:41Z</time>
      </trkpt>
      <trkpt lat="40.356958" lon="-1.077409">
        <ele>982.936</ele>
        <time>2020-08-28T11:28:43Z</time>
      </trkpt>
      <trkpt lat="40.356978" lon="-1.077339">
        <ele>983.116</ele>
        <time>2020-08-28T11:28:45Z</time>
      </trkpt>
      <trkpt lat="40.357002" lon="-1.077273">
        <ele>983.268</ele>
        <time>2020-08-28T11:28:47Z</time>
      </trkpt>
      <trkpt lat="40.357028" lon="-1.077206">
        <ele>983.360</ele>
        <time>2020-08-28T11:28:49Z</time>
      </trkpt>
      <trkpt lat="40.357055" lon="-1.077138">
        <ele>983.518</ele>
        <time>2020-08-28T11:28:51Z</time>
      </trkpt>
      <trkpt lat="40.357088" lon="-1.077078">
        <ele>983.635</ele>
        <time>2020-08-28T11:28:53Z</time>
      </trkpt>
      <trkpt lat="40.357119" lon="-1.077017">
        <ele>983.623</ele>
        <time>2020-08-28T11:28:55Z</time>
      </trkpt>
      <trkpt lat="40.357157" lon="-1.076953">
        <ele>983.693</ele>
        <time>2020-08-28T11:28:57Z</time>
      </trkpt>
      <trkpt lat="40.357191" lon="-1.076898">
        <ele>983.825</ele>
        <time>2020-08-28T11:28:59Z</time>
      </trkpt>
      <trkpt lat="40.357231" lon="-1.076848">
        <ele>983.926</ele>
        <time>2020-08-28T11:29:01Z</time>
      </trkpt>
      <trkpt lat="40.357269" lon="-1.076803">
        <ele>984.108</ele>
        <time>2020-08-28T11:29:03Z</time>
      </trkpt>
      <trkpt lat="40.357312" lon="-1.076755">
        <ele>984.108</ele>
        <time>2020-08-28T11:29:05Z</time>
      </trkpt>
      <trkpt lat="40.357377" lon="-1.076694">
        <ele>984.367</ele>
        <time>2020-08-28T11:29:08Z</time>
      </trkpt>
      <trkpt lat="40.357421" lon="-1.076639">
        <ele>984.517</ele>
        <time>2020-08-28T11:29:11Z</time>
      </trkpt>
      <trkpt lat="40.357469" lon="-1.076593">
        <ele>984.629</ele>
        <time>2020-08-28T11:29:14Z</time>
      </trkpt>
      <trkpt lat="40.357527" lon="-1.076534">
        <ele>984.721</ele>
        <time>2020-08-28T11:29:17Z</time>
      </trkpt>
      <trkpt lat="40.357573" lon="-1.076482">
        <ele>984.969</ele>
        <time>2020-08-28T11:29:20Z</time>
      </trkpt>
      <trkpt lat="40.357613" lon="-1.07645">
        <ele>985.126</ele>
        <time>2020-08-28T11:29:22Z</time>
      </trkpt>
      <trkpt lat="40.357649" lon="-1.076406">
        <ele>985.254</ele>
        <time>2020-08-28T11:29:24Z</time>
      </trkpt>
      <trkpt lat="40.357691" lon="-1.076372">
        <ele>985.364</ele>
        <time>2020-08-28T11:29:26Z</time>
      </trkpt>
      <trkpt lat="40.357727" lon="-1.076328">
        <ele>985.416</ele>
        <time>2020-08-28T11:29:28Z</time>
      </trkpt>
      <trkpt lat="40.357784" lon="-1.076266">
        <ele>985.476</ele>
        <time>2020-08-28T11:29:30Z</time>
      </trkpt>
      <trkpt lat="40.357847" lon="-1.076198">
        <ele>985.413</ele>
        <time>2020-08-28T11:29:32Z</time>
      </trkpt>
      <trkpt lat="40.357901" lon="-1.076146">
        <ele>985.408</ele>
        <time>2020-08-28T11:29:34Z</time>
      </trkpt>
      <trkpt lat="40.357962" lon="-1.076087">
        <ele>985.616</ele>
        <time>2020-08-28T11:29:36Z</time>
      </trkpt>
      <trkpt lat="40.358014" lon="-1.076036">
        <ele>985.766</ele>
        <time>2020-08-28T11:29:38Z</time>
      </trkpt>
      <trkpt lat="40.358068" lon="-1.075973">
        <ele>985.968</ele>
        <time>2020-08-28T11:29:41Z</time>
      </trkpt>
      <trkpt lat="40.35812" lon="-1.075924">
        <ele>986.030</ele>
        <time>2020-08-28T11:29:44Z</time>
      </trkpt>
      <trkpt lat="40.358158" lon="-1.075879">
        <ele>986.018</ele>
        <time>2020-08-28T11:29:46Z</time>
      </trkpt>
      <trkpt lat="40.3582" lon="-1.075841">
        <ele>986.145</ele>
        <time>2020-08-28T11:29:48Z</time>
      </trkpt>
      <trkpt lat="40.358239" lon="-1.075806">
        <ele>986.173</ele>
        <time>2020-08-28T11:29:50Z</time>
      </trkpt>
      <trkpt lat="40.358295" lon="-1.075757">
        <ele>986.483</ele>
        <time>2020-08-28T11:29:53Z</time>
      </trkpt>
      <trkpt lat="40.358329" lon="-1.075714">
        <ele>986.624</ele>
        <time>2020-08-28T11:29:55Z</time>
      </trkpt>
      <trkpt lat="40.358381" lon="-1.075659">
        <ele>986.904</ele>
        <time>2020-08-28T11:29:58Z</time>
      </trkpt>
      <trkpt lat="40.358414" lon="-1.075616">
        <ele>987.014</ele>
        <time>2020-08-28T11:30:00Z</time>
      </trkpt>
      <trkpt lat="40.358463" lon="-1.075559">
        <ele>987.208</ele>
        <time>2020-08-28T11:30:03Z</time>
      </trkpt>
      <trkpt lat="40.358494" lon="-1.075512">
        <ele>987.327</ele>
        <time>2020-08-28T11:30:05Z</time>
      </trkpt>
      <trkpt lat="40.358529" lon="-1.07547">
        <ele>987.537</ele>
        <time>2020-08-28T11:30:07Z</time>
      </trkpt>
      <trkpt lat="40.358562" lon="-1.075426">
        <ele>987.639</ele>
        <time>2020-08-28T11:30:09Z</time>
      </trkpt>
      <trkpt lat="40.358595" lon="-1.075375">
        <ele>987.791</ele>
        <time>2020-08-28T11:30:11Z</time>
      </trkpt>
      <trkpt lat="40.358635" lon="-1.07534">
        <ele>987.979</ele>
        <time>2020-08-28T11:30:13Z</time>
      </trkpt>
      <trkpt lat="40.358677" lon="-1.075298">
        <ele>988.156</ele>
        <time>2020-08-28T11:30:15Z</time>
      </trkpt>
      <trkpt lat="40.358708" lon="-1.075254">
        <ele>988.494</ele>
        <time>2020-08-28T11:30:17Z</time>
      </trkpt>
      <trkpt lat="40.358755" lon="-1.075213">
        <ele>988.614</ele>
        <time>2020-08-28T11:30:19Z</time>
      </trkpt>
      <trkpt lat="40.358817" lon="-1.075181">
        <ele>988.828</ele>
        <time>2020-08-28T11:30:21Z</time>
      </trkpt>
      <trkpt lat="40.358866" lon="-1.075113">
        <ele>989.189</ele>
        <time>2020-08-28T11:30:24Z</time>
      </trkpt>
      <trkpt lat="40.358912" lon="-1.075055">
        <ele>989.217</ele>
        <time>2020-08-28T11:30:26Z</time>
      </trkpt>
      <trkpt lat="40.358949" lon="-1.074997">
        <ele>989.408</ele>
        <time>2020-08-28T11:30:28Z</time>
      </trkpt>
      <trkpt lat="40.358974" lon="-1.074943">
        <ele>989.697</ele>
        <time>2020-08-28T11:30:30Z</time>
      </trkpt>
      <trkpt lat="40.358993" lon="-1.074889">
        <ele>989.767</ele>
        <time>2020-08-28T11:30:32Z</time>
      </trkpt>
      <trkpt lat="40.359027" lon="-1.074848">
        <ele>989.719</ele>
        <time>2020-08-28T11:30:34Z</time>
      </trkpt>
      <trkpt lat="40.35911" lon="-1.074754">
        <ele>989.471</ele>
        <time>2020-08-28T11:30:52Z</time>
      </trkpt>
      <trkpt lat="40.35914" lon="-1.074669">
        <ele>989.369</ele>
        <time>2020-08-28T11:31:00Z</time>
      </trkpt>
      <trkpt lat="40.35913" lon="-1.074735">
        <ele>989.616</ele>
        <time>2020-08-28T11:31:15Z</time>
      </trkpt>
      <trkpt lat="40.359107" lon="-1.074674">
        <ele>989.444</ele>
        <time>2020-08-28T11:31:24Z</time>
      </trkpt>
      <trkpt lat="40.359178" lon="-1.074717">
        <ele>989.314</ele>
        <time>2020-08-28T11:31:30Z</time>
      </trkpt>
      <trkpt lat="40.359116" lon="-1.074686">
        <ele>989.398</ele>
        <time>2020-08-28T11:31:55Z</time>
      </trkpt>
      <trkpt lat="40.359106" lon="-1.074765">
        <ele>989.715</ele>
        <time>2020-08-28T11:32:34Z</time>
      </trkpt>
      <trkpt lat="40.359208" lon="-1.074673">
        <ele>989.626</ele>
        <time>2020-08-28T11:33:46Z</time>
      </trkpt>
      <trkpt lat="40.359101" lon="-1.07465">
        <ele>989.608</ele>
        <time>2020-08-28T11:34:02Z</time>
      </trkpt>
      <trkpt lat="40.359097" lon="-1.074717">
        <ele>989.674</ele>
        <time>2020-08-28T11:34:06Z</time>
      </trkpt>
      <trkpt lat="40.359152" lon="-1.074674">
        <ele>989.974</ele>
        <time>2020-08-28T11:34:46Z</time>
      </trkpt>
      <trkpt lat="40.359199" lon="-1.074727">
        <ele>989.866</ele>
        <time>2020-08-28T11:35:14Z</time>
      </trkpt>
      <trkpt lat="40.35919" lon="-1.074643">
        <ele>989.688</ele>
        <time>2020-08-28T11:35:20Z</time>
      </trkpt>
      <trkpt lat="40.359121" lon="-1.07475">
        <ele>990.076</ele>
        <time>2020-08-28T11:35:58Z</time>
      </trkpt>
      <trkpt lat="40.359175" lon="-1.074719">
        <ele>989.683</ele>
        <time>2020-08-28T11:36:10Z</time>
      </trkpt>
      <trkpt lat="40.358971" lon="-1.074601">
        <ele>989.321</ele>
        <time>2020-08-28T11:37:00Z</time>
      </trkpt>
      <trkpt lat="40.359085" lon="-1.07468">
        <ele>989.931</ele>
        <time>2020-08-28T11:37:13Z</time>
      </trkpt>
      <trkpt lat="40.359128" lon="-1.074707">
        <ele>989.967</ele>
        <time>2020-08-28T11:37:19Z</time>
      </trkpt>
      <trkpt lat="40.359179" lon="-1.074737">
        <ele>990.081</ele>
        <time>2020-08-28T11:37:29Z</time>
      </trkpt>
      <trkpt lat="40.359152" lon="-1.07464">
        <ele>990.119</ele>
        <time>2020-08-28T11:37:47Z</time>
      </trkpt>
      <trkpt lat="40.359229" lon="-1.074672">
        <ele>990.008</ele>
        <time>2020-08-28T11:38:15Z</time>
      </trkpt>
      <trkpt lat="40.359173" lon="-1.074672">
        <ele>989.881</ele>
        <time>2020-08-28T11:39:41Z</time>
      </trkpt>
      <trkpt lat="40.35912" lon="-1.074712">
        <ele>989.971</ele>
        <time>2020-08-28T11:40:00Z</time>
      </trkpt>
      <trkpt lat="40.359178" lon="-1.074691">
        <ele>990.143</ele>
        <time>2020-08-28T11:41:08Z</time>
      </trkpt>
      <trkpt lat="40.359178" lon="-1.074628">
        <ele>990.035</ele>
        <time>2020-08-28T11:41:27Z</time>
      </trkpt>
      <trkpt lat="40.359172" lon="-1.074705">
        <ele>990.183</ele>
        <time>2020-08-28T11:42:12Z</time>
      </trkpt>
      <trkpt lat="40.359092" lon="-1.074697">
        <ele>990.150</ele>
        <time>2020-08-28T11:42:30Z</time>
      </trkpt>
      <trkpt lat="40.359158" lon="-1.074678">
        <ele>990.288</ele>
        <time>2020-08-28T11:42:50Z</time>
      </trkpt>
      <trkpt lat="40.359207" lon="-1.074694">
        <ele>990.078</ele>
        <time>2020-08-28T11:43:22Z</time>
      </trkpt>
      <trkpt lat="40.359156" lon="-1.074706">
        <ele>990.226</ele>
        <time>2020-08-28T11:43:38Z</time>
      </trkpt>
      <trkpt lat="40.359109" lon="-1.074726">
        <ele>990.347</ele>
        <time>2020-08-28T11:43:43Z</time>
      </trkpt>
      <trkpt lat="40.359092" lon="-1.074792">
        <ele>990.111</ele>
        <time>2020-08-28T11:46:03Z</time>
      </trkpt>
      <trkpt lat="40.359102" lon="-1.074715">
        <ele>990.308</ele>
        <time>2020-08-28T11:49:17Z</time>
      </trkpt>
      <trkpt lat="40.359149" lon="-1.074753">
        <ele>990.287</ele>
        <time>2020-08-28T11:49:47Z</time>
      </trkpt>
      <trkpt lat="40.359187" lon="-1.074704">
        <ele>990.167</ele>
        <time>2020-08-28T11:49:53Z</time>
      </trkpt>
      <trkpt lat="40.35914" lon="-1.074686">
        <ele>990.379</ele>
        <time>2020-08-28T11:50:07Z</time>
      </trkpt>
      <trkpt lat="40.359164" lon="-1.074611">
        <ele>990.491</ele>
        <time>2020-08-28T11:51:53Z</time>
      </trkpt>
      <trkpt lat="40.3592" lon="-1.074561">
        <ele>990.579</ele>
        <time>2020-08-28T11:51:56Z</time>
      </trkpt>
      <trkpt lat="40.359235" lon="-1.074516">
        <ele>990.736</ele>
        <time>2020-08-28T11:51:58Z</time>
      </trkpt>
      <trkpt lat="40.359272" lon="-1.074475">
        <ele>991.084</ele>
        <time>2020-08-28T11:52:00Z</time>
      </trkpt>
      <trkpt lat="40.359311" lon="-1.074426">
        <ele>991.034</ele>
        <time>2020-08-28T11:52:02Z</time>
      </trkpt>
      <trkpt lat="40.359342" lon="-1.074362">
        <ele>991.097</ele>
        <time>2020-08-28T11:52:05Z</time>
      </trkpt>
      <trkpt lat="40.35937" lon="-1.074298">
        <ele>991.223</ele>
        <time>2020-08-28T11:52:08Z</time>
      </trkpt>
      <trkpt lat="40.359386" lon="-1.074242">
        <ele>991.325</ele>
        <time>2020-08-28T11:52:10Z</time>
      </trkpt>
      <trkpt lat="40.359413" lon="-1.074181">
        <ele>991.408</ele>
        <time>2020-08-28T11:52:13Z</time>
      </trkpt>
      <trkpt lat="40.359458" lon="-1.074133">
        <ele>991.784</ele>
        <time>2020-08-28T11:52:16Z</time>
      </trkpt>
      <trkpt lat="40.359487" lon="-1.074078">
        <ele>991.814</ele>
        <time>2020-08-28T11:52:19Z</time>
      </trkpt>
      <trkpt lat="40.359533" lon="-1.07401">
        <ele>991.946</ele>
        <time>2020-08-28T11:52:22Z</time>
      </trkpt>
      <trkpt lat="40.359571" lon="-1.073957">
        <ele>992.048</ele>
        <time>2020-08-28T11:52:24Z</time>
      </trkpt>
      <trkpt lat="40.359592" lon="-1.073897">
        <ele>992.226</ele>
        <time>2020-08-28T11:52:27Z</time>
      </trkpt>
      <trkpt lat="40.35963" lon="-1.073832">
        <ele>992.383</ele>
        <time>2020-08-28T11:52:30Z</time>
      </trkpt>
      <trkpt lat="40.359664" lon="-1.07378">
        <ele>992.391</ele>
        <time>2020-08-28T11:52:32Z</time>
      </trkpt>
      <trkpt lat="40.359696" lon="-1.073733">
        <ele>992.471</ele>
        <time>2020-08-28T11:52:34Z</time>
      </trkpt>
      <trkpt lat="40.359725" lon="-1.073683">
        <ele>992.581</ele>
        <time>2020-08-28T11:52:36Z</time>
      </trkpt>
      <trkpt lat="40.359768" lon="-1.073617">
        <ele>992.761</ele>
        <time>2020-08-28T11:52:39Z</time>
      </trkpt>
      <trkpt lat="40.359791" lon="-1.073558">
        <ele>992.717</ele>
        <time>2020-08-28T11:52:41Z</time>
      </trkpt>
      <trkpt lat="40.359832" lon="-1.073509">
        <ele>992.808</ele>
        <time>2020-08-28T11:52:43Z</time>
      </trkpt>
      <trkpt lat="40.359862" lon="-1.073464">
        <ele>992.973</ele>
        <time>2020-08-28T11:52:45Z</time>
      </trkpt>
      <trkpt lat="40.359887" lon="-1.073414">
        <ele>993.053</ele>
        <time>2020-08-28T11:52:48Z</time>
      </trkpt>
      <trkpt lat="40.359913" lon="-1.073358">
        <ele>993.315</ele>
        <time>2020-08-28T11:52:51Z</time>
      </trkpt>
      <trkpt lat="40.359938" lon="-1.073309">
        <ele>993.527</ele>
        <time>2020-08-28T11:52:53Z</time>
      </trkpt>
      <trkpt lat="40.359978" lon="-1.07326">
        <ele>993.755</ele>
        <time>2020-08-28T11:52:56Z</time>
      </trkpt>
      <trkpt lat="40.360008" lon="-1.073193">
        <ele>993.832</ele>
        <time>2020-08-28T11:52:59Z</time>
      </trkpt>
      <trkpt lat="40.360045" lon="-1.073134">
        <ele>993.960</ele>
        <time>2020-08-28T11:53:02Z</time>
      </trkpt>
      <trkpt lat="40.360079" lon="-1.073054">
        <ele>993.950</ele>
        <time>2020-08-28T11:53:05Z</time>
      </trkpt>
      <trkpt lat="40.360107" lon="-1.072995">
        <ele>994.045</ele>
        <time>2020-08-28T11:53:08Z</time>
      </trkpt>
      <trkpt lat="40.360147" lon="-1.072929">
        <ele>994.147</ele>
        <time>2020-08-28T11:53:11Z</time>
      </trkpt>
      <trkpt lat="40.360198" lon="-1.07288">
        <ele>994.311</ele>
        <time>2020-08-28T11:53:14Z</time>
      </trkpt>
      <trkpt lat="40.360243" lon="-1.072816">
        <ele>994.308</ele>
        <time>2020-08-28T11:53:17Z</time>
      </trkpt>
      <trkpt lat="40.360271" lon="-1.072767">
        <ele>994.429</ele>
        <time>2020-08-28T11:53:19Z</time>
      </trkpt>
      <trkpt lat="40.360308" lon="-1.072708">
        <ele>994.669</ele>
        <time>2020-08-28T11:53:22Z</time>
      </trkpt>
      <trkpt lat="40.360345" lon="-1.072628">
        <ele>994.851</ele>
        <time>2020-08-28T11:53:25Z</time>
      </trkpt>
      <trkpt lat="40.360378" lon="-1.072559">
        <ele>995.063</ele>
        <time>2020-08-28T11:53:28Z</time>
      </trkpt>
      <trkpt lat="40.360406" lon="-1.072505">
        <ele>995.021</ele>
        <time>2020-08-28T11:53:30Z</time>
      </trkpt>
      <trkpt lat="40.360437" lon="-1.072444">
        <ele>995.188</ele>
        <time>2020-08-28T11:53:33Z</time>
      </trkpt>
      <trkpt lat="40.360468" lon="-1.072398">
        <ele>995.386</ele>
        <time>2020-08-28T11:53:35Z</time>
      </trkpt>
      <trkpt lat="40.360504" lon="-1.072315">
        <ele>995.436</ele>
        <time>2020-08-28T11:53:38Z</time>
      </trkpt>
      <trkpt lat="40.36054" lon="-1.072236">
        <ele>995.738</ele>
        <time>2020-08-28T11:53:41Z</time>
      </trkpt>
      <trkpt lat="40.360567" lon="-1.072183">
        <ele>995.870</ele>
        <time>2020-08-28T11:53:44Z</time>
      </trkpt>
      <trkpt lat="40.3607" lon="-1.072071">
        <ele>996.417</ele>
        <time>2020-08-28T11:54:01Z</time>
      </trkpt>
      <trkpt lat="40.360723" lon="-1.072001">
        <ele>995.608</ele>
        <time>2020-08-28T11:54:07Z</time>
      </trkpt>
      <trkpt lat="40.360752" lon="-1.071955">
        <ele>995.788</ele>
        <time>2020-08-28T11:54:09Z</time>
      </trkpt>
      <trkpt lat="40.360782" lon="-1.071906">
        <ele>995.938</ele>
        <time>2020-08-28T11:54:11Z</time>
      </trkpt>
      <trkpt lat="40.360817" lon="-1.07185">
        <ele>996.150</ele>
        <time>2020-08-28T11:54:13Z</time>
      </trkpt>
      <trkpt lat="40.360858" lon="-1.071785">
        <ele>996.372</ele>
        <time>2020-08-28T11:54:16Z</time>
      </trkpt>
      <trkpt lat="40.36089" lon="-1.071737">
        <ele>996.410</ele>
        <time>2020-08-28T11:54:18Z</time>
      </trkpt>
      <trkpt lat="40.360915" lon="-1.071681">
        <ele>996.527</ele>
        <time>2020-08-28T11:54:20Z</time>
      </trkpt>
      <trkpt lat="40.360953" lon="-1.071623">
        <ele>996.765</ele>
        <time>2020-08-28T11:54:22Z</time>
      </trkpt>
      <trkpt lat="40.360982" lon="-1.071576">
        <ele>996.885</ele>
        <time>2020-08-28T11:54:24Z</time>
      </trkpt>
      <trkpt lat="40.361018" lon="-1.07153">
        <ele>996.763</ele>
        <time>2020-08-28T11:54:27Z</time>
      </trkpt>
      <trkpt lat="40.36104" lon="-1.071476">
        <ele>996.644</ele>
        <time>2020-08-28T11:54:30Z</time>
      </trkpt>
      <trkpt lat="40.36107" lon="-1.071401">
        <ele>997.218</ele>
        <time>2020-08-28T11:54:33Z</time>
      </trkpt>
      <trkpt lat="40.361111" lon="-1.071345">
        <ele>997.408</ele>
        <time>2020-08-28T11:54:36Z</time>
      </trkpt>
      <trkpt lat="40.361152" lon="-1.071271">
        <ele>997.541</ele>
        <time>2020-08-28T11:54:39Z</time>
      </trkpt>
      <trkpt lat="40.361191" lon="-1.0712">
        <ele>997.641</ele>
        <time>2020-08-28T11:54:42Z</time>
      </trkpt>
      <trkpt lat="40.361223" lon="-1.071129">
        <ele>997.723</ele>
        <time>2020-08-28T11:54:45Z</time>
      </trkpt>
      <trkpt lat="40.361253" lon="-1.07108">
        <ele>997.945</ele>
        <time>2020-08-28T11:54:47Z</time>
      </trkpt>
      <trkpt lat="40.361281" lon="-1.071029">
        <ele>998.383</ele>
        <time>2020-08-28T11:54:49Z</time>
      </trkpt>
      <trkpt lat="40.361308" lon="-1.070975">
        <ele>998.410</ele>
        <time>2020-08-28T11:54:51Z</time>
      </trkpt>
      <trkpt lat="40.36134" lon="-1.070927">
        <ele>998.538</ele>
        <time>2020-08-28T11:54:53Z</time>
      </trkpt>
      <trkpt lat="40.361357" lon="-1.070871">
        <ele>998.538</ele>
        <time>2020-08-28T11:54:55Z</time>
      </trkpt>
      <trkpt lat="40.361383" lon="-1.070809">
        <ele>998.735</ele>
        <time>2020-08-28T11:54:57Z</time>
      </trkpt>
      <trkpt lat="40.361414" lon="-1.070745">
        <ele>998.886</ele>
        <time>2020-08-28T11:54:59Z</time>
      </trkpt>
      <trkpt lat="40.361439" lon="-1.070695">
        <ele>998.814</ele>
        <time>2020-08-28T11:55:00Z</time>
      </trkpt>
      <trkpt lat="40.361488" lon="-1.070609">
        <ele>998.908</ele>
        <time>2020-08-28T11:55:02Z</time>
      </trkpt>
      <trkpt lat="40.361525" lon="-1.070536">
        <ele>999.128</ele>
        <time>2020-08-28T11:55:04Z</time>
      </trkpt>
      <trkpt lat="40.361559" lon="-1.07046">
        <ele>999.348</ele>
        <time>2020-08-28T11:55:06Z</time>
      </trkpt>
      <trkpt lat="40.361592" lon="-1.070383">
        <ele>999.410</ele>
        <time>2020-08-28T11:55:08Z</time>
      </trkpt>
      <trkpt lat="40.361627" lon="-1.070295">
        <ele>999.472</ele>
        <time>2020-08-28T11:55:10Z</time>
      </trkpt>
      <trkpt lat="40.361652" lon="-1.070222">
        <ele>999.410</ele>
        <time>2020-08-28T11:55:12Z</time>
      </trkpt>
      <trkpt lat="40.361683" lon="-1.07014">
        <ele>999.677</ele>
        <time>2020-08-28T11:55:14Z</time>
      </trkpt>
      <trkpt lat="40.361708" lon="-1.070062">
        <ele>999.845</ele>
        <time>2020-08-28T11:55:16Z</time>
      </trkpt>
      <trkpt lat="40.361718" lon="-1.06999">
        <ele>1000.075</ele>
        <time>2020-08-28T11:55:18Z</time>
      </trkpt>
      <trkpt lat="40.361736" lon="-1.069905">
        <ele>1000.022</ele>
        <time>2020-08-28T11:55:20Z</time>
      </trkpt>
      <trkpt lat="40.361734" lon="-1.069815">
        <ele>1000.362</ele>
        <time>2020-08-28T11:55:24Z</time>
      </trkpt>
      <trkpt lat="40.361739" lon="-1.069755">
        <ele>1000.408</ele>
        <time>2020-08-28T11:55:26Z</time>
      </trkpt>
      <trkpt lat="40.361748" lon="-1.069686">
        <ele>1000.408</ele>
        <time>2020-08-28T11:55:28Z</time>
      </trkpt>
      <trkpt lat="40.361758" lon="-1.069627">
        <ele>1000.527</ele>
        <time>2020-08-28T11:55:29Z</time>
      </trkpt>
      <trkpt lat="40.361768" lon="-1.069533">
        <ele>1000.557</ele>
        <time>2020-08-28T11:55:31Z</time>
      </trkpt>
      <trkpt lat="40.361784" lon="-1.069449">
        <ele>1000.759</ele>
        <time>2020-08-28T11:55:33Z</time>
      </trkpt>
      <trkpt lat="40.361788" lon="-1.069365">
        <ele>1000.851</ele>
        <time>2020-08-28T11:55:35Z</time>
      </trkpt>
      <trkpt lat="40.361797" lon="-1.069277">
        <ele>1001.039</ele>
        <time>2020-08-28T11:55:37Z</time>
      </trkpt>
      <trkpt lat="40.361793" lon="-1.069189">
        <ele>1001.136</ele>
        <time>2020-08-28T11:55:39Z</time>
      </trkpt>
      <trkpt lat="40.361791" lon="-1.069105">
        <ele>1001.224</ele>
        <time>2020-08-28T11:55:41Z</time>
      </trkpt>
      <trkpt lat="40.361784" lon="-1.069029">
        <ele>1001.324</ele>
        <time>2020-08-28T11:55:43Z</time>
      </trkpt>
      <trkpt lat="40.361782" lon="-1.068956">
        <ele>1001.493</ele>
        <time>2020-08-28T11:55:45Z</time>
      </trkpt>
      <trkpt lat="40.361767" lon="-1.068889">
        <ele>1001.665</ele>
        <time>2020-08-28T11:55:47Z</time>
      </trkpt>
      <trkpt lat="40.361753" lon="-1.068814">
        <ele>1001.821</ele>
        <time>2020-08-28T11:55:49Z</time>
      </trkpt>
      <trkpt lat="40.361736" lon="-1.068748">
        <ele>1001.908</ele>
        <time>2020-08-28T11:55:51Z</time>
      </trkpt>
      <trkpt lat="40.361722" lon="-1.068669">
        <ele>1002.184</ele>
        <time>2020-08-28T11:55:54Z</time>
      </trkpt>
      <trkpt lat="40.361708" lon="-1.068613">
        <ele>1002.254</ele>
        <time>2020-08-28T11:55:56Z</time>
      </trkpt>
      <trkpt lat="40.361691" lon="-1.068532">
        <ele>1002.276</ele>
        <time>2020-08-28T11:55:59Z</time>
      </trkpt>
      <trkpt lat="40.361673" lon="-1.068448">
        <ele>1002.538</ele>
        <time>2020-08-28T11:56:02Z</time>
      </trkpt>
      <trkpt lat="40.361655" lon="-1.068392">
        <ele>1002.766</ele>
        <time>2020-08-28T11:56:04Z</time>
      </trkpt>
      <trkpt lat="40.361643" lon="-1.068333">
        <ele>1002.843</ele>
        <time>2020-08-28T11:56:06Z</time>
      </trkpt>
      <trkpt lat="40.361623" lon="-1.068275">
        <ele>1002.911</ele>
        <time>2020-08-28T11:56:08Z</time>
      </trkpt>
      <trkpt lat="40.361608" lon="-1.068215">
        <ele>1002.971</ele>
        <time>2020-08-28T11:56:10Z</time>
      </trkpt>
      <trkpt lat="40.361587" lon="-1.068158">
        <ele>1003.112</ele>
        <time>2020-08-28T11:56:12Z</time>
      </trkpt>
      <trkpt lat="40.361568" lon="-1.068091">
        <ele>1003.232</ele>
        <time>2020-08-28T11:56:14Z</time>
      </trkpt>
      <trkpt lat="40.361546" lon="-1.068022">
        <ele>1003.305</ele>
        <time>2020-08-28T11:56:16Z</time>
      </trkpt>
      <trkpt lat="40.361516" lon="-1.067958">
        <ele>1003.408</ele>
        <time>2020-08-28T11:56:18Z</time>
      </trkpt>
      <trkpt lat="40.361483" lon="-1.067878">
        <ele>1003.696</ele>
        <time>2020-08-28T11:56:20Z</time>
      </trkpt>
      <trkpt lat="40.361446" lon="-1.067802">
        <ele>1003.746</ele>
        <time>2020-08-28T11:56:22Z</time>
      </trkpt>
      <trkpt lat="40.361421" lon="-1.06775">
        <ele>1003.848</ele>
        <time>2020-08-28T11:56:24Z</time>
      </trkpt>
      <trkpt lat="40.361402" lon="-1.067685">
        <ele>1004.020</ele>
        <time>2020-08-28T11:56:26Z</time>
      </trkpt>
      <trkpt lat="40.361391" lon="-1.067622">
        <ele>1004.298</ele>
        <time>2020-08-28T11:56:28Z</time>
      </trkpt>
      <trkpt lat="40.361374" lon="-1.06756">
        <ele>1004.345</ele>
        <time>2020-08-28T11:56:30Z</time>
      </trkpt>
      <trkpt lat="40.361358" lon="-1.067501">
        <ele>1004.423</ele>
        <time>2020-08-28T11:56:32Z</time>
      </trkpt>
      <trkpt lat="40.361338" lon="-1.067439">
        <ele>1004.543</ele>
        <time>2020-08-28T11:56:34Z</time>
      </trkpt>
      <trkpt lat="40.361303" lon="-1.067357">
        <ele>1004.773</ele>
        <time>2020-08-28T11:56:36Z</time>
      </trkpt>
      <trkpt lat="40.361276" lon="-1.067302">
        <ele>1005.085</ele>
        <time>2020-08-28T11:56:38Z</time>
      </trkpt>
      <trkpt lat="40.361243" lon="-1.067245">
        <ele>1005.113</ele>
        <time>2020-08-28T11:56:40Z</time>
      </trkpt>
      <trkpt lat="40.361222" lon="-1.067187">
        <ele>1005.308</ele>
        <time>2020-08-28T11:56:42Z</time>
      </trkpt>
      <trkpt lat="40.361206" lon="-1.067129">
        <ele>1005.552</ele>
        <time>2020-08-28T11:56:44Z</time>
      </trkpt>
      <trkpt lat="40.361182" lon="-1.067067">
        <ele>1005.722</ele>
        <time>2020-08-28T11:56:46Z</time>
      </trkpt>
      <trkpt lat="40.361164" lon="-1.067008">
        <ele>1005.814</ele>
        <time>2020-08-28T11:56:48Z</time>
      </trkpt>
      <trkpt lat="40.361139" lon="-1.066951">
        <ele>1005.986</ele>
        <time>2020-08-28T11:56:50Z</time>
      </trkpt>
      <trkpt lat="40.36112" lon="-1.066892">
        <ele>1006.054</ele>
        <time>2020-08-28T11:56:52Z</time>
      </trkpt>
      <trkpt lat="40.361097" lon="-1.066835">
        <ele>1006.151</ele>
        <time>2020-08-28T11:56:54Z</time>
      </trkpt>
      <trkpt lat="40.361072" lon="-1.066779">
        <ele>1006.139</ele>
        <time>2020-08-28T11:56:56Z</time>
      </trkpt>
      <trkpt lat="40.361056" lon="-1.066721">
        <ele>1006.219</ele>
        <time>2020-08-28T11:56:58Z</time>
      </trkpt>
      <trkpt lat="40.361035" lon="-1.066661">
        <ele>1006.267</ele>
        <time>2020-08-28T11:57:00Z</time>
      </trkpt>
      <trkpt lat="40.361021" lon="-1.066586">
        <ele>1006.281</ele>
        <time>2020-08-28T11:57:02Z</time>
      </trkpt>
      <trkpt lat="40.360997" lon="-1.066505">
        <ele>1006.119</ele>
        <time>2020-08-28T11:57:04Z</time>
      </trkpt>
      <trkpt lat="40.360999" lon="-1.066421">
        <ele>1006.008</ele>
        <time>2020-08-28T11:57:06Z</time>
      </trkpt>
      <trkpt lat="40.360994" lon="-1.066349">
        <ele>1006.141</ele>
        <time>2020-08-28T11:57:08Z</time>
      </trkpt>
      <trkpt lat="40.360948" lon="-1.066328">
        <ele>1006.291</ele>
        <time>2020-08-28T11:57:09Z</time>
      </trkpt>
      <trkpt lat="40.360907" lon="-1.066243">
        <ele>1006.263</ele>
        <time>2020-08-28T11:57:12Z</time>
      </trkpt>
      <trkpt lat="40.360865" lon="-1.066162">
        <ele>1006.265</ele>
        <time>2020-08-28T11:57:14Z</time>
      </trkpt>
      <trkpt lat="40.36084" lon="-1.066092">
        <ele>1006.253</ele>
        <time>2020-08-28T11:57:15Z</time>
      </trkpt>
      <trkpt lat="40.360824" lon="-1.065989">
        <ele>1006.280</ele>
        <time>2020-08-28T11:57:17Z</time>
      </trkpt>
      <trkpt lat="40.360766" lon="-1.065914">
        <ele>1006.348</ele>
        <time>2020-08-28T11:57:19Z</time>
      </trkpt>
      <trkpt lat="40.360728" lon="-1.065877">
        <ele>1006.488</ele>
        <time>2020-08-28T11:57:20Z</time>
      </trkpt>
      <trkpt lat="40.360679" lon="-1.065815">
        <ele>1006.583</ele>
        <time>2020-08-28T11:57:22Z</time>
      </trkpt>
      <trkpt lat="40.360631" lon="-1.065723">
        <ele>1006.625</ele>
        <time>2020-08-28T11:57:24Z</time>
      </trkpt>
      <trkpt lat="40.360595" lon="-1.065667">
        <ele>1006.717</ele>
        <time>2020-08-28T11:57:25Z</time>
      </trkpt>
      <trkpt lat="40.360535" lon="-1.065585">
        <ele>1007.008</ele>
        <time>2020-08-28T11:57:27Z</time>
      </trkpt>
      <trkpt lat="40.360495" lon="-1.065507">
        <ele>1007.453</ele>
        <time>2020-08-28T11:57:29Z</time>
      </trkpt>
      <trkpt lat="40.360455" lon="-1.065445">
        <ele>1007.983</ele>
        <time>2020-08-28T11:57:31Z</time>
      </trkpt>
      <trkpt lat="40.360436" lon="-1.065382">
        <ele>1008.355</ele>
        <time>2020-08-28T11:57:33Z</time>
      </trkpt>
      <trkpt lat="40.360409" lon="-1.065316">
        <ele>1008.687</ele>
        <time>2020-08-28T11:57:35Z</time>
      </trkpt>
      <trkpt lat="40.360381" lon="-1.065252">
        <ele>1008.835</ele>
        <time>2020-08-28T11:57:37Z</time>
      </trkpt>
      <trkpt lat="40.36036" lon="-1.06518">
        <ele>1009.182</ele>
        <time>2020-08-28T11:57:39Z</time>
      </trkpt>
      <trkpt lat="40.360354" lon="-1.065117">
        <ele>1009.290</ele>
        <time>2020-08-28T11:57:42Z</time>
      </trkpt>
      <trkpt lat="40.360333" lon="-1.065062">
        <ele>1009.280</ele>
        <time>2020-08-28T11:57:44Z</time>
      </trkpt>
      <trkpt lat="40.36032" lon="-1.064982">
        <ele>1009.267</ele>
        <time>2020-08-28T11:57:47Z</time>
      </trkpt>
      <trkpt lat="40.360299" lon="-1.064924">
        <ele>1009.281</ele>
        <time>2020-08-28T11:57:49Z</time>
      </trkpt>
      <trkpt lat="40.360278" lon="-1.064863">
        <ele>1009.319</ele>
        <time>2020-08-28T11:57:51Z</time>
      </trkpt>
      <trkpt lat="40.360257" lon="-1.064801">
        <ele>1009.508</ele>
        <time>2020-08-28T11:57:53Z</time>
      </trkpt>
      <trkpt lat="40.360235" lon="-1.064745">
        <ele>1009.691</ele>
        <time>2020-08-28T11:57:55Z</time>
      </trkpt>
      <trkpt lat="40.360218" lon="-1.064686">
        <ele>1009.861</ele>
        <time>2020-08-28T11:57:57Z</time>
      </trkpt>
      <trkpt lat="40.360205" lon="-1.064626">
        <ele>1010.123</ele>
        <time>2020-08-28T11:57:59Z</time>
      </trkpt>
      <trkpt lat="40.360182" lon="-1.064564">
        <ele>1010.275</ele>
        <time>2020-08-28T11:58:01Z</time>
      </trkpt>
      <trkpt lat="40.360158" lon="-1.064501">
        <ele>1010.363</ele>
        <time>2020-08-28T11:58:03Z</time>
      </trkpt>
      <trkpt lat="40.360138" lon="-1.064439">
        <ele>1010.520</ele>
        <time>2020-08-28T11:58:05Z</time>
      </trkpt>
      <trkpt lat="40.360121" lon="-1.064381">
        <ele>1010.768</ele>
        <time>2020-08-28T11:58:07Z</time>
      </trkpt>
      <trkpt lat="40.360103" lon="-1.064321">
        <ele>1010.868</ele>
        <time>2020-08-28T11:58:09Z</time>
      </trkpt>
      <trkpt lat="40.360083" lon="-1.064264">
        <ele>1010.939</ele>
        <time>2020-08-28T11:58:11Z</time>
      </trkpt>
      <trkpt lat="40.36006" lon="-1.064201">
        <ele>1011.101</ele>
        <time>2020-08-28T11:58:13Z</time>
      </trkpt>
      <trkpt lat="40.360045" lon="-1.064143">
        <ele>1011.221</ele>
        <time>2020-08-28T11:58:15Z</time>
      </trkpt>
      <trkpt lat="40.36002" lon="-1.06407">
        <ele>1011.208</ele>
        <time>2020-08-28T11:58:17Z</time>
      </trkpt>
      <trkpt lat="40.360003" lon="-1.064011">
        <ele>1011.348</ele>
        <time>2020-08-28T11:58:19Z</time>
      </trkpt>
      <trkpt lat="40.359985" lon="-1.063946">
        <ele>1011.458</ele>
        <time>2020-08-28T11:58:21Z</time>
      </trkpt>
      <trkpt lat="40.35997" lon="-1.063876">
        <ele>1011.790</ele>
        <time>2020-08-28T11:58:23Z</time>
      </trkpt>
      <trkpt lat="40.359955" lon="-1.063806">
        <ele>1011.752</ele>
        <time>2020-08-28T11:58:25Z</time>
      </trkpt>
      <trkpt lat="40.359931" lon="-1.063745">
        <ele>1011.850</ele>
        <time>2020-08-28T11:58:27Z</time>
      </trkpt>
      <trkpt lat="40.359913" lon="-1.063679">
        <ele>1011.917</ele>
        <time>2020-08-28T11:58:29Z</time>
      </trkpt>
      <trkpt lat="40.359891" lon="-1.063614">
        <ele>1012.175</ele>
        <time>2020-08-28T11:58:31Z</time>
      </trkpt>
      <trkpt lat="40.359878" lon="-1.06355">
        <ele>1012.315</ele>
        <time>2020-08-28T11:58:33Z</time>
      </trkpt>
      <trkpt lat="40.359861" lon="-1.06348">
        <ele>1012.531</ele>
        <time>2020-08-28T11:58:35Z</time>
      </trkpt>
      <trkpt lat="40.359845" lon="-1.063408">
        <ele>1012.761</ele>
        <time>2020-08-28T11:58:37Z</time>
      </trkpt>
      <trkpt lat="40.359827" lon="-1.063333">
        <ele>1012.707</ele>
        <time>2020-08-28T11:58:39Z</time>
      </trkpt>
      <trkpt lat="40.359812" lon="-1.063259">
        <ele>1013.008</ele>
        <time>2020-08-28T11:58:41Z</time>
      </trkpt>
      <trkpt lat="40.3598" lon="-1.063195">
        <ele>1013.228</ele>
        <time>2020-08-28T11:58:43Z</time>
      </trkpt>
      <trkpt lat="40.359785" lon="-1.063127">
        <ele>1013.368</ele>
        <time>2020-08-28T11:58:45Z</time>
      </trkpt>
      <trkpt lat="40.359777" lon="-1.063058">
        <ele>1013.310</ele>
        <time>2020-08-28T11:58:47Z</time>
      </trkpt>
      <trkpt lat="40.359773" lon="-1.062983">
        <ele>1013.412</ele>
        <time>2020-08-28T11:58:49Z</time>
      </trkpt>
      <trkpt lat="40.359765" lon="-1.062914">
        <ele>1013.690</ele>
        <time>2020-08-28T11:58:51Z</time>
      </trkpt>
      <trkpt lat="40.359755" lon="-1.062845">
        <ele>1013.787</ele>
        <time>2020-08-28T11:58:53Z</time>
      </trkpt>
      <trkpt lat="40.359733" lon="-1.062776">
        <ele>1013.615</ele>
        <time>2020-08-28T11:58:55Z</time>
      </trkpt>
      <trkpt lat="40.35972" lon="-1.062711">
        <ele>1013.525</ele>
        <time>2020-08-28T11:58:57Z</time>
      </trkpt>
      <trkpt lat="40.359721" lon="-1.062648">
        <ele>1013.429</ele>
        <time>2020-08-28T11:58:59Z</time>
      </trkpt>
      <trkpt lat="40.359717" lon="-1.062583">
        <ele>1013.500</ele>
        <time>2020-08-28T11:59:01Z</time>
      </trkpt>
      <trkpt lat="40.359704" lon="-1.062512">
        <ele>1013.620</ele>
        <time>2020-08-28T11:59:03Z</time>
      </trkpt>
      <trkpt lat="40.359704" lon="-1.06244">
        <ele>1013.708</ele>
        <time>2020-08-28T11:59:05Z</time>
      </trkpt>
      <trkpt lat="40.359703" lon="-1.062371">
        <ele>1013.997</ele>
        <time>2020-08-28T11:59:07Z</time>
      </trkpt>
      <trkpt lat="40.359701" lon="-1.062298">
        <ele>1013.957</ele>
        <time>2020-08-28T11:59:09Z</time>
      </trkpt>
      <trkpt lat="40.3597" lon="-1.062229">
        <ele>1014.079</ele>
        <time>2020-08-28T11:59:11Z</time>
      </trkpt>
      <trkpt lat="40.359701" lon="-1.062154">
        <ele>1014.181</ele>
        <time>2020-08-28T11:59:13Z</time>
      </trkpt>
      <trkpt lat="40.359698" lon="-1.062081">
        <ele>1014.259</ele>
        <time>2020-08-28T11:59:15Z</time>
      </trkpt>
      <trkpt lat="40.359697" lon="-1.062011">
        <ele>1014.386</ele>
        <time>2020-08-28T11:59:17Z</time>
      </trkpt>
      <trkpt lat="40.359701" lon="-1.061942">
        <ele>1014.464</ele>
        <time>2020-08-28T11:59:19Z</time>
      </trkpt>
      <trkpt lat="40.359697" lon="-1.061872">
        <ele>1014.634</ele>
        <time>2020-08-28T11:59:21Z</time>
      </trkpt>
      <trkpt lat="40.359694" lon="-1.061798">
        <ele>1014.745</ele>
        <time>2020-08-28T11:59:23Z</time>
      </trkpt>
      <trkpt lat="40.359704" lon="-1.061697">
        <ele>1014.847</ele>
        <time>2020-08-28T11:59:25Z</time>
      </trkpt>
      <trkpt lat="40.359713" lon="-1.061601">
        <ele>1014.811</ele>
        <time>2020-08-28T11:59:27Z</time>
      </trkpt>
      <trkpt lat="40.359716" lon="-1.061536">
        <ele>1014.908</ele>
        <time>2020-08-28T11:59:29Z</time>
      </trkpt>
      <trkpt lat="40.359722" lon="-1.061467">
        <ele>1015.069</ele>
        <time>2020-08-28T11:59:31Z</time>
      </trkpt>
      <trkpt lat="40.359719" lon="-1.061397">
        <ele>1015.289</ele>
        <time>2020-08-28T11:59:33Z</time>
      </trkpt>
      <trkpt lat="40.359725" lon="-1.061324">
        <ele>1015.431</ele>
        <time>2020-08-28T11:59:35Z</time>
      </trkpt>
      <trkpt lat="40.359725" lon="-1.061253">
        <ele>1015.583</ele>
        <time>2020-08-28T11:59:37Z</time>
      </trkpt>
      <trkpt lat="40.359725" lon="-1.061181">
        <ele>1015.571</ele>
        <time>2020-08-28T11:59:39Z</time>
      </trkpt>
      <trkpt lat="40.359729" lon="-1.06111">
        <ele>1015.618</ele>
        <time>2020-08-28T11:59:41Z</time>
      </trkpt>
      <trkpt lat="40.359745" lon="-1.06101">
        <ele>1015.896</ele>
        <time>2020-08-28T11:59:43Z</time>
      </trkpt>
      <trkpt lat="40.359748" lon="-1.060908">
        <ele>1015.976</ele>
        <time>2020-08-28T11:59:45Z</time>
      </trkpt>
      <trkpt lat="40.359744" lon="-1.060833">
        <ele>1016.095</ele>
        <time>2020-08-28T11:59:48Z</time>
      </trkpt>
      <trkpt lat="40.359745" lon="-1.060763">
        <ele>1016.149</ele>
        <time>2020-08-28T11:59:50Z</time>
      </trkpt>
      <trkpt lat="40.359749" lon="-1.060684">
        <ele>1016.123</ele>
        <time>2020-08-28T11:59:52Z</time>
      </trkpt>
      <trkpt lat="40.359753" lon="-1.06061">
        <ele>1016.308</ele>
        <time>2020-08-28T11:59:54Z</time>
      </trkpt>
      <trkpt lat="40.359755" lon="-1.060538">
        <ele>1016.474</ele>
        <time>2020-08-28T11:59:56Z</time>
      </trkpt>
      <trkpt lat="40.359757" lon="-1.060466">
        <ele>1016.534</ele>
        <time>2020-08-28T11:59:58Z</time>
      </trkpt>
      <trkpt lat="40.359758" lon="-1.060393">
        <ele>1016.696</ele>
        <time>2020-08-28T12:00:00Z</time>
      </trkpt>
      <trkpt lat="40.359758" lon="-1.060321">
        <ele>1016.868</ele>
        <time>2020-08-28T12:00:02Z</time>
      </trkpt>
      <trkpt lat="40.359762" lon="-1.060249">
        <ele>1017.016</ele>
        <time>2020-08-28T12:00:04Z</time>
      </trkpt>
      <trkpt lat="40.359767" lon="-1.060177">
        <ele>1017.283</ele>
        <time>2020-08-28T12:00:06Z</time>
      </trkpt>
      <trkpt lat="40.359769" lon="-1.060106">
        <ele>1017.331</ele>
        <time>2020-08-28T12:00:08Z</time>
      </trkpt>
      <trkpt lat="40.359772" lon="-1.060034">
        <ele>1017.451</ele>
        <time>2020-08-28T12:00:10Z</time>
      </trkpt>
      <trkpt lat="40.359772" lon="-1.059969">
        <ele>1017.599</ele>
        <time>2020-08-28T12:00:12Z</time>
      </trkpt>
      <trkpt lat="40.359761" lon="-1.05991">
        <ele>1017.807</ele>
        <time>2020-08-28T12:00:14Z</time>
      </trkpt>
      <trkpt lat="40.359781" lon="-1.05985">
        <ele>1017.927</ele>
        <time>2020-08-28T12:00:16Z</time>
      </trkpt>
      <trkpt lat="40.359792" lon="-1.059782">
        <ele>1018.108</ele>
        <time>2020-08-28T12:00:18Z</time>
      </trkpt>
      <trkpt lat="40.359799" lon="-1.059714">
        <ele>1018.344</ele>
        <time>2020-08-28T12:00:20Z</time>
      </trkpt>
      <trkpt lat="40.359803" lon="-1.059644">
        <ele>1018.494</ele>
        <time>2020-08-28T12:00:22Z</time>
      </trkpt>
      <trkpt lat="40.359806" lon="-1.059576">
        <ele>1018.436</ele>
        <time>2020-08-28T12:00:24Z</time>
      </trkpt>
      <trkpt lat="40.359811" lon="-1.059508">
        <ele>1018.478</ele>
        <time>2020-08-28T12:00:26Z</time>
      </trkpt>
      <trkpt lat="40.359817" lon="-1.05944">
        <ele>1018.536</ele>
        <time>2020-08-28T12:00:28Z</time>
      </trkpt>
      <trkpt lat="40.359822" lon="-1.05937">
        <ele>1018.663</ele>
        <time>2020-08-28T12:00:30Z</time>
      </trkpt>
      <trkpt lat="40.359825" lon="-1.059302">
        <ele>1018.671</ele>
        <time>2020-08-28T12:00:32Z</time>
      </trkpt>
      <trkpt lat="40.359821" lon="-1.059236">
        <ele>1018.751</ele>
        <time>2020-08-28T12:00:34Z</time>
      </trkpt>
      <trkpt lat="40.359827" lon="-1.059166">
        <ele>1018.714</ele>
        <time>2020-08-28T12:00:36Z</time>
      </trkpt>
      <trkpt lat="40.359825" lon="-1.059101">
        <ele>1018.954</ele>
        <time>2020-08-28T12:00:38Z</time>
      </trkpt>
      <trkpt lat="40.359826" lon="-1.059037">
        <ele>1019.109</ele>
        <time>2020-08-28T12:00:40Z</time>
      </trkpt>
      <trkpt lat="40.359823" lon="-1.058963">
        <ele>1019.208</ele>
        <time>2020-08-28T12:00:42Z</time>
      </trkpt>
      <trkpt lat="40.359818" lon="-1.058891">
        <ele>1019.486</ele>
        <time>2020-08-28T12:00:44Z</time>
      </trkpt>
      <trkpt lat="40.359824" lon="-1.058823">
        <ele>1019.626</ele>
        <time>2020-08-28T12:00:46Z</time>
      </trkpt>
      <trkpt lat="40.359823" lon="-1.058751">
        <ele>1019.778</ele>
        <time>2020-08-28T12:00:48Z</time>
      </trkpt>
      <trkpt lat="40.359821" lon="-1.058682">
        <ele>1019.890</ele>
        <time>2020-08-28T12:00:50Z</time>
      </trkpt>
      <trkpt lat="40.359824" lon="-1.058605">
        <ele>1019.988</ele>
        <time>2020-08-28T12:00:52Z</time>
      </trkpt>
      <trkpt lat="40.359818" lon="-1.058534">
        <ele>1019.925</ele>
        <time>2020-08-28T12:00:54Z</time>
      </trkpt>
      <trkpt lat="40.359808" lon="-1.058466">
        <ele>1020.083</ele>
        <time>2020-08-28T12:00:56Z</time>
      </trkpt>
      <trkpt lat="40.359815" lon="-1.058393">
        <ele>1020.113</ele>
        <time>2020-08-28T12:00:58Z</time>
      </trkpt>
      <trkpt lat="40.359805" lon="-1.058315">
        <ele>1020.249</ele>
        <time>2020-08-28T12:01:00Z</time>
      </trkpt>
      <trkpt lat="40.359787" lon="-1.058247">
        <ele>1020.302</ele>
        <time>2020-08-28T12:01:02Z</time>
      </trkpt>
      <trkpt lat="40.359773" lon="-1.058144">
        <ele>1020.422</ele>
        <time>2020-08-28T12:01:04Z</time>
      </trkpt>
      <trkpt lat="40.359771" lon="-1.058045">
        <ele>1020.808</ele>
        <time>2020-08-28T12:01:07Z</time>
      </trkpt>
      <trkpt lat="40.359773" lon="-1.057985">
        <ele>1020.979</ele>
        <time>2020-08-28T12:01:09Z</time>
      </trkpt>
      <trkpt lat="40.359752" lon="-1.057898">
        <ele>1021.169</ele>
        <time>2020-08-28T12:01:11Z</time>
      </trkpt>
      <trkpt lat="40.359745" lon="-1.057833">
        <ele>1021.121</ele>
        <time>2020-08-28T12:01:13Z</time>
      </trkpt>
      <trkpt lat="40.359738" lon="-1.057768">
        <ele>1021.293</ele>
        <time>2020-08-28T12:01:15Z</time>
      </trkpt>
      <trkpt lat="40.359719" lon="-1.057699">
        <ele>1021.391</ele>
        <time>2020-08-28T12:01:17Z</time>
      </trkpt>
      <trkpt lat="40.3597" lon="-1.057644">
        <ele>1021.548</ele>
        <time>2020-08-28T12:01:18Z</time>
      </trkpt>
      <trkpt lat="40.359673" lon="-1.057555">
        <ele>1021.676</ele>
        <time>2020-08-28T12:01:20Z</time>
      </trkpt>
      <trkpt lat="40.359656" lon="-1.057456">
        <ele>1021.816</ele>
        <time>2020-08-28T12:01:23Z</time>
      </trkpt>
      <trkpt lat="40.359641" lon="-1.057372">
        <ele>1022.091</ele>
        <time>2020-08-28T12:01:26Z</time>
      </trkpt>
      <trkpt lat="40.359618" lon="-1.057307">
        <ele>1022.181</ele>
        <time>2020-08-28T12:01:28Z</time>
      </trkpt>
      <trkpt lat="40.359609" lon="-1.057245">
        <ele>1022.119</ele>
        <time>2020-08-28T12:01:30Z</time>
      </trkpt>
      <trkpt lat="40.359585" lon="-1.057171">
        <ele>1022.308</ele>
        <time>2020-08-28T12:01:32Z</time>
      </trkpt>
      <trkpt lat="40.359572" lon="-1.057102">
        <ele>1022.424</ele>
        <time>2020-08-28T12:01:34Z</time>
      </trkpt>
      <trkpt lat="40.359544" lon="-1.057034">
        <ele>1022.714</ele>
        <time>2020-08-28T12:01:36Z</time>
      </trkpt>
      <trkpt lat="40.359533" lon="-1.056971">
        <ele>1022.846</ele>
        <time>2020-08-28T12:01:38Z</time>
      </trkpt>
      <trkpt lat="40.359516" lon="-1.056907">
        <ele>1022.958</ele>
        <time>2020-08-28T12:01:40Z</time>
      </trkpt>
      <trkpt lat="40.359498" lon="-1.056841">
        <ele>1023.046</ele>
        <time>2020-08-28T12:01:42Z</time>
      </trkpt>
      <trkpt lat="40.359475" lon="-1.056778">
        <ele>1023.293</ele>
        <time>2020-08-28T12:01:44Z</time>
      </trkpt>
      <trkpt lat="40.359448" lon="-1.056716">
        <ele>1023.461</ele>
        <time>2020-08-28T12:01:46Z</time>
      </trkpt>
      <trkpt lat="40.359424" lon="-1.05665">
        <ele>1023.691</ele>
        <time>2020-08-28T12:01:48Z</time>
      </trkpt>
      <trkpt lat="40.359402" lon="-1.056586">
        <ele>1023.838</ele>
        <time>2020-08-28T12:01:50Z</time>
      </trkpt>
      <trkpt lat="40.359368" lon="-1.056523">
        <ele>1023.970</ele>
        <time>2020-08-28T12:01:52Z</time>
      </trkpt>
      <trkpt lat="40.359346" lon="-1.056458">
        <ele>1024.017</ele>
        <time>2020-08-28T12:01:54Z</time>
      </trkpt>
      <trkpt lat="40.35931" lon="-1.056391">
        <ele>1024.108</ele>
        <time>2020-08-28T12:01:56Z</time>
      </trkpt>
      <trkpt lat="40.359273" lon="-1.056331">
        <ele>1024.148</ele>
        <time>2020-08-28T12:01:58Z</time>
      </trkpt>
      <trkpt lat="40.359243" lon="-1.056287">
        <ele>1024.168</ele>
        <time>2020-08-28T12:01:59Z</time>
      </trkpt>
      <trkpt lat="40.359208" lon="-1.056211">
        <ele>1024.340</ele>
        <time>2020-08-28T12:02:02Z</time>
      </trkpt>
      <trkpt lat="40.359176" lon="-1.056152">
        <ele>1024.482</ele>
        <time>2020-08-28T12:02:04Z</time>
      </trkpt>
      <trkpt lat="40.359142" lon="-1.056093">
        <ele>1024.760</ele>
        <time>2020-08-28T12:02:06Z</time>
      </trkpt>
      <trkpt lat="40.359109" lon="-1.056036">
        <ele>1024.957</ele>
        <time>2020-08-28T12:02:08Z</time>
      </trkpt>
      <trkpt lat="40.359077" lon="-1.055979">
        <ele>1025.035</ele>
        <time>2020-08-28T12:02:10Z</time>
      </trkpt>
      <trkpt lat="40.359038" lon="-1.055916">
        <ele>1025.115</ele>
        <time>2020-08-28T12:02:12Z</time>
      </trkpt>
      <trkpt lat="40.358981" lon="-1.055838">
        <ele>1025.425</ele>
        <time>2020-08-28T12:02:14Z</time>
      </trkpt>
      <trkpt lat="40.358932" lon="-1.055763">
        <ele>1025.526</ele>
        <time>2020-08-28T12:02:17Z</time>
      </trkpt>
      <trkpt lat="40.358902" lon="-1.055706">
        <ele>1025.608</ele>
        <time>2020-08-28T12:02:19Z</time>
      </trkpt>
      <trkpt lat="40.358865" lon="-1.055661">
        <ele>1025.808</ele>
        <time>2020-08-28T12:02:21Z</time>
      </trkpt>
      <trkpt lat="40.358833" lon="-1.055603">
        <ele>1025.917</ele>
        <time>2020-08-28T12:02:23Z</time>
      </trkpt>
      <trkpt lat="40.358798" lon="-1.05555">
        <ele>1026.167</ele>
        <time>2020-08-28T12:02:25Z</time>
      </trkpt>
      <trkpt lat="40.358761" lon="-1.055498">
        <ele>1026.259</ele>
        <time>2020-08-28T12:02:27Z</time>
      </trkpt>
      <trkpt lat="40.358735" lon="-1.055434">
        <ele>1026.231</ele>
        <time>2020-08-28T12:02:29Z</time>
      </trkpt>
      <trkpt lat="40.358693" lon="-1.055382">
        <ele>1026.259</ele>
        <time>2020-08-28T12:02:31Z</time>
      </trkpt>
      <trkpt lat="40.358661" lon="-1.055329">
        <ele>1026.486</ele>
        <time>2020-08-28T12:02:33Z</time>
      </trkpt>
      <trkpt lat="40.358627" lon="-1.05527">
        <ele>1026.644</ele>
        <time>2020-08-28T12:02:35Z</time>
      </trkpt>
      <trkpt lat="40.358603" lon="-1.055208">
        <ele>1026.724</ele>
        <time>2020-08-28T12:02:37Z</time>
      </trkpt>
      <trkpt lat="40.358575" lon="-1.055156">
        <ele>1026.826</ele>
        <time>2020-08-28T12:02:39Z</time>
      </trkpt>
      <trkpt lat="40.358541" lon="-1.055082">
        <ele>1027.047</ele>
        <time>2020-08-28T12:02:42Z</time>
      </trkpt>
      <trkpt lat="40.358507" lon="-1.055022">
        <ele>1027.111</ele>
        <time>2020-08-28T12:02:44Z</time>
      </trkpt>
      <trkpt lat="40.358474" lon="-1.054956">
        <ele>1027.108</ele>
        <time>2020-08-28T12:02:46Z</time>
      </trkpt>
      <trkpt lat="40.358447" lon="-1.054904">
        <ele>1027.247</ele>
        <time>2020-08-28T12:02:48Z</time>
      </trkpt>
      <trkpt lat="40.358409" lon="-1.054827">
        <ele>1027.367</ele>
        <time>2020-08-28T12:02:50Z</time>
      </trkpt>
      <trkpt lat="40.35835" lon="-1.054752">
        <ele>1027.419</ele>
        <time>2020-08-28T12:02:52Z</time>
      </trkpt>
      <trkpt lat="40.358305" lon="-1.05467">
        <ele>1027.741</ele>
        <time>2020-08-28T12:02:55Z</time>
      </trkpt>
      <trkpt lat="40.358276" lon="-1.054607">
        <ele>1027.859</ele>
        <time>2020-08-28T12:02:57Z</time>
      </trkpt>
      <trkpt lat="40.358243" lon="-1.054551">
        <ele>1027.816</ele>
        <time>2020-08-28T12:02:59Z</time>
      </trkpt>
      <trkpt lat="40.358201" lon="-1.054497">
        <ele>1027.874</ele>
        <time>2020-08-28T12:03:01Z</time>
      </trkpt>
      <trkpt lat="40.358169" lon="-1.05444">
        <ele>1027.924</ele>
        <time>2020-08-28T12:03:03Z</time>
      </trkpt>
      <trkpt lat="40.358132" lon="-1.054379">
        <ele>1028.189</ele>
        <time>2020-08-28T12:03:05Z</time>
      </trkpt>
      <trkpt lat="40.358103" lon="-1.054319">
        <ele>1028.206</ele>
        <time>2020-08-28T12:03:07Z</time>
      </trkpt>
      <trkpt lat="40.35807" lon="-1.054268">
        <ele>1028.426</ele>
        <time>2020-08-28T12:03:09Z</time>
      </trkpt>
      <trkpt lat="40.358034" lon="-1.054208">
        <ele>1028.608</ele>
        <time>2020-08-28T12:03:11Z</time>
      </trkpt>
      <trkpt lat="40.358004" lon="-1.054153">
        <ele>1028.753</ele>
        <time>2020-08-28T12:03:13Z</time>
      </trkpt>
      <trkpt lat="40.357967" lon="-1.054093">
        <ele>1028.983</ele>
        <time>2020-08-28T12:03:15Z</time>
      </trkpt>
      <trkpt lat="40.357939" lon="-1.054035">
        <ele>1028.925</ele>
        <time>2020-08-28T12:03:17Z</time>
      </trkpt>
      <trkpt lat="40.357911" lon="-1.053987">
        <ele>1028.977</ele>
        <time>2020-08-28T12:03:19Z</time>
      </trkpt>
      <trkpt lat="40.357874" lon="-1.053923">
        <ele>1028.955</ele>
        <time>2020-08-28T12:03:21Z</time>
      </trkpt>
      <trkpt lat="40.357843" lon="-1.053864">
        <ele>1029.092</ele>
        <time>2020-08-28T12:03:23Z</time>
      </trkpt>
      <trkpt lat="40.357806" lon="-1.05381">
        <ele>1029.150</ele>
        <time>2020-08-28T12:03:25Z</time>
      </trkpt>
      <trkpt lat="40.357777" lon="-1.053749">
        <ele>1029.260</ele>
        <time>2020-08-28T12:03:27Z</time>
      </trkpt>
      <trkpt lat="40.357732" lon="-1.05368">
        <ele>1029.433</ele>
        <time>2020-08-28T12:03:30Z</time>
      </trkpt>
      <trkpt lat="40.3577" lon="-1.053619">
        <ele>1029.423</ele>
        <time>2020-08-28T12:03:32Z</time>
      </trkpt>
      <trkpt lat="40.357665" lon="-1.053562">
        <ele>1029.515</ele>
        <time>2020-08-28T12:03:34Z</time>
      </trkpt>
      <trkpt lat="40.357633" lon="-1.053501">
        <ele>1029.608</ele>
        <time>2020-08-28T12:03:36Z</time>
      </trkpt>
      <trkpt lat="40.357591" lon="-1.053443">
        <ele>1029.858</ele>
        <time>2020-08-28T12:03:38Z</time>
      </trkpt>
      <trkpt lat="40.357562" lon="-1.053382">
        <ele>1029.968</ele>
        <time>2020-08-28T12:03:40Z</time>
      </trkpt>
      <trkpt lat="40.357532" lon="-1.053322">
        <ele>1030.110</ele>
        <time>2020-08-28T12:03:42Z</time>
      </trkpt>
      <trkpt lat="40.357486" lon="-1.053265">
        <ele>1030.272</ele>
        <time>2020-08-28T12:03:44Z</time>
      </trkpt>
      <trkpt lat="40.35744" lon="-1.053204">
        <ele>1030.370</ele>
        <time>2020-08-28T12:03:46Z</time>
      </trkpt>
      <trkpt lat="40.357381" lon="-1.053126">
        <ele>1030.457</ele>
        <time>2020-08-28T12:03:48Z</time>
      </trkpt>
      <trkpt lat="40.357334" lon="-1.053058">
        <ele>1030.615</ele>
        <time>2020-08-28T12:03:50Z</time>
      </trkpt>
      <trkpt lat="40.357301" lon="-1.052996">
        <ele>1030.725</ele>
        <time>2020-08-28T12:03:52Z</time>
      </trkpt>
      <trkpt lat="40.357261" lon="-1.052934">
        <ele>1030.763</ele>
        <time>2020-08-28T12:03:54Z</time>
      </trkpt>
      <trkpt lat="40.357218" lon="-1.052873">
        <ele>1030.844</ele>
        <time>2020-08-28T12:03:56Z</time>
      </trkpt>
      <trkpt lat="40.357181" lon="-1.052809">
        <ele>1030.918</ele>
        <time>2020-08-28T12:03:58Z</time>
      </trkpt>
      <trkpt lat="40.357148" lon="-1.052748">
        <ele>1031.108</ele>
        <time>2020-08-28T12:04:00Z</time>
      </trkpt>
      <trkpt lat="40.357117" lon="-1.052689">
        <ele>1031.361</ele>
        <time>2020-08-28T12:04:02Z</time>
      </trkpt>
      <trkpt lat="40.357078" lon="-1.052632">
        <ele>1031.411</ele>
        <time>2020-08-28T12:04:04Z</time>
      </trkpt>
      <trkpt lat="40.357039" lon="-1.052575">
        <ele>1031.523</ele>
        <time>2020-08-28T12:04:06Z</time>
      </trkpt>
      <trkpt lat="40.357011" lon="-1.052513">
        <ele>1031.615</ele>
        <time>2020-08-28T12:04:08Z</time>
      </trkpt>
      <trkpt lat="40.356971" lon="-1.052454">
        <ele>1031.983</ele>
        <time>2020-08-28T12:04:10Z</time>
      </trkpt>
      <trkpt lat="40.356935" lon="-1.052394">
        <ele>1032.120</ele>
        <time>2020-08-28T12:04:12Z</time>
      </trkpt>
      <trkpt lat="40.356901" lon="-1.052336">
        <ele>1032.398</ele>
        <time>2020-08-28T12:04:14Z</time>
      </trkpt>
      <trkpt lat="40.356868" lon="-1.052276">
        <ele>1032.428</ele>
        <time>2020-08-28T12:04:16Z</time>
      </trkpt>
      <trkpt lat="40.356839" lon="-1.052214">
        <ele>1032.595</ele>
        <time>2020-08-28T12:04:18Z</time>
      </trkpt>
      <trkpt lat="40.356807" lon="-1.052152">
        <ele>1032.649</ele>
        <time>2020-08-28T12:04:20Z</time>
      </trkpt>
      <trkpt lat="40.356773" lon="-1.052089">
        <ele>1032.823</ele>
        <time>2020-08-28T12:04:22Z</time>
      </trkpt>
      <trkpt lat="40.356743" lon="-1.052024">
        <ele>1033.008</ele>
        <time>2020-08-28T12:04:24Z</time>
      </trkpt>
      <trkpt lat="40.356717" lon="-1.05196">
        <ele>1033.114</ele>
        <time>2020-08-28T12:04:26Z</time>
      </trkpt>
      <trkpt lat="40.356695" lon="-1.051908">
        <ele>1033.234</ele>
        <time>2020-08-28T12:04:28Z</time>
      </trkpt>
      <trkpt lat="40.35667" lon="-1.051835">
        <ele>1033.576</ele>
        <time>2020-08-28T12:04:31Z</time>
      </trkpt>
      <trkpt lat="40.356647" lon="-1.051776">
        <ele>1033.688</ele>
        <time>2020-08-28T12:04:33Z</time>
      </trkpt>
      <trkpt lat="40.356627" lon="-1.051722">
        <ele>1033.766</ele>
        <time>2020-08-28T12:04:35Z</time>
      </trkpt>
      <trkpt lat="40.356605" lon="-1.051668">
        <ele>1033.993</ele>
        <time>2020-08-28T12:04:37Z</time>
      </trkpt>
      <trkpt lat="40.356588" lon="-1.051612">
        <ele>1034.291</ele>
        <time>2020-08-28T12:04:39Z</time>
      </trkpt>
      <trkpt lat="40.356567" lon="-1.051556">
        <ele>1034.431</ele>
        <time>2020-08-28T12:04:41Z</time>
      </trkpt>
      <trkpt lat="40.356543" lon="-1.051502">
        <ele>1034.684</ele>
        <time>2020-08-28T12:04:43Z</time>
      </trkpt>
      <trkpt lat="40.356516" lon="-1.051448">
        <ele>1034.807</ele>
        <time>2020-08-28T12:04:45Z</time>
      </trkpt>
      <trkpt lat="40.356499" lon="-1.05139">
        <ele>1035.017</ele>
        <time>2020-08-28T12:04:47Z</time>
      </trkpt>
      <trkpt lat="40.356477" lon="-1.051337">
        <ele>1035.208</ele>
        <time>2020-08-28T12:04:49Z</time>
      </trkpt>
      <trkpt lat="40.356457" lon="-1.05128">
        <ele>1035.423</ele>
        <time>2020-08-28T12:04:51Z</time>
      </trkpt>
      <trkpt lat="40.356433" lon="-1.051229">
        <ele>1035.943</ele>
        <time>2020-08-28T12:04:53Z</time>
      </trkpt>
      <trkpt lat="40.356406" lon="-1.051171">
        <ele>1036.215</ele>
        <time>2020-08-28T12:04:55Z</time>
      </trkpt>
      <trkpt lat="40.356393" lon="-1.051111">
        <ele>1036.417</ele>
        <time>2020-08-28T12:04:57Z</time>
      </trkpt>
      <trkpt lat="40.356373" lon="-1.05105">
        <ele>1036.655</ele>
        <time>2020-08-28T12:04:59Z</time>
      </trkpt>
      <trkpt lat="40.356346" lon="-1.050992">
        <ele>1036.852</ele>
        <time>2020-08-28T12:05:01Z</time>
      </trkpt>
      <trkpt lat="40.356321" lon="-1.050941">
        <ele>1037.180</ele>
        <time>2020-08-28T12:05:03Z</time>
      </trkpt>
      <trkpt lat="40.356302" lon="-1.050887">
        <ele>1037.280</ele>
        <time>2020-08-28T12:05:05Z</time>
      </trkpt>
      <trkpt lat="40.35627" lon="-1.050816">
        <ele>1037.524</ele>
        <time>2020-08-28T12:05:07Z</time>
      </trkpt>
      <trkpt lat="40.356235" lon="-1.050745">
        <ele>1037.904</ele>
        <time>2020-08-28T12:05:10Z</time>
      </trkpt>
      <trkpt lat="40.356217" lon="-1.050689">
        <ele>1038.114</ele>
        <time>2020-08-28T12:05:12Z</time>
      </trkpt>
      <trkpt lat="40.356197" lon="-1.050635">
        <ele>1038.308</ele>
        <time>2020-08-28T12:05:14Z</time>
      </trkpt>
      <trkpt lat="40.356173" lon="-1.050582">
        <ele>1038.537</ele>
        <time>2020-08-28T12:05:16Z</time>
      </trkpt>
      <trkpt lat="40.356154" lon="-1.050528">
        <ele>1038.897</ele>
        <time>2020-08-28T12:05:18Z</time>
      </trkpt>
      <trkpt lat="40.356116" lon="-1.050456">
        <ele>1039.199</ele>
        <time>2020-08-28T12:05:21Z</time>
      </trkpt>
      <trkpt lat="40.356086" lon="-1.050406">
        <ele>1039.431</ele>
        <time>2020-08-28T12:05:23Z</time>
      </trkpt>
      <trkpt lat="40.356062" lon="-1.050356">
        <ele>1039.649</ele>
        <time>2020-08-28T12:05:25Z</time>
      </trkpt>
      <trkpt lat="40.356022" lon="-1.050284">
        <ele>1039.976</ele>
        <time>2020-08-28T12:05:28Z</time>
      </trkpt>
      <trkpt lat="40.355991" lon="-1.050238">
        <ele>1040.134</ele>
        <time>2020-08-28T12:05:30Z</time>
      </trkpt>
      <trkpt lat="40.355962" lon="-1.050192">
        <ele>1040.594</ele>
        <time>2020-08-28T12:05:32Z</time>
      </trkpt>
      <trkpt lat="40.355933" lon="-1.050145">
        <ele>1040.883</ele>
        <time>2020-08-28T12:05:34Z</time>
      </trkpt>
      <trkpt lat="40.355902" lon="-1.050102">
        <ele>1041.025</ele>
        <time>2020-08-28T12:05:36Z</time>
      </trkpt>
      <trkpt lat="40.355853" lon="-1.050042">
        <ele>1041.417</ele>
        <time>2020-08-28T12:05:39Z</time>
      </trkpt>
      <trkpt lat="40.355812" lon="-1.04998">
        <ele>1041.908</ele>
        <time>2020-08-28T12:05:42Z</time>
      </trkpt>
      <trkpt lat="40.355762" lon="-1.04996">
        <ele>1042.113</ele>
        <time>2020-08-28T12:05:44Z</time>
      </trkpt>
      <trkpt lat="40.355724" lon="-1.049897">
        <ele>1042.393</ele>
        <time>2020-08-28T12:05:47Z</time>
      </trkpt>
      <trkpt lat="40.355675" lon="-1.049847">
        <ele>1042.485</ele>
        <time>2020-08-28T12:05:50Z</time>
      </trkpt>
      <trkpt lat="40.355634" lon="-1.049789">
        <ele>1042.737</ele>
        <time>2020-08-28T12:05:53Z</time>
      </trkpt>
      <trkpt lat="40.355593" lon="-1.049731">
        <ele>1043.035</ele>
        <time>2020-08-28T12:05:56Z</time>
      </trkpt>
      <trkpt lat="40.355554" lon="-1.04968">
        <ele>1043.382</ele>
        <time>2020-08-28T12:05:59Z</time>
      </trkpt>
      <trkpt lat="40.355506" lon="-1.04962">
        <ele>1043.450</ele>
        <time>2020-08-28T12:06:02Z</time>
      </trkpt>
      <trkpt lat="40.355465" lon="-1.049568">
        <ele>1043.540</ele>
        <time>2020-08-28T12:06:05Z</time>
      </trkpt>
      <trkpt lat="40.355428" lon="-1.049502">
        <ele>1043.868</ele>
        <time>2020-08-28T12:06:08Z</time>
      </trkpt>
      <trkpt lat="40.355388" lon="-1.049467">
        <ele>1044.042</ele>
        <time>2020-08-28T12:06:10Z</time>
      </trkpt>
      <trkpt lat="40.355368" lon="-1.049411">
        <ele>1044.126</ele>
        <time>2020-08-28T12:06:12Z</time>
      </trkpt>
      <trkpt lat="40.355353" lon="-1.049345">
        <ele>1044.108</ele>
        <time>2020-08-28T12:06:15Z</time>
      </trkpt>
      <trkpt lat="40.355332" lon="-1.049265">
        <ele>1044.121</ele>
        <time>2020-08-28T12:06:18Z</time>
      </trkpt>
      <trkpt lat="40.355314" lon="-1.049195">
        <ele>1044.351</ele>
        <time>2020-08-28T12:06:21Z</time>
      </trkpt>
      <trkpt lat="40.355326" lon="-1.049129">
        <ele>1043.973</ele>
        <time>2020-08-28T12:06:25Z</time>
      </trkpt>
      <trkpt lat="40.355334" lon="-1.049052">
        <ele>1044.025</ele>
        <time>2020-08-28T12:06:28Z</time>
      </trkpt>
      <trkpt lat="40.355351" lon="-1.048988">
        <ele>1044.223</ele>
        <time>2020-08-28T12:06:30Z</time>
      </trkpt>
      <trkpt lat="40.355378" lon="-1.048926">
        <ele>1044.360</ele>
        <time>2020-08-28T12:06:32Z</time>
      </trkpt>
      <trkpt lat="40.355395" lon="-1.048855">
        <ele>1044.428</ele>
        <time>2020-08-28T12:06:34Z</time>
      </trkpt>
      <trkpt lat="40.355415" lon="-1.048797">
        <ele>1044.528</ele>
        <time>2020-08-28T12:06:36Z</time>
      </trkpt>
      <trkpt lat="40.355442" lon="-1.048737">
        <ele>1044.614</ele>
        <time>2020-08-28T12:06:38Z</time>
      </trkpt>
      <trkpt lat="40.355474" lon="-1.048665">
        <ele>1044.754</ele>
        <time>2020-08-28T12:06:41Z</time>
      </trkpt>
      <trkpt lat="40.355507" lon="-1.048614">
        <ele>1044.809</ele>
        <time>2020-08-28T12:06:45Z</time>
      </trkpt>
      <trkpt lat="40.355544" lon="-1.048546">
        <ele>1046.008</ele>
        <time>2020-08-28T12:06:48Z</time>
      </trkpt>
      <trkpt lat="40.35558" lon="-1.048495">
        <ele>1045.296</ele>
        <time>2020-08-28T12:06:51Z</time>
      </trkpt>
      <trkpt lat="40.355617" lon="-1.048425">
        <ele>1045.266</ele>
        <time>2020-08-28T12:06:54Z</time>
      </trkpt>
      <trkpt lat="40.355644" lon="-1.048374">
        <ele>1045.348</ele>
        <time>2020-08-28T12:06:56Z</time>
      </trkpt>
      <trkpt lat="40.35568" lon="-1.048316">
        <ele>1045.410</ele>
        <time>2020-08-28T12:06:58Z</time>
      </trkpt>
      <trkpt lat="40.355703" lon="-1.048263">
        <ele>1045.698</ele>
        <time>2020-08-28T12:07:00Z</time>
      </trkpt>
      <trkpt lat="40.355721" lon="-1.048184">
        <ele>1045.795</ele>
        <time>2020-08-28T12:07:03Z</time>
      </trkpt>
      <trkpt lat="40.355717" lon="-1.048121">
        <ele>1045.913</ele>
        <time>2020-08-28T12:07:05Z</time>
      </trkpt>
      <trkpt lat="40.355715" lon="-1.048061">
        <ele>1046.143</ele>
        <time>2020-08-28T12:07:07Z</time>
      </trkpt>
      <trkpt lat="40.355707" lon="-1.048002">
        <ele>1046.293</ele>
        <time>2020-08-28T12:07:09Z</time>
      </trkpt>
      <trkpt lat="40.355683" lon="-1.047949">
        <ele>1046.365</ele>
        <time>2020-08-28T12:07:11Z</time>
      </trkpt>
      <trkpt lat="40.355648" lon="-1.047897">
        <ele>1046.421</ele>
        <time>2020-08-28T12:07:13Z</time>
      </trkpt>
      <trkpt lat="40.355609" lon="-1.047862">
        <ele>1046.608</ele>
        <time>2020-08-28T12:07:16Z</time>
      </trkpt>
      <trkpt lat="40.355559" lon="-1.047826">
        <ele>1046.944</ele>
        <time>2020-08-28T12:07:19Z</time>
      </trkpt>
      <trkpt lat="40.355504" lon="-1.047784">
        <ele>1047.194</ele>
        <time>2020-08-28T12:07:22Z</time>
      </trkpt>
      <trkpt lat="40.355446" lon="-1.047754">
        <ele>1047.426</ele>
        <time>2020-08-28T12:07:25Z</time>
      </trkpt>
      <trkpt lat="40.355388" lon="-1.047723">
        <ele>1047.758</ele>
        <time>2020-08-28T12:07:28Z</time>
      </trkpt>
      <trkpt lat="40.355329" lon="-1.047702">
        <ele>1047.836</ele>
        <time>2020-08-28T12:07:31Z</time>
      </trkpt>
      <trkpt lat="40.355266" lon="-1.047677">
        <ele>1048.073</ele>
        <time>2020-08-28T12:07:34Z</time>
      </trkpt>
      <trkpt lat="40.355222" lon="-1.047661">
        <ele>1048.161</ele>
        <time>2020-08-28T12:07:36Z</time>
      </trkpt>
      <trkpt lat="40.355161" lon="-1.047639">
        <ele>1048.241</ele>
        <time>2020-08-28T12:07:39Z</time>
      </trkpt>
      <trkpt lat="40.355112" lon="-1.047618">
        <ele>1048.286</ele>
        <time>2020-08-28T12:07:41Z</time>
      </trkpt>
      <trkpt lat="40.355056" lon="-1.047592">
        <ele>1048.260</ele>
        <time>2020-08-28T12:07:43Z</time>
      </trkpt>
      <trkpt lat="40.354982" lon="-1.04756">
        <ele>1048.526</ele>
        <time>2020-08-28T12:07:46Z</time>
      </trkpt>
      <trkpt lat="40.354942" lon="-1.047528">
        <ele>1048.708</ele>
        <time>2020-08-28T12:07:48Z</time>
      </trkpt>
      <trkpt lat="40.354893" lon="-1.0475">
        <ele>1048.653</ele>
        <time>2020-08-28T12:07:50Z</time>
      </trkpt>
      <trkpt lat="40.354848" lon="-1.047467">
        <ele>1048.443</ele>
        <time>2020-08-28T12:07:52Z</time>
      </trkpt>
      <trkpt lat="40.354799" lon="-1.047434">
        <ele>1048.315</ele>
        <time>2020-08-28T12:07:54Z</time>
      </trkpt>
      <trkpt lat="40.354751" lon="-1.047402">
        <ele>1048.297</ele>
        <time>2020-08-28T12:07:56Z</time>
      </trkpt>
      <trkpt lat="40.354701" lon="-1.047371">
        <ele>1048.185</ele>
        <time>2020-08-28T12:07:58Z</time>
      </trkpt>
      <trkpt lat="40.354648" lon="-1.047334">
        <ele>1048.192</ele>
        <time>2020-08-28T12:08:00Z</time>
      </trkpt>
      <trkpt lat="40.354588" lon="-1.047294">
        <ele>1048.120</ele>
        <time>2020-08-28T12:08:02Z</time>
      </trkpt>
      <trkpt lat="40.35453" lon="-1.047232">
        <ele>1048.150</ele>
        <time>2020-08-28T12:08:03Z</time>
      </trkpt>
      <trkpt lat="40.354493" lon="-1.047193">
        <ele>1048.147</ele>
        <time>2020-08-28T12:08:04Z</time>
      </trkpt>
      <trkpt lat="40.354437" lon="-1.047145">
        <ele>1047.929</ele>
        <time>2020-08-28T12:08:06Z</time>
      </trkpt>
      <trkpt lat="40.354389" lon="-1.047096">
        <ele>1047.821</ele>
        <time>2020-08-28T12:08:08Z</time>
      </trkpt>
      <trkpt lat="40.354338" lon="-1.04705">
        <ele>1047.708</ele>
        <time>2020-08-28T12:08:10Z</time>
      </trkpt>
      <trkpt lat="40.354282" lon="-1.046986">
        <ele>1047.759</ele>
        <time>2020-08-28T12:08:12Z</time>
      </trkpt>
      <trkpt lat="40.35423" lon="-1.04694">
        <ele>1047.519</ele>
        <time>2020-08-28T12:08:14Z</time>
      </trkpt>
      <trkpt lat="40.354182" lon="-1.04689">
        <ele>1047.371</ele>
        <time>2020-08-28T12:08:16Z</time>
      </trkpt>
      <trkpt lat="40.354137" lon="-1.046847">
        <ele>1046.893</ele>
        <time>2020-08-28T12:08:18Z</time>
      </trkpt>
      <trkpt lat="40.354089" lon="-1.046796">
        <ele>1046.781</ele>
        <time>2020-08-28T12:08:20Z</time>
      </trkpt>
      <trkpt lat="40.354041" lon="-1.046754">
        <ele>1046.638</ele>
        <time>2020-08-28T12:08:22Z</time>
      </trkpt>
      <trkpt lat="40.353999" lon="-1.046704">
        <ele>1046.566</ele>
        <time>2020-08-28T12:08:24Z</time>
      </trkpt>
      <trkpt lat="40.353957" lon="-1.046657">
        <ele>1046.486</ele>
        <time>2020-08-28T12:08:26Z</time>
      </trkpt>
      <trkpt lat="40.353915" lon="-1.046612">
        <ele>1046.439</ele>
        <time>2020-08-28T12:08:28Z</time>
      </trkpt>
      <trkpt lat="40.353871" lon="-1.046565">
        <ele>1046.401</ele>
        <time>2020-08-28T12:08:30Z</time>
      </trkpt>
      <trkpt lat="40.353821" lon="-1.046517">
        <ele>1046.421</ele>
        <time>2020-08-28T12:08:32Z</time>
      </trkpt>
      <trkpt lat="40.353776" lon="-1.046471">
        <ele>1046.408</ele>
        <time>2020-08-28T12:08:34Z</time>
      </trkpt>
      <trkpt lat="40.353741" lon="-1.046417">
        <ele>1046.348</ele>
        <time>2020-08-28T12:08:36Z</time>
      </trkpt>
      <trkpt lat="40.353693" lon="-1.046367">
        <ele>1046.248</ele>
        <time>2020-08-28T12:08:38Z</time>
      </trkpt>
      <trkpt lat="40.353646" lon="-1.046315">
        <ele>1046.180</ele>
        <time>2020-08-28T12:08:40Z</time>
      </trkpt>
      <trkpt lat="40.353597" lon="-1.046266">
        <ele>1046.292</ele>
        <time>2020-08-28T12:08:42Z</time>
      </trkpt>
      <trkpt lat="40.353555" lon="-1.046208">
        <ele>1046.210</ele>
        <time>2020-08-28T12:08:44Z</time>
      </trkpt>
      <trkpt lat="40.353517" lon="-1.046167">
        <ele>1046.167</ele>
        <time>2020-08-28T12:08:46Z</time>
      </trkpt>
      <trkpt lat="40.353487" lon="-1.046117">
        <ele>1046.155</ele>
        <time>2020-08-28T12:08:48Z</time>
      </trkpt>
      <trkpt lat="40.353461" lon="-1.046065">
        <ele>1046.195</ele>
        <time>2020-08-28T12:08:50Z</time>
      </trkpt>
      <trkpt lat="40.353435" lon="-1.045994">
        <ele>1046.178</ele>
        <time>2020-08-28T12:08:53Z</time>
      </trkpt>
      <trkpt lat="40.353406" lon="-1.045922">
        <ele>1045.833</ele>
        <time>2020-08-28T12:08:56Z</time>
      </trkpt>
      <trkpt lat="40.353383" lon="-1.04584">
        <ele>1045.526</ele>
        <time>2020-08-28T12:08:59Z</time>
      </trkpt>
      <trkpt lat="40.353363" lon="-1.045761">
        <ele>1045.208</ele>
        <time>2020-08-28T12:09:01Z</time>
      </trkpt>
      <trkpt lat="40.353351" lon="-1.045685">
        <ele>1045.142</ele>
        <time>2020-08-28T12:09:04Z</time>
      </trkpt>
      <trkpt lat="40.353334" lon="-1.045626">
        <ele>1045.822</ele>
        <time>2020-08-28T12:09:20Z</time>
      </trkpt>
      <trkpt lat="40.353325" lon="-1.045565">
        <ele>1046.164</ele>
        <time>2020-08-28T12:10:52Z</time>
      </trkpt>
      <trkpt lat="40.353317" lon="-1.045478">
        <ele>1046.236</ele>
        <time>2020-08-28T12:10:55Z</time>
      </trkpt>
      <trkpt lat="40.353308" lon="-1.04541">
        <ele>1046.224</ele>
        <time>2020-08-28T12:10:57Z</time>
      </trkpt>
      <trkpt lat="40.353295" lon="-1.045349">
        <ele>1046.241</ele>
        <time>2020-08-28T12:10:59Z</time>
      </trkpt>
      <trkpt lat="40.353301" lon="-1.045288">
        <ele>1046.359</ele>
        <time>2020-08-28T12:11:01Z</time>
      </trkpt>
      <trkpt lat="40.353293" lon="-1.045218">
        <ele>1046.539</ele>
        <time>2020-08-28T12:11:03Z</time>
      </trkpt>
      <trkpt lat="40.353278" lon="-1.045139">
        <ele>1046.554</ele>
        <time>2020-08-28T12:11:05Z</time>
      </trkpt>
      <trkpt lat="40.353267" lon="-1.045062">
        <ele>1046.556</ele>
        <time>2020-08-28T12:11:07Z</time>
      </trkpt>
      <trkpt lat="40.35325" lon="-1.044978">
        <ele>1046.411</ele>
        <time>2020-08-28T12:11:09Z</time>
      </trkpt>
      <trkpt lat="40.353238" lon="-1.044901">
        <ele>1046.308</ele>
        <time>2020-08-28T12:11:11Z</time>
      </trkpt>
      <trkpt lat="40.353241" lon="-1.044828">
        <ele>1045.540</ele>
        <time>2020-08-28T12:11:13Z</time>
      </trkpt>
      <trkpt lat="40.353229" lon="-1.04476">
        <ele>1045.610</ele>
        <time>2020-08-28T12:11:15Z</time>
      </trkpt>
      <trkpt lat="40.353217" lon="-1.044701">
        <ele>1046.632</ele>
        <time>2020-08-28T12:11:17Z</time>
      </trkpt>
      <trkpt lat="40.3532" lon="-1.044637">
        <ele>1046.564</ele>
        <time>2020-08-28T12:11:19Z</time>
      </trkpt>
      <trkpt lat="40.353177" lon="-1.044586">
        <ele>1046.112</ele>
        <time>2020-08-28T12:11:21Z</time>
      </trkpt>
      <trkpt lat="40.353176" lon="-1.044525">
        <ele>1046.179</ele>
        <time>2020-08-28T12:11:23Z</time>
      </trkpt>
      <trkpt lat="40.353165" lon="-1.04444">
        <ele>1046.387</ele>
        <time>2020-08-28T12:11:26Z</time>
      </trkpt>
      <trkpt lat="40.353163" lon="-1.044364">
        <ele>1046.327</ele>
        <time>2020-08-28T12:11:28Z</time>
      </trkpt>
      <trkpt lat="40.353174" lon="-1.044283">
        <ele>1046.227</ele>
        <time>2020-08-28T12:11:30Z</time>
      </trkpt>
      <trkpt lat="40.353142" lon="-1.04422">
        <ele>1046.368</ele>
        <time>2020-08-28T12:11:32Z</time>
      </trkpt>
      <trkpt lat="40.353125" lon="-1.044146">
        <ele>1046.314</ele>
        <time>2020-08-28T12:11:34Z</time>
      </trkpt>
      <trkpt lat="40.353116" lon="-1.044075">
        <ele>1046.208</ele>
        <time>2020-08-28T12:11:36Z</time>
      </trkpt>
      <trkpt lat="40.353099" lon="-1.044016">
        <ele>1046.277</ele>
        <time>2020-08-28T12:11:38Z</time>
      </trkpt>
      <trkpt lat="40.353093" lon="-1.04395">
        <ele>1046.347</ele>
        <time>2020-08-28T12:11:40Z</time>
      </trkpt>
      <trkpt lat="40.35308" lon="-1.043878">
        <ele>1046.459</ele>
        <time>2020-08-28T12:11:42Z</time>
      </trkpt>
      <trkpt lat="40.353065" lon="-1.043796">
        <ele>1046.591</ele>
        <time>2020-08-28T12:11:44Z</time>
      </trkpt>
      <trkpt lat="40.353045" lon="-1.04371">
        <ele>1046.579</ele>
        <time>2020-08-28T12:11:46Z</time>
      </trkpt>
      <trkpt lat="40.353036" lon="-1.043629">
        <ele>1046.576</ele>
        <time>2020-08-28T12:11:48Z</time>
      </trkpt>
      <trkpt lat="40.353026" lon="-1.043548">
        <ele>1046.524</ele>
        <time>2020-08-28T12:11:50Z</time>
      </trkpt>
      <trkpt lat="40.353022" lon="-1.043463">
        <ele>1046.514</ele>
        <time>2020-08-28T12:11:52Z</time>
      </trkpt>
      <trkpt lat="40.353013" lon="-1.043378">
        <ele>1046.498</ele>
        <time>2020-08-28T12:11:54Z</time>
      </trkpt>
      <trkpt lat="40.353009" lon="-1.043279">
        <ele>1046.315</ele>
        <time>2020-08-28T12:11:56Z</time>
      </trkpt>
      <trkpt lat="40.353001" lon="-1.043191">
        <ele>1046.326</ele>
        <time>2020-08-28T12:11:58Z</time>
      </trkpt>
      <trkpt lat="40.352985" lon="-1.043103">
        <ele>1046.408</ele>
        <time>2020-08-28T12:12:00Z</time>
      </trkpt>
      <trkpt lat="40.352962" lon="-1.043013">
        <ele>1046.474</ele>
        <time>2020-08-28T12:12:02Z</time>
      </trkpt>
      <trkpt lat="40.352935" lon="-1.04291">
        <ele>1046.594</ele>
        <time>2020-08-28T12:12:04Z</time>
      </trkpt>
      <trkpt lat="40.352927" lon="-1.042803">
        <ele>1046.556</ele>
        <time>2020-08-28T12:12:06Z</time>
      </trkpt>
      <trkpt lat="40.352895" lon="-1.042703">
        <ele>1046.558</ele>
        <time>2020-08-28T12:12:08Z</time>
      </trkpt>
      <trkpt lat="40.352932" lon="-1.04264">
        <ele>1046.436</ele>
        <time>2020-08-28T12:12:12Z</time>
      </trkpt>
      <trkpt lat="40.352911" lon="-1.042536">
        <ele>1046.463</ele>
        <time>2020-08-28T12:12:14Z</time>
      </trkpt>
      <trkpt lat="40.352883" lon="-1.04244">
        <ele>1046.551</ele>
        <time>2020-08-28T12:12:16Z</time>
      </trkpt>
      <trkpt lat="40.352851" lon="-1.042352">
        <ele>1046.411</ele>
        <time>2020-08-28T12:12:18Z</time>
      </trkpt>
      <trkpt lat="40.352816" lon="-1.042259">
        <ele>1046.229</ele>
        <time>2020-08-28T12:12:20Z</time>
      </trkpt>
      <trkpt lat="40.352773" lon="-1.042182">
        <ele>1046.200</ele>
        <time>2020-08-28T12:12:22Z</time>
      </trkpt>
      <trkpt lat="40.352725" lon="-1.042086">
        <ele>1046.220</ele>
        <time>2020-08-28T12:12:24Z</time>
      </trkpt>
      <trkpt lat="40.352694" lon="-1.041997">
        <ele>1046.208</ele>
        <time>2020-08-28T12:12:26Z</time>
      </trkpt>
      <trkpt lat="40.352656" lon="-1.041912">
        <ele>1046.117</ele>
        <time>2020-08-28T12:12:28Z</time>
      </trkpt>
      <trkpt lat="40.352612" lon="-1.041823">
        <ele>1046.177</ele>
        <time>2020-08-28T12:12:30Z</time>
      </trkpt>
      <trkpt lat="40.352565" lon="-1.041752">
        <ele>1046.129</ele>
        <time>2020-08-28T12:12:32Z</time>
      </trkpt>
      <trkpt lat="40.352528" lon="-1.04169">
        <ele>1046.181</ele>
        <time>2020-08-28T12:12:34Z</time>
      </trkpt>
      <trkpt lat="40.352483" lon="-1.041619">
        <ele>1046.299</ele>
        <time>2020-08-28T12:12:36Z</time>
      </trkpt>
      <trkpt lat="40.352432" lon="-1.041554">
        <ele>1046.326</ele>
        <time>2020-08-28T12:12:38Z</time>
      </trkpt>
      <trkpt lat="40.352392" lon="-1.041497">
        <ele>1046.444</ele>
        <time>2020-08-28T12:12:40Z</time>
      </trkpt>
      <trkpt lat="40.352356" lon="-1.041434">
        <ele>1046.514</ele>
        <time>2020-08-28T12:12:42Z</time>
      </trkpt>
      <trkpt lat="40.352322" lon="-1.041389">
        <ele>1046.592</ele>
        <time>2020-08-28T12:12:45Z</time>
      </trkpt>
      <trkpt lat="40.352302" lon="-1.041324">
        <ele>1046.673</ele>
        <time>2020-08-28T12:12:47Z</time>
      </trkpt>
      <trkpt lat="40.352266" lon="-1.041257">
        <ele>1046.620</ele>
        <time>2020-08-28T12:12:49Z</time>
      </trkpt>
      <trkpt lat="40.352225" lon="-1.041193">
        <ele>1046.608</ele>
        <time>2020-08-28T12:12:51Z</time>
      </trkpt>
      <trkpt lat="40.352176" lon="-1.041136">
        <ele>1046.684</ele>
        <time>2020-08-28T12:12:53Z</time>
      </trkpt>
      <trkpt lat="40.352142" lon="-1.041072">
        <ele>1046.664</ele>
        <time>2020-08-28T12:12:55Z</time>
      </trkpt>
      <trkpt lat="40.352111" lon="-1.04101">
        <ele>1046.786</ele>
        <time>2020-08-28T12:12:57Z</time>
      </trkpt>
      <trkpt lat="40.352085" lon="-1.040949">
        <ele>1046.838</ele>
        <time>2020-08-28T12:12:59Z</time>
      </trkpt>
      <trkpt lat="40.352055" lon="-1.040886">
        <ele>1046.946</ele>
        <time>2020-08-28T12:13:01Z</time>
      </trkpt>
      <trkpt lat="40.352019" lon="-1.04083">
        <ele>1047.053</ele>
        <time>2020-08-28T12:13:03Z</time>
      </trkpt>
      <trkpt lat="40.351973" lon="-1.040771">
        <ele>1047.021</ele>
        <time>2020-08-28T12:13:05Z</time>
      </trkpt>
      <trkpt lat="40.35193" lon="-1.04071">
        <ele>1047.031</ele>
        <time>2020-08-28T12:13:07Z</time>
      </trkpt>
      <trkpt lat="40.351885" lon="-1.040649">
        <ele>1047.078</ele>
        <time>2020-08-28T12:13:09Z</time>
      </trkpt>
      <trkpt lat="40.351846" lon="-1.040592">
        <ele>1047.033</ele>
        <time>2020-08-28T12:13:11Z</time>
      </trkpt>
      <trkpt lat="40.351815" lon="-1.040526">
        <ele>1047.026</ele>
        <time>2020-08-28T12:13:13Z</time>
      </trkpt>
      <trkpt lat="40.351765" lon="-1.040464">
        <ele>1047.008</ele>
        <time>2020-08-28T12:13:15Z</time>
      </trkpt>
      <trkpt lat="40.351725" lon="-1.040398">
        <ele>1047.082</ele>
        <time>2020-08-28T12:13:17Z</time>
      </trkpt>
      <trkpt lat="40.351682" lon="-1.040327">
        <ele>1047.082</ele>
        <time>2020-08-28T12:13:19Z</time>
      </trkpt>
      <trkpt lat="40.351643" lon="-1.040264">
        <ele>1047.074</ele>
        <time>2020-08-28T12:13:21Z</time>
      </trkpt>
      <trkpt lat="40.351605" lon="-1.040186">
        <ele>1047.156</ele>
        <time>2020-08-28T12:13:23Z</time>
      </trkpt>
      <trkpt lat="40.351548" lon="-1.040125">
        <ele>1047.344</ele>
        <time>2020-08-28T12:13:25Z</time>
      </trkpt>
      <trkpt lat="40.351497" lon="-1.040053">
        <ele>1047.521</ele>
        <time>2020-08-28T12:13:27Z</time>
      </trkpt>
      <trkpt lat="40.351463" lon="-1.039987">
        <ele>1047.699</ele>
        <time>2020-08-28T12:13:29Z</time>
      </trkpt>
      <trkpt lat="40.351417" lon="-1.039926">
        <ele>1047.879</ele>
        <time>2020-08-28T12:13:31Z</time>
      </trkpt>
      <trkpt lat="40.351379" lon="-1.039862">
        <ele>1047.927</ele>
        <time>2020-08-28T12:13:33Z</time>
      </trkpt>
      <trkpt lat="40.351347" lon="-1.0398">
        <ele>1047.968</ele>
        <time>2020-08-28T12:13:35Z</time>
      </trkpt>
      <trkpt lat="40.351312" lon="-1.039742">
        <ele>1048.014</ele>
        <time>2020-08-28T12:13:37Z</time>
      </trkpt>
      <trkpt lat="40.351281" lon="-1.039661">
        <ele>1048.208</ele>
        <time>2020-08-28T12:13:39Z</time>
      </trkpt>
      <trkpt lat="40.351234" lon="-1.039584">
        <ele>1048.387</ele>
        <time>2020-08-28T12:13:41Z</time>
      </trkpt>
      <trkpt lat="40.351186" lon="-1.039519">
        <ele>1048.377</ele>
        <time>2020-08-28T12:13:43Z</time>
      </trkpt>
      <trkpt lat="40.351136" lon="-1.039457">
        <ele>1048.519</ele>
        <time>2020-08-28T12:13:45Z</time>
      </trkpt>
      <trkpt lat="40.35109" lon="-1.039405">
        <ele>1048.711</ele>
        <time>2020-08-28T12:13:47Z</time>
      </trkpt>
      <trkpt lat="40.35106" lon="-1.039342">
        <ele>1048.929</ele>
        <time>2020-08-28T12:13:49Z</time>
      </trkpt>
      <trkpt lat="40.351022" lon="-1.039265">
        <ele>1049.196</ele>
        <time>2020-08-28T12:13:51Z</time>
      </trkpt>
      <trkpt lat="40.350991" lon="-1.039192">
        <ele>1049.374</ele>
        <time>2020-08-28T12:13:54Z</time>
      </trkpt>
      <trkpt lat="40.350988" lon="-1.039092">
        <ele>1049.424</ele>
        <time>2020-08-28T12:13:56Z</time>
      </trkpt>
      <trkpt lat="40.35095" lon="-1.039007">
        <ele>1049.735</ele>
        <time>2020-08-28T12:13:58Z</time>
      </trkpt>
      <trkpt lat="40.350909" lon="-1.038925">
        <ele>1049.986</ele>
        <time>2020-08-28T12:14:00Z</time>
      </trkpt>
      <trkpt lat="40.35085" lon="-1.038855">
        <ele>1050.114</ele>
        <time>2020-08-28T12:14:02Z</time>
      </trkpt>
      <trkpt lat="40.350782" lon="-1.0388">
        <ele>1050.308</ele>
        <time>2020-08-28T12:14:04Z</time>
      </trkpt>
      <trkpt lat="40.350723" lon="-1.038731">
        <ele>1050.478</ele>
        <time>2020-08-28T12:14:06Z</time>
      </trkpt>
      <trkpt lat="40.350677" lon="-1.038665">
        <ele>1050.438</ele>
        <time>2020-08-28T12:14:08Z</time>
      </trkpt>
      <trkpt lat="40.350638" lon="-1.038628">
        <ele>1050.460</ele>
        <time>2020-08-28T12:14:09Z</time>
      </trkpt>
      <trkpt lat="40.350599" lon="-1.038597">
        <ele>1050.412</ele>
        <time>2020-08-28T12:14:10Z</time>
      </trkpt>
      <trkpt lat="40.350616" lon="-1.038517">
        <ele>1050.530</ele>
        <time>2020-08-28T12:14:13Z</time>
      </trkpt>
      <trkpt lat="40.35059" lon="-1.038431">
        <ele>1050.787</ele>
        <time>2020-08-28T12:14:15Z</time>
      </trkpt>
      <trkpt lat="40.350558" lon="-1.038387">
        <ele>1050.825</ele>
        <time>2020-08-28T12:14:17Z</time>
      </trkpt>
      <trkpt lat="40.350494" lon="-1.03832">
        <ele>1051.065</ele>
        <time>2020-08-28T12:14:19Z</time>
      </trkpt>
      <trkpt lat="40.350462" lon="-1.038275">
        <ele>1051.162</ele>
        <time>2020-08-28T12:14:20Z</time>
      </trkpt>
      <trkpt lat="40.350425" lon="-1.038232">
        <ele>1051.383</ele>
        <time>2020-08-28T12:14:22Z</time>
      </trkpt>
      <trkpt lat="40.350392" lon="-1.038152">
        <ele>1051.411</ele>
        <time>2020-08-28T12:14:24Z</time>
      </trkpt>
      <trkpt lat="40.350351" lon="-1.038126">
        <ele>1051.408</ele>
        <time>2020-08-28T12:14:25Z</time>
      </trkpt>
      <trkpt lat="40.350282" lon="-1.038059">
        <ele>1051.551</ele>
        <time>2020-08-28T12:14:27Z</time>
      </trkpt>
      <trkpt lat="40.350252" lon="-1.038011">
        <ele>1051.741</ele>
        <time>2020-08-28T12:14:29Z</time>
      </trkpt>
      <trkpt lat="40.350205" lon="-1.037942">
        <ele>1051.843</ele>
        <time>2020-08-28T12:14:31Z</time>
      </trkpt>
      <trkpt lat="40.350162" lon="-1.037865">
        <ele>1051.825</ele>
        <time>2020-08-28T12:14:33Z</time>
      </trkpt>
      <trkpt lat="40.350099" lon="-1.03779">
        <ele>1051.913</ele>
        <time>2020-08-28T12:14:35Z</time>
      </trkpt>
      <trkpt lat="40.350024" lon="-1.037732">
        <ele>1052.010</ele>
        <time>2020-08-28T12:14:37Z</time>
      </trkpt>
      <trkpt lat="40.349952" lon="-1.037691">
        <ele>1052.158</ele>
        <time>2020-08-28T12:14:39Z</time>
      </trkpt>
      <trkpt lat="40.349892" lon="-1.037631">
        <ele>1052.078</ele>
        <time>2020-08-28T12:14:41Z</time>
      </trkpt>
      <trkpt lat="40.349874" lon="-1.037565">
        <ele>1052.062</ele>
        <time>2020-08-28T12:14:44Z</time>
      </trkpt>
      <trkpt lat="40.349839" lon="-1.037518">
        <ele>1052.383</ele>
        <time>2020-08-28T12:14:46Z</time>
      </trkpt>
      <trkpt lat="40.349803" lon="-1.037461">
        <ele>1052.511</ele>
        <time>2020-08-28T12:14:48Z</time>
      </trkpt>
      <trkpt lat="40.349743" lon="-1.03744">
        <ele>1052.608</ele>
        <time>2020-08-28T12:14:49Z</time>
      </trkpt>
      <trkpt lat="40.349695" lon="-1.037384">
        <ele>1052.751</ele>
        <time>2020-08-28T12:14:51Z</time>
      </trkpt>
      <trkpt lat="40.349658" lon="-1.037311">
        <ele>1052.831</ele>
        <time>2020-08-28T12:14:53Z</time>
      </trkpt>
      <trkpt lat="40.349628" lon="-1.037255">
        <ele>1053.083</ele>
        <time>2020-08-28T12:14:55Z</time>
      </trkpt>
      <trkpt lat="40.349568" lon="-1.037213">
        <ele>1053.285</ele>
        <time>2020-08-28T12:14:57Z</time>
      </trkpt>
      <trkpt lat="40.34954" lon="-1.03716">
        <ele>1053.383</ele>
        <time>2020-08-28T12:14:59Z</time>
      </trkpt>
      <trkpt lat="40.349493" lon="-1.037106">
        <ele>1053.410</ele>
        <time>2020-08-28T12:15:01Z</time>
      </trkpt>
      <trkpt lat="40.349459" lon="-1.037061">
        <ele>1053.428</ele>
        <time>2020-08-28T12:15:03Z</time>
      </trkpt>
      <trkpt lat="40.349408" lon="-1.03699">
        <ele>1053.448</ele>
        <time>2020-08-28T12:15:06Z</time>
      </trkpt>
      <trkpt lat="40.349374" lon="-1.036948">
        <ele>1053.659</ele>
        <time>2020-08-28T12:15:08Z</time>
      </trkpt>
      <trkpt lat="40.349307" lon="-1.036883">
        <ele>1053.803</ele>
        <time>2020-08-28T12:15:10Z</time>
      </trkpt>
      <trkpt lat="40.349267" lon="-1.03679">
        <ele>1054.123</ele>
        <time>2020-08-28T12:15:13Z</time>
      </trkpt>
      <trkpt lat="40.349233" lon="-1.03675">
        <ele>1054.308</ele>
        <time>2020-08-28T12:15:15Z</time>
      </trkpt>
      <trkpt lat="40.349194" lon="-1.036694">
        <ele>1054.510</ele>
        <time>2020-08-28T12:15:17Z</time>
      </trkpt>
      <trkpt lat="40.349156" lon="-1.036644">
        <ele>1054.570</ele>
        <time>2020-08-28T12:15:18Z</time>
      </trkpt>
      <trkpt lat="40.349136" lon="-1.036589">
        <ele>1054.762</ele>
        <time>2020-08-28T12:15:20Z</time>
      </trkpt>
      <trkpt lat="40.349092" lon="-1.036522">
        <ele>1054.964</ele>
        <time>2020-08-28T12:15:23Z</time>
      </trkpt>
      <trkpt lat="40.349068" lon="-1.036461">
        <ele>1054.962</ele>
        <time>2020-08-28T12:15:25Z</time>
      </trkpt>
      <trkpt lat="40.349036" lon="-1.036407">
        <ele>1055.089</ele>
        <time>2020-08-28T12:15:27Z</time>
      </trkpt>
      <trkpt lat="40.349003" lon="-1.036316">
        <ele>1055.147</ele>
        <time>2020-08-28T12:15:29Z</time>
      </trkpt>
      <trkpt lat="40.348971" lon="-1.03626">
        <ele>1055.217</ele>
        <time>2020-08-28T12:15:30Z</time>
      </trkpt>
      <trkpt lat="40.348931" lon="-1.036214">
        <ele>1055.381</ele>
        <time>2020-08-28T12:15:31Z</time>
      </trkpt>
      <trkpt lat="40.348887" lon="-1.036172">
        <ele>1055.461</ele>
        <time>2020-08-28T12:15:32Z</time>
      </trkpt>
      <trkpt lat="40.34885" lon="-1.036132">
        <ele>1055.517</ele>
        <time>2020-08-28T12:15:33Z</time>
      </trkpt>
      <trkpt lat="40.348815" lon="-1.036092">
        <ele>1055.608</ele>
        <time>2020-08-28T12:15:34Z</time>
      </trkpt>
      <trkpt lat="40.348745" lon="-1.036008">
        <ele>1055.833</ele>
        <time>2020-08-28T12:15:36Z</time>
      </trkpt>
      <trkpt lat="40.348708" lon="-1.035962">
        <ele>1055.953</ele>
        <time>2020-08-28T12:15:37Z</time>
      </trkpt>
      <trkpt lat="40.348649" lon="-1.035877">
        <ele>1056.015</ele>
        <time>2020-08-28T12:15:39Z</time>
      </trkpt>
      <trkpt lat="40.34859" lon="-1.035795">
        <ele>1056.147</ele>
        <time>2020-08-28T12:15:41Z</time>
      </trkpt>
      <trkpt lat="40.348524" lon="-1.035723">
        <ele>1056.345</ele>
        <time>2020-08-28T12:15:43Z</time>
      </trkpt>
      <trkpt lat="40.348468" lon="-1.035654">
        <ele>1056.622</ele>
        <time>2020-08-28T12:15:45Z</time>
      </trkpt>
      <trkpt lat="40.348447" lon="-1.035594">
        <ele>1056.820</ele>
        <time>2020-08-28T12:15:47Z</time>
      </trkpt>
      <trkpt lat="40.348424" lon="-1.03553">
        <ele>1056.910</ele>
        <time>2020-08-28T12:15:49Z</time>
      </trkpt>
      <trkpt lat="40.348387" lon="-1.035469">
        <ele>1057.016</ele>
        <time>2020-08-28T12:15:51Z</time>
      </trkpt>
      <trkpt lat="40.34835" lon="-1.035416">
        <ele>1057.276</ele>
        <time>2020-08-28T12:15:53Z</time>
      </trkpt>
      <trkpt lat="40.348315" lon="-1.035353">
        <ele>1057.513</ele>
        <time>2020-08-28T12:15:55Z</time>
      </trkpt>
      <trkpt lat="40.348276" lon="-1.0353">
        <ele>1057.708</ele>
        <time>2020-08-28T12:15:57Z</time>
      </trkpt>
      <trkpt lat="40.348236" lon="-1.035243">
        <ele>1057.946</ele>
        <time>2020-08-28T12:15:59Z</time>
      </trkpt>
      <trkpt lat="40.348203" lon="-1.035162">
        <ele>1058.016</ele>
        <time>2020-08-28T12:16:01Z</time>
      </trkpt>
      <trkpt lat="40.348153" lon="-1.035102">
        <ele>1058.118</ele>
        <time>2020-08-28T12:16:03Z</time>
      </trkpt>
      <trkpt lat="40.348128" lon="-1.035051">
        <ele>1058.290</ele>
        <time>2020-08-28T12:16:05Z</time>
      </trkpt>
      <trkpt lat="40.348103" lon="-1.034982">
        <ele>1058.378</ele>
        <time>2020-08-28T12:16:07Z</time>
      </trkpt>
      <trkpt lat="40.348064" lon="-1.034907">
        <ele>1058.575</ele>
        <time>2020-08-28T12:16:09Z</time>
      </trkpt>
      <trkpt lat="40.348034" lon="-1.034824">
        <ele>1058.843</ele>
        <time>2020-08-28T12:16:12Z</time>
      </trkpt>
      <trkpt lat="40.34799" lon="-1.034769">
        <ele>1059.023</ele>
        <time>2020-08-28T12:16:15Z</time>
      </trkpt>
      <trkpt lat="40.347935" lon="-1.034728">
        <ele>1059.148</ele>
        <time>2020-08-28T12:16:18Z</time>
      </trkpt>
      <trkpt lat="40.347904" lon="-1.034681">
        <ele>1059.161</ele>
        <time>2020-08-28T12:16:20Z</time>
      </trkpt>
      <trkpt lat="40.347869" lon="-1.034639">
        <ele>1059.217</ele>
        <time>2020-08-28T12:16:22Z</time>
      </trkpt>
      <trkpt lat="40.347838" lon="-1.03459">
        <ele>1059.308</ele>
        <time>2020-08-28T12:16:24Z</time>
      </trkpt>
      <trkpt lat="40.347791" lon="-1.034541">
        <ele>1059.449</ele>
        <time>2020-08-28T12:16:26Z</time>
      </trkpt>
      <trkpt lat="40.347754" lon="-1.034491">
        <ele>1059.549</ele>
        <time>2020-08-28T12:16:28Z</time>
      </trkpt>
      <trkpt lat="40.347723" lon="-1.034432">
        <ele>1059.631</ele>
        <time>2020-08-28T12:16:30Z</time>
      </trkpt>
      <trkpt lat="40.347686" lon="-1.034392">
        <ele>1059.673</ele>
        <time>2020-08-28T12:16:32Z</time>
      </trkpt>
      <trkpt lat="40.347649" lon="-1.034325">
        <ele>1059.751</ele>
        <time>2020-08-28T12:16:35Z</time>
      </trkpt>
      <trkpt lat="40.347614" lon="-1.034275">
        <ele>1060.068</ele>
        <time>2020-08-28T12:16:37Z</time>
      </trkpt>
      <trkpt lat="40.347582" lon="-1.034207">
        <ele>1060.286</ele>
        <time>2020-08-28T12:16:40Z</time>
      </trkpt>
      <trkpt lat="40.347546" lon="-1.034155">
        <ele>1060.236</ele>
        <time>2020-08-28T12:16:43Z</time>
      </trkpt>
      <trkpt lat="40.347516" lon="-1.034099">
        <ele>1060.389</ele>
        <time>2020-08-28T12:16:45Z</time>
      </trkpt>
      <trkpt lat="40.347487" lon="-1.03403">
        <ele>1060.506</ele>
        <time>2020-08-28T12:16:47Z</time>
      </trkpt>
      <trkpt lat="40.347456" lon="-1.033957">
        <ele>1060.826</ele>
        <time>2020-08-28T12:16:50Z</time>
      </trkpt>
      <trkpt lat="40.347427" lon="-1.03391">
        <ele>1060.808</ele>
        <time>2020-08-28T12:16:52Z</time>
      </trkpt>
      <trkpt lat="40.347396" lon="-1.033858">
        <ele>1060.873</ele>
        <time>2020-08-28T12:16:54Z</time>
      </trkpt>
      <trkpt lat="40.347367" lon="-1.033808">
        <ele>1060.933</ele>
        <time>2020-08-28T12:16:56Z</time>
      </trkpt>
      <trkpt lat="40.347346" lon="-1.03373">
        <ele>1061.055</ele>
        <time>2020-08-28T12:16:59Z</time>
      </trkpt>
      <trkpt lat="40.347303" lon="-1.033674">
        <ele>1060.957</ele>
        <time>2020-08-28T12:17:02Z</time>
      </trkpt>
      <trkpt lat="40.347285" lon="-1.033607">
        <ele>1061.045</ele>
        <time>2020-08-28T12:17:06Z</time>
      </trkpt>
      <trkpt lat="40.347258" lon="-1.033542">
        <ele>1061.262</ele>
        <time>2020-08-28T12:17:09Z</time>
      </trkpt>
      <trkpt lat="40.347232" lon="-1.033472">
        <ele>1061.320</ele>
        <time>2020-08-28T12:17:12Z</time>
      </trkpt>
      <trkpt lat="40.347218" lon="-1.033397">
        <ele>1061.510</ele>
        <time>2020-08-28T12:17:15Z</time>
      </trkpt>
      <trkpt lat="40.347205" lon="-1.033313">
        <ele>1061.823</ele>
        <time>2020-08-28T12:17:18Z</time>
      </trkpt>
      <trkpt lat="40.347182" lon="-1.033247">
        <ele>1062.083</ele>
        <time>2020-08-28T12:17:21Z</time>
      </trkpt>
      <trkpt lat="40.347169" lon="-1.033176">
        <ele>1062.111</ele>
        <time>2020-08-28T12:17:23Z</time>
      </trkpt>
      <trkpt lat="40.347152" lon="-1.033112">
        <ele>1062.208</ele>
        <time>2020-08-28T12:17:26Z</time>
      </trkpt>
      <trkpt lat="40.347124" lon="-1.033038">
        <ele>1062.367</ele>
        <time>2020-08-28T12:17:28Z</time>
      </trkpt>
      <trkpt lat="40.347107" lon="-1.032958">
        <ele>1062.457</ele>
        <time>2020-08-28T12:17:30Z</time>
      </trkpt>
      <trkpt lat="40.347105" lon="-1.032891">
        <ele>1062.539</ele>
        <time>2020-08-28T12:17:33Z</time>
      </trkpt>
      <trkpt lat="40.347106" lon="-1.032816">
        <ele>1062.731</ele>
        <time>2020-08-28T12:17:35Z</time>
      </trkpt>
      <trkpt lat="40.347097" lon="-1.032726">
        <ele>1062.959</ele>
        <time>2020-08-28T12:17:37Z</time>
      </trkpt>
      <trkpt lat="40.347078" lon="-1.032644">
        <ele>1063.186</ele>
        <time>2020-08-28T12:17:39Z</time>
      </trkpt>
      <trkpt lat="40.347068" lon="-1.03257">
        <ele>1063.394</ele>
        <time>2020-08-28T12:17:41Z</time>
      </trkpt>
      <trkpt lat="40.347079" lon="-1.03249">
        <ele>1063.514</ele>
        <time>2020-08-28T12:17:45Z</time>
      </trkpt>
      <trkpt lat="40.34707" lon="-1.032404">
        <ele>1063.798</ele>
        <time>2020-08-28T12:17:48Z</time>
      </trkpt>
      <trkpt lat="40.347055" lon="-1.032332">
        <ele>1063.915</ele>
        <time>2020-08-28T12:17:51Z</time>
      </trkpt>
      <trkpt lat="40.347043" lon="-1.032273">
        <ele>1064.026</ele>
        <time>2020-08-28T12:17:53Z</time>
      </trkpt>
      <trkpt lat="40.347025" lon="-1.032182">
        <ele>1064.108</ele>
        <time>2020-08-28T12:17:56Z</time>
      </trkpt>
      <trkpt lat="40.34701" lon="-1.032124">
        <ele>1064.294</ele>
        <time>2020-08-28T12:17:58Z</time>
      </trkpt>
      <trkpt lat="40.34701" lon="-1.032045">
        <ele>1064.384</ele>
        <time>2020-08-28T12:18:00Z</time>
      </trkpt>
      <trkpt lat="40.347005" lon="-1.031964">
        <ele>1064.426</ele>
        <time>2020-08-28T12:18:03Z</time>
      </trkpt>
      <trkpt lat="40.346997" lon="-1.031884">
        <ele>1064.558</ele>
        <time>2020-08-28T12:18:05Z</time>
      </trkpt>
      <trkpt lat="40.346994" lon="-1.031805">
        <ele>1064.676</ele>
        <time>2020-08-28T12:18:08Z</time>
      </trkpt>
      <trkpt lat="40.346986" lon="-1.031745">
        <ele>1064.743</ele>
        <time>2020-08-28T12:18:10Z</time>
      </trkpt>
      <trkpt lat="40.346972" lon="-1.031662">
        <ele>1064.951</ele>
        <time>2020-08-28T12:18:13Z</time>
      </trkpt>
      <trkpt lat="40.346972" lon="-1.031559">
        <ele>1065.111</ele>
        <time>2020-08-28T12:18:16Z</time>
      </trkpt>
      <trkpt lat="40.346967" lon="-1.031478">
        <ele>1065.477</ele>
        <time>2020-08-28T12:18:19Z</time>
      </trkpt>
      <trkpt lat="40.346966" lon="-1.031392">
        <ele>1065.561</ele>
        <time>2020-08-28T12:18:22Z</time>
      </trkpt>
      <trkpt lat="40.346967" lon="-1.031302">
        <ele>1065.527</ele>
        <time>2020-08-28T12:18:25Z</time>
      </trkpt>
      <trkpt lat="40.346963" lon="-1.031216">
        <ele>1065.508</ele>
        <time>2020-08-28T12:18:28Z</time>
      </trkpt>
      <trkpt lat="40.346937" lon="-1.031133">
        <ele>1065.622</ele>
        <time>2020-08-28T12:18:31Z</time>
      </trkpt>
      <trkpt lat="40.346948" lon="-1.031055">
        <ele>1065.912</ele>
        <time>2020-08-28T12:18:34Z</time>
      </trkpt>
      <trkpt lat="40.346952" lon="-1.030963">
        <ele>1066.114</ele>
        <time>2020-08-28T12:18:36Z</time>
      </trkpt>
      <trkpt lat="40.346914" lon="-1.030884">
        <ele>1066.276</ele>
        <time>2020-08-28T12:18:39Z</time>
      </trkpt>
      <trkpt lat="40.346907" lon="-1.03081">
        <ele>1066.234</ele>
        <time>2020-08-28T12:18:41Z</time>
      </trkpt>
      <trkpt lat="40.346911" lon="-1.03073">
        <ele>1066.311</ele>
        <time>2020-08-28T12:18:43Z</time>
      </trkpt>
      <trkpt lat="40.346904" lon="-1.030665">
        <ele>1066.439</ele>
        <time>2020-08-28T12:18:45Z</time>
      </trkpt>
      <trkpt lat="40.346901" lon="-1.030601">
        <ele>1066.469</ele>
        <time>2020-08-28T12:18:47Z</time>
      </trkpt>
      <trkpt lat="40.346904" lon="-1.030525">
        <ele>1066.557</ele>
        <time>2020-08-28T12:18:49Z</time>
      </trkpt>
      <trkpt lat="40.346903" lon="-1.030433">
        <ele>1066.600</ele>
        <time>2020-08-28T12:18:52Z</time>
      </trkpt>
      <trkpt lat="40.346891" lon="-1.030346">
        <ele>1066.820</ele>
        <time>2020-08-28T12:18:55Z</time>
      </trkpt>
      <trkpt lat="40.346893" lon="-1.030266">
        <ele>1066.908</ele>
        <time>2020-08-28T12:18:57Z</time>
      </trkpt>
      <trkpt lat="40.346875" lon="-1.030191">
        <ele>1067.140</ele>
        <time>2020-08-28T12:19:00Z</time>
      </trkpt>
      <trkpt lat="40.346872" lon="-1.030113">
        <ele>1067.210</ele>
        <time>2020-08-28T12:19:03Z</time>
      </trkpt>
      <trkpt lat="40.346864" lon="-1.030031">
        <ele>1067.322</ele>
        <time>2020-08-28T12:19:05Z</time>
      </trkpt>
      <trkpt lat="40.346859" lon="-1.029957">
        <ele>1067.574</ele>
        <time>2020-08-28T12:19:08Z</time>
      </trkpt>
      <trkpt lat="40.346848" lon="-1.029871">
        <ele>1067.722</ele>
        <time>2020-08-28T12:19:11Z</time>
      </trkpt>
      <trkpt lat="40.34685" lon="-1.029799">
        <ele>1067.899</ele>
        <time>2020-08-28T12:19:13Z</time>
      </trkpt>
      <trkpt lat="40.34685" lon="-1.029727">
        <ele>1068.037</ele>
        <time>2020-08-28T12:19:16Z</time>
      </trkpt>
      <trkpt lat="40.346853" lon="-1.02964">
        <ele>1068.197</ele>
        <time>2020-08-28T12:19:18Z</time>
      </trkpt>
      <trkpt lat="40.346849" lon="-1.029564">
        <ele>1068.235</ele>
        <time>2020-08-28T12:19:21Z</time>
      </trkpt>
      <trkpt lat="40.34685" lon="-1.029485">
        <ele>1068.486</ele>
        <time>2020-08-28T12:19:23Z</time>
      </trkpt>
      <trkpt lat="40.34683" lon="-1.029421">
        <ele>1068.514</ele>
        <time>2020-08-28T12:19:26Z</time>
      </trkpt>
      <trkpt lat="40.346836" lon="-1.029334">
        <ele>1068.608</ele>
        <time>2020-08-28T12:19:29Z</time>
      </trkpt>
      <trkpt lat="40.34683" lon="-1.029274">
        <ele>1068.698</ele>
        <time>2020-08-28T12:19:31Z</time>
      </trkpt>
      <trkpt lat="40.34682" lon="-1.029193">
        <ele>1068.668</ele>
        <time>2020-08-28T12:19:33Z</time>
      </trkpt>
      <trkpt lat="40.34682" lon="-1.029116">
        <ele>1068.780</ele>
        <time>2020-08-28T12:19:36Z</time>
      </trkpt>
      <trkpt lat="40.346806" lon="-1.029025">
        <ele>1068.812</ele>
        <time>2020-08-28T12:19:39Z</time>
      </trkpt>
      <trkpt lat="40.34681" lon="-1.028938">
        <ele>1068.980</ele>
        <time>2020-08-28T12:19:42Z</time>
      </trkpt>
      <trkpt lat="40.346802" lon="-1.028873">
        <ele>1069.147</ele>
        <time>2020-08-28T12:19:44Z</time>
      </trkpt>
      <trkpt lat="40.346789" lon="-1.028809">
        <ele>1069.345</ele>
        <time>2020-08-28T12:19:46Z</time>
      </trkpt>
      <trkpt lat="40.346786" lon="-1.028733">
        <ele>1069.465</ele>
        <time>2020-08-28T12:19:48Z</time>
      </trkpt>
      <trkpt lat="40.346788" lon="-1.028643">
        <ele>1069.631</ele>
        <time>2020-08-28T12:19:51Z</time>
      </trkpt>
      <trkpt lat="40.346786" lon="-1.028562">
        <ele>1069.761</ele>
        <time>2020-08-28T12:19:54Z</time>
      </trkpt>
      <trkpt lat="40.346781" lon="-1.028464">
        <ele>1069.907</ele>
        <time>2020-08-28T12:19:57Z</time>
      </trkpt>
      <trkpt lat="40.346772" lon="-1.028372">
        <ele>1070.008</ele>
        <time>2020-08-28T12:20:00Z</time>
      </trkpt>
      <trkpt lat="40.346761" lon="-1.028283">
        <ele>1070.138</ele>
        <time>2020-08-28T12:20:02Z</time>
      </trkpt>
      <trkpt lat="40.346743" lon="-1.028201">
        <ele>1070.278</ele>
        <time>2020-08-28T12:20:05Z</time>
      </trkpt>
      <trkpt lat="40.34672" lon="-1.028112">
        <ele>1070.320</ele>
        <time>2020-08-28T12:20:08Z</time>
      </trkpt>
      <trkpt lat="40.346716" lon="-1.028023">
        <ele>1070.552</ele>
        <time>2020-08-28T12:20:11Z</time>
      </trkpt>
      <trkpt lat="40.346716" lon="-1.027941">
        <ele>1070.670</ele>
        <time>2020-08-28T12:20:13Z</time>
      </trkpt>
      <trkpt lat="40.346719" lon="-1.027862">
        <ele>1070.737</ele>
        <time>2020-08-28T12:20:16Z</time>
      </trkpt>
      <trkpt lat="40.346712" lon="-1.027784">
        <ele>1070.935</ele>
        <time>2020-08-28T12:20:18Z</time>
      </trkpt>
      <trkpt lat="40.346713" lon="-1.027691">
        <ele>1071.235</ele>
        <time>2020-08-28T12:20:21Z</time>
      </trkpt>
      <trkpt lat="40.346707" lon="-1.02761">
        <ele>1071.483</ele>
        <time>2020-08-28T12:20:24Z</time>
      </trkpt>
      <trkpt lat="40.346695" lon="-1.027525">
        <ele>1071.625</ele>
        <time>2020-08-28T12:20:27Z</time>
      </trkpt>
      <trkpt lat="40.346698" lon="-1.02745">
        <ele>1071.717</ele>
        <time>2020-08-28T12:20:29Z</time>
      </trkpt>
      <trkpt lat="40.346719" lon="-1.027371">
        <ele>1071.808</ele>
        <time>2020-08-28T12:20:32Z</time>
      </trkpt>
      <trkpt lat="40.346703" lon="-1.027313">
        <ele>1071.853</ele>
        <time>2020-08-28T12:20:34Z</time>
      </trkpt>
      <trkpt lat="40.346677" lon="-1.027231">
        <ele>1071.713</ele>
        <time>2020-08-28T12:20:36Z</time>
      </trkpt>
      <trkpt lat="40.346657" lon="-1.027147">
        <ele>1071.625</ele>
        <time>2020-08-28T12:20:39Z</time>
      </trkpt>
      <trkpt lat="40.346655" lon="-1.027059">
        <ele>1071.987</ele>
        <time>2020-08-28T12:20:42Z</time>
      </trkpt>
      <trkpt lat="40.346647" lon="-1.026999">
        <ele>1072.135</ele>
        <time>2020-08-28T12:20:44Z</time>
      </trkpt>
      <trkpt lat="40.346622" lon="-1.026918">
        <ele>1072.222</ele>
        <time>2020-08-28T12:20:46Z</time>
      </trkpt>
      <trkpt lat="40.346611" lon="-1.026819">
        <ele>1072.490</ele>
        <time>2020-08-28T12:20:49Z</time>
      </trkpt>
      <trkpt lat="40.346603" lon="-1.026729">
        <ele>1072.680</ele>
        <time>2020-08-28T12:20:52Z</time>
      </trkpt>
      <trkpt lat="40.346596" lon="-1.026646">
        <ele>1072.716</ele>
        <time>2020-08-28T12:20:54Z</time>
      </trkpt>
      <trkpt lat="40.346598" lon="-1.026568">
        <ele>1073.076</ele>
        <time>2020-08-28T12:20:57Z</time>
      </trkpt>
      <trkpt lat="40.346585" lon="-1.02651">
        <ele>1073.213</ele>
        <time>2020-08-28T12:20:59Z</time>
      </trkpt>
      <trkpt lat="40.346555" lon="-1.026425">
        <ele>1073.408</ele>
        <time>2020-08-28T12:21:01Z</time>
      </trkpt>
      <trkpt lat="40.346554" lon="-1.026344">
        <ele>1073.566</ele>
        <time>2020-08-28T12:21:04Z</time>
      </trkpt>
      <trkpt lat="40.346555" lon="-1.026284">
        <ele>1073.696</ele>
        <time>2020-08-28T12:21:06Z</time>
      </trkpt>
      <trkpt lat="40.346553" lon="-1.02621">
        <ele>1073.868</ele>
        <time>2020-08-28T12:21:08Z</time>
      </trkpt>
      <trkpt lat="40.346551" lon="-1.026151">
        <ele>1073.940</ele>
        <time>2020-08-28T12:21:10Z</time>
      </trkpt>
      <trkpt lat="40.34655" lon="-1.02608">
        <ele>1074.028</ele>
        <time>2020-08-28T12:21:12Z</time>
      </trkpt>
      <trkpt lat="40.346545" lon="-1.026021">
        <ele>1074.125</ele>
        <time>2020-08-28T12:21:14Z</time>
      </trkpt>
      <trkpt lat="40.346526" lon="-1.025948">
        <ele>1074.263</ele>
        <time>2020-08-28T12:21:16Z</time>
      </trkpt>
      <trkpt lat="40.346524" lon="-1.025881">
        <ele>1074.343</ele>
        <time>2020-08-28T12:21:18Z</time>
      </trkpt>
      <trkpt lat="40.34651" lon="-1.025798">
        <ele>1074.486</ele>
        <time>2020-08-28T12:21:21Z</time>
      </trkpt>
      <trkpt lat="40.346491" lon="-1.025715">
        <ele>1074.560</ele>
        <time>2020-08-28T12:21:23Z</time>
      </trkpt>
      <trkpt lat="40.346465" lon="-1.025648">
        <ele>1074.726</ele>
        <time>2020-08-28T12:21:26Z</time>
      </trkpt>
      <trkpt lat="40.34646" lon="-1.025567">
        <ele>1074.908</ele>
        <time>2020-08-28T12:21:28Z</time>
      </trkpt>
      <trkpt lat="40.346466" lon="-1.025491">
        <ele>1074.963</ele>
        <time>2020-08-28T12:21:31Z</time>
      </trkpt>
      <trkpt lat="40.346446" lon="-1.025431">
        <ele>1075.073</ele>
        <time>2020-08-28T12:21:33Z</time>
      </trkpt>
      <trkpt lat="40.34642" lon="-1.025355">
        <ele>1075.245</ele>
        <time>2020-08-28T12:21:35Z</time>
      </trkpt>
      <trkpt lat="40.346394" lon="-1.025266">
        <ele>1075.357</ele>
        <time>2020-08-28T12:21:38Z</time>
      </trkpt>
      <trkpt lat="40.346365" lon="-1.02518">
        <ele>1075.345</ele>
        <time>2020-08-28T12:21:41Z</time>
      </trkpt>
      <trkpt lat="40.346352" lon="-1.025107">
        <ele>1075.452</ele>
        <time>2020-08-28T12:21:43Z</time>
      </trkpt>
      <trkpt lat="40.346321" lon="-1.025063">
        <ele>1075.470</ele>
        <time>2020-08-28T12:21:44Z</time>
      </trkpt>
      <trkpt lat="40.346298" lon="-1.025012">
        <ele>1075.580</ele>
        <time>2020-08-28T12:21:46Z</time>
      </trkpt>
      <trkpt lat="40.346291" lon="-1.024952">
        <ele>1075.778</ele>
        <time>2020-08-28T12:21:48Z</time>
      </trkpt>
      <trkpt lat="40.346286" lon="-1.024886">
        <ele>1075.933</ele>
        <time>2020-08-28T12:21:50Z</time>
      </trkpt>
      <trkpt lat="40.346288" lon="-1.024822">
        <ele>1076.126</ele>
        <time>2020-08-28T12:21:52Z</time>
      </trkpt>
      <trkpt lat="40.346266" lon="-1.02475">
        <ele>1076.208</ele>
        <time>2020-08-28T12:21:54Z</time>
      </trkpt>
      <trkpt lat="40.346241" lon="-1.024695">
        <ele>1076.372</ele>
        <time>2020-08-28T12:21:56Z</time>
      </trkpt>
      <trkpt lat="40.346212" lon="-1.024636">
        <ele>1076.412</ele>
        <time>2020-08-28T12:21:58Z</time>
      </trkpt>
      <trkpt lat="40.346192" lon="-1.024568">
        <ele>1076.574</ele>
        <time>2020-08-28T12:22:00Z</time>
      </trkpt>
      <trkpt lat="40.346171" lon="-1.024491">
        <ele>1076.726</ele>
        <time>2020-08-28T12:22:03Z</time>
      </trkpt>
      <trkpt lat="40.346137" lon="-1.024417">
        <ele>1076.924</ele>
        <time>2020-08-28T12:22:06Z</time>
      </trkpt>
      <trkpt lat="40.346105" lon="-1.024348">
        <ele>1077.061</ele>
        <time>2020-08-28T12:22:08Z</time>
      </trkpt>
      <trkpt lat="40.346051" lon="-1.024278">
        <ele>1077.279</ele>
        <time>2020-08-28T12:22:11Z</time>
      </trkpt>
      <trkpt lat="40.34602" lon="-1.024224">
        <ele>1077.479</ele>
        <time>2020-08-28T12:22:13Z</time>
      </trkpt>
      <trkpt lat="40.345975" lon="-1.024149">
        <ele>1077.621</ele>
        <time>2020-08-28T12:22:16Z</time>
      </trkpt>
      <trkpt lat="40.345934" lon="-1.024089">
        <ele>1077.741</ele>
        <time>2020-08-28T12:22:18Z</time>
      </trkpt>
      <trkpt lat="40.345888" lon="-1.024019">
        <ele>1077.805</ele>
        <time>2020-08-28T12:22:21Z</time>
      </trkpt>
      <trkpt lat="40.345836" lon="-1.023974">
        <ele>1078.108</ele>
        <time>2020-08-28T12:22:23Z</time>
      </trkpt>
      <trkpt lat="40.345797" lon="-1.023923">
        <ele>1078.237</ele>
        <time>2020-08-28T12:22:25Z</time>
      </trkpt>
      <trkpt lat="40.345776" lon="-1.023869">
        <ele>1078.327</ele>
        <time>2020-08-28T12:22:27Z</time>
      </trkpt>
      <trkpt lat="40.345728" lon="-1.023826">
        <ele>1078.479</ele>
        <time>2020-08-28T12:22:29Z</time>
      </trkpt>
      <trkpt lat="40.345655" lon="-1.023786">
        <ele>1078.551</ele>
        <time>2020-08-28T12:22:32Z</time>
      </trkpt>
      <trkpt lat="40.345591" lon="-1.023732">
        <ele>1078.599</ele>
        <time>2020-08-28T12:22:35Z</time>
      </trkpt>
      <trkpt lat="40.345547" lon="-1.023702">
        <ele>1078.656</ele>
        <time>2020-08-28T12:22:37Z</time>
      </trkpt>
      <trkpt lat="40.345502" lon="-1.023685">
        <ele>1078.754</ele>
        <time>2020-08-28T12:22:39Z</time>
      </trkpt>
      <trkpt lat="40.34545" lon="-1.023638">
        <ele>1078.844</ele>
        <time>2020-08-28T12:22:41Z</time>
      </trkpt>
      <trkpt lat="40.345401" lon="-1.023581">
        <ele>1078.936</ele>
        <time>2020-08-28T12:22:44Z</time>
      </trkpt>
      <trkpt lat="40.345354" lon="-1.02355">
        <ele>1079.017</ele>
        <time>2020-08-28T12:22:46Z</time>
      </trkpt>
      <trkpt lat="40.34531" lon="-1.023516">
        <ele>1079.218</ele>
        <time>2020-08-28T12:22:48Z</time>
      </trkpt>
      <trkpt lat="40.345265" lon="-1.023474">
        <ele>1079.308</ele>
        <time>2020-08-28T12:22:50Z</time>
      </trkpt>
      <trkpt lat="40.345216" lon="-1.023428">
        <ele>1079.418</ele>
        <time>2020-08-28T12:22:52Z</time>
      </trkpt>
      <trkpt lat="40.345158" lon="-1.023399">
        <ele>1079.598</ele>
        <time>2020-08-28T12:22:54Z</time>
      </trkpt>
      <trkpt lat="40.3451" lon="-1.02337">
        <ele>1079.790</ele>
        <time>2020-08-28T12:22:56Z</time>
      </trkpt>
      <trkpt lat="40.345041" lon="-1.023348">
        <ele>1079.962</ele>
        <time>2020-08-28T12:22:58Z</time>
      </trkpt>
      <trkpt lat="40.344993" lon="-1.023317">
        <ele>1080.120</ele>
        <time>2020-08-28T12:23:00Z</time>
      </trkpt>
      <trkpt lat="40.34493" lon="-1.023285">
        <ele>1080.337</ele>
        <time>2020-08-28T12:23:03Z</time>
      </trkpt>
      <trkpt lat="40.344859" lon="-1.023267">
        <ele>1080.455</ele>
        <time>2020-08-28T12:23:05Z</time>
      </trkpt>
      <trkpt lat="40.344798" lon="-1.023233">
        <ele>1080.485</ele>
        <time>2020-08-28T12:23:08Z</time>
      </trkpt>
      <trkpt lat="40.34476" lon="-1.023183">
        <ele>1080.488</ele>
        <time>2020-08-28T12:23:10Z</time>
      </trkpt>
      <trkpt lat="40.344705" lon="-1.023153">
        <ele>1080.524</ele>
        <time>2020-08-28T12:23:12Z</time>
      </trkpt>
      <trkpt lat="40.344659" lon="-1.023136">
        <ele>1080.826</ele>
        <time>2020-08-28T12:23:14Z</time>
      </trkpt>
      <trkpt lat="40.344606" lon="-1.023108">
        <ele>1080.908</ele>
        <time>2020-08-28T12:23:16Z</time>
      </trkpt>
      <trkpt lat="40.344563" lon="-1.023067">
        <ele>1081.093</ele>
        <time>2020-08-28T12:23:18Z</time>
      </trkpt>
      <trkpt lat="40.344514" lon="-1.023044">
        <ele>1081.163</ele>
        <time>2020-08-28T12:23:20Z</time>
      </trkpt>
      <trkpt lat="40.344454" lon="-1.023024">
        <ele>1081.275</ele>
        <time>2020-08-28T12:23:22Z</time>
      </trkpt>
      <trkpt lat="40.344402" lon="-1.022986">
        <ele>1081.227</ele>
        <time>2020-08-28T12:23:24Z</time>
      </trkpt>
      <trkpt lat="40.344353" lon="-1.022957">
        <ele>1081.265</ele>
        <time>2020-08-28T12:23:26Z</time>
      </trkpt>
      <trkpt lat="40.344304" lon="-1.022909">
        <ele>1081.222</ele>
        <time>2020-08-28T12:23:28Z</time>
      </trkpt>
      <trkpt lat="40.344258" lon="-1.022874">
        <ele>1081.330</ele>
        <time>2020-08-28T12:23:30Z</time>
      </trkpt>
      <trkpt lat="40.344214" lon="-1.022838">
        <ele>1081.380</ele>
        <time>2020-08-28T12:23:32Z</time>
      </trkpt>
      <trkpt lat="40.344164" lon="-1.022803">
        <ele>1081.394</ele>
        <time>2020-08-28T12:23:34Z</time>
      </trkpt>
      <trkpt lat="40.344126" lon="-1.022747">
        <ele>1081.357</ele>
        <time>2020-08-28T12:23:36Z</time>
      </trkpt>
      <trkpt lat="40.34408" lon="-1.022709">
        <ele>1081.422</ele>
        <time>2020-08-28T12:23:38Z</time>
      </trkpt>
      <trkpt lat="40.344043" lon="-1.022667">
        <ele>1081.408</ele>
        <time>2020-08-28T12:23:40Z</time>
      </trkpt>
      <trkpt lat="40.343997" lon="-1.022599">
        <ele>1081.394</ele>
        <time>2020-08-28T12:23:43Z</time>
      </trkpt>
      <trkpt lat="40.343961" lon="-1.022558">
        <ele>1081.264</ele>
        <time>2020-08-28T12:23:45Z</time>
      </trkpt>
      <trkpt lat="40.34387" lon="-1.022533">
        <ele>1081.256</ele>
        <time>2020-08-28T12:23:47Z</time>
      </trkpt>
      <trkpt lat="40.343819" lon="-1.022526">
        <ele>1081.218</ele>
        <time>2020-08-28T12:23:48Z</time>
      </trkpt>
      <trkpt lat="40.343758" lon="-1.022465">
        <ele>1081.216</ele>
        <time>2020-08-28T12:23:50Z</time>
      </trkpt>
      <trkpt lat="40.343679" lon="-1.022388">
        <ele>1081.373</ele>
        <time>2020-08-28T12:23:52Z</time>
      </trkpt>
      <trkpt lat="40.343621" lon="-1.022296">
        <ele>1081.361</ele>
        <time>2020-08-28T12:23:54Z</time>
      </trkpt>
      <trkpt lat="40.343574" lon="-1.022232">
        <ele>1081.441</ele>
        <time>2020-08-28T12:23:56Z</time>
      </trkpt>
      <trkpt lat="40.343528" lon="-1.022161">
        <ele>1081.493</ele>
        <time>2020-08-28T12:23:58Z</time>
      </trkpt>
      <trkpt lat="40.343485" lon="-1.022095">
        <ele>1081.465</ele>
        <time>2020-08-28T12:24:00Z</time>
      </trkpt>
      <trkpt lat="40.343455" lon="-1.022044">
        <ele>1081.321</ele>
        <time>2020-08-28T12:24:02Z</time>
      </trkpt>
      <trkpt lat="40.343405" lon="-1.02198">
        <ele>1081.208</ele>
        <time>2020-08-28T12:24:04Z</time>
      </trkpt>
      <trkpt lat="40.343358" lon="-1.02192">
        <ele>1081.244</ele>
        <time>2020-08-28T12:24:07Z</time>
      </trkpt>
      <trkpt lat="40.343335" lon="-1.021846">
        <ele>1081.384</ele>
        <time>2020-08-28T12:24:09Z</time>
      </trkpt>
      <trkpt lat="40.343324" lon="-1.021756">
        <ele>1081.486</ele>
        <time>2020-08-28T12:24:11Z</time>
      </trkpt>
      <trkpt lat="40.343305" lon="-1.021692">
        <ele>1081.318</ele>
        <time>2020-08-28T12:24:13Z</time>
      </trkpt>
      <trkpt lat="40.343262" lon="-1.021639">
        <ele>1081.396</ele>
        <time>2020-08-28T12:24:15Z</time>
      </trkpt>
      <trkpt lat="40.34323" lon="-1.021568">
        <ele>1081.433</ele>
        <time>2020-08-28T12:24:17Z</time>
      </trkpt>
      <trkpt lat="40.343203" lon="-1.021519">
        <ele>1081.511</ele>
        <time>2020-08-28T12:24:19Z</time>
      </trkpt>
      <trkpt lat="40.343198" lon="-1.021445">
        <ele>1081.521</ele>
        <time>2020-08-28T12:24:21Z</time>
      </trkpt>
      <trkpt lat="40.343175" lon="-1.021378">
        <ele>1081.519</ele>
        <time>2020-08-28T12:24:23Z</time>
      </trkpt>
      <trkpt lat="40.343155" lon="-1.021311">
        <ele>1080.409</ele>
        <time>2020-08-28T12:24:24Z</time>
      </trkpt>
      <trkpt lat="40.343127" lon="-1.021226">
        <ele>1080.219</ele>
        <time>2020-08-28T12:24:26Z</time>
      </trkpt>
      <trkpt lat="40.343105" lon="-1.021163">
        <ele>1080.808</ele>
        <time>2020-08-28T12:24:28Z</time>
      </trkpt>
      <trkpt lat="40.34308" lon="-1.021093">
        <ele>1081.846</ele>
        <time>2020-08-28T12:24:30Z</time>
      </trkpt>
      <trkpt lat="40.34307" lon="-1.021025">
        <ele>1081.826</ele>
        <time>2020-08-28T12:24:32Z</time>
      </trkpt>
      <trkpt lat="40.34304" lon="-1.020963">
        <ele>1081.078</ele>
        <time>2020-08-28T12:24:34Z</time>
      </trkpt>
      <trkpt lat="40.343017" lon="-1.020884">
        <ele>1081.110</ele>
        <time>2020-08-28T12:24:37Z</time>
      </trkpt>
      <trkpt lat="40.343003" lon="-1.020823">
        <ele>1081.168</ele>
        <time>2020-08-28T12:24:39Z</time>
      </trkpt>
      <trkpt lat="40.342979" lon="-1.020755">
        <ele>1081.265</ele>
        <time>2020-08-28T12:24:41Z</time>
      </trkpt>
      <trkpt lat="40.342951" lon="-1.020677">
        <ele>1081.253</ele>
        <time>2020-08-28T12:24:43Z</time>
      </trkpt>
      <trkpt lat="40.342933" lon="-1.020604">
        <ele>1081.283</ele>
        <time>2020-08-28T12:24:45Z</time>
      </trkpt>
      <trkpt lat="40.342914" lon="-1.020541">
        <ele>1081.287</ele>
        <time>2020-08-28T12:24:47Z</time>
      </trkpt>
      <trkpt lat="40.342897" lon="-1.020483">
        <ele>1081.242</ele>
        <time>2020-08-28T12:24:49Z</time>
      </trkpt>
      <trkpt lat="40.342877" lon="-1.020429">
        <ele>1081.226</ele>
        <time>2020-08-28T12:24:51Z</time>
      </trkpt>
      <trkpt lat="40.342859" lon="-1.020365">
        <ele>1081.208</ele>
        <time>2020-08-28T12:24:53Z</time>
      </trkpt>
      <trkpt lat="40.342836" lon="-1.020289">
        <ele>1081.273</ele>
        <time>2020-08-28T12:24:55Z</time>
      </trkpt>
      <trkpt lat="40.342816" lon="-1.020205">
        <ele>1081.253</ele>
        <time>2020-08-28T12:24:57Z</time>
      </trkpt>
      <trkpt lat="40.342792" lon="-1.020131">
        <ele>1081.275</ele>
        <time>2020-08-28T12:24:59Z</time>
      </trkpt>
      <trkpt lat="40.342764" lon="-1.020062">
        <ele>1081.237</ele>
        <time>2020-08-28T12:25:01Z</time>
      </trkpt>
      <trkpt lat="40.34274" lon="-1.019996">
        <ele>1081.255</ele>
        <time>2020-08-28T12:25:03Z</time>
      </trkpt>
      <trkpt lat="40.342731" lon="-1.019932">
        <ele>1081.262</ele>
        <time>2020-08-28T12:25:05Z</time>
      </trkpt>
      <trkpt lat="40.342702" lon="-1.019849">
        <ele>1081.210</ele>
        <time>2020-08-28T12:25:08Z</time>
      </trkpt>
      <trkpt lat="40.342679" lon="-1.019772">
        <ele>1081.220</ele>
        <time>2020-08-28T12:25:10Z</time>
      </trkpt>
      <trkpt lat="40.34266" lon="-1.019701">
        <ele>1081.322</ele>
        <time>2020-08-28T12:25:12Z</time>
      </trkpt>
      <trkpt lat="40.342632" lon="-1.019631">
        <ele>1081.362</ele>
        <time>2020-08-28T12:25:14Z</time>
      </trkpt>
      <trkpt lat="40.342606" lon="-1.019562">
        <ele>1081.308</ele>
        <time>2020-08-28T12:25:16Z</time>
      </trkpt>
      <trkpt lat="40.342583" lon="-1.0195">
        <ele>1081.208</ele>
        <time>2020-08-28T12:25:18Z</time>
      </trkpt>
      <trkpt lat="40.342566" lon="-1.019436">
        <ele>1081.217</ele>
        <time>2020-08-28T12:25:20Z</time>
      </trkpt>
      <trkpt lat="40.342549" lon="-1.019381">
        <ele>1081.437</ele>
        <time>2020-08-28T12:25:22Z</time>
      </trkpt>
      <trkpt lat="40.342524" lon="-1.019314">
        <ele>1081.569</ele>
        <time>2020-08-28T12:25:24Z</time>
      </trkpt>
      <trkpt lat="40.342502" lon="-1.019236">
        <ele>1081.641</ele>
        <time>2020-08-28T12:25:26Z</time>
      </trkpt>
      <trkpt lat="40.342477" lon="-1.01915">
        <ele>1081.689</ele>
        <time>2020-08-28T12:25:28Z</time>
      </trkpt>
      <trkpt lat="40.342454" lon="-1.01907">
        <ele>1081.676</ele>
        <time>2020-08-28T12:25:30Z</time>
      </trkpt>
      <trkpt lat="40.342437" lon="-1.018997">
        <ele>1081.614</ele>
        <time>2020-08-28T12:25:32Z</time>
      </trkpt>
      <trkpt lat="40.342418" lon="-1.018925">
        <ele>1081.624</ele>
        <time>2020-08-28T12:25:34Z</time>
      </trkpt>
      <trkpt lat="40.3424" lon="-1.018868">
        <ele>1081.692</ele>
        <time>2020-08-28T12:25:36Z</time>
      </trkpt>
      <trkpt lat="40.342378" lon="-1.018815">
        <ele>1081.573</ele>
        <time>2020-08-28T12:25:38Z</time>
      </trkpt>
      <trkpt lat="40.34236" lon="-1.018753">
        <ele>1081.520</ele>
        <time>2020-08-28T12:25:40Z</time>
      </trkpt>
      <trkpt lat="40.342342" lon="-1.01869">
        <ele>1081.608</ele>
        <time>2020-08-28T12:25:42Z</time>
      </trkpt>
      <trkpt lat="40.342321" lon="-1.018611">
        <ele>1081.614</ele>
        <time>2020-08-28T12:25:44Z</time>
      </trkpt>
      <trkpt lat="40.3423" lon="-1.018533">
        <ele>1081.794</ele>
        <time>2020-08-28T12:25:46Z</time>
      </trkpt>
      <trkpt lat="40.342274" lon="-1.018443">
        <ele>1081.876</ele>
        <time>2020-08-28T12:25:48Z</time>
      </trkpt>
      <trkpt lat="40.342244" lon="-1.018351">
        <ele>1081.968</ele>
        <time>2020-08-28T12:25:50Z</time>
      </trkpt>
      <trkpt lat="40.342224" lon="-1.018269">
        <ele>1081.956</ele>
        <time>2020-08-28T12:25:52Z</time>
      </trkpt>
      <trkpt lat="40.342198" lon="-1.01821">
        <ele>1082.083</ele>
        <time>2020-08-28T12:25:55Z</time>
      </trkpt>
      <trkpt lat="40.342197" lon="-1.018149">
        <ele>1082.111</ele>
        <time>2020-08-28T12:25:57Z</time>
      </trkpt>
      <trkpt lat="40.342173" lon="-1.018068">
        <ele>1082.111</ele>
        <time>2020-08-28T12:26:00Z</time>
      </trkpt>
      <trkpt lat="40.34214" lon="-1.017995">
        <ele>1082.135</ele>
        <time>2020-08-28T12:26:02Z</time>
      </trkpt>
      <trkpt lat="40.342111" lon="-1.017938">
        <ele>1082.186</ele>
        <time>2020-08-28T12:26:04Z</time>
      </trkpt>
      <trkpt lat="40.342083" lon="-1.017857">
        <ele>1082.114</ele>
        <time>2020-08-28T12:26:07Z</time>
      </trkpt>
      <trkpt lat="40.342057" lon="-1.017777">
        <ele>1082.108</ele>
        <time>2020-08-28T12:26:09Z</time>
      </trkpt>
      <trkpt lat="40.342026" lon="-1.017694">
        <ele>1082.148</ele>
        <time>2020-08-28T12:26:11Z</time>
      </trkpt>
      <trkpt lat="40.342002" lon="-1.017611">
        <ele>1082.138</ele>
        <time>2020-08-28T12:26:13Z</time>
      </trkpt>
      <trkpt lat="40.341993" lon="-1.01753">
        <ele>1082.140</ele>
        <time>2020-08-28T12:26:15Z</time>
      </trkpt>
      <trkpt lat="40.341979" lon="-1.017455">
        <ele>1082.122</ele>
        <time>2020-08-28T12:26:17Z</time>
      </trkpt>
      <trkpt lat="40.341963" lon="-1.017387">
        <ele>1082.060</ele>
        <time>2020-08-28T12:26:19Z</time>
      </trkpt>
      <trkpt lat="40.341938" lon="-1.017326">
        <ele>1081.967</ele>
        <time>2020-08-28T12:26:21Z</time>
      </trkpt>
      <trkpt lat="40.341921" lon="-1.017243">
        <ele>1082.085</ele>
        <time>2020-08-28T12:26:24Z</time>
      </trkpt>
      <trkpt lat="40.341902" lon="-1.017174">
        <ele>1082.165</ele>
        <time>2020-08-28T12:26:26Z</time>
      </trkpt>
      <trkpt lat="40.341881" lon="-1.017107">
        <ele>1082.261</ele>
        <time>2020-08-28T12:26:29Z</time>
      </trkpt>
      <trkpt lat="40.341869" lon="-1.016978">
        <ele>1082.221</ele>
        <time>2020-08-28T12:28:17Z</time>
      </trkpt>
      <trkpt lat="40.341846" lon="-1.016918">
        <ele>1082.413</ele>
        <time>2020-08-28T12:28:19Z</time>
      </trkpt>
      <trkpt lat="40.341823" lon="-1.016842">
        <ele>1082.708</ele>
        <time>2020-08-28T12:28:22Z</time>
      </trkpt>
      <trkpt lat="40.341804" lon="-1.016783">
        <ele>1082.831</ele>
        <time>2020-08-28T12:28:24Z</time>
      </trkpt>
      <trkpt lat="40.341784" lon="-1.016704">
        <ele>1082.961</ele>
        <time>2020-08-28T12:28:27Z</time>
      </trkpt>
      <trkpt lat="40.341773" lon="-1.016634">
        <ele>1083.133</ele>
        <time>2020-08-28T12:28:30Z</time>
      </trkpt>
      <trkpt lat="40.341756" lon="-1.016578">
        <ele>1083.285</ele>
        <time>2020-08-28T12:28:32Z</time>
      </trkpt>
      <trkpt lat="40.341737" lon="-1.016506">
        <ele>1083.213</ele>
        <time>2020-08-28T12:28:34Z</time>
      </trkpt>
      <trkpt lat="40.341709" lon="-1.016438">
        <ele>1083.390</ele>
        <time>2020-08-28T12:28:36Z</time>
      </trkpt>
      <trkpt lat="40.341688" lon="-1.016359">
        <ele>1083.488</ele>
        <time>2020-08-28T12:28:38Z</time>
      </trkpt>
      <trkpt lat="40.341669" lon="-1.016301">
        <ele>1083.598</ele>
        <time>2020-08-28T12:28:40Z</time>
      </trkpt>
      <trkpt lat="40.341648" lon="-1.016238">
        <ele>1083.697</ele>
        <time>2020-08-28T12:28:42Z</time>
      </trkpt>
      <trkpt lat="40.341629" lon="-1.01617">
        <ele>1083.723</ele>
        <time>2020-08-28T12:28:44Z</time>
      </trkpt>
      <trkpt lat="40.341605" lon="-1.0161">
        <ele>1083.725</ele>
        <time>2020-08-28T12:28:46Z</time>
      </trkpt>
      <trkpt lat="40.341577" lon="-1.016034">
        <ele>1083.708</ele>
        <time>2020-08-28T12:28:48Z</time>
      </trkpt>
      <trkpt lat="40.341551" lon="-1.015969">
        <ele>1083.894</ele>
        <time>2020-08-28T12:28:50Z</time>
      </trkpt>
      <trkpt lat="40.341524" lon="-1.015897">
        <ele>1084.034</ele>
        <time>2020-08-28T12:28:52Z</time>
      </trkpt>
      <trkpt lat="40.3415" lon="-1.015842">
        <ele>1084.036</ele>
        <time>2020-08-28T12:28:54Z</time>
      </trkpt>
      <trkpt lat="40.34148" lon="-1.015784">
        <ele>1084.128</ele>
        <time>2020-08-28T12:28:56Z</time>
      </trkpt>
      <trkpt lat="40.341453" lon="-1.015728">
        <ele>1084.346</ele>
        <time>2020-08-28T12:28:58Z</time>
      </trkpt>
      <trkpt lat="40.341424" lon="-1.015673">
        <ele>1084.433</ele>
        <time>2020-08-28T12:29:00Z</time>
      </trkpt>
      <trkpt lat="40.341391" lon="-1.015615">
        <ele>1084.481</ele>
        <time>2020-08-28T12:29:02Z</time>
      </trkpt>
      <trkpt lat="40.341358" lon="-1.015558">
        <ele>1084.531</ele>
        <time>2020-08-28T12:29:04Z</time>
      </trkpt>
      <trkpt lat="40.341322" lon="-1.015504">
        <ele>1084.789</ele>
        <time>2020-08-28T12:29:06Z</time>
      </trkpt>
      <trkpt lat="40.341284" lon="-1.015446">
        <ele>1084.806</ele>
        <time>2020-08-28T12:29:08Z</time>
      </trkpt>
      <trkpt lat="40.341251" lon="-1.015397">
        <ele>1084.926</ele>
        <time>2020-08-28T12:29:10Z</time>
      </trkpt>
      <trkpt lat="40.341214" lon="-1.01535">
        <ele>1085.008</ele>
        <time>2020-08-28T12:29:12Z</time>
      </trkpt>
      <trkpt lat="40.341174" lon="-1.015305">
        <ele>1085.243</ele>
        <time>2020-08-28T12:29:14Z</time>
      </trkpt>
      <trkpt lat="40.341137" lon="-1.015267">
        <ele>1085.533</ele>
        <time>2020-08-28T12:29:16Z</time>
      </trkpt>
      <trkpt lat="40.341098" lon="-1.015218">
        <ele>1085.785</ele>
        <time>2020-08-28T12:29:18Z</time>
      </trkpt>
      <trkpt lat="40.341058" lon="-1.01518">
        <ele>1085.777</ele>
        <time>2020-08-28T12:29:20Z</time>
      </trkpt>
      <trkpt lat="40.34102" lon="-1.015135">
        <ele>1085.745</ele>
        <time>2020-08-28T12:29:22Z</time>
      </trkpt>
      <trkpt lat="40.340977" lon="-1.015087">
        <ele>1085.812</ele>
        <time>2020-08-28T12:29:24Z</time>
      </trkpt>
      <trkpt lat="40.340939" lon="-1.015042">
        <ele>1086.020</ele>
        <time>2020-08-28T12:29:26Z</time>
      </trkpt>
      <trkpt lat="40.3409" lon="-1.015">
        <ele>1086.240</ele>
        <time>2020-08-28T12:29:28Z</time>
      </trkpt>
      <trkpt lat="40.340864" lon="-1.014951">
        <ele>1086.213</ele>
        <time>2020-08-28T12:29:30Z</time>
      </trkpt>
      <trkpt lat="40.340825" lon="-1.014908">
        <ele>1086.343</ele>
        <time>2020-08-28T12:29:33Z</time>
      </trkpt>
      <trkpt lat="40.340782" lon="-1.014853">
        <ele>1086.407</ele>
        <time>2020-08-28T12:29:35Z</time>
      </trkpt>
      <trkpt lat="40.340739" lon="-1.014797">
        <ele>1086.408</ele>
        <time>2020-08-28T12:29:37Z</time>
      </trkpt>
      <trkpt lat="40.3407" lon="-1.014749">
        <ele>1086.526</ele>
        <time>2020-08-28T12:29:39Z</time>
      </trkpt>
      <trkpt lat="40.340668" lon="-1.014705">
        <ele>1086.816</ele>
        <time>2020-08-28T12:29:41Z</time>
      </trkpt>
      <trkpt lat="40.340622" lon="-1.014656">
        <ele>1086.888</ele>
        <time>2020-08-28T12:29:43Z</time>
      </trkpt>
      <trkpt lat="40.340578" lon="-1.014611">
        <ele>1086.960</ele>
        <time>2020-08-28T12:29:45Z</time>
      </trkpt>
      <trkpt lat="40.340541" lon="-1.014566">
        <ele>1087.188</ele>
        <time>2020-08-28T12:29:47Z</time>
      </trkpt>
      <trkpt lat="40.340498" lon="-1.014525">
        <ele>1087.245</ele>
        <time>2020-08-28T12:29:49Z</time>
      </trkpt>
      <trkpt lat="40.340452" lon="-1.014483">
        <ele>1087.483</ele>
        <time>2020-08-28T12:29:53Z</time>
      </trkpt>
      <trkpt lat="40.340413" lon="-1.014436">
        <ele>1087.783</ele>
        <time>2020-08-28T12:29:56Z</time>
      </trkpt>
      <trkpt lat="40.340376" lon="-1.014389">
        <ele>1087.881</ele>
        <time>2020-08-28T12:29:59Z</time>
      </trkpt>
      <trkpt lat="40.340331" lon="-1.01434">
        <ele>1088.061</ele>
        <time>2020-08-28T12:30:02Z</time>
      </trkpt>
      <trkpt lat="40.34029" lon="-1.014298">
        <ele>1088.217</ele>
        <time>2020-08-28T12:30:05Z</time>
      </trkpt>
      <trkpt lat="40.340244" lon="-1.014238">
        <ele>1088.508</ele>
        <time>2020-08-28T12:30:08Z</time>
      </trkpt>
      <trkpt lat="40.340201" lon="-1.014189">
        <ele>1088.643</ele>
        <time>2020-08-28T12:30:11Z</time>
      </trkpt>
      <trkpt lat="40.34015" lon="-1.014132">
        <ele>1088.693</ele>
        <time>2020-08-28T12:30:14Z</time>
      </trkpt>
      <trkpt lat="40.340114" lon="-1.014089">
        <ele>1088.855</ele>
        <time>2020-08-28T12:30:16Z</time>
      </trkpt>
      <trkpt lat="40.34007" lon="-1.014035">
        <ele>1089.277</ele>
        <time>2020-08-28T12:30:19Z</time>
      </trkpt>
      <trkpt lat="40.340034" lon="-1.013996">
        <ele>1089.325</ele>
        <time>2020-08-28T12:30:21Z</time>
      </trkpt>
      <trkpt lat="40.33998" lon="-1.01394">
        <ele>1089.552</ele>
        <time>2020-08-28T12:30:24Z</time>
      </trkpt>
      <trkpt lat="40.339942" lon="-1.013899">
        <ele>1089.670</ele>
        <time>2020-08-28T12:30:26Z</time>
      </trkpt>
      <trkpt lat="40.339895" lon="-1.013838">
        <ele>1089.690</ele>
        <time>2020-08-28T12:30:29Z</time>
      </trkpt>
      <trkpt lat="40.339858" lon="-1.013799">
        <ele>1089.624</ele>
        <time>2020-08-28T12:30:31Z</time>
      </trkpt>
      <trkpt lat="40.339809" lon="-1.013743">
        <ele>1089.704</ele>
        <time>2020-08-28T12:30:33Z</time>
      </trkpt>
      <trkpt lat="40.339773" lon="-1.01369">
        <ele>1089.814</ele>
        <time>2020-08-28T12:30:36Z</time>
      </trkpt>
      <trkpt lat="40.339724" lon="-1.013647">
        <ele>1089.808</ele>
        <time>2020-08-28T12:30:38Z</time>
      </trkpt>
      <trkpt lat="40.339679" lon="-1.013623">
        <ele>1089.887</ele>
        <time>2020-08-28T12:30:40Z</time>
      </trkpt>
      <trkpt lat="40.339635" lon="-1.013592">
        <ele>1089.937</ele>
        <time>2020-08-28T12:30:42Z</time>
      </trkpt>
      <trkpt lat="40.339574" lon="-1.013533">
        <ele>1090.159</ele>
        <time>2020-08-28T12:30:45Z</time>
      </trkpt>
      <trkpt lat="40.339546" lon="-1.01348">
        <ele>1090.461</ele>
        <time>2020-08-28T12:30:47Z</time>
      </trkpt>
      <trkpt lat="40.339513" lon="-1.01343">
        <ele>1090.689</ele>
        <time>2020-08-28T12:30:49Z</time>
      </trkpt>
      <trkpt lat="40.339455" lon="-1.013349">
        <ele>1090.856</ele>
        <time>2020-08-28T12:30:51Z</time>
      </trkpt>
      <trkpt lat="40.33941" lon="-1.013301">
        <ele>1090.954</ele>
        <time>2020-08-28T12:30:54Z</time>
      </trkpt>
      <trkpt lat="40.339367" lon="-1.013247">
        <ele>1091.014</ele>
        <time>2020-08-28T12:30:56Z</time>
      </trkpt>
      <trkpt lat="40.339323" lon="-1.013194">
        <ele>1091.155</ele>
        <time>2020-08-28T12:30:58Z</time>
      </trkpt>
      <trkpt lat="40.339283" lon="-1.013144">
        <ele>1091.307</ele>
        <time>2020-08-28T12:31:00Z</time>
      </trkpt>
      <trkpt lat="40.339245" lon="-1.013094">
        <ele>1091.517</ele>
        <time>2020-08-28T12:31:02Z</time>
      </trkpt>
      <trkpt lat="40.339211" lon="-1.013043">
        <ele>1091.608</ele>
        <time>2020-08-28T12:31:04Z</time>
      </trkpt>
      <trkpt lat="40.339175" lon="-1.012993">
        <ele>1091.730</ele>
        <time>2020-08-28T12:31:06Z</time>
      </trkpt>
      <trkpt lat="40.339114" lon="-1.012916">
        <ele>1091.870</ele>
        <time>2020-08-28T12:31:08Z</time>
      </trkpt>
      <trkpt lat="40.339077" lon="-1.012875">
        <ele>1091.982</ele>
        <time>2020-08-28T12:31:09Z</time>
      </trkpt>
      <trkpt lat="40.339045" lon="-1.012827">
        <ele>1092.174</ele>
        <time>2020-08-28T12:31:12Z</time>
      </trkpt>
      <trkpt lat="40.339001" lon="-1.012782">
        <ele>1092.222</ele>
        <time>2020-08-28T12:31:14Z</time>
      </trkpt>
      <trkpt lat="40.338963" lon="-1.012731">
        <ele>1092.469</ele>
        <time>2020-08-28T12:31:16Z</time>
      </trkpt>
      <trkpt lat="40.338927" lon="-1.01268">
        <ele>1092.517</ele>
        <time>2020-08-28T12:31:18Z</time>
      </trkpt>
      <trkpt lat="40.338888" lon="-1.012628">
        <ele>1092.617</ele>
        <time>2020-08-28T12:31:20Z</time>
      </trkpt>
      <trkpt lat="40.338834" lon="-1.012577">
        <ele>1092.629</ele>
        <time>2020-08-28T12:31:22Z</time>
      </trkpt>
      <trkpt lat="40.338775" lon="-1.012527">
        <ele>1092.700</ele>
        <time>2020-08-28T12:31:24Z</time>
      </trkpt>
      <trkpt lat="40.338714" lon="-1.012471">
        <ele>1092.920</ele>
        <time>2020-08-28T12:31:26Z</time>
      </trkpt>
      <trkpt lat="40.33867" lon="-1.012441">
        <ele>1093.008</ele>
        <time>2020-08-28T12:31:27Z</time>
      </trkpt>
      <trkpt lat="40.338623" lon="-1.012384">
        <ele>1093.227</ele>
        <time>2020-08-28T12:31:29Z</time>
      </trkpt>
      <trkpt lat="40.338551" lon="-1.012335">
        <ele>1093.217</ele>
        <time>2020-08-28T12:31:31Z</time>
      </trkpt>
      <trkpt lat="40.33849" lon="-1.012283">
        <ele>1093.219</ele>
        <time>2020-08-28T12:31:33Z</time>
      </trkpt>
      <trkpt lat="40.338437" lon="-1.01222">
        <ele>1093.371</ele>
        <time>2020-08-28T12:31:35Z</time>
      </trkpt>
      <trkpt lat="40.338378" lon="-1.012154">
        <ele>1093.429</ele>
        <time>2020-08-28T12:31:37Z</time>
      </trkpt>
      <trkpt lat="40.338336" lon="-1.012075">
        <ele>1093.786</ele>
        <time>2020-08-28T12:31:39Z</time>
      </trkpt>
      <trkpt lat="40.338287" lon="-1.012011">
        <ele>1093.934</ele>
        <time>2020-08-28T12:31:41Z</time>
      </trkpt>
      <trkpt lat="40.338236" lon="-1.011965">
        <ele>1094.134</ele>
        <time>2020-08-28T12:31:43Z</time>
      </trkpt>
      <trkpt lat="40.338191" lon="-1.011905">
        <ele>1094.345</ele>
        <time>2020-08-28T12:31:45Z</time>
      </trkpt>
      <trkpt lat="40.338152" lon="-1.011831">
        <ele>1094.447</ele>
        <time>2020-08-28T12:31:47Z</time>
      </trkpt>
      <trkpt lat="40.338116" lon="-1.011761">
        <ele>1094.611</ele>
        <time>2020-08-28T12:31:49Z</time>
      </trkpt>
      <trkpt lat="40.338063" lon="-1.011699">
        <ele>1094.708</ele>
        <time>2020-08-28T12:31:51Z</time>
      </trkpt>
      <trkpt lat="40.338017" lon="-1.011635">
        <ele>1094.989</ele>
        <time>2020-08-28T12:31:53Z</time>
      </trkpt>
      <trkpt lat="40.337969" lon="-1.011578">
        <ele>1095.069</ele>
        <time>2020-08-28T12:31:55Z</time>
      </trkpt>
      <trkpt lat="40.337916" lon="-1.011512">
        <ele>1095.341</ele>
        <time>2020-08-28T12:31:58Z</time>
      </trkpt>
      <trkpt lat="40.337875" lon="-1.011455">
        <ele>1095.673</ele>
        <time>2020-08-28T12:32:00Z</time>
      </trkpt>
      <trkpt lat="40.337833" lon="-1.0114">
        <ele>1095.931</ele>
        <time>2020-08-28T12:32:02Z</time>
      </trkpt>
      <trkpt lat="40.337799" lon="-1.011361">
        <ele>1096.078</ele>
        <time>2020-08-28T12:32:04Z</time>
      </trkpt>
      <trkpt lat="40.337754" lon="-1.011308">
        <ele>1096.066</ele>
        <time>2020-08-28T12:32:06Z</time>
      </trkpt>
      <trkpt lat="40.337711" lon="-1.011259">
        <ele>1096.116</ele>
        <time>2020-08-28T12:32:08Z</time>
      </trkpt>
      <trkpt lat="40.337671" lon="-1.011199">
        <ele>1096.235</ele>
        <time>2020-08-28T12:32:10Z</time>
      </trkpt>
      <trkpt lat="40.337618" lon="-1.011136">
        <ele>1096.386</ele>
        <time>2020-08-28T12:32:13Z</time>
      </trkpt>
      <trkpt lat="40.337578" lon="-1.011099">
        <ele>1096.414</ele>
        <time>2020-08-28T12:32:15Z</time>
      </trkpt>
      <trkpt lat="40.337541" lon="-1.01106">
        <ele>1096.708</ele>
        <time>2020-08-28T12:32:17Z</time>
      </trkpt>
      <trkpt lat="40.337493" lon="-1.011009">
        <ele>1096.858</ele>
        <time>2020-08-28T12:32:19Z</time>
      </trkpt>
      <trkpt lat="40.337446" lon="-1.010968">
        <ele>1096.918</ele>
        <time>2020-08-28T12:32:21Z</time>
      </trkpt>
      <trkpt lat="40.337398" lon="-1.01093">
        <ele>1097.170</ele>
        <time>2020-08-28T12:32:23Z</time>
      </trkpt>
      <trkpt lat="40.337353" lon="-1.010902">
        <ele>1097.672</ele>
        <time>2020-08-28T12:32:25Z</time>
      </trkpt>
      <trkpt lat="40.337303" lon="-1.010866">
        <ele>1098.140</ele>
        <time>2020-08-28T12:32:27Z</time>
      </trkpt>
      <trkpt lat="40.337252" lon="-1.010833">
        <ele>1098.597</ele>
        <time>2020-08-28T12:32:29Z</time>
      </trkpt>
      <trkpt lat="40.337201" lon="-1.010792">
        <ele>1098.675</ele>
        <time>2020-08-28T12:32:31Z</time>
      </trkpt>
      <trkpt lat="40.337147" lon="-1.010756">
        <ele>1098.795</ele>
        <time>2020-08-28T12:32:33Z</time>
      </trkpt>
      <trkpt lat="40.337093" lon="-1.01072">
        <ele>1098.834</ele>
        <time>2020-08-28T12:32:35Z</time>
      </trkpt>
      <trkpt lat="40.337035" lon="-1.01069">
        <ele>1099.155</ele>
        <time>2020-08-28T12:32:37Z</time>
      </trkpt>
      <trkpt lat="40.336978" lon="-1.010663">
        <ele>1099.110</ele>
        <time>2020-08-28T12:32:39Z</time>
      </trkpt>
      <trkpt lat="40.336916" lon="-1.010635">
        <ele>1099.008</ele>
        <time>2020-08-28T12:32:41Z</time>
      </trkpt>
      <trkpt lat="40.336864" lon="-1.010609">
        <ele>1098.998</ele>
        <time>2020-08-28T12:32:43Z</time>
      </trkpt>
      <trkpt lat="40.33681" lon="-1.010587">
        <ele>1098.978</ele>
        <time>2020-08-28T12:32:45Z</time>
      </trkpt>
      <trkpt lat="40.336757" lon="-1.010566">
        <ele>1099.020</ele>
        <time>2020-08-28T12:32:47Z</time>
      </trkpt>
      <trkpt lat="40.336698" lon="-1.010554">
        <ele>1099.132</ele>
        <time>2020-08-28T12:32:49Z</time>
      </trkpt>
      <trkpt lat="40.336645" lon="-1.010543">
        <ele>1099.120</ele>
        <time>2020-08-28T12:32:51Z</time>
      </trkpt>
      <trkpt lat="40.336589" lon="-1.010529">
        <ele>1099.257</ele>
        <time>2020-08-28T12:32:53Z</time>
      </trkpt>
      <trkpt lat="40.336533" lon="-1.010522">
        <ele>1099.335</ele>
        <time>2020-08-28T12:32:55Z</time>
      </trkpt>
      <trkpt lat="40.336475" lon="-1.010511">
        <ele>1099.485</ele>
        <time>2020-08-28T12:32:57Z</time>
      </trkpt>
      <trkpt lat="40.336412" lon="-1.010503">
        <ele>1099.633</ele>
        <time>2020-08-28T12:32:59Z</time>
      </trkpt>
      <trkpt lat="40.336353" lon="-1.010496">
        <ele>1099.823</ele>
        <time>2020-08-28T12:33:01Z</time>
      </trkpt>
      <trkpt lat="40.336296" lon="-1.010488">
        <ele>1100.015</ele>
        <time>2020-08-28T12:33:03Z</time>
      </trkpt>
      <trkpt lat="40.336237" lon="-1.010483">
        <ele>1100.008</ele>
        <time>2020-08-28T12:33:05Z</time>
      </trkpt>
      <trkpt lat="40.33618" lon="-1.01048">
        <ele>1100.158</ele>
        <time>2020-08-28T12:33:07Z</time>
      </trkpt>
      <trkpt lat="40.336117" lon="-1.010478">
        <ele>1100.298</ele>
        <time>2020-08-28T12:33:09Z</time>
      </trkpt>
      <trkpt lat="40.336057" lon="-1.010489">
        <ele>1100.330</ele>
        <time>2020-08-28T12:33:11Z</time>
      </trkpt>
      <trkpt lat="40.335995" lon="-1.010505">
        <ele>1100.482</ele>
        <time>2020-08-28T12:33:13Z</time>
      </trkpt>
      <trkpt lat="40.335934" lon="-1.010524">
        <ele>1100.510</ele>
        <time>2020-08-28T12:33:15Z</time>
      </trkpt>
      <trkpt lat="40.33586" lon="-1.010535">
        <ele>1100.657</ele>
        <time>2020-08-28T12:33:17Z</time>
      </trkpt>
      <trkpt lat="40.335791" lon="-1.010547">
        <ele>1100.845</ele>
        <time>2020-08-28T12:33:19Z</time>
      </trkpt>
      <trkpt lat="40.335727" lon="-1.010561">
        <ele>1100.945</ele>
        <time>2020-08-28T12:33:21Z</time>
      </trkpt>
      <trkpt lat="40.335658" lon="-1.010573">
        <ele>1101.027</ele>
        <time>2020-08-28T12:33:23Z</time>
      </trkpt>
      <trkpt lat="40.335593" lon="-1.010595">
        <ele>1101.168</ele>
        <time>2020-08-28T12:33:25Z</time>
      </trkpt>
      <trkpt lat="40.33553" lon="-1.010616">
        <ele>1101.314</ele>
        <time>2020-08-28T12:33:27Z</time>
      </trkpt>
      <trkpt lat="40.335471" lon="-1.010633">
        <ele>1101.508</ele>
        <time>2020-08-28T12:33:29Z</time>
      </trkpt>
      <trkpt lat="40.335411" lon="-1.010643">
        <ele>1101.797</ele>
        <time>2020-08-28T12:33:31Z</time>
      </trkpt>
      <trkpt lat="40.335357" lon="-1.010652">
        <ele>1101.867</ele>
        <time>2020-08-28T12:33:33Z</time>
      </trkpt>
      <trkpt lat="40.335302" lon="-1.010662">
        <ele>1102.029</ele>
        <time>2020-08-28T12:33:35Z</time>
      </trkpt>
      <trkpt lat="40.335237" lon="-1.010669">
        <ele>1102.231</ele>
        <time>2020-08-28T12:33:37Z</time>
      </trkpt>
      <trkpt lat="40.335172" lon="-1.010681">
        <ele>1102.319</ele>
        <time>2020-08-28T12:33:39Z</time>
      </trkpt>
      <trkpt lat="40.335116" lon="-1.010699">
        <ele>1102.476</ele>
        <time>2020-08-28T12:33:41Z</time>
      </trkpt>
      <trkpt lat="40.335056" lon="-1.010706">
        <ele>1102.514</ele>
        <time>2020-08-28T12:33:43Z</time>
      </trkpt>
      <trkpt lat="40.335011" lon="-1.010716">
        <ele>1102.514</ele>
        <time>2020-08-28T12:33:45Z</time>
      </trkpt>
      <trkpt lat="40.334962" lon="-1.010727">
        <ele>1102.532</ele>
        <time>2020-08-28T12:33:47Z</time>
      </trkpt>
      <trkpt lat="40.334909" lon="-1.010738">
        <ele>1102.592</ele>
        <time>2020-08-28T12:33:49Z</time>
      </trkpt>
      <trkpt lat="40.33485" lon="-1.010753">
        <ele>1102.611</ele>
        <time>2020-08-28T12:33:51Z</time>
      </trkpt>
      <trkpt lat="40.334796" lon="-1.010757">
        <ele>1102.808</ele>
        <time>2020-08-28T12:33:53Z</time>
      </trkpt>
      <trkpt lat="40.334749" lon="-1.010768">
        <ele>1103.128</ele>
        <time>2020-08-28T12:33:55Z</time>
      </trkpt>
      <trkpt lat="40.334701" lon="-1.010774">
        <ele>1103.348</ele>
        <time>2020-08-28T12:33:57Z</time>
      </trkpt>
      <trkpt lat="40.334653" lon="-1.010786">
        <ele>1103.370</ele>
        <time>2020-08-28T12:33:59Z</time>
      </trkpt>
      <trkpt lat="40.334607" lon="-1.010801">
        <ele>1103.342</ele>
        <time>2020-08-28T12:34:01Z</time>
      </trkpt>
      <trkpt lat="40.334548" lon="-1.010812">
        <ele>1103.470</ele>
        <time>2020-08-28T12:34:03Z</time>
      </trkpt>
      <trkpt lat="40.334496" lon="-1.010816">
        <ele>1103.677</ele>
        <time>2020-08-28T12:34:05Z</time>
      </trkpt>
      <trkpt lat="40.334447" lon="-1.010832">
        <ele>1103.795</ele>
        <time>2020-08-28T12:34:07Z</time>
      </trkpt>
      <trkpt lat="40.334393" lon="-1.010848">
        <ele>1103.895</ele>
        <time>2020-08-28T12:34:09Z</time>
      </trkpt>
      <trkpt lat="40.33434" lon="-1.010853">
        <ele>1103.984</ele>
        <time>2020-08-28T12:34:11Z</time>
      </trkpt>
      <trkpt lat="40.334288" lon="-1.010867">
        <ele>1104.107</ele>
        <time>2020-08-28T12:34:13Z</time>
      </trkpt>
      <trkpt lat="40.334235" lon="-1.010869">
        <ele>1104.217</ele>
        <time>2020-08-28T12:34:15Z</time>
      </trkpt>
      <trkpt lat="40.334182" lon="-1.010878">
        <ele>1104.308</ele>
        <time>2020-08-28T12:34:17Z</time>
      </trkpt>
      <trkpt lat="40.334128" lon="-1.010881">
        <ele>1104.383</ele>
        <time>2020-08-28T12:34:19Z</time>
      </trkpt>
      <trkpt lat="40.334066" lon="-1.010879">
        <ele>1104.453</ele>
        <time>2020-08-28T12:34:21Z</time>
      </trkpt>
      <trkpt lat="40.334011" lon="-1.010885">
        <ele>1104.555</ele>
        <time>2020-08-28T12:34:23Z</time>
      </trkpt>
      <trkpt lat="40.333961" lon="-1.010889">
        <ele>1104.637</ele>
        <time>2020-08-28T12:34:25Z</time>
      </trkpt>
      <trkpt lat="40.333914" lon="-1.010897">
        <ele>1104.735</ele>
        <time>2020-08-28T12:34:27Z</time>
      </trkpt>
      <trkpt lat="40.333866" lon="-1.010904">
        <ele>1104.962</ele>
        <time>2020-08-28T12:34:29Z</time>
      </trkpt>
      <trkpt lat="40.333817" lon="-1.010915">
        <ele>1105.260</ele>
        <time>2020-08-28T12:34:31Z</time>
      </trkpt>
      <trkpt lat="40.333767" lon="-1.010922">
        <ele>1105.470</ele>
        <time>2020-08-28T12:34:33Z</time>
      </trkpt>
      <trkpt lat="40.333718" lon="-1.010932">
        <ele>1105.684</ele>
        <time>2020-08-28T12:34:35Z</time>
      </trkpt>
      <trkpt lat="40.333669" lon="-1.010933">
        <ele>1105.707</ele>
        <time>2020-08-28T12:34:37Z</time>
      </trkpt>
      <trkpt lat="40.333603" lon="-1.010946">
        <ele>1105.717</ele>
        <time>2020-08-28T12:34:39Z</time>
      </trkpt>
      <trkpt lat="40.333545" lon="-1.010952">
        <ele>1105.808</ele>
        <time>2020-08-28T12:34:41Z</time>
      </trkpt>
      <trkpt lat="40.333493" lon="-1.010951">
        <ele>1106.053</ele>
        <time>2020-08-28T12:34:43Z</time>
      </trkpt>
      <trkpt lat="40.33344" lon="-1.010935">
        <ele>1106.223</ele>
        <time>2020-08-28T12:34:45Z</time>
      </trkpt>
      <trkpt lat="40.333383" lon="-1.010936">
        <ele>1106.415</ele>
        <time>2020-08-28T12:34:47Z</time>
      </trkpt>
      <trkpt lat="40.333325" lon="-1.010928">
        <ele>1106.767</ele>
        <time>2020-08-28T12:34:49Z</time>
      </trkpt>
      <trkpt lat="40.333272" lon="-1.010913">
        <ele>1106.895</ele>
        <time>2020-08-28T12:34:51Z</time>
      </trkpt>
      <trkpt lat="40.33322" lon="-1.010907">
        <ele>1106.952</ele>
        <time>2020-08-28T12:34:53Z</time>
      </trkpt>
      <trkpt lat="40.333165" lon="-1.01091">
        <ele>1107.050</ele>
        <time>2020-08-28T12:34:55Z</time>
      </trkpt>
      <trkpt lat="40.333108" lon="-1.010904">
        <ele>1107.070</ele>
        <time>2020-08-28T12:34:57Z</time>
      </trkpt>
      <trkpt lat="40.333044" lon="-1.010893">
        <ele>1107.088</ele>
        <time>2020-08-28T12:34:59Z</time>
      </trkpt>
      <trkpt lat="40.332989" lon="-1.010882">
        <ele>1107.124</ele>
        <time>2020-08-28T12:35:01Z</time>
      </trkpt>
      <trkpt lat="40.332932" lon="-1.010876">
        <ele>1107.226</ele>
        <time>2020-08-28T12:35:03Z</time>
      </trkpt>
      <trkpt lat="40.332875" lon="-1.01086">
        <ele>1107.308</ele>
        <time>2020-08-28T12:35:05Z</time>
      </trkpt>
      <trkpt lat="40.332821" lon="-1.010843">
        <ele>1107.453</ele>
        <time>2020-08-28T12:35:07Z</time>
      </trkpt>
      <trkpt lat="40.332766" lon="-1.01083">
        <ele>1107.543</ele>
        <time>2020-08-28T12:35:09Z</time>
      </trkpt>
      <trkpt lat="40.332712" lon="-1.010818">
        <ele>1107.655</ele>
        <time>2020-08-28T12:35:11Z</time>
      </trkpt>
      <trkpt lat="40.332661" lon="-1.010807">
        <ele>1107.787</ele>
        <time>2020-08-28T12:35:13Z</time>
      </trkpt>
      <trkpt lat="40.3326" lon="-1.010791">
        <ele>1107.825</ele>
        <time>2020-08-28T12:35:15Z</time>
      </trkpt>
      <trkpt lat="40.332547" lon="-1.010776">
        <ele>1107.992</ele>
        <time>2020-08-28T12:35:17Z</time>
      </trkpt>
      <trkpt lat="40.332498" lon="-1.010765">
        <ele>1107.960</ele>
        <time>2020-08-28T12:35:19Z</time>
      </trkpt>
      <trkpt lat="40.332447" lon="-1.010742">
        <ele>1108.130</ele>
        <time>2020-08-28T12:35:21Z</time>
      </trkpt>
      <trkpt lat="40.332394" lon="-1.010727">
        <ele>1108.473</ele>
        <time>2020-08-28T12:35:23Z</time>
      </trkpt>
      <trkpt lat="40.33234" lon="-1.010695">
        <ele>1108.585</ele>
        <time>2020-08-28T12:35:25Z</time>
      </trkpt>
      <trkpt lat="40.332286" lon="-1.01068">
        <ele>1108.613</ele>
        <time>2020-08-28T12:35:27Z</time>
      </trkpt>
      <trkpt lat="40.332227" lon="-1.010661">
        <ele>1108.708</ele>
        <time>2020-08-28T12:35:29Z</time>
      </trkpt>
      <trkpt lat="40.332175" lon="-1.010634">
        <ele>1108.962</ele>
        <time>2020-08-28T12:35:31Z</time>
      </trkpt>
      <trkpt lat="40.332115" lon="-1.01061">
        <ele>1109.092</ele>
        <time>2020-08-28T12:35:33Z</time>
      </trkpt>
      <trkpt lat="40.332059" lon="-1.010581">
        <ele>1109.184</ele>
        <time>2020-08-28T12:35:35Z</time>
      </trkpt>
      <trkpt lat="40.332002" lon="-1.010558">
        <ele>1109.386</ele>
        <time>2020-08-28T12:35:37Z</time>
      </trkpt>
      <trkpt lat="40.331951" lon="-1.01053">
        <ele>1109.754</ele>
        <time>2020-08-28T12:35:39Z</time>
      </trkpt>
      <trkpt lat="40.331905" lon="-1.010499">
        <ele>1110.011</ele>
        <time>2020-08-28T12:35:41Z</time>
      </trkpt>
      <trkpt lat="40.331858" lon="-1.010475">
        <ele>1110.179</ele>
        <time>2020-08-28T12:35:43Z</time>
      </trkpt>
      <trkpt lat="40.331811" lon="-1.01045">
        <ele>1110.089</ele>
        <time>2020-08-28T12:35:45Z</time>
      </trkpt>
      <trkpt lat="40.331762" lon="-1.010432">
        <ele>1109.871</ele>
        <time>2020-08-28T12:35:47Z</time>
      </trkpt>
      <trkpt lat="40.331715" lon="-1.010411">
        <ele>1109.841</ele>
        <time>2020-08-28T12:35:49Z</time>
      </trkpt>
      <trkpt lat="40.331667" lon="-1.010382">
        <ele>1110.015</ele>
        <time>2020-08-28T12:35:51Z</time>
      </trkpt>
      <trkpt lat="40.331619" lon="-1.010364">
        <ele>1110.208</ele>
        <time>2020-08-28T12:35:53Z</time>
      </trkpt>
      <trkpt lat="40.331574" lon="-1.010335">
        <ele>1110.272</ele>
        <time>2020-08-28T12:35:55Z</time>
      </trkpt>
      <trkpt lat="40.331528" lon="-1.010301">
        <ele>1110.282</ele>
        <time>2020-08-28T12:35:57Z</time>
      </trkpt>
      <trkpt lat="40.33148" lon="-1.010277">
        <ele>1110.394</ele>
        <time>2020-08-28T12:35:59Z</time>
      </trkpt>
      <trkpt lat="40.331437" lon="-1.010251">
        <ele>1110.556</ele>
        <time>2020-08-28T12:36:01Z</time>
      </trkpt>
      <trkpt lat="40.331392" lon="-1.010223">
        <ele>1110.544</ele>
        <time>2020-08-28T12:36:03Z</time>
      </trkpt>
      <trkpt lat="40.331345" lon="-1.010199">
        <ele>1110.581</ele>
        <time>2020-08-28T12:36:05Z</time>
      </trkpt>
      <trkpt lat="40.331298" lon="-1.010172">
        <ele>1110.719</ele>
        <time>2020-08-28T12:36:07Z</time>
      </trkpt>
      <trkpt lat="40.331256" lon="-1.010138">
        <ele>1110.939</ele>
        <time>2020-08-28T12:36:09Z</time>
      </trkpt>
      <trkpt lat="40.331211" lon="-1.010111">
        <ele>1111.093</ele>
        <time>2020-08-28T12:36:11Z</time>
      </trkpt>
      <trkpt lat="40.331165" lon="-1.010086">
        <ele>1111.065</ele>
        <time>2020-08-28T12:36:13Z</time>
      </trkpt>
      <trkpt lat="40.331118" lon="-1.01006">
        <ele>1111.121</ele>
        <time>2020-08-28T12:36:15Z</time>
      </trkpt>
      <trkpt lat="40.331068" lon="-1.010033">
        <ele>1111.408</ele>
        <time>2020-08-28T12:36:17Z</time>
      </trkpt>
      <trkpt lat="40.331021" lon="-1.010003">
        <ele>1111.624</ele>
        <time>2020-08-28T12:36:19Z</time>
      </trkpt>
      <trkpt lat="40.330972" lon="-1.009976">
        <ele>1111.814</ele>
        <time>2020-08-28T12:36:21Z</time>
      </trkpt>
      <trkpt lat="40.330922" lon="-1.009941">
        <ele>1111.996</ele>
        <time>2020-08-28T12:36:23Z</time>
      </trkpt>
      <trkpt lat="40.330872" lon="-1.009904">
        <ele>1111.948</ele>
        <time>2020-08-28T12:36:25Z</time>
      </trkpt>
      <trkpt lat="40.330818" lon="-1.009874">
        <ele>1111.946</ele>
        <time>2020-08-28T12:36:27Z</time>
      </trkpt>
      <trkpt lat="40.330767" lon="-1.009826">
        <ele>1112.073</ele>
        <time>2020-08-28T12:36:29Z</time>
      </trkpt>
      <trkpt lat="40.330713" lon="-1.009789">
        <ele>1112.211</ele>
        <time>2020-08-28T12:36:31Z</time>
      </trkpt>
      <trkpt lat="40.330656" lon="-1.009759">
        <ele>1112.351</ele>
        <time>2020-08-28T12:36:33Z</time>
      </trkpt>
      <trkpt lat="40.330602" lon="-1.009735">
        <ele>1112.494</ele>
        <time>2020-08-28T12:36:35Z</time>
      </trkpt>
      <trkpt lat="40.33055" lon="-1.009707">
        <ele>1112.557</ele>
        <time>2020-08-28T12:36:37Z</time>
      </trkpt>
      <trkpt lat="40.330495" lon="-1.009682">
        <ele>1112.722</ele>
        <time>2020-08-28T12:36:39Z</time>
      </trkpt>
      <trkpt lat="40.330439" lon="-1.009643">
        <ele>1112.908</ele>
        <time>2020-08-28T12:36:41Z</time>
      </trkpt>
      <trkpt lat="40.330385" lon="-1.009609">
        <ele>1113.074</ele>
        <time>2020-08-28T12:36:43Z</time>
      </trkpt>
      <trkpt lat="40.330334" lon="-1.009577">
        <ele>1113.134</ele>
        <time>2020-08-28T12:36:45Z</time>
      </trkpt>
      <trkpt lat="40.330288" lon="-1.009546">
        <ele>1113.256</ele>
        <time>2020-08-28T12:36:47Z</time>
      </trkpt>
      <trkpt lat="40.330245" lon="-1.009512">
        <ele>1113.218</ele>
        <time>2020-08-28T12:36:49Z</time>
      </trkpt>
      <trkpt lat="40.330194" lon="-1.009481">
        <ele>1113.326</ele>
        <time>2020-08-28T12:36:51Z</time>
      </trkpt>
      <trkpt lat="40.330147" lon="-1.009454">
        <ele>1113.433</ele>
        <time>2020-08-28T12:36:53Z</time>
      </trkpt>
      <trkpt lat="40.3301" lon="-1.009414">
        <ele>1113.571</ele>
        <time>2020-08-28T12:36:55Z</time>
      </trkpt>
      <trkpt lat="40.330051" lon="-1.0094">
        <ele>1113.681</ele>
        <time>2020-08-28T12:36:57Z</time>
      </trkpt>
      <trkpt lat="40.330002" lon="-1.009361">
        <ele>1113.997</ele>
        <time>2020-08-28T12:36:59Z</time>
      </trkpt>
      <trkpt lat="40.329952" lon="-1.00934">
        <ele>1114.123</ele>
        <time>2020-08-28T12:37:01Z</time>
      </trkpt>
      <trkpt lat="40.329903" lon="-1.009313">
        <ele>1114.225</ele>
        <time>2020-08-28T12:37:03Z</time>
      </trkpt>
      <trkpt lat="40.329853" lon="-1.009273">
        <ele>1114.408</ele>
        <time>2020-08-28T12:37:05Z</time>
      </trkpt>
      <trkpt lat="40.329802" lon="-1.009251">
        <ele>1114.524</ele>
        <time>2020-08-28T12:37:07Z</time>
      </trkpt>
      <trkpt lat="40.329754" lon="-1.009212">
        <ele>1114.584</ele>
        <time>2020-08-28T12:37:09Z</time>
      </trkpt>
      <trkpt lat="40.329706" lon="-1.009174">
        <ele>1114.576</ele>
        <time>2020-08-28T12:37:11Z</time>
      </trkpt>
      <trkpt lat="40.329658" lon="-1.009142">
        <ele>1114.658</ele>
        <time>2020-08-28T12:37:13Z</time>
      </trkpt>
      <trkpt lat="40.329613" lon="-1.009114">
        <ele>1114.616</ele>
        <time>2020-08-28T12:37:15Z</time>
      </trkpt>
      <trkpt lat="40.329567" lon="-1.009085">
        <ele>1114.673</ele>
        <time>2020-08-28T12:37:17Z</time>
      </trkpt>
      <trkpt lat="40.329514" lon="-1.00905">
        <ele>1114.671</ele>
        <time>2020-08-28T12:37:19Z</time>
      </trkpt>
      <trkpt lat="40.329469" lon="-1.009024">
        <ele>1114.851</ele>
        <time>2020-08-28T12:37:21Z</time>
      </trkpt>
      <trkpt lat="40.329421" lon="-1.008994">
        <ele>1115.071</ele>
        <time>2020-08-28T12:37:23Z</time>
      </trkpt>
      <trkpt lat="40.329375" lon="-1.008967">
        <ele>1115.141</ele>
        <time>2020-08-28T12:37:25Z</time>
      </trkpt>
      <trkpt lat="40.329332" lon="-1.008936">
        <ele>1115.215</ele>
        <time>2020-08-28T12:37:27Z</time>
      </trkpt>
      <trkpt lat="40.32927" lon="-1.008905">
        <ele>1115.408</ele>
        <time>2020-08-28T12:37:30Z</time>
      </trkpt>
      <trkpt lat="40.329228" lon="-1.008884">
        <ele>1115.542</ele>
        <time>2020-08-28T12:37:32Z</time>
      </trkpt>
      <trkpt lat="40.329185" lon="-1.008855">
        <ele>1115.632</ele>
        <time>2020-08-28T12:37:34Z</time>
      </trkpt>
      <trkpt lat="40.329143" lon="-1.00883">
        <ele>1115.754</ele>
        <time>2020-08-28T12:37:36Z</time>
      </trkpt>
      <trkpt lat="40.329099" lon="-1.008792">
        <ele>1115.726</ele>
        <time>2020-08-28T12:37:38Z</time>
      </trkpt>
      <trkpt lat="40.329056" lon="-1.008762">
        <ele>1115.764</ele>
        <time>2020-08-28T12:37:40Z</time>
      </trkpt>
      <trkpt lat="40.329009" lon="-1.008744">
        <ele>1115.861</ele>
        <time>2020-08-28T12:37:42Z</time>
      </trkpt>
      <trkpt lat="40.328966" lon="-1.008714">
        <ele>1116.059</ele>
        <time>2020-08-28T12:37:44Z</time>
      </trkpt>
      <trkpt lat="40.328916" lon="-1.008694">
        <ele>1116.279</ele>
        <time>2020-08-28T12:37:46Z</time>
      </trkpt>
      <trkpt lat="40.328874" lon="-1.008665">
        <ele>1116.396</ele>
        <time>2020-08-28T12:37:48Z</time>
      </trkpt>
      <trkpt lat="40.328831" lon="-1.008638">
        <ele>1116.331</ele>
        <time>2020-08-28T12:37:50Z</time>
      </trkpt>
      <trkpt lat="40.328768" lon="-1.0086">
        <ele>1116.324</ele>
        <time>2020-08-28T12:37:52Z</time>
      </trkpt>
      <trkpt lat="40.328703" lon="-1.008564">
        <ele>1116.508</ele>
        <time>2020-08-28T12:37:55Z</time>
      </trkpt>
      <trkpt lat="40.328655" lon="-1.008538">
        <ele>1116.654</ele>
        <time>2020-08-28T12:37:57Z</time>
      </trkpt>
      <trkpt lat="40.328608" lon="-1.008509">
        <ele>1116.764</ele>
        <time>2020-08-28T12:37:59Z</time>
      </trkpt>
      <trkpt lat="40.32856" lon="-1.008472">
        <ele>1116.836</ele>
        <time>2020-08-28T12:38:01Z</time>
      </trkpt>
      <trkpt lat="40.328511" lon="-1.008444">
        <ele>1116.938</ele>
        <time>2020-08-28T12:38:03Z</time>
      </trkpt>
      <trkpt lat="40.328469" lon="-1.008422">
        <ele>1117.026</ele>
        <time>2020-08-28T12:38:05Z</time>
      </trkpt>
      <trkpt lat="40.328425" lon="-1.00839">
        <ele>1117.233</ele>
        <time>2020-08-28T12:38:07Z</time>
      </trkpt>
      <trkpt lat="40.328372" lon="-1.008354">
        <ele>1117.651</ele>
        <time>2020-08-28T12:38:09Z</time>
      </trkpt>
      <trkpt lat="40.328299" lon="-1.008305">
        <ele>1117.741</ele>
        <time>2020-08-28T12:38:11Z</time>
      </trkpt>
      <trkpt lat="40.32825" lon="-1.008269">
        <ele>1117.985</ele>
        <time>2020-08-28T12:38:13Z</time>
      </trkpt>
      <trkpt lat="40.328201" lon="-1.008239">
        <ele>1118.189</ele>
        <time>2020-08-28T12:38:15Z</time>
      </trkpt>
      <trkpt lat="40.328152" lon="-1.008206">
        <ele>1118.317</ele>
        <time>2020-08-28T12:38:17Z</time>
      </trkpt>
      <trkpt lat="40.328108" lon="-1.008173">
        <ele>1118.308</ele>
        <time>2020-08-28T12:38:19Z</time>
      </trkpt>
      <trkpt lat="40.32806" lon="-1.008141">
        <ele>1118.393</ele>
        <time>2020-08-28T12:38:21Z</time>
      </trkpt>
      <trkpt lat="40.328012" lon="-1.008109">
        <ele>1118.273</ele>
        <time>2020-08-28T12:38:24Z</time>
      </trkpt>
      <trkpt lat="40.327969" lon="-1.008084">
        <ele>1118.225</ele>
        <time>2020-08-28T12:38:26Z</time>
      </trkpt>
      <trkpt lat="40.327922" lon="-1.008053">
        <ele>1118.417</ele>
        <time>2020-08-28T12:38:28Z</time>
      </trkpt>
      <trkpt lat="40.327856" lon="-1.008023">
        <ele>1118.725</ele>
        <time>2020-08-28T12:38:31Z</time>
      </trkpt>
      <trkpt lat="40.327813" lon="-1.007999">
        <ele>1118.962</ele>
        <time>2020-08-28T12:38:33Z</time>
      </trkpt>
      <trkpt lat="40.327765" lon="-1.007971">
        <ele>1119.020</ele>
        <time>2020-08-28T12:38:35Z</time>
      </trkpt>
      <trkpt lat="40.327713" lon="-1.007945">
        <ele>1119.020</ele>
        <time>2020-08-28T12:38:37Z</time>
      </trkpt>
      <trkpt lat="40.327658" lon="-1.007924">
        <ele>1119.181</ele>
        <time>2020-08-28T12:38:39Z</time>
      </trkpt>
      <trkpt lat="40.327603" lon="-1.007915">
        <ele>1119.361</ele>
        <time>2020-08-28T12:38:41Z</time>
      </trkpt>
      <trkpt lat="40.327554" lon="-1.007901">
        <ele>1119.517</ele>
        <time>2020-08-28T12:38:43Z</time>
      </trkpt>
      <trkpt lat="40.327501" lon="-1.007882">
        <ele>1119.708</ele>
        <time>2020-08-28T12:38:45Z</time>
      </trkpt>
      <trkpt lat="40.32742" lon="-1.007858">
        <ele>1119.913</ele>
        <time>2020-08-28T12:38:47Z</time>
      </trkpt>
      <trkpt lat="40.327367" lon="-1.007851">
        <ele>1120.273</ele>
        <time>2020-08-28T12:38:49Z</time>
      </trkpt>
      <trkpt lat="40.327315" lon="-1.007837">
        <ele>1120.395</ele>
        <time>2020-08-28T12:38:51Z</time>
      </trkpt>
      <trkpt lat="40.327268" lon="-1.007835">
        <ele>1120.397</ele>
        <time>2020-08-28T12:38:53Z</time>
      </trkpt>
      <trkpt lat="40.327212" lon="-1.007825">
        <ele>1120.465</ele>
        <time>2020-08-28T12:38:55Z</time>
      </trkpt>
      <trkpt lat="40.327158" lon="-1.007821">
        <ele>1120.682</ele>
        <time>2020-08-28T12:38:57Z</time>
      </trkpt>
      <trkpt lat="40.327112" lon="-1.007813">
        <ele>1120.770</ele>
        <time>2020-08-28T12:38:59Z</time>
      </trkpt>
      <trkpt lat="40.327049" lon="-1.007806">
        <ele>1120.870</ele>
        <time>2020-08-28T12:39:02Z</time>
      </trkpt>
      <trkpt lat="40.326989" lon="-1.007806">
        <ele>1120.848</ele>
        <time>2020-08-28T12:39:04Z</time>
      </trkpt>
      <trkpt lat="40.326927" lon="-1.007811">
        <ele>1120.861</ele>
        <time>2020-08-28T12:39:07Z</time>
      </trkpt>
      <trkpt lat="40.326882" lon="-1.007811">
        <ele>1120.817</ele>
        <time>2020-08-28T12:39:09Z</time>
      </trkpt>
      <trkpt lat="40.32683" lon="-1.007812">
        <ele>1120.808</ele>
        <time>2020-08-28T12:39:11Z</time>
      </trkpt>
      <trkpt lat="40.326785" lon="-1.007822">
        <ele>1120.989</ele>
        <time>2020-08-28T12:39:13Z</time>
      </trkpt>
      <trkpt lat="40.326739" lon="-1.007829">
        <ele>1121.019</ele>
        <time>2020-08-28T12:39:15Z</time>
      </trkpt>
      <trkpt lat="40.326655" lon="-1.007842">
        <ele>1121.211</ele>
        <time>2020-08-28T12:39:17Z</time>
      </trkpt>
      <trkpt lat="40.326587" lon="-1.007844">
        <ele>1121.433</ele>
        <time>2020-08-28T12:39:20Z</time>
      </trkpt>
      <trkpt lat="40.326514" lon="-1.007856">
        <ele>1121.581</ele>
        <time>2020-08-28T12:39:23Z</time>
      </trkpt>
      <trkpt lat="40.326459" lon="-1.007876">
        <ele>1121.768</ele>
        <time>2020-08-28T12:39:26Z</time>
      </trkpt>
      <trkpt lat="40.326391" lon="-1.007901">
        <ele>1121.816</ele>
        <time>2020-08-28T12:39:28Z</time>
      </trkpt>
      <trkpt lat="40.326321" lon="-1.00792">
        <ele>1121.916</ele>
        <time>2020-08-28T12:39:30Z</time>
      </trkpt>
      <trkpt lat="40.326257" lon="-1.00794">
        <ele>1122.041</ele>
        <time>2020-08-28T12:39:32Z</time>
      </trkpt>
      <trkpt lat="40.326196" lon="-1.007955">
        <ele>1122.281</ele>
        <time>2020-08-28T12:39:34Z</time>
      </trkpt>
      <trkpt lat="40.326135" lon="-1.007974">
        <ele>1122.409</ele>
        <time>2020-08-28T12:39:36Z</time>
      </trkpt>
      <trkpt lat="40.326075" lon="-1.007997">
        <ele>1122.508</ele>
        <time>2020-08-28T12:39:38Z</time>
      </trkpt>
      <trkpt lat="40.32602" lon="-1.008026">
        <ele>1122.019</ele>
        <time>2020-08-28T12:39:41Z</time>
      </trkpt>
      <trkpt lat="40.325948" lon="-1.008038">
        <ele>1122.749</ele>
        <time>2020-08-28T12:39:43Z</time>
      </trkpt>
      <trkpt lat="40.325904" lon="-1.008065">
        <ele>1122.791</ele>
        <time>2020-08-28T12:39:45Z</time>
      </trkpt>
      <trkpt lat="40.32586" lon="-1.008092">
        <ele>1122.763</ele>
        <time>2020-08-28T12:39:47Z</time>
      </trkpt>
      <trkpt lat="40.325814" lon="-1.008113">
        <ele>1122.871</ele>
        <time>2020-08-28T12:39:49Z</time>
      </trkpt>
      <trkpt lat="40.325775" lon="-1.008141">
        <ele>1123.028</ele>
        <time>2020-08-28T12:39:51Z</time>
      </trkpt>
      <trkpt lat="40.32573" lon="-1.008154">
        <ele>1123.136</ele>
        <time>2020-08-28T12:39:53Z</time>
      </trkpt>
      <trkpt lat="40.325657" lon="-1.008177">
        <ele>1123.216</ele>
        <time>2020-08-28T12:39:55Z</time>
      </trkpt>
      <trkpt lat="40.325607" lon="-1.008188">
        <ele>1123.357</ele>
        <time>2020-08-28T12:39:57Z</time>
      </trkpt>
      <trkpt lat="40.325563" lon="-1.008214">
        <ele>1123.400</ele>
        <time>2020-08-28T12:39:59Z</time>
      </trkpt>
      <trkpt lat="40.325514" lon="-1.008236">
        <ele>1123.520</ele>
        <time>2020-08-28T12:40:01Z</time>
      </trkpt>
      <trkpt lat="40.325465" lon="-1.008251">
        <ele>1123.708</ele>
        <time>2020-08-28T12:40:03Z</time>
      </trkpt>
      <trkpt lat="40.32542" lon="-1.00826">
        <ele>1123.930</ele>
        <time>2020-08-28T12:40:05Z</time>
      </trkpt>
      <trkpt lat="40.325369" lon="-1.008277">
        <ele>1123.740</ele>
        <time>2020-08-28T12:40:07Z</time>
      </trkpt>
      <trkpt lat="40.325285" lon="-1.008295">
        <ele>1123.722</ele>
        <time>2020-08-28T12:40:09Z</time>
      </trkpt>
      <trkpt lat="40.325214" lon="-1.008317">
        <ele>1124.364</ele>
        <time>2020-08-28T12:40:11Z</time>
      </trkpt>
      <trkpt lat="40.325145" lon="-1.00833">
        <ele>1124.592</ele>
        <time>2020-08-28T12:40:13Z</time>
      </trkpt>
      <trkpt lat="40.325084" lon="-1.008344">
        <ele>1124.689</ele>
        <time>2020-08-28T12:40:15Z</time>
      </trkpt>
      <trkpt lat="40.325023" lon="-1.008352">
        <ele>1124.887</ele>
        <time>2020-08-28T12:40:17Z</time>
      </trkpt>
      <trkpt lat="40.324979" lon="-1.008364">
        <ele>1124.967</ele>
        <time>2020-08-28T12:40:19Z</time>
      </trkpt>
      <trkpt lat="40.324927" lon="-1.008371">
        <ele>1124.987</ele>
        <time>2020-08-28T12:40:21Z</time>
      </trkpt>
      <trkpt lat="40.324866" lon="-1.008376">
        <ele>1125.142</ele>
        <time>2020-08-28T12:40:24Z</time>
      </trkpt>
      <trkpt lat="40.324815" lon="-1.008373">
        <ele>1125.326</ele>
        <time>2020-08-28T12:40:26Z</time>
      </trkpt>
      <trkpt lat="40.324742" lon="-1.00837">
        <ele>1125.408</ele>
        <time>2020-08-28T12:40:29Z</time>
      </trkpt>
      <trkpt lat="40.324669" lon="-1.008359">
        <ele>1125.863</ele>
        <time>2020-08-28T12:40:32Z</time>
      </trkpt>
      <trkpt lat="40.324624" lon="-1.008351">
        <ele>1126.083</ele>
        <time>2020-08-28T12:40:34Z</time>
      </trkpt>
      <trkpt lat="40.324575" lon="-1.008345">
        <ele>1126.175</ele>
        <time>2020-08-28T12:40:36Z</time>
      </trkpt>
      <trkpt lat="40.324526" lon="-1.008335">
        <ele>1126.227</ele>
        <time>2020-08-28T12:40:38Z</time>
      </trkpt>
      <trkpt lat="40.324477" lon="-1.008326">
        <ele>1126.375</ele>
        <time>2020-08-28T12:40:40Z</time>
      </trkpt>
      <trkpt lat="40.324424" lon="-1.008313">
        <ele>1126.742</ele>
        <time>2020-08-28T12:40:42Z</time>
      </trkpt>
      <trkpt lat="40.324352" lon="-1.008296">
        <ele>1127.070</ele>
        <time>2020-08-28T12:40:44Z</time>
      </trkpt>
      <trkpt lat="40.324282" lon="-1.008276">
        <ele>1126.710</ele>
        <time>2020-08-28T12:40:47Z</time>
      </trkpt>
      <trkpt lat="40.324237" lon="-1.00826">
        <ele>1126.763</ele>
        <time>2020-08-28T12:40:49Z</time>
      </trkpt>
      <trkpt lat="40.32419" lon="-1.008242">
        <ele>1126.944</ele>
        <time>2020-08-28T12:40:51Z</time>
      </trkpt>
      <trkpt lat="40.324145" lon="-1.00822">
        <ele>1127.218</ele>
        <time>2020-08-28T12:40:53Z</time>
      </trkpt>
      <trkpt lat="40.324098" lon="-1.0082">
        <ele>1127.508</ele>
        <time>2020-08-28T12:40:55Z</time>
      </trkpt>
      <trkpt lat="40.324048" lon="-1.008177">
        <ele>1127.451</ele>
        <time>2020-08-28T12:40:57Z</time>
      </trkpt>
      <trkpt lat="40.323994" lon="-1.008147">
        <ele>1127.581</ele>
        <time>2020-08-28T12:40:59Z</time>
      </trkpt>
      <trkpt lat="40.323932" lon="-1.008106">
        <ele>1127.813</ele>
        <time>2020-08-28T12:41:02Z</time>
      </trkpt>
      <trkpt lat="40.323887" lon="-1.008079">
        <ele>1128.085</ele>
        <time>2020-08-28T12:41:04Z</time>
      </trkpt>
      <trkpt lat="40.323842" lon="-1.008052">
        <ele>1128.263</ele>
        <time>2020-08-28T12:41:06Z</time>
      </trkpt>
      <trkpt lat="40.3238" lon="-1.008015">
        <ele>1128.360</ele>
        <time>2020-08-28T12:41:08Z</time>
      </trkpt>
      <trkpt lat="40.323755" lon="-1.007979">
        <ele>1128.398</ele>
        <time>2020-08-28T12:41:10Z</time>
      </trkpt>
      <trkpt lat="40.323704" lon="-1.007944">
        <ele>1128.368</ele>
        <time>2020-08-28T12:41:12Z</time>
      </trkpt>
      <trkpt lat="40.323654" lon="-1.007904">
        <ele>1128.592</ele>
        <time>2020-08-28T12:41:14Z</time>
      </trkpt>
      <trkpt lat="40.323612" lon="-1.007864">
        <ele>1128.773</ele>
        <time>2020-08-28T12:41:16Z</time>
      </trkpt>
      <trkpt lat="40.323572" lon="-1.007832">
        <ele>1128.620</ele>
        <time>2020-08-28T12:41:18Z</time>
      </trkpt>
      <trkpt lat="40.323531" lon="-1.007797">
        <ele>1128.508</ele>
        <time>2020-08-28T12:41:20Z</time>
      </trkpt>
      <trkpt lat="40.32349" lon="-1.007755">
        <ele>1128.794</ele>
        <time>2020-08-28T12:41:22Z</time>
      </trkpt>
      <trkpt lat="40.323448" lon="-1.00772">
        <ele>1128.914</ele>
        <time>2020-08-28T12:41:24Z</time>
      </trkpt>
      <trkpt lat="40.323405" lon="-1.007677">
        <ele>1128.996</ele>
        <time>2020-08-28T12:41:26Z</time>
      </trkpt>
      <trkpt lat="40.323348" lon="-1.007626">
        <ele>1128.918</ele>
        <time>2020-08-28T12:41:29Z</time>
      </trkpt>
      <trkpt lat="40.323292" lon="-1.007583">
        <ele>1129.016</ele>
        <time>2020-08-28T12:41:32Z</time>
      </trkpt>
      <trkpt lat="40.323255" lon="-1.007549">
        <ele>1128.923</ele>
        <time>2020-08-28T12:41:34Z</time>
      </trkpt>
      <trkpt lat="40.323217" lon="-1.00751">
        <ele>1129.291</ele>
        <time>2020-08-28T12:41:36Z</time>
      </trkpt>
      <trkpt lat="40.323175" lon="-1.00747">
        <ele>1129.341</ele>
        <time>2020-08-28T12:41:38Z</time>
      </trkpt>
      <trkpt lat="40.323132" lon="-1.007423">
        <ele>1129.344</ele>
        <time>2020-08-28T12:41:40Z</time>
      </trkpt>
      <trkpt lat="40.323094" lon="-1.007391">
        <ele>1129.505</ele>
        <time>2020-08-28T12:41:42Z</time>
      </trkpt>
      <trkpt lat="40.32305" lon="-1.007349">
        <ele>1129.815</ele>
        <time>2020-08-28T12:41:44Z</time>
      </trkpt>
      <trkpt lat="40.323011" lon="-1.007315">
        <ele>1129.808</ele>
        <time>2020-08-28T12:41:46Z</time>
      </trkpt>
      <trkpt lat="40.322972" lon="-1.00728">
        <ele>1129.889</ele>
        <time>2020-08-28T12:41:48Z</time>
      </trkpt>
      <trkpt lat="40.322931" lon="-1.007238">
        <ele>1129.949</ele>
        <time>2020-08-28T12:41:50Z</time>
      </trkpt>
      <trkpt lat="40.322881" lon="-1.007192">
        <ele>1130.021</ele>
        <time>2020-08-28T12:41:52Z</time>
      </trkpt>
      <trkpt lat="40.322824" lon="-1.007146">
        <ele>1130.423</ele>
        <time>2020-08-28T12:41:55Z</time>
      </trkpt>
      <trkpt lat="40.322785" lon="-1.007109">
        <ele>1130.511</ele>
        <time>2020-08-28T12:41:57Z</time>
      </trkpt>
      <trkpt lat="40.322727" lon="-1.007054">
        <ele>1130.688</ele>
        <time>2020-08-28T12:41:59Z</time>
      </trkpt>
      <trkpt lat="40.322688" lon="-1.007016">
        <ele>1130.726</ele>
        <time>2020-08-28T12:42:01Z</time>
      </trkpt>
      <trkpt lat="40.322645" lon="-1.006976">
        <ele>1130.996</ele>
        <time>2020-08-28T12:42:03Z</time>
      </trkpt>
      <trkpt lat="40.322603" lon="-1.006935">
        <ele>1131.024</ele>
        <time>2020-08-28T12:42:05Z</time>
      </trkpt>
      <trkpt lat="40.322558" lon="-1.006893">
        <ele>1131.004</ele>
        <time>2020-08-28T12:42:07Z</time>
      </trkpt>
      <trkpt lat="40.322513" lon="-1.006849">
        <ele>1131.114</ele>
        <time>2020-08-28T12:42:09Z</time>
      </trkpt>
      <trkpt lat="40.322473" lon="-1.006811">
        <ele>1131.208</ele>
        <time>2020-08-28T12:42:11Z</time>
      </trkpt>
      <trkpt lat="40.322435" lon="-1.006771">
        <ele>1131.417</ele>
        <time>2020-08-28T12:42:13Z</time>
      </trkpt>
      <trkpt lat="40.322394" lon="-1.006725">
        <ele>1131.697</ele>
        <time>2020-08-28T12:42:15Z</time>
      </trkpt>
      <trkpt lat="40.32234" lon="-1.00669">
        <ele>1131.619</ele>
        <time>2020-08-28T12:42:17Z</time>
      </trkpt>
      <trkpt lat="40.322302" lon="-1.006651">
        <ele>1131.691</ele>
        <time>2020-08-28T12:42:19Z</time>
      </trkpt>
      <trkpt lat="40.322259" lon="-1.006615">
        <ele>1131.769</ele>
        <time>2020-08-28T12:42:21Z</time>
      </trkpt>
      <trkpt lat="40.322224" lon="-1.006574">
        <ele>1132.096</ele>
        <time>2020-08-28T12:42:23Z</time>
      </trkpt>
      <trkpt lat="40.32219" lon="-1.006526">
        <ele>1132.084</ele>
        <time>2020-08-28T12:42:29Z</time>
      </trkpt>
      <trkpt lat="40.322171" lon="-1.006469">
        <ele>1131.444</ele>
        <time>2020-08-28T12:43:06Z</time>
      </trkpt>
      <trkpt lat="40.322139" lon="-1.006516">
        <ele>1132.316</ele>
        <time>2020-08-28T12:47:20Z</time>
      </trkpt>
      <trkpt lat="40.322122" lon="-1.006448">
        <ele>1132.476</ele>
        <time>2020-08-28T12:47:32Z</time>
      </trkpt>
      <trkpt lat="40.322079" lon="-1.006417">
        <ele>1132.513</ele>
        <time>2020-08-28T12:47:35Z</time>
      </trkpt>
      <trkpt lat="40.322046" lon="-1.006375">
        <ele>1132.608</ele>
        <time>2020-08-28T12:47:37Z</time>
      </trkpt>
      <trkpt lat="40.322004" lon="-1.006345">
        <ele>1132.776</ele>
        <time>2020-08-28T12:47:39Z</time>
      </trkpt>
      <trkpt lat="40.321963" lon="-1.006316">
        <ele>1132.816</ele>
        <time>2020-08-28T12:47:41Z</time>
      </trkpt>
      <trkpt lat="40.321929" lon="-1.006271">
        <ele>1132.978</ele>
        <time>2020-08-28T12:47:43Z</time>
      </trkpt>
      <trkpt lat="40.32189" lon="-1.006229">
        <ele>1133.030</ele>
        <time>2020-08-28T12:47:45Z</time>
      </trkpt>
      <trkpt lat="40.321852" lon="-1.006188">
        <ele>1133.178</ele>
        <time>2020-08-28T12:47:47Z</time>
      </trkpt>
      <trkpt lat="40.321808" lon="-1.006154">
        <ele>1133.345</ele>
        <time>2020-08-28T12:47:49Z</time>
      </trkpt>
      <trkpt lat="40.321764" lon="-1.006115">
        <ele>1133.593</ele>
        <time>2020-08-28T12:47:51Z</time>
      </trkpt>
      <trkpt lat="40.321713" lon="-1.006065">
        <ele>1133.673</ele>
        <time>2020-08-28T12:47:54Z</time>
      </trkpt>
      <trkpt lat="40.321667" lon="-1.006025">
        <ele>1133.754</ele>
        <time>2020-08-28T12:47:57Z</time>
      </trkpt>
      <trkpt lat="40.321617" lon="-1.005982">
        <ele>1133.856</ele>
        <time>2020-08-28T12:48:00Z</time>
      </trkpt>
      <trkpt lat="40.321577" lon="-1.00595">
        <ele>1134.011</ele>
        <time>2020-08-28T12:48:02Z</time>
      </trkpt>
      <trkpt lat="40.321536" lon="-1.005914">
        <ele>1134.208</ele>
        <time>2020-08-28T12:48:04Z</time>
      </trkpt>
      <trkpt lat="40.321494" lon="-1.005884">
        <ele>1134.480</ele>
        <time>2020-08-28T12:48:06Z</time>
      </trkpt>
      <trkpt lat="40.321455" lon="-1.005839">
        <ele>1134.410</ele>
        <time>2020-08-28T12:48:08Z</time>
      </trkpt>
      <trkpt lat="40.321411" lon="-1.005813">
        <ele>1134.532</ele>
        <time>2020-08-28T12:48:10Z</time>
      </trkpt>
      <trkpt lat="40.321356" lon="-1.00577">
        <ele>1134.664</ele>
        <time>2020-08-28T12:48:13Z</time>
      </trkpt>
      <trkpt lat="40.321308" lon="-1.005728">
        <ele>1134.732</ele>
        <time>2020-08-28T12:48:15Z</time>
      </trkpt>
      <trkpt lat="40.321248" lon="-1.005681">
        <ele>1134.929</ele>
        <time>2020-08-28T12:48:18Z</time>
      </trkpt>
      <trkpt lat="40.321201" lon="-1.005647">
        <ele>1135.047</ele>
        <time>2020-08-28T12:48:20Z</time>
      </trkpt>
      <trkpt lat="40.321145" lon="-1.005607">
        <ele>1135.187</ele>
        <time>2020-08-28T12:48:23Z</time>
      </trkpt>
      <trkpt lat="40.321099" lon="-1.005583">
        <ele>1135.266</ele>
        <time>2020-08-28T12:48:25Z</time>
      </trkpt>
      <trkpt lat="40.321036" lon="-1.005543">
        <ele>1135.329</ele>
        <time>2020-08-28T12:48:28Z</time>
      </trkpt>
      <trkpt lat="40.320989" lon="-1.005521">
        <ele>1135.421</ele>
        <time>2020-08-28T12:48:30Z</time>
      </trkpt>
      <trkpt lat="40.320939" lon="-1.005485">
        <ele>1135.608</ele>
        <time>2020-08-28T12:48:32Z</time>
      </trkpt>
      <trkpt lat="40.320894" lon="-1.005453">
        <ele>1135.741</ele>
        <time>2020-08-28T12:48:34Z</time>
      </trkpt>
      <trkpt lat="40.320844" lon="-1.005438">
        <ele>1135.871</ele>
        <time>2020-08-28T12:48:36Z</time>
      </trkpt>
      <trkpt lat="40.320796" lon="-1.005409">
        <ele>1135.823</ele>
        <time>2020-08-28T12:48:38Z</time>
      </trkpt>
      <trkpt lat="40.320747" lon="-1.00537">
        <ele>1135.955</ele>
        <time>2020-08-28T12:48:40Z</time>
      </trkpt>
      <trkpt lat="40.320692" lon="-1.005347">
        <ele>1136.063</ele>
        <time>2020-08-28T12:48:42Z</time>
      </trkpt>
      <trkpt lat="40.32065" lon="-1.005322">
        <ele>1136.110</ele>
        <time>2020-08-28T12:48:44Z</time>
      </trkpt>
      <trkpt lat="40.320598" lon="-1.005305">
        <ele>1136.198</ele>
        <time>2020-08-28T12:48:46Z</time>
      </trkpt>
      <trkpt lat="40.320545" lon="-1.00528">
        <ele>1136.138</ele>
        <time>2020-08-28T12:48:48Z</time>
      </trkpt>
      <trkpt lat="40.320492" lon="-1.00524">
        <ele>1136.241</ele>
        <time>2020-08-28T12:48:50Z</time>
      </trkpt>
      <trkpt lat="40.320446" lon="-1.005219">
        <ele>1136.481</ele>
        <time>2020-08-28T12:48:52Z</time>
      </trkpt>
      <trkpt lat="40.320399" lon="-1.005198">
        <ele>1136.609</ele>
        <time>2020-08-28T12:48:54Z</time>
      </trkpt>
      <trkpt lat="40.320352" lon="-1.00518">
        <ele>1136.708</ele>
        <time>2020-08-28T12:48:56Z</time>
      </trkpt>
      <trkpt lat="40.320306" lon="-1.005152">
        <ele>1136.889</ele>
        <time>2020-08-28T12:48:58Z</time>
      </trkpt>
      <trkpt lat="40.320255" lon="-1.005129">
        <ele>1136.919</ele>
        <time>2020-08-28T12:49:00Z</time>
      </trkpt>
      <trkpt lat="40.320197" lon="-1.005105">
        <ele>1137.081</ele>
        <time>2020-08-28T12:49:02Z</time>
      </trkpt>
      <trkpt lat="40.320151" lon="-1.005068">
        <ele>1137.133</ele>
        <time>2020-08-28T12:49:04Z</time>
      </trkpt>
      <trkpt lat="40.3201" lon="-1.005048">
        <ele>1137.261</ele>
        <time>2020-08-28T12:49:06Z</time>
      </trkpt>
      <trkpt lat="40.320047" lon="-1.005018">
        <ele>1137.378</ele>
        <time>2020-08-28T12:49:08Z</time>
      </trkpt>
      <trkpt lat="40.319995" lon="-1.004993">
        <ele>1137.516</ele>
        <time>2020-08-28T12:49:10Z</time>
      </trkpt>
      <trkpt lat="40.319946" lon="-1.004971">
        <ele>1137.756</ele>
        <time>2020-08-28T12:49:12Z</time>
      </trkpt>
      <trkpt lat="40.319899" lon="-1.004945">
        <ele>1137.844</ele>
        <time>2020-08-28T12:49:14Z</time>
      </trkpt>
      <trkpt lat="40.319847" lon="-1.004917">
        <ele>1137.905</ele>
        <time>2020-08-28T12:49:16Z</time>
      </trkpt>
      <trkpt lat="40.319791" lon="-1.004893">
        <ele>1137.915</ele>
        <time>2020-08-28T12:49:18Z</time>
      </trkpt>
      <trkpt lat="40.319742" lon="-1.004867">
        <ele>1138.008</ele>
        <time>2020-08-28T12:49:20Z</time>
      </trkpt>
      <trkpt lat="40.319691" lon="-1.004843">
        <ele>1138.269</ele>
        <time>2020-08-28T12:49:22Z</time>
      </trkpt>
      <trkpt lat="40.319641" lon="-1.004815">
        <ele>1138.429</ele>
        <time>2020-08-28T12:49:24Z</time>
      </trkpt>
      <trkpt lat="40.319585" lon="-1.004785">
        <ele>1138.641</ele>
        <time>2020-08-28T12:49:26Z</time>
      </trkpt>
      <trkpt lat="40.319528" lon="-1.004765">
        <ele>1138.923</ele>
        <time>2020-08-28T12:49:28Z</time>
      </trkpt>
      <trkpt lat="40.319485" lon="-1.004742">
        <ele>1139.071</ele>
        <time>2020-08-28T12:49:30Z</time>
      </trkpt>
      <trkpt lat="40.319429" lon="-1.004724">
        <ele>1139.218</ele>
        <time>2020-08-28T12:49:32Z</time>
      </trkpt>
      <trkpt lat="40.319379" lon="-1.004701">
        <ele>1139.426</ele>
        <time>2020-08-28T12:49:34Z</time>
      </trkpt>
      <trkpt lat="40.319317" lon="-1.004667">
        <ele>1139.546</ele>
        <time>2020-08-28T12:49:36Z</time>
      </trkpt>
      <trkpt lat="40.319257" lon="-1.004637">
        <ele>1139.695</ele>
        <time>2020-08-28T12:49:38Z</time>
      </trkpt>
      <trkpt lat="40.31919" lon="-1.0046">
        <ele>1139.649</ele>
        <time>2020-08-28T12:49:40Z</time>
      </trkpt>
      <trkpt lat="40.31913" lon="-1.004562">
        <ele>1139.423</ele>
        <time>2020-08-28T12:49:43Z</time>
      </trkpt>
      <trkpt lat="40.319087" lon="-1.004532">
        <ele>1139.408</ele>
        <time>2020-08-28T12:49:45Z</time>
      </trkpt>
      <trkpt lat="40.319041" lon="-1.004507">
        <ele>1139.564</ele>
        <time>2020-08-28T12:49:47Z</time>
      </trkpt>
      <trkpt lat="40.318993" lon="-1.004475">
        <ele>1139.674</ele>
        <time>2020-08-28T12:49:49Z</time>
      </trkpt>
      <trkpt lat="40.318946" lon="-1.004443">
        <ele>1139.776</ele>
        <time>2020-08-28T12:49:51Z</time>
      </trkpt>
      <trkpt lat="40.318899" lon="-1.00441">
        <ele>1139.998</ele>
        <time>2020-08-28T12:49:53Z</time>
      </trkpt>
      <trkpt lat="40.318848" lon="-1.00437">
        <ele>1140.036</ele>
        <time>2020-08-28T12:49:55Z</time>
      </trkpt>
      <trkpt lat="40.318808" lon="-1.004339">
        <ele>1140.143</ele>
        <time>2020-08-28T12:49:57Z</time>
      </trkpt>
      <trkpt lat="40.318761" lon="-1.004304">
        <ele>1140.041</ele>
        <time>2020-08-28T12:49:59Z</time>
      </trkpt>
      <trkpt lat="40.31872" lon="-1.004267">
        <ele>1140.021</ele>
        <time>2020-08-28T12:50:01Z</time>
      </trkpt>
      <trkpt lat="40.318675" lon="-1.004232">
        <ele>1140.211</ele>
        <time>2020-08-28T12:50:03Z</time>
      </trkpt>
      <trkpt lat="40.318634" lon="-1.00419">
        <ele>1140.321</ele>
        <time>2020-08-28T12:50:05Z</time>
      </trkpt>
      <trkpt lat="40.318593" lon="-1.004151">
        <ele>1140.303</ele>
        <time>2020-08-28T12:50:07Z</time>
      </trkpt>
      <trkpt lat="40.318543" lon="-1.004104">
        <ele>1140.308</ele>
        <time>2020-08-28T12:50:09Z</time>
      </trkpt>
      <trkpt lat="40.318499" lon="-1.004041">
        <ele>1140.436</ele>
        <time>2020-08-28T12:50:11Z</time>
      </trkpt>
      <trkpt lat="40.318458" lon="-1.003983">
        <ele>1140.716</ele>
        <time>2020-08-28T12:50:13Z</time>
      </trkpt>
      <trkpt lat="40.318405" lon="-1.00391">
        <ele>1140.938</ele>
        <time>2020-08-28T12:50:16Z</time>
      </trkpt>
      <trkpt lat="40.318373" lon="-1.003861">
        <ele>1140.910</ele>
        <time>2020-08-28T12:50:18Z</time>
      </trkpt>
      <trkpt lat="40.31833" lon="-1.003792">
        <ele>1140.988</ele>
        <time>2020-08-28T12:50:21Z</time>
      </trkpt>
      <trkpt lat="40.318284" lon="-1.003733">
        <ele>1141.465</ele>
        <time>2020-08-28T12:50:24Z</time>
      </trkpt>
      <trkpt lat="40.318253" lon="-1.003675">
        <ele>1141.563</ele>
        <time>2020-08-28T12:50:26Z</time>
      </trkpt>
      <trkpt lat="40.31822" lon="-1.003624">
        <ele>1141.353</ele>
        <time>2020-08-28T12:50:29Z</time>
      </trkpt>
      <trkpt lat="40.318194" lon="-1.003495">
        <ele>1141.678</ele>
        <time>2020-08-28T12:50:31Z</time>
      </trkpt>
      <trkpt lat="40.318171" lon="-1.003433">
        <ele>1142.033</ele>
        <time>2020-08-28T12:50:34Z</time>
      </trkpt>
      <trkpt lat="40.318143" lon="-1.003361">
        <ele>1141.426</ele>
        <time>2020-08-28T12:50:37Z</time>
      </trkpt>
      <trkpt lat="40.318118" lon="-1.00331">
        <ele>1141.508</ele>
        <time>2020-08-28T12:50:39Z</time>
      </trkpt>
      <trkpt lat="40.318095" lon="-1.003259">
        <ele>1141.742</ele>
        <time>2020-08-28T12:50:41Z</time>
      </trkpt>
      <trkpt lat="40.318074" lon="-1.003185">
        <ele>1141.952</ele>
        <time>2020-08-28T12:50:44Z</time>
      </trkpt>
      <trkpt lat="40.318064" lon="-1.00312">
        <ele>1141.914</ele>
        <time>2020-08-28T12:50:46Z</time>
      </trkpt>
      <trkpt lat="40.318028" lon="-1.003042">
        <ele>1141.966</ele>
        <time>2020-08-28T12:50:48Z</time>
      </trkpt>
      <trkpt lat="40.317984" lon="-1.002963">
        <ele>1142.094</ele>
        <time>2020-08-28T12:50:50Z</time>
      </trkpt>
      <trkpt lat="40.317952" lon="-1.002895">
        <ele>1142.151</ele>
        <time>2020-08-28T12:50:52Z</time>
      </trkpt>
      <trkpt lat="40.31791" lon="-1.00284">
        <ele>1142.229</ele>
        <time>2020-08-28T12:50:54Z</time>
      </trkpt>
      <trkpt lat="40.317876" lon="-1.002782">
        <ele>1142.249</ele>
        <time>2020-08-28T12:50:56Z</time>
      </trkpt>
      <trkpt lat="40.317835" lon="-1.002711">
        <ele>1142.357</ele>
        <time>2020-08-28T12:50:58Z</time>
      </trkpt>
      <trkpt lat="40.317799" lon="-1.002654">
        <ele>1142.500</ele>
        <time>2020-08-28T12:51:00Z</time>
      </trkpt>
      <trkpt lat="40.317758" lon="-1.002598">
        <ele>1142.620</ele>
        <time>2020-08-28T12:51:02Z</time>
      </trkpt>
      <trkpt lat="40.317709" lon="-1.002561">
        <ele>1142.708</ele>
        <time>2020-08-28T12:51:04Z</time>
      </trkpt>
      <trkpt lat="40.317658" lon="-1.00252">
        <ele>1142.850</ele>
        <time>2020-08-28T12:51:06Z</time>
      </trkpt>
      <trkpt lat="40.317621" lon="-1.002454">
        <ele>1143.090</ele>
        <time>2020-08-28T12:51:08Z</time>
      </trkpt>
      <trkpt lat="40.317587" lon="-1.002381">
        <ele>1143.172</ele>
        <time>2020-08-28T12:51:10Z</time>
      </trkpt>
      <trkpt lat="40.317545" lon="-1.00232">
        <ele>1143.214</ele>
        <time>2020-08-28T12:51:12Z</time>
      </trkpt>
      <trkpt lat="40.317512" lon="-1.002265">
        <ele>1143.382</ele>
        <time>2020-08-28T12:51:14Z</time>
      </trkpt>
      <trkpt lat="40.317503" lon="-1.002202">
        <ele>1143.579</ele>
        <time>2020-08-28T12:51:19Z</time>
      </trkpt>
      <trkpt lat="40.316914" lon="-1.001374">
        <ele>1145.517</ele>
        <time>2020-08-28T12:51:47Z</time>
      </trkpt>
      <trkpt lat="40.316974" lon="-1.001028">
        <ele>1145.677</ele>
        <time>2020-08-28T12:51:48Z</time>
      </trkpt>
      <trkpt lat="40.317078" lon="-1.000817">
        <ele>1145.683</ele>
        <time>2020-08-28T12:51:49Z</time>
      </trkpt>
      <trkpt lat="40.317082" lon="-1.000721">
        <ele>1146.125</ele>
        <time>2020-08-28T12:51:52Z</time>
      </trkpt>
      <trkpt lat="40.31707" lon="-1.00066">
        <ele>1146.217</ele>
        <time>2020-08-28T12:51:54Z</time>
      </trkpt>
      <trkpt lat="40.317047" lon="-1.000601">
        <ele>1146.208</ele>
        <time>2020-08-28T12:51:56Z</time>
      </trkpt>
      <trkpt lat="40.317042" lon="-1.000538">
        <ele>1146.283</ele>
        <time>2020-08-28T12:51:57Z</time>
      </trkpt>
      <trkpt lat="40.31702" lon="-1.000465">
        <ele>1146.563</ele>
        <time>2020-08-28T12:52:00Z</time>
      </trkpt>
      <trkpt lat="40.317001" lon="-1.000402">
        <ele>1146.815</ele>
        <time>2020-08-28T12:52:02Z</time>
      </trkpt>
      <trkpt lat="40.316978" lon="-1.000346">
        <ele>1147.397</ele>
        <time>2020-08-28T12:52:04Z</time>
      </trkpt>
      <trkpt lat="40.316968" lon="-1.000277">
        <ele>1147.445</ele>
        <time>2020-08-28T12:52:06Z</time>
      </trkpt>
      <trkpt lat="40.316959" lon="-1.000209">
        <ele>1147.452</ele>
        <time>2020-08-28T12:52:08Z</time>
      </trkpt>
      <trkpt lat="40.316937" lon="-1.000147">
        <ele>1147.350</ele>
        <time>2020-08-28T12:52:10Z</time>
      </trkpt>
      <trkpt lat="40.316915" lon="-1.00008">
        <ele>1147.490</ele>
        <time>2020-08-28T12:52:12Z</time>
      </trkpt>
      <trkpt lat="40.316887" lon="-1.000011">
        <ele>1147.777</ele>
        <time>2020-08-28T12:52:14Z</time>
      </trkpt>
      <trkpt lat="40.316855" lon="-.999938">
        <ele>1147.961</ele>
        <time>2020-08-28T12:52:16Z</time>
      </trkpt>
      <trkpt lat="40.316819" lon="-.999858">
        <ele>1148.027</ele>
        <time>2020-08-28T12:52:18Z</time>
      </trkpt>
      <trkpt lat="40.31679" lon="-.999784">
        <ele>1148.008</ele>
        <time>2020-08-28T12:52:20Z</time>
      </trkpt>
      <trkpt lat="40.316763" lon="-.999708">
        <ele>1148.112</ele>
        <time>2020-08-28T12:52:22Z</time>
      </trkpt>
      <trkpt lat="40.316732" lon="-.999641">
        <ele>1148.292</ele>
        <time>2020-08-28T12:52:24Z</time>
      </trkpt>
      <trkpt lat="40.3167" lon="-.999572">
        <ele>1148.494</ele>
        <time>2020-08-28T12:52:26Z</time>
      </trkpt>
      <trkpt lat="40.316668" lon="-.999501">
        <ele>1148.886</ele>
        <time>2020-08-28T12:52:28Z</time>
      </trkpt>
      <trkpt lat="40.316637" lon="-.999432">
        <ele>1149.134</ele>
        <time>2020-08-28T12:52:30Z</time>
      </trkpt>
      <trkpt lat="40.316608" lon="-.999369">
        <ele>1149.311</ele>
        <time>2020-08-28T12:52:32Z</time>
      </trkpt>
      <trkpt lat="40.316575" lon="-.999314">
        <ele>1149.289</ele>
        <time>2020-08-28T12:52:34Z</time>
      </trkpt>
      <trkpt lat="40.316544" lon="-.999257">
        <ele>1149.169</ele>
        <time>2020-08-28T12:52:36Z</time>
      </trkpt>
      <trkpt lat="40.316513" lon="-.999195">
        <ele>1149.043</ele>
        <time>2020-08-28T12:52:38Z</time>
      </trkpt>
      <trkpt lat="40.316482" lon="-.999141">
        <ele>1148.964</ele>
        <time>2020-08-28T12:52:40Z</time>
      </trkpt>
      <trkpt lat="40.316449" lon="-.999087">
        <ele>1148.910</ele>
        <time>2020-08-28T12:52:42Z</time>
      </trkpt>
      <trkpt lat="40.316411" lon="-.999043">
        <ele>1149.008</ele>
        <time>2020-08-28T12:52:44Z</time>
      </trkpt>
      <trkpt lat="40.316374" lon="-.999002">
        <ele>1149.139</ele>
        <time>2020-08-28T12:52:46Z</time>
      </trkpt>
      <trkpt lat="40.316338" lon="-.998952">
        <ele>1149.379</ele>
        <time>2020-08-28T12:52:48Z</time>
      </trkpt>
      <trkpt lat="40.316286" lon="-.998888">
        <ele>1149.441</ele>
        <time>2020-08-28T12:52:50Z</time>
      </trkpt>
      <trkpt lat="40.31625" lon="-.99885">
        <ele>1149.513</ele>
        <time>2020-08-28T12:52:52Z</time>
      </trkpt>
      <trkpt lat="40.316205" lon="-.998809">
        <ele>1149.561</ele>
        <time>2020-08-28T12:52:54Z</time>
      </trkpt>
      <trkpt lat="40.31617" lon="-.99877">
        <ele>1149.618</ele>
        <time>2020-08-28T12:52:56Z</time>
      </trkpt>
      <trkpt lat="40.316132" lon="-.998731">
        <ele>1149.896</ele>
        <time>2020-08-28T12:52:58Z</time>
      </trkpt>
      <trkpt lat="40.316092" lon="-.9987">
        <ele>1149.976</ele>
        <time>2020-08-28T12:53:00Z</time>
      </trkpt>
      <trkpt lat="40.316052" lon="-.998662">
        <ele>1149.981</ele>
        <time>2020-08-28T12:53:02Z</time>
      </trkpt>
      <trkpt lat="40.315996" lon="-.998622">
        <ele>1150.061</ele>
        <time>2020-08-28T12:53:05Z</time>
      </trkpt>
      <trkpt lat="40.315953" lon="-.998593">
        <ele>1150.217</ele>
        <time>2020-08-28T12:53:07Z</time>
      </trkpt>
      <trkpt lat="40.31591" lon="-.998564">
        <ele>1150.208</ele>
        <time>2020-08-28T12:53:08Z</time>
      </trkpt>
      <trkpt lat="40.315857" lon="-.99855">
        <ele>1150.323</ele>
        <time>2020-08-28T12:53:10Z</time>
      </trkpt>
      <trkpt lat="40.315808" lon="-.998534">
        <ele>1150.433</ele>
        <time>2020-08-28T12:53:12Z</time>
      </trkpt>
      <trkpt lat="40.315759" lon="-.998519">
        <ele>1150.595</ele>
        <time>2020-08-28T12:53:14Z</time>
      </trkpt>
      <trkpt lat="40.315708" lon="-.998494">
        <ele>1150.527</ele>
        <time>2020-08-28T12:53:16Z</time>
      </trkpt>
      <trkpt lat="40.315661" lon="-.99849">
        <ele>1150.845</ele>
        <time>2020-08-28T12:53:18Z</time>
      </trkpt>
      <trkpt lat="40.315581" lon="-.998473">
        <ele>1151.152</ele>
        <time>2020-08-28T12:53:21Z</time>
      </trkpt>
      <trkpt lat="40.315532" lon="-.998452">
        <ele>1151.290</ele>
        <time>2020-08-28T12:53:23Z</time>
      </trkpt>
      <trkpt lat="40.315493" lon="-.998419">
        <ele>1151.290</ele>
        <time>2020-08-28T12:53:25Z</time>
      </trkpt>
      <trkpt lat="40.315418" lon="-.998398">
        <ele>1151.676</ele>
        <time>2020-08-28T12:53:27Z</time>
      </trkpt>
      <trkpt lat="40.315349" lon="-.998359">
        <ele>1151.790</ele>
        <time>2020-08-28T12:53:31Z</time>
      </trkpt>
      <trkpt lat="40.315276" lon="-.998324">
        <ele>1151.819</ele>
        <time>2020-08-28T12:53:33Z</time>
      </trkpt>
      <trkpt lat="40.315231" lon="-.998297">
        <ele>1151.908</ele>
        <time>2020-08-28T12:53:35Z</time>
      </trkpt>
      <trkpt lat="40.315169" lon="-.998278">
        <ele>1151.952</ele>
        <time>2020-08-28T12:53:37Z</time>
      </trkpt>
      <trkpt lat="40.315113" lon="-.998268">
        <ele>1151.952</ele>
        <time>2020-08-28T12:53:39Z</time>
      </trkpt>
      <trkpt lat="40.315055" lon="-.998263">
        <ele>1151.964</ele>
        <time>2020-08-28T12:53:41Z</time>
      </trkpt>
      <trkpt lat="40.314989" lon="-.998275">
        <ele>1152.426</ele>
        <time>2020-08-28T12:53:43Z</time>
      </trkpt>
      <trkpt lat="40.314941" lon="-.998281">
        <ele>1152.434</ele>
        <time>2020-08-28T12:53:44Z</time>
      </trkpt>
      <trkpt lat="40.314891" lon="-.998296">
        <ele>1152.441</ele>
        <time>2020-08-28T12:53:46Z</time>
      </trkpt>
      <trkpt lat="40.314841" lon="-.998296">
        <ele>1152.179</ele>
        <time>2020-08-28T12:53:48Z</time>
      </trkpt>
      <trkpt lat="40.314785" lon="-.998313">
        <ele>1152.119</ele>
        <time>2020-08-28T12:53:50Z</time>
      </trkpt>
      <trkpt lat="40.314717" lon="-.998322">
        <ele>1151.923</ele>
        <time>2020-08-28T12:53:52Z</time>
      </trkpt>
      <trkpt lat="40.314654" lon="-.998328">
        <ele>1151.883</ele>
        <time>2020-08-28T12:53:55Z</time>
      </trkpt>
      <trkpt lat="40.314604" lon="-.998322">
        <ele>1152.111</ele>
        <time>2020-08-28T12:53:57Z</time>
      </trkpt>
      <trkpt lat="40.314528" lon="-.998324">
        <ele>1152.508</ele>
        <time>2020-08-28T12:53:59Z</time>
      </trkpt>
      <trkpt lat="40.314462" lon="-.998334">
        <ele>1152.947</ele>
        <time>2020-08-28T12:54:01Z</time>
      </trkpt>
      <trkpt lat="40.3144" lon="-.99835">
        <ele>1153.087</ele>
        <time>2020-08-28T12:54:03Z</time>
      </trkpt>
      <trkpt lat="40.314339" lon="-.99836">
        <ele>1153.179</ele>
        <time>2020-08-28T12:54:05Z</time>
      </trkpt>
      <trkpt lat="40.314281" lon="-.998373">
        <ele>1153.441</ele>
        <time>2020-08-28T12:54:07Z</time>
      </trkpt>
      <trkpt lat="40.314206" lon="-.99837">
        <ele>1153.599</ele>
        <time>2020-08-28T12:54:09Z</time>
      </trkpt>
      <trkpt lat="40.314138" lon="-.998374">
        <ele>1153.696</ele>
        <time>2020-08-28T12:54:11Z</time>
      </trkpt>
      <trkpt lat="40.314065" lon="-.998382">
        <ele>1153.664</ele>
        <time>2020-08-28T12:54:13Z</time>
      </trkpt>
      <trkpt lat="40.314003" lon="-.998393">
        <ele>1153.724</ele>
        <time>2020-08-28T12:54:15Z</time>
      </trkpt>
      <trkpt lat="40.313937" lon="-.998405">
        <ele>1154.066</ele>
        <time>2020-08-28T12:54:17Z</time>
      </trkpt>
      <trkpt lat="40.313888" lon="-.998408">
        <ele>1154.129</ele>
        <time>2020-08-28T12:54:19Z</time>
      </trkpt>
      <trkpt lat="40.313831" lon="-.99841">
        <ele>1154.221</ele>
        <time>2020-08-28T12:54:21Z</time>
      </trkpt>
      <trkpt lat="40.313774" lon="-.998417">
        <ele>1154.308</ele>
        <time>2020-08-28T12:54:23Z</time>
      </trkpt>
      <trkpt lat="40.313724" lon="-.998426">
        <ele>1154.531</ele>
        <time>2020-08-28T12:54:25Z</time>
      </trkpt>
      <trkpt lat="40.313669" lon="-.998418">
        <ele>1155.161</ele>
        <time>2020-08-28T12:54:29Z</time>
      </trkpt>
      <trkpt lat="40.313619" lon="-.998414">
        <ele>1155.333</ele>
        <time>2020-08-28T12:54:34Z</time>
      </trkpt>
      <trkpt lat="40.31253" lon="-.99784">
        <ele>1157.235</ele>
        <time>2020-08-28T12:55:06Z</time>
      </trkpt>
      <trkpt lat="40.312504" lon="-.997915">
        <ele>1157.273</ele>
        <time>2020-08-28T12:55:07Z</time>
      </trkpt>
      <trkpt lat="40.312492" lon="-.998045">
        <ele>1157.280</ele>
        <time>2020-08-28T12:55:08Z</time>
      </trkpt>
      <trkpt lat="40.312446" lon="-.998046">
        <ele>1157.238</ele>
        <time>2020-08-28T12:55:09Z</time>
      </trkpt>
      <trkpt lat="40.312398" lon="-.998034">
        <ele>1157.478</ele>
        <time>2020-08-28T12:55:14Z</time>
      </trkpt>
      <trkpt lat="40.312336" lon="-.998009">
        <ele>1157.514</ele>
        <time>2020-08-28T12:55:16Z</time>
      </trkpt>
      <trkpt lat="40.312293" lon="-.99797">
        <ele>1157.654</ele>
        <time>2020-08-28T12:55:18Z</time>
      </trkpt>
      <trkpt lat="40.31223" lon="-.997926">
        <ele>1157.709</ele>
        <time>2020-08-28T12:55:20Z</time>
      </trkpt>
      <trkpt lat="40.312159" lon="-.997914">
        <ele>1157.808</ele>
        <time>2020-08-28T12:55:22Z</time>
      </trkpt>
      <trkpt lat="40.312128" lon="-.997869">
        <ele>1157.936</ele>
        <time>2020-08-28T12:55:23Z</time>
      </trkpt>
      <trkpt lat="40.312125" lon="-.997789">
        <ele>1158.046</ele>
        <time>2020-08-28T12:55:25Z</time>
      </trkpt>
      <trkpt lat="40.312055" lon="-.997748">
        <ele>1158.278</ele>
        <time>2020-08-28T12:55:27Z</time>
      </trkpt>
      <trkpt lat="40.312004" lon="-.997724">
        <ele>1158.490</ele>
        <time>2020-08-28T12:55:29Z</time>
      </trkpt>
      <trkpt lat="40.311938" lon="-.997699">
        <ele>1158.498</ele>
        <time>2020-08-28T12:55:31Z</time>
      </trkpt>
      <trkpt lat="40.311881" lon="-.997649">
        <ele>1158.435</ele>
        <time>2020-08-28T12:55:33Z</time>
      </trkpt>
      <trkpt lat="40.311836" lon="-.997613">
        <ele>1158.693</ele>
        <time>2020-08-28T12:55:35Z</time>
      </trkpt>
      <trkpt lat="40.311781" lon="-.997576">
        <ele>1158.773</ele>
        <time>2020-08-28T12:55:37Z</time>
      </trkpt>
      <trkpt lat="40.31173" lon="-.997532">
        <ele>1158.946</ele>
        <time>2020-08-28T12:55:39Z</time>
      </trkpt>
      <trkpt lat="40.311677" lon="-.997486">
        <ele>1159.088</ele>
        <time>2020-08-28T12:55:41Z</time>
      </trkpt>
      <trkpt lat="40.311633" lon="-.997452">
        <ele>1159.016</ele>
        <time>2020-08-28T12:55:43Z</time>
      </trkpt>
      <trkpt lat="40.311582" lon="-.997402">
        <ele>1159.108</ele>
        <time>2020-08-28T12:55:45Z</time>
      </trkpt>
      <trkpt lat="40.311534" lon="-.997362">
        <ele>1159.319</ele>
        <time>2020-08-28T12:55:47Z</time>
      </trkpt>
      <trkpt lat="40.311487" lon="-.997315">
        <ele>1159.429</ele>
        <time>2020-08-28T12:55:49Z</time>
      </trkpt>
      <trkpt lat="40.311438" lon="-.997278">
        <ele>1159.471</ele>
        <time>2020-08-28T12:55:51Z</time>
      </trkpt>
      <trkpt lat="40.31139" lon="-.997248">
        <ele>1159.513</ele>
        <time>2020-08-28T12:55:53Z</time>
      </trkpt>
      <trkpt lat="40.311344" lon="-.997223">
        <ele>1159.881</ele>
        <time>2020-08-28T12:55:55Z</time>
      </trkpt>
      <trkpt lat="40.311301" lon="-.997184">
        <ele>1159.978</ele>
        <time>2020-08-28T12:55:57Z</time>
      </trkpt>
      <trkpt lat="40.311256" lon="-.997156">
        <ele>1159.966</ele>
        <time>2020-08-28T12:55:59Z</time>
      </trkpt>
      <trkpt lat="40.311208" lon="-.997121">
        <ele>1160.086</ele>
        <time>2020-08-28T12:56:01Z</time>
      </trkpt>
      <trkpt lat="40.311146" lon="-.997085">
        <ele>1160.184</ele>
        <time>2020-08-28T12:56:03Z</time>
      </trkpt>
      <trkpt lat="40.311085" lon="-.997069">
        <ele>1160.107</ele>
        <time>2020-08-28T12:56:06Z</time>
      </trkpt>
      <trkpt lat="40.311027" lon="-.997036">
        <ele>1160.517</ele>
        <time>2020-08-28T12:56:09Z</time>
      </trkpt>
      <trkpt lat="40.310979" lon="-.997007">
        <ele>1160.708</ele>
        <time>2020-08-28T12:56:11Z</time>
      </trkpt>
      <trkpt lat="40.310927" lon="-.996985">
        <ele>1160.713</ele>
        <time>2020-08-28T12:56:13Z</time>
      </trkpt>
      <trkpt lat="40.31088" lon="-.996973">
        <ele>1160.763</ele>
        <time>2020-08-28T12:56:15Z</time>
      </trkpt>
      <trkpt lat="40.31084" lon="-.996941">
        <ele>1160.855</ele>
        <time>2020-08-28T12:56:17Z</time>
      </trkpt>
      <trkpt lat="40.310802" lon="-.996905">
        <ele>1160.987</ele>
        <time>2020-08-28T12:56:19Z</time>
      </trkpt>
      <trkpt lat="40.310736" lon="-.99687">
        <ele>1161.055</ele>
        <time>2020-08-28T12:56:21Z</time>
      </trkpt>
      <trkpt lat="40.310692" lon="-.996857">
        <ele>1161.272</ele>
        <time>2020-08-28T12:56:22Z</time>
      </trkpt>
      <trkpt lat="40.310631" lon="-.996822">
        <ele>1161.420</ele>
        <time>2020-08-28T12:56:25Z</time>
      </trkpt>
      <trkpt lat="40.310533" lon="-.996776">
        <ele>1161.540</ele>
        <time>2020-08-28T12:56:27Z</time>
      </trkpt>
      <trkpt lat="40.310438" lon="-.99667">
        <ele>1161.626</ele>
        <time>2020-08-28T12:56:28Z</time>
      </trkpt>
      <trkpt lat="40.310361" lon="-.996605">
        <ele>1161.847</ele>
        <time>2020-08-28T12:56:30Z</time>
      </trkpt>
      <trkpt lat="40.31033" lon="-.996544">
        <ele>1161.811</ele>
        <time>2020-08-28T12:56:32Z</time>
      </trkpt>
      <trkpt lat="40.310261" lon="-.996502">
        <ele>1161.708</ele>
        <time>2020-08-28T12:56:34Z</time>
      </trkpt>
      <trkpt lat="40.31022" lon="-.99646">
        <ele>1161.787</ele>
        <time>2020-08-28T12:56:35Z</time>
      </trkpt>
      <trkpt lat="40.31014" lon="-.996429">
        <ele>1161.937</ele>
        <time>2020-08-28T12:56:37Z</time>
      </trkpt>
      <trkpt lat="40.310063" lon="-.996399">
        <ele>1162.169</ele>
        <time>2020-08-28T12:56:39Z</time>
      </trkpt>
      <trkpt lat="40.310011" lon="-.996348">
        <ele>1162.441</ele>
        <time>2020-08-28T12:56:41Z</time>
      </trkpt>
      <trkpt lat="40.309939" lon="-.996314">
        <ele>1162.629</ele>
        <time>2020-08-28T12:56:43Z</time>
      </trkpt>
      <trkpt lat="40.309875" lon="-.996282">
        <ele>1162.696</ele>
        <time>2020-08-28T12:56:45Z</time>
      </trkpt>
      <trkpt lat="40.309813" lon="-.996245">
        <ele>1162.614</ele>
        <time>2020-08-28T12:56:47Z</time>
      </trkpt>
      <trkpt lat="40.309746" lon="-.996204">
        <ele>1162.864</ele>
        <time>2020-08-28T12:56:49Z</time>
      </trkpt>
      <trkpt lat="40.309666" lon="-.996181">
        <ele>1163.016</ele>
        <time>2020-08-28T12:56:51Z</time>
      </trkpt>
      <trkpt lat="40.309585" lon="-.996152">
        <ele>1163.276</ele>
        <time>2020-08-28T12:56:53Z</time>
      </trkpt>
      <trkpt lat="40.30952" lon="-.99612">
        <ele>1163.313</ele>
        <time>2020-08-28T12:56:55Z</time>
      </trkpt>
      <trkpt lat="40.309448" lon="-.996105">
        <ele>1163.408</ele>
        <time>2020-08-28T12:56:57Z</time>
      </trkpt>
      <trkpt lat="40.309403" lon="-.996058">
        <ele>1163.466</ele>
        <time>2020-08-28T12:56:59Z</time>
      </trkpt>
      <trkpt lat="40.309354" lon="-.99602">
        <ele>1163.586</ele>
        <time>2020-08-28T12:57:01Z</time>
      </trkpt>
      <trkpt lat="40.309289" lon="-.995992">
        <ele>1163.658</ele>
        <time>2020-08-28T12:57:03Z</time>
      </trkpt>
      <trkpt lat="40.309228" lon="-.995961">
        <ele>1163.890</ele>
        <time>2020-08-28T12:57:05Z</time>
      </trkpt>
      <trkpt lat="40.309165" lon="-.995914">
        <ele>1164.158</ele>
        <time>2020-08-28T12:57:07Z</time>
      </trkpt>
      <trkpt lat="40.309101" lon="-.995885">
        <ele>1164.395</ele>
        <time>2020-08-28T12:57:09Z</time>
      </trkpt>
      <trkpt lat="40.309036" lon="-.995846">
        <ele>1164.513</ele>
        <time>2020-08-28T12:57:11Z</time>
      </trkpt>
      <trkpt lat="40.308986" lon="-.99581">
        <ele>1164.753</ele>
        <time>2020-08-28T12:57:14Z</time>
      </trkpt>
      <trkpt lat="40.308915" lon="-.995758">
        <ele>1164.994</ele>
        <time>2020-08-28T12:57:16Z</time>
      </trkpt>
      <trkpt lat="40.308871" lon="-.995724">
        <ele>1165.157</ele>
        <time>2020-08-28T12:57:19Z</time>
      </trkpt>
      <trkpt lat="40.308826" lon="-.9957">
        <ele>1165.322</ele>
        <time>2020-08-28T12:57:21Z</time>
      </trkpt>
      <trkpt lat="40.308779" lon="-.995677">
        <ele>1165.408</ele>
        <time>2020-08-28T12:57:23Z</time>
      </trkpt>
      <trkpt lat="40.308735" lon="-.995648">
        <ele>1165.554</ele>
        <time>2020-08-28T12:57:25Z</time>
      </trkpt>
      <trkpt lat="40.308691" lon="-.995618">
        <ele>1165.654</ele>
        <time>2020-08-28T12:57:26Z</time>
      </trkpt>
      <trkpt lat="40.308649" lon="-.995595">
        <ele>1165.726</ele>
        <time>2020-08-28T12:57:27Z</time>
      </trkpt>
      <trkpt lat="40.308581" lon="-.995554">
        <ele>1165.948</ele>
        <time>2020-08-28T12:57:29Z</time>
      </trkpt>
      <trkpt lat="40.308529" lon="-.995519">
        <ele>1166.086</ele>
        <time>2020-08-28T12:57:32Z</time>
      </trkpt>
      <trkpt lat="40.308477" lon="-.995487">
        <ele>1165.983</ele>
        <time>2020-08-28T12:57:34Z</time>
      </trkpt>
      <trkpt lat="40.308429" lon="-.995464">
        <ele>1165.981</ele>
        <time>2020-08-28T12:57:36Z</time>
      </trkpt>
      <trkpt lat="40.308368" lon="-.995441">
        <ele>1166.081</ele>
        <time>2020-08-28T12:57:39Z</time>
      </trkpt>
      <trkpt lat="40.308324" lon="-.995413">
        <ele>1165.917</ele>
        <time>2020-08-28T12:57:41Z</time>
      </trkpt>
      <trkpt lat="40.308255" lon="-.995371">
        <ele>1166.087</ele>
        <time>2020-08-28T12:57:43Z</time>
      </trkpt>
      <trkpt lat="40.308196" lon="-.995324">
        <ele>1166.315</ele>
        <time>2020-08-28T12:57:46Z</time>
      </trkpt>
      <trkpt lat="40.308147" lon="-.995304">
        <ele>1166.408</ele>
        <time>2020-08-28T12:57:48Z</time>
      </trkpt>
      <trkpt lat="40.308102" lon="-.995276">
        <ele>1166.546</ele>
        <time>2020-08-28T12:57:50Z</time>
      </trkpt>
      <trkpt lat="40.308044" lon="-.995255">
        <ele>1166.616</ele>
        <time>2020-08-28T12:57:53Z</time>
      </trkpt>
      <trkpt lat="40.307998" lon="-.995234">
        <ele>1166.748</ele>
        <time>2020-08-28T12:57:55Z</time>
      </trkpt>
      <trkpt lat="40.307953" lon="-.995208">
        <ele>1166.860</ele>
        <time>2020-08-28T12:57:57Z</time>
      </trkpt>
      <trkpt lat="40.307917" lon="-.99517">
        <ele>1166.938</ele>
        <time>2020-08-28T12:57:59Z</time>
      </trkpt>
      <trkpt lat="40.307873" lon="-.995136">
        <ele>1167.025</ele>
        <time>2020-08-28T12:58:01Z</time>
      </trkpt>
      <trkpt lat="40.307816" lon="-.995118">
        <ele>1167.293</ele>
        <time>2020-08-28T12:58:03Z</time>
      </trkpt>
      <trkpt lat="40.307757" lon="-.995095">
        <ele>1167.393</ele>
        <time>2020-08-28T12:58:05Z</time>
      </trkpt>
      <trkpt lat="40.307707" lon="-.995057">
        <ele>1167.347</ele>
        <time>2020-08-28T12:58:07Z</time>
      </trkpt>
      <trkpt lat="40.307646" lon="-.995024">
        <ele>1167.529</ele>
        <time>2020-08-28T12:58:09Z</time>
      </trkpt>
      <trkpt lat="40.307587" lon="-.994966">
        <ele>1167.721</ele>
        <time>2020-08-28T12:58:11Z</time>
      </trkpt>
      <trkpt lat="40.307538" lon="-.994939">
        <ele>1167.908</ele>
        <time>2020-08-28T12:58:13Z</time>
      </trkpt>
      <trkpt lat="40.307488" lon="-.994907">
        <ele>1168.089</ele>
        <time>2020-08-28T12:58:15Z</time>
      </trkpt>
      <trkpt lat="40.30743" lon="-.994872">
        <ele>1168.119</ele>
        <time>2020-08-28T12:58:17Z</time>
      </trkpt>
      <trkpt lat="40.307377" lon="-.994841">
        <ele>1168.371</ele>
        <time>2020-08-28T12:58:19Z</time>
      </trkpt>
      <trkpt lat="40.307284" lon="-.994788">
        <ele>1168.523</ele>
        <time>2020-08-28T12:58:21Z</time>
      </trkpt>
      <trkpt lat="40.307238" lon="-.994765">
        <ele>1168.611</ele>
        <time>2020-08-28T12:58:22Z</time>
      </trkpt>
      <trkpt lat="40.307192" lon="-.994743">
        <ele>1168.728</ele>
        <time>2020-08-28T12:58:23Z</time>
      </trkpt>
      <trkpt lat="40.307145" lon="-.994724">
        <ele>1168.826</ele>
        <time>2020-08-28T12:58:25Z</time>
      </trkpt>
      <trkpt lat="40.307081" lon="-.994695">
        <ele>1168.966</ele>
        <time>2020-08-28T12:58:27Z</time>
      </trkpt>
      <trkpt lat="40.307021" lon="-.994677">
        <ele>1168.947</ele>
        <time>2020-08-28T12:58:29Z</time>
      </trkpt>
      <trkpt lat="40.306972" lon="-.994663">
        <ele>1169.129</ele>
        <time>2020-08-28T12:58:31Z</time>
      </trkpt>
      <trkpt lat="40.306917" lon="-.994649">
        <ele>1169.321</ele>
        <time>2020-08-28T12:58:33Z</time>
      </trkpt>
      <trkpt lat="40.306853" lon="-.994622">
        <ele>1169.408</ele>
        <time>2020-08-28T12:58:35Z</time>
      </trkpt>
      <trkpt lat="40.306806" lon="-.994605">
        <ele>1169.549</ele>
        <time>2020-08-28T12:58:36Z</time>
      </trkpt>
      <trkpt lat="40.306761" lon="-.994595">
        <ele>1169.559</ele>
        <time>2020-08-28T12:58:37Z</time>
      </trkpt>
      <trkpt lat="40.306717" lon="-.994579">
        <ele>1169.691</ele>
        <time>2020-08-28T12:58:39Z</time>
      </trkpt>
      <trkpt lat="40.306671" lon="-.99456">
        <ele>1169.733</ele>
        <time>2020-08-28T12:58:41Z</time>
      </trkpt>
      <trkpt lat="40.306624" lon="-.994557">
        <ele>1169.971</ele>
        <time>2020-08-28T12:58:43Z</time>
      </trkpt>
      <trkpt lat="40.306572" lon="-.994564">
        <ele>1170.038</ele>
        <time>2020-08-28T12:58:45Z</time>
      </trkpt>
      <trkpt lat="40.306518" lon="-.994553">
        <ele>1170.186</ele>
        <time>2020-08-28T12:58:47Z</time>
      </trkpt>
      <trkpt lat="40.306465" lon="-.994548">
        <ele>1170.246</ele>
        <time>2020-08-28T12:58:49Z</time>
      </trkpt>
      <trkpt lat="40.306413" lon="-.994536">
        <ele>1170.433</ele>
        <time>2020-08-28T12:58:51Z</time>
      </trkpt>
      <trkpt lat="40.30636" lon="-.99452">
        <ele>1170.523</ele>
        <time>2020-08-28T12:58:53Z</time>
      </trkpt>
      <trkpt lat="40.306305" lon="-.994513">
        <ele>1170.615</ele>
        <time>2020-08-28T12:58:55Z</time>
      </trkpt>
      <trkpt lat="40.306254" lon="-.994519">
        <ele>1170.808</ele>
        <time>2020-08-28T12:58:57Z</time>
      </trkpt>
      <trkpt lat="40.306196" lon="-.994517">
        <ele>1171.028</ele>
        <time>2020-08-28T12:58:59Z</time>
      </trkpt>
      <trkpt lat="40.306137" lon="-.994522">
        <ele>1171.268</ele>
        <time>2020-08-28T12:59:01Z</time>
      </trkpt>
      <trkpt lat="40.30608" lon="-.99453">
        <ele>1171.440</ele>
        <time>2020-08-28T12:59:03Z</time>
      </trkpt>
      <trkpt lat="40.306023" lon="-.994534">
        <ele>1171.582</ele>
        <time>2020-08-28T12:59:05Z</time>
      </trkpt>
      <trkpt lat="40.305965" lon="-.994537">
        <ele>1171.510</ele>
        <time>2020-08-28T12:59:07Z</time>
      </trkpt>
      <trkpt lat="40.305905" lon="-.99454">
        <ele>1171.567</ele>
        <time>2020-08-28T12:59:09Z</time>
      </trkpt>
      <trkpt lat="40.305846" lon="-.99454">
        <ele>1171.635</ele>
        <time>2020-08-28T12:59:11Z</time>
      </trkpt>
      <trkpt lat="40.305792" lon="-.99454">
        <ele>1171.875</ele>
        <time>2020-08-28T12:59:13Z</time>
      </trkpt>
      <trkpt lat="40.305735" lon="-.994524">
        <ele>1172.027</ele>
        <time>2020-08-28T12:59:15Z</time>
      </trkpt>
      <trkpt lat="40.305689" lon="-.99454">
        <ele>1172.068</ele>
        <time>2020-08-28T12:59:16Z</time>
      </trkpt>
      <trkpt lat="40.305631" lon="-.994556">
        <ele>1172.214</ele>
        <time>2020-08-28T12:59:18Z</time>
      </trkpt>
      <trkpt lat="40.305564" lon="-.994564">
        <ele>1172.408</ele>
        <time>2020-08-28T12:59:20Z</time>
      </trkpt>
      <trkpt lat="40.305503" lon="-.994565">
        <ele>1172.697</ele>
        <time>2020-08-28T12:59:22Z</time>
      </trkpt>
      <trkpt lat="40.30544" lon="-.994579">
        <ele>1172.777</ele>
        <time>2020-08-28T12:59:24Z</time>
      </trkpt>
      <trkpt lat="40.305374" lon="-.994587">
        <ele>1172.969</ele>
        <time>2020-08-28T12:59:26Z</time>
      </trkpt>
      <trkpt lat="40.305304" lon="-.994596">
        <ele>1173.011</ele>
        <time>2020-08-28T12:59:28Z</time>
      </trkpt>
      <trkpt lat="40.305241" lon="-.994613">
        <ele>1173.259</ele>
        <time>2020-08-28T12:59:30Z</time>
      </trkpt>
      <trkpt lat="40.305176" lon="-.994609">
        <ele>1173.476</ele>
        <time>2020-08-28T12:59:32Z</time>
      </trkpt>
      <trkpt lat="40.305102" lon="-.99461">
        <ele>1173.724</ele>
        <time>2020-08-28T12:59:34Z</time>
      </trkpt>
      <trkpt lat="40.305052" lon="-.99461">
        <ele>1173.784</ele>
        <time>2020-08-28T12:59:35Z</time>
      </trkpt>
      <trkpt lat="40.304997" lon="-.994608">
        <ele>1173.883</ele>
        <time>2020-08-28T12:59:37Z</time>
      </trkpt>
      <trkpt lat="40.304934" lon="-.994625">
        <ele>1173.925</ele>
        <time>2020-08-28T12:59:39Z</time>
      </trkpt>
      <trkpt lat="40.304866" lon="-.994619">
        <ele>1174.117</ele>
        <time>2020-08-28T12:59:41Z</time>
      </trkpt>
      <trkpt lat="40.304796" lon="-.994636">
        <ele>1174.208</ele>
        <time>2020-08-28T12:59:43Z</time>
      </trkpt>
      <trkpt lat="40.304735" lon="-.99464">
        <ele>1174.313</ele>
        <time>2020-08-28T12:59:45Z</time>
      </trkpt>
      <trkpt lat="40.304679" lon="-.994633">
        <ele>1174.473</ele>
        <time>2020-08-28T12:59:47Z</time>
      </trkpt>
      <trkpt lat="40.30461" lon="-.994633">
        <ele>1174.545</ele>
        <time>2020-08-28T12:59:49Z</time>
      </trkpt>
      <trkpt lat="40.30455" lon="-.99463">
        <ele>1174.727</ele>
        <time>2020-08-28T12:59:51Z</time>
      </trkpt>
      <trkpt lat="40.304495" lon="-.994635">
        <ele>1174.835</ele>
        <time>2020-08-28T12:59:52Z</time>
      </trkpt>
      <trkpt lat="40.304438" lon="-.994641">
        <ele>1174.922</ele>
        <time>2020-08-28T12:59:53Z</time>
      </trkpt>
      <trkpt lat="40.304382" lon="-.994647">
        <ele>1175.120</ele>
        <time>2020-08-28T12:59:55Z</time>
      </trkpt>
      <trkpt lat="40.304321" lon="-.994661">
        <ele>1175.380</ele>
        <time>2020-08-28T12:59:57Z</time>
      </trkpt>
      <trkpt lat="40.304251" lon="-.994675">
        <ele>1175.594</ele>
        <time>2020-08-28T12:59:59Z</time>
      </trkpt>
      <trkpt lat="40.304184" lon="-.994675">
        <ele>1175.657</ele>
        <time>2020-08-28T13:00:01Z</time>
      </trkpt>
      <trkpt lat="40.304115" lon="-.994675">
        <ele>1175.722</ele>
        <time>2020-08-28T13:00:03Z</time>
      </trkpt>
      <trkpt lat="40.304054" lon="-.994685">
        <ele>1175.808</ele>
        <time>2020-08-28T13:00:05Z</time>
      </trkpt>
      <trkpt lat="40.303994" lon="-.994693">
        <ele>1175.954</ele>
        <time>2020-08-28T13:00:07Z</time>
      </trkpt>
      <trkpt lat="40.303931" lon="-.994705">
        <ele>1176.084</ele>
        <time>2020-08-28T13:00:09Z</time>
      </trkpt>
      <trkpt lat="40.303882" lon="-.994711">
        <ele>1176.076</ele>
        <time>2020-08-28T13:00:10Z</time>
      </trkpt>
      <trkpt lat="40.303832" lon="-.994705">
        <ele>1176.048</ele>
        <time>2020-08-28T13:00:11Z</time>
      </trkpt>
      <trkpt lat="40.303774" lon="-.994712">
        <ele>1176.156</ele>
        <time>2020-08-28T13:00:13Z</time>
      </trkpt>
      <trkpt lat="40.303705" lon="-.994709">
        <ele>1176.213</ele>
        <time>2020-08-28T13:00:15Z</time>
      </trkpt>
      <trkpt lat="40.303645" lon="-.994713">
        <ele>1176.271</ele>
        <time>2020-08-28T13:00:17Z</time>
      </trkpt>
      <trkpt lat="40.303585" lon="-.994717">
        <ele>1176.311</ele>
        <time>2020-08-28T13:00:19Z</time>
      </trkpt>
      <trkpt lat="40.30353" lon="-.994724">
        <ele>1176.419</ele>
        <time>2020-08-28T13:00:21Z</time>
      </trkpt>
      <trkpt lat="40.303473" lon="-.994729">
        <ele>1176.609</ele>
        <time>2020-08-28T13:00:23Z</time>
      </trkpt>
      <trkpt lat="40.303416" lon="-.994734">
        <ele>1176.919</ele>
        <time>2020-08-28T13:00:25Z</time>
      </trkpt>
      <trkpt lat="40.303356" lon="-.994745">
        <ele>1176.908</ele>
        <time>2020-08-28T13:00:27Z</time>
      </trkpt>
      <trkpt lat="40.303306" lon="-.994751">
        <ele>1176.926</ele>
        <time>2020-08-28T13:00:28Z</time>
      </trkpt>
      <trkpt lat="40.303255" lon="-.994753">
        <ele>1176.916</ele>
        <time>2020-08-28T13:00:29Z</time>
      </trkpt>
      <trkpt lat="40.303201" lon="-.994766">
        <ele>1177.038</ele>
        <time>2020-08-28T13:00:31Z</time>
      </trkpt>
      <trkpt lat="40.303134" lon="-.994766">
        <ele>1177.140</ele>
        <time>2020-08-28T13:00:33Z</time>
      </trkpt>
      <trkpt lat="40.303073" lon="-.994775">
        <ele>1177.368</ele>
        <time>2020-08-28T13:00:35Z</time>
      </trkpt>
      <trkpt lat="40.303022" lon="-.994785">
        <ele>1177.485</ele>
        <time>2020-08-28T13:00:37Z</time>
      </trkpt>
      <trkpt lat="40.302966" lon="-.994793">
        <ele>1177.543</ele>
        <time>2020-08-28T13:00:39Z</time>
      </trkpt>
      <trkpt lat="40.302909" lon="-.99479">
        <ele>1177.623</ele>
        <time>2020-08-28T13:00:41Z</time>
      </trkpt>
      <trkpt lat="40.302852" lon="-.99479">
        <ele>1177.861</ele>
        <time>2020-08-28T13:00:43Z</time>
      </trkpt>
      <trkpt lat="40.302797" lon="-.994809">
        <ele>1177.921</ele>
        <time>2020-08-28T13:00:45Z</time>
      </trkpt>
      <trkpt lat="40.302749" lon="-.994815">
        <ele>1178.013</ele>
        <time>2020-08-28T13:00:46Z</time>
      </trkpt>
      <trkpt lat="40.302697" lon="-.994819">
        <ele>1178.108</ele>
        <time>2020-08-28T13:00:47Z</time>
      </trkpt>
      <trkpt lat="40.302644" lon="-.994816">
        <ele>1178.291</ele>
        <time>2020-08-28T13:00:49Z</time>
      </trkpt>
      <trkpt lat="40.302591" lon="-.994835">
        <ele>1178.381</ele>
        <time>2020-08-28T13:00:51Z</time>
      </trkpt>
      <trkpt lat="40.302532" lon="-.99485">
        <ele>1178.483</ele>
        <time>2020-08-28T13:00:53Z</time>
      </trkpt>
      <trkpt lat="40.302486" lon="-.994853">
        <ele>1178.535</ele>
        <time>2020-08-28T13:00:55Z</time>
      </trkpt>
      <trkpt lat="40.302425" lon="-.994864">
        <ele>1178.683</ele>
        <time>2020-08-28T13:00:57Z</time>
      </trkpt>
      <trkpt lat="40.302367" lon="-.994883">
        <ele>1178.740</ele>
        <time>2020-08-28T13:00:59Z</time>
      </trkpt>
      <trkpt lat="40.302311" lon="-.994898">
        <ele>1178.818</ele>
        <time>2020-08-28T13:01:01Z</time>
      </trkpt>
      <trkpt lat="40.302248" lon="-.99491">
        <ele>1179.098</ele>
        <time>2020-08-28T13:01:03Z</time>
      </trkpt>
      <trkpt lat="40.302198" lon="-.994915">
        <ele>1179.199</ele>
        <time>2020-08-28T13:01:04Z</time>
      </trkpt>
      <trkpt lat="40.302145" lon="-.994915">
        <ele>1179.207</ele>
        <time>2020-08-28T13:01:05Z</time>
      </trkpt>
      <trkpt lat="40.302095" lon="-.994918">
        <ele>1179.327</ele>
        <time>2020-08-28T13:01:07Z</time>
      </trkpt>
      <trkpt lat="40.302043" lon="-.994942">
        <ele>1179.408</ele>
        <time>2020-08-28T13:01:09Z</time>
      </trkpt>
      <trkpt lat="40.301988" lon="-.994935">
        <ele>1179.534</ele>
        <time>2020-08-28T13:01:11Z</time>
      </trkpt>
      <trkpt lat="40.301928" lon="-.994938">
        <ele>1179.664</ele>
        <time>2020-08-28T13:01:13Z</time>
      </trkpt>
      <trkpt lat="40.301864" lon="-.994937">
        <ele>1179.846</ele>
        <time>2020-08-28T13:01:15Z</time>
      </trkpt>
      <trkpt lat="40.3018" lon="-.994937">
        <ele>1179.998</ele>
        <time>2020-08-28T13:01:17Z</time>
      </trkpt>
      <trkpt lat="40.301744" lon="-.994936">
        <ele>1180.096</ele>
        <time>2020-08-28T13:01:19Z</time>
      </trkpt>
      <trkpt lat="40.301686" lon="-.994941">
        <ele>1180.193</ele>
        <time>2020-08-28T13:01:21Z</time>
      </trkpt>
      <trkpt lat="40.301595" lon="-.994956">
        <ele>1180.261</ele>
        <time>2020-08-28T13:01:23Z</time>
      </trkpt>
      <trkpt lat="40.301545" lon="-.994963">
        <ele>1180.311</ele>
        <time>2020-08-28T13:01:25Z</time>
      </trkpt>
      <trkpt lat="40.301481" lon="-.994982">
        <ele>1180.524</ele>
        <time>2020-08-28T13:01:27Z</time>
      </trkpt>
      <trkpt lat="40.30141" lon="-.994989">
        <ele>1180.704</ele>
        <time>2020-08-28T13:01:30Z</time>
      </trkpt>
      <trkpt lat="40.301353" lon="-.994994">
        <ele>1180.914</ele>
        <time>2020-08-28T13:01:32Z</time>
      </trkpt>
      <trkpt lat="40.301293" lon="-.995">
        <ele>1181.008</ele>
        <time>2020-08-28T13:01:34Z</time>
      </trkpt>
      <trkpt lat="40.301241" lon="-.995003">
        <ele>1181.217</ele>
        <time>2020-08-28T13:01:36Z</time>
      </trkpt>
      <trkpt lat="40.301184" lon="-.99501">
        <ele>1181.427</ele>
        <time>2020-08-28T13:01:38Z</time>
      </trkpt>
      <trkpt lat="40.301117" lon="-.995015">
        <ele>1181.589</ele>
        <time>2020-08-28T13:01:40Z</time>
      </trkpt>
      <trkpt lat="40.301071" lon="-.995022">
        <ele>1181.681</ele>
        <time>2020-08-28T13:01:41Z</time>
      </trkpt>
      <trkpt lat="40.301009" lon="-.995045">
        <ele>1181.889</ele>
        <time>2020-08-28T13:01:44Z</time>
      </trkpt>
      <trkpt lat="40.300951" lon="-.995052">
        <ele>1181.816</ele>
        <time>2020-08-28T13:01:46Z</time>
      </trkpt>
      <trkpt lat="40.300884" lon="-.995058">
        <ele>1181.974</ele>
        <time>2020-08-28T13:01:48Z</time>
      </trkpt>
      <trkpt lat="40.300829" lon="-.995061">
        <ele>1182.024</ele>
        <time>2020-08-28T13:01:49Z</time>
      </trkpt>
      <trkpt lat="40.300782" lon="-.995064">
        <ele>1182.142</ele>
        <time>2020-08-28T13:01:50Z</time>
      </trkpt>
      <trkpt lat="40.300736" lon="-.995069">
        <ele>1182.222</ele>
        <time>2020-08-28T13:01:51Z</time>
      </trkpt>
      <trkpt lat="40.300688" lon="-.995068">
        <ele>1182.414</ele>
        <time>2020-08-28T13:01:53Z</time>
      </trkpt>
      <trkpt lat="40.300632" lon="-.995074">
        <ele>1182.508</ele>
        <time>2020-08-28T13:01:55Z</time>
      </trkpt>
      <trkpt lat="40.30056" lon="-.995073">
        <ele>1182.789</ele>
        <time>2020-08-28T13:01:57Z</time>
      </trkpt>
      <trkpt lat="40.300498" lon="-.995073">
        <ele>1182.989</ele>
        <time>2020-08-28T13:01:59Z</time>
      </trkpt>
      <trkpt lat="40.300436" lon="-.995068">
        <ele>1183.011</ele>
        <time>2020-08-28T13:02:01Z</time>
      </trkpt>
      <trkpt lat="40.300376" lon="-.995062">
        <ele>1183.113</ele>
        <time>2020-08-28T13:02:03Z</time>
      </trkpt>
      <trkpt lat="40.300314" lon="-.995062">
        <ele>1183.241</ele>
        <time>2020-08-28T13:02:05Z</time>
      </trkpt>
      <trkpt lat="40.300246" lon="-.995042">
        <ele>1183.318</ele>
        <time>2020-08-28T13:02:08Z</time>
      </trkpt>
      <trkpt lat="40.300188" lon="-.995041">
        <ele>1183.476</ele>
        <time>2020-08-28T13:02:10Z</time>
      </trkpt>
      <trkpt lat="40.300098" lon="-.995052">
        <ele>1183.666</ele>
        <time>2020-08-28T13:02:12Z</time>
      </trkpt>
      <trkpt lat="40.300025" lon="-.995037">
        <ele>1183.848</ele>
        <time>2020-08-28T13:02:14Z</time>
      </trkpt>
      <trkpt lat="40.299958" lon="-.995037">
        <ele>1184.061</ele>
        <time>2020-08-28T13:02:17Z</time>
      </trkpt>
      <trkpt lat="40.299899" lon="-.995029">
        <ele>1184.117</ele>
        <time>2020-08-28T13:02:19Z</time>
      </trkpt>
      <trkpt lat="40.299837" lon="-.99502">
        <ele>1184.108</ele>
        <time>2020-08-28T13:02:21Z</time>
      </trkpt>
      <trkpt lat="40.299765" lon="-.995021">
        <ele>1184.229</ele>
        <time>2020-08-28T13:02:23Z</time>
      </trkpt>
      <trkpt lat="40.299714" lon="-.995013">
        <ele>1184.349</ele>
        <time>2020-08-28T13:02:25Z</time>
      </trkpt>
      <trkpt lat="40.299662" lon="-.995002">
        <ele>1184.411</ele>
        <time>2020-08-28T13:02:27Z</time>
      </trkpt>
      <trkpt lat="40.299597" lon="-.994981">
        <ele>1184.593</ele>
        <time>2020-08-28T13:02:29Z</time>
      </trkpt>
      <trkpt lat="40.299541" lon="-.994964">
        <ele>1184.641</ele>
        <time>2020-08-28T13:02:31Z</time>
      </trkpt>
      <trkpt lat="40.29949" lon="-.99496">
        <ele>1184.718</ele>
        <time>2020-08-28T13:02:33Z</time>
      </trkpt>
      <trkpt lat="40.299433" lon="-.994949">
        <ele>1184.816</ele>
        <time>2020-08-28T13:02:35Z</time>
      </trkpt>
      <trkpt lat="40.299389" lon="-.994936">
        <ele>1185.126</ele>
        <time>2020-08-28T13:02:37Z</time>
      </trkpt>
      <trkpt lat="40.299321" lon="-.994916">
        <ele>1185.331</ele>
        <time>2020-08-28T13:02:39Z</time>
      </trkpt>
      <trkpt lat="40.299265" lon="-.994911">
        <ele>1185.361</ele>
        <time>2020-08-28T13:02:41Z</time>
      </trkpt>
      <trkpt lat="40.299208" lon="-.994895">
        <ele>1185.307</ele>
        <time>2020-08-28T13:02:43Z</time>
      </trkpt>
      <trkpt lat="40.299148" lon="-.99487">
        <ele>1185.408</ele>
        <time>2020-08-28T13:02:45Z</time>
      </trkpt>
      <trkpt lat="40.29909" lon="-.994859">
        <ele>1185.618</ele>
        <time>2020-08-28T13:02:47Z</time>
      </trkpt>
      <trkpt lat="40.299033" lon="-.994837">
        <ele>1185.818</ele>
        <time>2020-08-28T13:02:49Z</time>
      </trkpt>
      <trkpt lat="40.298973" lon="-.994818">
        <ele>1185.970</ele>
        <time>2020-08-28T13:02:51Z</time>
      </trkpt>
      <trkpt lat="40.298915" lon="-.994801">
        <ele>1185.992</ele>
        <time>2020-08-28T13:02:53Z</time>
      </trkpt>
      <trkpt lat="40.298863" lon="-.994785">
        <ele>1185.960</ele>
        <time>2020-08-28T13:02:55Z</time>
      </trkpt>
      <trkpt lat="40.298808" lon="-.994763">
        <ele>1186.017</ele>
        <time>2020-08-28T13:02:57Z</time>
      </trkpt>
      <trkpt lat="40.298755" lon="-.994741">
        <ele>1186.275</ele>
        <time>2020-08-28T13:02:59Z</time>
      </trkpt>
      <trkpt lat="40.2987" lon="-.994722">
        <ele>1186.435</ele>
        <time>2020-08-28T13:03:01Z</time>
      </trkpt>
      <trkpt lat="40.298646" lon="-.994702">
        <ele>1186.664</ele>
        <time>2020-08-28T13:03:03Z</time>
      </trkpt>
      <trkpt lat="40.298593" lon="-.994678">
        <ele>1186.806</ele>
        <time>2020-08-28T13:03:05Z</time>
      </trkpt>
      <trkpt lat="40.298536" lon="-.994659">
        <ele>1186.916</ele>
        <time>2020-08-28T13:03:07Z</time>
      </trkpt>
      <trkpt lat="40.298486" lon="-.994635">
        <ele>1187.008</ele>
        <time>2020-08-28T13:03:09Z</time>
      </trkpt>
      <trkpt lat="40.298426" lon="-.994624">
        <ele>1187.091</ele>
        <time>2020-08-28T13:03:11Z</time>
      </trkpt>
      <trkpt lat="40.298372" lon="-.994592">
        <ele>1187.091</ele>
        <time>2020-08-28T13:03:13Z</time>
      </trkpt>
      <trkpt lat="40.298325" lon="-.994572">
        <ele>1187.123</ele>
        <time>2020-08-28T13:03:15Z</time>
      </trkpt>
      <trkpt lat="40.298271" lon="-.994557">
        <ele>1187.225</ele>
        <time>2020-08-28T13:03:17Z</time>
      </trkpt>
      <trkpt lat="40.298213" lon="-.994529">
        <ele>1187.393</ele>
        <time>2020-08-28T13:03:19Z</time>
      </trkpt>
      <trkpt lat="40.298157" lon="-.994498">
        <ele>1187.480</ele>
        <time>2020-08-28T13:03:21Z</time>
      </trkpt>
      <trkpt lat="40.298104" lon="-.994472">
        <ele>1187.568</ele>
        <time>2020-08-28T13:03:23Z</time>
      </trkpt>
      <trkpt lat="40.298052" lon="-.994447">
        <ele>1187.638</ele>
        <time>2020-08-28T13:03:25Z</time>
      </trkpt>
      <trkpt lat="40.297996" lon="-.994423">
        <ele>1187.743</ele>
        <time>2020-08-28T13:03:27Z</time>
      </trkpt>
      <trkpt lat="40.297946" lon="-.994392">
        <ele>1187.864</ele>
        <time>2020-08-28T13:03:29Z</time>
      </trkpt>
      <trkpt lat="40.297892" lon="-.994367">
        <ele>1187.910</ele>
        <time>2020-08-28T13:03:31Z</time>
      </trkpt>
      <trkpt lat="40.297846" lon="-.994338">
        <ele>1188.008</ele>
        <time>2020-08-28T13:03:33Z</time>
      </trkpt>
      <trkpt lat="40.297799" lon="-.994302">
        <ele>1188.169</ele>
        <time>2020-08-28T13:03:35Z</time>
      </trkpt>
      <trkpt lat="40.297752" lon="-.994275">
        <ele>1188.229</ele>
        <time>2020-08-28T13:03:37Z</time>
      </trkpt>
      <trkpt lat="40.297705" lon="-.994258">
        <ele>1188.311</ele>
        <time>2020-08-28T13:03:39Z</time>
      </trkpt>
      <trkpt lat="40.297662" lon="-.994235">
        <ele>1188.553</ele>
        <time>2020-08-28T13:03:41Z</time>
      </trkpt>
      <trkpt lat="40.297613" lon="-.994208">
        <ele>1188.691</ele>
        <time>2020-08-28T13:03:43Z</time>
      </trkpt>
      <trkpt lat="40.297561" lon="-.994176">
        <ele>1188.748</ele>
        <time>2020-08-28T13:03:45Z</time>
      </trkpt>
      <trkpt lat="40.297512" lon="-.994138">
        <ele>1188.786</ele>
        <time>2020-08-28T13:03:47Z</time>
      </trkpt>
      <trkpt lat="40.297462" lon="-.994109">
        <ele>1188.896</ele>
        <time>2020-08-28T13:03:49Z</time>
      </trkpt>
      <trkpt lat="40.297416" lon="-.994075">
        <ele>1188.948</ele>
        <time>2020-08-28T13:03:51Z</time>
      </trkpt>
      <trkpt lat="40.297366" lon="-.994031">
        <ele>1189.161</ele>
        <time>2020-08-28T13:03:53Z</time>
      </trkpt>
      <trkpt lat="40.297315" lon="-.993995">
        <ele>1189.217</ele>
        <time>2020-08-28T13:03:55Z</time>
      </trkpt>
      <trkpt lat="40.29727" lon="-.993959">
        <ele>1189.308</ele>
        <time>2020-08-28T13:03:57Z</time>
      </trkpt>
      <trkpt lat="40.297219" lon="-.99392">
        <ele>1189.349</ele>
        <time>2020-08-28T13:03:59Z</time>
      </trkpt>
      <trkpt lat="40.297162" lon="-.993892">
        <ele>1189.599</ele>
        <time>2020-08-28T13:04:02Z</time>
      </trkpt>
      <trkpt lat="40.29703" lon="-.993826">
        <ele>1189.671</ele>
        <time>2020-08-28T13:04:32Z</time>
      </trkpt>
      <trkpt lat="40.296985" lon="-.993782">
        <ele>1190.413</ele>
        <time>2020-08-28T13:09:06Z</time>
      </trkpt>
      <trkpt lat="40.296939" lon="-.993746">
        <ele>1190.511</ele>
        <time>2020-08-28T13:09:10Z</time>
      </trkpt>
      <trkpt lat="40.296882" lon="-.993703">
        <ele>1190.788</ele>
        <time>2020-08-28T13:09:13Z</time>
      </trkpt>
      <trkpt lat="40.296828" lon="-.993653">
        <ele>1190.926</ele>
        <time>2020-08-28T13:09:16Z</time>
      </trkpt>
      <trkpt lat="40.29677" lon="-.993618">
        <ele>1191.036</ele>
        <time>2020-08-28T13:09:19Z</time>
      </trkpt>
      <trkpt lat="40.296729" lon="-.99359">
        <ele>1191.144</ele>
        <time>2020-08-28T13:09:21Z</time>
      </trkpt>
      <trkpt lat="40.296675" lon="-.99354">
        <ele>1191.205</ele>
        <time>2020-08-28T13:09:24Z</time>
      </trkpt>
      <trkpt lat="40.296632" lon="-.993509">
        <ele>1191.215</ele>
        <time>2020-08-28T13:09:26Z</time>
      </trkpt>
      <trkpt lat="40.296598" lon="-.993469">
        <ele>1191.408</ele>
        <time>2020-08-28T13:09:28Z</time>
      </trkpt>
      <trkpt lat="40.296555" lon="-.993438">
        <ele>1191.589</ele>
        <time>2020-08-28T13:09:30Z</time>
      </trkpt>
      <trkpt lat="40.296509" lon="-.993412">
        <ele>1191.649</ele>
        <time>2020-08-28T13:09:32Z</time>
      </trkpt>
      <trkpt lat="40.296455" lon="-.993384">
        <ele>1191.991</ele>
        <time>2020-08-28T13:09:36Z</time>
      </trkpt>
      <trkpt lat="40.296399" lon="-.993342">
        <ele>1192.163</ele>
        <time>2020-08-28T13:09:39Z</time>
      </trkpt>
      <trkpt lat="40.296356" lon="-.993298">
        <ele>1192.271</ele>
        <time>2020-08-28T13:09:42Z</time>
      </trkpt>
      <trkpt lat="40.296292" lon="-.993249">
        <ele>1192.358</ele>
        <time>2020-08-28T13:09:45Z</time>
      </trkpt>
      <trkpt lat="40.296236" lon="-.993208">
        <ele>1192.466</ele>
        <time>2020-08-28T13:09:47Z</time>
      </trkpt>
      <trkpt lat="40.29618" lon="-.993161">
        <ele>1192.596</ele>
        <time>2020-08-28T13:09:50Z</time>
      </trkpt>
      <trkpt lat="40.29614" lon="-.993131">
        <ele>1192.651</ele>
        <time>2020-08-28T13:09:52Z</time>
      </trkpt>
      <trkpt lat="40.296102" lon="-.993095">
        <ele>1192.701</ele>
        <time>2020-08-28T13:09:54Z</time>
      </trkpt>
      <trkpt lat="40.29604" lon="-.993048">
        <ele>1193.011</ele>
        <time>2020-08-28T13:09:57Z</time>
      </trkpt>
      <trkpt lat="40.295998" lon="-.993005">
        <ele>1193.308</ele>
        <time>2020-08-28T13:09:59Z</time>
      </trkpt>
      <trkpt lat="40.295957" lon="-.992971">
        <ele>1193.430</ele>
        <time>2020-08-28T13:10:01Z</time>
      </trkpt>
      <trkpt lat="40.295915" lon="-.992937">
        <ele>1193.550</ele>
        <time>2020-08-28T13:10:03Z</time>
      </trkpt>
      <trkpt lat="40.295872" lon="-.992896">
        <ele>1193.512</ele>
        <time>2020-08-28T13:10:05Z</time>
      </trkpt>
      <trkpt lat="40.295828" lon="-.992854">
        <ele>1193.694</ele>
        <time>2020-08-28T13:10:07Z</time>
      </trkpt>
      <trkpt lat="40.295785" lon="-.992811">
        <ele>1193.892</ele>
        <time>2020-08-28T13:10:10Z</time>
      </trkpt>
      <trkpt lat="40.295717" lon="-.992757">
        <ele>1193.819</ele>
        <time>2020-08-28T13:10:12Z</time>
      </trkpt>
      <trkpt lat="40.295679" lon="-.992725">
        <ele>1193.877</ele>
        <time>2020-08-28T13:10:14Z</time>
      </trkpt>
      <trkpt lat="40.295634" lon="-.992682">
        <ele>1194.047</ele>
        <time>2020-08-28T13:10:16Z</time>
      </trkpt>
      <trkpt lat="40.295585" lon="-.992646">
        <ele>1194.173</ele>
        <time>2020-08-28T13:10:18Z</time>
      </trkpt>
      <trkpt lat="40.295539" lon="-.992617">
        <ele>1194.285</ele>
        <time>2020-08-28T13:10:20Z</time>
      </trkpt>
      <trkpt lat="40.295499" lon="-.992575">
        <ele>1194.313</ele>
        <time>2020-08-28T13:10:22Z</time>
      </trkpt>
      <trkpt lat="40.295437" lon="-.992532">
        <ele>1194.408</ele>
        <time>2020-08-28T13:10:25Z</time>
      </trkpt>
      <trkpt lat="40.295396" lon="-.992506">
        <ele>1194.572</ele>
        <time>2020-08-28T13:10:27Z</time>
      </trkpt>
      <trkpt lat="40.295332" lon="-.992455">
        <ele>1194.592</ele>
        <time>2020-08-28T13:10:30Z</time>
      </trkpt>
      <trkpt lat="40.295292" lon="-.992423">
        <ele>1194.624</ele>
        <time>2020-08-28T13:10:32Z</time>
      </trkpt>
      <trkpt lat="40.29523" lon="-.992384">
        <ele>1194.816</ele>
        <time>2020-08-28T13:10:35Z</time>
      </trkpt>
      <trkpt lat="40.295184" lon="-.99235">
        <ele>1195.014</ele>
        <time>2020-08-28T13:10:37Z</time>
      </trkpt>
      <trkpt lat="40.29514" lon="-.99232">
        <ele>1195.261</ele>
        <time>2020-08-28T13:10:39Z</time>
      </trkpt>
      <trkpt lat="40.295078" lon="-.992278">
        <ele>1195.469</ele>
        <time>2020-08-28T13:10:42Z</time>
      </trkpt>
      <trkpt lat="40.295029" lon="-.992236">
        <ele>1195.529</ele>
        <time>2020-08-28T13:10:44Z</time>
      </trkpt>
      <trkpt lat="40.294985" lon="-.99221">
        <ele>1195.678</ele>
        <time>2020-08-28T13:10:46Z</time>
      </trkpt>
      <trkpt lat="40.294945" lon="-.992178">
        <ele>1195.633</ele>
        <time>2020-08-28T13:10:48Z</time>
      </trkpt>
      <trkpt lat="40.294897" lon="-.99214">
        <ele>1195.626</ele>
        <time>2020-08-28T13:10:50Z</time>
      </trkpt>
      <trkpt lat="40.294858" lon="-.992105">
        <ele>1195.608</ele>
        <time>2020-08-28T13:10:52Z</time>
      </trkpt>
      <trkpt lat="40.294817" lon="-.992075">
        <ele>1195.642</ele>
        <time>2020-08-28T13:10:54Z</time>
      </trkpt>
      <trkpt lat="40.294776" lon="-.992036">
        <ele>1195.882</ele>
        <time>2020-08-28T13:10:56Z</time>
      </trkpt>
      <trkpt lat="40.29473" lon="-.991995">
        <ele>1196.094</ele>
        <time>2020-08-28T13:10:58Z</time>
      </trkpt>
      <trkpt lat="40.294688" lon="-.991956">
        <ele>1196.216</ele>
        <time>2020-08-28T13:11:00Z</time>
      </trkpt>
      <trkpt lat="40.294643" lon="-.991913">
        <ele>1196.354</ele>
        <time>2020-08-28T13:11:02Z</time>
      </trkpt>
      <trkpt lat="40.294599" lon="-.991872">
        <ele>1196.311</ele>
        <time>2020-08-28T13:11:04Z</time>
      </trkpt>
      <trkpt lat="40.294554" lon="-.991827">
        <ele>1196.339</ele>
        <time>2020-08-28T13:11:06Z</time>
      </trkpt>
      <trkpt lat="40.294497" lon="-.991786">
        <ele>1196.579</ele>
        <time>2020-08-28T13:11:09Z</time>
      </trkpt>
      <trkpt lat="40.294446" lon="-.991752">
        <ele>1196.671</ele>
        <time>2020-08-28T13:11:11Z</time>
      </trkpt>
      <trkpt lat="40.294395" lon="-.991717">
        <ele>1196.741</ele>
        <time>2020-08-28T13:11:13Z</time>
      </trkpt>
      <trkpt lat="40.294347" lon="-.991684">
        <ele>1196.915</ele>
        <time>2020-08-28T13:11:15Z</time>
      </trkpt>
      <trkpt lat="40.2943" lon="-.991659">
        <ele>1197.108</ele>
        <time>2020-08-28T13:11:17Z</time>
      </trkpt>
      <trkpt lat="40.294249" lon="-.991618">
        <ele>1197.362</ele>
        <time>2020-08-28T13:11:19Z</time>
      </trkpt>
      <trkpt lat="40.294193" lon="-.991585">
        <ele>1197.412</ele>
        <time>2020-08-28T13:11:21Z</time>
      </trkpt>
      <trkpt lat="40.29415" lon="-.991561">
        <ele>1197.584</ele>
        <time>2020-08-28T13:11:23Z</time>
      </trkpt>
      <trkpt lat="40.294106" lon="-.991533">
        <ele>1197.686</ele>
        <time>2020-08-28T13:11:25Z</time>
      </trkpt>
      <trkpt lat="40.294062" lon="-.991495">
        <ele>1197.844</ele>
        <time>2020-08-28T13:11:27Z</time>
      </trkpt>
      <trkpt lat="40.29401" lon="-.991469">
        <ele>1198.051</ele>
        <time>2020-08-28T13:11:29Z</time>
      </trkpt>
      <trkpt lat="40.293958" lon="-.99144">
        <ele>1198.139</ele>
        <time>2020-08-28T13:11:31Z</time>
      </trkpt>
      <trkpt lat="40.293906" lon="-.991421">
        <ele>1198.229</ele>
        <time>2020-08-28T13:11:33Z</time>
      </trkpt>
      <trkpt lat="40.293856" lon="-.991384">
        <ele>1198.485</ele>
        <time>2020-08-28T13:11:35Z</time>
      </trkpt>
      <trkpt lat="40.293805" lon="-.991362">
        <ele>1198.789</ele>
        <time>2020-08-28T13:11:37Z</time>
      </trkpt>
      <trkpt lat="40.29375" lon="-.991334">
        <ele>1198.917</ele>
        <time>2020-08-28T13:11:39Z</time>
      </trkpt>
      <trkpt lat="40.293699" lon="-.991308">
        <ele>1199.108</ele>
        <time>2020-08-28T13:11:41Z</time>
      </trkpt>
      <trkpt lat="40.293645" lon="-.991284">
        <ele>1199.273</ele>
        <time>2020-08-28T13:11:43Z</time>
      </trkpt>
      <trkpt lat="40.293591" lon="-.991265">
        <ele>1199.293</ele>
        <time>2020-08-28T13:11:45Z</time>
      </trkpt>
      <trkpt lat="40.293539" lon="-.991242">
        <ele>1199.295</ele>
        <time>2020-08-28T13:11:47Z</time>
      </trkpt>
      <trkpt lat="40.293492" lon="-.991223">
        <ele>1199.217</ele>
        <time>2020-08-28T13:11:49Z</time>
      </trkpt>
      <trkpt lat="40.293442" lon="-.991213">
        <ele>1199.275</ele>
        <time>2020-08-28T13:11:51Z</time>
      </trkpt>
      <trkpt lat="40.293395" lon="-.991191">
        <ele>1199.352</ele>
        <time>2020-08-28T13:11:53Z</time>
      </trkpt>
      <trkpt lat="40.293347" lon="-.991167">
        <ele>1199.470</ele>
        <time>2020-08-28T13:11:55Z</time>
      </trkpt>
      <trkpt lat="40.293295" lon="-.991146">
        <ele>1199.420</ele>
        <time>2020-08-28T13:11:58Z</time>
      </trkpt>
      <trkpt lat="40.293153" lon="-.991071">
        <ele>1199.564</ele>
        <time>2020-08-28T13:13:38Z</time>
      </trkpt>
      <trkpt lat="40.293104" lon="-.991047">
        <ele>1199.906</ele>
        <time>2020-08-28T13:14:09Z</time>
      </trkpt>
      <trkpt lat="40.293052" lon="-.991032">
        <ele>1200.216</ele>
        <time>2020-08-28T13:14:13Z</time>
      </trkpt>
      <trkpt lat="40.293" lon="-.991034">
        <ele>1200.308</ele>
        <time>2020-08-28T13:14:16Z</time>
      </trkpt>
      <trkpt lat="40.292956" lon="-.991022">
        <ele>1200.351</ele>
        <time>2020-08-28T13:14:18Z</time>
      </trkpt>
      <trkpt lat="40.292907" lon="-.990997">
        <ele>1200.461</ele>
        <time>2020-08-28T13:14:20Z</time>
      </trkpt>
      <trkpt lat="40.292858" lon="-.990994">
        <ele>1200.683</ele>
        <time>2020-08-28T13:14:22Z</time>
      </trkpt>
      <trkpt lat="40.29281" lon="-.990975">
        <ele>1200.935</ele>
        <time>2020-08-28T13:14:24Z</time>
      </trkpt>
      <trkpt lat="40.292761" lon="-.990964">
        <ele>1200.963</ele>
        <time>2020-08-28T13:14:26Z</time>
      </trkpt>
      <trkpt lat="40.292707" lon="-.99095">
        <ele>1200.920</ele>
        <time>2020-08-28T13:14:28Z</time>
      </trkpt>
      <trkpt lat="40.292659" lon="-.990941">
        <ele>1200.988</ele>
        <time>2020-08-28T13:14:30Z</time>
      </trkpt>
      <trkpt lat="40.292608" lon="-.990928">
        <ele>1200.988</ele>
        <time>2020-08-28T13:14:33Z</time>
      </trkpt>
      <trkpt lat="40.292548" lon="-.990919">
        <ele>1200.926</ele>
        <time>2020-08-28T13:14:36Z</time>
      </trkpt>
      <trkpt lat="40.292486" lon="-.990906">
        <ele>1201.147</ele>
        <time>2020-08-28T13:14:38Z</time>
      </trkpt>
      <trkpt lat="40.292438" lon="-.990898">
        <ele>1201.211</ele>
        <time>2020-08-28T13:14:41Z</time>
      </trkpt>
      <trkpt lat="40.292376" lon="-.990883">
        <ele>1201.308</ele>
        <time>2020-08-28T13:14:44Z</time>
      </trkpt>
      <trkpt lat="40.292312" lon="-.990859">
        <ele>1201.327</ele>
        <time>2020-08-28T13:14:47Z</time>
      </trkpt>
      <trkpt lat="40.292252" lon="-.990848">
        <ele>1201.377</ele>
        <time>2020-08-28T13:14:50Z</time>
      </trkpt>
      <trkpt lat="40.292182" lon="-.990827">
        <ele>1201.669</ele>
        <time>2020-08-28T13:14:53Z</time>
      </trkpt>
      <trkpt lat="40.292132" lon="-.990807">
        <ele>1201.881</ele>
        <time>2020-08-28T13:14:55Z</time>
      </trkpt>
      <trkpt lat="40.292085" lon="-.990797">
        <ele>1201.929</ele>
        <time>2020-08-28T13:14:57Z</time>
      </trkpt>
      <trkpt lat="40.292036" lon="-.990779">
        <ele>1202.176</ele>
        <time>2020-08-28T13:14:59Z</time>
      </trkpt>
      <trkpt lat="40.291969" lon="-.99076">
        <ele>1202.374</ele>
        <time>2020-08-28T13:15:02Z</time>
      </trkpt>
      <trkpt lat="40.291918" lon="-.990746">
        <ele>1202.384</ele>
        <time>2020-08-28T13:15:04Z</time>
      </trkpt>
      <trkpt lat="40.291864" lon="-.990737">
        <ele>1202.326</ele>
        <time>2020-08-28T13:15:06Z</time>
      </trkpt>
      <trkpt lat="40.291798" lon="-.990713">
        <ele>1202.447</ele>
        <time>2020-08-28T13:15:09Z</time>
      </trkpt>
      <trkpt lat="40.291744" lon="-.990694">
        <ele>1202.511</ele>
        <time>2020-08-28T13:15:11Z</time>
      </trkpt>
      <trkpt lat="40.291693" lon="-.990681">
        <ele>1202.608</ele>
        <time>2020-08-28T13:15:13Z</time>
      </trkpt>
      <trkpt lat="40.291641" lon="-.990665">
        <ele>1202.747</ele>
        <time>2020-08-28T13:15:15Z</time>
      </trkpt>
      <trkpt lat="40.291596" lon="-.990649">
        <ele>1202.747</ele>
        <time>2020-08-28T13:15:17Z</time>
      </trkpt>
      <trkpt lat="40.291544" lon="-.990637">
        <ele>1202.899</ele>
        <time>2020-08-28T13:15:19Z</time>
      </trkpt>
      <trkpt lat="40.291489" lon="-.990619">
        <ele>1203.071</ele>
        <time>2020-08-28T13:15:21Z</time>
      </trkpt>
      <trkpt lat="40.291441" lon="-.990608">
        <ele>1203.169</ele>
        <time>2020-08-28T13:15:23Z</time>
      </trkpt>
      <trkpt lat="40.291387" lon="-.990608">
        <ele>1203.216</ele>
        <time>2020-08-28T13:15:25Z</time>
      </trkpt>
      <trkpt lat="40.291339" lon="-.990604">
        <ele>1203.234</ele>
        <time>2020-08-28T13:15:27Z</time>
      </trkpt>
      <trkpt lat="40.291289" lon="-.990605">
        <ele>1203.384</ele>
        <time>2020-08-28T13:15:29Z</time>
      </trkpt>
      <trkpt lat="40.291238" lon="-.990585">
        <ele>1203.391</ele>
        <time>2020-08-28T13:15:31Z</time>
      </trkpt>
      <trkpt lat="40.29119" lon="-.990573">
        <ele>1203.481</ele>
        <time>2020-08-28T13:15:33Z</time>
      </trkpt>
      <trkpt lat="40.291135" lon="-.990556">
        <ele>1203.519</ele>
        <time>2020-08-28T13:15:35Z</time>
      </trkpt>
      <trkpt lat="40.291082" lon="-.990543">
        <ele>1203.608</ele>
        <time>2020-08-28T13:15:37Z</time>
      </trkpt>
      <trkpt lat="40.291028" lon="-.990527">
        <ele>1203.764</ele>
        <time>2020-08-28T13:15:39Z</time>
      </trkpt>
      <trkpt lat="40.290975" lon="-.990513">
        <ele>1203.844</ele>
        <time>2020-08-28T13:15:41Z</time>
      </trkpt>
      <trkpt lat="40.290929" lon="-.990502">
        <ele>1203.986</ele>
        <time>2020-08-28T13:15:43Z</time>
      </trkpt>
      <trkpt lat="40.290878" lon="-.990485">
        <ele>1204.188</ele>
        <time>2020-08-28T13:15:45Z</time>
      </trkpt>
      <trkpt lat="40.290834" lon="-.990471">
        <ele>1204.236</ele>
        <time>2020-08-28T13:15:47Z</time>
      </trkpt>
      <trkpt lat="40.290789" lon="-.99046">
        <ele>1204.323</ele>
        <time>2020-08-28T13:15:49Z</time>
      </trkpt>
      <trkpt lat="40.290742" lon="-.990453">
        <ele>1204.521</ele>
        <time>2020-08-28T13:15:51Z</time>
      </trkpt>
      <trkpt lat="40.290693" lon="-.990441">
        <ele>1204.721</ele>
        <time>2020-08-28T13:15:53Z</time>
      </trkpt>
      <trkpt lat="40.290645" lon="-.990426">
        <ele>1204.861</ele>
        <time>2020-08-28T13:15:55Z</time>
      </trkpt>
      <trkpt lat="40.290588" lon="-.990407">
        <ele>1204.921</ele>
        <time>2020-08-28T13:15:57Z</time>
      </trkpt>
      <trkpt lat="40.290531" lon="-.990397">
        <ele>1205.013</ele>
        <time>2020-08-28T13:15:59Z</time>
      </trkpt>
      <trkpt lat="40.290476" lon="-.990376">
        <ele>1205.108</ele>
        <time>2020-08-28T13:16:01Z</time>
      </trkpt>
      <trkpt lat="40.29043" lon="-.990361">
        <ele>1205.241</ele>
        <time>2020-08-28T13:16:02Z</time>
      </trkpt>
      <trkpt lat="40.290383" lon="-.990343">
        <ele>1205.341</ele>
        <time>2020-08-28T13:16:04Z</time>
      </trkpt>
      <trkpt lat="40.290328" lon="-.990334">
        <ele>1205.423</ele>
        <time>2020-08-28T13:16:06Z</time>
      </trkpt>
      <trkpt lat="40.290277" lon="-.990316">
        <ele>1205.685</ele>
        <time>2020-08-28T13:16:08Z</time>
      </trkpt>
      <trkpt lat="40.290224" lon="-.990299">
        <ele>1205.683</ele>
        <time>2020-08-28T13:16:10Z</time>
      </trkpt>
      <trkpt lat="40.290175" lon="-.990295">
        <ele>1205.630</ele>
        <time>2020-08-28T13:16:12Z</time>
      </trkpt>
      <trkpt lat="40.290125" lon="-.990285">
        <ele>1205.778</ele>
        <time>2020-08-28T13:16:14Z</time>
      </trkpt>
      <trkpt lat="40.290073" lon="-.990267">
        <ele>1205.898</ele>
        <time>2020-08-28T13:16:16Z</time>
      </trkpt>
      <trkpt lat="40.290027" lon="-.990255">
        <ele>1205.966</ele>
        <time>2020-08-28T13:16:18Z</time>
      </trkpt>
      <trkpt lat="40.289968" lon="-.990246">
        <ele>1206.029</ele>
        <time>2020-08-28T13:16:20Z</time>
      </trkpt>
      <trkpt lat="40.28992" lon="-.990235">
        <ele>1206.121</ele>
        <time>2020-08-28T13:16:22Z</time>
      </trkpt>
      <trkpt lat="40.289865" lon="-.990231">
        <ele>1206.308</ele>
        <time>2020-08-28T13:16:24Z</time>
      </trkpt>
      <trkpt lat="40.289819" lon="-.990226">
        <ele>1206.471</ele>
        <time>2020-08-28T13:16:26Z</time>
      </trkpt>
      <trkpt lat="40.289774" lon="-.990219">
        <ele>1206.531</ele>
        <time>2020-08-28T13:16:28Z</time>
      </trkpt>
      <trkpt lat="40.289728" lon="-.990202">
        <ele>1206.723</ele>
        <time>2020-08-28T13:16:30Z</time>
      </trkpt>
      <trkpt lat="40.289679" lon="-.990201">
        <ele>1206.935</ele>
        <time>2020-08-28T13:16:32Z</time>
      </trkpt>
      <trkpt lat="40.289626" lon="-.990191">
        <ele>1207.143</ele>
        <time>2020-08-28T13:16:34Z</time>
      </trkpt>
      <trkpt lat="40.289572" lon="-.990182">
        <ele>1207.340</ele>
        <time>2020-08-28T13:16:36Z</time>
      </trkpt>
      <trkpt lat="40.289488" lon="-.990158">
        <ele>1207.438</ele>
        <time>2020-08-28T13:16:38Z</time>
      </trkpt>
      <trkpt lat="40.289444" lon="-.990141">
        <ele>1207.538</ele>
        <time>2020-08-28T13:16:39Z</time>
      </trkpt>
      <trkpt lat="40.289394" lon="-.990125">
        <ele>1207.681</ele>
        <time>2020-08-28T13:16:42Z</time>
      </trkpt>
      <trkpt lat="40.289337" lon="-.990094">
        <ele>1207.761</ele>
        <time>2020-08-28T13:16:44Z</time>
      </trkpt>
      <trkpt lat="40.289277" lon="-.990063">
        <ele>1207.817</ele>
        <time>2020-08-28T13:16:46Z</time>
      </trkpt>
      <trkpt lat="40.289213" lon="-.990042">
        <ele>1208.008</ele>
        <time>2020-08-28T13:16:48Z</time>
      </trkpt>
      <trkpt lat="40.289165" lon="-.990028">
        <ele>1208.143</ele>
        <time>2020-08-28T13:16:49Z</time>
      </trkpt>
      <trkpt lat="40.289115" lon="-.990015">
        <ele>1208.113</ele>
        <time>2020-08-28T13:16:50Z</time>
      </trkpt>
      <trkpt lat="40.289069" lon="-.989997">
        <ele>1208.145</ele>
        <time>2020-08-28T13:16:51Z</time>
      </trkpt>
      <trkpt lat="40.289025" lon="-.989982">
        <ele>1208.117</ele>
        <time>2020-08-28T13:16:52Z</time>
      </trkpt>
      <trkpt lat="40.288973" lon="-.989968">
        <ele>1208.335</ele>
        <time>2020-08-28T13:16:55Z</time>
      </trkpt>
      <trkpt lat="40.288884" lon="-.989954">
        <ele>1208.332</ele>
        <time>2020-08-28T13:16:57Z</time>
      </trkpt>
      <trkpt lat="40.288827" lon="-.989936">
        <ele>1208.270</ele>
        <time>2020-08-28T13:16:59Z</time>
      </trkpt>
      <trkpt lat="40.28877" lon="-.989913">
        <ele>1208.260</ele>
        <time>2020-08-28T13:17:01Z</time>
      </trkpt>
      <trkpt lat="40.288712" lon="-.989895">
        <ele>1208.434</ele>
        <time>2020-08-28T13:17:03Z</time>
      </trkpt>
      <trkpt lat="40.288648" lon="-.989874">
        <ele>1208.755</ele>
        <time>2020-08-28T13:17:05Z</time>
      </trkpt>
      <trkpt lat="40.288603" lon="-.989871">
        <ele>1209.010</ele>
        <time>2020-08-28T13:17:07Z</time>
      </trkpt>
      <trkpt lat="40.288545" lon="-.989869">
        <ele>1209.208</ele>
        <time>2020-08-28T13:17:10Z</time>
      </trkpt>
      <trkpt lat="40.288477" lon="-.989864">
        <ele>1209.498</ele>
        <time>2020-08-28T13:17:13Z</time>
      </trkpt>
      <trkpt lat="40.288408" lon="-.989845">
        <ele>1209.658</ele>
        <time>2020-08-28T13:17:15Z</time>
      </trkpt>
      <trkpt lat="40.288341" lon="-.989832">
        <ele>1209.660</ele>
        <time>2020-08-28T13:17:18Z</time>
      </trkpt>
      <trkpt lat="40.288268" lon="-.989826">
        <ele>1209.792</ele>
        <time>2020-08-28T13:17:21Z</time>
      </trkpt>
      <trkpt lat="40.288212" lon="-.989822">
        <ele>1209.860</ele>
        <time>2020-08-28T13:17:24Z</time>
      </trkpt>
      <trkpt lat="40.288166" lon="-.989812">
        <ele>1209.987</ele>
        <time>2020-08-28T13:17:26Z</time>
      </trkpt>
      <trkpt lat="40.288118" lon="-.989797">
        <ele>1210.125</ele>
        <time>2020-08-28T13:17:28Z</time>
      </trkpt>
      <trkpt lat="40.288069" lon="-.98979">
        <ele>1210.225</ele>
        <time>2020-08-28T13:17:30Z</time>
      </trkpt>
      <trkpt lat="40.287994" lon="-.989766">
        <ele>1210.349</ele>
        <time>2020-08-28T13:17:32Z</time>
      </trkpt>
      <trkpt lat="40.287922" lon="-.989747">
        <ele>1210.502</ele>
        <time>2020-08-28T13:17:35Z</time>
      </trkpt>
      <trkpt lat="40.287873" lon="-.989724">
        <ele>1210.622</ele>
        <time>2020-08-28T13:17:37Z</time>
      </trkpt>
      <trkpt lat="40.287821" lon="-.989717">
        <ele>1210.808</ele>
        <time>2020-08-28T13:17:39Z</time>
      </trkpt>
      <trkpt lat="40.28777" lon="-.989705">
        <ele>1211.079</ele>
        <time>2020-08-28T13:17:41Z</time>
      </trkpt>
      <trkpt lat="40.287706" lon="-.989689">
        <ele>1211.069</ele>
        <time>2020-08-28T13:17:43Z</time>
      </trkpt>
      <trkpt lat="40.287653" lon="-.989674">
        <ele>1210.941</ele>
        <time>2020-08-28T13:17:45Z</time>
      </trkpt>
      <trkpt lat="40.287607" lon="-.989657">
        <ele>1210.983</ele>
        <time>2020-08-28T13:17:47Z</time>
      </trkpt>
      <trkpt lat="40.287551" lon="-.989639">
        <ele>1210.921</ele>
        <time>2020-08-28T13:17:49Z</time>
      </trkpt>
      <trkpt lat="40.28747" lon="-.989613">
        <ele>1211.088</ele>
        <time>2020-08-28T13:17:51Z</time>
      </trkpt>
      <trkpt lat="40.287413" lon="-.989607">
        <ele>1211.186</ele>
        <time>2020-08-28T13:17:54Z</time>
      </trkpt>
      <trkpt lat="40.287357" lon="-.989585">
        <ele>1211.266</ele>
        <time>2020-08-28T13:17:56Z</time>
      </trkpt>
      <trkpt lat="40.287304" lon="-.989567">
        <ele>1211.354</ele>
        <time>2020-08-28T13:17:58Z</time>
      </trkpt>
      <trkpt lat="40.287242" lon="-.98953">
        <ele>1211.456</ele>
        <time>2020-08-28T13:18:00Z</time>
      </trkpt>
      <trkpt lat="40.287196" lon="-.989508">
        <ele>1211.511</ele>
        <time>2020-08-28T13:18:01Z</time>
      </trkpt>
      <trkpt lat="40.287135" lon="-.989483">
        <ele>1211.708</ele>
        <time>2020-08-28T13:18:03Z</time>
      </trkpt>
      <trkpt lat="40.287077" lon="-.989462">
        <ele>1211.890</ele>
        <time>2020-08-28T13:18:05Z</time>
      </trkpt>
      <trkpt lat="40.287023" lon="-.989442">
        <ele>1211.970</ele>
        <time>2020-08-28T13:18:07Z</time>
      </trkpt>
      <trkpt lat="40.286976" lon="-.989421">
        <ele>1211.922</ele>
        <time>2020-08-28T13:18:08Z</time>
      </trkpt>
      <trkpt lat="40.286929" lon="-.989405">
        <ele>1212.024</ele>
        <time>2020-08-28T13:18:09Z</time>
      </trkpt>
      <trkpt lat="40.286867" lon="-.989392">
        <ele>1212.262</ele>
        <time>2020-08-28T13:18:12Z</time>
      </trkpt>
      <trkpt lat="40.286809" lon="-.989373">
        <ele>1212.399</ele>
        <time>2020-08-28T13:18:14Z</time>
      </trkpt>
      <trkpt lat="40.286755" lon="-.989357">
        <ele>1212.367</ele>
        <time>2020-08-28T13:18:16Z</time>
      </trkpt>
      <trkpt lat="40.286704" lon="-.989343">
        <ele>1212.417</ele>
        <time>2020-08-28T13:18:18Z</time>
      </trkpt>
      <trkpt lat="40.286652" lon="-.989327">
        <ele>1212.536</ele>
        <time>2020-08-28T13:18:20Z</time>
      </trkpt>
      <trkpt lat="40.286598" lon="-.989314">
        <ele>1212.717</ele>
        <time>2020-08-28T13:18:22Z</time>
      </trkpt>
      <trkpt lat="40.286543" lon="-.989297">
        <ele>1212.918</ele>
        <time>2020-08-28T13:18:24Z</time>
      </trkpt>
      <trkpt lat="40.286455" lon="-.989281">
        <ele>1213.108</ele>
        <time>2020-08-28T13:18:26Z</time>
      </trkpt>
      <trkpt lat="40.28641" lon="-.989267">
        <ele>1213.328</ele>
        <time>2020-08-28T13:18:28Z</time>
      </trkpt>
      <trkpt lat="40.286357" lon="-.989253">
        <ele>1213.448</ele>
        <time>2020-08-28T13:18:30Z</time>
      </trkpt>
      <trkpt lat="40.286301" lon="-.989247">
        <ele>1213.550</ele>
        <time>2020-08-28T13:18:32Z</time>
      </trkpt>
      <trkpt lat="40.286241" lon="-.989234">
        <ele>1213.782</ele>
        <time>2020-08-28T13:18:34Z</time>
      </trkpt>
      <trkpt lat="40.286188" lon="-.989215">
        <ele>1213.870</ele>
        <time>2020-08-28T13:18:36Z</time>
      </trkpt>
      <trkpt lat="40.286135" lon="-.989193">
        <ele>1213.897</ele>
        <time>2020-08-28T13:18:38Z</time>
      </trkpt>
      <trkpt lat="40.286084" lon="-.989183">
        <ele>1213.895</ele>
        <time>2020-08-28T13:18:40Z</time>
      </trkpt>
      <trkpt lat="40.28603" lon="-.989177">
        <ele>1213.915</ele>
        <time>2020-08-28T13:18:42Z</time>
      </trkpt>
      <trkpt lat="40.285943" lon="-.989158">
        <ele>1214.139</ele>
        <time>2020-08-28T13:18:44Z</time>
      </trkpt>
      <trkpt lat="40.285866" lon="-.98914">
        <ele>1214.301</ele>
        <time>2020-08-28T13:18:47Z</time>
      </trkpt>
      <trkpt lat="40.285814" lon="-.989129">
        <ele>1214.321</ele>
        <time>2020-08-28T13:18:49Z</time>
      </trkpt>
      <trkpt lat="40.285767" lon="-.989113">
        <ele>1214.408</ele>
        <time>2020-08-28T13:18:51Z</time>
      </trkpt>
      <trkpt lat="40.285711" lon="-.989102">
        <ele>1214.538</ele>
        <time>2020-08-28T13:18:53Z</time>
      </trkpt>
      <trkpt lat="40.285654" lon="-.989082">
        <ele>1214.888</ele>
        <time>2020-08-28T13:18:55Z</time>
      </trkpt>
      <trkpt lat="40.285601" lon="-.98907">
        <ele>1215.060</ele>
        <time>2020-08-28T13:18:57Z</time>
      </trkpt>
      <trkpt lat="40.285548" lon="-.989059">
        <ele>1215.152</ele>
        <time>2020-08-28T13:18:59Z</time>
      </trkpt>
      <trkpt lat="40.285491" lon="-.989046">
        <ele>1215.170</ele>
        <time>2020-08-28T13:19:01Z</time>
      </trkpt>
      <trkpt lat="40.285436" lon="-.989033">
        <ele>1215.227</ele>
        <time>2020-08-28T13:19:03Z</time>
      </trkpt>
      <trkpt lat="40.285383" lon="-.989026">
        <ele>1215.375</ele>
        <time>2020-08-28T13:19:05Z</time>
      </trkpt>
      <trkpt lat="40.285326" lon="-.989013">
        <ele>1215.415</ele>
        <time>2020-08-28T13:19:07Z</time>
      </trkpt>
      <trkpt lat="40.285275" lon="-.989">
        <ele>1215.573</ele>
        <time>2020-08-28T13:19:09Z</time>
      </trkpt>
      <trkpt lat="40.285224" lon="-.988991">
        <ele>1215.685</ele>
        <time>2020-08-28T13:19:11Z</time>
      </trkpt>
      <trkpt lat="40.285164" lon="-.988973">
        <ele>1215.613</ele>
        <time>2020-08-28T13:19:13Z</time>
      </trkpt>
      <trkpt lat="40.285104" lon="-.988962">
        <ele>1215.808</ele>
        <time>2020-08-28T13:19:15Z</time>
      </trkpt>
      <trkpt lat="40.285049" lon="-.988952">
        <ele>1216.032</ele>
        <time>2020-08-28T13:19:17Z</time>
      </trkpt>
      <trkpt lat="40.284994" lon="-.988938">
        <ele>1216.262</ele>
        <time>2020-08-28T13:19:19Z</time>
      </trkpt>
      <trkpt lat="40.284941" lon="-.988924">
        <ele>1216.334</ele>
        <time>2020-08-28T13:19:21Z</time>
      </trkpt>
      <trkpt lat="40.284885" lon="-.98891">
        <ele>1216.466</ele>
        <time>2020-08-28T13:19:23Z</time>
      </trkpt>
      <trkpt lat="40.284823" lon="-.988891">
        <ele>1216.414</ele>
        <time>2020-08-28T13:19:25Z</time>
      </trkpt>
      <trkpt lat="40.284769" lon="-.988875">
        <ele>1216.591</ele>
        <time>2020-08-28T13:19:27Z</time>
      </trkpt>
      <trkpt lat="40.284703" lon="-.988844">
        <ele>1216.679</ele>
        <time>2020-08-28T13:19:29Z</time>
      </trkpt>
      <trkpt lat="40.284659" lon="-.988825">
        <ele>1216.719</ele>
        <time>2020-08-28T13:19:30Z</time>
      </trkpt>
      <trkpt lat="40.284591" lon="-.988795">
        <ele>1216.838</ele>
        <time>2020-08-28T13:19:32Z</time>
      </trkpt>
      <trkpt lat="40.284535" lon="-.988781">
        <ele>1216.870</ele>
        <time>2020-08-28T13:19:34Z</time>
      </trkpt>
      <trkpt lat="40.284484" lon="-.988764">
        <ele>1216.817</ele>
        <time>2020-08-28T13:19:36Z</time>
      </trkpt>
      <trkpt lat="40.284428" lon="-.988749">
        <ele>1216.908</ele>
        <time>2020-08-28T13:19:38Z</time>
      </trkpt>
      <trkpt lat="40.284366" lon="-.988733">
        <ele>1217.068</ele>
        <time>2020-08-28T13:19:40Z</time>
      </trkpt>
      <trkpt lat="40.284286" lon="-.988707">
        <ele>1217.148</ele>
        <time>2020-08-28T13:19:42Z</time>
      </trkpt>
      <trkpt lat="40.284236" lon="-.988685">
        <ele>1217.110</ele>
        <time>2020-08-28T13:19:44Z</time>
      </trkpt>
      <trkpt lat="40.284163" lon="-.988676">
        <ele>1217.242</ele>
        <time>2020-08-28T13:19:47Z</time>
      </trkpt>
      <trkpt lat="40.284104" lon="-.988652">
        <ele>1217.360</ele>
        <time>2020-08-28T13:19:49Z</time>
      </trkpt>
      <trkpt lat="40.284047" lon="-.988641">
        <ele>1217.477</ele>
        <time>2020-08-28T13:19:51Z</time>
      </trkpt>
      <trkpt lat="40.283992" lon="-.988624">
        <ele>1217.455</ele>
        <time>2020-08-28T13:19:53Z</time>
      </trkpt>
      <trkpt lat="40.283934" lon="-.988612">
        <ele>1217.525</ele>
        <time>2020-08-28T13:19:55Z</time>
      </trkpt>
      <trkpt lat="40.283877" lon="-.988596">
        <ele>1217.614</ele>
        <time>2020-08-28T13:19:57Z</time>
      </trkpt>
      <trkpt lat="40.283806" lon="-.988574">
        <ele>1217.954</ele>
        <time>2020-08-28T13:20:00Z</time>
      </trkpt>
      <trkpt lat="40.283751" lon="-.988559">
        <ele>1218.009</ele>
        <time>2020-08-28T13:20:02Z</time>
      </trkpt>
      <trkpt lat="40.283697" lon="-.988545">
        <ele>1218.008</ele>
        <time>2020-08-28T13:20:04Z</time>
      </trkpt>
      <trkpt lat="40.283644" lon="-.988533">
        <ele>1218.026</ele>
        <time>2020-08-28T13:20:06Z</time>
      </trkpt>
      <trkpt lat="40.283593" lon="-.98852">
        <ele>1218.116</ele>
        <time>2020-08-28T13:20:08Z</time>
      </trkpt>
      <trkpt lat="40.283523" lon="-.988507">
        <ele>1218.248</ele>
        <time>2020-08-28T13:20:10Z</time>
      </trkpt>
      <trkpt lat="40.283469" lon="-.988496">
        <ele>1218.490</ele>
        <time>2020-08-28T13:20:13Z</time>
      </trkpt>
      <trkpt lat="40.283422" lon="-.988485">
        <ele>1218.578</ele>
        <time>2020-08-28T13:20:15Z</time>
      </trkpt>
      <trkpt lat="40.283378" lon="-.988475">
        <ele>1218.615</ele>
        <time>2020-08-28T13:20:17Z</time>
      </trkpt>
      <trkpt lat="40.283331" lon="-.988454">
        <ele>1218.723</ele>
        <time>2020-08-28T13:20:19Z</time>
      </trkpt>
      <trkpt lat="40.283282" lon="-.988445">
        <ele>1218.933</ele>
        <time>2020-08-28T13:20:21Z</time>
      </trkpt>
      <trkpt lat="40.283235" lon="-.988447">
        <ele>1219.117</ele>
        <time>2020-08-28T13:20:23Z</time>
      </trkpt>
      <trkpt lat="40.283189" lon="-.988445">
        <ele>1219.387</ele>
        <time>2020-08-28T13:20:25Z</time>
      </trkpt>
      <trkpt lat="40.283127" lon="-.988457">
        <ele>1218.915</ele>
        <time>2020-08-28T13:20:27Z</time>
      </trkpt>
      <trkpt lat="40.283074" lon="-.988458">
        <ele>1218.908</ele>
        <time>2020-08-28T13:20:28Z</time>
      </trkpt>
      <trkpt lat="40.283027" lon="-.988399">
        <ele>1219.376</ele>
        <time>2020-08-28T13:20:30Z</time>
      </trkpt>
      <trkpt lat="40.282958" lon="-.988343">
        <ele>1219.596</ele>
        <time>2020-08-28T13:20:33Z</time>
      </trkpt>
      <trkpt lat="40.282899" lon="-.98831">
        <ele>1219.378</ele>
        <time>2020-08-28T13:20:35Z</time>
      </trkpt>
      <trkpt lat="40.282849" lon="-.988296">
        <ele>1219.530</ele>
        <time>2020-08-28T13:20:37Z</time>
      </trkpt>
      <trkpt lat="40.282796" lon="-.988287">
        <ele>1219.788</ele>
        <time>2020-08-28T13:20:39Z</time>
      </trkpt>
      <trkpt lat="40.282738" lon="-.988249">
        <ele>1219.815</ele>
        <time>2020-08-28T13:20:41Z</time>
      </trkpt>
      <trkpt lat="40.282661" lon="-.988216">
        <ele>1219.843</ele>
        <time>2020-08-28T13:20:43Z</time>
      </trkpt>
      <trkpt lat="40.282591" lon="-.988195">
        <ele>1219.633</ele>
        <time>2020-08-28T13:20:46Z</time>
      </trkpt>
      <trkpt lat="40.282533" lon="-.988193">
        <ele>1219.797</ele>
        <time>2020-08-28T13:20:48Z</time>
      </trkpt>
      <trkpt lat="40.282443" lon="-.988204">
        <ele>1220.023</ele>
        <time>2020-08-28T13:20:50Z</time>
      </trkpt>
      <trkpt lat="40.282398" lon="-.988201">
        <ele>1220.025</ele>
        <time>2020-08-28T13:20:51Z</time>
      </trkpt>
      <trkpt lat="40.282316" lon="-.988177">
        <ele>1220.008</ele>
        <time>2020-08-28T13:20:53Z</time>
      </trkpt>
      <trkpt lat="40.282271" lon="-.988155">
        <ele>1220.074</ele>
        <time>2020-08-28T13:20:54Z</time>
      </trkpt>
      <trkpt lat="40.282224" lon="-.988153">
        <ele>1220.314</ele>
        <time>2020-08-28T13:20:55Z</time>
      </trkpt>
      <trkpt lat="40.282165" lon="-.988149">
        <ele>1220.586</ele>
        <time>2020-08-28T13:20:57Z</time>
      </trkpt>
      <trkpt lat="40.282109" lon="-.988136">
        <ele>1221.128</ele>
        <time>2020-08-28T13:20:59Z</time>
      </trkpt>
      <trkpt lat="40.282032" lon="-.988107">
        <ele>1221.266</ele>
        <time>2020-08-28T13:21:01Z</time>
      </trkpt>
      <trkpt lat="40.281971" lon="-.988092">
        <ele>1221.433</ele>
        <time>2020-08-28T13:21:03Z</time>
      </trkpt>
      <trkpt lat="40.281911" lon="-.988079">
        <ele>1221.511</ele>
        <time>2020-08-28T13:21:05Z</time>
      </trkpt>
      <trkpt lat="40.281845" lon="-.988062">
        <ele>1221.671</ele>
        <time>2020-08-28T13:21:07Z</time>
      </trkpt>
      <trkpt lat="40.281788" lon="-.988043">
        <ele>1221.744</ele>
        <time>2020-08-28T13:21:09Z</time>
      </trkpt>
      <trkpt lat="40.281738" lon="-.98805">
        <ele>1221.705</ele>
        <time>2020-08-28T13:21:12Z</time>
      </trkpt>
      <trkpt lat="40.281693" lon="-.988046">
        <ele>1221.715</ele>
        <time>2020-08-28T13:21:14Z</time>
      </trkpt>
      <trkpt lat="40.281646" lon="-.988034">
        <ele>1221.808</ele>
        <time>2020-08-28T13:21:16Z</time>
      </trkpt>
      <trkpt lat="40.281598" lon="-.988029">
        <ele>1222.049</ele>
        <time>2020-08-28T13:21:18Z</time>
      </trkpt>
      <trkpt lat="40.281548" lon="-.988012">
        <ele>1222.159</ele>
        <time>2020-08-28T13:21:20Z</time>
      </trkpt>
      <trkpt lat="40.281474" lon="-.987998">
        <ele>1222.231</ele>
        <time>2020-08-28T13:21:22Z</time>
      </trkpt>
      <trkpt lat="40.281417" lon="-.987989">
        <ele>1222.473</ele>
        <time>2020-08-28T13:21:25Z</time>
      </trkpt>
      <trkpt lat="40.281369" lon="-.987979">
        <ele>1222.541</ele>
        <time>2020-08-28T13:21:27Z</time>
      </trkpt>
      <trkpt lat="40.281318" lon="-.987962">
        <ele>1222.558</ele>
        <time>2020-08-28T13:21:29Z</time>
      </trkpt>
      <trkpt lat="40.281268" lon="-.987942">
        <ele>1222.516</ele>
        <time>2020-08-28T13:21:31Z</time>
      </trkpt>
      <trkpt lat="40.28121" lon="-.987908">
        <ele>1222.626</ele>
        <time>2020-08-28T13:21:33Z</time>
      </trkpt>
      <trkpt lat="40.281154" lon="-.98788">
        <ele>1222.858</ele>
        <time>2020-08-28T13:21:35Z</time>
      </trkpt>
      <trkpt lat="40.281099" lon="-.987861">
        <ele>1222.852</ele>
        <time>2020-08-28T13:21:37Z</time>
      </trkpt>
      <trkpt lat="40.281034" lon="-.987837">
        <ele>1222.917</ele>
        <time>2020-08-28T13:21:39Z</time>
      </trkpt>
      <trkpt lat="40.28099" lon="-.987822">
        <ele>1222.908</ele>
        <time>2020-08-28T13:21:40Z</time>
      </trkpt>
      <trkpt lat="40.280927" lon="-.987808">
        <ele>1223.020</ele>
        <time>2020-08-28T13:21:43Z</time>
      </trkpt>
      <trkpt lat="40.28088" lon="-.987796">
        <ele>1223.230</ele>
        <time>2020-08-28T13:21:45Z</time>
      </trkpt>
      <trkpt lat="40.280833" lon="-.987775">
        <ele>1223.582</ele>
        <time>2020-08-28T13:21:47Z</time>
      </trkpt>
      <trkpt lat="40.280783" lon="-.987756">
        <ele>1223.864</ele>
        <time>2020-08-28T13:21:49Z</time>
      </trkpt>
      <trkpt lat="40.280735" lon="-.98774">
        <ele>1223.862</ele>
        <time>2020-08-28T13:21:51Z</time>
      </trkpt>
      <trkpt lat="40.280686" lon="-.987729">
        <ele>1223.839</ele>
        <time>2020-08-28T13:21:53Z</time>
      </trkpt>
      <trkpt lat="40.280625" lon="-.987713">
        <ele>1223.777</ele>
        <time>2020-08-28T13:21:59Z</time>
      </trkpt>
      <trkpt lat="40.280576" lon="-.987686">
        <ele>1223.997</ele>
        <time>2020-08-28T13:22:01Z</time>
      </trkpt>
      <trkpt lat="40.280532" lon="-.987666">
        <ele>1223.589</ele>
        <time>2020-08-28T13:22:12Z</time>
      </trkpt>
      <trkpt lat="40.280482" lon="-.987698">
        <ele>1224.006</ele>
        <time>2020-08-28T13:22:32Z</time>
      </trkpt>
      <trkpt lat="40.28046" lon="-.987763">
        <ele>1224.026</ele>
        <time>2020-08-28T13:22:35Z</time>
      </trkpt>
      <trkpt lat="40.280453" lon="-.987825">
        <ele>1223.708</ele>
        <time>2020-08-28T13:22:39Z</time>
      </trkpt>
      <trkpt lat="40.280434" lon="-.98789">
        <ele>1223.533</ele>
        <time>2020-08-28T13:23:37Z</time>
      </trkpt>
      <trkpt lat="40.280417" lon="-.987988">
        <ele>1223.423</ele>
        <time>2020-08-28T13:23:40Z</time>
      </trkpt>
      <trkpt lat="40.280419" lon="-.988081">
        <ele>1223.065</ele>
        <time>2020-08-28T13:23:42Z</time>
      </trkpt>
      <trkpt lat="40.280433" lon="-.988151">
        <ele>1222.557</ele>
        <time>2020-08-28T13:23:44Z</time>
      </trkpt>
      <trkpt lat="40.280437" lon="-.988218">
        <ele>1222.045</ele>
        <time>2020-08-28T13:23:46Z</time>
      </trkpt>
      <trkpt lat="40.280457" lon="-.988282">
        <ele>1221.482</ele>
        <time>2020-08-28T13:23:48Z</time>
      </trkpt>
      <trkpt lat="40.280484" lon="-.988359">
        <ele>1220.960</ele>
        <time>2020-08-28T13:23:50Z</time>
      </trkpt>
      <trkpt lat="40.280507" lon="-.988468">
        <ele>1220.450</ele>
        <time>2020-08-28T13:23:52Z</time>
      </trkpt>
      <trkpt lat="40.280524" lon="-.988526">
        <ele>1220.127</ele>
        <time>2020-08-28T13:23:53Z</time>
      </trkpt>
      <trkpt lat="40.280545" lon="-.988606">
        <ele>1219.768</ele>
        <time>2020-08-28T13:23:55Z</time>
      </trkpt>
      <trkpt lat="40.280554" lon="-.988667">
        <ele>1219.514</ele>
        <time>2020-08-28T13:23:57Z</time>
      </trkpt>
      <trkpt lat="40.280557" lon="-.988736">
        <ele>1219.408</ele>
        <time>2020-08-28T13:23:59Z</time>
      </trkpt>
      <trkpt lat="40.280546" lon="-.98881">
        <ele>1219.297</ele>
        <time>2020-08-28T13:24:01Z</time>
      </trkpt>
      <trkpt lat="40.280525" lon="-.9889">
        <ele>1218.917</ele>
        <time>2020-08-28T13:24:03Z</time>
      </trkpt>
      <trkpt lat="40.280509" lon="-.98899">
        <ele>1218.289</ele>
        <time>2020-08-28T13:24:05Z</time>
      </trkpt>
      <trkpt lat="40.280488" lon="-.989086">
        <ele>1217.951</ele>
        <time>2020-08-28T13:24:07Z</time>
      </trkpt>
      <trkpt lat="40.280466" lon="-.98917">
        <ele>1217.739</ele>
        <time>2020-08-28T13:24:09Z</time>
      </trkpt>
      <trkpt lat="40.280447" lon="-.989262">
        <ele>1217.756</ele>
        <time>2020-08-28T13:24:11Z</time>
      </trkpt>
      <trkpt lat="40.280428" lon="-.989345">
        <ele>1217.724</ele>
        <time>2020-08-28T13:24:13Z</time>
      </trkpt>
      <trkpt lat="40.280407" lon="-.989432">
        <ele>1217.724</ele>
        <time>2020-08-28T13:24:15Z</time>
      </trkpt>
      <trkpt lat="40.280322" lon="-.989757">
        <ele>1217.915</ele>
        <time>2020-08-28T13:24:23Z</time>
      </trkpt>
      <trkpt lat="40.280254" lon="-.98969">
        <ele>1217.965</ele>
        <time>2020-08-28T13:24:24Z</time>
      </trkpt>
      <trkpt lat="40.280285" lon="-.989582">
        <ele>1218.011</ele>
        <time>2020-08-28T13:24:25Z</time>
      </trkpt>
      <trkpt lat="40.280274" lon="-.98951">
        <ele>1218.108</ele>
        <time>2020-08-28T13:24:26Z</time>
      </trkpt>
      <trkpt lat="40.280232" lon="-.989538">
        <ele>1218.296</ele>
        <time>2020-08-28T13:24:27Z</time>
      </trkpt>
      <trkpt lat="40.28018" lon="-.989571">
        <ele>1218.276</ele>
        <time>2020-08-28T13:24:29Z</time>
      </trkpt>
      <trkpt lat="40.280113" lon="-.989555">
        <ele>1218.438</ele>
        <time>2020-08-28T13:24:32Z</time>
      </trkpt>
      <trkpt lat="40.280058" lon="-.989532">
        <ele>1218.830</ele>
        <time>2020-08-28T13:24:35Z</time>
      </trkpt>
      <trkpt lat="40.280008" lon="-.98951">
        <ele>1219.318</ele>
        <time>2020-08-28T13:24:39Z</time>
      </trkpt>
      <trkpt lat="40.279979" lon="-.989463">
        <ele>1219.825</ele>
        <time>2020-08-28T13:24:42Z</time>
      </trkpt>
      <trkpt lat="40.279949" lon="-.989405">
        <ele>1220.233</ele>
        <time>2020-08-28T13:24:46Z</time>
      </trkpt>
      <trkpt lat="40.279913" lon="-.989364">
        <ele>1220.543</ele>
        <time>2020-08-28T13:24:50Z</time>
      </trkpt>
      <trkpt lat="40.279874" lon="-.989321">
        <ele>1220.996</ele>
        <time>2020-08-28T13:24:55Z</time>
      </trkpt>
      <trkpt lat="40.279837" lon="-.989282">
        <ele>1221.231</ele>
        <time>2020-08-28T13:24:59Z</time>
      </trkpt>
      <trkpt lat="40.279794" lon="-.989247">
        <ele>1221.424</ele>
        <time>2020-08-28T13:25:03Z</time>
      </trkpt>
      <trkpt lat="40.279746" lon="-.989204">
        <ele>1221.908</ele>
        <time>2020-08-28T13:25:08Z</time>
      </trkpt>
      <trkpt lat="40.279703" lon="-.989178">
        <ele>1222.384</ele>
        <time>2020-08-28T13:25:12Z</time>
      </trkpt>
      <trkpt lat="40.27965" lon="-.989176">
        <ele>1222.744</ele>
        <time>2020-08-28T13:25:16Z</time>
      </trkpt>
      <trkpt lat="40.279601" lon="-.989152">
        <ele>1223.096</ele>
        <time>2020-08-28T13:25:20Z</time>
      </trkpt>
      <trkpt lat="40.279556" lon="-.989126">
        <ele>1223.218</ele>
        <time>2020-08-28T13:25:24Z</time>
      </trkpt>
      <trkpt lat="40.279509" lon="-.989098">
        <ele>1223.566</ele>
        <time>2020-08-28T13:25:28Z</time>
      </trkpt>
      <trkpt lat="40.279461" lon="-.989079">
        <ele>1224.053</ele>
        <time>2020-08-28T13:25:32Z</time>
      </trkpt>
      <trkpt lat="40.279414" lon="-.989057">
        <ele>1224.551</ele>
        <time>2020-08-28T13:25:36Z</time>
      </trkpt>
      <trkpt lat="40.279367" lon="-.989039">
        <ele>1225.091</ele>
        <time>2020-08-28T13:25:41Z</time>
      </trkpt>
      <trkpt lat="40.279323" lon="-.98902">
        <ele>1225.482</ele>
        <time>2020-08-28T13:25:44Z</time>
      </trkpt>
      <trkpt lat="40.279278" lon="-.989013">
        <ele>1225.943</ele>
        <time>2020-08-28T13:25:48Z</time>
      </trkpt>
      <trkpt lat="40.279221" lon="-.988996">
        <ele>1226.417</ele>
        <time>2020-08-28T13:25:53Z</time>
      </trkpt>
      <trkpt lat="40.27917" lon="-.988987">
        <ele>1226.508</ele>
        <time>2020-08-28T13:25:57Z</time>
      </trkpt>
      <trkpt lat="40.279122" lon="-.988967">
        <ele>1226.843</ele>
        <time>2020-08-28T13:26:02Z</time>
      </trkpt>
      <trkpt lat="40.279068" lon="-.988966">
        <ele>1227.143</ele>
        <time>2020-08-28T13:26:07Z</time>
      </trkpt>
      <trkpt lat="40.279014" lon="-.988951">
        <ele>1227.585</ele>
        <time>2020-08-28T13:26:12Z</time>
      </trkpt>
      <trkpt lat="40.278969" lon="-.988939">
        <ele>1227.797</ele>
        <time>2020-08-28T13:26:16Z</time>
      </trkpt>
      <trkpt lat="40.278916" lon="-.98894">
        <ele>1228.185</ele>
        <time>2020-08-28T13:26:21Z</time>
      </trkpt>
      <trkpt lat="40.278871" lon="-.988931">
        <ele>1228.392</ele>
        <time>2020-08-28T13:26:25Z</time>
      </trkpt>
      <trkpt lat="40.27882" lon="-.988943">
        <ele>1228.950</ele>
        <time>2020-08-28T13:26:30Z</time>
      </trkpt>
      <trkpt lat="40.27877" lon="-.98894">
        <ele>1229.250</ele>
        <time>2020-08-28T13:26:34Z</time>
      </trkpt>
      <trkpt lat="40.278723" lon="-.988935">
        <ele>1229.679</ele>
        <time>2020-08-28T13:26:38Z</time>
      </trkpt>
      <trkpt lat="40.278673" lon="-.988945">
        <ele>1229.705</ele>
        <time>2020-08-28T13:26:42Z</time>
      </trkpt>
      <trkpt lat="40.278618" lon="-.98894">
        <ele>1230.125</ele>
        <time>2020-08-28T13:26:48Z</time>
      </trkpt>
      <trkpt lat="40.278565" lon="-.988929">
        <ele>1230.308</ele>
        <time>2020-08-28T13:26:53Z</time>
      </trkpt>
      <trkpt lat="40.27851" lon="-.988937">
        <ele>1230.592</ele>
        <time>2020-08-28T13:26:57Z</time>
      </trkpt>
      <trkpt lat="40.278454" lon="-.988945">
        <ele>1230.652</ele>
        <time>2020-08-28T13:27:02Z</time>
      </trkpt>
      <trkpt lat="40.278408" lon="-.988951">
        <ele>1230.594</ele>
        <time>2020-08-28T13:27:05Z</time>
      </trkpt>
      <trkpt lat="40.278354" lon="-.988951">
        <ele>1230.446</ele>
        <time>2020-08-28T13:27:08Z</time>
      </trkpt>
      <trkpt lat="40.278305" lon="-.988968">
        <ele>1230.594</ele>
        <time>2020-08-28T13:27:12Z</time>
      </trkpt>
      <trkpt lat="40.278259" lon="-.98897">
        <ele>1230.791</ele>
        <time>2020-08-28T13:27:15Z</time>
      </trkpt>
      <trkpt lat="40.278211" lon="-.988982">
        <ele>1230.849</ele>
        <time>2020-08-28T13:27:18Z</time>
      </trkpt>
      <trkpt lat="40.278159" lon="-.988988">
        <ele>1231.069</ele>
        <time>2020-08-28T13:27:21Z</time>
      </trkpt>
      <trkpt lat="40.278112" lon="-.988981">
        <ele>1231.149</ele>
        <time>2020-08-28T13:27:24Z</time>
      </trkpt>
      <trkpt lat="40.278046" lon="-.988982">
        <ele>1231.302</ele>
        <time>2020-08-28T13:27:28Z</time>
      </trkpt>
      <trkpt lat="40.277996" lon="-.988981">
        <ele>1231.722</ele>
        <time>2020-08-28T13:27:32Z</time>
      </trkpt>
      <trkpt lat="40.27795" lon="-.98898">
        <ele>1231.708</ele>
        <time>2020-08-28T13:27:35Z</time>
      </trkpt>
      <trkpt lat="40.277899" lon="-.988968">
        <ele>1231.589</ele>
        <time>2020-08-28T13:27:38Z</time>
      </trkpt>
      <trkpt lat="40.277844" lon="-.988958">
        <ele>1231.699</ele>
        <time>2020-08-28T13:27:41Z</time>
      </trkpt>
      <trkpt lat="40.277788" lon="-.988939">
        <ele>1231.721</ele>
        <time>2020-08-28T13:27:44Z</time>
      </trkpt>
      <trkpt lat="40.277739" lon="-.988926">
        <ele>1231.883</ele>
        <time>2020-08-28T13:27:47Z</time>
      </trkpt>
      <trkpt lat="40.277686" lon="-.988897">
        <ele>1232.411</ele>
        <time>2020-08-28T13:27:51Z</time>
      </trkpt>
      <trkpt lat="40.277628" lon="-.988868">
        <ele>1232.838</ele>
        <time>2020-08-28T13:27:55Z</time>
      </trkpt>
      <trkpt lat="40.277583" lon="-.988839">
        <ele>1233.196</ele>
        <time>2020-08-28T13:27:58Z</time>
      </trkpt>
      <trkpt lat="40.277526" lon="-.988803">
        <ele>1233.616</ele>
        <time>2020-08-28T13:28:01Z</time>
      </trkpt>
      <trkpt lat="40.27748" lon="-.988771">
        <ele>1234.078</ele>
        <time>2020-08-28T13:28:04Z</time>
      </trkpt>
      <trkpt lat="40.27743" lon="-.988733">
        <ele>1234.233</ele>
        <time>2020-08-28T13:28:06Z</time>
      </trkpt>
      <trkpt lat="40.277391" lon="-.9887">
        <ele>1234.526</ele>
        <time>2020-08-28T13:28:09Z</time>
      </trkpt>
      <trkpt lat="40.277353" lon="-.988665">
        <ele>1234.608</ele>
        <time>2020-08-28T13:28:11Z</time>
      </trkpt>
      <trkpt lat="40.277301" lon="-.988619">
        <ele>1234.642</ele>
        <time>2020-08-28T13:28:14Z</time>
      </trkpt>
      <trkpt lat="40.277245" lon="-.988575">
        <ele>1234.732</ele>
        <time>2020-08-28T13:28:17Z</time>
      </trkpt>
      <trkpt lat="40.277192" lon="-.988514">
        <ele>1234.994</ele>
        <time>2020-08-28T13:28:20Z</time>
      </trkpt>
      <trkpt lat="40.277154" lon="-.988473">
        <ele>1234.946</ele>
        <time>2020-08-28T13:28:22Z</time>
      </trkpt>
      <trkpt lat="40.277094" lon="-.988398">
        <ele>1234.714</ele>
        <time>2020-08-28T13:28:24Z</time>
      </trkpt>
      <trkpt lat="40.277066" lon="-.988343">
        <ele>1234.721</ele>
        <time>2020-08-28T13:28:27Z</time>
      </trkpt>
      <trkpt lat="40.277027" lon="-.988303">
        <ele>1234.649</ele>
        <time>2020-08-28T13:28:29Z</time>
      </trkpt>
      <trkpt lat="40.276993" lon="-.988252">
        <ele>1234.549</ele>
        <time>2020-08-28T13:28:31Z</time>
      </trkpt>
      <trkpt lat="40.276953" lon="-.988163">
        <ele>1234.451</ele>
        <time>2020-08-28T13:28:33Z</time>
      </trkpt>
      <trkpt lat="40.276914" lon="-.988076">
        <ele>1234.401</ele>
        <time>2020-08-28T13:28:35Z</time>
      </trkpt>
      <trkpt lat="40.276878" lon="-.987986">
        <ele>1234.611</ele>
        <time>2020-08-28T13:28:37Z</time>
      </trkpt>
      <trkpt lat="40.276842" lon="-.9879">
        <ele>1234.708</ele>
        <time>2020-08-28T13:28:39Z</time>
      </trkpt>
      <trkpt lat="40.276807" lon="-.987804">
        <ele>1234.730</ele>
        <time>2020-08-28T13:28:41Z</time>
      </trkpt>
      <trkpt lat="40.276784" lon="-.987744">
        <ele>1234.560</ele>
        <time>2020-08-28T13:28:43Z</time>
      </trkpt>
      <trkpt lat="40.276755" lon="-.987688">
        <ele>1234.362</ele>
        <time>2020-08-28T13:28:45Z</time>
      </trkpt>
      <trkpt lat="40.276732" lon="-.987625">
        <ele>1234.394</ele>
        <time>2020-08-28T13:28:47Z</time>
      </trkpt>
      <trkpt lat="40.276709" lon="-.987566">
        <ele>1234.332</ele>
        <time>2020-08-28T13:28:49Z</time>
      </trkpt>
      <trkpt lat="40.276681" lon="-.987504">
        <ele>1234.219</ele>
        <time>2020-08-28T13:28:51Z</time>
      </trkpt>
      <trkpt lat="40.27666" lon="-.98745">
        <ele>1234.267</ele>
        <time>2020-08-28T13:28:52Z</time>
      </trkpt>
      <trkpt lat="40.276639" lon="-.987383">
        <ele>1234.367</ele>
        <time>2020-08-28T13:28:53Z</time>
      </trkpt>
      <trkpt lat="40.276602" lon="-.98728">
        <ele>1234.528</ele>
        <time>2020-08-28T13:28:55Z</time>
      </trkpt>
      <trkpt lat="40.276571" lon="-.987208">
        <ele>1234.389</ele>
        <time>2020-08-28T13:28:58Z</time>
      </trkpt>
      <trkpt lat="40.276536" lon="-.987098">
        <ele>1234.317</ele>
        <time>2020-08-28T13:29:00Z</time>
      </trkpt>
      <trkpt lat="40.276507" lon="-.987049">
        <ele>1234.208</ele>
        <time>2020-08-28T13:29:03Z</time>
      </trkpt>
      <trkpt lat="40.276479" lon="-.986985">
        <ele>1234.197</ele>
        <time>2020-08-28T13:29:04Z</time>
      </trkpt>
      <trkpt lat="40.27645" lon="-.986918">
        <ele>1234.137</ele>
        <time>2020-08-28T13:29:06Z</time>
      </trkpt>
      <trkpt lat="40.276423" lon="-.986862">
        <ele>1234.379</ele>
        <time>2020-08-28T13:29:08Z</time>
      </trkpt>
      <trkpt lat="40.276385" lon="-.986779">
        <ele>1234.521</ele>
        <time>2020-08-28T13:29:11Z</time>
      </trkpt>
      <trkpt lat="40.276349" lon="-.986713">
        <ele>1234.439</ele>
        <time>2020-08-28T13:29:13Z</time>
      </trkpt>
      <trkpt lat="40.276308" lon="-.986652">
        <ele>1234.156</ele>
        <time>2020-08-28T13:29:15Z</time>
      </trkpt>
      <trkpt lat="40.276271" lon="-.9866">
        <ele>1233.914</ele>
        <time>2020-08-28T13:29:16Z</time>
      </trkpt>
      <trkpt lat="40.276233" lon="-.98655">
        <ele>1233.894</ele>
        <time>2020-08-28T13:29:17Z</time>
      </trkpt>
      <trkpt lat="40.276198" lon="-.986502">
        <ele>1233.782</ele>
        <time>2020-08-28T13:29:18Z</time>
      </trkpt>
      <trkpt lat="40.276162" lon="-.986462">
        <ele>1233.643</ele>
        <time>2020-08-28T13:29:20Z</time>
      </trkpt>
      <trkpt lat="40.276104" lon="-.986406">
        <ele>1233.617</ele>
        <time>2020-08-28T13:29:22Z</time>
      </trkpt>
      <trkpt lat="40.276061" lon="-.986359">
        <ele>1233.508</ele>
        <time>2020-08-28T13:29:24Z</time>
      </trkpt>
      <trkpt lat="40.276017" lon="-.986307">
        <ele>1233.423</ele>
        <time>2020-08-28T13:29:26Z</time>
      </trkpt>
      <trkpt lat="40.275966" lon="-.986237">
        <ele>1233.353</ele>
        <time>2020-08-28T13:29:28Z</time>
      </trkpt>
      <trkpt lat="40.27592" lon="-.98619">
        <ele>1233.285</ele>
        <time>2020-08-28T13:29:29Z</time>
      </trkpt>
      <trkpt lat="40.275884" lon="-.986147">
        <ele>1233.267</ele>
        <time>2020-08-28T13:29:30Z</time>
      </trkpt>
      <trkpt lat="40.27585" lon="-.986107">
        <ele>1233.275</ele>
        <time>2020-08-28T13:29:31Z</time>
      </trkpt>
      <trkpt lat="40.275784" lon="-.98603">
        <ele>1233.362</ele>
        <time>2020-08-28T13:29:33Z</time>
      </trkpt>
      <trkpt lat="40.27572" lon="-.985969">
        <ele>1233.570</ele>
        <time>2020-08-28T13:29:35Z</time>
      </trkpt>
      <trkpt lat="40.275651" lon="-.985903">
        <ele>1233.760</ele>
        <time>2020-08-28T13:29:37Z</time>
      </trkpt>
      <trkpt lat="40.27558" lon="-.985837">
        <ele>1233.836</ele>
        <time>2020-08-28T13:29:39Z</time>
      </trkpt>
      <trkpt lat="40.275511" lon="-.985776">
        <ele>1233.917</ele>
        <time>2020-08-28T13:29:41Z</time>
      </trkpt>
      <trkpt lat="40.275466" lon="-.985739">
        <ele>1233.618</ele>
        <time>2020-08-28T13:29:44Z</time>
      </trkpt>
      <trkpt lat="40.27542" lon="-.9857">
        <ele>1233.508</ele>
        <time>2020-08-28T13:29:46Z</time>
      </trkpt>
      <trkpt lat="40.275376" lon="-.985664">
        <ele>1233.588</ele>
        <time>2020-08-28T13:29:48Z</time>
      </trkpt>
      <trkpt lat="40.275335" lon="-.985638">
        <ele>1233.528</ele>
        <time>2020-08-28T13:29:49Z</time>
      </trkpt>
      <trkpt lat="40.275286" lon="-.985601">
        <ele>1233.560</ele>
        <time>2020-08-28T13:29:52Z</time>
      </trkpt>
      <trkpt lat="40.275245" lon="-.985571">
        <ele>1233.482</ele>
        <time>2020-08-28T13:29:53Z</time>
      </trkpt>
      <trkpt lat="40.275205" lon="-.985541">
        <ele>1233.440</ele>
        <time>2020-08-28T13:29:54Z</time>
      </trkpt>
      <trkpt lat="40.275152" lon="-.985496">
        <ele>1233.477</ele>
        <time>2020-08-28T13:29:56Z</time>
      </trkpt>
      <trkpt lat="40.275093" lon="-.98546">
        <ele>1233.545</ele>
        <time>2020-08-28T13:29:58Z</time>
      </trkpt>
      <trkpt lat="40.275034" lon="-.985422">
        <ele>1233.755</ele>
        <time>2020-08-28T13:30:00Z</time>
      </trkpt>
      <trkpt lat="40.274978" lon="-.985381">
        <ele>1233.872</ele>
        <time>2020-08-28T13:30:02Z</time>
      </trkpt>
      <trkpt lat="40.274931" lon="-.985354">
        <ele>1233.913</ele>
        <time>2020-08-28T13:30:04Z</time>
      </trkpt>
      <trkpt lat="40.274891" lon="-.985326">
        <ele>1233.914</ele>
        <time>2020-08-28T13:30:06Z</time>
      </trkpt>
      <trkpt lat="40.274842" lon="-.985285">
        <ele>1233.508</ele>
        <time>2020-08-28T13:30:11Z</time>
      </trkpt>
      <trkpt lat="40.274795" lon="-.985249">
        <ele>1233.782</ele>
        <time>2020-08-28T13:30:15Z</time>
      </trkpt>
      <trkpt lat="40.274767" lon="-.985195">
        <ele>1234.012</ele>
        <time>2020-08-28T13:30:19Z</time>
      </trkpt>
      <trkpt lat="40.274723" lon="-.985164">
        <ele>1233.824</ele>
        <time>2020-08-28T13:30:28Z</time>
      </trkpt>
      <trkpt lat="40.274677" lon="-.985155">
        <ele>1232.976</ele>
        <time>2020-08-28T13:31:49Z</time>
      </trkpt>
      <trkpt lat="40.274632" lon="-.985134">
        <ele>1232.734</ele>
        <time>2020-08-28T13:34:19Z</time>
      </trkpt>
      <trkpt lat="40.274577" lon="-.985105">
        <ele>1232.891</ele>
        <time>2020-08-28T13:34:23Z</time>
      </trkpt>
      <trkpt lat="40.274535" lon="-.985074">
        <ele>1233.199</ele>
        <time>2020-08-28T13:34:25Z</time>
      </trkpt>
      <trkpt lat="40.274487" lon="-.985037">
        <ele>1233.449</ele>
        <time>2020-08-28T13:34:27Z</time>
      </trkpt>
      <trkpt lat="40.274425" lon="-.984999">
        <ele>1233.643</ele>
        <time>2020-08-28T13:34:29Z</time>
      </trkpt>
      <trkpt lat="40.27437" lon="-.98497">
        <ele>1233.864</ele>
        <time>2020-08-28T13:34:31Z</time>
      </trkpt>
      <trkpt lat="40.274318" lon="-.984934">
        <ele>1233.810</ele>
        <time>2020-08-28T13:34:33Z</time>
      </trkpt>
      <trkpt lat="40.274265" lon="-.984898">
        <ele>1233.508</ele>
        <time>2020-08-28T13:34:35Z</time>
      </trkpt>
      <trkpt lat="40.274225" lon="-.984865">
        <ele>1233.439</ele>
        <time>2020-08-28T13:34:37Z</time>
      </trkpt>
      <trkpt lat="40.274171" lon="-.984829">
        <ele>1233.629</ele>
        <time>2020-08-28T13:34:40Z</time>
      </trkpt>
      <trkpt lat="40.274115" lon="-.984789">
        <ele>1233.541</ele>
        <time>2020-08-28T13:34:44Z</time>
      </trkpt>
      <trkpt lat="40.27406" lon="-.984759">
        <ele>1233.983</ele>
        <time>2020-08-28T13:34:47Z</time>
      </trkpt>
      <trkpt lat="40.274016" lon="-.984738">
        <ele>1234.141</ele>
        <time>2020-08-28T13:34:49Z</time>
      </trkpt>
      <trkpt lat="40.273972" lon="-.9847">
        <ele>1234.688</ele>
        <time>2020-08-28T13:34:52Z</time>
      </trkpt>
      <trkpt lat="40.273929" lon="-.984674">
        <ele>1234.876</ele>
        <time>2020-08-28T13:34:54Z</time>
      </trkpt>
      <trkpt lat="40.273885" lon="-.98465">
        <ele>1234.876</ele>
        <time>2020-08-28T13:34:56Z</time>
      </trkpt>
      <trkpt lat="40.273841" lon="-.984614">
        <ele>1234.659</ele>
        <time>2020-08-28T13:34:58Z</time>
      </trkpt>
      <trkpt lat="40.273795" lon="-.984578">
        <ele>1234.303</ele>
        <time>2020-08-28T13:35:00Z</time>
      </trkpt>
      <trkpt lat="40.273736" lon="-.984541">
        <ele>1234.123</ele>
        <time>2020-08-28T13:35:03Z</time>
      </trkpt>
      <trkpt lat="40.273689" lon="-.984502">
        <ele>1234.108</ele>
        <time>2020-08-28T13:35:06Z</time>
      </trkpt>
      <trkpt lat="40.273645" lon="-.984468">
        <ele>1233.610</ele>
        <time>2020-08-28T13:35:10Z</time>
      </trkpt>
      <trkpt lat="40.273599" lon="-.984432">
        <ele>1233.570</ele>
        <time>2020-08-28T13:35:13Z</time>
      </trkpt>
      <trkpt lat="40.273555" lon="-.984396">
        <ele>1233.522</ele>
        <time>2020-08-28T13:35:16Z</time>
      </trkpt>
      <trkpt lat="40.273496" lon="-.984367">
        <ele>1233.224</ele>
        <time>2020-08-28T13:35:20Z</time>
      </trkpt>
      <trkpt lat="40.273452" lon="-.984336">
        <ele>1233.172</ele>
        <time>2020-08-28T13:35:23Z</time>
      </trkpt>
      <trkpt lat="40.273406" lon="-.984307">
        <ele>1233.249</ele>
        <time>2020-08-28T13:35:26Z</time>
      </trkpt>
      <trkpt lat="40.273361" lon="-.984281">
        <ele>1233.327</ele>
        <time>2020-08-28T13:35:28Z</time>
      </trkpt>
      <trkpt lat="40.273302" lon="-.984242">
        <ele>1233.217</ele>
        <time>2020-08-28T13:35:31Z</time>
      </trkpt>
      <trkpt lat="40.273261" lon="-.984202">
        <ele>1233.254</ele>
        <time>2020-08-28T13:35:34Z</time>
      </trkpt>
      <trkpt lat="40.273214" lon="-.984183">
        <ele>1232.756</ele>
        <time>2020-08-28T13:36:05Z</time>
      </trkpt>
      <trkpt lat="40.273155" lon="-.984131">
        <ele>1232.711</ele>
        <time>2020-08-28T13:36:08Z</time>
      </trkpt>
      <trkpt lat="40.273105" lon="-.984081">
        <ele>1232.808</ele>
        <time>2020-08-28T13:36:10Z</time>
      </trkpt>
      <trkpt lat="40.273051" lon="-.984044">
        <ele>1232.990</ele>
        <time>2020-08-28T13:36:12Z</time>
      </trkpt>
      <trkpt lat="40.272994" lon="-.984003">
        <ele>1233.110</ele>
        <time>2020-08-28T13:36:14Z</time>
      </trkpt>
      <trkpt lat="40.272935" lon="-.983949">
        <ele>1233.172</ele>
        <time>2020-08-28T13:36:16Z</time>
      </trkpt>
      <trkpt lat="40.272874" lon="-.983889">
        <ele>1233.064</ele>
        <time>2020-08-28T13:36:18Z</time>
      </trkpt>
      <trkpt lat="40.272811" lon="-.983841">
        <ele>1232.892</ele>
        <time>2020-08-28T13:36:20Z</time>
      </trkpt>
      <trkpt lat="40.272759" lon="-.983787">
        <ele>1232.729</ele>
        <time>2020-08-28T13:36:22Z</time>
      </trkpt>
      <trkpt lat="40.2727" lon="-.983742">
        <ele>1232.297</ele>
        <time>2020-08-28T13:36:24Z</time>
      </trkpt>
      <trkpt lat="40.272654" lon="-.9837">
        <ele>1232.227</ele>
        <time>2020-08-28T13:36:26Z</time>
      </trkpt>
      <trkpt lat="40.272603" lon="-.983669">
        <ele>1232.176</ele>
        <time>2020-08-28T13:36:28Z</time>
      </trkpt>
      <trkpt lat="40.272554" lon="-.983615">
        <ele>1232.390</ele>
        <time>2020-08-28T13:36:30Z</time>
      </trkpt>
      <trkpt lat="40.272495" lon="-.983565">
        <ele>1232.519</ele>
        <time>2020-08-28T13:36:32Z</time>
      </trkpt>
      <trkpt lat="40.272435" lon="-.983524">
        <ele>1232.708</ele>
        <time>2020-08-28T13:36:34Z</time>
      </trkpt>
      <trkpt lat="40.272375" lon="-.983472">
        <ele>1232.882</ele>
        <time>2020-08-28T13:36:36Z</time>
      </trkpt>
      <trkpt lat="40.272315" lon="-.983425">
        <ele>1232.992</ele>
        <time>2020-08-28T13:36:38Z</time>
      </trkpt>
      <trkpt lat="40.272254" lon="-.983375">
        <ele>1232.964</ele>
        <time>2020-08-28T13:36:40Z</time>
      </trkpt>
      <trkpt lat="40.272189" lon="-.983338">
        <ele>1232.446</ele>
        <time>2020-08-28T13:36:42Z</time>
      </trkpt>
      <trkpt lat="40.272129" lon="-.983291">
        <ele>1232.414</ele>
        <time>2020-08-28T13:36:44Z</time>
      </trkpt>
      <trkpt lat="40.272067" lon="-.983253">
        <ele>1232.451</ele>
        <time>2020-08-28T13:36:46Z</time>
      </trkpt>
      <trkpt lat="40.272007" lon="-.983198">
        <ele>1232.419</ele>
        <time>2020-08-28T13:36:48Z</time>
      </trkpt>
      <trkpt lat="40.271949" lon="-.983159">
        <ele>1232.159</ele>
        <time>2020-08-28T13:36:50Z</time>
      </trkpt>
      <trkpt lat="40.271885" lon="-.983118">
        <ele>1232.062</ele>
        <time>2020-08-28T13:36:52Z</time>
      </trkpt>
      <trkpt lat="40.271822" lon="-.98308">
        <ele>1231.983</ele>
        <time>2020-08-28T13:36:54Z</time>
      </trkpt>
      <trkpt lat="40.271761" lon="-.983051">
        <ele>1232.111</ele>
        <time>2020-08-28T13:36:56Z</time>
      </trkpt>
      <trkpt lat="40.271705" lon="-.983034">
        <ele>1232.108</ele>
        <time>2020-08-28T13:36:58Z</time>
      </trkpt>
      <trkpt lat="40.271659" lon="-.983011">
        <ele>1231.911</ele>
        <time>2020-08-28T13:37:00Z</time>
      </trkpt>
      <trkpt lat="40.271609" lon="-.982995">
        <ele>1231.621</ele>
        <time>2020-08-28T13:37:03Z</time>
      </trkpt>
      <trkpt lat="40.271544" lon="-.982973">
        <ele>1231.213</ele>
        <time>2020-08-28T13:37:06Z</time>
      </trkpt>
      <trkpt lat="40.271489" lon="-.982953">
        <ele>1231.225</ele>
        <time>2020-08-28T13:37:08Z</time>
      </trkpt>
      <trkpt lat="40.271435" lon="-.982931">
        <ele>1231.433</ele>
        <time>2020-08-28T13:37:10Z</time>
      </trkpt>
      <trkpt lat="40.27137" lon="-.98291">
        <ele>1231.640</ele>
        <time>2020-08-28T13:37:12Z</time>
      </trkpt>
      <trkpt lat="40.271312" lon="-.982881">
        <ele>1231.798</ele>
        <time>2020-08-28T13:37:14Z</time>
      </trkpt>
      <trkpt lat="40.271249" lon="-.982859">
        <ele>1231.788</ele>
        <time>2020-08-28T13:37:16Z</time>
      </trkpt>
      <trkpt lat="40.271179" lon="-.982842">
        <ele>1231.764</ele>
        <time>2020-08-28T13:37:18Z</time>
      </trkpt>
      <trkpt lat="40.271115" lon="-.982822">
        <ele>1231.706</ele>
        <time>2020-08-28T13:37:20Z</time>
      </trkpt>
      <trkpt lat="40.271055" lon="-.982797">
        <ele>1231.816</ele>
        <time>2020-08-28T13:37:22Z</time>
      </trkpt>
      <trkpt lat="40.270986" lon="-.98277">
        <ele>1231.808</ele>
        <time>2020-08-28T13:37:24Z</time>
      </trkpt>
      <trkpt lat="40.270917" lon="-.982746">
        <ele>1231.861</ele>
        <time>2020-08-28T13:37:26Z</time>
      </trkpt>
      <trkpt lat="40.270868" lon="-.982727">
        <ele>1231.641</ele>
        <time>2020-08-28T13:37:29Z</time>
      </trkpt>
      <trkpt lat="40.270823" lon="-.982704">
        <ele>1231.413</ele>
        <time>2020-08-28T13:37:31Z</time>
      </trkpt>
      <trkpt lat="40.270741" lon="-.982676">
        <ele>1231.325</ele>
        <time>2020-08-28T13:37:33Z</time>
      </trkpt>
      <trkpt lat="40.270672" lon="-.982656">
        <ele>1231.313</ele>
        <time>2020-08-28T13:37:35Z</time>
      </trkpt>
      <trkpt lat="40.270602" lon="-.982638">
        <ele>1231.190</ele>
        <time>2020-08-28T13:37:37Z</time>
      </trkpt>
      <trkpt lat="40.270534" lon="-.982618">
        <ele>1230.888</ele>
        <time>2020-08-28T13:37:39Z</time>
      </trkpt>
      <trkpt lat="40.270463" lon="-.982593">
        <ele>1230.548</ele>
        <time>2020-08-28T13:37:41Z</time>
      </trkpt>
      <trkpt lat="40.270394" lon="-.982568">
        <ele>1230.362</ele>
        <time>2020-08-28T13:37:43Z</time>
      </trkpt>
      <trkpt lat="40.27032" lon="-.982544">
        <ele>1230.383</ele>
        <time>2020-08-28T13:37:45Z</time>
      </trkpt>
      <trkpt lat="40.270235" lon="-.982514">
        <ele>1230.411</ele>
        <time>2020-08-28T13:37:47Z</time>
      </trkpt>
      <trkpt lat="40.27017" lon="-.982483">
        <ele>1230.308</ele>
        <time>2020-08-28T13:37:50Z</time>
      </trkpt>
      <trkpt lat="40.270125" lon="-.982465">
        <ele>1230.231</ele>
        <time>2020-08-28T13:37:52Z</time>
      </trkpt>
      <trkpt lat="40.270076" lon="-.982449">
        <ele>1230.241</ele>
        <time>2020-08-28T13:37:53Z</time>
      </trkpt>
      <trkpt lat="40.270031" lon="-.982435">
        <ele>1230.243</ele>
        <time>2020-08-28T13:37:54Z</time>
      </trkpt>
      <trkpt lat="40.269985" lon="-.982419">
        <ele>1230.265</ele>
        <time>2020-08-28T13:37:55Z</time>
      </trkpt>
      <trkpt lat="40.269906" lon="-.982398">
        <ele>1230.543</ele>
        <time>2020-08-28T13:37:57Z</time>
      </trkpt>
      <trkpt lat="40.269833" lon="-.982373">
        <ele>1230.630</ele>
        <time>2020-08-28T13:37:59Z</time>
      </trkpt>
      <trkpt lat="40.269756" lon="-.982349">
        <ele>1230.378</ele>
        <time>2020-08-28T13:38:01Z</time>
      </trkpt>
      <trkpt lat="40.269677" lon="-.982331">
        <ele>1230.278</ele>
        <time>2020-08-28T13:38:03Z</time>
      </trkpt>
      <trkpt lat="40.269614" lon="-.982299">
        <ele>1230.337</ele>
        <time>2020-08-28T13:38:05Z</time>
      </trkpt>
      <trkpt lat="40.269529" lon="-.982269">
        <ele>1230.349</ele>
        <time>2020-08-28T13:38:07Z</time>
      </trkpt>
      <trkpt lat="40.269449" lon="-.982248">
        <ele>1230.213</ele>
        <time>2020-08-28T13:38:09Z</time>
      </trkpt>
      <trkpt lat="40.269368" lon="-.982227">
        <ele>1230.108</ele>
        <time>2020-08-28T13:38:11Z</time>
      </trkpt>
      <trkpt lat="40.269296" lon="-.982195">
        <ele>1230.188</ele>
        <time>2020-08-28T13:38:13Z</time>
      </trkpt>
      <trkpt lat="40.269218" lon="-.982172">
        <ele>1230.178</ele>
        <time>2020-08-28T13:38:15Z</time>
      </trkpt>
      <trkpt lat="40.269142" lon="-.982144">
        <ele>1230.150</ele>
        <time>2020-08-28T13:38:17Z</time>
      </trkpt>
      <trkpt lat="40.269062" lon="-.982109">
        <ele>1230.092</ele>
        <time>2020-08-28T13:38:19Z</time>
      </trkpt>
      <trkpt lat="40.268987" lon="-.982105">
        <ele>1229.860</ele>
        <time>2020-08-28T13:38:21Z</time>
      </trkpt>
      <trkpt lat="40.268905" lon="-.982066">
        <ele>1229.697</ele>
        <time>2020-08-28T13:38:23Z</time>
      </trkpt>
      <trkpt lat="40.268856" lon="-.982051">
        <ele>1229.565</ele>
        <time>2020-08-28T13:38:24Z</time>
      </trkpt>
      <trkpt lat="40.268808" lon="-.982043">
        <ele>1229.415</ele>
        <time>2020-08-28T13:38:25Z</time>
      </trkpt>
      <trkpt lat="40.268767" lon="-.982019">
        <ele>1229.474</ele>
        <time>2020-08-28T13:38:26Z</time>
      </trkpt>
      <trkpt lat="40.268691" lon="-.981987">
        <ele>1229.256</ele>
        <time>2020-08-28T13:38:28Z</time>
      </trkpt>
      <trkpt lat="40.268618" lon="-.981961">
        <ele>1229.021</ele>
        <time>2020-08-28T13:38:30Z</time>
      </trkpt>
      <trkpt lat="40.268546" lon="-.981932">
        <ele>1229.108</ele>
        <time>2020-08-28T13:38:32Z</time>
      </trkpt>
      <trkpt lat="40.268474" lon="-.981902">
        <ele>1229.462</ele>
        <time>2020-08-28T13:38:34Z</time>
      </trkpt>
      <trkpt lat="40.268397" lon="-.981868">
        <ele>1229.582</ele>
        <time>2020-08-28T13:38:36Z</time>
      </trkpt>
      <trkpt lat="40.268328" lon="-.981831">
        <ele>1229.574</ele>
        <time>2020-08-28T13:38:38Z</time>
      </trkpt>
      <trkpt lat="40.268259" lon="-.981797">
        <ele>1229.526</ele>
        <time>2020-08-28T13:38:40Z</time>
      </trkpt>
      <trkpt lat="40.268189" lon="-.981761">
        <ele>1229.584</ele>
        <time>2020-08-28T13:38:42Z</time>
      </trkpt>
      <trkpt lat="40.268122" lon="-.981718">
        <ele>1229.591</ele>
        <time>2020-08-28T13:38:44Z</time>
      </trkpt>
      <trkpt lat="40.268052" lon="-.981688">
        <ele>1229.549</ele>
        <time>2020-08-28T13:38:46Z</time>
      </trkpt>
      <trkpt lat="40.26798" lon="-.981651">
        <ele>1229.539</ele>
        <time>2020-08-28T13:38:48Z</time>
      </trkpt>
      <trkpt lat="40.267904" lon="-.981614">
        <ele>1229.578</ele>
        <time>2020-08-28T13:38:50Z</time>
      </trkpt>
      <trkpt lat="40.267828" lon="-.981581">
        <ele>1229.533</ele>
        <time>2020-08-28T13:38:52Z</time>
      </trkpt>
      <trkpt lat="40.267757" lon="-.981548">
        <ele>1229.526</ele>
        <time>2020-08-28T13:38:54Z</time>
      </trkpt>
      <trkpt lat="40.267677" lon="-.981498">
        <ele>1229.608</ele>
        <time>2020-08-28T13:38:56Z</time>
      </trkpt>
      <trkpt lat="40.267631" lon="-.981477">
        <ele>1229.662</ele>
        <time>2020-08-28T13:38:57Z</time>
      </trkpt>
      <trkpt lat="40.267554" lon="-.981434">
        <ele>1229.682</ele>
        <time>2020-08-28T13:38:59Z</time>
      </trkpt>
      <trkpt lat="40.267511" lon="-.981411">
        <ele>1229.544</ele>
        <time>2020-08-28T13:39:00Z</time>
      </trkpt>
      <trkpt lat="40.267433" lon="-.981367">
        <ele>1229.586</ele>
        <time>2020-08-28T13:39:02Z</time>
      </trkpt>
      <trkpt lat="40.267361" lon="-.981324">
        <ele>1229.584</ele>
        <time>2020-08-28T13:39:04Z</time>
      </trkpt>
      <trkpt lat="40.267292" lon="-.981281">
        <ele>1229.531</ele>
        <time>2020-08-28T13:39:06Z</time>
      </trkpt>
      <trkpt lat="40.267211" lon="-.981238">
        <ele>1229.579</ele>
        <time>2020-08-28T13:39:08Z</time>
      </trkpt>
      <trkpt lat="40.267137" lon="-.98119">
        <ele>1229.549</ele>
        <time>2020-08-28T13:39:10Z</time>
      </trkpt>
      <trkpt lat="40.267064" lon="-.981143">
        <ele>1229.655</ele>
        <time>2020-08-28T13:39:12Z</time>
      </trkpt>
      <trkpt lat="40.267019" lon="-.981125">
        <ele>1229.707</ele>
        <time>2020-08-28T13:39:13Z</time>
      </trkpt>
      <trkpt lat="40.26695" lon="-.981077">
        <ele>1229.817</ele>
        <time>2020-08-28T13:39:15Z</time>
      </trkpt>
      <trkpt lat="40.266907" lon="-.981055">
        <ele>1229.808</ele>
        <time>2020-08-28T13:39:16Z</time>
      </trkpt>
      <trkpt lat="40.266867" lon="-.981025">
        <ele>1229.880</ele>
        <time>2020-08-28T13:39:17Z</time>
      </trkpt>
      <trkpt lat="40.26679" lon="-.980984">
        <ele>1229.820</ele>
        <time>2020-08-28T13:39:19Z</time>
      </trkpt>
      <trkpt lat="40.266714" lon="-.980931">
        <ele>1229.912</ele>
        <time>2020-08-28T13:39:21Z</time>
      </trkpt>
      <trkpt lat="40.266639" lon="-.980888">
        <ele>1229.994</ele>
        <time>2020-08-28T13:39:23Z</time>
      </trkpt>
      <trkpt lat="40.266562" lon="-.980846">
        <ele>1229.812</ele>
        <time>2020-08-28T13:39:25Z</time>
      </trkpt>
      <trkpt lat="40.266489" lon="-.980797">
        <ele>1229.789</ele>
        <time>2020-08-28T13:39:27Z</time>
      </trkpt>
      <trkpt lat="40.266419" lon="-.98075">
        <ele>1229.717</ele>
        <time>2020-08-28T13:39:29Z</time>
      </trkpt>
      <trkpt lat="40.266376" lon="-.980732">
        <ele>1229.627</ele>
        <time>2020-08-28T13:39:30Z</time>
      </trkpt>
      <trkpt lat="40.266333" lon="-.98071">
        <ele>1229.635</ele>
        <time>2020-08-28T13:39:31Z</time>
      </trkpt>
      <trkpt lat="40.266262" lon="-.980661">
        <ele>1229.686</ele>
        <time>2020-08-28T13:39:33Z</time>
      </trkpt>
      <trkpt lat="40.266185" lon="-.980617">
        <ele>1229.714</ele>
        <time>2020-08-28T13:39:35Z</time>
      </trkpt>
      <trkpt lat="40.266107" lon="-.980575">
        <ele>1229.708</ele>
        <time>2020-08-28T13:39:37Z</time>
      </trkpt>
      <trkpt lat="40.26603" lon="-.980532">
        <ele>1229.778</ele>
        <time>2020-08-28T13:39:39Z</time>
      </trkpt>
      <trkpt lat="40.26595" lon="-.980486">
        <ele>1229.798</ele>
        <time>2020-08-28T13:39:41Z</time>
      </trkpt>
      <trkpt lat="40.265877" lon="-.980444">
        <ele>1229.940</ele>
        <time>2020-08-28T13:39:43Z</time>
      </trkpt>
      <trkpt lat="40.265798" lon="-.980395">
        <ele>1230.042</ele>
        <time>2020-08-28T13:39:45Z</time>
      </trkpt>
      <trkpt lat="40.265731" lon="-.980352">
        <ele>1230.050</ele>
        <time>2020-08-28T13:39:47Z</time>
      </trkpt>
      <trkpt lat="40.265657" lon="-.980306">
        <ele>1230.127</ele>
        <time>2020-08-28T13:39:49Z</time>
      </trkpt>
      <trkpt lat="40.265577" lon="-.980261">
        <ele>1230.125</ele>
        <time>2020-08-28T13:39:51Z</time>
      </trkpt>
      <trkpt lat="40.265505" lon="-.980215">
        <ele>1230.195</ele>
        <time>2020-08-28T13:39:53Z</time>
      </trkpt>
      <trkpt lat="40.265463" lon="-.980195">
        <ele>1230.165</ele>
        <time>2020-08-28T13:39:54Z</time>
      </trkpt>
      <trkpt lat="40.26539" lon="-.980154">
        <ele>1230.368</ele>
        <time>2020-08-28T13:39:56Z</time>
      </trkpt>
      <trkpt lat="40.265313" lon="-.980107">
        <ele>1230.314</ele>
        <time>2020-08-28T13:39:58Z</time>
      </trkpt>
      <trkpt lat="40.265237" lon="-.980061">
        <ele>1230.208</ele>
        <time>2020-08-28T13:40:00Z</time>
      </trkpt>
      <trkpt lat="40.265163" lon="-.980017">
        <ele>1230.011</ele>
        <time>2020-08-28T13:40:02Z</time>
      </trkpt>
      <trkpt lat="40.265079" lon="-.979971">
        <ele>1229.931</ele>
        <time>2020-08-28T13:40:04Z</time>
      </trkpt>
      <trkpt lat="40.265005" lon="-.979923">
        <ele>1229.923</ele>
        <time>2020-08-28T13:40:06Z</time>
      </trkpt>
      <trkpt lat="40.264923" lon="-.979879">
        <ele>1229.955</ele>
        <time>2020-08-28T13:40:08Z</time>
      </trkpt>
      <trkpt lat="40.264848" lon="-.979835">
        <ele>1230.233</ele>
        <time>2020-08-28T13:40:10Z</time>
      </trkpt>
      <trkpt lat="40.26477" lon="-.97979">
        <ele>1230.390</ele>
        <time>2020-08-28T13:40:12Z</time>
      </trkpt>
      <trkpt lat="40.264699" lon="-.97974">
        <ele>1230.198</ele>
        <time>2020-08-28T13:40:14Z</time>
      </trkpt>
      <trkpt lat="40.264618" lon="-.979693">
        <ele>1229.938</ele>
        <time>2020-08-28T13:40:16Z</time>
      </trkpt>
      <trkpt lat="40.264543" lon="-.979649">
        <ele>1229.812</ele>
        <time>2020-08-28T13:40:18Z</time>
      </trkpt>
      <trkpt lat="40.264499" lon="-.979622">
        <ele>1229.832</ele>
        <time>2020-08-28T13:40:19Z</time>
      </trkpt>
      <trkpt lat="40.264424" lon="-.979572">
        <ele>1229.805</ele>
        <time>2020-08-28T13:40:21Z</time>
      </trkpt>
      <trkpt lat="40.264353" lon="-.979528">
        <ele>1229.908</ele>
        <time>2020-08-28T13:40:23Z</time>
      </trkpt>
      <trkpt lat="40.264276" lon="-.979482">
        <ele>1230.056</ele>
        <time>2020-08-28T13:40:25Z</time>
      </trkpt>
      <trkpt lat="40.264234" lon="-.979461">
        <ele>1230.076</ele>
        <time>2020-08-28T13:40:26Z</time>
      </trkpt>
      <trkpt lat="40.264163" lon="-.979419">
        <ele>1229.838</ele>
        <time>2020-08-28T13:40:28Z</time>
      </trkpt>
      <trkpt lat="40.264087" lon="-.979361">
        <ele>1229.760</ele>
        <time>2020-08-28T13:40:30Z</time>
      </trkpt>
      <trkpt lat="40.264013" lon="-.979316">
        <ele>1229.788</ele>
        <time>2020-08-28T13:40:32Z</time>
      </trkpt>
      <trkpt lat="40.263933" lon="-.979275">
        <ele>1229.615</ele>
        <time>2020-08-28T13:40:34Z</time>
      </trkpt>
      <trkpt lat="40.263891" lon="-.979252">
        <ele>1229.553</ele>
        <time>2020-08-28T13:40:35Z</time>
      </trkpt>
      <trkpt lat="40.263816" lon="-.979206">
        <ele>1229.483</ele>
        <time>2020-08-28T13:40:37Z</time>
      </trkpt>
      <trkpt lat="40.263746" lon="-.97917">
        <ele>1229.425</ele>
        <time>2020-08-28T13:40:39Z</time>
      </trkpt>
      <trkpt lat="40.263682" lon="-.979126">
        <ele>1229.226</ele>
        <time>2020-08-28T13:40:41Z</time>
      </trkpt>
      <trkpt lat="40.263621" lon="-.979093">
        <ele>1229.208</ele>
        <time>2020-08-28T13:40:43Z</time>
      </trkpt>
      <trkpt lat="40.26355" lon="-.979051">
        <ele>1229.308</ele>
        <time>2020-08-28T13:40:45Z</time>
      </trkpt>
      <trkpt lat="40.263474" lon="-.97901">
        <ele>1229.497</ele>
        <time>2020-08-28T13:40:47Z</time>
      </trkpt>
      <trkpt lat="40.263402" lon="-.978971">
        <ele>1229.367</ele>
        <time>2020-08-28T13:40:49Z</time>
      </trkpt>
      <trkpt lat="40.263335" lon="-.978934">
        <ele>1229.129</ele>
        <time>2020-08-28T13:40:51Z</time>
      </trkpt>
      <trkpt lat="40.263258" lon="-.978888">
        <ele>1229.081</ele>
        <time>2020-08-28T13:40:53Z</time>
      </trkpt>
      <trkpt lat="40.263184" lon="-.978845">
        <ele>1228.759</ele>
        <time>2020-08-28T13:40:55Z</time>
      </trkpt>
      <trkpt lat="40.263113" lon="-.978795">
        <ele>1228.526</ele>
        <time>2020-08-28T13:40:57Z</time>
      </trkpt>
      <trkpt lat="40.263069" lon="-.978772">
        <ele>1228.514</ele>
        <time>2020-08-28T13:40:58Z</time>
      </trkpt>
      <trkpt lat="40.263005" lon="-.978737">
        <ele>1228.484</ele>
        <time>2020-08-28T13:41:00Z</time>
      </trkpt>
      <trkpt lat="40.262948" lon="-.978697">
        <ele>1228.487</ele>
        <time>2020-08-28T13:41:02Z</time>
      </trkpt>
      <trkpt lat="40.262904" lon="-.978674">
        <ele>1228.242</ele>
        <time>2020-08-28T13:41:03Z</time>
      </trkpt>
      <trkpt lat="40.262826" lon="-.978634">
        <ele>1228.126</ele>
        <time>2020-08-28T13:41:05Z</time>
      </trkpt>
      <trkpt lat="40.262752" lon="-.978592">
        <ele>1228.008</ele>
        <time>2020-08-28T13:41:07Z</time>
      </trkpt>
      <trkpt lat="40.262679" lon="-.978545">
        <ele>1228.053</ele>
        <time>2020-08-28T13:41:09Z</time>
      </trkpt>
      <trkpt lat="40.262608" lon="-.9785">
        <ele>1228.063</ele>
        <time>2020-08-28T13:41:11Z</time>
      </trkpt>
      <trkpt lat="40.26256" lon="-.978473">
        <ele>1228.045</ele>
        <time>2020-08-28T13:41:12Z</time>
      </trkpt>
      <trkpt lat="40.26252" lon="-.978446">
        <ele>1228.067</ele>
        <time>2020-08-28T13:41:13Z</time>
      </trkpt>
      <trkpt lat="40.262432" lon="-.978401">
        <ele>1228.085</ele>
        <time>2020-08-28T13:41:15Z</time>
      </trkpt>
      <trkpt lat="40.262349" lon="-.978348">
        <ele>1228.052</ele>
        <time>2020-08-28T13:41:17Z</time>
      </trkpt>
      <trkpt lat="40.262303" lon="-.978324">
        <ele>1228.030</ele>
        <time>2020-08-28T13:41:18Z</time>
      </trkpt>
      <trkpt lat="40.262225" lon="-.978279">
        <ele>1228.020</ele>
        <time>2020-08-28T13:41:20Z</time>
      </trkpt>
      <trkpt lat="40.262142" lon="-.978232">
        <ele>1227.913</ele>
        <time>2020-08-28T13:41:22Z</time>
      </trkpt>
      <trkpt lat="40.262072" lon="-.978184">
        <ele>1227.943</ele>
        <time>2020-08-28T13:41:24Z</time>
      </trkpt>
      <trkpt lat="40.262001" lon="-.978135">
        <ele>1228.007</ele>
        <time>2020-08-28T13:41:26Z</time>
      </trkpt>
      <trkpt lat="40.261925" lon="-.978097">
        <ele>1228.008</ele>
        <time>2020-08-28T13:41:28Z</time>
      </trkpt>
      <trkpt lat="40.26186" lon="-.97805">
        <ele>1227.846</ele>
        <time>2020-08-28T13:41:30Z</time>
      </trkpt>
      <trkpt lat="40.261794" lon="-.978007">
        <ele>1227.756</ele>
        <time>2020-08-28T13:41:32Z</time>
      </trkpt>
      <trkpt lat="40.261731" lon="-.977973">
        <ele>1227.688</ele>
        <time>2020-08-28T13:41:34Z</time>
      </trkpt>
      <trkpt lat="40.261658" lon="-.977932">
        <ele>1227.620</ele>
        <time>2020-08-28T13:41:36Z</time>
      </trkpt>
      <trkpt lat="40.26159" lon="-.977916">
        <ele>1227.438</ele>
        <time>2020-08-28T13:41:38Z</time>
      </trkpt>
      <trkpt lat="40.261521" lon="-.977855">
        <ele>1227.525</ele>
        <time>2020-08-28T13:41:40Z</time>
      </trkpt>
      <trkpt lat="40.26148" lon="-.977829">
        <ele>1227.553</ele>
        <time>2020-08-28T13:41:41Z</time>
      </trkpt>
      <trkpt lat="40.261407" lon="-.977788">
        <ele>1227.513</ele>
        <time>2020-08-28T13:41:43Z</time>
      </trkpt>
      <trkpt lat="40.261361" lon="-.977761">
        <ele>1227.411</ele>
        <time>2020-08-28T13:41:44Z</time>
      </trkpt>
      <trkpt lat="40.261318" lon="-.977738">
        <ele>1227.421</ele>
        <time>2020-08-28T13:41:45Z</time>
      </trkpt>
      <trkpt lat="40.261247" lon="-.977688">
        <ele>1227.503</ele>
        <time>2020-08-28T13:41:47Z</time>
      </trkpt>
      <trkpt lat="40.261201" lon="-.977664">
        <ele>1227.508</ele>
        <time>2020-08-28T13:41:48Z</time>
      </trkpt>
      <trkpt lat="40.261121" lon="-.977617">
        <ele>1227.426</ele>
        <time>2020-08-28T13:41:50Z</time>
      </trkpt>
      <trkpt lat="40.261039" lon="-.977567">
        <ele>1227.296</ele>
        <time>2020-08-28T13:41:52Z</time>
      </trkpt>
      <trkpt lat="40.260996" lon="-.977545">
        <ele>1227.128</ele>
        <time>2020-08-28T13:41:53Z</time>
      </trkpt>
      <trkpt lat="40.260917" lon="-.977493">
        <ele>1227.150</ele>
        <time>2020-08-28T13:41:55Z</time>
      </trkpt>
      <trkpt lat="40.260872" lon="-.977474">
        <ele>1227.128</ele>
        <time>2020-08-28T13:41:56Z</time>
      </trkpt>
      <trkpt lat="40.26083" lon="-.977452">
        <ele>1227.155</ele>
        <time>2020-08-28T13:41:57Z</time>
      </trkpt>
      <trkpt lat="40.260762" lon="-.977404">
        <ele>1227.013</ele>
        <time>2020-08-28T13:41:59Z</time>
      </trkpt>
      <trkpt lat="40.26069" lon="-.977369">
        <ele>1226.713</ele>
        <time>2020-08-28T13:42:01Z</time>
      </trkpt>
      <trkpt lat="40.26063" lon="-.977334">
        <ele>1226.377</ele>
        <time>2020-08-28T13:42:03Z</time>
      </trkpt>
      <trkpt lat="40.260562" lon="-.977306">
        <ele>1226.361</ele>
        <time>2020-08-28T13:42:05Z</time>
      </trkpt>
      <trkpt lat="40.26049" lon="-.977255">
        <ele>1226.527</ele>
        <time>2020-08-28T13:42:07Z</time>
      </trkpt>
      <trkpt lat="40.260421" lon="-.977222">
        <ele>1226.508</ele>
        <time>2020-08-28T13:42:09Z</time>
      </trkpt>
      <trkpt lat="40.260344" lon="-.97718">
        <ele>1226.492</ele>
        <time>2020-08-28T13:42:11Z</time>
      </trkpt>
      <trkpt lat="40.260261" lon="-.97713">
        <ele>1226.362</ele>
        <time>2020-08-28T13:42:13Z</time>
      </trkpt>
      <trkpt lat="40.260185" lon="-.977075">
        <ele>1226.344</ele>
        <time>2020-08-28T13:42:15Z</time>
      </trkpt>
      <trkpt lat="40.260105" lon="-.977021">
        <ele>1226.316</ele>
        <time>2020-08-28T13:42:17Z</time>
      </trkpt>
      <trkpt lat="40.260056" lon="-.976994">
        <ele>1226.354</ele>
        <time>2020-08-28T13:42:18Z</time>
      </trkpt>
      <trkpt lat="40.259981" lon="-.976949">
        <ele>1226.371</ele>
        <time>2020-08-28T13:42:20Z</time>
      </trkpt>
      <trkpt lat="40.259899" lon="-.976904">
        <ele>1226.629</ele>
        <time>2020-08-28T13:42:22Z</time>
      </trkpt>
      <trkpt lat="40.259818" lon="-.976863">
        <ele>1226.629</ele>
        <time>2020-08-28T13:42:24Z</time>
      </trkpt>
      <trkpt lat="40.259744" lon="-.976816">
        <ele>1226.354</ele>
        <time>2020-08-28T13:42:26Z</time>
      </trkpt>
      <trkpt lat="40.259679" lon="-.97677">
        <ele>1226.056</ele>
        <time>2020-08-28T13:42:28Z</time>
      </trkpt>
      <trkpt lat="40.259612" lon="-.976734">
        <ele>1225.811</ele>
        <time>2020-08-28T13:42:30Z</time>
      </trkpt>
      <trkpt lat="40.259544" lon="-.9767">
        <ele>1225.608</ele>
        <time>2020-08-28T13:42:32Z</time>
      </trkpt>
      <trkpt lat="40.259476" lon="-.976652">
        <ele>1225.560</ele>
        <time>2020-08-28T13:42:34Z</time>
      </trkpt>
      <trkpt lat="40.259394" lon="-.976606">
        <ele>1225.460</ele>
        <time>2020-08-28T13:42:36Z</time>
      </trkpt>
      <trkpt lat="40.259349" lon="-.976575">
        <ele>1225.422</ele>
        <time>2020-08-28T13:42:37Z</time>
      </trkpt>
      <trkpt lat="40.259302" lon="-.976556">
        <ele>1225.554</ele>
        <time>2020-08-28T13:42:38Z</time>
      </trkpt>
      <trkpt lat="40.259261" lon="-.976528">
        <ele>1225.512</ele>
        <time>2020-08-28T13:42:39Z</time>
      </trkpt>
      <trkpt lat="40.259216" lon="-.9765">
        <ele>1225.599</ele>
        <time>2020-08-28T13:42:40Z</time>
      </trkpt>
      <trkpt lat="40.259175" lon="-.976473">
        <ele>1225.687</ele>
        <time>2020-08-28T13:42:41Z</time>
      </trkpt>
      <trkpt lat="40.259133" lon="-.976451">
        <ele>1225.637</ele>
        <time>2020-08-28T13:42:42Z</time>
      </trkpt>
      <trkpt lat="40.25909" lon="-.976427">
        <ele>1225.519</ele>
        <time>2020-08-28T13:42:43Z</time>
      </trkpt>
      <trkpt lat="40.259047" lon="-.976399">
        <ele>1225.409</ele>
        <time>2020-08-28T13:42:44Z</time>
      </trkpt>
      <trkpt lat="40.258969" lon="-.976346">
        <ele>1225.219</ele>
        <time>2020-08-28T13:42:46Z</time>
      </trkpt>
      <trkpt lat="40.258893" lon="-.976304">
        <ele>1225.108</ele>
        <time>2020-08-28T13:42:48Z</time>
      </trkpt>
      <trkpt lat="40.258827" lon="-.976267">
        <ele>1224.816</ele>
        <time>2020-08-28T13:42:50Z</time>
      </trkpt>
      <trkpt lat="40.258763" lon="-.976233">
        <ele>1224.486</ele>
        <time>2020-08-28T13:42:52Z</time>
      </trkpt>
      <trkpt lat="40.258689" lon="-.976188">
        <ele>1224.188</ele>
        <time>2020-08-28T13:42:54Z</time>
      </trkpt>
      <trkpt lat="40.258647" lon="-.976162">
        <ele>1224.110</ele>
        <time>2020-08-28T13:42:55Z</time>
      </trkpt>
      <trkpt lat="40.258574" lon="-.976129">
        <ele>1224.218</ele>
        <time>2020-08-28T13:42:57Z</time>
      </trkpt>
      <trkpt lat="40.258498" lon="-.976078">
        <ele>1224.665</ele>
        <time>2020-08-28T13:42:59Z</time>
      </trkpt>
      <trkpt lat="40.25842" lon="-.976031">
        <ele>1224.753</ele>
        <time>2020-08-28T13:43:01Z</time>
      </trkpt>
      <trkpt lat="40.25835" lon="-.975988">
        <ele>1224.923</ele>
        <time>2020-08-28T13:43:03Z</time>
      </trkpt>
      <trkpt lat="40.258289" lon="-.975946">
        <ele>1225.058</ele>
        <time>2020-08-28T13:43:05Z</time>
      </trkpt>
      <trkpt lat="40.258236" lon="-.975915">
        <ele>1225.052</ele>
        <time>2020-08-28T13:43:07Z</time>
      </trkpt>
      <trkpt lat="40.258181" lon="-.975891">
        <ele>1224.217</ele>
        <time>2020-08-28T13:43:09Z</time>
      </trkpt>
      <trkpt lat="40.258121" lon="-.975852">
        <ele>1223.508</ele>
        <time>2020-08-28T13:43:11Z</time>
      </trkpt>
      <trkpt lat="40.258062" lon="-.975808">
        <ele>1223.570</ele>
        <time>2020-08-28T13:43:13Z</time>
      </trkpt>
      <trkpt lat="40.258001" lon="-.975762">
        <ele>1223.790</ele>
        <time>2020-08-28T13:43:15Z</time>
      </trkpt>
      <trkpt lat="40.25794" lon="-.975723">
        <ele>1223.942</ele>
        <time>2020-08-28T13:43:17Z</time>
      </trkpt>
      <trkpt lat="40.257874" lon="-.975688">
        <ele>1224.284</ele>
        <time>2020-08-28T13:43:19Z</time>
      </trkpt>
      <trkpt lat="40.257804" lon="-.975648">
        <ele>1224.112</ele>
        <time>2020-08-28T13:43:21Z</time>
      </trkpt>
      <trkpt lat="40.257732" lon="-.975607">
        <ele>1224.019</ele>
        <time>2020-08-28T13:43:23Z</time>
      </trkpt>
      <trkpt lat="40.257665" lon="-.975568">
        <ele>1223.917</ele>
        <time>2020-08-28T13:43:25Z</time>
      </trkpt>
      <trkpt lat="40.257593" lon="-.975526">
        <ele>1223.917</ele>
        <time>2020-08-28T13:43:27Z</time>
      </trkpt>
      <trkpt lat="40.257552" lon="-.975499">
        <ele>1223.857</ele>
        <time>2020-08-28T13:43:28Z</time>
      </trkpt>
      <trkpt lat="40.257478" lon="-.975462">
        <ele>1223.700</ele>
        <time>2020-08-28T13:43:30Z</time>
      </trkpt>
      <trkpt lat="40.257396" lon="-.975418">
        <ele>1223.720</ele>
        <time>2020-08-28T13:43:32Z</time>
      </trkpt>
      <trkpt lat="40.257317" lon="-.975376">
        <ele>1223.808</ele>
        <time>2020-08-28T13:43:34Z</time>
      </trkpt>
      <trkpt lat="40.257239" lon="-.975326">
        <ele>1223.960</ele>
        <time>2020-08-28T13:43:36Z</time>
      </trkpt>
      <trkpt lat="40.257178" lon="-.975282">
        <ele>1223.970</ele>
        <time>2020-08-28T13:43:38Z</time>
      </trkpt>
      <trkpt lat="40.25714" lon="-.975248">
        <ele>1223.912</ele>
        <time>2020-08-28T13:43:39Z</time>
      </trkpt>
      <trkpt lat="40.257093" lon="-.975227">
        <ele>1223.924</ele>
        <time>2020-08-28T13:43:40Z</time>
      </trkpt>
      <trkpt lat="40.257019" lon="-.975182">
        <ele>1223.942</ele>
        <time>2020-08-28T13:43:42Z</time>
      </trkpt>
      <trkpt lat="40.256944" lon="-.975137">
        <ele>1224.019</ele>
        <time>2020-08-28T13:43:44Z</time>
      </trkpt>
      <trkpt lat="40.256869" lon="-.975096">
        <ele>1224.117</ele>
        <time>2020-08-28T13:43:46Z</time>
      </trkpt>
      <trkpt lat="40.256795" lon="-.975055">
        <ele>1224.037</ele>
        <time>2020-08-28T13:43:48Z</time>
      </trkpt>
      <trkpt lat="40.256722" lon="-.975011">
        <ele>1223.913</ele>
        <time>2020-08-28T13:43:50Z</time>
      </trkpt>
      <trkpt lat="40.256653" lon="-.974967">
        <ele>1223.943</ele>
        <time>2020-08-28T13:43:52Z</time>
      </trkpt>
      <trkpt lat="40.256576" lon="-.974914">
        <ele>1224.107</ele>
        <time>2020-08-28T13:43:54Z</time>
      </trkpt>
      <trkpt lat="40.256505" lon="-.974876">
        <ele>1224.108</ele>
        <time>2020-08-28T13:43:56Z</time>
      </trkpt>
      <trkpt lat="40.256465" lon="-.974849">
        <ele>1224.176</ele>
        <time>2020-08-28T13:43:57Z</time>
      </trkpt>
      <trkpt lat="40.256395" lon="-.974809">
        <ele>1224.186</ele>
        <time>2020-08-28T13:43:59Z</time>
      </trkpt>
      <trkpt lat="40.256331" lon="-.97477">
        <ele>1224.258</ele>
        <time>2020-08-28T13:44:01Z</time>
      </trkpt>
      <trkpt lat="40.256259" lon="-.974728">
        <ele>1224.490</ele>
        <time>2020-08-28T13:44:03Z</time>
      </trkpt>
      <trkpt lat="40.25619" lon="-.974678">
        <ele>1224.478</ele>
        <time>2020-08-28T13:44:05Z</time>
      </trkpt>
      <trkpt lat="40.25614" lon="-.974654">
        <ele>1224.275</ele>
        <time>2020-08-28T13:44:06Z</time>
      </trkpt>
      <trkpt lat="40.256068" lon="-.974619">
        <ele>1224.153</ele>
        <time>2020-08-28T13:44:08Z</time>
      </trkpt>
      <trkpt lat="40.255999" lon="-.974579">
        <ele>1224.023</ele>
        <time>2020-08-28T13:44:10Z</time>
      </trkpt>
      <trkpt lat="40.255934" lon="-.974529">
        <ele>1223.916</ele>
        <time>2020-08-28T13:44:12Z</time>
      </trkpt>
      <trkpt lat="40.255854" lon="-.974494">
        <ele>1223.876</ele>
        <time>2020-08-28T13:44:14Z</time>
      </trkpt>
      <trkpt lat="40.255773" lon="-.974451">
        <ele>1223.713</ele>
        <time>2020-08-28T13:44:16Z</time>
      </trkpt>
      <trkpt lat="40.255692" lon="-.97444">
        <ele>1223.808</ele>
        <time>2020-08-28T13:44:18Z</time>
      </trkpt>
      <trkpt lat="40.255651" lon="-.974412">
        <ele>1223.876</ele>
        <time>2020-08-28T13:44:19Z</time>
      </trkpt>
      <trkpt lat="40.25557" lon="-.974369">
        <ele>1223.896</ele>
        <time>2020-08-28T13:44:21Z</time>
      </trkpt>
      <trkpt lat="40.255486" lon="-.974335">
        <ele>1223.848</ele>
        <time>2020-08-28T13:44:23Z</time>
      </trkpt>
      <trkpt lat="40.255442" lon="-.974311">
        <ele>1223.990</ele>
        <time>2020-08-28T13:44:24Z</time>
      </trkpt>
      <trkpt lat="40.255363" lon="-.974256">
        <ele>1223.968</ele>
        <time>2020-08-28T13:44:26Z</time>
      </trkpt>
      <trkpt lat="40.255321" lon="-.974229">
        <ele>1223.915</ele>
        <time>2020-08-28T13:44:27Z</time>
      </trkpt>
      <trkpt lat="40.255236" lon="-.974183">
        <ele>1223.923</ele>
        <time>2020-08-28T13:44:29Z</time>
      </trkpt>
      <trkpt lat="40.255191" lon="-.974157">
        <ele>1223.993</ele>
        <time>2020-08-28T13:44:30Z</time>
      </trkpt>
      <trkpt lat="40.255147" lon="-.974128">
        <ele>1223.962</ele>
        <time>2020-08-28T13:44:31Z</time>
      </trkpt>
      <trkpt lat="40.255064" lon="-.974088">
        <ele>1223.983</ele>
        <time>2020-08-28T13:44:33Z</time>
      </trkpt>
      <trkpt lat="40.25502" lon="-.974062">
        <ele>1223.911</ele>
        <time>2020-08-28T13:44:34Z</time>
      </trkpt>
      <trkpt lat="40.254978" lon="-.974041">
        <ele>1223.908</ele>
        <time>2020-08-28T13:44:35Z</time>
      </trkpt>
      <trkpt lat="40.254935" lon="-.974017">
        <ele>1223.981</ele>
        <time>2020-08-28T13:44:36Z</time>
      </trkpt>
      <trkpt lat="40.254889" lon="-.973994">
        <ele>1223.921</ele>
        <time>2020-08-28T13:44:37Z</time>
      </trkpt>
      <trkpt lat="40.254843" lon="-.973967">
        <ele>1223.933</ele>
        <time>2020-08-28T13:44:38Z</time>
      </trkpt>
      <trkpt lat="40.254764" lon="-.973906">
        <ele>1223.955</ele>
        <time>2020-08-28T13:44:40Z</time>
      </trkpt>
      <trkpt lat="40.254722" lon="-.973873">
        <ele>1224.013</ele>
        <time>2020-08-28T13:44:41Z</time>
      </trkpt>
      <trkpt lat="40.254679" lon="-.973837">
        <ele>1224.090</ele>
        <time>2020-08-28T13:44:42Z</time>
      </trkpt>
      <trkpt lat="40.254635" lon="-.97381">
        <ele>1224.088</ele>
        <time>2020-08-28T13:44:43Z</time>
      </trkpt>
      <trkpt lat="40.254558" lon="-.97376">
        <ele>1224.048</ele>
        <time>2020-08-28T13:44:45Z</time>
      </trkpt>
      <trkpt lat="40.254512" lon="-.973744">
        <ele>1224.053</ele>
        <time>2020-08-28T13:44:46Z</time>
      </trkpt>
      <trkpt lat="40.254433" lon="-.973707">
        <ele>1224.104</ele>
        <time>2020-08-28T13:44:48Z</time>
      </trkpt>
      <trkpt lat="40.25439" lon="-.973677">
        <ele>1224.114</ele>
        <time>2020-08-28T13:44:49Z</time>
      </trkpt>
      <trkpt lat="40.254311" lon="-.973634">
        <ele>1224.108</ele>
        <time>2020-08-28T13:44:51Z</time>
      </trkpt>
      <trkpt lat="40.254235" lon="-.973572">
        <ele>1224.170</ele>
        <time>2020-08-28T13:44:53Z</time>
      </trkpt>
      <trkpt lat="40.254194" lon="-.973546">
        <ele>1224.160</ele>
        <time>2020-08-28T13:44:54Z</time>
      </trkpt>
      <trkpt lat="40.254147" lon="-.97353">
        <ele>1224.112</ele>
        <time>2020-08-28T13:44:55Z</time>
      </trkpt>
      <trkpt lat="40.254069" lon="-.973475">
        <ele>1224.064</ele>
        <time>2020-08-28T13:44:57Z</time>
      </trkpt>
      <trkpt lat="40.254018" lon="-.973456">
        <ele>1224.032</ele>
        <time>2020-08-28T13:44:58Z</time>
      </trkpt>
      <trkpt lat="40.253976" lon="-.973418">
        <ele>1224.099</ele>
        <time>2020-08-28T13:44:59Z</time>
      </trkpt>
      <trkpt lat="40.253937" lon="-.973387">
        <ele>1224.047</ele>
        <time>2020-08-28T13:45:00Z</time>
      </trkpt>
      <trkpt lat="40.253886" lon="-.973359">
        <ele>1223.817</ele>
        <time>2020-08-28T13:45:02Z</time>
      </trkpt>
      <trkpt lat="40.253848" lon="-.973323">
        <ele>1223.422</ele>
        <time>2020-08-28T13:45:04Z</time>
      </trkpt>
      <trkpt lat="40.253814" lon="-.973284">
        <ele>1223.262</ele>
        <time>2020-08-28T13:45:06Z</time>
      </trkpt>
      <trkpt lat="40.253775" lon="-.973224">
        <ele>1222.408</ele>
        <time>2020-08-28T13:48:09Z</time>
      </trkpt>
      <trkpt lat="40.25372" lon="-.973205">
        <ele>1222.708</ele>
        <time>2020-08-28T13:48:12Z</time>
      </trkpt>
      <trkpt lat="40.253677" lon="-.973154">
        <ele>1222.997</ele>
        <time>2020-08-28T13:48:15Z</time>
      </trkpt>
      <trkpt lat="40.253613" lon="-.973114">
        <ele>1222.937</ele>
        <time>2020-08-28T13:48:17Z</time>
      </trkpt>
      <trkpt lat="40.253556" lon="-.973073">
        <ele>1222.959</ele>
        <time>2020-08-28T13:48:19Z</time>
      </trkpt>
      <trkpt lat="40.253482" lon="-.97303">
        <ele>1222.981</ele>
        <time>2020-08-28T13:48:21Z</time>
      </trkpt>
      <trkpt lat="40.253398" lon="-.972993">
        <ele>1223.029</ele>
        <time>2020-08-28T13:48:23Z</time>
      </trkpt>
      <trkpt lat="40.253331" lon="-.972958">
        <ele>1222.916</ele>
        <time>2020-08-28T13:48:25Z</time>
      </trkpt>
      <trkpt lat="40.253281" lon="-.972944">
        <ele>1222.814</ele>
        <time>2020-08-28T13:48:26Z</time>
      </trkpt>
      <trkpt lat="40.253241" lon="-.972916">
        <ele>1222.784</ele>
        <time>2020-08-28T13:48:27Z</time>
      </trkpt>
      <trkpt lat="40.253165" lon="-.972865">
        <ele>1222.691</ele>
        <time>2020-08-28T13:48:29Z</time>
      </trkpt>
      <trkpt lat="40.253078" lon="-.972826">
        <ele>1222.681</ele>
        <time>2020-08-28T13:48:31Z</time>
      </trkpt>
      <trkpt lat="40.252992" lon="-.972785">
        <ele>1222.519</ele>
        <time>2020-08-28T13:48:33Z</time>
      </trkpt>
      <trkpt lat="40.252947" lon="-.972764">
        <ele>1222.408</ele>
        <time>2020-08-28T13:48:34Z</time>
      </trkpt>
      <trkpt lat="40.252869" lon="-.972716">
        <ele>1222.234</ele>
        <time>2020-08-28T13:48:36Z</time>
      </trkpt>
      <trkpt lat="40.252842" lon="-.972647">
        <ele>1222.294</ele>
        <time>2020-08-28T13:48:38Z</time>
      </trkpt>
      <trkpt lat="40.252745" lon="-.972596">
        <ele>1222.326</ele>
        <time>2020-08-28T13:48:40Z</time>
      </trkpt>
      <trkpt lat="40.252685" lon="-.972576">
        <ele>1222.338</ele>
        <time>2020-08-28T13:48:41Z</time>
      </trkpt>
      <trkpt lat="40.252643" lon="-.972552">
        <ele>1222.346</ele>
        <time>2020-08-28T13:48:42Z</time>
      </trkpt>
      <trkpt lat="40.252564" lon="-.972512">
        <ele>1222.173</ele>
        <time>2020-08-28T13:48:44Z</time>
      </trkpt>
      <trkpt lat="40.25251" lon="-.972461">
        <ele>1222.061</ele>
        <time>2020-08-28T13:48:46Z</time>
      </trkpt>
      <trkpt lat="40.252465" lon="-.972443">
        <ele>1222.041</ele>
        <time>2020-08-28T13:48:47Z</time>
      </trkpt>
      <trkpt lat="40.252397" lon="-.972394">
        <ele>1222.152</ele>
        <time>2020-08-28T13:48:49Z</time>
      </trkpt>
      <trkpt lat="40.252353" lon="-.972371">
        <ele>1222.253</ele>
        <time>2020-08-28T13:48:50Z</time>
      </trkpt>
      <trkpt lat="40.252308" lon="-.972342">
        <ele>1222.208</ele>
        <time>2020-08-28T13:48:51Z</time>
      </trkpt>
      <trkpt lat="40.252237" lon="-.972299">
        <ele>1222.308</ele>
        <time>2020-08-28T13:48:53Z</time>
      </trkpt>
      <trkpt lat="40.252194" lon="-.972274">
        <ele>1222.370</ele>
        <time>2020-08-28T13:48:54Z</time>
      </trkpt>
      <trkpt lat="40.252143" lon="-.972256">
        <ele>1222.240</ele>
        <time>2020-08-28T13:48:55Z</time>
      </trkpt>
      <trkpt lat="40.252096" lon="-.972236">
        <ele>1222.282</ele>
        <time>2020-08-28T13:48:56Z</time>
      </trkpt>
      <trkpt lat="40.252052" lon="-.972205">
        <ele>1222.234</ele>
        <time>2020-08-28T13:48:57Z</time>
      </trkpt>
      <trkpt lat="40.251982" lon="-.972145">
        <ele>1222.222</ele>
        <time>2020-08-28T13:48:59Z</time>
      </trkpt>
      <trkpt lat="40.251937" lon="-.972111">
        <ele>1222.289</ele>
        <time>2020-08-28T13:49:00Z</time>
      </trkpt>
      <trkpt lat="40.251892" lon="-.972109">
        <ele>1222.247</ele>
        <time>2020-08-28T13:49:01Z</time>
      </trkpt>
      <trkpt lat="40.251843" lon="-.972088">
        <ele>1222.227</ele>
        <time>2020-08-28T13:49:02Z</time>
      </trkpt>
      <trkpt lat="40.251801" lon="-.972055">
        <ele>1222.117</ele>
        <time>2020-08-28T13:49:03Z</time>
      </trkpt>
      <trkpt lat="40.251748" lon="-.972031">
        <ele>1222.087</ele>
        <time>2020-08-28T13:49:04Z</time>
      </trkpt>
      <trkpt lat="40.251699" lon="-.972022">
        <ele>1221.915</ele>
        <time>2020-08-28T13:49:05Z</time>
      </trkpt>
      <trkpt lat="40.251629" lon="-.971955">
        <ele>1221.708</ele>
        <time>2020-08-28T13:49:07Z</time>
      </trkpt>
      <trkpt lat="40.251581" lon="-.971914">
        <ele>1221.686</ele>
        <time>2020-08-28T13:49:08Z</time>
      </trkpt>
      <trkpt lat="40.251524" lon="-.971893">
        <ele>1221.526</ele>
        <time>2020-08-28T13:49:09Z</time>
      </trkpt>
      <trkpt lat="40.251478" lon="-.971863">
        <ele>1221.428</ele>
        <time>2020-08-28T13:49:10Z</time>
      </trkpt>
      <trkpt lat="40.251424" lon="-.971847">
        <ele>1221.480</ele>
        <time>2020-08-28T13:49:11Z</time>
      </trkpt>
      <trkpt lat="40.251372" lon="-.971816">
        <ele>1221.498</ele>
        <time>2020-08-28T13:49:12Z</time>
      </trkpt>
      <trkpt lat="40.25133" lon="-.971782">
        <ele>1221.485</ele>
        <time>2020-08-28T13:49:13Z</time>
      </trkpt>
      <trkpt lat="40.25129" lon="-.971749">
        <ele>1221.493</ele>
        <time>2020-08-28T13:49:14Z</time>
      </trkpt>
      <trkpt lat="40.251251" lon="-.971713">
        <ele>1221.363</ele>
        <time>2020-08-28T13:49:15Z</time>
      </trkpt>
      <trkpt lat="40.251204" lon="-.971689">
        <ele>1221.281</ele>
        <time>2020-08-28T13:49:16Z</time>
      </trkpt>
      <trkpt lat="40.251161" lon="-.971662">
        <ele>1221.061</ele>
        <time>2020-08-28T13:49:17Z</time>
      </trkpt>
      <trkpt lat="40.251102" lon="-.971641">
        <ele>1220.817</ele>
        <time>2020-08-28T13:49:18Z</time>
      </trkpt>
      <trkpt lat="40.251052" lon="-.971621">
        <ele>1220.708</ele>
        <time>2020-08-28T13:49:19Z</time>
      </trkpt>
      <trkpt lat="40.251003" lon="-.971595">
        <ele>1220.693</ele>
        <time>2020-08-28T13:49:20Z</time>
      </trkpt>
      <trkpt lat="40.250957" lon="-.971559">
        <ele>1220.593</ele>
        <time>2020-08-28T13:49:21Z</time>
      </trkpt>
      <trkpt lat="40.250907" lon="-.971534">
        <ele>1220.415</ele>
        <time>2020-08-28T13:49:22Z</time>
      </trkpt>
      <trkpt lat="40.250869" lon="-.971497">
        <ele>1220.377</ele>
        <time>2020-08-28T13:49:23Z</time>
      </trkpt>
      <trkpt lat="40.25083" lon="-.971463">
        <ele>1220.355</ele>
        <time>2020-08-28T13:49:24Z</time>
      </trkpt>
      <trkpt lat="40.25077" lon="-.971429">
        <ele>1220.252</ele>
        <time>2020-08-28T13:49:25Z</time>
      </trkpt>
      <trkpt lat="40.250716" lon="-.971404">
        <ele>1220.120</ele>
        <time>2020-08-28T13:49:26Z</time>
      </trkpt>
      <trkpt lat="40.25067" lon="-.971373">
        <ele>1220.030</ele>
        <time>2020-08-28T13:49:27Z</time>
      </trkpt>
      <trkpt lat="40.250617" lon="-.97135">
        <ele>1219.935</ele>
        <time>2020-08-28T13:49:28Z</time>
      </trkpt>
      <trkpt lat="40.250564" lon="-.971326">
        <ele>1219.786</ele>
        <time>2020-08-28T13:49:29Z</time>
      </trkpt>
      <trkpt lat="40.250517" lon="-.971312">
        <ele>1219.614</ele>
        <time>2020-08-28T13:49:30Z</time>
      </trkpt>
      <trkpt lat="40.250469" lon="-.971295">
        <ele>1219.508</ele>
        <time>2020-08-28T13:49:31Z</time>
      </trkpt>
      <trkpt lat="40.250396" lon="-.971234">
        <ele>1219.488</ele>
        <time>2020-08-28T13:49:33Z</time>
      </trkpt>
      <trkpt lat="40.250353" lon="-.971212">
        <ele>1219.458</ele>
        <time>2020-08-28T13:49:34Z</time>
      </trkpt>
      <trkpt lat="40.250279" lon="-.97118">
        <ele>1219.440</ele>
        <time>2020-08-28T13:49:36Z</time>
      </trkpt>
      <trkpt lat="40.250206" lon="-.971131">
        <ele>1219.392</ele>
        <time>2020-08-28T13:49:38Z</time>
      </trkpt>
      <trkpt lat="40.250163" lon="-.971105">
        <ele>1219.240</ele>
        <time>2020-08-28T13:49:39Z</time>
      </trkpt>
      <trkpt lat="40.250123" lon="-.971076">
        <ele>1219.137</ele>
        <time>2020-08-28T13:49:40Z</time>
      </trkpt>
      <trkpt lat="40.250048" lon="-.971023">
        <ele>1219.135</ele>
        <time>2020-08-28T13:49:42Z</time>
      </trkpt>
      <trkpt lat="40.249997" lon="-.970996">
        <ele>1219.185</ele>
        <time>2020-08-28T13:49:43Z</time>
      </trkpt>
      <trkpt lat="40.249949" lon="-.970968">
        <ele>1219.132</ele>
        <time>2020-08-28T13:49:44Z</time>
      </trkpt>
      <trkpt lat="40.249901" lon="-.970941">
        <ele>1219.192</ele>
        <time>2020-08-28T13:49:45Z</time>
      </trkpt>
      <trkpt lat="40.249851" lon="-.970905">
        <ele>1219.111</ele>
        <time>2020-08-28T13:49:46Z</time>
      </trkpt>
      <trkpt lat="40.249807" lon="-.97088">
        <ele>1219.108</ele>
        <time>2020-08-28T13:49:47Z</time>
      </trkpt>
      <trkpt lat="40.249758" lon="-.970848">
        <ele>1219.038</ele>
        <time>2020-08-28T13:49:48Z</time>
      </trkpt>
      <trkpt lat="40.249705" lon="-.970823">
        <ele>1219.068</ele>
        <time>2020-08-28T13:49:49Z</time>
      </trkpt>
      <trkpt lat="40.249656" lon="-.970788">
        <ele>1218.970</ele>
        <time>2020-08-28T13:49:50Z</time>
      </trkpt>
      <trkpt lat="40.24961" lon="-.970763">
        <ele>1218.822</ele>
        <time>2020-08-28T13:49:51Z</time>
      </trkpt>
      <trkpt lat="40.24956" lon="-.970732">
        <ele>1218.850</ele>
        <time>2020-08-28T13:49:52Z</time>
      </trkpt>
      <trkpt lat="40.24951" lon="-.970711">
        <ele>1218.817</ele>
        <time>2020-08-28T13:49:53Z</time>
      </trkpt>
      <trkpt lat="40.24947" lon="-.970678">
        <ele>1218.835</ele>
        <time>2020-08-28T13:49:54Z</time>
      </trkpt>
      <trkpt lat="40.249425" lon="-.970644">
        <ele>1218.885</ele>
        <time>2020-08-28T13:49:55Z</time>
      </trkpt>
      <trkpt lat="40.249385" lon="-.970613">
        <ele>1218.716</ele>
        <time>2020-08-28T13:49:56Z</time>
      </trkpt>
      <trkpt lat="40.24934" lon="-.970579">
        <ele>1218.676</ele>
        <time>2020-08-28T13:49:57Z</time>
      </trkpt>
      <trkpt lat="40.249287" lon="-.970555">
        <ele>1218.613</ele>
        <time>2020-08-28T13:49:58Z</time>
      </trkpt>
      <trkpt lat="40.249238" lon="-.970525">
        <ele>1218.508</ele>
        <time>2020-08-28T13:49:59Z</time>
      </trkpt>
      <trkpt lat="40.249193" lon="-.970489">
        <ele>1218.536</ele>
        <time>2020-08-28T13:50:00Z</time>
      </trkpt>
      <trkpt lat="40.249137" lon="-.970461">
        <ele>1218.486</ele>
        <time>2020-08-28T13:50:01Z</time>
      </trkpt>
      <trkpt lat="40.24908" lon="-.970435">
        <ele>1218.478</ele>
        <time>2020-08-28T13:50:02Z</time>
      </trkpt>
      <trkpt lat="40.249029" lon="-.970405">
        <ele>1218.480</ele>
        <time>2020-08-28T13:50:03Z</time>
      </trkpt>
      <trkpt lat="40.248982" lon="-.970369">
        <ele>1218.468</ele>
        <time>2020-08-28T13:50:04Z</time>
      </trkpt>
      <trkpt lat="40.248937" lon="-.970341">
        <ele>1218.415</ele>
        <time>2020-08-28T13:50:05Z</time>
      </trkpt>
      <trkpt lat="40.248891" lon="-.970319">
        <ele>1218.413</ele>
        <time>2020-08-28T13:50:06Z</time>
      </trkpt>
      <trkpt lat="40.248837" lon="-.97029">
        <ele>1218.443</ele>
        <time>2020-08-28T13:50:07Z</time>
      </trkpt>
      <trkpt lat="40.248787" lon="-.970259">
        <ele>1218.462</ele>
        <time>2020-08-28T13:50:08Z</time>
      </trkpt>
      <trkpt lat="40.248738" lon="-.970235">
        <ele>1218.483</ele>
        <time>2020-08-28T13:50:09Z</time>
      </trkpt>
      <trkpt lat="40.248683" lon="-.970209">
        <ele>1218.411</ele>
        <time>2020-08-28T13:50:10Z</time>
      </trkpt>
      <trkpt lat="40.248629" lon="-.97018">
        <ele>1218.408</ele>
        <time>2020-08-28T13:50:11Z</time>
      </trkpt>
      <trkpt lat="40.248587" lon="-.970146">
        <ele>1218.481</ele>
        <time>2020-08-28T13:50:12Z</time>
      </trkpt>
      <trkpt lat="40.248541" lon="-.970107">
        <ele>1218.431</ele>
        <time>2020-08-28T13:50:13Z</time>
      </trkpt>
      <trkpt lat="40.2485" lon="-.970073">
        <ele>1218.473</ele>
        <time>2020-08-28T13:50:14Z</time>
      </trkpt>
      <trkpt lat="40.248457" lon="-.970042">
        <ele>1218.315</ele>
        <time>2020-08-28T13:50:15Z</time>
      </trkpt>
      <trkpt lat="40.248406" lon="-.970011">
        <ele>1218.343</ele>
        <time>2020-08-28T13:50:16Z</time>
      </trkpt>
      <trkpt lat="40.248361" lon="-.969981">
        <ele>1218.310</ele>
        <time>2020-08-28T13:50:17Z</time>
      </trkpt>
      <trkpt lat="40.248311" lon="-.969951">
        <ele>1218.238</ele>
        <time>2020-08-28T13:50:18Z</time>
      </trkpt>
      <trkpt lat="40.248263" lon="-.969924">
        <ele>1218.128</ele>
        <time>2020-08-28T13:50:19Z</time>
      </trkpt>
      <trkpt lat="40.248214" lon="-.969896">
        <ele>1218.096</ele>
        <time>2020-08-28T13:50:20Z</time>
      </trkpt>
      <trkpt lat="40.248164" lon="-.96986">
        <ele>1217.931</ele>
        <time>2020-08-28T13:50:21Z</time>
      </trkpt>
      <trkpt lat="40.24811" lon="-.969833">
        <ele>1217.924</ele>
        <time>2020-08-28T13:50:22Z</time>
      </trkpt>
      <trkpt lat="40.248051" lon="-.969808">
        <ele>1217.808</ele>
        <time>2020-08-28T13:50:23Z</time>
      </trkpt>
      <trkpt lat="40.248002" lon="-.969774">
        <ele>1217.714</ele>
        <time>2020-08-28T13:50:24Z</time>
      </trkpt>
      <trkpt lat="40.247955" lon="-.969743">
        <ele>1217.734</ele>
        <time>2020-08-28T13:50:25Z</time>
      </trkpt>
      <trkpt lat="40.247901" lon="-.969712">
        <ele>1217.636</ele>
        <time>2020-08-28T13:50:26Z</time>
      </trkpt>
      <trkpt lat="40.247848" lon="-.969676">
        <ele>1217.448</ele>
        <time>2020-08-28T13:50:27Z</time>
      </trkpt>
      <trkpt lat="40.247792" lon="-.969645">
        <ele>1217.296</ele>
        <time>2020-08-28T13:50:28Z</time>
      </trkpt>
      <trkpt lat="40.247742" lon="-.969613">
        <ele>1216.933</ele>
        <time>2020-08-28T13:50:29Z</time>
      </trkpt>
      <trkpt lat="40.247697" lon="-.969582">
        <ele>1216.711</ele>
        <time>2020-08-28T13:50:30Z</time>
      </trkpt>
      <trkpt lat="40.247648" lon="-.96956">
        <ele>1216.671</ele>
        <time>2020-08-28T13:50:31Z</time>
      </trkpt>
      <trkpt lat="40.247606" lon="-.969536">
        <ele>1216.429</ele>
        <time>2020-08-28T13:50:32Z</time>
      </trkpt>
      <trkpt lat="40.247532" lon="-.969481">
        <ele>1216.100</ele>
        <time>2020-08-28T13:50:34Z</time>
      </trkpt>
      <trkpt lat="40.247487" lon="-.969454">
        <ele>1215.920</ele>
        <time>2020-08-28T13:50:35Z</time>
      </trkpt>
      <trkpt lat="40.247441" lon="-.969438">
        <ele>1215.808</ele>
        <time>2020-08-28T13:50:36Z</time>
      </trkpt>
      <trkpt lat="40.247401" lon="-.96941">
        <ele>1215.797</ele>
        <time>2020-08-28T13:50:37Z</time>
      </trkpt>
      <trkpt lat="40.247361" lon="-.96938">
        <ele>1215.797</ele>
        <time>2020-08-28T13:50:38Z</time>
      </trkpt>
      <trkpt lat="40.247324" lon="-.969347">
        <ele>1215.789</ele>
        <time>2020-08-28T13:50:39Z</time>
      </trkpt>
      <trkpt lat="40.247279" lon="-.96932">
        <ele>1215.741</ele>
        <time>2020-08-28T13:50:40Z</time>
      </trkpt>
      <trkpt lat="40.247228" lon="-.969298">
        <ele>1215.769</ele>
        <time>2020-08-28T13:50:41Z</time>
      </trkpt>
      <trkpt lat="40.247172" lon="-.969277">
        <ele>1215.756</ele>
        <time>2020-08-28T13:50:42Z</time>
      </trkpt>
      <trkpt lat="40.247111" lon="-.969222">
        <ele>1215.764</ele>
        <time>2020-08-28T13:50:44Z</time>
      </trkpt>
      <trkpt lat="40.247058" lon="-.969195">
        <ele>1215.724</ele>
        <time>2020-08-28T13:50:45Z</time>
      </trkpt>
      <trkpt lat="40.247016" lon="-.969165">
        <ele>1215.753</ele>
        <time>2020-08-28T13:50:46Z</time>
      </trkpt>
      <trkpt lat="40.246968" lon="-.969139">
        <ele>1215.704</ele>
        <time>2020-08-28T13:50:47Z</time>
      </trkpt>
      <trkpt lat="40.246921" lon="-.969116">
        <ele>1215.714</ele>
        <time>2020-08-28T13:50:48Z</time>
      </trkpt>
      <trkpt lat="40.246877" lon="-.969092">
        <ele>1215.708</ele>
        <time>2020-08-28T13:50:49Z</time>
      </trkpt>
      <trkpt lat="40.24683" lon="-.969067">
        <ele>1215.710</ele>
        <time>2020-08-28T13:50:50Z</time>
      </trkpt>
      <trkpt lat="40.246775" lon="-.969049">
        <ele>1215.760</ele>
        <time>2020-08-28T13:50:51Z</time>
      </trkpt>
      <trkpt lat="40.246729" lon="-.969024">
        <ele>1215.652</ele>
        <time>2020-08-28T13:50:52Z</time>
      </trkpt>
      <trkpt lat="40.24666" lon="-.968968">
        <ele>1215.724</ele>
        <time>2020-08-28T13:50:54Z</time>
      </trkpt>
      <trkpt lat="40.24658" lon="-.968915">
        <ele>1215.812</ele>
        <time>2020-08-28T13:50:56Z</time>
      </trkpt>
      <trkpt lat="40.246508" lon="-.968872">
        <ele>1216.149</ele>
        <time>2020-08-28T13:50:58Z</time>
      </trkpt>
      <trkpt lat="40.246428" lon="-.96883">
        <ele>1216.267</ele>
        <time>2020-08-28T13:51:00Z</time>
      </trkpt>
      <trkpt lat="40.246365" lon="-.968797">
        <ele>1216.247</ele>
        <time>2020-08-28T13:51:02Z</time>
      </trkpt>
      <trkpt lat="40.246299" lon="-.968769">
        <ele>1216.224</ele>
        <time>2020-08-28T13:51:04Z</time>
      </trkpt>
      <trkpt lat="40.246229" lon="-.968734">
        <ele>1216.204</ele>
        <time>2020-08-28T13:51:06Z</time>
      </trkpt>
      <trkpt lat="40.246161" lon="-.968684">
        <ele>1216.214</ele>
        <time>2020-08-28T13:51:08Z</time>
      </trkpt>
      <trkpt lat="40.246096" lon="-.968634">
        <ele>1216.308</ele>
        <time>2020-08-28T13:51:10Z</time>
      </trkpt>
      <trkpt lat="40.246017" lon="-.968593">
        <ele>1216.437</ele>
        <time>2020-08-28T13:51:12Z</time>
      </trkpt>
      <trkpt lat="40.245946" lon="-.968552">
        <ele>1216.487</ele>
        <time>2020-08-28T13:51:14Z</time>
      </trkpt>
      <trkpt lat="40.245887" lon="-.96851">
        <ele>1216.499</ele>
        <time>2020-08-28T13:51:16Z</time>
      </trkpt>
      <trkpt lat="40.245818" lon="-.96847">
        <ele>1216.591</ele>
        <time>2020-08-28T13:51:18Z</time>
      </trkpt>
      <trkpt lat="40.245762" lon="-.968408">
        <ele>1216.629</ele>
        <time>2020-08-28T13:51:20Z</time>
      </trkpt>
      <trkpt lat="40.245708" lon="-.968356">
        <ele>1216.776</ele>
        <time>2020-08-28T13:51:22Z</time>
      </trkpt>
      <trkpt lat="40.245664" lon="-.968326">
        <ele>1216.774</ele>
        <time>2020-08-28T13:51:23Z</time>
      </trkpt>
      <trkpt lat="40.245578" lon="-.968303">
        <ele>1216.894</ele>
        <time>2020-08-28T13:51:25Z</time>
      </trkpt>
      <trkpt lat="40.245508" lon="-.968267">
        <ele>1216.829</ele>
        <time>2020-08-28T13:51:27Z</time>
      </trkpt>
      <trkpt lat="40.245448" lon="-.968226">
        <ele>1216.900</ele>
        <time>2020-08-28T13:51:29Z</time>
      </trkpt>
      <trkpt lat="40.245402" lon="-.968217">
        <ele>1217.020</ele>
        <time>2020-08-28T13:51:30Z</time>
      </trkpt>
      <trkpt lat="40.245324" lon="-.968166">
        <ele>1217.108</ele>
        <time>2020-08-28T13:51:32Z</time>
      </trkpt>
      <trkpt lat="40.245251" lon="-.968139">
        <ele>1217.197</ele>
        <time>2020-08-28T13:51:34Z</time>
      </trkpt>
      <trkpt lat="40.24518" lon="-.968087">
        <ele>1217.237</ele>
        <time>2020-08-28T13:51:36Z</time>
      </trkpt>
      <trkpt lat="40.245131" lon="-.9681">
        <ele>1217.299</ele>
        <time>2020-08-28T13:51:37Z</time>
      </trkpt>
      <trkpt lat="40.245084" lon="-.968053">
        <ele>1217.321</ele>
        <time>2020-08-28T13:51:39Z</time>
      </trkpt>
      <trkpt lat="40.244997" lon="-.968006">
        <ele>1217.449</ele>
        <time>2020-08-28T13:51:41Z</time>
      </trkpt>
      <trkpt lat="40.24495" lon="-.967987">
        <ele>1217.596</ele>
        <time>2020-08-28T13:51:42Z</time>
      </trkpt>
      <trkpt lat="40.244902" lon="-.967983">
        <ele>1217.594</ele>
        <time>2020-08-28T13:51:43Z</time>
      </trkpt>
      <trkpt lat="40.244824" lon="-.967951">
        <ele>1217.524</ele>
        <time>2020-08-28T13:51:45Z</time>
      </trkpt>
      <trkpt lat="40.244737" lon="-.967927">
        <ele>1217.473</ele>
        <time>2020-08-28T13:51:47Z</time>
      </trkpt>
      <trkpt lat="40.244693" lon="-.967915">
        <ele>1217.485</ele>
        <time>2020-08-28T13:51:48Z</time>
      </trkpt>
      <trkpt lat="40.244622" lon="-.967871">
        <ele>1217.313</ele>
        <time>2020-08-28T13:51:50Z</time>
      </trkpt>
      <trkpt lat="40.244531" lon="-.967857">
        <ele>1217.308</ele>
        <time>2020-08-28T13:51:52Z</time>
      </trkpt>
      <trkpt lat="40.244449" lon="-.967826">
        <ele>1217.482</ele>
        <time>2020-08-28T13:51:54Z</time>
      </trkpt>
      <trkpt lat="40.244371" lon="-.967815">
        <ele>1217.462</ele>
        <time>2020-08-28T13:51:56Z</time>
      </trkpt>
      <trkpt lat="40.244327" lon="-.967832">
        <ele>1217.484</ele>
        <time>2020-08-28T13:51:57Z</time>
      </trkpt>
      <trkpt lat="40.244271" lon="-.967833">
        <ele>1217.426</ele>
        <time>2020-08-28T13:51:58Z</time>
      </trkpt>
      <trkpt lat="40.24422" lon="-.967832">
        <ele>1217.464</ele>
        <time>2020-08-28T13:51:59Z</time>
      </trkpt>
      <trkpt lat="40.244141" lon="-.967846">
        <ele>1217.441</ele>
        <time>2020-08-28T13:52:01Z</time>
      </trkpt>
      <trkpt lat="40.244062" lon="-.967817">
        <ele>1217.379</ele>
        <time>2020-08-28T13:52:03Z</time>
      </trkpt>
      <trkpt lat="40.243982" lon="-.967804">
        <ele>1217.259</ele>
        <time>2020-08-28T13:52:05Z</time>
      </trkpt>
      <trkpt lat="40.243906" lon="-.967794">
        <ele>1217.249</ele>
        <time>2020-08-28T13:52:07Z</time>
      </trkpt>
      <trkpt lat="40.243857" lon="-.967798">
        <ele>1217.202</ele>
        <time>2020-08-28T13:52:08Z</time>
      </trkpt>
      <trkpt lat="40.243812" lon="-.967813">
        <ele>1217.122</ele>
        <time>2020-08-28T13:52:09Z</time>
      </trkpt>
      <trkpt lat="40.243762" lon="-.967829">
        <ele>1217.008</ele>
        <time>2020-08-28T13:52:10Z</time>
      </trkpt>
      <trkpt lat="40.243681" lon="-.967813">
        <ele>1216.949</ele>
        <time>2020-08-28T13:52:12Z</time>
      </trkpt>
      <trkpt lat="40.243621" lon="-.96782">
        <ele>1216.939</ele>
        <time>2020-08-28T13:52:14Z</time>
      </trkpt>
      <trkpt lat="40.243571" lon="-.967834">
        <ele>1216.891</ele>
        <time>2020-08-28T13:52:16Z</time>
      </trkpt>
      <trkpt lat="40.243503" lon="-.967851">
        <ele>1216.883</ele>
        <time>2020-08-28T13:52:18Z</time>
      </trkpt>
      <trkpt lat="40.24345" lon="-.967862">
        <ele>1216.711</ele>
        <time>2020-08-28T13:52:20Z</time>
      </trkpt>
      <trkpt lat="40.243388" lon="-.967876">
        <ele>1216.738</ele>
        <time>2020-08-28T13:52:22Z</time>
      </trkpt>
      <trkpt lat="40.243325" lon="-.967896">
        <ele>1216.886</ele>
        <time>2020-08-28T13:52:24Z</time>
      </trkpt>
      <trkpt lat="40.243252" lon="-.967893">
        <ele>1216.966</ele>
        <time>2020-08-28T13:52:26Z</time>
      </trkpt>
      <trkpt lat="40.24319" lon="-.967907">
        <ele>1216.927</ele>
        <time>2020-08-28T13:52:28Z</time>
      </trkpt>
      <trkpt lat="40.243115" lon="-.967925">
        <ele>1216.768</ele>
        <time>2020-08-28T13:52:30Z</time>
      </trkpt>
      <trkpt lat="40.243047" lon="-.967946">
        <ele>1216.714</ele>
        <time>2020-08-28T13:52:32Z</time>
      </trkpt>
      <trkpt lat="40.242961" lon="-.967979">
        <ele>1216.808</ele>
        <time>2020-08-28T13:52:34Z</time>
      </trkpt>
      <trkpt lat="40.242871" lon="-.96802">
        <ele>1217.047</ele>
        <time>2020-08-28T13:52:36Z</time>
      </trkpt>
      <trkpt lat="40.242796" lon="-.968043">
        <ele>1217.117</ele>
        <time>2020-08-28T13:52:38Z</time>
      </trkpt>
      <trkpt lat="40.24273" lon="-.968057">
        <ele>1217.179</ele>
        <time>2020-08-28T13:52:40Z</time>
      </trkpt>
      <trkpt lat="40.242664" lon="-.968093">
        <ele>1217.051</ele>
        <time>2020-08-28T13:52:42Z</time>
      </trkpt>
      <trkpt lat="40.242612" lon="-.968114">
        <ele>1216.849</ele>
        <time>2020-08-28T13:52:44Z</time>
      </trkpt>
      <trkpt lat="40.242559" lon="-.968146">
        <ele>1216.876</ele>
        <time>2020-08-28T13:52:46Z</time>
      </trkpt>
      <trkpt lat="40.242504" lon="-.968174">
        <ele>1216.854</ele>
        <time>2020-08-28T13:52:48Z</time>
      </trkpt>
      <trkpt lat="40.242438" lon="-.968206">
        <ele>1216.894</ele>
        <time>2020-08-28T13:52:50Z</time>
      </trkpt>
      <trkpt lat="40.242369" lon="-.968235">
        <ele>1216.823</ele>
        <time>2020-08-28T13:52:52Z</time>
      </trkpt>
      <trkpt lat="40.242306" lon="-.968273">
        <ele>1216.883</ele>
        <time>2020-08-28T13:52:54Z</time>
      </trkpt>
      <trkpt lat="40.242246" lon="-.968317">
        <ele>1216.811</ele>
        <time>2020-08-28T13:52:56Z</time>
      </trkpt>
      <trkpt lat="40.242172" lon="-.968362">
        <ele>1216.908</ele>
        <time>2020-08-28T13:52:58Z</time>
      </trkpt>
      <trkpt lat="40.242108" lon="-.968403">
        <ele>1217.017</ele>
        <time>2020-08-28T13:53:00Z</time>
      </trkpt>
      <trkpt lat="40.242044" lon="-.968433">
        <ele>1217.147</ele>
        <time>2020-08-28T13:53:02Z</time>
      </trkpt>
      <trkpt lat="40.241984" lon="-.9685">
        <ele>1217.149</ele>
        <time>2020-08-28T13:53:04Z</time>
      </trkpt>
      <trkpt lat="40.241916" lon="-.968555">
        <ele>1217.161</ele>
        <time>2020-08-28T13:53:06Z</time>
      </trkpt>
      <trkpt lat="40.241837" lon="-.968616">
        <ele>1217.169</ele>
        <time>2020-08-28T13:53:08Z</time>
      </trkpt>
      <trkpt lat="40.241773" lon="-.968675">
        <ele>1217.026</ele>
        <time>2020-08-28T13:53:10Z</time>
      </trkpt>
      <trkpt lat="40.241706" lon="-.96874">
        <ele>1217.094</ele>
        <time>2020-08-28T13:53:12Z</time>
      </trkpt>
      <trkpt lat="40.241647" lon="-.968816">
        <ele>1216.964</ele>
        <time>2020-08-28T13:53:14Z</time>
      </trkpt>
      <trkpt lat="40.241594" lon="-.968878">
        <ele>1216.835</ele>
        <time>2020-08-28T13:53:16Z</time>
      </trkpt>
      <trkpt lat="40.241546" lon="-.968918">
        <ele>1216.886</ele>
        <time>2020-08-28T13:53:18Z</time>
      </trkpt>
      <trkpt lat="40.241502" lon="-.96895">
        <ele>1216.914</ele>
        <time>2020-08-28T13:53:20Z</time>
      </trkpt>
      <trkpt lat="40.241468" lon="-.96899">
        <ele>1217.108</ele>
        <time>2020-08-28T13:53:22Z</time>
      </trkpt>
      <trkpt lat="40.241423" lon="-.969026">
        <ele>1217.148</ele>
        <time>2020-08-28T13:53:24Z</time>
      </trkpt>
      <trkpt lat="40.241385" lon="-.969089">
        <ele>1217.228</ele>
        <time>2020-08-28T13:53:26Z</time>
      </trkpt>
      <trkpt lat="40.241333" lon="-.969121">
        <ele>1217.490</ele>
        <time>2020-08-28T13:53:28Z</time>
      </trkpt>
      <trkpt lat="40.241281" lon="-.969163">
        <ele>1217.512</ele>
        <time>2020-08-28T13:53:30Z</time>
      </trkpt>
      <trkpt lat="40.241228" lon="-.969197">
        <ele>1217.380</ele>
        <time>2020-08-28T13:53:32Z</time>
      </trkpt>
      <trkpt lat="40.241173" lon="-.969264">
        <ele>1217.327</ele>
        <time>2020-08-28T13:53:34Z</time>
      </trkpt>
      <trkpt lat="40.241114" lon="-.969306">
        <ele>1217.475</ele>
        <time>2020-08-28T13:53:36Z</time>
      </trkpt>
      <trkpt lat="40.241054" lon="-.96936">
        <ele>1217.425</ele>
        <time>2020-08-28T13:53:38Z</time>
      </trkpt>
      <trkpt lat="40.240997" lon="-.969405">
        <ele>1217.222</ele>
        <time>2020-08-28T13:53:40Z</time>
      </trkpt>
      <trkpt lat="40.240936" lon="-.969453">
        <ele>1217.162</ele>
        <time>2020-08-28T13:53:42Z</time>
      </trkpt>
      <trkpt lat="40.240871" lon="-.969522">
        <ele>1217.108</ele>
        <time>2020-08-28T13:53:44Z</time>
      </trkpt>
      <trkpt lat="40.24081" lon="-.969565">
        <ele>1217.208</ele>
        <time>2020-08-28T13:53:46Z</time>
      </trkpt>
      <trkpt lat="40.240749" lon="-.969638">
        <ele>1217.257</ele>
        <time>2020-08-28T13:53:48Z</time>
      </trkpt>
      <trkpt lat="40.240688" lon="-.969708">
        <ele>1217.297</ele>
        <time>2020-08-28T13:53:50Z</time>
      </trkpt>
      <trkpt lat="40.24062" lon="-.969764">
        <ele>1217.299</ele>
        <time>2020-08-28T13:53:52Z</time>
      </trkpt>
      <trkpt lat="40.24056" lon="-.969849">
        <ele>1217.271</ele>
        <time>2020-08-28T13:53:54Z</time>
      </trkpt>
      <trkpt lat="40.240498" lon="-.9699">
        <ele>1217.419</ele>
        <time>2020-08-28T13:53:56Z</time>
      </trkpt>
      <trkpt lat="40.240441" lon="-.96997">
        <ele>1217.686</ele>
        <time>2020-08-28T13:53:58Z</time>
      </trkpt>
      <trkpt lat="40.240373" lon="-.970026">
        <ele>1217.684</ele>
        <time>2020-08-28T13:54:00Z</time>
      </trkpt>
      <trkpt lat="40.240314" lon="-.97009">
        <ele>1217.594</ele>
        <time>2020-08-28T13:54:02Z</time>
      </trkpt>
      <trkpt lat="40.240283" lon="-.970137">
        <ele>1217.414</ele>
        <time>2020-08-28T13:54:03Z</time>
      </trkpt>
      <trkpt lat="40.240211" lon="-.97019">
        <ele>1217.354</ele>
        <time>2020-08-28T13:54:05Z</time>
      </trkpt>
      <trkpt lat="40.24015" lon="-.970252">
        <ele>1217.209</ele>
        <time>2020-08-28T13:54:07Z</time>
      </trkpt>
      <trkpt lat="40.240087" lon="-.970296">
        <ele>1217.308</ele>
        <time>2020-08-28T13:54:09Z</time>
      </trkpt>
      <trkpt lat="40.240024" lon="-.970349">
        <ele>1217.446</ele>
        <time>2020-08-28T13:54:11Z</time>
      </trkpt>
      <trkpt lat="40.239957" lon="-.970417">
        <ele>1217.526</ele>
        <time>2020-08-28T13:54:13Z</time>
      </trkpt>
      <trkpt lat="40.239891" lon="-.970478">
        <ele>1217.618</ele>
        <time>2020-08-28T13:54:15Z</time>
      </trkpt>
      <trkpt lat="40.239826" lon="-.970537">
        <ele>1217.710</ele>
        <time>2020-08-28T13:54:17Z</time>
      </trkpt>
      <trkpt lat="40.239759" lon="-.970596">
        <ele>1217.738</ele>
        <time>2020-08-28T13:54:19Z</time>
      </trkpt>
      <trkpt lat="40.239694" lon="-.970651">
        <ele>1217.785</ele>
        <time>2020-08-28T13:54:21Z</time>
      </trkpt>
      <trkpt lat="40.23966" lon="-.970692">
        <ele>1217.633</ele>
        <time>2020-08-28T13:54:22Z</time>
      </trkpt>
      <trkpt lat="40.239625" lon="-.970735">
        <ele>1217.623</ele>
        <time>2020-08-28T13:54:23Z</time>
      </trkpt>
      <trkpt lat="40.239562" lon="-.970793">
        <ele>1217.611</ele>
        <time>2020-08-28T13:54:25Z</time>
      </trkpt>
      <trkpt lat="40.239503" lon="-.970872">
        <ele>1217.621</ele>
        <time>2020-08-28T13:54:27Z</time>
      </trkpt>
      <trkpt lat="40.239436" lon="-.970933">
        <ele>1217.603</ele>
        <time>2020-08-28T13:54:29Z</time>
      </trkpt>
      <trkpt lat="40.239374" lon="-.970992">
        <ele>1217.608</ele>
        <time>2020-08-28T13:54:31Z</time>
      </trkpt>
      <trkpt lat="40.239308" lon="-.971058">
        <ele>1217.796</ele>
        <time>2020-08-28T13:54:33Z</time>
      </trkpt>
      <trkpt lat="40.23925" lon="-.97113">
        <ele>1217.826</ele>
        <time>2020-08-28T13:54:35Z</time>
      </trkpt>
      <trkpt lat="40.239186" lon="-.971202">
        <ele>1217.958</ele>
        <time>2020-08-28T13:54:37Z</time>
      </trkpt>
      <trkpt lat="40.239118" lon="-.971272">
        <ele>1218.170</ele>
        <time>2020-08-28T13:54:39Z</time>
      </trkpt>
      <trkpt lat="40.239052" lon="-.971333">
        <ele>1218.638</ele>
        <time>2020-08-28T13:54:41Z</time>
      </trkpt>
      <trkpt lat="40.23899" lon="-.971406">
        <ele>1218.975</ele>
        <time>2020-08-28T13:54:43Z</time>
      </trkpt>
      <trkpt lat="40.238925" lon="-.971457">
        <ele>1218.993</ele>
        <time>2020-08-28T13:54:45Z</time>
      </trkpt>
      <trkpt lat="40.23889" lon="-.971499">
        <ele>1218.883</ele>
        <time>2020-08-28T13:54:46Z</time>
      </trkpt>
      <trkpt lat="40.238821" lon="-.971562">
        <ele>1218.979</ele>
        <time>2020-08-28T13:54:48Z</time>
      </trkpt>
      <trkpt lat="40.238761" lon="-.971606">
        <ele>1219.005</ele>
        <time>2020-08-28T13:54:50Z</time>
      </trkpt>
      <trkpt lat="40.238694" lon="-.971666">
        <ele>1218.925</ele>
        <time>2020-08-28T13:54:52Z</time>
      </trkpt>
      <trkpt lat="40.23863" lon="-.97174">
        <ele>1219.008</ele>
        <time>2020-08-28T13:54:54Z</time>
      </trkpt>
      <trkpt lat="40.238557" lon="-.971798">
        <ele>1219.182</ele>
        <time>2020-08-28T13:54:56Z</time>
      </trkpt>
      <trkpt lat="40.238492" lon="-.971856">
        <ele>1219.142</ele>
        <time>2020-08-28T13:54:58Z</time>
      </trkpt>
      <trkpt lat="40.238431" lon="-.971912">
        <ele>1219.144</ele>
        <time>2020-08-28T13:55:00Z</time>
      </trkpt>
      <trkpt lat="40.238403" lon="-.971958">
        <ele>1219.196</ele>
        <time>2020-08-28T13:55:01Z</time>
      </trkpt>
      <trkpt lat="40.238343" lon="-.972003">
        <ele>1218.964</ele>
        <time>2020-08-28T13:55:03Z</time>
      </trkpt>
      <trkpt lat="40.238273" lon="-.972042">
        <ele>1218.921</ele>
        <time>2020-08-28T13:55:05Z</time>
      </trkpt>
      <trkpt lat="40.238218" lon="-.972104">
        <ele>1219.389</ele>
        <time>2020-08-28T13:55:07Z</time>
      </trkpt>
      <trkpt lat="40.238153" lon="-.972178">
        <ele>1219.539</ele>
        <time>2020-08-28T13:55:09Z</time>
      </trkpt>
      <trkpt lat="40.238092" lon="-.972251">
        <ele>1219.392</ele>
        <time>2020-08-28T13:55:11Z</time>
      </trkpt>
      <trkpt lat="40.238032" lon="-.972324">
        <ele>1218.973</ele>
        <time>2020-08-28T13:55:13Z</time>
      </trkpt>
      <trkpt lat="40.237964" lon="-.972378">
        <ele>1218.820</ele>
        <time>2020-08-28T13:55:15Z</time>
      </trkpt>
      <trkpt lat="40.237934" lon="-.972427">
        <ele>1218.708</ele>
        <time>2020-08-28T13:55:16Z</time>
      </trkpt>
      <trkpt lat="40.237867" lon="-.97249">
        <ele>1218.774</ele>
        <time>2020-08-28T13:55:18Z</time>
      </trkpt>
      <trkpt lat="40.237804" lon="-.972539">
        <ele>1218.824</ele>
        <time>2020-08-28T13:55:20Z</time>
      </trkpt>
      <trkpt lat="40.237746" lon="-.972604">
        <ele>1218.846</ele>
        <time>2020-08-28T13:55:22Z</time>
      </trkpt>
      <trkpt lat="40.237671" lon="-.972668">
        <ele>1218.598</ele>
        <time>2020-08-28T13:55:24Z</time>
      </trkpt>
      <trkpt lat="40.237604" lon="-.972732">
        <ele>1218.386</ele>
        <time>2020-08-28T13:55:26Z</time>
      </trkpt>
      <trkpt lat="40.237533" lon="-.972791">
        <ele>1218.393</ele>
        <time>2020-08-28T13:55:28Z</time>
      </trkpt>
      <trkpt lat="40.237473" lon="-.972872">
        <ele>1218.541</ele>
        <time>2020-08-28T13:55:30Z</time>
      </trkpt>
      <trkpt lat="40.237405" lon="-.972926">
        <ele>1218.611</ele>
        <time>2020-08-28T13:55:32Z</time>
      </trkpt>
      <trkpt lat="40.237343" lon="-.972979">
        <ele>1218.715</ele>
        <time>2020-08-28T13:55:34Z</time>
      </trkpt>
      <trkpt lat="40.237307" lon="-.973016">
        <ele>1218.865</ele>
        <time>2020-08-28T13:55:35Z</time>
      </trkpt>
      <trkpt lat="40.237238" lon="-.973083">
        <ele>1218.911</ele>
        <time>2020-08-28T13:55:37Z</time>
      </trkpt>
      <trkpt lat="40.237199" lon="-.973114">
        <ele>1219.008</ele>
        <time>2020-08-28T13:55:38Z</time>
      </trkpt>
      <trkpt lat="40.237129" lon="-.973173">
        <ele>1219.136</ele>
        <time>2020-08-28T13:55:40Z</time>
      </trkpt>
      <trkpt lat="40.237053" lon="-.973219">
        <ele>1219.216</ele>
        <time>2020-08-28T13:55:42Z</time>
      </trkpt>
      <trkpt lat="40.236978" lon="-.973256">
        <ele>1219.378</ele>
        <time>2020-08-28T13:55:44Z</time>
      </trkpt>
      <trkpt lat="40.236899" lon="-.97331">
        <ele>1219.440</ele>
        <time>2020-08-28T13:55:46Z</time>
      </trkpt>
      <trkpt lat="40.236826" lon="-.973372">
        <ele>1219.418</ele>
        <time>2020-08-28T13:55:48Z</time>
      </trkpt>
      <trkpt lat="40.236768" lon="-.97345">
        <ele>1219.445</ele>
        <time>2020-08-28T13:55:50Z</time>
      </trkpt>
      <trkpt lat="40.236709" lon="-.973503">
        <ele>1219.563</ele>
        <time>2020-08-28T13:55:52Z</time>
      </trkpt>
      <trkpt lat="40.236636" lon="-.973519">
        <ele>1219.673</ele>
        <time>2020-08-28T13:55:54Z</time>
      </trkpt>
      <trkpt lat="40.23656" lon="-.973548">
        <ele>1219.787</ele>
        <time>2020-08-28T13:55:56Z</time>
      </trkpt>
      <trkpt lat="40.236482" lon="-.973577">
        <ele>1219.742</ele>
        <time>2020-08-28T13:55:58Z</time>
      </trkpt>
      <trkpt lat="40.2364" lon="-.973588">
        <ele>1219.526</ele>
        <time>2020-08-28T13:56:00Z</time>
      </trkpt>
      <trkpt lat="40.236372" lon="-.973648">
        <ele>1219.408</ele>
        <time>2020-08-28T13:56:01Z</time>
      </trkpt>
      <trkpt lat="40.236295" lon="-.973685">
        <ele>1219.323</ele>
        <time>2020-08-28T13:56:03Z</time>
      </trkpt>
      <trkpt lat="40.236255" lon="-.973717">
        <ele>1219.393</ele>
        <time>2020-08-28T13:56:04Z</time>
      </trkpt>
      <trkpt lat="40.236167" lon="-.973731">
        <ele>1219.395</ele>
        <time>2020-08-28T13:56:06Z</time>
      </trkpt>
      <trkpt lat="40.23609" lon="-.973777">
        <ele>1219.327</ele>
        <time>2020-08-28T13:56:08Z</time>
      </trkpt>
      <trkpt lat="40.236045" lon="-.973791">
        <ele>1219.475</ele>
        <time>2020-08-28T13:56:09Z</time>
      </trkpt>
      <trkpt lat="40.235977" lon="-.973819">
        <ele>1219.542</ele>
        <time>2020-08-28T13:56:11Z</time>
      </trkpt>
      <trkpt lat="40.235904" lon="-.973822">
        <ele>1219.510</ele>
        <time>2020-08-28T13:56:13Z</time>
      </trkpt>
      <trkpt lat="40.235816" lon="-.973848">
        <ele>1219.660</ele>
        <time>2020-08-28T13:56:15Z</time>
      </trkpt>
      <trkpt lat="40.235734" lon="-.973875">
        <ele>1219.722</ele>
        <time>2020-08-28T13:56:17Z</time>
      </trkpt>
      <trkpt lat="40.235686" lon="-.973875">
        <ele>1219.762</ele>
        <time>2020-08-28T13:56:18Z</time>
      </trkpt>
      <trkpt lat="40.235613" lon="-.973899">
        <ele>1219.708</ele>
        <time>2020-08-28T13:56:20Z</time>
      </trkpt>
      <trkpt lat="40.235537" lon="-.973936">
        <ele>1219.708</ele>
        <time>2020-08-28T13:56:22Z</time>
      </trkpt>
      <trkpt lat="40.235449" lon="-.973946">
        <ele>1219.777</ele>
        <time>2020-08-28T13:56:24Z</time>
      </trkpt>
      <trkpt lat="40.235375" lon="-.973953">
        <ele>1219.827</ele>
        <time>2020-08-28T13:56:26Z</time>
      </trkpt>
      <trkpt lat="40.235285" lon="-.973938">
        <ele>1219.959</ele>
        <time>2020-08-28T13:56:28Z</time>
      </trkpt>
      <trkpt lat="40.235214" lon="-.973938">
        <ele>1220.121</ele>
        <time>2020-08-28T13:56:30Z</time>
      </trkpt>
      <trkpt lat="40.235167" lon="-.973927">
        <ele>1220.239</ele>
        <time>2020-08-28T13:56:31Z</time>
      </trkpt>
      <trkpt lat="40.235089" lon="-.973932">
        <ele>1220.436</ele>
        <time>2020-08-28T13:56:33Z</time>
      </trkpt>
      <trkpt lat="40.235013" lon="-.973911">
        <ele>1220.414</ele>
        <time>2020-08-28T13:56:35Z</time>
      </trkpt>
      <trkpt lat="40.23493" lon="-.973912">
        <ele>1220.374</ele>
        <time>2020-08-28T13:56:37Z</time>
      </trkpt>
      <trkpt lat="40.23485" lon="-.973905">
        <ele>1220.323</ele>
        <time>2020-08-28T13:56:39Z</time>
      </trkpt>
      <trkpt lat="40.234768" lon="-.973891">
        <ele>1220.383</ele>
        <time>2020-08-28T13:56:41Z</time>
      </trkpt>
      <trkpt lat="40.234686" lon="-.973871">
        <ele>1220.211</ele>
        <time>2020-08-28T13:56:43Z</time>
      </trkpt>
      <trkpt lat="40.234638" lon="-.973878">
        <ele>1220.208</ele>
        <time>2020-08-28T13:56:44Z</time>
      </trkpt>
      <trkpt lat="40.234566" lon="-.97387">
        <ele>1220.227</ele>
        <time>2020-08-28T13:56:46Z</time>
      </trkpt>
      <trkpt lat="40.23449" lon="-.973838">
        <ele>1220.117</ele>
        <time>2020-08-28T13:56:48Z</time>
      </trkpt>
      <trkpt lat="40.23442" lon="-.973809">
        <ele>1219.939</ele>
        <time>2020-08-28T13:56:50Z</time>
      </trkpt>
      <trkpt lat="40.234346" lon="-.973787">
        <ele>1219.821</ele>
        <time>2020-08-28T13:56:52Z</time>
      </trkpt>
      <trkpt lat="40.234296" lon="-.97378">
        <ele>1219.869</ele>
        <time>2020-08-28T13:56:53Z</time>
      </trkpt>
      <trkpt lat="40.234236" lon="-.973776">
        <ele>1219.816</ele>
        <time>2020-08-28T13:56:55Z</time>
      </trkpt>
      <trkpt lat="40.234178" lon="-.973751">
        <ele>1219.534</ele>
        <time>2020-08-28T13:56:57Z</time>
      </trkpt>
      <trkpt lat="40.234123" lon="-.97374">
        <ele>1219.594</ele>
        <time>2020-08-28T13:57:00Z</time>
      </trkpt>
      <trkpt lat="40.234067" lon="-.973704">
        <ele>1219.619</ele>
        <time>2020-08-28T13:57:04Z</time>
      </trkpt>
      <trkpt lat="40.234032" lon="-.973756">
        <ele>1218.809</ele>
        <time>2020-08-28T13:57:13Z</time>
      </trkpt>
      <trkpt lat="40.233991" lon="-.973692">
        <ele>1219.219</ele>
        <time>2020-08-28T13:59:00Z</time>
      </trkpt>
      <trkpt lat="40.233938" lon="-.973645">
        <ele>1219.808</ele>
        <time>2020-08-28T14:02:16Z</time>
      </trkpt>
      <trkpt lat="40.233979" lon="-.973677">
        <ele>1219.546</ele>
        <time>2020-08-28T14:05:09Z</time>
      </trkpt>
      <trkpt lat="40.233897" lon="-.97362">
        <ele>1220.836</ele>
        <time>2020-08-28T14:07:46Z</time>
      </trkpt>
      <trkpt lat="40.233838" lon="-.973608">
        <ele>1220.828</ele>
        <time>2020-08-28T14:07:49Z</time>
      </trkpt>
      <trkpt lat="40.233783" lon="-.973574">
        <ele>1220.950</ele>
        <time>2020-08-28T14:07:52Z</time>
      </trkpt>
      <trkpt lat="40.233738" lon="-.973549">
        <ele>1221.068</ele>
        <time>2020-08-28T14:07:54Z</time>
      </trkpt>
      <trkpt lat="40.233681" lon="-.97352">
        <ele>1221.195</ele>
        <time>2020-08-28T14:07:56Z</time>
      </trkpt>
      <trkpt lat="40.233624" lon="-.97349">
        <ele>1221.113</ele>
        <time>2020-08-28T14:07:58Z</time>
      </trkpt>
      <trkpt lat="40.233561" lon="-.973462">
        <ele>1221.143</ele>
        <time>2020-08-28T14:08:00Z</time>
      </trkpt>
      <trkpt lat="40.233497" lon="-.973432">
        <ele>1221.112</ele>
        <time>2020-08-28T14:08:02Z</time>
      </trkpt>
      <trkpt lat="40.233432" lon="-.9734">
        <ele>1221.132</ele>
        <time>2020-08-28T14:08:04Z</time>
      </trkpt>
      <trkpt lat="40.233383" lon="-.973369">
        <ele>1221.105</ele>
        <time>2020-08-28T14:08:06Z</time>
      </trkpt>
      <trkpt lat="40.233339" lon="-.973319">
        <ele>1221.008</ele>
        <time>2020-08-28T14:08:09Z</time>
      </trkpt>
      <trkpt lat="40.233279" lon="-.973284">
        <ele>1221.056</ele>
        <time>2020-08-28T14:08:11Z</time>
      </trkpt>
      <trkpt lat="40.233217" lon="-.973251">
        <ele>1221.156</ele>
        <time>2020-08-28T14:08:13Z</time>
      </trkpt>
      <trkpt lat="40.233152" lon="-.973199">
        <ele>1221.178</ele>
        <time>2020-08-28T14:08:15Z</time>
      </trkpt>
      <trkpt lat="40.233106" lon="-.973134">
        <ele>1221.040</ele>
        <time>2020-08-28T14:08:17Z</time>
      </trkpt>
      <trkpt lat="40.233055" lon="-.973075">
        <ele>1221.058</ele>
        <time>2020-08-28T14:08:19Z</time>
      </trkpt>
      <trkpt lat="40.233001" lon="-.97303">
        <ele>1221.015</ele>
        <time>2020-08-28T14:08:21Z</time>
      </trkpt>
      <trkpt lat="40.23295" lon="-.97296">
        <ele>1221.143</ele>
        <time>2020-08-28T14:08:23Z</time>
      </trkpt>
      <trkpt lat="40.232878" lon="-.972906">
        <ele>1221.083</ele>
        <time>2020-08-28T14:08:25Z</time>
      </trkpt>
      <trkpt lat="40.232806" lon="-.972847">
        <ele>1221.011</ele>
        <time>2020-08-28T14:08:27Z</time>
      </trkpt>
      <trkpt lat="40.232744" lon="-.972778">
        <ele>1220.921</ele>
        <time>2020-08-28T14:08:29Z</time>
      </trkpt>
      <trkpt lat="40.232675" lon="-.972712">
        <ele>1220.703</ele>
        <time>2020-08-28T14:08:31Z</time>
      </trkpt>
      <trkpt lat="40.232628" lon="-.972682">
        <ele>1220.608</ele>
        <time>2020-08-28T14:08:32Z</time>
      </trkpt>
      <trkpt lat="40.232577" lon="-.972608">
        <ele>1220.636</ele>
        <time>2020-08-28T14:08:34Z</time>
      </trkpt>
      <trkpt lat="40.232537" lon="-.972568">
        <ele>1220.786</ele>
        <time>2020-08-28T14:08:35Z</time>
      </trkpt>
      <trkpt lat="40.232491" lon="-.972539">
        <ele>1220.898</ele>
        <time>2020-08-28T14:08:36Z</time>
      </trkpt>
      <trkpt lat="40.232451" lon="-.972506">
        <ele>1220.810</ele>
        <time>2020-08-28T14:08:37Z</time>
      </trkpt>
      <trkpt lat="40.232393" lon="-.972443">
        <ele>1220.818</ele>
        <time>2020-08-28T14:08:39Z</time>
      </trkpt>
      <trkpt lat="40.232326" lon="-.972396">
        <ele>1220.635</ele>
        <time>2020-08-28T14:08:41Z</time>
      </trkpt>
      <trkpt lat="40.232289" lon="-.972357">
        <ele>1220.433</ele>
        <time>2020-08-28T14:08:42Z</time>
      </trkpt>
      <trkpt lat="40.232225" lon="-.972293">
        <ele>1220.263</ele>
        <time>2020-08-28T14:08:44Z</time>
      </trkpt>
      <trkpt lat="40.232147" lon="-.972238">
        <ele>1220.137</ele>
        <time>2020-08-28T14:08:46Z</time>
      </trkpt>
      <trkpt lat="40.232082" lon="-.972186">
        <ele>1220.149</ele>
        <time>2020-08-28T14:08:48Z</time>
      </trkpt>
      <trkpt lat="40.232017" lon="-.972139">
        <ele>1219.813</ele>
        <time>2020-08-28T14:08:50Z</time>
      </trkpt>
      <trkpt lat="40.231957" lon="-.97208">
        <ele>1219.608</ele>
        <time>2020-08-28T14:08:52Z</time>
      </trkpt>
      <trkpt lat="40.231909" lon="-.972034">
        <ele>1219.598</ele>
        <time>2020-08-28T14:08:54Z</time>
      </trkpt>
      <trkpt lat="40.231847" lon="-.971971">
        <ele>1219.398</ele>
        <time>2020-08-28T14:08:56Z</time>
      </trkpt>
      <trkpt lat="40.231766" lon="-.97192">
        <ele>1219.140</ele>
        <time>2020-08-28T14:08:58Z</time>
      </trkpt>
      <trkpt lat="40.231702" lon="-.971857">
        <ele>1219.042</ele>
        <time>2020-08-28T14:09:00Z</time>
      </trkpt>
      <trkpt lat="40.231624" lon="-.971805">
        <ele>1219.080</ele>
        <time>2020-08-28T14:09:02Z</time>
      </trkpt>
      <trkpt lat="40.231574" lon="-.97176">
        <ele>1218.927</ele>
        <time>2020-08-28T14:09:04Z</time>
      </trkpt>
      <trkpt lat="40.231533" lon="-.971732">
        <ele>1218.975</ele>
        <time>2020-08-28T14:09:05Z</time>
      </trkpt>
      <trkpt lat="40.231501" lon="-.97169">
        <ele>1218.975</ele>
        <time>2020-08-28T14:09:06Z</time>
      </trkpt>
      <trkpt lat="40.231466" lon="-.971653">
        <ele>1218.829</ele>
        <time>2020-08-28T14:09:07Z</time>
      </trkpt>
      <trkpt lat="40.231396" lon="-.971608">
        <ele>1218.700</ele>
        <time>2020-08-28T14:09:09Z</time>
      </trkpt>
      <trkpt lat="40.231337" lon="-.971554">
        <ele>1218.520</ele>
        <time>2020-08-28T14:09:11Z</time>
      </trkpt>
      <trkpt lat="40.231279" lon="-.971485">
        <ele>1218.408</ele>
        <time>2020-08-28T14:09:13Z</time>
      </trkpt>
      <trkpt lat="40.231229" lon="-.971439">
        <ele>1218.257</ele>
        <time>2020-08-28T14:09:15Z</time>
      </trkpt>
      <trkpt lat="40.231177" lon="-.971373">
        <ele>1218.117</ele>
        <time>2020-08-28T14:09:17Z</time>
      </trkpt>
      <trkpt lat="40.231137" lon="-.971345">
        <ele>1218.099</ele>
        <time>2020-08-28T14:09:18Z</time>
      </trkpt>
      <trkpt lat="40.231081" lon="-.971284">
        <ele>1218.041</ele>
        <time>2020-08-28T14:09:20Z</time>
      </trkpt>
      <trkpt lat="40.231009" lon="-.971217">
        <ele>1218.049</ele>
        <time>2020-08-28T14:09:22Z</time>
      </trkpt>
      <trkpt lat="40.230974" lon="-.971176">
        <ele>1218.086</ele>
        <time>2020-08-28T14:09:23Z</time>
      </trkpt>
      <trkpt lat="40.230929" lon="-.97114">
        <ele>1217.984</ele>
        <time>2020-08-28T14:09:24Z</time>
      </trkpt>
      <trkpt lat="40.23089" lon="-.971105">
        <ele>1217.734</ele>
        <time>2020-08-28T14:09:25Z</time>
      </trkpt>
      <trkpt lat="40.230852" lon="-.971062">
        <ele>1217.587</ele>
        <time>2020-08-28T14:09:26Z</time>
      </trkpt>
      <trkpt lat="40.230811" lon="-.971022">
        <ele>1217.442</ele>
        <time>2020-08-28T14:09:27Z</time>
      </trkpt>
      <trkpt lat="40.23077" lon="-.970978">
        <ele>1217.326</ele>
        <time>2020-08-28T14:09:28Z</time>
      </trkpt>
      <trkpt lat="40.230715" lon="-.970935">
        <ele>1217.308</ele>
        <time>2020-08-28T14:09:29Z</time>
      </trkpt>
      <trkpt lat="40.230671" lon="-.970901">
        <ele>1217.313</ele>
        <time>2020-08-28T14:09:30Z</time>
      </trkpt>
      <trkpt lat="40.230627" lon="-.970864">
        <ele>1217.283</ele>
        <time>2020-08-28T14:09:31Z</time>
      </trkpt>
      <trkpt lat="40.230586" lon="-.970825">
        <ele>1217.175</ele>
        <time>2020-08-28T14:09:32Z</time>
      </trkpt>
      <trkpt lat="40.230545" lon="-.970786">
        <ele>1217.077</ele>
        <time>2020-08-28T14:09:33Z</time>
      </trkpt>
      <trkpt lat="40.230508" lon="-.970737">
        <ele>1217.055</ele>
        <time>2020-08-28T14:09:34Z</time>
      </trkpt>
      <trkpt lat="40.230457" lon="-.970694">
        <ele>1216.942</ele>
        <time>2020-08-28T14:09:35Z</time>
      </trkpt>
      <trkpt lat="40.230407" lon="-.970657">
        <ele>1216.990</ele>
        <time>2020-08-28T14:09:36Z</time>
      </trkpt>
      <trkpt lat="40.230355" lon="-.970617">
        <ele>1216.940</ele>
        <time>2020-08-28T14:09:37Z</time>
      </trkpt>
      <trkpt lat="40.230311" lon="-.970577">
        <ele>1216.966</ele>
        <time>2020-08-28T14:09:38Z</time>
      </trkpt>
      <trkpt lat="40.230275" lon="-.970533">
        <ele>1216.929</ele>
        <time>2020-08-28T14:09:39Z</time>
      </trkpt>
      <trkpt lat="40.230228" lon="-.970485">
        <ele>1216.921</ele>
        <time>2020-08-28T14:09:40Z</time>
      </trkpt>
      <trkpt lat="40.230176" lon="-.970445">
        <ele>1216.908</ele>
        <time>2020-08-28T14:09:41Z</time>
      </trkpt>
      <trkpt lat="40.230132" lon="-.970406">
        <ele>1216.891</ele>
        <time>2020-08-28T14:09:42Z</time>
      </trkpt>
      <trkpt lat="40.230089" lon="-.970367">
        <ele>1216.741</ele>
        <time>2020-08-28T14:09:43Z</time>
      </trkpt>
      <trkpt lat="40.230042" lon="-.970333">
        <ele>1216.613</ele>
        <time>2020-08-28T14:09:44Z</time>
      </trkpt>
      <trkpt lat="40.230005" lon="-.970296">
        <ele>1216.415</ele>
        <time>2020-08-28T14:09:45Z</time>
      </trkpt>
      <trkpt lat="40.229956" lon="-.970265">
        <ele>1216.263</ele>
        <time>2020-08-28T14:09:46Z</time>
      </trkpt>
      <trkpt lat="40.229908" lon="-.970226">
        <ele>1216.060</ele>
        <time>2020-08-28T14:09:47Z</time>
      </trkpt>
      <trkpt lat="40.229863" lon="-.970183">
        <ele>1215.868</ele>
        <time>2020-08-28T14:09:48Z</time>
      </trkpt>
      <trkpt lat="40.2298" lon="-.970116">
        <ele>1215.588</ele>
        <time>2020-08-28T14:09:50Z</time>
      </trkpt>
      <trkpt lat="40.229763" lon="-.970076">
        <ele>1215.481</ele>
        <time>2020-08-28T14:09:51Z</time>
      </trkpt>
      <trkpt lat="40.229718" lon="-.970043">
        <ele>1215.361</ele>
        <time>2020-08-28T14:09:52Z</time>
      </trkpt>
      <trkpt lat="40.229641" lon="-.969988">
        <ele>1215.317</ele>
        <time>2020-08-28T14:09:54Z</time>
      </trkpt>
      <trkpt lat="40.229596" lon="-.969958">
        <ele>1215.408</ele>
        <time>2020-08-28T14:09:55Z</time>
      </trkpt>
      <trkpt lat="40.229555" lon="-.969916">
        <ele>1215.413</ele>
        <time>2020-08-28T14:09:56Z</time>
      </trkpt>
      <trkpt lat="40.229514" lon="-.969882">
        <ele>1215.453</ele>
        <time>2020-08-28T14:09:57Z</time>
      </trkpt>
      <trkpt lat="40.229477" lon="-.969836">
        <ele>1215.435</ele>
        <time>2020-08-28T14:09:58Z</time>
      </trkpt>
      <trkpt lat="40.229433" lon="-.969795">
        <ele>1215.377</ele>
        <time>2020-08-28T14:09:59Z</time>
      </trkpt>
      <trkpt lat="40.229382" lon="-.969759">
        <ele>1215.235</ele>
        <time>2020-08-28T14:10:00Z</time>
      </trkpt>
      <trkpt lat="40.22933" lon="-.969718">
        <ele>1215.162</ele>
        <time>2020-08-28T14:10:01Z</time>
      </trkpt>
      <trkpt lat="40.229284" lon="-.969694">
        <ele>1215.080</ele>
        <time>2020-08-28T14:10:02Z</time>
      </trkpt>
      <trkpt lat="40.229245" lon="-.969661">
        <ele>1214.770</ele>
        <time>2020-08-28T14:10:03Z</time>
      </trkpt>
      <trkpt lat="40.229202" lon="-.969615">
        <ele>1214.658</ele>
        <time>2020-08-28T14:10:04Z</time>
      </trkpt>
      <trkpt lat="40.229157" lon="-.969572">
        <ele>1214.552</ele>
        <time>2020-08-28T14:10:05Z</time>
      </trkpt>
      <trkpt lat="40.229117" lon="-.969527">
        <ele>1214.517</ele>
        <time>2020-08-28T14:10:06Z</time>
      </trkpt>
      <trkpt lat="40.22907" lon="-.969486">
        <ele>1214.508</ele>
        <time>2020-08-28T14:10:07Z</time>
      </trkpt>
      <trkpt lat="40.229028" lon="-.969449">
        <ele>1214.560</ele>
        <time>2020-08-28T14:10:08Z</time>
      </trkpt>
      <trkpt lat="40.228984" lon="-.969411">
        <ele>1214.590</ele>
        <time>2020-08-28T14:10:09Z</time>
      </trkpt>
      <trkpt lat="40.228941" lon="-.969374">
        <ele>1214.552</ele>
        <time>2020-08-28T14:10:10Z</time>
      </trkpt>
      <trkpt lat="40.228896" lon="-.969332">
        <ele>1214.454</ele>
        <time>2020-08-28T14:10:11Z</time>
      </trkpt>
      <trkpt lat="40.228855" lon="-.969289">
        <ele>1214.352</ele>
        <time>2020-08-28T14:10:12Z</time>
      </trkpt>
      <trkpt lat="40.228809" lon="-.969251">
        <ele>1214.159</ele>
        <time>2020-08-28T14:10:13Z</time>
      </trkpt>
      <trkpt lat="40.228772" lon="-.969215">
        <ele>1213.997</ele>
        <time>2020-08-28T14:10:14Z</time>
      </trkpt>
      <trkpt lat="40.228725" lon="-.969172">
        <ele>1213.737</ele>
        <time>2020-08-28T14:10:15Z</time>
      </trkpt>
      <trkpt lat="40.228678" lon="-.969126">
        <ele>1213.634</ele>
        <time>2020-08-28T14:10:16Z</time>
      </trkpt>
      <trkpt lat="40.228637" lon="-.969081">
        <ele>1213.555</ele>
        <time>2020-08-28T14:10:17Z</time>
      </trkpt>
      <trkpt lat="40.228592" lon="-.96904">
        <ele>1213.410</ele>
        <time>2020-08-28T14:10:18Z</time>
      </trkpt>
      <trkpt lat="40.228548" lon="-.968998">
        <ele>1213.408</ele>
        <time>2020-08-28T14:10:19Z</time>
      </trkpt>
      <trkpt lat="40.2285" lon="-.96895">
        <ele>1213.348</ele>
        <time>2020-08-28T14:10:20Z</time>
      </trkpt>
      <trkpt lat="40.228453" lon="-.968907">
        <ele>1213.298</ele>
        <time>2020-08-28T14:10:21Z</time>
      </trkpt>
      <trkpt lat="40.228404" lon="-.96886">
        <ele>1213.150</ele>
        <time>2020-08-28T14:10:22Z</time>
      </trkpt>
      <trkpt lat="40.228355" lon="-.968825">
        <ele>1213.052</ele>
        <time>2020-08-28T14:10:23Z</time>
      </trkpt>
      <trkpt lat="40.228313" lon="-.968778">
        <ele>1212.950</ele>
        <time>2020-08-28T14:10:24Z</time>
      </trkpt>
      <trkpt lat="40.228263" lon="-.968732">
        <ele>1212.827</ele>
        <time>2020-08-28T14:10:25Z</time>
      </trkpt>
      <trkpt lat="40.228217" lon="-.968694">
        <ele>1212.795</ele>
        <time>2020-08-28T14:10:26Z</time>
      </trkpt>
      <trkpt lat="40.228177" lon="-.968655">
        <ele>1212.745</ele>
        <time>2020-08-28T14:10:27Z</time>
      </trkpt>
      <trkpt lat="40.228135" lon="-.968608">
        <ele>1212.748</ele>
        <time>2020-08-28T14:10:28Z</time>
      </trkpt>
      <trkpt lat="40.228083" lon="-.968562">
        <ele>1212.661</ele>
        <time>2020-08-28T14:10:29Z</time>
      </trkpt>
      <trkpt lat="40.228041" lon="-.968524">
        <ele>1212.517</ele>
        <time>2020-08-28T14:10:30Z</time>
      </trkpt>
      <trkpt lat="40.228006" lon="-.968477">
        <ele>1212.408</ele>
        <time>2020-08-28T14:10:31Z</time>
      </trkpt>
      <trkpt lat="40.227965" lon="-.968426">
        <ele>1212.329</ele>
        <time>2020-08-28T14:10:32Z</time>
      </trkpt>
      <trkpt lat="40.227927" lon="-.968378">
        <ele>1212.219</ele>
        <time>2020-08-28T14:10:33Z</time>
      </trkpt>
      <trkpt lat="40.227851" lon="-.968305">
        <ele>1212.211</ele>
        <time>2020-08-28T14:10:35Z</time>
      </trkpt>
      <trkpt lat="40.227802" lon="-.968261">
        <ele>1212.253</ele>
        <time>2020-08-28T14:10:36Z</time>
      </trkpt>
      <trkpt lat="40.227755" lon="-.96822">
        <ele>1212.231</ele>
        <time>2020-08-28T14:10:37Z</time>
      </trkpt>
      <trkpt lat="40.227704" lon="-.968183">
        <ele>1212.268</ele>
        <time>2020-08-28T14:10:38Z</time>
      </trkpt>
      <trkpt lat="40.227649" lon="-.968146">
        <ele>1212.056</ele>
        <time>2020-08-28T14:10:39Z</time>
      </trkpt>
      <trkpt lat="40.227601" lon="-.968109">
        <ele>1211.936</ele>
        <time>2020-08-28T14:10:40Z</time>
      </trkpt>
      <trkpt lat="40.227546" lon="-.968072">
        <ele>1211.894</ele>
        <time>2020-08-28T14:10:41Z</time>
      </trkpt>
      <trkpt lat="40.227509" lon="-.968031">
        <ele>1211.757</ele>
        <time>2020-08-28T14:10:42Z</time>
      </trkpt>
      <trkpt lat="40.22746" lon="-.967987">
        <ele>1211.622</ele>
        <time>2020-08-28T14:10:43Z</time>
      </trkpt>
      <trkpt lat="40.227423" lon="-.967951">
        <ele>1211.608</ele>
        <time>2020-08-28T14:10:44Z</time>
      </trkpt>
      <trkpt lat="40.227385" lon="-.967906">
        <ele>1211.554</ele>
        <time>2020-08-28T14:10:45Z</time>
      </trkpt>
      <trkpt lat="40.227341" lon="-.96786">
        <ele>1211.554</ele>
        <time>2020-08-28T14:10:46Z</time>
      </trkpt>
      <trkpt lat="40.227285" lon="-.967816">
        <ele>1211.576</ele>
        <time>2020-08-28T14:10:47Z</time>
      </trkpt>
      <trkpt lat="40.22724" lon="-.967779">
        <ele>1211.518</ele>
        <time>2020-08-28T14:10:48Z</time>
      </trkpt>
      <trkpt lat="40.227196" lon="-.967747">
        <ele>1211.526</ele>
        <time>2020-08-28T14:10:49Z</time>
      </trkpt>
      <trkpt lat="40.227159" lon="-.967708">
        <ele>1211.543</ele>
        <time>2020-08-28T14:10:50Z</time>
      </trkpt>
      <trkpt lat="40.227123" lon="-.967663">
        <ele>1211.591</ele>
        <time>2020-08-28T14:10:51Z</time>
      </trkpt>
      <trkpt lat="40.227081" lon="-.967624">
        <ele>1211.551</ele>
        <time>2020-08-28T14:10:52Z</time>
      </trkpt>
      <trkpt lat="40.227044" lon="-.967583">
        <ele>1211.434</ele>
        <time>2020-08-28T14:10:53Z</time>
      </trkpt>
      <trkpt lat="40.226998" lon="-.967539">
        <ele>1211.355</ele>
        <time>2020-08-28T14:10:54Z</time>
      </trkpt>
      <trkpt lat="40.226954" lon="-.967493">
        <ele>1211.210</ele>
        <time>2020-08-28T14:10:55Z</time>
      </trkpt>
      <trkpt lat="40.22692" lon="-.96745">
        <ele>1211.008</ele>
        <time>2020-08-28T14:10:56Z</time>
      </trkpt>
      <trkpt lat="40.226826" lon="-.967381">
        <ele>1210.848</ele>
        <time>2020-08-28T14:10:58Z</time>
      </trkpt>
      <trkpt lat="40.22678" lon="-.967341">
        <ele>1210.688</ele>
        <time>2020-08-28T14:10:59Z</time>
      </trkpt>
      <trkpt lat="40.226739" lon="-.967304">
        <ele>1210.490</ele>
        <time>2020-08-28T14:11:00Z</time>
      </trkpt>
      <trkpt lat="40.2267" lon="-.967265">
        <ele>1210.332</ele>
        <time>2020-08-28T14:11:01Z</time>
      </trkpt>
      <trkpt lat="40.226656" lon="-.967228">
        <ele>1210.360</ele>
        <time>2020-08-28T14:11:02Z</time>
      </trkpt>
      <trkpt lat="40.226621" lon="-.967181">
        <ele>1210.337</ele>
        <time>2020-08-28T14:11:03Z</time>
      </trkpt>
      <trkpt lat="40.226576" lon="-.967143">
        <ele>1210.285</ele>
        <time>2020-08-28T14:11:04Z</time>
      </trkpt>
      <trkpt lat="40.226533" lon="-.9671">
        <ele>1210.215</ele>
        <time>2020-08-28T14:11:05Z</time>
      </trkpt>
      <trkpt lat="40.226487" lon="-.96707">
        <ele>1210.176</ele>
        <time>2020-08-28T14:11:06Z</time>
      </trkpt>
      <trkpt lat="40.226439" lon="-.967033">
        <ele>1209.990</ele>
        <time>2020-08-28T14:11:07Z</time>
      </trkpt>
      <trkpt lat="40.226398" lon="-.966987">
        <ele>1209.819</ele>
        <time>2020-08-28T14:11:08Z</time>
      </trkpt>
      <trkpt lat="40.226361" lon="-.966946">
        <ele>1209.808</ele>
        <time>2020-08-28T14:11:09Z</time>
      </trkpt>
      <trkpt lat="40.22631" lon="-.966913">
        <ele>1209.822</ele>
        <time>2020-08-28T14:11:10Z</time>
      </trkpt>
      <trkpt lat="40.226264" lon="-.96688">
        <ele>1209.882</ele>
        <time>2020-08-28T14:11:11Z</time>
      </trkpt>
      <trkpt lat="40.226227" lon="-.966834">
        <ele>1209.784</ele>
        <time>2020-08-28T14:11:12Z</time>
      </trkpt>
      <trkpt lat="40.226186" lon="-.966787">
        <ele>1209.646</ele>
        <time>2020-08-28T14:11:13Z</time>
      </trkpt>
      <trkpt lat="40.226144" lon="-.966746">
        <ele>1209.514</ele>
        <time>2020-08-28T14:11:14Z</time>
      </trkpt>
      <trkpt lat="40.226104" lon="-.966701">
        <ele>1209.471</ele>
        <time>2020-08-28T14:11:15Z</time>
      </trkpt>
      <trkpt lat="40.226059" lon="-.966661">
        <ele>1209.349</ele>
        <time>2020-08-28T14:11:16Z</time>
      </trkpt>
      <trkpt lat="40.226011" lon="-.966626">
        <ele>1209.239</ele>
        <time>2020-08-28T14:11:17Z</time>
      </trkpt>
      <trkpt lat="40.225975" lon="-.966584">
        <ele>1209.114</ele>
        <time>2020-08-28T14:11:18Z</time>
      </trkpt>
      <trkpt lat="40.225938" lon="-.966537">
        <ele>1209.054</ele>
        <time>2020-08-28T14:11:19Z</time>
      </trkpt>
      <trkpt lat="40.225899" lon="-.966501">
        <ele>1209.009</ele>
        <time>2020-08-28T14:11:20Z</time>
      </trkpt>
      <trkpt lat="40.225857" lon="-.966461">
        <ele>1209.008</ele>
        <time>2020-08-28T14:11:21Z</time>
      </trkpt>
      <trkpt lat="40.225779" lon="-.966386">
        <ele>1208.936</ele>
        <time>2020-08-28T14:11:23Z</time>
      </trkpt>
      <trkpt lat="40.225738" lon="-.966347">
        <ele>1208.856</ele>
        <time>2020-08-28T14:11:24Z</time>
      </trkpt>
      <trkpt lat="40.225702" lon="-.966305">
        <ele>1208.758</ele>
        <time>2020-08-28T14:11:25Z</time>
      </trkpt>
      <trkpt lat="40.225663" lon="-.966267">
        <ele>1208.620</ele>
        <time>2020-08-28T14:11:26Z</time>
      </trkpt>
      <trkpt lat="40.225601" lon="-.966197">
        <ele>1208.548</ele>
        <time>2020-08-28T14:11:28Z</time>
      </trkpt>
      <trkpt lat="40.22556" lon="-.966163">
        <ele>1208.485</ele>
        <time>2020-08-28T14:11:29Z</time>
      </trkpt>
      <trkpt lat="40.225518" lon="-.966121">
        <ele>1208.213</ele>
        <time>2020-08-28T14:11:30Z</time>
      </trkpt>
      <trkpt lat="40.225481" lon="-.966074">
        <ele>1208.163</ele>
        <time>2020-08-28T14:11:31Z</time>
      </trkpt>
      <trkpt lat="40.225421" lon="-.965995">
        <ele>1207.915</ele>
        <time>2020-08-28T14:11:33Z</time>
      </trkpt>
      <trkpt lat="40.225378" lon="-.965956">
        <ele>1207.865</ele>
        <time>2020-08-28T14:11:34Z</time>
      </trkpt>
      <trkpt lat="40.225307" lon="-.965893">
        <ele>1207.711</ele>
        <time>2020-08-28T14:11:36Z</time>
      </trkpt>
      <trkpt lat="40.225269" lon="-.965843">
        <ele>1207.708</ele>
        <time>2020-08-28T14:11:37Z</time>
      </trkpt>
      <trkpt lat="40.225217" lon="-.965788">
        <ele>1207.756</ele>
        <time>2020-08-28T14:11:38Z</time>
      </trkpt>
      <trkpt lat="40.225179" lon="-.965744">
        <ele>1207.616</ele>
        <time>2020-08-28T14:11:39Z</time>
      </trkpt>
      <trkpt lat="40.22514" lon="-.9657">
        <ele>1207.538</ele>
        <time>2020-08-28T14:11:40Z</time>
      </trkpt>
      <trkpt lat="40.225098" lon="-.965659">
        <ele>1207.480</ele>
        <time>2020-08-28T14:11:41Z</time>
      </trkpt>
      <trkpt lat="40.225055" lon="-.965617">
        <ele>1207.358</ele>
        <time>2020-08-28T14:11:42Z</time>
      </trkpt>
      <trkpt lat="40.225017" lon="-.965571">
        <ele>1207.235</ele>
        <time>2020-08-28T14:11:43Z</time>
      </trkpt>
      <trkpt lat="40.224979" lon="-.965533">
        <ele>1207.213</ele>
        <time>2020-08-28T14:11:44Z</time>
      </trkpt>
      <trkpt lat="40.22494" lon="-.965489">
        <ele>1207.153</ele>
        <time>2020-08-28T14:11:45Z</time>
      </trkpt>
      <trkpt lat="40.224901" lon="-.965448">
        <ele>1207.115</ele>
        <time>2020-08-28T14:11:46Z</time>
      </trkpt>
      <trkpt lat="40.224861" lon="-.965412">
        <ele>1207.065</ele>
        <time>2020-08-28T14:11:47Z</time>
      </trkpt>
      <trkpt lat="40.224826" lon="-.965374">
        <ele>1206.911</ele>
        <time>2020-08-28T14:11:48Z</time>
      </trkpt>
      <trkpt lat="40.224788" lon="-.965338">
        <ele>1206.808</ele>
        <time>2020-08-28T14:11:49Z</time>
      </trkpt>
      <trkpt lat="40.224746" lon="-.965301">
        <ele>1206.816</ele>
        <time>2020-08-28T14:11:50Z</time>
      </trkpt>
      <trkpt lat="40.224699" lon="-.965259">
        <ele>1206.856</ele>
        <time>2020-08-28T14:11:51Z</time>
      </trkpt>
      <trkpt lat="40.224657" lon="-.965217">
        <ele>1206.838</ele>
        <time>2020-08-28T14:11:52Z</time>
      </trkpt>
      <trkpt lat="40.224606" lon="-.965177">
        <ele>1206.960</ele>
        <time>2020-08-28T14:11:53Z</time>
      </trkpt>
      <trkpt lat="40.224555" lon="-.965132">
        <ele>1206.968</ele>
        <time>2020-08-28T14:11:54Z</time>
      </trkpt>
      <trkpt lat="40.224518" lon="-.96509">
        <ele>1206.935</ele>
        <time>2020-08-28T14:11:55Z</time>
      </trkpt>
      <trkpt lat="40.224474" lon="-.965049">
        <ele>1206.913</ele>
        <time>2020-08-28T14:11:56Z</time>
      </trkpt>
      <trkpt lat="40.224432" lon="-.965001">
        <ele>1206.993</ele>
        <time>2020-08-28T14:11:57Z</time>
      </trkpt>
      <trkpt lat="40.224387" lon="-.964955">
        <ele>1206.911</ele>
        <time>2020-08-28T14:11:58Z</time>
      </trkpt>
      <trkpt lat="40.224344" lon="-.964899">
        <ele>1206.921</ele>
        <time>2020-08-28T14:11:59Z</time>
      </trkpt>
      <trkpt lat="40.224309" lon="-.964858">
        <ele>1206.603</ele>
        <time>2020-08-28T14:12:00Z</time>
      </trkpt>
      <trkpt lat="40.224272" lon="-.964816">
        <ele>1206.408</ele>
        <time>2020-08-28T14:12:01Z</time>
      </trkpt>
      <trkpt lat="40.224234" lon="-.964767">
        <ele>1206.396</ele>
        <time>2020-08-28T14:12:02Z</time>
      </trkpt>
      <trkpt lat="40.224194" lon="-.964716">
        <ele>1206.376</ele>
        <time>2020-08-28T14:12:03Z</time>
      </trkpt>
      <trkpt lat="40.224156" lon="-.964671">
        <ele>1206.388</ele>
        <time>2020-08-28T14:12:04Z</time>
      </trkpt>
      <trkpt lat="40.224113" lon="-.964619">
        <ele>1206.330</ele>
        <time>2020-08-28T14:12:05Z</time>
      </trkpt>
      <trkpt lat="40.224062" lon="-.964574">
        <ele>1206.328</ele>
        <time>2020-08-28T14:12:06Z</time>
      </trkpt>
      <trkpt lat="40.224033" lon="-.964521">
        <ele>1206.345</ele>
        <time>2020-08-28T14:12:07Z</time>
      </trkpt>
      <trkpt lat="40.223969" lon="-.964441">
        <ele>1206.313</ele>
        <time>2020-08-28T14:12:09Z</time>
      </trkpt>
      <trkpt lat="40.223925" lon="-.964399">
        <ele>1206.353</ele>
        <time>2020-08-28T14:12:10Z</time>
      </trkpt>
      <trkpt lat="40.223888" lon="-.964343">
        <ele>1206.268</ele>
        <time>2020-08-28T14:12:11Z</time>
      </trkpt>
      <trkpt lat="40.223856" lon="-.964296">
        <ele>1206.142</ele>
        <time>2020-08-28T14:12:12Z</time>
      </trkpt>
      <trkpt lat="40.223818" lon="-.964246">
        <ele>1206.026</ele>
        <time>2020-08-28T14:12:13Z</time>
      </trkpt>
      <trkpt lat="40.223777" lon="-.964198">
        <ele>1205.808</ele>
        <time>2020-08-28T14:12:14Z</time>
      </trkpt>
      <trkpt lat="40.223742" lon="-.964148">
        <ele>1205.731</ele>
        <time>2020-08-28T14:12:15Z</time>
      </trkpt>
      <trkpt lat="40.223712" lon="-.964098">
        <ele>1205.711</ele>
        <time>2020-08-28T14:12:16Z</time>
      </trkpt>
      <trkpt lat="40.223677" lon="-.964051">
        <ele>1205.873</ele>
        <time>2020-08-28T14:12:17Z</time>
      </trkpt>
      <trkpt lat="40.223644" lon="-.964006">
        <ele>1205.975</ele>
        <time>2020-08-28T14:12:18Z</time>
      </trkpt>
      <trkpt lat="40.22359" lon="-.963933">
        <ele>1205.853</ele>
        <time>2020-08-28T14:12:20Z</time>
      </trkpt>
      <trkpt lat="40.223531" lon="-.963862">
        <ele>1205.520</ele>
        <time>2020-08-28T14:12:22Z</time>
      </trkpt>
      <trkpt lat="40.223478" lon="-.963787">
        <ele>1205.298</ele>
        <time>2020-08-28T14:12:24Z</time>
      </trkpt>
      <trkpt lat="40.223431" lon="-.963713">
        <ele>1204.928</ele>
        <time>2020-08-28T14:12:26Z</time>
      </trkpt>
      <trkpt lat="40.223385" lon="-.963628">
        <ele>1204.748</ele>
        <time>2020-08-28T14:12:28Z</time>
      </trkpt>
      <trkpt lat="40.22335" lon="-.963577">
        <ele>1204.761</ele>
        <time>2020-08-28T14:12:29Z</time>
      </trkpt>
      <trkpt lat="40.223316" lon="-.963533">
        <ele>1204.717</ele>
        <time>2020-08-28T14:12:30Z</time>
      </trkpt>
      <trkpt lat="40.223284" lon="-.96349">
        <ele>1204.708</ele>
        <time>2020-08-28T14:12:31Z</time>
      </trkpt>
      <trkpt lat="40.223247" lon="-.963443">
        <ele>1204.779</ele>
        <time>2020-08-28T14:12:32Z</time>
      </trkpt>
      <trkpt lat="40.223216" lon="-.9634">
        <ele>1204.689</ele>
        <time>2020-08-28T14:12:33Z</time>
      </trkpt>
      <trkpt lat="40.223185" lon="-.963357">
        <ele>1204.591</ele>
        <time>2020-08-28T14:12:34Z</time>
      </trkpt>
      <trkpt lat="40.223153" lon="-.963307">
        <ele>1204.563</ele>
        <time>2020-08-28T14:12:35Z</time>
      </trkpt>
      <trkpt lat="40.223127" lon="-.963258">
        <ele>1204.511</ele>
        <time>2020-08-28T14:12:36Z</time>
      </trkpt>
      <trkpt lat="40.223087" lon="-.963214">
        <ele>1204.598</ele>
        <time>2020-08-28T14:12:37Z</time>
      </trkpt>
      <trkpt lat="40.223038" lon="-.963169">
        <ele>1204.656</ele>
        <time>2020-08-28T14:12:38Z</time>
      </trkpt>
      <trkpt lat="40.222979" lon="-.963079">
        <ele>1204.776</ele>
        <time>2020-08-28T14:12:40Z</time>
      </trkpt>
      <trkpt lat="40.222942" lon="-.963027">
        <ele>1204.681</ele>
        <time>2020-08-28T14:12:41Z</time>
      </trkpt>
      <trkpt lat="40.222909" lon="-.962981">
        <ele>1204.461</ele>
        <time>2020-08-28T14:12:42Z</time>
      </trkpt>
      <trkpt lat="40.222875" lon="-.962935">
        <ele>1204.317</ele>
        <time>2020-08-28T14:12:43Z</time>
      </trkpt>
      <trkpt lat="40.222839" lon="-.962882">
        <ele>1204.108</ele>
        <time>2020-08-28T14:12:44Z</time>
      </trkpt>
      <trkpt lat="40.222811" lon="-.962833">
        <ele>1203.963</ele>
        <time>2020-08-28T14:12:45Z</time>
      </trkpt>
      <trkpt lat="40.222773" lon="-.962787">
        <ele>1203.823</ele>
        <time>2020-08-28T14:12:46Z</time>
      </trkpt>
      <trkpt lat="40.222729" lon="-.962739">
        <ele>1203.765</ele>
        <time>2020-08-28T14:12:47Z</time>
      </trkpt>
      <trkpt lat="40.222695" lon="-.962686">
        <ele>1203.687</ele>
        <time>2020-08-28T14:12:48Z</time>
      </trkpt>
      <trkpt lat="40.222651" lon="-.962631">
        <ele>1203.555</ele>
        <time>2020-08-28T14:12:49Z</time>
      </trkpt>
      <trkpt lat="40.222617" lon="-.962586">
        <ele>1203.482</ele>
        <time>2020-08-28T14:12:50Z</time>
      </trkpt>
      <trkpt lat="40.222575" lon="-.962528">
        <ele>1203.390</ele>
        <time>2020-08-28T14:12:51Z</time>
      </trkpt>
      <trkpt lat="40.222524" lon="-.962471">
        <ele>1203.320</ele>
        <time>2020-08-28T14:12:52Z</time>
      </trkpt>
      <trkpt lat="40.222488" lon="-.962416">
        <ele>1203.221</ele>
        <time>2020-08-28T14:12:53Z</time>
      </trkpt>
      <trkpt lat="40.222454" lon="-.962368">
        <ele>1203.141</ele>
        <time>2020-08-28T14:12:54Z</time>
      </trkpt>
      <trkpt lat="40.222417" lon="-.962323">
        <ele>1203.105</ele>
        <time>2020-08-28T14:12:55Z</time>
      </trkpt>
      <trkpt lat="40.222373" lon="-.962276">
        <ele>1203.108</ele>
        <time>2020-08-28T14:12:56Z</time>
      </trkpt>
      <trkpt lat="40.222321" lon="-.962178">
        <ele>1202.837</ele>
        <time>2020-08-28T14:12:58Z</time>
      </trkpt>
      <trkpt lat="40.222287" lon="-.962136">
        <ele>1202.787</ele>
        <time>2020-08-28T14:12:59Z</time>
      </trkpt>
      <trkpt lat="40.222247" lon="-.962094">
        <ele>1202.659</ele>
        <time>2020-08-28T14:13:00Z</time>
      </trkpt>
      <trkpt lat="40.222193" lon="-.962001">
        <ele>1202.591</ele>
        <time>2020-08-28T14:13:02Z</time>
      </trkpt>
      <trkpt lat="40.222152" lon="-.961956">
        <ele>1202.589</ele>
        <time>2020-08-28T14:13:03Z</time>
      </trkpt>
      <trkpt lat="40.222108" lon="-.961923">
        <ele>1202.586</ele>
        <time>2020-08-28T14:13:04Z</time>
      </trkpt>
      <trkpt lat="40.222037" lon="-.961847">
        <ele>1202.554</ele>
        <time>2020-08-28T14:13:06Z</time>
      </trkpt>
      <trkpt lat="40.22198" lon="-.961763">
        <ele>1202.214</ele>
        <time>2020-08-28T14:13:08Z</time>
      </trkpt>
      <trkpt lat="40.221948" lon="-.961706">
        <ele>1202.084</ele>
        <time>2020-08-28T14:13:09Z</time>
      </trkpt>
      <trkpt lat="40.221908" lon="-.961651">
        <ele>1202.007</ele>
        <time>2020-08-28T14:13:10Z</time>
      </trkpt>
      <trkpt lat="40.221864" lon="-.961604">
        <ele>1202.017</ele>
        <time>2020-08-28T14:13:11Z</time>
      </trkpt>
      <trkpt lat="40.221829" lon="-.961556">
        <ele>1202.008</ele>
        <time>2020-08-28T14:13:12Z</time>
      </trkpt>
      <trkpt lat="40.221791" lon="-.961509">
        <ele>1202.253</ele>
        <time>2020-08-28T14:13:13Z</time>
      </trkpt>
      <trkpt lat="40.221756" lon="-.961459">
        <ele>1202.233</ele>
        <time>2020-08-28T14:13:14Z</time>
      </trkpt>
      <trkpt lat="40.221721" lon="-.961401">
        <ele>1202.285</ele>
        <time>2020-08-28T14:13:15Z</time>
      </trkpt>
      <trkpt lat="40.221684" lon="-.96135">
        <ele>1202.157</ele>
        <time>2020-08-28T14:13:16Z</time>
      </trkpt>
      <trkpt lat="40.221648" lon="-.961301">
        <ele>1202.155</ele>
        <time>2020-08-28T14:13:17Z</time>
      </trkpt>
      <trkpt lat="40.221626" lon="-.961244">
        <ele>1202.062</ele>
        <time>2020-08-28T14:13:18Z</time>
      </trkpt>
      <trkpt lat="40.221596" lon="-.961187">
        <ele>1201.980</ele>
        <time>2020-08-28T14:13:19Z</time>
      </trkpt>
      <trkpt lat="40.221564" lon="-.961138">
        <ele>1201.890</ele>
        <time>2020-08-28T14:13:20Z</time>
      </trkpt>
      <trkpt lat="40.221538" lon="-.961088">
        <ele>1201.774</ele>
        <time>2020-08-28T14:13:21Z</time>
      </trkpt>
      <trkpt lat="40.221498" lon="-.96104">
        <ele>1201.656</ele>
        <time>2020-08-28T14:13:22Z</time>
      </trkpt>
      <trkpt lat="40.221454" lon="-.960985">
        <ele>1201.621</ele>
        <time>2020-08-28T14:13:23Z</time>
      </trkpt>
      <trkpt lat="40.221414" lon="-.960927">
        <ele>1201.608</ele>
        <time>2020-08-28T14:13:24Z</time>
      </trkpt>
      <trkpt lat="40.22137" lon="-.960883">
        <ele>1201.612</ele>
        <time>2020-08-28T14:13:25Z</time>
      </trkpt>
      <trkpt lat="40.221334" lon="-.960836">
        <ele>1201.522</ele>
        <time>2020-08-28T14:13:26Z</time>
      </trkpt>
      <trkpt lat="40.221302" lon="-.960785">
        <ele>1201.554</ele>
        <time>2020-08-28T14:13:27Z</time>
      </trkpt>
      <trkpt lat="40.221265" lon="-.960738">
        <ele>1201.496</ele>
        <time>2020-08-28T14:13:28Z</time>
      </trkpt>
      <trkpt lat="40.221225" lon="-.960693">
        <ele>1201.394</ele>
        <time>2020-08-28T14:13:29Z</time>
      </trkpt>
      <trkpt lat="40.221184" lon="-.960651">
        <ele>1201.351</ele>
        <time>2020-08-28T14:13:30Z</time>
      </trkpt>
      <trkpt lat="40.221149" lon="-.960604">
        <ele>1201.289</ele>
        <time>2020-08-28T14:13:31Z</time>
      </trkpt>
      <trkpt lat="40.221114" lon="-.960554">
        <ele>1201.229</ele>
        <time>2020-08-28T14:13:32Z</time>
      </trkpt>
      <trkpt lat="40.221072" lon="-.960498">
        <ele>1201.298</ele>
        <time>2020-08-28T14:13:33Z</time>
      </trkpt>
      <trkpt lat="40.221026" lon="-.960451">
        <ele>1201.215</ele>
        <time>2020-08-28T14:13:34Z</time>
      </trkpt>
      <trkpt lat="40.220985" lon="-.960403">
        <ele>1201.226</ele>
        <time>2020-08-28T14:13:35Z</time>
      </trkpt>
      <trkpt lat="40.220946" lon="-.960352">
        <ele>1201.308</ele>
        <time>2020-08-28T14:13:36Z</time>
      </trkpt>
      <trkpt lat="40.220901" lon="-.960307">
        <ele>1201.444</ele>
        <time>2020-08-28T14:13:37Z</time>
      </trkpt>
      <trkpt lat="40.220862" lon="-.960254">
        <ele>1201.474</ele>
        <time>2020-08-28T14:13:38Z</time>
      </trkpt>
      <trkpt lat="40.220822" lon="-.960203">
        <ele>1201.476</ele>
        <time>2020-08-28T14:13:39Z</time>
      </trkpt>
      <trkpt lat="40.220783" lon="-.960155">
        <ele>1201.458</ele>
        <time>2020-08-28T14:13:40Z</time>
      </trkpt>
      <trkpt lat="40.22075" lon="-.960104">
        <ele>1201.316</ele>
        <time>2020-08-28T14:13:41Z</time>
      </trkpt>
      <trkpt lat="40.220709" lon="-.960053">
        <ele>1201.313</ele>
        <time>2020-08-28T14:13:42Z</time>
      </trkpt>
      <trkpt lat="40.220668" lon="-.960006">
        <ele>1201.281</ele>
        <time>2020-08-28T14:13:43Z</time>
      </trkpt>
      <trkpt lat="40.220628" lon="-.959958">
        <ele>1201.241</ele>
        <time>2020-08-28T14:13:44Z</time>
      </trkpt>
      <trkpt lat="40.220583" lon="-.959905">
        <ele>1201.229</ele>
        <time>2020-08-28T14:13:45Z</time>
      </trkpt>
      <trkpt lat="40.220538" lon="-.959851">
        <ele>1201.300</ele>
        <time>2020-08-28T14:13:46Z</time>
      </trkpt>
      <trkpt lat="40.220501" lon="-.959804">
        <ele>1201.320</ele>
        <time>2020-08-28T14:13:47Z</time>
      </trkpt>
      <trkpt lat="40.220443" lon="-.959705">
        <ele>1201.408</ele>
        <time>2020-08-28T14:13:49Z</time>
      </trkpt>
      <trkpt lat="40.220401" lon="-.959657">
        <ele>1201.417</ele>
        <time>2020-08-28T14:13:50Z</time>
      </trkpt>
      <trkpt lat="40.220355" lon="-.959609">
        <ele>1201.497</ele>
        <time>2020-08-28T14:13:51Z</time>
      </trkpt>
      <trkpt lat="40.220315" lon="-.959558">
        <ele>1201.459</ele>
        <time>2020-08-28T14:13:52Z</time>
      </trkpt>
      <trkpt lat="40.220278" lon="-.959502">
        <ele>1201.411</ele>
        <time>2020-08-28T14:13:53Z</time>
      </trkpt>
      <trkpt lat="40.220244" lon="-.95945">
        <ele>1201.339</ele>
        <time>2020-08-28T14:13:54Z</time>
      </trkpt>
      <trkpt lat="40.220208" lon="-.959407">
        <ele>1201.346</ele>
        <time>2020-08-28T14:13:55Z</time>
      </trkpt>
      <trkpt lat="40.220166" lon="-.959358">
        <ele>1201.334</ele>
        <time>2020-08-28T14:13:56Z</time>
      </trkpt>
      <trkpt lat="40.220126" lon="-.95931">
        <ele>1201.354</ele>
        <time>2020-08-28T14:13:57Z</time>
      </trkpt>
      <trkpt lat="40.220087" lon="-.959268">
        <ele>1201.316</ele>
        <time>2020-08-28T14:13:58Z</time>
      </trkpt>
      <trkpt lat="40.22005" lon="-.959224">
        <ele>1201.276</ele>
        <time>2020-08-28T14:13:59Z</time>
      </trkpt>
      <trkpt lat="40.219992" lon="-.95914">
        <ele>1201.113</ele>
        <time>2020-08-28T14:14:01Z</time>
      </trkpt>
      <trkpt lat="40.219936" lon="-.959055">
        <ele>1201.008</ele>
        <time>2020-08-28T14:14:03Z</time>
      </trkpt>
      <trkpt lat="40.219874" lon="-.958966">
        <ele>1201.086</ele>
        <time>2020-08-28T14:14:05Z</time>
      </trkpt>
      <trkpt lat="40.219838" lon="-.958923">
        <ele>1201.016</ele>
        <time>2020-08-28T14:14:06Z</time>
      </trkpt>
      <trkpt lat="40.219796" lon="-.958876">
        <ele>1201.018</ele>
        <time>2020-08-28T14:14:07Z</time>
      </trkpt>
      <trkpt lat="40.219725" lon="-.958797">
        <ele>1201.010</ele>
        <time>2020-08-28T14:14:09Z</time>
      </trkpt>
      <trkpt lat="40.219684" lon="-.958758">
        <ele>1201.068</ele>
        <time>2020-08-28T14:14:10Z</time>
      </trkpt>
      <trkpt lat="40.219649" lon="-.958719">
        <ele>1201.015</ele>
        <time>2020-08-28T14:14:11Z</time>
      </trkpt>
      <trkpt lat="40.219614" lon="-.958668">
        <ele>1201.073</ele>
        <time>2020-08-28T14:14:12Z</time>
      </trkpt>
      <trkpt lat="40.219564" lon="-.958614">
        <ele>1201.033</ele>
        <time>2020-08-28T14:14:13Z</time>
      </trkpt>
      <trkpt lat="40.219521" lon="-.958571">
        <ele>1201.144</ele>
        <time>2020-08-28T14:14:14Z</time>
      </trkpt>
      <trkpt lat="40.21948" lon="-.958515">
        <ele>1201.205</ele>
        <time>2020-08-28T14:14:15Z</time>
      </trkpt>
      <trkpt lat="40.219441" lon="-.958475">
        <ele>1201.215</ele>
        <time>2020-08-28T14:14:16Z</time>
      </trkpt>
      <trkpt lat="40.219411" lon="-.958423">
        <ele>1201.308</ele>
        <time>2020-08-28T14:14:17Z</time>
      </trkpt>
      <trkpt lat="40.219367" lon="-.958376">
        <ele>1201.389</ele>
        <time>2020-08-28T14:14:18Z</time>
      </trkpt>
      <trkpt lat="40.219315" lon="-.95832">
        <ele>1201.369</ele>
        <time>2020-08-28T14:14:19Z</time>
      </trkpt>
      <trkpt lat="40.219269" lon="-.958272">
        <ele>1201.381</ele>
        <time>2020-08-28T14:14:20Z</time>
      </trkpt>
      <trkpt lat="40.219249" lon="-.958211">
        <ele>1201.353</ele>
        <time>2020-08-28T14:14:21Z</time>
      </trkpt>
      <trkpt lat="40.219184" lon="-.958114">
        <ele>1201.361</ele>
        <time>2020-08-28T14:14:23Z</time>
      </trkpt>
      <trkpt lat="40.219154" lon="-.958054">
        <ele>1201.358</ele>
        <time>2020-08-28T14:14:24Z</time>
      </trkpt>
      <trkpt lat="40.219097" lon="-.957968">
        <ele>1201.396</ele>
        <time>2020-08-28T14:14:26Z</time>
      </trkpt>
      <trkpt lat="40.21905" lon="-.957875">
        <ele>1201.476</ele>
        <time>2020-08-28T14:14:28Z</time>
      </trkpt>
      <trkpt lat="40.219022" lon="-.957821">
        <ele>1201.417</ele>
        <time>2020-08-28T14:14:29Z</time>
      </trkpt>
      <trkpt lat="40.218992" lon="-.957776">
        <ele>1201.487</ele>
        <time>2020-08-28T14:14:30Z</time>
      </trkpt>
      <trkpt lat="40.218936" lon="-.95769">
        <ele>1201.415</ele>
        <time>2020-08-28T14:14:32Z</time>
      </trkpt>
      <trkpt lat="40.218886" lon="-.957622">
        <ele>1201.208</ele>
        <time>2020-08-28T14:14:34Z</time>
      </trkpt>
      <trkpt lat="40.218878" lon="-.957531">
        <ele>1200.956</ele>
        <time>2020-08-28T14:14:36Z</time>
      </trkpt>
      <trkpt lat="40.218822" lon="-.957464">
        <ele>1200.586</ele>
        <time>2020-08-28T14:14:38Z</time>
      </trkpt>
      <trkpt lat="40.218792" lon="-.957381">
        <ele>1200.358</ele>
        <time>2020-08-28T14:14:40Z</time>
      </trkpt>
      <trkpt lat="40.218743" lon="-.957312">
        <ele>1200.380</ele>
        <time>2020-08-28T14:14:42Z</time>
      </trkpt>
      <trkpt lat="40.218704" lon="-.957216">
        <ele>1200.578</ele>
        <time>2020-08-28T14:14:44Z</time>
      </trkpt>
      <trkpt lat="40.218669" lon="-.957159">
        <ele>1200.515</ele>
        <time>2020-08-28T14:14:45Z</time>
      </trkpt>
      <trkpt lat="40.218611" lon="-.957068">
        <ele>1200.563</ele>
        <time>2020-08-28T14:14:47Z</time>
      </trkpt>
      <trkpt lat="40.21858" lon="-.957012">
        <ele>1200.483</ele>
        <time>2020-08-28T14:14:48Z</time>
      </trkpt>
      <trkpt lat="40.218547" lon="-.956958">
        <ele>1200.373</ele>
        <time>2020-08-28T14:14:49Z</time>
      </trkpt>
      <trkpt lat="40.218513" lon="-.956901">
        <ele>1200.285</ele>
        <time>2020-08-28T14:14:50Z</time>
      </trkpt>
      <trkpt lat="40.218478" lon="-.956842">
        <ele>1200.013</ele>
        <time>2020-08-28T14:14:51Z</time>
      </trkpt>
      <trkpt lat="40.21844" lon="-.956784">
        <ele>1199.908</ele>
        <time>2020-08-28T14:14:52Z</time>
      </trkpt>
      <trkpt lat="40.218401" lon="-.956725">
        <ele>1199.832</ele>
        <time>2020-08-28T14:14:53Z</time>
      </trkpt>
      <trkpt lat="40.218358" lon="-.956668">
        <ele>1199.752</ele>
        <time>2020-08-28T14:14:54Z</time>
      </trkpt>
      <trkpt lat="40.218326" lon="-.956603">
        <ele>1199.654</ele>
        <time>2020-08-28T14:14:55Z</time>
      </trkpt>
      <trkpt lat="40.218305" lon="-.956531">
        <ele>1199.666</ele>
        <time>2020-08-28T14:14:56Z</time>
      </trkpt>
      <trkpt lat="40.218274" lon="-.956467">
        <ele>1199.784</ele>
        <time>2020-08-28T14:14:57Z</time>
      </trkpt>
      <trkpt lat="40.218238" lon="-.956402">
        <ele>1199.851</ele>
        <time>2020-08-28T14:14:58Z</time>
      </trkpt>
      <trkpt lat="40.218205" lon="-.956338">
        <ele>1199.889</ele>
        <time>2020-08-28T14:14:59Z</time>
      </trkpt>
      <trkpt lat="40.218172" lon="-.95629">
        <ele>1199.829</ele>
        <time>2020-08-28T14:15:00Z</time>
      </trkpt>
      <trkpt lat="40.218144" lon="-.956235">
        <ele>1199.778</ele>
        <time>2020-08-28T14:15:01Z</time>
      </trkpt>
      <trkpt lat="40.218112" lon="-.956169">
        <ele>1199.533</ele>
        <time>2020-08-28T14:15:02Z</time>
      </trkpt>
      <trkpt lat="40.218075" lon="-.956106">
        <ele>1199.326</ele>
        <time>2020-08-28T14:15:03Z</time>
      </trkpt>
      <trkpt lat="40.218044" lon="-.956048">
        <ele>1199.108</ele>
        <time>2020-08-28T14:15:04Z</time>
      </trkpt>
      <trkpt lat="40.218008" lon="-.95599">
        <ele>1199.032</ele>
        <time>2020-08-28T14:15:05Z</time>
      </trkpt>
      <trkpt lat="40.217981" lon="-.955932">
        <ele>1198.922</ele>
        <time>2020-08-28T14:15:06Z</time>
      </trkpt>
      <trkpt lat="40.217958" lon="-.955871">
        <ele>1198.844</ele>
        <time>2020-08-28T14:15:07Z</time>
      </trkpt>
      <trkpt lat="40.217932" lon="-.955815">
        <ele>1198.826</ele>
        <time>2020-08-28T14:15:08Z</time>
      </trkpt>
      <trkpt lat="40.217897" lon="-.955763">
        <ele>1198.974</ele>
        <time>2020-08-28T14:15:09Z</time>
      </trkpt>
      <trkpt lat="40.217872" lon="-.955712">
        <ele>1199.051</ele>
        <time>2020-08-28T14:15:10Z</time>
      </trkpt>
      <trkpt lat="40.217842" lon="-.95566">
        <ele>1199.179</ele>
        <time>2020-08-28T14:15:11Z</time>
      </trkpt>
      <trkpt lat="40.217792" lon="-.955561">
        <ele>1199.159</ele>
        <time>2020-08-28T14:15:13Z</time>
      </trkpt>
      <trkpt lat="40.217762" lon="-.955514">
        <ele>1198.966</ele>
        <time>2020-08-28T14:15:14Z</time>
      </trkpt>
      <trkpt lat="40.217738" lon="-.955463">
        <ele>1198.729</ele>
        <time>2020-08-28T14:15:15Z</time>
      </trkpt>
      <trkpt lat="40.217712" lon="-.95541">
        <ele>1198.421</ele>
        <time>2020-08-28T14:15:16Z</time>
      </trkpt>
      <trkpt lat="40.21768" lon="-.955362">
        <ele>1198.208</ele>
        <time>2020-08-28T14:15:17Z</time>
      </trkpt>
      <trkpt lat="40.217654" lon="-.955312">
        <ele>1198.011</ele>
        <time>2020-08-28T14:15:18Z</time>
      </trkpt>
      <trkpt lat="40.217625" lon="-.955264">
        <ele>1197.861</ele>
        <time>2020-08-28T14:15:19Z</time>
      </trkpt>
      <trkpt lat="40.217598" lon="-.955214">
        <ele>1197.533</ele>
        <time>2020-08-28T14:15:20Z</time>
      </trkpt>
      <trkpt lat="40.21755" lon="-.955125">
        <ele>1197.165</ele>
        <time>2020-08-28T14:15:22Z</time>
      </trkpt>
      <trkpt lat="40.217501" lon="-.955037">
        <ele>1196.713</ele>
        <time>2020-08-28T14:15:24Z</time>
      </trkpt>
      <trkpt lat="40.217453" lon="-.954944">
        <ele>1196.740</ele>
        <time>2020-08-28T14:15:26Z</time>
      </trkpt>
      <trkpt lat="40.217405" lon="-.954849">
        <ele>1196.698</ele>
        <time>2020-08-28T14:15:28Z</time>
      </trkpt>
      <trkpt lat="40.217383" lon="-.954797">
        <ele>1196.628</ele>
        <time>2020-08-28T14:15:29Z</time>
      </trkpt>
      <trkpt lat="40.217351" lon="-.954738">
        <ele>1196.523</ele>
        <time>2020-08-28T14:15:30Z</time>
      </trkpt>
      <trkpt lat="40.217319" lon="-.95469">
        <ele>1196.383</ele>
        <time>2020-08-28T14:15:31Z</time>
      </trkpt>
      <trkpt lat="40.217268" lon="-.954599">
        <ele>1196.011</ele>
        <time>2020-08-28T14:15:33Z</time>
      </trkpt>
      <trkpt lat="40.217237" lon="-.95454">
        <ele>1195.808</ele>
        <time>2020-08-28T14:15:34Z</time>
      </trkpt>
      <trkpt lat="40.217206" lon="-.954492">
        <ele>1195.677</ele>
        <time>2020-08-28T14:15:35Z</time>
      </trkpt>
      <trkpt lat="40.217176" lon="-.954447">
        <ele>1195.547</ele>
        <time>2020-08-28T14:15:36Z</time>
      </trkpt>
      <trkpt lat="40.217151" lon="-.954395">
        <ele>1195.319</ele>
        <time>2020-08-28T14:15:37Z</time>
      </trkpt>
      <trkpt lat="40.21712" lon="-.954343">
        <ele>1195.291</ele>
        <time>2020-08-28T14:15:38Z</time>
      </trkpt>
      <trkpt lat="40.217072" lon="-.954246">
        <ele>1195.099</ele>
        <time>2020-08-28T14:15:40Z</time>
      </trkpt>
      <trkpt lat="40.217044" lon="-.954198">
        <ele>1194.986</ele>
        <time>2020-08-28T14:15:41Z</time>
      </trkpt>
      <trkpt lat="40.217013" lon="-.954152">
        <ele>1194.994</ele>
        <time>2020-08-28T14:15:42Z</time>
      </trkpt>
      <trkpt lat="40.216983" lon="-.954104">
        <ele>1194.844</ele>
        <time>2020-08-28T14:15:43Z</time>
      </trkpt>
      <trkpt lat="40.216961" lon="-.954046">
        <ele>1194.755</ele>
        <time>2020-08-28T14:15:44Z</time>
      </trkpt>
      <trkpt lat="40.216926" lon="-.953993">
        <ele>1194.607</ele>
        <time>2020-08-28T14:15:45Z</time>
      </trkpt>
      <trkpt lat="40.216904" lon="-.953941">
        <ele>1194.517</ele>
        <time>2020-08-28T14:15:46Z</time>
      </trkpt>
      <trkpt lat="40.216879" lon="-.953889">
        <ele>1194.408</ele>
        <time>2020-08-28T14:15:47Z</time>
      </trkpt>
      <trkpt lat="40.216854" lon="-.953834">
        <ele>1194.320</ele>
        <time>2020-08-28T14:15:48Z</time>
      </trkpt>
      <trkpt lat="40.216795" lon="-.953738">
        <ele>1194.110</ele>
        <time>2020-08-28T14:15:50Z</time>
      </trkpt>
      <trkpt lat="40.216768" lon="-.95369">
        <ele>1194.112</ele>
        <time>2020-08-28T14:15:51Z</time>
      </trkpt>
      <trkpt lat="40.216742" lon="-.953639">
        <ele>1194.274</ele>
        <time>2020-08-28T14:15:52Z</time>
      </trkpt>
      <trkpt lat="40.216698" lon="-.953554">
        <ele>1194.262</ele>
        <time>2020-08-28T14:15:54Z</time>
      </trkpt>
      <trkpt lat="40.216664" lon="-.953505">
        <ele>1194.229</ele>
        <time>2020-08-28T14:15:55Z</time>
      </trkpt>
      <trkpt lat="40.216639" lon="-.953444">
        <ele>1194.187</ele>
        <time>2020-08-28T14:15:56Z</time>
      </trkpt>
      <trkpt lat="40.216613" lon="-.953384">
        <ele>1194.197</ele>
        <time>2020-08-28T14:15:57Z</time>
      </trkpt>
      <trkpt lat="40.216601" lon="-.953322">
        <ele>1194.162</ele>
        <time>2020-08-28T14:15:58Z</time>
      </trkpt>
      <trkpt lat="40.216576" lon="-.953268">
        <ele>1194.183</ele>
        <time>2020-08-28T14:15:59Z</time>
      </trkpt>
      <trkpt lat="40.216548" lon="-.953211">
        <ele>1194.111</ele>
        <time>2020-08-28T14:16:00Z</time>
      </trkpt>
      <trkpt lat="40.216527" lon="-.95315">
        <ele>1194.108</ele>
        <time>2020-08-28T14:16:01Z</time>
      </trkpt>
      <trkpt lat="40.216503" lon="-.953092">
        <ele>1194.031</ele>
        <time>2020-08-28T14:16:02Z</time>
      </trkpt>
      <trkpt lat="40.216481" lon="-.953031">
        <ele>1193.831</ele>
        <time>2020-08-28T14:16:03Z</time>
      </trkpt>
      <trkpt lat="40.216466" lon="-.952964">
        <ele>1193.733</ele>
        <time>2020-08-28T14:16:04Z</time>
      </trkpt>
      <trkpt lat="40.21645" lon="-.952881">
        <ele>1193.515</ele>
        <time>2020-08-28T14:16:05Z</time>
      </trkpt>
      <trkpt lat="40.216437" lon="-.952807">
        <ele>1193.463</ele>
        <time>2020-08-28T14:16:06Z</time>
      </trkpt>
      <trkpt lat="40.216417" lon="-.952733">
        <ele>1193.370</ele>
        <time>2020-08-28T14:16:07Z</time>
      </trkpt>
      <trkpt lat="40.216399" lon="-.952659">
        <ele>1193.248</ele>
        <time>2020-08-28T14:16:08Z</time>
      </trkpt>
      <trkpt lat="40.216391" lon="-.95259">
        <ele>1193.048</ele>
        <time>2020-08-28T14:16:09Z</time>
      </trkpt>
      <trkpt lat="40.216377" lon="-.952521">
        <ele>1192.829</ele>
        <time>2020-08-28T14:16:10Z</time>
      </trkpt>
      <trkpt lat="40.216374" lon="-.952456">
        <ele>1192.700</ele>
        <time>2020-08-28T14:16:11Z</time>
      </trkpt>
      <trkpt lat="40.216363" lon="-.952382">
        <ele>1192.520</ele>
        <time>2020-08-28T14:16:12Z</time>
      </trkpt>
      <trkpt lat="40.216345" lon="-.952304">
        <ele>1192.408</ele>
        <time>2020-08-28T14:16:13Z</time>
      </trkpt>
      <trkpt lat="40.216341" lon="-.952241">
        <ele>1192.347</ele>
        <time>2020-08-28T14:16:14Z</time>
      </trkpt>
      <trkpt lat="40.21634" lon="-.952175">
        <ele>1192.257</ele>
        <time>2020-08-28T14:16:15Z</time>
      </trkpt>
      <trkpt lat="40.216327" lon="-.9521">
        <ele>1192.199</ele>
        <time>2020-08-28T14:16:16Z</time>
      </trkpt>
      <trkpt lat="40.21632" lon="-.952029">
        <ele>1192.021</ele>
        <time>2020-08-28T14:16:17Z</time>
      </trkpt>
      <trkpt lat="40.216312" lon="-.951956">
        <ele>1191.989</ele>
        <time>2020-08-28T14:16:18Z</time>
      </trkpt>
      <trkpt lat="40.216293" lon="-.951889">
        <ele>1191.886</ele>
        <time>2020-08-28T14:16:19Z</time>
      </trkpt>
      <trkpt lat="40.216274" lon="-.951817">
        <ele>1191.794</ele>
        <time>2020-08-28T14:16:20Z</time>
      </trkpt>
      <trkpt lat="40.216261" lon="-.951756">
        <ele>1191.674</ele>
        <time>2020-08-28T14:16:21Z</time>
      </trkpt>
      <trkpt lat="40.216262" lon="-.951694">
        <ele>1191.572</ele>
        <time>2020-08-28T14:16:22Z</time>
      </trkpt>
      <trkpt lat="40.216258" lon="-.951625">
        <ele>1191.413</ele>
        <time>2020-08-28T14:16:23Z</time>
      </trkpt>
      <trkpt lat="40.216231" lon="-.951555">
        <ele>1191.314</ele>
        <time>2020-08-28T14:16:24Z</time>
      </trkpt>
      <trkpt lat="40.216221" lon="-.951492">
        <ele>1191.208</ele>
        <time>2020-08-28T14:16:25Z</time>
      </trkpt>
      <trkpt lat="40.216208" lon="-.951401">
        <ele>1191.082</ele>
        <time>2020-08-28T14:16:27Z</time>
      </trkpt>
      <trkpt lat="40.216196" lon="-.951311">
        <ele>1190.862</ele>
        <time>2020-08-28T14:16:29Z</time>
      </trkpt>
      <trkpt lat="40.216179" lon="-.951218">
        <ele>1190.724</ele>
        <time>2020-08-28T14:16:31Z</time>
      </trkpt>
      <trkpt lat="40.21618" lon="-.951139">
        <ele>1190.496</ele>
        <time>2020-08-28T14:16:34Z</time>
      </trkpt>
      <trkpt lat="40.216175" lon="-.95106">
        <ele>1189.954</ele>
        <time>2020-08-28T14:16:37Z</time>
      </trkpt>
      <trkpt lat="40.216166" lon="-.950996">
        <ele>1189.081</ele>
        <time>2020-08-28T14:16:50Z</time>
      </trkpt>
      <trkpt lat="40.216163" lon="-.950934">
        <ele>1189.379</ele>
        <time>2020-08-28T14:17:24Z</time>
      </trkpt>
      <trkpt lat="40.216143" lon="-.950868">
        <ele>1189.599</ele>
        <time>2020-08-28T14:17:27Z</time>
      </trkpt>
      <trkpt lat="40.216138" lon="-.950806">
        <ele>1189.338</ele>
        <time>2020-08-28T14:17:29Z</time>
      </trkpt>
      <trkpt lat="40.216137" lon="-.950743">
        <ele>1189.170</ele>
        <time>2020-08-28T14:17:31Z</time>
      </trkpt>
      <trkpt lat="40.216127" lon="-.95068">
        <ele>1189.317</ele>
        <time>2020-08-28T14:17:34Z</time>
      </trkpt>
      <trkpt lat="40.216118" lon="-.950596">
        <ele>1189.208</ele>
        <time>2020-08-28T14:17:37Z</time>
      </trkpt>
      <trkpt lat="40.216109" lon="-.950534">
        <ele>1189.198</ele>
        <time>2020-08-28T14:17:39Z</time>
      </trkpt>
      <trkpt lat="40.216095" lon="-.950449">
        <ele>1189.198</ele>
        <time>2020-08-28T14:17:41Z</time>
      </trkpt>
      <trkpt lat="40.216072" lon="-.95035">
        <ele>1189.320</ele>
        <time>2020-08-28T14:17:43Z</time>
      </trkpt>
      <trkpt lat="40.216059" lon="-.950249">
        <ele>1189.352</ele>
        <time>2020-08-28T14:17:45Z</time>
      </trkpt>
      <trkpt lat="40.216056" lon="-.950141">
        <ele>1189.230</ele>
        <time>2020-08-28T14:17:47Z</time>
      </trkpt>
      <trkpt lat="40.216044" lon="-.950084">
        <ele>1189.347</ele>
        <time>2020-08-28T14:17:48Z</time>
      </trkpt>
      <trkpt lat="40.216041" lon="-.950025">
        <ele>1189.325</ele>
        <time>2020-08-28T14:17:49Z</time>
      </trkpt>
      <trkpt lat="40.216031" lon="-.949958">
        <ele>1189.465</ele>
        <time>2020-08-28T14:17:50Z</time>
      </trkpt>
      <trkpt lat="40.216023" lon="-.949894">
        <ele>1189.476</ele>
        <time>2020-08-28T14:17:51Z</time>
      </trkpt>
      <trkpt lat="40.21601" lon="-.949829">
        <ele>1189.490</ele>
        <time>2020-08-28T14:17:52Z</time>
      </trkpt>
      <trkpt lat="40.215997" lon="-.949768">
        <ele>1189.419</ele>
        <time>2020-08-28T14:17:53Z</time>
      </trkpt>
      <trkpt lat="40.21599" lon="-.949707">
        <ele>1189.308</ele>
        <time>2020-08-28T14:17:54Z</time>
      </trkpt>
      <trkpt lat="40.215982" lon="-.94964">
        <ele>1189.222</ele>
        <time>2020-08-28T14:17:55Z</time>
      </trkpt>
      <trkpt lat="40.215966" lon="-.949574">
        <ele>1189.112</ele>
        <time>2020-08-28T14:17:56Z</time>
      </trkpt>
      <trkpt lat="40.215956" lon="-.949508">
        <ele>1189.044</ele>
        <time>2020-08-28T14:17:57Z</time>
      </trkpt>
      <trkpt lat="40.215948" lon="-.949443">
        <ele>1188.996</ele>
        <time>2020-08-28T14:17:58Z</time>
      </trkpt>
      <trkpt lat="40.215937" lon="-.949375">
        <ele>1188.934</ele>
        <time>2020-08-28T14:17:59Z</time>
      </trkpt>
      <trkpt lat="40.215933" lon="-.949306">
        <ele>1188.951</ele>
        <time>2020-08-28T14:18:00Z</time>
      </trkpt>
      <trkpt lat="40.215918" lon="-.94924">
        <ele>1188.869</ele>
        <time>2020-08-28T14:18:01Z</time>
      </trkpt>
      <trkpt lat="40.215911" lon="-.949171">
        <ele>1188.799</ele>
        <time>2020-08-28T14:18:02Z</time>
      </trkpt>
      <trkpt lat="40.215903" lon="-.949096">
        <ele>1188.731</ele>
        <time>2020-08-28T14:18:03Z</time>
      </trkpt>
      <trkpt lat="40.215889" lon="-.949028">
        <ele>1188.761</ele>
        <time>2020-08-28T14:18:04Z</time>
      </trkpt>
      <trkpt lat="40.215871" lon="-.948961">
        <ele>1188.707</ele>
        <time>2020-08-28T14:18:05Z</time>
      </trkpt>
      <trkpt lat="40.215861" lon="-.948889">
        <ele>1188.708</ele>
        <time>2020-08-28T14:18:06Z</time>
      </trkpt>
      <trkpt lat="40.215852" lon="-.948813">
        <ele>1188.758</ele>
        <time>2020-08-28T14:18:07Z</time>
      </trkpt>
      <trkpt lat="40.215841" lon="-.948741">
        <ele>1188.738</ele>
        <time>2020-08-28T14:18:08Z</time>
      </trkpt>
      <trkpt lat="40.21583" lon="-.94867">
        <ele>1188.620</ele>
        <time>2020-08-28T14:18:09Z</time>
      </trkpt>
      <trkpt lat="40.215823" lon="-.948599">
        <ele>1188.612</ele>
        <time>2020-08-28T14:18:10Z</time>
      </trkpt>
      <trkpt lat="40.215811" lon="-.948528">
        <ele>1188.680</ele>
        <time>2020-08-28T14:18:11Z</time>
      </trkpt>
      <trkpt lat="40.215803" lon="-.948462">
        <ele>1188.737</ele>
        <time>2020-08-28T14:18:12Z</time>
      </trkpt>
      <trkpt lat="40.215788" lon="-.948394">
        <ele>1188.765</ele>
        <time>2020-08-28T14:18:13Z</time>
      </trkpt>
      <trkpt lat="40.215771" lon="-.94833">
        <ele>1188.795</ele>
        <time>2020-08-28T14:18:14Z</time>
      </trkpt>
      <trkpt lat="40.215752" lon="-.948272">
        <ele>1188.611</ele>
        <time>2020-08-28T14:18:15Z</time>
      </trkpt>
      <trkpt lat="40.215732" lon="-.948215">
        <ele>1188.521</ele>
        <time>2020-08-28T14:18:16Z</time>
      </trkpt>
      <trkpt lat="40.215709" lon="-.948157">
        <ele>1188.403</ele>
        <time>2020-08-28T14:18:17Z</time>
      </trkpt>
      <trkpt lat="40.21568" lon="-.9481">
        <ele>1188.308</ele>
        <time>2020-08-28T14:18:18Z</time>
      </trkpt>
      <trkpt lat="40.215661" lon="-.948044">
        <ele>1188.236</ele>
        <time>2020-08-28T14:18:19Z</time>
      </trkpt>
      <trkpt lat="40.215634" lon="-.94799">
        <ele>1188.236</ele>
        <time>2020-08-28T14:18:20Z</time>
      </trkpt>
      <trkpt lat="40.215606" lon="-.947891">
        <ele>1188.588</ele>
        <time>2020-08-28T14:18:22Z</time>
      </trkpt>
      <trkpt lat="40.21558" lon="-.947804">
        <ele>1188.920</ele>
        <time>2020-08-28T14:18:24Z</time>
      </trkpt>
      <trkpt lat="40.215563" lon="-.947712">
        <ele>1189.448</ele>
        <time>2020-08-28T14:18:26Z</time>
      </trkpt>
      <trkpt lat="40.21555" lon="-.947627">
        <ele>1189.885</ele>
        <time>2020-08-28T14:18:28Z</time>
      </trkpt>
      <trkpt lat="40.215537" lon="-.947543">
        <ele>1190.363</ele>
        <time>2020-08-28T14:18:30Z</time>
      </trkpt>
      <trkpt lat="40.215516" lon="-.94746">
        <ele>1190.623</ele>
        <time>2020-08-28T14:18:32Z</time>
      </trkpt>
      <trkpt lat="40.21549" lon="-.947377">
        <ele>1191.327</ele>
        <time>2020-08-28T14:18:34Z</time>
      </trkpt>
      <trkpt lat="40.215462" lon="-.947294">
        <ele>1191.968</ele>
        <time>2020-08-28T14:18:36Z</time>
      </trkpt>
      <trkpt lat="40.215428" lon="-.9472">
        <ele>1192.214</ele>
        <time>2020-08-28T14:18:38Z</time>
      </trkpt>
      <trkpt lat="40.215395" lon="-.947108">
        <ele>1192.308</ele>
        <time>2020-08-28T14:18:40Z</time>
      </trkpt>
      <trkpt lat="40.215358" lon="-.947015">
        <ele>1192.447</ele>
        <time>2020-08-28T14:18:42Z</time>
      </trkpt>
      <trkpt lat="40.215328" lon="-.946922">
        <ele>1192.527</ele>
        <time>2020-08-28T14:18:44Z</time>
      </trkpt>
      <trkpt lat="40.215296" lon="-.946827">
        <ele>1192.689</ele>
        <time>2020-08-28T14:18:46Z</time>
      </trkpt>
      <trkpt lat="40.215267" lon="-.946739">
        <ele>1192.751</ele>
        <time>2020-08-28T14:18:48Z</time>
      </trkpt>
      <trkpt lat="40.21523" lon="-.946657">
        <ele>1192.739</ele>
        <time>2020-08-28T14:18:50Z</time>
      </trkpt>
      <trkpt lat="40.215187" lon="-.94657">
        <ele>1192.866</ele>
        <time>2020-08-28T14:18:52Z</time>
      </trkpt>
      <trkpt lat="40.215158" lon="-.946476">
        <ele>1192.874</ele>
        <time>2020-08-28T14:18:54Z</time>
      </trkpt>
      <trkpt lat="40.215121" lon="-.946391">
        <ele>1192.884</ele>
        <time>2020-08-28T14:18:56Z</time>
      </trkpt>
      <trkpt lat="40.215088" lon="-.946325">
        <ele>1192.914</ele>
        <time>2020-08-28T14:18:58Z</time>
      </trkpt>
      <trkpt lat="40.215063" lon="-.946274">
        <ele>1193.354</ele>
        <time>2020-08-28T14:19:00Z</time>
      </trkpt>
      <trkpt lat="40.215047" lon="-.946218">
        <ele>1193.609</ele>
        <time>2020-08-28T14:19:08Z</time>
      </trkpt>
      <trkpt lat="40.215039" lon="-.946139">
        <ele>1192.908</ele>
        <time>2020-08-28T14:21:05Z</time>
      </trkpt>
      <trkpt lat="40.215009" lon="-.946065">
        <ele>1192.686</ele>
        <time>2020-08-28T14:21:08Z</time>
      </trkpt>
      <trkpt lat="40.214972" lon="-.946005">
        <ele>1192.516</ele>
        <time>2020-08-28T14:21:10Z</time>
      </trkpt>
      <trkpt lat="40.214942" lon="-.945917">
        <ele>1192.288</ele>
        <time>2020-08-28T14:21:12Z</time>
      </trkpt>
      <trkpt lat="40.214901" lon="-.94584">
        <ele>1191.330</ele>
        <time>2020-08-28T14:21:14Z</time>
      </trkpt>
      <trkpt lat="40.21486" lon="-.945758">
        <ele>1190.448</ele>
        <time>2020-08-28T14:21:16Z</time>
      </trkpt>
      <trkpt lat="40.214836" lon="-.945708">
        <ele>1190.195</ele>
        <time>2020-08-28T14:21:17Z</time>
      </trkpt>
      <trkpt lat="40.214776" lon="-.945622">
        <ele>1189.973</ele>
        <time>2020-08-28T14:21:19Z</time>
      </trkpt>
      <trkpt lat="40.214736" lon="-.945575">
        <ele>1189.813</ele>
        <time>2020-08-28T14:21:20Z</time>
      </trkpt>
      <trkpt lat="40.214668" lon="-.945541">
        <ele>1189.416</ele>
        <time>2020-08-28T14:21:22Z</time>
      </trkpt>
      <trkpt lat="40.214626" lon="-.945492">
        <ele>1188.976</ele>
        <time>2020-08-28T14:21:23Z</time>
      </trkpt>
      <trkpt lat="40.214577" lon="-.945459">
        <ele>1188.313</ele>
        <time>2020-08-28T14:21:25Z</time>
      </trkpt>
      <trkpt lat="40.21451" lon="-.945395">
        <ele>1188.308</ele>
        <time>2020-08-28T14:21:27Z</time>
      </trkpt>
      <trkpt lat="40.214451" lon="-.945351">
        <ele>1188.276</ele>
        <time>2020-08-28T14:21:29Z</time>
      </trkpt>
      <trkpt lat="40.214398" lon="-.945278">
        <ele>1187.726</ele>
        <time>2020-08-28T14:21:31Z</time>
      </trkpt>
      <trkpt lat="40.214367" lon="-.945218">
        <ele>1186.938</ele>
        <time>2020-08-28T14:21:33Z</time>
      </trkpt>
      <trkpt lat="40.214339" lon="-.945162">
        <ele>1186.360</ele>
        <time>2020-08-28T14:21:35Z</time>
      </trkpt>
      <trkpt lat="40.214315" lon="-.945097">
        <ele>1186.298</ele>
        <time>2020-08-28T14:21:37Z</time>
      </trkpt>
      <trkpt lat="40.214278" lon="-.945028">
        <ele>1186.315</ele>
        <time>2020-08-28T14:21:39Z</time>
      </trkpt>
      <trkpt lat="40.214253" lon="-.944979">
        <ele>1186.593</ele>
        <time>2020-08-28T14:21:40Z</time>
      </trkpt>
      <trkpt lat="40.21422" lon="-.944887">
        <ele>1186.573</ele>
        <time>2020-08-28T14:21:42Z</time>
      </trkpt>
      <trkpt lat="40.214181" lon="-.944836">
        <ele>1186.187</ele>
        <time>2020-08-28T14:21:45Z</time>
      </trkpt>
      <trkpt lat="40.214194" lon="-.94475">
        <ele>1185.142</ele>
        <time>2020-08-28T14:21:48Z</time>
      </trkpt>
      <trkpt lat="40.214224" lon="-.944703">
        <ele>1185.126</ele>
        <time>2020-08-28T14:21:49Z</time>
      </trkpt>
      <trkpt lat="40.214254" lon="-.944638">
        <ele>1185.108</ele>
        <time>2020-08-28T14:21:51Z</time>
      </trkpt>
      <trkpt lat="40.214284" lon="-.944571">
        <ele>1185.363</ele>
        <time>2020-08-28T14:21:53Z</time>
      </trkpt>
      <trkpt lat="40.214318" lon="-.944494">
        <ele>1185.123</ele>
        <time>2020-08-28T14:21:55Z</time>
      </trkpt>
      <trkpt lat="40.214352" lon="-.944421">
        <ele>1185.125</ele>
        <time>2020-08-28T14:21:57Z</time>
      </trkpt>
      <trkpt lat="40.214375" lon="-.944368">
        <ele>1185.047</ele>
        <time>2020-08-28T14:21:59Z</time>
      </trkpt>
      <trkpt lat="40.214391" lon="-.944309">
        <ele>1184.935</ele>
        <time>2020-08-28T14:22:01Z</time>
      </trkpt>
      <trkpt lat="40.214416" lon="-.944254">
        <ele>1184.742</ele>
        <time>2020-08-28T14:22:03Z</time>
      </trkpt>
      <trkpt lat="40.214444" lon="-.944201">
        <ele>1184.680</ele>
        <time>2020-08-28T14:22:05Z</time>
      </trkpt>
      <trkpt lat="40.214421" lon="-.94431">
        <ele>1184.250</ele>
        <time>2020-08-28T14:23:16Z</time>
      </trkpt>
      <trkpt lat="40.214396" lon="-.944371">
        <ele>1184.934</ele>
        <time>2020-08-28T14:23:21Z</time>
      </trkpt>
      <trkpt lat="40.214375" lon="-.944426">
        <ele>1184.655</ele>
        <time>2020-08-28T14:23:26Z</time>
      </trkpt>
      <trkpt lat="40.214363" lon="-.944489">
        <ele>1184.510</ele>
        <time>2020-08-28T14:23:32Z</time>
      </trkpt>
      <trkpt lat="40.214389" lon="-.94443">
        <ele>1185.008</ele>
        <time>2020-08-28T14:25:44Z</time>
      </trkpt>
      <trkpt lat="40.214432" lon="-.944385">
        <ele>1184.848</ele>
        <time>2020-08-28T14:25:53Z</time>
      </trkpt>
      <trkpt lat="40.21455" lon="-.944354">
        <ele>1185.188</ele>
        <time>2020-08-28T14:27:27Z</time>
      </trkpt>
      <trkpt lat="40.214428" lon="-.944489">
        <ele>1185.430</ele>
        <time>2020-08-28T14:27:46Z</time>
      </trkpt>
      <trkpt lat="40.21438" lon="-.94445">
        <ele>1188.122</ele>
        <time>2020-08-28T14:47:06Z</time>
      </trkpt>
      <trkpt lat="40.214581" lon="-.944118">
        <ele>1187.640</ele>
        <time>2020-08-28T14:48:19Z</time>
      </trkpt>
      <trkpt lat="40.214621" lon="-.944149">
        <ele>1187.147</ele>
        <time>2020-08-28T14:48:23Z</time>
      </trkpt>
      <trkpt lat="40.214659" lon="-.944192">
        <ele>1186.775</ele>
        <time>2020-08-28T14:48:28Z</time>
      </trkpt>
      <trkpt lat="40.214526" lon="-.944217">
        <ele>1187.255</ele>
        <time>2020-08-28T14:49:49Z</time>
      </trkpt>
      <trkpt lat="40.21463" lon="-.94418">
        <ele>1188.422</ele>
        <time>2020-08-28T14:50:03Z</time>
      </trkpt>
      <trkpt lat="40.214657" lon="-.944123">
        <ele>1188.262</ele>
        <time>2020-08-28T14:50:05Z</time>
      </trkpt>
      <trkpt lat="40.214674" lon="-.944064">
        <ele>1187.608</ele>
        <time>2020-08-28T14:50:07Z</time>
      </trkpt>
      <trkpt lat="40.214679" lon="-.944158">
        <ele>1186.808</ele>
        <time>2020-08-28T14:50:15Z</time>
      </trkpt>
      <trkpt lat="40.214687" lon="-.944237">
        <ele>1187.657</ele>
        <time>2020-08-28T14:50:33Z</time>
      </trkpt>
      <trkpt lat="40.214639" lon="-.944261">
        <ele>1187.887</ele>
        <time>2020-08-28T14:50:36Z</time>
      </trkpt>
      <trkpt lat="40.214601" lon="-.94431">
        <ele>1187.779</ele>
        <time>2020-08-28T14:50:41Z</time>
      </trkpt>
      <trkpt lat="40.214611" lon="-.944378">
        <ele>1188.131</ele>
        <time>2020-08-28T14:51:00Z</time>
      </trkpt>
      <trkpt lat="40.21457" lon="-.944442">
        <ele>1188.779</ele>
        <time>2020-08-28T14:51:53Z</time>
      </trkpt>
      <trkpt lat="40.214612" lon="-.944419">
        <ele>1187.656</ele>
        <time>2020-08-28T14:52:36Z</time>
      </trkpt>
      <trkpt lat="40.214565" lon="-.944408">
        <ele>1188.044</ele>
        <time>2020-08-28T14:52:39Z</time>
      </trkpt>
      <trkpt lat="40.21459" lon="-.944359">
        <ele>1188.774</ele>
        <time>2020-08-28T14:52:44Z</time>
      </trkpt>
      <trkpt lat="40.214614" lon="-.944309">
        <ele>1188.253</ele>
        <time>2020-08-28T14:52:50Z</time>
      </trkpt>
      <trkpt lat="40.214637" lon="-.944255">
        <ele>1188.704</ele>
        <time>2020-08-28T14:52:57Z</time>
      </trkpt>
      <trkpt lat="40.21463" lon="-.944185">
        <ele>1189.114</ele>
        <time>2020-08-29T10:25:22Z</time>
      </trkpt>
      <trkpt lat="40.214567" lon="-.944184">
        <ele>1189.008</ele>
        <time>2020-08-29T10:25:25Z</time>
      </trkpt>
      <trkpt lat="40.214557" lon="-.944126">
        <ele>1188.760</ele>
        <time>2020-08-29T10:26:31Z</time>
      </trkpt>
      <trkpt lat="40.214493" lon="-.94415">
        <ele>1189.440</ele>
        <time>2020-08-29T10:27:02Z</time>
      </trkpt>
      <trkpt lat="40.214483" lon="-.944226">
        <ele>1187.722</ele>
        <time>2020-08-29T10:27:34Z</time>
      </trkpt>
      <trkpt lat="40.214464" lon="-.944299">
        <ele>1188.044</ele>
        <time>2020-08-29T10:27:38Z</time>
      </trkpt>
      <trkpt lat="40.214543" lon="-.94417">
        <ele>1189.012</ele>
        <time>2020-08-29T10:27:58Z</time>
      </trkpt>
      <trkpt lat="40.214573" lon="-.944108">
        <ele>1188.139</ele>
        <time>2020-08-29T10:28:49Z</time>
      </trkpt>
      <trkpt lat="40.214554" lon="-.944163">
        <ele>1190.247</ele>
        <time>2020-08-29T10:28:54Z</time>
      </trkpt>
      <trkpt lat="40.214551" lon="-.944101">
        <ele>1188.967</ele>
        <time>2020-08-29T10:32:18Z</time>
      </trkpt>
      <trkpt lat="40.214506" lon="-.944168">
        <ele>1189.135</ele>
        <time>2020-08-29T10:33:20Z</time>
      </trkpt>
      <trkpt lat="40.21447" lon="-.944213">
        <ele>1188.586</ele>
        <time>2020-08-29T10:33:23Z</time>
      </trkpt>
      <trkpt lat="40.214447" lon="-.944267">
        <ele>1188.614</ele>
        <time>2020-08-29T10:33:26Z</time>
      </trkpt>
      <trkpt lat="40.214425" lon="-.944325">
        <ele>1187.808</ele>
        <time>2020-08-29T10:33:28Z</time>
      </trkpt>
      <trkpt lat="40.214391" lon="-.944378">
        <ele>1188.398</ele>
        <time>2020-08-29T10:33:31Z</time>
      </trkpt>
      <trkpt lat="40.214372" lon="-.944435">
        <ele>1188.238</ele>
        <time>2020-08-29T10:33:32Z</time>
      </trkpt>
      <trkpt lat="40.214343" lon="-.944523">
        <ele>1188.080</ele>
        <time>2020-08-29T10:33:34Z</time>
      </trkpt>
      <trkpt lat="40.214302" lon="-.944608">
        <ele>1188.072</ele>
        <time>2020-08-29T10:33:36Z</time>
      </trkpt>
      <trkpt lat="40.214281" lon="-.944669">
        <ele>1188.160</ele>
        <time>2020-08-29T10:33:38Z</time>
      </trkpt>
      <trkpt lat="40.21424" lon="-.944735">
        <ele>1188.717</ele>
        <time>2020-08-29T10:33:40Z</time>
      </trkpt>
      <trkpt lat="40.214205" lon="-.944786">
        <ele>1188.735</ele>
        <time>2020-08-29T10:33:42Z</time>
      </trkpt>
      <trkpt lat="40.214164" lon="-.944826">
        <ele>1187.885</ele>
        <time>2020-08-29T10:33:44Z</time>
      </trkpt>
      <trkpt lat="40.214118" lon="-.944885">
        <ele>1186.245</ele>
        <time>2020-08-29T10:33:46Z</time>
      </trkpt>
      <trkpt lat="40.21408" lon="-.944925">
        <ele>1188.647</ele>
        <time>2020-08-29T10:33:48Z</time>
      </trkpt>
      <trkpt lat="40.214033" lon="-.944939">
        <ele>1190.611</ele>
        <time>2020-08-29T10:33:50Z</time>
      </trkpt>
      <trkpt lat="40.213971" lon="-.944921">
        <ele>1189.808</ele>
        <time>2020-08-29T10:33:53Z</time>
      </trkpt>
      <trkpt lat="40.213928" lon="-.944877">
        <ele>1191.449</ele>
        <time>2020-08-29T10:33:57Z</time>
      </trkpt>
      <trkpt lat="40.213883" lon="-.944854">
        <ele>1191.859</ele>
        <time>2020-08-29T10:34:00Z</time>
      </trkpt>
      <trkpt lat="40.213835" lon="-.944808">
        <ele>1191.841</ele>
        <time>2020-08-29T10:34:03Z</time>
      </trkpt>
      <trkpt lat="40.213883" lon="-.944838">
        <ele>1192.053</ele>
        <time>2020-08-29T10:34:12Z</time>
      </trkpt>
      <trkpt lat="40.213929" lon="-.944892">
        <ele>1192.041</ele>
        <time>2020-08-29T10:34:14Z</time>
      </trkpt>
      <trkpt lat="40.213978" lon="-.94495">
        <ele>1192.128</ele>
        <time>2020-08-29T10:34:16Z</time>
      </trkpt>
      <trkpt lat="40.214026" lon="-.945021">
        <ele>1192.116</ele>
        <time>2020-08-29T10:34:18Z</time>
      </trkpt>
      <trkpt lat="40.214087" lon="-.945085">
        <ele>1191.976</ele>
        <time>2020-08-29T10:34:20Z</time>
      </trkpt>
      <trkpt lat="40.214133" lon="-.945147">
        <ele>1191.656</ele>
        <time>2020-08-29T10:34:22Z</time>
      </trkpt>
      <trkpt lat="40.214177" lon="-.945191">
        <ele>1190.259</ele>
        <time>2020-08-29T10:34:24Z</time>
      </trkpt>
      <trkpt lat="40.21422" lon="-.945241">
        <ele>1190.214</ele>
        <time>2020-08-29T10:34:26Z</time>
      </trkpt>
      <trkpt lat="40.214267" lon="-.945288">
        <ele>1190.808</ele>
        <time>2020-08-29T10:34:28Z</time>
      </trkpt>
      <trkpt lat="40.214321" lon="-.945318">
        <ele>1191.110</ele>
        <time>2020-08-29T10:34:30Z</time>
      </trkpt>
      <trkpt lat="40.214363" lon="-.945365">
        <ele>1190.880</ele>
        <time>2020-08-29T10:34:32Z</time>
      </trkpt>
      <trkpt lat="40.214405" lon="-.945397">
        <ele>1191.732</ele>
        <time>2020-08-29T10:34:34Z</time>
      </trkpt>
      <trkpt lat="40.214454" lon="-.945444">
        <ele>1192.854</ele>
        <time>2020-08-29T10:34:37Z</time>
      </trkpt>
      <trkpt lat="40.214501" lon="-.945484">
        <ele>1192.512</ele>
        <time>2020-08-29T10:34:39Z</time>
      </trkpt>
      <trkpt lat="40.214558" lon="-.945537">
        <ele>1193.129</ele>
        <time>2020-08-29T10:34:42Z</time>
      </trkpt>
      <trkpt lat="40.214587" lon="-.945582">
        <ele>1193.547</ele>
        <time>2020-08-29T10:34:45Z</time>
      </trkpt>
      <trkpt lat="40.214629" lon="-.945629">
        <ele>1194.287</ele>
        <time>2020-08-29T10:34:48Z</time>
      </trkpt>
      <trkpt lat="40.214668" lon="-.94567">
        <ele>1194.515</ele>
        <time>2020-08-29T10:34:51Z</time>
      </trkpt>
      <trkpt lat="40.214701" lon="-.945713">
        <ele>1194.865</ele>
        <time>2020-08-29T10:34:53Z</time>
      </trkpt>
      <trkpt lat="40.214727" lon="-.945761">
        <ele>1195.411</ele>
        <time>2020-08-29T10:34:56Z</time>
      </trkpt>
      <trkpt lat="40.214763" lon="-.9458">
        <ele>1195.608</ele>
        <time>2020-08-29T10:34:58Z</time>
      </trkpt>
      <trkpt lat="40.214791" lon="-.945853">
        <ele>1196.436</ele>
        <time>2020-08-29T10:35:01Z</time>
      </trkpt>
      <trkpt lat="40.214815" lon="-.945905">
        <ele>1196.156</ele>
        <time>2020-08-29T10:35:03Z</time>
      </trkpt>
      <trkpt lat="40.214853" lon="-.945965">
        <ele>1196.748</ele>
        <time>2020-08-29T10:35:06Z</time>
      </trkpt>
      <trkpt lat="40.214897" lon="-.946022">
        <ele>1197.240</ele>
        <time>2020-08-29T10:35:09Z</time>
      </trkpt>
      <trkpt lat="40.21492" lon="-.946078">
        <ele>1198.058</ele>
        <time>2020-08-29T10:35:12Z</time>
      </trkpt>
      <trkpt lat="40.214957" lon="-.946112">
        <ele>1198.465</ele>
        <time>2020-08-29T10:35:14Z</time>
      </trkpt>
      <trkpt lat="40.214947" lon="-.946031">
        <ele>1197.323</ele>
        <time>2020-08-29T10:35:49Z</time>
      </trkpt>
      <trkpt lat="40.214919" lon="-.945932">
        <ele>1197.293</ele>
        <time>2020-08-29T10:35:51Z</time>
      </trkpt>
      <trkpt lat="40.214891" lon="-.945847">
        <ele>1196.812</ele>
        <time>2020-08-29T10:35:53Z</time>
      </trkpt>
      <trkpt lat="40.214849" lon="-.945787">
        <ele>1196.732</ele>
        <time>2020-08-29T10:35:55Z</time>
      </trkpt>
      <trkpt lat="40.214791" lon="-.945722">
        <ele>1196.305</ele>
        <time>2020-08-29T10:35:57Z</time>
      </trkpt>
      <trkpt lat="40.214713" lon="-.945659">
        <ele>1195.708</ele>
        <time>2020-08-29T10:35:59Z</time>
      </trkpt>
      <trkpt lat="40.214673" lon="-.94563">
        <ele>1195.496</ele>
        <time>2020-08-29T10:36:00Z</time>
      </trkpt>
      <trkpt lat="40.214631" lon="-.945597">
        <ele>1195.256</ele>
        <time>2020-08-29T10:36:01Z</time>
      </trkpt>
      <trkpt lat="40.214558" lon="-.945532">
        <ele>1194.788</ele>
        <time>2020-08-29T10:36:03Z</time>
      </trkpt>
      <trkpt lat="40.214519" lon="-.945502">
        <ele>1194.410</ele>
        <time>2020-08-29T10:36:04Z</time>
      </trkpt>
      <trkpt lat="40.214459" lon="-.945441">
        <ele>1193.888</ele>
        <time>2020-08-29T10:36:06Z</time>
      </trkpt>
      <trkpt lat="40.214413" lon="-.945368">
        <ele>1193.215</ele>
        <time>2020-08-29T10:36:08Z</time>
      </trkpt>
      <trkpt lat="40.214357" lon="-.9453">
        <ele>1192.793</ele>
        <time>2020-08-29T10:36:10Z</time>
      </trkpt>
      <trkpt lat="40.214298" lon="-.945189">
        <ele>1191.943</ele>
        <time>2020-08-29T10:36:12Z</time>
      </trkpt>
      <trkpt lat="40.214267" lon="-.945123">
        <ele>1191.869</ele>
        <time>2020-08-29T10:36:13Z</time>
      </trkpt>
      <trkpt lat="40.21424" lon="-.945062">
        <ele>1191.404</ele>
        <time>2020-08-29T10:36:14Z</time>
      </trkpt>
      <trkpt lat="40.214213" lon="-.945003">
        <ele>1191.324</ele>
        <time>2020-08-29T10:36:15Z</time>
      </trkpt>
      <trkpt lat="40.214194" lon="-.944899">
        <ele>1191.008</ele>
        <time>2020-08-29T10:36:16Z</time>
      </trkpt>
      <trkpt lat="40.214152" lon="-.944824">
        <ele>1190.881</ele>
        <time>2020-08-29T10:36:18Z</time>
      </trkpt>
      <trkpt lat="40.214134" lon="-.944751">
        <ele>1190.541</ele>
        <time>2020-08-29T10:36:20Z</time>
      </trkpt>
      <trkpt lat="40.214093" lon="-.944713">
        <ele>1189.763</ele>
        <time>2020-08-29T10:36:22Z</time>
      </trkpt>
      <trkpt lat="40.214055" lon="-.944675">
        <ele>1189.365</ele>
        <time>2020-08-29T10:36:24Z</time>
      </trkpt>
      <trkpt lat="40.214019" lon="-.944638">
        <ele>1189.413</ele>
        <time>2020-08-29T10:36:26Z</time>
      </trkpt>
      <trkpt lat="40.21399" lon="-.94459">
        <ele>1189.370</ele>
        <time>2020-08-29T10:36:29Z</time>
      </trkpt>
      <trkpt lat="40.213963" lon="-.94453">
        <ele>1189.448</ele>
        <time>2020-08-29T10:36:37Z</time>
      </trkpt>
      <trkpt lat="40.213921" lon="-.944447">
        <ele>1188.838</ele>
        <time>2020-08-29T10:36:41Z</time>
      </trkpt>
      <trkpt lat="40.213875" lon="-.944394">
        <ele>1189.355</ele>
        <time>2020-08-29T10:36:43Z</time>
      </trkpt>
      <trkpt lat="40.213821" lon="-.944345">
        <ele>1189.707</ele>
        <time>2020-08-29T10:36:45Z</time>
      </trkpt>
      <trkpt lat="40.213762" lon="-.944281">
        <ele>1188.817</ele>
        <time>2020-08-29T10:36:47Z</time>
      </trkpt>
      <trkpt lat="40.213696" lon="-.944221">
        <ele>1188.808</ele>
        <time>2020-08-29T10:36:49Z</time>
      </trkpt>
      <trkpt lat="40.213628" lon="-.944166">
        <ele>1189.760</ele>
        <time>2020-08-29T10:36:51Z</time>
      </trkpt>
      <trkpt lat="40.213548" lon="-.944128">
        <ele>1189.870</ele>
        <time>2020-08-29T10:36:53Z</time>
      </trkpt>
      <trkpt lat="40.213467" lon="-.944079">
        <ele>1189.782</ele>
        <time>2020-08-29T10:36:55Z</time>
      </trkpt>
      <trkpt lat="40.213421" lon="-.944057">
        <ele>1189.684</ele>
        <time>2020-08-29T10:36:56Z</time>
      </trkpt>
      <trkpt lat="40.213352" lon="-.944011">
        <ele>1189.522</ele>
        <time>2020-08-29T10:36:58Z</time>
      </trkpt>
      <trkpt lat="40.213309" lon="-.943987">
        <ele>1189.479</ele>
        <time>2020-08-29T10:36:59Z</time>
      </trkpt>
      <trkpt lat="40.213243" lon="-.943939">
        <ele>1189.417</ele>
        <time>2020-08-29T10:37:01Z</time>
      </trkpt>
      <trkpt lat="40.213202" lon="-.943912">
        <ele>1189.457</ele>
        <time>2020-08-29T10:37:02Z</time>
      </trkpt>
      <trkpt lat="40.213158" lon="-.943878">
        <ele>1189.481</ele>
        <time>2020-08-29T10:37:03Z</time>
      </trkpt>
      <trkpt lat="40.213084" lon="-.943829">
        <ele>1189.561</ele>
        <time>2020-08-29T10:37:05Z</time>
      </trkpt>
      <trkpt lat="40.213022" lon="-.943771">
        <ele>1189.317</ele>
        <time>2020-08-29T10:37:07Z</time>
      </trkpt>
      <trkpt lat="40.212985" lon="-.943729">
        <ele>1189.108</ele>
        <time>2020-08-29T10:37:08Z</time>
      </trkpt>
      <trkpt lat="40.212919" lon="-.943676">
        <ele>1188.543</ele>
        <time>2020-08-29T10:37:10Z</time>
      </trkpt>
      <trkpt lat="40.212844" lon="-.943619">
        <ele>1188.533</ele>
        <time>2020-08-29T10:37:12Z</time>
      </trkpt>
      <trkpt lat="40.212767" lon="-.943556">
        <ele>1188.925</ele>
        <time>2020-08-29T10:37:14Z</time>
      </trkpt>
      <trkpt lat="40.21273" lon="-.943521">
        <ele>1189.247</ele>
        <time>2020-08-29T10:37:15Z</time>
      </trkpt>
      <trkpt lat="40.212657" lon="-.943468">
        <ele>1189.865</ele>
        <time>2020-08-29T10:37:17Z</time>
      </trkpt>
      <trkpt lat="40.212587" lon="-.943425">
        <ele>1189.672</ele>
        <time>2020-08-29T10:37:19Z</time>
      </trkpt>
      <trkpt lat="40.212509" lon="-.94338">
        <ele>1189.490</ele>
        <time>2020-08-29T10:37:21Z</time>
      </trkpt>
      <trkpt lat="40.212459" lon="-.943356">
        <ele>1189.430</ele>
        <time>2020-08-29T10:37:22Z</time>
      </trkpt>
      <trkpt lat="40.212381" lon="-.943312">
        <ele>1189.455</ele>
        <time>2020-08-29T10:37:24Z</time>
      </trkpt>
      <trkpt lat="40.212298" lon="-.943256">
        <ele>1189.307</ele>
        <time>2020-08-29T10:37:26Z</time>
      </trkpt>
      <trkpt lat="40.212229" lon="-.943192">
        <ele>1189.017</ele>
        <time>2020-08-29T10:37:28Z</time>
      </trkpt>
      <trkpt lat="40.212153" lon="-.943131">
        <ele>1188.608</ele>
        <time>2020-08-29T10:37:30Z</time>
      </trkpt>
      <trkpt lat="40.212076" lon="-.943067">
        <ele>1188.940</ele>
        <time>2020-08-29T10:37:32Z</time>
      </trkpt>
      <trkpt lat="40.212033" lon="-.943037">
        <ele>1188.910</ele>
        <time>2020-08-29T10:37:33Z</time>
      </trkpt>
      <trkpt lat="40.211952" lon="-.942978">
        <ele>1188.912</ele>
        <time>2020-08-29T10:37:35Z</time>
      </trkpt>
      <trkpt lat="40.211908" lon="-.942948">
        <ele>1188.784</ele>
        <time>2020-08-29T10:37:36Z</time>
      </trkpt>
      <trkpt lat="40.211868" lon="-.942919">
        <ele>1188.432</ele>
        <time>2020-08-29T10:37:37Z</time>
      </trkpt>
      <trkpt lat="40.211821" lon="-.942892">
        <ele>1188.499</ele>
        <time>2020-08-29T10:37:38Z</time>
      </trkpt>
      <trkpt lat="40.211778" lon="-.942859">
        <ele>1188.377</ele>
        <time>2020-08-29T10:37:39Z</time>
      </trkpt>
      <trkpt lat="40.211738" lon="-.94283">
        <ele>1188.387</ele>
        <time>2020-08-29T10:37:40Z</time>
      </trkpt>
      <trkpt lat="40.211655" lon="-.942759">
        <ele>1188.375</ele>
        <time>2020-08-29T10:37:42Z</time>
      </trkpt>
      <trkpt lat="40.211612" lon="-.94272">
        <ele>1188.128</ele>
        <time>2020-08-29T10:37:43Z</time>
      </trkpt>
      <trkpt lat="40.211562" lon="-.942687">
        <ele>1188.120</ele>
        <time>2020-08-29T10:37:44Z</time>
      </trkpt>
      <trkpt lat="40.21152" lon="-.942652">
        <ele>1187.908</ele>
        <time>2020-08-29T10:37:45Z</time>
      </trkpt>
      <trkpt lat="40.211476" lon="-.942625">
        <ele>1187.952</ele>
        <time>2020-08-29T10:37:46Z</time>
      </trkpt>
      <trkpt lat="40.211431" lon="-.9426">
        <ele>1187.892</ele>
        <time>2020-08-29T10:37:47Z</time>
      </trkpt>
      <trkpt lat="40.211385" lon="-.942576">
        <ele>1187.964</ele>
        <time>2020-08-29T10:37:48Z</time>
      </trkpt>
      <trkpt lat="40.211341" lon="-.94255">
        <ele>1187.926</ele>
        <time>2020-08-29T10:37:49Z</time>
      </trkpt>
      <trkpt lat="40.211301" lon="-.942515">
        <ele>1188.034</ele>
        <time>2020-08-29T10:37:50Z</time>
      </trkpt>
      <trkpt lat="40.21124" lon="-.942456">
        <ele>1188.941</ele>
        <time>2020-08-29T10:37:52Z</time>
      </trkpt>
      <trkpt lat="40.211164" lon="-.942404">
        <ele>1188.989</ele>
        <time>2020-08-29T10:37:54Z</time>
      </trkpt>
      <trkpt lat="40.211121" lon="-.942378">
        <ele>1188.939</ele>
        <time>2020-08-29T10:37:55Z</time>
      </trkpt>
      <trkpt lat="40.211057" lon="-.942326">
        <ele>1188.856</ele>
        <time>2020-08-29T10:37:57Z</time>
      </trkpt>
      <trkpt lat="40.210994" lon="-.94227">
        <ele>1188.359</ele>
        <time>2020-08-29T10:37:59Z</time>
      </trkpt>
      <trkpt lat="40.210954" lon="-.942237">
        <ele>1188.014</ele>
        <time>2020-08-29T10:38:00Z</time>
      </trkpt>
      <trkpt lat="40.210879" lon="-.942181">
        <ele>1187.908</ele>
        <time>2020-08-29T10:38:02Z</time>
      </trkpt>
      <trkpt lat="40.210809" lon="-.942123">
        <ele>1188.560</ele>
        <time>2020-08-29T10:38:04Z</time>
      </trkpt>
      <trkpt lat="40.210765" lon="-.942093">
        <ele>1188.850</ele>
        <time>2020-08-29T10:38:05Z</time>
      </trkpt>
      <trkpt lat="40.21069" lon="-.942025">
        <ele>1189.682</ele>
        <time>2020-08-29T10:38:07Z</time>
      </trkpt>
      <trkpt lat="40.210645" lon="-.942001">
        <ele>1189.624</ele>
        <time>2020-08-29T10:38:08Z</time>
      </trkpt>
      <trkpt lat="40.210609" lon="-.941965">
        <ele>1189.562</ele>
        <time>2020-08-29T10:38:09Z</time>
      </trkpt>
      <trkpt lat="40.21057" lon="-.941932">
        <ele>1189.269</ele>
        <time>2020-08-29T10:38:10Z</time>
      </trkpt>
      <trkpt lat="40.210529" lon="-.941898">
        <ele>1189.197</ele>
        <time>2020-08-29T10:38:11Z</time>
      </trkpt>
      <trkpt lat="40.210453" lon="-.941834">
        <ele>1188.347</ele>
        <time>2020-08-29T10:38:13Z</time>
      </trkpt>
      <trkpt lat="40.210411" lon="-.941807">
        <ele>1188.688</ele>
        <time>2020-08-29T10:38:14Z</time>
      </trkpt>
      <trkpt lat="40.210336" lon="-.941734">
        <ele>1188.824</ele>
        <time>2020-08-29T10:38:16Z</time>
      </trkpt>
      <trkpt lat="40.210286" lon="-.941685">
        <ele>1190.126</ele>
        <time>2020-08-29T10:38:18Z</time>
      </trkpt>
      <trkpt lat="40.210249" lon="-.941648">
        <ele>1190.108</ele>
        <time>2020-08-29T10:38:19Z</time>
      </trkpt>
      <trkpt lat="40.210206" lon="-.941617">
        <ele>1190.223</ele>
        <time>2020-08-29T10:38:20Z</time>
      </trkpt>
      <trkpt lat="40.210172" lon="-.941578">
        <ele>1189.753</ele>
        <time>2020-08-29T10:38:21Z</time>
      </trkpt>
      <trkpt lat="40.210124" lon="-.941519">
        <ele>1188.785</ele>
        <time>2020-08-29T10:38:23Z</time>
      </trkpt>
      <trkpt lat="40.210068" lon="-.941448">
        <ele>1189.127</ele>
        <time>2020-08-29T10:38:25Z</time>
      </trkpt>
      <trkpt lat="40.210035" lon="-.941397">
        <ele>1189.295</ele>
        <time>2020-08-29T10:38:26Z</time>
      </trkpt>
      <trkpt lat="40.209971" lon="-.941308">
        <ele>1189.592</ele>
        <time>2020-08-29T10:38:28Z</time>
      </trkpt>
      <trkpt lat="40.209914" lon="-.941225">
        <ele>1189.930</ele>
        <time>2020-08-29T10:38:30Z</time>
      </trkpt>
      <trkpt lat="40.209853" lon="-.941141">
        <ele>1189.040</ele>
        <time>2020-08-29T10:38:32Z</time>
      </trkpt>
      <trkpt lat="40.209797" lon="-.941044">
        <ele>1189.076</ele>
        <time>2020-08-29T10:38:34Z</time>
      </trkpt>
      <trkpt lat="40.209736" lon="-.940956">
        <ele>1189.390</ele>
        <time>2020-08-29T10:38:36Z</time>
      </trkpt>
      <trkpt lat="40.209679" lon="-.940865">
        <ele>1188.919</ele>
        <time>2020-08-29T10:38:38Z</time>
      </trkpt>
      <trkpt lat="40.209653" lon="-.940809">
        <ele>1188.908</ele>
        <time>2020-08-29T10:38:39Z</time>
      </trkpt>
      <trkpt lat="40.209632" lon="-.94075">
        <ele>1189.172</ele>
        <time>2020-08-29T10:38:40Z</time>
      </trkpt>
      <trkpt lat="40.209569" lon="-.940647">
        <ele>1189.342</ele>
        <time>2020-08-29T10:38:42Z</time>
      </trkpt>
      <trkpt lat="40.20954" lon="-.940587">
        <ele>1189.324</ele>
        <time>2020-08-29T10:38:43Z</time>
      </trkpt>
      <trkpt lat="40.209508" lon="-.940544">
        <ele>1189.396</ele>
        <time>2020-08-29T10:38:44Z</time>
      </trkpt>
      <trkpt lat="40.209478" lon="-.940485">
        <ele>1189.274</ele>
        <time>2020-08-29T10:38:45Z</time>
      </trkpt>
      <trkpt lat="40.209445" lon="-.940429">
        <ele>1189.111</ele>
        <time>2020-08-29T10:38:46Z</time>
      </trkpt>
      <trkpt lat="40.209417" lon="-.940375">
        <ele>1189.169</ele>
        <time>2020-08-29T10:38:47Z</time>
      </trkpt>
      <trkpt lat="40.209377" lon="-.94032">
        <ele>1189.059</ele>
        <time>2020-08-29T10:38:48Z</time>
      </trkpt>
      <trkpt lat="40.209354" lon="-.940257">
        <ele>1189.026</ele>
        <time>2020-08-29T10:38:49Z</time>
      </trkpt>
      <trkpt lat="40.209291" lon="-.940159">
        <ele>1188.947</ele>
        <time>2020-08-29T10:38:51Z</time>
      </trkpt>
      <trkpt lat="40.209267" lon="-.940103">
        <ele>1188.911</ele>
        <time>2020-08-29T10:38:52Z</time>
      </trkpt>
      <trkpt lat="40.209233" lon="-.940046">
        <ele>1188.908</ele>
        <time>2020-08-29T10:38:53Z</time>
      </trkpt>
      <trkpt lat="40.209203" lon="-.93999">
        <ele>1188.997</ele>
        <time>2020-08-29T10:38:54Z</time>
      </trkpt>
      <trkpt lat="40.209171" lon="-.939924">
        <ele>1188.967</ele>
        <time>2020-08-29T10:38:55Z</time>
      </trkpt>
      <trkpt lat="40.209136" lon="-.939866">
        <ele>1188.439</ele>
        <time>2020-08-29T10:38:56Z</time>
      </trkpt>
      <trkpt lat="40.209106" lon="-.93981">
        <ele>1188.441</ele>
        <time>2020-08-29T10:38:57Z</time>
      </trkpt>
      <trkpt lat="40.209077" lon="-.939757">
        <ele>1188.499</ele>
        <time>2020-08-29T10:38:58Z</time>
      </trkpt>
      <trkpt lat="40.209033" lon="-.939704">
        <ele>1188.636</ele>
        <time>2020-08-29T10:38:59Z</time>
      </trkpt>
      <trkpt lat="40.208993" lon="-.939652">
        <ele>1188.684</ele>
        <time>2020-08-29T10:39:00Z</time>
      </trkpt>
      <trkpt lat="40.208955" lon="-.939593">
        <ele>1188.784</ele>
        <time>2020-08-29T10:39:01Z</time>
      </trkpt>
      <trkpt lat="40.208924" lon="-.939531">
        <ele>1188.611</ele>
        <time>2020-08-29T10:39:02Z</time>
      </trkpt>
      <trkpt lat="40.208897" lon="-.93948">
        <ele>1188.021</ele>
        <time>2020-08-29T10:39:03Z</time>
      </trkpt>
      <trkpt lat="40.208862" lon="-.939424">
        <ele>1187.703</ele>
        <time>2020-08-29T10:39:04Z</time>
      </trkpt>
      <trkpt lat="40.208828" lon="-.939373">
        <ele>1187.708</ele>
        <time>2020-08-29T10:39:05Z</time>
      </trkpt>
      <trkpt lat="40.208805" lon="-.93932">
        <ele>1187.576</ele>
        <time>2020-08-29T10:39:06Z</time>
      </trkpt>
      <trkpt lat="40.208771" lon="-.939266">
        <ele>1187.816</ele>
        <time>2020-08-29T10:39:07Z</time>
      </trkpt>
      <trkpt lat="40.20874" lon="-.939215">
        <ele>1187.898</ele>
        <time>2020-08-29T10:39:08Z</time>
      </trkpt>
      <trkpt lat="40.208707" lon="-.939151">
        <ele>1187.730</ele>
        <time>2020-08-29T10:39:09Z</time>
      </trkpt>
      <trkpt lat="40.208675" lon="-.9391">
        <ele>1187.768</ele>
        <time>2020-08-29T10:39:10Z</time>
      </trkpt>
      <trkpt lat="40.208646" lon="-.93905">
        <ele>1187.775</ele>
        <time>2020-08-29T10:39:11Z</time>
      </trkpt>
      <trkpt lat="40.208616" lon="-.939">
        <ele>1187.623</ele>
        <time>2020-08-29T10:39:12Z</time>
      </trkpt>
      <trkpt lat="40.208584" lon="-.938948">
        <ele>1187.533</ele>
        <time>2020-08-29T10:39:13Z</time>
      </trkpt>
      <trkpt lat="40.208555" lon="-.938895">
        <ele>1187.429</ele>
        <time>2020-08-29T10:39:14Z</time>
      </trkpt>
      <trkpt lat="40.20852" lon="-.938838">
        <ele>1187.400</ele>
        <time>2020-08-29T10:39:15Z</time>
      </trkpt>
      <trkpt lat="40.208483" lon="-.938766">
        <ele>1187.420</ele>
        <time>2020-08-29T10:39:16Z</time>
      </trkpt>
      <trkpt lat="40.208453" lon="-.93871">
        <ele>1187.408</ele>
        <time>2020-08-29T10:39:17Z</time>
      </trkpt>
      <trkpt lat="40.208418" lon="-.93866">
        <ele>1187.357</ele>
        <time>2020-08-29T10:39:18Z</time>
      </trkpt>
      <trkpt lat="40.208389" lon="-.938607">
        <ele>1187.117</ele>
        <time>2020-08-29T10:39:19Z</time>
      </trkpt>
      <trkpt lat="40.208354" lon="-.938548">
        <ele>1187.159</ele>
        <time>2020-08-29T10:39:20Z</time>
      </trkpt>
      <trkpt lat="40.208315" lon="-.938498">
        <ele>1186.931</ele>
        <time>2020-08-29T10:39:21Z</time>
      </trkpt>
      <trkpt lat="40.20828" lon="-.938438">
        <ele>1186.939</ele>
        <time>2020-08-29T10:39:22Z</time>
      </trkpt>
      <trkpt lat="40.208251" lon="-.938383">
        <ele>1186.986</ele>
        <time>2020-08-29T10:39:23Z</time>
      </trkpt>
      <trkpt lat="40.208222" lon="-.938331">
        <ele>1186.994</ele>
        <time>2020-08-29T10:39:24Z</time>
      </trkpt>
      <trkpt lat="40.208193" lon="-.938285">
        <ele>1187.044</ele>
        <time>2020-08-29T10:39:25Z</time>
      </trkpt>
      <trkpt lat="40.208142" lon="-.938204">
        <ele>1186.989</ele>
        <time>2020-08-29T10:39:27Z</time>
      </trkpt>
      <trkpt lat="40.20811" lon="-.93815">
        <ele>1186.906</ele>
        <time>2020-08-29T10:39:28Z</time>
      </trkpt>
      <trkpt lat="40.208056" lon="-.938049">
        <ele>1186.926</ele>
        <time>2020-08-29T10:39:30Z</time>
      </trkpt>
      <trkpt lat="40.208008" lon="-.937949">
        <ele>1186.808</ele>
        <time>2020-08-29T10:39:32Z</time>
      </trkpt>
      <trkpt lat="40.207985" lon="-.937898">
        <ele>1186.793</ele>
        <time>2020-08-29T10:39:33Z</time>
      </trkpt>
      <trkpt lat="40.207948" lon="-.9378">
        <ele>1186.523</ele>
        <time>2020-08-29T10:39:35Z</time>
      </trkpt>
      <trkpt lat="40.207922" lon="-.937744">
        <ele>1186.455</ele>
        <time>2020-08-29T10:39:36Z</time>
      </trkpt>
      <trkpt lat="40.207897" lon="-.937685">
        <ele>1186.437</ele>
        <time>2020-08-29T10:39:37Z</time>
      </trkpt>
      <trkpt lat="40.207874" lon="-.937631">
        <ele>1186.455</ele>
        <time>2020-08-29T10:39:38Z</time>
      </trkpt>
      <trkpt lat="40.207851" lon="-.937575">
        <ele>1186.362</ele>
        <time>2020-08-29T10:39:39Z</time>
      </trkpt>
      <trkpt lat="40.207808" lon="-.937474">
        <ele>1186.310</ele>
        <time>2020-08-29T10:39:41Z</time>
      </trkpt>
      <trkpt lat="40.207782" lon="-.937422">
        <ele>1185.860</ele>
        <time>2020-08-29T10:39:42Z</time>
      </trkpt>
      <trkpt lat="40.207736" lon="-.937311">
        <ele>1185.745</ele>
        <time>2020-08-29T10:39:44Z</time>
      </trkpt>
      <trkpt lat="40.207705" lon="-.937249">
        <ele>1185.847</ele>
        <time>2020-08-29T10:39:45Z</time>
      </trkpt>
      <trkpt lat="40.207679" lon="-.937183">
        <ele>1186.311</ele>
        <time>2020-08-29T10:39:46Z</time>
      </trkpt>
      <trkpt lat="40.207656" lon="-.93713">
        <ele>1186.408</ele>
        <time>2020-08-29T10:39:47Z</time>
      </trkpt>
      <trkpt lat="40.207637" lon="-.937075">
        <ele>1186.419</ele>
        <time>2020-08-29T10:39:48Z</time>
      </trkpt>
      <trkpt lat="40.207598" lon="-.936965">
        <ele>1186.289</ele>
        <time>2020-08-29T10:39:50Z</time>
      </trkpt>
      <trkpt lat="40.207567" lon="-.936858">
        <ele>1186.061</ele>
        <time>2020-08-29T10:39:52Z</time>
      </trkpt>
      <trkpt lat="40.207545" lon="-.936756">
        <ele>1185.883</ele>
        <time>2020-08-29T10:39:54Z</time>
      </trkpt>
      <trkpt lat="40.207519" lon="-.936669">
        <ele>1185.791</ele>
        <time>2020-08-29T10:39:56Z</time>
      </trkpt>
      <trkpt lat="40.207507" lon="-.936604">
        <ele>1184.758</ele>
        <time>2020-08-29T10:39:57Z</time>
      </trkpt>
      <trkpt lat="40.207488" lon="-.936509">
        <ele>1185.086</ele>
        <time>2020-08-29T10:39:59Z</time>
      </trkpt>
      <trkpt lat="40.207482" lon="-.936443">
        <ele>1185.566</ele>
        <time>2020-08-29T10:40:00Z</time>
      </trkpt>
      <trkpt lat="40.20746" lon="-.936329">
        <ele>1185.758</ele>
        <time>2020-08-29T10:40:02Z</time>
      </trkpt>
      <trkpt lat="40.207452" lon="-.936266">
        <ele>1185.452</ele>
        <time>2020-08-29T10:40:03Z</time>
      </trkpt>
      <trkpt lat="40.207455" lon="-.9362">
        <ele>1184.617</ele>
        <time>2020-08-29T10:40:04Z</time>
      </trkpt>
      <trkpt lat="40.207442" lon="-.936107">
        <ele>1185.208</ele>
        <time>2020-08-29T10:40:06Z</time>
      </trkpt>
      <trkpt lat="40.207418" lon="-.936031">
        <ele>1185.240</ele>
        <time>2020-08-29T10:40:07Z</time>
      </trkpt>
      <trkpt lat="40.207401" lon="-.935967">
        <ele>1185.260</ele>
        <time>2020-08-29T10:40:08Z</time>
      </trkpt>
      <trkpt lat="40.207395" lon="-.935903">
        <ele>1185.812</ele>
        <time>2020-08-29T10:40:09Z</time>
      </trkpt>
      <trkpt lat="40.207387" lon="-.935844">
        <ele>1185.894</ele>
        <time>2020-08-29T10:40:10Z</time>
      </trkpt>
      <trkpt lat="40.207374" lon="-.935777">
        <ele>1185.622</ele>
        <time>2020-08-29T10:40:11Z</time>
      </trkpt>
      <trkpt lat="40.207362" lon="-.93571">
        <ele>1185.439</ele>
        <time>2020-08-29T10:40:12Z</time>
      </trkpt>
      <trkpt lat="40.207337" lon="-.935594">
        <ele>1185.037</ele>
        <time>2020-08-29T10:40:14Z</time>
      </trkpt>
      <trkpt lat="40.20732" lon="-.935487">
        <ele>1184.837</ele>
        <time>2020-08-29T10:40:16Z</time>
      </trkpt>
      <trkpt lat="40.207306" lon="-.93543">
        <ele>1184.785</ele>
        <time>2020-08-29T10:40:17Z</time>
      </trkpt>
      <trkpt lat="40.20728" lon="-.935309">
        <ele>1185.089</ele>
        <time>2020-08-29T10:40:19Z</time>
      </trkpt>
      <trkpt lat="40.207263" lon="-.935245">
        <ele>1185.517</ele>
        <time>2020-08-29T10:40:20Z</time>
      </trkpt>
      <trkpt lat="40.20724" lon="-.935123">
        <ele>1185.808</ele>
        <time>2020-08-29T10:40:22Z</time>
      </trkpt>
      <trkpt lat="40.207236" lon="-.935062">
        <ele>1186.033</ele>
        <time>2020-08-29T10:40:23Z</time>
      </trkpt>
      <trkpt lat="40.207205" lon="-.934959">
        <ele>1186.153</ele>
        <time>2020-08-29T10:40:25Z</time>
      </trkpt>
      <trkpt lat="40.207179" lon="-.934895">
        <ele>1185.975</ele>
        <time>2020-08-29T10:40:26Z</time>
      </trkpt>
      <trkpt lat="40.207159" lon="-.934823">
        <ele>1185.717</ele>
        <time>2020-08-29T10:40:27Z</time>
      </trkpt>
      <trkpt lat="40.207152" lon="-.934761">
        <ele>1185.775</ele>
        <time>2020-08-29T10:40:28Z</time>
      </trkpt>
      <trkpt lat="40.207137" lon="-.934703">
        <ele>1185.682</ele>
        <time>2020-08-29T10:40:29Z</time>
      </trkpt>
      <trkpt lat="40.207132" lon="-.934644">
        <ele>1185.570</ele>
        <time>2020-08-29T10:40:30Z</time>
      </trkpt>
      <trkpt lat="40.20711" lon="-.934528">
        <ele>1185.510</ele>
        <time>2020-08-29T10:40:32Z</time>
      </trkpt>
      <trkpt lat="40.207082" lon="-.934402">
        <ele>1185.511</ele>
        <time>2020-08-29T10:40:34Z</time>
      </trkpt>
      <trkpt lat="40.207047" lon="-.934344">
        <ele>1185.721</ele>
        <time>2020-08-29T10:40:35Z</time>
      </trkpt>
      <trkpt lat="40.207031" lon="-.934227">
        <ele>1185.703</ele>
        <time>2020-08-29T10:40:37Z</time>
      </trkpt>
      <trkpt lat="40.207017" lon="-.934151">
        <ele>1185.708</ele>
        <time>2020-08-29T10:40:38Z</time>
      </trkpt>
      <trkpt lat="40.206997" lon="-.934086">
        <ele>1185.616</ele>
        <time>2020-08-29T10:40:39Z</time>
      </trkpt>
      <trkpt lat="40.206976" lon="-.934017">
        <ele>1185.546</ele>
        <time>2020-08-29T10:40:40Z</time>
      </trkpt>
      <trkpt lat="40.206961" lon="-.933961">
        <ele>1185.598</ele>
        <time>2020-08-29T10:40:41Z</time>
      </trkpt>
      <trkpt lat="40.206946" lon="-.933882">
        <ele>1185.650</ele>
        <time>2020-08-29T10:40:42Z</time>
      </trkpt>
      <trkpt lat="40.206932" lon="-.933822">
        <ele>1185.638</ele>
        <time>2020-08-29T10:40:43Z</time>
      </trkpt>
      <trkpt lat="40.206929" lon="-.933758">
        <ele>1185.715</ele>
        <time>2020-08-29T10:40:44Z</time>
      </trkpt>
      <trkpt lat="40.206913" lon="-.933687">
        <ele>1185.753</ele>
        <time>2020-08-29T10:40:45Z</time>
      </trkpt>
      <trkpt lat="40.206883" lon="-.933569">
        <ele>1185.883</ele>
        <time>2020-08-29T10:40:47Z</time>
      </trkpt>
      <trkpt lat="40.206864" lon="-.933513">
        <ele>1185.957</ele>
        <time>2020-08-29T10:40:48Z</time>
      </trkpt>
      <trkpt lat="40.206856" lon="-.933452">
        <ele>1185.900</ele>
        <time>2020-08-29T10:40:49Z</time>
      </trkpt>
      <trkpt lat="40.206821" lon="-.933333">
        <ele>1186.020</ele>
        <time>2020-08-29T10:40:51Z</time>
      </trkpt>
      <trkpt lat="40.206809" lon="-.933272">
        <ele>1186.108</ele>
        <time>2020-08-29T10:40:52Z</time>
      </trkpt>
      <trkpt lat="40.206801" lon="-.933205">
        <ele>1186.340</ele>
        <time>2020-08-29T10:40:53Z</time>
      </trkpt>
      <trkpt lat="40.206783" lon="-.933149">
        <ele>1186.430</ele>
        <time>2020-08-29T10:40:54Z</time>
      </trkpt>
      <trkpt lat="40.206738" lon="-.933039">
        <ele>1186.512</ele>
        <time>2020-08-29T10:40:56Z</time>
      </trkpt>
      <trkpt lat="40.206704" lon="-.932982">
        <ele>1186.674</ele>
        <time>2020-08-29T10:40:57Z</time>
      </trkpt>
      <trkpt lat="40.20664" lon="-.932904">
        <ele>1186.682</ele>
        <time>2020-08-29T10:40:59Z</time>
      </trkpt>
      <trkpt lat="40.206581" lon="-.932851">
        <ele>1186.539</ele>
        <time>2020-08-29T10:41:01Z</time>
      </trkpt>
      <trkpt lat="40.206537" lon="-.932821">
        <ele>1187.287</ele>
        <time>2020-08-29T10:41:03Z</time>
      </trkpt>
      <trkpt lat="40.206476" lon="-.932816">
        <ele>1188.257</ele>
        <time>2020-08-29T10:41:06Z</time>
      </trkpt>
      <trkpt lat="40.206434" lon="-.932779">
        <ele>1188.464</ele>
        <time>2020-08-29T10:41:09Z</time>
      </trkpt>
      <trkpt lat="40.206367" lon="-.932766">
        <ele>1188.706</ele>
        <time>2020-08-29T10:41:12Z</time>
      </trkpt>
      <trkpt lat="40.206295" lon="-.932747">
        <ele>1189.216</ele>
        <time>2020-08-29T10:41:15Z</time>
      </trkpt>
      <trkpt lat="40.206245" lon="-.932717">
        <ele>1190.608</ele>
        <time>2020-08-29T10:41:18Z</time>
      </trkpt>
      <trkpt lat="40.206191" lon="-.932688">
        <ele>1190.281</ele>
        <time>2020-08-29T10:41:21Z</time>
      </trkpt>
      <trkpt lat="40.206141" lon="-.932648">
        <ele>1192.211</ele>
        <time>2020-08-29T10:41:25Z</time>
      </trkpt>
      <trkpt lat="40.20609" lon="-.932626">
        <ele>1192.543</ele>
        <time>2020-08-29T10:41:28Z</time>
      </trkpt>
      <trkpt lat="40.206045" lon="-.932585">
        <ele>1192.675</ele>
        <time>2020-08-29T10:41:31Z</time>
      </trkpt>
      <trkpt lat="40.206001" lon="-.932542">
        <ele>1193.623</ele>
        <time>2020-08-29T10:41:35Z</time>
      </trkpt>
      <trkpt lat="40.205955" lon="-.9325">
        <ele>1193.360</ele>
        <time>2020-08-29T10:41:38Z</time>
      </trkpt>
      <trkpt lat="40.205912" lon="-.932444">
        <ele>1193.238</ele>
        <time>2020-08-29T10:41:42Z</time>
      </trkpt>
      <trkpt lat="40.205879" lon="-.932403">
        <ele>1193.498</ele>
        <time>2020-08-29T10:41:44Z</time>
      </trkpt>
      <trkpt lat="40.205837" lon="-.932338">
        <ele>1193.258</ele>
        <time>2020-08-29T10:41:47Z</time>
      </trkpt>
      <trkpt lat="40.205809" lon="-.932287">
        <ele>1193.152</ele>
        <time>2020-08-29T10:41:50Z</time>
      </trkpt>
      <trkpt lat="40.205749" lon="-.932234">
        <ele>1192.917</ele>
        <time>2020-08-29T10:41:53Z</time>
      </trkpt>
      <trkpt lat="40.205707" lon="-.932184">
        <ele>1192.708</ele>
        <time>2020-08-29T10:41:55Z</time>
      </trkpt>
      <trkpt lat="40.205649" lon="-.932124">
        <ele>1192.520</ele>
        <time>2020-08-29T10:41:57Z</time>
      </trkpt>
      <trkpt lat="40.205627" lon="-.93206">
        <ele>1192.480</ele>
        <time>2020-08-29T10:41:59Z</time>
      </trkpt>
      <trkpt lat="40.20558" lon="-.932012">
        <ele>1192.472</ele>
        <time>2020-08-29T10:42:01Z</time>
      </trkpt>
      <trkpt lat="40.205528" lon="-.931962">
        <ele>1192.554</ele>
        <time>2020-08-29T10:42:03Z</time>
      </trkpt>
      <trkpt lat="40.205465" lon="-.931888">
        <ele>1192.382</ele>
        <time>2020-08-29T10:42:05Z</time>
      </trkpt>
      <trkpt lat="40.205391" lon="-.931804">
        <ele>1191.499</ele>
        <time>2020-08-29T10:42:07Z</time>
      </trkpt>
      <trkpt lat="40.205339" lon="-.931756">
        <ele>1191.067</ele>
        <time>2020-08-29T10:42:08Z</time>
      </trkpt>
      <trkpt lat="40.205293" lon="-.931702">
        <ele>1190.527</ele>
        <time>2020-08-29T10:42:09Z</time>
      </trkpt>
      <trkpt lat="40.205242" lon="-.931652">
        <ele>1190.121</ele>
        <time>2020-08-29T10:42:10Z</time>
      </trkpt>
      <trkpt lat="40.205197" lon="-.931603">
        <ele>1189.741</ele>
        <time>2020-08-29T10:42:11Z</time>
      </trkpt>
      <trkpt lat="40.205149" lon="-.931554">
        <ele>1189.505</ele>
        <time>2020-08-29T10:42:12Z</time>
      </trkpt>
      <trkpt lat="40.205101" lon="-.931514">
        <ele>1189.208</ele>
        <time>2020-08-29T10:42:13Z</time>
      </trkpt>
      <trkpt lat="40.205058" lon="-.931471">
        <ele>1189.037</ele>
        <time>2020-08-29T10:42:14Z</time>
      </trkpt>
      <trkpt lat="40.205019" lon="-.931436">
        <ele>1188.957</ele>
        <time>2020-08-29T10:42:15Z</time>
      </trkpt>
      <trkpt lat="40.204971" lon="-.931409">
        <ele>1188.949</ele>
        <time>2020-08-29T10:42:16Z</time>
      </trkpt>
      <trkpt lat="40.204895" lon="-.931343">
        <ele>1189.011</ele>
        <time>2020-08-29T10:42:18Z</time>
      </trkpt>
      <trkpt lat="40.204854" lon="-.931307">
        <ele>1189.089</ele>
        <time>2020-08-29T10:42:19Z</time>
      </trkpt>
      <trkpt lat="40.204812" lon="-.931278">
        <ele>1189.016</ele>
        <time>2020-08-29T10:42:20Z</time>
      </trkpt>
      <trkpt lat="40.204772" lon="-.93124">
        <ele>1188.964</ele>
        <time>2020-08-29T10:42:21Z</time>
      </trkpt>
      <trkpt lat="40.20472" lon="-.931198">
        <ele>1188.854</ele>
        <time>2020-08-29T10:42:22Z</time>
      </trkpt>
      <trkpt lat="40.204668" lon="-.931187">
        <ele>1188.683</ele>
        <time>2020-08-29T10:42:23Z</time>
      </trkpt>
      <trkpt lat="40.204613" lon="-.931157">
        <ele>1188.325</ele>
        <time>2020-08-29T10:42:24Z</time>
      </trkpt>
      <trkpt lat="40.204566" lon="-.931132">
        <ele>1188.017</ele>
        <time>2020-08-29T10:42:25Z</time>
      </trkpt>
      <trkpt lat="40.204506" lon="-.931107">
        <ele>1187.708</ele>
        <time>2020-08-29T10:42:26Z</time>
      </trkpt>
      <trkpt lat="40.204441" lon="-.931079">
        <ele>1187.363</ele>
        <time>2020-08-29T10:42:27Z</time>
      </trkpt>
      <trkpt lat="40.204386" lon="-.931041">
        <ele>1187.123</ele>
        <time>2020-08-29T10:42:28Z</time>
      </trkpt>
      <trkpt lat="40.204337" lon="-.931018">
        <ele>1186.935</ele>
        <time>2020-08-29T10:42:29Z</time>
      </trkpt>
      <trkpt lat="40.204283" lon="-.930991">
        <ele>1186.797</ele>
        <time>2020-08-29T10:42:30Z</time>
      </trkpt>
      <trkpt lat="40.204235" lon="-.930942">
        <ele>1186.735</ele>
        <time>2020-08-29T10:42:31Z</time>
      </trkpt>
      <trkpt lat="40.204187" lon="-.930897">
        <ele>1186.632</ele>
        <time>2020-08-29T10:42:32Z</time>
      </trkpt>
      <trkpt lat="40.204136" lon="-.930851">
        <ele>1186.560</ele>
        <time>2020-08-29T10:42:33Z</time>
      </trkpt>
      <trkpt lat="40.204095" lon="-.930794">
        <ele>1186.470</ele>
        <time>2020-08-29T10:42:34Z</time>
      </trkpt>
      <trkpt lat="40.204058" lon="-.930732">
        <ele>1186.233</ele>
        <time>2020-08-29T10:42:35Z</time>
      </trkpt>
      <trkpt lat="40.204" lon="-.930662">
        <ele>1185.823</ele>
        <time>2020-08-29T10:42:36Z</time>
      </trkpt>
      <trkpt lat="40.203947" lon="-.930588">
        <ele>1185.515</ele>
        <time>2020-08-29T10:42:37Z</time>
      </trkpt>
      <trkpt lat="40.203899" lon="-.930515">
        <ele>1184.908</ele>
        <time>2020-08-29T10:42:38Z</time>
      </trkpt>
      <trkpt lat="40.203847" lon="-.930443">
        <ele>1184.638</ele>
        <time>2020-08-29T10:42:39Z</time>
      </trkpt>
      <trkpt lat="40.203804" lon="-.93037">
        <ele>1184.378</ele>
        <time>2020-08-29T10:42:40Z</time>
      </trkpt>
      <trkpt lat="40.203759" lon="-.930298">
        <ele>1184.180</ele>
        <time>2020-08-29T10:42:41Z</time>
      </trkpt>
      <trkpt lat="40.203729" lon="-.930237">
        <ele>1183.972</ele>
        <time>2020-08-29T10:42:42Z</time>
      </trkpt>
      <trkpt lat="40.203696" lon="-.930176">
        <ele>1183.730</ele>
        <time>2020-08-29T10:42:43Z</time>
      </trkpt>
      <trkpt lat="40.203654" lon="-.930115">
        <ele>1183.527</ele>
        <time>2020-08-29T10:42:44Z</time>
      </trkpt>
      <trkpt lat="40.203606" lon="-.930037">
        <ele>1182.855</ele>
        <time>2020-08-29T10:42:45Z</time>
      </trkpt>
      <trkpt lat="40.203568" lon="-.929959">
        <ele>1182.675</ele>
        <time>2020-08-29T10:42:46Z</time>
      </trkpt>
      <trkpt lat="40.203525" lon="-.929897">
        <ele>1182.535</ele>
        <time>2020-08-29T10:42:47Z</time>
      </trkpt>
      <trkpt lat="40.203471" lon="-.929836">
        <ele>1182.586</ele>
        <time>2020-08-29T10:42:48Z</time>
      </trkpt>
      <trkpt lat="40.203415" lon="-.929763">
        <ele>1182.514</ele>
        <time>2020-08-29T10:42:49Z</time>
      </trkpt>
      <trkpt lat="40.20336" lon="-.929694">
        <ele>1182.608</ele>
        <time>2020-08-29T10:42:50Z</time>
      </trkpt>
      <trkpt lat="40.203309" lon="-.929626">
        <ele>1182.698</ele>
        <time>2020-08-29T10:42:51Z</time>
      </trkpt>
      <trkpt lat="40.20326" lon="-.929561">
        <ele>1181.688</ele>
        <time>2020-08-29T10:42:52Z</time>
      </trkpt>
      <trkpt lat="40.203204" lon="-.929493">
        <ele>1181.020</ele>
        <time>2020-08-29T10:42:53Z</time>
      </trkpt>
      <trkpt lat="40.203145" lon="-.929431">
        <ele>1180.662</ele>
        <time>2020-08-29T10:42:54Z</time>
      </trkpt>
      <trkpt lat="40.203096" lon="-.929364">
        <ele>1180.310</ele>
        <time>2020-08-29T10:42:55Z</time>
      </trkpt>
      <trkpt lat="40.203039" lon="-.929297">
        <ele>1180.127</ele>
        <time>2020-08-29T10:42:56Z</time>
      </trkpt>
      <trkpt lat="40.202979" lon="-.929231">
        <ele>1180.015</ele>
        <time>2020-08-29T10:42:57Z</time>
      </trkpt>
      <trkpt lat="40.202923" lon="-.929171">
        <ele>1179.895</ele>
        <time>2020-08-29T10:42:58Z</time>
      </trkpt>
      <trkpt lat="40.202866" lon="-.929111">
        <ele>1179.589</ele>
        <time>2020-08-29T10:42:59Z</time>
      </trkpt>
      <trkpt lat="40.202801" lon="-.92905">
        <ele>1179.106</ele>
        <time>2020-08-29T10:43:00Z</time>
      </trkpt>
      <trkpt lat="40.20274" lon="-.928991">
        <ele>1178.726</ele>
        <time>2020-08-29T10:43:01Z</time>
      </trkpt>
      <trkpt lat="40.202677" lon="-.928936">
        <ele>1178.308</ele>
        <time>2020-08-29T10:43:02Z</time>
      </trkpt>
      <trkpt lat="40.202606" lon="-.928894">
        <ele>1177.843</ele>
        <time>2020-08-29T10:43:03Z</time>
      </trkpt>
      <trkpt lat="40.202529" lon="-.928866">
        <ele>1177.313</ele>
        <time>2020-08-29T10:43:04Z</time>
      </trkpt>
      <trkpt lat="40.202457" lon="-.928842">
        <ele>1177.035</ele>
        <time>2020-08-29T10:43:05Z</time>
      </trkpt>
      <trkpt lat="40.202387" lon="-.92882">
        <ele>1176.847</ele>
        <time>2020-08-29T10:43:06Z</time>
      </trkpt>
      <trkpt lat="40.202323" lon="-.9288">
        <ele>1176.725</ele>
        <time>2020-08-29T10:43:07Z</time>
      </trkpt>
      <trkpt lat="40.202258" lon="-.928776">
        <ele>1176.762</ele>
        <time>2020-08-29T10:43:08Z</time>
      </trkpt>
      <trkpt lat="40.202196" lon="-.92875">
        <ele>1176.790</ele>
        <time>2020-08-29T10:43:09Z</time>
      </trkpt>
      <trkpt lat="40.202133" lon="-.928728">
        <ele>1176.760</ele>
        <time>2020-08-29T10:43:10Z</time>
      </trkpt>
      <trkpt lat="40.202068" lon="-.928709">
        <ele>1176.775</ele>
        <time>2020-08-29T10:43:11Z</time>
      </trkpt>
      <trkpt lat="40.20201" lon="-.928688">
        <ele>1176.728</ele>
        <time>2020-08-29T10:43:12Z</time>
      </trkpt>
      <trkpt lat="40.201952" lon="-.928669">
        <ele>1176.820</ele>
        <time>2020-08-29T10:43:13Z</time>
      </trkpt>
      <trkpt lat="40.201895" lon="-.928644">
        <ele>1176.808</ele>
        <time>2020-08-29T10:43:14Z</time>
      </trkpt>
      <trkpt lat="40.201842" lon="-.928619">
        <ele>1176.892</ele>
        <time>2020-08-29T10:43:15Z</time>
      </trkpt>
      <trkpt lat="40.201793" lon="-.928588">
        <ele>1176.832</ele>
        <time>2020-08-29T10:43:16Z</time>
      </trkpt>
      <trkpt lat="40.20174" lon="-.928564">
        <ele>1176.764</ele>
        <time>2020-08-29T10:43:17Z</time>
      </trkpt>
      <trkpt lat="40.201683" lon="-.928548">
        <ele>1176.656</ele>
        <time>2020-08-29T10:43:18Z</time>
      </trkpt>
      <trkpt lat="40.201627" lon="-.928533">
        <ele>1176.514</ele>
        <time>2020-08-29T10:43:19Z</time>
      </trkpt>
      <trkpt lat="40.201574" lon="-.928519">
        <ele>1176.471</ele>
        <time>2020-08-29T10:43:20Z</time>
      </trkpt>
      <trkpt lat="40.201523" lon="-.928501">
        <ele>1176.399</ele>
        <time>2020-08-29T10:43:21Z</time>
      </trkpt>
      <trkpt lat="40.201477" lon="-.92848">
        <ele>1176.359</ele>
        <time>2020-08-29T10:43:22Z</time>
      </trkpt>
      <trkpt lat="40.201429" lon="-.928463">
        <ele>1176.333</ele>
        <time>2020-08-29T10:43:23Z</time>
      </trkpt>
      <trkpt lat="40.20138" lon="-.92845">
        <ele>1176.323</ele>
        <time>2020-08-29T10:43:24Z</time>
      </trkpt>
      <trkpt lat="40.201336" lon="-.928436">
        <ele>1176.315</ele>
        <time>2020-08-29T10:43:25Z</time>
      </trkpt>
      <trkpt lat="40.201249" lon="-.928404">
        <ele>1176.108</ele>
        <time>2020-08-29T10:43:27Z</time>
      </trkpt>
      <trkpt lat="40.201163" lon="-.928381">
        <ele>1175.778</ele>
        <time>2020-08-29T10:43:29Z</time>
      </trkpt>
      <trkpt lat="40.201073" lon="-.928343">
        <ele>1175.798</ele>
        <time>2020-08-29T10:43:31Z</time>
      </trkpt>
      <trkpt lat="40.200992" lon="-.928303">
        <ele>1176.170</ele>
        <time>2020-08-29T10:43:33Z</time>
      </trkpt>
      <trkpt lat="40.200946" lon="-.928287">
        <ele>1176.192</ele>
        <time>2020-08-29T10:43:34Z</time>
      </trkpt>
      <trkpt lat="40.200902" lon="-.928264">
        <ele>1175.880</ele>
        <time>2020-08-29T10:43:35Z</time>
      </trkpt>
      <trkpt lat="40.200821" lon="-.928231">
        <ele>1175.337</ele>
        <time>2020-08-29T10:43:37Z</time>
      </trkpt>
      <trkpt lat="40.200777" lon="-.928213">
        <ele>1175.545</ele>
        <time>2020-08-29T10:43:38Z</time>
      </trkpt>
      <trkpt lat="40.200692" lon="-.92816">
        <ele>1175.575</ele>
        <time>2020-08-29T10:43:40Z</time>
      </trkpt>
      <trkpt lat="40.200616" lon="-.928121">
        <ele>1175.858</ele>
        <time>2020-08-29T10:43:42Z</time>
      </trkpt>
      <trkpt lat="40.200557" lon="-.928101">
        <ele>1175.752</ele>
        <time>2020-08-29T10:43:44Z</time>
      </trkpt>
      <trkpt lat="40.200516" lon="-.928068">
        <ele>1175.617</ele>
        <time>2020-08-29T10:43:46Z</time>
      </trkpt>
      <trkpt lat="40.200483" lon="-.928024">
        <ele>1175.408</ele>
        <time>2020-08-29T10:43:48Z</time>
      </trkpt>
      <trkpt lat="40.200438" lon="-.927996">
        <ele>1175.480</ele>
        <time>2020-08-29T10:43:50Z</time>
      </trkpt>
      <trkpt lat="40.200397" lon="-.927951">
        <ele>1175.340</ele>
        <time>2020-08-29T10:43:52Z</time>
      </trkpt>
      <trkpt lat="40.200359" lon="-.927894">
        <ele>1175.362</ele>
        <time>2020-08-29T10:43:54Z</time>
      </trkpt>
      <trkpt lat="40.200313" lon="-.927844">
        <ele>1175.394</ele>
        <time>2020-08-29T10:43:56Z</time>
      </trkpt>
      <trkpt lat="40.20027" lon="-.927783">
        <ele>1175.542</ele>
        <time>2020-08-29T10:43:58Z</time>
      </trkpt>
      <trkpt lat="40.200233" lon="-.927708">
        <ele>1175.199</ele>
        <time>2020-08-29T10:44:00Z</time>
      </trkpt>
      <trkpt lat="40.2002" lon="-.927665">
        <ele>1175.397</ele>
        <time>2020-08-29T10:44:02Z</time>
      </trkpt>
      <trkpt lat="40.200173" lon="-.927611">
        <ele>1175.597</ele>
        <time>2020-08-29T10:44:05Z</time>
      </trkpt>
      <trkpt lat="40.200133" lon="-.927545">
        <ele>1175.151</ele>
        <time>2020-08-29T10:44:07Z</time>
      </trkpt>
      <trkpt lat="40.200084" lon="-.927481">
        <ele>1175.301</ele>
        <time>2020-08-29T10:44:09Z</time>
      </trkpt>
      <trkpt lat="40.200033" lon="-.927398">
        <ele>1175.511</ele>
        <time>2020-08-29T10:44:11Z</time>
      </trkpt>
      <trkpt lat="40.199989" lon="-.927321">
        <ele>1175.708</ele>
        <time>2020-08-29T10:44:13Z</time>
      </trkpt>
      <trkpt lat="40.199946" lon="-.927256">
        <ele>1175.560</ele>
        <time>2020-08-29T10:44:15Z</time>
      </trkpt>
      <trkpt lat="40.199923" lon="-.927176">
        <ele>1175.220</ele>
        <time>2020-08-29T10:44:17Z</time>
      </trkpt>
      <trkpt lat="40.199885" lon="-.927063">
        <ele>1174.942</ele>
        <time>2020-08-29T10:44:19Z</time>
      </trkpt>
      <trkpt lat="40.199853" lon="-.926966">
        <ele>1175.434</ele>
        <time>2020-08-29T10:44:21Z</time>
      </trkpt>
      <trkpt lat="40.19981" lon="-.926874">
        <ele>1175.092</ele>
        <time>2020-08-29T10:44:23Z</time>
      </trkpt>
      <trkpt lat="40.199773" lon="-.926781">
        <ele>1174.919</ele>
        <time>2020-08-29T10:44:25Z</time>
      </trkpt>
      <trkpt lat="40.199755" lon="-.926727">
        <ele>1174.947</ele>
        <time>2020-08-29T10:44:26Z</time>
      </trkpt>
      <trkpt lat="40.199723" lon="-.926641">
        <ele>1174.957</ele>
        <time>2020-08-29T10:44:28Z</time>
      </trkpt>
      <trkpt lat="40.199686" lon="-.926541">
        <ele>1174.812</ele>
        <time>2020-08-29T10:44:30Z</time>
      </trkpt>
      <trkpt lat="40.199656" lon="-.926448">
        <ele>1174.832</ele>
        <time>2020-08-29T10:44:32Z</time>
      </trkpt>
      <trkpt lat="40.199624" lon="-.926364">
        <ele>1174.705</ele>
        <time>2020-08-29T10:44:34Z</time>
      </trkpt>
      <trkpt lat="40.19959" lon="-.926271">
        <ele>1174.308</ele>
        <time>2020-08-29T10:44:36Z</time>
      </trkpt>
      <trkpt lat="40.199574" lon="-.926214">
        <ele>1174.376</ele>
        <time>2020-08-29T10:44:37Z</time>
      </trkpt>
      <trkpt lat="40.199556" lon="-.92616">
        <ele>1174.336</ele>
        <time>2020-08-29T10:44:38Z</time>
      </trkpt>
      <trkpt lat="40.199532" lon="-.926105">
        <ele>1174.298</ele>
        <time>2020-08-29T10:44:39Z</time>
      </trkpt>
      <trkpt lat="40.199493" lon="-.926004">
        <ele>1174.110</ele>
        <time>2020-08-29T10:44:41Z</time>
      </trkpt>
      <trkpt lat="40.199455" lon="-.925917">
        <ele>1173.918</ele>
        <time>2020-08-29T10:44:43Z</time>
      </trkpt>
      <trkpt lat="40.199421" lon="-.925822">
        <ele>1173.845</ele>
        <time>2020-08-29T10:44:45Z</time>
      </trkpt>
      <trkpt lat="40.199395" lon="-.925771">
        <ele>1173.793</ele>
        <time>2020-08-29T10:44:46Z</time>
      </trkpt>
      <trkpt lat="40.199362" lon="-.925675">
        <ele>1173.683</ele>
        <time>2020-08-29T10:44:48Z</time>
      </trkpt>
      <trkpt lat="40.199334" lon="-.925617">
        <ele>1173.536</ele>
        <time>2020-08-29T10:44:49Z</time>
      </trkpt>
      <trkpt lat="40.199314" lon="-.925559">
        <ele>1173.517</ele>
        <time>2020-08-29T10:44:50Z</time>
      </trkpt>
      <trkpt lat="40.199282" lon="-.92546">
        <ele>1173.418</ele>
        <time>2020-08-29T10:44:52Z</time>
      </trkpt>
      <trkpt lat="40.199247" lon="-.925367">
        <ele>1173.408</ele>
        <time>2020-08-29T10:44:54Z</time>
      </trkpt>
      <trkpt lat="40.199223" lon="-.925308">
        <ele>1173.368</ele>
        <time>2020-08-29T10:44:55Z</time>
      </trkpt>
      <trkpt lat="40.199205" lon="-.925249">
        <ele>1173.188</ele>
        <time>2020-08-29T10:44:56Z</time>
      </trkpt>
      <trkpt lat="40.199166" lon="-.925144">
        <ele>1172.960</ele>
        <time>2020-08-29T10:44:58Z</time>
      </trkpt>
      <trkpt lat="40.199129" lon="-.925044">
        <ele>1172.872</ele>
        <time>2020-08-29T10:45:00Z</time>
      </trkpt>
      <trkpt lat="40.199106" lon="-.924953">
        <ele>1172.720</ele>
        <time>2020-08-29T10:45:02Z</time>
      </trkpt>
      <trkpt lat="40.199069" lon="-.924857">
        <ele>1172.657</ele>
        <time>2020-08-29T10:45:04Z</time>
      </trkpt>
      <trkpt lat="40.19904" lon="-.924757">
        <ele>1172.535</ele>
        <time>2020-08-29T10:45:06Z</time>
      </trkpt>
      <trkpt lat="40.199004" lon="-.924648">
        <ele>1172.455</ele>
        <time>2020-08-29T10:45:08Z</time>
      </trkpt>
      <trkpt lat="40.198981" lon="-.924592">
        <ele>1172.352</ele>
        <time>2020-08-29T10:45:09Z</time>
      </trkpt>
      <trkpt lat="40.198962" lon="-.924539">
        <ele>1172.353</ele>
        <time>2020-08-29T10:45:10Z</time>
      </trkpt>
      <trkpt lat="40.198937" lon="-.924475">
        <ele>1172.108</ele>
        <time>2020-08-29T10:45:11Z</time>
      </trkpt>
      <trkpt lat="40.198915" lon="-.924423">
        <ele>1172.108</ele>
        <time>2020-08-29T10:45:12Z</time>
      </trkpt>
      <trkpt lat="40.198874" lon="-.924306">
        <ele>1171.970</ele>
        <time>2020-08-29T10:45:14Z</time>
      </trkpt>
      <trkpt lat="40.198837" lon="-.924202">
        <ele>1171.790</ele>
        <time>2020-08-29T10:45:16Z</time>
      </trkpt>
      <trkpt lat="40.19881" lon="-.924125">
        <ele>1171.462</ele>
        <time>2020-08-29T10:45:17Z</time>
      </trkpt>
      <trkpt lat="40.198794" lon="-.924063">
        <ele>1171.584</ele>
        <time>2020-08-29T10:45:18Z</time>
      </trkpt>
      <trkpt lat="40.198768" lon="-.92398">
        <ele>1171.612</ele>
        <time>2020-08-29T10:45:20Z</time>
      </trkpt>
      <trkpt lat="40.198727" lon="-.923888">
        <ele>1171.589</ele>
        <time>2020-08-29T10:45:22Z</time>
      </trkpt>
      <trkpt lat="40.198696" lon="-.923832">
        <ele>1171.437</ele>
        <time>2020-08-29T10:45:23Z</time>
      </trkpt>
      <trkpt lat="40.198675" lon="-.923775">
        <ele>1171.217</ele>
        <time>2020-08-29T10:45:24Z</time>
      </trkpt>
      <trkpt lat="40.198647" lon="-.923711">
        <ele>1170.983</ele>
        <time>2020-08-29T10:45:25Z</time>
      </trkpt>
      <trkpt lat="40.198609" lon="-.923652">
        <ele>1170.825</ele>
        <time>2020-08-29T10:45:26Z</time>
      </trkpt>
      <trkpt lat="40.198582" lon="-.923587">
        <ele>1170.717</ele>
        <time>2020-08-29T10:45:27Z</time>
      </trkpt>
      <trkpt lat="40.19855" lon="-.923531">
        <ele>1170.208</ele>
        <time>2020-08-29T10:45:28Z</time>
      </trkpt>
      <trkpt lat="40.198515" lon="-.923475">
        <ele>1170.253</ele>
        <time>2020-08-29T10:45:29Z</time>
      </trkpt>
      <trkpt lat="40.198478" lon="-.923419">
        <ele>1170.223</ele>
        <time>2020-08-29T10:45:30Z</time>
      </trkpt>
      <trkpt lat="40.198442" lon="-.923368">
        <ele>1170.255</ele>
        <time>2020-08-29T10:45:31Z</time>
      </trkpt>
      <trkpt lat="40.198405" lon="-.923299">
        <ele>1170.287</ele>
        <time>2020-08-29T10:45:32Z</time>
      </trkpt>
      <trkpt lat="40.198362" lon="-.923251">
        <ele>1170.235</ele>
        <time>2020-08-29T10:45:33Z</time>
      </trkpt>
      <trkpt lat="40.198316" lon="-.923205">
        <ele>1170.342</ele>
        <time>2020-08-29T10:45:34Z</time>
      </trkpt>
      <trkpt lat="40.198268" lon="-.923142">
        <ele>1170.360</ele>
        <time>2020-08-29T10:45:35Z</time>
      </trkpt>
      <trkpt lat="40.19822" lon="-.923092">
        <ele>1170.380</ele>
        <time>2020-08-29T10:45:36Z</time>
      </trkpt>
      <trkpt lat="40.198164" lon="-.922997">
        <ele>1170.293</ele>
        <time>2020-08-29T10:45:37Z</time>
      </trkpt>
      <trkpt lat="40.198132" lon="-.92294">
        <ele>1170.265</ele>
        <time>2020-08-29T10:45:38Z</time>
      </trkpt>
      <trkpt lat="40.198091" lon="-.92288">
        <ele>1170.121</ele>
        <time>2020-08-29T10:45:39Z</time>
      </trkpt>
      <trkpt lat="40.19805" lon="-.922832">
        <ele>1169.808</ele>
        <time>2020-08-29T10:45:40Z</time>
      </trkpt>
      <trkpt lat="40.198007" lon="-.922774">
        <ele>1169.854</ele>
        <time>2020-08-29T10:45:41Z</time>
      </trkpt>
      <trkpt lat="40.197963" lon="-.922716">
        <ele>1169.874</ele>
        <time>2020-08-29T10:45:42Z</time>
      </trkpt>
      <trkpt lat="40.197906" lon="-.922667">
        <ele>1169.866</ele>
        <time>2020-08-29T10:45:43Z</time>
      </trkpt>
      <trkpt lat="40.19786" lon="-.922618">
        <ele>1169.648</ele>
        <time>2020-08-29T10:45:44Z</time>
      </trkpt>
      <trkpt lat="40.197815" lon="-.922567">
        <ele>1169.516</ele>
        <time>2020-08-29T10:45:45Z</time>
      </trkpt>
      <trkpt lat="40.197774" lon="-.92252">
        <ele>1169.553</ele>
        <time>2020-08-29T10:45:46Z</time>
      </trkpt>
      <trkpt lat="40.197713" lon="-.922479">
        <ele>1169.251</ele>
        <time>2020-08-29T10:45:47Z</time>
      </trkpt>
      <trkpt lat="40.197664" lon="-.922427">
        <ele>1168.991</ele>
        <time>2020-08-29T10:45:48Z</time>
      </trkpt>
      <trkpt lat="40.197605" lon="-.92238">
        <ele>1168.622</ele>
        <time>2020-08-29T10:45:49Z</time>
      </trkpt>
      <trkpt lat="40.197554" lon="-.922333">
        <ele>1168.662</ele>
        <time>2020-08-29T10:45:50Z</time>
      </trkpt>
      <trkpt lat="40.197504" lon="-.92229">
        <ele>1168.708</ele>
        <time>2020-08-29T10:45:51Z</time>
      </trkpt>
      <trkpt lat="40.197449" lon="-.922266">
        <ele>1168.808</ele>
        <time>2020-08-29T10:45:52Z</time>
      </trkpt>
      <trkpt lat="40.197383" lon="-.922224">
        <ele>1168.887</ele>
        <time>2020-08-29T10:45:53Z</time>
      </trkpt>
      <trkpt lat="40.197331" lon="-.922188">
        <ele>1168.927</ele>
        <time>2020-08-29T10:45:54Z</time>
      </trkpt>
      <trkpt lat="40.197276" lon="-.922161">
        <ele>1168.999</ele>
        <time>2020-08-29T10:45:55Z</time>
      </trkpt>
      <trkpt lat="40.197214" lon="-.922117">
        <ele>1168.561</ele>
        <time>2020-08-29T10:45:56Z</time>
      </trkpt>
      <trkpt lat="40.19716" lon="-.922076">
        <ele>1168.279</ele>
        <time>2020-08-29T10:45:57Z</time>
      </trkpt>
      <trkpt lat="40.197111" lon="-.922037">
        <ele>1168.126</ele>
        <time>2020-08-29T10:45:58Z</time>
      </trkpt>
      <trkpt lat="40.19706" lon="-.921995">
        <ele>1168.114</ele>
        <time>2020-08-29T10:45:59Z</time>
      </trkpt>
      <trkpt lat="40.197003" lon="-.921961">
        <ele>1168.074</ele>
        <time>2020-08-29T10:46:00Z</time>
      </trkpt>
      <trkpt lat="40.196949" lon="-.921938">
        <ele>1167.997</ele>
        <time>2020-08-29T10:46:01Z</time>
      </trkpt>
      <trkpt lat="40.196888" lon="-.921923">
        <ele>1167.823</ele>
        <time>2020-08-29T10:46:02Z</time>
      </trkpt>
      <trkpt lat="40.196836" lon="-.9219">
        <ele>1167.725</ele>
        <time>2020-08-29T10:46:03Z</time>
      </trkpt>
      <trkpt lat="40.196783" lon="-.921865">
        <ele>1167.608</ele>
        <time>2020-08-29T10:46:04Z</time>
      </trkpt>
      <trkpt lat="40.196728" lon="-.921831">
        <ele>1167.464</ele>
        <time>2020-08-29T10:46:05Z</time>
      </trkpt>
      <trkpt lat="40.196676" lon="-.9218">
        <ele>1167.384</ele>
        <time>2020-08-29T10:46:06Z</time>
      </trkpt>
      <trkpt lat="40.196621" lon="-.921759">
        <ele>1167.296</ele>
        <time>2020-08-29T10:46:07Z</time>
      </trkpt>
      <trkpt lat="40.196569" lon="-.921722">
        <ele>1167.018</ele>
        <time>2020-08-29T10:46:08Z</time>
      </trkpt>
      <trkpt lat="40.196508" lon="-.921705">
        <ele>1166.776</ele>
        <time>2020-08-29T10:46:09Z</time>
      </trkpt>
      <trkpt lat="40.196456" lon="-.921659">
        <ele>1166.553</ele>
        <time>2020-08-29T10:46:10Z</time>
      </trkpt>
      <trkpt lat="40.1964" lon="-.921623">
        <ele>1166.311</ele>
        <time>2020-08-29T10:46:11Z</time>
      </trkpt>
      <trkpt lat="40.196338" lon="-.921594">
        <ele>1166.031</ele>
        <time>2020-08-29T10:46:12Z</time>
      </trkpt>
      <trkpt lat="40.196292" lon="-.92156">
        <ele>1166.076</ele>
        <time>2020-08-29T10:46:13Z</time>
      </trkpt>
      <trkpt lat="40.196239" lon="-.921525">
        <ele>1165.990</ele>
        <time>2020-08-29T10:46:14Z</time>
      </trkpt>
      <trkpt lat="40.196182" lon="-.921496">
        <ele>1165.819</ele>
        <time>2020-08-29T10:46:15Z</time>
      </trkpt>
      <trkpt lat="40.196128" lon="-.921463">
        <ele>1165.708</ele>
        <time>2020-08-29T10:46:16Z</time>
      </trkpt>
      <trkpt lat="40.196025" lon="-.921421">
        <ele>1165.452</ele>
        <time>2020-08-29T10:46:18Z</time>
      </trkpt>
      <trkpt lat="40.195969" lon="-.921385">
        <ele>1165.382</ele>
        <time>2020-08-29T10:46:19Z</time>
      </trkpt>
      <trkpt lat="40.195911" lon="-.921354">
        <ele>1165.264</ele>
        <time>2020-08-29T10:46:20Z</time>
      </trkpt>
      <trkpt lat="40.19586" lon="-.921319">
        <ele>1165.196</ele>
        <time>2020-08-29T10:46:21Z</time>
      </trkpt>
      <trkpt lat="40.195807" lon="-.921273">
        <ele>1165.034</ele>
        <time>2020-08-29T10:46:22Z</time>
      </trkpt>
      <trkpt lat="40.195746" lon="-.921245">
        <ele>1164.881</ele>
        <time>2020-08-29T10:46:23Z</time>
      </trkpt>
      <trkpt lat="40.19569" lon="-.921214">
        <ele>1164.679</ele>
        <time>2020-08-29T10:46:24Z</time>
      </trkpt>
      <trkpt lat="40.195644" lon="-.921173">
        <ele>1164.529</ele>
        <time>2020-08-29T10:46:25Z</time>
      </trkpt>
      <trkpt lat="40.195601" lon="-.921146">
        <ele>1164.481</ele>
        <time>2020-08-29T10:46:26Z</time>
      </trkpt>
      <trkpt lat="40.195545" lon="-.921109">
        <ele>1164.361</ele>
        <time>2020-08-29T10:46:27Z</time>
      </trkpt>
      <trkpt lat="40.195495" lon="-.921089">
        <ele>1164.117</ele>
        <time>2020-08-29T10:46:28Z</time>
      </trkpt>
      <trkpt lat="40.195432" lon="-.921067">
        <ele>1164.008</ele>
        <time>2020-08-29T10:46:29Z</time>
      </trkpt>
      <trkpt lat="40.195378" lon="-.921033">
        <ele>1163.983</ele>
        <time>2020-08-29T10:46:30Z</time>
      </trkpt>
      <trkpt lat="40.195328" lon="-.920995">
        <ele>1163.413</ele>
        <time>2020-08-29T10:46:31Z</time>
      </trkpt>
      <trkpt lat="40.19527" lon="-.920969">
        <ele>1163.445</ele>
        <time>2020-08-29T10:46:32Z</time>
      </trkpt>
      <trkpt lat="40.195212" lon="-.920947">
        <ele>1163.847</ele>
        <time>2020-08-29T10:46:33Z</time>
      </trkpt>
      <trkpt lat="40.195158" lon="-.920918">
        <ele>1164.075</ele>
        <time>2020-08-29T10:46:34Z</time>
      </trkpt>
      <trkpt lat="40.195088" lon="-.920885">
        <ele>1164.092</ele>
        <time>2020-08-29T10:46:35Z</time>
      </trkpt>
      <trkpt lat="40.195024" lon="-.920849">
        <ele>1164.320</ele>
        <time>2020-08-29T10:46:36Z</time>
      </trkpt>
      <trkpt lat="40.194965" lon="-.920819">
        <ele>1164.420</ele>
        <time>2020-08-29T10:46:37Z</time>
      </trkpt>
      <trkpt lat="40.194905" lon="-.920782">
        <ele>1164.431</ele>
        <time>2020-08-29T10:46:38Z</time>
      </trkpt>
      <trkpt lat="40.194844" lon="-.920753">
        <ele>1163.761</ele>
        <time>2020-08-29T10:46:39Z</time>
      </trkpt>
      <trkpt lat="40.194794" lon="-.920718">
        <ele>1163.207</ele>
        <time>2020-08-29T10:46:40Z</time>
      </trkpt>
      <trkpt lat="40.194729" lon="-.920682">
        <ele>1163.208</ele>
        <time>2020-08-29T10:46:41Z</time>
      </trkpt>
      <trkpt lat="40.194681" lon="-.920645">
        <ele>1163.448</ele>
        <time>2020-08-29T10:46:42Z</time>
      </trkpt>
      <trkpt lat="40.194622" lon="-.920608">
        <ele>1163.478</ele>
        <time>2020-08-29T10:46:43Z</time>
      </trkpt>
      <trkpt lat="40.194562" lon="-.920573">
        <ele>1163.440</ele>
        <time>2020-08-29T10:46:44Z</time>
      </trkpt>
      <trkpt lat="40.194493" lon="-.920543">
        <ele>1163.592</ele>
        <time>2020-08-29T10:46:45Z</time>
      </trkpt>
      <trkpt lat="40.194434" lon="-.920506">
        <ele>1163.590</ele>
        <time>2020-08-29T10:46:46Z</time>
      </trkpt>
      <trkpt lat="40.194385" lon="-.920478">
        <ele>1162.857</ele>
        <time>2020-08-29T10:46:47Z</time>
      </trkpt>
      <trkpt lat="40.194331" lon="-.920437">
        <ele>1162.655</ele>
        <time>2020-08-29T10:46:48Z</time>
      </trkpt>
      <trkpt lat="40.19427" lon="-.920413">
        <ele>1162.575</ele>
        <time>2020-08-29T10:46:49Z</time>
      </trkpt>
      <trkpt lat="40.194217" lon="-.920382">
        <ele>1162.444</ele>
        <time>2020-08-29T10:46:50Z</time>
      </trkpt>
      <trkpt lat="40.194164" lon="-.920347">
        <ele>1162.405</ele>
        <time>2020-08-29T10:46:51Z</time>
      </trkpt>
      <trkpt lat="40.194108" lon="-.920319">
        <ele>1162.315</ele>
        <time>2020-08-29T10:46:52Z</time>
      </trkpt>
      <trkpt lat="40.194051" lon="-.920296">
        <ele>1162.208</ele>
        <time>2020-08-29T10:46:53Z</time>
      </trkpt>
      <trkpt lat="40.193998" lon="-.920277">
        <ele>1162.039</ele>
        <time>2020-08-29T10:46:54Z</time>
      </trkpt>
      <trkpt lat="40.193942" lon="-.920241">
        <ele>1161.989</ele>
        <time>2020-08-29T10:46:55Z</time>
      </trkpt>
      <trkpt lat="40.19388" lon="-.920222">
        <ele>1161.821</ele>
        <time>2020-08-29T10:46:56Z</time>
      </trkpt>
      <trkpt lat="40.193823" lon="-.920191">
        <ele>1161.793</ele>
        <time>2020-08-29T10:46:57Z</time>
      </trkpt>
      <trkpt lat="40.193768" lon="-.920164">
        <ele>1161.721</ele>
        <time>2020-08-29T10:46:58Z</time>
      </trkpt>
      <trkpt lat="40.193705" lon="-.920138">
        <ele>1161.718</ele>
        <time>2020-08-29T10:46:59Z</time>
      </trkpt>
      <trkpt lat="40.193648" lon="-.920118">
        <ele>1161.746</ele>
        <time>2020-08-29T10:47:00Z</time>
      </trkpt>
      <trkpt lat="40.193595" lon="-.920084">
        <ele>1161.736</ele>
        <time>2020-08-29T10:47:01Z</time>
      </trkpt>
      <trkpt lat="40.193546" lon="-.920063">
        <ele>1161.747</ele>
        <time>2020-08-29T10:47:02Z</time>
      </trkpt>
      <trkpt lat="40.19349" lon="-.920031">
        <ele>1161.629</ele>
        <time>2020-08-29T10:47:03Z</time>
      </trkpt>
      <trkpt lat="40.193442" lon="-.920003">
        <ele>1161.421</ele>
        <time>2020-08-29T10:47:04Z</time>
      </trkpt>
      <trkpt lat="40.193389" lon="-.919979">
        <ele>1161.208</ele>
        <time>2020-08-29T10:47:05Z</time>
      </trkpt>
      <trkpt lat="40.193334" lon="-.919947">
        <ele>1160.969</ele>
        <time>2020-08-29T10:47:06Z</time>
      </trkpt>
      <trkpt lat="40.193276" lon="-.919913">
        <ele>1160.929</ele>
        <time>2020-08-29T10:47:07Z</time>
      </trkpt>
      <trkpt lat="40.193228" lon="-.919888">
        <ele>1161.331</ele>
        <time>2020-08-29T10:47:08Z</time>
      </trkpt>
      <trkpt lat="40.193168" lon="-.919869">
        <ele>1161.433</ele>
        <time>2020-08-29T10:47:09Z</time>
      </trkpt>
      <trkpt lat="40.193114" lon="-.919843">
        <ele>1161.611</ele>
        <time>2020-08-29T10:47:10Z</time>
      </trkpt>
      <trkpt lat="40.193051" lon="-.919824">
        <ele>1161.938</ele>
        <time>2020-08-29T10:47:11Z</time>
      </trkpt>
      <trkpt lat="40.192969" lon="-.919773">
        <ele>1161.366</ele>
        <time>2020-08-29T10:47:13Z</time>
      </trkpt>
      <trkpt lat="40.192922" lon="-.91974">
        <ele>1161.346</ele>
        <time>2020-08-29T10:47:14Z</time>
      </trkpt>
      <trkpt lat="40.192865" lon="-.91971">
        <ele>1161.379</ele>
        <time>2020-08-29T10:47:15Z</time>
      </trkpt>
      <trkpt lat="40.192817" lon="-.91969">
        <ele>1161.205</ele>
        <time>2020-08-29T10:47:16Z</time>
      </trkpt>
      <trkpt lat="40.192778" lon="-.91966">
        <ele>1161.225</ele>
        <time>2020-08-29T10:47:17Z</time>
      </trkpt>
      <trkpt lat="40.192736" lon="-.919616">
        <ele>1161.108</ele>
        <time>2020-08-29T10:47:18Z</time>
      </trkpt>
      <trkpt lat="40.19265" lon="-.919565">
        <ele>1160.452</ele>
        <time>2020-08-29T10:47:20Z</time>
      </trkpt>
      <trkpt lat="40.192597" lon="-.919551">
        <ele>1160.632</ele>
        <time>2020-08-29T10:47:21Z</time>
      </trkpt>
      <trkpt lat="40.192529" lon="-.91952">
        <ele>1160.954</ele>
        <time>2020-08-29T10:47:23Z</time>
      </trkpt>
      <trkpt lat="40.192486" lon="-.919485">
        <ele>1161.526</ele>
        <time>2020-08-29T10:47:24Z</time>
      </trkpt>
      <trkpt lat="40.192448" lon="-.919452">
        <ele>1161.874</ele>
        <time>2020-08-29T10:47:25Z</time>
      </trkpt>
      <trkpt lat="40.192408" lon="-.91942">
        <ele>1161.551</ele>
        <time>2020-08-29T10:47:26Z</time>
      </trkpt>
      <trkpt lat="40.192355" lon="-.919378">
        <ele>1161.169</ele>
        <time>2020-08-29T10:47:27Z</time>
      </trkpt>
      <trkpt lat="40.192312" lon="-.919355">
        <ele>1161.199</ele>
        <time>2020-08-29T10:47:28Z</time>
      </trkpt>
      <trkpt lat="40.192261" lon="-.919326">
        <ele>1161.276</ele>
        <time>2020-08-29T10:47:29Z</time>
      </trkpt>
      <trkpt lat="40.192207" lon="-.919301">
        <ele>1161.390</ele>
        <time>2020-08-29T10:47:30Z</time>
      </trkpt>
      <trkpt lat="40.192169" lon="-.919268">
        <ele>1161.419</ele>
        <time>2020-08-29T10:47:31Z</time>
      </trkpt>
      <trkpt lat="40.192119" lon="-.919235">
        <ele>1161.408</ele>
        <time>2020-08-29T10:47:32Z</time>
      </trkpt>
      <trkpt lat="40.192073" lon="-.919203">
        <ele>1161.082</ele>
        <time>2020-08-29T10:47:33Z</time>
      </trkpt>
      <trkpt lat="40.191988" lon="-.919146">
        <ele>1159.782</ele>
        <time>2020-08-29T10:47:35Z</time>
      </trkpt>
      <trkpt lat="40.191942" lon="-.919132">
        <ele>1160.424</ele>
        <time>2020-08-29T10:47:36Z</time>
      </trkpt>
      <trkpt lat="40.191859" lon="-.919088">
        <ele>1161.296</ele>
        <time>2020-08-29T10:47:38Z</time>
      </trkpt>
      <trkpt lat="40.191817" lon="-.919064">
        <ele>1162.034</ele>
        <time>2020-08-29T10:47:39Z</time>
      </trkpt>
      <trkpt lat="40.191775" lon="-.919042">
        <ele>1162.281</ele>
        <time>2020-08-29T10:47:40Z</time>
      </trkpt>
      <trkpt lat="40.191705" lon="-.918993">
        <ele>1161.539</ele>
        <time>2020-08-29T10:47:42Z</time>
      </trkpt>
      <trkpt lat="40.191634" lon="-.918935">
        <ele>1161.119</ele>
        <time>2020-08-29T10:47:44Z</time>
      </trkpt>
      <trkpt lat="40.191595" lon="-.918899">
        <ele>1161.185</ele>
        <time>2020-08-29T10:47:45Z</time>
      </trkpt>
      <trkpt lat="40.191553" lon="-.918861">
        <ele>1161.089</ele>
        <time>2020-08-29T10:47:46Z</time>
      </trkpt>
      <trkpt lat="40.191479" lon="-.918789">
        <ele>1160.817</ele>
        <time>2020-08-29T10:47:48Z</time>
      </trkpt>
      <trkpt lat="40.191411" lon="-.918709">
        <ele>1160.808</ele>
        <time>2020-08-29T10:47:50Z</time>
      </trkpt>
      <trkpt lat="40.191377" lon="-.918665">
        <ele>1160.983</ele>
        <time>2020-08-29T10:47:51Z</time>
      </trkpt>
      <trkpt lat="40.191342" lon="-.918612">
        <ele>1160.983</ele>
        <time>2020-08-29T10:47:52Z</time>
      </trkpt>
      <trkpt lat="40.191311" lon="-.918563">
        <ele>1160.425</ele>
        <time>2020-08-29T10:47:53Z</time>
      </trkpt>
      <trkpt lat="40.191267" lon="-.918516">
        <ele>1160.367</ele>
        <time>2020-08-29T10:47:54Z</time>
      </trkpt>
      <trkpt lat="40.191236" lon="-.918472">
        <ele>1160.325</ele>
        <time>2020-08-29T10:47:55Z</time>
      </trkpt>
      <trkpt lat="40.191199" lon="-.918425">
        <ele>1160.292</ele>
        <time>2020-08-29T10:47:56Z</time>
      </trkpt>
      <trkpt lat="40.191162" lon="-.918381">
        <ele>1160.140</ele>
        <time>2020-08-29T10:47:57Z</time>
      </trkpt>
      <trkpt lat="40.191129" lon="-.918331">
        <ele>1160.170</ele>
        <time>2020-08-29T10:47:58Z</time>
      </trkpt>
      <trkpt lat="40.191096" lon="-.918285">
        <ele>1160.031</ele>
        <time>2020-08-29T10:47:59Z</time>
      </trkpt>
      <trkpt lat="40.191051" lon="-.918232">
        <ele>1160.061</ele>
        <time>2020-08-29T10:48:00Z</time>
      </trkpt>
      <trkpt lat="40.191018" lon="-.918187">
        <ele>1160.007</ele>
        <time>2020-08-29T10:48:01Z</time>
      </trkpt>
      <trkpt lat="40.190944" lon="-.918086">
        <ele>1160.008</ele>
        <time>2020-08-29T10:48:03Z</time>
      </trkpt>
      <trkpt lat="40.190912" lon="-.918042">
        <ele>1159.818</ele>
        <time>2020-08-29T10:48:04Z</time>
      </trkpt>
      <trkpt lat="40.190859" lon="-.917955">
        <ele>1160.068</ele>
        <time>2020-08-29T10:48:06Z</time>
      </trkpt>
      <trkpt lat="40.190823" lon="-.917903">
        <ele>1160.190</ele>
        <time>2020-08-29T10:48:07Z</time>
      </trkpt>
      <trkpt lat="40.190789" lon="-.917863">
        <ele>1160.192</ele>
        <time>2020-08-29T10:48:08Z</time>
      </trkpt>
      <trkpt lat="40.190754" lon="-.917823">
        <ele>1160.130</ele>
        <time>2020-08-29T10:48:09Z</time>
      </trkpt>
      <trkpt lat="40.190711" lon="-.917771">
        <ele>1160.197</ele>
        <time>2020-08-29T10:48:10Z</time>
      </trkpt>
      <trkpt lat="40.190647" lon="-.91769">
        <ele>1160.085</ele>
        <time>2020-08-29T10:48:12Z</time>
      </trkpt>
      <trkpt lat="40.190613" lon="-.917652">
        <ele>1160.045</ele>
        <time>2020-08-29T10:48:13Z</time>
      </trkpt>
      <trkpt lat="40.190545" lon="-.917564">
        <ele>1160.073</ele>
        <time>2020-08-29T10:48:15Z</time>
      </trkpt>
      <trkpt lat="40.190509" lon="-.917518">
        <ele>1159.885</ele>
        <time>2020-08-29T10:48:16Z</time>
      </trkpt>
      <trkpt lat="40.19048" lon="-.917468">
        <ele>1159.813</ele>
        <time>2020-08-29T10:48:17Z</time>
      </trkpt>
      <trkpt lat="40.190439" lon="-.917428">
        <ele>1159.808</ele>
        <time>2020-08-29T10:48:18Z</time>
      </trkpt>
      <trkpt lat="40.190407" lon="-.917371">
        <ele>1159.842</ele>
        <time>2020-08-29T10:48:19Z</time>
      </trkpt>
      <trkpt lat="40.190374" lon="-.91733">
        <ele>1159.592</ele>
        <time>2020-08-29T10:48:20Z</time>
      </trkpt>
      <trkpt lat="40.190348" lon="-.917279">
        <ele>1159.174</ele>
        <time>2020-08-29T10:48:21Z</time>
      </trkpt>
      <trkpt lat="40.190315" lon="-.91722">
        <ele>1158.136</ele>
        <time>2020-08-29T10:48:22Z</time>
      </trkpt>
      <trkpt lat="40.190284" lon="-.917176">
        <ele>1158.134</ele>
        <time>2020-08-29T10:48:23Z</time>
      </trkpt>
      <trkpt lat="40.190258" lon="-.917119">
        <ele>1158.391</ele>
        <time>2020-08-29T10:48:24Z</time>
      </trkpt>
      <trkpt lat="40.19024" lon="-.917065">
        <ele>1158.699</ele>
        <time>2020-08-29T10:48:25Z</time>
      </trkpt>
      <trkpt lat="40.190206" lon="-.917006">
        <ele>1158.969</ele>
        <time>2020-08-29T10:48:26Z</time>
      </trkpt>
      <trkpt lat="40.190178" lon="-.916949">
        <ele>1158.944</ele>
        <time>2020-08-29T10:48:27Z</time>
      </trkpt>
      <trkpt lat="40.190127" lon="-.91683">
        <ele>1158.505</ele>
        <time>2020-08-29T10:48:29Z</time>
      </trkpt>
      <trkpt lat="40.190094" lon="-.916774">
        <ele>1158.515</ele>
        <time>2020-08-29T10:48:30Z</time>
      </trkpt>
      <trkpt lat="40.190067" lon="-.916714">
        <ele>1158.508</ele>
        <time>2020-08-29T10:48:31Z</time>
      </trkpt>
      <trkpt lat="40.190038" lon="-.916654">
        <ele>1158.339</ele>
        <time>2020-08-29T10:48:32Z</time>
      </trkpt>
      <trkpt lat="40.190011" lon="-.916587">
        <ele>1158.289</ele>
        <time>2020-08-29T10:48:33Z</time>
      </trkpt>
      <trkpt lat="40.189981" lon="-.916526">
        <ele>1158.061</ele>
        <time>2020-08-29T10:48:34Z</time>
      </trkpt>
      <trkpt lat="40.189947" lon="-.916462">
        <ele>1157.993</ele>
        <time>2020-08-29T10:48:35Z</time>
      </trkpt>
      <trkpt lat="40.189913" lon="-.916395">
        <ele>1158.011</ele>
        <time>2020-08-29T10:48:36Z</time>
      </trkpt>
      <trkpt lat="40.189893" lon="-.916338">
        <ele>1158.598</ele>
        <time>2020-08-29T10:48:37Z</time>
      </trkpt>
      <trkpt lat="40.189863" lon="-.916283">
        <ele>1158.596</ele>
        <time>2020-08-29T10:48:38Z</time>
      </trkpt>
      <trkpt lat="40.189828" lon="-.916216">
        <ele>1158.266</ele>
        <time>2020-08-29T10:48:39Z</time>
      </trkpt>
      <trkpt lat="40.189796" lon="-.916145">
        <ele>1158.169</ele>
        <time>2020-08-29T10:48:40Z</time>
      </trkpt>
      <trkpt lat="40.189769" lon="-.916077">
        <ele>1158.004</ele>
        <time>2020-08-29T10:48:41Z</time>
      </trkpt>
      <trkpt lat="40.189744" lon="-.916014">
        <ele>1157.824</ele>
        <time>2020-08-29T10:48:42Z</time>
      </trkpt>
      <trkpt lat="40.189721" lon="-.915952">
        <ele>1157.808</ele>
        <time>2020-08-29T10:48:43Z</time>
      </trkpt>
      <trkpt lat="40.189698" lon="-.915888">
        <ele>1157.841</ele>
        <time>2020-08-29T10:48:44Z</time>
      </trkpt>
      <trkpt lat="40.189674" lon="-.915823">
        <ele>1157.851</ele>
        <time>2020-08-29T10:48:45Z</time>
      </trkpt>
      <trkpt lat="40.189637" lon="-.915756">
        <ele>1157.663</ele>
        <time>2020-08-29T10:48:46Z</time>
      </trkpt>
      <trkpt lat="40.189615" lon="-.915688">
        <ele>1157.675</ele>
        <time>2020-08-29T10:48:47Z</time>
      </trkpt>
      <trkpt lat="40.18959" lon="-.915622">
        <ele>1157.593</ele>
        <time>2020-08-29T10:48:48Z</time>
      </trkpt>
      <trkpt lat="40.189565" lon="-.915561">
        <ele>1157.350</ele>
        <time>2020-08-29T10:48:49Z</time>
      </trkpt>
      <trkpt lat="40.189541" lon="-.915494">
        <ele>1157.348</ele>
        <time>2020-08-29T10:48:50Z</time>
      </trkpt>
      <trkpt lat="40.189517" lon="-.91543">
        <ele>1157.328</ele>
        <time>2020-08-29T10:48:51Z</time>
      </trkpt>
      <trkpt lat="40.189488" lon="-.915365">
        <ele>1157.273</ele>
        <time>2020-08-29T10:48:52Z</time>
      </trkpt>
      <trkpt lat="40.189459" lon="-.915292">
        <ele>1157.185</ele>
        <time>2020-08-29T10:48:53Z</time>
      </trkpt>
      <trkpt lat="40.18942" lon="-.915217">
        <ele>1157.113</ele>
        <time>2020-08-29T10:48:54Z</time>
      </trkpt>
      <trkpt lat="40.189393" lon="-.915142">
        <ele>1157.108</ele>
        <time>2020-08-29T10:48:55Z</time>
      </trkpt>
      <trkpt lat="40.189373" lon="-.915074">
        <ele>1157.192</ele>
        <time>2020-08-29T10:48:56Z</time>
      </trkpt>
      <trkpt lat="40.189352" lon="-.915011">
        <ele>1156.972</ele>
        <time>2020-08-29T10:48:57Z</time>
      </trkpt>
      <trkpt lat="40.189323" lon="-.914943">
        <ele>1156.784</ele>
        <time>2020-08-29T10:48:58Z</time>
      </trkpt>
      <trkpt lat="40.189296" lon="-.914871">
        <ele>1156.786</ele>
        <time>2020-08-29T10:48:59Z</time>
      </trkpt>
      <trkpt lat="40.18927" lon="-.914804">
        <ele>1156.524</ele>
        <time>2020-08-29T10:49:00Z</time>
      </trkpt>
      <trkpt lat="40.189247" lon="-.914737">
        <ele>1156.451</ele>
        <time>2020-08-29T10:49:01Z</time>
      </trkpt>
      <trkpt lat="40.189223" lon="-.914676">
        <ele>1156.279</ele>
        <time>2020-08-29T10:49:02Z</time>
      </trkpt>
      <trkpt lat="40.189198" lon="-.91462">
        <ele>1156.249</ele>
        <time>2020-08-29T10:49:03Z</time>
      </trkpt>
      <trkpt lat="40.189171" lon="-.914553">
        <ele>1156.086</ele>
        <time>2020-08-29T10:49:04Z</time>
      </trkpt>
      <trkpt lat="40.18914" lon="-.914483">
        <ele>1156.060</ele>
        <time>2020-08-29T10:49:05Z</time>
      </trkpt>
      <trkpt lat="40.189111" lon="-.914414">
        <ele>1155.826</ele>
        <time>2020-08-29T10:49:06Z</time>
      </trkpt>
      <trkpt lat="40.189075" lon="-.914345">
        <ele>1155.808</ele>
        <time>2020-08-29T10:49:07Z</time>
      </trkpt>
      <trkpt lat="40.189052" lon="-.914275">
        <ele>1155.723</ele>
        <time>2020-08-29T10:49:08Z</time>
      </trkpt>
      <trkpt lat="40.189026" lon="-.914206">
        <ele>1155.613</ele>
        <time>2020-08-29T10:49:09Z</time>
      </trkpt>
      <trkpt lat="40.189005" lon="-.914142">
        <ele>1155.675</ele>
        <time>2020-08-29T10:49:10Z</time>
      </trkpt>
      <trkpt lat="40.188984" lon="-.914076">
        <ele>1155.337</ele>
        <time>2020-08-29T10:49:11Z</time>
      </trkpt>
      <trkpt lat="40.188952" lon="-.913993">
        <ele>1155.275</ele>
        <time>2020-08-29T10:49:12Z</time>
      </trkpt>
      <trkpt lat="40.188923" lon="-.91393">
        <ele>1155.232</ele>
        <time>2020-08-29T10:49:13Z</time>
      </trkpt>
      <trkpt lat="40.188904" lon="-.913862">
        <ele>1155.150</ele>
        <time>2020-08-29T10:49:14Z</time>
      </trkpt>
      <trkpt lat="40.18888" lon="-.913803">
        <ele>1154.850</ele>
        <time>2020-08-29T10:49:15Z</time>
      </trkpt>
      <trkpt lat="40.188866" lon="-.913741">
        <ele>1154.487</ele>
        <time>2020-08-29T10:49:16Z</time>
      </trkpt>
      <trkpt lat="40.188845" lon="-.91368">
        <ele>1153.742</ele>
        <time>2020-08-29T10:49:17Z</time>
      </trkpt>
      <trkpt lat="40.188817" lon="-.91361">
        <ele>1153.726</ele>
        <time>2020-08-29T10:49:18Z</time>
      </trkpt>
      <trkpt lat="40.188785" lon="-.913541">
        <ele>1153.708</ele>
        <time>2020-08-29T10:49:19Z</time>
      </trkpt>
      <trkpt lat="40.188756" lon="-.913469">
        <ele>1153.683</ele>
        <time>2020-08-29T10:49:20Z</time>
      </trkpt>
      <trkpt lat="40.188738" lon="-.913407">
        <ele>1153.683</ele>
        <time>2020-08-29T10:49:21Z</time>
      </trkpt>
      <trkpt lat="40.188722" lon="-.91334">
        <ele>1153.815</ele>
        <time>2020-08-29T10:49:22Z</time>
      </trkpt>
      <trkpt lat="40.188698" lon="-.913274">
        <ele>1153.817</ele>
        <time>2020-08-29T10:49:23Z</time>
      </trkpt>
      <trkpt lat="40.18867" lon="-.913216">
        <ele>1153.045</ele>
        <time>2020-08-29T10:49:24Z</time>
      </trkpt>
      <trkpt lat="40.18864" lon="-.913148">
        <ele>1153.052</ele>
        <time>2020-08-29T10:49:25Z</time>
      </trkpt>
      <trkpt lat="40.188621" lon="-.913087">
        <ele>1153.040</ele>
        <time>2020-08-29T10:49:26Z</time>
      </trkpt>
      <trkpt lat="40.188595" lon="-.912968">
        <ele>1153.020</ele>
        <time>2020-08-29T10:49:28Z</time>
      </trkpt>
      <trkpt lat="40.188566" lon="-.912904">
        <ele>1152.925</ele>
        <time>2020-08-29T10:49:29Z</time>
      </trkpt>
      <trkpt lat="40.188534" lon="-.912828">
        <ele>1152.726</ele>
        <time>2020-08-29T10:49:30Z</time>
      </trkpt>
      <trkpt lat="40.188506" lon="-.91276">
        <ele>1152.708</ele>
        <time>2020-08-29T10:49:31Z</time>
      </trkpt>
      <trkpt lat="40.188484" lon="-.912692">
        <ele>1152.808</ele>
        <time>2020-08-29T10:49:32Z</time>
      </trkpt>
      <trkpt lat="40.188452" lon="-.912596">
        <ele>1152.347</ele>
        <time>2020-08-29T10:49:34Z</time>
      </trkpt>
      <trkpt lat="40.188434" lon="-.912541">
        <ele>1152.287</ele>
        <time>2020-08-29T10:49:35Z</time>
      </trkpt>
      <trkpt lat="40.188407" lon="-.912485">
        <ele>1152.019</ele>
        <time>2020-08-29T10:49:36Z</time>
      </trkpt>
      <trkpt lat="40.18838" lon="-.912415">
        <ele>1151.861</ele>
        <time>2020-08-29T10:49:37Z</time>
      </trkpt>
      <trkpt lat="40.188339" lon="-.91233">
        <ele>1151.649</ele>
        <time>2020-08-29T10:49:38Z</time>
      </trkpt>
      <trkpt lat="40.188311" lon="-.912253">
        <ele>1151.536</ele>
        <time>2020-08-29T10:49:39Z</time>
      </trkpt>
      <trkpt lat="40.188277" lon="-.912171">
        <ele>1151.294</ele>
        <time>2020-08-29T10:49:40Z</time>
      </trkpt>
      <trkpt lat="40.188249" lon="-.912091">
        <ele>1151.044</ele>
        <time>2020-08-29T10:49:41Z</time>
      </trkpt>
      <trkpt lat="40.188217" lon="-.91201">
        <ele>1151.049</ele>
        <time>2020-08-29T10:49:42Z</time>
      </trkpt>
      <trkpt lat="40.188183" lon="-.911936">
        <ele>1151.102</ele>
        <time>2020-08-29T10:49:43Z</time>
      </trkpt>
      <trkpt lat="40.18815" lon="-.911862">
        <ele>1151.122</ele>
        <time>2020-08-29T10:49:44Z</time>
      </trkpt>
      <trkpt lat="40.188112" lon="-.911783">
        <ele>1150.908</ele>
        <time>2020-08-29T10:49:45Z</time>
      </trkpt>
      <trkpt lat="40.188088" lon="-.911709">
        <ele>1150.929</ele>
        <time>2020-08-29T10:49:46Z</time>
      </trkpt>
      <trkpt lat="40.188064" lon="-.911624">
        <ele>1150.859</ele>
        <time>2020-08-29T10:49:47Z</time>
      </trkpt>
      <trkpt lat="40.188023" lon="-.911541">
        <ele>1150.871</ele>
        <time>2020-08-29T10:49:48Z</time>
      </trkpt>
      <trkpt lat="40.187996" lon="-.911467">
        <ele>1150.473</ele>
        <time>2020-08-29T10:49:49Z</time>
      </trkpt>
      <trkpt lat="40.187966" lon="-.911388">
        <ele>1150.311</ele>
        <time>2020-08-29T10:49:50Z</time>
      </trkpt>
      <trkpt lat="40.187935" lon="-.911305">
        <ele>1150.028</ele>
        <time>2020-08-29T10:49:51Z</time>
      </trkpt>
      <trkpt lat="40.187894" lon="-.91122">
        <ele>1149.976</ele>
        <time>2020-08-29T10:49:52Z</time>
      </trkpt>
      <trkpt lat="40.187873" lon="-.911139">
        <ele>1149.916</ele>
        <time>2020-08-29T10:49:53Z</time>
      </trkpt>
      <trkpt lat="40.187838" lon="-.911053">
        <ele>1149.777</ele>
        <time>2020-08-29T10:49:54Z</time>
      </trkpt>
      <trkpt lat="40.18781" lon="-.910977">
        <ele>1149.561</ele>
        <time>2020-08-29T10:49:55Z</time>
      </trkpt>
      <trkpt lat="40.187784" lon="-.910902">
        <ele>1149.427</ele>
        <time>2020-08-29T10:49:56Z</time>
      </trkpt>
      <trkpt lat="40.187757" lon="-.910835">
        <ele>1149.308</ele>
        <time>2020-08-29T10:49:57Z</time>
      </trkpt>
      <trkpt lat="40.187729" lon="-.910757">
        <ele>1149.162</ele>
        <time>2020-08-29T10:49:58Z</time>
      </trkpt>
      <trkpt lat="40.187695" lon="-.910683">
        <ele>1149.062</ele>
        <time>2020-08-29T10:49:59Z</time>
      </trkpt>
      <trkpt lat="40.187665" lon="-.910608">
        <ele>1148.864</ele>
        <time>2020-08-29T10:50:00Z</time>
      </trkpt>
      <trkpt lat="40.187632" lon="-.910536">
        <ele>1148.656</ele>
        <time>2020-08-29T10:50:01Z</time>
      </trkpt>
      <trkpt lat="40.187603" lon="-.910461">
        <ele>1148.324</ele>
        <time>2020-08-29T10:50:02Z</time>
      </trkpt>
      <trkpt lat="40.187579" lon="-.910395">
        <ele>1148.241</ele>
        <time>2020-08-29T10:50:03Z</time>
      </trkpt>
      <trkpt lat="40.187559" lon="-.910315">
        <ele>1148.119</ele>
        <time>2020-08-29T10:50:04Z</time>
      </trkpt>
      <trkpt lat="40.187527" lon="-.910244">
        <ele>1148.169</ele>
        <time>2020-08-29T10:50:05Z</time>
      </trkpt>
      <trkpt lat="40.187492" lon="-.910172">
        <ele>1148.155</ele>
        <time>2020-08-29T10:50:06Z</time>
      </trkpt>
      <trkpt lat="40.187464" lon="-.910092">
        <ele>1148.107</ele>
        <time>2020-08-29T10:50:07Z</time>
      </trkpt>
      <trkpt lat="40.187439" lon="-.910015">
        <ele>1148.017</ele>
        <time>2020-08-29T10:50:08Z</time>
      </trkpt>
      <trkpt lat="40.187414" lon="-.909937">
        <ele>1147.808</ele>
        <time>2020-08-29T10:50:09Z</time>
      </trkpt>
      <trkpt lat="40.187379" lon="-.909871">
        <ele>1147.670</ele>
        <time>2020-08-29T10:50:10Z</time>
      </trkpt>
      <trkpt lat="40.187358" lon="-.909795">
        <ele>1147.620</ele>
        <time>2020-08-29T10:50:11Z</time>
      </trkpt>
      <trkpt lat="40.187323" lon="-.909723">
        <ele>1147.442</ele>
        <time>2020-08-29T10:50:12Z</time>
      </trkpt>
      <trkpt lat="40.187296" lon="-.909657">
        <ele>1147.434</ele>
        <time>2020-08-29T10:50:13Z</time>
      </trkpt>
      <trkpt lat="40.18727" lon="-.909592">
        <ele>1147.352</ele>
        <time>2020-08-29T10:50:14Z</time>
      </trkpt>
      <trkpt lat="40.187241" lon="-.909533">
        <ele>1147.159</ele>
        <time>2020-08-29T10:50:15Z</time>
      </trkpt>
      <trkpt lat="40.187201" lon="-.909473">
        <ele>1147.067</ele>
        <time>2020-08-29T10:50:16Z</time>
      </trkpt>
      <trkpt lat="40.187172" lon="-.909416">
        <ele>1146.967</ele>
        <time>2020-08-29T10:50:17Z</time>
      </trkpt>
      <trkpt lat="40.187147" lon="-.909352">
        <ele>1146.811</ele>
        <time>2020-08-29T10:50:18Z</time>
      </trkpt>
      <trkpt lat="40.187114" lon="-.909289">
        <ele>1146.721</ele>
        <time>2020-08-29T10:50:19Z</time>
      </trkpt>
      <trkpt lat="40.187072" lon="-.909234">
        <ele>1146.603</ele>
        <time>2020-08-29T10:50:20Z</time>
      </trkpt>
      <trkpt lat="40.187041" lon="-.909178">
        <ele>1146.608</ele>
        <time>2020-08-29T10:50:21Z</time>
      </trkpt>
      <trkpt lat="40.186991" lon="-.90908">
        <ele>1146.016</ele>
        <time>2020-08-29T10:50:23Z</time>
      </trkpt>
      <trkpt lat="40.186953" lon="-.909027">
        <ele>1146.076</ele>
        <time>2020-08-29T10:50:24Z</time>
      </trkpt>
      <trkpt lat="40.186922" lon="-.908966">
        <ele>1145.898</ele>
        <time>2020-08-29T10:50:25Z</time>
      </trkpt>
      <trkpt lat="40.186888" lon="-.908904">
        <ele>1145.840</ele>
        <time>2020-08-29T10:50:26Z</time>
      </trkpt>
      <trkpt lat="40.186856" lon="-.908843">
        <ele>1146.448</ele>
        <time>2020-08-29T10:50:27Z</time>
      </trkpt>
      <trkpt lat="40.186819" lon="-.908783">
        <ele>1146.445</ele>
        <time>2020-08-29T10:50:28Z</time>
      </trkpt>
      <trkpt lat="40.186773" lon="-.908737">
        <ele>1146.173</ele>
        <time>2020-08-29T10:50:29Z</time>
      </trkpt>
      <trkpt lat="40.18674" lon="-.908693">
        <ele>1146.173</ele>
        <time>2020-08-29T10:50:30Z</time>
      </trkpt>
      <trkpt lat="40.186692" lon="-.908621">
        <ele>1146.011</ele>
        <time>2020-08-29T10:50:31Z</time>
      </trkpt>
      <trkpt lat="40.186652" lon="-.908569">
        <ele>1145.921</ele>
        <time>2020-08-29T10:50:32Z</time>
      </trkpt>
      <trkpt lat="40.186614" lon="-.908513">
        <ele>1145.703</ele>
        <time>2020-08-29T10:50:33Z</time>
      </trkpt>
      <trkpt lat="40.186576" lon="-.908455">
        <ele>1145.408</ele>
        <time>2020-08-29T10:50:34Z</time>
      </trkpt>
      <trkpt lat="40.186538" lon="-.908407">
        <ele>1145.396</ele>
        <time>2020-08-29T10:50:35Z</time>
      </trkpt>
      <trkpt lat="40.186497" lon="-.908351">
        <ele>1145.246</ele>
        <time>2020-08-29T10:50:36Z</time>
      </trkpt>
      <trkpt lat="40.186452" lon="-.9083">
        <ele>1145.188</ele>
        <time>2020-08-29T10:50:37Z</time>
      </trkpt>
      <trkpt lat="40.186406" lon="-.908241">
        <ele>1145.030</ele>
        <time>2020-08-29T10:50:38Z</time>
      </trkpt>
      <trkpt lat="40.186362" lon="-.908204">
        <ele>1145.028</ele>
        <time>2020-08-29T10:50:39Z</time>
      </trkpt>
      <trkpt lat="40.186312" lon="-.908153">
        <ele>1144.985</ele>
        <time>2020-08-29T10:50:40Z</time>
      </trkpt>
      <trkpt lat="40.186279" lon="-.908104">
        <ele>1144.893</ele>
        <time>2020-08-29T10:50:41Z</time>
      </trkpt>
      <trkpt lat="40.186244" lon="-.90805">
        <ele>1144.893</ele>
        <time>2020-08-29T10:50:42Z</time>
      </trkpt>
      <trkpt lat="40.186219" lon="-.907997">
        <ele>1144.775</ele>
        <time>2020-08-29T10:50:43Z</time>
      </trkpt>
      <trkpt lat="40.186182" lon="-.907958">
        <ele>1144.328</ele>
        <time>2020-08-29T10:50:44Z</time>
      </trkpt>
      <trkpt lat="40.186137" lon="-.907915">
        <ele>1144.120</ele>
        <time>2020-08-29T10:50:45Z</time>
      </trkpt>
      <trkpt lat="40.186088" lon="-.907863">
        <ele>1143.908</ele>
        <time>2020-08-29T10:50:46Z</time>
      </trkpt>
      <trkpt lat="40.186034" lon="-.907816">
        <ele>1143.762</ele>
        <time>2020-08-29T10:50:47Z</time>
      </trkpt>
      <trkpt lat="40.185979" lon="-.907775">
        <ele>1143.682</ele>
        <time>2020-08-29T10:50:48Z</time>
      </trkpt>
      <trkpt lat="40.185927" lon="-.907723">
        <ele>1143.584</ele>
        <time>2020-08-29T10:50:49Z</time>
      </trkpt>
      <trkpt lat="40.185882" lon="-.907685">
        <ele>1143.456</ele>
        <time>2020-08-29T10:50:50Z</time>
      </trkpt>
      <trkpt lat="40.185827" lon="-.907645">
        <ele>1143.324</ele>
        <time>2020-08-29T10:50:51Z</time>
      </trkpt>
      <trkpt lat="40.185775" lon="-.9076">
        <ele>1143.331</ele>
        <time>2020-08-29T10:50:52Z</time>
      </trkpt>
      <trkpt lat="40.185727" lon="-.907551">
        <ele>1143.319</ele>
        <time>2020-08-29T10:50:53Z</time>
      </trkpt>
      <trkpt lat="40.185667" lon="-.907515">
        <ele>1143.229</ele>
        <time>2020-08-29T10:50:54Z</time>
      </trkpt>
      <trkpt lat="40.185616" lon="-.907493">
        <ele>1143.077</ele>
        <time>2020-08-29T10:50:55Z</time>
      </trkpt>
      <trkpt lat="40.185553" lon="-.907458">
        <ele>1142.861</ele>
        <time>2020-08-29T10:50:56Z</time>
      </trkpt>
      <trkpt lat="40.185485" lon="-.907413">
        <ele>1142.627</ele>
        <time>2020-08-29T10:50:57Z</time>
      </trkpt>
      <trkpt lat="40.185425" lon="-.907392">
        <ele>1142.408</ele>
        <time>2020-08-29T10:50:58Z</time>
      </trkpt>
      <trkpt lat="40.185373" lon="-.907365">
        <ele>1142.492</ele>
        <time>2020-08-29T10:50:59Z</time>
      </trkpt>
      <trkpt lat="40.185321" lon="-.907327">
        <ele>1142.452</ele>
        <time>2020-08-29T10:51:00Z</time>
      </trkpt>
      <trkpt lat="40.185279" lon="-.907295">
        <ele>1142.434</ele>
        <time>2020-08-29T10:51:01Z</time>
      </trkpt>
      <trkpt lat="40.185226" lon="-.907249">
        <ele>1142.376</ele>
        <time>2020-08-29T10:51:02Z</time>
      </trkpt>
      <trkpt lat="40.185169" lon="-.907216">
        <ele>1142.214</ele>
        <time>2020-08-29T10:51:03Z</time>
      </trkpt>
      <trkpt lat="40.18512" lon="-.907193">
        <ele>1142.131</ele>
        <time>2020-08-29T10:51:04Z</time>
      </trkpt>
      <trkpt lat="40.185066" lon="-.907183">
        <ele>1141.989</ele>
        <time>2020-08-29T10:51:05Z</time>
      </trkpt>
      <trkpt lat="40.185013" lon="-.907143">
        <ele>1141.849</ele>
        <time>2020-08-29T10:51:06Z</time>
      </trkpt>
      <trkpt lat="40.184948" lon="-.907119">
        <ele>1141.799</ele>
        <time>2020-08-29T10:51:07Z</time>
      </trkpt>
      <trkpt lat="40.184886" lon="-.907094">
        <ele>1141.607</ele>
        <time>2020-08-29T10:51:08Z</time>
      </trkpt>
      <trkpt lat="40.184826" lon="-.907074">
        <ele>1141.527</ele>
        <time>2020-08-29T10:51:09Z</time>
      </trkpt>
      <trkpt lat="40.184771" lon="-.907052">
        <ele>1141.408</ele>
        <time>2020-08-29T10:51:10Z</time>
      </trkpt>
      <trkpt lat="40.184711" lon="-.907031">
        <ele>1141.394</ele>
        <time>2020-08-29T10:51:11Z</time>
      </trkpt>
      <trkpt lat="40.184662" lon="-.907009">
        <ele>1141.194</ele>
        <time>2020-08-29T10:51:12Z</time>
      </trkpt>
      <trkpt lat="40.184611" lon="-.906984">
        <ele>1141.056</ele>
        <time>2020-08-29T10:51:13Z</time>
      </trkpt>
      <trkpt lat="40.184554" lon="-.906961">
        <ele>1140.998</ele>
        <time>2020-08-29T10:51:14Z</time>
      </trkpt>
      <trkpt lat="40.1845" lon="-.906945">
        <ele>1140.936</ele>
        <time>2020-08-29T10:51:15Z</time>
      </trkpt>
      <trkpt lat="40.184446" lon="-.906923">
        <ele>1140.953</ele>
        <time>2020-08-29T10:51:16Z</time>
      </trkpt>
      <trkpt lat="40.184394" lon="-.906892">
        <ele>1140.991</ele>
        <time>2020-08-29T10:51:17Z</time>
      </trkpt>
      <trkpt lat="40.184319" lon="-.906849">
        <ele>1140.811</ele>
        <time>2020-08-29T10:51:19Z</time>
      </trkpt>
      <trkpt lat="40.184265" lon="-.906822">
        <ele>1140.674</ele>
        <time>2020-08-29T10:51:20Z</time>
      </trkpt>
      <trkpt lat="40.184224" lon="-.906792">
        <ele>1140.656</ele>
        <time>2020-08-29T10:51:21Z</time>
      </trkpt>
      <trkpt lat="40.184176" lon="-.906773">
        <ele>1140.621</ele>
        <time>2020-08-29T10:51:22Z</time>
      </trkpt>
      <trkpt lat="40.184116" lon="-.906752">
        <ele>1140.608</ele>
        <time>2020-08-29T10:51:23Z</time>
      </trkpt>
      <trkpt lat="40.184061" lon="-.906732">
        <ele>1140.552</ele>
        <time>2020-08-29T10:51:24Z</time>
      </trkpt>
      <trkpt lat="40.184008" lon="-.906712">
        <ele>1140.352</ele>
        <time>2020-08-29T10:51:25Z</time>
      </trkpt>
      <trkpt lat="40.183953" lon="-.906691">
        <ele>1140.364</ele>
        <time>2020-08-29T10:51:26Z</time>
      </trkpt>
      <trkpt lat="40.183904" lon="-.906671">
        <ele>1140.386</ele>
        <time>2020-08-29T10:51:27Z</time>
      </trkpt>
      <trkpt lat="40.183858" lon="-.906646">
        <ele>1140.374</ele>
        <time>2020-08-29T10:51:28Z</time>
      </trkpt>
      <trkpt lat="40.183809" lon="-.906623">
        <ele>1140.361</ele>
        <time>2020-08-29T10:51:29Z</time>
      </trkpt>
      <trkpt lat="40.183758" lon="-.906599">
        <ele>1140.499</ele>
        <time>2020-08-29T10:51:30Z</time>
      </trkpt>
      <trkpt lat="40.183675" lon="-.906559">
        <ele>1140.179</ele>
        <time>2020-08-29T10:51:32Z</time>
      </trkpt>
      <trkpt lat="40.183624" lon="-.906542">
        <ele>1139.969</ele>
        <time>2020-08-29T10:51:33Z</time>
      </trkpt>
      <trkpt lat="40.183578" lon="-.906526">
        <ele>1139.804</ele>
        <time>2020-08-29T10:51:34Z</time>
      </trkpt>
      <trkpt lat="40.183495" lon="-.906498">
        <ele>1139.624</ele>
        <time>2020-08-29T10:51:36Z</time>
      </trkpt>
      <trkpt lat="40.183451" lon="-.906473">
        <ele>1139.608</ele>
        <time>2020-08-29T10:51:37Z</time>
      </trkpt>
      <trkpt lat="40.183375" lon="-.906423">
        <ele>1139.231</ele>
        <time>2020-08-29T10:51:39Z</time>
      </trkpt>
      <trkpt lat="40.183326" lon="-.906399">
        <ele>1138.931</ele>
        <time>2020-08-29T10:51:40Z</time>
      </trkpt>
      <trkpt lat="40.183285" lon="-.90637">
        <ele>1138.963</ele>
        <time>2020-08-29T10:51:41Z</time>
      </trkpt>
      <trkpt lat="40.183238" lon="-.906356">
        <ele>1139.185</ele>
        <time>2020-08-29T10:51:42Z</time>
      </trkpt>
      <trkpt lat="40.183182" lon="-.906328">
        <ele>1139.253</ele>
        <time>2020-08-29T10:51:43Z</time>
      </trkpt>
      <trkpt lat="40.183136" lon="-.906302">
        <ele>1139.270</ele>
        <time>2020-08-29T10:51:44Z</time>
      </trkpt>
      <trkpt lat="40.183097" lon="-.906271">
        <ele>1139.128</ele>
        <time>2020-08-29T10:51:45Z</time>
      </trkpt>
      <trkpt lat="40.183054" lon="-.90625">
        <ele>1139.028</ele>
        <time>2020-08-29T10:51:46Z</time>
      </trkpt>
      <trkpt lat="40.183008" lon="-.906209">
        <ele>1138.976</ele>
        <time>2020-08-29T10:51:47Z</time>
      </trkpt>
      <trkpt lat="40.18296" lon="-.906183">
        <ele>1138.890</ele>
        <time>2020-08-29T10:51:48Z</time>
      </trkpt>
      <trkpt lat="40.182912" lon="-.906153">
        <ele>1138.719</ele>
        <time>2020-08-29T10:51:49Z</time>
      </trkpt>
      <trkpt lat="40.18286" lon="-.906116">
        <ele>1138.608</ele>
        <time>2020-08-29T10:51:50Z</time>
      </trkpt>
      <trkpt lat="40.182814" lon="-.906077">
        <ele>1138.422</ele>
        <time>2020-08-29T10:51:51Z</time>
      </trkpt>
      <trkpt lat="40.182768" lon="-.906052">
        <ele>1138.292</ele>
        <time>2020-08-29T10:51:52Z</time>
      </trkpt>
      <trkpt lat="40.182681" lon="-.905995">
        <ele>1138.244</ele>
        <time>2020-08-29T10:51:54Z</time>
      </trkpt>
      <trkpt lat="40.182633" lon="-.905957">
        <ele>1138.556</ele>
        <time>2020-08-29T10:51:55Z</time>
      </trkpt>
      <trkpt lat="40.182563" lon="-.9059">
        <ele>1138.954</ele>
        <time>2020-08-29T10:51:57Z</time>
      </trkpt>
      <trkpt lat="40.18252" lon="-.905876">
        <ele>1138.751</ele>
        <time>2020-08-29T10:51:58Z</time>
      </trkpt>
      <trkpt lat="40.182484" lon="-.90584">
        <ele>1138.569</ele>
        <time>2020-08-29T10:51:59Z</time>
      </trkpt>
      <trkpt lat="40.182435" lon="-.905777">
        <ele>1138.439</ele>
        <time>2020-08-29T10:52:00Z</time>
      </trkpt>
      <trkpt lat="40.182391" lon="-.905738">
        <ele>1138.374</ele>
        <time>2020-08-29T10:52:01Z</time>
      </trkpt>
      <trkpt lat="40.182341" lon="-.905702">
        <ele>1138.256</ele>
        <time>2020-08-29T10:52:02Z</time>
      </trkpt>
      <trkpt lat="40.182285" lon="-.905623">
        <ele>1138.021</ele>
        <time>2020-08-29T10:52:04Z</time>
      </trkpt>
      <trkpt lat="40.182248" lon="-.905581">
        <ele>1137.908</ele>
        <time>2020-08-29T10:52:05Z</time>
      </trkpt>
      <trkpt lat="40.182212" lon="-.905545">
        <ele>1137.872</ele>
        <time>2020-08-29T10:52:06Z</time>
      </trkpt>
      <trkpt lat="40.182165" lon="-.905508">
        <ele>1137.742</ele>
        <time>2020-08-29T10:52:07Z</time>
      </trkpt>
      <trkpt lat="40.18212" lon="-.905471">
        <ele>1137.784</ele>
        <time>2020-08-29T10:52:08Z</time>
      </trkpt>
      <trkpt lat="40.182078" lon="-.905427">
        <ele>1137.996</ele>
        <time>2020-08-29T10:52:09Z</time>
      </trkpt>
      <trkpt lat="40.182005" lon="-.905358">
        <ele>1138.094</ele>
        <time>2020-08-29T10:52:11Z</time>
      </trkpt>
      <trkpt lat="40.181961" lon="-.905311">
        <ele>1138.011</ele>
        <time>2020-08-29T10:52:12Z</time>
      </trkpt>
      <trkpt lat="40.181893" lon="-.905227">
        <ele>1137.519</ele>
        <time>2020-08-29T10:52:14Z</time>
      </trkpt>
      <trkpt lat="40.181856" lon="-.905186">
        <ele>1137.539</ele>
        <time>2020-08-29T10:52:15Z</time>
      </trkpt>
      <trkpt lat="40.181777" lon="-.905102">
        <ele>1137.644</ele>
        <time>2020-08-29T10:52:17Z</time>
      </trkpt>
      <trkpt lat="40.181731" lon="-.905048">
        <ele>1137.605</ele>
        <time>2020-08-29T10:52:18Z</time>
      </trkpt>
      <trkpt lat="40.181691" lon="-.905004">
        <ele>1137.615</ele>
        <time>2020-08-29T10:52:19Z</time>
      </trkpt>
      <trkpt lat="40.181651" lon="-.904959">
        <ele>1137.608</ele>
        <time>2020-08-29T10:52:20Z</time>
      </trkpt>
      <trkpt lat="40.181588" lon="-.904907">
        <ele>1137.539</ele>
        <time>2020-08-29T10:52:22Z</time>
      </trkpt>
      <trkpt lat="40.181547" lon="-.904858">
        <ele>1137.659</ele>
        <time>2020-08-29T10:52:23Z</time>
      </trkpt>
      <trkpt lat="40.181505" lon="-.904807">
        <ele>1137.971</ele>
        <time>2020-08-29T10:52:24Z</time>
      </trkpt>
      <trkpt lat="40.181443" lon="-.904715">
        <ele>1138.013</ele>
        <time>2020-08-29T10:52:26Z</time>
      </trkpt>
      <trkpt lat="40.181405" lon="-.904674">
        <ele>1137.941</ele>
        <time>2020-08-29T10:52:27Z</time>
      </trkpt>
      <trkpt lat="40.181368" lon="-.904617">
        <ele>1137.668</ele>
        <time>2020-08-29T10:52:28Z</time>
      </trkpt>
      <trkpt lat="40.181327" lon="-.904559">
        <ele>1137.586</ele>
        <time>2020-08-29T10:52:29Z</time>
      </trkpt>
      <trkpt lat="40.181292" lon="-.904502">
        <ele>1137.566</ele>
        <time>2020-08-29T10:52:30Z</time>
      </trkpt>
      <trkpt lat="40.181257" lon="-.904454">
        <ele>1137.591</ele>
        <time>2020-08-29T10:52:31Z</time>
      </trkpt>
      <trkpt lat="40.181221" lon="-.904399">
        <ele>1137.281</ele>
        <time>2020-08-29T10:52:32Z</time>
      </trkpt>
      <trkpt lat="40.181194" lon="-.904349">
        <ele>1137.219</ele>
        <time>2020-08-29T10:52:33Z</time>
      </trkpt>
      <trkpt lat="40.18113" lon="-.904241">
        <ele>1137.908</ele>
        <time>2020-08-29T10:52:35Z</time>
      </trkpt>
      <trkpt lat="40.181092" lon="-.904173">
        <ele>1138.034</ele>
        <time>2020-08-29T10:52:36Z</time>
      </trkpt>
      <trkpt lat="40.181062" lon="-.904121">
        <ele>1138.034</ele>
        <time>2020-08-29T10:52:37Z</time>
      </trkpt>
      <trkpt lat="40.181011" lon="-.904031">
        <ele>1137.486</ele>
        <time>2020-08-29T10:52:39Z</time>
      </trkpt>
      <trkpt lat="40.18098" lon="-.903969">
        <ele>1137.398</ele>
        <time>2020-08-29T10:52:40Z</time>
      </trkpt>
      <trkpt lat="40.18096" lon="-.903883">
        <ele>1137.246</ele>
        <time>2020-08-29T10:52:42Z</time>
      </trkpt>
      <trkpt lat="40.180921" lon="-.903787">
        <ele>1137.053</ele>
        <time>2020-08-29T10:52:44Z</time>
      </trkpt>
      <trkpt lat="40.180907" lon="-.903723">
        <ele>1136.971</ele>
        <time>2020-08-29T10:52:45Z</time>
      </trkpt>
      <trkpt lat="40.180885" lon="-.903667">
        <ele>1136.681</ele>
        <time>2020-08-29T10:52:46Z</time>
      </trkpt>
      <trkpt lat="40.18087" lon="-.903609">
        <ele>1136.686</ele>
        <time>2020-08-29T10:52:47Z</time>
      </trkpt>
      <trkpt lat="40.180843" lon="-.903521">
        <ele>1136.860</ele>
        <time>2020-08-29T10:52:49Z</time>
      </trkpt>
      <trkpt lat="40.180828" lon="-.903458">
        <ele>1137.026</ele>
        <time>2020-08-29T10:52:50Z</time>
      </trkpt>
      <trkpt lat="40.180803" lon="-.903389">
        <ele>1137.208</ele>
        <time>2020-08-29T10:52:51Z</time>
      </trkpt>
      <trkpt lat="40.180788" lon="-.90333">
        <ele>1137.113</ele>
        <time>2020-08-29T10:52:52Z</time>
      </trkpt>
      <trkpt lat="40.180762" lon="-.903275">
        <ele>1137.133</ele>
        <time>2020-08-29T10:52:53Z</time>
      </trkpt>
      <trkpt lat="40.180751" lon="-.903216">
        <ele>1137.315</ele>
        <time>2020-08-29T10:52:54Z</time>
      </trkpt>
      <trkpt lat="40.180708" lon="-.903116">
        <ele>1136.997</ele>
        <time>2020-08-29T10:53:12Z</time>
      </trkpt>
      <trkpt lat="40.180759" lon="-.903231">
        <ele>1137.095</ele>
        <time>2020-08-29T10:53:37Z</time>
      </trkpt>
      <trkpt lat="40.180728" lon="-.903181">
        <ele>1136.222</ele>
        <time>2020-08-29T10:54:18Z</time>
      </trkpt>
      <trkpt lat="40.18071" lon="-.903121">
        <ele>1136.340</ele>
        <time>2020-08-29T10:54:21Z</time>
      </trkpt>
      <trkpt lat="40.180686" lon="-.903058">
        <ele>1136.490</ele>
        <time>2020-08-29T10:54:24Z</time>
      </trkpt>
      <trkpt lat="40.18068" lon="-.902997">
        <ele>1136.872</ele>
        <time>2020-08-29T10:54:26Z</time>
      </trkpt>
      <trkpt lat="40.180659" lon="-.90293">
        <ele>1135.413</ele>
        <time>2020-08-29T10:54:29Z</time>
      </trkpt>
      <trkpt lat="40.18064" lon="-.902875">
        <ele>1137.014</ele>
        <time>2020-08-29T10:54:31Z</time>
      </trkpt>
      <trkpt lat="40.180617" lon="-.902819">
        <ele>1137.908</ele>
        <time>2020-08-29T10:54:33Z</time>
      </trkpt>
      <trkpt lat="40.180596" lon="-.902762">
        <ele>1137.592</ele>
        <time>2020-08-29T10:54:35Z</time>
      </trkpt>
      <trkpt lat="40.180572" lon="-.90269">
        <ele>1137.062</ele>
        <time>2020-08-29T10:54:37Z</time>
      </trkpt>
      <trkpt lat="40.180549" lon="-.90261">
        <ele>1137.324</ele>
        <time>2020-08-29T10:54:40Z</time>
      </trkpt>
      <trkpt lat="40.180524" lon="-.902541">
        <ele>1137.096</ele>
        <time>2020-08-29T10:54:43Z</time>
      </trkpt>
      <trkpt lat="40.180498" lon="-.902466">
        <ele>1136.714</ele>
        <time>2020-08-29T10:54:46Z</time>
      </trkpt>
      <trkpt lat="40.180486" lon="-.902406">
        <ele>1136.721</ele>
        <time>2020-08-29T10:54:49Z</time>
      </trkpt>
      <trkpt lat="40.180468" lon="-.902349">
        <ele>1136.769</ele>
        <time>2020-08-29T10:54:51Z</time>
      </trkpt>
      <trkpt lat="40.180443" lon="-.902283">
        <ele>1136.539</ele>
        <time>2020-08-29T10:54:53Z</time>
      </trkpt>
      <trkpt lat="40.18041" lon="-.902211">
        <ele>1136.554</ele>
        <time>2020-08-29T10:54:55Z</time>
      </trkpt>
      <trkpt lat="40.180388" lon="-.902149">
        <ele>1136.356</ele>
        <time>2020-08-29T10:54:57Z</time>
      </trkpt>
      <trkpt lat="40.18037" lon="-.902063">
        <ele>1136.211</ele>
        <time>2020-08-29T10:54:59Z</time>
      </trkpt>
      <trkpt lat="40.180354" lon="-.901994">
        <ele>1136.308</ele>
        <time>2020-08-29T10:55:01Z</time>
      </trkpt>
      <trkpt lat="40.180324" lon="-.901901">
        <ele>1136.170</ele>
        <time>2020-08-29T10:55:03Z</time>
      </trkpt>
      <trkpt lat="40.180304" lon="-.90181">
        <ele>1136.430</ele>
        <time>2020-08-29T10:55:05Z</time>
      </trkpt>
      <trkpt lat="40.180275" lon="-.901764">
        <ele>1136.532</ele>
        <time>2020-08-29T10:55:06Z</time>
      </trkpt>
      <trkpt lat="40.180249" lon="-.901679">
        <ele>1136.544</ele>
        <time>2020-08-29T10:55:08Z</time>
      </trkpt>
      <trkpt lat="40.180222" lon="-.901594">
        <ele>1136.522</ele>
        <time>2020-08-29T10:55:10Z</time>
      </trkpt>
      <trkpt lat="40.180191" lon="-.90151">
        <ele>1136.719</ele>
        <time>2020-08-29T10:55:12Z</time>
      </trkpt>
      <trkpt lat="40.180172" lon="-.901431">
        <ele>1136.227</ele>
        <time>2020-08-29T10:55:14Z</time>
      </trkpt>
      <trkpt lat="40.180163" lon="-.901368">
        <ele>1137.227</ele>
        <time>2020-08-29T10:55:17Z</time>
      </trkpt>
      <trkpt lat="40.180135" lon="-.901304">
        <ele>1136.144</ele>
        <time>2020-08-29T10:55:19Z</time>
      </trkpt>
      <trkpt lat="40.180102" lon="-.901232">
        <ele>1136.805</ele>
        <time>2020-08-29T10:55:22Z</time>
      </trkpt>
      <trkpt lat="40.180096" lon="-.901156">
        <ele>1137.315</ele>
        <time>2020-08-29T10:55:24Z</time>
      </trkpt>
      <trkpt lat="40.180074" lon="-.901095">
        <ele>1136.208</ele>
        <time>2020-08-29T10:55:26Z</time>
      </trkpt>
      <trkpt lat="40.180047" lon="-.901029">
        <ele>1136.169</ele>
        <time>2020-08-29T10:55:28Z</time>
      </trkpt>
      <trkpt lat="40.180029" lon="-.900965">
        <ele>1136.649</ele>
        <time>2020-08-29T10:55:29Z</time>
      </trkpt>
      <trkpt lat="40.180014" lon="-.900891">
        <ele>1137.021</ele>
        <time>2020-08-29T10:55:31Z</time>
      </trkpt>
      <trkpt lat="40.179985" lon="-.900824">
        <ele>1136.153</ele>
        <time>2020-08-29T10:55:33Z</time>
      </trkpt>
      <trkpt lat="40.179946" lon="-.900757">
        <ele>1136.121</ele>
        <time>2020-08-29T10:55:35Z</time>
      </trkpt>
      <trkpt lat="40.179938" lon="-.900652">
        <ele>1136.168</ele>
        <time>2020-08-29T10:55:37Z</time>
      </trkpt>
      <trkpt lat="40.179897" lon="-.900572">
        <ele>1134.926</ele>
        <time>2020-08-29T10:55:39Z</time>
      </trkpt>
      <trkpt lat="40.179847" lon="-.900463">
        <ele>1135.096</ele>
        <time>2020-08-29T10:55:41Z</time>
      </trkpt>
      <trkpt lat="40.179819" lon="-.900373">
        <ele>1135.176</ele>
        <time>2020-08-29T10:55:42Z</time>
      </trkpt>
      <trkpt lat="40.179791" lon="-.900274">
        <ele>1135.190</ele>
        <time>2020-08-29T10:55:43Z</time>
      </trkpt>
      <trkpt lat="40.179765" lon="-.900185">
        <ele>1135.119</ele>
        <time>2020-08-29T10:55:44Z</time>
      </trkpt>
      <trkpt lat="40.179722" lon="-.900055">
        <ele>1135.208</ele>
        <time>2020-08-29T10:55:45Z</time>
      </trkpt>
      <trkpt lat="40.17969" lon="-.899967">
        <ele>1135.232</ele>
        <time>2020-08-29T10:55:46Z</time>
      </trkpt>
      <trkpt lat="40.17966" lon="-.899902">
        <ele>1135.012</ele>
        <time>2020-08-29T10:55:47Z</time>
      </trkpt>
      <trkpt lat="40.179635" lon="-.899835">
        <ele>1134.934</ele>
        <time>2020-08-29T10:55:48Z</time>
      </trkpt>
      <trkpt lat="40.1796" lon="-.899747">
        <ele>1134.966</ele>
        <time>2020-08-29T10:55:49Z</time>
      </trkpt>
      <trkpt lat="40.179565" lon="-.89966">
        <ele>1134.814</ele>
        <time>2020-08-29T10:55:50Z</time>
      </trkpt>
      <trkpt lat="40.179542" lon="-.899593">
        <ele>1134.621</ele>
        <time>2020-08-29T10:55:51Z</time>
      </trkpt>
      <trkpt lat="40.179505" lon="-.899469">
        <ele>1134.339</ele>
        <time>2020-08-29T10:55:53Z</time>
      </trkpt>
      <trkpt lat="40.179469" lon="-.899384">
        <ele>1134.359</ele>
        <time>2020-08-29T10:55:54Z</time>
      </trkpt>
      <trkpt lat="40.179435" lon="-.89927">
        <ele>1134.387</ele>
        <time>2020-08-29T10:55:56Z</time>
      </trkpt>
      <trkpt lat="40.179389" lon="-.89915">
        <ele>1134.142</ele>
        <time>2020-08-29T10:55:57Z</time>
      </trkpt>
      <trkpt lat="40.179338" lon="-.89905">
        <ele>1134.126</ele>
        <time>2020-08-29T10:55:58Z</time>
      </trkpt>
      <trkpt lat="40.179295" lon="-.898942">
        <ele>1133.608</ele>
        <time>2020-08-29T10:55:59Z</time>
      </trkpt>
      <trkpt lat="40.179259" lon="-.898875">
        <ele>1133.543</ele>
        <time>2020-08-29T10:56:00Z</time>
      </trkpt>
      <trkpt lat="40.179235" lon="-.898818">
        <ele>1133.533</ele>
        <time>2020-08-29T10:56:01Z</time>
      </trkpt>
      <trkpt lat="40.179197" lon="-.898759">
        <ele>1133.575</ele>
        <time>2020-08-29T10:56:02Z</time>
      </trkpt>
      <trkpt lat="40.179172" lon="-.898695">
        <ele>1133.587</ele>
        <time>2020-08-29T10:56:03Z</time>
      </trkpt>
      <trkpt lat="40.179126" lon="-.898613">
        <ele>1133.265</ele>
        <time>2020-08-29T10:56:04Z</time>
      </trkpt>
      <trkpt lat="40.179093" lon="-.898551">
        <ele>1133.262</ele>
        <time>2020-08-29T10:56:05Z</time>
      </trkpt>
      <trkpt lat="40.179062" lon="-.898488">
        <ele>1133.150</ele>
        <time>2020-08-29T10:56:06Z</time>
      </trkpt>
      <trkpt lat="40.17902" lon="-.898411">
        <ele>1132.910</ele>
        <time>2020-08-29T10:56:07Z</time>
      </trkpt>
      <trkpt lat="40.178979" lon="-.898344">
        <ele>1132.971</ele>
        <time>2020-08-29T10:56:08Z</time>
      </trkpt>
      <trkpt lat="40.178937" lon="-.898247">
        <ele>1132.941</ele>
        <time>2020-08-29T10:56:09Z</time>
      </trkpt>
      <trkpt lat="40.178898" lon="-.898169">
        <ele>1132.615</ele>
        <time>2020-08-29T10:56:10Z</time>
      </trkpt>
      <trkpt lat="40.17885" lon="-.898103">
        <ele>1132.508</ele>
        <time>2020-08-29T10:56:11Z</time>
      </trkpt>
      <trkpt lat="40.178814" lon="-.898024">
        <ele>1132.272</ele>
        <time>2020-08-29T10:56:12Z</time>
      </trkpt>
      <trkpt lat="40.178769" lon="-.89795">
        <ele>1131.912</ele>
        <time>2020-08-29T10:56:13Z</time>
      </trkpt>
      <trkpt lat="40.178734" lon="-.89788">
        <ele>1131.934</ele>
        <time>2020-08-29T10:56:14Z</time>
      </trkpt>
      <trkpt lat="40.178696" lon="-.897819">
        <ele>1131.976</ele>
        <time>2020-08-29T10:56:15Z</time>
      </trkpt>
      <trkpt lat="40.178661" lon="-.897768">
        <ele>1131.234</ele>
        <time>2020-08-29T10:56:16Z</time>
      </trkpt>
      <trkpt lat="40.178629" lon="-.897718">
        <ele>1131.221</ele>
        <time>2020-08-29T10:56:17Z</time>
      </trkpt>
      <trkpt lat="40.178592" lon="-.897665">
        <ele>1131.639</ele>
        <time>2020-08-29T10:56:18Z</time>
      </trkpt>
      <trkpt lat="40.178546" lon="-.897597">
        <ele>1131.699</ele>
        <time>2020-08-29T10:56:19Z</time>
      </trkpt>
      <trkpt lat="40.178503" lon="-.897535">
        <ele>1131.624</ele>
        <time>2020-08-29T10:56:20Z</time>
      </trkpt>
      <trkpt lat="40.178465" lon="-.897474">
        <ele>1131.804</ele>
        <time>2020-08-29T10:56:21Z</time>
      </trkpt>
      <trkpt lat="40.178416" lon="-.89742">
        <ele>1131.814</ele>
        <time>2020-08-29T10:56:22Z</time>
      </trkpt>
      <trkpt lat="40.178375" lon="-.897369">
        <ele>1131.308</ele>
        <time>2020-08-29T10:56:23Z</time>
      </trkpt>
      <trkpt lat="40.178335" lon="-.897303">
        <ele>1131.377</ele>
        <time>2020-08-29T10:56:24Z</time>
      </trkpt>
      <trkpt lat="40.178295" lon="-.897232">
        <ele>1131.377</ele>
        <time>2020-08-29T10:56:25Z</time>
      </trkpt>
      <trkpt lat="40.178252" lon="-.897172">
        <ele>1131.149</ele>
        <time>2020-08-29T10:56:26Z</time>
      </trkpt>
      <trkpt lat="40.17821" lon="-.897106">
        <ele>1130.931</ele>
        <time>2020-08-29T10:56:27Z</time>
      </trkpt>
      <trkpt lat="40.178166" lon="-.897053">
        <ele>1130.949</ele>
        <time>2020-08-29T10:56:28Z</time>
      </trkpt>
      <trkpt lat="40.178115" lon="-.896982">
        <ele>1130.856</ele>
        <time>2020-08-29T10:56:29Z</time>
      </trkpt>
      <trkpt lat="40.178061" lon="-.896924">
        <ele>1129.994</ele>
        <time>2020-08-29T10:56:30Z</time>
      </trkpt>
      <trkpt lat="40.178018" lon="-.896868">
        <ele>1129.944</ele>
        <time>2020-08-29T10:56:31Z</time>
      </trkpt>
      <trkpt lat="40.177967" lon="-.896805">
        <ele>1129.922</ele>
        <time>2020-08-29T10:56:32Z</time>
      </trkpt>
      <trkpt lat="40.177917" lon="-.896747">
        <ele>1129.962</ele>
        <time>2020-08-29T10:56:33Z</time>
      </trkpt>
      <trkpt lat="40.177891" lon="-.896697">
        <ele>1129.908</ele>
        <time>2020-08-29T10:56:34Z</time>
      </trkpt>
      <trkpt lat="40.17785" lon="-.89664">
        <ele>1130.308</ele>
        <time>2020-08-29T10:56:35Z</time>
      </trkpt>
      <trkpt lat="40.177798" lon="-.896581">
        <ele>1130.347</ele>
        <time>2020-08-29T10:56:36Z</time>
      </trkpt>
      <trkpt lat="40.177746" lon="-.896531">
        <ele>1129.797</ele>
        <time>2020-08-29T10:56:37Z</time>
      </trkpt>
      <trkpt lat="40.17771" lon="-.896476">
        <ele>1129.779</ele>
        <time>2020-08-29T10:56:38Z</time>
      </trkpt>
      <trkpt lat="40.177671" lon="-.896425">
        <ele>1129.631</ele>
        <time>2020-08-29T10:56:39Z</time>
      </trkpt>
      <trkpt lat="40.177628" lon="-.896377">
        <ele>1129.619</ele>
        <time>2020-08-29T10:56:40Z</time>
      </trkpt>
      <trkpt lat="40.177587" lon="-.896315">
        <ele>1129.066</ele>
        <time>2020-08-29T10:56:41Z</time>
      </trkpt>
      <trkpt lat="40.177536" lon="-.896246">
        <ele>1128.954</ele>
        <time>2020-08-29T10:56:42Z</time>
      </trkpt>
      <trkpt lat="40.177484" lon="-.896186">
        <ele>1128.954</ele>
        <time>2020-08-29T10:56:43Z</time>
      </trkpt>
      <trkpt lat="40.177436" lon="-.896121">
        <ele>1128.956</ele>
        <time>2020-08-29T10:56:44Z</time>
      </trkpt>
      <trkpt lat="40.17739" lon="-.896051">
        <ele>1128.859</ele>
        <time>2020-08-29T10:56:45Z</time>
      </trkpt>
      <trkpt lat="40.17734" lon="-.895995">
        <ele>1128.614</ele>
        <time>2020-08-29T10:56:46Z</time>
      </trkpt>
      <trkpt lat="40.17729" lon="-.895945">
        <ele>1128.608</ele>
        <time>2020-08-29T10:56:47Z</time>
      </trkpt>
      <trkpt lat="40.177237" lon="-.895879">
        <ele>1128.260</ele>
        <time>2020-08-29T10:56:48Z</time>
      </trkpt>
      <trkpt lat="40.177184" lon="-.895827">
        <ele>1127.770</ele>
        <time>2020-08-29T10:56:49Z</time>
      </trkpt>
      <trkpt lat="40.177152" lon="-.895785">
        <ele>1127.732</ele>
        <time>2020-08-29T10:56:50Z</time>
      </trkpt>
      <trkpt lat="40.177094" lon="-.895724">
        <ele>1127.634</ele>
        <time>2020-08-29T10:56:51Z</time>
      </trkpt>
      <trkpt lat="40.177048" lon="-.895657">
        <ele>1127.582</ele>
        <time>2020-08-29T10:56:52Z</time>
      </trkpt>
      <trkpt lat="40.177" lon="-.895595">
        <ele>1127.599</ele>
        <time>2020-08-29T10:56:53Z</time>
      </trkpt>
      <trkpt lat="40.176964" lon="-.895559">
        <ele>1127.597</ele>
        <time>2020-08-29T10:56:54Z</time>
      </trkpt>
      <trkpt lat="40.176919" lon="-.895503">
        <ele>1127.247</ele>
        <time>2020-08-29T10:56:55Z</time>
      </trkpt>
      <trkpt lat="40.176871" lon="-.895438">
        <ele>1127.276</ele>
        <time>2020-08-29T10:56:56Z</time>
      </trkpt>
      <trkpt lat="40.17683" lon="-.89538">
        <ele>1127.290</ele>
        <time>2020-08-29T10:56:57Z</time>
      </trkpt>
      <trkpt lat="40.176785" lon="-.895335">
        <ele>1127.019</ele>
        <time>2020-08-29T10:56:58Z</time>
      </trkpt>
      <trkpt lat="40.17674" lon="-.895285">
        <ele>1127.008</ele>
        <time>2020-08-29T10:56:59Z</time>
      </trkpt>
      <trkpt lat="40.176692" lon="-.895223">
        <ele>1126.852</ele>
        <time>2020-08-29T10:57:00Z</time>
      </trkpt>
      <trkpt lat="40.176645" lon="-.895155">
        <ele>1125.942</ele>
        <time>2020-08-29T10:57:01Z</time>
      </trkpt>
      <trkpt lat="40.176605" lon="-.895087">
        <ele>1125.814</ele>
        <time>2020-08-29T10:57:02Z</time>
      </trkpt>
      <trkpt lat="40.17656" lon="-.895025">
        <ele>1125.856</ele>
        <time>2020-08-29T10:57:03Z</time>
      </trkpt>
      <trkpt lat="40.176523" lon="-.894979">
        <ele>1126.064</ele>
        <time>2020-08-29T10:57:04Z</time>
      </trkpt>
      <trkpt lat="40.176481" lon="-.894929">
        <ele>1126.051</ele>
        <time>2020-08-29T10:57:05Z</time>
      </trkpt>
      <trkpt lat="40.176427" lon="-.894874">
        <ele>1126.029</ele>
        <time>2020-08-29T10:57:06Z</time>
      </trkpt>
      <trkpt lat="40.176379" lon="-.894821">
        <ele>1126.419</ele>
        <time>2020-08-29T10:57:07Z</time>
      </trkpt>
      <trkpt lat="40.176329" lon="-.894764">
        <ele>1125.717</ele>
        <time>2020-08-29T10:57:08Z</time>
      </trkpt>
      <trkpt lat="40.176284" lon="-.89472">
        <ele>1125.487</ele>
        <time>2020-08-29T10:57:09Z</time>
      </trkpt>
      <trkpt lat="40.176242" lon="-.894662">
        <ele>1125.215</ele>
        <time>2020-08-29T10:57:10Z</time>
      </trkpt>
      <trkpt lat="40.176198" lon="-.894606">
        <ele>1125.008</ele>
        <time>2020-08-29T10:57:11Z</time>
      </trkpt>
      <trkpt lat="40.176157" lon="-.894544">
        <ele>1124.946</ele>
        <time>2020-08-29T10:57:12Z</time>
      </trkpt>
      <trkpt lat="40.176108" lon="-.894489">
        <ele>1124.496</ele>
        <time>2020-08-29T10:57:13Z</time>
      </trkpt>
      <trkpt lat="40.176056" lon="-.894433">
        <ele>1124.498</ele>
        <time>2020-08-29T10:57:14Z</time>
      </trkpt>
      <trkpt lat="40.176012" lon="-.894383">
        <ele>1124.430</ele>
        <time>2020-08-29T10:57:15Z</time>
      </trkpt>
      <trkpt lat="40.175965" lon="-.89432">
        <ele>1124.368</ele>
        <time>2020-08-29T10:57:16Z</time>
      </trkpt>
      <trkpt lat="40.175923" lon="-.894255">
        <ele>1124.335</ele>
        <time>2020-08-29T10:57:17Z</time>
      </trkpt>
      <trkpt lat="40.175883" lon="-.894207">
        <ele>1124.563</ele>
        <time>2020-08-29T10:57:18Z</time>
      </trkpt>
      <trkpt lat="40.175837" lon="-.894145">
        <ele>1124.553</ele>
        <time>2020-08-29T10:57:19Z</time>
      </trkpt>
      <trkpt lat="40.175787" lon="-.894085">
        <ele>1123.931</ele>
        <time>2020-08-29T10:57:20Z</time>
      </trkpt>
      <trkpt lat="40.175738" lon="-.894028">
        <ele>1123.761</ele>
        <time>2020-08-29T10:57:21Z</time>
      </trkpt>
      <trkpt lat="40.1757" lon="-.893971">
        <ele>1123.507</ele>
        <time>2020-08-29T10:57:22Z</time>
      </trkpt>
      <trkpt lat="40.175653" lon="-.893921">
        <ele>1123.408</ele>
        <time>2020-08-29T10:57:23Z</time>
      </trkpt>
      <trkpt lat="40.175613" lon="-.893855">
        <ele>1123.358</ele>
        <time>2020-08-29T10:57:24Z</time>
      </trkpt>
      <trkpt lat="40.17557" lon="-.893793">
        <ele>1123.298</ele>
        <time>2020-08-29T10:57:25Z</time>
      </trkpt>
      <trkpt lat="40.175524" lon="-.893737">
        <ele>1123.070</ele>
        <time>2020-08-29T10:57:26Z</time>
      </trkpt>
      <trkpt lat="40.175481" lon="-.89369">
        <ele>1122.942</ele>
        <time>2020-08-29T10:57:27Z</time>
      </trkpt>
      <trkpt lat="40.175437" lon="-.893637">
        <ele>1122.730</ele>
        <time>2020-08-29T10:57:28Z</time>
      </trkpt>
      <trkpt lat="40.175401" lon="-.893583">
        <ele>1122.587</ele>
        <time>2020-08-29T10:57:29Z</time>
      </trkpt>
      <trkpt lat="40.175367" lon="-.893541">
        <ele>1122.425</ele>
        <time>2020-08-29T10:57:30Z</time>
      </trkpt>
      <trkpt lat="40.175319" lon="-.893494">
        <ele>1122.395</ele>
        <time>2020-08-29T10:57:31Z</time>
      </trkpt>
      <trkpt lat="40.175288" lon="-.893445">
        <ele>1122.169</ele>
        <time>2020-08-29T10:57:32Z</time>
      </trkpt>
      <trkpt lat="40.175253" lon="-.893392">
        <ele>1122.004</ele>
        <time>2020-08-29T10:57:33Z</time>
      </trkpt>
      <trkpt lat="40.175187" lon="-.893316">
        <ele>1121.924</ele>
        <time>2020-08-29T10:57:35Z</time>
      </trkpt>
      <trkpt lat="40.175143" lon="-.893287">
        <ele>1121.808</ele>
        <time>2020-08-29T10:57:36Z</time>
      </trkpt>
      <trkpt lat="40.175111" lon="-.893244">
        <ele>1121.881</ele>
        <time>2020-08-29T10:57:37Z</time>
      </trkpt>
      <trkpt lat="40.175059" lon="-.893179">
        <ele>1121.781</ele>
        <time>2020-08-29T10:57:39Z</time>
      </trkpt>
      <trkpt lat="40.175006" lon="-.893156">
        <ele>1121.633</ele>
        <time>2020-08-29T10:57:40Z</time>
      </trkpt>
      <trkpt lat="40.174966" lon="-.893102">
        <ele>1121.355</ele>
        <time>2020-08-29T10:57:41Z</time>
      </trkpt>
      <trkpt lat="40.174926" lon="-.893039">
        <ele>1121.043</ele>
        <time>2020-08-29T10:57:42Z</time>
      </trkpt>
      <trkpt lat="40.174885" lon="-.892992">
        <ele>1121.080</ele>
        <time>2020-08-29T10:57:43Z</time>
      </trkpt>
      <trkpt lat="40.174814" lon="-.892903">
        <ele>1120.418</ele>
        <time>2020-08-29T10:57:45Z</time>
      </trkpt>
      <trkpt lat="40.174741" lon="-.892802">
        <ele>1120.868</ele>
        <time>2020-08-29T10:57:47Z</time>
      </trkpt>
      <trkpt lat="40.174696" lon="-.89274">
        <ele>1120.966</ele>
        <time>2020-08-29T10:57:48Z</time>
      </trkpt>
      <trkpt lat="40.174652" lon="-.892693">
        <ele>1121.429</ele>
        <time>2020-08-29T10:57:49Z</time>
      </trkpt>
      <trkpt lat="40.17461" lon="-.892641">
        <ele>1121.421</ele>
        <time>2020-08-29T10:57:50Z</time>
      </trkpt>
      <trkpt lat="40.174574" lon="-.892596">
        <ele>1121.008</ele>
        <time>2020-08-29T10:57:51Z</time>
      </trkpt>
      <trkpt lat="40.174539" lon="-.892547">
        <ele>1120.711</ele>
        <time>2020-08-29T10:57:52Z</time>
      </trkpt>
      <trkpt lat="40.174507" lon="-.892506">
        <ele>1120.421</ele>
        <time>2020-08-29T10:57:53Z</time>
      </trkpt>
      <trkpt lat="40.174465" lon="-.892464">
        <ele>1120.383</ele>
        <time>2020-08-29T10:57:54Z</time>
      </trkpt>
      <trkpt lat="40.174429" lon="-.892414">
        <ele>1120.245</ele>
        <time>2020-08-29T10:57:55Z</time>
      </trkpt>
      <trkpt lat="40.174394" lon="-.892365">
        <ele>1120.133</ele>
        <time>2020-08-29T10:57:56Z</time>
      </trkpt>
      <trkpt lat="40.174356" lon="-.892323">
        <ele>1119.330</ele>
        <time>2020-08-29T10:57:57Z</time>
      </trkpt>
      <trkpt lat="40.174317" lon="-.892276">
        <ele>1119.358</ele>
        <time>2020-08-29T10:57:58Z</time>
      </trkpt>
      <trkpt lat="40.174279" lon="-.89222">
        <ele>1119.778</ele>
        <time>2020-08-29T10:57:59Z</time>
      </trkpt>
      <trkpt lat="40.174229" lon="-.892181">
        <ele>1119.792</ele>
        <time>2020-08-29T10:58:00Z</time>
      </trkpt>
      <trkpt lat="40.174194" lon="-.892135">
        <ele>1119.773</ele>
        <time>2020-08-29T10:58:01Z</time>
      </trkpt>
      <trkpt lat="40.174164" lon="-.892072">
        <ele>1119.520</ele>
        <time>2020-08-29T10:58:02Z</time>
      </trkpt>
      <trkpt lat="40.174127" lon="-.892013">
        <ele>1119.508</ele>
        <time>2020-08-29T10:58:03Z</time>
      </trkpt>
      <trkpt lat="40.174084" lon="-.89195">
        <ele>1119.444</ele>
        <time>2020-08-29T10:58:04Z</time>
      </trkpt>
      <trkpt lat="40.17404" lon="-.891895">
        <ele>1119.244</ele>
        <time>2020-08-29T10:58:05Z</time>
      </trkpt>
      <trkpt lat="40.173987" lon="-.891838">
        <ele>1118.916</ele>
        <time>2020-08-29T10:58:06Z</time>
      </trkpt>
      <trkpt lat="40.17395" lon="-.89178">
        <ele>1118.618</ele>
        <time>2020-08-29T10:58:07Z</time>
      </trkpt>
      <trkpt lat="40.173901" lon="-.891728">
        <ele>1118.396</ele>
        <time>2020-08-29T10:58:08Z</time>
      </trkpt>
      <trkpt lat="40.173855" lon="-.891677">
        <ele>1118.343</ele>
        <time>2020-08-29T10:58:09Z</time>
      </trkpt>
      <trkpt lat="40.173814" lon="-.891639">
        <ele>1118.441</ele>
        <time>2020-08-29T10:58:10Z</time>
      </trkpt>
      <trkpt lat="40.173772" lon="-.891587">
        <ele>1118.471</ele>
        <time>2020-08-29T10:58:11Z</time>
      </trkpt>
      <trkpt lat="40.17373" lon="-.891539">
        <ele>1118.252</ele>
        <time>2020-08-29T10:58:12Z</time>
      </trkpt>
      <trkpt lat="40.173679" lon="-.891479">
        <ele>1118.253</ele>
        <time>2020-08-29T10:58:13Z</time>
      </trkpt>
      <trkpt lat="40.173633" lon="-.89143">
        <ele>1118.208</ele>
        <time>2020-08-29T10:58:14Z</time>
      </trkpt>
      <trkpt lat="40.173595" lon="-.891372">
        <ele>1117.908</ele>
        <time>2020-08-29T10:58:15Z</time>
      </trkpt>
      <trkpt lat="40.173552" lon="-.891314">
        <ele>1117.870</ele>
        <time>2020-08-29T10:58:16Z</time>
      </trkpt>
      <trkpt lat="40.173508" lon="-.891269">
        <ele>1117.720</ele>
        <time>2020-08-29T10:58:17Z</time>
      </trkpt>
      <trkpt lat="40.173464" lon="-.891205">
        <ele>1117.752</ele>
        <time>2020-08-29T10:58:18Z</time>
      </trkpt>
      <trkpt lat="40.173424" lon="-.89115">
        <ele>1117.654</ele>
        <time>2020-08-29T10:58:19Z</time>
      </trkpt>
      <trkpt lat="40.173383" lon="-.891096">
        <ele>1117.652</ele>
        <time>2020-08-29T10:58:20Z</time>
      </trkpt>
      <trkpt lat="40.173338" lon="-.891051">
        <ele>1117.519</ele>
        <time>2020-08-29T10:58:21Z</time>
      </trkpt>
      <trkpt lat="40.173296" lon="-.891003">
        <ele>1117.527</ele>
        <time>2020-08-29T10:58:22Z</time>
      </trkpt>
      <trkpt lat="40.173256" lon="-.890951">
        <ele>1117.317</ele>
        <time>2020-08-29T10:58:23Z</time>
      </trkpt>
      <trkpt lat="40.173213" lon="-.890891">
        <ele>1117.127</ele>
        <time>2020-08-29T10:58:24Z</time>
      </trkpt>
      <trkpt lat="40.173167" lon="-.89084">
        <ele>1117.068</ele>
        <time>2020-08-29T10:58:25Z</time>
      </trkpt>
      <trkpt lat="40.173129" lon="-.890791">
        <ele>1116.914</ele>
        <time>2020-08-29T10:58:26Z</time>
      </trkpt>
      <trkpt lat="40.17309" lon="-.890742">
        <ele>1116.708</ele>
        <time>2020-08-29T10:58:27Z</time>
      </trkpt>
      <trkpt lat="40.173053" lon="-.890694">
        <ele>1116.667</ele>
        <time>2020-08-29T10:58:28Z</time>
      </trkpt>
      <trkpt lat="40.17301" lon="-.890639">
        <ele>1116.667</ele>
        <time>2020-08-29T10:58:29Z</time>
      </trkpt>
      <trkpt lat="40.172972" lon="-.890595">
        <ele>1116.669</ele>
        <time>2020-08-29T10:58:30Z</time>
      </trkpt>
      <trkpt lat="40.172933" lon="-.890546">
        <ele>1116.571</ele>
        <time>2020-08-29T10:58:31Z</time>
      </trkpt>
      <trkpt lat="40.172896" lon="-.890497">
        <ele>1116.589</ele>
        <time>2020-08-29T10:58:32Z</time>
      </trkpt>
      <trkpt lat="40.172853" lon="-.890452">
        <ele>1116.226</ele>
        <time>2020-08-29T10:58:33Z</time>
      </trkpt>
      <trkpt lat="40.172812" lon="-.890407">
        <ele>1116.244</ele>
        <time>2020-08-29T10:58:34Z</time>
      </trkpt>
      <trkpt lat="40.172774" lon="-.890358">
        <ele>1115.964</ele>
        <time>2020-08-29T10:58:35Z</time>
      </trkpt>
      <trkpt lat="40.172739" lon="-.890316">
        <ele>1115.964</ele>
        <time>2020-08-29T10:58:36Z</time>
      </trkpt>
      <trkpt lat="40.1727" lon="-.890269">
        <ele>1115.806</ele>
        <time>2020-08-29T10:58:37Z</time>
      </trkpt>
      <trkpt lat="40.172666" lon="-.89023">
        <ele>1115.716</ele>
        <time>2020-08-29T10:58:38Z</time>
      </trkpt>
      <trkpt lat="40.172628" lon="-.890183">
        <ele>1115.508</ele>
        <time>2020-08-29T10:58:39Z</time>
      </trkpt>
      <trkpt lat="40.17259" lon="-.890144">
        <ele>1115.591</ele>
        <time>2020-08-29T10:58:40Z</time>
      </trkpt>
      <trkpt lat="40.172547" lon="-.890089">
        <ele>1115.551</ele>
        <time>2020-08-29T10:58:41Z</time>
      </trkpt>
      <trkpt lat="40.172507" lon="-.890043">
        <ele>1115.433</ele>
        <time>2020-08-29T10:58:42Z</time>
      </trkpt>
      <trkpt lat="40.172469" lon="-.889997">
        <ele>1115.435</ele>
        <time>2020-08-29T10:58:43Z</time>
      </trkpt>
      <trkpt lat="40.172441" lon="-.889949">
        <ele>1115.293</ele>
        <time>2020-08-29T10:58:44Z</time>
      </trkpt>
      <trkpt lat="40.172408" lon="-.889902">
        <ele>1115.070</ele>
        <time>2020-08-29T10:58:45Z</time>
      </trkpt>
      <trkpt lat="40.172368" lon="-.889852">
        <ele>1114.888</ele>
        <time>2020-08-29T10:58:46Z</time>
      </trkpt>
      <trkpt lat="40.172336" lon="-.88981">
        <ele>1114.678</ele>
        <time>2020-08-29T10:58:47Z</time>
      </trkpt>
      <trkpt lat="40.172291" lon="-.889762">
        <ele>1114.579</ele>
        <time>2020-08-29T10:58:48Z</time>
      </trkpt>
      <trkpt lat="40.172256" lon="-.889712">
        <ele>1114.405</ele>
        <time>2020-08-29T10:58:49Z</time>
      </trkpt>
      <trkpt lat="40.172219" lon="-.889661">
        <ele>1114.225</ele>
        <time>2020-08-29T10:58:50Z</time>
      </trkpt>
      <trkpt lat="40.172185" lon="-.889614">
        <ele>1114.108</ele>
        <time>2020-08-29T10:58:51Z</time>
      </trkpt>
      <trkpt lat="40.172147" lon="-.88957">
        <ele>1114.092</ele>
        <time>2020-08-29T10:58:52Z</time>
      </trkpt>
      <trkpt lat="40.172075" lon="-.889494">
        <ele>1113.782</ele>
        <time>2020-08-29T10:58:54Z</time>
      </trkpt>
      <trkpt lat="40.17201" lon="-.889406">
        <ele>1113.514</ele>
        <time>2020-08-29T10:58:56Z</time>
      </trkpt>
      <trkpt lat="40.171979" lon="-.889361">
        <ele>1113.286</ele>
        <time>2020-08-29T10:58:57Z</time>
      </trkpt>
      <trkpt lat="40.171945" lon="-.88931">
        <ele>1113.234</ele>
        <time>2020-08-29T10:58:58Z</time>
      </trkpt>
      <trkpt lat="40.171907" lon="-.889269">
        <ele>1113.191</ele>
        <time>2020-08-29T10:58:59Z</time>
      </trkpt>
      <trkpt lat="40.171868" lon="-.889234">
        <ele>1113.049</ele>
        <time>2020-08-29T10:59:00Z</time>
      </trkpt>
      <trkpt lat="40.171833" lon="-.889191">
        <ele>1112.989</ele>
        <time>2020-08-29T10:59:01Z</time>
      </trkpt>
      <trkpt lat="40.171804" lon="-.889144">
        <ele>1112.956</ele>
        <time>2020-08-29T10:59:02Z</time>
      </trkpt>
      <trkpt lat="40.171736" lon="-.889064">
        <ele>1112.759</ele>
        <time>2020-08-29T10:59:04Z</time>
      </trkpt>
      <trkpt lat="40.171696" lon="-.889005">
        <ele>1112.614</ele>
        <time>2020-08-29T10:59:05Z</time>
      </trkpt>
      <trkpt lat="40.171658" lon="-.888961">
        <ele>1112.508</ele>
        <time>2020-08-29T10:59:06Z</time>
      </trkpt>
      <trkpt lat="40.171607" lon="-.888904">
        <ele>1112.380</ele>
        <time>2020-08-29T10:59:07Z</time>
      </trkpt>
      <trkpt lat="40.171574" lon="-.888857">
        <ele>1112.280</ele>
        <time>2020-08-29T10:59:08Z</time>
      </trkpt>
      <trkpt lat="40.171536" lon="-.888813">
        <ele>1112.162</ele>
        <time>2020-08-29T10:59:09Z</time>
      </trkpt>
      <trkpt lat="40.17149" lon="-.888756">
        <ele>1112.014</ele>
        <time>2020-08-29T10:59:10Z</time>
      </trkpt>
      <trkpt lat="40.171447" lon="-.888714">
        <ele>1111.962</ele>
        <time>2020-08-29T10:59:11Z</time>
      </trkpt>
      <trkpt lat="40.171409" lon="-.888666">
        <ele>1111.989</ele>
        <time>2020-08-29T10:59:12Z</time>
      </trkpt>
      <trkpt lat="40.171365" lon="-.888611">
        <ele>1111.997</ele>
        <time>2020-08-29T10:59:13Z</time>
      </trkpt>
      <trkpt lat="40.171325" lon="-.888553">
        <ele>1112.087</ele>
        <time>2020-08-29T10:59:14Z</time>
      </trkpt>
      <trkpt lat="40.17129" lon="-.8885">
        <ele>1111.531</ele>
        <time>2020-08-29T10:59:15Z</time>
      </trkpt>
      <trkpt lat="40.171254" lon="-.888454">
        <ele>1111.561</ele>
        <time>2020-08-29T10:59:16Z</time>
      </trkpt>
      <trkpt lat="40.171183" lon="-.88837">
        <ele>1111.407</ele>
        <time>2020-08-29T10:59:18Z</time>
      </trkpt>
      <trkpt lat="40.171116" lon="-.888305">
        <ele>1111.308</ele>
        <time>2020-08-29T10:59:20Z</time>
      </trkpt>
      <trkpt lat="40.17108" lon="-.888256">
        <ele>1111.148</ele>
        <time>2020-08-29T10:59:21Z</time>
      </trkpt>
      <trkpt lat="40.171044" lon="-.888205">
        <ele>1110.938</ele>
        <time>2020-08-29T10:59:22Z</time>
      </trkpt>
      <trkpt lat="40.171001" lon="-.88816">
        <ele>1110.840</ele>
        <time>2020-08-29T10:59:23Z</time>
      </trkpt>
      <trkpt lat="40.170959" lon="-.888116">
        <ele>1110.862</ele>
        <time>2020-08-29T10:59:24Z</time>
      </trkpt>
      <trkpt lat="40.170914" lon="-.888065">
        <ele>1110.690</ele>
        <time>2020-08-29T10:59:25Z</time>
      </trkpt>
      <trkpt lat="40.170875" lon="-.888022">
        <ele>1110.597</ele>
        <time>2020-08-29T10:59:26Z</time>
      </trkpt>
      <trkpt lat="40.17084" lon="-.887983">
        <ele>1110.595</ele>
        <time>2020-08-29T10:59:27Z</time>
      </trkpt>
      <trkpt lat="40.170799" lon="-.887943">
        <ele>1110.575</ele>
        <time>2020-08-29T10:59:28Z</time>
      </trkpt>
      <trkpt lat="40.170762" lon="-.887901">
        <ele>1110.557</ele>
        <time>2020-08-29T10:59:29Z</time>
      </trkpt>
      <trkpt lat="40.17072" lon="-.887831">
        <ele>1110.500</ele>
        <time>2020-08-29T10:59:30Z</time>
      </trkpt>
      <trkpt lat="40.170678" lon="-.887787">
        <ele>1110.520</ele>
        <time>2020-08-29T10:59:31Z</time>
      </trkpt>
      <trkpt lat="40.170641" lon="-.887731">
        <ele>1109.408</ele>
        <time>2020-08-29T10:59:32Z</time>
      </trkpt>
      <trkpt lat="40.170605" lon="-.887668">
        <ele>1109.390</ele>
        <time>2020-08-29T10:59:33Z</time>
      </trkpt>
      <trkpt lat="40.170563" lon="-.887602">
        <ele>1109.240</ele>
        <time>2020-08-29T10:59:34Z</time>
      </trkpt>
      <trkpt lat="40.170527" lon="-.887546">
        <ele>1109.242</ele>
        <time>2020-08-29T10:59:35Z</time>
      </trkpt>
      <trkpt lat="40.170486" lon="-.887498">
        <ele>1110.674</ele>
        <time>2020-08-29T10:59:36Z</time>
      </trkpt>
      <trkpt lat="40.170448" lon="-.887445">
        <ele>1110.612</ele>
        <time>2020-08-29T10:59:37Z</time>
      </trkpt>
      <trkpt lat="40.170405" lon="-.887393">
        <ele>1109.519</ele>
        <time>2020-08-29T10:59:38Z</time>
      </trkpt>
      <trkpt lat="40.170366" lon="-.887345">
        <ele>1109.537</ele>
        <time>2020-08-29T10:59:39Z</time>
      </trkpt>
      <trkpt lat="40.17033" lon="-.887289">
        <ele>1109.377</ele>
        <time>2020-08-29T10:59:40Z</time>
      </trkpt>
      <trkpt lat="40.170292" lon="-.887247">
        <ele>1109.374</ele>
        <time>2020-08-29T10:59:41Z</time>
      </trkpt>
      <trkpt lat="40.170257" lon="-.887203">
        <ele>1109.356</ele>
        <time>2020-08-29T10:59:42Z</time>
      </trkpt>
      <trkpt lat="40.170218" lon="-.887147">
        <ele>1109.321</ele>
        <time>2020-08-29T10:59:43Z</time>
      </trkpt>
      <trkpt lat="40.170173" lon="-.887093">
        <ele>1109.308</ele>
        <time>2020-08-29T10:59:44Z</time>
      </trkpt>
      <trkpt lat="40.170134" lon="-.887056">
        <ele>1109.172</ele>
        <time>2020-08-29T10:59:45Z</time>
      </trkpt>
      <trkpt lat="40.170098" lon="-.887017">
        <ele>1109.052</ele>
        <time>2020-08-29T10:59:46Z</time>
      </trkpt>
      <trkpt lat="40.170057" lon="-.886958">
        <ele>1108.974</ele>
        <time>2020-08-29T10:59:47Z</time>
      </trkpt>
      <trkpt lat="40.170013" lon="-.886904">
        <ele>1108.976</ele>
        <time>2020-08-29T10:59:48Z</time>
      </trkpt>
      <trkpt lat="40.169972" lon="-.88686">
        <ele>1108.684</ele>
        <time>2020-08-29T10:59:49Z</time>
      </trkpt>
      <trkpt lat="40.169933" lon="-.886822">
        <ele>1108.551</ele>
        <time>2020-08-29T10:59:50Z</time>
      </trkpt>
      <trkpt lat="40.169896" lon="-.886767">
        <ele>1108.429</ele>
        <time>2020-08-29T10:59:51Z</time>
      </trkpt>
      <trkpt lat="40.169857" lon="-.886713">
        <ele>1108.399</ele>
        <time>2020-08-29T10:59:52Z</time>
      </trkpt>
      <trkpt lat="40.169783" lon="-.886614">
        <ele>1108.045</ele>
        <time>2020-08-29T10:59:54Z</time>
      </trkpt>
      <trkpt lat="40.169742" lon="-.886561">
        <ele>1107.847</ele>
        <time>2020-08-29T10:59:55Z</time>
      </trkpt>
      <trkpt lat="40.169701" lon="-.886511">
        <ele>1107.411</ele>
        <time>2020-08-29T10:59:56Z</time>
      </trkpt>
      <trkpt lat="40.169655" lon="-.886464">
        <ele>1107.108</ele>
        <time>2020-08-29T10:59:57Z</time>
      </trkpt>
      <trkpt lat="40.169615" lon="-.886414">
        <ele>1107.179</ele>
        <time>2020-08-29T10:59:58Z</time>
      </trkpt>
      <trkpt lat="40.169572" lon="-.886366">
        <ele>1107.049</ele>
        <time>2020-08-29T10:59:59Z</time>
      </trkpt>
      <trkpt lat="40.169538" lon="-.88631">
        <ele>1107.011</ele>
        <time>2020-08-29T11:00:00Z</time>
      </trkpt>
      <trkpt lat="40.169471" lon="-.886247">
        <ele>1107.143</ele>
        <time>2020-08-29T11:00:02Z</time>
      </trkpt>
      <trkpt lat="40.169429" lon="-.886194">
        <ele>1107.161</ele>
        <time>2020-08-29T11:00:03Z</time>
      </trkpt>
      <trkpt lat="40.169394" lon="-.886147">
        <ele>1107.118</ele>
        <time>2020-08-29T11:00:04Z</time>
      </trkpt>
      <trkpt lat="40.16936" lon="-.886088">
        <ele>1107.016</ele>
        <time>2020-08-29T11:00:05Z</time>
      </trkpt>
      <trkpt lat="40.169324" lon="-.88604">
        <ele>1106.616</ele>
        <time>2020-08-29T11:00:06Z</time>
      </trkpt>
      <trkpt lat="40.169246" lon="-.885964">
        <ele>1106.451</ele>
        <time>2020-08-29T11:00:08Z</time>
      </trkpt>
      <trkpt lat="40.169171" lon="-.885886">
        <ele>1106.301</ele>
        <time>2020-08-29T11:00:10Z</time>
      </trkpt>
      <trkpt lat="40.169131" lon="-.885853">
        <ele>1106.411</ele>
        <time>2020-08-29T11:00:11Z</time>
      </trkpt>
      <trkpt lat="40.169066" lon="-.885766">
        <ele>1106.008</ele>
        <time>2020-08-29T11:00:13Z</time>
      </trkpt>
      <trkpt lat="40.169016" lon="-.885697">
        <ele>1105.540</ele>
        <time>2020-08-29T11:00:15Z</time>
      </trkpt>
      <trkpt lat="40.168956" lon="-.885607">
        <ele>1105.520</ele>
        <time>2020-08-29T11:00:17Z</time>
      </trkpt>
      <trkpt lat="40.168926" lon="-.885554">
        <ele>1105.612</ele>
        <time>2020-08-29T11:00:18Z</time>
      </trkpt>
      <trkpt lat="40.168897" lon="-.885509">
        <ele>1105.674</ele>
        <time>2020-08-29T11:00:19Z</time>
      </trkpt>
      <trkpt lat="40.168858" lon="-.885461">
        <ele>1106.382</ele>
        <time>2020-08-29T11:00:20Z</time>
      </trkpt>
      <trkpt lat="40.168819" lon="-.885407">
        <ele>1106.189</ele>
        <time>2020-08-29T11:00:21Z</time>
      </trkpt>
      <trkpt lat="40.168785" lon="-.885359">
        <ele>1106.147</ele>
        <time>2020-08-29T11:00:22Z</time>
      </trkpt>
      <trkpt lat="40.16875" lon="-.885311">
        <ele>1105.367</ele>
        <time>2020-08-29T11:00:23Z</time>
      </trkpt>
      <trkpt lat="40.168711" lon="-.885272">
        <ele>1105.314</ele>
        <time>2020-08-29T11:00:24Z</time>
      </trkpt>
      <trkpt lat="40.168642" lon="-.885191">
        <ele>1105.854</ele>
        <time>2020-08-29T11:00:26Z</time>
      </trkpt>
      <trkpt lat="40.168582" lon="-.885116">
        <ele>1105.609</ele>
        <time>2020-08-29T11:00:28Z</time>
      </trkpt>
      <trkpt lat="40.168546" lon="-.885072">
        <ele>1105.608</ele>
        <time>2020-08-29T11:00:29Z</time>
      </trkpt>
      <trkpt lat="40.168488" lon="-.884997">
        <ele>1105.626</ele>
        <time>2020-08-29T11:00:31Z</time>
      </trkpt>
      <trkpt lat="40.168418" lon="-.884905">
        <ele>1105.716</ele>
        <time>2020-08-29T11:00:33Z</time>
      </trkpt>
      <trkpt lat="40.16838" lon="-.884855">
        <ele>1105.878</ele>
        <time>2020-08-29T11:00:34Z</time>
      </trkpt>
      <trkpt lat="40.168325" lon="-.884786">
        <ele>1106.010</ele>
        <time>2020-08-29T11:00:36Z</time>
      </trkpt>
      <trkpt lat="40.16829" lon="-.884747">
        <ele>1106.028</ele>
        <time>2020-08-29T11:00:37Z</time>
      </trkpt>
      <trkpt lat="40.16826" lon="-.884698">
        <ele>1105.755</ele>
        <time>2020-08-29T11:00:38Z</time>
      </trkpt>
      <trkpt lat="40.168201" lon="-.88464">
        <ele>1105.673</ele>
        <time>2020-08-29T11:00:40Z</time>
      </trkpt>
      <trkpt lat="40.168133" lon="-.884566">
        <ele>1105.793</ele>
        <time>2020-08-29T11:00:42Z</time>
      </trkpt>
      <trkpt lat="40.1681" lon="-.884519">
        <ele>1105.737</ele>
        <time>2020-08-29T11:00:43Z</time>
      </trkpt>
      <trkpt lat="40.16804" lon="-.884446">
        <ele>1105.649</ele>
        <time>2020-08-29T11:00:45Z</time>
      </trkpt>
      <trkpt lat="40.168005" lon="-.884406">
        <ele>1105.713</ele>
        <time>2020-08-29T11:00:46Z</time>
      </trkpt>
      <trkpt lat="40.167973" lon="-.884362">
        <ele>1105.708</ele>
        <time>2020-08-29T11:00:47Z</time>
      </trkpt>
      <trkpt lat="40.167913" lon="-.884281">
        <ele>1105.728</ele>
        <time>2020-08-29T11:00:49Z</time>
      </trkpt>
      <trkpt lat="40.167878" lon="-.88424">
        <ele>1105.758</ele>
        <time>2020-08-29T11:00:50Z</time>
      </trkpt>
      <trkpt lat="40.16782" lon="-.884163">
        <ele>1105.630</ele>
        <time>2020-08-29T11:00:52Z</time>
      </trkpt>
      <trkpt lat="40.167757" lon="-.884081">
        <ele>1105.872</ele>
        <time>2020-08-29T11:00:54Z</time>
      </trkpt>
      <trkpt lat="40.167721" lon="-.884043">
        <ele>1105.630</ele>
        <time>2020-08-29T11:00:55Z</time>
      </trkpt>
      <trkpt lat="40.167652" lon="-.883965">
        <ele>1105.757</ele>
        <time>2020-08-29T11:00:57Z</time>
      </trkpt>
      <trkpt lat="40.167587" lon="-.883886">
        <ele>1105.715</ele>
        <time>2020-08-29T11:00:59Z</time>
      </trkpt>
      <trkpt lat="40.167546" lon="-.883808">
        <ele>1105.835</ele>
        <time>2020-08-29T11:01:01Z</time>
      </trkpt>
      <trkpt lat="40.167509" lon="-.883765">
        <ele>1105.878</ele>
        <time>2020-08-29T11:01:02Z</time>
      </trkpt>
      <trkpt lat="40.16747" lon="-.88372">
        <ele>1105.833</ele>
        <time>2020-08-29T11:01:03Z</time>
      </trkpt>
      <trkpt lat="40.167409" lon="-.883645">
        <ele>1105.826</ele>
        <time>2020-08-29T11:01:05Z</time>
      </trkpt>
      <trkpt lat="40.167349" lon="-.883566">
        <ele>1105.808</ele>
        <time>2020-08-29T11:01:07Z</time>
      </trkpt>
      <trkpt lat="40.167295" lon="-.883488">
        <ele>1105.862</ele>
        <time>2020-08-29T11:01:09Z</time>
      </trkpt>
      <trkpt lat="40.16724" lon="-.883423">
        <ele>1105.742</ele>
        <time>2020-08-29T11:01:11Z</time>
      </trkpt>
      <trkpt lat="40.167174" lon="-.883342">
        <ele>1105.714</ele>
        <time>2020-08-29T11:01:13Z</time>
      </trkpt>
      <trkpt lat="40.167122" lon="-.883275">
        <ele>1105.716</ele>
        <time>2020-08-29T11:01:15Z</time>
      </trkpt>
      <trkpt lat="40.167091" lon="-.883231">
        <ele>1105.534</ele>
        <time>2020-08-29T11:01:16Z</time>
      </trkpt>
      <trkpt lat="40.167044" lon="-.883153">
        <ele>1105.481</ele>
        <time>2020-08-29T11:01:18Z</time>
      </trkpt>
      <trkpt lat="40.166986" lon="-.8831">
        <ele>1105.589</ele>
        <time>2020-08-29T11:01:20Z</time>
      </trkpt>
      <trkpt lat="40.166934" lon="-.88303">
        <ele>1105.459</ele>
        <time>2020-08-29T11:01:22Z</time>
      </trkpt>
      <trkpt lat="40.166875" lon="-.882957">
        <ele>1105.518</ele>
        <time>2020-08-29T11:01:24Z</time>
      </trkpt>
      <trkpt lat="40.166811" lon="-.88289">
        <ele>1105.698</ele>
        <time>2020-08-29T11:01:26Z</time>
      </trkpt>
      <trkpt lat="40.166767" lon="-.882817">
        <ele>1105.617</ele>
        <time>2020-08-29T11:01:28Z</time>
      </trkpt>
      <trkpt lat="40.166707" lon="-.882749">
        <ele>1105.508</ele>
        <time>2020-08-29T11:01:30Z</time>
      </trkpt>
      <trkpt lat="40.166653" lon="-.882684">
        <ele>1105.576</ele>
        <time>2020-08-29T11:01:32Z</time>
      </trkpt>
      <trkpt lat="40.1666" lon="-.882599">
        <ele>1105.636</ele>
        <time>2020-08-29T11:01:34Z</time>
      </trkpt>
      <trkpt lat="40.166542" lon="-.882526">
        <ele>1105.688</ele>
        <time>2020-08-29T11:01:36Z</time>
      </trkpt>
      <trkpt lat="40.166495" lon="-.882471">
        <ele>1105.540</ele>
        <time>2020-08-29T11:01:38Z</time>
      </trkpt>
      <trkpt lat="40.166437" lon="-.882406">
        <ele>1106.068</ele>
        <time>2020-08-29T11:01:40Z</time>
      </trkpt>
      <trkpt lat="40.166388" lon="-.882363">
        <ele>1106.245</ele>
        <time>2020-08-29T11:01:42Z</time>
      </trkpt>
      <trkpt lat="40.166336" lon="-.882308">
        <ele>1106.253</ele>
        <time>2020-08-29T11:01:44Z</time>
      </trkpt>
      <trkpt lat="40.166279" lon="-.882251">
        <ele>1106.143</ele>
        <time>2020-08-29T11:01:46Z</time>
      </trkpt>
      <trkpt lat="40.166232" lon="-.882202">
        <ele>1105.995</ele>
        <time>2020-08-29T11:01:48Z</time>
      </trkpt>
      <trkpt lat="40.166182" lon="-.882133">
        <ele>1105.649</ele>
        <time>2020-08-29T11:01:50Z</time>
      </trkpt>
      <trkpt lat="40.166131" lon="-.882055">
        <ele>1105.623</ele>
        <time>2020-08-29T11:01:52Z</time>
      </trkpt>
      <trkpt lat="40.166079" lon="-.881974">
        <ele>1105.508</ele>
        <time>2020-08-29T11:01:54Z</time>
      </trkpt>
      <trkpt lat="40.166018" lon="-.881898">
        <ele>1105.564</ele>
        <time>2020-08-29T11:01:56Z</time>
      </trkpt>
      <trkpt lat="40.16597" lon="-.88184">
        <ele>1105.754</ele>
        <time>2020-08-29T11:01:58Z</time>
      </trkpt>
      <trkpt lat="40.165918" lon="-.881753">
        <ele>1105.786</ele>
        <time>2020-08-29T11:02:00Z</time>
      </trkpt>
      <trkpt lat="40.16587" lon="-.881687">
        <ele>1105.768</ele>
        <time>2020-08-29T11:02:02Z</time>
      </trkpt>
      <trkpt lat="40.165829" lon="-.881641">
        <ele>1105.756</ele>
        <time>2020-08-29T11:02:03Z</time>
      </trkpt>
      <trkpt lat="40.165772" lon="-.881561">
        <ele>1105.533</ele>
        <time>2020-08-29T11:02:05Z</time>
      </trkpt>
      <trkpt lat="40.165729" lon="-.881499">
        <ele>1105.751</ele>
        <time>2020-08-29T11:02:07Z</time>
      </trkpt>
      <trkpt lat="40.165692" lon="-.88145">
        <ele>1105.891</ele>
        <time>2020-08-29T11:02:08Z</time>
      </trkpt>
      <trkpt lat="40.165628" lon="-.881384">
        <ele>1105.691</ele>
        <time>2020-08-29T11:02:10Z</time>
      </trkpt>
      <trkpt lat="40.165583" lon="-.881353">
        <ele>1106.081</ele>
        <time>2020-08-29T11:02:12Z</time>
      </trkpt>
      <trkpt lat="40.165542" lon="-.88132">
        <ele>1106.019</ele>
        <time>2020-08-29T11:02:13Z</time>
      </trkpt>
      <trkpt lat="40.165487" lon="-.881247">
        <ele>1105.908</ele>
        <time>2020-08-29T11:02:15Z</time>
      </trkpt>
      <trkpt lat="40.165443" lon="-.881181">
        <ele>1105.774</ele>
        <time>2020-08-29T11:02:17Z</time>
      </trkpt>
      <trkpt lat="40.16537" lon="-.881132">
        <ele>1105.754</ele>
        <time>2020-08-29T11:02:19Z</time>
      </trkpt>
      <trkpt lat="40.165303" lon="-.881105">
        <ele>1105.756</ele>
        <time>2020-08-29T11:02:21Z</time>
      </trkpt>
      <trkpt lat="40.16524" lon="-.881114">
        <ele>1105.928</ele>
        <time>2020-08-29T11:02:23Z</time>
      </trkpt>
      <trkpt lat="40.165191" lon="-.881125">
        <ele>1105.546</ele>
        <time>2020-08-29T11:02:25Z</time>
      </trkpt>
      <trkpt lat="40.165137" lon="-.881155">
        <ele>1105.453</ele>
        <time>2020-08-29T11:02:27Z</time>
      </trkpt>
      <trkpt lat="40.165097" lon="-.881198">
        <ele>1105.931</ele>
        <time>2020-08-29T11:02:29Z</time>
      </trkpt>
      <trkpt lat="40.165068" lon="-.881245">
        <ele>1106.451</ele>
        <time>2020-08-29T11:02:32Z</time>
      </trkpt>
      <trkpt lat="40.165016" lon="-.881287">
        <ele>1106.821</ele>
        <time>2020-08-29T11:02:35Z</time>
      </trkpt>
      <trkpt lat="40.164981" lon="-.881342">
        <ele>1106.841</ele>
        <time>2020-08-29T11:02:38Z</time>
      </trkpt>
      <trkpt lat="40.164923" lon="-.881363">
        <ele>1106.305</ele>
        <time>2020-08-29T11:02:41Z</time>
      </trkpt>
      <trkpt lat="40.164867" lon="-.881301">
        <ele>1105.708</ele>
        <time>2020-08-29T11:02:43Z</time>
      </trkpt>
      <trkpt lat="40.164823" lon="-.881236">
        <ele>1105.467</ele>
        <time>2020-08-29T11:02:45Z</time>
      </trkpt>
      <trkpt lat="40.164788" lon="-.881168">
        <ele>1105.317</ele>
        <time>2020-08-29T11:02:47Z</time>
      </trkpt>
      <trkpt lat="40.164746" lon="-.881096">
        <ele>1105.399</ele>
        <time>2020-08-29T11:02:49Z</time>
      </trkpt>
      <trkpt lat="40.164697" lon="-.881027">
        <ele>1105.061</ele>
        <time>2020-08-29T11:02:51Z</time>
      </trkpt>
      <trkpt lat="40.16465" lon="-.880967">
        <ele>1104.969</ele>
        <time>2020-08-29T11:02:53Z</time>
      </trkpt>
      <trkpt lat="40.164607" lon="-.880906">
        <ele>1104.976</ele>
        <time>2020-08-29T11:02:55Z</time>
      </trkpt>
      <trkpt lat="40.164568" lon="-.880832">
        <ele>1104.964</ele>
        <time>2020-08-29T11:02:57Z</time>
      </trkpt>
      <trkpt lat="40.164517" lon="-.880771">
        <ele>1105.354</ele>
        <time>2020-08-29T11:02:59Z</time>
      </trkpt>
      <trkpt lat="40.164465" lon="-.880701">
        <ele>1105.697</ele>
        <time>2020-08-29T11:03:01Z</time>
      </trkpt>
      <trkpt lat="40.164426" lon="-.880639">
        <ele>1105.123</ele>
        <time>2020-08-29T11:03:03Z</time>
      </trkpt>
      <trkpt lat="40.164382" lon="-.880583">
        <ele>1105.125</ele>
        <time>2020-08-29T11:03:05Z</time>
      </trkpt>
      <trkpt lat="40.164339" lon="-.880529">
        <ele>1105.408</ele>
        <time>2020-08-29T11:03:07Z</time>
      </trkpt>
      <trkpt lat="40.164269" lon="-.880495">
        <ele>1105.344</ele>
        <time>2020-08-29T11:03:09Z</time>
      </trkpt>
      <trkpt lat="40.164194" lon="-.880453">
        <ele>1105.584</ele>
        <time>2020-08-29T11:03:11Z</time>
      </trkpt>
      <trkpt lat="40.164121" lon="-.880421">
        <ele>1105.596</ele>
        <time>2020-08-29T11:03:13Z</time>
      </trkpt>
      <trkpt lat="40.164048" lon="-.880398">
        <ele>1105.538</ele>
        <time>2020-08-29T11:03:15Z</time>
      </trkpt>
      <trkpt lat="40.164004" lon="-.880382">
        <ele>1105.116</ele>
        <time>2020-08-29T11:03:16Z</time>
      </trkpt>
      <trkpt lat="40.163931" lon="-.880353">
        <ele>1104.953</ele>
        <time>2020-08-29T11:03:18Z</time>
      </trkpt>
      <trkpt lat="40.163855" lon="-.880323">
        <ele>1104.711</ele>
        <time>2020-08-29T11:03:20Z</time>
      </trkpt>
      <trkpt lat="40.163783" lon="-.880284">
        <ele>1104.681</ele>
        <time>2020-08-29T11:03:22Z</time>
      </trkpt>
      <trkpt lat="40.163712" lon="-.880257">
        <ele>1104.665</ele>
        <time>2020-08-29T11:03:24Z</time>
      </trkpt>
      <trkpt lat="40.163637" lon="-.880221">
        <ele>1104.668</ele>
        <time>2020-08-29T11:03:26Z</time>
      </trkpt>
      <trkpt lat="40.163563" lon="-.880188">
        <ele>1104.514</ele>
        <time>2020-08-29T11:03:28Z</time>
      </trkpt>
      <trkpt lat="40.16349" lon="-.880157">
        <ele>1104.308</ele>
        <time>2020-08-29T11:03:30Z</time>
      </trkpt>
      <trkpt lat="40.163446" lon="-.880141">
        <ele>1104.181</ele>
        <time>2020-08-29T11:03:31Z</time>
      </trkpt>
      <trkpt lat="40.163369" lon="-.880113">
        <ele>1104.091</ele>
        <time>2020-08-29T11:03:33Z</time>
      </trkpt>
      <trkpt lat="40.163296" lon="-.880083">
        <ele>1104.193</ele>
        <time>2020-08-29T11:03:35Z</time>
      </trkpt>
      <trkpt lat="40.163219" lon="-.880051">
        <ele>1104.095</ele>
        <time>2020-08-29T11:03:37Z</time>
      </trkpt>
      <trkpt lat="40.163148" lon="-.88002">
        <ele>1103.813</ele>
        <time>2020-08-29T11:03:39Z</time>
      </trkpt>
      <trkpt lat="40.163081" lon="-.879981">
        <ele>1103.660</ele>
        <time>2020-08-29T11:03:41Z</time>
      </trkpt>
      <trkpt lat="40.163014" lon="-.879949">
        <ele>1103.598</ele>
        <time>2020-08-29T11:03:43Z</time>
      </trkpt>
      <trkpt lat="40.162948" lon="-.879919">
        <ele>1103.348</ele>
        <time>2020-08-29T11:03:45Z</time>
      </trkpt>
      <trkpt lat="40.162885" lon="-.879891">
        <ele>1103.336</ele>
        <time>2020-08-29T11:03:47Z</time>
      </trkpt>
      <trkpt lat="40.162814" lon="-.879848">
        <ele>1103.317</ele>
        <time>2020-08-29T11:03:49Z</time>
      </trkpt>
      <trkpt lat="40.162747" lon="-.87982">
        <ele>1103.118</ele>
        <time>2020-08-29T11:03:51Z</time>
      </trkpt>
      <trkpt lat="40.162694" lon="-.8798">
        <ele>1102.908</ele>
        <time>2020-08-29T11:03:53Z</time>
      </trkpt>
      <trkpt lat="40.162639" lon="-.879756">
        <ele>1102.978</ele>
        <time>2020-08-29T11:03:55Z</time>
      </trkpt>
      <trkpt lat="40.162593" lon="-.879706">
        <ele>1102.998</ele>
        <time>2020-08-29T11:03:57Z</time>
      </trkpt>
      <trkpt lat="40.162545" lon="-.879673">
        <ele>1102.750</ele>
        <time>2020-08-29T11:03:59Z</time>
      </trkpt>
      <trkpt lat="40.162501" lon="-.879633">
        <ele>1102.632</ele>
        <time>2020-08-29T11:04:02Z</time>
      </trkpt>
      <trkpt lat="40.162455" lon="-.879643">
        <ele>1099.410</ele>
        <time>2020-08-29T11:04:46Z</time>
      </trkpt>
      <trkpt lat="40.162367" lon="-.879521">
        <ele>1100.577</ele>
        <time>2020-08-29T11:05:32Z</time>
      </trkpt>
      <trkpt lat="40.162323" lon="-.879467">
        <ele>1101.695</ele>
        <time>2020-08-29T11:05:34Z</time>
      </trkpt>
      <trkpt lat="40.162257" lon="-.879412">
        <ele>1101.695</ele>
        <time>2020-08-29T11:05:36Z</time>
      </trkpt>
      <trkpt lat="40.162208" lon="-.87936">
        <ele>1101.715</ele>
        <time>2020-08-29T11:05:38Z</time>
      </trkpt>
      <trkpt lat="40.162166" lon="-.879306">
        <ele>1101.865</ele>
        <time>2020-08-29T11:05:40Z</time>
      </trkpt>
      <trkpt lat="40.162117" lon="-.879238">
        <ele>1101.211</ele>
        <time>2020-08-29T11:05:42Z</time>
      </trkpt>
      <trkpt lat="40.16207" lon="-.879186">
        <ele>1101.408</ele>
        <time>2020-08-29T11:05:44Z</time>
      </trkpt>
      <trkpt lat="40.162033" lon="-.879113">
        <ele>1101.596</ele>
        <time>2020-08-29T11:05:46Z</time>
      </trkpt>
      <trkpt lat="40.162001" lon="-.879043">
        <ele>1101.916</ele>
        <time>2020-08-29T11:05:48Z</time>
      </trkpt>
      <trkpt lat="40.161967" lon="-.87897">
        <ele>1101.088</ele>
        <time>2020-08-29T11:05:50Z</time>
      </trkpt>
      <trkpt lat="40.161932" lon="-.878897">
        <ele>1101.120</ele>
        <time>2020-08-29T11:05:52Z</time>
      </trkpt>
      <trkpt lat="40.1619" lon="-.878805">
        <ele>1100.958</ele>
        <time>2020-08-29T11:05:54Z</time>
      </trkpt>
      <trkpt lat="40.161874" lon="-.878755">
        <ele>1100.275</ele>
        <time>2020-08-29T11:05:55Z</time>
      </trkpt>
      <trkpt lat="40.161838" lon="-.878673">
        <ele>1100.593</ele>
        <time>2020-08-29T11:05:57Z</time>
      </trkpt>
      <trkpt lat="40.161812" lon="-.878585">
        <ele>1101.133</ele>
        <time>2020-08-29T11:05:59Z</time>
      </trkpt>
      <trkpt lat="40.16179" lon="-.878485">
        <ele>1100.467</ele>
        <time>2020-08-29T11:06:01Z</time>
      </trkpt>
      <trkpt lat="40.161768" lon="-.87838">
        <ele>1099.781</ele>
        <time>2020-08-29T11:06:03Z</time>
      </trkpt>
      <trkpt lat="40.161759" lon="-.878279">
        <ele>1099.819</ele>
        <time>2020-08-29T11:06:05Z</time>
      </trkpt>
      <trkpt lat="40.161739" lon="-.878171">
        <ele>1100.408</ele>
        <time>2020-08-29T11:06:07Z</time>
      </trkpt>
      <trkpt lat="40.161732" lon="-.878093">
        <ele>1100.061</ele>
        <time>2020-08-29T11:06:08Z</time>
      </trkpt>
      <trkpt lat="40.161723" lon="-.878024">
        <ele>1100.051</ele>
        <time>2020-08-29T11:06:09Z</time>
      </trkpt>
      <trkpt lat="40.161714" lon="-.877963">
        <ele>1099.823</ele>
        <time>2020-08-29T11:06:10Z</time>
      </trkpt>
      <trkpt lat="40.161717" lon="-.877837">
        <ele>1099.185</ele>
        <time>2020-08-29T11:06:12Z</time>
      </trkpt>
      <trkpt lat="40.16172" lon="-.877772">
        <ele>1098.253</ele>
        <time>2020-08-29T11:06:13Z</time>
      </trkpt>
      <trkpt lat="40.161719" lon="-.877708">
        <ele>1098.180</ele>
        <time>2020-08-29T11:06:14Z</time>
      </trkpt>
      <trkpt lat="40.16172" lon="-.877632">
        <ele>1098.078</ele>
        <time>2020-08-29T11:06:15Z</time>
      </trkpt>
      <trkpt lat="40.161718" lon="-.877567">
        <ele>1098.028</ele>
        <time>2020-08-29T11:06:16Z</time>
      </trkpt>
      <trkpt lat="40.16172" lon="-.877499">
        <ele>1098.061</ele>
        <time>2020-08-29T11:06:17Z</time>
      </trkpt>
      <trkpt lat="40.161723" lon="-.877424">
        <ele>1097.821</ele>
        <time>2020-08-29T11:06:18Z</time>
      </trkpt>
      <trkpt lat="40.161726" lon="-.87736">
        <ele>1097.713</ele>
        <time>2020-08-29T11:06:19Z</time>
      </trkpt>
      <trkpt lat="40.161726" lon="-.877287">
        <ele>1097.708</ele>
        <time>2020-08-29T11:06:20Z</time>
      </trkpt>
      <trkpt lat="40.161722" lon="-.877214">
        <ele>1097.711</ele>
        <time>2020-08-29T11:06:21Z</time>
      </trkpt>
      <trkpt lat="40.161718" lon="-.877125">
        <ele>1097.781</ele>
        <time>2020-08-29T11:06:22Z</time>
      </trkpt>
      <trkpt lat="40.161713" lon="-.877043">
        <ele>1097.983</ele>
        <time>2020-08-29T11:06:23Z</time>
      </trkpt>
      <trkpt lat="40.16171" lon="-.876964">
        <ele>1098.195</ele>
        <time>2020-08-29T11:06:24Z</time>
      </trkpt>
      <trkpt lat="40.161713" lon="-.876893">
        <ele>1097.983</ele>
        <time>2020-08-29T11:06:25Z</time>
      </trkpt>
      <trkpt lat="40.161712" lon="-.876817">
        <ele>1097.960</ele>
        <time>2020-08-29T11:06:26Z</time>
      </trkpt>
      <trkpt lat="40.161711" lon="-.876744">
        <ele>1097.598</ele>
        <time>2020-08-29T11:06:27Z</time>
      </trkpt>
      <trkpt lat="40.161707" lon="-.876653">
        <ele>1097.278</ele>
        <time>2020-08-29T11:06:28Z</time>
      </trkpt>
      <trkpt lat="40.161717" lon="-.876575">
        <ele>1097.267</ele>
        <time>2020-08-29T11:06:29Z</time>
      </trkpt>
      <trkpt lat="40.161722" lon="-.876507">
        <ele>1097.181</ele>
        <time>2020-08-29T11:06:30Z</time>
      </trkpt>
      <trkpt lat="40.161709" lon="-.876429">
        <ele>1097.119</ele>
        <time>2020-08-29T11:06:31Z</time>
      </trkpt>
      <trkpt lat="40.161718" lon="-.876332">
        <ele>1097.208</ele>
        <time>2020-08-29T11:06:32Z</time>
      </trkpt>
      <trkpt lat="40.161715" lon="-.876237">
        <ele>1097.431</ele>
        <time>2020-08-29T11:06:33Z</time>
      </trkpt>
      <trkpt lat="40.161713" lon="-.876165">
        <ele>1097.431</ele>
        <time>2020-08-29T11:06:34Z</time>
      </trkpt>
      <trkpt lat="40.161714" lon="-.87609">
        <ele>1097.163</ele>
        <time>2020-08-29T11:06:35Z</time>
      </trkpt>
      <trkpt lat="40.161715" lon="-.876017">
        <ele>1096.965</ele>
        <time>2020-08-29T11:06:36Z</time>
      </trkpt>
      <trkpt lat="40.161719" lon="-.875935">
        <ele>1096.713</ele>
        <time>2020-08-29T11:06:37Z</time>
      </trkpt>
      <trkpt lat="40.161721" lon="-.87585">
        <ele>1096.790</ele>
        <time>2020-08-29T11:06:38Z</time>
      </trkpt>
      <trkpt lat="40.161725" lon="-.875771">
        <ele>1096.658</ele>
        <time>2020-08-29T11:06:39Z</time>
      </trkpt>
      <trkpt lat="40.161724" lon="-.875696">
        <ele>1096.528</ele>
        <time>2020-08-29T11:06:40Z</time>
      </trkpt>
      <trkpt lat="40.161719" lon="-.875619">
        <ele>1096.339</ele>
        <time>2020-08-29T11:06:41Z</time>
      </trkpt>
      <trkpt lat="40.161721" lon="-.875546">
        <ele>1096.201</ele>
        <time>2020-08-29T11:06:42Z</time>
      </trkpt>
      <trkpt lat="40.161723" lon="-.875479">
        <ele>1096.121</ele>
        <time>2020-08-29T11:06:43Z</time>
      </trkpt>
      <trkpt lat="40.161725" lon="-.875397">
        <ele>1096.008</ele>
        <time>2020-08-29T11:06:44Z</time>
      </trkpt>
      <trkpt lat="40.161727" lon="-.875325">
        <ele>1096.078</ele>
        <time>2020-08-29T11:06:45Z</time>
      </trkpt>
      <trkpt lat="40.161737" lon="-.875259">
        <ele>1096.068</ele>
        <time>2020-08-29T11:06:46Z</time>
      </trkpt>
      <trkpt lat="40.161742" lon="-.875191">
        <ele>1096.120</ele>
        <time>2020-08-29T11:06:47Z</time>
      </trkpt>
      <trkpt lat="40.161737" lon="-.875108">
        <ele>1096.062</ele>
        <time>2020-08-29T11:06:48Z</time>
      </trkpt>
      <trkpt lat="40.161737" lon="-.87504">
        <ele>1095.910</ele>
        <time>2020-08-29T11:06:49Z</time>
      </trkpt>
      <trkpt lat="40.161743" lon="-.87496">
        <ele>1095.777</ele>
        <time>2020-08-29T11:06:50Z</time>
      </trkpt>
      <trkpt lat="40.161747" lon="-.87489">
        <ele>1095.565</ele>
        <time>2020-08-29T11:06:51Z</time>
      </trkpt>
      <trkpt lat="40.161755" lon="-.874758">
        <ele>1095.215</ele>
        <time>2020-08-29T11:06:53Z</time>
      </trkpt>
      <trkpt lat="40.161769" lon="-.874655">
        <ele>1095.066</ele>
        <time>2020-08-29T11:06:55Z</time>
      </trkpt>
      <trkpt lat="40.161769" lon="-.874596">
        <ele>1095.029</ele>
        <time>2020-08-29T11:06:56Z</time>
      </trkpt>
      <trkpt lat="40.161762" lon="-.87452">
        <ele>1094.721</ele>
        <time>2020-08-29T11:06:57Z</time>
      </trkpt>
      <trkpt lat="40.161755" lon="-.874436">
        <ele>1094.608</ele>
        <time>2020-08-29T11:06:58Z</time>
      </trkpt>
      <trkpt lat="40.161745" lon="-.874366">
        <ele>1094.571</ele>
        <time>2020-08-29T11:06:59Z</time>
      </trkpt>
      <trkpt lat="40.161756" lon="-.874309">
        <ele>1094.681</ele>
        <time>2020-08-29T11:07:00Z</time>
      </trkpt>
      <trkpt lat="40.161777" lon="-.874214">
        <ele>1096.033</ele>
        <time>2020-08-29T11:07:02Z</time>
      </trkpt>
      <trkpt lat="40.161776" lon="-.874148">
        <ele>1096.045</ele>
        <time>2020-08-29T11:07:03Z</time>
      </trkpt>
      <trkpt lat="40.161778" lon="-.874067">
        <ele>1095.913</ele>
        <time>2020-08-29T11:07:04Z</time>
      </trkpt>
      <trkpt lat="40.161778" lon="-.873994">
        <ele>1095.890</ele>
        <time>2020-08-29T11:07:05Z</time>
      </trkpt>
      <trkpt lat="40.16178" lon="-.873926">
        <ele>1095.378</ele>
        <time>2020-08-29T11:07:06Z</time>
      </trkpt>
      <trkpt lat="40.161792" lon="-.873849">
        <ele>1095.068</ele>
        <time>2020-08-29T11:07:07Z</time>
      </trkpt>
      <trkpt lat="40.161786" lon="-.873776">
        <ele>1094.739</ele>
        <time>2020-08-29T11:07:08Z</time>
      </trkpt>
      <trkpt lat="40.161781" lon="-.873697">
        <ele>1094.601</ele>
        <time>2020-08-29T11:07:09Z</time>
      </trkpt>
      <trkpt lat="40.161778" lon="-.873611">
        <ele>1094.421</ele>
        <time>2020-08-29T11:07:10Z</time>
      </trkpt>
      <trkpt lat="40.161769" lon="-.873524">
        <ele>1094.308</ele>
        <time>2020-08-29T11:07:11Z</time>
      </trkpt>
      <trkpt lat="40.161771" lon="-.873439">
        <ele>1094.368</ele>
        <time>2020-08-29T11:07:12Z</time>
      </trkpt>
      <trkpt lat="40.161779" lon="-.873351">
        <ele>1094.238</ele>
        <time>2020-08-29T11:07:13Z</time>
      </trkpt>
      <trkpt lat="40.161786" lon="-.87327">
        <ele>1094.280</ele>
        <time>2020-08-29T11:07:14Z</time>
      </trkpt>
      <trkpt lat="40.161784" lon="-.873188">
        <ele>1094.242</ele>
        <time>2020-08-29T11:07:15Z</time>
      </trkpt>
      <trkpt lat="40.16178" lon="-.873107">
        <ele>1094.260</ele>
        <time>2020-08-29T11:07:16Z</time>
      </trkpt>
      <trkpt lat="40.161781" lon="-.873038">
        <ele>1094.247</ele>
        <time>2020-08-29T11:07:17Z</time>
      </trkpt>
      <trkpt lat="40.161779" lon="-.872967">
        <ele>1094.145</ele>
        <time>2020-08-29T11:07:18Z</time>
      </trkpt>
      <trkpt lat="40.161777" lon="-.872882">
        <ele>1094.185</ele>
        <time>2020-08-29T11:07:19Z</time>
      </trkpt>
      <trkpt lat="40.161775" lon="-.872799">
        <ele>1094.171</ele>
        <time>2020-08-29T11:07:20Z</time>
      </trkpt>
      <trkpt lat="40.16177" lon="-.872722">
        <ele>1093.941</ele>
        <time>2020-08-29T11:07:21Z</time>
      </trkpt>
      <trkpt lat="40.161772" lon="-.872645">
        <ele>1093.715</ele>
        <time>2020-08-29T11:07:22Z</time>
      </trkpt>
      <trkpt lat="40.161772" lon="-.872569">
        <ele>1093.508</ele>
        <time>2020-08-29T11:07:23Z</time>
      </trkpt>
      <trkpt lat="40.161773" lon="-.872493">
        <ele>1093.352</ele>
        <time>2020-08-29T11:07:24Z</time>
      </trkpt>
      <trkpt lat="40.16177" lon="-.872415">
        <ele>1093.022</ele>
        <time>2020-08-29T11:07:25Z</time>
      </trkpt>
      <trkpt lat="40.161767" lon="-.872334">
        <ele>1092.984</ele>
        <time>2020-08-29T11:07:26Z</time>
      </trkpt>
      <trkpt lat="40.161768" lon="-.872266">
        <ele>1092.956</ele>
        <time>2020-08-29T11:07:27Z</time>
      </trkpt>
      <trkpt lat="40.161764" lon="-.872191">
        <ele>1092.954</ele>
        <time>2020-08-29T11:07:28Z</time>
      </trkpt>
      <trkpt lat="40.161765" lon="-.872118">
        <ele>1092.541</ele>
        <time>2020-08-29T11:07:29Z</time>
      </trkpt>
      <trkpt lat="40.16176" lon="-.872046">
        <ele>1092.469</ele>
        <time>2020-08-29T11:07:30Z</time>
      </trkpt>
      <trkpt lat="40.161765" lon="-.871983">
        <ele>1092.299</ele>
        <time>2020-08-29T11:07:31Z</time>
      </trkpt>
      <trkpt lat="40.161766" lon="-.871923">
        <ele>1092.283</ele>
        <time>2020-08-29T11:07:32Z</time>
      </trkpt>
      <trkpt lat="40.161761" lon="-.871845">
        <ele>1092.225</ele>
        <time>2020-08-29T11:07:33Z</time>
      </trkpt>
      <trkpt lat="40.161754" lon="-.871758">
        <ele>1092.517</ele>
        <time>2020-08-29T11:07:34Z</time>
      </trkpt>
      <trkpt lat="40.16175" lon="-.871684">
        <ele>1092.508</ele>
        <time>2020-08-29T11:07:35Z</time>
      </trkpt>
      <trkpt lat="40.16175" lon="-.871608">
        <ele>1092.483</ele>
        <time>2020-08-29T11:07:36Z</time>
      </trkpt>
      <trkpt lat="40.161751" lon="-.871535">
        <ele>1092.463</ele>
        <time>2020-08-29T11:07:37Z</time>
      </trkpt>
      <trkpt lat="40.161757" lon="-.871456">
        <ele>1092.235</ele>
        <time>2020-08-29T11:07:38Z</time>
      </trkpt>
      <trkpt lat="40.161759" lon="-.871383">
        <ele>1091.997</ele>
        <time>2020-08-29T11:07:39Z</time>
      </trkpt>
      <trkpt lat="40.161767" lon="-.871299">
        <ele>1091.665</ele>
        <time>2020-08-29T11:07:40Z</time>
      </trkpt>
      <trkpt lat="40.161762" lon="-.871233">
        <ele>1091.612</ele>
        <time>2020-08-29T11:07:41Z</time>
      </trkpt>
      <trkpt lat="40.161769" lon="-.871163">
        <ele>1091.620</ele>
        <time>2020-08-29T11:07:42Z</time>
      </trkpt>
      <trkpt lat="40.161782" lon="-.871101">
        <ele>1091.560</ele>
        <time>2020-08-29T11:07:43Z</time>
      </trkpt>
      <trkpt lat="40.161792" lon="-.871026">
        <ele>1091.543</ele>
        <time>2020-08-29T11:07:44Z</time>
      </trkpt>
      <trkpt lat="40.16179" lon="-.870941">
        <ele>1091.164</ele>
        <time>2020-08-29T11:07:45Z</time>
      </trkpt>
      <trkpt lat="40.161786" lon="-.870868">
        <ele>1090.910</ele>
        <time>2020-08-29T11:07:46Z</time>
      </trkpt>
      <trkpt lat="40.161778" lon="-.870778">
        <ele>1090.808</ele>
        <time>2020-08-29T11:07:47Z</time>
      </trkpt>
      <trkpt lat="40.16178" lon="-.870694">
        <ele>1090.819</ele>
        <time>2020-08-29T11:07:48Z</time>
      </trkpt>
      <trkpt lat="40.161773" lon="-.870622">
        <ele>1090.899</ele>
        <time>2020-08-29T11:07:49Z</time>
      </trkpt>
      <trkpt lat="40.161763" lon="-.870554">
        <ele>1090.871</ele>
        <time>2020-08-29T11:07:50Z</time>
      </trkpt>
      <trkpt lat="40.161759" lon="-.870471">
        <ele>1090.853</ele>
        <time>2020-08-29T11:07:51Z</time>
      </trkpt>
      <trkpt lat="40.161759" lon="-.870393">
        <ele>1090.791</ele>
        <time>2020-08-29T11:07:52Z</time>
      </trkpt>
      <trkpt lat="40.16176" lon="-.870318">
        <ele>1090.518</ele>
        <time>2020-08-29T11:07:53Z</time>
      </trkpt>
      <trkpt lat="40.16176" lon="-.870244">
        <ele>1090.376</ele>
        <time>2020-08-29T11:07:54Z</time>
      </trkpt>
      <trkpt lat="40.16176" lon="-.870159">
        <ele>1090.366</ele>
        <time>2020-08-29T11:07:55Z</time>
      </trkpt>
      <trkpt lat="40.161768" lon="-.870076">
        <ele>1090.328</ele>
        <time>2020-08-29T11:07:56Z</time>
      </trkpt>
      <trkpt lat="40.161768" lon="-.869997">
        <ele>1090.389</ele>
        <time>2020-08-29T11:07:57Z</time>
      </trkpt>
      <trkpt lat="40.161771" lon="-.86992">
        <ele>1090.317</ele>
        <time>2020-08-29T11:07:58Z</time>
      </trkpt>
      <trkpt lat="40.161766" lon="-.869845">
        <ele>1090.308</ele>
        <time>2020-08-29T11:07:59Z</time>
      </trkpt>
      <trkpt lat="40.161762" lon="-.869768">
        <ele>1090.257</ele>
        <time>2020-08-29T11:08:00Z</time>
      </trkpt>
      <trkpt lat="40.161769" lon="-.869687">
        <ele>1090.197</ele>
        <time>2020-08-29T11:08:01Z</time>
      </trkpt>
      <trkpt lat="40.161774" lon="-.869608">
        <ele>1090.089</ele>
        <time>2020-08-29T11:08:02Z</time>
      </trkpt>
      <trkpt lat="40.161767" lon="-.869538">
        <ele>1089.971</ele>
        <time>2020-08-29T11:08:03Z</time>
      </trkpt>
      <trkpt lat="40.16176" lon="-.86941">
        <ele>1089.669</ele>
        <time>2020-08-29T11:08:05Z</time>
      </trkpt>
      <trkpt lat="40.161756" lon="-.869343">
        <ele>1089.546</ele>
        <time>2020-08-29T11:08:06Z</time>
      </trkpt>
      <trkpt lat="40.161751" lon="-.869273">
        <ele>1089.424</ele>
        <time>2020-08-29T11:08:07Z</time>
      </trkpt>
      <trkpt lat="40.161748" lon="-.869207">
        <ele>1089.374</ele>
        <time>2020-08-29T11:08:08Z</time>
      </trkpt>
      <trkpt lat="40.161744" lon="-.869138">
        <ele>1089.379</ele>
        <time>2020-08-29T11:08:09Z</time>
      </trkpt>
      <trkpt lat="40.161736" lon="-.869034">
        <ele>1089.205</ele>
        <time>2020-08-29T11:08:11Z</time>
      </trkpt>
      <trkpt lat="40.161719" lon="-.868972">
        <ele>1089.125</ele>
        <time>2020-08-29T11:08:12Z</time>
      </trkpt>
      <trkpt lat="40.161715" lon="-.868894">
        <ele>1089.008</ele>
        <time>2020-08-29T11:08:13Z</time>
      </trkpt>
      <trkpt lat="40.161712" lon="-.868818">
        <ele>1088.952</ele>
        <time>2020-08-29T11:08:14Z</time>
      </trkpt>
      <trkpt lat="40.1617" lon="-.868735">
        <ele>1088.892</ele>
        <time>2020-08-29T11:08:15Z</time>
      </trkpt>
      <trkpt lat="40.161686" lon="-.868641">
        <ele>1088.724</ele>
        <time>2020-08-29T11:08:16Z</time>
      </trkpt>
      <trkpt lat="40.161677" lon="-.868568">
        <ele>1088.396</ele>
        <time>2020-08-29T11:08:17Z</time>
      </trkpt>
      <trkpt lat="40.161673" lon="-.868484">
        <ele>1088.124</ele>
        <time>2020-08-29T11:08:18Z</time>
      </trkpt>
      <trkpt lat="40.16166" lon="-.868403">
        <ele>1088.191</ele>
        <time>2020-08-29T11:08:19Z</time>
      </trkpt>
      <trkpt lat="40.161641" lon="-.868305">
        <ele>1088.189</ele>
        <time>2020-08-29T11:08:20Z</time>
      </trkpt>
      <trkpt lat="40.161627" lon="-.868205">
        <ele>1088.189</ele>
        <time>2020-08-29T11:08:21Z</time>
      </trkpt>
      <trkpt lat="40.161616" lon="-.868119">
        <ele>1088.237</ele>
        <time>2020-08-29T11:08:22Z</time>
      </trkpt>
      <trkpt lat="40.161608" lon="-.868044">
        <ele>1088.249</ele>
        <time>2020-08-29T11:08:23Z</time>
      </trkpt>
      <trkpt lat="40.161593" lon="-.867969">
        <ele>1087.913</ele>
        <time>2020-08-29T11:08:24Z</time>
      </trkpt>
      <trkpt lat="40.161584" lon="-.86789">
        <ele>1087.808</ele>
        <time>2020-08-29T11:08:25Z</time>
      </trkpt>
      <trkpt lat="40.161569" lon="-.867811">
        <ele>1087.618</ele>
        <time>2020-08-29T11:08:26Z</time>
      </trkpt>
      <trkpt lat="40.161559" lon="-.867732">
        <ele>1087.638</ele>
        <time>2020-08-29T11:08:27Z</time>
      </trkpt>
      <trkpt lat="40.161546" lon="-.867635">
        <ele>1087.580</ele>
        <time>2020-08-29T11:08:28Z</time>
      </trkpt>
      <trkpt lat="40.161536" lon="-.867556">
        <ele>1087.392</ele>
        <time>2020-08-29T11:08:29Z</time>
      </trkpt>
      <trkpt lat="40.161519" lon="-.867475">
        <ele>1087.230</ele>
        <time>2020-08-29T11:08:30Z</time>
      </trkpt>
      <trkpt lat="40.161502" lon="-.86739">
        <ele>1087.247</ele>
        <time>2020-08-29T11:08:31Z</time>
      </trkpt>
      <trkpt lat="40.161492" lon="-.867317">
        <ele>1087.085</ele>
        <time>2020-08-29T11:08:32Z</time>
      </trkpt>
      <trkpt lat="40.16148" lon="-.867237">
        <ele>1087.095</ele>
        <time>2020-08-29T11:08:33Z</time>
      </trkpt>
      <trkpt lat="40.161463" lon="-.867157">
        <ele>1087.069</ele>
        <time>2020-08-29T11:08:34Z</time>
      </trkpt>
      <trkpt lat="40.161445" lon="-.867085">
        <ele>1086.904</ele>
        <time>2020-08-29T11:08:35Z</time>
      </trkpt>
      <trkpt lat="40.161432" lon="-.867021">
        <ele>1086.724</ele>
        <time>2020-08-29T11:08:36Z</time>
      </trkpt>
      <trkpt lat="40.16142" lon="-.866954">
        <ele>1086.608</ele>
        <time>2020-08-29T11:08:37Z</time>
      </trkpt>
      <trkpt lat="40.161405" lon="-.86688">
        <ele>1086.551</ele>
        <time>2020-08-29T11:08:38Z</time>
      </trkpt>
      <trkpt lat="40.161387" lon="-.866807">
        <ele>1086.511</ele>
        <time>2020-08-29T11:08:39Z</time>
      </trkpt>
      <trkpt lat="40.161373" lon="-.866732">
        <ele>1086.433</ele>
        <time>2020-08-29T11:08:40Z</time>
      </trkpt>
      <trkpt lat="40.161358" lon="-.866663">
        <ele>1086.325</ele>
        <time>2020-08-29T11:08:41Z</time>
      </trkpt>
      <trkpt lat="40.161345" lon="-.866586">
        <ele>1086.253</ele>
        <time>2020-08-29T11:08:42Z</time>
      </trkpt>
      <trkpt lat="40.161333" lon="-.866517">
        <ele>1086.190</ele>
        <time>2020-08-29T11:08:43Z</time>
      </trkpt>
      <trkpt lat="40.161322" lon="-.866455">
        <ele>1086.088</ele>
        <time>2020-08-29T11:08:44Z</time>
      </trkpt>
      <trkpt lat="40.16131" lon="-.86639">
        <ele>1086.028</ele>
        <time>2020-08-29T11:08:45Z</time>
      </trkpt>
      <trkpt lat="40.161296" lon="-.866279">
        <ele>1086.025</ele>
        <time>2020-08-29T11:08:47Z</time>
      </trkpt>
      <trkpt lat="40.161282" lon="-.866221">
        <ele>1086.026</ele>
        <time>2020-08-29T11:08:48Z</time>
      </trkpt>
      <trkpt lat="40.161272" lon="-.866157">
        <ele>1086.008</ele>
        <time>2020-08-29T11:08:49Z</time>
      </trkpt>
      <trkpt lat="40.161257" lon="-.866083">
        <ele>1085.908</ele>
        <time>2020-08-29T11:08:50Z</time>
      </trkpt>
      <trkpt lat="40.161246" lon="-.866021">
        <ele>1085.827</ele>
        <time>2020-08-29T11:08:51Z</time>
      </trkpt>
      <trkpt lat="40.161257" lon="-.86592">
        <ele>1085.587</ele>
        <time>2020-08-29T11:08:53Z</time>
      </trkpt>
      <trkpt lat="40.161251" lon="-.865859">
        <ele>1085.479</ele>
        <time>2020-08-29T11:08:54Z</time>
      </trkpt>
      <trkpt lat="40.161244" lon="-.8658">
        <ele>1085.391</ele>
        <time>2020-08-29T11:08:55Z</time>
      </trkpt>
      <trkpt lat="40.161234" lon="-.865695">
        <ele>1085.089</ele>
        <time>2020-08-29T11:08:57Z</time>
      </trkpt>
      <trkpt lat="40.161198" lon="-.865622">
        <ele>1084.976</ele>
        <time>2020-08-29T11:08:58Z</time>
      </trkpt>
      <trkpt lat="40.161172" lon="-.865536">
        <ele>1084.984</ele>
        <time>2020-08-29T11:08:59Z</time>
      </trkpt>
      <trkpt lat="40.161168" lon="-.865456">
        <ele>1084.954</ele>
        <time>2020-08-29T11:09:00Z</time>
      </trkpt>
      <trkpt lat="40.161156" lon="-.865344">
        <ele>1084.869</ele>
        <time>2020-08-29T11:09:02Z</time>
      </trkpt>
      <trkpt lat="40.161146" lon="-.865275">
        <ele>1084.704</ele>
        <time>2020-08-29T11:09:03Z</time>
      </trkpt>
      <trkpt lat="40.161139" lon="-.865203">
        <ele>1084.624</ele>
        <time>2020-08-29T11:09:04Z</time>
      </trkpt>
      <trkpt lat="40.161128" lon="-.865128">
        <ele>1084.308</ele>
        <time>2020-08-29T11:09:05Z</time>
      </trkpt>
      <trkpt lat="40.161103" lon="-.865036">
        <ele>1084.271</ele>
        <time>2020-08-29T11:09:06Z</time>
      </trkpt>
      <trkpt lat="40.161076" lon="-.864951">
        <ele>1084.091</ele>
        <time>2020-08-29T11:09:07Z</time>
      </trkpt>
      <trkpt lat="40.161054" lon="-.864877">
        <ele>1083.933</ele>
        <time>2020-08-29T11:09:08Z</time>
      </trkpt>
      <trkpt lat="40.161037" lon="-.864797">
        <ele>1083.865</ele>
        <time>2020-08-29T11:09:09Z</time>
      </trkpt>
      <trkpt lat="40.16102" lon="-.864729">
        <ele>1083.673</ele>
        <time>2020-08-29T11:09:10Z</time>
      </trkpt>
      <trkpt lat="40.160984" lon="-.86465">
        <ele>1083.610</ele>
        <time>2020-08-29T11:09:11Z</time>
      </trkpt>
      <trkpt lat="40.160947" lon="-.864577">
        <ele>1083.578</ele>
        <time>2020-08-29T11:09:12Z</time>
      </trkpt>
      <trkpt lat="40.160907" lon="-.864511">
        <ele>1083.468</ele>
        <time>2020-08-29T11:09:13Z</time>
      </trkpt>
      <trkpt lat="40.160872" lon="-.864445">
        <ele>1083.461</ele>
        <time>2020-08-29T11:09:14Z</time>
      </trkpt>
      <trkpt lat="40.160849" lon="-.864376">
        <ele>1083.421</ele>
        <time>2020-08-29T11:09:15Z</time>
      </trkpt>
      <trkpt lat="40.160794" lon="-.86429">
        <ele>1083.213</ele>
        <time>2020-08-29T11:09:16Z</time>
      </trkpt>
      <trkpt lat="40.160748" lon="-.864226">
        <ele>1083.208</ele>
        <time>2020-08-29T11:09:17Z</time>
      </trkpt>
      <trkpt lat="40.160712" lon="-.864166">
        <ele>1083.231</ele>
        <time>2020-08-29T11:09:18Z</time>
      </trkpt>
      <trkpt lat="40.160673" lon="-.864111">
        <ele>1083.011</ele>
        <time>2020-08-29T11:09:19Z</time>
      </trkpt>
      <trkpt lat="40.160639" lon="-.864058">
        <ele>1082.983</ele>
        <time>2020-08-29T11:09:20Z</time>
      </trkpt>
      <trkpt lat="40.160603" lon="-.864013">
        <ele>1082.935</ele>
        <time>2020-08-29T11:09:21Z</time>
      </trkpt>
      <trkpt lat="40.160544" lon="-.863922">
        <ele>1082.873</ele>
        <time>2020-08-29T11:09:23Z</time>
      </trkpt>
      <trkpt lat="40.160481" lon="-.863859">
        <ele>1082.690</ele>
        <time>2020-08-29T11:09:25Z</time>
      </trkpt>
      <trkpt lat="40.160449" lon="-.863806">
        <ele>1082.578</ele>
        <time>2020-08-29T11:09:26Z</time>
      </trkpt>
      <trkpt lat="40.160414" lon="-.863764">
        <ele>1082.448</ele>
        <time>2020-08-29T11:09:27Z</time>
      </trkpt>
      <trkpt lat="40.160345" lon="-.863683">
        <ele>1082.397</ele>
        <time>2020-08-29T11:09:29Z</time>
      </trkpt>
      <trkpt lat="40.160281" lon="-.863624">
        <ele>1082.323</ele>
        <time>2020-08-29T11:09:31Z</time>
      </trkpt>
      <trkpt lat="40.160218" lon="-.863579">
        <ele>1082.325</ele>
        <time>2020-08-29T11:09:33Z</time>
      </trkpt>
      <trkpt lat="40.160183" lon="-.863542">
        <ele>1082.208</ele>
        <time>2020-08-29T11:09:34Z</time>
      </trkpt>
      <trkpt lat="40.160125" lon="-.863474">
        <ele>1082.154</ele>
        <time>2020-08-29T11:09:36Z</time>
      </trkpt>
      <trkpt lat="40.160044" lon="-.863446">
        <ele>1081.984</ele>
        <time>2020-08-29T11:09:38Z</time>
      </trkpt>
      <trkpt lat="40.159981" lon="-.863396">
        <ele>1081.946</ele>
        <time>2020-08-29T11:09:40Z</time>
      </trkpt>
      <trkpt lat="40.159924" lon="-.863374">
        <ele>1081.768</ele>
        <time>2020-08-29T11:09:42Z</time>
      </trkpt>
      <trkpt lat="40.15986" lon="-.863353">
        <ele>1081.446</ele>
        <time>2020-08-29T11:09:44Z</time>
      </trkpt>
      <trkpt lat="40.159809" lon="-.863334">
        <ele>1081.363</ele>
        <time>2020-08-29T11:09:46Z</time>
      </trkpt>
      <trkpt lat="40.159752" lon="-.863305">
        <ele>1081.281</ele>
        <time>2020-08-29T11:09:48Z</time>
      </trkpt>
      <trkpt lat="40.159696" lon="-.863274">
        <ele>1081.181</ele>
        <time>2020-08-29T11:09:50Z</time>
      </trkpt>
      <trkpt lat="40.159644" lon="-.863243">
        <ele>1080.917</ele>
        <time>2020-08-29T11:09:52Z</time>
      </trkpt>
      <trkpt lat="40.15958" lon="-.863244">
        <ele>1080.887</ele>
        <time>2020-08-29T11:09:54Z</time>
      </trkpt>
      <trkpt lat="40.159517" lon="-.863231">
        <ele>1080.715</ele>
        <time>2020-08-29T11:09:56Z</time>
      </trkpt>
      <trkpt lat="40.159459" lon="-.863226">
        <ele>1080.708</ele>
        <time>2020-08-29T11:09:58Z</time>
      </trkpt>
      <trkpt lat="40.159399" lon="-.863218">
        <ele>1080.786</ele>
        <time>2020-08-29T11:10:00Z</time>
      </trkpt>
      <trkpt lat="40.159334" lon="-.863213">
        <ele>1080.866</ele>
        <time>2020-08-29T11:10:02Z</time>
      </trkpt>
      <trkpt lat="40.159273" lon="-.863211">
        <ele>1080.828</ele>
        <time>2020-08-29T11:10:04Z</time>
      </trkpt>
      <trkpt lat="40.15921" lon="-.863206">
        <ele>1080.630</ele>
        <time>2020-08-29T11:10:06Z</time>
      </trkpt>
      <trkpt lat="40.15914" lon="-.863199">
        <ele>1080.418</ele>
        <time>2020-08-29T11:10:08Z</time>
      </trkpt>
      <trkpt lat="40.159076" lon="-.863206">
        <ele>1080.375</ele>
        <time>2020-08-29T11:10:10Z</time>
      </trkpt>
      <trkpt lat="40.159019" lon="-.863217">
        <ele>1080.353</ele>
        <time>2020-08-29T11:10:12Z</time>
      </trkpt>
      <trkpt lat="40.158958" lon="-.863225">
        <ele>1080.193</ele>
        <time>2020-08-29T11:10:14Z</time>
      </trkpt>
      <trkpt lat="40.158887" lon="-.863238">
        <ele>1079.998</ele>
        <time>2020-08-29T11:10:16Z</time>
      </trkpt>
      <trkpt lat="40.158822" lon="-.863247">
        <ele>1079.915</ele>
        <time>2020-08-29T11:10:18Z</time>
      </trkpt>
      <trkpt lat="40.158759" lon="-.863251">
        <ele>1080.026</ele>
        <time>2020-08-29T11:10:20Z</time>
      </trkpt>
      <trkpt lat="40.158687" lon="-.863264">
        <ele>1079.808</ele>
        <time>2020-08-29T11:10:22Z</time>
      </trkpt>
      <trkpt lat="40.158624" lon="-.863277">
        <ele>1079.434</ele>
        <time>2020-08-29T11:10:24Z</time>
      </trkpt>
      <trkpt lat="40.158562" lon="-.863291">
        <ele>1079.264</ele>
        <time>2020-08-29T11:10:26Z</time>
      </trkpt>
      <trkpt lat="40.158485" lon="-.863317">
        <ele>1079.116</ele>
        <time>2020-08-29T11:10:28Z</time>
      </trkpt>
      <trkpt lat="40.15842" lon="-.863327">
        <ele>1079.048</ele>
        <time>2020-08-29T11:10:30Z</time>
      </trkpt>
      <trkpt lat="40.158349" lon="-.863348">
        <ele>1078.916</ele>
        <time>2020-08-29T11:10:32Z</time>
      </trkpt>
      <trkpt lat="40.158273" lon="-.863371">
        <ele>1078.793</ele>
        <time>2020-08-29T11:10:34Z</time>
      </trkpt>
      <trkpt lat="40.158206" lon="-.863375">
        <ele>1078.641</ele>
        <time>2020-08-29T11:10:36Z</time>
      </trkpt>
      <trkpt lat="40.15813" lon="-.86339">
        <ele>1078.631</ele>
        <time>2020-08-29T11:10:38Z</time>
      </trkpt>
      <trkpt lat="40.158063" lon="-.863413">
        <ele>1078.635</ele>
        <time>2020-08-29T11:10:40Z</time>
      </trkpt>
      <trkpt lat="40.157995" lon="-.863418">
        <ele>1078.686</ele>
        <time>2020-08-29T11:10:42Z</time>
      </trkpt>
      <trkpt lat="40.157927" lon="-.86344">
        <ele>1078.414</ele>
        <time>2020-08-29T11:10:44Z</time>
      </trkpt>
      <trkpt lat="40.157859" lon="-.863457">
        <ele>1078.408</ele>
        <time>2020-08-29T11:10:46Z</time>
      </trkpt>
      <trkpt lat="40.157785" lon="-.863479">
        <ele>1078.498</ele>
        <time>2020-08-29T11:10:48Z</time>
      </trkpt>
      <trkpt lat="40.157726" lon="-.863487">
        <ele>1078.478</ele>
        <time>2020-08-29T11:10:50Z</time>
      </trkpt>
      <trkpt lat="40.157664" lon="-.8635">
        <ele>1078.150</ele>
        <time>2020-08-29T11:10:52Z</time>
      </trkpt>
      <trkpt lat="40.157594" lon="-.863515">
        <ele>1077.812</ele>
        <time>2020-08-29T11:10:54Z</time>
      </trkpt>
      <trkpt lat="40.157539" lon="-.863531">
        <ele>1077.650</ele>
        <time>2020-08-29T11:10:56Z</time>
      </trkpt>
      <trkpt lat="40.157477" lon="-.86354">
        <ele>1077.527</ele>
        <time>2020-08-29T11:10:58Z</time>
      </trkpt>
      <trkpt lat="40.157413" lon="-.86355">
        <ele>1077.495</ele>
        <time>2020-08-29T11:11:00Z</time>
      </trkpt>
      <trkpt lat="40.157335" lon="-.863581">
        <ele>1077.255</ele>
        <time>2020-08-29T11:11:02Z</time>
      </trkpt>
      <trkpt lat="40.157257" lon="-.863596">
        <ele>1077.325</ele>
        <time>2020-08-29T11:11:04Z</time>
      </trkpt>
      <trkpt lat="40.157178" lon="-.863608">
        <ele>1077.226</ele>
        <time>2020-08-29T11:11:06Z</time>
      </trkpt>
      <trkpt lat="40.1571" lon="-.86363">
        <ele>1077.208</ele>
        <time>2020-08-29T11:11:08Z</time>
      </trkpt>
      <trkpt lat="40.157022" lon="-.863633">
        <ele>1077.108</ele>
        <time>2020-08-29T11:11:10Z</time>
      </trkpt>
      <trkpt lat="40.156939" lon="-.863647">
        <ele>1076.967</ele>
        <time>2020-08-29T11:11:12Z</time>
      </trkpt>
      <trkpt lat="40.156852" lon="-.863664">
        <ele>1076.847</ele>
        <time>2020-08-29T11:11:14Z</time>
      </trkpt>
      <trkpt lat="40.156778" lon="-.86367">
        <ele>1076.789</ele>
        <time>2020-08-29T11:11:16Z</time>
      </trkpt>
      <trkpt lat="40.156698" lon="-.863669">
        <ele>1076.791</ele>
        <time>2020-08-29T11:11:18Z</time>
      </trkpt>
      <trkpt lat="40.156618" lon="-.863676">
        <ele>1076.729</ele>
        <time>2020-08-29T11:11:20Z</time>
      </trkpt>
      <trkpt lat="40.156534" lon="-.863664">
        <ele>1076.846</ele>
        <time>2020-08-29T11:11:22Z</time>
      </trkpt>
      <trkpt lat="40.156486" lon="-.863666">
        <ele>1076.654</ele>
        <time>2020-08-29T11:11:23Z</time>
      </trkpt>
      <trkpt lat="40.156407" lon="-.863659">
        <ele>1076.684</ele>
        <time>2020-08-29T11:11:25Z</time>
      </trkpt>
      <trkpt lat="40.156339" lon="-.86364">
        <ele>1076.433</ele>
        <time>2020-08-29T11:11:27Z</time>
      </trkpt>
      <trkpt lat="40.156292" lon="-.863633">
        <ele>1076.423</ele>
        <time>2020-08-29T11:11:28Z</time>
      </trkpt>
      <trkpt lat="40.156216" lon="-.863609">
        <ele>1076.615</ele>
        <time>2020-08-29T11:11:30Z</time>
      </trkpt>
      <trkpt lat="40.156132" lon="-.863592">
        <ele>1076.608</ele>
        <time>2020-08-29T11:11:32Z</time>
      </trkpt>
      <trkpt lat="40.15605" lon="-.863575">
        <ele>1076.528</ele>
        <time>2020-08-29T11:11:34Z</time>
      </trkpt>
      <trkpt lat="40.156003" lon="-.863565">
        <ele>1076.578</ele>
        <time>2020-08-29T11:11:35Z</time>
      </trkpt>
      <trkpt lat="40.155934" lon="-.863536">
        <ele>1076.790</ele>
        <time>2020-08-29T11:11:37Z</time>
      </trkpt>
      <trkpt lat="40.155856" lon="-.863521">
        <ele>1076.482</ele>
        <time>2020-08-29T11:11:39Z</time>
      </trkpt>
      <trkpt lat="40.155788" lon="-.863507">
        <ele>1076.270</ele>
        <time>2020-08-29T11:11:41Z</time>
      </trkpt>
      <trkpt lat="40.155725" lon="-.863478">
        <ele>1076.287</ele>
        <time>2020-08-29T11:11:43Z</time>
      </trkpt>
      <trkpt lat="40.155663" lon="-.863454">
        <ele>1076.135</ele>
        <time>2020-08-29T11:11:45Z</time>
      </trkpt>
      <trkpt lat="40.155607" lon="-.863418">
        <ele>1075.845</ele>
        <time>2020-08-29T11:11:47Z</time>
      </trkpt>
      <trkpt lat="40.155537" lon="-.863371">
        <ele>1075.744</ele>
        <time>2020-08-29T11:11:49Z</time>
      </trkpt>
      <trkpt lat="40.155468" lon="-.86333">
        <ele>1075.605</ele>
        <time>2020-08-29T11:11:51Z</time>
      </trkpt>
      <trkpt lat="40.155416" lon="-.863311">
        <ele>1075.415</ele>
        <time>2020-08-29T11:11:53Z</time>
      </trkpt>
      <trkpt lat="40.155354" lon="-.863258">
        <ele>1075.708</ele>
        <time>2020-08-29T11:11:55Z</time>
      </trkpt>
      <trkpt lat="40.15528" lon="-.86322">
        <ele>1075.579</ele>
        <time>2020-08-29T11:11:57Z</time>
      </trkpt>
      <trkpt lat="40.155238" lon="-.863179">
        <ele>1075.599</ele>
        <time>2020-08-29T11:11:58Z</time>
      </trkpt>
      <trkpt lat="40.155192" lon="-.863149">
        <ele>1075.411</ele>
        <time>2020-08-29T11:11:59Z</time>
      </trkpt>
      <trkpt lat="40.155124" lon="-.863089">
        <ele>1075.373</ele>
        <time>2020-08-29T11:12:01Z</time>
      </trkpt>
      <trkpt lat="40.155061" lon="-.863027">
        <ele>1075.321</ele>
        <time>2020-08-29T11:12:03Z</time>
      </trkpt>
      <trkpt lat="40.155019" lon="-.863003">
        <ele>1075.248</ele>
        <time>2020-08-29T11:12:04Z</time>
      </trkpt>
      <trkpt lat="40.154975" lon="-.862981">
        <ele>1075.276</ele>
        <time>2020-08-29T11:12:05Z</time>
      </trkpt>
      <trkpt lat="40.154896" lon="-.862936">
        <ele>1074.796</ele>
        <time>2020-08-29T11:12:07Z</time>
      </trkpt>
      <trkpt lat="40.154851" lon="-.862912">
        <ele>1074.949</ele>
        <time>2020-08-29T11:12:08Z</time>
      </trkpt>
      <trkpt lat="40.1548" lon="-.86288">
        <ele>1074.902</ele>
        <time>2020-08-29T11:12:09Z</time>
      </trkpt>
      <trkpt lat="40.154754" lon="-.862852">
        <ele>1075.422</ele>
        <time>2020-08-29T11:12:10Z</time>
      </trkpt>
      <trkpt lat="40.154665" lon="-.862795">
        <ele>1074.708</ele>
        <time>2020-08-29T11:12:12Z</time>
      </trkpt>
      <trkpt lat="40.154624" lon="-.862765">
        <ele>1074.719</ele>
        <time>2020-08-29T11:12:13Z</time>
      </trkpt>
      <trkpt lat="40.154577" lon="-.862742">
        <ele>1074.959</ele>
        <time>2020-08-29T11:12:14Z</time>
      </trkpt>
      <trkpt lat="40.15452" lon="-.862699">
        <ele>1075.011</ele>
        <time>2020-08-29T11:12:15Z</time>
      </trkpt>
      <trkpt lat="40.154478" lon="-.862658">
        <ele>1075.443</ele>
        <time>2020-08-29T11:12:16Z</time>
      </trkpt>
      <trkpt lat="40.154419" lon="-.862622">
        <ele>1074.881</ele>
        <time>2020-08-29T11:12:17Z</time>
      </trkpt>
      <trkpt lat="40.154372" lon="-.862597">
        <ele>1074.718</ele>
        <time>2020-08-29T11:12:18Z</time>
      </trkpt>
      <trkpt lat="40.154314" lon="-.862569">
        <ele>1074.656</ele>
        <time>2020-08-29T11:12:19Z</time>
      </trkpt>
      <trkpt lat="40.154275" lon="-.862527">
        <ele>1074.446</ele>
        <time>2020-08-29T11:12:20Z</time>
      </trkpt>
      <trkpt lat="40.154228" lon="-.862498">
        <ele>1074.253</ele>
        <time>2020-08-29T11:12:21Z</time>
      </trkpt>
      <trkpt lat="40.154178" lon="-.862465">
        <ele>1074.204</ele>
        <time>2020-08-29T11:12:22Z</time>
      </trkpt>
      <trkpt lat="40.154124" lon="-.86244">
        <ele>1074.014</ele>
        <time>2020-08-29T11:12:23Z</time>
      </trkpt>
      <trkpt lat="40.154076" lon="-.86241">
        <ele>1074.008</ele>
        <time>2020-08-29T11:12:24Z</time>
      </trkpt>
      <trkpt lat="40.15402" lon="-.862376">
        <ele>1073.950</ele>
        <time>2020-08-29T11:12:25Z</time>
      </trkpt>
      <trkpt lat="40.153967" lon="-.862336">
        <ele>1073.920</ele>
        <time>2020-08-29T11:12:26Z</time>
      </trkpt>
      <trkpt lat="40.153919" lon="-.862307">
        <ele>1073.962</ele>
        <time>2020-08-29T11:12:27Z</time>
      </trkpt>
      <trkpt lat="40.153875" lon="-.862271">
        <ele>1073.864</ele>
        <time>2020-08-29T11:12:28Z</time>
      </trkpt>
      <trkpt lat="40.153832" lon="-.862232">
        <ele>1073.882</ele>
        <time>2020-08-29T11:12:29Z</time>
      </trkpt>
      <trkpt lat="40.153796" lon="-.862194">
        <ele>1073.989</ele>
        <time>2020-08-29T11:12:30Z</time>
      </trkpt>
      <trkpt lat="40.153746" lon="-.862147">
        <ele>1073.917</ele>
        <time>2020-08-29T11:12:31Z</time>
      </trkpt>
      <trkpt lat="40.153699" lon="-.862099">
        <ele>1073.957</ele>
        <time>2020-08-29T11:12:32Z</time>
      </trkpt>
      <trkpt lat="40.15366" lon="-.862059">
        <ele>1074.062</ele>
        <time>2020-08-29T11:12:33Z</time>
      </trkpt>
      <trkpt lat="40.153622" lon="-.862011">
        <ele>1074.283</ele>
        <time>2020-08-29T11:12:34Z</time>
      </trkpt>
      <trkpt lat="40.153583" lon="-.861966">
        <ele>1074.411</ele>
        <time>2020-08-29T11:12:35Z</time>
      </trkpt>
      <trkpt lat="40.153546" lon="-.861913">
        <ele>1074.408</ele>
        <time>2020-08-29T11:12:36Z</time>
      </trkpt>
      <trkpt lat="40.153508" lon="-.861864">
        <ele>1074.251</ele>
        <time>2020-08-29T11:12:37Z</time>
      </trkpt>
      <trkpt lat="40.153478" lon="-.861819">
        <ele>1073.991</ele>
        <time>2020-08-29T11:12:38Z</time>
      </trkpt>
      <trkpt lat="40.153445" lon="-.861777">
        <ele>1073.983</ele>
        <time>2020-08-29T11:12:39Z</time>
      </trkpt>
      <trkpt lat="40.153415" lon="-.861718">
        <ele>1073.845</ele>
        <time>2020-08-29T11:12:40Z</time>
      </trkpt>
      <trkpt lat="40.153382" lon="-.861663">
        <ele>1073.793</ele>
        <time>2020-08-29T11:12:41Z</time>
      </trkpt>
      <trkpt lat="40.153352" lon="-.861612">
        <ele>1073.690</ele>
        <time>2020-08-29T11:12:42Z</time>
      </trkpt>
      <trkpt lat="40.153324" lon="-.861561">
        <ele>1073.598</ele>
        <time>2020-08-29T11:12:43Z</time>
      </trkpt>
      <trkpt lat="40.153281" lon="-.861466">
        <ele>1073.388</ele>
        <time>2020-08-29T11:12:45Z</time>
      </trkpt>
      <trkpt lat="40.153248" lon="-.861367">
        <ele>1073.237</ele>
        <time>2020-08-29T11:12:47Z</time>
      </trkpt>
      <trkpt lat="40.15323" lon="-.861312">
        <ele>1073.149</ele>
        <time>2020-08-29T11:12:48Z</time>
      </trkpt>
      <trkpt lat="40.153186" lon="-.861205">
        <ele>1072.813</ele>
        <time>2020-08-29T11:12:50Z</time>
      </trkpt>
      <trkpt lat="40.15316" lon="-.861141">
        <ele>1072.808</ele>
        <time>2020-08-29T11:12:51Z</time>
      </trkpt>
      <trkpt lat="40.15313" lon="-.861032">
        <ele>1072.768</ele>
        <time>2020-08-29T11:12:53Z</time>
      </trkpt>
      <trkpt lat="40.153117" lon="-.860974">
        <ele>1072.788</ele>
        <time>2020-08-29T11:12:54Z</time>
      </trkpt>
      <trkpt lat="40.153104" lon="-.860887">
        <ele>1072.320</ele>
        <time>2020-08-29T11:12:56Z</time>
      </trkpt>
      <trkpt lat="40.153092" lon="-.860789">
        <ele>1072.372</ele>
        <time>2020-08-29T11:12:58Z</time>
      </trkpt>
      <trkpt lat="40.153086" lon="-.860727">
        <ele>1072.440</ele>
        <time>2020-08-29T11:12:59Z</time>
      </trkpt>
      <trkpt lat="40.153084" lon="-.860659">
        <ele>1072.487</ele>
        <time>2020-08-29T11:13:00Z</time>
      </trkpt>
      <trkpt lat="40.153079" lon="-.860597">
        <ele>1072.465</ele>
        <time>2020-08-29T11:13:01Z</time>
      </trkpt>
      <trkpt lat="40.153069" lon="-.860536">
        <ele>1072.235</ele>
        <time>2020-08-29T11:13:02Z</time>
      </trkpt>
      <trkpt lat="40.153066" lon="-.860476">
        <ele>1072.152</ele>
        <time>2020-08-29T11:13:03Z</time>
      </trkpt>
      <trkpt lat="40.153061" lon="-.860364">
        <ele>1072.053</ele>
        <time>2020-08-29T11:13:05Z</time>
      </trkpt>
      <trkpt lat="40.153052" lon="-.860304">
        <ele>1072.008</ele>
        <time>2020-08-29T11:13:06Z</time>
      </trkpt>
      <trkpt lat="40.153051" lon="-.860237">
        <ele>1072.108</ele>
        <time>2020-08-29T11:13:07Z</time>
      </trkpt>
      <trkpt lat="40.153043" lon="-.860177">
        <ele>1072.150</ele>
        <time>2020-08-29T11:13:08Z</time>
      </trkpt>
      <trkpt lat="40.153041" lon="-.86011">
        <ele>1072.190</ele>
        <time>2020-08-29T11:13:09Z</time>
      </trkpt>
      <trkpt lat="40.153037" lon="-.859987">
        <ele>1072.142</ele>
        <time>2020-08-29T11:13:11Z</time>
      </trkpt>
      <trkpt lat="40.153036" lon="-.859862">
        <ele>1071.734</ele>
        <time>2020-08-29T11:13:13Z</time>
      </trkpt>
      <trkpt lat="40.153029" lon="-.859792">
        <ele>1071.872</ele>
        <time>2020-08-29T11:13:14Z</time>
      </trkpt>
      <trkpt lat="40.153028" lon="-.859731">
        <ele>1072.369</ele>
        <time>2020-08-29T11:13:15Z</time>
      </trkpt>
      <trkpt lat="40.153033" lon="-.859672">
        <ele>1072.377</ele>
        <time>2020-08-29T11:13:16Z</time>
      </trkpt>
      <trkpt lat="40.153033" lon="-.859613">
        <ele>1071.617</ele>
        <time>2020-08-29T11:13:17Z</time>
      </trkpt>
      <trkpt lat="40.153029" lon="-.859548">
        <ele>1071.351</ele>
        <time>2020-08-29T11:13:18Z</time>
      </trkpt>
      <trkpt lat="40.15303" lon="-.859482">
        <ele>1071.301</ele>
        <time>2020-08-29T11:13:19Z</time>
      </trkpt>
      <trkpt lat="40.153031" lon="-.85942">
        <ele>1071.711</ele>
        <time>2020-08-29T11:13:20Z</time>
      </trkpt>
      <trkpt lat="40.153019" lon="-.859291">
        <ele>1072.208</ele>
        <time>2020-08-29T11:13:22Z</time>
      </trkpt>
      <trkpt lat="40.153012" lon="-.859224">
        <ele>1072.220</ele>
        <time>2020-08-29T11:13:23Z</time>
      </trkpt>
      <trkpt lat="40.153" lon="-.85916">
        <ele>1071.250</ele>
        <time>2020-08-29T11:13:24Z</time>
      </trkpt>
      <trkpt lat="40.152984" lon="-.859104">
        <ele>1071.242</ele>
        <time>2020-08-29T11:13:25Z</time>
      </trkpt>
      <trkpt lat="40.152976" lon="-.859043">
        <ele>1071.314</ele>
        <time>2020-08-29T11:13:26Z</time>
      </trkpt>
      <trkpt lat="40.15298" lon="-.858952">
        <ele>1071.362</ele>
        <time>2020-08-29T11:13:28Z</time>
      </trkpt>
      <trkpt lat="40.152965" lon="-.858884">
        <ele>1072.549</ele>
        <time>2020-08-29T11:13:29Z</time>
      </trkpt>
      <trkpt lat="40.152967" lon="-.858825">
        <ele>1072.557</ele>
        <time>2020-08-29T11:13:30Z</time>
      </trkpt>
      <trkpt lat="40.152964" lon="-.858748">
        <ele>1072.217</ele>
        <time>2020-08-29T11:13:31Z</time>
      </trkpt>
      <trkpt lat="40.152962" lon="-.858682">
        <ele>1072.246</ele>
        <time>2020-08-29T11:13:32Z</time>
      </trkpt>
      <trkpt lat="40.152959" lon="-.858615">
        <ele>1071.888</ele>
        <time>2020-08-29T11:13:33Z</time>
      </trkpt>
      <trkpt lat="40.152937" lon="-.858553">
        <ele>1071.816</ele>
        <time>2020-08-29T11:13:34Z</time>
      </trkpt>
      <trkpt lat="40.152918" lon="-.858442">
        <ele>1072.108</ele>
        <time>2020-08-29T11:13:36Z</time>
      </trkpt>
      <trkpt lat="40.15292" lon="-.858325">
        <ele>1072.159</ele>
        <time>2020-08-29T11:13:38Z</time>
      </trkpt>
      <trkpt lat="40.152905" lon="-.858266">
        <ele>1071.669</ele>
        <time>2020-08-29T11:13:39Z</time>
      </trkpt>
      <trkpt lat="40.152884" lon="-.858185">
        <ele>1071.541</ele>
        <time>2020-08-29T11:13:41Z</time>
      </trkpt>
      <trkpt lat="40.152854" lon="-.858118">
        <ele>1071.563</ele>
        <time>2020-08-29T11:13:42Z</time>
      </trkpt>
      <trkpt lat="40.152818" lon="-.858042">
        <ele>1071.561</ele>
        <time>2020-08-29T11:13:43Z</time>
      </trkpt>
      <trkpt lat="40.152796" lon="-.857972">
        <ele>1071.598</ele>
        <time>2020-08-29T11:13:44Z</time>
      </trkpt>
      <trkpt lat="40.152756" lon="-.85786">
        <ele>1071.236</ele>
        <time>2020-08-29T11:13:46Z</time>
      </trkpt>
      <trkpt lat="40.152727" lon="-.857764">
        <ele>1070.886</ele>
        <time>2020-08-29T11:13:48Z</time>
      </trkpt>
      <trkpt lat="40.152692" lon="-.857697">
        <ele>1070.991</ele>
        <time>2020-08-29T11:13:49Z</time>
      </trkpt>
      <trkpt lat="40.152665" lon="-.857629">
        <ele>1071.081</ele>
        <time>2020-08-29T11:13:50Z</time>
      </trkpt>
      <trkpt lat="40.152646" lon="-.857567">
        <ele>1071.119</ele>
        <time>2020-08-29T11:13:51Z</time>
      </trkpt>
      <trkpt lat="40.152614" lon="-.85749">
        <ele>1071.108</ele>
        <time>2020-08-29T11:13:52Z</time>
      </trkpt>
      <trkpt lat="40.15257" lon="-.857426">
        <ele>1071.184</ele>
        <time>2020-08-29T11:13:53Z</time>
      </trkpt>
      <trkpt lat="40.152538" lon="-.857378">
        <ele>1071.034</ele>
        <time>2020-08-29T11:13:54Z</time>
      </trkpt>
      <trkpt lat="40.152511" lon="-.857298">
        <ele>1070.786</ele>
        <time>2020-08-29T11:13:55Z</time>
      </trkpt>
      <trkpt lat="40.152494" lon="-.85723">
        <ele>1070.718</ele>
        <time>2020-08-29T11:13:56Z</time>
      </trkpt>
      <trkpt lat="40.152454" lon="-.857158">
        <ele>1070.626</ele>
        <time>2020-08-29T11:13:57Z</time>
      </trkpt>
      <trkpt lat="40.152409" lon="-.8571">
        <ele>1070.693</ele>
        <time>2020-08-29T11:13:58Z</time>
      </trkpt>
      <trkpt lat="40.152372" lon="-.85704">
        <ele>1070.531</ele>
        <time>2020-08-29T11:13:59Z</time>
      </trkpt>
      <trkpt lat="40.152333" lon="-.856978">
        <ele>1070.411</ele>
        <time>2020-08-29T11:14:00Z</time>
      </trkpt>
      <trkpt lat="40.152306" lon="-.856909">
        <ele>1070.455</ele>
        <time>2020-08-29T11:14:01Z</time>
      </trkpt>
      <trkpt lat="40.152274" lon="-.856858">
        <ele>1070.207</ele>
        <time>2020-08-29T11:14:02Z</time>
      </trkpt>
      <trkpt lat="40.152246" lon="-.856797">
        <ele>1070.117</ele>
        <time>2020-08-29T11:14:03Z</time>
      </trkpt>
      <trkpt lat="40.152207" lon="-.856733">
        <ele>1070.108</ele>
        <time>2020-08-29T11:14:04Z</time>
      </trkpt>
      <trkpt lat="40.152178" lon="-.85667">
        <ele>1070.140</ele>
        <time>2020-08-29T11:14:05Z</time>
      </trkpt>
      <trkpt lat="40.15215" lon="-.856601">
        <ele>1070.160</ele>
        <time>2020-08-29T11:14:06Z</time>
      </trkpt>
      <trkpt lat="40.152126" lon="-.856541">
        <ele>1069.962</ele>
        <time>2020-08-29T11:14:07Z</time>
      </trkpt>
      <trkpt lat="40.15209" lon="-.856491">
        <ele>1069.874</ele>
        <time>2020-08-29T11:14:08Z</time>
      </trkpt>
      <trkpt lat="40.152061" lon="-.856418">
        <ele>1069.752</ele>
        <time>2020-08-29T11:14:09Z</time>
      </trkpt>
      <trkpt lat="40.152035" lon="-.856339">
        <ele>1069.679</ele>
        <time>2020-08-29T11:14:10Z</time>
      </trkpt>
      <trkpt lat="40.152" lon="-.856274">
        <ele>1069.317</ele>
        <time>2020-08-29T11:14:11Z</time>
      </trkpt>
      <trkpt lat="40.151967" lon="-.856211">
        <ele>1069.267</ele>
        <time>2020-08-29T11:14:12Z</time>
      </trkpt>
      <trkpt lat="40.151937" lon="-.856145">
        <ele>1068.973</ele>
        <time>2020-08-29T11:14:13Z</time>
      </trkpt>
      <trkpt lat="40.151903" lon="-.856079">
        <ele>1068.885</ele>
        <time>2020-08-29T11:14:14Z</time>
      </trkpt>
      <trkpt lat="40.151878" lon="-.856017">
        <ele>1068.813</ele>
        <time>2020-08-29T11:14:15Z</time>
      </trkpt>
      <trkpt lat="40.151843" lon="-.855959">
        <ele>1068.808</ele>
        <time>2020-08-29T11:14:16Z</time>
      </trkpt>
      <trkpt lat="40.151803" lon="-.855904">
        <ele>1068.882</ele>
        <time>2020-08-29T11:14:17Z</time>
      </trkpt>
      <trkpt lat="40.151772" lon="-.855838">
        <ele>1068.832</ele>
        <time>2020-08-29T11:14:18Z</time>
      </trkpt>
      <trkpt lat="40.151745" lon="-.855777">
        <ele>1068.844</ele>
        <time>2020-08-29T11:14:19Z</time>
      </trkpt>
      <trkpt lat="40.151715" lon="-.855709">
        <ele>1068.896</ele>
        <time>2020-08-29T11:14:20Z</time>
      </trkpt>
      <trkpt lat="40.151685" lon="-.855659">
        <ele>1068.714</ele>
        <time>2020-08-29T11:14:21Z</time>
      </trkpt>
      <trkpt lat="40.151648" lon="-.855596">
        <ele>1068.641</ele>
        <time>2020-08-29T11:14:22Z</time>
      </trkpt>
      <trkpt lat="40.151607" lon="-.85553">
        <ele>1068.499</ele>
        <time>2020-08-29T11:14:23Z</time>
      </trkpt>
      <trkpt lat="40.151573" lon="-.855472">
        <ele>1068.249</ele>
        <time>2020-08-29T11:14:24Z</time>
      </trkpt>
      <trkpt lat="40.151544" lon="-.855412">
        <ele>1067.897</ele>
        <time>2020-08-29T11:14:25Z</time>
      </trkpt>
      <trkpt lat="40.151507" lon="-.855352">
        <ele>1067.523</ele>
        <time>2020-08-29T11:14:26Z</time>
      </trkpt>
      <trkpt lat="40.15148" lon="-.85529">
        <ele>1067.525</ele>
        <time>2020-08-29T11:14:27Z</time>
      </trkpt>
      <trkpt lat="40.151455" lon="-.855233">
        <ele>1067.408</ele>
        <time>2020-08-29T11:14:28Z</time>
      </trkpt>
      <trkpt lat="40.151427" lon="-.855182">
        <ele>1067.334</ele>
        <time>2020-08-29T11:14:29Z</time>
      </trkpt>
      <trkpt lat="40.151395" lon="-.855129">
        <ele>1067.364</ele>
        <time>2020-08-29T11:14:30Z</time>
      </trkpt>
      <trkpt lat="40.151363" lon="-.855072">
        <ele>1067.226</ele>
        <time>2020-08-29T11:14:31Z</time>
      </trkpt>
      <trkpt lat="40.151336" lon="-.855021">
        <ele>1067.028</ele>
        <time>2020-08-29T11:14:32Z</time>
      </trkpt>
      <trkpt lat="40.151287" lon="-.854922">
        <ele>1066.746</ele>
        <time>2020-08-29T11:14:34Z</time>
      </trkpt>
      <trkpt lat="40.151252" lon="-.854861">
        <ele>1066.743</ele>
        <time>2020-08-29T11:14:35Z</time>
      </trkpt>
      <trkpt lat="40.15121" lon="-.854758">
        <ele>1066.641</ele>
        <time>2020-08-29T11:14:37Z</time>
      </trkpt>
      <trkpt lat="40.151172" lon="-.854663">
        <ele>1066.561</ele>
        <time>2020-08-29T11:14:39Z</time>
      </trkpt>
      <trkpt lat="40.151135" lon="-.854569">
        <ele>1066.146</ele>
        <time>2020-08-29T11:14:41Z</time>
      </trkpt>
      <trkpt lat="40.151094" lon="-.854481">
        <ele>1065.888</ele>
        <time>2020-08-29T11:14:43Z</time>
      </trkpt>
      <trkpt lat="40.151066" lon="-.854391">
        <ele>1065.516</ele>
        <time>2020-08-29T11:14:45Z</time>
      </trkpt>
      <trkpt lat="40.151042" lon="-.854282">
        <ele>1065.708</ele>
        <time>2020-08-29T11:14:47Z</time>
      </trkpt>
      <trkpt lat="40.151016" lon="-.854182">
        <ele>1066.059</ele>
        <time>2020-08-29T11:14:49Z</time>
      </trkpt>
      <trkpt lat="40.150997" lon="-.854099">
        <ele>1065.739</ele>
        <time>2020-08-29T11:14:51Z</time>
      </trkpt>
      <trkpt lat="40.150985" lon="-.854019">
        <ele>1065.781</ele>
        <time>2020-08-29T11:14:53Z</time>
      </trkpt>
      <trkpt lat="40.150973" lon="-.853946">
        <ele>1065.823</ele>
        <time>2020-08-29T11:14:56Z</time>
      </trkpt>
      <trkpt lat="40.150968" lon="-.853885">
        <ele>1065.841</ele>
        <time>2020-08-29T11:14:57Z</time>
      </trkpt>
      <trkpt lat="40.150976" lon="-.853807">
        <ele>1065.698</ele>
        <time>2020-08-29T11:14:59Z</time>
      </trkpt>
      <trkpt lat="40.15097" lon="-.853707">
        <ele>1065.626</ele>
        <time>2020-08-29T11:15:01Z</time>
      </trkpt>
      <trkpt lat="40.150974" lon="-.853646">
        <ele>1065.386</ele>
        <time>2020-08-29T11:15:02Z</time>
      </trkpt>
      <trkpt lat="40.15096" lon="-.853576">
        <ele>1065.254</ele>
        <time>2020-08-29T11:15:03Z</time>
      </trkpt>
      <trkpt lat="40.15096" lon="-.853502">
        <ele>1065.256</ele>
        <time>2020-08-29T11:15:04Z</time>
      </trkpt>
      <trkpt lat="40.150969" lon="-.853388">
        <ele>1065.111</ele>
        <time>2020-08-29T11:15:06Z</time>
      </trkpt>
      <trkpt lat="40.150977" lon="-.853328">
        <ele>1065.008</ele>
        <time>2020-08-29T11:15:07Z</time>
      </trkpt>
      <trkpt lat="40.151003" lon="-.853238">
        <ele>1064.910</ele>
        <time>2020-08-29T11:15:09Z</time>
      </trkpt>
      <trkpt lat="40.151015" lon="-.853144">
        <ele>1064.960</ele>
        <time>2020-08-29T11:15:11Z</time>
      </trkpt>
      <trkpt lat="40.151063" lon="-.853043">
        <ele>1064.972</ele>
        <time>2020-08-29T11:15:13Z</time>
      </trkpt>
      <trkpt lat="40.151084" lon="-.852984">
        <ele>1064.954</ele>
        <time>2020-08-29T11:15:14Z</time>
      </trkpt>
      <trkpt lat="40.151113" lon="-.852887">
        <ele>1064.822</ele>
        <time>2020-08-29T11:15:16Z</time>
      </trkpt>
      <trkpt lat="40.151119" lon="-.852822">
        <ele>1064.839</ele>
        <time>2020-08-29T11:15:17Z</time>
      </trkpt>
      <trkpt lat="40.151127" lon="-.852698">
        <ele>1064.817</ele>
        <time>2020-08-29T11:15:19Z</time>
      </trkpt>
      <trkpt lat="40.151138" lon="-.852593">
        <ele>1064.687</ele>
        <time>2020-08-29T11:15:21Z</time>
      </trkpt>
      <trkpt lat="40.15113" lon="-.852504">
        <ele>1064.571</ele>
        <time>2020-08-29T11:15:22Z</time>
      </trkpt>
      <trkpt lat="40.151132" lon="-.852444">
        <ele>1064.441</ele>
        <time>2020-08-29T11:15:23Z</time>
      </trkpt>
      <trkpt lat="40.151141" lon="-.852355">
        <ele>1064.015</ele>
        <time>2020-08-29T11:15:25Z</time>
      </trkpt>
      <trkpt lat="40.151141" lon="-.852295">
        <ele>1063.708</ele>
        <time>2020-08-29T11:15:27Z</time>
      </trkpt>
      <trkpt lat="40.151141" lon="-.852152">
        <ele>1064.092</ele>
        <time>2020-08-29T11:16:25Z</time>
      </trkpt>
      <trkpt lat="40.151161" lon="-.852066">
        <ele>1063.682</ele>
        <time>2020-08-29T11:16:29Z</time>
      </trkpt>
      <trkpt lat="40.151176" lon="-.851978">
        <ele>1063.834</ele>
        <time>2020-08-29T11:16:32Z</time>
      </trkpt>
      <trkpt lat="40.151205" lon="-.851909">
        <ele>1063.236</ele>
        <time>2020-08-29T11:16:34Z</time>
      </trkpt>
      <trkpt lat="40.151219" lon="-.85184">
        <ele>1063.184</ele>
        <time>2020-08-29T11:16:36Z</time>
      </trkpt>
      <trkpt lat="40.151219" lon="-.85177">
        <ele>1063.741</ele>
        <time>2020-08-29T11:16:38Z</time>
      </trkpt>
      <trkpt lat="40.151262" lon="-.851673">
        <ele>1063.359</ele>
        <time>2020-08-29T11:16:40Z</time>
      </trkpt>
      <trkpt lat="40.151305" lon="-.851575">
        <ele>1063.339</ele>
        <time>2020-08-29T11:16:42Z</time>
      </trkpt>
      <trkpt lat="40.151335" lon="-.851465">
        <ele>1062.572</ele>
        <time>2020-08-29T11:16:44Z</time>
      </trkpt>
      <trkpt lat="40.151351" lon="-.85141">
        <ele>1062.113</ele>
        <time>2020-08-29T11:16:45Z</time>
      </trkpt>
      <trkpt lat="40.151341" lon="-.851297">
        <ele>1062.314</ele>
        <time>2020-08-29T11:16:47Z</time>
      </trkpt>
      <trkpt lat="40.151358" lon="-.851242">
        <ele>1062.708</ele>
        <time>2020-08-29T11:16:48Z</time>
      </trkpt>
      <trkpt lat="40.151377" lon="-.851141">
        <ele>1062.782</ele>
        <time>2020-08-29T11:16:50Z</time>
      </trkpt>
      <trkpt lat="40.151393" lon="-.851085">
        <ele>1062.762</ele>
        <time>2020-08-29T11:16:51Z</time>
      </trkpt>
      <trkpt lat="40.151408" lon="-.850988">
        <ele>1061.664</ele>
        <time>2020-08-29T11:16:53Z</time>
      </trkpt>
      <trkpt lat="40.151441" lon="-.850886">
        <ele>1062.256</ele>
        <time>2020-08-29T11:16:55Z</time>
      </trkpt>
      <trkpt lat="40.151445" lon="-.850818">
        <ele>1062.264</ele>
        <time>2020-08-29T11:16:56Z</time>
      </trkpt>
      <trkpt lat="40.151453" lon="-.850759">
        <ele>1061.911</ele>
        <time>2020-08-29T11:16:57Z</time>
      </trkpt>
      <trkpt lat="40.151455" lon="-.850693">
        <ele>1061.619</ele>
        <time>2020-08-29T11:16:58Z</time>
      </trkpt>
      <trkpt lat="40.15146" lon="-.850622">
        <ele>1061.169</ele>
        <time>2020-08-29T11:16:59Z</time>
      </trkpt>
      <trkpt lat="40.151468" lon="-.850557">
        <ele>1061.169</ele>
        <time>2020-08-29T11:17:00Z</time>
      </trkpt>
      <trkpt lat="40.151485" lon="-.850497">
        <ele>1061.404</ele>
        <time>2020-08-29T11:17:01Z</time>
      </trkpt>
      <trkpt lat="40.1515" lon="-.850384">
        <ele>1061.624</ele>
        <time>2020-08-29T11:17:03Z</time>
      </trkpt>
      <trkpt lat="40.151533" lon="-.850283">
        <ele>1061.708</ele>
        <time>2020-08-29T11:17:05Z</time>
      </trkpt>
      <trkpt lat="40.151552" lon="-.850228">
        <ele>1061.681</ele>
        <time>2020-08-29T11:17:06Z</time>
      </trkpt>
      <trkpt lat="40.151572" lon="-.850119">
        <ele>1060.831</ele>
        <time>2020-08-29T11:17:08Z</time>
      </trkpt>
      <trkpt lat="40.15158" lon="-.850051">
        <ele>1060.483</ele>
        <time>2020-08-29T11:17:09Z</time>
      </trkpt>
      <trkpt lat="40.151589" lon="-.849992">
        <ele>1060.445</ele>
        <time>2020-08-29T11:17:10Z</time>
      </trkpt>
      <trkpt lat="40.151626" lon="-.849879">
        <ele>1060.773</ele>
        <time>2020-08-29T11:17:12Z</time>
      </trkpt>
      <trkpt lat="40.151638" lon="-.849816">
        <ele>1061.080</ele>
        <time>2020-08-29T11:17:13Z</time>
      </trkpt>
      <trkpt lat="40.151643" lon="-.849711">
        <ele>1061.448</ele>
        <time>2020-08-29T11:17:15Z</time>
      </trkpt>
      <trkpt lat="40.151654" lon="-.849612">
        <ele>1061.128</ele>
        <time>2020-08-29T11:17:17Z</time>
      </trkpt>
      <trkpt lat="40.151661" lon="-.849508">
        <ele>1060.689</ele>
        <time>2020-08-29T11:17:19Z</time>
      </trkpt>
      <trkpt lat="40.151663" lon="-.849449">
        <ele>1060.406</ele>
        <time>2020-08-29T11:17:20Z</time>
      </trkpt>
      <trkpt lat="40.151664" lon="-.84935">
        <ele>1060.326</ele>
        <time>2020-08-29T11:17:22Z</time>
      </trkpt>
      <trkpt lat="40.151705" lon="-.849267">
        <ele>1059.408</ele>
        <time>2020-08-29T11:17:24Z</time>
      </trkpt>
      <trkpt lat="40.151732" lon="-.849212">
        <ele>1059.463</ele>
        <time>2020-08-29T11:17:25Z</time>
      </trkpt>
      <trkpt lat="40.151755" lon="-.849105">
        <ele>1059.823</ele>
        <time>2020-08-29T11:17:27Z</time>
      </trkpt>
      <trkpt lat="40.151764" lon="-.849043">
        <ele>1059.875</ele>
        <time>2020-08-29T11:17:28Z</time>
      </trkpt>
      <trkpt lat="40.151774" lon="-.84898">
        <ele>1059.817</ele>
        <time>2020-08-29T11:17:29Z</time>
      </trkpt>
      <trkpt lat="40.151786" lon="-.848921">
        <ele>1059.725</ele>
        <time>2020-08-29T11:17:30Z</time>
      </trkpt>
      <trkpt lat="40.151802" lon="-.84883">
        <ele>1059.522</ele>
        <time>2020-08-29T11:17:32Z</time>
      </trkpt>
      <trkpt lat="40.151818" lon="-.848721">
        <ele>1058.670</ele>
        <time>2020-08-29T11:17:34Z</time>
      </trkpt>
      <trkpt lat="40.151841" lon="-.84862">
        <ele>1058.760</ele>
        <time>2020-08-29T11:17:36Z</time>
      </trkpt>
      <trkpt lat="40.151866" lon="-.848511">
        <ele>1058.731</ele>
        <time>2020-08-29T11:17:38Z</time>
      </trkpt>
      <trkpt lat="40.151873" lon="-.848447">
        <ele>1058.861</ele>
        <time>2020-08-29T11:17:39Z</time>
      </trkpt>
      <trkpt lat="40.151882" lon="-.848386">
        <ele>1058.807</ele>
        <time>2020-08-29T11:17:40Z</time>
      </trkpt>
      <trkpt lat="40.151897" lon="-.848323">
        <ele>1058.508</ele>
        <time>2020-08-29T11:17:41Z</time>
      </trkpt>
      <trkpt lat="40.151907" lon="-.848209">
        <ele>1058.648</ele>
        <time>2020-08-29T11:17:43Z</time>
      </trkpt>
      <trkpt lat="40.151914" lon="-.848092">
        <ele>1058.578</ele>
        <time>2020-08-29T11:17:45Z</time>
      </trkpt>
      <trkpt lat="40.151916" lon="-.848019">
        <ele>1058.510</ele>
        <time>2020-08-29T11:17:46Z</time>
      </trkpt>
      <trkpt lat="40.151922" lon="-.847948">
        <ele>1058.512</ele>
        <time>2020-08-29T11:17:47Z</time>
      </trkpt>
      <trkpt lat="40.151917" lon="-.847884">
        <ele>1058.470</ele>
        <time>2020-08-29T11:17:48Z</time>
      </trkpt>
      <trkpt lat="40.151915" lon="-.847813">
        <ele>1058.477</ele>
        <time>2020-08-29T11:17:49Z</time>
      </trkpt>
      <trkpt lat="40.151919" lon="-.847754">
        <ele>1058.355</ele>
        <time>2020-08-29T11:17:50Z</time>
      </trkpt>
      <trkpt lat="40.151922" lon="-.84768">
        <ele>1058.355</ele>
        <time>2020-08-29T11:17:51Z</time>
      </trkpt>
      <trkpt lat="40.15192" lon="-.84761">
        <ele>1058.344</ele>
        <time>2020-08-29T11:17:52Z</time>
      </trkpt>
      <trkpt lat="40.151915" lon="-.847542">
        <ele>1058.305</ele>
        <time>2020-08-29T11:17:53Z</time>
      </trkpt>
      <trkpt lat="40.151908" lon="-.847473">
        <ele>1058.315</ele>
        <time>2020-08-29T11:17:54Z</time>
      </trkpt>
      <trkpt lat="40.151902" lon="-.847402">
        <ele>1057.808</ele>
        <time>2020-08-29T11:17:55Z</time>
      </trkpt>
      <trkpt lat="40.151894" lon="-.847341">
        <ele>1057.529</ele>
        <time>2020-08-29T11:17:56Z</time>
      </trkpt>
      <trkpt lat="40.151884" lon="-.847273">
        <ele>1057.449</ele>
        <time>2020-08-29T11:17:57Z</time>
      </trkpt>
      <trkpt lat="40.151873" lon="-.847208">
        <ele>1057.311</ele>
        <time>2020-08-29T11:17:58Z</time>
      </trkpt>
      <trkpt lat="40.151858" lon="-.847128">
        <ele>1057.223</ele>
        <time>2020-08-29T11:17:59Z</time>
      </trkpt>
      <trkpt lat="40.15185" lon="-.847057">
        <ele>1057.231</ele>
        <time>2020-08-29T11:18:00Z</time>
      </trkpt>
      <trkpt lat="40.151841" lon="-.846994">
        <ele>1057.248</ele>
        <time>2020-08-29T11:18:01Z</time>
      </trkpt>
      <trkpt lat="40.15183" lon="-.84693">
        <ele>1056.996</ele>
        <time>2020-08-29T11:18:02Z</time>
      </trkpt>
      <trkpt lat="40.151818" lon="-.846865">
        <ele>1056.786</ele>
        <time>2020-08-29T11:18:03Z</time>
      </trkpt>
      <trkpt lat="40.1518" lon="-.846783">
        <ele>1056.748</ele>
        <time>2020-08-29T11:18:04Z</time>
      </trkpt>
      <trkpt lat="40.151784" lon="-.846712">
        <ele>1056.761</ele>
        <time>2020-08-29T11:18:05Z</time>
      </trkpt>
      <trkpt lat="40.151766" lon="-.846644">
        <ele>1056.617</ele>
        <time>2020-08-29T11:18:06Z</time>
      </trkpt>
      <trkpt lat="40.151747" lon="-.846581">
        <ele>1056.508</ele>
        <time>2020-08-29T11:18:07Z</time>
      </trkpt>
      <trkpt lat="40.151729" lon="-.846517">
        <ele>1056.549</ele>
        <time>2020-08-29T11:18:08Z</time>
      </trkpt>
      <trkpt lat="40.151708" lon="-.846447">
        <ele>1056.399</ele>
        <time>2020-08-29T11:18:09Z</time>
      </trkpt>
      <trkpt lat="40.151688" lon="-.846389">
        <ele>1056.251</ele>
        <time>2020-08-29T11:18:10Z</time>
      </trkpt>
      <trkpt lat="40.15167" lon="-.846326">
        <ele>1056.253</ele>
        <time>2020-08-29T11:18:11Z</time>
      </trkpt>
      <trkpt lat="40.151647" lon="-.846262">
        <ele>1056.241</ele>
        <time>2020-08-29T11:18:12Z</time>
      </trkpt>
      <trkpt lat="40.151623" lon="-.846203">
        <ele>1056.128</ele>
        <time>2020-08-29T11:18:13Z</time>
      </trkpt>
      <trkpt lat="40.151601" lon="-.846144">
        <ele>1056.176</ele>
        <time>2020-08-29T11:18:14Z</time>
      </trkpt>
      <trkpt lat="40.151577" lon="-.846087">
        <ele>1056.066</ele>
        <time>2020-08-29T11:18:15Z</time>
      </trkpt>
      <trkpt lat="40.151556" lon="-.846033">
        <ele>1055.999</ele>
        <time>2020-08-29T11:18:16Z</time>
      </trkpt>
      <trkpt lat="40.151516" lon="-.845933">
        <ele>1056.007</ele>
        <time>2020-08-29T11:18:18Z</time>
      </trkpt>
      <trkpt lat="40.151468" lon="-.845839">
        <ele>1056.127</ele>
        <time>2020-08-29T11:18:20Z</time>
      </trkpt>
      <trkpt lat="40.151453" lon="-.845783">
        <ele>1056.108</ele>
        <time>2020-08-29T11:18:21Z</time>
      </trkpt>
      <trkpt lat="40.151426" lon="-.845722">
        <ele>1055.964</ele>
        <time>2020-08-29T11:18:22Z</time>
      </trkpt>
      <trkpt lat="40.151373" lon="-.845603">
        <ele>1055.634</ele>
        <time>2020-08-29T11:18:24Z</time>
      </trkpt>
      <trkpt lat="40.151343" lon="-.845551">
        <ele>1055.326</ele>
        <time>2020-08-29T11:18:25Z</time>
      </trkpt>
      <trkpt lat="40.151315" lon="-.845492">
        <ele>1055.018</ele>
        <time>2020-08-29T11:18:26Z</time>
      </trkpt>
      <trkpt lat="40.151283" lon="-.845429">
        <ele>1055.036</ele>
        <time>2020-08-29T11:18:27Z</time>
      </trkpt>
      <trkpt lat="40.151254" lon="-.845374">
        <ele>1055.473</ele>
        <time>2020-08-29T11:18:28Z</time>
      </trkpt>
      <trkpt lat="40.151211" lon="-.845317">
        <ele>1056.041</ele>
        <time>2020-08-29T11:18:29Z</time>
      </trkpt>
      <trkpt lat="40.151183" lon="-.845253">
        <ele>1056.371</ele>
        <time>2020-08-29T11:18:30Z</time>
      </trkpt>
      <trkpt lat="40.151146" lon="-.845191">
        <ele>1056.396</ele>
        <time>2020-08-29T11:18:31Z</time>
      </trkpt>
      <trkpt lat="40.151115" lon="-.845131">
        <ele>1055.831</ele>
        <time>2020-08-29T11:18:32Z</time>
      </trkpt>
      <trkpt lat="40.151088" lon="-.845073">
        <ele>1055.424</ele>
        <time>2020-08-29T11:18:33Z</time>
      </trkpt>
      <trkpt lat="40.151057" lon="-.845014">
        <ele>1055.308</ele>
        <time>2020-08-29T11:18:34Z</time>
      </trkpt>
      <trkpt lat="40.151024" lon="-.844954">
        <ele>1055.294</ele>
        <time>2020-08-29T11:18:35Z</time>
      </trkpt>
      <trkpt lat="40.150998" lon="-.844904">
        <ele>1055.194</ele>
        <time>2020-08-29T11:18:36Z</time>
      </trkpt>
      <trkpt lat="40.150969" lon="-.844847">
        <ele>1055.126</ele>
        <time>2020-08-29T11:18:37Z</time>
      </trkpt>
      <trkpt lat="40.150943" lon="-.84479">
        <ele>1055.088</ele>
        <time>2020-08-29T11:18:38Z</time>
      </trkpt>
      <trkpt lat="40.150913" lon="-.844719">
        <ele>1055.056</ele>
        <time>2020-08-29T11:18:39Z</time>
      </trkpt>
      <trkpt lat="40.150875" lon="-.844663">
        <ele>1054.953</ele>
        <time>2020-08-29T11:18:40Z</time>
      </trkpt>
      <trkpt lat="40.150856" lon="-.844609">
        <ele>1054.971</ele>
        <time>2020-08-29T11:18:41Z</time>
      </trkpt>
      <trkpt lat="40.150826" lon="-.844543">
        <ele>1054.971</ele>
        <time>2020-08-29T11:18:42Z</time>
      </trkpt>
      <trkpt lat="40.150793" lon="-.844481">
        <ele>1054.963</ele>
        <time>2020-08-29T11:18:43Z</time>
      </trkpt>
      <trkpt lat="40.15076" lon="-.844421">
        <ele>1054.944</ele>
        <time>2020-08-29T11:18:44Z</time>
      </trkpt>
      <trkpt lat="40.150727" lon="-.844358">
        <ele>1054.918</ele>
        <time>2020-08-29T11:18:45Z</time>
      </trkpt>
      <trkpt lat="40.150697" lon="-.844304">
        <ele>1054.908</ele>
        <time>2020-08-29T11:18:46Z</time>
      </trkpt>
      <trkpt lat="40.150668" lon="-.844242">
        <ele>1054.971</ele>
        <time>2020-08-29T11:18:47Z</time>
      </trkpt>
      <trkpt lat="40.150635" lon="-.844182">
        <ele>1054.961</ele>
        <time>2020-08-29T11:18:48Z</time>
      </trkpt>
      <trkpt lat="40.150609" lon="-.844126">
        <ele>1055.043</ele>
        <time>2020-08-29T11:18:49Z</time>
      </trkpt>
      <trkpt lat="40.15058" lon="-.844071">
        <ele>1055.145</ele>
        <time>2020-08-29T11:18:50Z</time>
      </trkpt>
      <trkpt lat="40.150551" lon="-.844017">
        <ele>1055.153</ele>
        <time>2020-08-29T11:18:51Z</time>
      </trkpt>
      <trkpt lat="40.150518" lon="-.843948">
        <ele>1054.940</ele>
        <time>2020-08-29T11:18:52Z</time>
      </trkpt>
      <trkpt lat="40.150484" lon="-.843887">
        <ele>1054.918</ele>
        <time>2020-08-29T11:18:53Z</time>
      </trkpt>
      <trkpt lat="40.150454" lon="-.843827">
        <ele>1054.938</ele>
        <time>2020-08-29T11:18:54Z</time>
      </trkpt>
      <trkpt lat="40.150423" lon="-.843765">
        <ele>1055.227</ele>
        <time>2020-08-29T11:18:55Z</time>
      </trkpt>
      <trkpt lat="40.150393" lon="-.843706">
        <ele>1055.568</ele>
        <time>2020-08-29T11:18:56Z</time>
      </trkpt>
      <trkpt lat="40.150359" lon="-.843643">
        <ele>1055.514</ele>
        <time>2020-08-29T11:18:57Z</time>
      </trkpt>
      <trkpt lat="40.150328" lon="-.843588">
        <ele>1055.208</ele>
        <time>2020-08-29T11:18:58Z</time>
      </trkpt>
      <trkpt lat="40.150297" lon="-.843536">
        <ele>1055.167</ele>
        <time>2020-08-29T11:18:59Z</time>
      </trkpt>
      <trkpt lat="40.150271" lon="-.843476">
        <ele>1055.037</ele>
        <time>2020-08-29T11:19:00Z</time>
      </trkpt>
      <trkpt lat="40.150249" lon="-.84342">
        <ele>1054.899</ele>
        <time>2020-08-29T11:19:01Z</time>
      </trkpt>
      <trkpt lat="40.150217" lon="-.84337">
        <ele>1054.821</ele>
        <time>2020-08-29T11:19:02Z</time>
      </trkpt>
      <trkpt lat="40.150181" lon="-.843306">
        <ele>1054.839</ele>
        <time>2020-08-29T11:19:03Z</time>
      </trkpt>
      <trkpt lat="40.150154" lon="-.843249">
        <ele>1054.296</ele>
        <time>2020-08-29T11:19:04Z</time>
      </trkpt>
      <trkpt lat="40.150116" lon="-.843194">
        <ele>1054.244</ele>
        <time>2020-08-29T11:19:05Z</time>
      </trkpt>
      <trkpt lat="40.15008" lon="-.84314">
        <ele>1054.284</ele>
        <time>2020-08-29T11:19:06Z</time>
      </trkpt>
      <trkpt lat="40.150043" lon="-.84308">
        <ele>1054.469</ele>
        <time>2020-08-29T11:19:07Z</time>
      </trkpt>
      <trkpt lat="40.150001" lon="-.843013">
        <ele>1054.404</ele>
        <time>2020-08-29T11:19:08Z</time>
      </trkpt>
      <trkpt lat="40.149959" lon="-.842977">
        <ele>1054.724</ele>
        <time>2020-08-29T11:19:09Z</time>
      </trkpt>
      <trkpt lat="40.149911" lon="-.842939">
        <ele>1054.708</ele>
        <time>2020-08-29T11:19:10Z</time>
      </trkpt>
      <trkpt lat="40.149864" lon="-.842888">
        <ele>1054.741</ele>
        <time>2020-08-29T11:19:11Z</time>
      </trkpt>
      <trkpt lat="40.149816" lon="-.842846">
        <ele>1054.541</ele>
        <time>2020-08-29T11:19:12Z</time>
      </trkpt>
      <trkpt lat="40.149764" lon="-.842802">
        <ele>1054.413</ele>
        <time>2020-08-29T11:19:13Z</time>
      </trkpt>
      <trkpt lat="40.149719" lon="-.842754">
        <ele>1054.255</ele>
        <time>2020-08-29T11:19:14Z</time>
      </trkpt>
      <trkpt lat="40.149667" lon="-.842713">
        <ele>1054.213</ele>
        <time>2020-08-29T11:19:15Z</time>
      </trkpt>
      <trkpt lat="40.149618" lon="-.842674">
        <ele>1054.360</ele>
        <time>2020-08-29T11:19:16Z</time>
      </trkpt>
      <trkpt lat="40.149572" lon="-.842641">
        <ele>1054.358</ele>
        <time>2020-08-29T11:19:17Z</time>
      </trkpt>
      <trkpt lat="40.149526" lon="-.842608">
        <ele>1054.158</ele>
        <time>2020-08-29T11:19:18Z</time>
      </trkpt>
      <trkpt lat="40.14948" lon="-.842582">
        <ele>1054.056</ele>
        <time>2020-08-29T11:19:19Z</time>
      </trkpt>
      <trkpt lat="40.149434" lon="-.842554">
        <ele>1053.659</ele>
        <time>2020-08-29T11:19:20Z</time>
      </trkpt>
      <trkpt lat="40.149343" lon="-.842507">
        <ele>1052.814</ele>
        <time>2020-08-29T11:19:22Z</time>
      </trkpt>
      <trkpt lat="40.149295" lon="-.842494">
        <ele>1052.808</ele>
        <time>2020-08-29T11:19:23Z</time>
      </trkpt>
      <trkpt lat="40.149199" lon="-.842478">
        <ele>1052.420</ele>
        <time>2020-08-29T11:19:25Z</time>
      </trkpt>
      <trkpt lat="40.14915" lon="-.842462">
        <ele>1052.440</ele>
        <time>2020-08-29T11:19:26Z</time>
      </trkpt>
      <trkpt lat="40.149097" lon="-.842449">
        <ele>1052.222</ele>
        <time>2020-08-29T11:19:27Z</time>
      </trkpt>
      <trkpt lat="40.149049" lon="-.842448">
        <ele>1052.294</ele>
        <time>2020-08-29T11:19:28Z</time>
      </trkpt>
      <trkpt lat="40.148961" lon="-.842449">
        <ele>1052.042</ele>
        <time>2020-08-29T11:19:30Z</time>
      </trkpt>
      <trkpt lat="40.148899" lon="-.842447">
        <ele>1051.559</ele>
        <time>2020-08-29T11:19:31Z</time>
      </trkpt>
      <trkpt lat="40.148842" lon="-.842447">
        <ele>1051.347</ele>
        <time>2020-08-29T11:19:32Z</time>
      </trkpt>
      <trkpt lat="40.148797" lon="-.842461">
        <ele>1051.427</ele>
        <time>2020-08-29T11:19:33Z</time>
      </trkpt>
      <trkpt lat="40.148746" lon="-.84246">
        <ele>1051.358</ele>
        <time>2020-08-29T11:19:34Z</time>
      </trkpt>
      <trkpt lat="40.148698" lon="-.84246">
        <ele>1051.452</ele>
        <time>2020-08-29T11:19:35Z</time>
      </trkpt>
      <trkpt lat="40.148633" lon="-.842441">
        <ele>1051.117</ele>
        <time>2020-08-29T11:19:36Z</time>
      </trkpt>
      <trkpt lat="40.148569" lon="-.842427">
        <ele>1051.108</ele>
        <time>2020-08-29T11:19:37Z</time>
      </trkpt>
      <trkpt lat="40.148512" lon="-.842408">
        <ele>1051.070</ele>
        <time>2020-08-29T11:19:38Z</time>
      </trkpt>
      <trkpt lat="40.14846" lon="-.842409">
        <ele>1051.030</ele>
        <time>2020-08-29T11:19:39Z</time>
      </trkpt>
      <trkpt lat="40.148414" lon="-.842414">
        <ele>1051.022</ele>
        <time>2020-08-29T11:19:40Z</time>
      </trkpt>
      <trkpt lat="40.148354" lon="-.842405">
        <ele>1051.144</ele>
        <time>2020-08-29T11:19:41Z</time>
      </trkpt>
      <trkpt lat="40.148297" lon="-.842388">
        <ele>1051.322</ele>
        <time>2020-08-29T11:19:42Z</time>
      </trkpt>
      <trkpt lat="40.148229" lon="-.842344">
        <ele>1051.449</ele>
        <time>2020-08-29T11:19:43Z</time>
      </trkpt>
      <trkpt lat="40.148168" lon="-.842315">
        <ele>1051.417</ele>
        <time>2020-08-29T11:19:44Z</time>
      </trkpt>
      <trkpt lat="40.148108" lon="-.842284">
        <ele>1050.637</ele>
        <time>2020-08-29T11:19:45Z</time>
      </trkpt>
      <trkpt lat="40.148042" lon="-.842271">
        <ele>1050.679</ele>
        <time>2020-08-29T11:19:46Z</time>
      </trkpt>
      <trkpt lat="40.14797" lon="-.842251">
        <ele>1050.205</ele>
        <time>2020-08-29T11:19:47Z</time>
      </trkpt>
      <trkpt lat="40.147906" lon="-.842231">
        <ele>1050.225</ele>
        <time>2020-08-29T11:19:48Z</time>
      </trkpt>
      <trkpt lat="40.147847" lon="-.8422">
        <ele>1050.208</ele>
        <time>2020-08-29T11:19:49Z</time>
      </trkpt>
      <trkpt lat="40.147784" lon="-.842174">
        <ele>1050.132</ele>
        <time>2020-08-29T11:19:50Z</time>
      </trkpt>
      <trkpt lat="40.147723" lon="-.84215">
        <ele>1050.152</ele>
        <time>2020-08-29T11:19:51Z</time>
      </trkpt>
      <trkpt lat="40.147655" lon="-.842131">
        <ele>1049.954</ele>
        <time>2020-08-29T11:19:52Z</time>
      </trkpt>
      <trkpt lat="40.1476" lon="-.842109">
        <ele>1049.816</ele>
        <time>2020-08-29T11:19:53Z</time>
      </trkpt>
      <trkpt lat="40.147543" lon="-.842069">
        <ele>1049.614</ele>
        <time>2020-08-29T11:19:54Z</time>
      </trkpt>
      <trkpt lat="40.147486" lon="-.842044">
        <ele>1049.691</ele>
        <time>2020-08-29T11:19:55Z</time>
      </trkpt>
      <trkpt lat="40.147422" lon="-.842">
        <ele>1049.359</ele>
        <time>2020-08-29T11:19:56Z</time>
      </trkpt>
      <trkpt lat="40.147363" lon="-.841969">
        <ele>1049.389</ele>
        <time>2020-08-29T11:19:57Z</time>
      </trkpt>
      <trkpt lat="40.147304" lon="-.841926">
        <ele>1049.059</ele>
        <time>2020-08-29T11:19:58Z</time>
      </trkpt>
      <trkpt lat="40.147247" lon="-.841888">
        <ele>1049.003</ele>
        <time>2020-08-29T11:19:59Z</time>
      </trkpt>
      <trkpt lat="40.147201" lon="-.841854">
        <ele>1048.823</ele>
        <time>2020-08-29T11:20:00Z</time>
      </trkpt>
      <trkpt lat="40.147154" lon="-.841814">
        <ele>1048.608</ele>
        <time>2020-08-29T11:20:01Z</time>
      </trkpt>
      <trkpt lat="40.147102" lon="-.84177">
        <ele>1047.850</ele>
        <time>2020-08-29T11:20:02Z</time>
      </trkpt>
      <trkpt lat="40.147043" lon="-.841718">
        <ele>1047.750</ele>
        <time>2020-08-29T11:20:03Z</time>
      </trkpt>
      <trkpt lat="40.146995" lon="-.841672">
        <ele>1047.792</ele>
        <time>2020-08-29T11:20:04Z</time>
      </trkpt>
      <trkpt lat="40.146947" lon="-.841625">
        <ele>1047.734</ele>
        <time>2020-08-29T11:20:05Z</time>
      </trkpt>
      <trkpt lat="40.146894" lon="-.841565">
        <ele>1047.772</ele>
        <time>2020-08-29T11:20:06Z</time>
      </trkpt>
      <trkpt lat="40.146851" lon="-.841496">
        <ele>1047.749</ele>
        <time>2020-08-29T11:20:07Z</time>
      </trkpt>
      <trkpt lat="40.146799" lon="-.841442">
        <ele>1047.997</ele>
        <time>2020-08-29T11:20:08Z</time>
      </trkpt>
      <trkpt lat="40.146755" lon="-.841378">
        <ele>1047.917</ele>
        <time>2020-08-29T11:20:09Z</time>
      </trkpt>
      <trkpt lat="40.146708" lon="-.841311">
        <ele>1047.222</ele>
        <time>2020-08-29T11:20:10Z</time>
      </trkpt>
      <trkpt lat="40.146668" lon="-.841249">
        <ele>1046.962</ele>
        <time>2020-08-29T11:20:11Z</time>
      </trkpt>
      <trkpt lat="40.146624" lon="-.841186">
        <ele>1046.708</ele>
        <time>2020-08-29T11:20:12Z</time>
      </trkpt>
      <trkpt lat="40.146593" lon="-.841116">
        <ele>1046.608</ele>
        <time>2020-08-29T11:20:13Z</time>
      </trkpt>
      <trkpt lat="40.14656" lon="-.841043">
        <ele>1046.527</ele>
        <time>2020-08-29T11:20:14Z</time>
      </trkpt>
      <trkpt lat="40.146539" lon="-.840972">
        <ele>1046.467</ele>
        <time>2020-08-29T11:20:15Z</time>
      </trkpt>
      <trkpt lat="40.146512" lon="-.840908">
        <ele>1046.499</ele>
        <time>2020-08-29T11:20:16Z</time>
      </trkpt>
      <trkpt lat="40.146487" lon="-.840845">
        <ele>1046.471</ele>
        <time>2020-08-29T11:20:17Z</time>
      </trkpt>
      <trkpt lat="40.146449" lon="-.840768">
        <ele>1046.369</ele>
        <time>2020-08-29T11:20:18Z</time>
      </trkpt>
      <trkpt lat="40.146429" lon="-.840696">
        <ele>1046.396</ele>
        <time>2020-08-29T11:20:19Z</time>
      </trkpt>
      <trkpt lat="40.146409" lon="-.840614">
        <ele>1046.374</ele>
        <time>2020-08-29T11:20:20Z</time>
      </trkpt>
      <trkpt lat="40.146394" lon="-.840541">
        <ele>1046.314</ele>
        <time>2020-08-29T11:20:21Z</time>
      </trkpt>
      <trkpt lat="40.14637" lon="-.840482">
        <ele>1046.396</ele>
        <time>2020-08-29T11:20:22Z</time>
      </trkpt>
      <trkpt lat="40.146351" lon="-.840405">
        <ele>1046.231</ele>
        <time>2020-08-29T11:20:23Z</time>
      </trkpt>
      <trkpt lat="40.146345" lon="-.840345">
        <ele>1046.124</ele>
        <time>2020-08-29T11:20:24Z</time>
      </trkpt>
      <trkpt lat="40.146334" lon="-.840271">
        <ele>1046.008</ele>
        <time>2020-08-29T11:20:25Z</time>
      </trkpt>
      <trkpt lat="40.14632" lon="-.840203">
        <ele>1045.984</ele>
        <time>2020-08-29T11:20:26Z</time>
      </trkpt>
      <trkpt lat="40.146318" lon="-.84013">
        <ele>1045.844</ele>
        <time>2020-08-29T11:20:27Z</time>
      </trkpt>
      <trkpt lat="40.146309" lon="-.840006">
        <ele>1045.666</ele>
        <time>2020-08-29T11:20:29Z</time>
      </trkpt>
      <trkpt lat="40.14631" lon="-.839915">
        <ele>1045.698</ele>
        <time>2020-08-29T11:20:30Z</time>
      </trkpt>
      <trkpt lat="40.146324" lon="-.839845">
        <ele>1045.576</ele>
        <time>2020-08-29T11:20:31Z</time>
      </trkpt>
      <trkpt lat="40.146323" lon="-.839771">
        <ele>1045.073</ele>
        <time>2020-08-29T11:20:32Z</time>
      </trkpt>
      <trkpt lat="40.146326" lon="-.839674">
        <ele>1044.911</ele>
        <time>2020-08-29T11:20:33Z</time>
      </trkpt>
      <trkpt lat="40.14633" lon="-.839586">
        <ele>1044.721</ele>
        <time>2020-08-29T11:20:34Z</time>
      </trkpt>
      <trkpt lat="40.146328" lon="-.839506">
        <ele>1044.727</ele>
        <time>2020-08-29T11:20:35Z</time>
      </trkpt>
      <trkpt lat="40.146333" lon="-.839421">
        <ele>1044.668</ele>
        <time>2020-08-29T11:20:36Z</time>
      </trkpt>
      <trkpt lat="40.146334" lon="-.839335">
        <ele>1044.514</ele>
        <time>2020-08-29T11:20:37Z</time>
      </trkpt>
      <trkpt lat="40.146341" lon="-.839258">
        <ele>1044.408</ele>
        <time>2020-08-29T11:20:38Z</time>
      </trkpt>
      <trkpt lat="40.146341" lon="-.839197">
        <ele>1044.447</ele>
        <time>2020-08-29T11:20:39Z</time>
      </trkpt>
      <trkpt lat="40.146354" lon="-.839138">
        <ele>1044.437</ele>
        <time>2020-08-29T11:20:40Z</time>
      </trkpt>
      <trkpt lat="40.146352" lon="-.839056">
        <ele>1044.199</ele>
        <time>2020-08-29T11:20:41Z</time>
      </trkpt>
      <trkpt lat="40.146353" lon="-.838962">
        <ele>1044.021</ele>
        <time>2020-08-29T11:20:42Z</time>
      </trkpt>
      <trkpt lat="40.146351" lon="-.838883">
        <ele>1043.819</ele>
        <time>2020-08-29T11:20:43Z</time>
      </trkpt>
      <trkpt lat="40.14635" lon="-.838803">
        <ele>1043.766</ele>
        <time>2020-08-29T11:20:44Z</time>
      </trkpt>
      <trkpt lat="40.146354" lon="-.838718">
        <ele>1043.774</ele>
        <time>2020-08-29T11:20:45Z</time>
      </trkpt>
      <trkpt lat="40.14635" lon="-.838633">
        <ele>1043.764</ele>
        <time>2020-08-29T11:20:46Z</time>
      </trkpt>
      <trkpt lat="40.146365" lon="-.838561">
        <ele>1043.737</ele>
        <time>2020-08-29T11:20:47Z</time>
      </trkpt>
      <trkpt lat="40.146367" lon="-.838468">
        <ele>1043.749</ele>
        <time>2020-08-29T11:20:48Z</time>
      </trkpt>
      <trkpt lat="40.146369" lon="-.83838">
        <ele>1043.613</ele>
        <time>2020-08-29T11:20:49Z</time>
      </trkpt>
      <trkpt lat="40.146366" lon="-.8383">
        <ele>1043.608</ele>
        <time>2020-08-29T11:20:50Z</time>
      </trkpt>
      <trkpt lat="40.146372" lon="-.838208">
        <ele>1043.118</ele>
        <time>2020-08-29T11:20:51Z</time>
      </trkpt>
      <trkpt lat="40.146375" lon="-.838126">
        <ele>1043.028</ele>
        <time>2020-08-29T11:20:52Z</time>
      </trkpt>
      <trkpt lat="40.146379" lon="-.838039">
        <ele>1042.860</ele>
        <time>2020-08-29T11:20:53Z</time>
      </trkpt>
      <trkpt lat="40.146382" lon="-.837949">
        <ele>1042.872</ele>
        <time>2020-08-29T11:20:54Z</time>
      </trkpt>
      <trkpt lat="40.146376" lon="-.837843">
        <ele>1043.310</ele>
        <time>2020-08-29T11:20:55Z</time>
      </trkpt>
      <trkpt lat="40.146376" lon="-.83775">
        <ele>1043.327</ele>
        <time>2020-08-29T11:20:56Z</time>
      </trkpt>
      <trkpt lat="40.146375" lon="-.837658">
        <ele>1042.935</ele>
        <time>2020-08-29T11:20:57Z</time>
      </trkpt>
      <trkpt lat="40.146371" lon="-.837574">
        <ele>1042.585</ele>
        <time>2020-08-29T11:20:58Z</time>
      </trkpt>
      <trkpt lat="40.146376" lon="-.837479">
        <ele>1041.886</ele>
        <time>2020-08-29T11:20:59Z</time>
      </trkpt>
      <trkpt lat="40.146374" lon="-.837388">
        <ele>1041.860</ele>
        <time>2020-08-29T11:21:00Z</time>
      </trkpt>
      <trkpt lat="40.146375" lon="-.837301">
        <ele>1041.926</ele>
        <time>2020-08-29T11:21:01Z</time>
      </trkpt>
      <trkpt lat="40.146378" lon="-.837212">
        <ele>1041.908</ele>
        <time>2020-08-29T11:21:02Z</time>
      </trkpt>
      <trkpt lat="40.146371" lon="-.837116">
        <ele>1041.983</ele>
        <time>2020-08-29T11:21:03Z</time>
      </trkpt>
      <trkpt lat="40.146366" lon="-.83701">
        <ele>1041.913</ele>
        <time>2020-08-29T11:21:04Z</time>
      </trkpt>
      <trkpt lat="40.146377" lon="-.836927">
        <ele>1041.985</ele>
        <time>2020-08-29T11:21:05Z</time>
      </trkpt>
      <trkpt lat="40.146381" lon="-.836843">
        <ele>1041.967</ele>
        <time>2020-08-29T11:21:06Z</time>
      </trkpt>
      <trkpt lat="40.14638" lon="-.836742">
        <ele>1041.135</ele>
        <time>2020-08-29T11:21:07Z</time>
      </trkpt>
      <trkpt lat="40.14638" lon="-.836641">
        <ele>1041.172</ele>
        <time>2020-08-29T11:21:08Z</time>
      </trkpt>
      <trkpt lat="40.14638" lon="-.836537">
        <ele>1041.160</ele>
        <time>2020-08-29T11:21:09Z</time>
      </trkpt>
      <trkpt lat="40.146383" lon="-.836443">
        <ele>1041.110</ele>
        <time>2020-08-29T11:21:10Z</time>
      </trkpt>
      <trkpt lat="40.146386" lon="-.836357">
        <ele>1041.296</ele>
        <time>2020-08-29T11:21:11Z</time>
      </trkpt>
      <trkpt lat="40.146379" lon="-.836268">
        <ele>1041.231</ele>
        <time>2020-08-29T11:21:12Z</time>
      </trkpt>
      <trkpt lat="40.146384" lon="-.836165">
        <ele>1040.424</ele>
        <time>2020-08-29T11:21:13Z</time>
      </trkpt>
      <trkpt lat="40.146383" lon="-.836066">
        <ele>1040.308</ele>
        <time>2020-08-29T11:21:14Z</time>
      </trkpt>
      <trkpt lat="40.146385" lon="-.835969">
        <ele>1040.394</ele>
        <time>2020-08-29T11:21:15Z</time>
      </trkpt>
      <trkpt lat="40.146383" lon="-.835872">
        <ele>1040.024</ele>
        <time>2020-08-29T11:21:16Z</time>
      </trkpt>
      <trkpt lat="40.146385" lon="-.835789">
        <ele>1040.016</ele>
        <time>2020-08-29T11:21:17Z</time>
      </trkpt>
      <trkpt lat="40.14639" lon="-.835705">
        <ele>1040.038</ele>
        <time>2020-08-29T11:21:18Z</time>
      </trkpt>
      <trkpt lat="40.146386" lon="-.835629">
        <ele>1039.996</ele>
        <time>2020-08-29T11:21:19Z</time>
      </trkpt>
      <trkpt lat="40.14639" lon="-.835529">
        <ele>1039.663</ele>
        <time>2020-08-29T11:21:20Z</time>
      </trkpt>
      <trkpt lat="40.146387" lon="-.835429">
        <ele>1039.371</ele>
        <time>2020-08-29T11:21:21Z</time>
      </trkpt>
      <trkpt lat="40.146386" lon="-.835332">
        <ele>1039.331</ele>
        <time>2020-08-29T11:21:22Z</time>
      </trkpt>
      <trkpt lat="40.14639" lon="-.835233">
        <ele>1039.265</ele>
        <time>2020-08-29T11:21:23Z</time>
      </trkpt>
      <trkpt lat="40.146389" lon="-.835133">
        <ele>1039.168</ele>
        <time>2020-08-29T11:21:24Z</time>
      </trkpt>
      <trkpt lat="40.146389" lon="-.835043">
        <ele>1039.114</ele>
        <time>2020-08-29T11:21:25Z</time>
      </trkpt>
      <trkpt lat="40.146396" lon="-.834962">
        <ele>1039.308</ele>
        <time>2020-08-29T11:21:26Z</time>
      </trkpt>
      <trkpt lat="40.146405" lon="-.834866">
        <ele>1038.841</ele>
        <time>2020-08-29T11:21:27Z</time>
      </trkpt>
      <trkpt lat="40.1464" lon="-.834774">
        <ele>1038.321</ele>
        <time>2020-08-29T11:21:28Z</time>
      </trkpt>
      <trkpt lat="40.146399" lon="-.834665">
        <ele>1038.393</ele>
        <time>2020-08-29T11:21:29Z</time>
      </trkpt>
      <trkpt lat="40.146395" lon="-.834567">
        <ele>1038.315</ele>
        <time>2020-08-29T11:21:30Z</time>
      </trkpt>
      <trkpt lat="40.146397" lon="-.834481">
        <ele>1038.383</ele>
        <time>2020-08-29T11:21:31Z</time>
      </trkpt>
      <trkpt lat="40.146396" lon="-.834407">
        <ele>1038.310</ele>
        <time>2020-08-29T11:21:32Z</time>
      </trkpt>
      <trkpt lat="40.146401" lon="-.834335">
        <ele>1038.358</ele>
        <time>2020-08-29T11:21:33Z</time>
      </trkpt>
      <trkpt lat="40.146405" lon="-.834237">
        <ele>1038.528</ele>
        <time>2020-08-29T11:21:34Z</time>
      </trkpt>
      <trkpt lat="40.146403" lon="-.83415">
        <ele>1038.572</ele>
        <time>2020-08-29T11:21:35Z</time>
      </trkpt>
      <trkpt lat="40.146402" lon="-.834057">
        <ele>1038.213</ele>
        <time>2020-08-29T11:21:36Z</time>
      </trkpt>
      <trkpt lat="40.146411" lon="-.833959">
        <ele>1037.514</ele>
        <time>2020-08-29T11:21:37Z</time>
      </trkpt>
      <trkpt lat="40.146406" lon="-.833856">
        <ele>1037.308</ele>
        <time>2020-08-29T11:21:38Z</time>
      </trkpt>
      <trkpt lat="40.146404" lon="-.833767">
        <ele>1037.232</ele>
        <time>2020-08-29T11:21:39Z</time>
      </trkpt>
      <trkpt lat="40.146407" lon="-.833677">
        <ele>1037.212</ele>
        <time>2020-08-29T11:21:40Z</time>
      </trkpt>
      <trkpt lat="40.146413" lon="-.833596">
        <ele>1037.134</ele>
        <time>2020-08-29T11:21:41Z</time>
      </trkpt>
      <trkpt lat="40.146415" lon="-.833489">
        <ele>1037.196</ele>
        <time>2020-08-29T11:21:42Z</time>
      </trkpt>
      <trkpt lat="40.146418" lon="-.8334">
        <ele>1037.254</ele>
        <time>2020-08-29T11:21:43Z</time>
      </trkpt>
      <trkpt lat="40.146425" lon="-.833309">
        <ele>1036.471</ele>
        <time>2020-08-29T11:21:44Z</time>
      </trkpt>
      <trkpt lat="40.146425" lon="-.833214">
        <ele>1036.489</ele>
        <time>2020-08-29T11:21:45Z</time>
      </trkpt>
      <trkpt lat="40.146432" lon="-.833122">
        <ele>1036.469</ele>
        <time>2020-08-29T11:21:46Z</time>
      </trkpt>
      <trkpt lat="40.146435" lon="-.833029">
        <ele>1036.446</ele>
        <time>2020-08-29T11:21:47Z</time>
      </trkpt>
      <trkpt lat="40.146428" lon="-.832931">
        <ele>1036.388</ele>
        <time>2020-08-29T11:21:48Z</time>
      </trkpt>
      <trkpt lat="40.146425" lon="-.832823">
        <ele>1036.316</ele>
        <time>2020-08-29T11:21:49Z</time>
      </trkpt>
      <trkpt lat="40.146423" lon="-.832727">
        <ele>1036.608</ele>
        <time>2020-08-29T11:21:50Z</time>
      </trkpt>
      <trkpt lat="40.146425" lon="-.832635">
        <ele>1036.619</ele>
        <time>2020-08-29T11:21:51Z</time>
      </trkpt>
      <trkpt lat="40.14643" lon="-.832544">
        <ele>1036.139</ele>
        <time>2020-08-29T11:21:52Z</time>
      </trkpt>
      <trkpt lat="40.146428" lon="-.832456">
        <ele>1035.861</ele>
        <time>2020-08-29T11:21:53Z</time>
      </trkpt>
      <trkpt lat="40.146424" lon="-.832369">
        <ele>1035.653</ele>
        <time>2020-08-29T11:21:54Z</time>
      </trkpt>
      <trkpt lat="40.146422" lon="-.832276">
        <ele>1035.441</ele>
        <time>2020-08-29T11:21:55Z</time>
      </trkpt>
      <trkpt lat="40.146423" lon="-.832185">
        <ele>1035.338</ele>
        <time>2020-08-29T11:21:56Z</time>
      </trkpt>
      <trkpt lat="40.146426" lon="-.8321">
        <ele>1035.296</ele>
        <time>2020-08-29T11:21:57Z</time>
      </trkpt>
      <trkpt lat="40.146423" lon="-.83201">
        <ele>1035.266</ele>
        <time>2020-08-29T11:21:58Z</time>
      </trkpt>
      <trkpt lat="40.146416" lon="-.831923">
        <ele>1035.295</ele>
        <time>2020-08-29T11:21:59Z</time>
      </trkpt>
      <trkpt lat="40.146407" lon="-.83183">
        <ele>1035.249</ele>
        <time>2020-08-29T11:22:00Z</time>
      </trkpt>
      <trkpt lat="40.146399" lon="-.831739">
        <ele>1035.123</ele>
        <time>2020-08-29T11:22:01Z</time>
      </trkpt>
      <trkpt lat="40.146387" lon="-.831649">
        <ele>1035.008</ele>
        <time>2020-08-29T11:22:02Z</time>
      </trkpt>
      <trkpt lat="40.146385" lon="-.831569">
        <ele>1034.924</ele>
        <time>2020-08-29T11:22:03Z</time>
      </trkpt>
      <trkpt lat="40.146368" lon="-.831484">
        <ele>1034.794</ele>
        <time>2020-08-29T11:22:04Z</time>
      </trkpt>
      <trkpt lat="40.146353" lon="-.831396">
        <ele>1034.566</ele>
        <time>2020-08-29T11:22:05Z</time>
      </trkpt>
      <trkpt lat="40.146331" lon="-.8313">
        <ele>1034.478</ele>
        <time>2020-08-29T11:22:06Z</time>
      </trkpt>
      <trkpt lat="40.146306" lon="-.831214">
        <ele>1034.386</ele>
        <time>2020-08-29T11:22:07Z</time>
      </trkpt>
      <trkpt lat="40.146279" lon="-.83113">
        <ele>1034.123</ele>
        <time>2020-08-29T11:22:08Z</time>
      </trkpt>
      <trkpt lat="40.146253" lon="-.831043">
        <ele>1034.021</ele>
        <time>2020-08-29T11:22:09Z</time>
      </trkpt>
      <trkpt lat="40.146231" lon="-.830956">
        <ele>1033.861</ele>
        <time>2020-08-29T11:22:10Z</time>
      </trkpt>
      <trkpt lat="40.146208" lon="-.830872">
        <ele>1033.659</ele>
        <time>2020-08-29T11:22:11Z</time>
      </trkpt>
      <trkpt lat="40.146188" lon="-.830813">
        <ele>1033.503</ele>
        <time>2020-08-29T11:22:12Z</time>
      </trkpt>
      <trkpt lat="40.146143" lon="-.830713">
        <ele>1033.223</ele>
        <time>2020-08-29T11:22:14Z</time>
      </trkpt>
      <trkpt lat="40.146112" lon="-.830618">
        <ele>1033.008</ele>
        <time>2020-08-29T11:22:16Z</time>
      </trkpt>
      <trkpt lat="40.146073" lon="-.830525">
        <ele>1032.790</ele>
        <time>2020-08-29T11:22:18Z</time>
      </trkpt>
      <trkpt lat="40.146052" lon="-.830471">
        <ele>1032.690</ele>
        <time>2020-08-29T11:22:19Z</time>
      </trkpt>
      <trkpt lat="40.146031" lon="-.830418">
        <ele>1032.532</ele>
        <time>2020-08-29T11:22:20Z</time>
      </trkpt>
      <trkpt lat="40.146008" lon="-.830365">
        <ele>1032.594</ele>
        <time>2020-08-29T11:22:21Z</time>
      </trkpt>
      <trkpt lat="40.145982" lon="-.830314">
        <ele>1032.452</ele>
        <time>2020-08-29T11:22:22Z</time>
      </trkpt>
      <trkpt lat="40.145955" lon="-.830266">
        <ele>1032.369</ele>
        <time>2020-08-29T11:22:23Z</time>
      </trkpt>
      <trkpt lat="40.145913" lon="-.83018">
        <ele>1032.087</ele>
        <time>2020-08-29T11:22:25Z</time>
      </trkpt>
      <trkpt lat="40.145877" lon="-.830101">
        <ele>1031.857</ele>
        <time>2020-08-29T11:22:27Z</time>
      </trkpt>
      <trkpt lat="40.145822" lon="-.830014">
        <ele>1031.884</ele>
        <time>2020-08-29T11:22:29Z</time>
      </trkpt>
      <trkpt lat="40.145762" lon="-.829927">
        <ele>1031.707</ele>
        <time>2020-08-29T11:22:31Z</time>
      </trkpt>
      <trkpt lat="40.145736" lon="-.829876">
        <ele>1031.717</ele>
        <time>2020-08-29T11:22:32Z</time>
      </trkpt>
      <trkpt lat="40.145684" lon="-.829793">
        <ele>1031.508</ele>
        <time>2020-08-29T11:22:34Z</time>
      </trkpt>
      <trkpt lat="40.145658" lon="-.829741">
        <ele>1031.563</ele>
        <time>2020-08-29T11:22:35Z</time>
      </trkpt>
      <trkpt lat="40.145634" lon="-.829687">
        <ele>1031.943</ele>
        <time>2020-08-29T11:22:36Z</time>
      </trkpt>
      <trkpt lat="40.145605" lon="-.829637">
        <ele>1032.085</ele>
        <time>2020-08-29T11:22:37Z</time>
      </trkpt>
      <trkpt lat="40.145571" lon="-.829591">
        <ele>1032.037</ele>
        <time>2020-08-29T11:22:38Z</time>
      </trkpt>
      <trkpt lat="40.145538" lon="-.829542">
        <ele>1032.275</ele>
        <time>2020-08-29T11:22:39Z</time>
      </trkpt>
      <trkpt lat="40.145505" lon="-.829478">
        <ele>1032.372</ele>
        <time>2020-08-29T11:22:40Z</time>
      </trkpt>
      <trkpt lat="40.145478" lon="-.82942">
        <ele>1032.450</ele>
        <time>2020-08-29T11:22:41Z</time>
      </trkpt>
      <trkpt lat="40.145441" lon="-.829362">
        <ele>1032.530</ele>
        <time>2020-08-29T11:22:42Z</time>
      </trkpt>
      <trkpt lat="40.145403" lon="-.829299">
        <ele>1032.736</ele>
        <time>2020-08-29T11:22:43Z</time>
      </trkpt>
      <trkpt lat="40.145373" lon="-.829245">
        <ele>1032.717</ele>
        <time>2020-08-29T11:22:44Z</time>
      </trkpt>
      <trkpt lat="40.145341" lon="-.829188">
        <ele>1031.918</ele>
        <time>2020-08-29T11:22:45Z</time>
      </trkpt>
      <trkpt lat="40.145309" lon="-.829131">
        <ele>1031.908</ele>
        <time>2020-08-29T11:22:46Z</time>
      </trkpt>
      <trkpt lat="40.145273" lon="-.829071">
        <ele>1032.248</ele>
        <time>2020-08-29T11:22:47Z</time>
      </trkpt>
      <trkpt lat="40.145239" lon="-.829009">
        <ele>1032.428</ele>
        <time>2020-08-29T11:22:48Z</time>
      </trkpt>
      <trkpt lat="40.145205" lon="-.82895">
        <ele>1032.630</ele>
        <time>2020-08-29T11:22:49Z</time>
      </trkpt>
      <trkpt lat="40.145168" lon="-.828888">
        <ele>1032.692</ele>
        <time>2020-08-29T11:22:50Z</time>
      </trkpt>
      <trkpt lat="40.14513" lon="-.828831">
        <ele>1032.270</ele>
        <time>2020-08-29T11:22:51Z</time>
      </trkpt>
      <trkpt lat="40.145099" lon="-.828771">
        <ele>1032.237</ele>
        <time>2020-08-29T11:22:52Z</time>
      </trkpt>
      <trkpt lat="40.145062" lon="-.82871">
        <ele>1032.285</ele>
        <time>2020-08-29T11:22:53Z</time>
      </trkpt>
      <trkpt lat="40.145025" lon="-.828652">
        <ele>1032.235</ele>
        <time>2020-08-29T11:22:54Z</time>
      </trkpt>
      <trkpt lat="40.144991" lon="-.828591">
        <ele>1032.297</ele>
        <time>2020-08-29T11:22:55Z</time>
      </trkpt>
      <trkpt lat="40.144957" lon="-.828531">
        <ele>1032.223</ele>
        <time>2020-08-29T11:22:56Z</time>
      </trkpt>
      <trkpt lat="40.144921" lon="-.828472">
        <ele>1032.225</ele>
        <time>2020-08-29T11:22:57Z</time>
      </trkpt>
      <trkpt lat="40.144887" lon="-.828421">
        <ele>1032.208</ele>
        <time>2020-08-29T11:22:58Z</time>
      </trkpt>
      <trkpt lat="40.144854" lon="-.828367">
        <ele>1032.234</ele>
        <time>2020-08-29T11:22:59Z</time>
      </trkpt>
      <trkpt lat="40.144818" lon="-.828306">
        <ele>1032.294</ele>
        <time>2020-08-29T11:23:00Z</time>
      </trkpt>
      <trkpt lat="40.144787" lon="-.828252">
        <ele>1032.286</ele>
        <time>2020-08-29T11:23:01Z</time>
      </trkpt>
      <trkpt lat="40.144756" lon="-.828196">
        <ele>1032.298</ele>
        <time>2020-08-29T11:23:02Z</time>
      </trkpt>
      <trkpt lat="40.144721" lon="-.828145">
        <ele>1032.246</ele>
        <time>2020-08-29T11:23:03Z</time>
      </trkpt>
      <trkpt lat="40.144696" lon="-.828088">
        <ele>1032.213</ele>
        <time>2020-08-29T11:23:04Z</time>
      </trkpt>
      <trkpt lat="40.144667" lon="-.828038">
        <ele>1032.261</ele>
        <time>2020-08-29T11:23:05Z</time>
      </trkpt>
      <trkpt lat="40.144633" lon="-.827978">
        <ele>1032.151</ele>
        <time>2020-08-29T11:23:06Z</time>
      </trkpt>
      <trkpt lat="40.144603" lon="-.827925">
        <ele>1032.189</ele>
        <time>2020-08-29T11:23:07Z</time>
      </trkpt>
      <trkpt lat="40.144569" lon="-.827866">
        <ele>1032.006</ele>
        <time>2020-08-29T11:23:08Z</time>
      </trkpt>
      <trkpt lat="40.144533" lon="-.827809">
        <ele>1031.926</ele>
        <time>2020-08-29T11:23:09Z</time>
      </trkpt>
      <trkpt lat="40.144498" lon="-.827748">
        <ele>1031.908</ele>
        <time>2020-08-29T11:23:10Z</time>
      </trkpt>
      <trkpt lat="40.144464" lon="-.827694">
        <ele>1031.983</ele>
        <time>2020-08-29T11:23:11Z</time>
      </trkpt>
      <trkpt lat="40.14443" lon="-.827648">
        <ele>1031.943</ele>
        <time>2020-08-29T11:23:12Z</time>
      </trkpt>
      <trkpt lat="40.144388" lon="-.827584">
        <ele>1031.965</ele>
        <time>2020-08-29T11:23:13Z</time>
      </trkpt>
      <trkpt lat="40.144355" lon="-.827524">
        <ele>1031.967</ele>
        <time>2020-08-29T11:23:14Z</time>
      </trkpt>
      <trkpt lat="40.144327" lon="-.827467">
        <ele>1031.945</ele>
        <time>2020-08-29T11:23:15Z</time>
      </trkpt>
      <trkpt lat="40.144292" lon="-.827411">
        <ele>1031.962</ele>
        <time>2020-08-29T11:23:16Z</time>
      </trkpt>
      <trkpt lat="40.144256" lon="-.827358">
        <ele>1031.970</ele>
        <time>2020-08-29T11:23:17Z</time>
      </trkpt>
      <trkpt lat="40.14422" lon="-.827301">
        <ele>1031.940</ele>
        <time>2020-08-29T11:23:18Z</time>
      </trkpt>
      <trkpt lat="40.144188" lon="-.827237">
        <ele>1031.827</ele>
        <time>2020-08-29T11:23:19Z</time>
      </trkpt>
      <trkpt lat="40.144159" lon="-.827181">
        <ele>1031.868</ele>
        <time>2020-08-29T11:23:20Z</time>
      </trkpt>
      <trkpt lat="40.144124" lon="-.827123">
        <ele>1031.814</ele>
        <time>2020-08-29T11:23:21Z</time>
      </trkpt>
      <trkpt lat="40.144092" lon="-.827063">
        <ele>1031.808</ele>
        <time>2020-08-29T11:23:22Z</time>
      </trkpt>
      <trkpt lat="40.14405" lon="-.827">
        <ele>1032.017</ele>
        <time>2020-08-29T11:23:23Z</time>
      </trkpt>
      <trkpt lat="40.144013" lon="-.826941">
        <ele>1032.017</ele>
        <time>2020-08-29T11:23:24Z</time>
      </trkpt>
      <trkpt lat="40.143978" lon="-.826875">
        <ele>1031.579</ele>
        <time>2020-08-29T11:23:25Z</time>
      </trkpt>
      <trkpt lat="40.143933" lon="-.826803">
        <ele>1031.171</ele>
        <time>2020-08-29T11:23:26Z</time>
      </trkpt>
      <trkpt lat="40.143887" lon="-.826732">
        <ele>1030.939</ele>
        <time>2020-08-29T11:23:27Z</time>
      </trkpt>
      <trkpt lat="40.143849" lon="-.826663">
        <ele>1030.916</ele>
        <time>2020-08-29T11:23:28Z</time>
      </trkpt>
      <trkpt lat="40.143809" lon="-.826599">
        <ele>1030.824</ele>
        <time>2020-08-29T11:23:29Z</time>
      </trkpt>
      <trkpt lat="40.143774" lon="-.826533">
        <ele>1030.844</ele>
        <time>2020-08-29T11:23:30Z</time>
      </trkpt>
      <trkpt lat="40.143729" lon="-.82646">
        <ele>1030.763</ele>
        <time>2020-08-29T11:23:31Z</time>
      </trkpt>
      <trkpt lat="40.143692" lon="-.826394">
        <ele>1030.744</ele>
        <time>2020-08-29T11:23:32Z</time>
      </trkpt>
      <trkpt lat="40.143653" lon="-.826336">
        <ele>1030.618</ele>
        <time>2020-08-29T11:23:33Z</time>
      </trkpt>
      <trkpt lat="40.143612" lon="-.826262">
        <ele>1030.308</ele>
        <time>2020-08-29T11:23:34Z</time>
      </trkpt>
      <trkpt lat="40.143576" lon="-.826193">
        <ele>1030.231</ele>
        <time>2020-08-29T11:23:35Z</time>
      </trkpt>
      <trkpt lat="40.14354" lon="-.826126">
        <ele>1030.091</ele>
        <time>2020-08-29T11:23:36Z</time>
      </trkpt>
      <trkpt lat="40.143494" lon="-.826045">
        <ele>1029.973</ele>
        <time>2020-08-29T11:23:37Z</time>
      </trkpt>
      <trkpt lat="40.143463" lon="-.82598">
        <ele>1029.845</ele>
        <time>2020-08-29T11:23:38Z</time>
      </trkpt>
      <trkpt lat="40.143424" lon="-.82591">
        <ele>1029.973</ele>
        <time>2020-08-29T11:23:39Z</time>
      </trkpt>
      <trkpt lat="40.143385" lon="-.825839">
        <ele>1029.940</ele>
        <time>2020-08-29T11:23:40Z</time>
      </trkpt>
      <trkpt lat="40.143349" lon="-.825779">
        <ele>1029.818</ele>
        <time>2020-08-29T11:23:41Z</time>
      </trkpt>
      <trkpt lat="40.14331" lon="-.825705">
        <ele>1029.548</ele>
        <time>2020-08-29T11:23:42Z</time>
      </trkpt>
      <trkpt lat="40.14327" lon="-.825636">
        <ele>1029.526</ele>
        <time>2020-08-29T11:23:43Z</time>
      </trkpt>
      <trkpt lat="40.143236" lon="-.82557">
        <ele>1029.047</ele>
        <time>2020-08-29T11:23:44Z</time>
      </trkpt>
      <trkpt lat="40.143194" lon="-.825502">
        <ele>1028.811</ele>
        <time>2020-08-29T11:23:45Z</time>
      </trkpt>
      <trkpt lat="40.143154" lon="-.825431">
        <ele>1028.808</ele>
        <time>2020-08-29T11:23:46Z</time>
      </trkpt>
      <trkpt lat="40.143113" lon="-.825359">
        <ele>1028.727</ele>
        <time>2020-08-29T11:23:47Z</time>
      </trkpt>
      <trkpt lat="40.143071" lon="-.825293">
        <ele>1028.767</ele>
        <time>2020-08-29T11:23:48Z</time>
      </trkpt>
      <trkpt lat="40.143032" lon="-.825232">
        <ele>1028.799</ele>
        <time>2020-08-29T11:23:49Z</time>
      </trkpt>
      <trkpt lat="40.14299" lon="-.825164">
        <ele>1028.781</ele>
        <time>2020-08-29T11:23:50Z</time>
      </trkpt>
      <trkpt lat="40.142947" lon="-.825106">
        <ele>1028.529</ele>
        <time>2020-08-29T11:23:51Z</time>
      </trkpt>
      <trkpt lat="40.1429" lon="-.825045">
        <ele>1028.136</ele>
        <time>2020-08-29T11:23:52Z</time>
      </trkpt>
      <trkpt lat="40.142855" lon="-.824985">
        <ele>1028.014</ele>
        <time>2020-08-29T11:23:53Z</time>
      </trkpt>
      <trkpt lat="40.142809" lon="-.824924">
        <ele>1028.064</ele>
        <time>2020-08-29T11:23:54Z</time>
      </trkpt>
      <trkpt lat="40.142762" lon="-.824862">
        <ele>1028.072</ele>
        <time>2020-08-29T11:23:55Z</time>
      </trkpt>
      <trkpt lat="40.142716" lon="-.824803">
        <ele>1028.013</ele>
        <time>2020-08-29T11:23:56Z</time>
      </trkpt>
      <trkpt lat="40.142661" lon="-.824762">
        <ele>1028.014</ele>
        <time>2020-08-29T11:23:57Z</time>
      </trkpt>
      <trkpt lat="40.142618" lon="-.824706">
        <ele>1027.908</ele>
        <time>2020-08-29T11:23:58Z</time>
      </trkpt>
      <trkpt lat="40.142573" lon="-.82465">
        <ele>1027.942</ele>
        <time>2020-08-29T11:23:59Z</time>
      </trkpt>
      <trkpt lat="40.142526" lon="-.824603">
        <ele>1027.612</ele>
        <time>2020-08-29T11:24:00Z</time>
      </trkpt>
      <trkpt lat="40.142473" lon="-.82455">
        <ele>1027.464</ele>
        <time>2020-08-29T11:24:01Z</time>
      </trkpt>
      <trkpt lat="40.14242" lon="-.824499">
        <ele>1026.946</ele>
        <time>2020-08-29T11:24:02Z</time>
      </trkpt>
      <trkpt lat="40.142377" lon="-.824445">
        <ele>1026.774</ele>
        <time>2020-08-29T11:24:03Z</time>
      </trkpt>
      <trkpt lat="40.142331" lon="-.824388">
        <ele>1026.691</ele>
        <time>2020-08-29T11:24:04Z</time>
      </trkpt>
      <trkpt lat="40.142289" lon="-.824334">
        <ele>1026.529</ele>
        <time>2020-08-29T11:24:05Z</time>
      </trkpt>
      <trkpt lat="40.142244" lon="-.824287">
        <ele>1026.489</ele>
        <time>2020-08-29T11:24:06Z</time>
      </trkpt>
      <trkpt lat="40.142197" lon="-.824237">
        <ele>1026.398</ele>
        <time>2020-08-29T11:24:07Z</time>
      </trkpt>
      <trkpt lat="40.142144" lon="-.824191">
        <ele>1026.115</ele>
        <time>2020-08-29T11:24:08Z</time>
      </trkpt>
      <trkpt lat="40.142093" lon="-.824138">
        <ele>1026.026</ele>
        <time>2020-08-29T11:24:09Z</time>
      </trkpt>
      <trkpt lat="40.142048" lon="-.824083">
        <ele>1025.808</ele>
        <time>2020-08-29T11:24:10Z</time>
      </trkpt>
      <trkpt lat="40.141997" lon="-.824036">
        <ele>1025.634</ele>
        <time>2020-08-29T11:24:11Z</time>
      </trkpt>
      <trkpt lat="40.141954" lon="-.823985">
        <ele>1025.514</ele>
        <time>2020-08-29T11:24:12Z</time>
      </trkpt>
      <trkpt lat="40.141898" lon="-.823925">
        <ele>1025.196</ele>
        <time>2020-08-29T11:24:13Z</time>
      </trkpt>
      <trkpt lat="40.141846" lon="-.823866">
        <ele>1025.098</ele>
        <time>2020-08-29T11:24:14Z</time>
      </trkpt>
      <trkpt lat="40.141799" lon="-.823816">
        <ele>1025.176</ele>
        <time>2020-08-29T11:24:15Z</time>
      </trkpt>
      <trkpt lat="40.141753" lon="-.823756">
        <ele>1025.113</ele>
        <time>2020-08-29T11:24:16Z</time>
      </trkpt>
      <trkpt lat="40.141697" lon="-.82369">
        <ele>1024.931</ele>
        <time>2020-08-29T11:24:17Z</time>
      </trkpt>
      <trkpt lat="40.141644" lon="-.823631">
        <ele>1024.951</ele>
        <time>2020-08-29T11:24:18Z</time>
      </trkpt>
      <trkpt lat="40.141596" lon="-.823567">
        <ele>1024.968</ele>
        <time>2020-08-29T11:24:19Z</time>
      </trkpt>
      <trkpt lat="40.141546" lon="-.823509">
        <ele>1024.542</ele>
        <time>2020-08-29T11:24:20Z</time>
      </trkpt>
      <trkpt lat="40.141489" lon="-.823446">
        <ele>1024.126</ele>
        <time>2020-08-29T11:24:21Z</time>
      </trkpt>
      <trkpt lat="40.141444" lon="-.823392">
        <ele>1024.108</ele>
        <time>2020-08-29T11:24:22Z</time>
      </trkpt>
      <trkpt lat="40.141397" lon="-.823331">
        <ele>1024.161</ele>
        <time>2020-08-29T11:24:23Z</time>
      </trkpt>
      <trkpt lat="40.14135" lon="-.823268">
        <ele>1024.011</ele>
        <time>2020-08-29T11:24:24Z</time>
      </trkpt>
      <trkpt lat="40.141307" lon="-.823208">
        <ele>1024.053</ele>
        <time>2020-08-29T11:24:25Z</time>
      </trkpt>
      <trkpt lat="40.141273" lon="-.823138">
        <ele>1024.265</ele>
        <time>2020-08-29T11:24:26Z</time>
      </trkpt>
      <trkpt lat="40.141224" lon="-.82307">
        <ele>1024.233</ele>
        <time>2020-08-29T11:24:27Z</time>
      </trkpt>
      <trkpt lat="40.141184" lon="-.823">
        <ele>1024.260</ele>
        <time>2020-08-29T11:24:28Z</time>
      </trkpt>
      <trkpt lat="40.141148" lon="-.822934">
        <ele>1024.248</ele>
        <time>2020-08-29T11:24:29Z</time>
      </trkpt>
      <trkpt lat="40.141107" lon="-.82286">
        <ele>1024.298</ele>
        <time>2020-08-29T11:24:30Z</time>
      </trkpt>
      <trkpt lat="40.141071" lon="-.822799">
        <ele>1024.121</ele>
        <time>2020-08-29T11:24:31Z</time>
      </trkpt>
      <trkpt lat="40.141037" lon="-.822739">
        <ele>1024.141</ele>
        <time>2020-08-29T11:24:32Z</time>
      </trkpt>
      <trkpt lat="40.141006" lon="-.822672">
        <ele>1024.105</ele>
        <time>2020-08-29T11:24:33Z</time>
      </trkpt>
      <trkpt lat="40.140972" lon="-.822608">
        <ele>1024.108</ele>
        <time>2020-08-29T11:24:34Z</time>
      </trkpt>
      <trkpt lat="40.140946" lon="-.822547">
        <ele>1024.297</ele>
        <time>2020-08-29T11:24:35Z</time>
      </trkpt>
      <trkpt lat="40.14092" lon="-.822487">
        <ele>1024.217</ele>
        <time>2020-08-29T11:24:36Z</time>
      </trkpt>
      <trkpt lat="40.140884" lon="-.822419">
        <ele>1024.449</ele>
        <time>2020-08-29T11:24:37Z</time>
      </trkpt>
      <trkpt lat="40.140852" lon="-.82236">
        <ele>1024.621</ele>
        <time>2020-08-29T11:24:38Z</time>
      </trkpt>
      <trkpt lat="40.140821" lon="-.822299">
        <ele>1024.619</ele>
        <time>2020-08-29T11:24:39Z</time>
      </trkpt>
      <trkpt lat="40.14079" lon="-.822248">
        <ele>1024.696</ele>
        <time>2020-08-29T11:24:40Z</time>
      </trkpt>
      <trkpt lat="40.140735" lon="-.822152">
        <ele>1025.074</ele>
        <time>2020-08-29T11:24:42Z</time>
      </trkpt>
      <trkpt lat="40.140709" lon="-.822096">
        <ele>1025.234</ele>
        <time>2020-08-29T11:24:43Z</time>
      </trkpt>
      <trkpt lat="40.140681" lon="-.822047">
        <ele>1025.544</ele>
        <time>2020-08-29T11:24:44Z</time>
      </trkpt>
      <trkpt lat="40.140647" lon="-.822004">
        <ele>1025.905</ele>
        <time>2020-08-29T11:24:45Z</time>
      </trkpt>
      <trkpt lat="40.140615" lon="-.821916">
        <ele>1025.915</ele>
        <time>2020-08-29T11:24:47Z</time>
      </trkpt>
      <trkpt lat="40.140565" lon="-.821819">
        <ele>1025.608</ele>
        <time>2020-08-29T11:24:49Z</time>
      </trkpt>
      <trkpt lat="40.140546" lon="-.82176">
        <ele>1025.489</ele>
        <time>2020-08-29T11:24:50Z</time>
      </trkpt>
      <trkpt lat="40.140519" lon="-.821711">
        <ele>1025.219</ele>
        <time>2020-08-29T11:24:51Z</time>
      </trkpt>
      <trkpt lat="40.140496" lon="-.821657">
        <ele>1024.931</ele>
        <time>2020-08-29T11:24:52Z</time>
      </trkpt>
      <trkpt lat="40.140468" lon="-.821604">
        <ele>1024.773</ele>
        <time>2020-08-29T11:24:53Z</time>
      </trkpt>
      <trkpt lat="40.140421" lon="-.82151">
        <ele>1025.141</ele>
        <time>2020-08-29T11:24:55Z</time>
      </trkpt>
      <trkpt lat="40.140384" lon="-.821425">
        <ele>1025.598</ele>
        <time>2020-08-29T11:24:57Z</time>
      </trkpt>
      <trkpt lat="40.140334" lon="-.821327">
        <ele>1025.246</ele>
        <time>2020-08-29T11:24:59Z</time>
      </trkpt>
      <trkpt lat="40.14031" lon="-.821275">
        <ele>1025.246</ele>
        <time>2020-08-29T11:25:00Z</time>
      </trkpt>
      <trkpt lat="40.14028" lon="-.821214">
        <ele>1025.249</ele>
        <time>2020-08-29T11:25:01Z</time>
      </trkpt>
      <trkpt lat="40.140247" lon="-.821152">
        <ele>1025.102</ele>
        <time>2020-08-29T11:25:02Z</time>
      </trkpt>
      <trkpt lat="40.140219" lon="-.821094">
        <ele>1024.822</ele>
        <time>2020-08-29T11:25:03Z</time>
      </trkpt>
      <trkpt lat="40.140187" lon="-.821037">
        <ele>1024.808</ele>
        <time>2020-08-29T11:25:04Z</time>
      </trkpt>
      <trkpt lat="40.140155" lon="-.820976">
        <ele>1025.679</ele>
        <time>2020-08-29T11:25:05Z</time>
      </trkpt>
      <trkpt lat="40.140124" lon="-.820927">
        <ele>1025.699</ele>
        <time>2020-08-29T11:25:06Z</time>
      </trkpt>
      <trkpt lat="40.140096" lon="-.820875">
        <ele>1025.651</ele>
        <time>2020-08-29T11:25:07Z</time>
      </trkpt>
      <trkpt lat="40.140065" lon="-.820823">
        <ele>1025.163</ele>
        <time>2020-08-29T11:25:08Z</time>
      </trkpt>
      <trkpt lat="40.140027" lon="-.820774">
        <ele>1025.171</ele>
        <time>2020-08-29T11:25:09Z</time>
      </trkpt>
      <trkpt lat="40.139992" lon="-.820733">
        <ele>1025.198</ele>
        <time>2020-08-29T11:25:10Z</time>
      </trkpt>
      <trkpt lat="40.139961" lon="-.820678">
        <ele>1025.296</ele>
        <time>2020-08-29T11:25:11Z</time>
      </trkpt>
      <trkpt lat="40.139916" lon="-.820629">
        <ele>1025.346</ele>
        <time>2020-08-29T11:25:12Z</time>
      </trkpt>
      <trkpt lat="40.139872" lon="-.820591">
        <ele>1025.478</ele>
        <time>2020-08-29T11:25:13Z</time>
      </trkpt>
      <trkpt lat="40.139827" lon="-.820551">
        <ele>1025.433</ele>
        <time>2020-08-29T11:25:14Z</time>
      </trkpt>
      <trkpt lat="40.139788" lon="-.820505">
        <ele>1025.426</ele>
        <time>2020-08-29T11:25:15Z</time>
      </trkpt>
      <trkpt lat="40.139748" lon="-.820466">
        <ele>1025.408</ele>
        <time>2020-08-29T11:25:16Z</time>
      </trkpt>
      <trkpt lat="40.139707" lon="-.820438">
        <ele>1025.472</ele>
        <time>2020-08-29T11:25:17Z</time>
      </trkpt>
      <trkpt lat="40.139659" lon="-.820406">
        <ele>1025.392</ele>
        <time>2020-08-29T11:25:18Z</time>
      </trkpt>
      <trkpt lat="40.139606" lon="-.820374">
        <ele>1025.374</ele>
        <time>2020-08-29T11:25:19Z</time>
      </trkpt>
      <trkpt lat="40.139528" lon="-.820322">
        <ele>1025.476</ele>
        <time>2020-08-29T11:25:21Z</time>
      </trkpt>
      <trkpt lat="40.139486" lon="-.820299">
        <ele>1025.484</ele>
        <time>2020-08-29T11:25:22Z</time>
      </trkpt>
      <trkpt lat="40.139414" lon="-.820265">
        <ele>1025.671</ele>
        <time>2020-08-29T11:25:24Z</time>
      </trkpt>
      <trkpt lat="40.139372" lon="-.820242">
        <ele>1025.659</ele>
        <time>2020-08-29T11:25:25Z</time>
      </trkpt>
      <trkpt lat="40.139317" lon="-.820199">
        <ele>1025.639</ele>
        <time>2020-08-29T11:25:27Z</time>
      </trkpt>
      <trkpt lat="40.139262" lon="-.820177">
        <ele>1025.712</ele>
        <time>2020-08-29T11:25:29Z</time>
      </trkpt>
      <trkpt lat="40.139207" lon="-.820148">
        <ele>1025.732</ele>
        <time>2020-08-29T11:25:31Z</time>
      </trkpt>
      <trkpt lat="40.139124" lon="-.820132">
        <ele>1025.805</ele>
        <time>2020-08-29T11:25:33Z</time>
      </trkpt>
      <trkpt lat="40.139078" lon="-.82012">
        <ele>1025.808</ele>
        <time>2020-08-29T11:25:34Z</time>
      </trkpt>
      <trkpt lat="40.139009" lon="-.820094">
        <ele>1025.666</ele>
        <time>2020-08-29T11:25:36Z</time>
      </trkpt>
      <trkpt lat="40.138935" lon="-.820064">
        <ele>1025.556</ele>
        <time>2020-08-29T11:25:38Z</time>
      </trkpt>
      <trkpt lat="40.138855" lon="-.820031">
        <ele>1025.558</ele>
        <time>2020-08-29T11:25:40Z</time>
      </trkpt>
      <trkpt lat="40.138771" lon="-.819999">
        <ele>1025.380</ele>
        <time>2020-08-29T11:25:42Z</time>
      </trkpt>
      <trkpt lat="40.138726" lon="-.819982">
        <ele>1025.138</ele>
        <time>2020-08-29T11:25:43Z</time>
      </trkpt>
      <trkpt lat="40.13868" lon="-.819963">
        <ele>1024.965</ele>
        <time>2020-08-29T11:25:44Z</time>
      </trkpt>
      <trkpt lat="40.138592" lon="-.819936">
        <ele>1024.523</ele>
        <time>2020-08-29T11:25:46Z</time>
      </trkpt>
      <trkpt lat="40.138547" lon="-.819923">
        <ele>1024.333</ele>
        <time>2020-08-29T11:25:47Z</time>
      </trkpt>
      <trkpt lat="40.138464" lon="-.819899">
        <ele>1024.153</ele>
        <time>2020-08-29T11:25:49Z</time>
      </trkpt>
      <trkpt lat="40.138422" lon="-.819876">
        <ele>1024.104</ele>
        <time>2020-08-29T11:25:50Z</time>
      </trkpt>
      <trkpt lat="40.13834" lon="-.819846">
        <ele>1024.014</ele>
        <time>2020-08-29T11:25:52Z</time>
      </trkpt>
      <trkpt lat="40.138294" lon="-.819832">
        <ele>1024.008</ele>
        <time>2020-08-29T11:25:53Z</time>
      </trkpt>
      <trkpt lat="40.13825" lon="-.819813">
        <ele>1024.040</ele>
        <time>2020-08-29T11:25:54Z</time>
      </trkpt>
      <trkpt lat="40.138203" lon="-.819795">
        <ele>1024.090</ele>
        <time>2020-08-29T11:25:55Z</time>
      </trkpt>
      <trkpt lat="40.138113" lon="-.81975">
        <ele>1024.052</ele>
        <time>2020-08-29T11:25:57Z</time>
      </trkpt>
      <trkpt lat="40.13806" lon="-.819728">
        <ele>1024.024</ele>
        <time>2020-08-29T11:25:58Z</time>
      </trkpt>
      <trkpt lat="40.138012" lon="-.819711">
        <ele>1023.972</ele>
        <time>2020-08-29T11:25:59Z</time>
      </trkpt>
      <trkpt lat="40.137962" lon="-.819692">
        <ele>1023.949</ele>
        <time>2020-08-29T11:26:00Z</time>
      </trkpt>
      <trkpt lat="40.137905" lon="-.819679">
        <ele>1023.977</ele>
        <time>2020-08-29T11:26:01Z</time>
      </trkpt>
      <trkpt lat="40.137854" lon="-.819657">
        <ele>1023.847</ele>
        <time>2020-08-29T11:26:02Z</time>
      </trkpt>
      <trkpt lat="40.137802" lon="-.81964">
        <ele>1023.512</ele>
        <time>2020-08-29T11:26:03Z</time>
      </trkpt>
      <trkpt lat="40.137757" lon="-.819632">
        <ele>1023.532</ele>
        <time>2020-08-29T11:26:04Z</time>
      </trkpt>
      <trkpt lat="40.137709" lon="-.819627">
        <ele>1023.505</ele>
        <time>2020-08-29T11:26:05Z</time>
      </trkpt>
      <trkpt lat="40.137655" lon="-.819611">
        <ele>1022.508</ele>
        <time>2020-08-29T11:26:06Z</time>
      </trkpt>
      <trkpt lat="40.137603" lon="-.819602">
        <ele>1022.576</ele>
        <time>2020-08-29T11:26:07Z</time>
      </trkpt>
      <trkpt lat="40.137512" lon="-.819584">
        <ele>1023.096</ele>
        <time>2020-08-29T11:26:09Z</time>
      </trkpt>
      <trkpt lat="40.137458" lon="-.819589">
        <ele>1023.068</ele>
        <time>2020-08-29T11:26:10Z</time>
      </trkpt>
      <trkpt lat="40.137401" lon="-.81958">
        <ele>1024.140</ele>
        <time>2020-08-29T11:26:11Z</time>
      </trkpt>
      <trkpt lat="40.137305" lon="-.819578">
        <ele>1023.978</ele>
        <time>2020-08-29T11:26:13Z</time>
      </trkpt>
      <trkpt lat="40.137252" lon="-.819578">
        <ele>1023.925</ele>
        <time>2020-08-29T11:26:14Z</time>
      </trkpt>
      <trkpt lat="40.137199" lon="-.819568">
        <ele>1023.663</ele>
        <time>2020-08-29T11:26:15Z</time>
      </trkpt>
      <trkpt lat="40.137138" lon="-.819568">
        <ele>1023.163</ele>
        <time>2020-08-29T11:26:16Z</time>
      </trkpt>
      <trkpt lat="40.137088" lon="-.819568">
        <ele>1022.714</ele>
        <time>2020-08-29T11:26:17Z</time>
      </trkpt>
      <trkpt lat="40.137024" lon="-.819562">
        <ele>1022.754</ele>
        <time>2020-08-29T11:26:18Z</time>
      </trkpt>
      <trkpt lat="40.136976" lon="-.819568">
        <ele>1022.409</ele>
        <time>2020-08-29T11:26:19Z</time>
      </trkpt>
      <trkpt lat="40.136917" lon="-.819577">
        <ele>1022.108</ele>
        <time>2020-08-29T11:26:20Z</time>
      </trkpt>
      <trkpt lat="40.136856" lon="-.819577">
        <ele>1022.056</ele>
        <time>2020-08-29T11:26:21Z</time>
      </trkpt>
      <trkpt lat="40.136802" lon="-.819572">
        <ele>1021.826</ele>
        <time>2020-08-29T11:26:22Z</time>
      </trkpt>
      <trkpt lat="40.13675" lon="-.819575">
        <ele>1021.518</ele>
        <time>2020-08-29T11:26:23Z</time>
      </trkpt>
      <trkpt lat="40.136702" lon="-.81958">
        <ele>1021.340</ele>
        <time>2020-08-29T11:26:24Z</time>
      </trkpt>
      <trkpt lat="40.136641" lon="-.8196">
        <ele>1021.298</ele>
        <time>2020-08-29T11:26:25Z</time>
      </trkpt>
      <trkpt lat="40.136583" lon="-.819615">
        <ele>1020.835</ele>
        <time>2020-08-29T11:26:26Z</time>
      </trkpt>
      <trkpt lat="40.13653" lon="-.819623">
        <ele>1020.853</ele>
        <time>2020-08-29T11:26:27Z</time>
      </trkpt>
      <trkpt lat="40.136477" lon="-.819619">
        <ele>1020.943</ele>
        <time>2020-08-29T11:26:28Z</time>
      </trkpt>
      <trkpt lat="40.13643" lon="-.819614">
        <ele>1021.086</ele>
        <time>2020-08-29T11:26:29Z</time>
      </trkpt>
      <trkpt lat="40.136377" lon="-.819638">
        <ele>1021.160</ele>
        <time>2020-08-29T11:26:30Z</time>
      </trkpt>
      <trkpt lat="40.13632" lon="-.819651">
        <ele>1021.126</ele>
        <time>2020-08-29T11:26:31Z</time>
      </trkpt>
      <trkpt lat="40.136266" lon="-.819665">
        <ele>1021.108</ele>
        <time>2020-08-29T11:26:32Z</time>
      </trkpt>
      <trkpt lat="40.136216" lon="-.819679">
        <ele>1020.993</ele>
        <time>2020-08-29T11:26:33Z</time>
      </trkpt>
      <trkpt lat="40.13617" lon="-.819689">
        <ele>1020.693</ele>
        <time>2020-08-29T11:26:34Z</time>
      </trkpt>
      <trkpt lat="40.136116" lon="-.8197">
        <ele>1020.655</ele>
        <time>2020-08-29T11:26:35Z</time>
      </trkpt>
      <trkpt lat="40.136064" lon="-.819714">
        <ele>1020.627</ele>
        <time>2020-08-29T11:26:36Z</time>
      </trkpt>
      <trkpt lat="40.136014" lon="-.819721">
        <ele>1020.575</ele>
        <time>2020-08-29T11:26:37Z</time>
      </trkpt>
      <trkpt lat="40.135951" lon="-.819736">
        <ele>1020.582</ele>
        <time>2020-08-29T11:26:38Z</time>
      </trkpt>
      <trkpt lat="40.135897" lon="-.819749">
        <ele>1020.570</ele>
        <time>2020-08-29T11:26:39Z</time>
      </trkpt>
      <trkpt lat="40.135842" lon="-.819771">
        <ele>1020.430</ele>
        <time>2020-08-29T11:26:40Z</time>
      </trkpt>
      <trkpt lat="40.135788" lon="-.819792">
        <ele>1019.979</ele>
        <time>2020-08-29T11:26:41Z</time>
      </trkpt>
      <trkpt lat="40.135737" lon="-.819806">
        <ele>1019.905</ele>
        <time>2020-08-29T11:26:42Z</time>
      </trkpt>
      <trkpt lat="40.13568" lon="-.819824">
        <ele>1019.825</ele>
        <time>2020-08-29T11:26:43Z</time>
      </trkpt>
      <trkpt lat="40.135625" lon="-.819832">
        <ele>1019.808</ele>
        <time>2020-08-29T11:26:44Z</time>
      </trkpt>
      <trkpt lat="40.135579" lon="-.819842">
        <ele>1019.892</ele>
        <time>2020-08-29T11:26:45Z</time>
      </trkpt>
      <trkpt lat="40.135524" lon="-.819863">
        <ele>1020.432</ele>
        <time>2020-08-29T11:26:46Z</time>
      </trkpt>
      <trkpt lat="40.135462" lon="-.819888">
        <ele>1020.494</ele>
        <time>2020-08-29T11:26:47Z</time>
      </trkpt>
      <trkpt lat="40.135406" lon="-.819916">
        <ele>1020.286</ele>
        <time>2020-08-29T11:26:48Z</time>
      </trkpt>
      <trkpt lat="40.135354" lon="-.819935">
        <ele>1020.094</ele>
        <time>2020-08-29T11:26:49Z</time>
      </trkpt>
      <trkpt lat="40.135297" lon="-.81996">
        <ele>1019.851</ele>
        <time>2020-08-29T11:26:50Z</time>
      </trkpt>
      <trkpt lat="40.135244" lon="-.819976">
        <ele>1019.739</ele>
        <time>2020-08-29T11:26:51Z</time>
      </trkpt>
      <trkpt lat="40.135183" lon="-.819983">
        <ele>1019.749</ele>
        <time>2020-08-29T11:26:52Z</time>
      </trkpt>
      <trkpt lat="40.13513" lon="-.819999">
        <ele>1019.657</ele>
        <time>2020-08-29T11:26:53Z</time>
      </trkpt>
      <trkpt lat="40.135081" lon="-.820021">
        <ele>1019.500</ele>
        <time>2020-08-29T11:26:54Z</time>
      </trkpt>
      <trkpt lat="40.135026" lon="-.820035">
        <ele>1019.520</ele>
        <time>2020-08-29T11:26:55Z</time>
      </trkpt>
      <trkpt lat="40.134968" lon="-.820044">
        <ele>1019.508</ele>
        <time>2020-08-29T11:26:56Z</time>
      </trkpt>
      <trkpt lat="40.134921" lon="-.820071">
        <ele>1019.420</ele>
        <time>2020-08-29T11:26:57Z</time>
      </trkpt>
      <trkpt lat="40.134874" lon="-.820109">
        <ele>1019.470</ele>
        <time>2020-08-29T11:26:58Z</time>
      </trkpt>
      <trkpt lat="40.134819" lon="-.820132">
        <ele>1019.422</ele>
        <time>2020-08-29T11:26:59Z</time>
      </trkpt>
      <trkpt lat="40.134757" lon="-.820145">
        <ele>1019.474</ele>
        <time>2020-08-29T11:27:00Z</time>
      </trkpt>
      <trkpt lat="40.134709" lon="-.820167">
        <ele>1019.342</ele>
        <time>2020-08-29T11:27:01Z</time>
      </trkpt>
      <trkpt lat="40.134611" lon="-.820195">
        <ele>1019.099</ele>
        <time>2020-08-29T11:27:03Z</time>
      </trkpt>
      <trkpt lat="40.134556" lon="-.820208">
        <ele>1019.047</ele>
        <time>2020-08-29T11:27:04Z</time>
      </trkpt>
      <trkpt lat="40.134497" lon="-.82022">
        <ele>1018.847</ele>
        <time>2020-08-29T11:27:05Z</time>
      </trkpt>
      <trkpt lat="40.13445" lon="-.820234">
        <ele>1018.598</ele>
        <time>2020-08-29T11:27:06Z</time>
      </trkpt>
      <trkpt lat="40.134403" lon="-.820249">
        <ele>1018.415</ele>
        <time>2020-08-29T11:27:07Z</time>
      </trkpt>
      <trkpt lat="40.134342" lon="-.820273">
        <ele>1018.426</ele>
        <time>2020-08-29T11:27:08Z</time>
      </trkpt>
      <trkpt lat="40.134279" lon="-.820294">
        <ele>1018.208</ele>
        <time>2020-08-29T11:27:09Z</time>
      </trkpt>
      <trkpt lat="40.134219" lon="-.82031">
        <ele>1018.254</ele>
        <time>2020-08-29T11:27:10Z</time>
      </trkpt>
      <trkpt lat="40.134167" lon="-.820321">
        <ele>1018.214</ele>
        <time>2020-08-29T11:27:11Z</time>
      </trkpt>
      <trkpt lat="40.134104" lon="-.820333">
        <ele>1018.196</ele>
        <time>2020-08-29T11:27:12Z</time>
      </trkpt>
      <trkpt lat="40.134042" lon="-.82035">
        <ele>1018.088</ele>
        <time>2020-08-29T11:27:13Z</time>
      </trkpt>
      <trkpt lat="40.133976" lon="-.820365">
        <ele>1017.846</ele>
        <time>2020-08-29T11:27:14Z</time>
      </trkpt>
      <trkpt lat="40.133926" lon="-.82039">
        <ele>1017.733</ele>
        <time>2020-08-29T11:27:15Z</time>
      </trkpt>
      <trkpt lat="40.133876" lon="-.820403">
        <ele>1017.671</ele>
        <time>2020-08-29T11:27:16Z</time>
      </trkpt>
      <trkpt lat="40.133823" lon="-.820404">
        <ele>1017.671</ele>
        <time>2020-08-29T11:27:17Z</time>
      </trkpt>
      <trkpt lat="40.133782" lon="-.820433">
        <ele>1017.588</ele>
        <time>2020-08-29T11:27:18Z</time>
      </trkpt>
      <trkpt lat="40.133728" lon="-.820447">
        <ele>1017.524</ele>
        <time>2020-08-29T11:27:19Z</time>
      </trkpt>
      <trkpt lat="40.133676" lon="-.820459">
        <ele>1017.426</ele>
        <time>2020-08-29T11:27:20Z</time>
      </trkpt>
      <trkpt lat="40.133618" lon="-.820472">
        <ele>1017.008</ele>
        <time>2020-08-29T11:27:21Z</time>
      </trkpt>
      <trkpt lat="40.133569" lon="-.820481">
        <ele>1016.723</ele>
        <time>2020-08-29T11:27:22Z</time>
      </trkpt>
      <trkpt lat="40.133509" lon="-.820495">
        <ele>1016.583</ele>
        <time>2020-08-29T11:27:23Z</time>
      </trkpt>
      <trkpt lat="40.133457" lon="-.820505">
        <ele>1016.255</ele>
        <time>2020-08-29T11:27:24Z</time>
      </trkpt>
      <trkpt lat="40.133409" lon="-.820516">
        <ele>1015.927</ele>
        <time>2020-08-29T11:27:25Z</time>
      </trkpt>
      <trkpt lat="40.13336" lon="-.820526">
        <ele>1015.885</ele>
        <time>2020-08-29T11:27:26Z</time>
      </trkpt>
      <trkpt lat="40.133301" lon="-.820525">
        <ele>1015.662</ele>
        <time>2020-08-29T11:27:27Z</time>
      </trkpt>
      <trkpt lat="40.133251" lon="-.820513">
        <ele>1015.370</ele>
        <time>2020-08-29T11:27:28Z</time>
      </trkpt>
      <trkpt lat="40.133197" lon="-.820514">
        <ele>1015.210</ele>
        <time>2020-08-29T11:27:29Z</time>
      </trkpt>
      <trkpt lat="40.133147" lon="-.820514">
        <ele>1015.191</ele>
        <time>2020-08-29T11:27:30Z</time>
      </trkpt>
      <trkpt lat="40.133087" lon="-.820508">
        <ele>1015.181</ele>
        <time>2020-08-29T11:27:31Z</time>
      </trkpt>
      <trkpt lat="40.133033" lon="-.820499">
        <ele>1014.919</ele>
        <time>2020-08-29T11:27:32Z</time>
      </trkpt>
      <trkpt lat="40.132976" lon="-.8205">
        <ele>1014.808</ele>
        <time>2020-08-29T11:27:33Z</time>
      </trkpt>
      <trkpt lat="40.132926" lon="-.820499">
        <ele>1014.624</ele>
        <time>2020-08-29T11:27:34Z</time>
      </trkpt>
      <trkpt lat="40.132864" lon="-.820505">
        <ele>1014.584</ele>
        <time>2020-08-29T11:27:35Z</time>
      </trkpt>
      <trkpt lat="40.132807" lon="-.820506">
        <ele>1014.356</ele>
        <time>2020-08-29T11:27:36Z</time>
      </trkpt>
      <trkpt lat="40.132751" lon="-.820499">
        <ele>1014.318</ele>
        <time>2020-08-29T11:27:37Z</time>
      </trkpt>
      <trkpt lat="40.132698" lon="-.820494">
        <ele>1014.356</ele>
        <time>2020-08-29T11:27:38Z</time>
      </trkpt>
      <trkpt lat="40.132641" lon="-.820486">
        <ele>1014.343</ele>
        <time>2020-08-29T11:27:39Z</time>
      </trkpt>
      <trkpt lat="40.132586" lon="-.820482">
        <ele>1014.251</ele>
        <time>2020-08-29T11:27:40Z</time>
      </trkpt>
      <trkpt lat="40.132539" lon="-.820462">
        <ele>1014.141</ele>
        <time>2020-08-29T11:27:41Z</time>
      </trkpt>
      <trkpt lat="40.132487" lon="-.820456">
        <ele>1014.056</ele>
        <time>2020-08-29T11:27:42Z</time>
      </trkpt>
      <trkpt lat="40.132435" lon="-.820445">
        <ele>1013.959</ele>
        <time>2020-08-29T11:27:43Z</time>
      </trkpt>
      <trkpt lat="40.132385" lon="-.820426">
        <ele>1013.914</ele>
        <time>2020-08-29T11:27:44Z</time>
      </trkpt>
      <trkpt lat="40.13234" lon="-.820402">
        <ele>1013.808</ele>
        <time>2020-08-29T11:27:45Z</time>
      </trkpt>
      <trkpt lat="40.132287" lon="-.820394">
        <ele>1013.690</ele>
        <time>2020-08-29T11:27:46Z</time>
      </trkpt>
      <trkpt lat="40.132237" lon="-.820376">
        <ele>1013.550</ele>
        <time>2020-08-29T11:27:47Z</time>
      </trkpt>
      <trkpt lat="40.132186" lon="-.820358">
        <ele>1013.392</ele>
        <time>2020-08-29T11:27:48Z</time>
      </trkpt>
      <trkpt lat="40.132135" lon="-.820338">
        <ele>1013.264</ele>
        <time>2020-08-29T11:27:49Z</time>
      </trkpt>
      <trkpt lat="40.132086" lon="-.820316">
        <ele>1012.942</ele>
        <time>2020-08-29T11:27:50Z</time>
      </trkpt>
      <trkpt lat="40.132043" lon="-.820281">
        <ele>1012.819</ele>
        <time>2020-08-29T11:27:51Z</time>
      </trkpt>
      <trkpt lat="40.131995" lon="-.82025">
        <ele>1012.797</ele>
        <time>2020-08-29T11:27:52Z</time>
      </trkpt>
      <trkpt lat="40.131945" lon="-.820221">
        <ele>1012.497</ele>
        <time>2020-08-29T11:27:53Z</time>
      </trkpt>
      <trkpt lat="40.131894" lon="-.820189">
        <ele>1012.214</ele>
        <time>2020-08-29T11:27:54Z</time>
      </trkpt>
      <trkpt lat="40.131849" lon="-.820163">
        <ele>1012.054</ele>
        <time>2020-08-29T11:27:55Z</time>
      </trkpt>
      <trkpt lat="40.131797" lon="-.820115">
        <ele>1011.609</ele>
        <time>2020-08-29T11:27:56Z</time>
      </trkpt>
      <trkpt lat="40.131745" lon="-.82008">
        <ele>1011.608</ele>
        <time>2020-08-29T11:27:57Z</time>
      </trkpt>
      <trkpt lat="40.1317" lon="-.820034">
        <ele>1011.556</ele>
        <time>2020-08-29T11:27:58Z</time>
      </trkpt>
      <trkpt lat="40.131651" lon="-.819989">
        <ele>1011.566</ele>
        <time>2020-08-29T11:27:59Z</time>
      </trkpt>
      <trkpt lat="40.1316" lon="-.819945">
        <ele>1011.478</ele>
        <time>2020-08-29T11:28:00Z</time>
      </trkpt>
      <trkpt lat="40.131559" lon="-.819898">
        <ele>1011.420</ele>
        <time>2020-08-29T11:28:01Z</time>
      </trkpt>
      <trkpt lat="40.131514" lon="-.819841">
        <ele>1011.318</ele>
        <time>2020-08-29T11:28:02Z</time>
      </trkpt>
      <trkpt lat="40.131473" lon="-.81978">
        <ele>1011.275</ele>
        <time>2020-08-29T11:28:03Z</time>
      </trkpt>
      <trkpt lat="40.131432" lon="-.819728">
        <ele>1011.013</ele>
        <time>2020-08-29T11:28:04Z</time>
      </trkpt>
      <trkpt lat="40.131398" lon="-.819685">
        <ele>1010.893</ele>
        <time>2020-08-29T11:28:05Z</time>
      </trkpt>
      <trkpt lat="40.131366" lon="-.819642">
        <ele>1010.767</ele>
        <time>2020-08-29T11:28:06Z</time>
      </trkpt>
      <trkpt lat="40.131319" lon="-.819562">
        <ele>1010.281</ele>
        <time>2020-08-29T11:28:08Z</time>
      </trkpt>
      <trkpt lat="40.131271" lon="-.819466">
        <ele>1010.119</ele>
        <time>2020-08-29T11:28:10Z</time>
      </trkpt>
      <trkpt lat="40.13122" lon="-.819371">
        <ele>1010.008</ele>
        <time>2020-08-29T11:28:12Z</time>
      </trkpt>
      <trkpt lat="40.131175" lon="-.819271">
        <ele>1009.881</ele>
        <time>2020-08-29T11:28:14Z</time>
      </trkpt>
      <trkpt lat="40.131151" lon="-.819217">
        <ele>1009.611</ele>
        <time>2020-08-29T11:28:15Z</time>
      </trkpt>
      <trkpt lat="40.131113" lon="-.819111">
        <ele>1009.553</ele>
        <time>2020-08-29T11:28:17Z</time>
      </trkpt>
      <trkpt lat="40.131073" lon="-.819017">
        <ele>1009.435</ele>
        <time>2020-08-29T11:28:19Z</time>
      </trkpt>
      <trkpt lat="40.131047" lon="-.818962">
        <ele>1009.243</ele>
        <time>2020-08-29T11:28:20Z</time>
      </trkpt>
      <trkpt lat="40.131028" lon="-.818905">
        <ele>1009.290</ele>
        <time>2020-08-29T11:28:21Z</time>
      </trkpt>
      <trkpt lat="40.13101" lon="-.818842">
        <ele>1009.388</ele>
        <time>2020-08-29T11:28:22Z</time>
      </trkpt>
      <trkpt lat="40.13098" lon="-.818733">
        <ele>1009.398</ele>
        <time>2020-08-29T11:28:24Z</time>
      </trkpt>
      <trkpt lat="40.130969" lon="-.818666">
        <ele>1009.491</ele>
        <time>2020-08-29T11:28:25Z</time>
      </trkpt>
      <trkpt lat="40.130954" lon="-.81861">
        <ele>1009.481</ele>
        <time>2020-08-29T11:28:26Z</time>
      </trkpt>
      <trkpt lat="40.13094" lon="-.818539">
        <ele>1009.119</ele>
        <time>2020-08-29T11:28:27Z</time>
      </trkpt>
      <trkpt lat="40.130925" lon="-.818422">
        <ele>1009.308</ele>
        <time>2020-08-29T11:28:29Z</time>
      </trkpt>
      <trkpt lat="40.130915" lon="-.818324">
        <ele>1009.464</ele>
        <time>2020-08-29T11:28:31Z</time>
      </trkpt>
      <trkpt lat="40.130908" lon="-.818257">
        <ele>1009.434</ele>
        <time>2020-08-29T11:28:32Z</time>
      </trkpt>
      <trkpt lat="40.130905" lon="-.818197">
        <ele>1009.466</ele>
        <time>2020-08-29T11:28:33Z</time>
      </trkpt>
      <trkpt lat="40.130916" lon="-.81809">
        <ele>1009.188</ele>
        <time>2020-08-29T11:28:35Z</time>
      </trkpt>
      <trkpt lat="40.130927" lon="-.817971">
        <ele>1008.846</ele>
        <time>2020-08-29T11:28:37Z</time>
      </trkpt>
      <trkpt lat="40.130927" lon="-.817859">
        <ele>1009.043</ele>
        <time>2020-08-29T11:28:39Z</time>
      </trkpt>
      <trkpt lat="40.130938" lon="-.81776">
        <ele>1009.281</ele>
        <time>2020-08-29T11:28:41Z</time>
      </trkpt>
      <trkpt lat="40.130947" lon="-.817659">
        <ele>1009.231</ele>
        <time>2020-08-29T11:28:43Z</time>
      </trkpt>
      <trkpt lat="40.130963" lon="-.817568">
        <ele>1009.312</ele>
        <time>2020-08-29T11:28:45Z</time>
      </trkpt>
      <trkpt lat="40.130984" lon="-.817466">
        <ele>1009.332</ele>
        <time>2020-08-29T11:28:47Z</time>
      </trkpt>
      <trkpt lat="40.130985" lon="-.817405">
        <ele>1009.305</ele>
        <time>2020-08-29T11:28:48Z</time>
      </trkpt>
      <trkpt lat="40.131002" lon="-.817294">
        <ele>1009.308</ele>
        <time>2020-08-29T11:28:50Z</time>
      </trkpt>
      <trkpt lat="40.131017" lon="-.817185">
        <ele>1009.766</ele>
        <time>2020-08-29T11:28:52Z</time>
      </trkpt>
      <trkpt lat="40.131036" lon="-.817091">
        <ele>1010.076</ele>
        <time>2020-08-29T11:28:54Z</time>
      </trkpt>
      <trkpt lat="40.131053" lon="-.816995">
        <ele>1009.368</ele>
        <time>2020-08-29T11:28:56Z</time>
      </trkpt>
      <trkpt lat="40.131073" lon="-.816905">
        <ele>1008.740</ele>
        <time>2020-08-29T11:28:58Z</time>
      </trkpt>
      <trkpt lat="40.131092" lon="-.816797">
        <ele>1008.668</ele>
        <time>2020-08-29T11:29:00Z</time>
      </trkpt>
      <trkpt lat="40.131115" lon="-.816686">
        <ele>1008.555</ele>
        <time>2020-08-29T11:29:02Z</time>
      </trkpt>
      <trkpt lat="40.131144" lon="-.816585">
        <ele>1008.743</ele>
        <time>2020-08-29T11:29:04Z</time>
      </trkpt>
      <trkpt lat="40.131175" lon="-.816477">
        <ele>1008.833</ele>
        <time>2020-08-29T11:29:06Z</time>
      </trkpt>
      <trkpt lat="40.131189" lon="-.81642">
        <ele>1009.299</ele>
        <time>2020-08-29T11:29:07Z</time>
      </trkpt>
      <trkpt lat="40.131212" lon="-.816322">
        <ele>1008.607</ele>
        <time>2020-08-29T11:29:09Z</time>
      </trkpt>
      <trkpt lat="40.131229" lon="-.816263">
        <ele>1008.627</ele>
        <time>2020-08-29T11:29:10Z</time>
      </trkpt>
      <trkpt lat="40.131261" lon="-.816155">
        <ele>1009.508</ele>
        <time>2020-08-29T11:29:12Z</time>
      </trkpt>
      <trkpt lat="40.131273" lon="-.816087">
        <ele>1009.544</ele>
        <time>2020-08-29T11:29:13Z</time>
      </trkpt>
      <trkpt lat="40.131288" lon="-.816024">
        <ele>1009.164</ele>
        <time>2020-08-29T11:29:14Z</time>
      </trkpt>
      <trkpt lat="40.131306" lon="-.815906">
        <ele>1008.776</ele>
        <time>2020-08-29T11:29:16Z</time>
      </trkpt>
      <trkpt lat="40.131337" lon="-.815792">
        <ele>1008.868</ele>
        <time>2020-08-29T11:29:18Z</time>
      </trkpt>
      <trkpt lat="40.131345" lon="-.815734">
        <ele>1009.096</ele>
        <time>2020-08-29T11:29:19Z</time>
      </trkpt>
      <trkpt lat="40.131369" lon="-.815622">
        <ele>1009.223</ele>
        <time>2020-08-29T11:29:21Z</time>
      </trkpt>
      <trkpt lat="40.13137" lon="-.815513">
        <ele>1008.871</ele>
        <time>2020-08-29T11:29:23Z</time>
      </trkpt>
      <trkpt lat="40.131391" lon="-.81543">
        <ele>1008.471</ele>
        <time>2020-08-29T11:29:25Z</time>
      </trkpt>
      <trkpt lat="40.131379" lon="-.815367">
        <ele>1008.689</ele>
        <time>2020-08-29T11:29:27Z</time>
      </trkpt>
      <trkpt lat="40.131376" lon="-.815286">
        <ele>1008.906</ele>
        <time>2020-08-29T11:29:30Z</time>
      </trkpt>
      <trkpt lat="40.13137" lon="-.81521">
        <ele>1008.926</ele>
        <time>2020-08-29T11:29:33Z</time>
      </trkpt>
      <trkpt lat="40.132351" lon="-.811725">
        <ele>1011.908</ele>
        <time>2020-08-29T11:35:14Z</time>
      </trkpt>
      <trkpt lat="40.132494" lon="-.811272">
        <ele>1011.893</ele>
        <time>2020-08-29T11:35:16Z</time>
      </trkpt>
      <trkpt lat="40.132525" lon="-.811194">
        <ele>1011.753</ele>
        <time>2020-08-29T11:35:20Z</time>
      </trkpt>
      <trkpt lat="40.132543" lon="-.811138">
        <ele>1011.755</ele>
        <time>2020-08-29T11:35:22Z</time>
      </trkpt>
      <trkpt lat="40.132544" lon="-.811079">
        <ele>1011.947</ele>
        <time>2020-08-29T11:35:24Z</time>
      </trkpt>
      <trkpt lat="40.132557" lon="-.810974">
        <ele>1011.915</ele>
        <time>2020-08-29T11:35:26Z</time>
      </trkpt>
      <trkpt lat="40.132586" lon="-.810895">
        <ele>1011.862</ele>
        <time>2020-08-29T11:35:28Z</time>
      </trkpt>
      <trkpt lat="40.132625" lon="-.810811">
        <ele>1011.760</ele>
        <time>2020-08-29T11:35:30Z</time>
      </trkpt>
      <trkpt lat="40.132645" lon="-.810745">
        <ele>1011.750</ele>
        <time>2020-08-29T11:35:32Z</time>
      </trkpt>
      <trkpt lat="40.132663" lon="-.810669">
        <ele>1011.726</ele>
        <time>2020-08-29T11:35:34Z</time>
      </trkpt>
      <trkpt lat="40.132691" lon="-.81057">
        <ele>1011.747</ele>
        <time>2020-08-29T11:35:37Z</time>
      </trkpt>
      <trkpt lat="40.13271" lon="-.810479">
        <ele>1011.811</ele>
        <time>2020-08-29T11:35:39Z</time>
      </trkpt>
      <trkpt lat="40.132725" lon="-.810397">
        <ele>1012.008</ele>
        <time>2020-08-29T11:35:41Z</time>
      </trkpt>
      <trkpt lat="40.132746" lon="-.810314">
        <ele>1012.347</ele>
        <time>2020-08-29T11:35:43Z</time>
      </trkpt>
      <trkpt lat="40.132756" lon="-.810243">
        <ele>1011.587</ele>
        <time>2020-08-29T11:35:45Z</time>
      </trkpt>
      <trkpt lat="40.132774" lon="-.810174">
        <ele>1012.199</ele>
        <time>2020-08-29T11:35:47Z</time>
      </trkpt>
      <trkpt lat="40.132788" lon="-.810105">
        <ele>1012.961</ele>
        <time>2020-08-29T11:35:49Z</time>
      </trkpt>
      <trkpt lat="40.132797" lon="-.810039">
        <ele>1011.919</ele>
        <time>2020-08-29T11:35:51Z</time>
      </trkpt>
      <trkpt lat="40.13282" lon="-.809971">
        <ele>1011.646</ele>
        <time>2020-08-29T11:35:53Z</time>
      </trkpt>
      <trkpt lat="40.132825" lon="-.809893">
        <ele>1011.414</ele>
        <time>2020-08-29T11:35:55Z</time>
      </trkpt>
      <trkpt lat="40.132842" lon="-.809818">
        <ele>1011.414</ele>
        <time>2020-08-29T11:35:57Z</time>
      </trkpt>
      <trkpt lat="40.132856" lon="-.809733">
        <ele>1011.448</ele>
        <time>2020-08-29T11:35:59Z</time>
      </trkpt>
      <trkpt lat="40.132869" lon="-.809648">
        <ele>1011.361</ele>
        <time>2020-08-29T11:36:01Z</time>
      </trkpt>
      <trkpt lat="40.132881" lon="-.809562">
        <ele>1011.117</ele>
        <time>2020-08-29T11:36:03Z</time>
      </trkpt>
      <trkpt lat="40.13291" lon="-.809489">
        <ele>1010.908</ele>
        <time>2020-08-29T11:36:05Z</time>
      </trkpt>
      <trkpt lat="40.132942" lon="-.809398">
        <ele>1010.349</ele>
        <time>2020-08-29T11:36:07Z</time>
      </trkpt>
      <trkpt lat="40.132965" lon="-.809302">
        <ele>1010.019</ele>
        <time>2020-08-29T11:36:09Z</time>
      </trkpt>
      <trkpt lat="40.132988" lon="-.809234">
        <ele>1010.031</ele>
        <time>2020-08-29T11:36:11Z</time>
      </trkpt>
      <trkpt lat="40.133014" lon="-.809148">
        <ele>1009.813</ele>
        <time>2020-08-29T11:36:13Z</time>
      </trkpt>
      <trkpt lat="40.133042" lon="-.80906">
        <ele>1009.941</ele>
        <time>2020-08-29T11:36:15Z</time>
      </trkpt>
      <trkpt lat="40.133056" lon="-.808992">
        <ele>1009.948</ele>
        <time>2020-08-29T11:36:16Z</time>
      </trkpt>
      <trkpt lat="40.133084" lon="-.808923">
        <ele>1009.886</ele>
        <time>2020-08-29T11:36:17Z</time>
      </trkpt>
      <trkpt lat="40.133099" lon="-.808846">
        <ele>1009.826</ele>
        <time>2020-08-29T11:36:18Z</time>
      </trkpt>
      <trkpt lat="40.133115" lon="-.808764">
        <ele>1009.684</ele>
        <time>2020-08-29T11:36:19Z</time>
      </trkpt>
      <trkpt lat="40.133122" lon="-.808691">
        <ele>1009.507</ele>
        <time>2020-08-29T11:36:20Z</time>
      </trkpt>
      <trkpt lat="40.133139" lon="-.808614">
        <ele>1009.417</ele>
        <time>2020-08-29T11:36:21Z</time>
      </trkpt>
      <trkpt lat="40.133145" lon="-.808551">
        <ele>1009.308</ele>
        <time>2020-08-29T11:36:22Z</time>
      </trkpt>
      <trkpt lat="40.133167" lon="-.808459">
        <ele>1009.193</ele>
        <time>2020-08-29T11:36:23Z</time>
      </trkpt>
      <trkpt lat="40.133198" lon="-.808383">
        <ele>1009.183</ele>
        <time>2020-08-29T11:36:24Z</time>
      </trkpt>
      <trkpt lat="40.133216" lon="-.8083">
        <ele>1008.965</ele>
        <time>2020-08-29T11:36:25Z</time>
      </trkpt>
      <trkpt lat="40.133233" lon="-.808221">
        <ele>1008.937</ele>
        <time>2020-08-29T11:36:26Z</time>
      </trkpt>
      <trkpt lat="40.133255" lon="-.808149">
        <ele>1008.985</ele>
        <time>2020-08-29T11:36:27Z</time>
      </trkpt>
      <trkpt lat="40.133266" lon="-.808074">
        <ele>1008.922</ele>
        <time>2020-08-29T11:36:28Z</time>
      </trkpt>
      <trkpt lat="40.133279" lon="-.808001">
        <ele>1008.520</ele>
        <time>2020-08-29T11:36:29Z</time>
      </trkpt>
      <trkpt lat="40.133297" lon="-.807924">
        <ele>1008.530</ele>
        <time>2020-08-29T11:36:30Z</time>
      </trkpt>
      <trkpt lat="40.133314" lon="-.80786">
        <ele>1008.514</ele>
        <time>2020-08-29T11:36:31Z</time>
      </trkpt>
      <trkpt lat="40.133329" lon="-.807798">
        <ele>1008.554</ele>
        <time>2020-08-29T11:36:32Z</time>
      </trkpt>
      <trkpt lat="40.133358" lon="-.807688">
        <ele>1008.409</ele>
        <time>2020-08-29T11:36:34Z</time>
      </trkpt>
      <trkpt lat="40.133369" lon="-.807627">
        <ele>1008.308</ele>
        <time>2020-08-29T11:36:35Z</time>
      </trkpt>
      <trkpt lat="40.13339" lon="-.807568">
        <ele>1008.166</ele>
        <time>2020-08-29T11:36:36Z</time>
      </trkpt>
      <trkpt lat="40.13341" lon="-.807453">
        <ele>1007.356</ele>
        <time>2020-08-29T11:36:38Z</time>
      </trkpt>
      <trkpt lat="40.133427" lon="-.807376">
        <ele>1007.298</ele>
        <time>2020-08-29T11:36:39Z</time>
      </trkpt>
      <trkpt lat="40.133446" lon="-.80731">
        <ele>1007.630</ele>
        <time>2020-08-29T11:36:40Z</time>
      </trkpt>
      <trkpt lat="40.133458" lon="-.807241">
        <ele>1008.198</ele>
        <time>2020-08-29T11:36:41Z</time>
      </trkpt>
      <trkpt lat="40.133471" lon="-.807178">
        <ele>1008.145</ele>
        <time>2020-08-29T11:36:42Z</time>
      </trkpt>
      <trkpt lat="40.133487" lon="-.807107">
        <ele>1007.813</ele>
        <time>2020-08-29T11:36:43Z</time>
      </trkpt>
      <trkpt lat="40.133503" lon="-.807039">
        <ele>1007.633</ele>
        <time>2020-08-29T11:36:44Z</time>
      </trkpt>
      <trkpt lat="40.133518" lon="-.80697">
        <ele>1007.115</ele>
        <time>2020-08-29T11:36:45Z</time>
      </trkpt>
      <trkpt lat="40.133531" lon="-.806899">
        <ele>1007.065</ele>
        <time>2020-08-29T11:36:46Z</time>
      </trkpt>
      <trkpt lat="40.133541" lon="-.80684">
        <ele>1006.911</ele>
        <time>2020-08-29T11:36:47Z</time>
      </trkpt>
      <trkpt lat="40.133558" lon="-.806778">
        <ele>1006.908</ele>
        <time>2020-08-29T11:36:48Z</time>
      </trkpt>
      <trkpt lat="40.133573" lon="-.806714">
        <ele>1006.966</ele>
        <time>2020-08-29T11:36:49Z</time>
      </trkpt>
      <trkpt lat="40.133589" lon="-.806649">
        <ele>1006.816</ele>
        <time>2020-08-29T11:36:50Z</time>
      </trkpt>
      <trkpt lat="40.133604" lon="-.806587">
        <ele>1006.648</ele>
        <time>2020-08-29T11:36:51Z</time>
      </trkpt>
      <trkpt lat="40.133612" lon="-.806522">
        <ele>1006.410</ele>
        <time>2020-08-29T11:36:52Z</time>
      </trkpt>
      <trkpt lat="40.133624" lon="-.806459">
        <ele>1006.448</ele>
        <time>2020-08-29T11:36:53Z</time>
      </trkpt>
      <trkpt lat="40.133632" lon="-.806391">
        <ele>1006.355</ele>
        <time>2020-08-29T11:36:54Z</time>
      </trkpt>
      <trkpt lat="40.13364" lon="-.806325">
        <ele>1006.243</ele>
        <time>2020-08-29T11:36:55Z</time>
      </trkpt>
      <trkpt lat="40.13365" lon="-.806254">
        <ele>1006.223</ele>
        <time>2020-08-29T11:36:56Z</time>
      </trkpt>
      <trkpt lat="40.133661" lon="-.806188">
        <ele>1006.127</ele>
        <time>2020-08-29T11:36:57Z</time>
      </trkpt>
      <trkpt lat="40.133671" lon="-.806119">
        <ele>1005.968</ele>
        <time>2020-08-29T11:36:58Z</time>
      </trkpt>
      <trkpt lat="40.133681" lon="-.806057">
        <ele>1005.614</ele>
        <time>2020-08-29T11:36:59Z</time>
      </trkpt>
      <trkpt lat="40.133687" lon="-.805976">
        <ele>1005.608</ele>
        <time>2020-08-29T11:37:00Z</time>
      </trkpt>
      <trkpt lat="40.133695" lon="-.805904">
        <ele>1005.697</ele>
        <time>2020-08-29T11:37:01Z</time>
      </trkpt>
      <trkpt lat="40.133706" lon="-.805837">
        <ele>1005.617</ele>
        <time>2020-08-29T11:37:02Z</time>
      </trkpt>
      <trkpt lat="40.133711" lon="-.805765">
        <ele>1005.849</ele>
        <time>2020-08-29T11:37:03Z</time>
      </trkpt>
      <trkpt lat="40.133722" lon="-.805707">
        <ele>1006.171</ele>
        <time>2020-08-29T11:37:04Z</time>
      </trkpt>
      <trkpt lat="40.133729" lon="-.805631">
        <ele>1006.139</ele>
        <time>2020-08-29T11:37:05Z</time>
      </trkpt>
      <trkpt lat="40.133732" lon="-.805554">
        <ele>1006.166</ele>
        <time>2020-08-29T11:37:06Z</time>
      </trkpt>
      <trkpt lat="40.133736" lon="-.805481">
        <ele>1005.564</ele>
        <time>2020-08-29T11:37:07Z</time>
      </trkpt>
      <trkpt lat="40.133732" lon="-.805411">
        <ele>1005.594</ele>
        <time>2020-08-29T11:37:08Z</time>
      </trkpt>
      <trkpt lat="40.133739" lon="-.805337">
        <ele>1005.591</ele>
        <time>2020-08-29T11:37:09Z</time>
      </trkpt>
      <trkpt lat="40.133736" lon="-.805269">
        <ele>1005.581</ele>
        <time>2020-08-29T11:37:10Z</time>
      </trkpt>
      <trkpt lat="40.133735" lon="-.805187">
        <ele>1005.319</ele>
        <time>2020-08-29T11:37:11Z</time>
      </trkpt>
      <trkpt lat="40.133734" lon="-.8051">
        <ele>1005.308</ele>
        <time>2020-08-29T11:37:12Z</time>
      </trkpt>
      <trkpt lat="40.133727" lon="-.805017">
        <ele>1005.394</ele>
        <time>2020-08-29T11:37:13Z</time>
      </trkpt>
      <trkpt lat="40.133718" lon="-.804932">
        <ele>1005.274</ele>
        <time>2020-08-29T11:37:14Z</time>
      </trkpt>
      <trkpt lat="40.133713" lon="-.804849">
        <ele>1004.826</ele>
        <time>2020-08-29T11:37:15Z</time>
      </trkpt>
      <trkpt lat="40.133707" lon="-.804772">
        <ele>1004.528</ele>
        <time>2020-08-29T11:37:16Z</time>
      </trkpt>
      <trkpt lat="40.133701" lon="-.804693">
        <ele>1004.146</ele>
        <time>2020-08-29T11:37:17Z</time>
      </trkpt>
      <trkpt lat="40.133693" lon="-.804614">
        <ele>1003.993</ele>
        <time>2020-08-29T11:37:18Z</time>
      </trkpt>
      <trkpt lat="40.133682" lon="-.804529">
        <ele>1003.831</ele>
        <time>2020-08-29T11:37:19Z</time>
      </trkpt>
      <trkpt lat="40.13367" lon="-.804445">
        <ele>1003.771</ele>
        <time>2020-08-29T11:37:20Z</time>
      </trkpt>
      <trkpt lat="40.133656" lon="-.804366">
        <ele>1003.647</ele>
        <time>2020-08-29T11:37:21Z</time>
      </trkpt>
      <trkpt lat="40.133644" lon="-.804287">
        <ele>1003.429</ele>
        <time>2020-08-29T11:37:22Z</time>
      </trkpt>
      <trkpt lat="40.133627" lon="-.804205">
        <ele>1003.321</ele>
        <time>2020-08-29T11:37:23Z</time>
      </trkpt>
      <trkpt lat="40.133607" lon="-.804125">
        <ele>1003.108</ele>
        <time>2020-08-29T11:37:24Z</time>
      </trkpt>
      <trkpt lat="40.133588" lon="-.80405">
        <ele>1003.029</ele>
        <time>2020-08-29T11:37:25Z</time>
      </trkpt>
      <trkpt lat="40.133566" lon="-.803971">
        <ele>1003.049</ele>
        <time>2020-08-29T11:37:26Z</time>
      </trkpt>
      <trkpt lat="40.133543" lon="-.803886">
        <ele>1003.231</ele>
        <time>2020-08-29T11:37:27Z</time>
      </trkpt>
      <trkpt lat="40.133519" lon="-.80381">
        <ele>1003.273</ele>
        <time>2020-08-29T11:37:28Z</time>
      </trkpt>
      <trkpt lat="40.133496" lon="-.803735">
        <ele>1003.271</ele>
        <time>2020-08-29T11:37:29Z</time>
      </trkpt>
      <trkpt lat="40.133469" lon="-.803653">
        <ele>1003.298</ele>
        <time>2020-08-29T11:37:30Z</time>
      </trkpt>
      <trkpt lat="40.133445" lon="-.803583">
        <ele>1003.186</ele>
        <time>2020-08-29T11:37:31Z</time>
      </trkpt>
      <trkpt lat="40.133419" lon="-.803499">
        <ele>1002.946</ele>
        <time>2020-08-29T11:37:32Z</time>
      </trkpt>
      <trkpt lat="40.13339" lon="-.80342">
        <ele>1002.892</ele>
        <time>2020-08-29T11:37:33Z</time>
      </trkpt>
      <trkpt lat="40.133363" lon="-.803348">
        <ele>1002.773</ele>
        <time>2020-08-29T11:37:34Z</time>
      </trkpt>
      <trkpt lat="40.133336" lon="-.803274">
        <ele>1002.520</ele>
        <time>2020-08-29T11:37:35Z</time>
      </trkpt>
      <trkpt lat="40.133306" lon="-.803194">
        <ele>1002.308</ele>
        <time>2020-08-29T11:37:36Z</time>
      </trkpt>
      <trkpt lat="40.133278" lon="-.803118">
        <ele>1002.114</ele>
        <time>2020-08-29T11:37:37Z</time>
      </trkpt>
      <trkpt lat="40.133245" lon="-.803035">
        <ele>1001.944</ele>
        <time>2020-08-29T11:37:38Z</time>
      </trkpt>
      <trkpt lat="40.133212" lon="-.80296">
        <ele>1001.756</ele>
        <time>2020-08-29T11:37:39Z</time>
      </trkpt>
      <trkpt lat="40.133178" lon="-.802883">
        <ele>1001.618</ele>
        <time>2020-08-29T11:37:40Z</time>
      </trkpt>
      <trkpt lat="40.13314" lon="-.802805">
        <ele>1001.346</ele>
        <time>2020-08-29T11:37:41Z</time>
      </trkpt>
      <trkpt lat="40.133104" lon="-.802733">
        <ele>1001.323</ele>
        <time>2020-08-29T11:37:42Z</time>
      </trkpt>
      <trkpt lat="40.133066" lon="-.802661">
        <ele>1001.211</ele>
        <time>2020-08-29T11:37:43Z</time>
      </trkpt>
      <trkpt lat="40.133027" lon="-.802589">
        <ele>1001.291</ele>
        <time>2020-08-29T11:37:44Z</time>
      </trkpt>
      <trkpt lat="40.132983" lon="-.802516">
        <ele>1001.152</ele>
        <time>2020-08-29T11:37:45Z</time>
      </trkpt>
      <trkpt lat="40.132942" lon="-.802445">
        <ele>1001.153</ele>
        <time>2020-08-29T11:37:46Z</time>
      </trkpt>
      <trkpt lat="40.132896" lon="-.802381">
        <ele>1000.908</ele>
        <time>2020-08-29T11:37:47Z</time>
      </trkpt>
      <trkpt lat="40.132856" lon="-.802315">
        <ele>1000.908</ele>
        <time>2020-08-29T11:37:48Z</time>
      </trkpt>
      <trkpt lat="40.132817" lon="-.802252">
        <ele>1000.980</ele>
        <time>2020-08-29T11:37:49Z</time>
      </trkpt>
      <trkpt lat="40.132777" lon="-.802189">
        <ele>1000.940</ele>
        <time>2020-08-29T11:37:50Z</time>
      </trkpt>
      <trkpt lat="40.132732" lon="-.802128">
        <ele>1000.862</ele>
        <time>2020-08-29T11:37:51Z</time>
      </trkpt>
      <trkpt lat="40.132688" lon="-.802067">
        <ele>1000.724</ele>
        <time>2020-08-29T11:37:52Z</time>
      </trkpt>
      <trkpt lat="40.132644" lon="-.802011">
        <ele>1000.612</ele>
        <time>2020-08-29T11:37:53Z</time>
      </trkpt>
      <trkpt lat="40.132598" lon="-.801958">
        <ele>1000.619</ele>
        <time>2020-08-29T11:37:54Z</time>
      </trkpt>
      <trkpt lat="40.132556" lon="-.801896">
        <ele>1000.367</ele>
        <time>2020-08-29T11:37:55Z</time>
      </trkpt>
      <trkpt lat="40.13252" lon="-.801839">
        <ele>1000.377</ele>
        <time>2020-08-29T11:37:56Z</time>
      </trkpt>
      <trkpt lat="40.132472" lon="-.801785">
        <ele>1000.444</ele>
        <time>2020-08-29T11:37:57Z</time>
      </trkpt>
      <trkpt lat="40.132428" lon="-.801734">
        <ele>1000.505</ele>
        <time>2020-08-29T11:37:58Z</time>
      </trkpt>
      <trkpt lat="40.132383" lon="-.80168">
        <ele>1000.515</ele>
        <time>2020-08-29T11:37:59Z</time>
      </trkpt>
      <trkpt lat="40.132328" lon="-.801623">
        <ele>1000.508</ele>
        <time>2020-08-29T11:38:00Z</time>
      </trkpt>
      <trkpt lat="40.132279" lon="-.801571">
        <ele>1000.619</ele>
        <time>2020-08-29T11:38:01Z</time>
      </trkpt>
      <trkpt lat="40.132226" lon="-.801529">
        <ele>1000.619</ele>
        <time>2020-08-29T11:38:02Z</time>
      </trkpt>
      <trkpt lat="40.132174" lon="-.801478">
        <ele>1000.221</ele>
        <time>2020-08-29T11:38:03Z</time>
      </trkpt>
      <trkpt lat="40.132119" lon="-.801427">
        <ele>999.953</ele>
        <time>2020-08-29T11:38:04Z</time>
      </trkpt>
      <trkpt lat="40.132068" lon="-.801376">
        <ele>999.921</ele>
        <time>2020-08-29T11:38:05Z</time>
      </trkpt>
      <trkpt lat="40.132018" lon="-.801335">
        <ele>999.838</ele>
        <time>2020-08-29T11:38:06Z</time>
      </trkpt>
      <trkpt lat="40.131965" lon="-.801296">
        <ele>999.796</ele>
        <time>2020-08-29T11:38:07Z</time>
      </trkpt>
      <trkpt lat="40.131913" lon="-.801251">
        <ele>999.726</ele>
        <time>2020-08-29T11:38:08Z</time>
      </trkpt>
      <trkpt lat="40.131865" lon="-.801209">
        <ele>999.731</ele>
        <time>2020-08-29T11:38:09Z</time>
      </trkpt>
      <trkpt lat="40.131812" lon="-.801168">
        <ele>999.661</ele>
        <time>2020-08-29T11:38:10Z</time>
      </trkpt>
      <trkpt lat="40.131776" lon="-.801131">
        <ele>999.607</ele>
        <time>2020-08-29T11:38:11Z</time>
      </trkpt>
      <trkpt lat="40.13173" lon="-.8011">
        <ele>998.908</ele>
        <time>2020-08-29T11:38:12Z</time>
      </trkpt>
      <trkpt lat="40.131679" lon="-.801057">
        <ele>998.948</ele>
        <time>2020-08-29T11:38:13Z</time>
      </trkpt>
      <trkpt lat="40.131637" lon="-.801019">
        <ele>999.228</ele>
        <time>2020-08-29T11:38:14Z</time>
      </trkpt>
      <trkpt lat="40.131582" lon="-.800967">
        <ele>999.270</ele>
        <time>2020-08-29T11:38:15Z</time>
      </trkpt>
      <trkpt lat="40.131537" lon="-.800927">
        <ele>999.392</ele>
        <time>2020-08-29T11:38:16Z</time>
      </trkpt>
      <trkpt lat="40.131487" lon="-.80089">
        <ele>999.860</ele>
        <time>2020-08-29T11:38:17Z</time>
      </trkpt>
      <trkpt lat="40.13143" lon="-.800845">
        <ele>999.847</ele>
        <time>2020-08-29T11:38:18Z</time>
      </trkpt>
      <trkpt lat="40.131373" lon="-.800789">
        <ele>999.435</ele>
        <time>2020-08-29T11:38:19Z</time>
      </trkpt>
      <trkpt lat="40.131324" lon="-.800745">
        <ele>998.795</ele>
        <time>2020-08-29T11:38:20Z</time>
      </trkpt>
      <trkpt lat="40.131271" lon="-.800697">
        <ele>998.767</ele>
        <time>2020-08-29T11:38:21Z</time>
      </trkpt>
      <trkpt lat="40.131224" lon="-.800664">
        <ele>998.981</ele>
        <time>2020-08-29T11:38:22Z</time>
      </trkpt>
      <trkpt lat="40.131169" lon="-.800614">
        <ele>999.019</ele>
        <time>2020-08-29T11:38:23Z</time>
      </trkpt>
      <trkpt lat="40.131112" lon="-.800567">
        <ele>999.008</ele>
        <time>2020-08-29T11:38:24Z</time>
      </trkpt>
      <trkpt lat="40.131056" lon="-.800521">
        <ele>999.381</ele>
        <time>2020-08-29T11:38:25Z</time>
      </trkpt>
      <trkpt lat="40.131003" lon="-.80048">
        <ele>999.521</ele>
        <time>2020-08-29T11:38:26Z</time>
      </trkpt>
      <trkpt lat="40.130953" lon="-.800446">
        <ele>999.583</ele>
        <time>2020-08-29T11:38:27Z</time>
      </trkpt>
      <trkpt lat="40.130897" lon="-.800407">
        <ele>999.385</ele>
        <time>2020-08-29T11:38:28Z</time>
      </trkpt>
      <trkpt lat="40.13085" lon="-.800365">
        <ele>999.223</ele>
        <time>2020-08-29T11:38:29Z</time>
      </trkpt>
      <trkpt lat="40.130796" lon="-.800324">
        <ele>999.020</ele>
        <time>2020-08-29T11:38:30Z</time>
      </trkpt>
      <trkpt lat="40.130729" lon="-.800278">
        <ele>999.048</ele>
        <time>2020-08-29T11:38:31Z</time>
      </trkpt>
      <trkpt lat="40.13069" lon="-.800235">
        <ele>999.138</ele>
        <time>2020-08-29T11:38:32Z</time>
      </trkpt>
      <trkpt lat="40.130645" lon="-.800197">
        <ele>999.124</ele>
        <time>2020-08-29T11:38:33Z</time>
      </trkpt>
      <trkpt lat="40.130597" lon="-.800157">
        <ele>999.104</ele>
        <time>2020-08-29T11:38:34Z</time>
      </trkpt>
      <trkpt lat="40.130545" lon="-.800116">
        <ele>999.014</ele>
        <time>2020-08-29T11:38:35Z</time>
      </trkpt>
      <trkpt lat="40.130505" lon="-.800083">
        <ele>999.008</ele>
        <time>2020-08-29T11:38:36Z</time>
      </trkpt>
      <trkpt lat="40.13046" lon="-.800041">
        <ele>998.727</ele>
        <time>2020-08-29T11:38:37Z</time>
      </trkpt>
      <trkpt lat="40.130417" lon="-.800009">
        <ele>998.667</ele>
        <time>2020-08-29T11:38:38Z</time>
      </trkpt>
      <trkpt lat="40.13038" lon="-.799969">
        <ele>998.679</ele>
        <time>2020-08-29T11:38:39Z</time>
      </trkpt>
      <trkpt lat="40.130339" lon="-.799936">
        <ele>998.691</ele>
        <time>2020-08-29T11:38:40Z</time>
      </trkpt>
      <trkpt lat="40.130298" lon="-.799899">
        <ele>998.629</ele>
        <time>2020-08-29T11:38:41Z</time>
      </trkpt>
      <trkpt lat="40.130257" lon="-.799868">
        <ele>998.696</ele>
        <time>2020-08-29T11:38:42Z</time>
      </trkpt>
      <trkpt lat="40.130185" lon="-.799799">
        <ele>998.574</ele>
        <time>2020-08-29T11:38:44Z</time>
      </trkpt>
      <trkpt lat="40.130144" lon="-.799764">
        <ele>998.474</ele>
        <time>2020-08-29T11:38:45Z</time>
      </trkpt>
      <trkpt lat="40.130071" lon="-.799701">
        <ele>998.379</ele>
        <time>2020-08-29T11:38:47Z</time>
      </trkpt>
      <trkpt lat="40.129999" lon="-.799638">
        <ele>998.405</ele>
        <time>2020-08-29T11:38:49Z</time>
      </trkpt>
      <trkpt lat="40.129925" lon="-.799572">
        <ele>998.425</ele>
        <time>2020-08-29T11:38:51Z</time>
      </trkpt>
      <trkpt lat="40.129858" lon="-.799513">
        <ele>998.508</ele>
        <time>2020-08-29T11:38:53Z</time>
      </trkpt>
      <trkpt lat="40.129787" lon="-.799452">
        <ele>998.432</ele>
        <time>2020-08-29T11:38:55Z</time>
      </trkpt>
      <trkpt lat="40.129716" lon="-.799388">
        <ele>998.152</ele>
        <time>2020-08-29T11:38:57Z</time>
      </trkpt>
      <trkpt lat="40.129648" lon="-.799332">
        <ele>998.014</ele>
        <time>2020-08-29T11:38:59Z</time>
      </trkpt>
      <trkpt lat="40.129569" lon="-.799271">
        <ele>998.086</ele>
        <time>2020-08-29T11:39:01Z</time>
      </trkpt>
      <trkpt lat="40.129532" lon="-.799236">
        <ele>997.994</ele>
        <time>2020-08-29T11:39:02Z</time>
      </trkpt>
      <trkpt lat="40.129457" lon="-.799179">
        <ele>997.721</ele>
        <time>2020-08-29T11:39:04Z</time>
      </trkpt>
      <trkpt lat="40.129417" lon="-.799149">
        <ele>997.569</ele>
        <time>2020-08-29T11:39:05Z</time>
      </trkpt>
      <trkpt lat="40.129342" lon="-.799091">
        <ele>997.459</ele>
        <time>2020-08-29T11:39:07Z</time>
      </trkpt>
      <trkpt lat="40.129303" lon="-.799057">
        <ele>997.379</ele>
        <time>2020-08-29T11:39:08Z</time>
      </trkpt>
      <trkpt lat="40.129263" lon="-.799021">
        <ele>996.905</ele>
        <time>2020-08-29T11:39:09Z</time>
      </trkpt>
      <trkpt lat="40.129221" lon="-.798982">
        <ele>996.825</ele>
        <time>2020-08-29T11:39:10Z</time>
      </trkpt>
      <trkpt lat="40.129182" lon="-.798937">
        <ele>996.808</ele>
        <time>2020-08-29T11:39:11Z</time>
      </trkpt>
      <trkpt lat="40.12914" lon="-.798896">
        <ele>996.882</ele>
        <time>2020-08-29T11:39:12Z</time>
      </trkpt>
      <trkpt lat="40.129095" lon="-.798867">
        <ele>997.132</ele>
        <time>2020-08-29T11:39:13Z</time>
      </trkpt>
      <trkpt lat="40.129054" lon="-.798813">
        <ele>997.694</ele>
        <time>2020-08-29T11:39:14Z</time>
      </trkpt>
      <trkpt lat="40.129011" lon="-.798781">
        <ele>997.886</ele>
        <time>2020-08-29T11:39:15Z</time>
      </trkpt>
      <trkpt lat="40.128956" lon="-.798738">
        <ele>997.834</ele>
        <time>2020-08-29T11:39:16Z</time>
      </trkpt>
      <trkpt lat="40.128897" lon="-.79869">
        <ele>997.761</ele>
        <time>2020-08-29T11:39:17Z</time>
      </trkpt>
      <trkpt lat="40.128845" lon="-.79865">
        <ele>997.519</ele>
        <time>2020-08-29T11:39:18Z</time>
      </trkpt>
      <trkpt lat="40.128797" lon="-.798612">
        <ele>997.369</ele>
        <time>2020-08-29T11:39:19Z</time>
      </trkpt>
      <trkpt lat="40.128746" lon="-.798571">
        <ele>996.933</ele>
        <time>2020-08-29T11:39:20Z</time>
      </trkpt>
      <trkpt lat="40.128701" lon="-.798538">
        <ele>996.723</ele>
        <time>2020-08-29T11:39:21Z</time>
      </trkpt>
      <trkpt lat="40.128654" lon="-.798498">
        <ele>996.515</ele>
        <time>2020-08-29T11:39:22Z</time>
      </trkpt>
      <trkpt lat="40.128578" lon="-.798443">
        <ele>996.308</ele>
        <time>2020-08-29T11:39:24Z</time>
      </trkpt>
      <trkpt lat="40.128537" lon="-.798413">
        <ele>996.378</ele>
        <time>2020-08-29T11:39:25Z</time>
      </trkpt>
      <trkpt lat="40.128476" lon="-.798353">
        <ele>996.328</ele>
        <time>2020-08-29T11:39:27Z</time>
      </trkpt>
      <trkpt lat="40.128438" lon="-.798319">
        <ele>996.360</ele>
        <time>2020-08-29T11:39:28Z</time>
      </trkpt>
      <trkpt lat="40.128395" lon="-.798281">
        <ele>996.222</ele>
        <time>2020-08-29T11:39:29Z</time>
      </trkpt>
      <trkpt lat="40.128352" lon="-.798247">
        <ele>996.130</ele>
        <time>2020-08-29T11:39:30Z</time>
      </trkpt>
      <trkpt lat="40.128313" lon="-.798212">
        <ele>996.057</ele>
        <time>2020-08-29T11:39:31Z</time>
      </trkpt>
      <trkpt lat="40.128271" lon="-.798177">
        <ele>996.075</ele>
        <time>2020-08-29T11:39:32Z</time>
      </trkpt>
      <trkpt lat="40.128228" lon="-.798147">
        <ele>995.955</ele>
        <time>2020-08-29T11:39:33Z</time>
      </trkpt>
      <trkpt lat="40.128186" lon="-.798113">
        <ele>995.866</ele>
        <time>2020-08-29T11:39:34Z</time>
      </trkpt>
      <trkpt lat="40.128147" lon="-.798079">
        <ele>995.029</ele>
        <time>2020-08-29T11:39:35Z</time>
      </trkpt>
      <trkpt lat="40.128104" lon="-.798033">
        <ele>995.021</ele>
        <time>2020-08-29T11:39:36Z</time>
      </trkpt>
      <trkpt lat="40.128063" lon="-.797997">
        <ele>995.308</ele>
        <time>2020-08-29T11:39:37Z</time>
      </trkpt>
      <trkpt lat="40.128016" lon="-.797958">
        <ele>995.341</ele>
        <time>2020-08-29T11:39:38Z</time>
      </trkpt>
      <trkpt lat="40.127967" lon="-.797918">
        <ele>995.281</ele>
        <time>2020-08-29T11:39:39Z</time>
      </trkpt>
      <trkpt lat="40.127916" lon="-.797875">
        <ele>995.233</ele>
        <time>2020-08-29T11:39:40Z</time>
      </trkpt>
      <trkpt lat="40.127868" lon="-.797831">
        <ele>995.175</ele>
        <time>2020-08-29T11:39:41Z</time>
      </trkpt>
      <trkpt lat="40.127821" lon="-.797789">
        <ele>995.083</ele>
        <time>2020-08-29T11:39:42Z</time>
      </trkpt>
      <trkpt lat="40.127772" lon="-.79775">
        <ele>994.910</ele>
        <time>2020-08-29T11:39:43Z</time>
      </trkpt>
      <trkpt lat="40.127722" lon="-.797709">
        <ele>994.738</ele>
        <time>2020-08-29T11:39:44Z</time>
      </trkpt>
      <trkpt lat="40.127674" lon="-.797665">
        <ele>994.698</ele>
        <time>2020-08-29T11:39:45Z</time>
      </trkpt>
      <trkpt lat="40.127622" lon="-.797625">
        <ele>994.347</ele>
        <time>2020-08-29T11:39:46Z</time>
      </trkpt>
      <trkpt lat="40.127575" lon="-.797585">
        <ele>994.129</ele>
        <time>2020-08-29T11:39:47Z</time>
      </trkpt>
      <trkpt lat="40.127526" lon="-.797546">
        <ele>994.021</ele>
        <time>2020-08-29T11:39:48Z</time>
      </trkpt>
      <trkpt lat="40.127475" lon="-.797503">
        <ele>994.008</ele>
        <time>2020-08-29T11:39:49Z</time>
      </trkpt>
      <trkpt lat="40.127425" lon="-.797463">
        <ele>994.049</ele>
        <time>2020-08-29T11:39:50Z</time>
      </trkpt>
      <trkpt lat="40.127374" lon="-.797419">
        <ele>993.949</ele>
        <time>2020-08-29T11:39:51Z</time>
      </trkpt>
      <trkpt lat="40.127321" lon="-.797374">
        <ele>993.851</ele>
        <time>2020-08-29T11:39:52Z</time>
      </trkpt>
      <trkpt lat="40.127271" lon="-.797329">
        <ele>993.743</ele>
        <time>2020-08-29T11:39:53Z</time>
      </trkpt>
      <trkpt lat="40.12722" lon="-.79729">
        <ele>993.791</ele>
        <time>2020-08-29T11:39:54Z</time>
      </trkpt>
      <trkpt lat="40.127168" lon="-.797249">
        <ele>993.778</ele>
        <time>2020-08-29T11:39:55Z</time>
      </trkpt>
      <trkpt lat="40.127116" lon="-.797207">
        <ele>993.786</ele>
        <time>2020-08-29T11:39:56Z</time>
      </trkpt>
      <trkpt lat="40.127063" lon="-.797165">
        <ele>993.796</ele>
        <time>2020-08-29T11:39:57Z</time>
      </trkpt>
      <trkpt lat="40.127013" lon="-.797125">
        <ele>993.796</ele>
        <time>2020-08-29T11:39:58Z</time>
      </trkpt>
      <trkpt lat="40.12696" lon="-.797083">
        <ele>993.631</ele>
        <time>2020-08-29T11:39:59Z</time>
      </trkpt>
      <trkpt lat="40.126908" lon="-.797039">
        <ele>993.524</ele>
        <time>2020-08-29T11:40:00Z</time>
      </trkpt>
      <trkpt lat="40.126859" lon="-.796994">
        <ele>993.408</ele>
        <time>2020-08-29T11:40:01Z</time>
      </trkpt>
      <trkpt lat="40.126808" lon="-.796953">
        <ele>993.364</ele>
        <time>2020-08-29T11:40:02Z</time>
      </trkpt>
      <trkpt lat="40.126749" lon="-.79691">
        <ele>993.264</ele>
        <time>2020-08-29T11:40:03Z</time>
      </trkpt>
      <trkpt lat="40.126699" lon="-.796864">
        <ele>993.056</ele>
        <time>2020-08-29T11:40:04Z</time>
      </trkpt>
      <trkpt lat="40.126646" lon="-.79682">
        <ele>992.848</ele>
        <time>2020-08-29T11:40:05Z</time>
      </trkpt>
      <trkpt lat="40.126584" lon="-.796779">
        <ele>992.286</ele>
        <time>2020-08-29T11:40:06Z</time>
      </trkpt>
      <trkpt lat="40.126518" lon="-.79674">
        <ele>992.253</ele>
        <time>2020-08-29T11:40:07Z</time>
      </trkpt>
      <trkpt lat="40.126459" lon="-.796697">
        <ele>992.151</ele>
        <time>2020-08-29T11:40:08Z</time>
      </trkpt>
      <trkpt lat="40.12639" lon="-.796655">
        <ele>992.041</ele>
        <time>2020-08-29T11:40:09Z</time>
      </trkpt>
      <trkpt lat="40.12633" lon="-.796594">
        <ele>991.756</ele>
        <time>2020-08-29T11:40:10Z</time>
      </trkpt>
      <trkpt lat="40.126261" lon="-.79656">
        <ele>991.759</ele>
        <time>2020-08-29T11:40:11Z</time>
      </trkpt>
      <trkpt lat="40.126191" lon="-.79652">
        <ele>991.714</ele>
        <time>2020-08-29T11:40:12Z</time>
      </trkpt>
      <trkpt lat="40.126123" lon="-.796478">
        <ele>991.608</ele>
        <time>2020-08-29T11:40:13Z</time>
      </trkpt>
      <trkpt lat="40.126057" lon="-.796437">
        <ele>991.640</ele>
        <time>2020-08-29T11:40:14Z</time>
      </trkpt>
      <trkpt lat="40.125996" lon="-.796399">
        <ele>991.520</ele>
        <time>2020-08-29T11:40:15Z</time>
      </trkpt>
      <trkpt lat="40.12594" lon="-.796362">
        <ele>991.492</ele>
        <time>2020-08-29T11:40:16Z</time>
      </trkpt>
      <trkpt lat="40.12588" lon="-.796324">
        <ele>991.374</ele>
        <time>2020-08-29T11:40:17Z</time>
      </trkpt>
      <trkpt lat="40.125819" lon="-.796284">
        <ele>991.242</ele>
        <time>2020-08-29T11:40:18Z</time>
      </trkpt>
      <trkpt lat="40.125762" lon="-.796242">
        <ele>991.239</ele>
        <time>2020-08-29T11:40:19Z</time>
      </trkpt>
      <trkpt lat="40.125704" lon="-.796202">
        <ele>991.177</ele>
        <time>2020-08-29T11:40:20Z</time>
      </trkpt>
      <trkpt lat="40.125644" lon="-.79617">
        <ele>990.957</ele>
        <time>2020-08-29T11:40:21Z</time>
      </trkpt>
      <trkpt lat="40.125583" lon="-.796123">
        <ele>990.713</ele>
        <time>2020-08-29T11:40:22Z</time>
      </trkpt>
      <trkpt lat="40.125523" lon="-.796079">
        <ele>990.443</ele>
        <time>2020-08-29T11:40:23Z</time>
      </trkpt>
      <trkpt lat="40.125465" lon="-.796044">
        <ele>990.207</ele>
        <time>2020-08-29T11:40:24Z</time>
      </trkpt>
      <trkpt lat="40.125405" lon="-.795999">
        <ele>990.108</ele>
        <time>2020-08-29T11:40:25Z</time>
      </trkpt>
      <trkpt lat="40.125344" lon="-.795961">
        <ele>990.056</ele>
        <time>2020-08-29T11:40:26Z</time>
      </trkpt>
      <trkpt lat="40.125287" lon="-.795928">
        <ele>989.966</ele>
        <time>2020-08-29T11:40:27Z</time>
      </trkpt>
      <trkpt lat="40.125235" lon="-.795893">
        <ele>989.918</ele>
        <time>2020-08-29T11:40:28Z</time>
      </trkpt>
      <trkpt lat="40.12518" lon="-.795855">
        <ele>989.930</ele>
        <time>2020-08-29T11:40:29Z</time>
      </trkpt>
      <trkpt lat="40.125127" lon="-.795822">
        <ele>989.998</ele>
        <time>2020-08-29T11:40:30Z</time>
      </trkpt>
      <trkpt lat="40.125068" lon="-.795786">
        <ele>989.965</ele>
        <time>2020-08-29T11:40:31Z</time>
      </trkpt>
      <trkpt lat="40.125011" lon="-.79575">
        <ele>989.823</ele>
        <time>2020-08-29T11:40:32Z</time>
      </trkpt>
      <trkpt lat="40.124958" lon="-.795703">
        <ele>989.713</ele>
        <time>2020-08-29T11:40:33Z</time>
      </trkpt>
      <trkpt lat="40.124902" lon="-.795663">
        <ele>989.782</ele>
        <time>2020-08-29T11:40:34Z</time>
      </trkpt>
      <trkpt lat="40.124845" lon="-.795625">
        <ele>989.543</ele>
        <time>2020-08-29T11:40:35Z</time>
      </trkpt>
      <trkpt lat="40.124788" lon="-.79558">
        <ele>989.317</ele>
        <time>2020-08-29T11:40:36Z</time>
      </trkpt>
      <trkpt lat="40.124737" lon="-.795533">
        <ele>989.308</ele>
        <time>2020-08-29T11:40:37Z</time>
      </trkpt>
      <trkpt lat="40.124685" lon="-.795484">
        <ele>989.023</ele>
        <time>2020-08-29T11:40:38Z</time>
      </trkpt>
      <trkpt lat="40.124639" lon="-.795435">
        <ele>988.623</ele>
        <time>2020-08-29T11:40:39Z</time>
      </trkpt>
      <trkpt lat="40.124589" lon="-.795387">
        <ele>988.135</ele>
        <time>2020-08-29T11:40:40Z</time>
      </trkpt>
      <trkpt lat="40.124544" lon="-.795339">
        <ele>988.097</ele>
        <time>2020-08-29T11:40:41Z</time>
      </trkpt>
      <trkpt lat="40.1245" lon="-.79529">
        <ele>987.975</ele>
        <time>2020-08-29T11:40:42Z</time>
      </trkpt>
      <trkpt lat="40.124453" lon="-.795234">
        <ele>987.942</ele>
        <time>2020-08-29T11:40:43Z</time>
      </trkpt>
      <trkpt lat="40.124413" lon="-.795182">
        <ele>987.920</ele>
        <time>2020-08-29T11:40:44Z</time>
      </trkpt>
      <trkpt lat="40.124376" lon="-.795131">
        <ele>987.990</ele>
        <time>2020-08-29T11:40:45Z</time>
      </trkpt>
      <trkpt lat="40.124336" lon="-.795086">
        <ele>987.711</ele>
        <time>2020-08-29T11:40:46Z</time>
      </trkpt>
      <trkpt lat="40.124295" lon="-.795029">
        <ele>987.621</ele>
        <time>2020-08-29T11:40:47Z</time>
      </trkpt>
      <trkpt lat="40.12426" lon="-.794977">
        <ele>987.503</ele>
        <time>2020-08-29T11:40:48Z</time>
      </trkpt>
      <trkpt lat="40.124219" lon="-.794932">
        <ele>987.408</ele>
        <time>2020-08-29T11:40:49Z</time>
      </trkpt>
      <trkpt lat="40.124184" lon="-.794884">
        <ele>987.496</ele>
        <time>2020-08-29T11:40:50Z</time>
      </trkpt>
      <trkpt lat="40.124149" lon="-.794839">
        <ele>987.416</ele>
        <time>2020-08-29T11:40:51Z</time>
      </trkpt>
      <trkpt lat="40.124116" lon="-.794794">
        <ele>987.498</ele>
        <time>2020-08-29T11:40:52Z</time>
      </trkpt>
      <trkpt lat="40.124044" lon="-.794711">
        <ele>987.310</ele>
        <time>2020-08-29T11:40:54Z</time>
      </trkpt>
      <trkpt lat="40.124008" lon="-.794666">
        <ele>987.228</ele>
        <time>2020-08-29T11:40:55Z</time>
      </trkpt>
      <trkpt lat="40.123969" lon="-.794607">
        <ele>987.245</ele>
        <time>2020-08-29T11:40:56Z</time>
      </trkpt>
      <trkpt lat="40.123932" lon="-.79455">
        <ele>987.353</ele>
        <time>2020-08-29T11:40:57Z</time>
      </trkpt>
      <trkpt lat="40.123873" lon="-.79446">
        <ele>987.423</ele>
        <time>2020-08-29T11:40:59Z</time>
      </trkpt>
      <trkpt lat="40.123833" lon="-.794398">
        <ele>987.468</ele>
        <time>2020-08-29T11:41:00Z</time>
      </trkpt>
      <trkpt lat="40.123779" lon="-.794364">
        <ele>987.442</ele>
        <time>2020-08-29T11:41:01Z</time>
      </trkpt>
      <trkpt lat="40.12374" lon="-.79431">
        <ele>987.426</ele>
        <time>2020-08-29T11:41:02Z</time>
      </trkpt>
      <trkpt lat="40.123701" lon="-.794257">
        <ele>987.508</ele>
        <time>2020-08-29T11:41:03Z</time>
      </trkpt>
      <trkpt lat="40.123661" lon="-.794208">
        <ele>987.581</ele>
        <time>2020-08-29T11:41:04Z</time>
      </trkpt>
      <trkpt lat="40.123631" lon="-.794165">
        <ele>987.371</ele>
        <time>2020-08-29T11:41:05Z</time>
      </trkpt>
      <trkpt lat="40.123592" lon="-.794115">
        <ele>987.333</ele>
        <time>2020-08-29T11:41:06Z</time>
      </trkpt>
      <trkpt lat="40.12355" lon="-.794069">
        <ele>987.035</ele>
        <time>2020-08-29T11:41:07Z</time>
      </trkpt>
      <trkpt lat="40.123516" lon="-.794027">
        <ele>986.983</ele>
        <time>2020-08-29T11:41:08Z</time>
      </trkpt>
      <trkpt lat="40.12347" lon="-.793972">
        <ele>986.710</ele>
        <time>2020-08-29T11:41:09Z</time>
      </trkpt>
      <trkpt lat="40.123407" lon="-.793875">
        <ele>986.748</ele>
        <time>2020-08-29T11:41:11Z</time>
      </trkpt>
      <trkpt lat="40.123366" lon="-.793823">
        <ele>986.798</ele>
        <time>2020-08-29T11:41:12Z</time>
      </trkpt>
      <trkpt lat="40.123328" lon="-.793773">
        <ele>986.622</ele>
        <time>2020-08-29T11:41:13Z</time>
      </trkpt>
      <trkpt lat="40.123283" lon="-.793727">
        <ele>986.662</ele>
        <time>2020-08-29T11:41:14Z</time>
      </trkpt>
      <trkpt lat="40.12325" lon="-.793673">
        <ele>986.508</ele>
        <time>2020-08-29T11:41:15Z</time>
      </trkpt>
      <trkpt lat="40.123215" lon="-.793625">
        <ele>986.508</ele>
        <time>2020-08-29T11:41:16Z</time>
      </trkpt>
      <trkpt lat="40.123168" lon="-.793578">
        <ele>986.517</ele>
        <time>2020-08-29T11:41:17Z</time>
      </trkpt>
      <trkpt lat="40.123134" lon="-.793533">
        <ele>986.577</ele>
        <time>2020-08-29T11:41:18Z</time>
      </trkpt>
      <trkpt lat="40.123096" lon="-.793477">
        <ele>986.459</ele>
        <time>2020-08-29T11:41:19Z</time>
      </trkpt>
      <trkpt lat="40.123058" lon="-.793418">
        <ele>986.411</ele>
        <time>2020-08-29T11:41:20Z</time>
      </trkpt>
      <trkpt lat="40.123016" lon="-.793374">
        <ele>986.459</ele>
        <time>2020-08-29T11:41:21Z</time>
      </trkpt>
      <trkpt lat="40.122978" lon="-.793317">
        <ele>986.496</ele>
        <time>2020-08-29T11:41:22Z</time>
      </trkpt>
      <trkpt lat="40.122949" lon="-.793272">
        <ele>986.454</ele>
        <time>2020-08-29T11:41:23Z</time>
      </trkpt>
      <trkpt lat="40.122913" lon="-.79323">
        <ele>986.454</ele>
        <time>2020-08-29T11:41:24Z</time>
      </trkpt>
      <trkpt lat="40.122878" lon="-.793184">
        <ele>986.435</ele>
        <time>2020-08-29T11:41:25Z</time>
      </trkpt>
      <trkpt lat="40.122831" lon="-.793127">
        <ele>986.486</ele>
        <time>2020-08-29T11:41:26Z</time>
      </trkpt>
      <trkpt lat="40.122796" lon="-.793069">
        <ele>986.414</ele>
        <time>2020-08-29T11:41:27Z</time>
      </trkpt>
      <trkpt lat="40.122757" lon="-.793023">
        <ele>986.408</ele>
        <time>2020-08-29T11:41:28Z</time>
      </trkpt>
      <trkpt lat="40.122711" lon="-.792964">
        <ele>986.428</ele>
        <time>2020-08-29T11:41:29Z</time>
      </trkpt>
      <trkpt lat="40.122672" lon="-.792908">
        <ele>986.398</ele>
        <time>2020-08-29T11:41:30Z</time>
      </trkpt>
      <trkpt lat="40.122628" lon="-.792866">
        <ele>986.070</ele>
        <time>2020-08-29T11:41:31Z</time>
      </trkpt>
      <trkpt lat="40.12258" lon="-.792805">
        <ele>986.062</ele>
        <time>2020-08-29T11:41:32Z</time>
      </trkpt>
      <trkpt lat="40.122546" lon="-.79276">
        <ele>986.180</ele>
        <time>2020-08-29T11:41:33Z</time>
      </trkpt>
      <trkpt lat="40.122508" lon="-.792707">
        <ele>986.277</ele>
        <time>2020-08-29T11:41:34Z</time>
      </trkpt>
      <trkpt lat="40.122475" lon="-.792667">
        <ele>986.285</ele>
        <time>2020-08-29T11:41:35Z</time>
      </trkpt>
      <trkpt lat="40.122436" lon="-.79261">
        <ele>986.595</ele>
        <time>2020-08-29T11:41:36Z</time>
      </trkpt>
      <trkpt lat="40.122391" lon="-.792563">
        <ele>986.634</ele>
        <time>2020-08-29T11:41:37Z</time>
      </trkpt>
      <trkpt lat="40.122363" lon="-.792504">
        <ele>986.655</ele>
        <time>2020-08-29T11:41:38Z</time>
      </trkpt>
      <trkpt lat="40.12232" lon="-.792462">
        <ele>986.610</ele>
        <time>2020-08-29T11:41:39Z</time>
      </trkpt>
      <trkpt lat="40.122284" lon="-.792413">
        <ele>986.508</ele>
        <time>2020-08-29T11:41:40Z</time>
      </trkpt>
      <trkpt lat="40.122247" lon="-.79237">
        <ele>986.598</ele>
        <time>2020-08-29T11:41:41Z</time>
      </trkpt>
      <trkpt lat="40.122203" lon="-.792315">
        <ele>986.548</ele>
        <time>2020-08-29T11:41:42Z</time>
      </trkpt>
      <trkpt lat="40.122165" lon="-.792259">
        <ele>986.440</ele>
        <time>2020-08-29T11:41:43Z</time>
      </trkpt>
      <trkpt lat="40.122126" lon="-.792208">
        <ele>986.372</ele>
        <time>2020-08-29T11:41:44Z</time>
      </trkpt>
      <trkpt lat="40.122095" lon="-.792158">
        <ele>986.340</ele>
        <time>2020-08-29T11:41:45Z</time>
      </trkpt>
      <trkpt lat="40.122059" lon="-.792112">
        <ele>986.397</ele>
        <time>2020-08-29T11:41:46Z</time>
      </trkpt>
      <trkpt lat="40.122028" lon="-.792054">
        <ele>986.255</ele>
        <time>2020-08-29T11:41:47Z</time>
      </trkpt>
      <trkpt lat="40.121998" lon="-.792006">
        <ele>986.115</ele>
        <time>2020-08-29T11:41:48Z</time>
      </trkpt>
      <trkpt lat="40.121974" lon="-.791951">
        <ele>986.146</ele>
        <time>2020-08-29T11:41:49Z</time>
      </trkpt>
      <trkpt lat="40.121931" lon="-.791857">
        <ele>986.188</ele>
        <time>2020-08-29T11:41:51Z</time>
      </trkpt>
      <trkpt lat="40.121903" lon="-.791806">
        <ele>986.516</ele>
        <time>2020-08-29T11:41:52Z</time>
      </trkpt>
      <trkpt lat="40.121874" lon="-.791746">
        <ele>986.808</ele>
        <time>2020-08-29T11:41:53Z</time>
      </trkpt>
      <trkpt lat="40.121843" lon="-.79165">
        <ele>986.819</ele>
        <time>2020-08-29T11:41:55Z</time>
      </trkpt>
      <trkpt lat="40.121822" lon="-.791597">
        <ele>986.449</ele>
        <time>2020-08-29T11:41:56Z</time>
      </trkpt>
      <trkpt lat="40.121794" lon="-.791497">
        <ele>986.341</ele>
        <time>2020-08-29T11:41:58Z</time>
      </trkpt>
      <trkpt lat="40.12176" lon="-.791396">
        <ele>986.463</ele>
        <time>2020-08-29T11:42:00Z</time>
      </trkpt>
      <trkpt lat="40.121735" lon="-.79128">
        <ele>987.071</ele>
        <time>2020-08-29T11:42:02Z</time>
      </trkpt>
      <trkpt lat="40.121722" lon="-.791174">
        <ele>987.378</ele>
        <time>2020-08-29T11:42:04Z</time>
      </trkpt>
      <trkpt lat="40.121715" lon="-.791114">
        <ele>987.786</ele>
        <time>2020-08-29T11:42:05Z</time>
      </trkpt>
      <trkpt lat="40.121695" lon="-.791016">
        <ele>987.926</ele>
        <time>2020-08-29T11:42:07Z</time>
      </trkpt>
      <trkpt lat="40.121684" lon="-.790921">
        <ele>987.226</ele>
        <time>2020-08-29T11:42:09Z</time>
      </trkpt>
      <trkpt lat="40.121653" lon="-.790808">
        <ele>987.147</ele>
        <time>2020-08-29T11:42:11Z</time>
      </trkpt>
      <trkpt lat="40.121647" lon="-.790707">
        <ele>987.211</ele>
        <time>2020-08-29T11:42:13Z</time>
      </trkpt>
      <trkpt lat="40.121629" lon="-.790611">
        <ele>987.308</ele>
        <time>2020-08-29T11:42:15Z</time>
      </trkpt>
      <trkpt lat="40.121616" lon="-.790514">
        <ele>987.517</ele>
        <time>2020-08-29T11:42:17Z</time>
      </trkpt>
      <trkpt lat="40.121594" lon="-.790413">
        <ele>987.687</ele>
        <time>2020-08-29T11:42:19Z</time>
      </trkpt>
      <trkpt lat="40.121571" lon="-.790297">
        <ele>987.799</ele>
        <time>2020-08-29T11:42:21Z</time>
      </trkpt>
      <trkpt lat="40.12156" lon="-.790204">
        <ele>987.761</ele>
        <time>2020-08-29T11:42:23Z</time>
      </trkpt>
      <trkpt lat="40.121539" lon="-.790096">
        <ele>987.839</ele>
        <time>2020-08-29T11:42:25Z</time>
      </trkpt>
      <trkpt lat="40.121523" lon="-.790035">
        <ele>987.846</ele>
        <time>2020-08-29T11:42:26Z</time>
      </trkpt>
      <trkpt lat="40.121515" lon="-.789976">
        <ele>987.884</ele>
        <time>2020-08-29T11:42:27Z</time>
      </trkpt>
      <trkpt lat="40.121494" lon="-.789881">
        <ele>987.924</ele>
        <time>2020-08-29T11:42:29Z</time>
      </trkpt>
      <trkpt lat="40.121471" lon="-.789771">
        <ele>987.912</ele>
        <time>2020-08-29T11:42:31Z</time>
      </trkpt>
      <trkpt lat="40.121456" lon="-.789681">
        <ele>987.932</ele>
        <time>2020-08-29T11:42:33Z</time>
      </trkpt>
      <trkpt lat="40.121433" lon="-.789587">
        <ele>987.905</ele>
        <time>2020-08-29T11:42:35Z</time>
      </trkpt>
      <trkpt lat="40.121426" lon="-.789513">
        <ele>987.908</ele>
        <time>2020-08-29T11:42:36Z</time>
      </trkpt>
      <trkpt lat="40.121409" lon="-.789412">
        <ele>987.596</ele>
        <time>2020-08-29T11:42:38Z</time>
      </trkpt>
      <trkpt lat="40.121401" lon="-.78932">
        <ele>987.516</ele>
        <time>2020-08-29T11:42:40Z</time>
      </trkpt>
      <trkpt lat="40.12137" lon="-.789204">
        <ele>987.988</ele>
        <time>2020-08-29T11:42:42Z</time>
      </trkpt>
      <trkpt lat="40.121356" lon="-.789143">
        <ele>988.060</ele>
        <time>2020-08-29T11:42:43Z</time>
      </trkpt>
      <trkpt lat="40.121333" lon="-.789045">
        <ele>988.388</ele>
        <time>2020-08-29T11:42:45Z</time>
      </trkpt>
      <trkpt lat="40.12131" lon="-.788958">
        <ele>987.965</ele>
        <time>2020-08-29T11:42:47Z</time>
      </trkpt>
      <trkpt lat="40.121299" lon="-.788897">
        <ele>987.833</ele>
        <time>2020-08-29T11:42:49Z</time>
      </trkpt>
      <trkpt lat="40.121294" lon="-.788836">
        <ele>988.063</ele>
        <time>2020-08-29T11:42:51Z</time>
      </trkpt>
      <trkpt lat="40.121281" lon="-.788769">
        <ele>988.211</ele>
        <time>2020-08-29T11:42:53Z</time>
      </trkpt>
      <trkpt lat="40.121266" lon="-.788662">
        <ele>988.121</ele>
        <time>2020-08-29T11:42:55Z</time>
      </trkpt>
      <trkpt lat="40.121258" lon="-.788565">
        <ele>988.203</ele>
        <time>2020-08-29T11:42:57Z</time>
      </trkpt>
      <trkpt lat="40.121246" lon="-.7885">
        <ele>988.308</ele>
        <time>2020-08-29T11:42:58Z</time>
      </trkpt>
      <trkpt lat="40.121248" lon="-.788407">
        <ele>988.536</ele>
        <time>2020-08-29T11:43:00Z</time>
      </trkpt>
      <trkpt lat="40.121223" lon="-.788309">
        <ele>988.756</ele>
        <time>2020-08-29T11:43:02Z</time>
      </trkpt>
      <trkpt lat="40.121208" lon="-.788236">
        <ele>988.858</ele>
        <time>2020-08-29T11:43:03Z</time>
      </trkpt>
      <trkpt lat="40.121199" lon="-.788144">
        <ele>988.660</ele>
        <time>2020-08-29T11:43:05Z</time>
      </trkpt>
      <trkpt lat="40.121185" lon="-.788088">
        <ele>988.698</ele>
        <time>2020-08-29T11:43:06Z</time>
      </trkpt>
      <trkpt lat="40.12116" lon="-.787988">
        <ele>989.115</ele>
        <time>2020-08-29T11:43:08Z</time>
      </trkpt>
      <trkpt lat="40.121145" lon="-.78788">
        <ele>989.053</ele>
        <time>2020-08-29T11:43:10Z</time>
      </trkpt>
      <trkpt lat="40.121126" lon="-.787782">
        <ele>988.973</ele>
        <time>2020-08-29T11:43:12Z</time>
      </trkpt>
      <trkpt lat="40.121107" lon="-.787685">
        <ele>988.957</ele>
        <time>2020-08-29T11:43:14Z</time>
      </trkpt>
      <trkpt lat="40.121098" lon="-.787608">
        <ele>988.900</ele>
        <time>2020-08-29T11:43:16Z</time>
      </trkpt>
      <trkpt lat="40.12108" lon="-.787525">
        <ele>988.920</ele>
        <time>2020-08-29T11:43:18Z</time>
      </trkpt>
      <trkpt lat="40.121071" lon="-.787465">
        <ele>989.008</ele>
        <time>2020-08-29T11:43:21Z</time>
      </trkpt>
      <trkpt lat="40.121062" lon="-.787383">
        <ele>989.340</ele>
        <time>2020-08-29T11:43:24Z</time>
      </trkpt>
      <trkpt lat="40.121046" lon="-.787295">
        <ele>989.530</ele>
        <time>2020-08-29T11:43:27Z</time>
      </trkpt>
      <trkpt lat="40.121034" lon="-.787236">
        <ele>989.122</ele>
        <time>2020-08-29T11:43:29Z</time>
      </trkpt>
      <trkpt lat="40.12102" lon="-.787175">
        <ele>989.494</ele>
        <time>2020-08-29T11:43:31Z</time>
      </trkpt>
      <trkpt lat="40.121014" lon="-.78711">
        <ele>990.032</ele>
        <time>2020-08-29T11:43:33Z</time>
      </trkpt>
      <trkpt lat="40.121002" lon="-.787053">
        <ele>989.749</ele>
        <time>2020-08-29T11:43:35Z</time>
      </trkpt>
      <trkpt lat="40.120984" lon="-.786986">
        <ele>989.757</ele>
        <time>2020-08-29T11:43:37Z</time>
      </trkpt>
      <trkpt lat="40.12097" lon="-.786911">
        <ele>989.817</ele>
        <time>2020-08-29T11:43:39Z</time>
      </trkpt>
      <trkpt lat="40.120956" lon="-.786819">
        <ele>990.434</ele>
        <time>2020-08-29T11:43:42Z</time>
      </trkpt>
      <trkpt lat="40.120944" lon="-.786742">
        <ele>990.655</ele>
        <time>2020-08-29T11:43:44Z</time>
      </trkpt>
      <trkpt lat="40.120928" lon="-.786677">
        <ele>990.610</ele>
        <time>2020-08-29T11:43:46Z</time>
      </trkpt>
      <trkpt lat="40.120916" lon="-.786606">
        <ele>990.708</ele>
        <time>2020-08-29T11:43:48Z</time>
      </trkpt>
      <trkpt lat="40.120898" lon="-.786542">
        <ele>990.948</ele>
        <time>2020-08-29T11:43:50Z</time>
      </trkpt>
      <trkpt lat="40.120868" lon="-.786472">
        <ele>991.118</ele>
        <time>2020-08-29T11:43:52Z</time>
      </trkpt>
      <trkpt lat="40.120849" lon="-.786406">
        <ele>991.480</ele>
        <time>2020-08-29T11:43:54Z</time>
      </trkpt>
      <trkpt lat="40.120821" lon="-.786342">
        <ele>991.822</ele>
        <time>2020-08-29T11:43:56Z</time>
      </trkpt>
      <trkpt lat="40.120716" lon="-.786038">
        <ele>993.250</ele>
        <time>2020-08-29T11:44:32Z</time>
      </trkpt>
      <trkpt lat="40.120692" lon="-.785986">
        <ele>992.487</ele>
        <time>2020-08-29T11:44:48Z</time>
      </trkpt>
      <trkpt lat="40.120665" lon="-.785923">
        <ele>992.165</ele>
        <time>2020-08-29T11:44:51Z</time>
      </trkpt>
      <trkpt lat="40.120649" lon="-.785866">
        <ele>992.835</ele>
        <time>2020-08-29T11:44:54Z</time>
      </trkpt>
      <trkpt lat="40.120634" lon="-.785805">
        <ele>993.039</ele>
        <time>2020-08-29T11:44:56Z</time>
      </trkpt>
      <trkpt lat="40.120612" lon="-.785729">
        <ele>993.001</ele>
        <time>2020-08-29T11:44:59Z</time>
      </trkpt>
      <trkpt lat="40.120586" lon="-.785671">
        <ele>992.821</ele>
        <time>2020-08-29T11:45:02Z</time>
      </trkpt>
      <trkpt lat="40.120561" lon="-.785621">
        <ele>993.308</ele>
        <time>2020-08-29T11:45:04Z</time>
      </trkpt>
      <trkpt lat="40.120551" lon="-.785545">
        <ele>993.888</ele>
        <time>2020-08-29T11:45:07Z</time>
      </trkpt>
      <trkpt lat="40.120529" lon="-.785486">
        <ele>993.898</ele>
        <time>2020-08-29T11:45:09Z</time>
      </trkpt>
      <trkpt lat="40.120487" lon="-.785414">
        <ele>994.010</ele>
        <time>2020-08-29T11:45:12Z</time>
      </trkpt>
      <trkpt lat="40.120457" lon="-.785364">
        <ele>994.122</ele>
        <time>2020-08-29T11:45:14Z</time>
      </trkpt>
      <trkpt lat="40.120437" lon="-.785308">
        <ele>994.540</ele>
        <time>2020-08-29T11:45:16Z</time>
      </trkpt>
      <trkpt lat="40.120399" lon="-.785241">
        <ele>994.837</ele>
        <time>2020-08-29T11:45:19Z</time>
      </trkpt>
      <trkpt lat="40.120372" lon="-.785161">
        <ele>995.285</ele>
        <time>2020-08-29T11:45:22Z</time>
      </trkpt>
      <trkpt lat="40.120344" lon="-.785109">
        <ele>995.025</ele>
        <time>2020-08-29T11:45:24Z</time>
      </trkpt>
      <trkpt lat="40.120318" lon="-.785054">
        <ele>995.332</ele>
        <time>2020-08-29T11:45:26Z</time>
      </trkpt>
      <trkpt lat="40.120293" lon="-.784997">
        <ele>995.492</ele>
        <time>2020-08-29T11:45:29Z</time>
      </trkpt>
      <trkpt lat="40.120263" lon="-.784924">
        <ele>996.511</ele>
        <time>2020-08-29T11:45:33Z</time>
      </trkpt>
      <trkpt lat="40.120231" lon="-.784871">
        <ele>996.808</ele>
        <time>2020-08-29T11:45:35Z</time>
      </trkpt>
      <trkpt lat="40.120199" lon="-.784819">
        <ele>996.678</ele>
        <time>2020-08-29T11:45:38Z</time>
      </trkpt>
      <trkpt lat="40.120171" lon="-.784772">
        <ele>996.948</ele>
        <time>2020-08-29T11:45:40Z</time>
      </trkpt>
      <trkpt lat="40.120125" lon="-.784691">
        <ele>996.870</ele>
        <time>2020-08-29T11:45:43Z</time>
      </trkpt>
      <trkpt lat="40.120102" lon="-.784639">
        <ele>996.892</ele>
        <time>2020-08-29T11:45:45Z</time>
      </trkpt>
      <trkpt lat="40.120071" lon="-.784588">
        <ele>997.160</ele>
        <time>2020-08-29T11:45:47Z</time>
      </trkpt>
      <trkpt lat="40.120039" lon="-.784538">
        <ele>997.037</ele>
        <time>2020-08-29T11:45:49Z</time>
      </trkpt>
      <trkpt lat="40.120002" lon="-.784484">
        <ele>996.625</ele>
        <time>2020-08-29T11:45:51Z</time>
      </trkpt>
      <trkpt lat="40.119963" lon="-.784449">
        <ele>997.035</ele>
        <time>2020-08-29T11:45:53Z</time>
      </trkpt>
      <trkpt lat="40.119945" lon="-.784386">
        <ele>996.348</ele>
        <time>2020-08-29T11:45:55Z</time>
      </trkpt>
      <trkpt lat="40.119925" lon="-.784314">
        <ele>996.461</ele>
        <time>2020-08-29T11:45:57Z</time>
      </trkpt>
      <trkpt lat="40.119899" lon="-.784264">
        <ele>996.417</ele>
        <time>2020-08-29T11:45:58Z</time>
      </trkpt>
      <trkpt lat="40.119867" lon="-.784189">
        <ele>996.408</ele>
        <time>2020-08-29T11:45:59Z</time>
      </trkpt>
      <trkpt lat="40.119829" lon="-.784132">
        <ele>996.489</ele>
        <time>2020-08-29T11:46:00Z</time>
      </trkpt>
      <trkpt lat="40.119795" lon="-.784067">
        <ele>996.489</ele>
        <time>2020-08-29T11:46:01Z</time>
      </trkpt>
      <trkpt lat="40.119764" lon="-.784011">
        <ele>996.391</ele>
        <time>2020-08-29T11:46:02Z</time>
      </trkpt>
      <trkpt lat="40.119707" lon="-.783938">
        <ele>996.063</ele>
        <time>2020-08-29T11:46:03Z</time>
      </trkpt>
      <trkpt lat="40.119664" lon="-.783874">
        <ele>995.811</ele>
        <time>2020-08-29T11:46:04Z</time>
      </trkpt>
      <trkpt lat="40.119614" lon="-.783805">
        <ele>995.718</ele>
        <time>2020-08-29T11:46:05Z</time>
      </trkpt>
      <trkpt lat="40.119563" lon="-.783732">
        <ele>995.756</ele>
        <time>2020-08-29T11:46:06Z</time>
      </trkpt>
      <trkpt lat="40.119496" lon="-.783634">
        <ele>995.586</ele>
        <time>2020-08-29T11:46:07Z</time>
      </trkpt>
      <trkpt lat="40.119445" lon="-.783552">
        <ele>995.485</ele>
        <time>2020-08-29T11:46:08Z</time>
      </trkpt>
      <trkpt lat="40.119403" lon="-.783488">
        <ele>995.489</ele>
        <time>2020-08-29T11:46:09Z</time>
      </trkpt>
      <trkpt lat="40.119366" lon="-.783422">
        <ele>995.117</ele>
        <time>2020-08-29T11:46:10Z</time>
      </trkpt>
      <trkpt lat="40.119326" lon="-.783362">
        <ele>994.908</ele>
        <time>2020-08-29T11:46:11Z</time>
      </trkpt>
      <trkpt lat="40.119293" lon="-.783299">
        <ele>994.693</ele>
        <time>2020-08-29T11:46:12Z</time>
      </trkpt>
      <trkpt lat="40.119255" lon="-.783225">
        <ele>994.433</ele>
        <time>2020-08-29T11:46:13Z</time>
      </trkpt>
      <trkpt lat="40.119217" lon="-.783155">
        <ele>994.235</ele>
        <time>2020-08-29T11:46:14Z</time>
      </trkpt>
      <trkpt lat="40.11918" lon="-.783082">
        <ele>994.047</ele>
        <time>2020-08-29T11:46:15Z</time>
      </trkpt>
      <trkpt lat="40.119144" lon="-.783013">
        <ele>993.865</ele>
        <time>2020-08-29T11:46:16Z</time>
      </trkpt>
      <trkpt lat="40.119107" lon="-.782943">
        <ele>993.772</ele>
        <time>2020-08-29T11:46:17Z</time>
      </trkpt>
      <trkpt lat="40.119072" lon="-.78288">
        <ele>993.680</ele>
        <time>2020-08-29T11:46:18Z</time>
      </trkpt>
      <trkpt lat="40.119036" lon="-.782816">
        <ele>993.330</ele>
        <time>2020-08-29T11:46:19Z</time>
      </trkpt>
      <trkpt lat="40.118999" lon="-.782763">
        <ele>993.049</ele>
        <time>2020-08-29T11:46:20Z</time>
      </trkpt>
      <trkpt lat="40.118967" lon="-.782709">
        <ele>992.402</ele>
        <time>2020-08-29T11:46:21Z</time>
      </trkpt>
      <trkpt lat="40.118932" lon="-.782642">
        <ele>992.122</ele>
        <time>2020-08-29T11:46:22Z</time>
      </trkpt>
      <trkpt lat="40.118897" lon="-.782581">
        <ele>992.008</ele>
        <time>2020-08-29T11:46:23Z</time>
      </trkpt>
      <trkpt lat="40.118859" lon="-.782522">
        <ele>991.849</ele>
        <time>2020-08-29T11:46:24Z</time>
      </trkpt>
      <trkpt lat="40.118825" lon="-.782454">
        <ele>991.769</ele>
        <time>2020-08-29T11:46:25Z</time>
      </trkpt>
      <trkpt lat="40.118787" lon="-.782382">
        <ele>991.451</ele>
        <time>2020-08-29T11:46:26Z</time>
      </trkpt>
      <trkpt lat="40.11875" lon="-.78232">
        <ele>991.343</ele>
        <time>2020-08-29T11:46:27Z</time>
      </trkpt>
      <trkpt lat="40.118718" lon="-.782259">
        <ele>991.071</ele>
        <time>2020-08-29T11:46:28Z</time>
      </trkpt>
      <trkpt lat="40.118689" lon="-.782204">
        <ele>990.878</ele>
        <time>2020-08-29T11:46:29Z</time>
      </trkpt>
      <trkpt lat="40.118639" lon="-.782091">
        <ele>990.596</ele>
        <time>2020-08-29T11:46:31Z</time>
      </trkpt>
      <trkpt lat="40.1186" lon="-.782034">
        <ele>990.196</ele>
        <time>2020-08-29T11:46:32Z</time>
      </trkpt>
      <trkpt lat="40.118567" lon="-.78196">
        <ele>989.832</ele>
        <time>2020-08-29T11:46:33Z</time>
      </trkpt>
      <trkpt lat="40.11853" lon="-.781898">
        <ele>989.792</ele>
        <time>2020-08-29T11:46:34Z</time>
      </trkpt>
      <trkpt lat="40.118487" lon="-.781842">
        <ele>989.511</ele>
        <time>2020-08-29T11:46:35Z</time>
      </trkpt>
      <trkpt lat="40.118459" lon="-.781786">
        <ele>989.408</ele>
        <time>2020-08-29T11:46:36Z</time>
      </trkpt>
      <trkpt lat="40.118439" lon="-.78172">
        <ele>989.418</ele>
        <time>2020-08-29T11:46:37Z</time>
      </trkpt>
      <trkpt lat="40.118405" lon="-.781666">
        <ele>989.568</ele>
        <time>2020-08-29T11:46:38Z</time>
      </trkpt>
      <trkpt lat="40.118373" lon="-.781614">
        <ele>989.540</ele>
        <time>2020-08-29T11:46:39Z</time>
      </trkpt>
      <trkpt lat="40.118344" lon="-.781552">
        <ele>989.512</ele>
        <time>2020-08-29T11:46:40Z</time>
      </trkpt>
      <trkpt lat="40.11831" lon="-.781513">
        <ele>989.830</ele>
        <time>2020-08-29T11:46:41Z</time>
      </trkpt>
      <trkpt lat="40.118285" lon="-.781449">
        <ele>989.897</ele>
        <time>2020-08-29T11:46:42Z</time>
      </trkpt>
      <trkpt lat="40.118254" lon="-.781396">
        <ele>989.335</ele>
        <time>2020-08-29T11:46:43Z</time>
      </trkpt>
      <trkpt lat="40.118205" lon="-.781311">
        <ele>989.825</ele>
        <time>2020-08-29T11:46:45Z</time>
      </trkpt>
      <trkpt lat="40.118173" lon="-.781254">
        <ele>989.835</ele>
        <time>2020-08-29T11:46:46Z</time>
      </trkpt>
      <trkpt lat="40.118122" lon="-.781162">
        <ele>989.886</ele>
        <time>2020-08-29T11:46:48Z</time>
      </trkpt>
      <trkpt lat="40.118069" lon="-.78107">
        <ele>990.114</ele>
        <time>2020-08-29T11:46:50Z</time>
      </trkpt>
      <trkpt lat="40.118013" lon="-.780984">
        <ele>990.308</ele>
        <time>2020-08-29T11:46:52Z</time>
      </trkpt>
      <trkpt lat="40.117958" lon="-.780896">
        <ele>990.838</ele>
        <time>2020-08-29T11:46:54Z</time>
      </trkpt>
      <trkpt lat="40.117911" lon="-.780816">
        <ele>991.868</ele>
        <time>2020-08-29T11:46:56Z</time>
      </trkpt>
      <trkpt lat="40.117854" lon="-.78073">
        <ele>992.080</ele>
        <time>2020-08-29T11:46:58Z</time>
      </trkpt>
      <trkpt lat="40.117816" lon="-.780655">
        <ele>992.412</ele>
        <time>2020-08-29T11:47:00Z</time>
      </trkpt>
      <trkpt lat="40.117779" lon="-.780579">
        <ele>992.880</ele>
        <time>2020-08-29T11:47:02Z</time>
      </trkpt>
      <trkpt lat="40.117748" lon="-.780524">
        <ele>993.017</ele>
        <time>2020-08-29T11:47:04Z</time>
      </trkpt>
      <trkpt lat="40.117719" lon="-.780458">
        <ele>993.145</ele>
        <time>2020-08-29T11:47:06Z</time>
      </trkpt>
      <trkpt lat="40.11768" lon="-.780405">
        <ele>993.775</ele>
        <time>2020-08-29T11:47:08Z</time>
      </trkpt>
      <trkpt lat="40.11765" lon="-.780349">
        <ele>995.361</ele>
        <time>2020-08-29T11:47:10Z</time>
      </trkpt>
      <trkpt lat="40.117626" lon="-.780298">
        <ele>995.421</ele>
        <time>2020-08-29T11:47:12Z</time>
      </trkpt>
      <trkpt lat="40.117587" lon="-.780248">
        <ele>995.213</ele>
        <time>2020-08-29T11:47:14Z</time>
      </trkpt>
      <trkpt lat="40.117542" lon="-.780197">
        <ele>996.108</ele>
        <time>2020-08-29T11:47:16Z</time>
      </trkpt>
      <trkpt lat="40.11751" lon="-.780131">
        <ele>996.931</ele>
        <time>2020-08-29T11:47:18Z</time>
      </trkpt>
      <trkpt lat="40.117485" lon="-.780078">
        <ele>996.471</ele>
        <time>2020-08-29T11:47:20Z</time>
      </trkpt>
      <trkpt lat="40.11746" lon="-.780013">
        <ele>996.763</ele>
        <time>2020-08-29T11:47:23Z</time>
      </trkpt>
      <trkpt lat="40.117436" lon="-.779958">
        <ele>997.325</ele>
        <time>2020-08-29T11:47:25Z</time>
      </trkpt>
      <trkpt lat="40.117406" lon="-.779891">
        <ele>997.523</ele>
        <time>2020-08-29T11:47:28Z</time>
      </trkpt>
      <trkpt lat="40.117377" lon="-.779844">
        <ele>997.660</ele>
        <time>2020-08-29T11:47:30Z</time>
      </trkpt>
      <trkpt lat="40.117353" lon="-.77979">
        <ele>997.388</ele>
        <time>2020-08-29T11:47:32Z</time>
      </trkpt>
      <trkpt lat="40.117328" lon="-.779737">
        <ele>997.078</ele>
        <time>2020-08-29T11:47:34Z</time>
      </trkpt>
      <trkpt lat="40.117294" lon="-.779654">
        <ele>996.849</ele>
        <time>2020-08-29T11:47:36Z</time>
      </trkpt>
      <trkpt lat="40.117276" lon="-.779595">
        <ele>996.602</ele>
        <time>2020-08-29T11:47:37Z</time>
      </trkpt>
      <trkpt lat="40.117257" lon="-.77954">
        <ele>996.422</ele>
        <time>2020-08-29T11:47:38Z</time>
      </trkpt>
      <trkpt lat="40.117227" lon="-.779441">
        <ele>995.808</ele>
        <time>2020-08-29T11:47:40Z</time>
      </trkpt>
      <trkpt lat="40.117206" lon="-.779377">
        <ele>995.519</ele>
        <time>2020-08-29T11:47:41Z</time>
      </trkpt>
      <trkpt lat="40.117187" lon="-.779308">
        <ele>995.199</ele>
        <time>2020-08-29T11:47:42Z</time>
      </trkpt>
      <trkpt lat="40.117155" lon="-.779228">
        <ele>994.751</ele>
        <time>2020-08-29T11:47:43Z</time>
      </trkpt>
      <trkpt lat="40.117122" lon="-.779151">
        <ele>994.353</ele>
        <time>2020-08-29T11:47:44Z</time>
      </trkpt>
      <trkpt lat="40.117092" lon="-.779076">
        <ele>994.031</ele>
        <time>2020-08-29T11:47:45Z</time>
      </trkpt>
      <trkpt lat="40.117061" lon="-.778989">
        <ele>993.628</ele>
        <time>2020-08-29T11:47:46Z</time>
      </trkpt>
      <trkpt lat="40.116999" lon="-.77885">
        <ele>993.356</ele>
        <time>2020-08-29T11:47:47Z</time>
      </trkpt>
      <trkpt lat="40.116946" lon="-.778704">
        <ele>992.846</ele>
        <time>2020-08-29T11:47:48Z</time>
      </trkpt>
      <trkpt lat="40.116905" lon="-.778592">
        <ele>992.564</ele>
        <time>2020-08-29T11:47:49Z</time>
      </trkpt>
      <trkpt lat="40.116864" lon="-.778498">
        <ele>991.706</ele>
        <time>2020-08-29T11:47:50Z</time>
      </trkpt>
      <trkpt lat="40.116828" lon="-.778402">
        <ele>991.216</ele>
        <time>2020-08-29T11:47:51Z</time>
      </trkpt>
      <trkpt lat="40.116793" lon="-.778308">
        <ele>990.908</ele>
        <time>2020-08-29T11:47:52Z</time>
      </trkpt>
      <trkpt lat="40.116764" lon="-.778224">
        <ele>990.531</ele>
        <time>2020-08-29T11:47:53Z</time>
      </trkpt>
      <trkpt lat="40.116734" lon="-.778138">
        <ele>990.161</ele>
        <time>2020-08-29T11:47:54Z</time>
      </trkpt>
      <trkpt lat="40.116701" lon="-.778047">
        <ele>989.863</ele>
        <time>2020-08-29T11:47:55Z</time>
      </trkpt>
      <trkpt lat="40.116667" lon="-.777954">
        <ele>989.255</ele>
        <time>2020-08-29T11:47:56Z</time>
      </trkpt>
      <trkpt lat="40.116644" lon="-.777866">
        <ele>989.183</ele>
        <time>2020-08-29T11:47:57Z</time>
      </trkpt>
      <trkpt lat="40.116608" lon="-.777777">
        <ele>988.770</ele>
        <time>2020-08-29T11:47:58Z</time>
      </trkpt>
      <trkpt lat="40.116578" lon="-.777706">
        <ele>988.478</ele>
        <time>2020-08-29T11:47:59Z</time>
      </trkpt>
      <trkpt lat="40.116547" lon="-.777619">
        <ele>988.458</ele>
        <time>2020-08-29T11:48:00Z</time>
      </trkpt>
      <trkpt lat="40.116516" lon="-.777542">
        <ele>988.289</ele>
        <time>2020-08-29T11:48:01Z</time>
      </trkpt>
      <trkpt lat="40.116488" lon="-.777462">
        <ele>987.906</ele>
        <time>2020-08-29T11:48:02Z</time>
      </trkpt>
      <trkpt lat="40.116456" lon="-.777384">
        <ele>987.926</ele>
        <time>2020-08-29T11:48:03Z</time>
      </trkpt>
      <trkpt lat="40.116438" lon="-.777304">
        <ele>987.808</ele>
        <time>2020-08-29T11:48:04Z</time>
      </trkpt>
      <trkpt lat="40.116417" lon="-.777227">
        <ele>987.723</ele>
        <time>2020-08-29T11:48:05Z</time>
      </trkpt>
      <trkpt lat="40.116391" lon="-.777155">
        <ele>987.713</ele>
        <time>2020-08-29T11:48:06Z</time>
      </trkpt>
      <trkpt lat="40.116366" lon="-.777088">
        <ele>987.795</ele>
        <time>2020-08-29T11:48:07Z</time>
      </trkpt>
      <trkpt lat="40.116342" lon="-.777018">
        <ele>987.587</ele>
        <time>2020-08-29T11:48:08Z</time>
      </trkpt>
      <trkpt lat="40.116324" lon="-.776952">
        <ele>987.335</ele>
        <time>2020-08-29T11:48:09Z</time>
      </trkpt>
      <trkpt lat="40.116305" lon="-.776895">
        <ele>987.172</ele>
        <time>2020-08-29T11:48:10Z</time>
      </trkpt>
      <trkpt lat="40.116279" lon="-.776836">
        <ele>986.970</ele>
        <time>2020-08-29T11:48:11Z</time>
      </trkpt>
      <trkpt lat="40.11626" lon="-.776779">
        <ele>986.810</ele>
        <time>2020-08-29T11:48:12Z</time>
      </trkpt>
      <trkpt lat="40.116239" lon="-.776722">
        <ele>986.679</ele>
        <time>2020-08-29T11:48:13Z</time>
      </trkpt>
      <trkpt lat="40.116223" lon="-.776665">
        <ele>986.505</ele>
        <time>2020-08-29T11:48:14Z</time>
      </trkpt>
      <trkpt lat="40.116202" lon="-.776609">
        <ele>986.525</ele>
        <time>2020-08-29T11:48:15Z</time>
      </trkpt>
      <trkpt lat="40.116165" lon="-.776501">
        <ele>986.408</ele>
        <time>2020-08-29T11:48:17Z</time>
      </trkpt>
      <trkpt lat="40.116148" lon="-.776428">
        <ele>986.422</ele>
        <time>2020-08-29T11:48:18Z</time>
      </trkpt>
      <trkpt lat="40.116125" lon="-.77637">
        <ele>986.372</ele>
        <time>2020-08-29T11:48:19Z</time>
      </trkpt>
      <trkpt lat="40.116101" lon="-.776315">
        <ele>986.394</ele>
        <time>2020-08-29T11:48:20Z</time>
      </trkpt>
      <trkpt lat="40.116079" lon="-.776255">
        <ele>986.296</ele>
        <time>2020-08-29T11:48:21Z</time>
      </trkpt>
      <trkpt lat="40.116051" lon="-.776152">
        <ele>986.124</ele>
        <time>2020-08-29T11:48:23Z</time>
      </trkpt>
      <trkpt lat="40.116031" lon="-.776099">
        <ele>986.191</ele>
        <time>2020-08-29T11:48:24Z</time>
      </trkpt>
      <trkpt lat="40.116007" lon="-.776042">
        <ele>986.099</ele>
        <time>2020-08-29T11:48:25Z</time>
      </trkpt>
      <trkpt lat="40.11597" lon="-.775937">
        <ele>985.969</ele>
        <time>2020-08-29T11:48:27Z</time>
      </trkpt>
      <trkpt lat="40.11594" lon="-.775826">
        <ele>985.871</ele>
        <time>2020-08-29T11:48:29Z</time>
      </trkpt>
      <trkpt lat="40.115913" lon="-.775759">
        <ele>985.841</ele>
        <time>2020-08-29T11:48:30Z</time>
      </trkpt>
      <trkpt lat="40.115887" lon="-.775692">
        <ele>985.715</ele>
        <time>2020-08-29T11:48:31Z</time>
      </trkpt>
      <trkpt lat="40.115867" lon="-.775623">
        <ele>985.708</ele>
        <time>2020-08-29T11:48:32Z</time>
      </trkpt>
      <trkpt lat="40.115845" lon="-.775552">
        <ele>985.712</ele>
        <time>2020-08-29T11:48:33Z</time>
      </trkpt>
      <trkpt lat="40.115823" lon="-.775487">
        <ele>985.692</ele>
        <time>2020-08-29T11:48:34Z</time>
      </trkpt>
      <trkpt lat="40.115797" lon="-.775422">
        <ele>985.654</ele>
        <time>2020-08-29T11:48:35Z</time>
      </trkpt>
      <trkpt lat="40.115774" lon="-.775358">
        <ele>985.656</ele>
        <time>2020-08-29T11:48:36Z</time>
      </trkpt>
      <trkpt lat="40.115753" lon="-.775295">
        <ele>985.694</ele>
        <time>2020-08-29T11:48:37Z</time>
      </trkpt>
      <trkpt lat="40.11573" lon="-.77523">
        <ele>985.611</ele>
        <time>2020-08-29T11:48:38Z</time>
      </trkpt>
      <trkpt lat="40.115705" lon="-.775169">
        <ele>985.639</ele>
        <time>2020-08-29T11:48:39Z</time>
      </trkpt>
      <trkpt lat="40.115685" lon="-.77511">
        <ele>985.679</ele>
        <time>2020-08-29T11:48:40Z</time>
      </trkpt>
      <trkpt lat="40.115668" lon="-.775055">
        <ele>985.617</ele>
        <time>2020-08-29T11:48:41Z</time>
      </trkpt>
      <trkpt lat="40.115646" lon="-.774993">
        <ele>985.587</ele>
        <time>2020-08-29T11:48:42Z</time>
      </trkpt>
      <trkpt lat="40.115612" lon="-.774875">
        <ele>985.315</ele>
        <time>2020-08-29T11:48:44Z</time>
      </trkpt>
      <trkpt lat="40.115588" lon="-.774818">
        <ele>985.308</ele>
        <time>2020-08-29T11:48:45Z</time>
      </trkpt>
      <trkpt lat="40.115568" lon="-.774757">
        <ele>985.356</ele>
        <time>2020-08-29T11:48:46Z</time>
      </trkpt>
      <trkpt lat="40.115544" lon="-.774697">
        <ele>985.316</ele>
        <time>2020-08-29T11:48:47Z</time>
      </trkpt>
      <trkpt lat="40.115524" lon="-.774641">
        <ele>985.398</ele>
        <time>2020-08-29T11:48:48Z</time>
      </trkpt>
      <trkpt lat="40.1155" lon="-.774579">
        <ele>985.460</ele>
        <time>2020-08-29T11:48:49Z</time>
      </trkpt>
      <trkpt lat="40.115478" lon="-.774523">
        <ele>985.438</ele>
        <time>2020-08-29T11:48:50Z</time>
      </trkpt>
      <trkpt lat="40.115456" lon="-.774467">
        <ele>985.445</ele>
        <time>2020-08-29T11:48:51Z</time>
      </trkpt>
      <trkpt lat="40.115439" lon="-.774407">
        <ele>985.433</ele>
        <time>2020-08-29T11:48:52Z</time>
      </trkpt>
      <trkpt lat="40.11542" lon="-.774352">
        <ele>985.323</ele>
        <time>2020-08-29T11:48:53Z</time>
      </trkpt>
      <trkpt lat="40.115404" lon="-.774296">
        <ele>985.312</ele>
        <time>2020-08-29T11:48:54Z</time>
      </trkpt>
      <trkpt lat="40.115368" lon="-.774197">
        <ele>985.332</ele>
        <time>2020-08-29T11:48:56Z</time>
      </trkpt>
      <trkpt lat="40.115334" lon="-.774099">
        <ele>985.305</ele>
        <time>2020-08-29T11:48:58Z</time>
      </trkpt>
      <trkpt lat="40.115303" lon="-.773997">
        <ele>985.208</ele>
        <time>2020-08-29T11:49:00Z</time>
      </trkpt>
      <trkpt lat="40.115274" lon="-.773912">
        <ele>985.276</ele>
        <time>2020-08-29T11:49:02Z</time>
      </trkpt>
      <trkpt lat="40.115251" lon="-.773839">
        <ele>985.286</ele>
        <time>2020-08-29T11:49:04Z</time>
      </trkpt>
      <trkpt lat="40.115217" lon="-.773747">
        <ele>985.288</ele>
        <time>2020-08-29T11:49:06Z</time>
      </trkpt>
      <trkpt lat="40.115186" lon="-.773671">
        <ele>985.110</ele>
        <time>2020-08-29T11:49:08Z</time>
      </trkpt>
      <trkpt lat="40.115143" lon="-.773582">
        <ele>984.948</ele>
        <time>2020-08-29T11:49:10Z</time>
      </trkpt>
      <trkpt lat="40.115113" lon="-.773531">
        <ele>985.255</ele>
        <time>2020-08-29T11:49:11Z</time>
      </trkpt>
      <trkpt lat="40.115074" lon="-.773454">
        <ele>985.673</ele>
        <time>2020-08-29T11:49:13Z</time>
      </trkpt>
      <trkpt lat="40.115028" lon="-.773374">
        <ele>985.653</ele>
        <time>2020-08-29T11:49:15Z</time>
      </trkpt>
      <trkpt lat="40.114983" lon="-.773303">
        <ele>986.123</ele>
        <time>2020-08-29T11:49:17Z</time>
      </trkpt>
      <trkpt lat="40.114929" lon="-.773233">
        <ele>986.683</ele>
        <time>2020-08-29T11:49:19Z</time>
      </trkpt>
      <trkpt lat="40.11486" lon="-.77316">
        <ele>986.611</ele>
        <time>2020-08-29T11:49:21Z</time>
      </trkpt>
      <trkpt lat="40.114818" lon="-.773121">
        <ele>986.608</ele>
        <time>2020-08-29T11:49:22Z</time>
      </trkpt>
      <trkpt lat="40.11476" lon="-.77305">
        <ele>986.777</ele>
        <time>2020-08-29T11:49:24Z</time>
      </trkpt>
      <trkpt lat="40.114688" lon="-.772996">
        <ele>986.527</ele>
        <time>2020-08-29T11:49:26Z</time>
      </trkpt>
      <trkpt lat="40.114651" lon="-.77294">
        <ele>986.539</ele>
        <time>2020-08-29T11:49:27Z</time>
      </trkpt>
      <trkpt lat="40.114597" lon="-.772908">
        <ele>986.591</ele>
        <time>2020-08-29T11:49:28Z</time>
      </trkpt>
      <trkpt lat="40.114516" lon="-.772869">
        <ele>986.669</ele>
        <time>2020-08-29T11:49:30Z</time>
      </trkpt>
      <trkpt lat="40.114442" lon="-.772829">
        <ele>986.686</ele>
        <time>2020-08-29T11:49:32Z</time>
      </trkpt>
      <trkpt lat="40.114374" lon="-.772781">
        <ele>986.184</ele>
        <time>2020-08-29T11:49:34Z</time>
      </trkpt>
      <trkpt lat="40.1143" lon="-.772729">
        <ele>985.814</ele>
        <time>2020-08-29T11:49:36Z</time>
      </trkpt>
      <trkpt lat="40.114243" lon="-.7727">
        <ele>985.794</ele>
        <time>2020-08-29T11:49:37Z</time>
      </trkpt>
      <trkpt lat="40.114197" lon="-.77268">
        <ele>985.757</ele>
        <time>2020-08-29T11:49:38Z</time>
      </trkpt>
      <trkpt lat="40.114153" lon="-.772645">
        <ele>985.822</ele>
        <time>2020-08-29T11:49:39Z</time>
      </trkpt>
      <trkpt lat="40.114102" lon="-.77262">
        <ele>985.808</ele>
        <time>2020-08-29T11:49:40Z</time>
      </trkpt>
      <trkpt lat="40.114057" lon="-.772607">
        <ele>985.954</ele>
        <time>2020-08-29T11:49:41Z</time>
      </trkpt>
      <trkpt lat="40.114009" lon="-.772591">
        <ele>985.964</ele>
        <time>2020-08-29T11:49:42Z</time>
      </trkpt>
      <trkpt lat="40.113964" lon="-.772569">
        <ele>985.786</ele>
        <time>2020-08-29T11:49:43Z</time>
      </trkpt>
      <trkpt lat="40.113917" lon="-.772553">
        <ele>985.318</ele>
        <time>2020-08-29T11:49:44Z</time>
      </trkpt>
      <trkpt lat="40.113833" lon="-.772514">
        <ele>985.326</ele>
        <time>2020-08-29T11:49:46Z</time>
      </trkpt>
      <trkpt lat="40.113747" lon="-.772495">
        <ele>985.243</ele>
        <time>2020-08-29T11:49:48Z</time>
      </trkpt>
      <trkpt lat="40.113665" lon="-.772479">
        <ele>985.131</ele>
        <time>2020-08-29T11:49:50Z</time>
      </trkpt>
      <trkpt lat="40.113591" lon="-.772482">
        <ele>984.811</ele>
        <time>2020-08-29T11:49:52Z</time>
      </trkpt>
      <trkpt lat="40.113518" lon="-.772485">
        <ele>984.832</ele>
        <time>2020-08-29T11:49:54Z</time>
      </trkpt>
      <trkpt lat="40.113436" lon="-.772507">
        <ele>984.792</ele>
        <time>2020-08-29T11:49:56Z</time>
      </trkpt>
      <trkpt lat="40.113351" lon="-.77252">
        <ele>984.711</ele>
        <time>2020-08-29T11:49:58Z</time>
      </trkpt>
      <trkpt lat="40.113306" lon="-.772533">
        <ele>984.808</ele>
        <time>2020-08-29T11:49:59Z</time>
      </trkpt>
      <trkpt lat="40.113222" lon="-.772554">
        <ele>984.968</ele>
        <time>2020-08-29T11:50:01Z</time>
      </trkpt>
      <trkpt lat="40.113172" lon="-.772553">
        <ele>984.898</ele>
        <time>2020-08-29T11:50:02Z</time>
      </trkpt>
      <trkpt lat="40.113119" lon="-.772571">
        <ele>984.860</ele>
        <time>2020-08-29T11:50:03Z</time>
      </trkpt>
      <trkpt lat="40.113065" lon="-.772589">
        <ele>984.552</ele>
        <time>2020-08-29T11:50:04Z</time>
      </trkpt>
      <trkpt lat="40.113008" lon="-.772611">
        <ele>984.550</ele>
        <time>2020-08-29T11:50:05Z</time>
      </trkpt>
      <trkpt lat="40.112955" lon="-.772628">
        <ele>984.657</ele>
        <time>2020-08-29T11:50:06Z</time>
      </trkpt>
      <trkpt lat="40.112901" lon="-.772646">
        <ele>984.715</ele>
        <time>2020-08-29T11:50:07Z</time>
      </trkpt>
      <trkpt lat="40.112856" lon="-.772669">
        <ele>984.865</ele>
        <time>2020-08-29T11:50:08Z</time>
      </trkpt>
      <trkpt lat="40.112803" lon="-.772695">
        <ele>984.936</ele>
        <time>2020-08-29T11:50:09Z</time>
      </trkpt>
      <trkpt lat="40.112754" lon="-.772718">
        <ele>984.917</ele>
        <time>2020-08-29T11:50:10Z</time>
      </trkpt>
      <trkpt lat="40.112704" lon="-.772745">
        <ele>984.718</ele>
        <time>2020-08-29T11:50:11Z</time>
      </trkpt>
      <trkpt lat="40.112655" lon="-.772773">
        <ele>984.608</ele>
        <time>2020-08-29T11:50:12Z</time>
      </trkpt>
      <trkpt lat="40.112604" lon="-.772794">
        <ele>984.628</ele>
        <time>2020-08-29T11:50:13Z</time>
      </trkpt>
      <trkpt lat="40.112559" lon="-.772828">
        <ele>984.668</ele>
        <time>2020-08-29T11:50:14Z</time>
      </trkpt>
      <trkpt lat="40.112507" lon="-.772852">
        <ele>984.660</ele>
        <time>2020-08-29T11:50:15Z</time>
      </trkpt>
      <trkpt lat="40.112457" lon="-.772879">
        <ele>984.672</ele>
        <time>2020-08-29T11:50:16Z</time>
      </trkpt>
      <trkpt lat="40.112406" lon="-.772916">
        <ele>984.690</ele>
        <time>2020-08-29T11:50:17Z</time>
      </trkpt>
      <trkpt lat="40.112352" lon="-.772945">
        <ele>984.597</ele>
        <time>2020-08-29T11:50:18Z</time>
      </trkpt>
      <trkpt lat="40.112308" lon="-.772976">
        <ele>984.235</ele>
        <time>2020-08-29T11:50:19Z</time>
      </trkpt>
      <trkpt lat="40.112264" lon="-.773015">
        <ele>984.075</ele>
        <time>2020-08-29T11:50:20Z</time>
      </trkpt>
      <trkpt lat="40.112218" lon="-.773055">
        <ele>983.984</ele>
        <time>2020-08-29T11:50:21Z</time>
      </trkpt>
      <trkpt lat="40.112168" lon="-.773102">
        <ele>983.807</ele>
        <time>2020-08-29T11:50:22Z</time>
      </trkpt>
      <trkpt lat="40.112118" lon="-.773148">
        <ele>983.617</ele>
        <time>2020-08-29T11:50:23Z</time>
      </trkpt>
      <trkpt lat="40.112072" lon="-.773187">
        <ele>983.508</ele>
        <time>2020-08-29T11:50:24Z</time>
      </trkpt>
      <trkpt lat="40.112025" lon="-.77323">
        <ele>983.283</ele>
        <time>2020-08-29T11:50:25Z</time>
      </trkpt>
      <trkpt lat="40.111982" lon="-.773282">
        <ele>983.213</ele>
        <time>2020-08-29T11:50:26Z</time>
      </trkpt>
      <trkpt lat="40.11194" lon="-.773327">
        <ele>983.215</ele>
        <time>2020-08-29T11:50:27Z</time>
      </trkpt>
      <trkpt lat="40.111909" lon="-.773373">
        <ele>983.317</ele>
        <time>2020-08-29T11:50:28Z</time>
      </trkpt>
      <trkpt lat="40.11187" lon="-.773421">
        <ele>983.325</ele>
        <time>2020-08-29T11:50:29Z</time>
      </trkpt>
      <trkpt lat="40.111831" lon="-.773472">
        <ele>983.312</ele>
        <time>2020-08-29T11:50:30Z</time>
      </trkpt>
      <trkpt lat="40.111797" lon="-.773524">
        <ele>983.310</ele>
        <time>2020-08-29T11:50:31Z</time>
      </trkpt>
      <trkpt lat="40.111762" lon="-.773574">
        <ele>983.150</ele>
        <time>2020-08-29T11:50:32Z</time>
      </trkpt>
      <trkpt lat="40.11173" lon="-.773629">
        <ele>982.915</ele>
        <time>2020-08-29T11:50:33Z</time>
      </trkpt>
      <trkpt lat="40.111695" lon="-.773683">
        <ele>982.665</ele>
        <time>2020-08-29T11:50:34Z</time>
      </trkpt>
      <trkpt lat="40.111662" lon="-.773733">
        <ele>982.411</ele>
        <time>2020-08-29T11:50:35Z</time>
      </trkpt>
      <trkpt lat="40.111626" lon="-.773777">
        <ele>982.208</ele>
        <time>2020-08-29T11:50:36Z</time>
      </trkpt>
      <trkpt lat="40.111592" lon="-.773823">
        <ele>982.236</ele>
        <time>2020-08-29T11:50:37Z</time>
      </trkpt>
      <trkpt lat="40.111562" lon="-.773872">
        <ele>982.286</ele>
        <time>2020-08-29T11:50:38Z</time>
      </trkpt>
      <trkpt lat="40.111526" lon="-.773917">
        <ele>982.268</ele>
        <time>2020-08-29T11:50:39Z</time>
      </trkpt>
      <trkpt lat="40.111488" lon="-.773963">
        <ele>982.260</ele>
        <time>2020-08-29T11:50:40Z</time>
      </trkpt>
      <trkpt lat="40.111451" lon="-.774012">
        <ele>982.148</ele>
        <time>2020-08-29T11:50:41Z</time>
      </trkpt>
      <trkpt lat="40.111409" lon="-.774057">
        <ele>982.055</ele>
        <time>2020-08-29T11:50:42Z</time>
      </trkpt>
      <trkpt lat="40.111371" lon="-.774103">
        <ele>981.793</ele>
        <time>2020-08-29T11:50:43Z</time>
      </trkpt>
      <trkpt lat="40.111328" lon="-.774163">
        <ele>981.633</ele>
        <time>2020-08-29T11:50:44Z</time>
      </trkpt>
      <trkpt lat="40.111295" lon="-.774209">
        <ele>981.593</ele>
        <time>2020-08-29T11:50:45Z</time>
      </trkpt>
      <trkpt lat="40.111209" lon="-.774269">
        <ele>981.165</ele>
        <time>2020-08-29T11:50:47Z</time>
      </trkpt>
      <trkpt lat="40.111159" lon="-.7743">
        <ele>980.921</ele>
        <time>2020-08-29T11:50:48Z</time>
      </trkpt>
      <trkpt lat="40.111122" lon="-.774337">
        <ele>980.708</ele>
        <time>2020-08-29T11:50:49Z</time>
      </trkpt>
      <trkpt lat="40.111082" lon="-.774385">
        <ele>980.574</ele>
        <time>2020-08-29T11:50:50Z</time>
      </trkpt>
      <trkpt lat="40.111039" lon="-.774418">
        <ele>980.494</ele>
        <time>2020-08-29T11:50:51Z</time>
      </trkpt>
      <trkpt lat="40.110998" lon="-.774454">
        <ele>980.376</ele>
        <time>2020-08-29T11:50:52Z</time>
      </trkpt>
      <trkpt lat="40.110933" lon="-.774527">
        <ele>980.158</ele>
        <time>2020-08-29T11:50:54Z</time>
      </trkpt>
      <trkpt lat="40.110903" lon="-.774616">
        <ele>980.016</ele>
        <time>2020-08-29T11:50:56Z</time>
      </trkpt>
      <trkpt lat="40.110862" lon="-.774692">
        <ele>980.043</ele>
        <time>2020-08-29T11:50:58Z</time>
      </trkpt>
      <trkpt lat="40.11082" lon="-.774767">
        <ele>979.991</ele>
        <time>2020-08-29T11:51:00Z</time>
      </trkpt>
      <trkpt lat="40.110777" lon="-.774847">
        <ele>979.651</ele>
        <time>2020-08-29T11:51:02Z</time>
      </trkpt>
      <trkpt lat="40.110718" lon="-.774937">
        <ele>979.358</ele>
        <time>2020-08-29T11:51:05Z</time>
      </trkpt>
      <trkpt lat="40.107219" lon="-.775594">
        <ele>972.752</ele>
        <time>2020-08-29T11:54:54Z</time>
      </trkpt>
      <trkpt lat="40.107205" lon="-.775684">
        <ele>972.617</ele>
        <time>2020-08-29T11:54:55Z</time>
      </trkpt>
      <trkpt lat="40.107158" lon="-.775649">
        <ele>972.608</ele>
        <time>2020-08-29T11:54:56Z</time>
      </trkpt>
      <trkpt lat="40.107145" lon="-.775733">
        <ele>972.570</ele>
        <time>2020-08-29T11:54:59Z</time>
      </trkpt>
      <trkpt lat="40.107126" lon="-.775676">
        <ele>972.130</ele>
        <time>2020-08-29T11:58:02Z</time>
      </trkpt>
      <trkpt lat="40.107088" lon="-.775724">
        <ele>972.142</ele>
        <time>2020-08-29T11:59:43Z</time>
      </trkpt>
      <trkpt lat="40.107116" lon="-.775675">
        <ele>972.244</ele>
        <time>2020-08-29T11:59:58Z</time>
      </trkpt>
      <trkpt lat="40.107187" lon="-.775651">
        <ele>972.632</ele>
        <time>2020-08-29T12:01:01Z</time>
      </trkpt>
      <trkpt lat="40.107137" lon="-.775625">
        <ele>972.629</ele>
        <time>2020-08-29T12:06:25Z</time>
      </trkpt>
      <trkpt lat="40.107129" lon="-.775683">
        <ele>971.747</ele>
        <time>2020-08-29T12:08:39Z</time>
      </trkpt>
      <trkpt lat="40.107091" lon="-.775742">
        <ele>973.037</ele>
        <time>2020-08-29T12:10:14Z</time>
      </trkpt>
      <trkpt lat="40.107038" lon="-.775736">
        <ele>972.863</ele>
        <time>2020-08-29T12:10:17Z</time>
      </trkpt>
      <trkpt lat="40.106975" lon="-.775736">
        <ele>971.944</ele>
        <time>2020-08-29T12:10:20Z</time>
      </trkpt>
      <trkpt lat="40.106925" lon="-.775742">
        <ele>970.618</ele>
        <time>2020-08-29T12:10:22Z</time>
      </trkpt>
      <trkpt lat="40.106857" lon="-.775757">
        <ele>971.408</ele>
        <time>2020-08-29T12:10:24Z</time>
      </trkpt>
      <trkpt lat="40.106777" lon="-.775788">
        <ele>971.831</ele>
        <time>2020-08-29T12:10:26Z</time>
      </trkpt>
      <trkpt lat="40.1067" lon="-.775801">
        <ele>971.791</ele>
        <time>2020-08-29T12:10:28Z</time>
      </trkpt>
      <trkpt lat="40.106627" lon="-.775809">
        <ele>971.563</ele>
        <time>2020-08-29T12:10:30Z</time>
      </trkpt>
      <trkpt lat="40.106559" lon="-.77582">
        <ele>971.275</ele>
        <time>2020-08-29T12:10:32Z</time>
      </trkpt>
      <trkpt lat="40.106496" lon="-.775838">
        <ele>971.243</ele>
        <time>2020-08-29T12:10:34Z</time>
      </trkpt>
      <trkpt lat="40.106424" lon="-.775834">
        <ele>970.950</ele>
        <time>2020-08-29T12:10:37Z</time>
      </trkpt>
      <trkpt lat="40.106361" lon="-.775828">
        <ele>970.728</ele>
        <time>2020-08-29T12:10:41Z</time>
      </trkpt>
      <trkpt lat="40.10631" lon="-.775813">
        <ele>970.838</ele>
        <time>2020-08-29T12:10:43Z</time>
      </trkpt>
      <trkpt lat="40.10625" lon="-.775808">
        <ele>970.156</ele>
        <time>2020-08-29T12:10:45Z</time>
      </trkpt>
      <trkpt lat="40.106179" lon="-.775782">
        <ele>969.559</ele>
        <time>2020-08-29T12:10:47Z</time>
      </trkpt>
      <trkpt lat="40.106104" lon="-.775769">
        <ele>969.214</ele>
        <time>2020-08-29T12:10:49Z</time>
      </trkpt>
      <trkpt lat="40.106016" lon="-.775747">
        <ele>969.208</ele>
        <time>2020-08-29T12:10:51Z</time>
      </trkpt>
      <trkpt lat="40.105962" lon="-.775735">
        <ele>968.820</ele>
        <time>2020-08-29T12:10:52Z</time>
      </trkpt>
      <trkpt lat="40.105911" lon="-.775722">
        <ele>968.610</ele>
        <time>2020-08-29T12:10:53Z</time>
      </trkpt>
      <trkpt lat="40.105865" lon="-.775714">
        <ele>968.612</ele>
        <time>2020-08-29T12:10:54Z</time>
      </trkpt>
      <trkpt lat="40.105778" lon="-.775673">
        <ele>968.794</ele>
        <time>2020-08-29T12:10:56Z</time>
      </trkpt>
      <trkpt lat="40.105734" lon="-.775651">
        <ele>968.472</ele>
        <time>2020-08-29T12:10:57Z</time>
      </trkpt>
      <trkpt lat="40.105686" lon="-.775624">
        <ele>968.479</ele>
        <time>2020-08-29T12:10:58Z</time>
      </trkpt>
      <trkpt lat="40.105637" lon="-.775607">
        <ele>968.317</ele>
        <time>2020-08-29T12:10:59Z</time>
      </trkpt>
      <trkpt lat="40.10559" lon="-.775582">
        <ele>968.087</ele>
        <time>2020-08-29T12:11:00Z</time>
      </trkpt>
      <trkpt lat="40.105551" lon="-.775545">
        <ele>968.099</ele>
        <time>2020-08-29T12:11:01Z</time>
      </trkpt>
      <trkpt lat="40.105509" lon="-.775516">
        <ele>968.507</ele>
        <time>2020-08-29T12:11:02Z</time>
      </trkpt>
      <trkpt lat="40.105469" lon="-.775481">
        <ele>968.527</ele>
        <time>2020-08-29T12:11:03Z</time>
      </trkpt>
      <trkpt lat="40.105432" lon="-.775447">
        <ele>968.508</ele>
        <time>2020-08-29T12:11:04Z</time>
      </trkpt>
      <trkpt lat="40.105389" lon="-.77542">
        <ele>967.864</ele>
        <time>2020-08-29T12:11:05Z</time>
      </trkpt>
      <trkpt lat="40.10535" lon="-.77538">
        <ele>967.244</ele>
        <time>2020-08-29T12:11:06Z</time>
      </trkpt>
      <trkpt lat="40.105313" lon="-.775339">
        <ele>967.236</ele>
        <time>2020-08-29T12:11:07Z</time>
      </trkpt>
      <trkpt lat="40.105233" lon="-.775275">
        <ele>967.298</ele>
        <time>2020-08-29T12:11:09Z</time>
      </trkpt>
      <trkpt lat="40.105196" lon="-.775232">
        <ele>967.286</ele>
        <time>2020-08-29T12:11:10Z</time>
      </trkpt>
      <trkpt lat="40.105159" lon="-.775189">
        <ele>967.273</ele>
        <time>2020-08-29T12:11:11Z</time>
      </trkpt>
      <trkpt lat="40.105129" lon="-.775143">
        <ele>967.121</ele>
        <time>2020-08-29T12:11:12Z</time>
      </trkpt>
      <trkpt lat="40.105093" lon="-.77509">
        <ele>967.191</ele>
        <time>2020-08-29T12:11:13Z</time>
      </trkpt>
      <trkpt lat="40.105059" lon="-.775032">
        <ele>967.043</ele>
        <time>2020-08-29T12:11:14Z</time>
      </trkpt>
      <trkpt lat="40.105023" lon="-.774989">
        <ele>966.964</ele>
        <time>2020-08-29T12:11:15Z</time>
      </trkpt>
      <trkpt lat="40.104992" lon="-.77494">
        <ele>966.810</ele>
        <time>2020-08-29T12:11:16Z</time>
      </trkpt>
      <trkpt lat="40.104958" lon="-.774877">
        <ele>966.708</ele>
        <time>2020-08-29T12:11:17Z</time>
      </trkpt>
      <trkpt lat="40.10493" lon="-.774819">
        <ele>966.799</ele>
        <time>2020-08-29T12:11:18Z</time>
      </trkpt>
      <trkpt lat="40.104901" lon="-.774771">
        <ele>966.869</ele>
        <time>2020-08-29T12:11:19Z</time>
      </trkpt>
      <trkpt lat="40.104876" lon="-.774708">
        <ele>966.881</ele>
        <time>2020-08-29T12:11:20Z</time>
      </trkpt>
      <trkpt lat="40.104851" lon="-.77465">
        <ele>966.833</ele>
        <time>2020-08-29T12:11:21Z</time>
      </trkpt>
      <trkpt lat="40.10483" lon="-.774585">
        <ele>966.851</ele>
        <time>2020-08-29T12:11:22Z</time>
      </trkpt>
      <trkpt lat="40.104811" lon="-.774503">
        <ele>966.898</ele>
        <time>2020-08-29T12:11:23Z</time>
      </trkpt>
      <trkpt lat="40.104789" lon="-.774451">
        <ele>966.886</ele>
        <time>2020-08-29T12:11:24Z</time>
      </trkpt>
      <trkpt lat="40.104771" lon="-.774393">
        <ele>967.326</ele>
        <time>2020-08-29T12:11:25Z</time>
      </trkpt>
      <trkpt lat="40.104752" lon="-.774325">
        <ele>967.238</ele>
        <time>2020-08-29T12:11:26Z</time>
      </trkpt>
      <trkpt lat="40.10472" lon="-.774201">
        <ele>966.970</ele>
        <time>2020-08-29T12:11:28Z</time>
      </trkpt>
      <trkpt lat="40.104706" lon="-.774136">
        <ele>966.617</ele>
        <time>2020-08-29T12:11:29Z</time>
      </trkpt>
      <trkpt lat="40.10467" lon="-.774043">
        <ele>966.308</ele>
        <time>2020-08-29T12:11:31Z</time>
      </trkpt>
      <trkpt lat="40.104658" lon="-.773971">
        <ele>965.878</ele>
        <time>2020-08-29T12:11:32Z</time>
      </trkpt>
      <trkpt lat="40.104662" lon="-.773894">
        <ele>966.438</ele>
        <time>2020-08-29T12:11:34Z</time>
      </trkpt>
      <trkpt lat="40.10465" lon="-.773835">
        <ele>966.810</ele>
        <time>2020-08-29T12:11:35Z</time>
      </trkpt>
      <trkpt lat="40.104634" lon="-.773773">
        <ele>966.822</ele>
        <time>2020-08-29T12:11:36Z</time>
      </trkpt>
      <trkpt lat="40.104611" lon="-.773649">
        <ele>966.950</ele>
        <time>2020-08-29T12:11:38Z</time>
      </trkpt>
      <trkpt lat="40.104587" lon="-.773543">
        <ele>966.467</ele>
        <time>2020-08-29T12:11:40Z</time>
      </trkpt>
      <trkpt lat="40.104565" lon="-.773441">
        <ele>966.455</ele>
        <time>2020-08-29T12:11:42Z</time>
      </trkpt>
      <trkpt lat="40.10454" lon="-.773383">
        <ele>966.375</ele>
        <time>2020-08-29T12:11:43Z</time>
      </trkpt>
      <trkpt lat="40.104523" lon="-.773318">
        <ele>966.339</ele>
        <time>2020-08-29T12:11:44Z</time>
      </trkpt>
      <trkpt lat="40.1045" lon="-.773215">
        <ele>966.401</ele>
        <time>2020-08-29T12:11:46Z</time>
      </trkpt>
      <trkpt lat="40.10446" lon="-.773111">
        <ele>966.521</ele>
        <time>2020-08-29T12:11:48Z</time>
      </trkpt>
      <trkpt lat="40.104436" lon="-.773015">
        <ele>965.708</ele>
        <time>2020-08-29T12:11:50Z</time>
      </trkpt>
      <trkpt lat="40.104407" lon="-.772902">
        <ele>966.868</ele>
        <time>2020-08-29T12:11:52Z</time>
      </trkpt>
      <trkpt lat="40.104378" lon="-.772797">
        <ele>967.278</ele>
        <time>2020-08-29T12:11:54Z</time>
      </trkpt>
      <trkpt lat="40.10435" lon="-.772735">
        <ele>967.210</ele>
        <time>2020-08-29T12:11:55Z</time>
      </trkpt>
      <trkpt lat="40.104332" lon="-.772674">
        <ele>966.822</ele>
        <time>2020-08-29T12:11:56Z</time>
      </trkpt>
      <trkpt lat="40.104315" lon="-.772568">
        <ele>966.130</ele>
        <time>2020-08-29T12:11:58Z</time>
      </trkpt>
      <trkpt lat="40.104288" lon="-.772479">
        <ele>965.847</ele>
        <time>2020-08-29T12:12:00Z</time>
      </trkpt>
      <trkpt lat="40.104284" lon="-.772382">
        <ele>965.795</ele>
        <time>2020-08-29T12:12:02Z</time>
      </trkpt>
      <trkpt lat="40.104297" lon="-.772275">
        <ele>965.085</ele>
        <time>2020-08-29T12:12:04Z</time>
      </trkpt>
      <trkpt lat="40.10429" lon="-.772216">
        <ele>965.239</ele>
        <time>2020-08-29T12:12:05Z</time>
      </trkpt>
      <trkpt lat="40.104284" lon="-.772127">
        <ele>965.201</ele>
        <time>2020-08-29T12:12:07Z</time>
      </trkpt>
      <trkpt lat="40.104297" lon="-.772024">
        <ele>964.421</ele>
        <time>2020-08-29T12:12:09Z</time>
      </trkpt>
      <trkpt lat="40.104285" lon="-.771939">
        <ele>965.308</ele>
        <time>2020-08-29T12:12:11Z</time>
      </trkpt>
      <trkpt lat="40.104297" lon="-.77184">
        <ele>966.028</ele>
        <time>2020-08-29T12:12:13Z</time>
      </trkpt>
      <trkpt lat="40.104306" lon="-.771757">
        <ele>966.028</ele>
        <time>2020-08-29T12:12:15Z</time>
      </trkpt>
      <trkpt lat="40.104312" lon="-.771696">
        <ele>966.040</ele>
        <time>2020-08-29T12:12:17Z</time>
      </trkpt>
      <trkpt lat="40.10433" lon="-.771641">
        <ele>966.042</ele>
        <time>2020-08-29T12:12:18Z</time>
      </trkpt>
      <trkpt lat="40.104352" lon="-.771556">
        <ele>966.060</ele>
        <time>2020-08-29T12:12:20Z</time>
      </trkpt>
      <trkpt lat="40.104382" lon="-.771425">
        <ele>965.957</ele>
        <time>2020-08-29T12:12:22Z</time>
      </trkpt>
      <trkpt lat="40.104418" lon="-.771312">
        <ele>966.475</ele>
        <time>2020-08-29T12:12:24Z</time>
      </trkpt>
      <trkpt lat="40.104442" lon="-.771253">
        <ele>966.945</ele>
        <time>2020-08-29T12:12:25Z</time>
      </trkpt>
      <trkpt lat="40.104463" lon="-.77119">
        <ele>967.531</ele>
        <time>2020-08-29T12:12:26Z</time>
      </trkpt>
      <trkpt lat="40.104496" lon="-.7711">
        <ele>966.661</ele>
        <time>2020-08-29T12:12:28Z</time>
      </trkpt>
      <trkpt lat="40.104532" lon="-.771016">
        <ele>966.407</ele>
        <time>2020-08-29T12:12:30Z</time>
      </trkpt>
      <trkpt lat="40.104571" lon="-.770936">
        <ele>967.008</ele>
        <time>2020-08-29T12:12:32Z</time>
      </trkpt>
      <trkpt lat="40.104618" lon="-.770845">
        <ele>967.138</ele>
        <time>2020-08-29T12:12:34Z</time>
      </trkpt>
      <trkpt lat="40.104658" lon="-.770768">
        <ele>967.328</ele>
        <time>2020-08-29T12:12:36Z</time>
      </trkpt>
      <trkpt lat="40.104703" lon="-.770689">
        <ele>967.570</ele>
        <time>2020-08-29T12:12:38Z</time>
      </trkpt>
      <trkpt lat="40.104747" lon="-.770623">
        <ele>967.662</ele>
        <time>2020-08-29T12:12:40Z</time>
      </trkpt>
      <trkpt lat="40.104803" lon="-.770579">
        <ele>967.270</ele>
        <time>2020-08-29T12:12:42Z</time>
      </trkpt>
      <trkpt lat="40.104849" lon="-.770505">
        <ele>967.787</ele>
        <time>2020-08-29T12:12:44Z</time>
      </trkpt>
      <trkpt lat="40.104878" lon="-.770409">
        <ele>968.685</ele>
        <time>2020-08-29T12:12:46Z</time>
      </trkpt>
      <trkpt lat="40.104918" lon="-.770344">
        <ele>967.615</ele>
        <time>2020-08-29T12:12:48Z</time>
      </trkpt>
      <trkpt lat="40.104947" lon="-.770278">
        <ele>967.112</ele>
        <time>2020-08-29T12:12:50Z</time>
      </trkpt>
      <trkpt lat="40.104972" lon="-.770203">
        <ele>968.532</ele>
        <time>2020-08-29T12:12:52Z</time>
      </trkpt>
      <trkpt lat="40.104996" lon="-.770145">
        <ele>968.905</ele>
        <time>2020-08-29T12:12:54Z</time>
      </trkpt>
      <trkpt lat="40.105052" lon="-.770076">
        <ele>969.008</ele>
        <time>2020-08-29T12:12:56Z</time>
      </trkpt>
      <trkpt lat="40.105074" lon="-.769984">
        <ele>969.046</ele>
        <time>2020-08-29T12:12:58Z</time>
      </trkpt>
      <trkpt lat="40.105106" lon="-.769921">
        <ele>969.536</ele>
        <time>2020-08-29T12:13:00Z</time>
      </trkpt>
      <trkpt lat="40.105125" lon="-.769853">
        <ele>969.588</ele>
        <time>2020-08-29T12:13:02Z</time>
      </trkpt>
      <trkpt lat="40.105147" lon="-.769759">
        <ele>969.620</ele>
        <time>2020-08-29T12:13:04Z</time>
      </trkpt>
      <trkpt lat="40.105187" lon="-.769682">
        <ele>969.538</ele>
        <time>2020-08-29T12:13:06Z</time>
      </trkpt>
      <trkpt lat="40.105202" lon="-.769608">
        <ele>969.075</ele>
        <time>2020-08-29T12:13:08Z</time>
      </trkpt>
      <trkpt lat="40.105198" lon="-.769537">
        <ele>968.853</ele>
        <time>2020-08-29T12:13:09Z</time>
      </trkpt>
      <trkpt lat="40.105217" lon="-.769433">
        <ele>968.653</ele>
        <time>2020-08-29T12:13:10Z</time>
      </trkpt>
      <trkpt lat="40.105228" lon="-.769374">
        <ele>968.468</ele>
        <time>2020-08-29T12:13:11Z</time>
      </trkpt>
      <trkpt lat="40.105259" lon="-.76926">
        <ele>967.642</ele>
        <time>2020-08-29T12:13:13Z</time>
      </trkpt>
      <trkpt lat="40.105294" lon="-.769154">
        <ele>967.526</ele>
        <time>2020-08-29T12:13:15Z</time>
      </trkpt>
      <trkpt lat="40.105307" lon="-.769086">
        <ele>967.408</ele>
        <time>2020-08-29T12:13:16Z</time>
      </trkpt>
      <trkpt lat="40.105331" lon="-.769017">
        <ele>967.481</ele>
        <time>2020-08-29T12:13:17Z</time>
      </trkpt>
      <trkpt lat="40.105347" lon="-.768946">
        <ele>967.981</ele>
        <time>2020-08-29T12:13:18Z</time>
      </trkpt>
      <trkpt lat="40.105373" lon="-.768863">
        <ele>968.033</ele>
        <time>2020-08-29T12:13:19Z</time>
      </trkpt>
      <trkpt lat="40.105387" lon="-.768793">
        <ele>968.235</ele>
        <time>2020-08-29T12:13:20Z</time>
      </trkpt>
      <trkpt lat="40.1054" lon="-.768716">
        <ele>968.363</ele>
        <time>2020-08-29T12:13:21Z</time>
      </trkpt>
      <trkpt lat="40.105414" lon="-.768648">
        <ele>968.640</ele>
        <time>2020-08-29T12:13:22Z</time>
      </trkpt>
      <trkpt lat="40.105438" lon="-.768582">
        <ele>968.898</ele>
        <time>2020-08-29T12:13:23Z</time>
      </trkpt>
      <trkpt lat="40.10545" lon="-.768524">
        <ele>969.158</ele>
        <time>2020-08-29T12:13:24Z</time>
      </trkpt>
      <trkpt lat="40.105472" lon="-.768445">
        <ele>969.497</ele>
        <time>2020-08-29T12:13:25Z</time>
      </trkpt>
      <trkpt lat="40.105477" lon="-.768382">
        <ele>969.423</ele>
        <time>2020-08-29T12:13:26Z</time>
      </trkpt>
      <trkpt lat="40.105487" lon="-.768314">
        <ele>969.125</ele>
        <time>2020-08-29T12:13:27Z</time>
      </trkpt>
      <trkpt lat="40.105498" lon="-.768238">
        <ele>968.908</ele>
        <time>2020-08-29T12:13:28Z</time>
      </trkpt>
      <trkpt lat="40.105513" lon="-.768176">
        <ele>968.784</ele>
        <time>2020-08-29T12:13:29Z</time>
      </trkpt>
      <trkpt lat="40.105527" lon="-.768115">
        <ele>968.574</ele>
        <time>2020-08-29T12:13:30Z</time>
      </trkpt>
      <trkpt lat="40.105548" lon="-.768048">
        <ele>968.286</ele>
        <time>2020-08-29T12:13:31Z</time>
      </trkpt>
      <trkpt lat="40.105573" lon="-.767992">
        <ele>967.918</ele>
        <time>2020-08-29T12:13:32Z</time>
      </trkpt>
      <trkpt lat="40.105591" lon="-.767877">
        <ele>968.166</ele>
        <time>2020-08-29T12:13:34Z</time>
      </trkpt>
      <trkpt lat="40.105609" lon="-.767815">
        <ele>968.473</ele>
        <time>2020-08-29T12:13:35Z</time>
      </trkpt>
      <trkpt lat="40.105628" lon="-.767749">
        <ele>968.411</ele>
        <time>2020-08-29T12:13:36Z</time>
      </trkpt>
      <trkpt lat="40.105652" lon="-.767683">
        <ele>968.771</ele>
        <time>2020-08-29T12:13:37Z</time>
      </trkpt>
      <trkpt lat="40.105665" lon="-.767617">
        <ele>969.321</ele>
        <time>2020-08-29T12:13:38Z</time>
      </trkpt>
      <trkpt lat="40.105686" lon="-.76755">
        <ele>969.341</ele>
        <time>2020-08-29T12:13:39Z</time>
      </trkpt>
      <trkpt lat="40.105701" lon="-.767494">
        <ele>968.905</ele>
        <time>2020-08-29T12:13:40Z</time>
      </trkpt>
      <trkpt lat="40.105718" lon="-.767429">
        <ele>968.908</ele>
        <time>2020-08-29T12:13:41Z</time>
      </trkpt>
      <trkpt lat="40.105738" lon="-.767376">
        <ele>968.737</ele>
        <time>2020-08-29T12:13:42Z</time>
      </trkpt>
      <trkpt lat="40.105749" lon="-.767316">
        <ele>968.727</ele>
        <time>2020-08-29T12:13:43Z</time>
      </trkpt>
      <trkpt lat="40.105774" lon="-.767252">
        <ele>968.389</ele>
        <time>2020-08-29T12:13:44Z</time>
      </trkpt>
      <trkpt lat="40.105802" lon="-.767189">
        <ele>968.261</ele>
        <time>2020-08-29T12:13:45Z</time>
      </trkpt>
      <trkpt lat="40.105826" lon="-.767123">
        <ele>968.489</ele>
        <time>2020-08-29T12:13:46Z</time>
      </trkpt>
      <trkpt lat="40.10587" lon="-.767029">
        <ele>968.736</ele>
        <time>2020-08-29T12:13:48Z</time>
      </trkpt>
      <trkpt lat="40.105932" lon="-.76693">
        <ele>969.154</ele>
        <time>2020-08-29T12:13:50Z</time>
      </trkpt>
      <trkpt lat="40.105989" lon="-.766852">
        <ele>970.034</ele>
        <time>2020-08-29T12:13:52Z</time>
      </trkpt>
      <trkpt lat="40.106033" lon="-.766824">
        <ele>970.144</ele>
        <time>2020-08-29T12:13:53Z</time>
      </trkpt>
      <trkpt lat="40.106073" lon="-.76679">
        <ele>970.005</ele>
        <time>2020-08-29T12:13:54Z</time>
      </trkpt>
      <trkpt lat="40.106128" lon="-.766726">
        <ele>969.715</ele>
        <time>2020-08-29T12:13:56Z</time>
      </trkpt>
      <trkpt lat="40.106208" lon="-.766644">
        <ele>969.408</ele>
        <time>2020-08-29T12:13:58Z</time>
      </trkpt>
      <trkpt lat="40.106219" lon="-.766584">
        <ele>969.449</ele>
        <time>2020-08-29T12:13:59Z</time>
      </trkpt>
      <trkpt lat="40.106246" lon="-.766527">
        <ele>969.349</ele>
        <time>2020-08-29T12:14:00Z</time>
      </trkpt>
      <trkpt lat="40.10628" lon="-.766486">
        <ele>969.321</ele>
        <time>2020-08-29T12:14:01Z</time>
      </trkpt>
      <trkpt lat="40.106351" lon="-.766406">
        <ele>969.113</ele>
        <time>2020-08-29T12:14:03Z</time>
      </trkpt>
      <trkpt lat="40.106392" lon="-.766371">
        <ele>969.151</ele>
        <time>2020-08-29T12:14:04Z</time>
      </trkpt>
      <trkpt lat="40.106434" lon="-.766346">
        <ele>969.168</ele>
        <time>2020-08-29T12:14:05Z</time>
      </trkpt>
      <trkpt lat="40.10651" lon="-.766262">
        <ele>969.996</ele>
        <time>2020-08-29T12:14:07Z</time>
      </trkpt>
      <trkpt lat="40.106589" lon="-.766199">
        <ele>970.196</ele>
        <time>2020-08-29T12:14:09Z</time>
      </trkpt>
      <trkpt lat="40.106635" lon="-.766169">
        <ele>970.223</ele>
        <time>2020-08-29T12:14:10Z</time>
      </trkpt>
      <trkpt lat="40.106676" lon="-.766143">
        <ele>969.983</ele>
        <time>2020-08-29T12:14:11Z</time>
      </trkpt>
      <trkpt lat="40.106727" lon="-.766109">
        <ele>969.911</ele>
        <time>2020-08-29T12:14:12Z</time>
      </trkpt>
      <trkpt lat="40.106811" lon="-.766067">
        <ele>969.308</ele>
        <time>2020-08-29T12:14:14Z</time>
      </trkpt>
      <trkpt lat="40.106887" lon="-.76604">
        <ele>969.077</ele>
        <time>2020-08-29T12:14:16Z</time>
      </trkpt>
      <trkpt lat="40.106943" lon="-.766008">
        <ele>969.047</ele>
        <time>2020-08-29T12:14:18Z</time>
      </trkpt>
      <trkpt lat="40.107029" lon="-.76595">
        <ele>969.439</ele>
        <time>2020-08-29T12:14:20Z</time>
      </trkpt>
      <trkpt lat="40.107075" lon="-.765928">
        <ele>970.891</ele>
        <time>2020-08-29T12:14:21Z</time>
      </trkpt>
      <trkpt lat="40.107098" lon="-.765874">
        <ele>970.999</ele>
        <time>2020-08-29T12:14:22Z</time>
      </trkpt>
      <trkpt lat="40.107154" lon="-.765864">
        <ele>970.966</ele>
        <time>2020-08-29T12:14:23Z</time>
      </trkpt>
      <trkpt lat="40.107202" lon="-.765855">
        <ele>970.914</ele>
        <time>2020-08-29T12:14:24Z</time>
      </trkpt>
      <trkpt lat="40.107237" lon="-.765817">
        <ele>970.724</ele>
        <time>2020-08-29T12:14:25Z</time>
      </trkpt>
      <trkpt lat="40.10728" lon="-.765795">
        <ele>970.282</ele>
        <time>2020-08-29T12:14:26Z</time>
      </trkpt>
      <trkpt lat="40.107366" lon="-.765745">
        <ele>970.143</ele>
        <time>2020-08-29T12:14:28Z</time>
      </trkpt>
      <trkpt lat="40.107401" lon="-.765704">
        <ele>970.217</ele>
        <time>2020-08-29T12:14:29Z</time>
      </trkpt>
      <trkpt lat="40.10744" lon="-.765655">
        <ele>970.908</ele>
        <time>2020-08-29T12:14:30Z</time>
      </trkpt>
      <trkpt lat="40.107458" lon="-.76559">
        <ele>971.233</ele>
        <time>2020-08-29T12:14:31Z</time>
      </trkpt>
      <trkpt lat="40.1075" lon="-.765552">
        <ele>971.273</ele>
        <time>2020-08-29T12:14:32Z</time>
      </trkpt>
      <trkpt lat="40.107539" lon="-.765496">
        <ele>971.235</ele>
        <time>2020-08-29T12:14:33Z</time>
      </trkpt>
      <trkpt lat="40.107584" lon="-.76545">
        <ele>970.997</ele>
        <time>2020-08-29T12:14:34Z</time>
      </trkpt>
      <trkpt lat="40.107619" lon="-.765412">
        <ele>970.955</ele>
        <time>2020-08-29T12:14:35Z</time>
      </trkpt>
      <trkpt lat="40.107679" lon="-.765303">
        <ele>970.972</ele>
        <time>2020-08-29T12:14:37Z</time>
      </trkpt>
      <trkpt lat="40.107712" lon="-.765211">
        <ele>970.190</ele>
        <time>2020-08-29T12:14:39Z</time>
      </trkpt>
      <trkpt lat="40.107782" lon="-.765129">
        <ele>970.430</ele>
        <time>2020-08-29T12:14:41Z</time>
      </trkpt>
      <trkpt lat="40.107811" lon="-.765084">
        <ele>970.429</ele>
        <time>2020-08-29T12:14:42Z</time>
      </trkpt>
      <trkpt lat="40.107844" lon="-.765032">
        <ele>971.400</ele>
        <time>2020-08-29T12:14:43Z</time>
      </trkpt>
      <trkpt lat="40.107877" lon="-.764986">
        <ele>971.420</ele>
        <time>2020-08-29T12:14:44Z</time>
      </trkpt>
      <trkpt lat="40.107928" lon="-.764902">
        <ele>970.808</ele>
        <time>2020-08-29T12:14:46Z</time>
      </trkpt>
      <trkpt lat="40.10797" lon="-.764798">
        <ele>970.497</ele>
        <time>2020-08-29T12:14:48Z</time>
      </trkpt>
      <trkpt lat="40.10801" lon="-.764712">
        <ele>970.517</ele>
        <time>2020-08-29T12:14:50Z</time>
      </trkpt>
      <trkpt lat="40.108023" lon="-.764654">
        <ele>970.669</ele>
        <time>2020-08-29T12:14:51Z</time>
      </trkpt>
      <trkpt lat="40.108049" lon="-.7646">
        <ele>970.781</ele>
        <time>2020-08-29T12:14:52Z</time>
      </trkpt>
      <trkpt lat="40.108081" lon="-.764499">
        <ele>971.339</ele>
        <time>2020-08-29T12:14:54Z</time>
      </trkpt>
      <trkpt lat="40.108107" lon="-.764394">
        <ele>971.536</ele>
        <time>2020-08-29T12:14:56Z</time>
      </trkpt>
      <trkpt lat="40.108128" lon="-.764289">
        <ele>971.374</ele>
        <time>2020-08-29T12:14:58Z</time>
      </trkpt>
      <trkpt lat="40.108147" lon="-.764181">
        <ele>970.674</ele>
        <time>2020-08-29T12:15:00Z</time>
      </trkpt>
      <trkpt lat="40.108153" lon="-.764123">
        <ele>970.493</ele>
        <time>2020-08-29T12:15:01Z</time>
      </trkpt>
      <trkpt lat="40.108173" lon="-.764018">
        <ele>970.765</ele>
        <time>2020-08-29T12:15:03Z</time>
      </trkpt>
      <trkpt lat="40.108183" lon="-.763952">
        <ele>970.921</ele>
        <time>2020-08-29T12:15:04Z</time>
      </trkpt>
      <trkpt lat="40.108187" lon="-.763892">
        <ele>971.608</ele>
        <time>2020-08-29T12:15:05Z</time>
      </trkpt>
      <trkpt lat="40.108196" lon="-.763831">
        <ele>972.084</ele>
        <time>2020-08-29T12:15:06Z</time>
      </trkpt>
      <trkpt lat="40.108193" lon="-.763711">
        <ele>971.484</ele>
        <time>2020-08-29T12:15:08Z</time>
      </trkpt>
      <trkpt lat="40.108198" lon="-.763596">
        <ele>971.586</ele>
        <time>2020-08-29T12:15:10Z</time>
      </trkpt>
      <trkpt lat="40.108201" lon="-.763536">
        <ele>971.618</ele>
        <time>2020-08-29T12:15:11Z</time>
      </trkpt>
      <trkpt lat="40.1082" lon="-.763477">
        <ele>971.746</ele>
        <time>2020-08-29T12:15:12Z</time>
      </trkpt>
      <trkpt lat="40.108202" lon="-.763413">
        <ele>972.163</ele>
        <time>2020-08-29T12:15:13Z</time>
      </trkpt>
      <trkpt lat="40.108191" lon="-.763289">
        <ele>972.281</ele>
        <time>2020-08-29T12:15:15Z</time>
      </trkpt>
      <trkpt lat="40.108194" lon="-.76323">
        <ele>971.431</ele>
        <time>2020-08-29T12:15:16Z</time>
      </trkpt>
      <trkpt lat="40.108186" lon="-.763118">
        <ele>971.014</ele>
        <time>2020-08-29T12:15:18Z</time>
      </trkpt>
      <trkpt lat="40.108174" lon="-.762997">
        <ele>971.354</ele>
        <time>2020-08-29T12:15:20Z</time>
      </trkpt>
      <trkpt lat="40.108168" lon="-.762932">
        <ele>972.009</ele>
        <time>2020-08-29T12:15:21Z</time>
      </trkpt>
      <trkpt lat="40.108169" lon="-.762873">
        <ele>972.108</ele>
        <time>2020-08-29T12:15:22Z</time>
      </trkpt>
      <trkpt lat="40.108167" lon="-.762807">
        <ele>972.126</ele>
        <time>2020-08-29T12:15:23Z</time>
      </trkpt>
      <trkpt lat="40.108175" lon="-.762749">
        <ele>971.676</ele>
        <time>2020-08-29T12:15:24Z</time>
      </trkpt>
      <trkpt lat="40.10817" lon="-.762677">
        <ele>971.528</ele>
        <time>2020-08-29T12:15:25Z</time>
      </trkpt>
      <trkpt lat="40.10817" lon="-.762568">
        <ele>971.250</ele>
        <time>2020-08-29T12:15:27Z</time>
      </trkpt>
      <trkpt lat="40.108179" lon="-.762448">
        <ele>971.298</ele>
        <time>2020-08-29T12:15:29Z</time>
      </trkpt>
      <trkpt lat="40.108166" lon="-.762381">
        <ele>971.285</ele>
        <time>2020-08-29T12:15:30Z</time>
      </trkpt>
      <trkpt lat="40.108165" lon="-.76226">
        <ele>971.423</ele>
        <time>2020-08-29T12:15:32Z</time>
      </trkpt>
      <trkpt lat="40.108158" lon="-.762195">
        <ele>971.583</ele>
        <time>2020-08-29T12:15:33Z</time>
      </trkpt>
      <trkpt lat="40.108161" lon="-.762081">
        <ele>972.079</ele>
        <time>2020-08-29T12:15:35Z</time>
      </trkpt>
      <trkpt lat="40.108154" lon="-.76197">
        <ele>971.605</ele>
        <time>2020-08-29T12:15:37Z</time>
      </trkpt>
      <trkpt lat="40.108158" lon="-.761849">
        <ele>971.125</ele>
        <time>2020-08-29T12:15:39Z</time>
      </trkpt>
      <trkpt lat="40.108159" lon="-.761789">
        <ele>971.408</ele>
        <time>2020-08-29T12:15:40Z</time>
      </trkpt>
      <trkpt lat="40.108157" lon="-.761685">
        <ele>971.752</ele>
        <time>2020-08-29T12:15:42Z</time>
      </trkpt>
      <trkpt lat="40.108158" lon="-.761624">
        <ele>972.032</ele>
        <time>2020-08-29T12:15:43Z</time>
      </trkpt>
      <trkpt lat="40.108158" lon="-.761563">
        <ele>972.454</ele>
        <time>2020-08-29T12:15:44Z</time>
      </trkpt>
      <trkpt lat="40.10815" lon="-.761438">
        <ele>971.326</ele>
        <time>2020-08-29T12:15:46Z</time>
      </trkpt>
      <trkpt lat="40.108152" lon="-.76132">
        <ele>972.014</ele>
        <time>2020-08-29T12:15:48Z</time>
      </trkpt>
      <trkpt lat="40.108154" lon="-.761259">
        <ele>972.261</ele>
        <time>2020-08-29T12:15:49Z</time>
      </trkpt>
      <trkpt lat="40.108159" lon="-.761146">
        <ele>972.729</ele>
        <time>2020-08-29T12:15:51Z</time>
      </trkpt>
      <trkpt lat="40.108152" lon="-.761084">
        <ele>972.749</ele>
        <time>2020-08-29T12:15:52Z</time>
      </trkpt>
      <trkpt lat="40.108154" lon="-.761018">
        <ele>972.146</ele>
        <time>2020-08-29T12:15:53Z</time>
      </trkpt>
      <trkpt lat="40.108155" lon="-.760953">
        <ele>972.188</ele>
        <time>2020-08-29T12:15:54Z</time>
      </trkpt>
      <trkpt lat="40.108156" lon="-.760891">
        <ele>972.316</ele>
        <time>2020-08-29T12:15:55Z</time>
      </trkpt>
      <trkpt lat="40.108169" lon="-.760776">
        <ele>972.508</ele>
        <time>2020-08-29T12:15:57Z</time>
      </trkpt>
      <trkpt lat="40.108187" lon="-.760672">
        <ele>973.179</ele>
        <time>2020-08-29T12:15:59Z</time>
      </trkpt>
      <trkpt lat="40.108189" lon="-.760611">
        <ele>973.129</ele>
        <time>2020-08-29T12:16:00Z</time>
      </trkpt>
      <trkpt lat="40.108192" lon="-.760549">
        <ele>972.941</ele>
        <time>2020-08-29T12:16:01Z</time>
      </trkpt>
      <trkpt lat="40.108208" lon="-.760487">
        <ele>972.653</ele>
        <time>2020-08-29T12:16:02Z</time>
      </trkpt>
      <trkpt lat="40.108232" lon="-.760369">
        <ele>972.931</ele>
        <time>2020-08-29T12:16:04Z</time>
      </trkpt>
      <trkpt lat="40.108246" lon="-.760312">
        <ele>973.198</ele>
        <time>2020-08-29T12:16:05Z</time>
      </trkpt>
      <trkpt lat="40.108275" lon="-.760211">
        <ele>973.856</ele>
        <time>2020-08-29T12:16:07Z</time>
      </trkpt>
      <trkpt lat="40.108293" lon="-.760152">
        <ele>973.846</ele>
        <time>2020-08-29T12:16:08Z</time>
      </trkpt>
      <trkpt lat="40.108312" lon="-.760096">
        <ele>973.889</ele>
        <time>2020-08-29T12:16:09Z</time>
      </trkpt>
      <trkpt lat="40.10835" lon="-.760005">
        <ele>973.406</ele>
        <time>2020-08-29T12:16:11Z</time>
      </trkpt>
      <trkpt lat="40.108392" lon="-.759912">
        <ele>972.826</ele>
        <time>2020-08-29T12:16:13Z</time>
      </trkpt>
      <trkpt lat="40.108417" lon="-.759861">
        <ele>972.508</ele>
        <time>2020-08-29T12:16:14Z</time>
      </trkpt>
      <trkpt lat="40.10847" lon="-.759765">
        <ele>972.763</ele>
        <time>2020-08-29T12:16:16Z</time>
      </trkpt>
      <trkpt lat="40.108521" lon="-.759673">
        <ele>973.263</ele>
        <time>2020-08-29T12:16:18Z</time>
      </trkpt>
      <trkpt lat="40.108577" lon="-.759603">
        <ele>974.035</ele>
        <time>2020-08-29T12:16:20Z</time>
      </trkpt>
      <trkpt lat="40.108603" lon="-.759555">
        <ele>974.137</ele>
        <time>2020-08-29T12:16:21Z</time>
      </trkpt>
      <trkpt lat="40.108666" lon="-.759482">
        <ele>972.925</ele>
        <time>2020-08-29T12:16:23Z</time>
      </trkpt>
      <trkpt lat="40.108717" lon="-.759401">
        <ele>972.842</ele>
        <time>2020-08-29T12:16:25Z</time>
      </trkpt>
      <trkpt lat="40.108748" lon="-.759357">
        <ele>973.320</ele>
        <time>2020-08-29T12:16:26Z</time>
      </trkpt>
      <trkpt lat="40.108781" lon="-.759311">
        <ele>973.550</ele>
        <time>2020-08-29T12:16:27Z</time>
      </trkpt>
      <trkpt lat="40.108851" lon="-.75921">
        <ele>974.053</ele>
        <time>2020-08-29T12:16:29Z</time>
      </trkpt>
      <trkpt lat="40.108914" lon="-.759135">
        <ele>973.904</ele>
        <time>2020-08-29T12:16:31Z</time>
      </trkpt>
      <trkpt lat="40.108952" lon="-.75909">
        <ele>973.914</ele>
        <time>2020-08-29T12:16:32Z</time>
      </trkpt>
      <trkpt lat="40.109013" lon="-.759004">
        <ele>974.308</ele>
        <time>2020-08-29T12:16:34Z</time>
      </trkpt>
      <trkpt lat="40.109056" lon="-.758966">
        <ele>974.460</ele>
        <time>2020-08-29T12:16:35Z</time>
      </trkpt>
      <trkpt lat="40.10912" lon="-.758892">
        <ele>974.920</ele>
        <time>2020-08-29T12:16:37Z</time>
      </trkpt>
      <trkpt lat="40.109163" lon="-.758857">
        <ele>974.832</ele>
        <time>2020-08-29T12:16:38Z</time>
      </trkpt>
      <trkpt lat="40.109227" lon="-.758771">
        <ele>973.974</ele>
        <time>2020-08-29T12:16:40Z</time>
      </trkpt>
      <trkpt lat="40.109292" lon="-.758699">
        <ele>974.722</ele>
        <time>2020-08-29T12:16:42Z</time>
      </trkpt>
      <trkpt lat="40.109326" lon="-.75866">
        <ele>974.949</ele>
        <time>2020-08-29T12:16:43Z</time>
      </trkpt>
      <trkpt lat="40.109392" lon="-.758594">
        <ele>975.867</ele>
        <time>2020-08-29T12:16:45Z</time>
      </trkpt>
      <trkpt lat="40.109429" lon="-.758557">
        <ele>975.577</ele>
        <time>2020-08-29T12:16:46Z</time>
      </trkpt>
      <trkpt lat="40.109494" lon="-.758486">
        <ele>975.035</ele>
        <time>2020-08-29T12:16:48Z</time>
      </trkpt>
      <trkpt lat="40.10956" lon="-.758423">
        <ele>974.086</ele>
        <time>2020-08-29T12:16:50Z</time>
      </trkpt>
      <trkpt lat="40.109609" lon="-.758366">
        <ele>973.114</ele>
        <time>2020-08-29T12:16:52Z</time>
      </trkpt>
      <trkpt lat="40.109662" lon="-.758325">
        <ele>974.008</ele>
        <time>2020-08-29T12:16:54Z</time>
      </trkpt>
      <trkpt lat="40.109711" lon="-.758269">
        <ele>974.468</ele>
        <time>2020-08-29T12:16:56Z</time>
      </trkpt>
      <trkpt lat="40.109751" lon="-.758215">
        <ele>974.888</ele>
        <time>2020-08-29T12:16:59Z</time>
      </trkpt>
      <trkpt lat="40.109747" lon="-.758139">
        <ele>973.470</ele>
        <time>2020-08-29T12:17:48Z</time>
      </trkpt>
      <trkpt lat="40.109761" lon="-.758202">
        <ele>972.622</ele>
        <time>2020-08-29T12:18:02Z</time>
      </trkpt>
      <trkpt lat="40.109795" lon="-.75815">
        <ele>974.520</ele>
        <time>2020-08-29T12:18:22Z</time>
      </trkpt>
      <trkpt lat="40.109836" lon="-.758096">
        <ele>974.697</ele>
        <time>2020-08-29T12:18:31Z</time>
      </trkpt>
      <trkpt lat="40.109875" lon="-.758061">
        <ele>972.795</ele>
        <time>2020-08-29T12:18:33Z</time>
      </trkpt>
      <trkpt lat="40.109921" lon="-.758017">
        <ele>972.125</ele>
        <time>2020-08-29T12:18:35Z</time>
      </trkpt>
      <trkpt lat="40.109963" lon="-.757982">
        <ele>972.294</ele>
        <time>2020-08-29T12:18:37Z</time>
      </trkpt>
      <trkpt lat="40.110035" lon="-.757944">
        <ele>975.257</ele>
        <time>2020-08-29T12:18:39Z</time>
      </trkpt>
      <trkpt lat="40.110089" lon="-.757896">
        <ele>975.122</ele>
        <time>2020-08-29T12:18:41Z</time>
      </trkpt>
      <trkpt lat="40.110147" lon="-.757841">
        <ele>972.908</ele>
        <time>2020-08-29T12:18:43Z</time>
      </trkpt>
      <trkpt lat="40.110172" lon="-.757787">
        <ele>972.914</ele>
        <time>2020-08-29T12:18:44Z</time>
      </trkpt>
      <trkpt lat="40.110211" lon="-.757722">
        <ele>973.744</ele>
        <time>2020-08-29T12:18:46Z</time>
      </trkpt>
      <trkpt lat="40.110271" lon="-.757659">
        <ele>974.486</ele>
        <time>2020-08-29T12:18:48Z</time>
      </trkpt>
      <trkpt lat="40.110341" lon="-.75761">
        <ele>973.468</ele>
        <time>2020-08-29T12:18:50Z</time>
      </trkpt>
      <trkpt lat="40.110358" lon="-.757546">
        <ele>972.766</ele>
        <time>2020-08-29T12:18:54Z</time>
      </trkpt>
      <trkpt lat="40.110401" lon="-.75751">
        <ele>973.943</ele>
        <time>2020-08-29T12:18:56Z</time>
      </trkpt>
      <trkpt lat="40.110418" lon="-.757448">
        <ele>974.411</ele>
        <time>2020-08-29T12:18:59Z</time>
      </trkpt>
      <trkpt lat="40.110483" lon="-.757403">
        <ele>974.011</ele>
        <time>2020-08-29T12:19:01Z</time>
      </trkpt>
      <trkpt lat="40.110541" lon="-.757354">
        <ele>974.156</ele>
        <time>2020-08-29T12:19:04Z</time>
      </trkpt>
      <trkpt lat="40.110592" lon="-.757309">
        <ele>974.459</ele>
        <time>2020-08-29T12:19:07Z</time>
      </trkpt>
      <trkpt lat="40.11065" lon="-.757266">
        <ele>974.714</ele>
        <time>2020-08-29T12:19:09Z</time>
      </trkpt>
      <trkpt lat="40.110698" lon="-.757229">
        <ele>974.808</ele>
        <time>2020-08-29T12:19:11Z</time>
      </trkpt>
      <trkpt lat="40.110772" lon="-.757196">
        <ele>974.980</ele>
        <time>2020-08-29T12:19:13Z</time>
      </trkpt>
      <trkpt lat="40.110847" lon="-.75719">
        <ele>975.050</ele>
        <time>2020-08-29T12:19:15Z</time>
      </trkpt>
      <trkpt lat="40.110931" lon="-.757198">
        <ele>974.562</ele>
        <time>2020-08-29T12:19:17Z</time>
      </trkpt>
      <trkpt lat="40.111023" lon="-.757187">
        <ele>974.824</ele>
        <time>2020-08-29T12:19:19Z</time>
      </trkpt>
      <trkpt lat="40.111113" lon="-.757186">
        <ele>975.742</ele>
        <time>2020-08-29T12:19:21Z</time>
      </trkpt>
      <trkpt lat="40.111219" lon="-.757204">
        <ele>976.019</ele>
        <time>2020-08-29T12:19:23Z</time>
      </trkpt>
      <trkpt lat="40.111284" lon="-.757215">
        <ele>975.357</ele>
        <time>2020-08-29T12:19:25Z</time>
      </trkpt>
      <trkpt lat="40.111377" lon="-.75723">
        <ele>975.697</ele>
        <time>2020-08-29T12:19:27Z</time>
      </trkpt>
      <trkpt lat="40.111423" lon="-.757234">
        <ele>975.667</ele>
        <time>2020-08-29T12:19:28Z</time>
      </trkpt>
      <trkpt lat="40.111511" lon="-.757235">
        <ele>976.781</ele>
        <time>2020-08-29T12:19:30Z</time>
      </trkpt>
      <trkpt lat="40.111592" lon="-.757245">
        <ele>977.519</ele>
        <time>2020-08-29T12:19:32Z</time>
      </trkpt>
      <trkpt lat="40.111639" lon="-.757236">
        <ele>977.908</ele>
        <time>2020-08-29T12:19:33Z</time>
      </trkpt>
      <trkpt lat="40.111693" lon="-.757253">
        <ele>978.791</ele>
        <time>2020-08-29T12:19:34Z</time>
      </trkpt>
      <trkpt lat="40.111747" lon="-.757254">
        <ele>978.751</ele>
        <time>2020-08-29T12:19:35Z</time>
      </trkpt>
      <trkpt lat="40.111794" lon="-.757243">
        <ele>978.973</ele>
        <time>2020-08-29T12:19:36Z</time>
      </trkpt>
      <trkpt lat="40.111839" lon="-.757236">
        <ele>978.715</ele>
        <time>2020-08-29T12:19:37Z</time>
      </trkpt>
      <trkpt lat="40.111923" lon="-.757247">
        <ele>977.243</ele>
        <time>2020-08-29T12:19:39Z</time>
      </trkpt>
      <trkpt lat="40.111974" lon="-.757232">
        <ele>976.160</ele>
        <time>2020-08-29T12:19:41Z</time>
      </trkpt>
      <trkpt lat="40.11196" lon="-.757174">
        <ele>975.978</ele>
        <time>2020-08-29T12:20:01Z</time>
      </trkpt>
      <trkpt lat="40.112027" lon="-.757163">
        <ele>976.438</ele>
        <time>2020-08-29T12:20:30Z</time>
      </trkpt>
      <trkpt lat="40.112078" lon="-.757179">
        <ele>976.532</ele>
        <time>2020-08-29T12:20:32Z</time>
      </trkpt>
      <trkpt lat="40.112136" lon="-.757202">
        <ele>976.392</ele>
        <time>2020-08-29T12:20:35Z</time>
      </trkpt>
      <trkpt lat="40.112193" lon="-.757209">
        <ele>976.111</ele>
        <time>2020-08-29T12:20:37Z</time>
      </trkpt>
      <trkpt lat="40.112251" lon="-.757221">
        <ele>976.108</ele>
        <time>2020-08-29T12:20:39Z</time>
      </trkpt>
      <trkpt lat="40.112314" lon="-.75722">
        <ele>976.538</ele>
        <time>2020-08-29T12:20:41Z</time>
      </trkpt>
      <trkpt lat="40.112366" lon="-.757225">
        <ele>976.438</ele>
        <time>2020-08-29T12:20:43Z</time>
      </trkpt>
      <trkpt lat="40.112414" lon="-.757237">
        <ele>975.650</ele>
        <time>2020-08-29T12:20:45Z</time>
      </trkpt>
      <trkpt lat="40.11248" lon="-.757246">
        <ele>975.262</ele>
        <time>2020-08-29T12:20:47Z</time>
      </trkpt>
      <trkpt lat="40.112534" lon="-.757262">
        <ele>975.750</ele>
        <time>2020-08-29T12:20:49Z</time>
      </trkpt>
      <trkpt lat="40.112627" lon="-.757276">
        <ele>975.487</ele>
        <time>2020-08-29T12:20:54Z</time>
      </trkpt>
      <trkpt lat="40.112692" lon="-.757257">
        <ele>976.475</ele>
        <time>2020-08-29T12:20:57Z</time>
      </trkpt>
      <trkpt lat="40.112758" lon="-.757228">
        <ele>977.075</ele>
        <time>2020-08-29T12:20:59Z</time>
      </trkpt>
      <trkpt lat="40.112808" lon="-.75723">
        <ele>975.992</ele>
        <time>2020-08-29T12:21:00Z</time>
      </trkpt>
      <trkpt lat="40.112862" lon="-.757225">
        <ele>974.473</ele>
        <time>2020-08-29T12:21:02Z</time>
      </trkpt>
      <trkpt lat="40.11292" lon="-.757226">
        <ele>973.720</ele>
        <time>2020-08-29T12:21:04Z</time>
      </trkpt>
      <trkpt lat="40.11298" lon="-.757244">
        <ele>974.708</ele>
        <time>2020-08-29T12:21:05Z</time>
      </trkpt>
      <trkpt lat="40.113038" lon="-.757251">
        <ele>975.874</ele>
        <time>2020-08-29T12:21:06Z</time>
      </trkpt>
      <trkpt lat="40.113094" lon="-.757256">
        <ele>975.884</ele>
        <time>2020-08-29T12:21:07Z</time>
      </trkpt>
      <trkpt lat="40.113161" lon="-.757272">
        <ele>975.746</ele>
        <time>2020-08-29T12:21:08Z</time>
      </trkpt>
      <trkpt lat="40.113218" lon="-.757275">
        <ele>975.788</ele>
        <time>2020-08-29T12:21:09Z</time>
      </trkpt>
      <trkpt lat="40.113273" lon="-.757276">
        <ele>975.896</ele>
        <time>2020-08-29T12:21:10Z</time>
      </trkpt>
      <trkpt lat="40.113321" lon="-.757286">
        <ele>976.023</ele>
        <time>2020-08-29T12:21:11Z</time>
      </trkpt>
      <trkpt lat="40.113379" lon="-.757284">
        <ele>976.341</ele>
        <time>2020-08-29T12:21:12Z</time>
      </trkpt>
      <trkpt lat="40.113433" lon="-.757288">
        <ele>976.521</ele>
        <time>2020-08-29T12:21:13Z</time>
      </trkpt>
      <trkpt lat="40.113484" lon="-.75729">
        <ele>977.269</ele>
        <time>2020-08-29T12:21:14Z</time>
      </trkpt>
      <trkpt lat="40.113539" lon="-.757297">
        <ele>977.204</ele>
        <time>2020-08-29T12:21:15Z</time>
      </trkpt>
      <trkpt lat="40.113594" lon="-.7573">
        <ele>977.224</ele>
        <time>2020-08-29T12:21:16Z</time>
      </trkpt>
      <trkpt lat="40.113644" lon="-.757283">
        <ele>977.208</ele>
        <time>2020-08-29T12:21:17Z</time>
      </trkpt>
      <trkpt lat="40.113694" lon="-.757283">
        <ele>977.141</ele>
        <time>2020-08-29T12:21:18Z</time>
      </trkpt>
      <trkpt lat="40.113744" lon="-.757268">
        <ele>976.961</ele>
        <time>2020-08-29T12:21:19Z</time>
      </trkpt>
      <trkpt lat="40.113789" lon="-.757264">
        <ele>976.793</ele>
        <time>2020-08-29T12:21:20Z</time>
      </trkpt>
      <trkpt lat="40.113876" lon="-.757258">
        <ele>976.735</ele>
        <time>2020-08-29T12:21:22Z</time>
      </trkpt>
      <trkpt lat="40.113952" lon="-.757229">
        <ele>976.883</ele>
        <time>2020-08-29T12:21:24Z</time>
      </trkpt>
      <trkpt lat="40.114027" lon="-.757201">
        <ele>976.970</ele>
        <time>2020-08-29T12:21:26Z</time>
      </trkpt>
      <trkpt lat="40.114105" lon="-.757174">
        <ele>976.968</ele>
        <time>2020-08-29T12:21:28Z</time>
      </trkpt>
      <trkpt lat="40.114185" lon="-.757136">
        <ele>977.478</ele>
        <time>2020-08-29T12:21:30Z</time>
      </trkpt>
      <trkpt lat="40.11426" lon="-.7571">
        <ele>977.434</ele>
        <time>2020-08-29T12:21:32Z</time>
      </trkpt>
      <trkpt lat="40.114327" lon="-.757058">
        <ele>976.655</ele>
        <time>2020-08-29T12:21:34Z</time>
      </trkpt>
      <trkpt lat="40.114402" lon="-.757013">
        <ele>976.610</ele>
        <time>2020-08-29T12:21:36Z</time>
      </trkpt>
      <trkpt lat="40.114477" lon="-.756972">
        <ele>976.708</ele>
        <time>2020-08-29T12:21:38Z</time>
      </trkpt>
      <trkpt lat="40.114549" lon="-.756913">
        <ele>977.028</ele>
        <time>2020-08-29T12:21:40Z</time>
      </trkpt>
      <trkpt lat="40.114609" lon="-.756872">
        <ele>977.178</ele>
        <time>2020-08-29T12:21:42Z</time>
      </trkpt>
      <trkpt lat="40.114672" lon="-.756821">
        <ele>977.150</ele>
        <time>2020-08-29T12:21:44Z</time>
      </trkpt>
      <trkpt lat="40.114728" lon="-.756764">
        <ele>977.292</ele>
        <time>2020-08-29T12:21:46Z</time>
      </trkpt>
      <trkpt lat="40.114791" lon="-.756702">
        <ele>977.420</ele>
        <time>2020-08-29T12:21:48Z</time>
      </trkpt>
      <trkpt lat="40.114837" lon="-.75662">
        <ele>977.637</ele>
        <time>2020-08-29T12:21:50Z</time>
      </trkpt>
      <trkpt lat="40.114872" lon="-.756582">
        <ele>978.195</ele>
        <time>2020-08-29T12:21:51Z</time>
      </trkpt>
      <trkpt lat="40.114924" lon="-.756516">
        <ele>978.665</ele>
        <time>2020-08-29T12:21:53Z</time>
      </trkpt>
      <trkpt lat="40.114956" lon="-.756474">
        <ele>978.845</ele>
        <time>2020-08-29T12:21:54Z</time>
      </trkpt>
      <trkpt lat="40.115003" lon="-.756386">
        <ele>979.047</ele>
        <time>2020-08-29T12:21:56Z</time>
      </trkpt>
      <trkpt lat="40.115022" lon="-.75633">
        <ele>978.811</ele>
        <time>2020-08-29T12:21:57Z</time>
      </trkpt>
      <trkpt lat="40.11504" lon="-.756271">
        <ele>978.808</ele>
        <time>2020-08-29T12:21:58Z</time>
      </trkpt>
      <trkpt lat="40.115065" lon="-.756221">
        <ele>978.889</ele>
        <time>2020-08-29T12:21:59Z</time>
      </trkpt>
      <trkpt lat="40.115084" lon="-.756166">
        <ele>978.819</ele>
        <time>2020-08-29T12:22:00Z</time>
      </trkpt>
      <trkpt lat="40.115111" lon="-.756059">
        <ele>978.821</ele>
        <time>2020-08-29T12:22:02Z</time>
      </trkpt>
      <trkpt lat="40.115135" lon="-.756008">
        <ele>978.873</ele>
        <time>2020-08-29T12:22:03Z</time>
      </trkpt>
      <trkpt lat="40.115178" lon="-.755901">
        <ele>978.961</ele>
        <time>2020-08-29T12:22:05Z</time>
      </trkpt>
      <trkpt lat="40.115206" lon="-.755818">
        <ele>978.998</ele>
        <time>2020-08-29T12:22:07Z</time>
      </trkpt>
      <trkpt lat="40.115227" lon="-.755716">
        <ele>978.946</ele>
        <time>2020-08-29T12:22:09Z</time>
      </trkpt>
      <trkpt lat="40.115251" lon="-.755632">
        <ele>978.926</ele>
        <time>2020-08-29T12:22:11Z</time>
      </trkpt>
      <trkpt lat="40.115263" lon="-.755541">
        <ele>979.092</ele>
        <time>2020-08-29T12:22:13Z</time>
      </trkpt>
      <trkpt lat="40.115277" lon="-.755454">
        <ele>979.073</ele>
        <time>2020-08-29T12:22:15Z</time>
      </trkpt>
      <trkpt lat="40.115297" lon="-.755353">
        <ele>978.920</ele>
        <time>2020-08-29T12:22:17Z</time>
      </trkpt>
      <trkpt lat="40.115309" lon="-.755249">
        <ele>978.708</ele>
        <time>2020-08-29T12:22:19Z</time>
      </trkpt>
      <trkpt lat="40.115325" lon="-.755128">
        <ele>978.654</ele>
        <time>2020-08-29T12:22:21Z</time>
      </trkpt>
      <trkpt lat="40.115322" lon="-.755011">
        <ele>978.524</ele>
        <time>2020-08-29T12:22:23Z</time>
      </trkpt>
      <trkpt lat="40.115327" lon="-.75495">
        <ele>978.526</ele>
        <time>2020-08-29T12:22:24Z</time>
      </trkpt>
      <trkpt lat="40.115324" lon="-.754883">
        <ele>978.548</ele>
        <time>2020-08-29T12:22:25Z</time>
      </trkpt>
      <trkpt lat="40.115315" lon="-.754761">
        <ele>978.566</ele>
        <time>2020-08-29T12:22:27Z</time>
      </trkpt>
      <trkpt lat="40.115306" lon="-.754698">
        <ele>978.523</ele>
        <time>2020-08-29T12:22:28Z</time>
      </trkpt>
      <trkpt lat="40.115289" lon="-.754632">
        <ele>978.491</ele>
        <time>2020-08-29T12:22:29Z</time>
      </trkpt>
      <trkpt lat="40.115283" lon="-.754518">
        <ele>978.431</ele>
        <time>2020-08-29T12:22:31Z</time>
      </trkpt>
      <trkpt lat="40.115267" lon="-.754395">
        <ele>978.618</ele>
        <time>2020-08-29T12:22:33Z</time>
      </trkpt>
      <trkpt lat="40.115253" lon="-.754332">
        <ele>978.698</ele>
        <time>2020-08-29T12:22:34Z</time>
      </trkpt>
      <trkpt lat="40.115237" lon="-.754268">
        <ele>978.217</ele>
        <time>2020-08-29T12:22:35Z</time>
      </trkpt>
      <trkpt lat="40.115217" lon="-.754153">
        <ele>978.408</ele>
        <time>2020-08-29T12:22:37Z</time>
      </trkpt>
      <trkpt lat="40.115194" lon="-.754086">
        <ele>978.416</ele>
        <time>2020-08-29T12:22:38Z</time>
      </trkpt>
      <trkpt lat="40.115187" lon="-.754013">
        <ele>978.436</ele>
        <time>2020-08-29T12:22:39Z</time>
      </trkpt>
      <trkpt lat="40.115181" lon="-.753954">
        <ele>978.258</ele>
        <time>2020-08-29T12:22:40Z</time>
      </trkpt>
      <trkpt lat="40.115171" lon="-.75389">
        <ele>978.210</ele>
        <time>2020-08-29T12:22:41Z</time>
      </trkpt>
      <trkpt lat="40.115149" lon="-.753821">
        <ele>978.448</ele>
        <time>2020-08-29T12:22:42Z</time>
      </trkpt>
      <trkpt lat="40.115124" lon="-.75372">
        <ele>978.445</ele>
        <time>2020-08-29T12:22:44Z</time>
      </trkpt>
      <trkpt lat="40.115113" lon="-.753649">
        <ele>978.593</ele>
        <time>2020-08-29T12:22:45Z</time>
      </trkpt>
      <trkpt lat="40.11509" lon="-.753536">
        <ele>978.583</ele>
        <time>2020-08-29T12:22:47Z</time>
      </trkpt>
      <trkpt lat="40.115077" lon="-.753424">
        <ele>978.453</ele>
        <time>2020-08-29T12:22:49Z</time>
      </trkpt>
      <trkpt lat="40.115064" lon="-.75336">
        <ele>978.304</ele>
        <time>2020-08-29T12:22:50Z</time>
      </trkpt>
      <trkpt lat="40.115045" lon="-.753297">
        <ele>978.314</ele>
        <time>2020-08-29T12:22:51Z</time>
      </trkpt>
      <trkpt lat="40.115032" lon="-.75324">
        <ele>978.208</ele>
        <time>2020-08-29T12:22:52Z</time>
      </trkpt>
      <trkpt lat="40.115016" lon="-.753179">
        <ele>978.240</ele>
        <time>2020-08-29T12:22:53Z</time>
      </trkpt>
      <trkpt lat="40.115006" lon="-.753119">
        <ele>978.260</ele>
        <time>2020-08-29T12:22:54Z</time>
      </trkpt>
      <trkpt lat="40.114994" lon="-.753053">
        <ele>978.272</ele>
        <time>2020-08-29T12:22:55Z</time>
      </trkpt>
      <trkpt lat="40.114971" lon="-.752946">
        <ele>977.884</ele>
        <time>2020-08-29T12:22:57Z</time>
      </trkpt>
      <trkpt lat="40.114941" lon="-.752849">
        <ele>978.242</ele>
        <time>2020-08-29T12:22:59Z</time>
      </trkpt>
      <trkpt lat="40.114925" lon="-.752781">
        <ele>978.319</ele>
        <time>2020-08-29T12:23:00Z</time>
      </trkpt>
      <trkpt lat="40.114908" lon="-.752721">
        <ele>978.737</ele>
        <time>2020-08-29T12:23:01Z</time>
      </trkpt>
      <trkpt lat="40.114883" lon="-.752621">
        <ele>978.937</ele>
        <time>2020-08-29T12:23:03Z</time>
      </trkpt>
      <trkpt lat="40.114847" lon="-.75251">
        <ele>978.943</ele>
        <time>2020-08-29T12:23:05Z</time>
      </trkpt>
      <trkpt lat="40.114825" lon="-.752413">
        <ele>979.164</ele>
        <time>2020-08-29T12:23:07Z</time>
      </trkpt>
      <trkpt lat="40.114807" lon="-.752306">
        <ele>979.310</ele>
        <time>2020-08-29T12:23:09Z</time>
      </trkpt>
      <trkpt lat="40.114794" lon="-.752213">
        <ele>979.808</ele>
        <time>2020-08-29T12:23:11Z</time>
      </trkpt>
      <trkpt lat="40.114772" lon="-.752161">
        <ele>980.079</ele>
        <time>2020-08-29T12:23:12Z</time>
      </trkpt>
      <trkpt lat="40.114752" lon="-.752064">
        <ele>980.559</ele>
        <time>2020-08-29T12:23:14Z</time>
      </trkpt>
      <trkpt lat="40.114748" lon="-.752001">
        <ele>980.691</ele>
        <time>2020-08-29T12:23:15Z</time>
      </trkpt>
      <trkpt lat="40.114714" lon="-.751895">
        <ele>980.843</ele>
        <time>2020-08-29T12:23:17Z</time>
      </trkpt>
      <trkpt lat="40.114681" lon="-.751785">
        <ele>980.841</ele>
        <time>2020-08-29T12:23:19Z</time>
      </trkpt>
      <trkpt lat="40.114653" lon="-.751683">
        <ele>980.758</ele>
        <time>2020-08-29T12:23:21Z</time>
      </trkpt>
      <trkpt lat="40.114636" lon="-.751625">
        <ele>980.846</ele>
        <time>2020-08-29T12:23:22Z</time>
      </trkpt>
      <trkpt lat="40.114621" lon="-.75156">
        <ele>981.246</ele>
        <time>2020-08-29T12:23:23Z</time>
      </trkpt>
      <trkpt lat="40.114601" lon="-.751449">
        <ele>981.549</ele>
        <time>2020-08-29T12:23:25Z</time>
      </trkpt>
      <trkpt lat="40.114599" lon="-.751388">
        <ele>982.002</ele>
        <time>2020-08-29T12:23:26Z</time>
      </trkpt>
      <trkpt lat="40.114572" lon="-.751294">
        <ele>982.422</ele>
        <time>2020-08-29T12:23:28Z</time>
      </trkpt>
      <trkpt lat="40.11455" lon="-.751242">
        <ele>982.408</ele>
        <time>2020-08-29T12:23:29Z</time>
      </trkpt>
      <trkpt lat="40.114513" lon="-.751152">
        <ele>982.279</ele>
        <time>2020-08-29T12:23:31Z</time>
      </trkpt>
      <trkpt lat="40.114467" lon="-.751086">
        <ele>981.769</ele>
        <time>2020-08-29T12:23:33Z</time>
      </trkpt>
      <trkpt lat="40.114461" lon="-.751019">
        <ele>981.851</ele>
        <time>2020-08-29T12:23:34Z</time>
      </trkpt>
      <trkpt lat="40.114451" lon="-.750956">
        <ele>982.223</ele>
        <time>2020-08-29T12:23:35Z</time>
      </trkpt>
      <trkpt lat="40.114448" lon="-.750869">
        <ele>982.631</ele>
        <time>2020-08-29T12:23:36Z</time>
      </trkpt>
      <trkpt lat="40.114418" lon="-.750752">
        <ele>983.558</ele>
        <time>2020-08-29T12:23:38Z</time>
      </trkpt>
      <trkpt lat="40.114393" lon="-.750665">
        <ele>983.886</ele>
        <time>2020-08-29T12:23:40Z</time>
      </trkpt>
      <trkpt lat="40.114363" lon="-.750553">
        <ele>983.516</ele>
        <time>2020-08-29T12:23:42Z</time>
      </trkpt>
      <trkpt lat="40.114348" lon="-.750495">
        <ele>983.561</ele>
        <time>2020-08-29T12:23:43Z</time>
      </trkpt>
      <trkpt lat="40.114318" lon="-.750374">
        <ele>982.821</ele>
        <time>2020-08-29T12:23:45Z</time>
      </trkpt>
      <trkpt lat="40.114285" lon="-.750311">
        <ele>982.713</ele>
        <time>2020-08-29T12:23:46Z</time>
      </trkpt>
      <trkpt lat="40.114257" lon="-.750207">
        <ele>982.808</ele>
        <time>2020-08-29T12:23:48Z</time>
      </trkpt>
      <trkpt lat="40.114231" lon="-.750104">
        <ele>983.081</ele>
        <time>2020-08-29T12:23:50Z</time>
      </trkpt>
      <trkpt lat="40.114212" lon="-.750042">
        <ele>983.371</ele>
        <time>2020-08-29T12:23:51Z</time>
      </trkpt>
      <trkpt lat="40.114198" lon="-.749981">
        <ele>983.393</ele>
        <time>2020-08-29T12:23:52Z</time>
      </trkpt>
      <trkpt lat="40.114185" lon="-.749923">
        <ele>983.225</ele>
        <time>2020-08-29T12:23:53Z</time>
      </trkpt>
      <trkpt lat="40.114164" lon="-.749813">
        <ele>982.773</ele>
        <time>2020-08-29T12:23:55Z</time>
      </trkpt>
      <trkpt lat="40.114136" lon="-.749753">
        <ele>982.660</ele>
        <time>2020-08-29T12:23:56Z</time>
      </trkpt>
      <trkpt lat="40.114115" lon="-.7497">
        <ele>982.548</ele>
        <time>2020-08-29T12:23:57Z</time>
      </trkpt>
      <trkpt lat="40.114094" lon="-.74964">
        <ele>982.428</ele>
        <time>2020-08-29T12:23:58Z</time>
      </trkpt>
      <trkpt lat="40.114073" lon="-.749559">
        <ele>982.293</ele>
        <time>2020-08-29T12:23:59Z</time>
      </trkpt>
      <trkpt lat="40.114049" lon="-.749489">
        <ele>981.965</ele>
        <time>2020-08-29T12:24:00Z</time>
      </trkpt>
      <trkpt lat="40.114027" lon="-.749411">
        <ele>981.721</ele>
        <time>2020-08-29T12:24:01Z</time>
      </trkpt>
      <trkpt lat="40.113991" lon="-.74933">
        <ele>981.408</ele>
        <time>2020-08-29T12:24:02Z</time>
      </trkpt>
      <trkpt lat="40.11396" lon="-.749246">
        <ele>981.024</ele>
        <time>2020-08-29T12:24:03Z</time>
      </trkpt>
      <trkpt lat="40.113937" lon="-.749174">
        <ele>980.764</ele>
        <time>2020-08-29T12:24:04Z</time>
      </trkpt>
      <trkpt lat="40.113918" lon="-.7491">
        <ele>980.586</ele>
        <time>2020-08-29T12:24:05Z</time>
      </trkpt>
      <trkpt lat="40.113895" lon="-.749025">
        <ele>980.338</ele>
        <time>2020-08-29T12:24:06Z</time>
      </trkpt>
      <trkpt lat="40.113875" lon="-.748947">
        <ele>980.256</ele>
        <time>2020-08-29T12:24:07Z</time>
      </trkpt>
      <trkpt lat="40.11385" lon="-.748869">
        <ele>980.273</ele>
        <time>2020-08-29T12:24:08Z</time>
      </trkpt>
      <trkpt lat="40.113827" lon="-.748809">
        <ele>980.291</ele>
        <time>2020-08-29T12:24:09Z</time>
      </trkpt>
      <trkpt lat="40.113812" lon="-.748742">
        <ele>980.291</ele>
        <time>2020-08-29T12:24:10Z</time>
      </trkpt>
      <trkpt lat="40.113795" lon="-.748687">
        <ele>980.256</ele>
        <time>2020-08-29T12:24:11Z</time>
      </trkpt>
      <trkpt lat="40.113755" lon="-.748566">
        <ele>980.259</ele>
        <time>2020-08-29T12:24:13Z</time>
      </trkpt>
      <trkpt lat="40.113739" lon="-.748507">
        <ele>980.314</ele>
        <time>2020-08-29T12:24:14Z</time>
      </trkpt>
      <trkpt lat="40.113727" lon="-.74845">
        <ele>979.808</ele>
        <time>2020-08-29T12:24:15Z</time>
      </trkpt>
      <trkpt lat="40.113721" lon="-.74838">
        <ele>979.720</ele>
        <time>2020-08-29T12:24:16Z</time>
      </trkpt>
      <trkpt lat="40.113704" lon="-.74832">
        <ele>979.740</ele>
        <time>2020-08-29T12:24:17Z</time>
      </trkpt>
      <trkpt lat="40.113685" lon="-.748257">
        <ele>979.572</ele>
        <time>2020-08-29T12:24:18Z</time>
      </trkpt>
      <trkpt lat="40.113669" lon="-.748192">
        <ele>979.544</ele>
        <time>2020-08-29T12:24:19Z</time>
      </trkpt>
      <trkpt lat="40.113652" lon="-.748129">
        <ele>980.052</ele>
        <time>2020-08-29T12:24:20Z</time>
      </trkpt>
      <trkpt lat="40.113642" lon="-.748068">
        <ele>980.069</ele>
        <time>2020-08-29T12:24:21Z</time>
      </trkpt>
      <trkpt lat="40.113616" lon="-.748001">
        <ele>979.917</ele>
        <time>2020-08-29T12:24:22Z</time>
      </trkpt>
      <trkpt lat="40.113608" lon="-.747872">
        <ele>979.357</ele>
        <time>2020-08-29T12:24:24Z</time>
      </trkpt>
      <trkpt lat="40.113598" lon="-.747809">
        <ele>980.061</ele>
        <time>2020-08-29T12:24:25Z</time>
      </trkpt>
      <trkpt lat="40.113589" lon="-.747729">
        <ele>980.021</ele>
        <time>2020-08-29T12:24:26Z</time>
      </trkpt>
      <trkpt lat="40.113581" lon="-.747624">
        <ele>979.413</ele>
        <time>2020-08-29T12:24:28Z</time>
      </trkpt>
      <trkpt lat="40.113579" lon="-.747555">
        <ele>980.508</ele>
        <time>2020-08-29T12:24:29Z</time>
      </trkpt>
      <trkpt lat="40.113563" lon="-.747487">
        <ele>980.531</ele>
        <time>2020-08-29T12:24:30Z</time>
      </trkpt>
      <trkpt lat="40.113556" lon="-.747367">
        <ele>980.221</ele>
        <time>2020-08-29T12:24:32Z</time>
      </trkpt>
      <trkpt lat="40.113547" lon="-.747299">
        <ele>980.193</ele>
        <time>2020-08-29T12:24:33Z</time>
      </trkpt>
      <trkpt lat="40.113537" lon="-.747227">
        <ele>979.735</ele>
        <time>2020-08-29T12:24:34Z</time>
      </trkpt>
      <trkpt lat="40.113535" lon="-.7471">
        <ele>979.653</ele>
        <time>2020-08-29T12:24:36Z</time>
      </trkpt>
      <trkpt lat="40.113526" lon="-.746974">
        <ele>979.730</ele>
        <time>2020-08-29T12:24:38Z</time>
      </trkpt>
      <trkpt lat="40.113515" lon="-.746915">
        <ele>979.788</ele>
        <time>2020-08-29T12:24:39Z</time>
      </trkpt>
      <trkpt lat="40.113514" lon="-.74685">
        <ele>979.738</ele>
        <time>2020-08-29T12:24:40Z</time>
      </trkpt>
      <trkpt lat="40.1135" lon="-.746723">
        <ele>979.571</ele>
        <time>2020-08-29T12:24:42Z</time>
      </trkpt>
      <trkpt lat="40.113497" lon="-.746609">
        <ele>979.541</ele>
        <time>2020-08-29T12:24:44Z</time>
      </trkpt>
      <trkpt lat="40.113485" lon="-.746491">
        <ele>979.715</ele>
        <time>2020-08-29T12:24:46Z</time>
      </trkpt>
      <trkpt lat="40.11348" lon="-.746428">
        <ele>979.808</ele>
        <time>2020-08-29T12:24:47Z</time>
      </trkpt>
      <trkpt lat="40.113467" lon="-.746371">
        <ele>980.312</ele>
        <time>2020-08-29T12:24:48Z</time>
      </trkpt>
      <trkpt lat="40.113467" lon="-.746305">
        <ele>980.322</ele>
        <time>2020-08-29T12:24:49Z</time>
      </trkpt>
      <trkpt lat="40.113459" lon="-.746189">
        <ele>979.834</ele>
        <time>2020-08-29T12:24:51Z</time>
      </trkpt>
      <trkpt lat="40.113446" lon="-.74607">
        <ele>980.256</ele>
        <time>2020-08-29T12:24:53Z</time>
      </trkpt>
      <trkpt lat="40.113438" lon="-.74601">
        <ele>980.394</ele>
        <time>2020-08-29T12:24:54Z</time>
      </trkpt>
      <trkpt lat="40.113425" lon="-.745884">
        <ele>979.571</ele>
        <time>2020-08-29T12:24:56Z</time>
      </trkpt>
      <trkpt lat="40.113421" lon="-.745825">
        <ele>979.579</ele>
        <time>2020-08-29T12:24:57Z</time>
      </trkpt>
      <trkpt lat="40.113415" lon="-.745767">
        <ele>979.599</ele>
        <time>2020-08-29T12:24:58Z</time>
      </trkpt>
      <trkpt lat="40.1134" lon="-.745641">
        <ele>979.724</ele>
        <time>2020-08-29T12:25:00Z</time>
      </trkpt>
      <trkpt lat="40.11339" lon="-.745531">
        <ele>980.304</ele>
        <time>2020-08-29T12:25:02Z</time>
      </trkpt>
      <trkpt lat="40.113379" lon="-.745471">
        <ele>980.314</ele>
        <time>2020-08-29T12:25:03Z</time>
      </trkpt>
      <trkpt lat="40.113377" lon="-.745406">
        <ele>980.308</ele>
        <time>2020-08-29T12:25:04Z</time>
      </trkpt>
      <trkpt lat="40.113369" lon="-.745285">
        <ele>980.527</ele>
        <time>2020-08-29T12:25:06Z</time>
      </trkpt>
      <trkpt lat="40.113349" lon="-.74517">
        <ele>980.787</ele>
        <time>2020-08-29T12:25:08Z</time>
      </trkpt>
      <trkpt lat="40.113337" lon="-.745056">
        <ele>980.519</ele>
        <time>2020-08-29T12:25:10Z</time>
      </trkpt>
      <trkpt lat="40.113338" lon="-.744996">
        <ele>980.571</ele>
        <time>2020-08-29T12:25:11Z</time>
      </trkpt>
      <trkpt lat="40.113325" lon="-.744904">
        <ele>981.049</ele>
        <time>2020-08-29T12:25:13Z</time>
      </trkpt>
      <trkpt lat="40.113314" lon="-.744812">
        <ele>981.286</ele>
        <time>2020-08-29T12:25:15Z</time>
      </trkpt>
      <trkpt lat="40.113316" lon="-.744752">
        <ele>981.254</ele>
        <time>2020-08-29T12:25:16Z</time>
      </trkpt>
      <trkpt lat="40.113291" lon="-.744662">
        <ele>981.044</ele>
        <time>2020-08-29T12:25:18Z</time>
      </trkpt>
      <trkpt lat="40.113271" lon="-.744595">
        <ele>981.037</ele>
        <time>2020-08-29T12:25:19Z</time>
      </trkpt>
      <trkpt lat="40.113254" lon="-.744531">
        <ele>981.349</ele>
        <time>2020-08-29T12:25:20Z</time>
      </trkpt>
      <trkpt lat="40.11322" lon="-.744444">
        <ele>982.013</ele>
        <time>2020-08-29T12:25:22Z</time>
      </trkpt>
      <trkpt lat="40.113191" lon="-.744395">
        <ele>982.108</ele>
        <time>2020-08-29T12:25:23Z</time>
      </trkpt>
      <trkpt lat="40.113147" lon="-.744317">
        <ele>982.328</ele>
        <time>2020-08-29T12:25:25Z</time>
      </trkpt>
      <trkpt lat="40.113115" lon="-.744245">
        <ele>983.658</ele>
        <time>2020-08-29T12:25:27Z</time>
      </trkpt>
      <trkpt lat="40.113088" lon="-.744173">
        <ele>983.850</ele>
        <time>2020-08-29T12:25:29Z</time>
      </trkpt>
      <trkpt lat="40.113049" lon="-.7441">
        <ele>983.392</ele>
        <time>2020-08-29T12:25:31Z</time>
      </trkpt>
      <trkpt lat="40.113015" lon="-.74403">
        <ele>983.480</ele>
        <time>2020-08-29T12:25:33Z</time>
      </trkpt>
      <trkpt lat="40.112951" lon="-.743952">
        <ele>983.597</ele>
        <time>2020-08-29T12:25:35Z</time>
      </trkpt>
      <trkpt lat="40.112917" lon="-.743914">
        <ele>983.535</ele>
        <time>2020-08-29T12:25:36Z</time>
      </trkpt>
      <trkpt lat="40.112863" lon="-.743829">
        <ele>983.795</ele>
        <time>2020-08-29T12:25:38Z</time>
      </trkpt>
      <trkpt lat="40.112801" lon="-.743749">
        <ele>983.851</ele>
        <time>2020-08-29T12:25:40Z</time>
      </trkpt>
      <trkpt lat="40.112757" lon="-.743703">
        <ele>983.101</ele>
        <time>2020-08-29T12:25:41Z</time>
      </trkpt>
      <trkpt lat="40.11272" lon="-.743655">
        <ele>983.111</ele>
        <time>2020-08-29T12:25:42Z</time>
      </trkpt>
      <trkpt lat="40.112678" lon="-.743609">
        <ele>983.108</ele>
        <time>2020-08-29T12:25:43Z</time>
      </trkpt>
      <trkpt lat="40.112619" lon="-.743579">
        <ele>982.910</ele>
        <time>2020-08-29T12:25:47Z</time>
      </trkpt>
      <trkpt lat="40.112568" lon="-.743562">
        <ele>982.740</ele>
        <time>2020-08-29T12:25:48Z</time>
      </trkpt>
      <trkpt lat="40.112495" lon="-.743502">
        <ele>982.412</ele>
        <time>2020-08-29T12:25:50Z</time>
      </trkpt>
      <trkpt lat="40.112446" lon="-.74346">
        <ele>982.814</ele>
        <time>2020-08-29T12:25:51Z</time>
      </trkpt>
      <trkpt lat="40.112388" lon="-.743406">
        <ele>982.812</ele>
        <time>2020-08-29T12:25:52Z</time>
      </trkpt>
      <trkpt lat="40.112335" lon="-.743363">
        <ele>982.519</ele>
        <time>2020-08-29T12:25:53Z</time>
      </trkpt>
      <trkpt lat="40.112286" lon="-.74333">
        <ele>982.427</ele>
        <time>2020-08-29T12:25:54Z</time>
      </trkpt>
      <trkpt lat="40.112236" lon="-.743292">
        <ele>982.247</ele>
        <time>2020-08-29T12:25:55Z</time>
      </trkpt>
      <trkpt lat="40.112181" lon="-.743261">
        <ele>982.476</ele>
        <time>2020-08-29T12:25:56Z</time>
      </trkpt>
      <trkpt lat="40.11212" lon="-.743233">
        <ele>982.490</ele>
        <time>2020-08-29T12:25:57Z</time>
      </trkpt>
      <trkpt lat="40.112066" lon="-.74321">
        <ele>982.519</ele>
        <time>2020-08-29T12:25:58Z</time>
      </trkpt>
      <trkpt lat="40.112018" lon="-.743184">
        <ele>982.908</ele>
        <time>2020-08-29T12:25:59Z</time>
      </trkpt>
      <trkpt lat="40.111969" lon="-.743158">
        <ele>983.132</ele>
        <time>2020-08-29T12:26:00Z</time>
      </trkpt>
      <trkpt lat="40.111923" lon="-.743136">
        <ele>983.142</ele>
        <time>2020-08-29T12:26:01Z</time>
      </trkpt>
      <trkpt lat="40.111871" lon="-.743101">
        <ele>982.854</ele>
        <time>2020-08-29T12:26:02Z</time>
      </trkpt>
      <trkpt lat="40.111813" lon="-.743066">
        <ele>982.766</ele>
        <time>2020-08-29T12:26:03Z</time>
      </trkpt>
      <trkpt lat="40.111754" lon="-.743035">
        <ele>982.584</ele>
        <time>2020-08-29T12:26:04Z</time>
      </trkpt>
      <trkpt lat="40.111695" lon="-.743007">
        <ele>982.211</ele>
        <time>2020-08-29T12:26:05Z</time>
      </trkpt>
      <trkpt lat="40.111639" lon="-.742976">
        <ele>982.189</ele>
        <time>2020-08-29T12:26:06Z</time>
      </trkpt>
      <trkpt lat="40.111585" lon="-.742944">
        <ele>982.189</ele>
        <time>2020-08-29T12:26:07Z</time>
      </trkpt>
      <trkpt lat="40.11153" lon="-.742919">
        <ele>981.811</ele>
        <time>2020-08-29T12:26:08Z</time>
      </trkpt>
      <trkpt lat="40.111473" lon="-.742894">
        <ele>981.821</ele>
        <time>2020-08-29T12:26:09Z</time>
      </trkpt>
      <trkpt lat="40.111418" lon="-.742869">
        <ele>981.903</ele>
        <time>2020-08-29T12:26:10Z</time>
      </trkpt>
      <trkpt lat="40.11137" lon="-.742851">
        <ele>982.008</ele>
        <time>2020-08-29T12:26:11Z</time>
      </trkpt>
      <trkpt lat="40.111319" lon="-.742824">
        <ele>982.036</ele>
        <time>2020-08-29T12:26:12Z</time>
      </trkpt>
      <trkpt lat="40.111263" lon="-.742801">
        <ele>982.126</ele>
        <time>2020-08-29T12:26:13Z</time>
      </trkpt>
      <trkpt lat="40.111214" lon="-.742777">
        <ele>982.138</ele>
        <time>2020-08-29T12:26:14Z</time>
      </trkpt>
      <trkpt lat="40.111163" lon="-.742753">
        <ele>982.120</ele>
        <time>2020-08-29T12:26:15Z</time>
      </trkpt>
      <trkpt lat="40.111113" lon="-.742735">
        <ele>982.098</ele>
        <time>2020-08-29T12:26:16Z</time>
      </trkpt>
      <trkpt lat="40.111064" lon="-.742717">
        <ele>982.025</ele>
        <time>2020-08-29T12:26:17Z</time>
      </trkpt>
      <trkpt lat="40.111014" lon="-.742694">
        <ele>981.913</ele>
        <time>2020-08-29T12:26:18Z</time>
      </trkpt>
      <trkpt lat="40.110961" lon="-.74267">
        <ele>981.923</ele>
        <time>2020-08-29T12:26:19Z</time>
      </trkpt>
      <trkpt lat="40.110907" lon="-.742644">
        <ele>981.814</ele>
        <time>2020-08-29T12:26:20Z</time>
      </trkpt>
      <trkpt lat="40.11086" lon="-.742631">
        <ele>981.854</ele>
        <time>2020-08-29T12:26:21Z</time>
      </trkpt>
      <trkpt lat="40.110807" lon="-.742607">
        <ele>981.809</ele>
        <time>2020-08-29T12:26:22Z</time>
      </trkpt>
      <trkpt lat="40.110752" lon="-.742586">
        <ele>981.808</ele>
        <time>2020-08-29T12:26:23Z</time>
      </trkpt>
      <trkpt lat="40.110703" lon="-.742568">
        <ele>981.856</ele>
        <time>2020-08-29T12:26:24Z</time>
      </trkpt>
      <trkpt lat="40.110647" lon="-.742549">
        <ele>981.876</ele>
        <time>2020-08-29T12:26:25Z</time>
      </trkpt>
      <trkpt lat="40.110591" lon="-.742525">
        <ele>981.888</ele>
        <time>2020-08-29T12:26:26Z</time>
      </trkpt>
      <trkpt lat="40.11054" lon="-.742502">
        <ele>981.670</ele>
        <time>2020-08-29T12:26:27Z</time>
      </trkpt>
      <trkpt lat="40.110488" lon="-.742495">
        <ele>981.628</ele>
        <time>2020-08-29T12:26:28Z</time>
      </trkpt>
      <trkpt lat="40.110439" lon="-.742481">
        <ele>982.095</ele>
        <time>2020-08-29T12:26:29Z</time>
      </trkpt>
      <trkpt lat="40.11039" lon="-.742463">
        <ele>982.073</ele>
        <time>2020-08-29T12:26:30Z</time>
      </trkpt>
      <trkpt lat="40.110294" lon="-.742427">
        <ele>982.323</ele>
        <time>2020-08-29T12:26:32Z</time>
      </trkpt>
      <trkpt lat="40.110248" lon="-.74242">
        <ele>982.359</ele>
        <time>2020-08-29T12:26:33Z</time>
      </trkpt>
      <trkpt lat="40.110199" lon="-.742401">
        <ele>982.103</ele>
        <time>2020-08-29T12:26:34Z</time>
      </trkpt>
      <trkpt lat="40.110149" lon="-.742387">
        <ele>982.123</ele>
        <time>2020-08-29T12:26:35Z</time>
      </trkpt>
      <trkpt lat="40.110103" lon="-.74238">
        <ele>982.108</ele>
        <time>2020-08-29T12:26:36Z</time>
      </trkpt>
      <trkpt lat="40.11005" lon="-.74237">
        <ele>982.140</ele>
        <time>2020-08-29T12:26:37Z</time>
      </trkpt>
      <trkpt lat="40.109954" lon="-.74235">
        <ele>981.970</ele>
        <time>2020-08-29T12:26:39Z</time>
      </trkpt>
      <trkpt lat="40.109902" lon="-.742342">
        <ele>982.132</ele>
        <time>2020-08-29T12:26:40Z</time>
      </trkpt>
      <trkpt lat="40.109853" lon="-.74234">
        <ele>982.134</ele>
        <time>2020-08-29T12:26:41Z</time>
      </trkpt>
      <trkpt lat="40.109802" lon="-.742335">
        <ele>982.122</ele>
        <time>2020-08-29T12:26:42Z</time>
      </trkpt>
      <trkpt lat="40.109753" lon="-.742327">
        <ele>981.629</ele>
        <time>2020-08-29T12:26:43Z</time>
      </trkpt>
      <trkpt lat="40.109702" lon="-.742332">
        <ele>981.687</ele>
        <time>2020-08-29T12:26:44Z</time>
      </trkpt>
      <trkpt lat="40.109656" lon="-.742328">
        <ele>982.197</ele>
        <time>2020-08-29T12:26:45Z</time>
      </trkpt>
      <trkpt lat="40.109605" lon="-.742328">
        <ele>982.198</ele>
        <time>2020-08-29T12:26:46Z</time>
      </trkpt>
      <trkpt lat="40.109554" lon="-.74233">
        <ele>981.515</ele>
        <time>2020-08-29T12:26:47Z</time>
      </trkpt>
      <trkpt lat="40.109498" lon="-.742327">
        <ele>981.526</ele>
        <time>2020-08-29T12:26:48Z</time>
      </trkpt>
      <trkpt lat="40.109444" lon="-.742327">
        <ele>982.008</ele>
        <time>2020-08-29T12:26:49Z</time>
      </trkpt>
      <trkpt lat="40.109387" lon="-.74233">
        <ele>982.084</ele>
        <time>2020-08-29T12:26:50Z</time>
      </trkpt>
      <trkpt lat="40.109339" lon="-.742322">
        <ele>981.254</ele>
        <time>2020-08-29T12:26:51Z</time>
      </trkpt>
      <trkpt lat="40.109288" lon="-.742325">
        <ele>981.276</ele>
        <time>2020-08-29T12:26:52Z</time>
      </trkpt>
      <trkpt lat="40.109237" lon="-.742326">
        <ele>981.898</ele>
        <time>2020-08-29T12:26:53Z</time>
      </trkpt>
      <trkpt lat="40.109186" lon="-.742332">
        <ele>981.876</ele>
        <time>2020-08-29T12:26:54Z</time>
      </trkpt>
      <trkpt lat="40.10913" lon="-.742332">
        <ele>981.863</ele>
        <time>2020-08-29T12:26:55Z</time>
      </trkpt>
      <trkpt lat="40.109082" lon="-.742342">
        <ele>982.271</ele>
        <time>2020-08-29T12:26:56Z</time>
      </trkpt>
      <trkpt lat="40.108996" lon="-.742352">
        <ele>982.271</ele>
        <time>2020-08-29T12:26:58Z</time>
      </trkpt>
      <trkpt lat="40.108912" lon="-.742363">
        <ele>982.289</ele>
        <time>2020-08-29T12:27:00Z</time>
      </trkpt>
      <trkpt lat="40.108866" lon="-.74236">
        <ele>982.206</ele>
        <time>2020-08-29T12:27:01Z</time>
      </trkpt>
      <trkpt lat="40.10882" lon="-.742354">
        <ele>981.926</ele>
        <time>2020-08-29T12:27:02Z</time>
      </trkpt>
      <trkpt lat="40.108732" lon="-.742366">
        <ele>981.608</ele>
        <time>2020-08-29T12:27:04Z</time>
      </trkpt>
      <trkpt lat="40.108641" lon="-.742383">
        <ele>982.273</ele>
        <time>2020-08-29T12:27:06Z</time>
      </trkpt>
      <trkpt lat="40.108586" lon="-.742382">
        <ele>982.393</ele>
        <time>2020-08-29T12:27:07Z</time>
      </trkpt>
      <trkpt lat="40.108499" lon="-.742394">
        <ele>982.465</ele>
        <time>2020-08-29T12:27:09Z</time>
      </trkpt>
      <trkpt lat="40.10844" lon="-.7424">
        <ele>982.677</ele>
        <time>2020-08-29T12:27:10Z</time>
      </trkpt>
      <trkpt lat="40.108385" lon="-.742396">
        <ele>982.645</ele>
        <time>2020-08-29T12:27:11Z</time>
      </trkpt>
      <trkpt lat="40.108335" lon="-.742403">
        <ele>982.692</ele>
        <time>2020-08-29T12:27:12Z</time>
      </trkpt>
      <trkpt lat="40.108282" lon="-.742406">
        <ele>982.410</ele>
        <time>2020-08-29T12:27:13Z</time>
      </trkpt>
      <trkpt lat="40.108235" lon="-.74241">
        <ele>983.030</ele>
        <time>2020-08-29T12:27:14Z</time>
      </trkpt>
      <trkpt lat="40.108139" lon="-.742414">
        <ele>982.994</ele>
        <time>2020-08-29T12:27:16Z</time>
      </trkpt>
      <trkpt lat="40.108092" lon="-.742415">
        <ele>982.957</ele>
        <time>2020-08-29T12:27:17Z</time>
      </trkpt>
      <trkpt lat="40.108035" lon="-.742432">
        <ele>982.922</ele>
        <time>2020-08-29T12:27:18Z</time>
      </trkpt>
      <trkpt lat="40.107955" lon="-.742424">
        <ele>982.708</ele>
        <time>2020-08-29T12:27:20Z</time>
      </trkpt>
      <trkpt lat="40.107909" lon="-.742422">
        <ele>982.394</ele>
        <time>2020-08-29T12:27:21Z</time>
      </trkpt>
      <trkpt lat="40.107859" lon="-.742433">
        <ele>982.354</ele>
        <time>2020-08-29T12:27:22Z</time>
      </trkpt>
      <trkpt lat="40.107769" lon="-.74244">
        <ele>982.726</ele>
        <time>2020-08-29T12:27:24Z</time>
      </trkpt>
      <trkpt lat="40.107722" lon="-.742437">
        <ele>982.758</ele>
        <time>2020-08-29T12:27:25Z</time>
      </trkpt>
      <trkpt lat="40.107668" lon="-.742451">
        <ele>982.446</ele>
        <time>2020-08-29T12:27:26Z</time>
      </trkpt>
      <trkpt lat="40.107624" lon="-.742463">
        <ele>982.453</ele>
        <time>2020-08-29T12:27:27Z</time>
      </trkpt>
      <trkpt lat="40.107566" lon="-.742476">
        <ele>982.591</ele>
        <time>2020-08-29T12:27:28Z</time>
      </trkpt>
      <trkpt lat="40.107484" lon="-.742491">
        <ele>982.381</ele>
        <time>2020-08-29T12:27:30Z</time>
      </trkpt>
      <trkpt lat="40.107436" lon="-.742484">
        <ele>982.783</ele>
        <time>2020-08-29T12:27:31Z</time>
      </trkpt>
      <trkpt lat="40.107387" lon="-.742491">
        <ele>982.725</ele>
        <time>2020-08-29T12:27:32Z</time>
      </trkpt>
      <trkpt lat="40.107338" lon="-.742488">
        <ele>982.617</ele>
        <time>2020-08-29T12:27:33Z</time>
      </trkpt>
      <trkpt lat="40.107293" lon="-.742495">
        <ele>982.408</ele>
        <time>2020-08-29T12:27:34Z</time>
      </trkpt>
      <trkpt lat="40.107239" lon="-.742494">
        <ele>982.193</ele>
        <time>2020-08-29T12:27:35Z</time>
      </trkpt>
      <trkpt lat="40.107142" lon="-.742508">
        <ele>982.173</ele>
        <time>2020-08-29T12:27:37Z</time>
      </trkpt>
      <trkpt lat="40.107049" lon="-.742506">
        <ele>982.035</ele>
        <time>2020-08-29T12:27:39Z</time>
      </trkpt>
      <trkpt lat="40.107004" lon="-.742507">
        <ele>982.087</ele>
        <time>2020-08-29T12:27:40Z</time>
      </trkpt>
      <trkpt lat="40.106956" lon="-.742512">
        <ele>981.645</ele>
        <time>2020-08-29T12:27:41Z</time>
      </trkpt>
      <trkpt lat="40.106909" lon="-.7425">
        <ele>981.642</ele>
        <time>2020-08-29T12:27:42Z</time>
      </trkpt>
      <trkpt lat="40.106856" lon="-.742509">
        <ele>981.650</ele>
        <time>2020-08-29T12:27:43Z</time>
      </trkpt>
      <trkpt lat="40.106804" lon="-.742508">
        <ele>981.650</ele>
        <time>2020-08-29T12:27:44Z</time>
      </trkpt>
      <trkpt lat="40.106724" lon="-.742485">
        <ele>981.656</ele>
        <time>2020-08-29T12:27:46Z</time>
      </trkpt>
      <trkpt lat="40.106666" lon="-.742491">
        <ele>982.059</ele>
        <time>2020-08-29T12:27:47Z</time>
      </trkpt>
      <trkpt lat="40.106614" lon="-.742487">
        <ele>982.014</ele>
        <time>2020-08-29T12:27:48Z</time>
      </trkpt>
      <trkpt lat="40.106523" lon="-.742475">
        <ele>981.708</ele>
        <time>2020-08-29T12:27:50Z</time>
      </trkpt>
      <trkpt lat="40.106476" lon="-.742463">
        <ele>981.890</ele>
        <time>2020-08-29T12:27:51Z</time>
      </trkpt>
      <trkpt lat="40.106392" lon="-.742451">
        <ele>981.830</ele>
        <time>2020-08-29T12:27:53Z</time>
      </trkpt>
      <trkpt lat="40.106305" lon="-.742434">
        <ele>982.192</ele>
        <time>2020-08-29T12:27:55Z</time>
      </trkpt>
      <trkpt lat="40.106255" lon="-.742422">
        <ele>982.134</ele>
        <time>2020-08-29T12:27:56Z</time>
      </trkpt>
      <trkpt lat="40.10621" lon="-.742415">
        <ele>982.152</ele>
        <time>2020-08-29T12:27:57Z</time>
      </trkpt>
      <trkpt lat="40.106164" lon="-.742413">
        <ele>982.199</ele>
        <time>2020-08-29T12:27:58Z</time>
      </trkpt>
      <trkpt lat="40.106077" lon="-.742401">
        <ele>982.037</ele>
        <time>2020-08-29T12:28:00Z</time>
      </trkpt>
      <trkpt lat="40.105997" lon="-.742375">
        <ele>982.187</ele>
        <time>2020-08-29T12:28:02Z</time>
      </trkpt>
      <trkpt lat="40.105952" lon="-.742364">
        <ele>982.451</ele>
        <time>2020-08-29T12:28:03Z</time>
      </trkpt>
      <trkpt lat="40.105869" lon="-.742351">
        <ele>982.701</ele>
        <time>2020-08-29T12:28:05Z</time>
      </trkpt>
      <trkpt lat="40.105824" lon="-.74233">
        <ele>982.711</ele>
        <time>2020-08-29T12:28:06Z</time>
      </trkpt>
      <trkpt lat="40.105779" lon="-.742322">
        <ele>982.408</ele>
        <time>2020-08-29T12:28:07Z</time>
      </trkpt>
      <trkpt lat="40.105733" lon="-.742318">
        <ele>981.910</ele>
        <time>2020-08-29T12:28:08Z</time>
      </trkpt>
      <trkpt lat="40.105643" lon="-.742307">
        <ele>982.290</ele>
        <time>2020-08-29T12:28:10Z</time>
      </trkpt>
      <trkpt lat="40.105597" lon="-.742298">
        <ele>982.422</ele>
        <time>2020-08-29T12:28:11Z</time>
      </trkpt>
      <trkpt lat="40.105517" lon="-.742281">
        <ele>982.534</ele>
        <time>2020-08-29T12:28:13Z</time>
      </trkpt>
      <trkpt lat="40.105468" lon="-.742261">
        <ele>982.742</ele>
        <time>2020-08-29T12:28:14Z</time>
      </trkpt>
      <trkpt lat="40.105374" lon="-.742246">
        <ele>982.539</ele>
        <time>2020-08-29T12:28:16Z</time>
      </trkpt>
      <trkpt lat="40.105325" lon="-.742232">
        <ele>982.137</ele>
        <time>2020-08-29T12:28:17Z</time>
      </trkpt>
      <trkpt lat="40.10528" lon="-.742228">
        <ele>982.177</ele>
        <time>2020-08-29T12:28:18Z</time>
      </trkpt>
      <trkpt lat="40.105192" lon="-.742218">
        <ele>982.359</ele>
        <time>2020-08-29T12:28:20Z</time>
      </trkpt>
      <trkpt lat="40.105147" lon="-.742206">
        <ele>982.403</ele>
        <time>2020-08-29T12:28:21Z</time>
      </trkpt>
      <trkpt lat="40.105059" lon="-.742181">
        <ele>982.923</ele>
        <time>2020-08-29T12:28:23Z</time>
      </trkpt>
      <trkpt lat="40.105013" lon="-.742168">
        <ele>982.908</ele>
        <time>2020-08-29T12:28:24Z</time>
      </trkpt>
      <trkpt lat="40.104963" lon="-.742164">
        <ele>982.210</ele>
        <time>2020-08-29T12:28:25Z</time>
      </trkpt>
      <trkpt lat="40.104913" lon="-.742152">
        <ele>981.880</ele>
        <time>2020-08-29T12:28:26Z</time>
      </trkpt>
      <trkpt lat="40.104864" lon="-.742143">
        <ele>982.032</ele>
        <time>2020-08-29T12:28:27Z</time>
      </trkpt>
      <trkpt lat="40.104782" lon="-.742121">
        <ele>982.394</ele>
        <time>2020-08-29T12:28:29Z</time>
      </trkpt>
      <trkpt lat="40.104727" lon="-.742112">
        <ele>982.662</ele>
        <time>2020-08-29T12:28:30Z</time>
      </trkpt>
      <trkpt lat="40.104675" lon="-.742095">
        <ele>982.649</ele>
        <time>2020-08-29T12:28:31Z</time>
      </trkpt>
      <trkpt lat="40.104589" lon="-.742073">
        <ele>982.557</ele>
        <time>2020-08-29T12:28:33Z</time>
      </trkpt>
      <trkpt lat="40.104537" lon="-.742066">
        <ele>982.417</ele>
        <time>2020-08-29T12:28:34Z</time>
      </trkpt>
      <trkpt lat="40.104487" lon="-.742057">
        <ele>982.416</ele>
        <time>2020-08-29T12:28:35Z</time>
      </trkpt>
      <trkpt lat="40.10444" lon="-.742045">
        <ele>982.476</ele>
        <time>2020-08-29T12:28:36Z</time>
      </trkpt>
      <trkpt lat="40.104391" lon="-.742022">
        <ele>982.313</ele>
        <time>2020-08-29T12:28:37Z</time>
      </trkpt>
      <trkpt lat="40.104341" lon="-.742008">
        <ele>982.308</ele>
        <time>2020-08-29T12:28:38Z</time>
      </trkpt>
      <trkpt lat="40.104292" lon="-.742007">
        <ele>982.386</ele>
        <time>2020-08-29T12:28:39Z</time>
      </trkpt>
      <trkpt lat="40.104243" lon="-.742001">
        <ele>982.146</ele>
        <time>2020-08-29T12:28:40Z</time>
      </trkpt>
      <trkpt lat="40.10419" lon="-.741984">
        <ele>982.188</ele>
        <time>2020-08-29T12:28:41Z</time>
      </trkpt>
      <trkpt lat="40.104135" lon="-.741975">
        <ele>982.520</ele>
        <time>2020-08-29T12:28:42Z</time>
      </trkpt>
      <trkpt lat="40.10409" lon="-.741966">
        <ele>982.418</ele>
        <time>2020-08-29T12:28:43Z</time>
      </trkpt>
      <trkpt lat="40.104037" lon="-.741959">
        <ele>982.425</ele>
        <time>2020-08-29T12:28:44Z</time>
      </trkpt>
      <trkpt lat="40.103981" lon="-.741942">
        <ele>983.043</ele>
        <time>2020-08-29T12:28:45Z</time>
      </trkpt>
      <trkpt lat="40.10389" lon="-.741924">
        <ele>983.033</ele>
        <time>2020-08-29T12:28:47Z</time>
      </trkpt>
      <trkpt lat="40.1038" lon="-.741901">
        <ele>983.041</ele>
        <time>2020-08-29T12:28:49Z</time>
      </trkpt>
      <trkpt lat="40.103755" lon="-.74189">
        <ele>982.781</ele>
        <time>2020-08-29T12:28:50Z</time>
      </trkpt>
      <trkpt lat="40.103707" lon="-.741889">
        <ele>982.709</ele>
        <time>2020-08-29T12:28:51Z</time>
      </trkpt>
      <trkpt lat="40.103649" lon="-.741879">
        <ele>982.308</ele>
        <time>2020-08-29T12:28:52Z</time>
      </trkpt>
      <trkpt lat="40.103602" lon="-.74187">
        <ele>982.129</ele>
        <time>2020-08-29T12:28:53Z</time>
      </trkpt>
      <trkpt lat="40.103556" lon="-.741856">
        <ele>982.179</ele>
        <time>2020-08-29T12:28:54Z</time>
      </trkpt>
      <trkpt lat="40.103458" lon="-.741846">
        <ele>981.981</ele>
        <time>2020-08-29T12:28:56Z</time>
      </trkpt>
      <trkpt lat="40.103411" lon="-.74183">
        <ele>981.823</ele>
        <time>2020-08-29T12:28:57Z</time>
      </trkpt>
      <trkpt lat="40.103366" lon="-.741823">
        <ele>981.891</ele>
        <time>2020-08-29T12:28:58Z</time>
      </trkpt>
      <trkpt lat="40.10332" lon="-.741818">
        <ele>981.898</ele>
        <time>2020-08-29T12:28:59Z</time>
      </trkpt>
      <trkpt lat="40.10327" lon="-.741814">
        <ele>981.776</ele>
        <time>2020-08-29T12:29:00Z</time>
      </trkpt>
      <trkpt lat="40.103219" lon="-.741791">
        <ele>982.196</ele>
        <time>2020-08-29T12:29:01Z</time>
      </trkpt>
      <trkpt lat="40.103169" lon="-.741774">
        <ele>982.253</ele>
        <time>2020-08-29T12:29:02Z</time>
      </trkpt>
      <trkpt lat="40.103082" lon="-.741757">
        <ele>982.204</ele>
        <time>2020-08-29T12:29:04Z</time>
      </trkpt>
      <trkpt lat="40.103033" lon="-.741746">
        <ele>982.514</ele>
        <time>2020-08-29T12:29:05Z</time>
      </trkpt>
      <trkpt lat="40.102985" lon="-.741739">
        <ele>982.508</ele>
        <time>2020-08-29T12:29:06Z</time>
      </trkpt>
      <trkpt lat="40.102937" lon="-.741724">
        <ele>982.570</ele>
        <time>2020-08-29T12:29:07Z</time>
      </trkpt>
      <trkpt lat="40.102886" lon="-.741713">
        <ele>982.340</ele>
        <time>2020-08-29T12:29:08Z</time>
      </trkpt>
      <trkpt lat="40.102836" lon="-.741699">
        <ele>982.322</ele>
        <time>2020-08-29T12:29:09Z</time>
      </trkpt>
      <trkpt lat="40.102788" lon="-.741687">
        <ele>982.684</ele>
        <time>2020-08-29T12:29:10Z</time>
      </trkpt>
      <trkpt lat="40.102739" lon="-.741674">
        <ele>982.612</ele>
        <time>2020-08-29T12:29:11Z</time>
      </trkpt>
      <trkpt lat="40.102679" lon="-.741666">
        <ele>982.129</ele>
        <time>2020-08-29T12:29:12Z</time>
      </trkpt>
      <trkpt lat="40.102632" lon="-.741658">
        <ele>982.067</ele>
        <time>2020-08-29T12:29:13Z</time>
      </trkpt>
      <trkpt lat="40.102586" lon="-.741654">
        <ele>982.097</ele>
        <time>2020-08-29T12:29:14Z</time>
      </trkpt>
      <trkpt lat="40.102534" lon="-.741647">
        <ele>982.129</ele>
        <time>2020-08-29T12:29:15Z</time>
      </trkpt>
      <trkpt lat="40.102482" lon="-.741644">
        <ele>982.100</ele>
        <time>2020-08-29T12:29:16Z</time>
      </trkpt>
      <trkpt lat="40.102436" lon="-.741635">
        <ele>981.920</ele>
        <time>2020-08-29T12:29:17Z</time>
      </trkpt>
      <trkpt lat="40.102384" lon="-.741629">
        <ele>981.908</ele>
        <time>2020-08-29T12:29:18Z</time>
      </trkpt>
      <trkpt lat="40.102333" lon="-.741616">
        <ele>982.287</ele>
        <time>2020-08-29T12:29:19Z</time>
      </trkpt>
      <trkpt lat="40.102236" lon="-.741599">
        <ele>982.757</ele>
        <time>2020-08-29T12:29:21Z</time>
      </trkpt>
      <trkpt lat="40.102178" lon="-.741582">
        <ele>982.729</ele>
        <time>2020-08-29T12:29:22Z</time>
      </trkpt>
      <trkpt lat="40.102122" lon="-.741569">
        <ele>982.721</ele>
        <time>2020-08-29T12:29:23Z</time>
      </trkpt>
      <trkpt lat="40.102021" lon="-.74155">
        <ele>981.919</ele>
        <time>2020-08-29T12:29:25Z</time>
      </trkpt>
      <trkpt lat="40.101967" lon="-.741535">
        <ele>982.046</ele>
        <time>2020-08-29T12:29:26Z</time>
      </trkpt>
      <trkpt lat="40.101908" lon="-.741519">
        <ele>982.114</ele>
        <time>2020-08-29T12:29:27Z</time>
      </trkpt>
      <trkpt lat="40.101858" lon="-.741509">
        <ele>982.134</ele>
        <time>2020-08-29T12:29:28Z</time>
      </trkpt>
      <trkpt lat="40.101806" lon="-.741494">
        <ele>982.121</ele>
        <time>2020-08-29T12:29:29Z</time>
      </trkpt>
      <trkpt lat="40.101758" lon="-.741484">
        <ele>982.641</ele>
        <time>2020-08-29T12:29:30Z</time>
      </trkpt>
      <trkpt lat="40.101708" lon="-.741477">
        <ele>982.605</ele>
        <time>2020-08-29T12:29:31Z</time>
      </trkpt>
      <trkpt lat="40.101657" lon="-.741468">
        <ele>981.808</ele>
        <time>2020-08-29T12:29:32Z</time>
      </trkpt>
      <trkpt lat="40.101609" lon="-.741463">
        <ele>981.567</ele>
        <time>2020-08-29T12:29:33Z</time>
      </trkpt>
      <trkpt lat="40.10156" lon="-.741455">
        <ele>981.557</ele>
        <time>2020-08-29T12:29:34Z</time>
      </trkpt>
      <trkpt lat="40.101509" lon="-.741456">
        <ele>981.679</ele>
        <time>2020-08-29T12:29:35Z</time>
      </trkpt>
      <trkpt lat="40.101457" lon="-.741452">
        <ele>981.911</ele>
        <time>2020-08-29T12:29:36Z</time>
      </trkpt>
      <trkpt lat="40.101405" lon="-.741441">
        <ele>982.129</ele>
        <time>2020-08-29T12:29:37Z</time>
      </trkpt>
      <trkpt lat="40.101358" lon="-.741435">
        <ele>982.596</ele>
        <time>2020-08-29T12:29:38Z</time>
      </trkpt>
      <trkpt lat="40.101275" lon="-.741424">
        <ele>981.874</ele>
        <time>2020-08-29T12:29:40Z</time>
      </trkpt>
      <trkpt lat="40.101188" lon="-.74139">
        <ele>981.544</ele>
        <time>2020-08-29T12:29:42Z</time>
      </trkpt>
      <trkpt lat="40.101142" lon="-.741379">
        <ele>981.535</ele>
        <time>2020-08-29T12:29:43Z</time>
      </trkpt>
      <trkpt lat="40.101095" lon="-.741365">
        <ele>981.586</ele>
        <time>2020-08-29T12:29:44Z</time>
      </trkpt>
      <trkpt lat="40.100999" lon="-.741336">
        <ele>981.514</ele>
        <time>2020-08-29T12:29:46Z</time>
      </trkpt>
      <trkpt lat="40.10091" lon="-.741327">
        <ele>981.608</ele>
        <time>2020-08-29T12:29:48Z</time>
      </trkpt>
      <trkpt lat="40.100811" lon="-.74131">
        <ele>981.838</ele>
        <time>2020-08-29T12:29:50Z</time>
      </trkpt>
      <trkpt lat="40.100717" lon="-.741288">
        <ele>981.968</ele>
        <time>2020-08-29T12:29:52Z</time>
      </trkpt>
      <trkpt lat="40.100667" lon="-.741276">
        <ele>981.620</ele>
        <time>2020-08-29T12:29:53Z</time>
      </trkpt>
      <trkpt lat="40.100623" lon="-.741261">
        <ele>981.512</ele>
        <time>2020-08-29T12:29:54Z</time>
      </trkpt>
      <trkpt lat="40.100574" lon="-.74126">
        <ele>981.210</ele>
        <time>2020-08-29T12:29:55Z</time>
      </trkpt>
      <trkpt lat="40.100477" lon="-.741229">
        <ele>981.037</ele>
        <time>2020-08-29T12:29:57Z</time>
      </trkpt>
      <trkpt lat="40.100428" lon="-.741217">
        <ele>980.885</ele>
        <time>2020-08-29T12:29:58Z</time>
      </trkpt>
      <trkpt lat="40.100373" lon="-.741212">
        <ele>980.485</ele>
        <time>2020-08-29T12:29:59Z</time>
      </trkpt>
      <trkpt lat="40.10032" lon="-.741196">
        <ele>980.222</ele>
        <time>2020-08-29T12:30:00Z</time>
      </trkpt>
      <trkpt lat="40.100228" lon="-.741175">
        <ele>980.862</ele>
        <time>2020-08-29T12:30:02Z</time>
      </trkpt>
      <trkpt lat="40.100176" lon="-.741162">
        <ele>980.808</ele>
        <time>2020-08-29T12:30:03Z</time>
      </trkpt>
      <trkpt lat="40.100083" lon="-.741146">
        <ele>980.908</ele>
        <time>2020-08-29T12:30:05Z</time>
      </trkpt>
      <trkpt lat="40.100026" lon="-.741137">
        <ele>981.157</ele>
        <time>2020-08-29T12:30:06Z</time>
      </trkpt>
      <trkpt lat="40.099976" lon="-.741136">
        <ele>981.347</ele>
        <time>2020-08-29T12:30:07Z</time>
      </trkpt>
      <trkpt lat="40.099926" lon="-.741128">
        <ele>981.359</ele>
        <time>2020-08-29T12:30:08Z</time>
      </trkpt>
      <trkpt lat="40.099876" lon="-.741127">
        <ele>981.591</ele>
        <time>2020-08-29T12:30:09Z</time>
      </trkpt>
      <trkpt lat="40.099791" lon="-.741106">
        <ele>981.279</ele>
        <time>2020-08-29T12:30:11Z</time>
      </trkpt>
      <trkpt lat="40.099744" lon="-.741094">
        <ele>981.236</ele>
        <time>2020-08-29T12:30:12Z</time>
      </trkpt>
      <trkpt lat="40.099695" lon="-.741087">
        <ele>981.024</ele>
        <time>2020-08-29T12:30:13Z</time>
      </trkpt>
      <trkpt lat="40.099602" lon="-.741067">
        <ele>981.054</ele>
        <time>2020-08-29T12:30:15Z</time>
      </trkpt>
      <trkpt lat="40.099511" lon="-.741047">
        <ele>981.281</ele>
        <time>2020-08-29T12:30:17Z</time>
      </trkpt>
      <trkpt lat="40.099461" lon="-.741048">
        <ele>981.461</ele>
        <time>2020-08-29T12:30:18Z</time>
      </trkpt>
      <trkpt lat="40.099415" lon="-.741027">
        <ele>981.517</ele>
        <time>2020-08-29T12:30:19Z</time>
      </trkpt>
      <trkpt lat="40.099367" lon="-.741022">
        <ele>981.708</ele>
        <time>2020-08-29T12:30:20Z</time>
      </trkpt>
      <trkpt lat="40.09932" lon="-.741014">
        <ele>981.783</ele>
        <time>2020-08-29T12:30:21Z</time>
      </trkpt>
      <trkpt lat="40.099233" lon="-.741">
        <ele>981.643</ele>
        <time>2020-08-29T12:30:23Z</time>
      </trkpt>
      <trkpt lat="40.09919" lon="-.74098">
        <ele>981.655</ele>
        <time>2020-08-29T12:30:24Z</time>
      </trkpt>
      <trkpt lat="40.099143" lon="-.740975">
        <ele>981.627</ele>
        <time>2020-08-29T12:30:25Z</time>
      </trkpt>
      <trkpt lat="40.099098" lon="-.740966">
        <ele>981.625</ele>
        <time>2020-08-29T12:30:26Z</time>
      </trkpt>
      <trkpt lat="40.099011" lon="-.740945">
        <ele>981.832</ele>
        <time>2020-08-29T12:30:28Z</time>
      </trkpt>
      <trkpt lat="40.098966" lon="-.740929">
        <ele>981.930</ele>
        <time>2020-08-29T12:30:29Z</time>
      </trkpt>
      <trkpt lat="40.098874" lon="-.740917">
        <ele>982.250</ele>
        <time>2020-08-29T12:30:31Z</time>
      </trkpt>
      <trkpt lat="40.098822" lon="-.740905">
        <ele>982.464</ele>
        <time>2020-08-29T12:30:32Z</time>
      </trkpt>
      <trkpt lat="40.098776" lon="-.74089">
        <ele>982.506</ele>
        <time>2020-08-29T12:30:33Z</time>
      </trkpt>
      <trkpt lat="40.098695" lon="-.740874">
        <ele>982.816</ele>
        <time>2020-08-29T12:30:35Z</time>
      </trkpt>
      <trkpt lat="40.098643" lon="-.740861">
        <ele>982.808</ele>
        <time>2020-08-29T12:30:36Z</time>
      </trkpt>
      <trkpt lat="40.098562" lon="-.74085">
        <ele>983.141</ele>
        <time>2020-08-29T12:30:38Z</time>
      </trkpt>
      <trkpt lat="40.098514" lon="-.740831">
        <ele>983.131</ele>
        <time>2020-08-29T12:30:39Z</time>
      </trkpt>
      <trkpt lat="40.09846" lon="-.740813">
        <ele>983.183</ele>
        <time>2020-08-29T12:30:40Z</time>
      </trkpt>
      <trkpt lat="40.098372" lon="-.740793">
        <ele>983.225</ele>
        <time>2020-08-29T12:30:42Z</time>
      </trkpt>
      <trkpt lat="40.098295" lon="-.740773">
        <ele>983.263</ele>
        <time>2020-08-29T12:30:44Z</time>
      </trkpt>
      <trkpt lat="40.098246" lon="-.740762">
        <ele>983.120</ele>
        <time>2020-08-29T12:30:45Z</time>
      </trkpt>
      <trkpt lat="40.098192" lon="-.740745">
        <ele>983.178</ele>
        <time>2020-08-29T12:30:46Z</time>
      </trkpt>
      <trkpt lat="40.098101" lon="-.740735">
        <ele>983.048</ele>
        <time>2020-08-29T12:30:48Z</time>
      </trkpt>
      <trkpt lat="40.098017" lon="-.740722">
        <ele>983.519</ele>
        <time>2020-08-29T12:30:50Z</time>
      </trkpt>
      <trkpt lat="40.097926" lon="-.740718">
        <ele>983.509</ele>
        <time>2020-08-29T12:30:52Z</time>
      </trkpt>
      <trkpt lat="40.097875" lon="-.740706">
        <ele>983.619</ele>
        <time>2020-08-29T12:30:53Z</time>
      </trkpt>
      <trkpt lat="40.097825" lon="-.740684">
        <ele>983.408</ele>
        <time>2020-08-29T12:30:54Z</time>
      </trkpt>
      <trkpt lat="40.097739" lon="-.740688">
        <ele>983.436</ele>
        <time>2020-08-29T12:30:56Z</time>
      </trkpt>
      <trkpt lat="40.097671" lon="-.740674">
        <ele>983.326</ele>
        <time>2020-08-29T12:30:58Z</time>
      </trkpt>
      <trkpt lat="40.097624" lon="-.740667">
        <ele>982.818</ele>
        <time>2020-08-29T12:30:59Z</time>
      </trkpt>
      <trkpt lat="40.097575" lon="-.740657">
        <ele>982.790</ele>
        <time>2020-08-29T12:31:00Z</time>
      </trkpt>
      <trkpt lat="40.097525" lon="-.740641">
        <ele>982.788</ele>
        <time>2020-08-29T12:31:01Z</time>
      </trkpt>
      <trkpt lat="40.097475" lon="-.740633">
        <ele>982.755</ele>
        <time>2020-08-29T12:31:02Z</time>
      </trkpt>
      <trkpt lat="40.097381" lon="-.740602">
        <ele>982.963</ele>
        <time>2020-08-29T12:31:04Z</time>
      </trkpt>
      <trkpt lat="40.097332" lon="-.740605">
        <ele>982.983</ele>
        <time>2020-08-29T12:31:05Z</time>
      </trkpt>
      <trkpt lat="40.09728" lon="-.7406">
        <ele>983.182</ele>
        <time>2020-08-29T12:31:06Z</time>
      </trkpt>
      <trkpt lat="40.097228" lon="-.740594">
        <ele>983.243</ele>
        <time>2020-08-29T12:31:07Z</time>
      </trkpt>
      <trkpt lat="40.097141" lon="-.740575">
        <ele>983.217</ele>
        <time>2020-08-29T12:31:09Z</time>
      </trkpt>
      <trkpt lat="40.097053" lon="-.740556">
        <ele>983.008</ele>
        <time>2020-08-29T12:31:11Z</time>
      </trkpt>
      <trkpt lat="40.096976" lon="-.74053">
        <ele>982.563</ele>
        <time>2020-08-29T12:31:13Z</time>
      </trkpt>
      <trkpt lat="40.09693" lon="-.740517">
        <ele>982.463</ele>
        <time>2020-08-29T12:31:14Z</time>
      </trkpt>
      <trkpt lat="40.096862" lon="-.740514">
        <ele>982.175</ele>
        <time>2020-08-29T12:31:16Z</time>
      </trkpt>
      <trkpt lat="40.096779" lon="-.740494">
        <ele>982.197</ele>
        <time>2020-08-29T12:31:18Z</time>
      </trkpt>
      <trkpt lat="40.096696" lon="-.740466">
        <ele>982.265</ele>
        <time>2020-08-29T12:31:20Z</time>
      </trkpt>
      <trkpt lat="40.09662" lon="-.740445">
        <ele>982.342</ele>
        <time>2020-08-29T12:31:22Z</time>
      </trkpt>
      <trkpt lat="40.096547" lon="-.740428">
        <ele>982.480</ele>
        <time>2020-08-29T12:31:24Z</time>
      </trkpt>
      <trkpt lat="40.096497" lon="-.740424">
        <ele>982.570</ele>
        <time>2020-08-29T12:31:25Z</time>
      </trkpt>
      <trkpt lat="40.096405" lon="-.740417">
        <ele>982.119</ele>
        <time>2020-08-29T12:31:27Z</time>
      </trkpt>
      <trkpt lat="40.096355" lon="-.740408">
        <ele>982.109</ele>
        <time>2020-08-29T12:31:28Z</time>
      </trkpt>
      <trkpt lat="40.096311" lon="-.740394">
        <ele>982.119</ele>
        <time>2020-08-29T12:31:29Z</time>
      </trkpt>
      <trkpt lat="40.096234" lon="-.740374">
        <ele>983.108</ele>
        <time>2020-08-29T12:31:31Z</time>
      </trkpt>
      <trkpt lat="40.096189" lon="-.740363">
        <ele>983.186</ele>
        <time>2020-08-29T12:31:32Z</time>
      </trkpt>
      <trkpt lat="40.096138" lon="-.740366">
        <ele>983.096</ele>
        <time>2020-08-29T12:31:33Z</time>
      </trkpt>
      <trkpt lat="40.096084" lon="-.740347">
        <ele>982.638</ele>
        <time>2020-08-29T12:31:34Z</time>
      </trkpt>
      <trkpt lat="40.095998" lon="-.740338">
        <ele>982.650</ele>
        <time>2020-08-29T12:31:36Z</time>
      </trkpt>
      <trkpt lat="40.095919" lon="-.740315">
        <ele>982.478</ele>
        <time>2020-08-29T12:31:38Z</time>
      </trkpt>
      <trkpt lat="40.095863" lon="-.740306">
        <ele>982.485</ele>
        <time>2020-08-29T12:31:39Z</time>
      </trkpt>
      <trkpt lat="40.095813" lon="-.740295">
        <ele>982.773</ele>
        <time>2020-08-29T12:31:40Z</time>
      </trkpt>
      <trkpt lat="40.095767" lon="-.740282">
        <ele>982.883</ele>
        <time>2020-08-29T12:31:41Z</time>
      </trkpt>
      <trkpt lat="40.095682" lon="-.740263">
        <ele>983.773</ele>
        <time>2020-08-29T12:31:43Z</time>
      </trkpt>
      <trkpt lat="40.095627" lon="-.740258">
        <ele>983.785</ele>
        <time>2020-08-29T12:31:44Z</time>
      </trkpt>
      <trkpt lat="40.095577" lon="-.740248">
        <ele>983.613</ele>
        <time>2020-08-29T12:31:45Z</time>
      </trkpt>
      <trkpt lat="40.095488" lon="-.74023">
        <ele>983.408</ele>
        <time>2020-08-29T12:31:47Z</time>
      </trkpt>
      <trkpt lat="40.095403" lon="-.740217">
        <ele>983.182</ele>
        <time>2020-08-29T12:31:49Z</time>
      </trkpt>
      <trkpt lat="40.095354" lon="-.740207">
        <ele>983.172</ele>
        <time>2020-08-29T12:31:50Z</time>
      </trkpt>
      <trkpt lat="40.095276" lon="-.74019">
        <ele>983.044</ele>
        <time>2020-08-29T12:31:52Z</time>
      </trkpt>
      <trkpt lat="40.095193" lon="-.740164">
        <ele>982.926</ele>
        <time>2020-08-29T12:31:54Z</time>
      </trkpt>
      <trkpt lat="40.09511" lon="-.740148">
        <ele>982.914</ele>
        <time>2020-08-29T12:31:56Z</time>
      </trkpt>
      <trkpt lat="40.095017" lon="-.740124">
        <ele>983.591</ele>
        <time>2020-08-29T12:31:58Z</time>
      </trkpt>
      <trkpt lat="40.094928" lon="-.740105">
        <ele>984.069</ele>
        <time>2020-08-29T12:32:00Z</time>
      </trkpt>
      <trkpt lat="40.094839" lon="-.740085">
        <ele>983.959</ele>
        <time>2020-08-29T12:32:02Z</time>
      </trkpt>
      <trkpt lat="40.094796" lon="-.740067">
        <ele>983.569</ele>
        <time>2020-08-29T12:32:03Z</time>
      </trkpt>
      <trkpt lat="40.094701" lon="-.740043">
        <ele>983.604</ele>
        <time>2020-08-29T12:32:05Z</time>
      </trkpt>
      <trkpt lat="40.094616" lon="-.740028">
        <ele>983.724</ele>
        <time>2020-08-29T12:32:07Z</time>
      </trkpt>
      <trkpt lat="40.094537" lon="-.74">
        <ele>984.108</ele>
        <time>2020-08-29T12:32:09Z</time>
      </trkpt>
      <trkpt lat="40.094493" lon="-.739979">
        <ele>984.181</ele>
        <time>2020-08-29T12:32:10Z</time>
      </trkpt>
      <trkpt lat="40.094408" lon="-.739944">
        <ele>984.091</ele>
        <time>2020-08-29T12:32:12Z</time>
      </trkpt>
      <trkpt lat="40.094326" lon="-.739894">
        <ele>983.643</ele>
        <time>2020-08-29T12:32:14Z</time>
      </trkpt>
      <trkpt lat="40.094261" lon="-.739845">
        <ele>983.645</ele>
        <time>2020-08-29T12:32:16Z</time>
      </trkpt>
      <trkpt lat="40.094222" lon="-.739816">
        <ele>983.833</ele>
        <time>2020-08-29T12:32:17Z</time>
      </trkpt>
      <trkpt lat="40.094181" lon="-.739791">
        <ele>983.840</ele>
        <time>2020-08-29T12:32:18Z</time>
      </trkpt>
      <trkpt lat="40.094113" lon="-.739732">
        <ele>984.818</ele>
        <time>2020-08-29T12:32:20Z</time>
      </trkpt>
      <trkpt lat="40.094073" lon="-.739702">
        <ele>984.928</ele>
        <time>2020-08-29T12:32:21Z</time>
      </trkpt>
      <trkpt lat="40.094037" lon="-.739667">
        <ele>985.012</ele>
        <time>2020-08-29T12:32:22Z</time>
      </trkpt>
      <trkpt lat="40.09397" lon="-.739597">
        <ele>984.832</ele>
        <time>2020-08-29T12:32:24Z</time>
      </trkpt>
      <trkpt lat="40.093934" lon="-.739557">
        <ele>984.405</ele>
        <time>2020-08-29T12:32:25Z</time>
      </trkpt>
      <trkpt lat="40.093902" lon="-.739514">
        <ele>984.408</ele>
        <time>2020-08-29T12:32:26Z</time>
      </trkpt>
      <trkpt lat="40.093846" lon="-.739441">
        <ele>984.356</ele>
        <time>2020-08-29T12:32:28Z</time>
      </trkpt>
      <trkpt lat="40.093814" lon="-.739398">
        <ele>984.226</ele>
        <time>2020-08-29T12:32:29Z</time>
      </trkpt>
      <trkpt lat="40.093748" lon="-.739317">
        <ele>983.998</ele>
        <time>2020-08-29T12:32:31Z</time>
      </trkpt>
      <trkpt lat="40.093722" lon="-.739268">
        <ele>983.950</ele>
        <time>2020-08-29T12:32:32Z</time>
      </trkpt>
      <trkpt lat="40.093662" lon="-.739178">
        <ele>984.268</ele>
        <time>2020-08-29T12:32:34Z</time>
      </trkpt>
      <trkpt lat="40.093609" lon="-.739094">
        <ele>984.585</ele>
        <time>2020-08-29T12:32:36Z</time>
      </trkpt>
      <trkpt lat="40.093559" lon="-.739013">
        <ele>985.013</ele>
        <time>2020-08-29T12:32:38Z</time>
      </trkpt>
      <trkpt lat="40.093507" lon="-.738924">
        <ele>984.993</ele>
        <time>2020-08-29T12:32:40Z</time>
      </trkpt>
      <trkpt lat="40.093477" lon="-.738879">
        <ele>984.959</ele>
        <time>2020-08-29T12:32:41Z</time>
      </trkpt>
      <trkpt lat="40.093455" lon="-.738826">
        <ele>984.903</ele>
        <time>2020-08-29T12:32:42Z</time>
      </trkpt>
      <trkpt lat="40.093406" lon="-.738741">
        <ele>984.723</ele>
        <time>2020-08-29T12:32:44Z</time>
      </trkpt>
      <trkpt lat="40.093375" lon="-.738694">
        <ele>984.808</ele>
        <time>2020-08-29T12:32:45Z</time>
      </trkpt>
      <trkpt lat="40.093346" lon="-.738646">
        <ele>985.020</ele>
        <time>2020-08-29T12:32:46Z</time>
      </trkpt>
      <trkpt lat="40.09329" lon="-.738561">
        <ele>985.390</ele>
        <time>2020-08-29T12:32:48Z</time>
      </trkpt>
      <trkpt lat="40.093261" lon="-.738514">
        <ele>985.522</ele>
        <time>2020-08-29T12:32:49Z</time>
      </trkpt>
      <trkpt lat="40.093214" lon="-.738422">
        <ele>985.824</ele>
        <time>2020-08-29T12:32:51Z</time>
      </trkpt>
      <trkpt lat="40.093166" lon="-.738339">
        <ele>985.552</ele>
        <time>2020-08-29T12:32:53Z</time>
      </trkpt>
      <trkpt lat="40.093128" lon="-.73829">
        <ele>985.439</ele>
        <time>2020-08-29T12:32:54Z</time>
      </trkpt>
      <trkpt lat="40.093079" lon="-.738198">
        <ele>985.427</ele>
        <time>2020-08-29T12:32:56Z</time>
      </trkpt>
      <trkpt lat="40.09305" lon="-.738149">
        <ele>985.717</ele>
        <time>2020-08-29T12:32:57Z</time>
      </trkpt>
      <trkpt lat="40.092998" lon="-.738068">
        <ele>986.231</ele>
        <time>2020-08-29T12:32:59Z</time>
      </trkpt>
      <trkpt lat="40.092952" lon="-.73797">
        <ele>986.961</ele>
        <time>2020-08-29T12:33:01Z</time>
      </trkpt>
      <trkpt lat="40.092902" lon="-.737877">
        <ele>986.907</ele>
        <time>2020-08-29T12:33:03Z</time>
      </trkpt>
      <trkpt lat="40.092865" lon="-.73784">
        <ele>986.708</ele>
        <time>2020-08-29T12:33:04Z</time>
      </trkpt>
      <trkpt lat="40.092822" lon="-.737751">
        <ele>986.768</ele>
        <time>2020-08-29T12:33:06Z</time>
      </trkpt>
      <trkpt lat="40.09277" lon="-.737669">
        <ele>986.868</ele>
        <time>2020-08-29T12:33:08Z</time>
      </trkpt>
      <trkpt lat="40.092736" lon="-.737606">
        <ele>986.920</ele>
        <time>2020-08-29T12:33:09Z</time>
      </trkpt>
      <trkpt lat="40.092699" lon="-.737563">
        <ele>987.012</ele>
        <time>2020-08-29T12:33:10Z</time>
      </trkpt>
      <trkpt lat="40.092661" lon="-.737527">
        <ele>987.380</ele>
        <time>2020-08-29T12:33:11Z</time>
      </trkpt>
      <trkpt lat="40.092602" lon="-.737449">
        <ele>986.967</ele>
        <time>2020-08-29T12:33:13Z</time>
      </trkpt>
      <trkpt lat="40.092568" lon="-.737401">
        <ele>986.915</ele>
        <time>2020-08-29T12:33:14Z</time>
      </trkpt>
      <trkpt lat="40.092511" lon="-.737323">
        <ele>987.095</ele>
        <time>2020-08-29T12:33:16Z</time>
      </trkpt>
      <trkpt lat="40.092476" lon="-.737281">
        <ele>987.086</ele>
        <time>2020-08-29T12:33:17Z</time>
      </trkpt>
      <trkpt lat="40.092428" lon="-.737249">
        <ele>987.060</ele>
        <time>2020-08-29T12:33:18Z</time>
      </trkpt>
      <trkpt lat="40.092359" lon="-.73717">
        <ele>987.026</ele>
        <time>2020-08-29T12:33:20Z</time>
      </trkpt>
      <trkpt lat="40.09231" lon="-.737141">
        <ele>987.008</ele>
        <time>2020-08-29T12:33:21Z</time>
      </trkpt>
      <trkpt lat="40.092266" lon="-.737108">
        <ele>987.013</ele>
        <time>2020-08-29T12:33:22Z</time>
      </trkpt>
      <trkpt lat="40.09222" lon="-.737079">
        <ele>987.063</ele>
        <time>2020-08-29T12:33:23Z</time>
      </trkpt>
      <trkpt lat="40.092172" lon="-.737042">
        <ele>987.065</ele>
        <time>2020-08-29T12:33:24Z</time>
      </trkpt>
      <trkpt lat="40.092125" lon="-.737013">
        <ele>987.067</ele>
        <time>2020-08-29T12:33:25Z</time>
      </trkpt>
      <trkpt lat="40.092083" lon="-.736984">
        <ele>986.985</ele>
        <time>2020-08-29T12:33:26Z</time>
      </trkpt>
      <trkpt lat="40.092045" lon="-.73695">
        <ele>986.872</ele>
        <time>2020-08-29T12:33:27Z</time>
      </trkpt>
      <trkpt lat="40.091995" lon="-.736925">
        <ele>986.840</ele>
        <time>2020-08-29T12:33:28Z</time>
      </trkpt>
      <trkpt lat="40.09194" lon="-.736907">
        <ele>987.120</ele>
        <time>2020-08-29T12:33:29Z</time>
      </trkpt>
      <trkpt lat="40.091868" lon="-.736864">
        <ele>987.016</ele>
        <time>2020-08-29T12:33:31Z</time>
      </trkpt>
      <trkpt lat="40.091772" lon="-.736843">
        <ele>986.976</ele>
        <time>2020-08-29T12:33:33Z</time>
      </trkpt>
      <trkpt lat="40.091726" lon="-.736826">
        <ele>986.513</ele>
        <time>2020-08-29T12:33:34Z</time>
      </trkpt>
      <trkpt lat="40.091666" lon="-.736817">
        <ele>986.508</ele>
        <time>2020-08-29T12:33:35Z</time>
      </trkpt>
      <trkpt lat="40.091587" lon="-.736795">
        <ele>986.966</ele>
        <time>2020-08-29T12:33:37Z</time>
      </trkpt>
      <trkpt lat="40.091498" lon="-.736771">
        <ele>987.036</ele>
        <time>2020-08-29T12:33:39Z</time>
      </trkpt>
      <trkpt lat="40.091413" lon="-.736763">
        <ele>987.268</ele>
        <time>2020-08-29T12:33:41Z</time>
      </trkpt>
      <trkpt lat="40.09132" lon="-.736752">
        <ele>986.940</ele>
        <time>2020-08-29T12:33:43Z</time>
      </trkpt>
      <trkpt lat="40.091273" lon="-.736747">
        <ele>986.948</ele>
        <time>2020-08-29T12:33:44Z</time>
      </trkpt>
      <trkpt lat="40.091197" lon="-.73674">
        <ele>987.245</ele>
        <time>2020-08-29T12:33:46Z</time>
      </trkpt>
      <trkpt lat="40.091151" lon="-.736737">
        <ele>987.243</ele>
        <time>2020-08-29T12:33:47Z</time>
      </trkpt>
      <trkpt lat="40.091105" lon="-.736739">
        <ele>987.333</ele>
        <time>2020-08-29T12:33:48Z</time>
      </trkpt>
      <trkpt lat="40.091048" lon="-.736734">
        <ele>987.319</ele>
        <time>2020-08-29T12:33:49Z</time>
      </trkpt>
      <trkpt lat="40.091002" lon="-.73673">
        <ele>987.309</ele>
        <time>2020-08-29T12:33:50Z</time>
      </trkpt>
      <trkpt lat="40.090954" lon="-.73672">
        <ele>987.319</ele>
        <time>2020-08-29T12:33:51Z</time>
      </trkpt>
      <trkpt lat="40.090908" lon="-.736718">
        <ele>987.108</ele>
        <time>2020-08-29T12:33:52Z</time>
      </trkpt>
      <trkpt lat="40.090859" lon="-.736715">
        <ele>987.136</ele>
        <time>2020-08-29T12:33:53Z</time>
      </trkpt>
      <trkpt lat="40.090785" lon="-.736706">
        <ele>987.486</ele>
        <time>2020-08-29T12:33:55Z</time>
      </trkpt>
      <trkpt lat="40.090709" lon="-.736693">
        <ele>987.558</ele>
        <time>2020-08-29T12:33:57Z</time>
      </trkpt>
      <trkpt lat="40.090633" lon="-.736681">
        <ele>987.720</ele>
        <time>2020-08-29T12:33:59Z</time>
      </trkpt>
      <trkpt lat="40.090582" lon="-.736683">
        <ele>987.738</ele>
        <time>2020-08-29T12:34:00Z</time>
      </trkpt>
      <trkpt lat="40.090499" lon="-.736674">
        <ele>987.765</ele>
        <time>2020-08-29T12:34:02Z</time>
      </trkpt>
      <trkpt lat="40.090418" lon="-.736671">
        <ele>987.763</ele>
        <time>2020-08-29T12:34:04Z</time>
      </trkpt>
      <trkpt lat="40.090327" lon="-.736669">
        <ele>987.873</ele>
        <time>2020-08-29T12:34:06Z</time>
      </trkpt>
      <trkpt lat="40.090277" lon="-.736661">
        <ele>987.816</ele>
        <time>2020-08-29T12:34:07Z</time>
      </trkpt>
      <trkpt lat="40.090191" lon="-.736652">
        <ele>987.376</ele>
        <time>2020-08-29T12:34:09Z</time>
      </trkpt>
      <trkpt lat="40.090102" lon="-.736652">
        <ele>987.413</ele>
        <time>2020-08-29T12:34:11Z</time>
      </trkpt>
      <trkpt lat="40.090016" lon="-.736642">
        <ele>987.508</ele>
        <time>2020-08-29T12:34:13Z</time>
      </trkpt>
      <trkpt lat="40.08994" lon="-.736639">
        <ele>987.826</ele>
        <time>2020-08-29T12:34:15Z</time>
      </trkpt>
      <trkpt lat="40.089854" lon="-.736627">
        <ele>988.036</ele>
        <time>2020-08-29T12:34:17Z</time>
      </trkpt>
      <trkpt lat="40.08978" lon="-.736621">
        <ele>987.348</ele>
        <time>2020-08-29T12:34:19Z</time>
      </trkpt>
      <trkpt lat="40.089697" lon="-.736615">
        <ele>987.380</ele>
        <time>2020-08-29T12:34:21Z</time>
      </trkpt>
      <trkpt lat="40.089648" lon="-.736606">
        <ele>987.518</ele>
        <time>2020-08-29T12:34:22Z</time>
      </trkpt>
      <trkpt lat="40.089563" lon="-.736599">
        <ele>987.965</ele>
        <time>2020-08-29T12:34:24Z</time>
      </trkpt>
      <trkpt lat="40.089477" lon="-.736593">
        <ele>988.153</ele>
        <time>2020-08-29T12:34:26Z</time>
      </trkpt>
      <trkpt lat="40.089428" lon="-.736579">
        <ele>988.163</ele>
        <time>2020-08-29T12:34:27Z</time>
      </trkpt>
      <trkpt lat="40.089342" lon="-.73658">
        <ele>988.013</ele>
        <time>2020-08-29T12:34:29Z</time>
      </trkpt>
      <trkpt lat="40.089269" lon="-.736576">
        <ele>987.943</ele>
        <time>2020-08-29T12:34:31Z</time>
      </trkpt>
      <trkpt lat="40.08922" lon="-.736572">
        <ele>987.907</ele>
        <time>2020-08-29T12:34:32Z</time>
      </trkpt>
      <trkpt lat="40.089133" lon="-.736575">
        <ele>987.908</ele>
        <time>2020-08-29T12:34:34Z</time>
      </trkpt>
      <trkpt lat="40.089068" lon="-.736571">
        <ele>988.176</ele>
        <time>2020-08-29T12:34:36Z</time>
      </trkpt>
      <trkpt lat="40.089018" lon="-.736565">
        <ele>988.126</ele>
        <time>2020-08-29T12:34:37Z</time>
      </trkpt>
      <trkpt lat="40.088935" lon="-.73656">
        <ele>988.268</ele>
        <time>2020-08-29T12:34:39Z</time>
      </trkpt>
      <trkpt lat="40.088856" lon="-.736557">
        <ele>988.240</ele>
        <time>2020-08-29T12:34:41Z</time>
      </trkpt>
      <trkpt lat="40.088788" lon="-.736544">
        <ele>988.348</ele>
        <time>2020-08-29T12:34:43Z</time>
      </trkpt>
      <trkpt lat="40.088715" lon="-.73654">
        <ele>988.525</ele>
        <time>2020-08-29T12:34:45Z</time>
      </trkpt>
      <trkpt lat="40.088641" lon="-.736525">
        <ele>988.823</ele>
        <time>2020-08-29T12:34:47Z</time>
      </trkpt>
      <trkpt lat="40.088579" lon="-.736517">
        <ele>989.033</ele>
        <time>2020-08-29T12:34:49Z</time>
      </trkpt>
      <trkpt lat="40.088505" lon="-.73651">
        <ele>989.074</ele>
        <time>2020-08-29T12:34:51Z</time>
      </trkpt>
      <trkpt lat="40.088438" lon="-.736504">
        <ele>988.956</ele>
        <time>2020-08-29T12:34:53Z</time>
      </trkpt>
      <trkpt lat="40.088369" lon="-.736492">
        <ele>988.821</ele>
        <time>2020-08-29T12:34:55Z</time>
      </trkpt>
      <trkpt lat="40.088295" lon="-.736502">
        <ele>988.708</ele>
        <time>2020-08-29T12:34:57Z</time>
      </trkpt>
      <trkpt lat="40.088243" lon="-.736489">
        <ele>988.552</ele>
        <time>2020-08-29T12:34:59Z</time>
      </trkpt>
      <trkpt lat="40.088176" lon="-.736486">
        <ele>988.562</ele>
        <time>2020-08-29T12:35:01Z</time>
      </trkpt>
      <trkpt lat="40.088105" lon="-.736484">
        <ele>989.284</ele>
        <time>2020-08-29T12:35:03Z</time>
      </trkpt>
      <trkpt lat="40.08805" lon="-.736474">
        <ele>989.186</ele>
        <time>2020-08-29T12:35:05Z</time>
      </trkpt>
      <trkpt lat="40.087974" lon="-.736469">
        <ele>988.894</ele>
        <time>2020-08-29T12:35:07Z</time>
      </trkpt>
      <trkpt lat="40.087905" lon="-.736473">
        <ele>988.891</ele>
        <time>2020-08-29T12:35:09Z</time>
      </trkpt>
      <trkpt lat="40.087829" lon="-.736458">
        <ele>988.959</ele>
        <time>2020-08-29T12:35:11Z</time>
      </trkpt>
      <trkpt lat="40.087768" lon="-.736455">
        <ele>988.919</ele>
        <time>2020-08-29T12:35:13Z</time>
      </trkpt>
      <trkpt lat="40.087704" lon="-.736448">
        <ele>988.948</ele>
        <time>2020-08-29T12:35:15Z</time>
      </trkpt>
      <trkpt lat="40.087628" lon="-.736447">
        <ele>989.061</ele>
        <time>2020-08-29T12:35:17Z</time>
      </trkpt>
      <trkpt lat="40.087556" lon="-.736442">
        <ele>989.017</ele>
        <time>2020-08-29T12:35:19Z</time>
      </trkpt>
      <trkpt lat="40.087482" lon="-.736429">
        <ele>988.708</ele>
        <time>2020-08-29T12:35:21Z</time>
      </trkpt>
      <trkpt lat="40.08741" lon="-.736417">
        <ele>988.589</ele>
        <time>2020-08-29T12:35:23Z</time>
      </trkpt>
      <trkpt lat="40.087325" lon="-.73642">
        <ele>988.729</ele>
        <time>2020-08-29T12:35:25Z</time>
      </trkpt>
      <trkpt lat="40.087251" lon="-.736405">
        <ele>988.811</ele>
        <time>2020-08-29T12:35:27Z</time>
      </trkpt>
      <trkpt lat="40.087167" lon="-.736405">
        <ele>988.813</ele>
        <time>2020-08-29T12:35:29Z</time>
      </trkpt>
      <trkpt lat="40.087085" lon="-.736401">
        <ele>988.891</ele>
        <time>2020-08-29T12:35:31Z</time>
      </trkpt>
      <trkpt lat="40.087013" lon="-.736399">
        <ele>988.888</ele>
        <time>2020-08-29T12:35:33Z</time>
      </trkpt>
      <trkpt lat="40.086946" lon="-.736393">
        <ele>988.886</ele>
        <time>2020-08-29T12:35:35Z</time>
      </trkpt>
      <trkpt lat="40.086876" lon="-.736369">
        <ele>989.146</ele>
        <time>2020-08-29T12:35:37Z</time>
      </trkpt>
      <trkpt lat="40.086794" lon="-.736371">
        <ele>989.139</ele>
        <time>2020-08-29T12:35:39Z</time>
      </trkpt>
      <trkpt lat="40.086724" lon="-.736357">
        <ele>989.001</ele>
        <time>2020-08-29T12:35:41Z</time>
      </trkpt>
      <trkpt lat="40.086678" lon="-.736352">
        <ele>988.921</ele>
        <time>2020-08-29T12:35:42Z</time>
      </trkpt>
      <trkpt lat="40.086615" lon="-.736364">
        <ele>989.008</ele>
        <time>2020-08-29T12:35:44Z</time>
      </trkpt>
      <trkpt lat="40.086532" lon="-.73635">
        <ele>989.398</ele>
        <time>2020-08-29T12:35:46Z</time>
      </trkpt>
      <trkpt lat="40.086464" lon="-.736356">
        <ele>989.838</ele>
        <time>2020-08-29T12:35:48Z</time>
      </trkpt>
      <trkpt lat="40.086418" lon="-.736348">
        <ele>989.890</ele>
        <time>2020-08-29T12:35:49Z</time>
      </trkpt>
      <trkpt lat="40.086331" lon="-.736332">
        <ele>989.632</ele>
        <time>2020-08-29T12:35:51Z</time>
      </trkpt>
      <trkpt lat="40.086259" lon="-.736331">
        <ele>989.790</ele>
        <time>2020-08-29T12:35:53Z</time>
      </trkpt>
      <trkpt lat="40.086185" lon="-.736322">
        <ele>989.627</ele>
        <time>2020-08-29T12:35:55Z</time>
      </trkpt>
      <trkpt lat="40.086111" lon="-.736306">
        <ele>989.315</ele>
        <time>2020-08-29T12:35:57Z</time>
      </trkpt>
      <trkpt lat="40.08606" lon="-.736328">
        <ele>989.825</ele>
        <time>2020-08-29T12:35:58Z</time>
      </trkpt>
      <trkpt lat="40.085973" lon="-.736327">
        <ele>989.975</ele>
        <time>2020-08-29T12:36:00Z</time>
      </trkpt>
      <trkpt lat="40.085896" lon="-.736316">
        <ele>990.128</ele>
        <time>2020-08-29T12:36:02Z</time>
      </trkpt>
      <trkpt lat="40.085805" lon="-.736306">
        <ele>989.720</ele>
        <time>2020-08-29T12:36:04Z</time>
      </trkpt>
      <trkpt lat="40.08572" lon="-.736289">
        <ele>989.608</ele>
        <time>2020-08-29T12:36:06Z</time>
      </trkpt>
      <trkpt lat="40.085653" lon="-.736274">
        <ele>989.682</ele>
        <time>2020-08-29T12:36:08Z</time>
      </trkpt>
      <trkpt lat="40.085563" lon="-.736273">
        <ele>990.072</ele>
        <time>2020-08-29T12:36:10Z</time>
      </trkpt>
      <trkpt lat="40.08548" lon="-.736263">
        <ele>990.424</ele>
        <time>2020-08-29T12:36:12Z</time>
      </trkpt>
      <trkpt lat="40.085397" lon="-.736254">
        <ele>990.356</ele>
        <time>2020-08-29T12:36:14Z</time>
      </trkpt>
      <trkpt lat="40.08532" lon="-.736245">
        <ele>990.014</ele>
        <time>2020-08-29T12:36:16Z</time>
      </trkpt>
      <trkpt lat="40.085272" lon="-.736235">
        <ele>989.961</ele>
        <time>2020-08-29T12:36:17Z</time>
      </trkpt>
      <trkpt lat="40.085206" lon="-.73624">
        <ele>989.959</ele>
        <time>2020-08-29T12:36:19Z</time>
      </trkpt>
      <trkpt lat="40.085129" lon="-.736239">
        <ele>989.969</ele>
        <time>2020-08-29T12:36:21Z</time>
      </trkpt>
      <trkpt lat="40.085058" lon="-.736237">
        <ele>989.912</ele>
        <time>2020-08-29T12:36:23Z</time>
      </trkpt>
      <trkpt lat="40.084983" lon="-.7362">
        <ele>989.932</ele>
        <time>2020-08-29T12:36:25Z</time>
      </trkpt>
      <trkpt lat="40.084938" lon="-.736207">
        <ele>989.905</ele>
        <time>2020-08-29T12:36:26Z</time>
      </trkpt>
      <trkpt lat="40.08489" lon="-.736196">
        <ele>989.808</ele>
        <time>2020-08-29T12:36:27Z</time>
      </trkpt>
      <trkpt lat="40.084807" lon="-.736188">
        <ele>989.646</ele>
        <time>2020-08-29T12:36:29Z</time>
      </trkpt>
      <trkpt lat="40.084757" lon="-.736185">
        <ele>989.686</ele>
        <time>2020-08-29T12:36:30Z</time>
      </trkpt>
      <trkpt lat="40.084711" lon="-.73618">
        <ele>989.668</ele>
        <time>2020-08-29T12:36:31Z</time>
      </trkpt>
      <trkpt lat="40.084658" lon="-.736174">
        <ele>989.670</ele>
        <time>2020-08-29T12:36:32Z</time>
      </trkpt>
      <trkpt lat="40.084582" lon="-.736172">
        <ele>989.658</ele>
        <time>2020-08-29T12:36:34Z</time>
      </trkpt>
      <trkpt lat="40.084505" lon="-.736158">
        <ele>989.685</ele>
        <time>2020-08-29T12:36:36Z</time>
      </trkpt>
      <trkpt lat="40.084451" lon="-.736161">
        <ele>989.613</ele>
        <time>2020-08-29T12:36:37Z</time>
      </trkpt>
      <trkpt lat="40.084365" lon="-.736158">
        <ele>989.323</ele>
        <time>2020-08-29T12:36:39Z</time>
      </trkpt>
      <trkpt lat="40.084273" lon="-.736147">
        <ele>989.618</ele>
        <time>2020-08-29T12:36:41Z</time>
      </trkpt>
      <trkpt lat="40.084223" lon="-.736152">
        <ele>989.698</ele>
        <time>2020-08-29T12:36:42Z</time>
      </trkpt>
      <trkpt lat="40.084176" lon="-.736147">
        <ele>989.717</ele>
        <time>2020-08-29T12:36:43Z</time>
      </trkpt>
      <trkpt lat="40.0841" lon="-.736135">
        <ele>990.308</ele>
        <time>2020-08-29T12:36:45Z</time>
      </trkpt>
      <trkpt lat="40.084015" lon="-.736121">
        <ele>990.196</ele>
        <time>2020-08-29T12:36:47Z</time>
      </trkpt>
      <trkpt lat="40.083971" lon="-.736101">
        <ele>990.196</ele>
        <time>2020-08-29T12:36:48Z</time>
      </trkpt>
      <trkpt lat="40.08389" lon="-.736083">
        <ele>990.188</ele>
        <time>2020-08-29T12:36:50Z</time>
      </trkpt>
      <trkpt lat="40.083832" lon="-.73605">
        <ele>990.190</ele>
        <time>2020-08-29T12:36:52Z</time>
      </trkpt>
      <trkpt lat="40.08375" lon="-.736032">
        <ele>990.218</ele>
        <time>2020-08-29T12:36:54Z</time>
      </trkpt>
      <trkpt lat="40.083678" lon="-.735998">
        <ele>990.215</ele>
        <time>2020-08-29T12:36:56Z</time>
      </trkpt>
      <trkpt lat="40.083611" lon="-.73596">
        <ele>990.543</ele>
        <time>2020-08-29T12:36:58Z</time>
      </trkpt>
      <trkpt lat="40.083532" lon="-.735917">
        <ele>991.023</ele>
        <time>2020-08-29T12:37:00Z</time>
      </trkpt>
      <trkpt lat="40.083455" lon="-.735876">
        <ele>991.242</ele>
        <time>2020-08-29T12:37:02Z</time>
      </trkpt>
      <trkpt lat="40.083388" lon="-.735837">
        <ele>991.022</ele>
        <time>2020-08-29T12:37:04Z</time>
      </trkpt>
      <trkpt lat="40.083344" lon="-.735816">
        <ele>991.014</ele>
        <time>2020-08-29T12:37:05Z</time>
      </trkpt>
      <trkpt lat="40.083271" lon="-.735777">
        <ele>991.008</ele>
        <time>2020-08-29T12:37:07Z</time>
      </trkpt>
      <trkpt lat="40.083213" lon="-.735744">
        <ele>990.929</ele>
        <time>2020-08-29T12:37:09Z</time>
      </trkpt>
      <trkpt lat="40.083154" lon="-.735685">
        <ele>990.729</ele>
        <time>2020-08-29T12:37:11Z</time>
      </trkpt>
      <trkpt lat="40.083092" lon="-.735634">
        <ele>990.641</ele>
        <time>2020-08-29T12:37:13Z</time>
      </trkpt>
      <trkpt lat="40.083026" lon="-.735575">
        <ele>990.983</ele>
        <time>2020-08-29T12:37:15Z</time>
      </trkpt>
      <trkpt lat="40.082968" lon="-.735503">
        <ele>991.131</ele>
        <time>2020-08-29T12:37:17Z</time>
      </trkpt>
      <trkpt lat="40.082905" lon="-.735424">
        <ele>991.168</ele>
        <time>2020-08-29T12:37:19Z</time>
      </trkpt>
      <trkpt lat="40.082849" lon="-.735367">
        <ele>990.866</ele>
        <time>2020-08-29T12:37:21Z</time>
      </trkpt>
      <trkpt lat="40.082797" lon="-.735292">
        <ele>990.966</ele>
        <time>2020-08-29T12:37:23Z</time>
      </trkpt>
      <trkpt lat="40.082759" lon="-.73526">
        <ele>990.961</ele>
        <time>2020-08-29T12:37:24Z</time>
      </trkpt>
      <trkpt lat="40.0827" lon="-.735175">
        <ele>990.621</ele>
        <time>2020-08-29T12:37:26Z</time>
      </trkpt>
      <trkpt lat="40.082648" lon="-.735085">
        <ele>990.313</ele>
        <time>2020-08-29T12:37:28Z</time>
      </trkpt>
      <trkpt lat="40.082618" lon="-.73504">
        <ele>990.408</ele>
        <time>2020-08-29T12:37:29Z</time>
      </trkpt>
      <trkpt lat="40.082582" lon="-.734966">
        <ele>990.951</ele>
        <time>2020-08-29T12:37:31Z</time>
      </trkpt>
      <trkpt lat="40.082537" lon="-.734897">
        <ele>991.451</ele>
        <time>2020-08-29T12:37:33Z</time>
      </trkpt>
      <trkpt lat="40.082493" lon="-.734827">
        <ele>991.263</ele>
        <time>2020-08-29T12:37:35Z</time>
      </trkpt>
      <trkpt lat="40.082464" lon="-.734781">
        <ele>991.235</ele>
        <time>2020-08-29T12:37:37Z</time>
      </trkpt>
      <trkpt lat="40.082431" lon="-.734708">
        <ele>991.263</ele>
        <time>2020-08-29T12:37:39Z</time>
      </trkpt>
      <trkpt lat="40.082391" lon="-.734634">
        <ele>991.290</ele>
        <time>2020-08-29T12:37:41Z</time>
      </trkpt>
      <trkpt lat="40.082355" lon="-.734574">
        <ele>991.188</ele>
        <time>2020-08-29T12:37:43Z</time>
      </trkpt>
      <trkpt lat="40.0823" lon="-.734487">
        <ele>990.718</ele>
        <time>2020-08-29T12:37:45Z</time>
      </trkpt>
      <trkpt lat="40.082247" lon="-.734404">
        <ele>991.167</ele>
        <time>2020-08-29T12:37:47Z</time>
      </trkpt>
      <trkpt lat="40.082227" lon="-.734351">
        <ele>991.581</ele>
        <time>2020-08-29T12:37:48Z</time>
      </trkpt>
      <trkpt lat="40.082193" lon="-.734305">
        <ele>991.319</ele>
        <time>2020-08-29T12:37:49Z</time>
      </trkpt>
      <trkpt lat="40.08215" lon="-.734223">
        <ele>991.308</ele>
        <time>2020-08-29T12:37:51Z</time>
      </trkpt>
      <trkpt lat="40.082104" lon="-.734138">
        <ele>991.541</ele>
        <time>2020-08-29T12:37:53Z</time>
      </trkpt>
      <trkpt lat="40.082044" lon="-.734049">
        <ele>991.871</ele>
        <time>2020-08-29T12:37:55Z</time>
      </trkpt>
      <trkpt lat="40.082018" lon="-.733999">
        <ele>991.833</ele>
        <time>2020-08-29T12:37:56Z</time>
      </trkpt>
      <trkpt lat="40.081963" lon="-.733904">
        <ele>991.755</ele>
        <time>2020-08-29T12:37:58Z</time>
      </trkpt>
      <trkpt lat="40.081913" lon="-.733819">
        <ele>991.533</ele>
        <time>2020-08-29T12:38:00Z</time>
      </trkpt>
      <trkpt lat="40.081883" lon="-.733771">
        <ele>991.570</ele>
        <time>2020-08-29T12:38:01Z</time>
      </trkpt>
      <trkpt lat="40.081832" lon="-.733681">
        <ele>991.898</ele>
        <time>2020-08-29T12:38:03Z</time>
      </trkpt>
      <trkpt lat="40.081802" lon="-.733627">
        <ele>991.988</ele>
        <time>2020-08-29T12:38:04Z</time>
      </trkpt>
      <trkpt lat="40.081757" lon="-.733544">
        <ele>992.716</ele>
        <time>2020-08-29T12:38:06Z</time>
      </trkpt>
      <trkpt lat="40.08173" lon="-.733495">
        <ele>992.776</ele>
        <time>2020-08-29T12:38:07Z</time>
      </trkpt>
      <trkpt lat="40.081678" lon="-.733405">
        <ele>992.513</ele>
        <time>2020-08-29T12:38:09Z</time>
      </trkpt>
      <trkpt lat="40.081649" lon="-.733358">
        <ele>992.408</ele>
        <time>2020-08-29T12:38:10Z</time>
      </trkpt>
      <trkpt lat="40.081601" lon="-.733277">
        <ele>992.576</ele>
        <time>2020-08-29T12:38:12Z</time>
      </trkpt>
      <trkpt lat="40.081563" lon="-.733202">
        <ele>992.196</ele>
        <time>2020-08-29T12:38:14Z</time>
      </trkpt>
      <trkpt lat="40.081512" lon="-.733116">
        <ele>992.298</ele>
        <time>2020-08-29T12:38:16Z</time>
      </trkpt>
      <trkpt lat="40.081464" lon="-.733026">
        <ele>992.340</ele>
        <time>2020-08-29T12:38:18Z</time>
      </trkpt>
      <trkpt lat="40.081411" lon="-.73295">
        <ele>992.398</ele>
        <time>2020-08-29T12:38:20Z</time>
      </trkpt>
      <trkpt lat="40.08136" lon="-.732856">
        <ele>992.445</ele>
        <time>2020-08-29T12:38:22Z</time>
      </trkpt>
      <trkpt lat="40.081334" lon="-.732803">
        <ele>992.423</ele>
        <time>2020-08-29T12:38:23Z</time>
      </trkpt>
      <trkpt lat="40.081293" lon="-.732718">
        <ele>992.343</ele>
        <time>2020-08-29T12:38:25Z</time>
      </trkpt>
      <trkpt lat="40.081242" lon="-.732636">
        <ele>992.314</ele>
        <time>2020-08-29T12:38:27Z</time>
      </trkpt>
      <trkpt lat="40.081198" lon="-.732554">
        <ele>992.354</ele>
        <time>2020-08-29T12:38:29Z</time>
      </trkpt>
      <trkpt lat="40.081159" lon="-.732485">
        <ele>992.609</ele>
        <time>2020-08-29T12:38:31Z</time>
      </trkpt>
      <trkpt lat="40.081125" lon="-.732419">
        <ele>993.508</ele>
        <time>2020-08-29T12:38:33Z</time>
      </trkpt>
      <trkpt lat="40.081084" lon="-.732362">
        <ele>994.076</ele>
        <time>2020-08-29T12:38:35Z</time>
      </trkpt>
      <trkpt lat="40.081051" lon="-.732281">
        <ele>993.686</ele>
        <time>2020-08-29T12:38:37Z</time>
      </trkpt>
      <trkpt lat="40.081019" lon="-.732238">
        <ele>993.388</ele>
        <time>2020-08-29T12:38:38Z</time>
      </trkpt>
      <trkpt lat="40.080986" lon="-.732189">
        <ele>993.140</ele>
        <time>2020-08-29T12:38:39Z</time>
      </trkpt>
      <trkpt lat="40.080939" lon="-.732099">
        <ele>993.528</ele>
        <time>2020-08-29T12:38:41Z</time>
      </trkpt>
      <trkpt lat="40.080891" lon="-.732006">
        <ele>993.765</ele>
        <time>2020-08-29T12:38:43Z</time>
      </trkpt>
      <trkpt lat="40.080853" lon="-.731952">
        <ele>993.613</ele>
        <time>2020-08-29T12:38:44Z</time>
      </trkpt>
      <trkpt lat="40.080799" lon="-.731853">
        <ele>992.953</ele>
        <time>2020-08-29T12:38:46Z</time>
      </trkpt>
      <trkpt lat="40.08077" lon="-.731807">
        <ele>993.284</ele>
        <time>2020-08-29T12:38:47Z</time>
      </trkpt>
      <trkpt lat="40.080734" lon="-.731754">
        <ele>993.207</ele>
        <time>2020-08-29T12:38:48Z</time>
      </trkpt>
      <trkpt lat="40.080687" lon="-.731662">
        <ele>993.417</ele>
        <time>2020-08-29T12:38:50Z</time>
      </trkpt>
      <trkpt lat="40.080654" lon="-.731617">
        <ele>993.808</ele>
        <time>2020-08-29T12:38:51Z</time>
      </trkpt>
      <trkpt lat="40.080622" lon="-.73157">
        <ele>993.813</ele>
        <time>2020-08-29T12:38:52Z</time>
      </trkpt>
      <trkpt lat="40.080591" lon="-.731525">
        <ele>993.363</ele>
        <time>2020-08-29T12:38:53Z</time>
      </trkpt>
      <trkpt lat="40.080539" lon="-.731448">
        <ele>993.315</ele>
        <time>2020-08-29T12:38:55Z</time>
      </trkpt>
      <trkpt lat="40.080495" lon="-.731383">
        <ele>994.197</ele>
        <time>2020-08-29T12:38:57Z</time>
      </trkpt>
      <trkpt lat="40.080441" lon="-.731309">
        <ele>994.455</ele>
        <time>2020-08-29T12:38:59Z</time>
      </trkpt>
      <trkpt lat="40.080384" lon="-.731235">
        <ele>993.992</ele>
        <time>2020-08-29T12:39:01Z</time>
      </trkpt>
      <trkpt lat="40.080323" lon="-.731163">
        <ele>993.970</ele>
        <time>2020-08-29T12:39:03Z</time>
      </trkpt>
      <trkpt lat="40.080256" lon="-.731087">
        <ele>993.820</ele>
        <time>2020-08-29T12:39:05Z</time>
      </trkpt>
      <trkpt lat="40.080189" lon="-.731028">
        <ele>993.344</ele>
        <time>2020-08-29T12:39:07Z</time>
      </trkpt>
      <trkpt lat="40.080148" lon="-.730999">
        <ele>993.205</ele>
        <time>2020-08-29T12:39:08Z</time>
      </trkpt>
      <trkpt lat="40.080108" lon="-.730964">
        <ele>993.215</ele>
        <time>2020-08-29T12:39:09Z</time>
      </trkpt>
      <trkpt lat="40.08003" lon="-.730906">
        <ele>993.508</ele>
        <time>2020-08-29T12:39:11Z</time>
      </trkpt>
      <trkpt lat="40.079951" lon="-.73085">
        <ele>993.869</ele>
        <time>2020-08-29T12:39:13Z</time>
      </trkpt>
      <trkpt lat="40.0799" lon="-.730833">
        <ele>994.069</ele>
        <time>2020-08-29T12:39:14Z</time>
      </trkpt>
      <trkpt lat="40.079854" lon="-.730802">
        <ele>994.011</ele>
        <time>2020-08-29T12:39:15Z</time>
      </trkpt>
      <trkpt lat="40.079805" lon="-.730782">
        <ele>993.243</ele>
        <time>2020-08-29T12:39:16Z</time>
      </trkpt>
      <trkpt lat="40.079756" lon="-.730756">
        <ele>993.151</ele>
        <time>2020-08-29T12:39:17Z</time>
      </trkpt>
      <trkpt lat="40.079707" lon="-.730712">
        <ele>992.878</ele>
        <time>2020-08-29T12:39:18Z</time>
      </trkpt>
      <trkpt lat="40.079658" lon="-.730675">
        <ele>992.836</ele>
        <time>2020-08-29T12:39:19Z</time>
      </trkpt>
      <trkpt lat="40.079617" lon="-.730628">
        <ele>992.826</ele>
        <time>2020-08-29T12:39:20Z</time>
      </trkpt>
      <trkpt lat="40.079579" lon="-.730589">
        <ele>993.041</ele>
        <time>2020-08-29T12:39:21Z</time>
      </trkpt>
      <trkpt lat="40.079499" lon="-.730526">
        <ele>993.181</ele>
        <time>2020-08-29T12:39:23Z</time>
      </trkpt>
      <trkpt lat="40.079424" lon="-.730475">
        <ele>993.609</ele>
        <time>2020-08-29T12:39:25Z</time>
      </trkpt>
      <trkpt lat="40.079355" lon="-.730437">
        <ele>993.708</ele>
        <time>2020-08-29T12:39:27Z</time>
      </trkpt>
      <trkpt lat="40.079292" lon="-.730403">
        <ele>993.899</ele>
        <time>2020-08-29T12:39:29Z</time>
      </trkpt>
      <trkpt lat="40.079227" lon="-.730341">
        <ele>993.699</ele>
        <time>2020-08-29T12:39:31Z</time>
      </trkpt>
      <trkpt lat="40.079155" lon="-.730304">
        <ele>993.481</ele>
        <time>2020-08-29T12:39:33Z</time>
      </trkpt>
      <trkpt lat="40.079116" lon="-.730274">
        <ele>993.443</ele>
        <time>2020-08-29T12:39:34Z</time>
      </trkpt>
      <trkpt lat="40.079055" lon="-.730236">
        <ele>993.711</ele>
        <time>2020-08-29T12:39:36Z</time>
      </trkpt>
      <trkpt lat="40.07902" lon="-.730198">
        <ele>993.848</ele>
        <time>2020-08-29T12:39:37Z</time>
      </trkpt>
      <trkpt lat="40.078944" lon="-.730146">
        <ele>993.816</ele>
        <time>2020-08-29T12:39:39Z</time>
      </trkpt>
      <trkpt lat="40.078898" lon="-.730121">
        <ele>993.886</ele>
        <time>2020-08-29T12:39:40Z</time>
      </trkpt>
      <trkpt lat="40.078828" lon="-.730069">
        <ele>993.811</ele>
        <time>2020-08-29T12:39:42Z</time>
      </trkpt>
      <trkpt lat="40.078755" lon="-.730009">
        <ele>993.521</ele>
        <time>2020-08-29T12:39:44Z</time>
      </trkpt>
      <trkpt lat="40.078694" lon="-.729954">
        <ele>993.803</ele>
        <time>2020-08-29T12:39:46Z</time>
      </trkpt>
      <trkpt lat="40.078651" lon="-.72992">
        <ele>993.908</ele>
        <time>2020-08-29T12:39:47Z</time>
      </trkpt>
      <trkpt lat="40.078563" lon="-.729866">
        <ele>994.026</ele>
        <time>2020-08-29T12:39:49Z</time>
      </trkpt>
      <trkpt lat="40.078481" lon="-.729812">
        <ele>994.346</ele>
        <time>2020-08-29T12:39:51Z</time>
      </trkpt>
      <trkpt lat="40.078439" lon="-.729789">
        <ele>994.148</ele>
        <time>2020-08-29T12:39:52Z</time>
      </trkpt>
      <trkpt lat="40.078371" lon="-.729719">
        <ele>994.330</ele>
        <time>2020-08-29T12:39:54Z</time>
      </trkpt>
      <trkpt lat="40.078331" lon="-.729689">
        <ele>994.348</ele>
        <time>2020-08-29T12:39:55Z</time>
      </trkpt>
      <trkpt lat="40.078284" lon="-.729677">
        <ele>994.415</ele>
        <time>2020-08-29T12:39:56Z</time>
      </trkpt>
      <trkpt lat="40.078231" lon="-.729659">
        <ele>994.633</ele>
        <time>2020-08-29T12:39:57Z</time>
      </trkpt>
      <trkpt lat="40.078185" lon="-.729628">
        <ele>994.683</ele>
        <time>2020-08-29T12:39:58Z</time>
      </trkpt>
      <trkpt lat="40.078103" lon="-.729576">
        <ele>994.786</ele>
        <time>2020-08-29T12:40:00Z</time>
      </trkpt>
      <trkpt lat="40.07806" lon="-.729549">
        <ele>994.860</ele>
        <time>2020-08-29T12:40:01Z</time>
      </trkpt>
      <trkpt lat="40.077984" lon="-.729511">
        <ele>995.026</ele>
        <time>2020-08-29T12:40:03Z</time>
      </trkpt>
      <trkpt lat="40.077906" lon="-.72947">
        <ele>995.408</ele>
        <time>2020-08-29T12:40:05Z</time>
      </trkpt>
      <trkpt lat="40.077837" lon="-.729426">
        <ele>995.013</ele>
        <time>2020-08-29T12:40:07Z</time>
      </trkpt>
      <trkpt lat="40.077769" lon="-.729397">
        <ele>994.883</ele>
        <time>2020-08-29T12:40:09Z</time>
      </trkpt>
      <trkpt lat="40.077701" lon="-.729351">
        <ele>994.735</ele>
        <time>2020-08-29T12:40:11Z</time>
      </trkpt>
      <trkpt lat="40.077635" lon="-.729298">
        <ele>994.617</ele>
        <time>2020-08-29T12:40:13Z</time>
      </trkpt>
      <trkpt lat="40.077596" lon="-.729268">
        <ele>994.675</ele>
        <time>2020-08-29T12:40:14Z</time>
      </trkpt>
      <trkpt lat="40.077518" lon="-.729231">
        <ele>994.652</ele>
        <time>2020-08-29T12:40:16Z</time>
      </trkpt>
      <trkpt lat="40.077443" lon="-.729174">
        <ele>995.040</ele>
        <time>2020-08-29T12:40:18Z</time>
      </trkpt>
      <trkpt lat="40.077402" lon="-.729148">
        <ele>995.040</ele>
        <time>2020-08-29T12:40:19Z</time>
      </trkpt>
      <trkpt lat="40.077342" lon="-.729109">
        <ele>995.481</ele>
        <time>2020-08-29T12:40:21Z</time>
      </trkpt>
      <trkpt lat="40.077303" lon="-.729074">
        <ele>995.461</ele>
        <time>2020-08-29T12:40:22Z</time>
      </trkpt>
      <trkpt lat="40.07722" lon="-.729033">
        <ele>995.217</ele>
        <time>2020-08-29T12:40:24Z</time>
      </trkpt>
      <trkpt lat="40.077159" lon="-.728974">
        <ele>995.208</ele>
        <time>2020-08-29T12:40:26Z</time>
      </trkpt>
      <trkpt lat="40.077121" lon="-.728942">
        <ele>995.393</ele>
        <time>2020-08-29T12:40:27Z</time>
      </trkpt>
      <trkpt lat="40.077045" lon="-.728893">
        <ele>995.233</ele>
        <time>2020-08-29T12:40:29Z</time>
      </trkpt>
      <trkpt lat="40.076998" lon="-.728865">
        <ele>995.215</ele>
        <time>2020-08-29T12:40:30Z</time>
      </trkpt>
      <trkpt lat="40.076921" lon="-.728815">
        <ele>994.917</ele>
        <time>2020-08-29T12:40:32Z</time>
      </trkpt>
      <trkpt lat="40.076883" lon="-.728783">
        <ele>994.615</ele>
        <time>2020-08-29T12:40:33Z</time>
      </trkpt>
      <trkpt lat="40.076822" lon="-.728731">
        <ele>994.662</ele>
        <time>2020-08-29T12:40:35Z</time>
      </trkpt>
      <trkpt lat="40.076777" lon="-.728708">
        <ele>994.810</ele>
        <time>2020-08-29T12:40:36Z</time>
      </trkpt>
      <trkpt lat="40.076733" lon="-.728687">
        <ele>995.070</ele>
        <time>2020-08-29T12:40:37Z</time>
      </trkpt>
      <trkpt lat="40.076662" lon="-.728628">
        <ele>995.478</ele>
        <time>2020-08-29T12:40:39Z</time>
      </trkpt>
      <trkpt lat="40.0766" lon="-.728575">
        <ele>995.833</ele>
        <time>2020-08-29T12:40:41Z</time>
      </trkpt>
      <trkpt lat="40.076556" lon="-.728539">
        <ele>995.826</ele>
        <time>2020-08-29T12:40:42Z</time>
      </trkpt>
      <trkpt lat="40.076486" lon="-.72849">
        <ele>995.608</ele>
        <time>2020-08-29T12:40:44Z</time>
      </trkpt>
      <trkpt lat="40.07644" lon="-.72846">
        <ele>995.122</ele>
        <time>2020-08-29T12:40:45Z</time>
      </trkpt>
      <trkpt lat="40.076355" lon="-.728415">
        <ele>995.222</ele>
        <time>2020-08-29T12:40:47Z</time>
      </trkpt>
      <trkpt lat="40.076282" lon="-.72836">
        <ele>995.424</ele>
        <time>2020-08-29T12:40:49Z</time>
      </trkpt>
      <trkpt lat="40.076208" lon="-.728309">
        <ele>995.816</ele>
        <time>2020-08-29T12:40:51Z</time>
      </trkpt>
      <trkpt lat="40.076129" lon="-.728266">
        <ele>996.274</ele>
        <time>2020-08-29T12:40:53Z</time>
      </trkpt>
      <trkpt lat="40.076051" lon="-.728211">
        <ele>996.611</ele>
        <time>2020-08-29T12:40:55Z</time>
      </trkpt>
      <trkpt lat="40.075988" lon="-.728161">
        <ele>996.949</ele>
        <time>2020-08-29T12:40:57Z</time>
      </trkpt>
      <trkpt lat="40.075946" lon="-.728137">
        <ele>996.979</ele>
        <time>2020-08-29T12:40:58Z</time>
      </trkpt>
      <trkpt lat="40.07587" lon="-.728105">
        <ele>997.069</ele>
        <time>2020-08-29T12:41:00Z</time>
      </trkpt>
      <trkpt lat="40.075789" lon="-.728061">
        <ele>997.104</ele>
        <time>2020-08-29T12:41:02Z</time>
      </trkpt>
      <trkpt lat="40.075708" lon="-.728018">
        <ele>997.024</ele>
        <time>2020-08-29T12:41:04Z</time>
      </trkpt>
      <trkpt lat="40.075627" lon="-.727975">
        <ele>997.008</ele>
        <time>2020-08-29T12:41:06Z</time>
      </trkpt>
      <trkpt lat="40.075552" lon="-.72792">
        <ele>997.351</ele>
        <time>2020-08-29T12:41:08Z</time>
      </trkpt>
      <trkpt lat="40.075469" lon="-.727873">
        <ele>997.321</ele>
        <time>2020-08-29T12:41:10Z</time>
      </trkpt>
      <trkpt lat="40.07543" lon="-.727831">
        <ele>997.423</ele>
        <time>2020-08-29T12:41:11Z</time>
      </trkpt>
      <trkpt lat="40.07537" lon="-.727798">
        <ele>997.635</ele>
        <time>2020-08-29T12:41:13Z</time>
      </trkpt>
      <trkpt lat="40.075304" lon="-.727744">
        <ele>997.873</ele>
        <time>2020-08-29T12:41:15Z</time>
      </trkpt>
      <trkpt lat="40.07523" lon="-.727709">
        <ele>997.230</ele>
        <time>2020-08-29T12:41:17Z</time>
      </trkpt>
      <trkpt lat="40.075163" lon="-.727664">
        <ele>997.968</ele>
        <time>2020-08-29T12:41:19Z</time>
      </trkpt>
      <trkpt lat="40.075098" lon="-.727607">
        <ele>998.978</ele>
        <time>2020-08-29T12:41:21Z</time>
      </trkpt>
      <trkpt lat="40.075043" lon="-.727551">
        <ele>998.995</ele>
        <time>2020-08-29T12:41:23Z</time>
      </trkpt>
      <trkpt lat="40.075003" lon="-.727522">
        <ele>998.849</ele>
        <time>2020-08-29T12:41:24Z</time>
      </trkpt>
      <trkpt lat="40.074952" lon="-.727453">
        <ele>1000.123</ele>
        <time>2020-08-29T12:41:26Z</time>
      </trkpt>
      <trkpt lat="40.074891" lon="-.727394">
        <ele>999.908</ele>
        <time>2020-08-29T12:41:28Z</time>
      </trkpt>
      <trkpt lat="40.074829" lon="-.727352">
        <ele>1001.414</ele>
        <time>2020-08-29T12:41:30Z</time>
      </trkpt>
      <trkpt lat="40.074769" lon="-.72731">
        <ele>1001.454</ele>
        <time>2020-08-29T12:41:32Z</time>
      </trkpt>
      <trkpt lat="40.074706" lon="-.72727">
        <ele>1001.976</ele>
        <time>2020-08-29T12:41:34Z</time>
      </trkpt>
      <trkpt lat="40.074639" lon="-.727226">
        <ele>1001.638</ele>
        <time>2020-08-29T12:41:36Z</time>
      </trkpt>
      <trkpt lat="40.074567" lon="-.727186">
        <ele>1001.326</ele>
        <time>2020-08-29T12:41:38Z</time>
      </trkpt>
      <trkpt lat="40.074528" lon="-.727155">
        <ele>1001.343</ele>
        <time>2020-08-29T12:41:39Z</time>
      </trkpt>
      <trkpt lat="40.074481" lon="-.727144">
        <ele>1001.221</ele>
        <time>2020-08-29T12:41:40Z</time>
      </trkpt>
      <trkpt lat="40.074399" lon="-.727098">
        <ele>1001.231</ele>
        <time>2020-08-29T12:41:42Z</time>
      </trkpt>
      <trkpt lat="40.074357" lon="-.727076">
        <ele>1001.198</ele>
        <time>2020-08-29T12:41:43Z</time>
      </trkpt>
      <trkpt lat="40.074276" lon="-.727031">
        <ele>1001.015</ele>
        <time>2020-08-29T12:41:45Z</time>
      </trkpt>
      <trkpt lat="40.074201" lon="-.726994">
        <ele>1001.026</ele>
        <time>2020-08-29T12:41:47Z</time>
      </trkpt>
      <trkpt lat="40.074126" lon="-.726949">
        <ele>1000.908</ele>
        <time>2020-08-29T12:41:49Z</time>
      </trkpt>
      <trkpt lat="40.074048" lon="-.726891">
        <ele>1000.864</ele>
        <time>2020-08-29T12:41:51Z</time>
      </trkpt>
      <trkpt lat="40.074001" lon="-.726875">
        <ele>1000.874</ele>
        <time>2020-08-29T12:41:52Z</time>
      </trkpt>
      <trkpt lat="40.073955" lon="-.726852">
        <ele>1000.546</ele>
        <time>2020-08-29T12:41:53Z</time>
      </trkpt>
      <trkpt lat="40.073903" lon="-.726831">
        <ele>1000.528</ele>
        <time>2020-08-29T12:41:54Z</time>
      </trkpt>
      <trkpt lat="40.073859" lon="-.726807">
        <ele>1000.866</ele>
        <time>2020-08-29T12:41:55Z</time>
      </trkpt>
      <trkpt lat="40.073816" lon="-.726789">
        <ele>1001.033</ele>
        <time>2020-08-29T12:41:56Z</time>
      </trkpt>
      <trkpt lat="40.073757" lon="-.726769">
        <ele>1001.011</ele>
        <time>2020-08-29T12:41:57Z</time>
      </trkpt>
      <trkpt lat="40.073713" lon="-.726748">
        <ele>1001.431</ele>
        <time>2020-08-29T12:41:58Z</time>
      </trkpt>
      <trkpt lat="40.073664" lon="-.726727">
        <ele>1001.429</ele>
        <time>2020-08-29T12:41:59Z</time>
      </trkpt>
      <trkpt lat="40.073577" lon="-.72669">
        <ele>1000.300</ele>
        <time>2020-08-29T12:42:01Z</time>
      </trkpt>
      <trkpt lat="40.073525" lon="-.726674">
        <ele>1000.220</ele>
        <time>2020-08-29T12:42:02Z</time>
      </trkpt>
      <trkpt lat="40.073479" lon="-.726653">
        <ele>1000.208</ele>
        <time>2020-08-29T12:42:03Z</time>
      </trkpt>
      <trkpt lat="40.073436" lon="-.726625">
        <ele>1000.267</ele>
        <time>2020-08-29T12:42:04Z</time>
      </trkpt>
      <trkpt lat="40.073381" lon="-.726593">
        <ele>1000.237</ele>
        <time>2020-08-29T12:42:05Z</time>
      </trkpt>
      <trkpt lat="40.073334" lon="-.726582">
        <ele>999.549</ele>
        <time>2020-08-29T12:42:06Z</time>
      </trkpt>
      <trkpt lat="40.073283" lon="-.726554">
        <ele>999.541</ele>
        <time>2020-08-29T12:42:07Z</time>
      </trkpt>
      <trkpt lat="40.07322" lon="-.726527">
        <ele>999.529</ele>
        <time>2020-08-29T12:42:08Z</time>
      </trkpt>
      <trkpt lat="40.073151" lon="-.726509">
        <ele>999.256</ele>
        <time>2020-08-29T12:42:09Z</time>
      </trkpt>
      <trkpt lat="40.073088" lon="-.726491">
        <ele>999.084</ele>
        <time>2020-08-29T12:42:10Z</time>
      </trkpt>
      <trkpt lat="40.073031" lon="-.726471">
        <ele>999.054</ele>
        <time>2020-08-29T12:42:11Z</time>
      </trkpt>
      <trkpt lat="40.072974" lon="-.726461">
        <ele>999.145</ele>
        <time>2020-08-29T12:42:12Z</time>
      </trkpt>
      <trkpt lat="40.07292" lon="-.726446">
        <ele>999.147</ele>
        <time>2020-08-29T12:42:13Z</time>
      </trkpt>
      <trkpt lat="40.07287" lon="-.72643">
        <ele>999.011</ele>
        <time>2020-08-29T12:42:14Z</time>
      </trkpt>
      <trkpt lat="40.072814" lon="-.726417">
        <ele>999.008</ele>
        <time>2020-08-29T12:42:15Z</time>
      </trkpt>
      <trkpt lat="40.072754" lon="-.726413">
        <ele>998.949</ele>
        <time>2020-08-29T12:42:16Z</time>
      </trkpt>
      <trkpt lat="40.072697" lon="-.726403">
        <ele>998.889</ele>
        <time>2020-08-29T12:42:17Z</time>
      </trkpt>
      <trkpt lat="40.072639" lon="-.726392">
        <ele>998.661</ele>
        <time>2020-08-29T12:42:18Z</time>
      </trkpt>
      <trkpt lat="40.072584" lon="-.726371">
        <ele>998.533</ele>
        <time>2020-08-29T12:42:19Z</time>
      </trkpt>
      <trkpt lat="40.07253" lon="-.726355">
        <ele>998.461</ele>
        <time>2020-08-29T12:42:20Z</time>
      </trkpt>
      <trkpt lat="40.072476" lon="-.72634">
        <ele>998.328</ele>
        <time>2020-08-29T12:42:21Z</time>
      </trkpt>
      <trkpt lat="40.072429" lon="-.726332">
        <ele>998.366</ele>
        <time>2020-08-29T12:42:22Z</time>
      </trkpt>
      <trkpt lat="40.072373" lon="-.726326">
        <ele>998.236</ele>
        <time>2020-08-29T12:42:23Z</time>
      </trkpt>
      <trkpt lat="40.072322" lon="-.72631">
        <ele>998.282</ele>
        <time>2020-08-29T12:42:24Z</time>
      </trkpt>
      <trkpt lat="40.072271" lon="-.726299">
        <ele>998.143</ele>
        <time>2020-08-29T12:42:25Z</time>
      </trkpt>
      <trkpt lat="40.072218" lon="-.726289">
        <ele>997.917</ele>
        <time>2020-08-29T12:42:26Z</time>
      </trkpt>
      <trkpt lat="40.072173" lon="-.726281">
        <ele>997.908</ele>
        <time>2020-08-29T12:42:27Z</time>
      </trkpt>
      <trkpt lat="40.072128" lon="-.726269">
        <ele>997.943</ele>
        <time>2020-08-29T12:42:28Z</time>
      </trkpt>
      <trkpt lat="40.072079" lon="-.726263">
        <ele>997.823</ele>
        <time>2020-08-29T12:42:29Z</time>
      </trkpt>
      <trkpt lat="40.072019" lon="-.726257">
        <ele>997.815</ele>
        <time>2020-08-29T12:42:30Z</time>
      </trkpt>
      <trkpt lat="40.07197" lon="-.726254">
        <ele>998.017</ele>
        <time>2020-08-29T12:42:31Z</time>
      </trkpt>
      <trkpt lat="40.071922" lon="-.726249">
        <ele>998.075</ele>
        <time>2020-08-29T12:42:32Z</time>
      </trkpt>
      <trkpt lat="40.071869" lon="-.726241">
        <ele>998.222</ele>
        <time>2020-08-29T12:42:33Z</time>
      </trkpt>
      <trkpt lat="40.071814" lon="-.726239">
        <ele>998.270</ele>
        <time>2020-08-29T12:42:34Z</time>
      </trkpt>
      <trkpt lat="40.071766" lon="-.726238">
        <ele>998.210</ele>
        <time>2020-08-29T12:42:35Z</time>
      </trkpt>
      <trkpt lat="40.071719" lon="-.726232">
        <ele>998.236</ele>
        <time>2020-08-29T12:42:36Z</time>
      </trkpt>
      <trkpt lat="40.071628" lon="-.726223">
        <ele>998.117</ele>
        <time>2020-08-29T12:42:38Z</time>
      </trkpt>
      <trkpt lat="40.071536" lon="-.726217">
        <ele>998.018</ele>
        <time>2020-08-29T12:42:40Z</time>
      </trkpt>
      <trkpt lat="40.071443" lon="-.726209">
        <ele>998.108</ele>
        <time>2020-08-29T12:42:42Z</time>
      </trkpt>
      <trkpt lat="40.071397" lon="-.726209">
        <ele>998.238</ele>
        <time>2020-08-29T12:42:43Z</time>
      </trkpt>
      <trkpt lat="40.071349" lon="-.726202">
        <ele>998.438</ele>
        <time>2020-08-29T12:42:44Z</time>
      </trkpt>
      <trkpt lat="40.07125" lon="-.72619">
        <ele>998.520</ele>
        <time>2020-08-29T12:42:46Z</time>
      </trkpt>
      <trkpt lat="40.071201" lon="-.726185">
        <ele>998.592</ele>
        <time>2020-08-29T12:42:47Z</time>
      </trkpt>
      <trkpt lat="40.07114" lon="-.726185">
        <ele>998.510</ele>
        <time>2020-08-29T12:42:48Z</time>
      </trkpt>
      <trkpt lat="40.071081" lon="-.726195">
        <ele>998.717</ele>
        <time>2020-08-29T12:42:49Z</time>
      </trkpt>
      <trkpt lat="40.071028" lon="-.726195">
        <ele>998.725</ele>
        <time>2020-08-29T12:42:50Z</time>
      </trkpt>
      <trkpt lat="40.070975" lon="-.726193">
        <ele>998.835</ele>
        <time>2020-08-29T12:42:51Z</time>
      </trkpt>
      <trkpt lat="40.070926" lon="-.726193">
        <ele>998.872</ele>
        <time>2020-08-29T12:42:52Z</time>
      </trkpt>
      <trkpt lat="40.070879" lon="-.726206">
        <ele>998.913</ele>
        <time>2020-08-29T12:42:53Z</time>
      </trkpt>
      <trkpt lat="40.070793" lon="-.726225">
        <ele>999.214</ele>
        <time>2020-08-29T12:42:55Z</time>
      </trkpt>
      <trkpt lat="40.070746" lon="-.726234">
        <ele>999.208</ele>
        <time>2020-08-29T12:42:56Z</time>
      </trkpt>
      <trkpt lat="40.070691" lon="-.72624">
        <ele>999.222</ele>
        <time>2020-08-29T12:42:57Z</time>
      </trkpt>
      <trkpt lat="40.070645" lon="-.726254">
        <ele>999.322</ele>
        <time>2020-08-29T12:42:58Z</time>
      </trkpt>
      <trkpt lat="40.070584" lon="-.726277">
        <ele>999.334</ele>
        <time>2020-08-29T12:42:59Z</time>
      </trkpt>
      <trkpt lat="40.070523" lon="-.726301">
        <ele>999.086</ele>
        <time>2020-08-29T12:43:00Z</time>
      </trkpt>
      <trkpt lat="40.070462" lon="-.726325">
        <ele>998.944</ele>
        <time>2020-08-29T12:43:01Z</time>
      </trkpt>
      <trkpt lat="40.070404" lon="-.726351">
        <ele>998.691</ele>
        <time>2020-08-29T12:43:02Z</time>
      </trkpt>
      <trkpt lat="40.070348" lon="-.72638">
        <ele>998.359</ele>
        <time>2020-08-29T12:43:03Z</time>
      </trkpt>
      <trkpt lat="40.070297" lon="-.726409">
        <ele>998.119</ele>
        <time>2020-08-29T12:43:04Z</time>
      </trkpt>
      <trkpt lat="40.070244" lon="-.726447">
        <ele>997.868</ele>
        <time>2020-08-29T12:43:05Z</time>
      </trkpt>
      <trkpt lat="40.070192" lon="-.726483">
        <ele>997.642</ele>
        <time>2020-08-29T12:43:06Z</time>
      </trkpt>
      <trkpt lat="40.070138" lon="-.726532">
        <ele>997.026</ele>
        <time>2020-08-29T12:43:07Z</time>
      </trkpt>
      <trkpt lat="40.070075" lon="-.726574">
        <ele>996.708</ele>
        <time>2020-08-29T12:43:08Z</time>
      </trkpt>
      <trkpt lat="40.070022" lon="-.726611">
        <ele>996.631</ele>
        <time>2020-08-29T12:43:09Z</time>
      </trkpt>
      <trkpt lat="40.069975" lon="-.726655">
        <ele>996.581</ele>
        <time>2020-08-29T12:43:10Z</time>
      </trkpt>
      <trkpt lat="40.069926" lon="-.726695">
        <ele>996.573</ele>
        <time>2020-08-29T12:43:11Z</time>
      </trkpt>
      <trkpt lat="40.069875" lon="-.726722">
        <ele>996.325</ele>
        <time>2020-08-29T12:43:12Z</time>
      </trkpt>
      <trkpt lat="40.069833" lon="-.726761">
        <ele>996.193</ele>
        <time>2020-08-29T12:43:13Z</time>
      </trkpt>
      <trkpt lat="40.069785" lon="-.726796">
        <ele>995.880</ele>
        <time>2020-08-29T12:43:14Z</time>
      </trkpt>
      <trkpt lat="40.069736" lon="-.726835">
        <ele>995.448</ele>
        <time>2020-08-29T12:43:15Z</time>
      </trkpt>
      <trkpt lat="40.069689" lon="-.726873">
        <ele>994.978</ele>
        <time>2020-08-29T12:43:16Z</time>
      </trkpt>
      <trkpt lat="40.069611" lon="-.726933">
        <ele>994.742</ele>
        <time>2020-08-29T12:43:18Z</time>
      </trkpt>
      <trkpt lat="40.069566" lon="-.726961">
        <ele>994.622</ele>
        <time>2020-08-29T12:43:19Z</time>
      </trkpt>
      <trkpt lat="40.069484" lon="-.727024">
        <ele>994.614</ele>
        <time>2020-08-29T12:43:21Z</time>
      </trkpt>
      <trkpt lat="40.06944" lon="-.727052">
        <ele>994.408</ele>
        <time>2020-08-29T12:43:22Z</time>
      </trkpt>
      <trkpt lat="40.069363" lon="-.727106">
        <ele>993.949</ele>
        <time>2020-08-29T12:43:24Z</time>
      </trkpt>
      <trkpt lat="40.069305" lon="-.727166">
        <ele>993.319</ele>
        <time>2020-08-29T12:43:26Z</time>
      </trkpt>
      <trkpt lat="40.069237" lon="-.727225">
        <ele>993.021</ele>
        <time>2020-08-29T12:43:28Z</time>
      </trkpt>
      <trkpt lat="40.069196" lon="-.727258">
        <ele>992.753</ele>
        <time>2020-08-29T12:43:29Z</time>
      </trkpt>
      <trkpt lat="40.069155" lon="-.727299">
        <ele>992.521</ele>
        <time>2020-08-29T12:43:30Z</time>
      </trkpt>
      <trkpt lat="40.069107" lon="-.727342">
        <ele>992.498</ele>
        <time>2020-08-29T12:43:31Z</time>
      </trkpt>
      <trkpt lat="40.06906" lon="-.727375">
        <ele>992.176</ele>
        <time>2020-08-29T12:43:32Z</time>
      </trkpt>
      <trkpt lat="40.068981" lon="-.72744">
        <ele>991.796</ele>
        <time>2020-08-29T12:43:34Z</time>
      </trkpt>
      <trkpt lat="40.068942" lon="-.727486">
        <ele>991.644</ele>
        <time>2020-08-29T12:43:35Z</time>
      </trkpt>
      <trkpt lat="40.0689" lon="-.727519">
        <ele>991.605</ele>
        <time>2020-08-29T12:43:36Z</time>
      </trkpt>
      <trkpt lat="40.068854" lon="-.727571">
        <ele>991.715</ele>
        <time>2020-08-29T12:43:37Z</time>
      </trkpt>
      <trkpt lat="40.068781" lon="-.727637">
        <ele>992.608</ele>
        <time>2020-08-29T12:43:39Z</time>
      </trkpt>
      <trkpt lat="40.068708" lon="-.727703">
        <ele>992.669</ele>
        <time>2020-08-29T12:43:41Z</time>
      </trkpt>
      <trkpt lat="40.068672" lon="-.727742">
        <ele>992.569</ele>
        <time>2020-08-29T12:43:42Z</time>
      </trkpt>
      <trkpt lat="40.06863" lon="-.727776">
        <ele>992.251</ele>
        <time>2020-08-29T12:43:43Z</time>
      </trkpt>
      <trkpt lat="40.068555" lon="-.727839">
        <ele>992.063</ele>
        <time>2020-08-29T12:43:45Z</time>
      </trkpt>
      <trkpt lat="40.068513" lon="-.727877">
        <ele>992.041</ele>
        <time>2020-08-29T12:43:46Z</time>
      </trkpt>
      <trkpt lat="40.068476" lon="-.727912">
        <ele>991.668</ele>
        <time>2020-08-29T12:43:47Z</time>
      </trkpt>
      <trkpt lat="40.068435" lon="-.727944">
        <ele>991.656</ele>
        <time>2020-08-29T12:43:48Z</time>
      </trkpt>
      <trkpt lat="40.068389" lon="-.727983">
        <ele>991.556</ele>
        <time>2020-08-29T12:43:49Z</time>
      </trkpt>
      <trkpt lat="40.068339" lon="-.728014">
        <ele>990.939</ele>
        <time>2020-08-29T12:43:50Z</time>
      </trkpt>
      <trkpt lat="40.068289" lon="-.728053">
        <ele>990.801</ele>
        <time>2020-08-29T12:43:51Z</time>
      </trkpt>
      <trkpt lat="40.068239" lon="-.728093">
        <ele>990.721</ele>
        <time>2020-08-29T12:43:52Z</time>
      </trkpt>
      <trkpt lat="40.068193" lon="-.728131">
        <ele>990.408</ele>
        <time>2020-08-29T12:43:53Z</time>
      </trkpt>
      <trkpt lat="40.068147" lon="-.728171">
        <ele>990.198</ele>
        <time>2020-08-29T12:43:54Z</time>
      </trkpt>
      <trkpt lat="40.068097" lon="-.728205">
        <ele>990.018</ele>
        <time>2020-08-29T12:43:55Z</time>
      </trkpt>
      <trkpt lat="40.068059" lon="-.728248">
        <ele>990.130</ele>
        <time>2020-08-29T12:43:56Z</time>
      </trkpt>
      <trkpt lat="40.068021" lon="-.728284">
        <ele>990.092</ele>
        <time>2020-08-29T12:43:57Z</time>
      </trkpt>
      <trkpt lat="40.06798" lon="-.728319">
        <ele>990.120</ele>
        <time>2020-08-29T12:43:58Z</time>
      </trkpt>
      <trkpt lat="40.06794" lon="-.728352">
        <ele>990.037</ele>
        <time>2020-08-29T12:43:59Z</time>
      </trkpt>
      <trkpt lat="40.067899" lon="-.728383">
        <ele>990.095</ele>
        <time>2020-08-29T12:44:00Z</time>
      </trkpt>
      <trkpt lat="40.067859" lon="-.728416">
        <ele>989.955</ele>
        <time>2020-08-29T12:44:01Z</time>
      </trkpt>
      <trkpt lat="40.067819" lon="-.728443">
        <ele>989.968</ele>
        <time>2020-08-29T12:44:02Z</time>
      </trkpt>
      <trkpt lat="40.06774" lon="-.728496">
        <ele>989.642</ele>
        <time>2020-08-29T12:44:04Z</time>
      </trkpt>
      <trkpt lat="40.067696" lon="-.728524">
        <ele>989.526</ele>
        <time>2020-08-29T12:44:05Z</time>
      </trkpt>
      <trkpt lat="40.067647" lon="-.728556">
        <ele>989.408</ele>
        <time>2020-08-29T12:44:06Z</time>
      </trkpt>
      <trkpt lat="40.067603" lon="-.728583">
        <ele>989.321</ele>
        <time>2020-08-29T12:44:07Z</time>
      </trkpt>
      <trkpt lat="40.067559" lon="-.728609">
        <ele>989.331</ele>
        <time>2020-08-29T12:44:08Z</time>
      </trkpt>
      <trkpt lat="40.067511" lon="-.728631">
        <ele>989.413</ele>
        <time>2020-08-29T12:44:09Z</time>
      </trkpt>
      <trkpt lat="40.067463" lon="-.728647">
        <ele>989.545</ele>
        <time>2020-08-29T12:44:10Z</time>
      </trkpt>
      <trkpt lat="40.067419" lon="-.728663">
        <ele>989.643</ele>
        <time>2020-08-29T12:44:11Z</time>
      </trkpt>
      <trkpt lat="40.067366" lon="-.728678">
        <ele>989.620</ele>
        <time>2020-08-29T12:44:12Z</time>
      </trkpt>
      <trkpt lat="40.067282" lon="-.728694">
        <ele>989.698</ele>
        <time>2020-08-29T12:44:14Z</time>
      </trkpt>
      <trkpt lat="40.067188" lon="-.728703">
        <ele>989.728</ele>
        <time>2020-08-29T12:44:16Z</time>
      </trkpt>
      <trkpt lat="40.067139" lon="-.728711">
        <ele>989.883</ele>
        <time>2020-08-29T12:44:17Z</time>
      </trkpt>
      <trkpt lat="40.067089" lon="-.72872">
        <ele>989.825</ele>
        <time>2020-08-29T12:44:18Z</time>
      </trkpt>
      <trkpt lat="40.067041" lon="-.728728">
        <ele>989.817</ele>
        <time>2020-08-29T12:44:19Z</time>
      </trkpt>
      <trkpt lat="40.066994" lon="-.728733">
        <ele>989.808</ele>
        <time>2020-08-29T12:44:20Z</time>
      </trkpt>
      <trkpt lat="40.066916" lon="-.728729">
        <ele>990.093</ele>
        <time>2020-08-29T12:44:22Z</time>
      </trkpt>
      <trkpt lat="40.066833" lon="-.728729">
        <ele>989.973</ele>
        <time>2020-08-29T12:44:24Z</time>
      </trkpt>
      <trkpt lat="40.06678" lon="-.728724">
        <ele>989.955</ele>
        <time>2020-08-29T12:44:25Z</time>
      </trkpt>
      <trkpt lat="40.066732" lon="-.728711">
        <ele>989.747</ele>
        <time>2020-08-29T12:44:26Z</time>
      </trkpt>
      <trkpt lat="40.066682" lon="-.728706">
        <ele>989.345</ele>
        <time>2020-08-29T12:44:27Z</time>
      </trkpt>
      <trkpt lat="40.06659" lon="-.728685">
        <ele>989.072</ele>
        <time>2020-08-29T12:44:29Z</time>
      </trkpt>
      <trkpt lat="40.066544" lon="-.728673">
        <ele>989.030</ele>
        <time>2020-08-29T12:44:30Z</time>
      </trkpt>
      <trkpt lat="40.066494" lon="-.728652">
        <ele>989.030</ele>
        <time>2020-08-29T12:44:31Z</time>
      </trkpt>
      <trkpt lat="40.066411" lon="-.728615">
        <ele>989.312</ele>
        <time>2020-08-29T12:44:33Z</time>
      </trkpt>
      <trkpt lat="40.066364" lon="-.728593">
        <ele>989.332</ele>
        <time>2020-08-29T12:44:34Z</time>
      </trkpt>
      <trkpt lat="40.066314" lon="-.728576">
        <ele>989.405</ele>
        <time>2020-08-29T12:44:35Z</time>
      </trkpt>
      <trkpt lat="40.066229" lon="-.728535">
        <ele>990.008</ele>
        <time>2020-08-29T12:44:37Z</time>
      </trkpt>
      <trkpt lat="40.066159" lon="-.728485">
        <ele>990.076</ele>
        <time>2020-08-29T12:44:39Z</time>
      </trkpt>
      <trkpt lat="40.066113" lon="-.728465">
        <ele>990.036</ele>
        <time>2020-08-29T12:44:40Z</time>
      </trkpt>
      <trkpt lat="40.066065" lon="-.728439">
        <ele>989.938</ele>
        <time>2020-08-29T12:44:41Z</time>
      </trkpt>
      <trkpt lat="40.066019" lon="-.72841">
        <ele>989.810</ele>
        <time>2020-08-29T12:44:42Z</time>
      </trkpt>
      <trkpt lat="40.065947" lon="-.728363">
        <ele>989.868</ele>
        <time>2020-08-29T12:44:44Z</time>
      </trkpt>
      <trkpt lat="40.065892" lon="-.728332">
        <ele>989.775</ele>
        <time>2020-08-29T12:44:45Z</time>
      </trkpt>
      <trkpt lat="40.065843" lon="-.728314">
        <ele>989.723</ele>
        <time>2020-08-29T12:44:46Z</time>
      </trkpt>
      <trkpt lat="40.065769" lon="-.728261">
        <ele>989.773</ele>
        <time>2020-08-29T12:44:48Z</time>
      </trkpt>
      <trkpt lat="40.065731" lon="-.728228">
        <ele>989.769</ele>
        <time>2020-08-29T12:44:49Z</time>
      </trkpt>
      <trkpt lat="40.065666" lon="-.728165">
        <ele>989.504</ele>
        <time>2020-08-29T12:44:51Z</time>
      </trkpt>
      <trkpt lat="40.065628" lon="-.728129">
        <ele>989.424</ele>
        <time>2020-08-29T12:44:52Z</time>
      </trkpt>
      <trkpt lat="40.065583" lon="-.728098">
        <ele>989.208</ele>
        <time>2020-08-29T12:44:53Z</time>
      </trkpt>
      <trkpt lat="40.06554" lon="-.728061">
        <ele>989.181</ele>
        <time>2020-08-29T12:44:54Z</time>
      </trkpt>
      <trkpt lat="40.06549" lon="-.728027">
        <ele>988.951</ele>
        <time>2020-08-29T12:44:55Z</time>
      </trkpt>
      <trkpt lat="40.065449" lon="-.727986">
        <ele>988.843</ele>
        <time>2020-08-29T12:44:56Z</time>
      </trkpt>
      <trkpt lat="40.065403" lon="-.727948">
        <ele>988.865</ele>
        <time>2020-08-29T12:44:57Z</time>
      </trkpt>
      <trkpt lat="40.065363" lon="-.727904">
        <ele>989.233</ele>
        <time>2020-08-29T12:44:58Z</time>
      </trkpt>
      <trkpt lat="40.065323" lon="-.727866">
        <ele>989.320</ele>
        <time>2020-08-29T12:44:59Z</time>
      </trkpt>
      <trkpt lat="40.065277" lon="-.72782">
        <ele>989.438</ele>
        <time>2020-08-29T12:45:00Z</time>
      </trkpt>
      <trkpt lat="40.065231" lon="-.72778">
        <ele>989.568</ele>
        <time>2020-08-29T12:45:01Z</time>
      </trkpt>
      <trkpt lat="40.065185" lon="-.727731">
        <ele>989.567</ele>
        <time>2020-08-29T12:45:02Z</time>
      </trkpt>
      <trkpt lat="40.065138" lon="-.727689">
        <ele>989.281</ele>
        <time>2020-08-29T12:45:03Z</time>
      </trkpt>
      <trkpt lat="40.065097" lon="-.727647">
        <ele>989.219</ele>
        <time>2020-08-29T12:45:04Z</time>
      </trkpt>
      <trkpt lat="40.065049" lon="-.727606">
        <ele>989.308</ele>
        <time>2020-08-29T12:45:05Z</time>
      </trkpt>
      <trkpt lat="40.065009" lon="-.727552">
        <ele>989.431</ele>
        <time>2020-08-29T12:45:06Z</time>
      </trkpt>
      <trkpt lat="40.064965" lon="-.727515">
        <ele>989.471</ele>
        <time>2020-08-29T12:45:07Z</time>
      </trkpt>
      <trkpt lat="40.064921" lon="-.727479">
        <ele>990.023</ele>
        <time>2020-08-29T12:45:08Z</time>
      </trkpt>
      <trkpt lat="40.064884" lon="-.727436">
        <ele>990.015</ele>
        <time>2020-08-29T12:45:09Z</time>
      </trkpt>
      <trkpt lat="40.064803" lon="-.72735">
        <ele>989.153</ele>
        <time>2020-08-29T12:45:11Z</time>
      </trkpt>
      <trkpt lat="40.064757" lon="-.72731">
        <ele>989.770</ele>
        <time>2020-08-29T12:45:12Z</time>
      </trkpt>
      <trkpt lat="40.064718" lon="-.727265">
        <ele>989.968</ele>
        <time>2020-08-29T12:45:13Z</time>
      </trkpt>
      <trkpt lat="40.064673" lon="-.727226">
        <ele>990.068</ele>
        <time>2020-08-29T12:45:14Z</time>
      </trkpt>
      <trkpt lat="40.064631" lon="-.727184">
        <ele>990.456</ele>
        <time>2020-08-29T12:45:15Z</time>
      </trkpt>
      <trkpt lat="40.064593" lon="-.727147">
        <ele>990.459</ele>
        <time>2020-08-29T12:45:16Z</time>
      </trkpt>
      <trkpt lat="40.064552" lon="-.727107">
        <ele>990.414</ele>
        <time>2020-08-29T12:45:17Z</time>
      </trkpt>
      <trkpt lat="40.064482" lon="-.727044">
        <ele>990.408</ele>
        <time>2020-08-29T12:45:19Z</time>
      </trkpt>
      <trkpt lat="40.064428" lon="-.726991">
        <ele>990.480</ele>
        <time>2020-08-29T12:45:21Z</time>
      </trkpt>
      <trkpt lat="40.064391" lon="-.726957">
        <ele>990.590</ele>
        <time>2020-08-29T12:45:22Z</time>
      </trkpt>
      <trkpt lat="40.064323" lon="-.726897">
        <ele>990.832</ele>
        <time>2020-08-29T12:45:24Z</time>
      </trkpt>
      <trkpt lat="40.064255" lon="-.726827">
        <ele>990.714</ele>
        <time>2020-08-29T12:45:26Z</time>
      </trkpt>
      <trkpt lat="40.06421" lon="-.726794">
        <ele>990.552</ele>
        <time>2020-08-29T12:45:27Z</time>
      </trkpt>
      <trkpt lat="40.064175" lon="-.726754">
        <ele>990.569</ele>
        <time>2020-08-29T12:45:28Z</time>
      </trkpt>
      <trkpt lat="40.064133" lon="-.726727">
        <ele>990.597</ele>
        <time>2020-08-29T12:45:29Z</time>
      </trkpt>
      <trkpt lat="40.064053" lon="-.726668">
        <ele>990.537</ele>
        <time>2020-08-29T12:45:31Z</time>
      </trkpt>
      <trkpt lat="40.064007" lon="-.72664">
        <ele>990.514</ele>
        <time>2020-08-29T12:45:32Z</time>
      </trkpt>
      <trkpt lat="40.063968" lon="-.726608">
        <ele>990.554</ele>
        <time>2020-08-29T12:45:33Z</time>
      </trkpt>
      <trkpt lat="40.063886" lon="-.726565">
        <ele>990.509</ele>
        <time>2020-08-29T12:45:35Z</time>
      </trkpt>
      <trkpt lat="40.06384" lon="-.726537">
        <ele>990.608</ele>
        <time>2020-08-29T12:45:36Z</time>
      </trkpt>
      <trkpt lat="40.063788" lon="-.726516">
        <ele>990.626</ele>
        <time>2020-08-29T12:45:37Z</time>
      </trkpt>
      <trkpt lat="40.063744" lon="-.726486">
        <ele>990.676</ele>
        <time>2020-08-29T12:45:38Z</time>
      </trkpt>
      <trkpt lat="40.0637" lon="-.726463">
        <ele>990.678</ele>
        <time>2020-08-29T12:45:39Z</time>
      </trkpt>
      <trkpt lat="40.063653" lon="-.726435">
        <ele>990.610</ele>
        <time>2020-08-29T12:45:40Z</time>
      </trkpt>
      <trkpt lat="40.063606" lon="-.726417">
        <ele>990.638</ele>
        <time>2020-08-29T12:45:41Z</time>
      </trkpt>
      <trkpt lat="40.063553" lon="-.726399">
        <ele>990.655</ele>
        <time>2020-08-29T12:45:42Z</time>
      </trkpt>
      <trkpt lat="40.063471" lon="-.726381">
        <ele>990.753</ele>
        <time>2020-08-29T12:45:44Z</time>
      </trkpt>
      <trkpt lat="40.063384" lon="-.726346">
        <ele>990.733</ele>
        <time>2020-08-29T12:45:46Z</time>
      </trkpt>
      <trkpt lat="40.063296" lon="-.726327">
        <ele>990.584</ele>
        <time>2020-08-29T12:45:48Z</time>
      </trkpt>
      <trkpt lat="40.063215" lon="-.72631">
        <ele>990.907</ele>
        <time>2020-08-29T12:45:50Z</time>
      </trkpt>
      <trkpt lat="40.06314" lon="-.726288">
        <ele>991.717</ele>
        <time>2020-08-29T12:45:52Z</time>
      </trkpt>
      <trkpt lat="40.063063" lon="-.726281">
        <ele>991.108</ele>
        <time>2020-08-29T12:45:54Z</time>
      </trkpt>
      <trkpt lat="40.062974" lon="-.726257">
        <ele>991.113</ele>
        <time>2020-08-29T12:45:56Z</time>
      </trkpt>
      <trkpt lat="40.062926" lon="-.726245">
        <ele>991.083</ele>
        <time>2020-08-29T12:45:57Z</time>
      </trkpt>
      <trkpt lat="40.062878" lon="-.726246">
        <ele>991.125</ele>
        <time>2020-08-29T12:45:58Z</time>
      </trkpt>
      <trkpt lat="40.062795" lon="-.726232">
        <ele>991.127</ele>
        <time>2020-08-29T12:46:00Z</time>
      </trkpt>
      <trkpt lat="40.062711" lon="-.726206">
        <ele>991.065</ele>
        <time>2020-08-29T12:46:02Z</time>
      </trkpt>
      <trkpt lat="40.062631" lon="-.726189">
        <ele>990.932</ele>
        <time>2020-08-29T12:46:04Z</time>
      </trkpt>
      <trkpt lat="40.062558" lon="-.726167">
        <ele>991.120</ele>
        <time>2020-08-29T12:46:06Z</time>
      </trkpt>
      <trkpt lat="40.06248" lon="-.72616">
        <ele>990.920</ele>
        <time>2020-08-29T12:46:08Z</time>
      </trkpt>
      <trkpt lat="40.062433" lon="-.726156">
        <ele>990.947</ele>
        <time>2020-08-29T12:46:09Z</time>
      </trkpt>
      <trkpt lat="40.062348" lon="-.726145">
        <ele>991.429</ele>
        <time>2020-08-29T12:46:11Z</time>
      </trkpt>
      <trkpt lat="40.062272" lon="-.726139">
        <ele>991.621</ele>
        <time>2020-08-29T12:46:13Z</time>
      </trkpt>
      <trkpt lat="40.062227" lon="-.72614">
        <ele>991.408</ele>
        <time>2020-08-29T12:46:14Z</time>
      </trkpt>
      <trkpt lat="40.06218" lon="-.726128">
        <ele>991.349</ele>
        <time>2020-08-29T12:46:15Z</time>
      </trkpt>
      <trkpt lat="40.062094" lon="-.726146">
        <ele>991.339</ele>
        <time>2020-08-29T12:46:17Z</time>
      </trkpt>
      <trkpt lat="40.062002" lon="-.726165">
        <ele>991.261</ele>
        <time>2020-08-29T12:46:19Z</time>
      </trkpt>
      <trkpt lat="40.061956" lon="-.726174">
        <ele>991.223</ele>
        <time>2020-08-29T12:46:20Z</time>
      </trkpt>
      <trkpt lat="40.061878" lon="-.726192">
        <ele>991.391</ele>
        <time>2020-08-29T12:46:22Z</time>
      </trkpt>
      <trkpt lat="40.061795" lon="-.726208">
        <ele>991.688</ele>
        <time>2020-08-29T12:46:24Z</time>
      </trkpt>
      <trkpt lat="40.061715" lon="-.726232">
        <ele>992.276</ele>
        <time>2020-08-29T12:46:26Z</time>
      </trkpt>
      <trkpt lat="40.061639" lon="-.72626">
        <ele>992.586</ele>
        <time>2020-08-29T12:46:28Z</time>
      </trkpt>
      <trkpt lat="40.061574" lon="-.726287">
        <ele>992.591</ele>
        <time>2020-08-29T12:46:30Z</time>
      </trkpt>
      <trkpt lat="40.061523" lon="-.726321">
        <ele>992.381</ele>
        <time>2020-08-29T12:46:32Z</time>
      </trkpt>
      <trkpt lat="40.061449" lon="-.726342">
        <ele>992.419</ele>
        <time>2020-08-29T12:46:34Z</time>
      </trkpt>
      <trkpt lat="40.061385" lon="-.726382">
        <ele>992.908</ele>
        <time>2020-08-29T12:46:36Z</time>
      </trkpt>
      <trkpt lat="40.06132" lon="-.726434">
        <ele>993.334</ele>
        <time>2020-08-29T12:46:38Z</time>
      </trkpt>
      <trkpt lat="40.061245" lon="-.726481">
        <ele>993.184</ele>
        <time>2020-08-29T12:46:40Z</time>
      </trkpt>
      <trkpt lat="40.061176" lon="-.726528">
        <ele>993.116</ele>
        <time>2020-08-29T12:46:42Z</time>
      </trkpt>
      <trkpt lat="40.061118" lon="-.726575">
        <ele>992.948</ele>
        <time>2020-08-29T12:46:44Z</time>
      </trkpt>
      <trkpt lat="40.061058" lon="-.72663">
        <ele>992.256</ele>
        <time>2020-08-29T12:46:46Z</time>
      </trkpt>
      <trkpt lat="40.06099" lon="-.726666">
        <ele>992.193</ele>
        <time>2020-08-29T12:46:48Z</time>
      </trkpt>
      <trkpt lat="40.060951" lon="-.726697">
        <ele>992.181</ele>
        <time>2020-08-29T12:46:49Z</time>
      </trkpt>
      <trkpt lat="40.060886" lon="-.726757">
        <ele>992.271</ele>
        <time>2020-08-29T12:46:51Z</time>
      </trkpt>
      <trkpt lat="40.060812" lon="-.72681">
        <ele>992.156</ele>
        <time>2020-08-29T12:46:53Z</time>
      </trkpt>
      <trkpt lat="40.060749" lon="-.726878">
        <ele>992.259</ele>
        <time>2020-08-29T12:46:55Z</time>
      </trkpt>
      <trkpt lat="40.060713" lon="-.726914">
        <ele>992.214</ele>
        <time>2020-08-29T12:46:56Z</time>
      </trkpt>
      <trkpt lat="40.060653" lon="-.726971">
        <ele>992.508</ele>
        <time>2020-08-29T12:46:58Z</time>
      </trkpt>
      <trkpt lat="40.060579" lon="-.727028">
        <ele>992.710</ele>
        <time>2020-08-29T12:47:00Z</time>
      </trkpt>
      <trkpt lat="40.060514" lon="-.727086">
        <ele>992.670</ele>
        <time>2020-08-29T12:47:02Z</time>
      </trkpt>
      <trkpt lat="40.06048" lon="-.727124">
        <ele>992.622</ele>
        <time>2020-08-29T12:47:03Z</time>
      </trkpt>
      <trkpt lat="40.060446" lon="-.727165">
        <ele>992.684</ele>
        <time>2020-08-29T12:47:04Z</time>
      </trkpt>
      <trkpt lat="40.060404" lon="-.727192">
        <ele>992.652</ele>
        <time>2020-08-29T12:47:05Z</time>
      </trkpt>
      <trkpt lat="40.060331" lon="-.727238">
        <ele>992.299</ele>
        <time>2020-08-29T12:47:07Z</time>
      </trkpt>
      <trkpt lat="40.060277" lon="-.727303">
        <ele>992.447</ele>
        <time>2020-08-29T12:47:09Z</time>
      </trkpt>
      <trkpt lat="40.060208" lon="-.727363">
        <ele>992.457</ele>
        <time>2020-08-29T12:47:11Z</time>
      </trkpt>
      <trkpt lat="40.060146" lon="-.727425">
        <ele>992.521</ele>
        <time>2020-08-29T12:47:13Z</time>
      </trkpt>
      <trkpt lat="40.060081" lon="-.727451">
        <ele>992.541</ele>
        <time>2020-08-29T12:47:15Z</time>
      </trkpt>
      <trkpt lat="40.060023" lon="-.727512">
        <ele>992.605</ele>
        <time>2020-08-29T12:47:17Z</time>
      </trkpt>
      <trkpt lat="40.059947" lon="-.727575">
        <ele>992.408</ele>
        <time>2020-08-29T12:47:19Z</time>
      </trkpt>
      <trkpt lat="40.059874" lon="-.727641">
        <ele>992.847</ele>
        <time>2020-08-29T12:47:21Z</time>
      </trkpt>
      <trkpt lat="40.059831" lon="-.727675">
        <ele>993.057</ele>
        <time>2020-08-29T12:47:22Z</time>
      </trkpt>
      <trkpt lat="40.059791" lon="-.72771">
        <ele>993.029</ele>
        <time>2020-08-29T12:47:23Z</time>
      </trkpt>
      <trkpt lat="40.059729" lon="-.727771">
        <ele>992.671</ele>
        <time>2020-08-29T12:47:25Z</time>
      </trkpt>
      <trkpt lat="40.059668" lon="-.727827">
        <ele>992.949</ele>
        <time>2020-08-29T12:47:27Z</time>
      </trkpt>
      <trkpt lat="40.059631" lon="-.727868">
        <ele>993.176</ele>
        <time>2020-08-29T12:47:28Z</time>
      </trkpt>
      <trkpt lat="40.05957" lon="-.727922">
        <ele>992.874</ele>
        <time>2020-08-29T12:47:30Z</time>
      </trkpt>
      <trkpt lat="40.059528" lon="-.727951">
        <ele>992.834</ele>
        <time>2020-08-29T12:47:31Z</time>
      </trkpt>
      <trkpt lat="40.059463" lon="-.728011">
        <ele>993.075</ele>
        <time>2020-08-29T12:47:33Z</time>
      </trkpt>
      <trkpt lat="40.059423" lon="-.72804">
        <ele>993.028</ele>
        <time>2020-08-29T12:47:34Z</time>
      </trkpt>
      <trkpt lat="40.059386" lon="-.728079">
        <ele>993.220</ele>
        <time>2020-08-29T12:47:35Z</time>
      </trkpt>
      <trkpt lat="40.059317" lon="-.728146">
        <ele>993.408</ele>
        <time>2020-08-29T12:47:37Z</time>
      </trkpt>
      <trkpt lat="40.059261" lon="-.72819">
        <ele>992.942</ele>
        <time>2020-08-29T12:47:39Z</time>
      </trkpt>
      <trkpt lat="40.059195" lon="-.728239">
        <ele>993.242</ele>
        <time>2020-08-29T12:47:41Z</time>
      </trkpt>
      <trkpt lat="40.059153" lon="-.728283">
        <ele>993.394</ele>
        <time>2020-08-29T12:47:42Z</time>
      </trkpt>
      <trkpt lat="40.05908" lon="-.72834">
        <ele>993.566</ele>
        <time>2020-08-29T12:47:44Z</time>
      </trkpt>
      <trkpt lat="40.059045" lon="-.728381">
        <ele>993.414</ele>
        <time>2020-08-29T12:47:45Z</time>
      </trkpt>
      <trkpt lat="40.058992" lon="-.728413">
        <ele>993.441</ele>
        <time>2020-08-29T12:47:47Z</time>
      </trkpt>
      <trkpt lat="40.05895" lon="-.728447">
        <ele>993.389</ele>
        <time>2020-08-29T12:47:48Z</time>
      </trkpt>
      <trkpt lat="40.058912" lon="-.728482">
        <ele>993.289</ele>
        <time>2020-08-29T12:47:49Z</time>
      </trkpt>
      <trkpt lat="40.058844" lon="-.728534">
        <ele>993.089</ele>
        <time>2020-08-29T12:47:51Z</time>
      </trkpt>
      <trkpt lat="40.058782" lon="-.728597">
        <ele>992.906</ele>
        <time>2020-08-29T12:47:53Z</time>
      </trkpt>
      <trkpt lat="40.058718" lon="-.728648">
        <ele>993.226</ele>
        <time>2020-08-29T12:47:55Z</time>
      </trkpt>
      <trkpt lat="40.058663" lon="-.728684">
        <ele>993.508</ele>
        <time>2020-08-29T12:47:57Z</time>
      </trkpt>
      <trkpt lat="40.058583" lon="-.728747">
        <ele>993.833</ele>
        <time>2020-08-29T12:47:59Z</time>
      </trkpt>
      <trkpt lat="40.058506" lon="-.728815">
        <ele>993.793</ele>
        <time>2020-08-29T12:48:01Z</time>
      </trkpt>
      <trkpt lat="40.058468" lon="-.72886">
        <ele>993.625</ele>
        <time>2020-08-29T12:48:02Z</time>
      </trkpt>
      <trkpt lat="40.058427" lon="-.72889">
        <ele>993.637</ele>
        <time>2020-08-29T12:48:03Z</time>
      </trkpt>
      <trkpt lat="40.058364" lon="-.72895">
        <ele>993.285</ele>
        <time>2020-08-29T12:48:05Z</time>
      </trkpt>
      <trkpt lat="40.058321" lon="-.72898">
        <ele>993.872</ele>
        <time>2020-08-29T12:48:06Z</time>
      </trkpt>
      <trkpt lat="40.058278" lon="-.729013">
        <ele>993.860</ele>
        <time>2020-08-29T12:48:07Z</time>
      </trkpt>
      <trkpt lat="40.058204" lon="-.729073">
        <ele>993.840</ele>
        <time>2020-08-29T12:48:09Z</time>
      </trkpt>
      <trkpt lat="40.058163" lon="-.729101">
        <ele>993.813</ele>
        <time>2020-08-29T12:48:10Z</time>
      </trkpt>
      <trkpt lat="40.058116" lon="-.729133">
        <ele>993.743</ele>
        <time>2020-08-29T12:48:12Z</time>
      </trkpt>
      <trkpt lat="40.058083" lon="-.729175">
        <ele>993.707</ele>
        <time>2020-08-29T12:48:13Z</time>
      </trkpt>
      <trkpt lat="40.058019" lon="-.729232">
        <ele>993.808</ele>
        <time>2020-08-29T12:48:15Z</time>
      </trkpt>
      <trkpt lat="40.057976" lon="-.72927">
        <ele>993.816</ele>
        <time>2020-08-29T12:48:16Z</time>
      </trkpt>
      <trkpt lat="40.057929" lon="-.72931">
        <ele>993.816</ele>
        <time>2020-08-29T12:48:17Z</time>
      </trkpt>
      <trkpt lat="40.057865" lon="-.729371">
        <ele>993.838</ele>
        <time>2020-08-29T12:48:19Z</time>
      </trkpt>
      <trkpt lat="40.05782" lon="-.729441">
        <ele>993.360</ele>
        <time>2020-08-29T12:48:21Z</time>
      </trkpt>
      <trkpt lat="40.057766" lon="-.729465">
        <ele>993.368</ele>
        <time>2020-08-29T12:48:22Z</time>
      </trkpt>
      <trkpt lat="40.057694" lon="-.729538">
        <ele>993.635</ele>
        <time>2020-08-29T12:48:24Z</time>
      </trkpt>
      <trkpt lat="40.057615" lon="-.729596">
        <ele>994.023</ele>
        <time>2020-08-29T12:48:26Z</time>
      </trkpt>
      <trkpt lat="40.057577" lon="-.729638">
        <ele>994.433</ele>
        <time>2020-08-29T12:48:27Z</time>
      </trkpt>
      <trkpt lat="40.057521" lon="-.729699">
        <ele>994.652</ele>
        <time>2020-08-29T12:48:29Z</time>
      </trkpt>
      <trkpt lat="40.057457" lon="-.729737">
        <ele>994.553</ele>
        <time>2020-08-29T12:48:31Z</time>
      </trkpt>
      <trkpt lat="40.057411" lon="-.729782">
        <ele>994.408</ele>
        <time>2020-08-29T12:48:33Z</time>
      </trkpt>
      <trkpt lat="40.057371" lon="-.729825">
        <ele>994.208</ele>
        <time>2020-08-29T12:48:35Z</time>
      </trkpt>
      <trkpt lat="40.057316" lon="-.729877">
        <ele>994.220</ele>
        <time>2020-08-29T12:48:37Z</time>
      </trkpt>
      <trkpt lat="40.057263" lon="-.729932">
        <ele>994.130</ele>
        <time>2020-08-29T12:48:39Z</time>
      </trkpt>
      <trkpt lat="40.057206" lon="-.729971">
        <ele>994.322</ele>
        <time>2020-08-29T12:48:41Z</time>
      </trkpt>
      <trkpt lat="40.057148" lon="-.730021">
        <ele>994.384</ele>
        <time>2020-08-29T12:48:43Z</time>
      </trkpt>
      <trkpt lat="40.057077" lon="-.730074">
        <ele>994.212</ele>
        <time>2020-08-29T12:48:45Z</time>
      </trkpt>
      <trkpt lat="40.057028" lon="-.730127">
        <ele>994.559</ele>
        <time>2020-08-29T12:48:47Z</time>
      </trkpt>
      <trkpt lat="40.056989" lon="-.730156">
        <ele>994.217</ele>
        <time>2020-08-29T12:48:48Z</time>
      </trkpt>
      <trkpt lat="40.056923" lon="-.73022">
        <ele>994.297</ele>
        <time>2020-08-29T12:48:50Z</time>
      </trkpt>
      <trkpt lat="40.056864" lon="-.730287">
        <ele>994.336</ele>
        <time>2020-08-29T12:48:52Z</time>
      </trkpt>
      <trkpt lat="40.056812" lon="-.730313">
        <ele>994.217</ele>
        <time>2020-08-29T12:48:54Z</time>
      </trkpt>
      <trkpt lat="40.056749" lon="-.730348">
        <ele>994.418</ele>
        <time>2020-08-29T12:48:56Z</time>
      </trkpt>
      <trkpt lat="40.056674" lon="-.730387">
        <ele>994.708</ele>
        <time>2020-08-29T12:48:58Z</time>
      </trkpt>
      <trkpt lat="40.056613" lon="-.730414">
        <ele>994.598</ele>
        <time>2020-08-29T12:49:00Z</time>
      </trkpt>
      <trkpt lat="40.056538" lon="-.730453">
        <ele>994.388</ele>
        <time>2020-08-29T12:49:02Z</time>
      </trkpt>
      <trkpt lat="40.056492" lon="-.73047">
        <ele>994.610</ele>
        <time>2020-08-29T12:49:03Z</time>
      </trkpt>
      <trkpt lat="40.056416" lon="-.730508">
        <ele>995.022</ele>
        <time>2020-08-29T12:49:05Z</time>
      </trkpt>
      <trkpt lat="40.056371" lon="-.730518">
        <ele>994.950</ele>
        <time>2020-08-29T12:49:06Z</time>
      </trkpt>
      <trkpt lat="40.056282" lon="-.730547">
        <ele>994.887</ele>
        <time>2020-08-29T12:49:08Z</time>
      </trkpt>
      <trkpt lat="40.056231" lon="-.730573">
        <ele>994.955</ele>
        <time>2020-08-29T12:49:09Z</time>
      </trkpt>
      <trkpt lat="40.056151" lon="-.730601">
        <ele>994.945</ele>
        <time>2020-08-29T12:49:11Z</time>
      </trkpt>
      <trkpt lat="40.056081" lon="-.730617">
        <ele>994.998</ele>
        <time>2020-08-29T12:49:13Z</time>
      </trkpt>
      <trkpt lat="40.055994" lon="-.730626">
        <ele>994.815</ele>
        <time>2020-08-29T12:49:15Z</time>
      </trkpt>
      <trkpt lat="40.055917" lon="-.73063">
        <ele>994.726</ele>
        <time>2020-08-29T12:49:17Z</time>
      </trkpt>
      <trkpt lat="40.055836" lon="-.730646">
        <ele>994.808</ele>
        <time>2020-08-29T12:49:19Z</time>
      </trkpt>
      <trkpt lat="40.055763" lon="-.730638">
        <ele>994.844</ele>
        <time>2020-08-29T12:49:21Z</time>
      </trkpt>
      <trkpt lat="40.055714" lon="-.730639">
        <ele>994.874</ele>
        <time>2020-08-29T12:49:22Z</time>
      </trkpt>
      <trkpt lat="40.055642" lon="-.730643">
        <ele>994.716</ele>
        <time>2020-08-29T12:49:24Z</time>
      </trkpt>
      <trkpt lat="40.055556" lon="-.730638">
        <ele>994.898</ele>
        <time>2020-08-29T12:49:26Z</time>
      </trkpt>
      <trkpt lat="40.05547" lon="-.730626">
        <ele>994.856</ele>
        <time>2020-08-29T12:49:28Z</time>
      </trkpt>
      <trkpt lat="40.055418" lon="-.730609">
        <ele>994.783</ele>
        <time>2020-08-29T12:49:29Z</time>
      </trkpt>
      <trkpt lat="40.055331" lon="-.730592">
        <ele>994.581</ele>
        <time>2020-08-29T12:49:31Z</time>
      </trkpt>
      <trkpt lat="40.055284" lon="-.730579">
        <ele>994.651</ele>
        <time>2020-08-29T12:49:32Z</time>
      </trkpt>
      <trkpt lat="40.055231" lon="-.730583">
        <ele>994.755</ele>
        <time>2020-08-29T12:49:33Z</time>
      </trkpt>
      <trkpt lat="40.055182" lon="-.730586">
        <ele>994.907</ele>
        <time>2020-08-29T12:49:34Z</time>
      </trkpt>
      <trkpt lat="40.055117" lon="-.730562">
        <ele>995.317</ele>
        <time>2020-08-29T12:49:36Z</time>
      </trkpt>
      <trkpt lat="40.055068" lon="-.730571">
        <ele>995.308</ele>
        <time>2020-08-29T12:49:37Z</time>
      </trkpt>
      <trkpt lat="40.055022" lon="-.730553">
        <ele>995.430</ele>
        <time>2020-08-29T12:49:38Z</time>
      </trkpt>
      <trkpt lat="40.054975" lon="-.73054">
        <ele>995.460</ele>
        <time>2020-08-29T12:49:39Z</time>
      </trkpt>
      <trkpt lat="40.054929" lon="-.730541">
        <ele>995.792</ele>
        <time>2020-08-29T12:49:40Z</time>
      </trkpt>
      <trkpt lat="40.054844" lon="-.730525">
        <ele>995.654</ele>
        <time>2020-08-29T12:49:42Z</time>
      </trkpt>
      <trkpt lat="40.054762" lon="-.730521">
        <ele>995.542</ele>
        <time>2020-08-29T12:49:44Z</time>
      </trkpt>
      <trkpt lat="40.054677" lon="-.730504">
        <ele>995.549</ele>
        <time>2020-08-29T12:49:46Z</time>
      </trkpt>
      <trkpt lat="40.054592" lon="-.730484">
        <ele>995.587</ele>
        <time>2020-08-29T12:49:48Z</time>
      </trkpt>
      <trkpt lat="40.054544" lon="-.730475">
        <ele>995.597</ele>
        <time>2020-08-29T12:49:49Z</time>
      </trkpt>
      <trkpt lat="40.054467" lon="-.730461">
        <ele>995.624</ele>
        <time>2020-08-29T12:49:51Z</time>
      </trkpt>
      <trkpt lat="40.054384" lon="-.730451">
        <ele>995.704</ele>
        <time>2020-08-29T12:49:53Z</time>
      </trkpt>
      <trkpt lat="40.054302" lon="-.730438">
        <ele>995.814</ele>
        <time>2020-08-29T12:49:55Z</time>
      </trkpt>
      <trkpt lat="40.054227" lon="-.730411">
        <ele>995.908</ele>
        <time>2020-08-29T12:49:57Z</time>
      </trkpt>
      <trkpt lat="40.054146" lon="-.730392">
        <ele>996.157</ele>
        <time>2020-08-29T12:49:59Z</time>
      </trkpt>
      <trkpt lat="40.054073" lon="-.730382">
        <ele>996.217</ele>
        <time>2020-08-29T12:50:01Z</time>
      </trkpt>
      <trkpt lat="40.053996" lon="-.730359">
        <ele>996.489</ele>
        <time>2020-08-29T12:50:03Z</time>
      </trkpt>
      <trkpt lat="40.05391" lon="-.730339">
        <ele>996.531</ele>
        <time>2020-08-29T12:50:05Z</time>
      </trkpt>
      <trkpt lat="40.053864" lon="-.730337">
        <ele>996.549</ele>
        <time>2020-08-29T12:50:06Z</time>
      </trkpt>
      <trkpt lat="40.053765" lon="-.730325">
        <ele>996.476</ele>
        <time>2020-08-29T12:50:08Z</time>
      </trkpt>
      <trkpt lat="40.053713" lon="-.730318">
        <ele>996.434</ele>
        <time>2020-08-29T12:50:09Z</time>
      </trkpt>
      <trkpt lat="40.053631" lon="-.730291">
        <ele>996.464</ele>
        <time>2020-08-29T12:50:11Z</time>
      </trkpt>
      <trkpt lat="40.05358" lon="-.730282">
        <ele>996.445</ele>
        <time>2020-08-29T12:50:12Z</time>
      </trkpt>
      <trkpt lat="40.05353" lon="-.730275">
        <ele>996.447</ele>
        <time>2020-08-29T12:50:13Z</time>
      </trkpt>
      <trkpt lat="40.053477" lon="-.730264">
        <ele>996.311</ele>
        <time>2020-08-29T12:50:14Z</time>
      </trkpt>
      <trkpt lat="40.053392" lon="-.73026">
        <ele>996.208</ele>
        <time>2020-08-29T12:50:16Z</time>
      </trkpt>
      <trkpt lat="40.05331" lon="-.730235">
        <ele>996.219</ele>
        <time>2020-08-29T12:50:18Z</time>
      </trkpt>
      <trkpt lat="40.053239" lon="-.730222">
        <ele>996.239</ele>
        <time>2020-08-29T12:50:20Z</time>
      </trkpt>
      <trkpt lat="40.053163" lon="-.730206">
        <ele>996.211</ele>
        <time>2020-08-29T12:50:22Z</time>
      </trkpt>
      <trkpt lat="40.05308" lon="-.730187">
        <ele>996.243</ele>
        <time>2020-08-29T12:50:24Z</time>
      </trkpt>
      <trkpt lat="40.053033" lon="-.730177">
        <ele>996.221</ele>
        <time>2020-08-29T12:50:25Z</time>
      </trkpt>
      <trkpt lat="40.052941" lon="-.730167">
        <ele>996.148</ele>
        <time>2020-08-29T12:50:27Z</time>
      </trkpt>
      <trkpt lat="40.052896" lon="-.73015">
        <ele>996.156</ele>
        <time>2020-08-29T12:50:28Z</time>
      </trkpt>
      <trkpt lat="40.052813" lon="-.730132">
        <ele>996.456</ele>
        <time>2020-08-29T12:50:30Z</time>
      </trkpt>
      <trkpt lat="40.052766" lon="-.730133">
        <ele>996.612</ele>
        <time>2020-08-29T12:50:31Z</time>
      </trkpt>
      <trkpt lat="40.052678" lon="-.730112">
        <ele>996.832</ele>
        <time>2020-08-29T12:50:33Z</time>
      </trkpt>
      <trkpt lat="40.052633" lon="-.730102">
        <ele>996.905</ele>
        <time>2020-08-29T12:50:34Z</time>
      </trkpt>
      <trkpt lat="40.052553" lon="-.730088">
        <ele>997.008</ele>
        <time>2020-08-29T12:50:36Z</time>
      </trkpt>
      <trkpt lat="40.052464" lon="-.730072">
        <ele>997.396</ele>
        <time>2020-08-29T12:50:38Z</time>
      </trkpt>
      <trkpt lat="40.052385" lon="-.730048">
        <ele>997.396</ele>
        <time>2020-08-29T12:50:40Z</time>
      </trkpt>
      <trkpt lat="40.052298" lon="-.730045">
        <ele>997.388</ele>
        <time>2020-08-29T12:50:42Z</time>
      </trkpt>
      <trkpt lat="40.052209" lon="-.730024">
        <ele>997.230</ele>
        <time>2020-08-29T12:50:44Z</time>
      </trkpt>
      <trkpt lat="40.052128" lon="-.730016">
        <ele>997.438</ele>
        <time>2020-08-29T12:50:46Z</time>
      </trkpt>
      <trkpt lat="40.052081" lon="-.730009">
        <ele>997.575</ele>
        <time>2020-08-29T12:50:47Z</time>
      </trkpt>
      <trkpt lat="40.052034" lon="-.729988">
        <ele>997.583</ele>
        <time>2020-08-29T12:50:48Z</time>
      </trkpt>
      <trkpt lat="40.051956" lon="-.729979">
        <ele>997.693</ele>
        <time>2020-08-29T12:50:50Z</time>
      </trkpt>
      <trkpt lat="40.051867" lon="-.729966">
        <ele>997.787</ele>
        <time>2020-08-29T12:50:52Z</time>
      </trkpt>
      <trkpt lat="40.051777" lon="-.729945">
        <ele>997.642</ele>
        <time>2020-08-29T12:50:54Z</time>
      </trkpt>
      <trkpt lat="40.051685" lon="-.729932">
        <ele>997.126</ele>
        <time>2020-08-29T12:50:56Z</time>
      </trkpt>
      <trkpt lat="40.05164" lon="-.729923">
        <ele>997.108</ele>
        <time>2020-08-29T12:50:57Z</time>
      </trkpt>
      <trkpt lat="40.051562" lon="-.729911">
        <ele>997.373</ele>
        <time>2020-08-29T12:50:59Z</time>
      </trkpt>
      <trkpt lat="40.051484" lon="-.729892">
        <ele>997.623</ele>
        <time>2020-08-29T12:51:01Z</time>
      </trkpt>
      <trkpt lat="40.051413" lon="-.729867">
        <ele>997.565</ele>
        <time>2020-08-29T12:51:03Z</time>
      </trkpt>
      <trkpt lat="40.051351" lon="-.729861">
        <ele>997.627</ele>
        <time>2020-08-29T12:51:05Z</time>
      </trkpt>
      <trkpt lat="40.051278" lon="-.729847">
        <ele>997.825</ele>
        <time>2020-08-29T12:51:07Z</time>
      </trkpt>
      <trkpt lat="40.051201" lon="-.729831">
        <ele>998.032</ele>
        <time>2020-08-29T12:51:09Z</time>
      </trkpt>
      <trkpt lat="40.051115" lon="-.729823">
        <ele>997.950</ele>
        <time>2020-08-29T12:51:11Z</time>
      </trkpt>
      <trkpt lat="40.051071" lon="-.729806">
        <ele>997.880</ele>
        <time>2020-08-29T12:51:12Z</time>
      </trkpt>
      <trkpt lat="40.051019" lon="-.72981">
        <ele>997.651</ele>
        <time>2020-08-29T12:51:13Z</time>
      </trkpt>
      <trkpt lat="40.050972" lon="-.729809">
        <ele>997.501</ele>
        <time>2020-08-29T12:51:14Z</time>
      </trkpt>
      <trkpt lat="40.050891" lon="-.729787">
        <ele>997.411</ele>
        <time>2020-08-29T12:51:16Z</time>
      </trkpt>
      <trkpt lat="40.050808" lon="-.729783">
        <ele>997.608</ele>
        <time>2020-08-29T12:51:18Z</time>
      </trkpt>
      <trkpt lat="40.050763" lon="-.729763">
        <ele>997.740</ele>
        <time>2020-08-29T12:51:19Z</time>
      </trkpt>
      <trkpt lat="40.050685" lon="-.729743">
        <ele>998.080</ele>
        <time>2020-08-29T12:51:21Z</time>
      </trkpt>
      <trkpt lat="40.05064" lon="-.729738">
        <ele>998.112</ele>
        <time>2020-08-29T12:51:22Z</time>
      </trkpt>
      <trkpt lat="40.050593" lon="-.729722">
        <ele>998.134</ele>
        <time>2020-08-29T12:51:23Z</time>
      </trkpt>
      <trkpt lat="40.050503" lon="-.729704">
        <ele>997.912</ele>
        <time>2020-08-29T12:51:25Z</time>
      </trkpt>
      <trkpt lat="40.05042" lon="-.729689">
        <ele>997.639</ele>
        <time>2020-08-29T12:51:27Z</time>
      </trkpt>
      <trkpt lat="40.050339" lon="-.729668">
        <ele>997.627</ele>
        <time>2020-08-29T12:51:29Z</time>
      </trkpt>
      <trkpt lat="40.050292" lon="-.72966">
        <ele>997.777</ele>
        <time>2020-08-29T12:51:30Z</time>
      </trkpt>
      <trkpt lat="40.050205" lon="-.729641">
        <ele>997.932</ele>
        <time>2020-08-29T12:51:32Z</time>
      </trkpt>
      <trkpt lat="40.05012" lon="-.729627">
        <ele>997.992</ele>
        <time>2020-08-29T12:51:34Z</time>
      </trkpt>
      <trkpt lat="40.05007" lon="-.729625">
        <ele>997.711</ele>
        <time>2020-08-29T12:51:35Z</time>
      </trkpt>
      <trkpt lat="40.049989" lon="-.729603">
        <ele>997.508</ele>
        <time>2020-08-29T12:51:37Z</time>
      </trkpt>
      <trkpt lat="40.049917" lon="-.729591">
        <ele>997.698</ele>
        <time>2020-08-29T12:51:39Z</time>
      </trkpt>
      <trkpt lat="40.049828" lon="-.729573">
        <ele>997.928</ele>
        <time>2020-08-29T12:51:41Z</time>
      </trkpt>
      <trkpt lat="40.049747" lon="-.729557">
        <ele>998.360</ele>
        <time>2020-08-29T12:51:43Z</time>
      </trkpt>
      <trkpt lat="40.0497" lon="-.72956">
        <ele>998.452</ele>
        <time>2020-08-29T12:51:44Z</time>
      </trkpt>
      <trkpt lat="40.049612" lon="-.729531">
        <ele>998.550</ele>
        <time>2020-08-29T12:51:46Z</time>
      </trkpt>
      <trkpt lat="40.049526" lon="-.729523">
        <ele>998.527</ele>
        <time>2020-08-29T12:51:48Z</time>
      </trkpt>
      <trkpt lat="40.049478" lon="-.729518">
        <ele>998.685</ele>
        <time>2020-08-29T12:51:49Z</time>
      </trkpt>
      <trkpt lat="40.049403" lon="-.729504">
        <ele>999.025</ele>
        <time>2020-08-29T12:51:51Z</time>
      </trkpt>
      <trkpt lat="40.049356" lon="-.72949">
        <ele>999.022</ele>
        <time>2020-08-29T12:51:52Z</time>
      </trkpt>
      <trkpt lat="40.049309" lon="-.729496">
        <ele>999.062</ele>
        <time>2020-08-29T12:51:53Z</time>
      </trkpt>
      <trkpt lat="40.049228" lon="-.729465">
        <ele>998.808</ele>
        <time>2020-08-29T12:51:55Z</time>
      </trkpt>
      <trkpt lat="40.049149" lon="-.72945">
        <ele>998.708</ele>
        <time>2020-08-29T12:51:57Z</time>
      </trkpt>
      <trkpt lat="40.049069" lon="-.729436">
        <ele>998.687</ele>
        <time>2020-08-29T12:51:59Z</time>
      </trkpt>
      <trkpt lat="40.049023" lon="-.72943">
        <ele>998.617</ele>
        <time>2020-08-29T12:52:00Z</time>
      </trkpt>
      <trkpt lat="40.048978" lon="-.729425">
        <ele>998.799</ele>
        <time>2020-08-29T12:52:01Z</time>
      </trkpt>
      <trkpt lat="40.048894" lon="-.729399">
        <ele>999.061</ele>
        <time>2020-08-29T12:52:03Z</time>
      </trkpt>
      <trkpt lat="40.048846" lon="-.729391">
        <ele>999.079</ele>
        <time>2020-08-29T12:52:04Z</time>
      </trkpt>
      <trkpt lat="40.048795" lon="-.729385">
        <ele>998.926</ele>
        <time>2020-08-29T12:52:05Z</time>
      </trkpt>
      <trkpt lat="40.048708" lon="-.729364">
        <ele>998.664</ele>
        <time>2020-08-29T12:52:07Z</time>
      </trkpt>
      <trkpt lat="40.048664" lon="-.729347">
        <ele>998.414</ele>
        <time>2020-08-29T12:52:08Z</time>
      </trkpt>
      <trkpt lat="40.048578" lon="-.729329">
        <ele>998.331</ele>
        <time>2020-08-29T12:52:10Z</time>
      </trkpt>
      <trkpt lat="40.048528" lon="-.729323">
        <ele>998.261</ele>
        <time>2020-08-29T12:52:11Z</time>
      </trkpt>
      <trkpt lat="40.048455" lon="-.729294">
        <ele>998.207</ele>
        <time>2020-08-29T12:52:13Z</time>
      </trkpt>
      <trkpt lat="40.048404" lon="-.729289">
        <ele>998.408</ele>
        <time>2020-08-29T12:52:14Z</time>
      </trkpt>
      <trkpt lat="40.048349" lon="-.729286">
        <ele>998.678</ele>
        <time>2020-08-29T12:52:15Z</time>
      </trkpt>
      <trkpt lat="40.048304" lon="-.729273">
        <ele>998.798</ele>
        <time>2020-08-29T12:52:16Z</time>
      </trkpt>
      <trkpt lat="40.048253" lon="-.729265">
        <ele>998.870</ele>
        <time>2020-08-29T12:52:17Z</time>
      </trkpt>
      <trkpt lat="40.048206" lon="-.729259">
        <ele>998.852</ele>
        <time>2020-08-29T12:52:18Z</time>
      </trkpt>
      <trkpt lat="40.04816" lon="-.729241">
        <ele>998.880</ele>
        <time>2020-08-29T12:52:19Z</time>
      </trkpt>
      <trkpt lat="40.048115" lon="-.72924">
        <ele>998.827</ele>
        <time>2020-08-29T12:52:20Z</time>
      </trkpt>
      <trkpt lat="40.048069" lon="-.729233">
        <ele>998.895</ele>
        <time>2020-08-29T12:52:21Z</time>
      </trkpt>
      <trkpt lat="40.047995" lon="-.729214">
        <ele>998.995</ele>
        <time>2020-08-29T12:52:23Z</time>
      </trkpt>
      <trkpt lat="40.047917" lon="-.729197">
        <ele>999.031</ele>
        <time>2020-08-29T12:52:25Z</time>
      </trkpt>
      <trkpt lat="40.047839" lon="-.729188">
        <ele>999.061</ele>
        <time>2020-08-29T12:52:27Z</time>
      </trkpt>
      <trkpt lat="40.047753" lon="-.72918">
        <ele>999.007</ele>
        <time>2020-08-29T12:52:29Z</time>
      </trkpt>
      <trkpt lat="40.047668" lon="-.729163">
        <ele>998.908</ele>
        <time>2020-08-29T12:52:31Z</time>
      </trkpt>
      <trkpt lat="40.047621" lon="-.729153">
        <ele>998.948</ele>
        <time>2020-08-29T12:52:32Z</time>
      </trkpt>
      <trkpt lat="40.047537" lon="-.729139">
        <ele>999.048</ele>
        <time>2020-08-29T12:52:34Z</time>
      </trkpt>
      <trkpt lat="40.047486" lon="-.729132">
        <ele>999.090</ele>
        <time>2020-08-29T12:52:35Z</time>
      </trkpt>
      <trkpt lat="40.047438" lon="-.72912">
        <ele>999.132</ele>
        <time>2020-08-29T12:52:36Z</time>
      </trkpt>
      <trkpt lat="40.04739" lon="-.729112">
        <ele>999.310</ele>
        <time>2020-08-29T12:52:37Z</time>
      </trkpt>
      <trkpt lat="40.047343" lon="-.729102">
        <ele>999.547</ele>
        <time>2020-08-29T12:52:38Z</time>
      </trkpt>
      <trkpt lat="40.047297" lon="-.729097">
        <ele>999.565</ele>
        <time>2020-08-29T12:52:39Z</time>
      </trkpt>
      <trkpt lat="40.047252" lon="-.729086">
        <ele>999.765</ele>
        <time>2020-08-29T12:52:40Z</time>
      </trkpt>
      <trkpt lat="40.047173" lon="-.72906">
        <ele>1000.013</ele>
        <time>2020-08-29T12:52:42Z</time>
      </trkpt>
      <trkpt lat="40.047117" lon="-.729065">
        <ele>1000.043</ele>
        <time>2020-08-29T12:52:43Z</time>
      </trkpt>
      <trkpt lat="40.047065" lon="-.729052">
        <ele>1000.007</ele>
        <time>2020-08-29T12:52:44Z</time>
      </trkpt>
      <trkpt lat="40.046982" lon="-.729026">
        <ele>999.908</ele>
        <time>2020-08-29T12:52:46Z</time>
      </trkpt>
      <trkpt lat="40.04689" lon="-.72902">
        <ele>999.966</ele>
        <time>2020-08-29T12:52:48Z</time>
      </trkpt>
      <trkpt lat="40.046809" lon="-.728999">
        <ele>999.896</ele>
        <time>2020-08-29T12:52:50Z</time>
      </trkpt>
      <trkpt lat="40.046736" lon="-.728988">
        <ele>999.828</ele>
        <time>2020-08-29T12:52:52Z</time>
      </trkpt>
      <trkpt lat="40.046663" lon="-.728987">
        <ele>999.510</ele>
        <time>2020-08-29T12:52:54Z</time>
      </trkpt>
      <trkpt lat="40.046578" lon="-.728987">
        <ele>998.278</ele>
        <time>2020-08-29T12:52:56Z</time>
      </trkpt>
      <trkpt lat="40.046489" lon="-.728981">
        <ele>997.735</ele>
        <time>2020-08-29T12:52:58Z</time>
      </trkpt>
      <trkpt lat="40.046412" lon="-.728973">
        <ele>999.553</ele>
        <time>2020-08-29T12:53:00Z</time>
      </trkpt>
      <trkpt lat="40.046364" lon="-.728987">
        <ele>999.913</ele>
        <time>2020-08-29T12:53:01Z</time>
      </trkpt>
      <trkpt lat="40.046284" lon="-.728991">
        <ele>1000.022</ele>
        <time>2020-08-29T12:53:03Z</time>
      </trkpt>
      <trkpt lat="40.046238" lon="-.728999">
        <ele>1000.162</ele>
        <time>2020-08-29T12:53:04Z</time>
      </trkpt>
      <trkpt lat="40.046158" lon="-.729022">
        <ele>1000.708</ele>
        <time>2020-08-29T12:53:06Z</time>
      </trkpt>
      <trkpt lat="40.046108" lon="-.729029">
        <ele>1000.708</ele>
        <time>2020-08-29T12:53:07Z</time>
      </trkpt>
      <trkpt lat="40.046058" lon="-.729038">
        <ele>1000.777</ele>
        <time>2020-08-29T12:53:08Z</time>
      </trkpt>
      <trkpt lat="40.045975" lon="-.729056">
        <ele>1000.047</ele>
        <time>2020-08-29T12:53:10Z</time>
      </trkpt>
      <trkpt lat="40.045896" lon="-.729078">
        <ele>999.459</ele>
        <time>2020-08-29T12:53:12Z</time>
      </trkpt>
      <trkpt lat="40.045852" lon="-.729092">
        <ele>999.211</ele>
        <time>2020-08-29T12:53:13Z</time>
      </trkpt>
      <trkpt lat="40.045771" lon="-.729113">
        <ele>999.249</ele>
        <time>2020-08-29T12:53:15Z</time>
      </trkpt>
      <trkpt lat="40.045691" lon="-.729141">
        <ele>999.266</ele>
        <time>2020-08-29T12:53:17Z</time>
      </trkpt>
      <trkpt lat="40.045614" lon="-.729172">
        <ele>999.334</ele>
        <time>2020-08-29T12:53:19Z</time>
      </trkpt>
      <trkpt lat="40.045546" lon="-.729194">
        <ele>1000.414</ele>
        <time>2020-08-29T12:53:21Z</time>
      </trkpt>
      <trkpt lat="40.04548" lon="-.729218">
        <ele>1000.768</ele>
        <time>2020-08-29T12:53:23Z</time>
      </trkpt>
      <trkpt lat="40.045426" lon="-.729242">
        <ele>1000.442</ele>
        <time>2020-08-29T12:53:25Z</time>
      </trkpt>
      <trkpt lat="40.045368" lon="-.72927">
        <ele>1000.426</ele>
        <time>2020-08-29T12:53:28Z</time>
      </trkpt>
      <trkpt lat="40.045299" lon="-.729321">
        <ele>1000.508</ele>
        <time>2020-08-29T12:53:30Z</time>
      </trkpt>
      <trkpt lat="40.045233" lon="-.72936">
        <ele>1000.321</ele>
        <time>2020-08-29T12:53:32Z</time>
      </trkpt>
      <trkpt lat="40.045168" lon="-.729396">
        <ele>999.351</ele>
        <time>2020-08-29T12:53:34Z</time>
      </trkpt>
      <trkpt lat="40.045093" lon="-.729456">
        <ele>999.513</ele>
        <time>2020-08-29T12:53:36Z</time>
      </trkpt>
      <trkpt lat="40.045004" lon="-.729514">
        <ele>1000.225</ele>
        <time>2020-08-29T12:53:38Z</time>
      </trkpt>
      <trkpt lat="40.044931" lon="-.729563">
        <ele>999.763</ele>
        <time>2020-08-29T12:53:40Z</time>
      </trkpt>
      <trkpt lat="40.044855" lon="-.729611">
        <ele>999.560</ele>
        <time>2020-08-29T12:53:42Z</time>
      </trkpt>
      <trkpt lat="40.044777" lon="-.729666">
        <ele>999.988</ele>
        <time>2020-08-29T12:53:44Z</time>
      </trkpt>
      <trkpt lat="40.044737" lon="-.729703">
        <ele>1000.068</ele>
        <time>2020-08-29T12:53:45Z</time>
      </trkpt>
      <trkpt lat="40.044653" lon="-.729752">
        <ele>1000.835</ele>
        <time>2020-08-29T12:53:47Z</time>
      </trkpt>
      <trkpt lat="40.04457" lon="-.729797">
        <ele>1001.386</ele>
        <time>2020-08-29T12:53:49Z</time>
      </trkpt>
      <trkpt lat="40.044527" lon="-.729833">
        <ele>1001.314</ele>
        <time>2020-08-29T12:53:50Z</time>
      </trkpt>
      <trkpt lat="40.044464" lon="-.729888">
        <ele>1000.508</ele>
        <time>2020-08-29T12:53:52Z</time>
      </trkpt>
      <trkpt lat="40.044421" lon="-.729919">
        <ele>1000.048</ele>
        <time>2020-08-29T12:53:53Z</time>
      </trkpt>
      <trkpt lat="40.04435" lon="-.729973">
        <ele>1000.358</ele>
        <time>2020-08-29T12:53:55Z</time>
      </trkpt>
      <trkpt lat="40.044277" lon="-.730031">
        <ele>1000.540</ele>
        <time>2020-08-29T12:53:57Z</time>
      </trkpt>
      <trkpt lat="40.044202" lon="-.730089">
        <ele>1001.222</ele>
        <time>2020-08-29T12:53:59Z</time>
      </trkpt>
      <trkpt lat="40.044139" lon="-.730129">
        <ele>1001.560</ele>
        <time>2020-08-29T12:54:01Z</time>
      </trkpt>
      <trkpt lat="40.044081" lon="-.730169">
        <ele>1001.017</ele>
        <time>2020-08-29T12:54:03Z</time>
      </trkpt>
      <trkpt lat="40.044016" lon="-.730213">
        <ele>1000.625</ele>
        <time>2020-08-29T12:54:05Z</time>
      </trkpt>
      <trkpt lat="40.04397" lon="-.730253">
        <ele>1000.915</ele>
        <time>2020-08-29T12:54:07Z</time>
      </trkpt>
      <trkpt lat="40.043912" lon="-.730296">
        <ele>1001.742</ele>
        <time>2020-08-29T12:54:09Z</time>
      </trkpt>
      <trkpt lat="40.043872" lon="-.730324">
        <ele>1002.222</ele>
        <time>2020-08-29T12:54:10Z</time>
      </trkpt>
      <trkpt lat="40.043811" lon="-.730362">
        <ele>1001.914</ele>
        <time>2020-08-29T12:54:12Z</time>
      </trkpt>
      <trkpt lat="40.043737" lon="-.730422">
        <ele>1001.908</ele>
        <time>2020-08-29T12:54:14Z</time>
      </trkpt>
      <trkpt lat="40.043697" lon="-.730451">
        <ele>1001.719</ele>
        <time>2020-08-29T12:54:15Z</time>
      </trkpt>
      <trkpt lat="40.043625" lon="-.730495">
        <ele>1001.719</ele>
        <time>2020-08-29T12:54:17Z</time>
      </trkpt>
      <trkpt lat="40.043551" lon="-.730548">
        <ele>1001.831</ele>
        <time>2020-08-29T12:54:19Z</time>
      </trkpt>
      <trkpt lat="40.043498" lon="-.730573">
        <ele>1001.773</ele>
        <time>2020-08-29T12:54:21Z</time>
      </trkpt>
      <trkpt lat="40.043436" lon="-.730613">
        <ele>1001.571</ele>
        <time>2020-08-29T12:54:23Z</time>
      </trkpt>
      <trkpt lat="40.043381" lon="-.730651">
        <ele>1001.598</ele>
        <time>2020-08-29T12:54:25Z</time>
      </trkpt>
      <trkpt lat="40.043329" lon="-.730693">
        <ele>1001.816</ele>
        <time>2020-08-29T12:54:27Z</time>
      </trkpt>
      <trkpt lat="40.043272" lon="-.730716">
        <ele>1001.846</ele>
        <time>2020-08-29T12:54:30Z</time>
      </trkpt>
      <trkpt lat="40.043215" lon="-.730736">
        <ele>1001.543</ele>
        <time>2020-08-29T12:54:33Z</time>
      </trkpt>
      <trkpt lat="40.043107" lon="-.730824">
        <ele>1001.264</ele>
        <time>2020-08-29T12:55:14Z</time>
      </trkpt>
      <trkpt lat="40.04305" lon="-.730803">
        <ele>1001.910</ele>
        <time>2020-08-29T12:58:18Z</time>
      </trkpt>
      <trkpt lat="40.043075" lon="-.730857">
        <ele>1002.408</ele>
        <time>2020-08-29T12:59:55Z</time>
      </trkpt>
      <trkpt lat="40.043023" lon="-.730866">
        <ele>1002.699</ele>
        <time>2020-08-29T13:00:01Z</time>
      </trkpt>
      <trkpt lat="40.042978" lon="-.73091">
        <ele>1001.939</ele>
        <time>2020-08-29T13:00:04Z</time>
      </trkpt>
      <trkpt lat="40.042915" lon="-.730925">
        <ele>1001.451</ele>
        <time>2020-08-29T13:00:07Z</time>
      </trkpt>
      <trkpt lat="40.042863" lon="-.730956">
        <ele>1001.633</ele>
        <time>2020-08-29T13:00:09Z</time>
      </trkpt>
      <trkpt lat="40.042791" lon="-.73098">
        <ele>1001.741</ele>
        <time>2020-08-29T13:00:12Z</time>
      </trkpt>
      <trkpt lat="40.04274" lon="-.730993">
        <ele>1002.178</ele>
        <time>2020-08-29T13:00:14Z</time>
      </trkpt>
      <trkpt lat="40.042682" lon="-.731019">
        <ele>1002.196</ele>
        <time>2020-08-29T13:00:16Z</time>
      </trkpt>
      <trkpt lat="40.04263" lon="-.731048">
        <ele>1002.666</ele>
        <time>2020-08-29T13:00:18Z</time>
      </trkpt>
      <trkpt lat="40.042572" lon="-.731065">
        <ele>1002.832</ele>
        <time>2020-08-29T13:00:20Z</time>
      </trkpt>
      <trkpt lat="40.042523" lon="-.731079">
        <ele>1002.892</ele>
        <time>2020-08-29T13:00:21Z</time>
      </trkpt>
      <trkpt lat="40.042479" lon="-.731092">
        <ele>1002.411</ele>
        <time>2020-08-29T13:00:22Z</time>
      </trkpt>
      <trkpt lat="40.042416" lon="-.731121">
        <ele>1002.508</ele>
        <time>2020-08-29T13:00:24Z</time>
      </trkpt>
      <trkpt lat="40.042348" lon="-.731154">
        <ele>1002.928</ele>
        <time>2020-08-29T13:00:26Z</time>
      </trkpt>
      <trkpt lat="40.042294" lon="-.731154">
        <ele>1002.918</ele>
        <time>2020-08-29T13:00:30Z</time>
      </trkpt>
      <trkpt lat="40.042246" lon="-.731169">
        <ele>1003.480</ele>
        <time>2020-08-29T13:00:32Z</time>
      </trkpt>
      <trkpt lat="40.042202" lon="-.731181">
        <ele>1002.692</ele>
        <time>2020-08-29T13:00:34Z</time>
      </trkpt>
      <trkpt lat="40.04215" lon="-.731195">
        <ele>1002.040</ele>
        <time>2020-08-29T13:00:36Z</time>
      </trkpt>
      <trkpt lat="40.042098" lon="-.731205">
        <ele>1002.197</ele>
        <time>2020-08-29T13:00:38Z</time>
      </trkpt>
      <trkpt lat="40.042049" lon="-.731215">
        <ele>1002.855</ele>
        <time>2020-08-29T13:00:40Z</time>
      </trkpt>
      <trkpt lat="40.041995" lon="-.731231">
        <ele>1003.035</ele>
        <time>2020-08-29T13:00:42Z</time>
      </trkpt>
      <trkpt lat="40.041941" lon="-.731231">
        <ele>1002.197</ele>
        <time>2020-08-29T13:00:44Z</time>
      </trkpt>
      <trkpt lat="40.041891" lon="-.731248">
        <ele>1002.723</ele>
        <time>2020-08-29T13:00:46Z</time>
      </trkpt>
      <trkpt lat="40.041834" lon="-.731249">
        <ele>1003.325</ele>
        <time>2020-08-29T13:00:48Z</time>
      </trkpt>
      <trkpt lat="40.041782" lon="-.731226">
        <ele>1003.008</ele>
        <time>2020-08-29T13:00:50Z</time>
      </trkpt>
      <trkpt lat="40.041728" lon="-.731226">
        <ele>1002.924</ele>
        <time>2020-08-29T13:00:52Z</time>
      </trkpt>
      <trkpt lat="40.041677" lon="-.731228">
        <ele>1002.634</ele>
        <time>2020-08-29T13:00:54Z</time>
      </trkpt>
      <trkpt lat="40.041629" lon="-.731219">
        <ele>1002.326</ele>
        <time>2020-08-29T13:00:56Z</time>
      </trkpt>
      <trkpt lat="40.041576" lon="-.73122">
        <ele>1002.238</ele>
        <time>2020-08-29T13:00:58Z</time>
      </trkpt>
      <trkpt lat="40.041518" lon="-.731195">
        <ele>1001.976</ele>
        <time>2020-08-29T13:01:00Z</time>
      </trkpt>
      <trkpt lat="40.041447" lon="-.731175">
        <ele>1002.153</ele>
        <time>2020-08-29T13:01:02Z</time>
      </trkpt>
      <trkpt lat="40.041371" lon="-.731171">
        <ele>1002.481</ele>
        <time>2020-08-29T13:01:04Z</time>
      </trkpt>
      <trkpt lat="40.041323" lon="-.731176">
        <ele>1003.281</ele>
        <time>2020-08-29T13:01:05Z</time>
      </trkpt>
      <trkpt lat="40.041258" lon="-.731146">
        <ele>1003.831</ele>
        <time>2020-08-29T13:01:07Z</time>
      </trkpt>
      <trkpt lat="40.041197" lon="-.731109">
        <ele>1003.361</ele>
        <time>2020-08-29T13:01:09Z</time>
      </trkpt>
      <trkpt lat="40.041122" lon="-.731094">
        <ele>1003.007</ele>
        <time>2020-08-29T13:01:11Z</time>
      </trkpt>
      <trkpt lat="40.041056" lon="-.731095">
        <ele>1002.908</ele>
        <time>2020-08-29T13:01:13Z</time>
      </trkpt>
      <trkpt lat="40.04099" lon="-.731067">
        <ele>1002.818</ele>
        <time>2020-08-29T13:01:15Z</time>
      </trkpt>
      <trkpt lat="40.040924" lon="-.731041">
        <ele>1002.148</ele>
        <time>2020-08-29T13:01:17Z</time>
      </trkpt>
      <trkpt lat="40.040859" lon="-.730999">
        <ele>1002.690</ele>
        <time>2020-08-29T13:01:19Z</time>
      </trkpt>
      <trkpt lat="40.040802" lon="-.730955">
        <ele>1003.192</ele>
        <time>2020-08-29T13:01:21Z</time>
      </trkpt>
      <trkpt lat="40.040736" lon="-.730925">
        <ele>1004.380</ele>
        <time>2020-08-29T13:01:23Z</time>
      </trkpt>
      <trkpt lat="40.040662" lon="-.730873">
        <ele>1004.277</ele>
        <time>2020-08-29T13:01:25Z</time>
      </trkpt>
      <trkpt lat="40.040598" lon="-.730822">
        <ele>1003.925</ele>
        <time>2020-08-29T13:01:27Z</time>
      </trkpt>
      <trkpt lat="40.040545" lon="-.730779">
        <ele>1003.445</ele>
        <time>2020-08-29T13:01:29Z</time>
      </trkpt>
      <trkpt lat="40.040473" lon="-.730745">
        <ele>1003.385</ele>
        <time>2020-08-29T13:01:31Z</time>
      </trkpt>
      <trkpt lat="40.040419" lon="-.730683">
        <ele>1003.289</ele>
        <time>2020-08-29T13:01:33Z</time>
      </trkpt>
      <trkpt lat="40.040356" lon="-.730643">
        <ele>1003.117</ele>
        <time>2020-08-29T13:01:35Z</time>
      </trkpt>
      <trkpt lat="40.040304" lon="-.730602">
        <ele>1003.008</ele>
        <time>2020-08-29T13:01:37Z</time>
      </trkpt>
      <trkpt lat="40.040234" lon="-.730547">
        <ele>1002.543</ele>
        <time>2020-08-29T13:01:39Z</time>
      </trkpt>
      <trkpt lat="40.040173" lon="-.730518">
        <ele>1003.213</ele>
        <time>2020-08-29T13:01:42Z</time>
      </trkpt>
      <trkpt lat="40.039906" lon="-.73035">
        <ele>1003.515</ele>
        <time>2020-08-29T13:03:10Z</time>
      </trkpt>
      <trkpt lat="40.039916" lon="-.730291">
        <ele>1003.687</ele>
        <time>2020-08-29T13:03:27Z</time>
      </trkpt>
      <trkpt lat="40.039947" lon="-.730338">
        <ele>1003.415</ele>
        <time>2020-08-29T13:09:43Z</time>
      </trkpt>
      <trkpt lat="40.039926" lon="-.730284">
        <ele>1004.132</ele>
        <time>2020-08-29T13:24:03Z</time>
      </trkpt>
      <trkpt lat="40.039879" lon="-.730278">
        <ele>1005.810</ele>
        <time>2020-08-29T13:28:46Z</time>
      </trkpt>
      <trkpt lat="40.039847" lon="-.73022">
        <ele>1005.490</ele>
        <time>2020-08-29T13:28:50Z</time>
      </trkpt>
      <trkpt lat="40.039809" lon="-.730167">
        <ele>1005.329</ele>
        <time>2020-08-29T13:28:52Z</time>
      </trkpt>
      <trkpt lat="40.039773" lon="-.730119">
        <ele>1005.300</ele>
        <time>2020-08-29T13:28:54Z</time>
      </trkpt>
      <trkpt lat="40.039736" lon="-.730041">
        <ele>1005.820</ele>
        <time>2020-08-29T13:28:57Z</time>
      </trkpt>
      <trkpt lat="40.039693" lon="-.729977">
        <ele>1006.508</ele>
        <time>2020-08-29T13:28:59Z</time>
      </trkpt>
      <trkpt lat="40.039645" lon="-.729911">
        <ele>1007.057</ele>
        <time>2020-08-29T13:29:01Z</time>
      </trkpt>
      <trkpt lat="40.039609" lon="-.729847">
        <ele>1006.827</ele>
        <time>2020-08-29T13:29:03Z</time>
      </trkpt>
      <trkpt lat="40.039575" lon="-.72977">
        <ele>1006.739</ele>
        <time>2020-08-29T13:29:05Z</time>
      </trkpt>
      <trkpt lat="40.039537" lon="-.729705">
        <ele>1006.621</ele>
        <time>2020-08-29T13:29:07Z</time>
      </trkpt>
      <trkpt lat="40.039506" lon="-.729642">
        <ele>1006.539</ele>
        <time>2020-08-29T13:29:09Z</time>
      </trkpt>
      <trkpt lat="40.039467" lon="-.729559">
        <ele>1006.376</ele>
        <time>2020-08-29T13:29:11Z</time>
      </trkpt>
      <trkpt lat="40.039434" lon="-.729486">
        <ele>1006.454</ele>
        <time>2020-08-29T13:29:13Z</time>
      </trkpt>
      <trkpt lat="40.039393" lon="-.729409">
        <ele>1006.644</ele>
        <time>2020-08-29T13:29:15Z</time>
      </trkpt>
      <trkpt lat="40.039374" lon="-.729313">
        <ele>1006.287</ele>
        <time>2020-08-29T13:29:19Z</time>
      </trkpt>
      <trkpt lat="40.039335" lon="-.729245">
        <ele>1006.742</ele>
        <time>2020-08-29T13:29:22Z</time>
      </trkpt>
      <trkpt lat="40.039276" lon="-.729166">
        <ele>1006.826</ele>
        <time>2020-08-29T13:29:25Z</time>
      </trkpt>
      <trkpt lat="40.039221" lon="-.729083">
        <ele>1006.708</ele>
        <time>2020-08-29T13:29:28Z</time>
      </trkpt>
      <trkpt lat="40.039196" lon="-.729033">
        <ele>1007.183</ele>
        <time>2020-08-29T13:29:30Z</time>
      </trkpt>
      <trkpt lat="40.039168" lon="-.728986">
        <ele>1006.683</ele>
        <time>2020-08-29T13:29:31Z</time>
      </trkpt>
      <trkpt lat="40.039131" lon="-.728935">
        <ele>1007.065</ele>
        <time>2020-08-29T13:29:33Z</time>
      </trkpt>
      <trkpt lat="40.039096" lon="-.728872">
        <ele>1007.267</ele>
        <time>2020-08-29T13:29:35Z</time>
      </trkpt>
      <trkpt lat="40.039065" lon="-.728817">
        <ele>1007.695</ele>
        <time>2020-08-29T13:29:37Z</time>
      </trkpt>
      <trkpt lat="40.039041" lon="-.728738">
        <ele>1007.772</ele>
        <time>2020-08-29T13:29:39Z</time>
      </trkpt>
      <trkpt lat="40.039003" lon="-.728663">
        <ele>1007.550</ele>
        <time>2020-08-29T13:29:41Z</time>
      </trkpt>
      <trkpt lat="40.038969" lon="-.7286">
        <ele>1007.530</ele>
        <time>2020-08-29T13:29:43Z</time>
      </trkpt>
      <trkpt lat="40.038927" lon="-.728544">
        <ele>1007.445</ele>
        <time>2020-08-29T13:29:45Z</time>
      </trkpt>
      <trkpt lat="40.038874" lon="-.728473">
        <ele>1006.847</ele>
        <time>2020-08-29T13:29:47Z</time>
      </trkpt>
      <trkpt lat="40.03884" lon="-.728409">
        <ele>1007.111</ele>
        <time>2020-08-29T13:29:49Z</time>
      </trkpt>
      <trkpt lat="40.0388" lon="-.728349">
        <ele>1007.308</ele>
        <time>2020-08-29T13:29:51Z</time>
      </trkpt>
      <trkpt lat="40.03876" lon="-.728291">
        <ele>1007.939</ele>
        <time>2020-08-29T13:29:53Z</time>
      </trkpt>
      <trkpt lat="40.038724" lon="-.728213">
        <ele>1007.669</ele>
        <time>2020-08-29T13:29:55Z</time>
      </trkpt>
      <trkpt lat="40.038699" lon="-.728108">
        <ele>1007.371</ele>
        <time>2020-08-29T13:29:57Z</time>
      </trkpt>
      <trkpt lat="40.038678" lon="-.728031">
        <ele>1007.313</ele>
        <time>2020-08-29T13:29:59Z</time>
      </trkpt>
      <trkpt lat="40.038646" lon="-.727951">
        <ele>1007.631</ele>
        <time>2020-08-29T13:30:01Z</time>
      </trkpt>
      <trkpt lat="40.038631" lon="-.727868">
        <ele>1007.868</ele>
        <time>2020-08-29T13:30:03Z</time>
      </trkpt>
      <trkpt lat="40.038595" lon="-.727794">
        <ele>1008.166</ele>
        <time>2020-08-29T13:30:05Z</time>
      </trkpt>
      <trkpt lat="40.038568" lon="-.727711">
        <ele>1007.796</ele>
        <time>2020-08-29T13:30:07Z</time>
      </trkpt>
      <trkpt lat="40.038532" lon="-.727628">
        <ele>1007.276</ele>
        <time>2020-08-29T13:30:09Z</time>
      </trkpt>
      <trkpt lat="40.038513" lon="-.727535">
        <ele>1007.690</ele>
        <time>2020-08-29T13:30:11Z</time>
      </trkpt>
      <trkpt lat="40.038486" lon="-.727451">
        <ele>1007.919</ele>
        <time>2020-08-29T13:30:13Z</time>
      </trkpt>
      <trkpt lat="40.038456" lon="-.727344">
        <ele>1008.308</ele>
        <time>2020-08-29T13:30:15Z</time>
      </trkpt>
      <trkpt lat="40.038424" lon="-.727245">
        <ele>1008.072</ele>
        <time>2020-08-29T13:30:17Z</time>
      </trkpt>
      <trkpt lat="40.038391" lon="-.727149">
        <ele>1007.912</ele>
        <time>2020-08-29T13:30:19Z</time>
      </trkpt>
      <trkpt lat="40.038364" lon="-.727066">
        <ele>1007.994</ele>
        <time>2020-08-29T13:30:21Z</time>
      </trkpt>
      <trkpt lat="40.038347" lon="-.727004">
        <ele>1007.926</ele>
        <time>2020-08-29T13:30:22Z</time>
      </trkpt>
      <trkpt lat="40.038327" lon="-.726905">
        <ele>1008.094</ele>
        <time>2020-08-29T13:30:24Z</time>
      </trkpt>
      <trkpt lat="40.038307" lon="-.726813">
        <ele>1007.931</ele>
        <time>2020-08-29T13:30:26Z</time>
      </trkpt>
      <trkpt lat="40.038292" lon="-.726728">
        <ele>1008.389</ele>
        <time>2020-08-29T13:30:28Z</time>
      </trkpt>
      <trkpt lat="40.038258" lon="-.726669">
        <ele>1008.719</ele>
        <time>2020-08-29T13:30:29Z</time>
      </trkpt>
      <trkpt lat="40.038231" lon="-.726607">
        <ele>1008.752</ele>
        <time>2020-08-29T13:30:30Z</time>
      </trkpt>
      <trkpt lat="40.038205" lon="-.726544">
        <ele>1008.653</ele>
        <time>2020-08-29T13:30:31Z</time>
      </trkpt>
      <trkpt lat="40.038185" lon="-.726475">
        <ele>1008.308</ele>
        <time>2020-08-29T13:30:32Z</time>
      </trkpt>
      <trkpt lat="40.038169" lon="-.726416">
        <ele>1008.108</ele>
        <time>2020-08-29T13:30:33Z</time>
      </trkpt>
      <trkpt lat="40.038134" lon="-.726307">
        <ele>1007.490</ele>
        <time>2020-08-29T13:30:35Z</time>
      </trkpt>
      <trkpt lat="40.038118" lon="-.726246">
        <ele>1007.350</ele>
        <time>2020-08-29T13:30:36Z</time>
      </trkpt>
      <trkpt lat="40.038085" lon="-.726186">
        <ele>1007.272</ele>
        <time>2020-08-29T13:30:37Z</time>
      </trkpt>
      <trkpt lat="40.038058" lon="-.726076">
        <ele>1007.484</ele>
        <time>2020-08-29T13:30:39Z</time>
      </trkpt>
      <trkpt lat="40.038032" lon="-.725961">
        <ele>1007.772</ele>
        <time>2020-08-29T13:30:41Z</time>
      </trkpt>
      <trkpt lat="40.038016" lon="-.725903">
        <ele>1008.099</ele>
        <time>2020-08-29T13:30:42Z</time>
      </trkpt>
      <trkpt lat="40.037986" lon="-.725806">
        <ele>1008.177</ele>
        <time>2020-08-29T13:30:44Z</time>
      </trkpt>
      <trkpt lat="40.037988" lon="-.725739">
        <ele>1008.127</ele>
        <time>2020-08-29T13:30:45Z</time>
      </trkpt>
      <trkpt lat="40.037956" lon="-.725619">
        <ele>1008.272</ele>
        <time>2020-08-29T13:30:47Z</time>
      </trkpt>
      <trkpt lat="40.037912" lon="-.725505">
        <ele>1008.313</ele>
        <time>2020-08-29T13:30:49Z</time>
      </trkpt>
      <trkpt lat="40.037888" lon="-.725442">
        <ele>1008.114</ele>
        <time>2020-08-29T13:30:50Z</time>
      </trkpt>
      <trkpt lat="40.037877" lon="-.725371">
        <ele>1007.908</ele>
        <time>2020-08-29T13:30:51Z</time>
      </trkpt>
      <trkpt lat="40.037842" lon="-.725282">
        <ele>1007.342</ele>
        <time>2020-08-29T13:30:53Z</time>
      </trkpt>
      <trkpt lat="40.037789" lon="-.725185">
        <ele>1007.282</ele>
        <time>2020-08-29T13:30:55Z</time>
      </trkpt>
      <trkpt lat="40.037757" lon="-.725086">
        <ele>1007.664</ele>
        <time>2020-08-29T13:30:57Z</time>
      </trkpt>
      <trkpt lat="40.037711" lon="-.724984">
        <ele>1008.076</ele>
        <time>2020-08-29T13:30:59Z</time>
      </trkpt>
      <trkpt lat="40.037702" lon="-.724924">
        <ele>1008.344</ele>
        <time>2020-08-29T13:31:00Z</time>
      </trkpt>
      <trkpt lat="40.037662" lon="-.724813">
        <ele>1008.381</ele>
        <time>2020-08-29T13:31:02Z</time>
      </trkpt>
      <trkpt lat="40.037615" lon="-.724699">
        <ele>1008.229</ele>
        <time>2020-08-29T13:31:04Z</time>
      </trkpt>
      <trkpt lat="40.037586" lon="-.72461">
        <ele>1008.239</ele>
        <time>2020-08-29T13:31:05Z</time>
      </trkpt>
      <trkpt lat="40.037554" lon="-.724514">
        <ele>1007.819</ele>
        <time>2020-08-29T13:31:07Z</time>
      </trkpt>
      <trkpt lat="40.03751" lon="-.724417">
        <ele>1008.009</ele>
        <time>2020-08-29T13:31:09Z</time>
      </trkpt>
      <trkpt lat="40.037487" lon="-.724299">
        <ele>1008.419</ele>
        <time>2020-08-29T13:31:11Z</time>
      </trkpt>
      <trkpt lat="40.037445" lon="-.724186">
        <ele>1008.808</ele>
        <time>2020-08-29T13:31:13Z</time>
      </trkpt>
      <trkpt lat="40.037423" lon="-.724131">
        <ele>1008.996</ele>
        <time>2020-08-29T13:31:14Z</time>
      </trkpt>
      <trkpt lat="40.037402" lon="-.724059">
        <ele>1008.926</ele>
        <time>2020-08-29T13:31:15Z</time>
      </trkpt>
      <trkpt lat="40.037363" lon="-.723939">
        <ele>1008.638</ele>
        <time>2020-08-29T13:31:17Z</time>
      </trkpt>
      <trkpt lat="40.03734" lon="-.723887">
        <ele>1008.530</ele>
        <time>2020-08-29T13:31:18Z</time>
      </trkpt>
      <trkpt lat="40.037321" lon="-.723798">
        <ele>1008.298</ele>
        <time>2020-08-29T13:31:20Z</time>
      </trkpt>
      <trkpt lat="40.037292" lon="-.723732">
        <ele>1008.215</ele>
        <time>2020-08-29T13:31:21Z</time>
      </trkpt>
      <trkpt lat="40.037266" lon="-.723637">
        <ele>1008.293</ele>
        <time>2020-08-29T13:31:23Z</time>
      </trkpt>
      <trkpt lat="40.037228" lon="-.723539">
        <ele>1008.693</ele>
        <time>2020-08-29T13:31:25Z</time>
      </trkpt>
      <trkpt lat="40.03721" lon="-.723446">
        <ele>1008.631</ele>
        <time>2020-08-29T13:31:27Z</time>
      </trkpt>
      <trkpt lat="40.037175" lon="-.723325">
        <ele>1009.061</ele>
        <time>2020-08-29T13:31:29Z</time>
      </trkpt>
      <trkpt lat="40.03717" lon="-.723218">
        <ele>1008.907</ele>
        <time>2020-08-29T13:31:31Z</time>
      </trkpt>
      <trkpt lat="40.037129" lon="-.723116">
        <ele>1008.708</ele>
        <time>2020-08-29T13:31:33Z</time>
      </trkpt>
      <trkpt lat="40.037095" lon="-.723022">
        <ele>1008.248</ele>
        <time>2020-08-29T13:31:35Z</time>
      </trkpt>
      <trkpt lat="40.037067" lon="-.722932">
        <ele>1008.698</ele>
        <time>2020-08-29T13:31:37Z</time>
      </trkpt>
      <trkpt lat="40.037038" lon="-.722876">
        <ele>1008.730</ele>
        <time>2020-08-29T13:31:38Z</time>
      </trkpt>
      <trkpt lat="40.037012" lon="-.722818">
        <ele>1008.892</ele>
        <time>2020-08-29T13:31:39Z</time>
      </trkpt>
      <trkpt lat="40.037" lon="-.722721">
        <ele>1009.340</ele>
        <time>2020-08-29T13:31:41Z</time>
      </trkpt>
      <trkpt lat="40.036979" lon="-.722614">
        <ele>1009.317</ele>
        <time>2020-08-29T13:31:43Z</time>
      </trkpt>
      <trkpt lat="40.036926" lon="-.722511">
        <ele>1009.075</ele>
        <time>2020-08-29T13:31:45Z</time>
      </trkpt>
      <trkpt lat="40.036901" lon="-.722424">
        <ele>1008.845</ele>
        <time>2020-08-29T13:31:46Z</time>
      </trkpt>
      <trkpt lat="40.036865" lon="-.722325">
        <ele>1008.727</ele>
        <time>2020-08-29T13:31:47Z</time>
      </trkpt>
      <trkpt lat="40.036887" lon="-.722251">
        <ele>1008.368</ele>
        <time>2020-08-29T13:31:49Z</time>
      </trkpt>
      <trkpt lat="40.036861" lon="-.722159">
        <ele>1008.014</ele>
        <time>2020-08-29T13:31:51Z</time>
      </trkpt>
      <trkpt lat="40.036838" lon="-.722085">
        <ele>1008.208</ele>
        <time>2020-08-29T13:31:52Z</time>
      </trkpt>
      <trkpt lat="40.036816" lon="-.722001">
        <ele>1009.177</ele>
        <time>2020-08-29T13:31:54Z</time>
      </trkpt>
      <trkpt lat="40.036801" lon="-.721941">
        <ele>1009.587</ele>
        <time>2020-08-29T13:31:55Z</time>
      </trkpt>
      <trkpt lat="40.036766" lon="-.721858">
        <ele>1009.969</ele>
        <time>2020-08-29T13:31:56Z</time>
      </trkpt>
      <trkpt lat="40.036757" lon="-.721762">
        <ele>1009.621</ele>
        <time>2020-08-29T13:31:58Z</time>
      </trkpt>
      <trkpt lat="40.03671" lon="-.721663">
        <ele>1009.349</ele>
        <time>2020-08-29T13:32:00Z</time>
      </trkpt>
      <trkpt lat="40.036682" lon="-.721612">
        <ele>1009.146</ele>
        <time>2020-08-29T13:32:01Z</time>
      </trkpt>
      <trkpt lat="40.036659" lon="-.721537">
        <ele>1009.074</ele>
        <time>2020-08-29T13:32:02Z</time>
      </trkpt>
      <trkpt lat="40.036617" lon="-.721423">
        <ele>1008.644</ele>
        <time>2020-08-29T13:32:04Z</time>
      </trkpt>
      <trkpt lat="40.036583" lon="-.721324">
        <ele>1008.614</ele>
        <time>2020-08-29T13:32:05Z</time>
      </trkpt>
      <trkpt lat="40.036532" lon="-.72124">
        <ele>1008.954</ele>
        <time>2020-08-29T13:32:07Z</time>
      </trkpt>
      <trkpt lat="40.036507" lon="-.721143">
        <ele>1009.109</ele>
        <time>2020-08-29T13:32:09Z</time>
      </trkpt>
      <trkpt lat="40.036456" lon="-.721038">
        <ele>1009.608</ele>
        <time>2020-08-29T13:32:11Z</time>
      </trkpt>
      <trkpt lat="40.036418" lon="-.720995">
        <ele>1009.446</ele>
        <time>2020-08-29T13:32:12Z</time>
      </trkpt>
      <trkpt lat="40.036383" lon="-.720941">
        <ele>1008.956</ele>
        <time>2020-08-29T13:32:13Z</time>
      </trkpt>
      <trkpt lat="40.036332" lon="-.720845">
        <ele>1008.698</ele>
        <time>2020-08-29T13:32:15Z</time>
      </trkpt>
      <trkpt lat="40.03628" lon="-.72075">
        <ele>1008.880</ele>
        <time>2020-08-29T13:32:17Z</time>
      </trkpt>
      <trkpt lat="40.036247" lon="-.720658">
        <ele>1009.338</ele>
        <time>2020-08-29T13:32:19Z</time>
      </trkpt>
      <trkpt lat="40.036183" lon="-.720547">
        <ele>1009.515</ele>
        <time>2020-08-29T13:32:21Z</time>
      </trkpt>
      <trkpt lat="40.036145" lon="-.72046">
        <ele>1008.953</ele>
        <time>2020-08-29T13:32:22Z</time>
      </trkpt>
      <trkpt lat="40.036081" lon="-.720365">
        <ele>1008.963</ele>
        <time>2020-08-29T13:32:23Z</time>
      </trkpt>
      <trkpt lat="40.036019" lon="-.720296">
        <ele>1009.375</ele>
        <time>2020-08-29T13:32:26Z</time>
      </trkpt>
      <trkpt lat="40.035971" lon="-.720232">
        <ele>1009.828</ele>
        <time>2020-08-29T13:32:28Z</time>
      </trkpt>
      <trkpt lat="40.035944" lon="-.720175">
        <ele>1009.520</ele>
        <time>2020-08-29T13:32:29Z</time>
      </trkpt>
      <trkpt lat="40.035883" lon="-.720095">
        <ele>1009.208</ele>
        <time>2020-08-29T13:32:31Z</time>
      </trkpt>
      <trkpt lat="40.035844" lon="-.720045">
        <ele>1009.292</ele>
        <time>2020-08-29T13:32:32Z</time>
      </trkpt>
      <trkpt lat="40.035762" lon="-.71997">
        <ele>1009.412</ele>
        <time>2020-08-29T13:32:34Z</time>
      </trkpt>
      <trkpt lat="40.035724" lon="-.719932">
        <ele>1009.574</ele>
        <time>2020-08-29T13:32:35Z</time>
      </trkpt>
      <trkpt lat="40.035689" lon="-.719891">
        <ele>1009.676</ele>
        <time>2020-08-29T13:32:36Z</time>
      </trkpt>
      <trkpt lat="40.035664" lon="-.71984">
        <ele>1009.814</ele>
        <time>2020-08-29T13:32:37Z</time>
      </trkpt>
      <trkpt lat="40.035604" lon="-.719767">
        <ele>1009.991</ele>
        <time>2020-08-29T13:32:39Z</time>
      </trkpt>
      <trkpt lat="40.035531" lon="-.719707">
        <ele>1010.069</ele>
        <time>2020-08-29T13:32:41Z</time>
      </trkpt>
      <trkpt lat="40.035482" lon="-.719671">
        <ele>1010.059</ele>
        <time>2020-08-29T13:32:42Z</time>
      </trkpt>
      <trkpt lat="40.03544" lon="-.719638">
        <ele>1010.122</ele>
        <time>2020-08-29T13:32:43Z</time>
      </trkpt>
      <trkpt lat="40.035401" lon="-.719601">
        <ele>1010.162</ele>
        <time>2020-08-29T13:32:44Z</time>
      </trkpt>
      <trkpt lat="40.035331" lon="-.719559">
        <ele>1009.708</ele>
        <time>2020-08-29T13:32:46Z</time>
      </trkpt>
      <trkpt lat="40.035297" lon="-.719514">
        <ele>1009.908</ele>
        <time>2020-08-29T13:32:47Z</time>
      </trkpt>
      <trkpt lat="40.035261" lon="-.719478">
        <ele>1010.057</ele>
        <time>2020-08-29T13:32:48Z</time>
      </trkpt>
      <trkpt lat="40.035185" lon="-.719414">
        <ele>1010.157</ele>
        <time>2020-08-29T13:32:50Z</time>
      </trkpt>
      <trkpt lat="40.035144" lon="-.719385">
        <ele>1009.999</ele>
        <time>2020-08-29T13:32:51Z</time>
      </trkpt>
      <trkpt lat="40.035105" lon="-.719354">
        <ele>1009.951</ele>
        <time>2020-08-29T13:32:52Z</time>
      </trkpt>
      <trkpt lat="40.035064" lon="-.719329">
        <ele>1010.049</ele>
        <time>2020-08-29T13:32:53Z</time>
      </trkpt>
      <trkpt lat="40.035022" lon="-.719302">
        <ele>1010.076</ele>
        <time>2020-08-29T13:32:54Z</time>
      </trkpt>
      <trkpt lat="40.034945" lon="-.719263">
        <ele>1010.184</ele>
        <time>2020-08-29T13:32:56Z</time>
      </trkpt>
      <trkpt lat="40.034906" lon="-.719234">
        <ele>1010.174</ele>
        <time>2020-08-29T13:32:57Z</time>
      </trkpt>
      <trkpt lat="40.034861" lon="-.719211">
        <ele>1009.668</ele>
        <time>2020-08-29T13:32:58Z</time>
      </trkpt>
      <trkpt lat="40.034817" lon="-.719181">
        <ele>1009.642</ele>
        <time>2020-08-29T13:32:59Z</time>
      </trkpt>
      <trkpt lat="40.034772" lon="-.719159">
        <ele>1009.826</ele>
        <time>2020-08-29T13:33:00Z</time>
      </trkpt>
      <trkpt lat="40.034722" lon="-.719137">
        <ele>1009.808</ele>
        <time>2020-08-29T13:33:01Z</time>
      </trkpt>
      <trkpt lat="40.034667" lon="-.719106">
        <ele>1009.821</ele>
        <time>2020-08-29T13:33:02Z</time>
      </trkpt>
      <trkpt lat="40.03461" lon="-.719083">
        <ele>1009.981</ele>
        <time>2020-08-29T13:33:03Z</time>
      </trkpt>
      <trkpt lat="40.034553" lon="-.719074">
        <ele>1009.963</ele>
        <time>2020-08-29T13:33:04Z</time>
      </trkpt>
      <trkpt lat="40.034494" lon="-.719069">
        <ele>1009.235</ele>
        <time>2020-08-29T13:33:05Z</time>
      </trkpt>
      <trkpt lat="40.034437" lon="-.719058">
        <ele>1009.253</ele>
        <time>2020-08-29T13:33:06Z</time>
      </trkpt>
      <trkpt lat="40.03438" lon="-.71904">
        <ele>1009.360</ele>
        <time>2020-08-29T13:33:07Z</time>
      </trkpt>
      <trkpt lat="40.034317" lon="-.719026">
        <ele>1009.318</ele>
        <time>2020-08-29T13:33:08Z</time>
      </trkpt>
      <trkpt lat="40.034258" lon="-.718998">
        <ele>1009.348</ele>
        <time>2020-08-29T13:33:09Z</time>
      </trkpt>
      <trkpt lat="40.034207" lon="-.718993">
        <ele>1009.482</ele>
        <time>2020-08-29T13:33:10Z</time>
      </trkpt>
      <trkpt lat="40.034119" lon="-.719018">
        <ele>1009.943</ele>
        <time>2020-08-29T13:33:12Z</time>
      </trkpt>
      <trkpt lat="40.034067" lon="-.719025">
        <ele>1008.917</ele>
        <time>2020-08-29T13:33:13Z</time>
      </trkpt>
      <trkpt lat="40.034012" lon="-.719008">
        <ele>1008.908</ele>
        <time>2020-08-29T13:33:14Z</time>
      </trkpt>
      <trkpt lat="40.033965" lon="-.718998">
        <ele>1009.343</ele>
        <time>2020-08-29T13:33:15Z</time>
      </trkpt>
      <trkpt lat="40.033916" lon="-.718987">
        <ele>1009.573</ele>
        <time>2020-08-29T13:33:16Z</time>
      </trkpt>
      <trkpt lat="40.033861" lon="-.718974">
        <ele>1009.585</ele>
        <time>2020-08-29T13:33:17Z</time>
      </trkpt>
      <trkpt lat="40.033803" lon="-.718963">
        <ele>1009.777</ele>
        <time>2020-08-29T13:33:18Z</time>
      </trkpt>
      <trkpt lat="40.033746" lon="-.718963">
        <ele>1010.395</ele>
        <time>2020-08-29T13:33:19Z</time>
      </trkpt>
      <trkpt lat="40.033678" lon="-.718923">
        <ele>1010.322</ele>
        <time>2020-08-29T13:33:20Z</time>
      </trkpt>
      <trkpt lat="40.033618" lon="-.718887">
        <ele>1010.150</ele>
        <time>2020-08-29T13:33:21Z</time>
      </trkpt>
      <trkpt lat="40.033562" lon="-.718873">
        <ele>1009.740</ele>
        <time>2020-08-29T13:33:22Z</time>
      </trkpt>
      <trkpt lat="40.0335" lon="-.718855">
        <ele>1009.571</ele>
        <time>2020-08-29T13:33:23Z</time>
      </trkpt>
      <trkpt lat="40.033431" lon="-.718817">
        <ele>1009.741</ele>
        <time>2020-08-29T13:33:24Z</time>
      </trkpt>
      <trkpt lat="40.033389" lon="-.718847">
        <ele>1009.915</ele>
        <time>2020-08-29T13:33:25Z</time>
      </trkpt>
      <trkpt lat="40.033307" lon="-.718918">
        <ele>1010.408</ele>
        <time>2020-08-29T13:33:27Z</time>
      </trkpt>
      <trkpt lat="40.033201" lon="-.718909">
        <ele>1010.692</ele>
        <time>2020-08-29T13:33:29Z</time>
      </trkpt>
      <trkpt lat="40.033105" lon="-.718931">
        <ele>1009.422</ele>
        <time>2020-08-29T13:33:31Z</time>
      </trkpt>
      <trkpt lat="40.033018" lon="-.718928">
        <ele>1009.574</ele>
        <time>2020-08-29T13:33:33Z</time>
      </trkpt>
      <trkpt lat="40.032934" lon="-.71896">
        <ele>1009.586</ele>
        <time>2020-08-29T13:33:35Z</time>
      </trkpt>
      <trkpt lat="40.032842" lon="-.718962">
        <ele>1009.884</ele>
        <time>2020-08-29T13:33:37Z</time>
      </trkpt>
      <trkpt lat="40.032773" lon="-.718974">
        <ele>1009.151</ele>
        <time>2020-08-29T13:33:38Z</time>
      </trkpt>
      <trkpt lat="40.03269" lon="-.718953">
        <ele>1009.619</ele>
        <time>2020-08-29T13:33:40Z</time>
      </trkpt>
      <trkpt lat="40.03259" lon="-.718944">
        <ele>1010.089</ele>
        <time>2020-08-29T13:33:42Z</time>
      </trkpt>
      <trkpt lat="40.032533" lon="-.718923">
        <ele>1010.058</ele>
        <time>2020-08-29T13:33:43Z</time>
      </trkpt>
      <trkpt lat="40.03248" lon="-.718913">
        <ele>1009.852</ele>
        <time>2020-08-29T13:33:44Z</time>
      </trkpt>
      <trkpt lat="40.032424" lon="-.718892">
        <ele>1009.517</ele>
        <time>2020-08-29T13:33:45Z</time>
      </trkpt>
      <trkpt lat="40.032366" lon="-.718875">
        <ele>1009.508</ele>
        <time>2020-08-29T13:33:46Z</time>
      </trkpt>
      <trkpt lat="40.032319" lon="-.718884">
        <ele>1009.620</ele>
        <time>2020-08-29T13:33:47Z</time>
      </trkpt>
      <trkpt lat="40.032262" lon="-.718893">
        <ele>1009.780</ele>
        <time>2020-08-29T13:33:48Z</time>
      </trkpt>
      <trkpt lat="40.03221" lon="-.718896">
        <ele>1009.712</ele>
        <time>2020-08-29T13:33:49Z</time>
      </trkpt>
      <trkpt lat="40.032158" lon="-.718905">
        <ele>1010.144</ele>
        <time>2020-08-29T13:33:50Z</time>
      </trkpt>
      <trkpt lat="40.032106" lon="-.718909">
        <ele>1010.112</ele>
        <time>2020-08-29T13:33:51Z</time>
      </trkpt>
      <trkpt lat="40.032057" lon="-.718923">
        <ele>1010.049</ele>
        <time>2020-08-29T13:33:52Z</time>
      </trkpt>
      <trkpt lat="40.032011" lon="-.718941">
        <ele>1009.427</ele>
        <time>2020-08-29T13:33:53Z</time>
      </trkpt>
      <trkpt lat="40.031965" lon="-.71897">
        <ele>1009.467</ele>
        <time>2020-08-29T13:33:54Z</time>
      </trkpt>
      <trkpt lat="40.031921" lon="-.718992">
        <ele>1009.463</ele>
        <time>2020-08-29T13:33:55Z</time>
      </trkpt>
      <trkpt lat="40.031874" lon="-.719019">
        <ele>1009.544</ele>
        <time>2020-08-29T13:33:56Z</time>
      </trkpt>
      <trkpt lat="40.031817" lon="-.719053">
        <ele>1009.518</ele>
        <time>2020-08-29T13:33:57Z</time>
      </trkpt>
      <trkpt lat="40.031765" lon="-.719085">
        <ele>1009.808</ele>
        <time>2020-08-29T13:33:58Z</time>
      </trkpt>
      <trkpt lat="40.031718" lon="-.719123">
        <ele>1010.061</ele>
        <time>2020-08-29T13:33:59Z</time>
      </trkpt>
      <trkpt lat="40.031674" lon="-.719167">
        <ele>1009.151</ele>
        <time>2020-08-29T13:34:00Z</time>
      </trkpt>
      <trkpt lat="40.031633" lon="-.719205">
        <ele>1009.183</ele>
        <time>2020-08-29T13:34:01Z</time>
      </trkpt>
      <trkpt lat="40.03159" lon="-.719239">
        <ele>1009.675</ele>
        <time>2020-08-29T13:34:02Z</time>
      </trkpt>
      <trkpt lat="40.031543" lon="-.719271">
        <ele>1009.893</ele>
        <time>2020-08-29T13:34:03Z</time>
      </trkpt>
      <trkpt lat="40.031499" lon="-.719299">
        <ele>1010.020</ele>
        <time>2020-08-29T13:34:04Z</time>
      </trkpt>
      <trkpt lat="40.031453" lon="-.719336">
        <ele>1010.048</ele>
        <time>2020-08-29T13:34:05Z</time>
      </trkpt>
      <trkpt lat="40.031408" lon="-.719382">
        <ele>1010.598</ele>
        <time>2020-08-29T13:34:06Z</time>
      </trkpt>
      <trkpt lat="40.031371" lon="-.719426">
        <ele>1010.537</ele>
        <time>2020-08-29T13:34:07Z</time>
      </trkpt>
      <trkpt lat="40.031338" lon="-.719476">
        <ele>1010.049</ele>
        <time>2020-08-29T13:34:08Z</time>
      </trkpt>
      <trkpt lat="40.031288" lon="-.719523">
        <ele>1009.213</ele>
        <time>2020-08-29T13:34:09Z</time>
      </trkpt>
      <trkpt lat="40.03125" lon="-.719568">
        <ele>1009.208</ele>
        <time>2020-08-29T13:34:10Z</time>
      </trkpt>
      <trkpt lat="40.031219" lon="-.719614">
        <ele>1009.328</ele>
        <time>2020-08-29T13:34:11Z</time>
      </trkpt>
      <trkpt lat="40.031168" lon="-.719647">
        <ele>1009.638</ele>
        <time>2020-08-29T13:34:12Z</time>
      </trkpt>
      <trkpt lat="40.031112" lon="-.71967">
        <ele>1009.850</ele>
        <time>2020-08-29T13:34:13Z</time>
      </trkpt>
      <trkpt lat="40.031071" lon="-.7197">
        <ele>1009.942</ele>
        <time>2020-08-29T13:34:14Z</time>
      </trkpt>
      <trkpt lat="40.031009" lon="-.719725">
        <ele>1010.240</ele>
        <time>2020-08-29T13:34:15Z</time>
      </trkpt>
      <trkpt lat="40.030974" lon="-.71977">
        <ele>1010.587</ele>
        <time>2020-08-29T13:34:16Z</time>
      </trkpt>
      <trkpt lat="40.030938" lon="-.719814">
        <ele>1010.195</ele>
        <time>2020-08-29T13:34:17Z</time>
      </trkpt>
      <trkpt lat="40.0309" lon="-.719847">
        <ele>1010.065</ele>
        <time>2020-08-29T13:34:18Z</time>
      </trkpt>
      <trkpt lat="40.030843" lon="-.719878">
        <ele>1009.848</ele>
        <time>2020-08-29T13:34:19Z</time>
      </trkpt>
      <trkpt lat="40.030796" lon="-.719945">
        <ele>1009.661</ele>
        <time>2020-08-29T13:34:20Z</time>
      </trkpt>
      <trkpt lat="40.030757" lon="-.720008">
        <ele>1009.617</ele>
        <time>2020-08-29T13:34:21Z</time>
      </trkpt>
      <trkpt lat="40.030722" lon="-.720054">
        <ele>1009.808</ele>
        <time>2020-08-29T13:34:22Z</time>
      </trkpt>
      <trkpt lat="40.030675" lon="-.720101">
        <ele>1010.039</ele>
        <time>2020-08-29T13:34:23Z</time>
      </trkpt>
      <trkpt lat="40.03063" lon="-.720146">
        <ele>1010.159</ele>
        <time>2020-08-29T13:34:24Z</time>
      </trkpt>
      <trkpt lat="40.030594" lon="-.720212">
        <ele>1010.791</ele>
        <time>2020-08-29T13:34:26Z</time>
      </trkpt>
      <trkpt lat="40.030537" lon="-.720289">
        <ele>1011.243</ele>
        <time>2020-08-29T13:34:28Z</time>
      </trkpt>
      <trkpt lat="40.030479" lon="-.720329">
        <ele>1011.271</ele>
        <time>2020-08-29T13:34:30Z</time>
      </trkpt>
      <trkpt lat="40.030405" lon="-.720383">
        <ele>1010.558</ele>
        <time>2020-08-29T13:34:32Z</time>
      </trkpt>
      <trkpt lat="40.030343" lon="-.720435">
        <ele>1009.636</ele>
        <time>2020-08-29T13:34:34Z</time>
      </trkpt>
      <trkpt lat="40.030295" lon="-.720452">
        <ele>1009.116</ele>
        <time>2020-08-29T13:34:35Z</time>
      </trkpt>
      <trkpt lat="40.030235" lon="-.720489">
        <ele>1009.073</ele>
        <time>2020-08-29T13:34:36Z</time>
      </trkpt>
      <trkpt lat="40.030174" lon="-.720543">
        <ele>1008.985</ele>
        <time>2020-08-29T13:34:38Z</time>
      </trkpt>
      <trkpt lat="40.030106" lon="-.720625">
        <ele>1009.013</ele>
        <time>2020-08-29T13:34:40Z</time>
      </trkpt>
      <trkpt lat="40.03005" lon="-.720705">
        <ele>1009.108</ele>
        <time>2020-08-29T13:34:42Z</time>
      </trkpt>
      <trkpt lat="40.030005" lon="-.720757">
        <ele>1009.462</ele>
        <time>2020-08-29T13:34:43Z</time>
      </trkpt>
      <trkpt lat="40.029956" lon="-.720824">
        <ele>1009.542</ele>
        <time>2020-08-29T13:34:45Z</time>
      </trkpt>
      <trkpt lat="40.029898" lon="-.720881">
        <ele>1009.574</ele>
        <time>2020-08-29T13:34:47Z</time>
      </trkpt>
      <trkpt lat="40.029852" lon="-.720939">
        <ele>1009.476</ele>
        <time>2020-08-29T13:34:49Z</time>
      </trkpt>
      <trkpt lat="40.029803" lon="-.720997">
        <ele>1009.024</ele>
        <time>2020-08-29T13:34:51Z</time>
      </trkpt>
      <trkpt lat="40.029769" lon="-.721045">
        <ele>1008.941</ele>
        <time>2020-08-29T13:34:52Z</time>
      </trkpt>
      <trkpt lat="40.02972" lon="-.721137">
        <ele>1008.339</ele>
        <time>2020-08-29T13:34:55Z</time>
      </trkpt>
      <trkpt lat="40.029668" lon="-.721229">
        <ele>1008.369</ele>
        <time>2020-08-29T13:34:57Z</time>
      </trkpt>
      <trkpt lat="40.029622" lon="-.72134">
        <ele>1008.433</ele>
        <time>2020-08-29T13:34:59Z</time>
      </trkpt>
      <trkpt lat="40.029586" lon="-.721392">
        <ele>1008.523</ele>
        <time>2020-08-29T13:35:00Z</time>
      </trkpt>
      <trkpt lat="40.02955" lon="-.721441">
        <ele>1008.615</ele>
        <time>2020-08-29T13:35:01Z</time>
      </trkpt>
      <trkpt lat="40.029509" lon="-.721487">
        <ele>1008.608</ele>
        <time>2020-08-29T13:35:02Z</time>
      </trkpt>
      <trkpt lat="40.029471" lon="-.721548">
        <ele>1008.698</ele>
        <time>2020-08-29T13:35:03Z</time>
      </trkpt>
      <trkpt lat="40.029417" lon="-.721608">
        <ele>1008.798</ele>
        <time>2020-08-29T13:35:04Z</time>
      </trkpt>
      <trkpt lat="40.029355" lon="-.721685">
        <ele>1008.760</ele>
        <time>2020-08-29T13:35:05Z</time>
      </trkpt>
      <trkpt lat="40.029316" lon="-.721747">
        <ele>1008.712</ele>
        <time>2020-08-29T13:35:06Z</time>
      </trkpt>
      <trkpt lat="40.029261" lon="-.721869">
        <ele>1008.730</ele>
        <time>2020-08-29T13:35:07Z</time>
      </trkpt>
      <trkpt lat="40.029212" lon="-.721948">
        <ele>1008.817</ele>
        <time>2020-08-29T13:35:08Z</time>
      </trkpt>
      <trkpt lat="40.029155" lon="-.722021">
        <ele>1009.065</ele>
        <time>2020-08-29T13:35:09Z</time>
      </trkpt>
      <trkpt lat="40.029122" lon="-.722073">
        <ele>1009.095</ele>
        <time>2020-08-29T13:35:10Z</time>
      </trkpt>
      <trkpt lat="40.029076" lon="-.722126">
        <ele>1009.016</ele>
        <time>2020-08-29T13:35:11Z</time>
      </trkpt>
      <trkpt lat="40.029037" lon="-.722167">
        <ele>1009.076</ele>
        <time>2020-08-29T13:35:12Z</time>
      </trkpt>
      <trkpt lat="40.028999" lon="-.72222">
        <ele>1009.113</ele>
        <time>2020-08-29T13:35:13Z</time>
      </trkpt>
      <trkpt lat="40.028959" lon="-.72227">
        <ele>1009.108</ele>
        <time>2020-08-29T13:35:14Z</time>
      </trkpt>
      <trkpt lat="40.028913" lon="-.722334">
        <ele>1009.176</ele>
        <time>2020-08-29T13:35:15Z</time>
      </trkpt>
      <trkpt lat="40.02887" lon="-.722384">
        <ele>1009.386</ele>
        <time>2020-08-29T13:35:16Z</time>
      </trkpt>
      <trkpt lat="40.028793" lon="-.722457">
        <ele>1008.858</ele>
        <time>2020-08-29T13:35:18Z</time>
      </trkpt>
      <trkpt lat="40.028734" lon="-.722503">
        <ele>1009.280</ele>
        <time>2020-08-29T13:35:21Z</time>
      </trkpt>
      <trkpt lat="40.02868" lon="-.722554">
        <ele>1009.588</ele>
        <time>2020-08-29T13:35:23Z</time>
      </trkpt>
      <trkpt lat="40.028625" lon="-.722629">
        <ele>1009.225</ele>
        <time>2020-08-29T13:35:25Z</time>
      </trkpt>
      <trkpt lat="40.028565" lon="-.722701">
        <ele>1009.183</ele>
        <time>2020-08-29T13:35:27Z</time>
      </trkpt>
      <trkpt lat="40.028523" lon="-.722734">
        <ele>1009.133</ele>
        <time>2020-08-29T13:35:28Z</time>
      </trkpt>
      <trkpt lat="40.028478" lon="-.722799">
        <ele>1009.566</ele>
        <time>2020-08-29T13:35:30Z</time>
      </trkpt>
      <trkpt lat="40.028429" lon="-.72286">
        <ele>1009.429</ele>
        <time>2020-08-29T13:35:32Z</time>
      </trkpt>
      <trkpt lat="40.028368" lon="-.722906">
        <ele>1009.121</ele>
        <time>2020-08-29T13:35:34Z</time>
      </trkpt>
      <trkpt lat="40.028329" lon="-.722937">
        <ele>1009.108</ele>
        <time>2020-08-29T13:35:35Z</time>
      </trkpt>
      <trkpt lat="40.028271" lon="-.723009">
        <ele>1009.071</ele>
        <time>2020-08-29T13:35:37Z</time>
      </trkpt>
      <trkpt lat="40.028201" lon="-.723058">
        <ele>1009.581</ele>
        <time>2020-08-29T13:35:39Z</time>
      </trkpt>
      <trkpt lat="40.028139" lon="-.723097">
        <ele>1010.173</ele>
        <time>2020-08-29T13:35:41Z</time>
      </trkpt>
      <trkpt lat="40.02808" lon="-.723128">
        <ele>1009.885</ele>
        <time>2020-08-29T13:35:43Z</time>
      </trkpt>
      <trkpt lat="40.028016" lon="-.723135">
        <ele>1009.713</ele>
        <time>2020-08-29T13:35:45Z</time>
      </trkpt>
      <trkpt lat="40.027974" lon="-.723168">
        <ele>1009.960</ele>
        <time>2020-08-29T13:35:47Z</time>
      </trkpt>
      <trkpt lat="40.027914" lon="-.723157">
        <ele>1009.988</ele>
        <time>2020-08-29T13:35:49Z</time>
      </trkpt>
      <trkpt lat="40.027861" lon="-.723178">
        <ele>1009.968</ele>
        <time>2020-08-29T13:35:51Z</time>
      </trkpt>
      <trkpt lat="40.027821" lon="-.723117">
        <ele>1009.962</ele>
        <time>2020-08-29T13:35:52Z</time>
      </trkpt>
      <trkpt lat="40.027777" lon="-.72309">
        <ele>1009.983</ele>
        <time>2020-08-29T13:35:53Z</time>
      </trkpt>
      <trkpt lat="40.027729" lon="-.723101">
        <ele>1010.011</ele>
        <time>2020-08-29T13:35:55Z</time>
      </trkpt>
      <trkpt lat="40.027669" lon="-.723119">
        <ele>1010.308</ele>
        <time>2020-08-29T13:35:57Z</time>
      </trkpt>
      <trkpt lat="40.027594" lon="-.723112">
        <ele>1010.641</ele>
        <time>2020-08-29T13:35:59Z</time>
      </trkpt>
      <trkpt lat="40.027509" lon="-.723096">
        <ele>1010.661</ele>
        <time>2020-08-29T13:36:01Z</time>
      </trkpt>
      <trkpt lat="40.027438" lon="-.723102">
        <ele>1010.643</ele>
        <time>2020-08-29T13:36:03Z</time>
      </trkpt>
      <trkpt lat="40.027382" lon="-.723104">
        <ele>1010.695</ele>
        <time>2020-08-29T13:36:04Z</time>
      </trkpt>
      <trkpt lat="40.027323" lon="-.723102">
        <ele>1010.643</ele>
        <time>2020-08-29T13:36:06Z</time>
      </trkpt>
      <trkpt lat="40.027274" lon="-.723076">
        <ele>1010.650</ele>
        <time>2020-08-29T13:36:07Z</time>
      </trkpt>
      <trkpt lat="40.027207" lon="-.723062">
        <ele>1010.548</ele>
        <time>2020-08-29T13:36:09Z</time>
      </trkpt>
      <trkpt lat="40.027137" lon="-.723047">
        <ele>1010.548</ele>
        <time>2020-08-29T13:36:10Z</time>
      </trkpt>
      <trkpt lat="40.027068" lon="-.723043">
        <ele>1010.498</ele>
        <time>2020-08-29T13:36:12Z</time>
      </trkpt>
      <trkpt lat="40.027006" lon="-.722986">
        <ele>1010.415</ele>
        <time>2020-08-29T13:36:13Z</time>
      </trkpt>
      <trkpt lat="40.026933" lon="-.722978">
        <ele>1010.426</ele>
        <time>2020-08-29T13:36:15Z</time>
      </trkpt>
      <trkpt lat="40.02683" lon="-.722971">
        <ele>1010.408</ele>
        <time>2020-08-29T13:36:17Z</time>
      </trkpt>
      <trkpt lat="40.026771" lon="-.722991">
        <ele>1010.424</ele>
        <time>2020-08-29T13:36:18Z</time>
      </trkpt>
      <trkpt lat="40.026725" lon="-.722975">
        <ele>1010.484</ele>
        <time>2020-08-29T13:36:19Z</time>
      </trkpt>
      <trkpt lat="40.02665" lon="-.722941">
        <ele>1010.476</ele>
        <time>2020-08-29T13:36:21Z</time>
      </trkpt>
      <trkpt lat="40.026582" lon="-.722905">
        <ele>1010.688</ele>
        <time>2020-08-29T13:36:23Z</time>
      </trkpt>
      <trkpt lat="40.026513" lon="-.722871">
        <ele>1010.616</ele>
        <time>2020-08-29T13:36:25Z</time>
      </trkpt>
      <trkpt lat="40.026468" lon="-.722859">
        <ele>1010.763</ele>
        <time>2020-08-29T13:36:27Z</time>
      </trkpt>
      <trkpt lat="40.026412" lon="-.722802">
        <ele>1010.761</ele>
        <time>2020-08-29T13:36:29Z</time>
      </trkpt>
      <trkpt lat="40.026343" lon="-.722783">
        <ele>1010.751</ele>
        <time>2020-08-29T13:36:32Z</time>
      </trkpt>
      <trkpt lat="40.026288" lon="-.722758">
        <ele>1010.771</ele>
        <time>2020-08-29T13:36:34Z</time>
      </trkpt>
      <trkpt lat="40.026215" lon="-.722684">
        <ele>1010.741</ele>
        <time>2020-08-29T13:36:36Z</time>
      </trkpt>
      <trkpt lat="40.026168" lon="-.722665">
        <ele>1010.715</ele>
        <time>2020-08-29T13:36:38Z</time>
      </trkpt>
      <trkpt lat="40.026136" lon="-.722614">
        <ele>1010.708</ele>
        <time>2020-08-29T13:36:39Z</time>
      </trkpt>
      <trkpt lat="40.026097" lon="-.722543">
        <ele>1010.782</ele>
        <time>2020-08-29T13:36:41Z</time>
      </trkpt>
      <trkpt lat="40.026057" lon="-.722474">
        <ele>1011.122</ele>
        <time>2020-08-29T13:36:43Z</time>
      </trkpt>
      <trkpt lat="40.026018" lon="-.722391">
        <ele>1011.324</ele>
        <time>2020-08-29T13:36:45Z</time>
      </trkpt>
      <trkpt lat="40.02598" lon="-.722307">
        <ele>1011.266</ele>
        <time>2020-08-29T13:36:47Z</time>
      </trkpt>
      <trkpt lat="40.025916" lon="-.722229">
        <ele>1011.224</ele>
        <time>2020-08-29T13:36:49Z</time>
      </trkpt>
      <trkpt lat="40.025865" lon="-.722161">
        <ele>1011.231</ele>
        <time>2020-08-29T13:36:50Z</time>
      </trkpt>
      <trkpt lat="40.025813" lon="-.722088">
        <ele>1010.869</ele>
        <time>2020-08-29T13:36:52Z</time>
      </trkpt>
      <trkpt lat="40.025795" lon="-.72202">
        <ele>1010.869</ele>
        <time>2020-08-29T13:36:53Z</time>
      </trkpt>
      <trkpt lat="40.025735" lon="-.721932">
        <ele>1010.752</ele>
        <time>2020-08-29T13:36:55Z</time>
      </trkpt>
      <trkpt lat="40.02569" lon="-.721829">
        <ele>1010.953</ele>
        <time>2020-08-29T13:36:57Z</time>
      </trkpt>
      <trkpt lat="40.025671" lon="-.721727">
        <ele>1011.108</ele>
        <time>2020-08-29T13:36:59Z</time>
      </trkpt>
      <trkpt lat="40.025598" lon="-.721634">
        <ele>1011.308</ele>
        <time>2020-08-29T13:37:01Z</time>
      </trkpt>
      <trkpt lat="40.025555" lon="-.721595">
        <ele>1011.330</ele>
        <time>2020-08-29T13:37:02Z</time>
      </trkpt>
      <trkpt lat="40.02555" lon="-.721529">
        <ele>1011.310</ele>
        <time>2020-08-29T13:37:03Z</time>
      </trkpt>
      <trkpt lat="40.025523" lon="-.721434">
        <ele>1011.182</ele>
        <time>2020-08-29T13:37:05Z</time>
      </trkpt>
      <trkpt lat="40.025507" lon="-.721336">
        <ele>1011.614</ele>
        <time>2020-08-29T13:37:07Z</time>
      </trkpt>
      <trkpt lat="40.025485" lon="-.721285">
        <ele>1011.652</ele>
        <time>2020-08-29T13:37:08Z</time>
      </trkpt>
      <trkpt lat="40.025476" lon="-.721224">
        <ele>1011.749</ele>
        <time>2020-08-29T13:37:09Z</time>
      </trkpt>
      <trkpt lat="40.025458" lon="-.721145">
        <ele>1011.747</ele>
        <time>2020-08-29T13:37:10Z</time>
      </trkpt>
      <trkpt lat="40.025424" lon="-.721061">
        <ele>1011.897</ele>
        <time>2020-08-29T13:37:12Z</time>
      </trkpt>
      <trkpt lat="40.025394" lon="-.720959">
        <ele>1011.844</ele>
        <time>2020-08-29T13:37:14Z</time>
      </trkpt>
      <trkpt lat="40.025366" lon="-.72087">
        <ele>1011.805</ele>
        <time>2020-08-29T13:37:16Z</time>
      </trkpt>
      <trkpt lat="40.025342" lon="-.720783">
        <ele>1011.715</ele>
        <time>2020-08-29T13:37:18Z</time>
      </trkpt>
      <trkpt lat="40.02531" lon="-.720736">
        <ele>1011.708</ele>
        <time>2020-08-29T13:37:19Z</time>
      </trkpt>
      <trkpt lat="40.025283" lon="-.720608">
        <ele>1011.679</ele>
        <time>2020-08-29T13:37:21Z</time>
      </trkpt>
      <trkpt lat="40.025249" lon="-.720515">
        <ele>1011.559</ele>
        <time>2020-08-29T13:37:23Z</time>
      </trkpt>
      <trkpt lat="40.025204" lon="-.720415">
        <ele>1011.641</ele>
        <time>2020-08-29T13:37:25Z</time>
      </trkpt>
      <trkpt lat="40.025162" lon="-.720283">
        <ele>1011.853</ele>
        <time>2020-08-29T13:37:27Z</time>
      </trkpt>
      <trkpt lat="40.025122" lon="-.7202">
        <ele>1012.051</ele>
        <time>2020-08-29T13:37:29Z</time>
      </trkpt>
      <trkpt lat="40.025083" lon="-.720107">
        <ele>1012.188</ele>
        <time>2020-08-29T13:37:31Z</time>
      </trkpt>
      <trkpt lat="40.025083" lon="-.720024">
        <ele>1012.166</ele>
        <time>2020-08-29T13:37:32Z</time>
      </trkpt>
      <trkpt lat="40.025089" lon="-.719931">
        <ele>1012.186</ele>
        <time>2020-08-29T13:37:34Z</time>
      </trkpt>
      <trkpt lat="40.025082" lon="-.719831">
        <ele>1012.043</ele>
        <time>2020-08-29T13:37:36Z</time>
      </trkpt>
      <trkpt lat="40.02504" lon="-.719723">
        <ele>1012.064</ele>
        <time>2020-08-29T13:37:38Z</time>
      </trkpt>
      <trkpt lat="40.025002" lon="-.719619">
        <ele>1012.010</ele>
        <time>2020-08-29T13:37:40Z</time>
      </trkpt>
      <trkpt lat="40.024972" lon="-.71955">
        <ele>1012.108</ele>
        <time>2020-08-29T13:37:41Z</time>
      </trkpt>
      <trkpt lat="40.024975" lon="-.719474">
        <ele>1012.819</ele>
        <time>2020-08-29T13:37:43Z</time>
      </trkpt>
      <trkpt lat="40.024985" lon="-.719401">
        <ele>1013.069</ele>
        <time>2020-08-29T13:37:44Z</time>
      </trkpt>
      <trkpt lat="40.02496" lon="-.719331">
        <ele>1013.051</ele>
        <time>2020-08-29T13:37:46Z</time>
      </trkpt>
      <trkpt lat="40.024941" lon="-.719234">
        <ele>1012.663</ele>
        <time>2020-08-29T13:37:48Z</time>
      </trkpt>
      <trkpt lat="40.024929" lon="-.719114">
        <ele>1012.461</ele>
        <time>2020-08-29T13:37:50Z</time>
      </trkpt>
      <trkpt lat="40.024882" lon="-.719058">
        <ele>1012.268</ele>
        <time>2020-08-29T13:37:52Z</time>
      </trkpt>
      <trkpt lat="40.024868" lon="-.718995">
        <ele>1012.116</ele>
        <time>2020-08-29T13:37:53Z</time>
      </trkpt>
      <trkpt lat="40.024849" lon="-.718931">
        <ele>1012.146</ele>
        <time>2020-08-29T13:37:55Z</time>
      </trkpt>
      <trkpt lat="40.024819" lon="-.718876">
        <ele>1012.171</ele>
        <time>2020-08-29T13:37:56Z</time>
      </trkpt>
      <trkpt lat="40.024783" lon="-.718808">
        <ele>1012.041</ele>
        <time>2020-08-29T13:37:58Z</time>
      </trkpt>
      <trkpt lat="40.024749" lon="-.718747">
        <ele>1012.115</ele>
        <time>2020-08-29T13:37:59Z</time>
      </trkpt>
      <trkpt lat="40.024735" lon="-.718665">
        <ele>1012.408</ele>
        <time>2020-08-29T13:38:01Z</time>
      </trkpt>
      <trkpt lat="40.024721" lon="-.718602">
        <ele>1012.732</ele>
        <time>2020-08-29T13:38:02Z</time>
      </trkpt>
      <trkpt lat="40.024676" lon="-.71853">
        <ele>1012.932</ele>
        <time>2020-08-29T13:38:04Z</time>
      </trkpt>
      <trkpt lat="40.02466" lon="-.718459">
        <ele>1013.024</ele>
        <time>2020-08-29T13:38:05Z</time>
      </trkpt>
      <trkpt lat="40.024638" lon="-.718389">
        <ele>1013.016</ele>
        <time>2020-08-29T13:38:07Z</time>
      </trkpt>
      <trkpt lat="40.024628" lon="-.718313">
        <ele>1013.184</ele>
        <time>2020-08-29T13:38:08Z</time>
      </trkpt>
      <trkpt lat="40.02461" lon="-.718231">
        <ele>1013.371</ele>
        <time>2020-08-29T13:38:10Z</time>
      </trkpt>
      <trkpt lat="40.024588" lon="-.718156">
        <ele>1013.369</ele>
        <time>2020-08-29T13:38:11Z</time>
      </trkpt>
      <trkpt lat="40.024561" lon="-.718058">
        <ele>1013.249</ele>
        <time>2020-08-29T13:38:13Z</time>
      </trkpt>
      <trkpt lat="40.024556" lon="-.717998">
        <ele>1013.142</ele>
        <time>2020-08-29T13:38:14Z</time>
      </trkpt>
      <trkpt lat="40.02456" lon="-.717893">
        <ele>1013.122</ele>
        <time>2020-08-29T13:38:16Z</time>
      </trkpt>
      <trkpt lat="40.024537" lon="-.717838">
        <ele>1013.114</ele>
        <time>2020-08-29T13:38:17Z</time>
      </trkpt>
      <trkpt lat="40.024506" lon="-.717759">
        <ele>1013.108</ele>
        <time>2020-08-29T13:38:18Z</time>
      </trkpt>
      <trkpt lat="40.024479" lon="-.717653">
        <ele>1013.279</ele>
        <time>2020-08-29T13:38:20Z</time>
      </trkpt>
      <trkpt lat="40.024449" lon="-.71752">
        <ele>1013.219</ele>
        <time>2020-08-29T13:38:22Z</time>
      </trkpt>
      <trkpt lat="40.02443" lon="-.71746">
        <ele>1013.261</ele>
        <time>2020-08-29T13:38:23Z</time>
      </trkpt>
      <trkpt lat="40.024399" lon="-.717387">
        <ele>1013.213</ele>
        <time>2020-08-29T13:38:24Z</time>
      </trkpt>
      <trkpt lat="40.024339" lon="-.717278">
        <ele>1013.171</ele>
        <time>2020-08-29T13:38:26Z</time>
      </trkpt>
      <trkpt lat="40.024324" lon="-.717172">
        <ele>1013.018</ele>
        <time>2020-08-29T13:38:28Z</time>
      </trkpt>
      <trkpt lat="40.024303" lon="-.717068">
        <ele>1013.596</ele>
        <time>2020-08-29T13:38:30Z</time>
      </trkpt>
      <trkpt lat="40.024278" lon="-.71701">
        <ele>1013.746</ele>
        <time>2020-08-29T13:38:31Z</time>
      </trkpt>
      <trkpt lat="40.024272" lon="-.716937">
        <ele>1013.748</ele>
        <time>2020-08-29T13:38:32Z</time>
      </trkpt>
      <trkpt lat="40.024266" lon="-.716831">
        <ele>1013.761</ele>
        <time>2020-08-29T13:38:34Z</time>
      </trkpt>
      <trkpt lat="40.024231" lon="-.716746">
        <ele>1013.717</ele>
        <time>2020-08-29T13:38:35Z</time>
      </trkpt>
      <trkpt lat="40.024213" lon="-.716642">
        <ele>1013.808</ele>
        <time>2020-08-29T13:38:36Z</time>
      </trkpt>
      <trkpt lat="40.024258" lon="-.716614">
        <ele>1013.979</ele>
        <time>2020-08-29T13:38:37Z</time>
      </trkpt>
      <trkpt lat="40.02425" lon="-.71654">
        <ele>1013.999</ele>
        <time>2020-08-29T13:38:38Z</time>
      </trkpt>
      <trkpt lat="40.024223" lon="-.71647">
        <ele>1013.911</ele>
        <time>2020-08-29T13:38:39Z</time>
      </trkpt>
      <trkpt lat="40.024209" lon="-.716409">
        <ele>1013.953</ele>
        <time>2020-08-29T13:38:40Z</time>
      </trkpt>
      <trkpt lat="40.024174" lon="-.716342">
        <ele>1013.911</ele>
        <time>2020-08-29T13:38:41Z</time>
      </trkpt>
      <trkpt lat="40.024147" lon="-.716242">
        <ele>1014.098</ele>
        <time>2020-08-29T13:38:43Z</time>
      </trkpt>
      <trkpt lat="40.024142" lon="-.716174">
        <ele>1014.026</ele>
        <time>2020-08-29T13:38:44Z</time>
      </trkpt>
      <trkpt lat="40.024137" lon="-.716093">
        <ele>1014.096</ele>
        <time>2020-08-29T13:38:45Z</time>
      </trkpt>
      <trkpt lat="40.02413" lon="-.716019">
        <ele>1014.023</ele>
        <time>2020-08-29T13:38:46Z</time>
      </trkpt>
      <trkpt lat="40.024107" lon="-.715931">
        <ele>1014.083</ele>
        <time>2020-08-29T13:38:47Z</time>
      </trkpt>
      <trkpt lat="40.0241" lon="-.715855">
        <ele>1014.011</ele>
        <time>2020-08-29T13:38:48Z</time>
      </trkpt>
      <trkpt lat="40.024101" lon="-.715771">
        <ele>1013.908</ele>
        <time>2020-08-29T13:38:49Z</time>
      </trkpt>
      <trkpt lat="40.024096" lon="-.715687">
        <ele>1013.997</ele>
        <time>2020-08-29T13:38:50Z</time>
      </trkpt>
      <trkpt lat="40.024093" lon="-.715593">
        <ele>1014.157</ele>
        <time>2020-08-29T13:38:51Z</time>
      </trkpt>
      <trkpt lat="40.024081" lon="-.715516">
        <ele>1014.299</ele>
        <time>2020-08-29T13:38:52Z</time>
      </trkpt>
      <trkpt lat="40.024067" lon="-.715438">
        <ele>1014.261</ele>
        <time>2020-08-29T13:38:53Z</time>
      </trkpt>
      <trkpt lat="40.024061" lon="-.715347">
        <ele>1014.389</ele>
        <time>2020-08-29T13:38:54Z</time>
      </trkpt>
      <trkpt lat="40.024079" lon="-.715238">
        <ele>1014.796</ele>
        <time>2020-08-29T13:38:56Z</time>
      </trkpt>
      <trkpt lat="40.024059" lon="-.715108">
        <ele>1015.174</ele>
        <time>2020-08-29T13:38:58Z</time>
      </trkpt>
      <trkpt lat="40.024054" lon="-.715002">
        <ele>1015.094</ele>
        <time>2020-08-29T13:39:00Z</time>
      </trkpt>
      <trkpt lat="40.024032" lon="-.714886">
        <ele>1015.378</ele>
        <time>2020-08-29T13:39:02Z</time>
      </trkpt>
      <trkpt lat="40.02405" lon="-.714828">
        <ele>1015.433</ele>
        <time>2020-08-29T13:39:03Z</time>
      </trkpt>
      <trkpt lat="40.02406" lon="-.714715">
        <ele>1015.126</ele>
        <time>2020-08-29T13:39:05Z</time>
      </trkpt>
      <trkpt lat="40.024063" lon="-.714646">
        <ele>1015.108</ele>
        <time>2020-08-29T13:39:06Z</time>
      </trkpt>
      <trkpt lat="40.02408" lon="-.714545">
        <ele>1015.412</ele>
        <time>2020-08-29T13:39:08Z</time>
      </trkpt>
      <trkpt lat="40.024103" lon="-.714443">
        <ele>1015.722</ele>
        <time>2020-08-29T13:39:10Z</time>
      </trkpt>
      <trkpt lat="40.024118" lon="-.714378">
        <ele>1015.744</ele>
        <time>2020-08-29T13:39:11Z</time>
      </trkpt>
      <trkpt lat="40.024131" lon="-.714295">
        <ele>1015.366</ele>
        <time>2020-08-29T13:39:12Z</time>
      </trkpt>
      <trkpt lat="40.02413" lon="-.714206">
        <ele>1015.274</ele>
        <time>2020-08-29T13:39:14Z</time>
      </trkpt>
      <trkpt lat="40.024137" lon="-.714104">
        <ele>1016.321</ele>
        <time>2020-08-29T13:39:16Z</time>
      </trkpt>
      <trkpt lat="40.02414" lon="-.714009">
        <ele>1016.649</ele>
        <time>2020-08-29T13:39:18Z</time>
      </trkpt>
      <trkpt lat="40.02415" lon="-.713904">
        <ele>1015.759</ele>
        <time>2020-08-29T13:39:20Z</time>
      </trkpt>
      <trkpt lat="40.024152" lon="-.713786">
        <ele>1015.814</ele>
        <time>2020-08-29T13:39:22Z</time>
      </trkpt>
      <trkpt lat="40.024164" lon="-.71369">
        <ele>1015.754</ele>
        <time>2020-08-29T13:39:24Z</time>
      </trkpt>
      <trkpt lat="40.024198" lon="-.713624">
        <ele>1016.009</ele>
        <time>2020-08-29T13:39:26Z</time>
      </trkpt>
      <trkpt lat="40.024204" lon="-.713542">
        <ele>1015.608</ele>
        <time>2020-08-29T13:39:28Z</time>
      </trkpt>
      <trkpt lat="40.024219" lon="-.713476">
        <ele>1015.216</ele>
        <time>2020-08-29T13:39:29Z</time>
      </trkpt>
      <trkpt lat="40.024245" lon="-.713398">
        <ele>1015.186</ele>
        <time>2020-08-29T13:39:30Z</time>
      </trkpt>
      <trkpt lat="40.024247" lon="-.713323">
        <ele>1014.748</ele>
        <time>2020-08-29T13:39:33Z</time>
      </trkpt>
      <trkpt lat="40.024283" lon="-.713248">
        <ele>1015.120</ele>
        <time>2020-08-29T13:39:35Z</time>
      </trkpt>
      <trkpt lat="40.024312" lon="-.713164">
        <ele>1015.888</ele>
        <time>2020-08-29T13:39:37Z</time>
      </trkpt>
      <trkpt lat="40.024353" lon="-.71308">
        <ele>1015.675</ele>
        <time>2020-08-29T13:39:39Z</time>
      </trkpt>
      <trkpt lat="40.02438" lon="-.713027">
        <ele>1015.653</ele>
        <time>2020-08-29T13:39:40Z</time>
      </trkpt>
      <trkpt lat="40.024425" lon="-.712944">
        <ele>1016.073</ele>
        <time>2020-08-29T13:39:42Z</time>
      </trkpt>
      <trkpt lat="40.024424" lon="-.712827">
        <ele>1016.224</ele>
        <time>2020-08-29T13:39:44Z</time>
      </trkpt>
      <trkpt lat="40.024434" lon="-.71272">
        <ele>1016.604</ele>
        <time>2020-08-29T13:39:46Z</time>
      </trkpt>
      <trkpt lat="40.024438" lon="-.71262">
        <ele>1017.614</ele>
        <time>2020-08-29T13:39:48Z</time>
      </trkpt>
      <trkpt lat="40.024451" lon="-.712532">
        <ele>1017.308</ele>
        <time>2020-08-29T13:39:50Z</time>
      </trkpt>
      <trkpt lat="40.024475" lon="-.712432">
        <ele>1016.537</ele>
        <time>2020-08-29T13:39:52Z</time>
      </trkpt>
      <trkpt lat="40.024482" lon="-.712331">
        <ele>1015.937</ele>
        <time>2020-08-29T13:39:54Z</time>
      </trkpt>
      <trkpt lat="40.024507" lon="-.712228">
        <ele>1016.299</ele>
        <time>2020-08-29T13:39:56Z</time>
      </trkpt>
      <trkpt lat="40.024513" lon="-.712135">
        <ele>1016.181</ele>
        <time>2020-08-29T13:39:58Z</time>
      </trkpt>
      <trkpt lat="40.02455" lon="-.712045">
        <ele>1015.929</ele>
        <time>2020-08-29T13:40:00Z</time>
      </trkpt>
      <trkpt lat="40.02458" lon="-.71196">
        <ele>1015.836</ele>
        <time>2020-08-29T13:40:02Z</time>
      </trkpt>
      <trkpt lat="40.02458" lon="-.711867">
        <ele>1016.424</ele>
        <time>2020-08-29T13:40:04Z</time>
      </trkpt>
      <trkpt lat="40.024584" lon="-.711778">
        <ele>1016.584</ele>
        <time>2020-08-29T13:40:06Z</time>
      </trkpt>
      <trkpt lat="40.024609" lon="-.711693">
        <ele>1015.858</ele>
        <time>2020-08-29T13:40:08Z</time>
      </trkpt>
      <trkpt lat="40.024645" lon="-.711592">
        <ele>1015.852</ele>
        <time>2020-08-29T13:40:10Z</time>
      </trkpt>
      <trkpt lat="40.024672" lon="-.711498">
        <ele>1015.917</ele>
        <time>2020-08-29T13:40:12Z</time>
      </trkpt>
      <trkpt lat="40.024704" lon="-.711414">
        <ele>1016.008</ele>
        <time>2020-08-29T13:40:14Z</time>
      </trkpt>
      <trkpt lat="40.024706" lon="-.711334">
        <ele>1015.960</ele>
        <time>2020-08-29T13:40:16Z</time>
      </trkpt>
      <trkpt lat="40.024714" lon="-.711227">
        <ele>1015.910</ele>
        <time>2020-08-29T13:40:18Z</time>
      </trkpt>
      <trkpt lat="40.024762" lon="-.711114">
        <ele>1015.282</ele>
        <time>2020-08-29T13:40:20Z</time>
      </trkpt>
      <trkpt lat="40.02479" lon="-.71105">
        <ele>1015.734</ele>
        <time>2020-08-29T13:40:21Z</time>
      </trkpt>
      <trkpt lat="40.024817" lon="-.710972">
        <ele>1015.752</ele>
        <time>2020-08-29T13:40:22Z</time>
      </trkpt>
      <trkpt lat="40.024845" lon="-.710918">
        <ele>1015.749</ele>
        <time>2020-08-29T13:40:23Z</time>
      </trkpt>
      <trkpt lat="40.024878" lon="-.71083">
        <ele>1015.787</ele>
        <time>2020-08-29T13:40:24Z</time>
      </trkpt>
      <trkpt lat="40.0249" lon="-.710745">
        <ele>1015.847</ele>
        <time>2020-08-29T13:40:25Z</time>
      </trkpt>
      <trkpt lat="40.024928" lon="-.710672">
        <ele>1015.925</ele>
        <time>2020-08-29T13:40:26Z</time>
      </trkpt>
      <trkpt lat="40.024957" lon="-.710608">
        <ele>1015.926</ele>
        <time>2020-08-29T13:40:27Z</time>
      </trkpt>
      <trkpt lat="40.024982" lon="-.710512">
        <ele>1015.908</ele>
        <time>2020-08-29T13:40:28Z</time>
      </trkpt>
      <trkpt lat="40.024999" lon="-.710435">
        <ele>1016.208</ele>
        <time>2020-08-29T13:40:29Z</time>
      </trkpt>
      <trkpt lat="40.025027" lon="-.710376">
        <ele>1016.297</ele>
        <time>2020-08-29T13:40:30Z</time>
      </trkpt>
      <trkpt lat="40.025049" lon="-.710293">
        <ele>1016.277</ele>
        <time>2020-08-29T13:40:31Z</time>
      </trkpt>
      <trkpt lat="40.025072" lon="-.710223">
        <ele>1016.229</ele>
        <time>2020-08-29T13:40:32Z</time>
      </trkpt>
      <trkpt lat="40.025103" lon="-.710161">
        <ele>1016.261</ele>
        <time>2020-08-29T13:40:33Z</time>
      </trkpt>
      <trkpt lat="40.025128" lon="-.7101">
        <ele>1016.339</ele>
        <time>2020-08-29T13:40:34Z</time>
      </trkpt>
      <trkpt lat="40.02515" lon="-.710027">
        <ele>1016.356</ele>
        <time>2020-08-29T13:40:35Z</time>
      </trkpt>
      <trkpt lat="40.025174" lon="-.709965">
        <ele>1016.334</ele>
        <time>2020-08-29T13:40:36Z</time>
      </trkpt>
      <trkpt lat="40.025197" lon="-.709903">
        <ele>1016.234</ele>
        <time>2020-08-29T13:40:37Z</time>
      </trkpt>
      <trkpt lat="40.0252" lon="-.709806">
        <ele>1016.697</ele>
        <time>2020-08-29T13:40:40Z</time>
      </trkpt>
      <trkpt lat="40.025228" lon="-.709723">
        <ele>1016.823</ele>
        <time>2020-08-29T13:40:42Z</time>
      </trkpt>
      <trkpt lat="40.025278" lon="-.709659">
        <ele>1016.625</ele>
        <time>2020-08-29T13:40:44Z</time>
      </trkpt>
      <trkpt lat="40.02531" lon="-.709589">
        <ele>1016.708</ele>
        <time>2020-08-29T13:40:46Z</time>
      </trkpt>
      <trkpt lat="40.025315" lon="-.70951">
        <ele>1016.824</ele>
        <time>2020-08-29T13:40:48Z</time>
      </trkpt>
      <trkpt lat="40.025343" lon="-.709402">
        <ele>1016.644</ele>
        <time>2020-08-29T13:40:50Z</time>
      </trkpt>
      <trkpt lat="40.025375" lon="-.709326">
        <ele>1017.036</ele>
        <time>2020-08-29T13:40:52Z</time>
      </trkpt>
      <trkpt lat="40.025383" lon="-.709243">
        <ele>1017.038</ele>
        <time>2020-08-29T13:40:54Z</time>
      </trkpt>
      <trkpt lat="40.025386" lon="-.709154">
        <ele>1016.896</ele>
        <time>2020-08-29T13:40:56Z</time>
      </trkpt>
      <trkpt lat="40.025399" lon="-.709085">
        <ele>1016.843</ele>
        <time>2020-08-29T13:40:58Z</time>
      </trkpt>
      <trkpt lat="40.025396" lon="-.709011">
        <ele>1016.911</ele>
        <time>2020-08-29T13:40:59Z</time>
      </trkpt>
      <trkpt lat="40.025391" lon="-.708918">
        <ele>1017.071</ele>
        <time>2020-08-29T13:41:01Z</time>
      </trkpt>
      <trkpt lat="40.025396" lon="-.708822">
        <ele>1017.035</ele>
        <time>2020-08-29T13:41:03Z</time>
      </trkpt>
      <trkpt lat="40.025388" lon="-.708741">
        <ele>1017.086</ele>
        <time>2020-08-29T13:41:05Z</time>
      </trkpt>
      <trkpt lat="40.025414" lon="-.708646">
        <ele>1016.214</ele>
        <time>2020-08-29T13:41:07Z</time>
      </trkpt>
      <trkpt lat="40.0254" lon="-.708544">
        <ele>1016.708</ele>
        <time>2020-08-29T13:41:09Z</time>
      </trkpt>
      <trkpt lat="40.025405" lon="-.708449">
        <ele>1016.888</ele>
        <time>2020-08-29T13:41:11Z</time>
      </trkpt>
      <trkpt lat="40.02542" lon="-.708359">
        <ele>1016.648</ele>
        <time>2020-08-29T13:41:13Z</time>
      </trkpt>
      <trkpt lat="40.025415" lon="-.708274">
        <ele>1017.230</ele>
        <time>2020-08-29T13:41:15Z</time>
      </trkpt>
      <trkpt lat="40.025405" lon="-.7082">
        <ele>1017.532</ele>
        <time>2020-08-29T13:41:17Z</time>
      </trkpt>
      <trkpt lat="40.025445" lon="-.708115">
        <ele>1017.230</ele>
        <time>2020-08-29T13:41:19Z</time>
      </trkpt>
      <trkpt lat="40.025442" lon="-.708026">
        <ele>1016.467</ele>
        <time>2020-08-29T13:41:21Z</time>
      </trkpt>
      <trkpt lat="40.025416" lon="-.707949">
        <ele>1016.385</ele>
        <time>2020-08-29T13:41:23Z</time>
      </trkpt>
      <trkpt lat="40.025414" lon="-.707872">
        <ele>1018.225</ele>
        <time>2020-08-29T13:41:25Z</time>
      </trkpt>
      <trkpt lat="40.025394" lon="-.707777">
        <ele>1018.137</ele>
        <time>2020-08-29T13:41:27Z</time>
      </trkpt>
      <trkpt lat="40.025361" lon="-.707702">
        <ele>1017.649</ele>
        <time>2020-08-29T13:41:29Z</time>
      </trkpt>
      <trkpt lat="40.025352" lon="-.707624">
        <ele>1017.513</ele>
        <time>2020-08-29T13:41:31Z</time>
      </trkpt>
      <trkpt lat="40.02535" lon="-.707553">
        <ele>1017.408</ele>
        <time>2020-08-29T13:41:33Z</time>
      </trkpt>
      <trkpt lat="40.025316" lon="-.707481">
        <ele>1017.418</ele>
        <time>2020-08-29T13:41:35Z</time>
      </trkpt>
      <trkpt lat="40.025292" lon="-.707396">
        <ele>1017.518</ele>
        <time>2020-08-29T13:41:37Z</time>
      </trkpt>
      <trkpt lat="40.025266" lon="-.7073">
        <ele>1017.670</ele>
        <time>2020-08-29T13:41:39Z</time>
      </trkpt>
      <trkpt lat="40.025229" lon="-.707195">
        <ele>1017.752</ele>
        <time>2020-08-29T13:41:41Z</time>
      </trkpt>
      <trkpt lat="40.025193" lon="-.707086">
        <ele>1017.990</ele>
        <time>2020-08-29T13:41:43Z</time>
      </trkpt>
      <trkpt lat="40.025156" lon="-.707045">
        <ele>1018.047</ele>
        <time>2020-08-29T13:41:44Z</time>
      </trkpt>
      <trkpt lat="40.025141" lon="-.70699">
        <ele>1018.065</ele>
        <time>2020-08-29T13:41:45Z</time>
      </trkpt>
      <trkpt lat="40.02512" lon="-.706882">
        <ele>1018.075</ele>
        <time>2020-08-29T13:41:47Z</time>
      </trkpt>
      <trkpt lat="40.025134" lon="-.706825">
        <ele>1018.028</ele>
        <time>2020-08-29T13:41:48Z</time>
      </trkpt>
      <trkpt lat="40.025127" lon="-.706726">
        <ele>1017.789</ele>
        <time>2020-08-29T13:41:50Z</time>
      </trkpt>
      <trkpt lat="40.02512" lon="-.706655">
        <ele>1017.517</ele>
        <time>2020-08-29T13:41:51Z</time>
      </trkpt>
      <trkpt lat="40.025116" lon="-.706552">
        <ele>1017.708</ele>
        <time>2020-08-29T13:41:53Z</time>
      </trkpt>
      <trkpt lat="40.025081" lon="-.706443">
        <ele>1018.187</ele>
        <time>2020-08-29T13:41:55Z</time>
      </trkpt>
      <trkpt lat="40.025039" lon="-.706344">
        <ele>1017.997</ele>
        <time>2020-08-29T13:41:57Z</time>
      </trkpt>
      <trkpt lat="40.024993" lon="-.706241">
        <ele>1017.919</ele>
        <time>2020-08-29T13:41:59Z</time>
      </trkpt>
      <trkpt lat="40.024945" lon="-.706136">
        <ele>1017.891</ele>
        <time>2020-08-29T13:42:01Z</time>
      </trkpt>
      <trkpt lat="40.024913" lon="-.706054">
        <ele>1017.879</ele>
        <time>2020-08-29T13:42:03Z</time>
      </trkpt>
      <trkpt lat="40.024879" lon="-.705963">
        <ele>1017.856</ele>
        <time>2020-08-29T13:42:05Z</time>
      </trkpt>
      <trkpt lat="40.024826" lon="-.705884">
        <ele>1018.184</ele>
        <time>2020-08-29T13:42:07Z</time>
      </trkpt>
      <trkpt lat="40.024799" lon="-.705796">
        <ele>1018.224</ele>
        <time>2020-08-29T13:42:09Z</time>
      </trkpt>
      <trkpt lat="40.024773" lon="-.705747">
        <ele>1018.223</ele>
        <time>2020-08-29T13:42:10Z</time>
      </trkpt>
      <trkpt lat="40.024724" lon="-.705656">
        <ele>1018.083</ele>
        <time>2020-08-29T13:42:12Z</time>
      </trkpt>
      <trkpt lat="40.024647" lon="-.705565">
        <ele>1018.211</ele>
        <time>2020-08-29T13:42:14Z</time>
      </trkpt>
      <trkpt lat="40.024605" lon="-.705474">
        <ele>1018.508</ele>
        <time>2020-08-29T13:42:16Z</time>
      </trkpt>
      <trkpt lat="40.024563" lon="-.705397">
        <ele>1018.557</ele>
        <time>2020-08-29T13:42:18Z</time>
      </trkpt>
      <trkpt lat="40.024494" lon="-.705302">
        <ele>1018.437</ele>
        <time>2020-08-29T13:42:20Z</time>
      </trkpt>
      <trkpt lat="40.024457" lon="-.705209">
        <ele>1018.279</ele>
        <time>2020-08-29T13:42:22Z</time>
      </trkpt>
      <trkpt lat="40.024404" lon="-.705125">
        <ele>1018.231</ele>
        <time>2020-08-29T13:42:24Z</time>
      </trkpt>
      <trkpt lat="40.024361" lon="-.705043">
        <ele>1018.139</ele>
        <time>2020-08-29T13:42:26Z</time>
      </trkpt>
      <trkpt lat="40.024313" lon="-.704969">
        <ele>1018.116</ele>
        <time>2020-08-29T13:42:28Z</time>
      </trkpt>
      <trkpt lat="40.024256" lon="-.704894">
        <ele>1018.014</ele>
        <time>2020-08-29T13:42:30Z</time>
      </trkpt>
      <trkpt lat="40.024198" lon="-.7048">
        <ele>1018.054</ele>
        <time>2020-08-29T13:42:32Z</time>
      </trkpt>
      <trkpt lat="40.024143" lon="-.704716">
        <ele>1018.142</ele>
        <time>2020-08-29T13:42:34Z</time>
      </trkpt>
      <trkpt lat="40.024144" lon="-.704628">
        <ele>1018.722</ele>
        <time>2020-08-29T13:42:36Z</time>
      </trkpt>
      <trkpt lat="40.024117" lon="-.70455">
        <ele>1019.514</ele>
        <time>2020-08-29T13:42:38Z</time>
      </trkpt>
      <trkpt lat="40.024049" lon="-.704447">
        <ele>1019.808</ele>
        <time>2020-08-29T13:42:40Z</time>
      </trkpt>
      <trkpt lat="40.024043" lon="-.704364">
        <ele>1019.389</ele>
        <time>2020-08-29T13:42:42Z</time>
      </trkpt>
      <trkpt lat="40.024013" lon="-.704267">
        <ele>1019.379</ele>
        <time>2020-08-29T13:42:44Z</time>
      </trkpt>
      <trkpt lat="40.023982" lon="-.704178">
        <ele>1019.381</ele>
        <time>2020-08-29T13:42:46Z</time>
      </trkpt>
      <trkpt lat="40.023946" lon="-.70409">
        <ele>1019.163</ele>
        <time>2020-08-29T13:42:48Z</time>
      </trkpt>
      <trkpt lat="40.023888" lon="-.704005">
        <ele>1018.681</ele>
        <time>2020-08-29T13:42:50Z</time>
      </trkpt>
      <trkpt lat="40.023854" lon="-.703942">
        <ele>1019.028</ele>
        <time>2020-08-29T13:42:52Z</time>
      </trkpt>
      <trkpt lat="40.023822" lon="-.703851">
        <ele>1019.496</ele>
        <time>2020-08-29T13:42:54Z</time>
      </trkpt>
      <trkpt lat="40.023791" lon="-.703776">
        <ele>1020.226</ele>
        <time>2020-08-29T13:42:56Z</time>
      </trkpt>
      <trkpt lat="40.023757" lon="-.703709">
        <ele>1020.269</ele>
        <time>2020-08-29T13:42:58Z</time>
      </trkpt>
      <trkpt lat="40.023713" lon="-.703624">
        <ele>1019.804</ele>
        <time>2020-08-29T13:43:00Z</time>
      </trkpt>
      <trkpt lat="40.02367" lon="-.703546">
        <ele>1019.624</ele>
        <time>2020-08-29T13:43:02Z</time>
      </trkpt>
      <trkpt lat="40.023619" lon="-.703479">
        <ele>1019.208</ele>
        <time>2020-08-29T13:43:04Z</time>
      </trkpt>
      <trkpt lat="40.023562" lon="-.703414">
        <ele>1019.421</ele>
        <time>2020-08-29T13:43:06Z</time>
      </trkpt>
      <trkpt lat="40.023506" lon="-.703348">
        <ele>1019.731</ele>
        <time>2020-08-29T13:43:08Z</time>
      </trkpt>
      <trkpt lat="40.023436" lon="-.703286">
        <ele>1020.243</ele>
        <time>2020-08-29T13:43:10Z</time>
      </trkpt>
      <trkpt lat="40.023366" lon="-.703215">
        <ele>1020.475</ele>
        <time>2020-08-29T13:43:12Z</time>
      </trkpt>
      <trkpt lat="40.023287" lon="-.703149">
        <ele>1020.013</ele>
        <time>2020-08-29T13:43:14Z</time>
      </trkpt>
      <trkpt lat="40.023225" lon="-.703094">
        <ele>1019.990</ele>
        <time>2020-08-29T13:43:16Z</time>
      </trkpt>
      <trkpt lat="40.023179" lon="-.703035">
        <ele>1019.978</ele>
        <time>2020-08-29T13:43:17Z</time>
      </trkpt>
      <trkpt lat="40.023142" lon="-.70295">
        <ele>1019.928</ele>
        <time>2020-08-29T13:43:19Z</time>
      </trkpt>
      <trkpt lat="40.023079" lon="-.702875">
        <ele>1020.026</ele>
        <time>2020-08-29T13:43:21Z</time>
      </trkpt>
      <trkpt lat="40.023019" lon="-.702812">
        <ele>1020.147</ele>
        <time>2020-08-29T13:43:23Z</time>
      </trkpt>
      <trkpt lat="40.022949" lon="-.702729">
        <ele>1020.211</ele>
        <time>2020-08-29T13:43:25Z</time>
      </trkpt>
      <trkpt lat="40.022882" lon="-.702673">
        <ele>1020.408</ele>
        <time>2020-08-29T13:43:27Z</time>
      </trkpt>
      <trkpt lat="40.02285" lon="-.702631">
        <ele>1020.467</ele>
        <time>2020-08-29T13:43:28Z</time>
      </trkpt>
      <trkpt lat="40.022774" lon="-.702551">
        <ele>1020.547</ele>
        <time>2020-08-29T13:43:30Z</time>
      </trkpt>
      <trkpt lat="40.022686" lon="-.702486">
        <ele>1020.549</ele>
        <time>2020-08-29T13:43:32Z</time>
      </trkpt>
      <trkpt lat="40.022625" lon="-.702426">
        <ele>1020.521</ele>
        <time>2020-08-29T13:43:34Z</time>
      </trkpt>
      <trkpt lat="40.022569" lon="-.702381">
        <ele>1020.059</ele>
        <time>2020-08-29T13:43:36Z</time>
      </trkpt>
      <trkpt lat="40.022526" lon="-.70233">
        <ele>1020.016</ele>
        <time>2020-08-29T13:43:37Z</time>
      </trkpt>
      <trkpt lat="40.02246" lon="-.702278">
        <ele>1020.524</ele>
        <time>2020-08-29T13:43:39Z</time>
      </trkpt>
      <trkpt lat="40.02238" lon="-.702225">
        <ele>1021.034</ele>
        <time>2020-08-29T13:43:41Z</time>
      </trkpt>
      <trkpt lat="40.022327" lon="-.702153">
        <ele>1021.471</ele>
        <time>2020-08-29T13:43:43Z</time>
      </trkpt>
      <trkpt lat="40.022258" lon="-.702071">
        <ele>1021.241</ele>
        <time>2020-08-29T13:43:45Z</time>
      </trkpt>
      <trkpt lat="40.022176" lon="-.702016">
        <ele>1020.815</ele>
        <time>2020-08-29T13:43:47Z</time>
      </trkpt>
      <trkpt lat="40.022115" lon="-.701962">
        <ele>1020.308</ele>
        <time>2020-08-29T13:43:49Z</time>
      </trkpt>
      <trkpt lat="40.022033" lon="-.701918">
        <ele>1020.612</ele>
        <time>2020-08-29T13:43:51Z</time>
      </trkpt>
      <trkpt lat="40.021963" lon="-.70188">
        <ele>1021.522</ele>
        <time>2020-08-29T13:43:53Z</time>
      </trkpt>
      <trkpt lat="40.021899" lon="-.701853">
        <ele>1022.014</ele>
        <time>2020-08-29T13:43:55Z</time>
      </trkpt>
      <trkpt lat="40.021825" lon="-.701813">
        <ele>1021.156</ele>
        <time>2020-08-29T13:43:57Z</time>
      </trkpt>
      <trkpt lat="40.021745" lon="-.701774">
        <ele>1020.964</ele>
        <time>2020-08-29T13:43:59Z</time>
      </trkpt>
      <trkpt lat="40.021667" lon="-.701734">
        <ele>1021.531</ele>
        <time>2020-08-29T13:44:01Z</time>
      </trkpt>
      <trkpt lat="40.021592" lon="-.701729">
        <ele>1021.849</ele>
        <time>2020-08-29T13:44:03Z</time>
      </trkpt>
      <trkpt lat="40.021491" lon="-.701705">
        <ele>1021.439</ele>
        <time>2020-08-29T13:44:05Z</time>
      </trkpt>
      <trkpt lat="40.020846" lon="-.70111">
        <ele>1020.755</ele>
        <time>2020-08-29T13:44:07Z</time>
      </trkpt>
      <trkpt lat="40.020772" lon="-.701083">
        <ele>1021.007</ele>
        <time>2020-08-29T13:44:08Z</time>
      </trkpt>
      <trkpt lat="40.020283" lon="-.700778">
        <ele>1021.217</ele>
        <time>2020-08-29T13:44:09Z</time>
      </trkpt>
      <trkpt lat="40.02019" lon="-.700724">
        <ele>1022.208</ele>
        <time>2020-08-29T13:44:11Z</time>
      </trkpt>
      <trkpt lat="40.020097" lon="-.700671">
        <ele>1022.260</ele>
        <time>2020-08-29T13:44:12Z</time>
      </trkpt>
      <trkpt lat="40.020049" lon="-.700645">
        <ele>1021.710</ele>
        <time>2020-08-29T13:44:13Z</time>
      </trkpt>
      <trkpt lat="40.019995" lon="-.700618">
        <ele>1021.162</ele>
        <time>2020-08-29T13:44:14Z</time>
      </trkpt>
      <trkpt lat="40.019948" lon="-.700584">
        <ele>1021.134</ele>
        <time>2020-08-29T13:44:15Z</time>
      </trkpt>
      <trkpt lat="40.019848" lon="-.700531">
        <ele>1021.362</ele>
        <time>2020-08-29T13:44:16Z</time>
      </trkpt>
      <trkpt lat="40.019674" lon="-.700434">
        <ele>1021.529</ele>
        <time>2020-08-29T13:44:17Z</time>
      </trkpt>
      <trkpt lat="40.0196" lon="-.700393">
        <ele>1021.647</ele>
        <time>2020-08-29T13:44:18Z</time>
      </trkpt>
      <trkpt lat="40.019517" lon="-.700321">
        <ele>1021.667</ele>
        <time>2020-08-29T13:44:19Z</time>
      </trkpt>
      <trkpt lat="40.019438" lon="-.700259">
        <ele>1022.399</ele>
        <time>2020-08-29T13:44:20Z</time>
      </trkpt>
      <trkpt lat="40.019342" lon="-.700198">
        <ele>1022.307</ele>
        <time>2020-08-29T13:44:21Z</time>
      </trkpt>
      <trkpt lat="40.019255" lon="-.700137">
        <ele>1021.527</ele>
        <time>2020-08-29T13:44:22Z</time>
      </trkpt>
      <trkpt lat="40.019188" lon="-.700095">
        <ele>1021.108</ele>
        <time>2020-08-29T13:44:23Z</time>
      </trkpt>
      <trkpt lat="40.019121" lon="-.700049">
        <ele>1021.134</ele>
        <time>2020-08-29T13:44:24Z</time>
      </trkpt>
      <trkpt lat="40.019064" lon="-.700015">
        <ele>1021.314</ele>
        <time>2020-08-29T13:44:25Z</time>
      </trkpt>
      <trkpt lat="40.019006" lon="-.699986">
        <ele>1021.526</ele>
        <time>2020-08-29T13:44:26Z</time>
      </trkpt>
      <trkpt lat="40.018953" lon="-.69995">
        <ele>1022.288</ele>
        <time>2020-08-29T13:44:27Z</time>
      </trkpt>
      <trkpt lat="40.018909" lon="-.699915">
        <ele>1022.656</ele>
        <time>2020-08-29T13:44:28Z</time>
      </trkpt>
      <trkpt lat="40.018857" lon="-.699899">
        <ele>1022.623</ele>
        <time>2020-08-29T13:44:29Z</time>
      </trkpt>
      <trkpt lat="40.01876" lon="-.69984">
        <ele>1022.691</ele>
        <time>2020-08-29T13:44:30Z</time>
      </trkpt>
      <trkpt lat="40.018694" lon="-.699819">
        <ele>1022.851</ele>
        <time>2020-08-29T13:44:32Z</time>
      </trkpt>
      <trkpt lat="40.018635" lon="-.699794">
        <ele>1023.111</ele>
        <time>2020-08-29T13:44:34Z</time>
      </trkpt>
      <trkpt lat="40.018581" lon="-.699776">
        <ele>1023.321</ele>
        <time>2020-08-29T13:44:36Z</time>
      </trkpt>
      <trkpt lat="40.018537" lon="-.699752">
        <ele>1023.403</ele>
        <time>2020-08-29T13:44:38Z</time>
      </trkpt>
      <trkpt lat="40.018491" lon="-.699722">
        <ele>1023.508</ele>
        <time>2020-08-29T13:44:40Z</time>
      </trkpt>
      <trkpt lat="40.018428" lon="-.69969">
        <ele>1023.546</ele>
        <time>2020-08-29T13:44:42Z</time>
      </trkpt>
      <trkpt lat="40.018371" lon="-.699652">
        <ele>1023.546</ele>
        <time>2020-08-29T13:44:44Z</time>
      </trkpt>
      <trkpt lat="40.018308" lon="-.699616">
        <ele>1023.788</ele>
        <time>2020-08-29T13:44:46Z</time>
      </trkpt>
      <trkpt lat="40.018239" lon="-.69958">
        <ele>1023.630</ele>
        <time>2020-08-29T13:44:48Z</time>
      </trkpt>
      <trkpt lat="40.018175" lon="-.69956">
        <ele>1023.898</ele>
        <time>2020-08-29T13:44:50Z</time>
      </trkpt>
      <trkpt lat="40.018115" lon="-.699522">
        <ele>1023.885</ele>
        <time>2020-08-29T13:44:52Z</time>
      </trkpt>
      <trkpt lat="40.018051" lon="-.699484">
        <ele>1024.123</ele>
        <time>2020-08-29T13:44:55Z</time>
      </trkpt>
      <trkpt lat="40.017976" lon="-.69946">
        <ele>1024.683</ele>
        <time>2020-08-29T13:44:57Z</time>
      </trkpt>
      <trkpt lat="40.017916" lon="-.699441">
        <ele>1024.666</ele>
        <time>2020-08-29T13:44:59Z</time>
      </trkpt>
      <trkpt lat="40.017843" lon="-.699416">
        <ele>1025.029</ele>
        <time>2020-08-29T13:45:02Z</time>
      </trkpt>
      <trkpt lat="40.017795" lon="-.699395">
        <ele>1025.421</ele>
        <time>2020-08-29T13:45:08Z</time>
      </trkpt>
      <trkpt lat="40.017736" lon="-.699364">
        <ele>1025.208</ele>
        <time>2020-08-29T13:45:11Z</time>
      </trkpt>
      <trkpt lat="40.0177" lon="-.699324">
        <ele>1024.941</ele>
        <time>2020-08-29T13:45:14Z</time>
      </trkpt>
      <trkpt lat="40.017647" lon="-.69931">
        <ele>1026.521</ele>
        <time>2020-08-29T13:47:29Z</time>
      </trkpt>
      <trkpt lat="40.017608" lon="-.699279">
        <ele>1025.963</ele>
        <time>2020-08-29T13:47:32Z</time>
      </trkpt>
      <trkpt lat="40.017541" lon="-.699232">
        <ele>1025.995</ele>
        <time>2020-08-29T13:47:36Z</time>
      </trkpt>
      <trkpt lat="40.017499" lon="-.699203">
        <ele>1026.913</ele>
        <time>2020-08-29T13:47:38Z</time>
      </trkpt>
      <trkpt lat="40.017441" lon="-.699178">
        <ele>1027.140</ele>
        <time>2020-08-29T13:47:40Z</time>
      </trkpt>
      <trkpt lat="40.017398" lon="-.699144">
        <ele>1025.928</ele>
        <time>2020-08-29T13:47:42Z</time>
      </trkpt>
      <trkpt lat="40.017333" lon="-.6991">
        <ele>1025.748</ele>
        <time>2020-08-29T13:47:45Z</time>
      </trkpt>
      <trkpt lat="40.017284" lon="-.699083">
        <ele>1026.046</ele>
        <time>2020-08-29T13:47:47Z</time>
      </trkpt>
      <trkpt lat="40.017222" lon="-.699037">
        <ele>1026.588</ele>
        <time>2020-08-29T13:47:49Z</time>
      </trkpt>
      <trkpt lat="40.01718" lon="-.699011">
        <ele>1026.016</ele>
        <time>2020-08-29T13:47:51Z</time>
      </trkpt>
      <trkpt lat="40.017124" lon="-.698967">
        <ele>1026.108</ele>
        <time>2020-08-29T13:47:53Z</time>
      </trkpt>
      <trkpt lat="40.017051" lon="-.698924">
        <ele>1025.869</ele>
        <time>2020-08-29T13:47:55Z</time>
      </trkpt>
      <trkpt lat="40.016997" lon="-.698897">
        <ele>1025.559</ele>
        <time>2020-08-29T13:47:58Z</time>
      </trkpt>
      <trkpt lat="40.016944" lon="-.69885">
        <ele>1025.421</ele>
        <time>2020-08-29T13:48:01Z</time>
      </trkpt>
      <trkpt lat="40.016873" lon="-.69883">
        <ele>1025.393</ele>
        <time>2020-08-29T13:48:03Z</time>
      </trkpt>
      <trkpt lat="40.016823" lon="-.698817">
        <ele>1025.221</ele>
        <time>2020-08-29T13:48:04Z</time>
      </trkpt>
      <trkpt lat="40.016779" lon="-.698794">
        <ele>1025.228</ele>
        <time>2020-08-29T13:48:05Z</time>
      </trkpt>
      <trkpt lat="40.016719" lon="-.698773">
        <ele>1025.016</ele>
        <time>2020-08-29T13:48:07Z</time>
      </trkpt>
      <trkpt lat="40.016666" lon="-.698738">
        <ele>1024.726</ele>
        <time>2020-08-29T13:48:09Z</time>
      </trkpt>
      <trkpt lat="40.016601" lon="-.698707">
        <ele>1024.991</ele>
        <time>2020-08-29T13:48:11Z</time>
      </trkpt>
      <trkpt lat="40.016545" lon="-.698669">
        <ele>1025.381</ele>
        <time>2020-08-29T13:48:13Z</time>
      </trkpt>
      <trkpt lat="40.016499" lon="-.698639">
        <ele>1025.419</ele>
        <time>2020-08-29T13:48:15Z</time>
      </trkpt>
      <trkpt lat="40.016457" lon="-.698598">
        <ele>1025.508</ele>
        <time>2020-08-29T13:48:17Z</time>
      </trkpt>
      <trkpt lat="40.016402" lon="-.698565">
        <ele>1025.564</ele>
        <time>2020-08-29T13:48:19Z</time>
      </trkpt>
      <trkpt lat="40.016351" lon="-.698522">
        <ele>1025.814</ele>
        <time>2020-08-29T13:48:21Z</time>
      </trkpt>
      <trkpt lat="40.016298" lon="-.698505">
        <ele>1026.096</ele>
        <time>2020-08-29T13:48:23Z</time>
      </trkpt>
      <trkpt lat="40.01623" lon="-.698478">
        <ele>1026.498</ele>
        <time>2020-08-29T13:48:25Z</time>
      </trkpt>
      <trkpt lat="40.01618" lon="-.69845">
        <ele>1025.696</ele>
        <time>2020-08-29T13:48:27Z</time>
      </trkpt>
      <trkpt lat="40.016132" lon="-.698417">
        <ele>1026.333</ele>
        <time>2020-08-29T13:48:30Z</time>
      </trkpt>
      <trkpt lat="40.016066" lon="-.698377">
        <ele>1026.261</ele>
        <time>2020-08-29T13:48:33Z</time>
      </trkpt>
      <trkpt lat="40.016021" lon="-.698352">
        <ele>1026.191</ele>
        <time>2020-08-29T13:48:35Z</time>
      </trkpt>
      <trkpt lat="40.015973" lon="-.698315">
        <ele>1026.127</ele>
        <time>2020-08-29T13:48:37Z</time>
      </trkpt>
      <trkpt lat="40.015927" lon="-.698289">
        <ele>1026.068</ele>
        <time>2020-08-29T13:48:39Z</time>
      </trkpt>
      <trkpt lat="40.015871" lon="-.698252">
        <ele>1025.914</ele>
        <time>2020-08-29T13:48:41Z</time>
      </trkpt>
      <trkpt lat="40.015825" lon="-.698236">
        <ele>1024.908</ele>
        <time>2020-08-29T13:48:43Z</time>
      </trkpt>
      <trkpt lat="40.015764" lon="-.698198">
        <ele>1025.377</ele>
        <time>2020-08-29T13:48:45Z</time>
      </trkpt>
      <trkpt lat="40.015723" lon="-.698153">
        <ele>1027.157</ele>
        <time>2020-08-29T13:48:47Z</time>
      </trkpt>
      <trkpt lat="40.015657" lon="-.698137">
        <ele>1025.919</ele>
        <time>2020-08-29T13:48:49Z</time>
      </trkpt>
      <trkpt lat="40.015616" lon="-.698093">
        <ele>1025.231</ele>
        <time>2020-08-29T13:48:51Z</time>
      </trkpt>
      <trkpt lat="40.01556" lon="-.698052">
        <ele>1025.559</ele>
        <time>2020-08-29T13:48:53Z</time>
      </trkpt>
      <trkpt lat="40.015503" lon="-.698018">
        <ele>1025.726</ele>
        <time>2020-08-29T13:48:55Z</time>
      </trkpt>
      <trkpt lat="40.015446" lon="-.697974">
        <ele>1025.924</ele>
        <time>2020-08-29T13:48:57Z</time>
      </trkpt>
      <trkpt lat="40.015387" lon="-.697945">
        <ele>1025.824</ele>
        <time>2020-08-29T13:48:59Z</time>
      </trkpt>
      <trkpt lat="40.015322" lon="-.697892">
        <ele>1025.748</ele>
        <time>2020-08-29T13:49:01Z</time>
      </trkpt>
      <trkpt lat="40.015268" lon="-.697859">
        <ele>1025.461</ele>
        <time>2020-08-29T13:49:03Z</time>
      </trkpt>
      <trkpt lat="40.015221" lon="-.69782">
        <ele>1025.517</ele>
        <time>2020-08-29T13:49:05Z</time>
      </trkpt>
      <trkpt lat="40.01517" lon="-.697786">
        <ele>1025.808</ele>
        <time>2020-08-29T13:49:07Z</time>
      </trkpt>
      <trkpt lat="40.015113" lon="-.697751">
        <ele>1025.839</ele>
        <time>2020-08-29T13:49:09Z</time>
      </trkpt>
      <trkpt lat="40.015053" lon="-.697709">
        <ele>1025.479</ele>
        <time>2020-08-29T13:49:11Z</time>
      </trkpt>
      <trkpt lat="40.014996" lon="-.697665">
        <ele>1025.591</ele>
        <time>2020-08-29T13:49:13Z</time>
      </trkpt>
      <trkpt lat="40.014942" lon="-.697624">
        <ele>1025.833</ele>
        <time>2020-08-29T13:49:15Z</time>
      </trkpt>
      <trkpt lat="40.014893" lon="-.697611">
        <ele>1026.581</ele>
        <time>2020-08-29T13:49:17Z</time>
      </trkpt>
      <trkpt lat="40.01483" lon="-.697592">
        <ele>1026.138</ele>
        <time>2020-08-29T13:49:19Z</time>
      </trkpt>
      <trkpt lat="40.014772" lon="-.697579">
        <ele>1026.076</ele>
        <time>2020-08-29T13:49:21Z</time>
      </trkpt>
      <trkpt lat="40.014717" lon="-.697566">
        <ele>1026.156</ele>
        <time>2020-08-29T13:49:23Z</time>
      </trkpt>
      <trkpt lat="40.014667" lon="-.697558">
        <ele>1026.547</ele>
        <time>2020-08-29T13:49:25Z</time>
      </trkpt>
      <trkpt lat="40.014619" lon="-.697534">
        <ele>1026.629</ele>
        <time>2020-08-29T13:49:27Z</time>
      </trkpt>
      <trkpt lat="40.014561" lon="-.697494">
        <ele>1026.721</ele>
        <time>2020-08-29T13:49:29Z</time>
      </trkpt>
      <trkpt lat="40.014507" lon="-.697453">
        <ele>1026.708</ele>
        <time>2020-08-29T13:49:31Z</time>
      </trkpt>
      <trkpt lat="40.014448" lon="-.697435">
        <ele>1026.749</ele>
        <time>2020-08-29T13:49:33Z</time>
      </trkpt>
      <trkpt lat="40.014397" lon="-.697402">
        <ele>1026.839</ele>
        <time>2020-08-29T13:49:35Z</time>
      </trkpt>
      <trkpt lat="40.014351" lon="-.697351">
        <ele>1026.761</ele>
        <time>2020-08-29T13:49:37Z</time>
      </trkpt>
      <trkpt lat="40.014292" lon="-.697355">
        <ele>1026.453</ele>
        <time>2020-08-29T13:49:39Z</time>
      </trkpt>
      <trkpt lat="40.014245" lon="-.697321">
        <ele>1026.141</ele>
        <time>2020-08-29T13:49:42Z</time>
      </trkpt>
      <trkpt lat="40.014194" lon="-.697309">
        <ele>1026.158</ele>
        <time>2020-08-29T13:49:44Z</time>
      </trkpt>
      <trkpt lat="40.014148" lon="-.697281">
        <ele>1026.376</ele>
        <time>2020-08-29T13:49:46Z</time>
      </trkpt>
      <trkpt lat="40.014088" lon="-.697241">
        <ele>1026.346</ele>
        <time>2020-08-29T13:49:49Z</time>
      </trkpt>
      <trkpt lat="40.014027" lon="-.697217">
        <ele>1026.387</ele>
        <time>2020-08-29T13:49:51Z</time>
      </trkpt>
      <trkpt lat="40.013982" lon="-.697204">
        <ele>1026.142</ele>
        <time>2020-08-29T13:49:52Z</time>
      </trkpt>
      <trkpt lat="40.013922" lon="-.697195">
        <ele>1026.226</ele>
        <time>2020-08-29T13:49:55Z</time>
      </trkpt>
      <trkpt lat="40.013877" lon="-.697161">
        <ele>1026.208</ele>
        <time>2020-08-29T13:49:56Z</time>
      </trkpt>
      <trkpt lat="40.013803" lon="-.697122">
        <ele>1026.533</ele>
        <time>2020-08-29T13:49:59Z</time>
      </trkpt>
      <trkpt lat="40.013743" lon="-.697121">
        <ele>1026.493</ele>
        <time>2020-08-29T13:50:01Z</time>
      </trkpt>
      <trkpt lat="40.013662" lon="-.697144">
        <ele>1025.895</ele>
        <time>2020-08-29T13:50:03Z</time>
      </trkpt>
      <trkpt lat="40.013583" lon="-.697085">
        <ele>1026.157</ele>
        <time>2020-08-29T13:50:05Z</time>
      </trkpt>
      <trkpt lat="40.013549" lon="-.697029">
        <ele>1026.475</ele>
        <time>2020-08-29T13:50:06Z</time>
      </trkpt>
      <trkpt lat="40.013477" lon="-.697065">
        <ele>1026.492</ele>
        <time>2020-08-29T13:50:07Z</time>
      </trkpt>
      <trkpt lat="40.013407" lon="-.697104">
        <ele>1026.630</ele>
        <time>2020-08-29T13:50:08Z</time>
      </trkpt>
      <trkpt lat="40.013342" lon="-.697051">
        <ele>1026.980</ele>
        <time>2020-08-29T13:50:09Z</time>
      </trkpt>
      <trkpt lat="40.013288" lon="-.697034">
        <ele>1026.916</ele>
        <time>2020-08-29T13:50:10Z</time>
      </trkpt>
      <trkpt lat="40.01324" lon="-.697024">
        <ele>1026.676</ele>
        <time>2020-08-29T13:50:11Z</time>
      </trkpt>
      <trkpt lat="40.013193" lon="-.697022">
        <ele>1026.613</ele>
        <time>2020-08-29T13:50:12Z</time>
      </trkpt>
      <trkpt lat="40.013145" lon="-.697003">
        <ele>1026.608</ele>
        <time>2020-08-29T13:50:13Z</time>
      </trkpt>
      <trkpt lat="40.013091" lon="-.696991">
        <ele>1026.686</ele>
        <time>2020-08-29T13:50:14Z</time>
      </trkpt>
      <trkpt lat="40.013037" lon="-.696986">
        <ele>1026.696</ele>
        <time>2020-08-29T13:50:15Z</time>
      </trkpt>
      <trkpt lat="40.012977" lon="-.696975">
        <ele>1025.968</ele>
        <time>2020-08-29T13:50:16Z</time>
      </trkpt>
      <trkpt lat="40.012932" lon="-.696952">
        <ele>1025.930</ele>
        <time>2020-08-29T13:50:17Z</time>
      </trkpt>
      <trkpt lat="40.01288" lon="-.696944">
        <ele>1026.538</ele>
        <time>2020-08-29T13:50:18Z</time>
      </trkpt>
      <trkpt lat="40.012833" lon="-.696944">
        <ele>1026.525</ele>
        <time>2020-08-29T13:50:19Z</time>
      </trkpt>
      <trkpt lat="40.012741" lon="-.696903">
        <ele>1027.343</ele>
        <time>2020-08-29T13:50:21Z</time>
      </trkpt>
      <trkpt lat="40.012696" lon="-.69692">
        <ele>1027.393</ele>
        <time>2020-08-29T13:50:22Z</time>
      </trkpt>
      <trkpt lat="40.012636" lon="-.696935">
        <ele>1026.567</ele>
        <time>2020-08-29T13:50:23Z</time>
      </trkpt>
      <trkpt lat="40.012575" lon="-.696926">
        <ele>1026.481</ele>
        <time>2020-08-29T13:50:24Z</time>
      </trkpt>
      <trkpt lat="40.012518" lon="-.696921">
        <ele>1026.419</ele>
        <time>2020-08-29T13:50:25Z</time>
      </trkpt>
      <trkpt lat="40.012454" lon="-.696901">
        <ele>1026.508</ele>
        <time>2020-08-29T13:50:26Z</time>
      </trkpt>
      <trkpt lat="40.012399" lon="-.696896">
        <ele>1026.661</ele>
        <time>2020-08-29T13:50:27Z</time>
      </trkpt>
      <trkpt lat="40.012349" lon="-.696891">
        <ele>1026.791</ele>
        <time>2020-08-29T13:50:28Z</time>
      </trkpt>
      <trkpt lat="40.0123" lon="-.696885">
        <ele>1026.833</ele>
        <time>2020-08-29T13:50:29Z</time>
      </trkpt>
      <trkpt lat="40.012253" lon="-.696857">
        <ele>1027.055</ele>
        <time>2020-08-29T13:50:30Z</time>
      </trkpt>
      <trkpt lat="40.012199" lon="-.69682">
        <ele>1027.043</ele>
        <time>2020-08-29T13:50:31Z</time>
      </trkpt>
      <trkpt lat="40.012131" lon="-.696787">
        <ele>1027.140</ele>
        <time>2020-08-29T13:50:33Z</time>
      </trkpt>
      <trkpt lat="40.012065" lon="-.696771">
        <ele>1027.298</ele>
        <time>2020-08-29T13:50:35Z</time>
      </trkpt>
      <trkpt lat="40.011994" lon="-.696764">
        <ele>1027.368</ele>
        <time>2020-08-29T13:50:37Z</time>
      </trkpt>
      <trkpt lat="40.011931" lon="-.696757">
        <ele>1027.776</ele>
        <time>2020-08-29T13:50:39Z</time>
      </trkpt>
      <trkpt lat="40.011867" lon="-.696751">
        <ele>1027.990</ele>
        <time>2020-08-29T13:50:41Z</time>
      </trkpt>
      <trkpt lat="40.011821" lon="-.696756">
        <ele>1028.019</ele>
        <time>2020-08-29T13:50:42Z</time>
      </trkpt>
      <trkpt lat="40.011754" lon="-.69675">
        <ele>1028.108</ele>
        <time>2020-08-29T13:50:44Z</time>
      </trkpt>
      <trkpt lat="40.011709" lon="-.696727">
        <ele>1028.192</ele>
        <time>2020-08-29T13:50:47Z</time>
      </trkpt>
      <trkpt lat="40.011659" lon="-.696717">
        <ele>1028.282</ele>
        <time>2020-08-29T13:50:49Z</time>
      </trkpt>
      <trkpt lat="40.011607" lon="-.696719">
        <ele>1027.814</ele>
        <time>2020-08-29T13:50:51Z</time>
      </trkpt>
      <trkpt lat="40.011561" lon="-.696696">
        <ele>1027.446</ele>
        <time>2020-08-29T13:50:53Z</time>
      </trkpt>
      <trkpt lat="40.011513" lon="-.69668">
        <ele>1027.594</ele>
        <time>2020-08-29T13:50:55Z</time>
      </trkpt>
      <trkpt lat="40.011437" lon="-.69668">
        <ele>1028.021</ele>
        <time>2020-08-29T13:50:58Z</time>
      </trkpt>
      <trkpt lat="40.011381" lon="-.696685">
        <ele>1027.449</ele>
        <time>2020-08-29T13:51:00Z</time>
      </trkpt>
      <trkpt lat="40.011325" lon="-.69666">
        <ele>1027.359</ele>
        <time>2020-08-29T13:51:02Z</time>
      </trkpt>
      <trkpt lat="40.01122" lon="-.696654">
        <ele>1027.495</ele>
        <time>2020-08-29T13:51:04Z</time>
      </trkpt>
      <trkpt lat="40.011153" lon="-.696649">
        <ele>1028.549</ele>
        <time>2020-08-29T13:51:05Z</time>
      </trkpt>
      <trkpt lat="40.01109" lon="-.696652">
        <ele>1028.223</ele>
        <time>2020-08-29T13:51:06Z</time>
      </trkpt>
      <trkpt lat="40.011029" lon="-.696658">
        <ele>1028.008</ele>
        <time>2020-08-29T13:51:07Z</time>
      </trkpt>
      <trkpt lat="40.010971" lon="-.696661">
        <ele>1027.824</ele>
        <time>2020-08-29T13:51:08Z</time>
      </trkpt>
      <trkpt lat="40.010918" lon="-.696666">
        <ele>1027.394</ele>
        <time>2020-08-29T13:51:09Z</time>
      </trkpt>
      <trkpt lat="40.010856" lon="-.696672">
        <ele>1027.296</ele>
        <time>2020-08-29T13:51:10Z</time>
      </trkpt>
      <trkpt lat="40.010797" lon="-.696676">
        <ele>1027.248</ele>
        <time>2020-08-29T13:51:11Z</time>
      </trkpt>
      <trkpt lat="40.010737" lon="-.69668">
        <ele>1027.246</ele>
        <time>2020-08-29T13:51:12Z</time>
      </trkpt>
      <trkpt lat="40.010657" lon="-.696684">
        <ele>1027.253</ele>
        <time>2020-08-29T13:51:13Z</time>
      </trkpt>
      <trkpt lat="40.010599" lon="-.696682">
        <ele>1027.221</ele>
        <time>2020-08-29T13:51:14Z</time>
      </trkpt>
      <trkpt lat="40.010533" lon="-.696691">
        <ele>1027.261</ele>
        <time>2020-08-29T13:51:15Z</time>
      </trkpt>
      <trkpt lat="40.010484" lon="-.69669">
        <ele>1027.227</ele>
        <time>2020-08-29T13:51:16Z</time>
      </trkpt>
      <trkpt lat="40.010437" lon="-.696693">
        <ele>1027.168</ele>
        <time>2020-08-29T13:51:17Z</time>
      </trkpt>
      <trkpt lat="40.010349" lon="-.696695">
        <ele>1026.814</ele>
        <time>2020-08-29T13:51:19Z</time>
      </trkpt>
      <trkpt lat="40.0103" lon="-.696697">
        <ele>1026.708</ele>
        <time>2020-08-29T13:51:20Z</time>
      </trkpt>
      <trkpt lat="40.010212" lon="-.696691">
        <ele>1026.337</ele>
        <time>2020-08-29T13:51:22Z</time>
      </trkpt>
      <trkpt lat="40.010167" lon="-.696676">
        <ele>1026.287</ele>
        <time>2020-08-29T13:51:23Z</time>
      </trkpt>
      <trkpt lat="40.010121" lon="-.696672">
        <ele>1026.269</ele>
        <time>2020-08-29T13:51:24Z</time>
      </trkpt>
      <trkpt lat="40.01007" lon="-.696667">
        <ele>1026.411</ele>
        <time>2020-08-29T13:51:25Z</time>
      </trkpt>
      <trkpt lat="40.009984" lon="-.696657">
        <ele>1026.819</ele>
        <time>2020-08-29T13:51:27Z</time>
      </trkpt>
      <trkpt lat="40.009937" lon="-.69666">
        <ele>1027.386</ele>
        <time>2020-08-29T13:51:28Z</time>
      </trkpt>
      <trkpt lat="40.009887" lon="-.696663">
        <ele>1027.334</ele>
        <time>2020-08-29T13:51:29Z</time>
      </trkpt>
      <trkpt lat="40.009836" lon="-.696666">
        <ele>1027.074</ele>
        <time>2020-08-29T13:51:30Z</time>
      </trkpt>
      <trkpt lat="40.009791" lon="-.69666">
        <ele>1026.719</ele>
        <time>2020-08-29T13:51:31Z</time>
      </trkpt>
      <trkpt lat="40.009712" lon="-.696644">
        <ele>1025.509</ele>
        <time>2020-08-29T13:51:33Z</time>
      </trkpt>
      <trkpt lat="40.00962" lon="-.696648">
        <ele>1025.819</ele>
        <time>2020-08-29T13:51:35Z</time>
      </trkpt>
      <trkpt lat="40.009531" lon="-.696651">
        <ele>1026.108</ele>
        <time>2020-08-29T13:51:37Z</time>
      </trkpt>
      <trkpt lat="40.009449" lon="-.696652">
        <ele>1026.916</ele>
        <time>2020-08-29T13:51:39Z</time>
      </trkpt>
      <trkpt lat="40.009362" lon="-.696645">
        <ele>1026.776</ele>
        <time>2020-08-29T13:51:41Z</time>
      </trkpt>
      <trkpt lat="40.009313" lon="-.696643">
        <ele>1025.538</ele>
        <time>2020-08-29T13:51:42Z</time>
      </trkpt>
      <trkpt lat="40.009265" lon="-.696637">
        <ele>1025.320</ele>
        <time>2020-08-29T13:51:43Z</time>
      </trkpt>
      <trkpt lat="40.009178" lon="-.696631">
        <ele>1025.628</ele>
        <time>2020-08-29T13:51:45Z</time>
      </trkpt>
      <trkpt lat="40.009128" lon="-.696631">
        <ele>1025.755</ele>
        <time>2020-08-29T13:51:46Z</time>
      </trkpt>
      <trkpt lat="40.009042" lon="-.696622">
        <ele>1026.033</ele>
        <time>2020-08-29T13:51:48Z</time>
      </trkpt>
      <trkpt lat="40.008995" lon="-.696625">
        <ele>1026.223</ele>
        <time>2020-08-29T13:51:49Z</time>
      </trkpt>
      <trkpt lat="40.00891" lon="-.696625">
        <ele>1024.739</ele>
        <time>2020-08-29T13:51:51Z</time>
      </trkpt>
      <trkpt lat="40.008864" lon="-.696623">
        <ele>1024.701</ele>
        <time>2020-08-29T13:51:52Z</time>
      </trkpt>
      <trkpt lat="40.008815" lon="-.696622">
        <ele>1025.021</ele>
        <time>2020-08-29T13:51:53Z</time>
      </trkpt>
      <trkpt lat="40.008761" lon="-.696632">
        <ele>1025.208</ele>
        <time>2020-08-29T13:51:54Z</time>
      </trkpt>
      <trkpt lat="40.008679" lon="-.696627">
        <ele>1025.738</ele>
        <time>2020-08-29T13:51:56Z</time>
      </trkpt>
      <trkpt lat="40.008634" lon="-.696628">
        <ele>1026.378</ele>
        <time>2020-08-29T13:51:57Z</time>
      </trkpt>
      <trkpt lat="40.008548" lon="-.696625">
        <ele>1025.760</ele>
        <time>2020-08-29T13:51:59Z</time>
      </trkpt>
      <trkpt lat="40.008475" lon="-.696623">
        <ele>1025.762</ele>
        <time>2020-08-29T13:52:01Z</time>
      </trkpt>
      <trkpt lat="40.008389" lon="-.696618">
        <ele>1026.290</ele>
        <time>2020-08-29T13:52:03Z</time>
      </trkpt>
      <trkpt lat="40.008296" lon="-.69661">
        <ele>1025.347</ele>
        <time>2020-08-29T13:52:05Z</time>
      </trkpt>
      <trkpt lat="40.008219" lon="-.696605">
        <ele>1024.935</ele>
        <time>2020-08-29T13:52:07Z</time>
      </trkpt>
      <trkpt lat="40.008135" lon="-.696604">
        <ele>1025.125</ele>
        <time>2020-08-29T13:52:09Z</time>
      </trkpt>
      <trkpt lat="40.008048" lon="-.696601">
        <ele>1025.675</ele>
        <time>2020-08-29T13:52:11Z</time>
      </trkpt>
      <trkpt lat="40.007975" lon="-.696598">
        <ele>1026.228</ele>
        <time>2020-08-29T13:52:13Z</time>
      </trkpt>
      <trkpt lat="40.007889" lon="-.69659">
        <ele>1025.620</ele>
        <time>2020-08-29T13:52:15Z</time>
      </trkpt>
      <trkpt lat="40.007825" lon="-.696595">
        <ele>1024.408</ele>
        <time>2020-08-29T13:52:17Z</time>
      </trkpt>
      <trkpt lat="40.007756" lon="-.696583">
        <ele>1024.462</ele>
        <time>2020-08-29T13:52:19Z</time>
      </trkpt>
      <trkpt lat="40.007685" lon="-.696578">
        <ele>1024.932</ele>
        <time>2020-08-29T13:52:21Z</time>
      </trkpt>
      <trkpt lat="40.007635" lon="-.696581">
        <ele>1025.584</ele>
        <time>2020-08-29T13:52:22Z</time>
      </trkpt>
      <trkpt lat="40.007588" lon="-.696591">
        <ele>1025.566</ele>
        <time>2020-08-29T13:52:23Z</time>
      </trkpt>
      <trkpt lat="40.007502" lon="-.696588">
        <ele>1025.924</ele>
        <time>2020-08-29T13:52:25Z</time>
      </trkpt>
      <trkpt lat="40.007455" lon="-.696584">
        <ele>1025.941</ele>
        <time>2020-08-29T13:52:26Z</time>
      </trkpt>
      <trkpt lat="40.007374" lon="-.696574">
        <ele>1025.519</ele>
        <time>2020-08-29T13:52:28Z</time>
      </trkpt>
      <trkpt lat="40.007329" lon="-.696575">
        <ele>1025.589</ele>
        <time>2020-08-29T13:52:29Z</time>
      </trkpt>
      <trkpt lat="40.007239" lon="-.696552">
        <ele>1025.173</ele>
        <time>2020-08-29T13:52:31Z</time>
      </trkpt>
      <trkpt lat="40.007188" lon="-.696553">
        <ele>1025.085</ele>
        <time>2020-08-29T13:52:32Z</time>
      </trkpt>
      <trkpt lat="40.007142" lon="-.696553">
        <ele>1024.713</ele>
        <time>2020-08-29T13:52:33Z</time>
      </trkpt>
      <trkpt lat="40.007063" lon="-.696543">
        <ele>1024.208</ele>
        <time>2020-08-29T13:52:35Z</time>
      </trkpt>
      <trkpt lat="40.006995" lon="-.696536">
        <ele>1024.232</ele>
        <time>2020-08-29T13:52:37Z</time>
      </trkpt>
      <trkpt lat="40.006929" lon="-.696537">
        <ele>1024.172</ele>
        <time>2020-08-29T13:52:39Z</time>
      </trkpt>
      <trkpt lat="40.006881" lon="-.696534">
        <ele>1024.174</ele>
        <time>2020-08-29T13:52:40Z</time>
      </trkpt>
      <trkpt lat="40.006791" lon="-.69654">
        <ele>1024.556</ele>
        <time>2020-08-29T13:52:42Z</time>
      </trkpt>
      <trkpt lat="40.006716" lon="-.696528">
        <ele>1025.334</ele>
        <time>2020-08-29T13:52:44Z</time>
      </trkpt>
      <trkpt lat="40.006642" lon="-.696507">
        <ele>1025.991</ele>
        <time>2020-08-29T13:52:46Z</time>
      </trkpt>
      <trkpt lat="40.006583" lon="-.696509">
        <ele>1025.979</ele>
        <time>2020-08-29T13:52:47Z</time>
      </trkpt>
      <trkpt lat="40.006535" lon="-.696517">
        <ele>1025.959</ele>
        <time>2020-08-29T13:52:48Z</time>
      </trkpt>
      <trkpt lat="40.006436" lon="-.696509">
        <ele>1025.788</ele>
        <time>2020-08-29T13:52:50Z</time>
      </trkpt>
      <trkpt lat="40.006362" lon="-.696509">
        <ele>1025.224</ele>
        <time>2020-08-29T13:52:52Z</time>
      </trkpt>
      <trkpt lat="40.006311" lon="-.696513">
        <ele>1025.226</ele>
        <time>2020-08-29T13:52:53Z</time>
      </trkpt>
      <trkpt lat="40.00626" lon="-.696513">
        <ele>1025.008</ele>
        <time>2020-08-29T13:52:54Z</time>
      </trkpt>
      <trkpt lat="40.006213" lon="-.696506">
        <ele>1024.663</ele>
        <time>2020-08-29T13:52:55Z</time>
      </trkpt>
      <trkpt lat="40.006164" lon="-.696499">
        <ele>1024.563</ele>
        <time>2020-08-29T13:52:56Z</time>
      </trkpt>
      <trkpt lat="40.006118" lon="-.696498">
        <ele>1024.555</ele>
        <time>2020-08-29T13:52:57Z</time>
      </trkpt>
      <trkpt lat="40.006028" lon="-.696505">
        <ele>1024.777</ele>
        <time>2020-08-29T13:52:59Z</time>
      </trkpt>
      <trkpt lat="40.00595" lon="-.696501">
        <ele>1024.775</ele>
        <time>2020-08-29T13:53:01Z</time>
      </trkpt>
      <trkpt lat="40.005869" lon="-.696514">
        <ele>1024.682</ele>
        <time>2020-08-29T13:53:03Z</time>
      </trkpt>
      <trkpt lat="40.005771" lon="-.696515">
        <ele>1024.370</ele>
        <time>2020-08-29T13:53:05Z</time>
      </trkpt>
      <trkpt lat="40.005694" lon="-.696512">
        <ele>1024.650</ele>
        <time>2020-08-29T13:53:07Z</time>
      </trkpt>
      <trkpt lat="40.005625" lon="-.696501">
        <ele>1024.448</ele>
        <time>2020-08-29T13:53:09Z</time>
      </trkpt>
      <trkpt lat="40.00554" lon="-.696497">
        <ele>1024.361</ele>
        <time>2020-08-29T13:53:11Z</time>
      </trkpt>
      <trkpt lat="40.005466" lon="-.69648">
        <ele>1024.017</ele>
        <time>2020-08-29T13:53:13Z</time>
      </trkpt>
      <trkpt lat="40.00542" lon="-.696482">
        <ele>1023.208</ele>
        <time>2020-08-29T13:53:14Z</time>
      </trkpt>
      <trkpt lat="40.005374" lon="-.696491">
        <ele>1023.249</ele>
        <time>2020-08-29T13:53:15Z</time>
      </trkpt>
      <trkpt lat="40.005288" lon="-.696482">
        <ele>1023.779</ele>
        <time>2020-08-29T13:53:17Z</time>
      </trkpt>
      <trkpt lat="40.005236" lon="-.696485">
        <ele>1023.711</ele>
        <time>2020-08-29T13:53:18Z</time>
      </trkpt>
      <trkpt lat="40.005159" lon="-.696482">
        <ele>1023.913</ele>
        <time>2020-08-29T13:53:20Z</time>
      </trkpt>
      <trkpt lat="40.005079" lon="-.696458">
        <ele>1023.441</ele>
        <time>2020-08-29T13:53:22Z</time>
      </trkpt>
      <trkpt lat="40.005023" lon="-.696452">
        <ele>1023.478</ele>
        <time>2020-08-29T13:53:23Z</time>
      </trkpt>
      <trkpt lat="40.004971" lon="-.696453">
        <ele>1023.536</ele>
        <time>2020-08-29T13:53:24Z</time>
      </trkpt>
      <trkpt lat="40.004919" lon="-.696452">
        <ele>1023.596</ele>
        <time>2020-08-29T13:53:25Z</time>
      </trkpt>
      <trkpt lat="40.004825" lon="-.696445">
        <ele>1023.628</ele>
        <time>2020-08-29T13:53:27Z</time>
      </trkpt>
      <trkpt lat="40.004772" lon="-.696434">
        <ele>1023.189</ele>
        <time>2020-08-29T13:53:28Z</time>
      </trkpt>
      <trkpt lat="40.004693" lon="-.696448">
        <ele>1023.117</ele>
        <time>2020-08-29T13:53:30Z</time>
      </trkpt>
      <trkpt lat="40.00464" lon="-.696449">
        <ele>1023.208</ele>
        <time>2020-08-29T13:53:31Z</time>
      </trkpt>
      <trkpt lat="40.004592" lon="-.696444">
        <ele>1023.357</ele>
        <time>2020-08-29T13:53:32Z</time>
      </trkpt>
      <trkpt lat="40.004546" lon="-.696437">
        <ele>1023.477</ele>
        <time>2020-08-29T13:53:33Z</time>
      </trkpt>
      <trkpt lat="40.004489" lon="-.696442">
        <ele>1023.429</ele>
        <time>2020-08-29T13:53:34Z</time>
      </trkpt>
      <trkpt lat="40.004408" lon="-.696427">
        <ele>1023.061</ele>
        <time>2020-08-29T13:53:36Z</time>
      </trkpt>
      <trkpt lat="40.004359" lon="-.696432">
        <ele>1023.149</ele>
        <time>2020-08-29T13:53:37Z</time>
      </trkpt>
      <trkpt lat="40.004307" lon="-.696441">
        <ele>1023.146</ele>
        <time>2020-08-29T13:53:38Z</time>
      </trkpt>
      <trkpt lat="40.004254" lon="-.696439">
        <ele>1023.154</ele>
        <time>2020-08-29T13:53:39Z</time>
      </trkpt>
      <trkpt lat="40.004209" lon="-.696431">
        <ele>1023.654</ele>
        <time>2020-08-29T13:53:40Z</time>
      </trkpt>
      <trkpt lat="40.004112" lon="-.696436">
        <ele>1022.799</ele>
        <time>2020-08-29T13:53:42Z</time>
      </trkpt>
      <trkpt lat="40.004017" lon="-.696428">
        <ele>1022.907</ele>
        <time>2020-08-29T13:53:44Z</time>
      </trkpt>
      <trkpt lat="40.00397" lon="-.696427">
        <ele>1023.027</ele>
        <time>2020-08-29T13:53:45Z</time>
      </trkpt>
      <trkpt lat="40.003921" lon="-.696423">
        <ele>1023.308</ele>
        <time>2020-08-29T13:53:46Z</time>
      </trkpt>
      <trkpt lat="40.003874" lon="-.696419">
        <ele>1023.374</ele>
        <time>2020-08-29T13:53:47Z</time>
      </trkpt>
      <trkpt lat="40.003794" lon="-.696414">
        <ele>1022.594</ele>
        <time>2020-08-29T13:53:49Z</time>
      </trkpt>
      <trkpt lat="40.003708" lon="-.696415">
        <ele>1022.736</ele>
        <time>2020-08-29T13:53:51Z</time>
      </trkpt>
      <trkpt lat="40.003618" lon="-.696395">
        <ele>1022.868</ele>
        <time>2020-08-29T13:53:53Z</time>
      </trkpt>
      <trkpt lat="40.003558" lon="-.696406">
        <ele>1023.356</ele>
        <time>2020-08-29T13:53:54Z</time>
      </trkpt>
      <trkpt lat="40.003508" lon="-.696411">
        <ele>1023.323</ele>
        <time>2020-08-29T13:53:55Z</time>
      </trkpt>
      <trkpt lat="40.00346" lon="-.696413">
        <ele>1022.911</ele>
        <time>2020-08-29T13:53:56Z</time>
      </trkpt>
      <trkpt lat="40.00341" lon="-.696411">
        <ele>1022.921</ele>
        <time>2020-08-29T13:53:57Z</time>
      </trkpt>
      <trkpt lat="40.003315" lon="-.696416">
        <ele>1023.063</ele>
        <time>2020-08-29T13:53:59Z</time>
      </trkpt>
      <trkpt lat="40.003259" lon="-.696416">
        <ele>1023.044</ele>
        <time>2020-08-29T13:54:00Z</time>
      </trkpt>
      <trkpt lat="40.003212" lon="-.696409">
        <ele>1023.018</ele>
        <time>2020-08-29T13:54:01Z</time>
      </trkpt>
      <trkpt lat="40.003135" lon="-.696407">
        <ele>1022.908</ele>
        <time>2020-08-29T13:54:03Z</time>
      </trkpt>
      <trkpt lat="40.003043" lon="-.696409">
        <ele>1021.951</ele>
        <time>2020-08-29T13:54:05Z</time>
      </trkpt>
      <trkpt lat="40.002991" lon="-.69641">
        <ele>1022.111</ele>
        <time>2020-08-29T13:54:06Z</time>
      </trkpt>
      <trkpt lat="40.002945" lon="-.696411">
        <ele>1022.343</ele>
        <time>2020-08-29T13:54:07Z</time>
      </trkpt>
      <trkpt lat="40.002898" lon="-.696411">
        <ele>1022.465</ele>
        <time>2020-08-29T13:54:08Z</time>
      </trkpt>
      <trkpt lat="40.00285" lon="-.696409">
        <ele>1022.423</ele>
        <time>2020-08-29T13:54:09Z</time>
      </trkpt>
      <trkpt lat="40.002767" lon="-.696401">
        <ele>1021.710</ele>
        <time>2020-08-29T13:54:11Z</time>
      </trkpt>
      <trkpt lat="40.00272" lon="-.696402">
        <ele>1022.338</ele>
        <time>2020-08-29T13:54:12Z</time>
      </trkpt>
      <trkpt lat="40.002636" lon="-.69639">
        <ele>1022.668</ele>
        <time>2020-08-29T13:54:14Z</time>
      </trkpt>
      <trkpt lat="40.002549" lon="-.696392">
        <ele>1023.988</ele>
        <time>2020-08-29T13:54:16Z</time>
      </trkpt>
      <trkpt lat="40.002463" lon="-.696393">
        <ele>1021.824</ele>
        <time>2020-08-29T13:54:18Z</time>
      </trkpt>
      <trkpt lat="40.002417" lon="-.696398">
        <ele>1021.826</ele>
        <time>2020-08-29T13:54:19Z</time>
      </trkpt>
      <trkpt lat="40.00237" lon="-.69639">
        <ele>1022.208</ele>
        <time>2020-08-29T13:54:20Z</time>
      </trkpt>
      <trkpt lat="40.002319" lon="-.696385">
        <ele>1022.263</ele>
        <time>2020-08-29T13:54:21Z</time>
      </trkpt>
      <trkpt lat="40.002272" lon="-.696387">
        <ele>1022.713</ele>
        <time>2020-08-29T13:54:22Z</time>
      </trkpt>
      <trkpt lat="40.002224" lon="-.696379">
        <ele>1022.725</ele>
        <time>2020-08-29T13:54:23Z</time>
      </trkpt>
      <trkpt lat="40.002179" lon="-.696384">
        <ele>1021.987</ele>
        <time>2020-08-29T13:54:24Z</time>
      </trkpt>
      <trkpt lat="40.002098" lon="-.696376">
        <ele>1021.765</ele>
        <time>2020-08-29T13:54:26Z</time>
      </trkpt>
      <trkpt lat="40.002052" lon="-.696374">
        <ele>1021.712</ele>
        <time>2020-08-29T13:54:27Z</time>
      </trkpt>
      <trkpt lat="40.002006" lon="-.696375">
        <ele>1021.780</ele>
        <time>2020-08-29T13:54:28Z</time>
      </trkpt>
      <trkpt lat="40.001921" lon="-.696377">
        <ele>1022.060</ele>
        <time>2020-08-29T13:54:30Z</time>
      </trkpt>
      <trkpt lat="40.00184" lon="-.696367">
        <ele>1021.998</ele>
        <time>2020-08-29T13:54:32Z</time>
      </trkpt>
      <trkpt lat="40.001791" lon="-.696372">
        <ele>1021.915</ele>
        <time>2020-08-29T13:54:33Z</time>
      </trkpt>
      <trkpt lat="40.001703" lon="-.696366">
        <ele>1021.426</ele>
        <time>2020-08-29T13:54:35Z</time>
      </trkpt>
      <trkpt lat="40.001614" lon="-.696349">
        <ele>1021.008</ele>
        <time>2020-08-29T13:54:37Z</time>
      </trkpt>
      <trkpt lat="40.001518" lon="-.696349">
        <ele>1021.274</ele>
        <time>2020-08-29T13:54:39Z</time>
      </trkpt>
      <trkpt lat="40.001473" lon="-.696341">
        <ele>1021.374</ele>
        <time>2020-08-29T13:54:40Z</time>
      </trkpt>
      <trkpt lat="40.001425" lon="-.696346">
        <ele>1021.556</ele>
        <time>2020-08-29T13:54:41Z</time>
      </trkpt>
      <trkpt lat="40.001368" lon="-.696345">
        <ele>1021.518</ele>
        <time>2020-08-29T13:54:42Z</time>
      </trkpt>
      <trkpt lat="40.00132" lon="-.696342">
        <ele>1021.486</ele>
        <time>2020-08-29T13:54:43Z</time>
      </trkpt>
      <trkpt lat="40.001267" lon="-.696339">
        <ele>1021.143</ele>
        <time>2020-08-29T13:54:44Z</time>
      </trkpt>
      <trkpt lat="40.001222" lon="-.696329">
        <ele>1021.121</ele>
        <time>2020-08-29T13:54:45Z</time>
      </trkpt>
      <trkpt lat="40.001173" lon="-.696329">
        <ele>1021.411</ele>
        <time>2020-08-29T13:54:46Z</time>
      </trkpt>
      <trkpt lat="40.00108" lon="-.696331">
        <ele>1020.983</ele>
        <time>2020-08-29T13:54:48Z</time>
      </trkpt>
      <trkpt lat="40.001031" lon="-.696323">
        <ele>1020.925</ele>
        <time>2020-08-29T13:54:49Z</time>
      </trkpt>
      <trkpt lat="40.000954" lon="-.696319">
        <ele>1021.017</ele>
        <time>2020-08-29T13:54:51Z</time>
      </trkpt>
      <trkpt lat="40.000905" lon="-.696316">
        <ele>1021.008</ele>
        <time>2020-08-29T13:54:52Z</time>
      </trkpt>
      <trkpt lat="40.00086" lon="-.696312">
        <ele>1021.093</ele>
        <time>2020-08-29T13:54:53Z</time>
      </trkpt>
      <trkpt lat="40.000768" lon="-.696313">
        <ele>1020.833</ele>
        <time>2020-08-29T13:54:55Z</time>
      </trkpt>
      <trkpt lat="40.000724" lon="-.696297">
        <ele>1020.795</ele>
        <time>2020-08-29T13:54:56Z</time>
      </trkpt>
      <trkpt lat="40.00064" lon="-.696297">
        <ele>1020.767</ele>
        <time>2020-08-29T13:54:58Z</time>
      </trkpt>
      <trkpt lat="40.00059" lon="-.696298">
        <ele>1020.565</ele>
        <time>2020-08-29T13:54:59Z</time>
      </trkpt>
      <trkpt lat="40.000539" lon="-.696303">
        <ele>1020.562</ele>
        <time>2020-08-29T13:55:00Z</time>
      </trkpt>
      <trkpt lat="40.000493" lon="-.696301">
        <ele>1020.710</ele>
        <time>2020-08-29T13:55:01Z</time>
      </trkpt>
      <trkpt lat="40.000408" lon="-.696302">
        <ele>1020.880</ele>
        <time>2020-08-29T13:55:03Z</time>
      </trkpt>
      <trkpt lat="40.000326" lon="-.696299">
        <ele>1021.091</ele>
        <time>2020-08-29T13:55:05Z</time>
      </trkpt>
      <trkpt lat="40.000233" lon="-.696288">
        <ele>1021.081</ele>
        <time>2020-08-29T13:55:07Z</time>
      </trkpt>
      <trkpt lat="40.000152" lon="-.696283">
        <ele>1020.019</ele>
        <time>2020-08-29T13:55:09Z</time>
      </trkpt>
      <trkpt lat="40.000065" lon="-.696279">
        <ele>1019.508</ele>
        <time>2020-08-29T13:55:11Z</time>
      </trkpt>
      <trkpt lat="39.999977" lon="-.696271">
        <ele>1019.444</ele>
        <time>2020-08-29T13:55:13Z</time>
      </trkpt>
      <trkpt lat="39.99993" lon="-.696269">
        <ele>1019.844</ele>
        <time>2020-08-29T13:55:14Z</time>
      </trkpt>
      <trkpt lat="39.999881" lon="-.696265">
        <ele>1020.676</ele>
        <time>2020-08-29T13:55:15Z</time>
      </trkpt>
      <trkpt lat="39.999825" lon="-.696274">
        <ele>1021.128</ele>
        <time>2020-08-29T13:55:16Z</time>
      </trkpt>
      <trkpt lat="39.999773" lon="-.696278">
        <ele>1021.166</ele>
        <time>2020-08-29T13:55:17Z</time>
      </trkpt>
      <trkpt lat="39.999728" lon="-.696278">
        <ele>1020.943</ele>
        <time>2020-08-29T13:55:18Z</time>
      </trkpt>
      <trkpt lat="39.999649" lon="-.696269">
        <ele>1020.781</ele>
        <time>2020-08-29T13:55:20Z</time>
      </trkpt>
      <trkpt lat="39.999567" lon="-.69627">
        <ele>1019.731</ele>
        <time>2020-08-29T13:55:22Z</time>
      </trkpt>
      <trkpt lat="39.999521" lon="-.696264">
        <ele>1019.147</ele>
        <time>2020-08-29T13:55:23Z</time>
      </trkpt>
      <trkpt lat="39.999474" lon="-.696262">
        <ele>1019.429</ele>
        <time>2020-08-29T13:55:24Z</time>
      </trkpt>
      <trkpt lat="39.999428" lon="-.696259">
        <ele>1019.421</ele>
        <time>2020-08-29T13:55:25Z</time>
      </trkpt>
      <trkpt lat="39.999338" lon="-.696251">
        <ele>1019.808</ele>
        <time>2020-08-29T13:55:27Z</time>
      </trkpt>
      <trkpt lat="39.999291" lon="-.696251">
        <ele>1019.839</ele>
        <time>2020-08-29T13:55:28Z</time>
      </trkpt>
      <trkpt lat="39.999243" lon="-.696253">
        <ele>1019.589</ele>
        <time>2020-08-29T13:55:29Z</time>
      </trkpt>
      <trkpt lat="39.999192" lon="-.696248">
        <ele>1019.571</ele>
        <time>2020-08-29T13:55:30Z</time>
      </trkpt>
      <trkpt lat="39.999144" lon="-.69625">
        <ele>1019.543</ele>
        <time>2020-08-29T13:55:31Z</time>
      </trkpt>
      <trkpt lat="39.99905" lon="-.696254">
        <ele>1019.581</ele>
        <time>2020-08-29T13:55:33Z</time>
      </trkpt>
      <trkpt lat="39.999002" lon="-.696255">
        <ele>1019.548</ele>
        <time>2020-08-29T13:55:34Z</time>
      </trkpt>
      <trkpt lat="39.998956" lon="-.696253">
        <ele>1019.516</ele>
        <time>2020-08-29T13:55:35Z</time>
      </trkpt>
      <trkpt lat="39.99891" lon="-.696257">
        <ele>1019.496</ele>
        <time>2020-08-29T13:55:36Z</time>
      </trkpt>
      <trkpt lat="39.998863" lon="-.696255">
        <ele>1019.454</ele>
        <time>2020-08-29T13:55:37Z</time>
      </trkpt>
      <trkpt lat="39.998782" lon="-.696252">
        <ele>1019.356</ele>
        <time>2020-08-29T13:55:39Z</time>
      </trkpt>
      <trkpt lat="39.998736" lon="-.696249">
        <ele>1019.211</ele>
        <time>2020-08-29T13:55:40Z</time>
      </trkpt>
      <trkpt lat="39.99865" lon="-.696237">
        <ele>1019.108</ele>
        <time>2020-08-29T13:55:42Z</time>
      </trkpt>
      <trkpt lat="39.998568" lon="-.696246">
        <ele>1019.050</ele>
        <time>2020-08-29T13:55:44Z</time>
      </trkpt>
      <trkpt lat="39.998488" lon="-.696246">
        <ele>1018.960</ele>
        <time>2020-08-29T13:55:46Z</time>
      </trkpt>
      <trkpt lat="39.9984" lon="-.696245">
        <ele>1018.642</ele>
        <time>2020-08-29T13:55:48Z</time>
      </trkpt>
      <trkpt lat="39.998315" lon="-.696229">
        <ele>1018.654</ele>
        <time>2020-08-29T13:55:50Z</time>
      </trkpt>
      <trkpt lat="39.998266" lon="-.696234">
        <ele>1018.522</ele>
        <time>2020-08-29T13:55:51Z</time>
      </trkpt>
      <trkpt lat="39.998217" lon="-.696236">
        <ele>1018.549</ele>
        <time>2020-08-29T13:55:52Z</time>
      </trkpt>
      <trkpt lat="39.998131" lon="-.696223">
        <ele>1018.297</ele>
        <time>2020-08-29T13:55:54Z</time>
      </trkpt>
      <trkpt lat="39.998083" lon="-.696221">
        <ele>1018.257</ele>
        <time>2020-08-29T13:55:55Z</time>
      </trkpt>
      <trkpt lat="39.998034" lon="-.696224">
        <ele>1018.222</ele>
        <time>2020-08-29T13:55:56Z</time>
      </trkpt>
      <trkpt lat="39.997984" lon="-.696218">
        <ele>1018.262</ele>
        <time>2020-08-29T13:55:57Z</time>
      </trkpt>
      <trkpt lat="39.997936" lon="-.696216">
        <ele>1018.108</ele>
        <time>2020-08-29T13:55:58Z</time>
      </trkpt>
      <trkpt lat="39.997882" lon="-.696216">
        <ele>1017.808</ele>
        <time>2020-08-29T13:55:59Z</time>
      </trkpt>
      <trkpt lat="39.99783" lon="-.696213">
        <ele>1017.127</ele>
        <time>2020-08-29T13:56:00Z</time>
      </trkpt>
      <trkpt lat="39.997739" lon="-.696199">
        <ele>1017.477</ele>
        <time>2020-08-29T13:56:02Z</time>
      </trkpt>
      <trkpt lat="39.997692" lon="-.696188">
        <ele>1017.499</ele>
        <time>2020-08-29T13:56:03Z</time>
      </trkpt>
      <trkpt lat="39.997645" lon="-.69619">
        <ele>1017.621</ele>
        <time>2020-08-29T13:56:04Z</time>
      </trkpt>
      <trkpt lat="39.997586" lon="-.696192">
        <ele>1018.499</ele>
        <time>2020-08-29T13:56:05Z</time>
      </trkpt>
      <trkpt lat="39.997495" lon="-.696192">
        <ele>1018.436</ele>
        <time>2020-08-29T13:56:07Z</time>
      </trkpt>
      <trkpt lat="39.9974" lon="-.696185">
        <ele>1017.724</ele>
        <time>2020-08-29T13:56:09Z</time>
      </trkpt>
      <trkpt lat="39.997352" lon="-.696181">
        <ele>1017.414</ele>
        <time>2020-08-29T13:56:10Z</time>
      </trkpt>
      <trkpt lat="39.997301" lon="-.696186">
        <ele>1017.166</ele>
        <time>2020-08-29T13:56:11Z</time>
      </trkpt>
      <trkpt lat="39.997244" lon="-.696183">
        <ele>1017.129</ele>
        <time>2020-08-29T13:56:12Z</time>
      </trkpt>
      <trkpt lat="39.997194" lon="-.69618">
        <ele>1017.221</ele>
        <time>2020-08-29T13:56:13Z</time>
      </trkpt>
      <trkpt lat="39.997142" lon="-.696178">
        <ele>1017.308</ele>
        <time>2020-08-29T13:56:14Z</time>
      </trkpt>
      <trkpt lat="39.997083" lon="-.696183">
        <ele>1017.381</ele>
        <time>2020-08-29T13:56:15Z</time>
      </trkpt>
      <trkpt lat="39.997028" lon="-.696176">
        <ele>1017.471</ele>
        <time>2020-08-29T13:56:16Z</time>
      </trkpt>
      <trkpt lat="39.996979" lon="-.69617">
        <ele>1017.433</ele>
        <time>2020-08-29T13:56:17Z</time>
      </trkpt>
      <trkpt lat="39.996934" lon="-.696167">
        <ele>1017.095</ele>
        <time>2020-08-29T13:56:18Z</time>
      </trkpt>
      <trkpt lat="39.996877" lon="-.696156">
        <ele>1016.763</ele>
        <time>2020-08-29T13:56:19Z</time>
      </trkpt>
      <trkpt lat="39.996817" lon="-.696162">
        <ele>1016.640</ele>
        <time>2020-08-29T13:56:20Z</time>
      </trkpt>
      <trkpt lat="39.996767" lon="-.696159">
        <ele>1016.658</ele>
        <time>2020-08-29T13:56:21Z</time>
      </trkpt>
      <trkpt lat="39.996718" lon="-.696158">
        <ele>1016.638</ele>
        <time>2020-08-29T13:56:22Z</time>
      </trkpt>
      <trkpt lat="39.996667" lon="-.696153">
        <ele>1016.725</ele>
        <time>2020-08-29T13:56:23Z</time>
      </trkpt>
      <trkpt lat="39.996613" lon="-.696155">
        <ele>1016.726</ele>
        <time>2020-08-29T13:56:24Z</time>
      </trkpt>
      <trkpt lat="39.996561" lon="-.696155">
        <ele>1016.508</ele>
        <time>2020-08-29T13:56:25Z</time>
      </trkpt>
      <trkpt lat="39.996508" lon="-.696156">
        <ele>1016.308</ele>
        <time>2020-08-29T13:56:26Z</time>
      </trkpt>
      <trkpt lat="39.996454" lon="-.696154">
        <ele>1016.257</ele>
        <time>2020-08-29T13:56:27Z</time>
      </trkpt>
      <trkpt lat="39.9964" lon="-.696153">
        <ele>1015.837</ele>
        <time>2020-08-29T13:56:28Z</time>
      </trkpt>
      <trkpt lat="39.996345" lon="-.696156">
        <ele>1015.889</ele>
        <time>2020-08-29T13:56:29Z</time>
      </trkpt>
      <trkpt lat="39.99629" lon="-.696158">
        <ele>1015.881</ele>
        <time>2020-08-29T13:56:30Z</time>
      </trkpt>
      <trkpt lat="39.996234" lon="-.696159">
        <ele>1015.869</ele>
        <time>2020-08-29T13:56:31Z</time>
      </trkpt>
      <trkpt lat="39.99618" lon="-.696161">
        <ele>1015.866</ele>
        <time>2020-08-29T13:56:32Z</time>
      </trkpt>
      <trkpt lat="39.996127" lon="-.69616">
        <ele>1015.834</ele>
        <time>2020-08-29T13:56:33Z</time>
      </trkpt>
      <trkpt lat="39.996075" lon="-.696158">
        <ele>1015.834</ele>
        <time>2020-08-29T13:56:34Z</time>
      </trkpt>
      <trkpt lat="39.996017" lon="-.696159">
        <ele>1015.788</ele>
        <time>2020-08-29T13:56:35Z</time>
      </trkpt>
      <trkpt lat="39.995962" lon="-.69616">
        <ele>1015.524</ele>
        <time>2020-08-29T13:56:36Z</time>
      </trkpt>
      <trkpt lat="39.995903" lon="-.696155">
        <ele>1015.426</ele>
        <time>2020-08-29T13:56:37Z</time>
      </trkpt>
      <trkpt lat="39.995843" lon="-.696153">
        <ele>1015.308</ele>
        <time>2020-08-29T13:56:38Z</time>
      </trkpt>
      <trkpt lat="39.995788" lon="-.69615">
        <ele>1015.263</ele>
        <time>2020-08-29T13:56:39Z</time>
      </trkpt>
      <trkpt lat="39.99573" lon="-.69615">
        <ele>1015.063</ele>
        <time>2020-08-29T13:56:40Z</time>
      </trkpt>
      <trkpt lat="39.995672" lon="-.696147">
        <ele>1014.865</ele>
        <time>2020-08-29T13:56:41Z</time>
      </trkpt>
      <trkpt lat="39.995613" lon="-.696145">
        <ele>1014.627</ele>
        <time>2020-08-29T13:56:42Z</time>
      </trkpt>
      <trkpt lat="39.995558" lon="-.696145">
        <ele>1014.415</ele>
        <time>2020-08-29T13:56:43Z</time>
      </trkpt>
      <trkpt lat="39.995504" lon="-.696141">
        <ele>1014.422</ele>
        <time>2020-08-29T13:56:44Z</time>
      </trkpt>
      <trkpt lat="39.995455" lon="-.696138">
        <ele>1014.560</ele>
        <time>2020-08-29T13:56:45Z</time>
      </trkpt>
      <trkpt lat="39.995399" lon="-.696138">
        <ele>1014.570</ele>
        <time>2020-08-29T13:56:46Z</time>
      </trkpt>
      <trkpt lat="39.995346" lon="-.696136">
        <ele>1014.641</ele>
        <time>2020-08-29T13:56:47Z</time>
      </trkpt>
      <trkpt lat="39.995296" lon="-.696137">
        <ele>1014.681</ele>
        <time>2020-08-29T13:56:48Z</time>
      </trkpt>
      <trkpt lat="39.995207" lon="-.696124">
        <ele>1014.609</ele>
        <time>2020-08-29T13:56:50Z</time>
      </trkpt>
      <trkpt lat="39.995121" lon="-.69612">
        <ele>1014.608</ele>
        <time>2020-08-29T13:56:52Z</time>
      </trkpt>
      <trkpt lat="39.995037" lon="-.696111">
        <ele>1014.749</ele>
        <time>2020-08-29T13:56:54Z</time>
      </trkpt>
      <trkpt lat="39.994991" lon="-.69611">
        <ele>1014.749</ele>
        <time>2020-08-29T13:56:55Z</time>
      </trkpt>
      <trkpt lat="39.994945" lon="-.696108">
        <ele>1014.771</ele>
        <time>2020-08-29T13:56:56Z</time>
      </trkpt>
      <trkpt lat="39.994899" lon="-.696103">
        <ele>1014.713</ele>
        <time>2020-08-29T13:56:57Z</time>
      </trkpt>
      <trkpt lat="39.994807" lon="-.696104">
        <ele>1014.841</ele>
        <time>2020-08-29T13:56:59Z</time>
      </trkpt>
      <trkpt lat="39.994762" lon="-.696098">
        <ele>1015.028</ele>
        <time>2020-08-29T13:57:00Z</time>
      </trkpt>
      <trkpt lat="39.994714" lon="-.696098">
        <ele>1015.116</ele>
        <time>2020-08-29T13:57:01Z</time>
      </trkpt>
      <trkpt lat="39.994667" lon="-.696095">
        <ele>1015.156</ele>
        <time>2020-08-29T13:57:02Z</time>
      </trkpt>
      <trkpt lat="39.994616" lon="-.696096">
        <ele>1015.168</ele>
        <time>2020-08-29T13:57:03Z</time>
      </trkpt>
      <trkpt lat="39.994518" lon="-.696087">
        <ele>1014.242</ele>
        <time>2020-08-29T13:57:05Z</time>
      </trkpt>
      <trkpt lat="39.994437" lon="-.696077">
        <ele>1014.926</ele>
        <time>2020-08-29T13:57:07Z</time>
      </trkpt>
      <trkpt lat="39.994389" lon="-.696067">
        <ele>1014.908</ele>
        <time>2020-08-29T13:57:08Z</time>
      </trkpt>
      <trkpt lat="39.994341" lon="-.696069">
        <ele>1015.171</ele>
        <time>2020-08-29T13:57:09Z</time>
      </trkpt>
      <trkpt lat="39.99429" lon="-.696075">
        <ele>1015.621</ele>
        <time>2020-08-29T13:57:10Z</time>
      </trkpt>
      <trkpt lat="39.994243" lon="-.696072">
        <ele>1015.643</ele>
        <time>2020-08-29T13:57:11Z</time>
      </trkpt>
      <trkpt lat="39.994187" lon="-.696072">
        <ele>1015.185</ele>
        <time>2020-08-29T13:57:12Z</time>
      </trkpt>
      <trkpt lat="39.994142" lon="-.696074">
        <ele>1015.053</ele>
        <time>2020-08-29T13:57:13Z</time>
      </trkpt>
      <trkpt lat="39.994039" lon="-.696061">
        <ele>1014.760</ele>
        <time>2020-08-29T13:57:15Z</time>
      </trkpt>
      <trkpt lat="39.993987" lon="-.696058">
        <ele>1014.068</ele>
        <time>2020-08-29T13:57:16Z</time>
      </trkpt>
      <trkpt lat="39.993934" lon="-.696054">
        <ele>1014.248</ele>
        <time>2020-08-29T13:57:17Z</time>
      </trkpt>
      <trkpt lat="39.993875" lon="-.696056">
        <ele>1014.441</ele>
        <time>2020-08-29T13:57:18Z</time>
      </trkpt>
      <trkpt lat="39.993821" lon="-.696054">
        <ele>1014.581</ele>
        <time>2020-08-29T13:57:19Z</time>
      </trkpt>
      <trkpt lat="39.993767" lon="-.696056">
        <ele>1014.609</ele>
        <time>2020-08-29T13:57:20Z</time>
      </trkpt>
      <trkpt lat="39.993661" lon="-.696047">
        <ele>1014.808</ele>
        <time>2020-08-29T13:57:22Z</time>
      </trkpt>
      <trkpt lat="39.993606" lon="-.696044">
        <ele>1014.899</ele>
        <time>2020-08-29T13:57:23Z</time>
      </trkpt>
      <trkpt lat="39.993553" lon="-.696037">
        <ele>1014.739</ele>
        <time>2020-08-29T13:57:24Z</time>
      </trkpt>
      <trkpt lat="39.993503" lon="-.696037">
        <ele>1014.621</ele>
        <time>2020-08-29T13:57:25Z</time>
      </trkpt>
      <trkpt lat="39.993457" lon="-.696036">
        <ele>1014.673</ele>
        <time>2020-08-29T13:57:26Z</time>
      </trkpt>
      <trkpt lat="39.993403" lon="-.696035">
        <ele>1014.631</ele>
        <time>2020-08-29T13:57:27Z</time>
      </trkpt>
      <trkpt lat="39.993352" lon="-.696035">
        <ele>1014.728</ele>
        <time>2020-08-29T13:57:28Z</time>
      </trkpt>
      <trkpt lat="39.993302" lon="-.696029">
        <ele>1014.956</ele>
        <time>2020-08-29T13:57:29Z</time>
      </trkpt>
      <trkpt lat="39.993256" lon="-.696029">
        <ele>1014.956</ele>
        <time>2020-08-29T13:57:30Z</time>
      </trkpt>
      <trkpt lat="39.993169" lon="-.696027">
        <ele>1014.734</ele>
        <time>2020-08-29T13:57:32Z</time>
      </trkpt>
      <trkpt lat="39.993121" lon="-.696022">
        <ele>1014.755</ele>
        <time>2020-08-29T13:57:33Z</time>
      </trkpt>
      <trkpt lat="39.993074" lon="-.696022">
        <ele>1014.510</ele>
        <time>2020-08-29T13:57:34Z</time>
      </trkpt>
      <trkpt lat="39.992987" lon="-.69602">
        <ele>1014.408</ele>
        <time>2020-08-29T13:57:36Z</time>
      </trkpt>
      <trkpt lat="39.992903" lon="-.696013">
        <ele>1014.258</ele>
        <time>2020-08-29T13:57:38Z</time>
      </trkpt>
      <trkpt lat="39.992819" lon="-.696015">
        <ele>1014.488</ele>
        <time>2020-08-29T13:57:40Z</time>
      </trkpt>
      <trkpt lat="39.992747" lon="-.696014">
        <ele>1015.090</ele>
        <time>2020-08-29T13:57:42Z</time>
      </trkpt>
      <trkpt lat="39.99267" lon="-.696004">
        <ele>1014.332</ele>
        <time>2020-08-29T13:57:44Z</time>
      </trkpt>
      <trkpt lat="39.992586" lon="-.696007">
        <ele>1014.480</ele>
        <time>2020-08-29T13:57:46Z</time>
      </trkpt>
      <trkpt lat="39.992493" lon="-.696006">
        <ele>1014.437</ele>
        <time>2020-08-29T13:57:48Z</time>
      </trkpt>
      <trkpt lat="39.992447" lon="-.696003">
        <ele>1014.485</ele>
        <time>2020-08-29T13:57:49Z</time>
      </trkpt>
      <trkpt lat="39.992367" lon="-.695999">
        <ele>1013.835</ele>
        <time>2020-08-29T13:57:51Z</time>
      </trkpt>
      <trkpt lat="39.992319" lon="-.695999">
        <ele>1013.889</ele>
        <time>2020-08-29T13:57:52Z</time>
      </trkpt>
      <trkpt lat="39.992226" lon="-.695996">
        <ele>1013.606</ele>
        <time>2020-08-29T13:57:54Z</time>
      </trkpt>
      <trkpt lat="39.992176" lon="-.695994">
        <ele>1013.626</ele>
        <time>2020-08-29T13:57:55Z</time>
      </trkpt>
      <trkpt lat="39.992129" lon="-.69599">
        <ele>1013.608</ele>
        <time>2020-08-29T13:57:56Z</time>
      </trkpt>
      <trkpt lat="39.992075" lon="-.695989">
        <ele>1013.693</ele>
        <time>2020-08-29T13:57:57Z</time>
      </trkpt>
      <trkpt lat="39.992027" lon="-.69599">
        <ele>1013.883</ele>
        <time>2020-08-29T13:57:58Z</time>
      </trkpt>
      <trkpt lat="39.991976" lon="-.695991">
        <ele>1013.945</ele>
        <time>2020-08-29T13:57:59Z</time>
      </trkpt>
      <trkpt lat="39.991929" lon="-.695989">
        <ele>1013.957</ele>
        <time>2020-08-29T13:58:00Z</time>
      </trkpt>
      <trkpt lat="39.991882" lon="-.695986">
        <ele>1013.815</ele>
        <time>2020-08-29T13:58:01Z</time>
      </trkpt>
      <trkpt lat="39.991829" lon="-.695981">
        <ele>1013.772</ele>
        <time>2020-08-29T13:58:02Z</time>
      </trkpt>
      <trkpt lat="39.991781" lon="-.695976">
        <ele>1013.610</ele>
        <time>2020-08-29T13:58:03Z</time>
      </trkpt>
      <trkpt lat="39.991728" lon="-.695976">
        <ele>1013.430</ele>
        <time>2020-08-29T13:58:04Z</time>
      </trkpt>
      <trkpt lat="39.991679" lon="-.69598">
        <ele>1013.365</ele>
        <time>2020-08-29T13:58:05Z</time>
      </trkpt>
      <trkpt lat="39.99163" lon="-.695977">
        <ele>1013.268</ele>
        <time>2020-08-29T13:58:06Z</time>
      </trkpt>
      <trkpt lat="39.991581" lon="-.69597">
        <ele>1012.514</ele>
        <time>2020-08-29T13:58:07Z</time>
      </trkpt>
      <trkpt lat="39.991486" lon="-.695968">
        <ele>1012.608</ele>
        <time>2020-08-29T13:58:09Z</time>
      </trkpt>
      <trkpt lat="39.991388" lon="-.695963">
        <ele>1013.351</ele>
        <time>2020-08-29T13:58:11Z</time>
      </trkpt>
      <trkpt lat="39.99134" lon="-.69596">
        <ele>1013.851</ele>
        <time>2020-08-29T13:58:12Z</time>
      </trkpt>
      <trkpt lat="39.991293" lon="-.69596">
        <ele>1014.133</ele>
        <time>2020-08-29T13:58:13Z</time>
      </trkpt>
      <trkpt lat="39.991243" lon="-.695961">
        <ele>1014.295</ele>
        <time>2020-08-29T13:58:14Z</time>
      </trkpt>
      <trkpt lat="39.991193" lon="-.69596">
        <ele>1014.373</ele>
        <time>2020-08-29T13:58:15Z</time>
      </trkpt>
      <trkpt lat="39.991098" lon="-.695956">
        <ele>1014.120</ele>
        <time>2020-08-29T13:58:17Z</time>
      </trkpt>
      <trkpt lat="39.991046" lon="-.695951">
        <ele>1014.118</ele>
        <time>2020-08-29T13:58:18Z</time>
      </trkpt>
      <trkpt lat="39.990952" lon="-.695945">
        <ele>1013.818</ele>
        <time>2020-08-29T13:58:20Z</time>
      </trkpt>
      <trkpt lat="39.990906" lon="-.695944">
        <ele>1013.788</ele>
        <time>2020-08-29T13:58:21Z</time>
      </trkpt>
      <trkpt lat="39.990859" lon="-.695938">
        <ele>1013.724</ele>
        <time>2020-08-29T13:58:22Z</time>
      </trkpt>
      <trkpt lat="39.990812" lon="-.695933">
        <ele>1013.526</ele>
        <time>2020-08-29T13:58:23Z</time>
      </trkpt>
      <trkpt lat="39.990721" lon="-.695925">
        <ele>1013.408</ele>
        <time>2020-08-29T13:58:25Z</time>
      </trkpt>
      <trkpt lat="39.99063" lon="-.695923">
        <ele>1013.373</ele>
        <time>2020-08-29T13:58:27Z</time>
      </trkpt>
      <trkpt lat="39.990551" lon="-.695932">
        <ele>1012.893</ele>
        <time>2020-08-29T13:58:29Z</time>
      </trkpt>
      <trkpt lat="39.990476" lon="-.69593">
        <ele>1012.955</ele>
        <time>2020-08-29T13:58:31Z</time>
      </trkpt>
      <trkpt lat="39.990398" lon="-.695926">
        <ele>1013.357</ele>
        <time>2020-08-29T13:58:33Z</time>
      </trkpt>
      <trkpt lat="39.990321" lon="-.69592">
        <ele>1014.215</ele>
        <time>2020-08-29T13:58:35Z</time>
      </trkpt>
      <trkpt lat="39.990238" lon="-.695916">
        <ele>1014.062</ele>
        <time>2020-08-29T13:58:37Z</time>
      </trkpt>
      <trkpt lat="39.990165" lon="-.695913">
        <ele>1013.680</ele>
        <time>2020-08-29T13:58:39Z</time>
      </trkpt>
      <trkpt lat="39.990086" lon="-.695908">
        <ele>1013.940</ele>
        <time>2020-08-29T13:58:41Z</time>
      </trkpt>
      <trkpt lat="39.990006" lon="-.695914">
        <ele>1014.189</ele>
        <time>2020-08-29T13:58:43Z</time>
      </trkpt>
      <trkpt lat="39.989925" lon="-.695904">
        <ele>1013.706</ele>
        <time>2020-08-29T13:58:45Z</time>
      </trkpt>
      <trkpt lat="39.989841" lon="-.695898">
        <ele>1014.126</ele>
        <time>2020-08-29T13:58:47Z</time>
      </trkpt>
      <trkpt lat="39.989752" lon="-.695891">
        <ele>1013.908</ele>
        <time>2020-08-29T13:58:49Z</time>
      </trkpt>
      <trkpt lat="39.989658" lon="-.695894">
        <ele>1014.053</ele>
        <time>2020-08-29T13:58:51Z</time>
      </trkpt>
      <trkpt lat="39.989584" lon="-.69588">
        <ele>1013.993</ele>
        <time>2020-08-29T13:58:53Z</time>
      </trkpt>
      <trkpt lat="39.989498" lon="-.695867">
        <ele>1013.715</ele>
        <time>2020-08-29T13:58:55Z</time>
      </trkpt>
      <trkpt lat="39.989418" lon="-.69585">
        <ele>1013.537</ele>
        <time>2020-08-29T13:58:57Z</time>
      </trkpt>
      <trkpt lat="39.989336" lon="-.695855">
        <ele>1013.915</ele>
        <time>2020-08-29T13:58:59Z</time>
      </trkpt>
      <trkpt lat="39.98925" lon="-.695843">
        <ele>1014.472</ele>
        <time>2020-08-29T13:59:01Z</time>
      </trkpt>
      <trkpt lat="39.989201" lon="-.695842">
        <ele>1014.050</ele>
        <time>2020-08-29T13:59:02Z</time>
      </trkpt>
      <trkpt lat="39.989117" lon="-.695825">
        <ele>1014.070</ele>
        <time>2020-08-29T13:59:04Z</time>
      </trkpt>
      <trkpt lat="39.989071" lon="-.695818">
        <ele>1014.051</ele>
        <time>2020-08-29T13:59:05Z</time>
      </trkpt>
      <trkpt lat="39.988982" lon="-.695826">
        <ele>1013.901</ele>
        <time>2020-08-29T13:59:07Z</time>
      </trkpt>
      <trkpt lat="39.988904" lon="-.695837">
        <ele>1013.811</ele>
        <time>2020-08-29T13:59:09Z</time>
      </trkpt>
      <trkpt lat="39.988832" lon="-.695848">
        <ele>1014.108</ele>
        <time>2020-08-29T13:59:11Z</time>
      </trkpt>
      <trkpt lat="39.988768" lon="-.69585">
        <ele>1014.250</ele>
        <time>2020-08-29T13:59:13Z</time>
      </trkpt>
      <trkpt lat="39.988697" lon="-.695848">
        <ele>1014.260</ele>
        <time>2020-08-29T13:59:15Z</time>
      </trkpt>
      <trkpt lat="39.988636" lon="-.695842">
        <ele>1014.222</ele>
        <time>2020-08-29T13:59:17Z</time>
      </trkpt>
      <trkpt lat="39.988557" lon="-.695842">
        <ele>1014.174</ele>
        <time>2020-08-29T13:59:19Z</time>
      </trkpt>
      <trkpt lat="39.988472" lon="-.695844">
        <ele>1014.112</ele>
        <time>2020-08-29T13:59:21Z</time>
      </trkpt>
      <trkpt lat="39.988384" lon="-.695864">
        <ele>1014.379</ele>
        <time>2020-08-29T13:59:23Z</time>
      </trkpt>
      <trkpt lat="39.988302" lon="-.695845">
        <ele>1014.137</ele>
        <time>2020-08-29T13:59:25Z</time>
      </trkpt>
      <trkpt lat="39.988256" lon="-.695848">
        <ele>1014.137</ele>
        <time>2020-08-29T13:59:26Z</time>
      </trkpt>
      <trkpt lat="39.988206" lon="-.695851">
        <ele>1014.135</ele>
        <time>2020-08-29T13:59:27Z</time>
      </trkpt>
      <trkpt lat="39.988127" lon="-.695845">
        <ele>1014.786</ele>
        <time>2020-08-29T13:59:29Z</time>
      </trkpt>
      <trkpt lat="39.988037" lon="-.695837">
        <ele>1014.114</ele>
        <time>2020-08-29T13:59:31Z</time>
      </trkpt>
      <trkpt lat="39.987954" lon="-.695822">
        <ele>1014.008</ele>
        <time>2020-08-29T13:59:33Z</time>
      </trkpt>
      <trkpt lat="39.987861" lon="-.695827">
        <ele>1014.118</ele>
        <time>2020-08-29T13:59:35Z</time>
      </trkpt>
      <trkpt lat="39.987817" lon="-.695817">
        <ele>1014.118</ele>
        <time>2020-08-29T13:59:36Z</time>
      </trkpt>
      <trkpt lat="39.987728" lon="-.695817">
        <ele>1014.170</ele>
        <time>2020-08-29T13:59:38Z</time>
      </trkpt>
      <trkpt lat="39.98764" lon="-.695815">
        <ele>1013.952</ele>
        <time>2020-08-29T13:59:40Z</time>
      </trkpt>
      <trkpt lat="39.987595" lon="-.695814">
        <ele>1013.830</ele>
        <time>2020-08-29T13:59:41Z</time>
      </trkpt>
      <trkpt lat="39.987548" lon="-.695806">
        <ele>1013.887</ele>
        <time>2020-08-29T13:59:42Z</time>
      </trkpt>
      <trkpt lat="39.987503" lon="-.695811">
        <ele>1013.835</ele>
        <time>2020-08-29T13:59:43Z</time>
      </trkpt>
      <trkpt lat="39.987415" lon="-.6958">
        <ele>1014.415</ele>
        <time>2020-08-29T13:59:45Z</time>
      </trkpt>
      <trkpt lat="39.987362" lon="-.695807">
        <ele>1014.724</ele>
        <time>2020-08-29T13:59:46Z</time>
      </trkpt>
      <trkpt lat="39.987317" lon="-.695808">
        <ele>1014.904</ele>
        <time>2020-08-29T13:59:47Z</time>
      </trkpt>
      <trkpt lat="39.987227" lon="-.695803">
        <ele>1014.914</ele>
        <time>2020-08-29T13:59:49Z</time>
      </trkpt>
      <trkpt lat="39.987138" lon="-.695804">
        <ele>1014.808</ele>
        <time>2020-08-29T13:59:51Z</time>
      </trkpt>
      <trkpt lat="39.987049" lon="-.695799">
        <ele>1014.367</ele>
        <time>2020-08-29T13:59:53Z</time>
      </trkpt>
      <trkpt lat="39.986999" lon="-.695796">
        <ele>1012.967</ele>
        <time>2020-08-29T13:59:54Z</time>
      </trkpt>
      <trkpt lat="39.986951" lon="-.695803">
        <ele>1012.929</ele>
        <time>2020-08-29T13:59:55Z</time>
      </trkpt>
      <trkpt lat="39.986867" lon="-.69579">
        <ele>1013.521</ele>
        <time>2020-08-29T13:59:57Z</time>
      </trkpt>
      <trkpt lat="39.986821" lon="-.695787">
        <ele>1013.649</ele>
        <time>2020-08-29T13:59:58Z</time>
      </trkpt>
      <trkpt lat="39.986772" lon="-.69579">
        <ele>1014.056</ele>
        <time>2020-08-29T13:59:59Z</time>
      </trkpt>
      <trkpt lat="39.986723" lon="-.695786">
        <ele>1015.154</ele>
        <time>2020-08-29T14:00:00Z</time>
      </trkpt>
      <trkpt lat="39.986635" lon="-.695783">
        <ele>1014.364</ele>
        <time>2020-08-29T14:00:02Z</time>
      </trkpt>
      <trkpt lat="39.986586" lon="-.695785">
        <ele>1014.227</ele>
        <time>2020-08-29T14:00:03Z</time>
      </trkpt>
      <trkpt lat="39.986537" lon="-.695784">
        <ele>1014.268</ele>
        <time>2020-08-29T14:00:04Z</time>
      </trkpt>
      <trkpt lat="39.986449" lon="-.695784">
        <ele>1014.514</ele>
        <time>2020-08-29T14:00:06Z</time>
      </trkpt>
      <trkpt lat="39.986402" lon="-.695777">
        <ele>1014.708</ele>
        <time>2020-08-29T14:00:07Z</time>
      </trkpt>
      <trkpt lat="39.986311" lon="-.695768">
        <ele>1015.057</ele>
        <time>2020-08-29T14:00:09Z</time>
      </trkpt>
      <trkpt lat="39.986265" lon="-.695765">
        <ele>1014.497</ele>
        <time>2020-08-29T14:00:10Z</time>
      </trkpt>
      <trkpt lat="39.986179" lon="-.695762">
        <ele>1014.549</ele>
        <time>2020-08-29T14:00:12Z</time>
      </trkpt>
      <trkpt lat="39.986127" lon="-.695761">
        <ele>1014.561</ele>
        <time>2020-08-29T14:00:13Z</time>
      </trkpt>
      <trkpt lat="39.986039" lon="-.69576">
        <ele>1014.839</ele>
        <time>2020-08-29T14:00:15Z</time>
      </trkpt>
      <trkpt lat="39.985951" lon="-.695758">
        <ele>1014.386</ele>
        <time>2020-08-29T14:00:17Z</time>
      </trkpt>
      <trkpt lat="39.985903" lon="-.695757">
        <ele>1014.484</ele>
        <time>2020-08-29T14:00:18Z</time>
      </trkpt>
      <trkpt lat="39.985855" lon="-.695756">
        <ele>1014.524</ele>
        <time>2020-08-29T14:00:19Z</time>
      </trkpt>
      <trkpt lat="39.985805" lon="-.695755">
        <ele>1014.663</ele>
        <time>2020-08-29T14:00:20Z</time>
      </trkpt>
      <trkpt lat="39.985718" lon="-.695753">
        <ele>1014.944</ele>
        <time>2020-08-29T14:00:22Z</time>
      </trkpt>
      <trkpt lat="39.985634" lon="-.695746">
        <ele>1014.918</ele>
        <time>2020-08-29T14:00:24Z</time>
      </trkpt>
      <trkpt lat="39.985588" lon="-.695745">
        <ele>1014.708</ele>
        <time>2020-08-29T14:00:25Z</time>
      </trkpt>
      <trkpt lat="39.985534" lon="-.695746">
        <ele>1014.731</ele>
        <time>2020-08-29T14:00:26Z</time>
      </trkpt>
      <trkpt lat="39.985451" lon="-.695742">
        <ele>1014.791</ele>
        <time>2020-08-29T14:00:28Z</time>
      </trkpt>
      <trkpt lat="39.985399" lon="-.695732">
        <ele>1014.253</ele>
        <time>2020-08-29T14:00:29Z</time>
      </trkpt>
      <trkpt lat="39.985346" lon="-.695737">
        <ele>1014.255</ele>
        <time>2020-08-29T14:00:30Z</time>
      </trkpt>
      <trkpt lat="39.985261" lon="-.695737">
        <ele>1014.673</ele>
        <time>2020-08-29T14:00:32Z</time>
      </trkpt>
      <trkpt lat="39.985174" lon="-.695733">
        <ele>1014.920</ele>
        <time>2020-08-29T14:00:34Z</time>
      </trkpt>
      <trkpt lat="39.985126" lon="-.695732">
        <ele>1014.918</ele>
        <time>2020-08-29T14:00:35Z</time>
      </trkpt>
      <trkpt lat="39.985077" lon="-.695722">
        <ele>1014.358</ele>
        <time>2020-08-29T14:00:36Z</time>
      </trkpt>
      <trkpt lat="39.98503" lon="-.69571">
        <ele>1014.396</ele>
        <time>2020-08-29T14:00:37Z</time>
      </trkpt>
      <trkpt lat="39.984945" lon="-.69571">
        <ele>1014.631</ele>
        <time>2020-08-29T14:00:39Z</time>
      </trkpt>
      <trkpt lat="39.984897" lon="-.695715">
        <ele>1014.624</ele>
        <time>2020-08-29T14:00:40Z</time>
      </trkpt>
      <trkpt lat="39.984806" lon="-.695709">
        <ele>1015.208</ele>
        <time>2020-08-29T14:00:42Z</time>
      </trkpt>
      <trkpt lat="39.984746" lon="-.695711">
        <ele>1014.784</ele>
        <time>2020-08-29T14:00:43Z</time>
      </trkpt>
      <trkpt lat="39.9847" lon="-.695706">
        <ele>1014.594</ele>
        <time>2020-08-29T14:00:44Z</time>
      </trkpt>
      <trkpt lat="39.984599" lon="-.695706">
        <ele>1014.286</ele>
        <time>2020-08-29T14:00:46Z</time>
      </trkpt>
      <trkpt lat="39.984549" lon="-.695704">
        <ele>1014.268</ele>
        <time>2020-08-29T14:00:47Z</time>
      </trkpt>
      <trkpt lat="39.984497" lon="-.695705">
        <ele>1014.476</ele>
        <time>2020-08-29T14:00:48Z</time>
      </trkpt>
      <trkpt lat="39.984449" lon="-.695702">
        <ele>1014.433</ele>
        <time>2020-08-29T14:00:49Z</time>
      </trkpt>
      <trkpt lat="39.984401" lon="-.695693">
        <ele>1014.411</ele>
        <time>2020-08-29T14:00:50Z</time>
      </trkpt>
      <trkpt lat="39.984353" lon="-.695701">
        <ele>1014.411</ele>
        <time>2020-08-29T14:00:51Z</time>
      </trkpt>
      <trkpt lat="39.984304" lon="-.695696">
        <ele>1014.316</ele>
        <time>2020-08-29T14:00:52Z</time>
      </trkpt>
      <trkpt lat="39.984217" lon="-.695693">
        <ele>1014.376</ele>
        <time>2020-08-29T14:00:54Z</time>
      </trkpt>
      <trkpt lat="39.984165" lon="-.695691">
        <ele>1014.313</ele>
        <time>2020-08-29T14:00:55Z</time>
      </trkpt>
      <trkpt lat="39.984115" lon="-.695684">
        <ele>1014.308</ele>
        <time>2020-08-29T14:00:56Z</time>
      </trkpt>
      <trkpt lat="39.984063" lon="-.695685">
        <ele>1014.366</ele>
        <time>2020-08-29T14:00:57Z</time>
      </trkpt>
      <trkpt lat="39.983975" lon="-.695684">
        <ele>1014.546</ele>
        <time>2020-08-29T14:00:59Z</time>
      </trkpt>
      <trkpt lat="39.983884" lon="-.695674">
        <ele>1014.348</ele>
        <time>2020-08-29T14:01:01Z</time>
      </trkpt>
      <trkpt lat="39.983791" lon="-.695674">
        <ele>1014.780</ele>
        <time>2020-08-29T14:01:03Z</time>
      </trkpt>
      <trkpt lat="39.983746" lon="-.695653">
        <ele>1014.758</ele>
        <time>2020-08-29T14:01:04Z</time>
      </trkpt>
      <trkpt lat="39.983653" lon="-.695662">
        <ele>1014.575</ele>
        <time>2020-08-29T14:01:06Z</time>
      </trkpt>
      <trkpt lat="39.983602" lon="-.695651">
        <ele>1014.553</ele>
        <time>2020-08-29T14:01:07Z</time>
      </trkpt>
      <trkpt lat="39.983555" lon="-.695653">
        <ele>1014.653</ele>
        <time>2020-08-29T14:01:08Z</time>
      </trkpt>
      <trkpt lat="39.983456" lon="-.695644">
        <ele>1014.646</ele>
        <time>2020-08-29T14:01:10Z</time>
      </trkpt>
      <trkpt lat="39.983406" lon="-.695644">
        <ele>1014.688</ele>
        <time>2020-08-29T14:01:11Z</time>
      </trkpt>
      <trkpt lat="39.98332" lon="-.695633">
        <ele>1014.416</ele>
        <time>2020-08-29T14:01:13Z</time>
      </trkpt>
      <trkpt lat="39.983273" lon="-.695644">
        <ele>1014.408</ele>
        <time>2020-08-29T14:01:14Z</time>
      </trkpt>
      <trkpt lat="39.983182" lon="-.695645">
        <ele>1014.689</ele>
        <time>2020-08-29T14:01:16Z</time>
      </trkpt>
      <trkpt lat="39.98313" lon="-.695645">
        <ele>1014.739</ele>
        <time>2020-08-29T14:01:17Z</time>
      </trkpt>
      <trkpt lat="39.983078" lon="-.695643">
        <ele>1014.751</ele>
        <time>2020-08-29T14:01:18Z</time>
      </trkpt>
      <trkpt lat="39.98303" lon="-.695643">
        <ele>1014.763</ele>
        <time>2020-08-29T14:01:19Z</time>
      </trkpt>
      <trkpt lat="39.982941" lon="-.695638">
        <ele>1014.591</ele>
        <time>2020-08-29T14:01:21Z</time>
      </trkpt>
      <trkpt lat="39.982896" lon="-.695629">
        <ele>1014.558</ele>
        <time>2020-08-29T14:01:22Z</time>
      </trkpt>
      <trkpt lat="39.982847" lon="-.695624">
        <ele>1014.566</ele>
        <time>2020-08-29T14:01:23Z</time>
      </trkpt>
      <trkpt lat="39.982797" lon="-.695622">
        <ele>1014.516</ele>
        <time>2020-08-29T14:01:24Z</time>
      </trkpt>
      <trkpt lat="39.982707" lon="-.695621">
        <ele>1014.464</ele>
        <time>2020-08-29T14:01:26Z</time>
      </trkpt>
      <trkpt lat="39.982657" lon="-.695622">
        <ele>1014.406</ele>
        <time>2020-08-29T14:01:27Z</time>
      </trkpt>
      <trkpt lat="39.98261" lon="-.695624">
        <ele>1014.316</ele>
        <time>2020-08-29T14:01:28Z</time>
      </trkpt>
      <trkpt lat="39.982523" lon="-.695611">
        <ele>1014.308</ele>
        <time>2020-08-29T14:01:30Z</time>
      </trkpt>
      <trkpt lat="39.982472" lon="-.695604">
        <ele>1014.441</ele>
        <time>2020-08-29T14:01:31Z</time>
      </trkpt>
      <trkpt lat="39.982427" lon="-.695606">
        <ele>1014.461</ele>
        <time>2020-08-29T14:01:32Z</time>
      </trkpt>
      <trkpt lat="39.98238" lon="-.695603">
        <ele>1014.423</ele>
        <time>2020-08-29T14:01:33Z</time>
      </trkpt>
      <trkpt lat="39.982329" lon="-.695603">
        <ele>1014.385</ele>
        <time>2020-08-29T14:01:34Z</time>
      </trkpt>
      <trkpt lat="39.982284" lon="-.695602">
        <ele>1014.283</ele>
        <time>2020-08-29T14:01:35Z</time>
      </trkpt>
      <trkpt lat="39.982193" lon="-.695603">
        <ele>1014.280</ele>
        <time>2020-08-29T14:01:37Z</time>
      </trkpt>
      <trkpt lat="39.982142" lon="-.695599">
        <ele>1014.378</ele>
        <time>2020-08-29T14:01:38Z</time>
      </trkpt>
      <trkpt lat="39.982093" lon="-.695588">
        <ele>1014.768</ele>
        <time>2020-08-29T14:01:39Z</time>
      </trkpt>
      <trkpt lat="39.982047" lon="-.695602">
        <ele>1014.715</ele>
        <time>2020-08-29T14:01:40Z</time>
      </trkpt>
      <trkpt lat="39.981973" lon="-.695594">
        <ele>1014.365</ele>
        <time>2020-08-29T14:01:42Z</time>
      </trkpt>
      <trkpt lat="39.981892" lon="-.695591">
        <ele>1014.111</ele>
        <time>2020-08-29T14:01:44Z</time>
      </trkpt>
      <trkpt lat="39.981845" lon="-.69559">
        <ele>1014.108</ele>
        <time>2020-08-29T14:01:45Z</time>
      </trkpt>
      <trkpt lat="39.981763" lon="-.695571">
        <ele>1014.316</ele>
        <time>2020-08-29T14:01:47Z</time>
      </trkpt>
      <trkpt lat="39.981685" lon="-.695578">
        <ele>1015.016</ele>
        <time>2020-08-29T14:01:49Z</time>
      </trkpt>
      <trkpt lat="39.981612" lon="-.695576">
        <ele>1015.028</ele>
        <time>2020-08-29T14:01:51Z</time>
      </trkpt>
      <trkpt lat="39.98153" lon="-.695581">
        <ele>1014.660</ele>
        <time>2020-08-29T14:01:53Z</time>
      </trkpt>
      <trkpt lat="39.981451" lon="-.69558">
        <ele>1014.548</ele>
        <time>2020-08-29T14:01:55Z</time>
      </trkpt>
      <trkpt lat="39.981374" lon="-.695586">
        <ele>1014.865</ele>
        <time>2020-08-29T14:01:57Z</time>
      </trkpt>
      <trkpt lat="39.981297" lon="-.695577">
        <ele>1014.783</ele>
        <time>2020-08-29T14:01:59Z</time>
      </trkpt>
      <trkpt lat="39.981222" lon="-.695568">
        <ele>1014.093</ele>
        <time>2020-08-29T14:02:01Z</time>
      </trkpt>
      <trkpt lat="39.981154" lon="-.69557">
        <ele>1013.815</ele>
        <time>2020-08-29T14:02:03Z</time>
      </trkpt>
      <trkpt lat="39.981075" lon="-.695565">
        <ele>1014.165</ele>
        <time>2020-08-29T14:02:05Z</time>
      </trkpt>
      <trkpt lat="39.980996" lon="-.695566">
        <ele>1014.611</ele>
        <time>2020-08-29T14:02:07Z</time>
      </trkpt>
      <trkpt lat="39.98091" lon="-.695561">
        <ele>1014.908</ele>
        <time>2020-08-29T14:02:09Z</time>
      </trkpt>
      <trkpt lat="39.980829" lon="-.695555">
        <ele>1014.046</ele>
        <time>2020-08-29T14:02:11Z</time>
      </trkpt>
      <trkpt lat="39.98075" lon="-.695549">
        <ele>1013.776</ele>
        <time>2020-08-29T14:02:13Z</time>
      </trkpt>
      <trkpt lat="39.980674" lon="-.695551">
        <ele>1014.268</ele>
        <time>2020-08-29T14:02:15Z</time>
      </trkpt>
      <trkpt lat="39.980585" lon="-.695542">
        <ele>1014.680</ele>
        <time>2020-08-29T14:02:17Z</time>
      </trkpt>
      <trkpt lat="39.980508" lon="-.695541">
        <ele>1014.898</ele>
        <time>2020-08-29T14:02:19Z</time>
      </trkpt>
      <trkpt lat="39.980438" lon="-.695537">
        <ele>1014.775</ele>
        <time>2020-08-29T14:02:21Z</time>
      </trkpt>
      <trkpt lat="39.980357" lon="-.695536">
        <ele>1013.583</ele>
        <time>2020-08-29T14:02:23Z</time>
      </trkpt>
      <trkpt lat="39.980287" lon="-.695548">
        <ele>1013.393</ele>
        <time>2020-08-29T14:02:25Z</time>
      </trkpt>
      <trkpt lat="39.980208" lon="-.695541">
        <ele>1013.485</ele>
        <time>2020-08-29T14:02:27Z</time>
      </trkpt>
      <trkpt lat="39.980134" lon="-.69554">
        <ele>1014.189</ele>
        <time>2020-08-29T14:02:29Z</time>
      </trkpt>
      <trkpt lat="39.980059" lon="-.695528">
        <ele>1014.817</ele>
        <time>2020-08-29T14:02:31Z</time>
      </trkpt>
      <trkpt lat="39.979985" lon="-.695521">
        <ele>1014.908</ele>
        <time>2020-08-29T14:02:33Z</time>
      </trkpt>
      <trkpt lat="39.979897" lon="-.695522">
        <ele>1013.773</ele>
        <time>2020-08-29T14:02:35Z</time>
      </trkpt>
      <trkpt lat="39.979828" lon="-.695515">
        <ele>1014.083</ele>
        <time>2020-08-29T14:02:37Z</time>
      </trkpt>
      <trkpt lat="39.979749" lon="-.695513">
        <ele>1014.315</ele>
        <time>2020-08-29T14:02:39Z</time>
      </trkpt>
      <trkpt lat="39.979701" lon="-.695515">
        <ele>1014.657</ele>
        <time>2020-08-29T14:02:40Z</time>
      </trkpt>
      <trkpt lat="39.979621" lon="-.695512">
        <ele>1014.345</ele>
        <time>2020-08-29T14:02:42Z</time>
      </trkpt>
      <trkpt lat="39.979544" lon="-.695519">
        <ele>1014.122</ele>
        <time>2020-08-29T14:02:44Z</time>
      </trkpt>
      <trkpt lat="39.979463" lon="-.695515">
        <ele>1014.340</ele>
        <time>2020-08-29T14:02:46Z</time>
      </trkpt>
      <trkpt lat="39.979381" lon="-.695514">
        <ele>1014.850</ele>
        <time>2020-08-29T14:02:48Z</time>
      </trkpt>
      <trkpt lat="39.979299" lon="-.695516">
        <ele>1013.758</ele>
        <time>2020-08-29T14:02:50Z</time>
      </trkpt>
      <trkpt lat="39.979212" lon="-.695508">
        <ele>1014.052</ele>
        <time>2020-08-29T14:02:52Z</time>
      </trkpt>
      <trkpt lat="39.97913" lon="-.695509">
        <ele>1014.217</ele>
        <time>2020-08-29T14:02:54Z</time>
      </trkpt>
      <trkpt lat="39.979039" lon="-.695506">
        <ele>1014.308</ele>
        <time>2020-08-29T14:02:56Z</time>
      </trkpt>
      <trkpt lat="39.97899" lon="-.695508">
        <ele>1014.340</ele>
        <time>2020-08-29T14:02:57Z</time>
      </trkpt>
      <trkpt lat="39.978913" lon="-.695504">
        <ele>1014.280</ele>
        <time>2020-08-29T14:02:59Z</time>
      </trkpt>
      <trkpt lat="39.978826" lon="-.695507">
        <ele>1014.152</ele>
        <time>2020-08-29T14:03:01Z</time>
      </trkpt>
      <trkpt lat="39.978773" lon="-.695503">
        <ele>1014.294</ele>
        <time>2020-08-29T14:03:02Z</time>
      </trkpt>
      <trkpt lat="39.978684" lon="-.695498">
        <ele>1013.812</ele>
        <time>2020-08-29T14:03:04Z</time>
      </trkpt>
      <trkpt lat="39.978599" lon="-.695489">
        <ele>1013.979</ele>
        <time>2020-08-29T14:03:06Z</time>
      </trkpt>
      <trkpt lat="39.978553" lon="-.69549">
        <ele>1013.617</ele>
        <time>2020-08-29T14:03:07Z</time>
      </trkpt>
      <trkpt lat="39.978508" lon="-.695484">
        <ele>1013.657</ele>
        <time>2020-08-29T14:03:08Z</time>
      </trkpt>
      <trkpt lat="39.978422" lon="-.695482">
        <ele>1014.289</ele>
        <time>2020-08-29T14:03:10Z</time>
      </trkpt>
      <trkpt lat="39.978374" lon="-.695482">
        <ele>1013.206</ele>
        <time>2020-08-29T14:03:11Z</time>
      </trkpt>
      <trkpt lat="39.978292" lon="-.695473">
        <ele>1013.726</ele>
        <time>2020-08-29T14:03:13Z</time>
      </trkpt>
      <trkpt lat="39.978196" lon="-.695469">
        <ele>1013.308</ele>
        <time>2020-08-29T14:03:15Z</time>
      </trkpt>
      <trkpt lat="39.97815" lon="-.695473">
        <ele>1013.383</ele>
        <time>2020-08-29T14:03:16Z</time>
      </trkpt>
      <trkpt lat="39.978068" lon="-.695474">
        <ele>1013.723</ele>
        <time>2020-08-29T14:03:18Z</time>
      </trkpt>
      <trkpt lat="39.977981" lon="-.695461">
        <ele>1013.695</ele>
        <time>2020-08-29T14:03:20Z</time>
      </trkpt>
      <trkpt lat="39.977932" lon="-.695464">
        <ele>1013.987</ele>
        <time>2020-08-29T14:03:21Z</time>
      </trkpt>
      <trkpt lat="39.977885" lon="-.695466">
        <ele>1013.965</ele>
        <time>2020-08-29T14:03:22Z</time>
      </trkpt>
      <trkpt lat="39.977801" lon="-.695469">
        <ele>1013.762</ele>
        <time>2020-08-29T14:03:24Z</time>
      </trkpt>
      <trkpt lat="39.977718" lon="-.695461">
        <ele>1014.150</ele>
        <time>2020-08-29T14:03:26Z</time>
      </trkpt>
      <trkpt lat="39.977636" lon="-.695458">
        <ele>1014.180</ele>
        <time>2020-08-29T14:03:28Z</time>
      </trkpt>
      <trkpt lat="39.977548" lon="-.695452">
        <ele>1014.444</ele>
        <time>2020-08-29T14:03:30Z</time>
      </trkpt>
      <trkpt lat="39.977464" lon="-.695446">
        <ele>1014.205</ele>
        <time>2020-08-29T14:03:32Z</time>
      </trkpt>
      <trkpt lat="39.977374" lon="-.695443">
        <ele>1014.515</ele>
        <time>2020-08-29T14:03:34Z</time>
      </trkpt>
      <trkpt lat="39.977328" lon="-.695435">
        <ele>1014.508</ele>
        <time>2020-08-29T14:03:35Z</time>
      </trkpt>
      <trkpt lat="39.977252" lon="-.69543">
        <ele>1014.319</ele>
        <time>2020-08-29T14:03:37Z</time>
      </trkpt>
      <trkpt lat="39.977177" lon="-.695434">
        <ele>1014.279</ele>
        <time>2020-08-29T14:03:39Z</time>
      </trkpt>
      <trkpt lat="39.977094" lon="-.695433">
        <ele>1014.581</ele>
        <time>2020-08-29T14:03:41Z</time>
      </trkpt>
      <trkpt lat="39.977047" lon="-.695429">
        <ele>1014.643</ele>
        <time>2020-08-29T14:03:42Z</time>
      </trkpt>
      <trkpt lat="39.976963" lon="-.695431">
        <ele>1014.731</ele>
        <time>2020-08-29T14:03:44Z</time>
      </trkpt>
      <trkpt lat="39.976916" lon="-.695434">
        <ele>1014.788</ele>
        <time>2020-08-29T14:03:45Z</time>
      </trkpt>
      <trkpt lat="39.976831" lon="-.695429">
        <ele>1014.756</ele>
        <time>2020-08-29T14:03:47Z</time>
      </trkpt>
      <trkpt lat="39.976754" lon="-.695417">
        <ele>1015.116</ele>
        <time>2020-08-29T14:03:49Z</time>
      </trkpt>
      <trkpt lat="39.976705" lon="-.695416">
        <ele>1015.172</ele>
        <time>2020-08-29T14:03:50Z</time>
      </trkpt>
      <trkpt lat="39.976619" lon="-.69541">
        <ele>1014.913</ele>
        <time>2020-08-29T14:03:52Z</time>
      </trkpt>
      <trkpt lat="39.976531" lon="-.695404">
        <ele>1015.014</ele>
        <time>2020-08-29T14:03:54Z</time>
      </trkpt>
      <trkpt lat="39.976456" lon="-.695407">
        <ele>1014.908</ele>
        <time>2020-08-29T14:03:56Z</time>
      </trkpt>
      <trkpt lat="39.976382" lon="-.695402">
        <ele>1014.662</ele>
        <time>2020-08-29T14:03:58Z</time>
      </trkpt>
      <trkpt lat="39.976286" lon="-.695407">
        <ele>1014.962</ele>
        <time>2020-08-29T14:04:00Z</time>
      </trkpt>
      <trkpt lat="39.97621" lon="-.695414">
        <ele>1015.174</ele>
        <time>2020-08-29T14:04:02Z</time>
      </trkpt>
      <trkpt lat="39.976137" lon="-.695403">
        <ele>1015.216</ele>
        <time>2020-08-29T14:04:04Z</time>
      </trkpt>
      <trkpt lat="39.976068" lon="-.695402">
        <ele>1015.114</ele>
        <time>2020-08-29T14:04:06Z</time>
      </trkpt>
      <trkpt lat="39.976006" lon="-.695399">
        <ele>1015.151</ele>
        <time>2020-08-29T14:04:08Z</time>
      </trkpt>
      <trkpt lat="39.975951" lon="-.695396">
        <ele>1015.139</ele>
        <time>2020-08-29T14:04:10Z</time>
      </trkpt>
      <trkpt lat="39.975904" lon="-.695397">
        <ele>1015.029</ele>
        <time>2020-08-29T14:04:12Z</time>
      </trkpt>
      <trkpt lat="39.975825" lon="-.695385">
        <ele>1014.469</ele>
        <time>2020-08-29T14:04:14Z</time>
      </trkpt>
      <trkpt lat="39.975756" lon="-.695384">
        <ele>1014.204</ele>
        <time>2020-08-29T14:04:16Z</time>
      </trkpt>
      <trkpt lat="39.975685" lon="-.695378">
        <ele>1015.024</ele>
        <time>2020-08-29T14:04:18Z</time>
      </trkpt>
      <trkpt lat="39.975612" lon="-.69538">
        <ele>1015.008</ele>
        <time>2020-08-29T14:04:20Z</time>
      </trkpt>
      <trkpt lat="39.975542" lon="-.695373">
        <ele>1015.011</ele>
        <time>2020-08-29T14:04:22Z</time>
      </trkpt>
      <trkpt lat="39.975465" lon="-.695375">
        <ele>1015.121</ele>
        <time>2020-08-29T14:04:24Z</time>
      </trkpt>
      <trkpt lat="39.975403" lon="-.695369">
        <ele>1015.393</ele>
        <time>2020-08-29T14:04:26Z</time>
      </trkpt>
      <trkpt lat="39.975325" lon="-.695367">
        <ele>1015.065</ele>
        <time>2020-08-29T14:04:28Z</time>
      </trkpt>
      <trkpt lat="39.975274" lon="-.695367">
        <ele>1014.593</ele>
        <time>2020-08-29T14:04:29Z</time>
      </trkpt>
      <trkpt lat="39.975196" lon="-.695346">
        <ele>1014.770</ele>
        <time>2020-08-29T14:04:31Z</time>
      </trkpt>
      <trkpt lat="39.97513" lon="-.695352">
        <ele>1014.738</ele>
        <time>2020-08-29T14:04:33Z</time>
      </trkpt>
      <trkpt lat="39.975083" lon="-.695347">
        <ele>1015.438</ele>
        <time>2020-08-29T14:04:34Z</time>
      </trkpt>
      <trkpt lat="39.975001" lon="-.695344">
        <ele>1014.534</ele>
        <time>2020-08-29T14:04:36Z</time>
      </trkpt>
      <trkpt lat="39.974954" lon="-.695345">
        <ele>1014.855</ele>
        <time>2020-08-29T14:04:37Z</time>
      </trkpt>
      <trkpt lat="39.97488" lon="-.695342">
        <ele>1014.910</ele>
        <time>2020-08-29T14:04:39Z</time>
      </trkpt>
      <trkpt lat="39.974794" lon="-.695342">
        <ele>1014.908</ele>
        <time>2020-08-29T14:04:41Z</time>
      </trkpt>
      <trkpt lat="39.974709" lon="-.695339">
        <ele>1015.018</ele>
        <time>2020-08-29T14:04:43Z</time>
      </trkpt>
      <trkpt lat="39.974626" lon="-.695336">
        <ele>1015.038</ele>
        <time>2020-08-29T14:04:45Z</time>
      </trkpt>
      <trkpt lat="39.97456" lon="-.695331">
        <ele>1015.230</ele>
        <time>2020-08-29T14:04:47Z</time>
      </trkpt>
      <trkpt lat="39.974478" lon="-.69532">
        <ele>1014.942</ele>
        <time>2020-08-29T14:04:49Z</time>
      </trkpt>
      <trkpt lat="39.974397" lon="-.695315">
        <ele>1015.140</ele>
        <time>2020-08-29T14:04:51Z</time>
      </trkpt>
      <trkpt lat="39.974319" lon="-.695307">
        <ele>1015.217</ele>
        <time>2020-08-29T14:04:53Z</time>
      </trkpt>
      <trkpt lat="39.97423" lon="-.695304">
        <ele>1014.945</ele>
        <time>2020-08-29T14:04:55Z</time>
      </trkpt>
      <trkpt lat="39.974152" lon="-.695308">
        <ele>1015.345</ele>
        <time>2020-08-29T14:04:57Z</time>
      </trkpt>
      <trkpt lat="39.974081" lon="-.695298">
        <ele>1015.574</ele>
        <time>2020-08-29T14:04:59Z</time>
      </trkpt>
      <trkpt lat="39.974006" lon="-.695296">
        <ele>1016.056</ele>
        <time>2020-08-29T14:05:01Z</time>
      </trkpt>
      <trkpt lat="39.973938" lon="-.695298">
        <ele>1015.821</ele>
        <time>2020-08-29T14:05:03Z</time>
      </trkpt>
      <trkpt lat="39.973863" lon="-.695294">
        <ele>1015.708</ele>
        <time>2020-08-29T14:05:05Z</time>
      </trkpt>
      <trkpt lat="39.973795" lon="-.695287">
        <ele>1015.692</ele>
        <time>2020-08-29T14:05:07Z</time>
      </trkpt>
      <trkpt lat="39.973721" lon="-.695302">
        <ele>1015.572</ele>
        <time>2020-08-29T14:05:09Z</time>
      </trkpt>
      <trkpt lat="39.973661" lon="-.695291">
        <ele>1015.534</ele>
        <time>2020-08-29T14:05:11Z</time>
      </trkpt>
      <trkpt lat="39.973594" lon="-.695277">
        <ele>1015.596</ele>
        <time>2020-08-29T14:05:13Z</time>
      </trkpt>
      <trkpt lat="39.973526" lon="-.69527">
        <ele>1015.354</ele>
        <time>2020-08-29T14:05:15Z</time>
      </trkpt>
      <trkpt lat="39.973453" lon="-.695268">
        <ele>1014.881</ele>
        <time>2020-08-29T14:05:17Z</time>
      </trkpt>
      <trkpt lat="39.973404" lon="-.69527">
        <ele>1014.659</ele>
        <time>2020-08-29T14:05:18Z</time>
      </trkpt>
      <trkpt lat="39.973303" lon="-.695275">
        <ele>1014.239</ele>
        <time>2020-08-29T14:05:20Z</time>
      </trkpt>
      <trkpt lat="39.973253" lon="-.695275">
        <ele>1014.058</ele>
        <time>2020-08-29T14:05:21Z</time>
      </trkpt>
      <trkpt lat="39.973203" lon="-.695268">
        <ele>1013.952</ele>
        <time>2020-08-29T14:05:22Z</time>
      </trkpt>
      <trkpt lat="39.97315" lon="-.695272">
        <ele>1013.717</ele>
        <time>2020-08-29T14:05:23Z</time>
      </trkpt>
      <trkpt lat="39.973066" lon="-.69527">
        <ele>1013.408</ele>
        <time>2020-08-29T14:05:25Z</time>
      </trkpt>
      <trkpt lat="39.972988" lon="-.695242">
        <ele>1013.350</ele>
        <time>2020-08-29T14:05:27Z</time>
      </trkpt>
      <trkpt lat="39.972954" lon="-.695156">
        <ele>1013.340</ele>
        <time>2020-08-29T14:05:29Z</time>
      </trkpt>
      <trkpt lat="39.972946" lon="-.695058">
        <ele>1013.282</ele>
        <time>2020-08-29T14:05:31Z</time>
      </trkpt>
      <trkpt lat="39.972958" lon="-.694942">
        <ele>1013.174</ele>
        <time>2020-08-29T14:05:33Z</time>
      </trkpt>
      <trkpt lat="39.972971" lon="-.69487">
        <ele>1013.082</ele>
        <time>2020-08-29T14:05:34Z</time>
      </trkpt>
      <trkpt lat="39.972993" lon="-.694767">
        <ele>1012.719</ele>
        <time>2020-08-29T14:05:36Z</time>
      </trkpt>
      <trkpt lat="39.972961" lon="-.694675">
        <ele>1012.417</ele>
        <time>2020-08-29T14:05:38Z</time>
      </trkpt>
      <trkpt lat="39.972924" lon="-.694584">
        <ele>1012.347</ele>
        <time>2020-08-29T14:05:40Z</time>
      </trkpt>
      <trkpt lat="39.972878" lon="-.694507">
        <ele>1012.137</ele>
        <time>2020-08-29T14:05:42Z</time>
      </trkpt>
      <trkpt lat="39.972814" lon="-.694444">
        <ele>1012.249</ele>
        <time>2020-08-29T14:05:44Z</time>
      </trkpt>
      <trkpt lat="39.972769" lon="-.694367">
        <ele>1012.213</ele>
        <time>2020-08-29T14:05:46Z</time>
      </trkpt>
      <trkpt lat="39.972695" lon="-.694289">
        <ele>1012.708</ele>
        <time>2020-08-29T14:05:48Z</time>
      </trkpt>
      <trkpt lat="39.972654" lon="-.694218">
        <ele>1012.938</ele>
        <time>2020-08-29T14:05:50Z</time>
      </trkpt>
      <trkpt lat="39.972621" lon="-.694148">
        <ele>1013.348</ele>
        <time>2020-08-29T14:05:52Z</time>
      </trkpt>
      <trkpt lat="39.972598" lon="-.694087">
        <ele>1013.220</ele>
        <time>2020-08-29T14:05:54Z</time>
      </trkpt>
      <trkpt lat="39.972578" lon="-.694012">
        <ele>1013.242</ele>
        <time>2020-08-29T14:05:56Z</time>
      </trkpt>
      <trkpt lat="39.972561" lon="-.69393">
        <ele>1013.160</ele>
        <time>2020-08-29T14:05:58Z</time>
      </trkpt>
      <trkpt lat="39.972539" lon="-.69384">
        <ele>1013.267</ele>
        <time>2020-08-29T14:06:00Z</time>
      </trkpt>
      <trkpt lat="39.97252" lon="-.693758">
        <ele>1013.495</ele>
        <time>2020-08-29T14:06:02Z</time>
      </trkpt>
      <trkpt lat="39.972488" lon="-.693672">
        <ele>1013.465</ele>
        <time>2020-08-29T14:06:04Z</time>
      </trkpt>
      <trkpt lat="39.972443" lon="-.693599">
        <ele>1013.717</ele>
        <time>2020-08-29T14:06:06Z</time>
      </trkpt>
      <trkpt lat="39.972393" lon="-.693534">
        <ele>1013.987</ele>
        <time>2020-08-29T14:06:08Z</time>
      </trkpt>
      <trkpt lat="39.972341" lon="-.693473">
        <ele>1013.915</ele>
        <time>2020-08-29T14:06:10Z</time>
      </trkpt>
      <trkpt lat="39.972287" lon="-.693407">
        <ele>1013.808</ele>
        <time>2020-08-29T14:06:12Z</time>
      </trkpt>
      <trkpt lat="39.972234" lon="-.693339">
        <ele>1013.966</ele>
        <time>2020-08-29T14:06:14Z</time>
      </trkpt>
      <trkpt lat="39.97218" lon="-.693283">
        <ele>1014.176</ele>
        <time>2020-08-29T14:06:16Z</time>
      </trkpt>
      <trkpt lat="39.972122" lon="-.693235">
        <ele>1014.498</ele>
        <time>2020-08-29T14:06:18Z</time>
      </trkpt>
      <trkpt lat="39.972075" lon="-.693186">
        <ele>1014.690</ele>
        <time>2020-08-29T14:06:20Z</time>
      </trkpt>
      <trkpt lat="39.972032" lon="-.693147">
        <ele>1014.888</ele>
        <time>2020-08-29T14:06:22Z</time>
      </trkpt>
      <trkpt lat="39.971988" lon="-.693108">
        <ele>1015.265</ele>
        <time>2020-08-29T14:06:24Z</time>
      </trkpt>
      <trkpt lat="39.971945" lon="-.693068">
        <ele>1015.393</ele>
        <time>2020-08-29T14:06:26Z</time>
      </trkpt>
      <trkpt lat="39.971906" lon="-.69303">
        <ele>1015.463</ele>
        <time>2020-08-29T14:06:28Z</time>
      </trkpt>
      <trkpt lat="39.97185" lon="-.692986">
        <ele>1015.352</ele>
        <time>2020-08-29T14:06:31Z</time>
      </trkpt>
      <trkpt lat="39.9718" lon="-.692937">
        <ele>1015.153</ele>
        <time>2020-08-29T14:06:34Z</time>
      </trkpt>
      <trkpt lat="39.971759" lon="-.692897">
        <ele>1015.108</ele>
        <time>2020-08-29T14:06:36Z</time>
      </trkpt>
      <trkpt lat="39.9717" lon="-.69285">
        <ele>1015.608</ele>
        <time>2020-08-29T14:06:39Z</time>
      </trkpt>
      <trkpt lat="39.971663" lon="-.692816">
        <ele>1015.680</ele>
        <time>2020-08-29T14:06:41Z</time>
      </trkpt>
      <trkpt lat="39.971611" lon="-.692763">
        <ele>1015.950</ele>
        <time>2020-08-29T14:06:44Z</time>
      </trkpt>
      <trkpt lat="39.971547" lon="-.692712">
        <ele>1016.092</ele>
        <time>2020-08-29T14:06:47Z</time>
      </trkpt>
      <trkpt lat="39.971498" lon="-.692673">
        <ele>1016.334</ele>
        <time>2020-08-29T14:06:50Z</time>
      </trkpt>
      <trkpt lat="39.971455" lon="-.692648">
        <ele>1016.752</ele>
        <time>2020-08-29T14:06:52Z</time>
      </trkpt>
      <trkpt lat="39.971396" lon="-.692604">
        <ele>1016.629</ele>
        <time>2020-08-29T14:06:55Z</time>
      </trkpt>
      <trkpt lat="39.971336" lon="-.692572">
        <ele>1017.087</ele>
        <time>2020-08-29T14:06:58Z</time>
      </trkpt>
      <trkpt lat="39.971289" lon="-.692543">
        <ele>1017.417</ele>
        <time>2020-08-29T14:07:00Z</time>
      </trkpt>
      <trkpt lat="39.971236" lon="-.692508">
        <ele>1017.193</ele>
        <time>2020-08-29T14:07:03Z</time>
      </trkpt>
      <trkpt lat="39.971185" lon="-.692491">
        <ele>1017.365</ele>
        <time>2020-08-29T14:07:06Z</time>
      </trkpt>
      <trkpt lat="39.97112" lon="-.692488">
        <ele>1017.721</ele>
        <time>2020-08-29T14:07:09Z</time>
      </trkpt>
      <trkpt lat="39.971062" lon="-.692498">
        <ele>1017.808</ele>
        <time>2020-08-29T14:07:12Z</time>
      </trkpt>
      <trkpt lat="39.971005" lon="-.692525">
        <ele>1017.864</ele>
        <time>2020-08-29T14:07:14Z</time>
      </trkpt>
      <trkpt lat="39.970947" lon="-.692568">
        <ele>1017.854</ele>
        <time>2020-08-29T14:07:17Z</time>
      </trkpt>
      <trkpt lat="39.970904" lon="-.692601">
        <ele>1017.846</ele>
        <time>2020-08-29T14:07:19Z</time>
      </trkpt>
      <trkpt lat="39.970861" lon="-.692628">
        <ele>1017.958</ele>
        <time>2020-08-29T14:07:21Z</time>
      </trkpt>
      <trkpt lat="39.970816" lon="-.692664">
        <ele>1018.056</ele>
        <time>2020-08-29T14:07:23Z</time>
      </trkpt>
      <trkpt lat="39.970768" lon="-.692699">
        <ele>1017.943</ele>
        <time>2020-08-29T14:07:25Z</time>
      </trkpt>
      <trkpt lat="39.970719" lon="-.692723">
        <ele>1017.971</ele>
        <time>2020-08-29T14:07:27Z</time>
      </trkpt>
      <trkpt lat="39.97066" lon="-.692743">
        <ele>1017.361</ele>
        <time>2020-08-29T14:07:29Z</time>
      </trkpt>
      <trkpt lat="39.970611" lon="-.692777">
        <ele>1017.198</ele>
        <time>2020-08-29T14:07:31Z</time>
      </trkpt>
      <trkpt lat="39.97057" lon="-.692818">
        <ele>1017.215</ele>
        <time>2020-08-29T14:07:33Z</time>
      </trkpt>
      <trkpt lat="39.970526" lon="-.692832">
        <ele>1017.826</ele>
        <time>2020-08-29T14:07:35Z</time>
      </trkpt>
      <trkpt lat="39.970474" lon="-.692869">
        <ele>1017.908</ele>
        <time>2020-08-29T14:07:37Z</time>
      </trkpt>
      <trkpt lat="39.970423" lon="-.692896">
        <ele>1018.114</ele>
        <time>2020-08-29T14:07:39Z</time>
      </trkpt>
      <trkpt lat="39.970377" lon="-.692933">
        <ele>1018.124</ele>
        <time>2020-08-29T14:07:41Z</time>
      </trkpt>
      <trkpt lat="39.970339" lon="-.692976">
        <ele>1018.716</ele>
        <time>2020-08-29T14:07:43Z</time>
      </trkpt>
      <trkpt lat="39.970273" lon="-.693015">
        <ele>1018.668</ele>
        <time>2020-08-29T14:07:46Z</time>
      </trkpt>
      <trkpt lat="39.970205" lon="-.693056">
        <ele>1018.626</ele>
        <time>2020-08-29T14:07:49Z</time>
      </trkpt>
      <trkpt lat="39.970165" lon="-.693085">
        <ele>1018.943</ele>
        <time>2020-08-29T14:07:51Z</time>
      </trkpt>
      <trkpt lat="39.970113" lon="-.693122">
        <ele>1019.131</ele>
        <time>2020-08-29T14:07:53Z</time>
      </trkpt>
      <trkpt lat="39.970051" lon="-.693142">
        <ele>1018.961</ele>
        <time>2020-08-29T14:07:56Z</time>
      </trkpt>
      <trkpt lat="39.970001" lon="-.693185">
        <ele>1019.079</ele>
        <time>2020-08-29T14:07:58Z</time>
      </trkpt>
      <trkpt lat="39.969954" lon="-.693212">
        <ele>1019.205</ele>
        <time>2020-08-29T14:08:00Z</time>
      </trkpt>
      <trkpt lat="39.969909" lon="-.69325">
        <ele>1019.525</ele>
        <time>2020-08-29T14:08:02Z</time>
      </trkpt>
      <trkpt lat="39.96986" lon="-.693293">
        <ele>1019.608</ele>
        <time>2020-08-29T14:08:04Z</time>
      </trkpt>
      <trkpt lat="39.969819" lon="-.693327">
        <ele>1019.692</ele>
        <time>2020-08-29T14:08:06Z</time>
      </trkpt>
      <trkpt lat="39.969775" lon="-.693345">
        <ele>1019.972</ele>
        <time>2020-08-29T14:08:08Z</time>
      </trkpt>
      <trkpt lat="39.969725" lon="-.693363">
        <ele>1019.534</ele>
        <time>2020-08-29T14:08:10Z</time>
      </trkpt>
      <trkpt lat="39.969679" lon="-.693397">
        <ele>1019.896</ele>
        <time>2020-08-29T14:08:12Z</time>
      </trkpt>
      <trkpt lat="39.969627" lon="-.69343">
        <ele>1020.034</ele>
        <time>2020-08-29T14:08:14Z</time>
      </trkpt>
      <trkpt lat="39.969577" lon="-.693464">
        <ele>1019.721</ele>
        <time>2020-08-29T14:08:16Z</time>
      </trkpt>
      <trkpt lat="39.969529" lon="-.69352">
        <ele>1019.599</ele>
        <time>2020-08-29T14:08:18Z</time>
      </trkpt>
      <trkpt lat="39.96948" lon="-.693553">
        <ele>1020.299</ele>
        <time>2020-08-29T14:08:20Z</time>
      </trkpt>
      <trkpt lat="39.969436" lon="-.69358">
        <ele>1020.263</ele>
        <time>2020-08-29T14:08:22Z</time>
      </trkpt>
      <trkpt lat="39.969379" lon="-.693623">
        <ele>1019.944</ele>
        <time>2020-08-29T14:08:24Z</time>
      </trkpt>
      <trkpt lat="39.969319" lon="-.693661">
        <ele>1020.618</ele>
        <time>2020-08-29T14:08:27Z</time>
      </trkpt>
      <trkpt lat="39.969273" lon="-.6937">
        <ele>1020.908</ele>
        <time>2020-08-29T14:08:29Z</time>
      </trkpt>
      <trkpt lat="39.969201" lon="-.693744">
        <ele>1020.451</ele>
        <time>2020-08-29T14:08:32Z</time>
      </trkpt>
      <trkpt lat="39.969146" lon="-.693757">
        <ele>1020.811</ele>
        <time>2020-08-29T14:08:34Z</time>
      </trkpt>
      <trkpt lat="39.969092" lon="-.693781">
        <ele>1020.993</ele>
        <time>2020-08-29T14:08:36Z</time>
      </trkpt>
      <trkpt lat="39.969025" lon="-.693784">
        <ele>1020.745</ele>
        <time>2020-08-29T14:08:38Z</time>
      </trkpt>
      <trkpt lat="39.968954" lon="-.693809">
        <ele>1020.783</ele>
        <time>2020-08-29T14:08:40Z</time>
      </trkpt>
      <trkpt lat="39.968886" lon="-.693829">
        <ele>1020.790</ele>
        <time>2020-08-29T14:08:42Z</time>
      </trkpt>
      <trkpt lat="39.968816" lon="-.693839">
        <ele>1020.888</ele>
        <time>2020-08-29T14:08:44Z</time>
      </trkpt>
      <trkpt lat="39.968752" lon="-.693836">
        <ele>1020.478</ele>
        <time>2020-08-29T14:08:46Z</time>
      </trkpt>
      <trkpt lat="39.968673" lon="-.693852">
        <ele>1020.689</ele>
        <time>2020-08-29T14:08:48Z</time>
      </trkpt>
      <trkpt lat="39.968602" lon="-.693868">
        <ele>1020.906</ele>
        <time>2020-08-29T14:08:50Z</time>
      </trkpt>
      <trkpt lat="39.968537" lon="-.69386">
        <ele>1021.426</ele>
        <time>2020-08-29T14:08:52Z</time>
      </trkpt>
      <trkpt lat="39.968479" lon="-.693871">
        <ele>1021.208</ele>
        <time>2020-08-29T14:08:54Z</time>
      </trkpt>
      <trkpt lat="39.968406" lon="-.693876">
        <ele>1021.233</ele>
        <time>2020-08-29T14:08:56Z</time>
      </trkpt>
      <trkpt lat="39.968333" lon="-.693869">
        <ele>1021.443</ele>
        <time>2020-08-29T14:08:58Z</time>
      </trkpt>
      <trkpt lat="39.968251" lon="-.693884">
        <ele>1021.795</ele>
        <time>2020-08-29T14:09:00Z</time>
      </trkpt>
      <trkpt lat="39.968174" lon="-.693897">
        <ele>1021.617</ele>
        <time>2020-08-29T14:09:02Z</time>
      </trkpt>
      <trkpt lat="39.968103" lon="-.693902">
        <ele>1020.955</ele>
        <time>2020-08-29T14:09:04Z</time>
      </trkpt>
      <trkpt lat="39.968025" lon="-.693917">
        <ele>1021.492</ele>
        <time>2020-08-29T14:09:06Z</time>
      </trkpt>
      <trkpt lat="39.967953" lon="-.693927">
        <ele>1021.650</ele>
        <time>2020-08-29T14:09:08Z</time>
      </trkpt>
      <trkpt lat="39.967882" lon="-.693959">
        <ele>1022.580</ele>
        <time>2020-08-29T14:09:10Z</time>
      </trkpt>
      <trkpt lat="39.967806" lon="-.693989">
        <ele>1022.345</ele>
        <time>2020-08-29T14:09:12Z</time>
      </trkpt>
      <trkpt lat="39.967759" lon="-.694019">
        <ele>1022.047</ele>
        <time>2020-08-29T14:09:13Z</time>
      </trkpt>
      <trkpt lat="39.967676" lon="-.694049">
        <ele>1021.911</ele>
        <time>2020-08-29T14:09:15Z</time>
      </trkpt>
      <trkpt lat="39.967589" lon="-.694091">
        <ele>1021.708</ele>
        <time>2020-08-29T14:09:17Z</time>
      </trkpt>
      <trkpt lat="39.967513" lon="-.694135">
        <ele>1021.659</ele>
        <time>2020-08-29T14:09:19Z</time>
      </trkpt>
      <trkpt lat="39.967469" lon="-.694152">
        <ele>1021.689</ele>
        <time>2020-08-29T14:09:20Z</time>
      </trkpt>
      <trkpt lat="39.967389" lon="-.694171">
        <ele>1021.561</ele>
        <time>2020-08-29T14:09:22Z</time>
      </trkpt>
      <trkpt lat="39.967307" lon="-.694194">
        <ele>1021.553</ele>
        <time>2020-08-29T14:09:24Z</time>
      </trkpt>
      <trkpt lat="39.967228" lon="-.694173">
        <ele>1021.451</ele>
        <time>2020-08-29T14:09:26Z</time>
      </trkpt>
      <trkpt lat="39.967155" lon="-.694159">
        <ele>1021.128</ele>
        <time>2020-08-29T14:09:28Z</time>
      </trkpt>
      <trkpt lat="39.967085" lon="-.694128">
        <ele>1019.996</ele>
        <time>2020-08-29T14:09:30Z</time>
      </trkpt>
      <trkpt lat="39.96704" lon="-.694115">
        <ele>1020.436</ele>
        <time>2020-08-29T14:09:31Z</time>
      </trkpt>
      <trkpt lat="39.966967" lon="-.694084">
        <ele>1020.679</ele>
        <time>2020-08-29T14:09:33Z</time>
      </trkpt>
      <trkpt lat="39.966895" lon="-.694065">
        <ele>1021.805</ele>
        <time>2020-08-29T14:09:35Z</time>
      </trkpt>
      <trkpt lat="39.966828" lon="-.694057">
        <ele>1021.825</ele>
        <time>2020-08-29T14:09:37Z</time>
      </trkpt>
      <trkpt lat="39.966765" lon="-.694028">
        <ele>1020.308</ele>
        <time>2020-08-29T14:09:39Z</time>
      </trkpt>
      <trkpt lat="39.966691" lon="-.694023">
        <ele>1020.642</ele>
        <time>2020-08-29T14:09:41Z</time>
      </trkpt>
      <trkpt lat="39.966623" lon="-.694016">
        <ele>1020.922</ele>
        <time>2020-08-29T14:09:43Z</time>
      </trkpt>
      <trkpt lat="39.966546" lon="-.694024">
        <ele>1021.294</ele>
        <time>2020-08-29T14:09:45Z</time>
      </trkpt>
      <trkpt lat="39.966477" lon="-.694018">
        <ele>1020.556</ele>
        <time>2020-08-29T14:09:47Z</time>
      </trkpt>
      <trkpt lat="39.966411" lon="-.694011">
        <ele>1020.754</ele>
        <time>2020-08-29T14:09:49Z</time>
      </trkpt>
      <trkpt lat="39.966345" lon="-.694008">
        <ele>1021.871</ele>
        <time>2020-08-29T14:09:51Z</time>
      </trkpt>
      <trkpt lat="39.966284" lon="-.694001">
        <ele>1022.429</ele>
        <time>2020-08-29T14:09:53Z</time>
      </trkpt>
      <trkpt lat="39.96624" lon="-.693991">
        <ele>1022.569</ele>
        <time>2020-08-29T14:09:55Z</time>
      </trkpt>
      <trkpt lat="39.966196" lon="-.693973">
        <ele>1022.371</ele>
        <time>2020-08-29T14:10:04Z</time>
      </trkpt>
      <trkpt lat="39.966151" lon="-.693953">
        <ele>1023.241</ele>
        <time>2020-08-29T14:13:17Z</time>
      </trkpt>
      <trkpt lat="39.966097" lon="-.693961">
        <ele>1023.415</ele>
        <time>2020-08-29T14:15:14Z</time>
      </trkpt>
      <trkpt lat="39.966042" lon="-.693959">
        <ele>1022.008</ele>
        <time>2020-08-29T14:15:17Z</time>
      </trkpt>
      <trkpt lat="39.965987" lon="-.693926">
        <ele>1023.262</ele>
        <time>2020-08-29T14:15:20Z</time>
      </trkpt>
      <trkpt lat="39.965941" lon="-.693927">
        <ele>1023.462</ele>
        <time>2020-08-29T14:15:22Z</time>
      </trkpt>
      <trkpt lat="39.965884" lon="-.693919">
        <ele>1023.444</ele>
        <time>2020-08-29T14:15:24Z</time>
      </trkpt>
      <trkpt lat="39.965828" lon="-.693925">
        <ele>1023.316</ele>
        <time>2020-08-29T14:15:26Z</time>
      </trkpt>
      <trkpt lat="39.965778" lon="-.693911">
        <ele>1024.014</ele>
        <time>2020-08-29T14:15:28Z</time>
      </trkpt>
      <trkpt lat="39.96572" lon="-.693902">
        <ele>1025.511</ele>
        <time>2020-08-29T14:15:30Z</time>
      </trkpt>
      <trkpt lat="39.965659" lon="-.693898">
        <ele>1024.769</ele>
        <time>2020-08-29T14:15:32Z</time>
      </trkpt>
      <trkpt lat="39.965604" lon="-.693892">
        <ele>1024.399</ele>
        <time>2020-08-29T14:15:34Z</time>
      </trkpt>
      <trkpt lat="39.965555" lon="-.693886">
        <ele>1024.586</ele>
        <time>2020-08-29T14:15:36Z</time>
      </trkpt>
      <trkpt lat="39.965493" lon="-.69387">
        <ele>1024.660</ele>
        <time>2020-08-29T14:15:40Z</time>
      </trkpt>
      <trkpt lat="39.965435" lon="-.693883">
        <ele>1025.626</ele>
        <time>2020-08-29T14:15:42Z</time>
      </trkpt>
      <trkpt lat="39.965362" lon="-.693886">
        <ele>1024.908</ele>
        <time>2020-08-29T14:15:45Z</time>
      </trkpt>
      <trkpt lat="39.965283" lon="-.693886">
        <ele>1025.653</ele>
        <time>2020-08-29T14:15:48Z</time>
      </trkpt>
      <trkpt lat="39.965233" lon="-.693914">
        <ele>1025.463</ele>
        <time>2020-08-29T14:15:50Z</time>
      </trkpt>
      <trkpt lat="39.965183" lon="-.69392">
        <ele>1025.275</ele>
        <time>2020-08-29T14:15:52Z</time>
      </trkpt>
      <trkpt lat="39.965131" lon="-.69393">
        <ele>1024.537</ele>
        <time>2020-08-29T14:15:54Z</time>
      </trkpt>
      <trkpt lat="39.965078" lon="-.693962">
        <ele>1024.515</ele>
        <time>2020-08-29T14:15:56Z</time>
      </trkpt>
      <trkpt lat="39.965025" lon="-.693987">
        <ele>1025.022</ele>
        <time>2020-08-29T14:15:58Z</time>
      </trkpt>
      <trkpt lat="39.964983" lon="-.69401">
        <ele>1025.330</ele>
        <time>2020-08-29T14:16:00Z</time>
      </trkpt>
      <trkpt lat="39.964926" lon="-.694026">
        <ele>1024.420</ele>
        <time>2020-08-29T14:16:02Z</time>
      </trkpt>
      <trkpt lat="39.964876" lon="-.694049">
        <ele>1024.664</ele>
        <time>2020-08-29T14:16:04Z</time>
      </trkpt>
      <trkpt lat="39.964802" lon="-.694069">
        <ele>1024.906</ele>
        <time>2020-08-29T14:16:06Z</time>
      </trkpt>
      <trkpt lat="39.964742" lon="-.694083">
        <ele>1026.616</ele>
        <time>2020-08-29T14:16:08Z</time>
      </trkpt>
      <trkpt lat="39.964685" lon="-.694077">
        <ele>1026.708</ele>
        <time>2020-08-29T14:16:10Z</time>
      </trkpt>
      <trkpt lat="39.964628" lon="-.694062">
        <ele>1026.211</ele>
        <time>2020-08-29T14:16:12Z</time>
      </trkpt>
      <trkpt lat="39.964582" lon="-.694036">
        <ele>1026.281</ele>
        <time>2020-08-29T14:16:14Z</time>
      </trkpt>
      <trkpt lat="39.964542" lon="-.693997">
        <ele>1025.933</ele>
        <time>2020-08-29T14:16:16Z</time>
      </trkpt>
      <trkpt lat="39.964501" lon="-.693962">
        <ele>1026.445</ele>
        <time>2020-08-29T14:16:18Z</time>
      </trkpt>
      <trkpt lat="39.964443" lon="-.693913">
        <ele>1026.553</ele>
        <time>2020-08-29T14:16:21Z</time>
      </trkpt>
      <trkpt lat="39.964392" lon="-.693883">
        <ele>1026.690</ele>
        <time>2020-08-29T14:16:23Z</time>
      </trkpt>
      <trkpt lat="39.964335" lon="-.693842">
        <ele>1026.698</ele>
        <time>2020-08-29T14:16:25Z</time>
      </trkpt>
      <trkpt lat="39.964261" lon="-.693827">
        <ele>1026.658</ele>
        <time>2020-08-29T14:16:27Z</time>
      </trkpt>
      <trkpt lat="39.964189" lon="-.693827">
        <ele>1026.584</ele>
        <time>2020-08-29T14:16:29Z</time>
      </trkpt>
      <trkpt lat="39.964123" lon="-.693843">
        <ele>1026.807</ele>
        <time>2020-08-29T14:16:31Z</time>
      </trkpt>
      <trkpt lat="39.964069" lon="-.693868">
        <ele>1027.517</ele>
        <time>2020-08-29T14:16:33Z</time>
      </trkpt>
      <trkpt lat="39.964027" lon="-.693908">
        <ele>1028.208</ele>
        <time>2020-08-29T14:16:35Z</time>
      </trkpt>
      <trkpt lat="39.963989" lon="-.693947">
        <ele>1028.143</ele>
        <time>2020-08-29T14:16:37Z</time>
      </trkpt>
      <trkpt lat="39.963945" lon="-.69398">
        <ele>1028.353</ele>
        <time>2020-08-29T14:16:39Z</time>
      </trkpt>
      <trkpt lat="39.963892" lon="-.693999">
        <ele>1028.225</ele>
        <time>2020-08-29T14:16:41Z</time>
      </trkpt>
      <trkpt lat="39.963839" lon="-.694016">
        <ele>1028.017</ele>
        <time>2020-08-29T14:16:43Z</time>
      </trkpt>
      <trkpt lat="39.963787" lon="-.694047">
        <ele>1028.195</ele>
        <time>2020-08-29T14:16:45Z</time>
      </trkpt>
      <trkpt lat="39.963699" lon="-.694081">
        <ele>1028.292</ele>
        <time>2020-08-29T14:16:47Z</time>
      </trkpt>
      <trkpt lat="39.963646" lon="-.694103">
        <ele>1028.290</ele>
        <time>2020-08-29T14:16:48Z</time>
      </trkpt>
      <trkpt lat="39.963591" lon="-.694124">
        <ele>1027.320</ele>
        <time>2020-08-29T14:16:51Z</time>
      </trkpt>
      <trkpt lat="39.963534" lon="-.694129">
        <ele>1027.365</ele>
        <time>2020-08-29T14:16:53Z</time>
      </trkpt>
      <trkpt lat="39.963488" lon="-.694135">
        <ele>1027.468</ele>
        <time>2020-08-29T14:16:54Z</time>
      </trkpt>
      <trkpt lat="39.963436" lon="-.694151">
        <ele>1027.414</ele>
        <time>2020-08-29T14:16:55Z</time>
      </trkpt>
      <trkpt lat="39.963393" lon="-.694193">
        <ele>1027.308</ele>
        <time>2020-08-29T14:16:56Z</time>
      </trkpt>
      <trkpt lat="39.963348" lon="-.694238">
        <ele>1027.331</ele>
        <time>2020-08-29T14:16:57Z</time>
      </trkpt>
      <trkpt lat="39.963299" lon="-.694296">
        <ele>1027.231</ele>
        <time>2020-08-29T14:16:58Z</time>
      </trkpt>
      <trkpt lat="39.963249" lon="-.694345">
        <ele>1027.063</ele>
        <time>2020-08-29T14:16:59Z</time>
      </trkpt>
      <trkpt lat="39.963203" lon="-.694385">
        <ele>1026.925</ele>
        <time>2020-08-29T14:17:00Z</time>
      </trkpt>
      <trkpt lat="39.963148" lon="-.694411">
        <ele>1026.883</ele>
        <time>2020-08-29T14:17:01Z</time>
      </trkpt>
      <trkpt lat="39.963092" lon="-.69444">
        <ele>1026.730</ele>
        <time>2020-08-29T14:17:02Z</time>
      </trkpt>
      <trkpt lat="39.96304" lon="-.694473">
        <ele>1026.788</ele>
        <time>2020-08-29T14:17:03Z</time>
      </trkpt>
      <trkpt lat="39.962992" lon="-.694501">
        <ele>1026.768</ele>
        <time>2020-08-29T14:17:04Z</time>
      </trkpt>
      <trkpt lat="39.962945" lon="-.694531">
        <ele>1026.738</ele>
        <time>2020-08-29T14:17:05Z</time>
      </trkpt>
      <trkpt lat="39.962897" lon="-.694558">
        <ele>1026.770</ele>
        <time>2020-08-29T14:17:06Z</time>
      </trkpt>
      <trkpt lat="39.962831" lon="-.694603">
        <ele>1026.717</ele>
        <time>2020-08-29T14:17:07Z</time>
      </trkpt>
      <trkpt lat="39.962774" lon="-.694642">
        <ele>1026.708</ele>
        <time>2020-08-29T14:17:08Z</time>
      </trkpt>
      <trkpt lat="39.962713" lon="-.694698">
        <ele>1026.648</ele>
        <time>2020-08-29T14:17:09Z</time>
      </trkpt>
      <trkpt lat="39.962652" lon="-.694739">
        <ele>1026.558</ele>
        <time>2020-08-29T14:17:10Z</time>
      </trkpt>
      <trkpt lat="39.962607" lon="-.69477">
        <ele>1026.380</ele>
        <time>2020-08-29T14:17:11Z</time>
      </trkpt>
      <trkpt lat="39.962521" lon="-.694808">
        <ele>1026.142</ele>
        <time>2020-08-29T14:17:13Z</time>
      </trkpt>
      <trkpt lat="39.962462" lon="-.69483">
        <ele>1026.050</ele>
        <time>2020-08-29T14:17:15Z</time>
      </trkpt>
      <trkpt lat="39.962404" lon="-.694841">
        <ele>1025.747</ele>
        <time>2020-08-29T14:17:26Z</time>
      </trkpt>
      <trkpt lat="39.962344" lon="-.694861">
        <ele>1025.645</ele>
        <time>2020-08-29T14:17:29Z</time>
      </trkpt>
      <trkpt lat="39.962291" lon="-.694881">
        <ele>1024.755</ele>
        <time>2020-08-29T14:17:31Z</time>
      </trkpt>
      <trkpt lat="39.962224" lon="-.694916">
        <ele>1024.191</ele>
        <time>2020-08-29T14:17:33Z</time>
      </trkpt>
      <trkpt lat="39.96216" lon="-.694943">
        <ele>1025.081</ele>
        <time>2020-08-29T14:17:35Z</time>
      </trkpt>
      <trkpt lat="39.962089" lon="-.694977">
        <ele>1025.519</ele>
        <time>2020-08-29T14:17:37Z</time>
      </trkpt>
      <trkpt lat="39.962015" lon="-.695012">
        <ele>1025.508</ele>
        <time>2020-08-29T14:17:39Z</time>
      </trkpt>
      <trkpt lat="39.96195" lon="-.695062">
        <ele>1025.154</ele>
        <time>2020-08-29T14:17:41Z</time>
      </trkpt>
      <trkpt lat="39.961891" lon="-.695109">
        <ele>1024.654</ele>
        <time>2020-08-29T14:17:43Z</time>
      </trkpt>
      <trkpt lat="39.961834" lon="-.695169">
        <ele>1024.476</ele>
        <time>2020-08-29T14:17:45Z</time>
      </trkpt>
      <trkpt lat="39.961776" lon="-.695241">
        <ele>1024.468</ele>
        <time>2020-08-29T14:17:47Z</time>
      </trkpt>
      <trkpt lat="39.961716" lon="-.695275">
        <ele>1024.246</ele>
        <time>2020-08-29T14:17:49Z</time>
      </trkpt>
      <trkpt lat="39.961641" lon="-.695314">
        <ele>1024.013</ele>
        <time>2020-08-29T14:17:51Z</time>
      </trkpt>
      <trkpt lat="39.961592" lon="-.695335">
        <ele>1023.711</ele>
        <time>2020-08-29T14:17:52Z</time>
      </trkpt>
      <trkpt lat="39.961547" lon="-.695356">
        <ele>1023.711</ele>
        <time>2020-08-29T14:17:53Z</time>
      </trkpt>
      <trkpt lat="39.961497" lon="-.695379">
        <ele>1023.413</ele>
        <time>2020-08-29T14:17:54Z</time>
      </trkpt>
      <trkpt lat="39.961449" lon="-.695398">
        <ele>1023.243</ele>
        <time>2020-08-29T14:17:55Z</time>
      </trkpt>
      <trkpt lat="39.961407" lon="-.695419">
        <ele>1023.207</ele>
        <time>2020-08-29T14:17:56Z</time>
      </trkpt>
      <trkpt lat="39.961359" lon="-.69543">
        <ele>1023.108</ele>
        <time>2020-08-29T14:17:57Z</time>
      </trkpt>
      <trkpt lat="39.961313" lon="-.695446">
        <ele>1023.046</ele>
        <time>2020-08-29T14:17:58Z</time>
      </trkpt>
      <trkpt lat="39.961234" lon="-.695478">
        <ele>1022.936</ele>
        <time>2020-08-29T14:18:00Z</time>
      </trkpt>
      <trkpt lat="39.961157" lon="-.695512">
        <ele>1022.868</ele>
        <time>2020-08-29T14:18:02Z</time>
      </trkpt>
      <trkpt lat="39.961096" lon="-.69554">
        <ele>1022.910</ele>
        <time>2020-08-29T14:18:04Z</time>
      </trkpt>
      <trkpt lat="39.961024" lon="-.695553">
        <ele>1022.988</ele>
        <time>2020-08-29T14:18:06Z</time>
      </trkpt>
      <trkpt lat="39.960947" lon="-.695581">
        <ele>1022.945</ele>
        <time>2020-08-29T14:18:08Z</time>
      </trkpt>
      <trkpt lat="39.960879" lon="-.695599">
        <ele>1023.063</ele>
        <time>2020-08-29T14:18:10Z</time>
      </trkpt>
      <trkpt lat="39.960812" lon="-.695613">
        <ele>1022.763</ele>
        <time>2020-08-29T14:18:12Z</time>
      </trkpt>
      <trkpt lat="39.960737" lon="-.695653">
        <ele>1023.116</ele>
        <time>2020-08-29T14:18:14Z</time>
      </trkpt>
      <trkpt lat="39.960633" lon="-.695683">
        <ele>1023.176</ele>
        <time>2020-08-29T14:18:16Z</time>
      </trkpt>
      <trkpt lat="39.960588" lon="-.695696">
        <ele>1023.113</ele>
        <time>2020-08-29T14:18:17Z</time>
      </trkpt>
      <trkpt lat="39.960541" lon="-.695726">
        <ele>1023.208</ele>
        <time>2020-08-29T14:18:18Z</time>
      </trkpt>
      <trkpt lat="39.960489" lon="-.695768">
        <ele>1023.216</ele>
        <time>2020-08-29T14:18:19Z</time>
      </trkpt>
      <trkpt lat="39.96041" lon="-.695822">
        <ele>1023.076</ele>
        <time>2020-08-29T14:18:21Z</time>
      </trkpt>
      <trkpt lat="39.960364" lon="-.69585">
        <ele>1022.918</ele>
        <time>2020-08-29T14:18:22Z</time>
      </trkpt>
      <trkpt lat="39.960304" lon="-.695873">
        <ele>1022.960</ele>
        <time>2020-08-29T14:18:23Z</time>
      </trkpt>
      <trkpt lat="39.960255" lon="-.69589">
        <ele>1023.088</ele>
        <time>2020-08-29T14:18:24Z</time>
      </trkpt>
      <trkpt lat="39.960208" lon="-.695907">
        <ele>1022.845</ele>
        <time>2020-08-29T14:18:25Z</time>
      </trkpt>
      <trkpt lat="39.960155" lon="-.695934">
        <ele>1022.893</ele>
        <time>2020-08-29T14:18:26Z</time>
      </trkpt>
      <trkpt lat="39.960107" lon="-.695962">
        <ele>1022.813</ele>
        <time>2020-08-29T14:18:27Z</time>
      </trkpt>
      <trkpt lat="39.960057" lon="-.695986">
        <ele>1022.878</ele>
        <time>2020-08-29T14:18:28Z</time>
      </trkpt>
      <trkpt lat="39.96" lon="-.696002">
        <ele>1022.533</ele>
        <time>2020-08-29T14:18:29Z</time>
      </trkpt>
      <trkpt lat="39.959908" lon="-.696033">
        <ele>1022.426</ele>
        <time>2020-08-29T14:18:31Z</time>
      </trkpt>
      <trkpt lat="39.959856" lon="-.696055">
        <ele>1022.508</ele>
        <time>2020-08-29T14:18:32Z</time>
      </trkpt>
      <trkpt lat="39.959799" lon="-.696083">
        <ele>1022.582</ele>
        <time>2020-08-29T14:18:33Z</time>
      </trkpt>
      <trkpt lat="39.959745" lon="-.696106">
        <ele>1022.522</ele>
        <time>2020-08-29T14:18:34Z</time>
      </trkpt>
      <trkpt lat="39.959685" lon="-.696132">
        <ele>1022.724</ele>
        <time>2020-08-29T14:18:35Z</time>
      </trkpt>
      <trkpt lat="39.95964" lon="-.696149">
        <ele>1022.786</ele>
        <time>2020-08-29T14:18:36Z</time>
      </trkpt>
      <trkpt lat="39.959595" lon="-.696168">
        <ele>1022.764</ele>
        <time>2020-08-29T14:18:37Z</time>
      </trkpt>
      <trkpt lat="39.959507" lon="-.696198">
        <ele>1022.551</ele>
        <time>2020-08-29T14:18:39Z</time>
      </trkpt>
      <trkpt lat="39.959451" lon="-.696227">
        <ele>1022.519</ele>
        <time>2020-08-29T14:18:40Z</time>
      </trkpt>
      <trkpt lat="39.959399" lon="-.696248">
        <ele>1022.229</ele>
        <time>2020-08-29T14:18:41Z</time>
      </trkpt>
      <trkpt lat="39.95935" lon="-.696271">
        <ele>1022.118</ele>
        <time>2020-08-29T14:18:42Z</time>
      </trkpt>
      <trkpt lat="39.959297" lon="-.696284">
        <ele>1022.098</ele>
        <time>2020-08-29T14:18:43Z</time>
      </trkpt>
      <trkpt lat="39.959252" lon="-.696299">
        <ele>1021.917</ele>
        <time>2020-08-29T14:18:44Z</time>
      </trkpt>
      <trkpt lat="39.959155" lon="-.69633">
        <ele>1021.808</ele>
        <time>2020-08-29T14:18:46Z</time>
      </trkpt>
      <trkpt lat="39.959103" lon="-.696349">
        <ele>1021.786</ele>
        <time>2020-08-29T14:18:47Z</time>
      </trkpt>
      <trkpt lat="39.959049" lon="-.696354">
        <ele>1021.676</ele>
        <time>2020-08-29T14:18:48Z</time>
      </trkpt>
      <trkpt lat="39.95899" lon="-.69638">
        <ele>1021.458</ele>
        <time>2020-08-29T14:18:49Z</time>
      </trkpt>
      <trkpt lat="39.958932" lon="-.696407">
        <ele>1021.210</ele>
        <time>2020-08-29T14:18:50Z</time>
      </trkpt>
      <trkpt lat="39.958876" lon="-.696418">
        <ele>1020.988</ele>
        <time>2020-08-29T14:18:51Z</time>
      </trkpt>
      <trkpt lat="39.95882" lon="-.696438">
        <ele>1020.775</ele>
        <time>2020-08-29T14:18:52Z</time>
      </trkpt>
      <trkpt lat="39.958753" lon="-.696452">
        <ele>1020.543</ele>
        <time>2020-08-29T14:18:53Z</time>
      </trkpt>
      <trkpt lat="39.958694" lon="-.696466">
        <ele>1020.463</ele>
        <time>2020-08-29T14:18:54Z</time>
      </trkpt>
      <trkpt lat="39.958641" lon="-.696475">
        <ele>1020.396</ele>
        <time>2020-08-29T14:18:55Z</time>
      </trkpt>
      <trkpt lat="39.95858" lon="-.696485">
        <ele>1020.331</ele>
        <time>2020-08-29T14:18:56Z</time>
      </trkpt>
      <trkpt lat="39.958516" lon="-.696498">
        <ele>1020.224</ele>
        <time>2020-08-29T14:18:57Z</time>
      </trkpt>
      <trkpt lat="39.958462" lon="-.696511">
        <ele>1020.008</ele>
        <time>2020-08-29T14:18:58Z</time>
      </trkpt>
      <trkpt lat="39.958408" lon="-.696511">
        <ele>1019.984</ele>
        <time>2020-08-29T14:18:59Z</time>
      </trkpt>
      <trkpt lat="39.958348" lon="-.696501">
        <ele>1019.884</ele>
        <time>2020-08-29T14:19:00Z</time>
      </trkpt>
      <trkpt lat="39.958293" lon="-.696491">
        <ele>1019.546</ele>
        <time>2020-08-29T14:19:01Z</time>
      </trkpt>
      <trkpt lat="39.958234" lon="-.696492">
        <ele>1019.578</ele>
        <time>2020-08-29T14:19:02Z</time>
      </trkpt>
      <trkpt lat="39.958185" lon="-.696474">
        <ele>1018.976</ele>
        <time>2020-08-29T14:19:03Z</time>
      </trkpt>
      <trkpt lat="39.958105" lon="-.6965">
        <ele>1018.943</ele>
        <time>2020-08-29T14:19:04Z</time>
      </trkpt>
      <trkpt lat="39.958033" lon="-.696504">
        <ele>1018.951</ele>
        <time>2020-08-29T14:19:05Z</time>
      </trkpt>
      <trkpt lat="39.95796" lon="-.696509">
        <ele>1018.831</ele>
        <time>2020-08-29T14:19:06Z</time>
      </trkpt>
      <trkpt lat="39.957895" lon="-.696512">
        <ele>1018.847</ele>
        <time>2020-08-29T14:19:07Z</time>
      </trkpt>
      <trkpt lat="39.957832" lon="-.696506">
        <ele>1018.729</ele>
        <time>2020-08-29T14:19:08Z</time>
      </trkpt>
      <trkpt lat="39.957767" lon="-.696507">
        <ele>1018.621</ele>
        <time>2020-08-29T14:19:09Z</time>
      </trkpt>
      <trkpt lat="39.957707" lon="-.696505">
        <ele>1018.508</ele>
        <time>2020-08-29T14:19:10Z</time>
      </trkpt>
      <trkpt lat="39.957644" lon="-.696496">
        <ele>1018.249</ele>
        <time>2020-08-29T14:19:11Z</time>
      </trkpt>
      <trkpt lat="39.957583" lon="-.696486">
        <ele>1018.029</ele>
        <time>2020-08-29T14:19:12Z</time>
      </trkpt>
      <trkpt lat="39.957524" lon="-.696471">
        <ele>1017.991</ele>
        <time>2020-08-29T14:19:13Z</time>
      </trkpt>
      <trkpt lat="39.957464" lon="-.696471">
        <ele>1017.933</ele>
        <time>2020-08-29T14:19:14Z</time>
      </trkpt>
      <trkpt lat="39.957399" lon="-.696454">
        <ele>1017.811</ele>
        <time>2020-08-29T14:19:15Z</time>
      </trkpt>
      <trkpt lat="39.957341" lon="-.696438">
        <ele>1017.778</ele>
        <time>2020-08-29T14:19:16Z</time>
      </trkpt>
      <trkpt lat="39.957287" lon="-.696427">
        <ele>1017.686</ele>
        <time>2020-08-29T14:19:17Z</time>
      </trkpt>
      <trkpt lat="39.95723" lon="-.696409">
        <ele>1017.466</ele>
        <time>2020-08-29T14:19:18Z</time>
      </trkpt>
      <trkpt lat="39.957168" lon="-.696391">
        <ele>1017.138</ele>
        <time>2020-08-29T14:19:19Z</time>
      </trkpt>
      <trkpt lat="39.9571" lon="-.696392">
        <ele>1016.970</ele>
        <time>2020-08-29T14:19:20Z</time>
      </trkpt>
      <trkpt lat="39.957044" lon="-.696393">
        <ele>1016.717</ele>
        <time>2020-08-29T14:19:21Z</time>
      </trkpt>
      <trkpt lat="39.956979" lon="-.696389">
        <ele>1016.708</ele>
        <time>2020-08-29T14:19:22Z</time>
      </trkpt>
      <trkpt lat="39.956913" lon="-.696384">
        <ele>1016.768</ele>
        <time>2020-08-29T14:19:23Z</time>
      </trkpt>
      <trkpt lat="39.956856" lon="-.69638">
        <ele>1016.718</ele>
        <time>2020-08-29T14:19:24Z</time>
      </trkpt>
      <trkpt lat="39.956774" lon="-.696364">
        <ele>1016.560</ele>
        <time>2020-08-29T14:19:25Z</time>
      </trkpt>
      <trkpt lat="39.956704" lon="-.696349">
        <ele>1016.532</ele>
        <time>2020-08-29T14:19:26Z</time>
      </trkpt>
      <trkpt lat="39.956641" lon="-.696334">
        <ele>1016.010</ele>
        <time>2020-08-29T14:19:27Z</time>
      </trkpt>
      <trkpt lat="39.956588" lon="-.69632">
        <ele>1016.077</ele>
        <time>2020-08-29T14:19:28Z</time>
      </trkpt>
      <trkpt lat="39.956528" lon="-.696304">
        <ele>1015.835</ele>
        <time>2020-08-29T14:19:29Z</time>
      </trkpt>
      <trkpt lat="39.956465" lon="-.696289">
        <ele>1015.485</ele>
        <time>2020-08-29T14:19:30Z</time>
      </trkpt>
      <trkpt lat="39.956391" lon="-.696271">
        <ele>1015.061</ele>
        <time>2020-08-29T14:19:31Z</time>
      </trkpt>
      <trkpt lat="39.956324" lon="-.696255">
        <ele>1014.721</ele>
        <time>2020-08-29T14:19:32Z</time>
      </trkpt>
      <trkpt lat="39.956262" lon="-.696239">
        <ele>1014.213</ele>
        <time>2020-08-29T14:19:33Z</time>
      </trkpt>
      <trkpt lat="39.956199" lon="-.69623">
        <ele>1014.208</ele>
        <time>2020-08-29T14:19:34Z</time>
      </trkpt>
      <trkpt lat="39.956131" lon="-.696224">
        <ele>1014.741</ele>
        <time>2020-08-29T14:19:35Z</time>
      </trkpt>
      <trkpt lat="39.956084" lon="-.696221">
        <ele>1014.721</ele>
        <time>2020-08-29T14:19:36Z</time>
      </trkpt>
      <trkpt lat="39.956012" lon="-.6962">
        <ele>1014.333</ele>
        <time>2020-08-29T14:19:37Z</time>
      </trkpt>
      <trkpt lat="39.955911" lon="-.69614">
        <ele>1013.815</ele>
        <time>2020-08-29T14:19:38Z</time>
      </trkpt>
      <trkpt lat="39.955837" lon="-.696129">
        <ele>1013.443</ele>
        <time>2020-08-29T14:19:39Z</time>
      </trkpt>
      <trkpt lat="39.955758" lon="-.696121">
        <ele>1013.380</ele>
        <time>2020-08-29T14:19:40Z</time>
      </trkpt>
      <trkpt lat="39.955676" lon="-.696107">
        <ele>1013.268</ele>
        <time>2020-08-29T14:19:41Z</time>
      </trkpt>
      <trkpt lat="39.955597" lon="-.696082">
        <ele>1013.098</ele>
        <time>2020-08-29T14:19:42Z</time>
      </trkpt>
      <trkpt lat="39.955521" lon="-.696063">
        <ele>1012.766</ele>
        <time>2020-08-29T14:19:43Z</time>
      </trkpt>
      <trkpt lat="39.95545" lon="-.696048">
        <ele>1012.629</ele>
        <time>2020-08-29T14:19:44Z</time>
      </trkpt>
      <trkpt lat="39.955374" lon="-.696035">
        <ele>1012.521</ele>
        <time>2020-08-29T14:19:45Z</time>
      </trkpt>
      <trkpt lat="39.955302" lon="-.696027">
        <ele>1012.508</ele>
        <time>2020-08-29T14:19:46Z</time>
      </trkpt>
      <trkpt lat="39.955227" lon="-.69601">
        <ele>1012.471</ele>
        <time>2020-08-29T14:19:47Z</time>
      </trkpt>
      <trkpt lat="39.955157" lon="-.695994">
        <ele>1012.341</ele>
        <time>2020-08-29T14:19:48Z</time>
      </trkpt>
      <trkpt lat="39.955082" lon="-.695982">
        <ele>1012.213</ele>
        <time>2020-08-29T14:19:49Z</time>
      </trkpt>
      <trkpt lat="39.955019" lon="-.695967">
        <ele>1012.155</ele>
        <time>2020-08-29T14:19:50Z</time>
      </trkpt>
      <trkpt lat="39.954947" lon="-.69595">
        <ele>1011.833</ele>
        <time>2020-08-29T14:19:51Z</time>
      </trkpt>
      <trkpt lat="39.954879" lon="-.695936">
        <ele>1011.750</ele>
        <time>2020-08-29T14:19:52Z</time>
      </trkpt>
      <trkpt lat="39.954805" lon="-.695922">
        <ele>1011.578</ele>
        <time>2020-08-29T14:19:53Z</time>
      </trkpt>
      <trkpt lat="39.954738" lon="-.695907">
        <ele>1010.758</ele>
        <time>2020-08-29T14:19:54Z</time>
      </trkpt>
      <trkpt lat="39.954674" lon="-.695888">
        <ele>1010.771</ele>
        <time>2020-08-29T14:19:55Z</time>
      </trkpt>
      <trkpt lat="39.954598" lon="-.695868">
        <ele>1010.641</ele>
        <time>2020-08-29T14:19:56Z</time>
      </trkpt>
      <trkpt lat="39.954526" lon="-.695847">
        <ele>1010.615</ele>
        <time>2020-08-29T14:19:57Z</time>
      </trkpt>
      <trkpt lat="39.954449" lon="-.695827">
        <ele>1010.408</ele>
        <time>2020-08-29T14:19:58Z</time>
      </trkpt>
      <trkpt lat="39.954378" lon="-.695808">
        <ele>1010.252</ele>
        <time>2020-08-29T14:19:59Z</time>
      </trkpt>
      <trkpt lat="39.954304" lon="-.695797">
        <ele>1010.172</ele>
        <time>2020-08-29T14:20:00Z</time>
      </trkpt>
      <trkpt lat="39.954227" lon="-.695785">
        <ele>1010.154</ele>
        <time>2020-08-29T14:20:01Z</time>
      </trkpt>
      <trkpt lat="39.954158" lon="-.695775">
        <ele>1010.176</ele>
        <time>2020-08-29T14:20:02Z</time>
      </trkpt>
      <trkpt lat="39.954091" lon="-.695756">
        <ele>1010.154</ele>
        <time>2020-08-29T14:20:03Z</time>
      </trkpt>
      <trkpt lat="39.954018" lon="-.69574">
        <ele>1009.931</ele>
        <time>2020-08-29T14:20:04Z</time>
      </trkpt>
      <trkpt lat="39.953944" lon="-.695726">
        <ele>1009.799</ele>
        <time>2020-08-29T14:20:05Z</time>
      </trkpt>
      <trkpt lat="39.953886" lon="-.695708">
        <ele>1009.449</ele>
        <time>2020-08-29T14:20:06Z</time>
      </trkpt>
      <trkpt lat="39.953831" lon="-.695683">
        <ele>1009.182</ele>
        <time>2020-08-29T14:20:07Z</time>
      </trkpt>
      <trkpt lat="39.953768" lon="-.69566">
        <ele>1009.043</ele>
        <time>2020-08-29T14:20:08Z</time>
      </trkpt>
      <trkpt lat="39.9537" lon="-.695639">
        <ele>1008.917</ele>
        <time>2020-08-29T14:20:09Z</time>
      </trkpt>
      <trkpt lat="39.953643" lon="-.695615">
        <ele>1008.608</ele>
        <time>2020-08-29T14:20:10Z</time>
      </trkpt>
      <trkpt lat="39.953584" lon="-.695585">
        <ele>1008.543</ele>
        <time>2020-08-29T14:20:11Z</time>
      </trkpt>
      <trkpt lat="39.95353" lon="-.695562">
        <ele>1008.243</ele>
        <time>2020-08-29T14:20:12Z</time>
      </trkpt>
      <trkpt lat="39.953478" lon="-.695528">
        <ele>1008.135</ele>
        <time>2020-08-29T14:20:13Z</time>
      </trkpt>
      <trkpt lat="39.953424" lon="-.695494">
        <ele>1008.037</ele>
        <time>2020-08-29T14:20:14Z</time>
      </trkpt>
      <trkpt lat="39.953364" lon="-.695456">
        <ele>1007.985</ele>
        <time>2020-08-29T14:20:15Z</time>
      </trkpt>
      <trkpt lat="39.953309" lon="-.695419">
        <ele>1007.752</ele>
        <time>2020-08-29T14:20:16Z</time>
      </trkpt>
      <trkpt lat="39.953239" lon="-.695379">
        <ele>1007.580</ele>
        <time>2020-08-29T14:20:17Z</time>
      </trkpt>
      <trkpt lat="39.95319" lon="-.695339">
        <ele>1007.320</ele>
        <time>2020-08-29T14:20:18Z</time>
      </trkpt>
      <trkpt lat="39.953139" lon="-.695289">
        <ele>1007.382</ele>
        <time>2020-08-29T14:20:19Z</time>
      </trkpt>
      <trkpt lat="39.953084" lon="-.69523">
        <ele>1007.343</ele>
        <time>2020-08-29T14:20:20Z</time>
      </trkpt>
      <trkpt lat="39.953027" lon="-.695177">
        <ele>1007.317</ele>
        <time>2020-08-29T14:20:21Z</time>
      </trkpt>
      <trkpt lat="39.952975" lon="-.695117">
        <ele>1007.108</ele>
        <time>2020-08-29T14:20:22Z</time>
      </trkpt>
      <trkpt lat="39.952917" lon="-.695064">
        <ele>1006.563</ele>
        <time>2020-08-29T14:20:23Z</time>
      </trkpt>
      <trkpt lat="39.952866" lon="-.695013">
        <ele>1006.323</ele>
        <time>2020-08-29T14:20:24Z</time>
      </trkpt>
      <trkpt lat="39.952813" lon="-.69495">
        <ele>1006.385</ele>
        <time>2020-08-29T14:20:25Z</time>
      </trkpt>
      <trkpt lat="39.952762" lon="-.694891">
        <ele>1006.167</ele>
        <time>2020-08-29T14:20:26Z</time>
      </trkpt>
      <trkpt lat="39.95271" lon="-.694834">
        <ele>1005.935</ele>
        <time>2020-08-29T14:20:27Z</time>
      </trkpt>
      <trkpt lat="39.952656" lon="-.694783">
        <ele>1005.772</ele>
        <time>2020-08-29T14:20:28Z</time>
      </trkpt>
      <trkpt lat="39.952607" lon="-.694722">
        <ele>1005.240</ele>
        <time>2020-08-29T14:20:29Z</time>
      </trkpt>
      <trkpt lat="39.952559" lon="-.694666">
        <ele>1005.010</ele>
        <time>2020-08-29T14:20:30Z</time>
      </trkpt>
      <trkpt lat="39.952504" lon="-.694609">
        <ele>1004.988</ele>
        <time>2020-08-29T14:20:31Z</time>
      </trkpt>
      <trkpt lat="39.952455" lon="-.69455">
        <ele>1004.824</ele>
        <time>2020-08-29T14:20:32Z</time>
      </trkpt>
      <trkpt lat="39.952405" lon="-.694495">
        <ele>1004.626</ele>
        <time>2020-08-29T14:20:33Z</time>
      </trkpt>
      <trkpt lat="39.952356" lon="-.69444">
        <ele>1004.408</ele>
        <time>2020-08-29T14:20:34Z</time>
      </trkpt>
      <trkpt lat="39.952308" lon="-.694381">
        <ele>1004.293</ele>
        <time>2020-08-29T14:20:35Z</time>
      </trkpt>
      <trkpt lat="39.952264" lon="-.694329">
        <ele>1004.043</ele>
        <time>2020-08-29T14:20:36Z</time>
      </trkpt>
      <trkpt lat="39.952213" lon="-.694265">
        <ele>1003.895</ele>
        <time>2020-08-29T14:20:37Z</time>
      </trkpt>
      <trkpt lat="39.952163" lon="-.694208">
        <ele>1003.667</ele>
        <time>2020-08-29T14:20:38Z</time>
      </trkpt>
      <trkpt lat="39.952117" lon="-.694152">
        <ele>1003.425</ele>
        <time>2020-08-29T14:20:39Z</time>
      </trkpt>
      <trkpt lat="39.952062" lon="-.694097">
        <ele>1003.392</ele>
        <time>2020-08-29T14:20:40Z</time>
      </trkpt>
      <trkpt lat="39.952007" lon="-.694035">
        <ele>1003.120</ele>
        <time>2020-08-29T14:20:41Z</time>
      </trkpt>
      <trkpt lat="39.951953" lon="-.693966">
        <ele>1002.960</ele>
        <time>2020-08-29T14:20:42Z</time>
      </trkpt>
      <trkpt lat="39.951896" lon="-.693903">
        <ele>1002.839</ele>
        <time>2020-08-29T14:20:43Z</time>
      </trkpt>
      <trkpt lat="39.951849" lon="-.693842">
        <ele>1002.801</ele>
        <time>2020-08-29T14:20:44Z</time>
      </trkpt>
      <trkpt lat="39.951798" lon="-.693782">
        <ele>1002.821</ele>
        <time>2020-08-29T14:20:45Z</time>
      </trkpt>
      <trkpt lat="39.951742" lon="-.693723">
        <ele>1002.708</ele>
        <time>2020-08-29T14:20:46Z</time>
      </trkpt>
      <trkpt lat="39.951689" lon="-.693656">
        <ele>1002.458</ele>
        <time>2020-08-29T14:20:47Z</time>
      </trkpt>
      <trkpt lat="39.95164" lon="-.693596">
        <ele>1002.118</ele>
        <time>2020-08-29T14:20:48Z</time>
      </trkpt>
      <trkpt lat="39.951589" lon="-.693534">
        <ele>1001.990</ele>
        <time>2020-08-29T14:20:49Z</time>
      </trkpt>
      <trkpt lat="39.951535" lon="-.693482">
        <ele>1001.812</ele>
        <time>2020-08-29T14:20:50Z</time>
      </trkpt>
      <trkpt lat="39.951481" lon="-.693423">
        <ele>1001.790</ele>
        <time>2020-08-29T14:20:51Z</time>
      </trkpt>
      <trkpt lat="39.951429" lon="-.693361">
        <ele>1001.767</ele>
        <time>2020-08-29T14:20:52Z</time>
      </trkpt>
      <trkpt lat="39.951379" lon="-.693307">
        <ele>1001.755</ele>
        <time>2020-08-29T14:20:53Z</time>
      </trkpt>
      <trkpt lat="39.951319" lon="-.693247">
        <ele>1001.645</ele>
        <time>2020-08-29T14:20:54Z</time>
      </trkpt>
      <trkpt lat="39.951269" lon="-.69319">
        <ele>1001.697</ele>
        <time>2020-08-29T14:20:55Z</time>
      </trkpt>
      <trkpt lat="39.95121" lon="-.693136">
        <ele>1001.523</ele>
        <time>2020-08-29T14:20:56Z</time>
      </trkpt>
      <trkpt lat="39.95116" lon="-.693081">
        <ele>1001.525</ele>
        <time>2020-08-29T14:20:57Z</time>
      </trkpt>
      <trkpt lat="39.951109" lon="-.693023">
        <ele>1001.408</ele>
        <time>2020-08-29T14:20:58Z</time>
      </trkpt>
      <trkpt lat="39.951055" lon="-.692966">
        <ele>1001.344</ele>
        <time>2020-08-29T14:20:59Z</time>
      </trkpt>
      <trkpt lat="39.950998" lon="-.69291">
        <ele>1001.294</ele>
        <time>2020-08-29T14:21:00Z</time>
      </trkpt>
      <trkpt lat="39.950938" lon="-.692861">
        <ele>1001.126</ele>
        <time>2020-08-29T14:21:01Z</time>
      </trkpt>
      <trkpt lat="39.950881" lon="-.6928">
        <ele>1000.838</ele>
        <time>2020-08-29T14:21:02Z</time>
      </trkpt>
      <trkpt lat="39.950816" lon="-.692751">
        <ele>1000.536</ele>
        <time>2020-08-29T14:21:03Z</time>
      </trkpt>
      <trkpt lat="39.950751" lon="-.692698">
        <ele>1000.213</ele>
        <time>2020-08-29T14:21:04Z</time>
      </trkpt>
      <trkpt lat="39.950698" lon="-.692635">
        <ele>999.891</ele>
        <time>2020-08-29T14:21:05Z</time>
      </trkpt>
      <trkpt lat="39.950638" lon="-.69259">
        <ele>999.351</ele>
        <time>2020-08-29T14:21:06Z</time>
      </trkpt>
      <trkpt lat="39.950556" lon="-.692533">
        <ele>999.248</ele>
        <time>2020-08-29T14:21:07Z</time>
      </trkpt>
      <trkpt lat="39.950485" lon="-.692484">
        <ele>999.161</ele>
        <time>2020-08-29T14:21:08Z</time>
      </trkpt>
      <trkpt lat="39.950423" lon="-.692428">
        <ele>999.117</ele>
        <time>2020-08-29T14:21:09Z</time>
      </trkpt>
      <trkpt lat="39.950366" lon="-.69238">
        <ele>999.008</ele>
        <time>2020-08-29T14:21:10Z</time>
      </trkpt>
      <trkpt lat="39.950286" lon="-.692344">
        <ele>998.929</ele>
        <time>2020-08-29T14:21:11Z</time>
      </trkpt>
      <trkpt lat="39.950208" lon="-.692298">
        <ele>998.659</ele>
        <time>2020-08-29T14:21:12Z</time>
      </trkpt>
      <trkpt lat="39.950138" lon="-.692255">
        <ele>998.581</ele>
        <time>2020-08-29T14:21:13Z</time>
      </trkpt>
      <trkpt lat="39.950066" lon="-.692214">
        <ele>998.523</ele>
        <time>2020-08-29T14:21:14Z</time>
      </trkpt>
      <trkpt lat="39.949996" lon="-.692168">
        <ele>998.241</ele>
        <time>2020-08-29T14:21:15Z</time>
      </trkpt>
      <trkpt lat="39.949933" lon="-.692116">
        <ele>998.288</ele>
        <time>2020-08-29T14:21:16Z</time>
      </trkpt>
      <trkpt lat="39.949862" lon="-.692073">
        <ele>998.066</ele>
        <time>2020-08-29T14:21:17Z</time>
      </trkpt>
      <trkpt lat="39.949801" lon="-.692034">
        <ele>998.066</ele>
        <time>2020-08-29T14:21:18Z</time>
      </trkpt>
      <trkpt lat="39.949736" lon="-.691991">
        <ele>997.887</ele>
        <time>2020-08-29T14:21:19Z</time>
      </trkpt>
      <trkpt lat="39.949675" lon="-.691954">
        <ele>997.642</ele>
        <time>2020-08-29T14:21:20Z</time>
      </trkpt>
      <trkpt lat="39.949602" lon="-.691919">
        <ele>997.526</ele>
        <time>2020-08-29T14:21:21Z</time>
      </trkpt>
      <trkpt lat="39.949522" lon="-.691881">
        <ele>997.108</ele>
        <time>2020-08-29T14:21:22Z</time>
      </trkpt>
      <trkpt lat="39.94945" lon="-.691841">
        <ele>996.693</ele>
        <time>2020-08-29T14:21:23Z</time>
      </trkpt>
      <trkpt lat="39.949379" lon="-.691799">
        <ele>996.523</ele>
        <time>2020-08-29T14:21:24Z</time>
      </trkpt>
      <trkpt lat="39.949313" lon="-.69176">
        <ele>996.265</ele>
        <time>2020-08-29T14:21:25Z</time>
      </trkpt>
      <trkpt lat="39.949244" lon="-.69173">
        <ele>995.987</ele>
        <time>2020-08-29T14:21:26Z</time>
      </trkpt>
      <trkpt lat="39.949172" lon="-.691704">
        <ele>995.525</ele>
        <time>2020-08-29T14:21:27Z</time>
      </trkpt>
      <trkpt lat="39.949104" lon="-.691669">
        <ele>995.122</ele>
        <time>2020-08-29T14:21:28Z</time>
      </trkpt>
      <trkpt lat="39.949033" lon="-.691639">
        <ele>995.130</ele>
        <time>2020-08-29T14:21:29Z</time>
      </trkpt>
      <trkpt lat="39.948967" lon="-.691606">
        <ele>995.190</ele>
        <time>2020-08-29T14:21:30Z</time>
      </trkpt>
      <trkpt lat="39.948904" lon="-.691568">
        <ele>995.124</ele>
        <time>2020-08-29T14:21:31Z</time>
      </trkpt>
      <trkpt lat="39.948835" lon="-.69153">
        <ele>995.104</ele>
        <time>2020-08-29T14:21:32Z</time>
      </trkpt>
      <trkpt lat="39.948758" lon="-.691507">
        <ele>994.714</ele>
        <time>2020-08-29T14:21:33Z</time>
      </trkpt>
      <trkpt lat="39.948689" lon="-.691475">
        <ele>994.308</ele>
        <time>2020-08-29T14:21:34Z</time>
      </trkpt>
      <trkpt lat="39.948622" lon="-.69144">
        <ele>994.097</ele>
        <time>2020-08-29T14:21:35Z</time>
      </trkpt>
      <trkpt lat="39.94855" lon="-.691408">
        <ele>993.777</ele>
        <time>2020-08-29T14:21:36Z</time>
      </trkpt>
      <trkpt lat="39.948476" lon="-.691377">
        <ele>993.759</ele>
        <time>2020-08-29T14:21:37Z</time>
      </trkpt>
      <trkpt lat="39.948409" lon="-.691344">
        <ele>993.951</ele>
        <time>2020-08-29T14:21:38Z</time>
      </trkpt>
      <trkpt lat="39.948339" lon="-.691309">
        <ele>994.049</ele>
        <time>2020-08-29T14:21:39Z</time>
      </trkpt>
      <trkpt lat="39.948274" lon="-.691272">
        <ele>994.046</ele>
        <time>2020-08-29T14:21:40Z</time>
      </trkpt>
      <trkpt lat="39.94821" lon="-.691241">
        <ele>993.844</ele>
        <time>2020-08-29T14:21:41Z</time>
      </trkpt>
      <trkpt lat="39.948145" lon="-.691216">
        <ele>993.534</ele>
        <time>2020-08-29T14:21:42Z</time>
      </trkpt>
      <trkpt lat="39.948081" lon="-.69119">
        <ele>993.182</ele>
        <time>2020-08-29T14:21:43Z</time>
      </trkpt>
      <trkpt lat="39.948019" lon="-.691165">
        <ele>992.743</ele>
        <time>2020-08-29T14:21:44Z</time>
      </trkpt>
      <trkpt lat="39.947955" lon="-.691139">
        <ele>992.517</ele>
        <time>2020-08-29T14:21:45Z</time>
      </trkpt>
      <trkpt lat="39.947893" lon="-.691113">
        <ele>992.308</ele>
        <time>2020-08-29T14:21:46Z</time>
      </trkpt>
      <trkpt lat="39.947828" lon="-.691085">
        <ele>992.173</ele>
        <time>2020-08-29T14:21:47Z</time>
      </trkpt>
      <trkpt lat="39.947757" lon="-.691058">
        <ele>992.093</ele>
        <time>2020-08-29T14:21:48Z</time>
      </trkpt>
      <trkpt lat="39.94769" lon="-.691029">
        <ele>991.975</ele>
        <time>2020-08-29T14:21:49Z</time>
      </trkpt>
      <trkpt lat="39.947626" lon="-.691001">
        <ele>991.777</ele>
        <time>2020-08-29T14:21:50Z</time>
      </trkpt>
      <trkpt lat="39.947562" lon="-.690965">
        <ele>991.525</ele>
        <time>2020-08-29T14:21:51Z</time>
      </trkpt>
      <trkpt lat="39.947507" lon="-.690935">
        <ele>991.472</ele>
        <time>2020-08-29T14:21:52Z</time>
      </trkpt>
      <trkpt lat="39.947431" lon="-.69091">
        <ele>991.450</ele>
        <time>2020-08-29T14:21:53Z</time>
      </trkpt>
      <trkpt lat="39.947362" lon="-.690875">
        <ele>991.320</ele>
        <time>2020-08-29T14:21:54Z</time>
      </trkpt>
      <trkpt lat="39.947302" lon="-.690836">
        <ele>991.222</ele>
        <time>2020-08-29T14:21:55Z</time>
      </trkpt>
      <trkpt lat="39.947248" lon="-.690785">
        <ele>991.162</ele>
        <time>2020-08-29T14:21:56Z</time>
      </trkpt>
      <trkpt lat="39.947186" lon="-.690741">
        <ele>990.908</ele>
        <time>2020-08-29T14:21:57Z</time>
      </trkpt>
      <trkpt lat="39.947132" lon="-.690694">
        <ele>990.608</ele>
        <time>2020-08-29T14:21:58Z</time>
      </trkpt>
      <trkpt lat="39.947079" lon="-.690647">
        <ele>990.127</ele>
        <time>2020-08-29T14:21:59Z</time>
      </trkpt>
      <trkpt lat="39.947023" lon="-.690602">
        <ele>989.967</ele>
        <time>2020-08-29T14:22:00Z</time>
      </trkpt>
      <trkpt lat="39.946966" lon="-.690551">
        <ele>989.839</ele>
        <time>2020-08-29T14:22:01Z</time>
      </trkpt>
      <trkpt lat="39.946913" lon="-.690489">
        <ele>989.661</ele>
        <time>2020-08-29T14:22:02Z</time>
      </trkpt>
      <trkpt lat="39.94686" lon="-.690433">
        <ele>989.529</ele>
        <time>2020-08-29T14:22:03Z</time>
      </trkpt>
      <trkpt lat="39.946805" lon="-.690372">
        <ele>989.376</ele>
        <time>2020-08-29T14:22:04Z</time>
      </trkpt>
      <trkpt lat="39.94675" lon="-.690316">
        <ele>989.134</ele>
        <time>2020-08-29T14:22:05Z</time>
      </trkpt>
      <trkpt lat="39.946698" lon="-.690258">
        <ele>989.094</ele>
        <time>2020-08-29T14:22:06Z</time>
      </trkpt>
      <trkpt lat="39.946648" lon="-.690191">
        <ele>988.913</ele>
        <time>2020-08-29T14:22:07Z</time>
      </trkpt>
      <trkpt lat="39.946598" lon="-.690122">
        <ele>988.743</ele>
        <time>2020-08-29T14:22:08Z</time>
      </trkpt>
      <trkpt lat="39.946552" lon="-.690055">
        <ele>988.607</ele>
        <time>2020-08-29T14:22:09Z</time>
      </trkpt>
      <trkpt lat="39.946513" lon="-.689984">
        <ele>988.508</ele>
        <time>2020-08-29T14:22:10Z</time>
      </trkpt>
      <trkpt lat="39.946474" lon="-.689912">
        <ele>988.386</ele>
        <time>2020-08-29T14:22:11Z</time>
      </trkpt>
      <trkpt lat="39.946444" lon="-.689835">
        <ele>988.116</ele>
        <time>2020-08-29T14:22:12Z</time>
      </trkpt>
      <trkpt lat="39.946418" lon="-.689753">
        <ele>987.968</ele>
        <time>2020-08-29T14:22:13Z</time>
      </trkpt>
      <trkpt lat="39.946393" lon="-.689659">
        <ele>987.790</ele>
        <time>2020-08-29T14:22:14Z</time>
      </trkpt>
      <trkpt lat="39.946364" lon="-.689587">
        <ele>987.488</ele>
        <time>2020-08-29T14:22:15Z</time>
      </trkpt>
      <trkpt lat="39.946325" lon="-.689514">
        <ele>987.135</ele>
        <time>2020-08-29T14:22:16Z</time>
      </trkpt>
      <trkpt lat="39.946286" lon="-.68945">
        <ele>986.873</ele>
        <time>2020-08-29T14:22:17Z</time>
      </trkpt>
      <trkpt lat="39.946254" lon="-.689366">
        <ele>986.383</ele>
        <time>2020-08-29T14:22:18Z</time>
      </trkpt>
      <trkpt lat="39.94623" lon="-.689274">
        <ele>986.155</ele>
        <time>2020-08-29T14:22:19Z</time>
      </trkpt>
      <trkpt lat="39.946203" lon="-.689154">
        <ele>985.907</ele>
        <time>2020-08-29T14:22:20Z</time>
      </trkpt>
      <trkpt lat="39.946178" lon="-.689031">
        <ele>985.717</ele>
        <time>2020-08-29T14:22:21Z</time>
      </trkpt>
      <trkpt lat="39.946148" lon="-.688933">
        <ele>985.708</ele>
        <time>2020-08-29T14:22:22Z</time>
      </trkpt>
      <trkpt lat="39.94612" lon="-.688835">
        <ele>985.710</ele>
        <time>2020-08-29T14:22:23Z</time>
      </trkpt>
      <trkpt lat="39.946099" lon="-.688744">
        <ele>985.650</ele>
        <time>2020-08-29T14:22:24Z</time>
      </trkpt>
      <trkpt lat="39.946084" lon="-.688651">
        <ele>985.612</ele>
        <time>2020-08-29T14:22:25Z</time>
      </trkpt>
      <trkpt lat="39.946069" lon="-.688567">
        <ele>985.574</ele>
        <time>2020-08-29T14:22:26Z</time>
      </trkpt>
      <trkpt lat="39.946058" lon="-.688487">
        <ele>985.312</ele>
        <time>2020-08-29T14:22:27Z</time>
      </trkpt>
      <trkpt lat="39.94605" lon="-.688411">
        <ele>984.919</ele>
        <time>2020-08-29T14:22:28Z</time>
      </trkpt>
      <trkpt lat="39.946047" lon="-.688335">
        <ele>984.857</ele>
        <time>2020-08-29T14:22:29Z</time>
      </trkpt>
      <trkpt lat="39.946041" lon="-.688258">
        <ele>984.787</ele>
        <time>2020-08-29T14:22:30Z</time>
      </trkpt>
      <trkpt lat="39.946043" lon="-.688185">
        <ele>984.511</ele>
        <time>2020-08-29T14:22:31Z</time>
      </trkpt>
      <trkpt lat="39.946045" lon="-.688106">
        <ele>984.421</ele>
        <time>2020-08-29T14:22:32Z</time>
      </trkpt>
      <trkpt lat="39.946045" lon="-.688016">
        <ele>984.203</ele>
        <time>2020-08-29T14:22:33Z</time>
      </trkpt>
      <trkpt lat="39.946052" lon="-.687925">
        <ele>984.008</ele>
        <time>2020-08-29T14:22:34Z</time>
      </trkpt>
      <trkpt lat="39.946061" lon="-.687832">
        <ele>983.916</ele>
        <time>2020-08-29T14:22:35Z</time>
      </trkpt>
      <trkpt lat="39.946074" lon="-.687747">
        <ele>983.886</ele>
        <time>2020-08-29T14:22:36Z</time>
      </trkpt>
      <trkpt lat="39.946088" lon="-.687664">
        <ele>983.858</ele>
        <time>2020-08-29T14:22:37Z</time>
      </trkpt>
      <trkpt lat="39.9461" lon="-.68758">
        <ele>983.880</ele>
        <time>2020-08-29T14:22:38Z</time>
      </trkpt>
      <trkpt lat="39.94611" lon="-.687491">
        <ele>983.748</ele>
        <time>2020-08-29T14:22:39Z</time>
      </trkpt>
      <trkpt lat="39.946129" lon="-.687408">
        <ele>983.655</ele>
        <time>2020-08-29T14:22:40Z</time>
      </trkpt>
      <trkpt lat="39.946152" lon="-.687332">
        <ele>983.583</ele>
        <time>2020-08-29T14:22:41Z</time>
      </trkpt>
      <trkpt lat="39.946173" lon="-.687253">
        <ele>983.533</ele>
        <time>2020-08-29T14:22:42Z</time>
      </trkpt>
      <trkpt lat="39.946194" lon="-.687181">
        <ele>983.429</ele>
        <time>2020-08-29T14:22:43Z</time>
      </trkpt>
      <trkpt lat="39.946215" lon="-.687108">
        <ele>983.400</ele>
        <time>2020-08-29T14:22:44Z</time>
      </trkpt>
      <trkpt lat="39.946238" lon="-.68704">
        <ele>983.320</ele>
        <time>2020-08-29T14:22:45Z</time>
      </trkpt>
      <trkpt lat="39.946264" lon="-.686971">
        <ele>983.208</ele>
        <time>2020-08-29T14:22:46Z</time>
      </trkpt>
      <trkpt lat="39.946289" lon="-.686903">
        <ele>983.057</ele>
        <time>2020-08-29T14:22:47Z</time>
      </trkpt>
      <trkpt lat="39.946316" lon="-.686834">
        <ele>982.857</ele>
        <time>2020-08-29T14:22:48Z</time>
      </trkpt>
      <trkpt lat="39.946342" lon="-.686766">
        <ele>982.549</ele>
        <time>2020-08-29T14:22:49Z</time>
      </trkpt>
      <trkpt lat="39.946369" lon="-.686702">
        <ele>982.351</ele>
        <time>2020-08-29T14:22:50Z</time>
      </trkpt>
      <trkpt lat="39.946396" lon="-.686645">
        <ele>982.179</ele>
        <time>2020-08-29T14:22:51Z</time>
      </trkpt>
      <trkpt lat="39.946428" lon="-.68658">
        <ele>981.986</ele>
        <time>2020-08-29T14:22:52Z</time>
      </trkpt>
      <trkpt lat="39.946457" lon="-.686511">
        <ele>981.814</ele>
        <time>2020-08-29T14:22:53Z</time>
      </trkpt>
      <trkpt lat="39.94648" lon="-.686447">
        <ele>981.774</ele>
        <time>2020-08-29T14:22:54Z</time>
      </trkpt>
      <trkpt lat="39.946505" lon="-.686382">
        <ele>981.687</ele>
        <time>2020-08-29T14:22:55Z</time>
      </trkpt>
      <trkpt lat="39.946532" lon="-.686315">
        <ele>981.542</ele>
        <time>2020-08-29T14:22:56Z</time>
      </trkpt>
      <trkpt lat="39.946557" lon="-.686248">
        <ele>981.326</ele>
        <time>2020-08-29T14:22:57Z</time>
      </trkpt>
      <trkpt lat="39.946583" lon="-.686185">
        <ele>981.108</ele>
        <time>2020-08-29T14:22:58Z</time>
      </trkpt>
      <trkpt lat="39.946608" lon="-.68612">
        <ele>980.773</ele>
        <time>2020-08-29T14:22:59Z</time>
      </trkpt>
      <trkpt lat="39.94663" lon="-.686057">
        <ele>980.343</ele>
        <time>2020-08-29T14:23:00Z</time>
      </trkpt>
      <trkpt lat="39.946655" lon="-.685998">
        <ele>980.155</ele>
        <time>2020-08-29T14:23:01Z</time>
      </trkpt>
      <trkpt lat="39.946679" lon="-.685933">
        <ele>980.027</ele>
        <time>2020-08-29T14:23:02Z</time>
      </trkpt>
      <trkpt lat="39.946703" lon="-.685875">
        <ele>980.045</ele>
        <time>2020-08-29T14:23:03Z</time>
      </trkpt>
      <trkpt lat="39.946728" lon="-.685814">
        <ele>980.062</ele>
        <time>2020-08-29T14:23:04Z</time>
      </trkpt>
      <trkpt lat="39.946753" lon="-.685757">
        <ele>980.120</ele>
        <time>2020-08-29T14:23:05Z</time>
      </trkpt>
      <trkpt lat="39.946775" lon="-.685699">
        <ele>980.140</ele>
        <time>2020-08-29T14:23:06Z</time>
      </trkpt>
      <trkpt lat="39.946796" lon="-.685641">
        <ele>980.191</ele>
        <time>2020-08-29T14:23:07Z</time>
      </trkpt>
      <trkpt lat="39.946819" lon="-.685584">
        <ele>980.181</ele>
        <time>2020-08-29T14:23:08Z</time>
      </trkpt>
      <trkpt lat="39.94684" lon="-.685528">
        <ele>980.019</ele>
        <time>2020-08-29T14:23:09Z</time>
      </trkpt>
      <trkpt lat="39.946862" lon="-.68547">
        <ele>979.808</ele>
        <time>2020-08-29T14:23:10Z</time>
      </trkpt>
      <trkpt lat="39.946889" lon="-.685409">
        <ele>979.574</ele>
        <time>2020-08-29T14:23:11Z</time>
      </trkpt>
      <trkpt lat="39.946912" lon="-.685357">
        <ele>978.994</ele>
        <time>2020-08-29T14:23:12Z</time>
      </trkpt>
      <trkpt lat="39.946934" lon="-.685293">
        <ele>978.746</ele>
        <time>2020-08-29T14:23:13Z</time>
      </trkpt>
      <trkpt lat="39.946952" lon="-.685223">
        <ele>978.468</ele>
        <time>2020-08-29T14:23:14Z</time>
      </trkpt>
      <trkpt lat="39.946977" lon="-.685167">
        <ele>978.446</ele>
        <time>2020-08-29T14:23:15Z</time>
      </trkpt>
      <trkpt lat="39.947002" lon="-.685106">
        <ele>978.223</ele>
        <time>2020-08-29T14:23:16Z</time>
      </trkpt>
      <trkpt lat="39.947027" lon="-.685044">
        <ele>978.261</ele>
        <time>2020-08-29T14:23:17Z</time>
      </trkpt>
      <trkpt lat="39.947056" lon="-.684979">
        <ele>978.091</ele>
        <time>2020-08-29T14:23:18Z</time>
      </trkpt>
      <trkpt lat="39.947084" lon="-.68492">
        <ele>978.053</ele>
        <time>2020-08-29T14:23:19Z</time>
      </trkpt>
      <trkpt lat="39.947111" lon="-.684862">
        <ele>978.004</ele>
        <time>2020-08-29T14:23:20Z</time>
      </trkpt>
      <trkpt lat="39.94714" lon="-.684803">
        <ele>977.814</ele>
        <time>2020-08-29T14:23:21Z</time>
      </trkpt>
      <trkpt lat="39.947171" lon="-.684744">
        <ele>977.808</ele>
        <time>2020-08-29T14:23:22Z</time>
      </trkpt>
      <trkpt lat="39.947194" lon="-.684693">
        <ele>977.760</ele>
        <time>2020-08-29T14:23:23Z</time>
      </trkpt>
      <trkpt lat="39.94722" lon="-.684631">
        <ele>977.250</ele>
        <time>2020-08-29T14:23:24Z</time>
      </trkpt>
      <trkpt lat="39.947251" lon="-.68458">
        <ele>977.182</ele>
        <time>2020-08-29T14:23:25Z</time>
      </trkpt>
      <trkpt lat="39.947281" lon="-.684528">
        <ele>977.024</ele>
        <time>2020-08-29T14:23:26Z</time>
      </trkpt>
      <trkpt lat="39.947309" lon="-.684476">
        <ele>977.032</ele>
        <time>2020-08-29T14:23:27Z</time>
      </trkpt>
      <trkpt lat="39.94736" lon="-.684382">
        <ele>977.049</ele>
        <time>2020-08-29T14:23:29Z</time>
      </trkpt>
      <trkpt lat="39.947389" lon="-.68433">
        <ele>977.087</ele>
        <time>2020-08-29T14:23:30Z</time>
      </trkpt>
      <trkpt lat="39.947444" lon="-.684241">
        <ele>976.687</ele>
        <time>2020-08-29T14:23:32Z</time>
      </trkpt>
      <trkpt lat="39.947495" lon="-.684157">
        <ele>976.533</ele>
        <time>2020-08-29T14:23:34Z</time>
      </trkpt>
      <trkpt lat="39.947556" lon="-.684069">
        <ele>976.523</ele>
        <time>2020-08-29T14:23:36Z</time>
      </trkpt>
      <trkpt lat="39.947603" lon="-.683992">
        <ele>976.615</ele>
        <time>2020-08-29T14:23:38Z</time>
      </trkpt>
      <trkpt lat="39.947653" lon="-.683905">
        <ele>976.108</ele>
        <time>2020-08-29T14:23:40Z</time>
      </trkpt>
      <trkpt lat="39.947708" lon="-.683823">
        <ele>976.078</ele>
        <time>2020-08-29T14:23:42Z</time>
      </trkpt>
      <trkpt lat="39.947738" lon="-.683777">
        <ele>975.918</ele>
        <time>2020-08-29T14:23:43Z</time>
      </trkpt>
      <trkpt lat="39.947795" lon="-.683691">
        <ele>976.070</ele>
        <time>2020-08-29T14:23:45Z</time>
      </trkpt>
      <trkpt lat="39.947825" lon="-.683645">
        <ele>976.032</ele>
        <time>2020-08-29T14:23:46Z</time>
      </trkpt>
      <trkpt lat="39.947878" lon="-.683559">
        <ele>975.360</ele>
        <time>2020-08-29T14:23:48Z</time>
      </trkpt>
      <trkpt lat="39.947939" lon="-.683467">
        <ele>976.017</ele>
        <time>2020-08-29T14:23:50Z</time>
      </trkpt>
      <trkpt lat="39.947995" lon="-.68338">
        <ele>975.735</ele>
        <time>2020-08-29T14:23:52Z</time>
      </trkpt>
      <trkpt lat="39.94802" lon="-.683331">
        <ele>975.555</ele>
        <time>2020-08-29T14:23:53Z</time>
      </trkpt>
      <trkpt lat="39.948079" lon="-.683238">
        <ele>975.733</ele>
        <time>2020-08-29T14:23:55Z</time>
      </trkpt>
      <trkpt lat="39.948128" lon="-.683165">
        <ele>975.723</ele>
        <time>2020-08-29T14:23:57Z</time>
      </trkpt>
      <trkpt lat="39.948168" lon="-.683127">
        <ele>975.615</ele>
        <time>2020-08-29T14:23:58Z</time>
      </trkpt>
      <trkpt lat="39.948202" lon="-.683075">
        <ele>975.108</ele>
        <time>2020-08-29T14:23:59Z</time>
      </trkpt>
      <trkpt lat="39.948227" lon="-.683019">
        <ele>974.548</ele>
        <time>2020-08-29T14:24:00Z</time>
      </trkpt>
      <trkpt lat="39.948259" lon="-.682976">
        <ele>974.168</ele>
        <time>2020-08-29T14:24:01Z</time>
      </trkpt>
      <trkpt lat="39.948332" lon="-.682895">
        <ele>974.510</ele>
        <time>2020-08-29T14:24:03Z</time>
      </trkpt>
      <trkpt lat="39.94839" lon="-.682806">
        <ele>975.092</ele>
        <time>2020-08-29T14:24:05Z</time>
      </trkpt>
      <trkpt lat="39.948457" lon="-.682728">
        <ele>974.680</ele>
        <time>2020-08-29T14:24:07Z</time>
      </trkpt>
      <trkpt lat="39.948525" lon="-.682651">
        <ele>974.347</ele>
        <time>2020-08-29T14:24:09Z</time>
      </trkpt>
      <trkpt lat="39.948561" lon="-.682605">
        <ele>974.295</ele>
        <time>2020-08-29T14:24:10Z</time>
      </trkpt>
      <trkpt lat="39.948596" lon="-.682559">
        <ele>974.195</ele>
        <time>2020-08-29T14:24:11Z</time>
      </trkpt>
      <trkpt lat="39.948631" lon="-.682511">
        <ele>974.174</ele>
        <time>2020-08-29T14:24:12Z</time>
      </trkpt>
      <trkpt lat="39.948668" lon="-.682465">
        <ele>974.056</ele>
        <time>2020-08-29T14:24:13Z</time>
      </trkpt>
      <trkpt lat="39.948701" lon="-.682418">
        <ele>974.021</ele>
        <time>2020-08-29T14:24:14Z</time>
      </trkpt>
      <trkpt lat="39.94874" lon="-.682365">
        <ele>973.908</ele>
        <time>2020-08-29T14:24:15Z</time>
      </trkpt>
      <trkpt lat="39.948777" lon="-.682297">
        <ele>973.642</ele>
        <time>2020-08-29T14:24:16Z</time>
      </trkpt>
      <trkpt lat="39.948812" lon="-.68223">
        <ele>973.362</ele>
        <time>2020-08-29T14:24:17Z</time>
      </trkpt>
      <trkpt lat="39.948848" lon="-.68217">
        <ele>973.034</ele>
        <time>2020-08-29T14:24:18Z</time>
      </trkpt>
      <trkpt lat="39.948882" lon="-.682113">
        <ele>972.886</ele>
        <time>2020-08-29T14:24:19Z</time>
      </trkpt>
      <trkpt lat="39.948915" lon="-.682057">
        <ele>972.334</ele>
        <time>2020-08-29T14:24:20Z</time>
      </trkpt>
      <trkpt lat="39.948946" lon="-.682002">
        <ele>972.071</ele>
        <time>2020-08-29T14:24:21Z</time>
      </trkpt>
      <trkpt lat="39.948998" lon="-.681906">
        <ele>971.619</ele>
        <time>2020-08-29T14:24:23Z</time>
      </trkpt>
      <trkpt lat="39.949025" lon="-.681853">
        <ele>971.499</ele>
        <time>2020-08-29T14:24:24Z</time>
      </trkpt>
      <trkpt lat="39.94905" lon="-.681782">
        <ele>971.438</ele>
        <time>2020-08-29T14:24:25Z</time>
      </trkpt>
      <trkpt lat="39.949071" lon="-.681728">
        <ele>971.870</ele>
        <time>2020-08-29T14:24:26Z</time>
      </trkpt>
      <trkpt lat="39.949095" lon="-.681673">
        <ele>971.817</ele>
        <time>2020-08-29T14:24:27Z</time>
      </trkpt>
      <trkpt lat="39.94914" lon="-.68158">
        <ele>972.008</ele>
        <time>2020-08-29T14:24:29Z</time>
      </trkpt>
      <trkpt lat="39.949161" lon="-.681523">
        <ele>972.098</ele>
        <time>2020-08-29T14:24:30Z</time>
      </trkpt>
      <trkpt lat="39.949216" lon="-.681447">
        <ele>971.988</ele>
        <time>2020-08-29T14:24:32Z</time>
      </trkpt>
      <trkpt lat="39.949267" lon="-.681364">
        <ele>972.640</ele>
        <time>2020-08-29T14:24:34Z</time>
      </trkpt>
      <trkpt lat="39.949314" lon="-.68128">
        <ele>973.182</ele>
        <time>2020-08-29T14:24:36Z</time>
      </trkpt>
      <trkpt lat="39.949373" lon="-.681196">
        <ele>973.240</ele>
        <time>2020-08-29T14:24:38Z</time>
      </trkpt>
      <trkpt lat="39.949428" lon="-.681111">
        <ele>973.177</ele>
        <time>2020-08-29T14:24:40Z</time>
      </trkpt>
      <trkpt lat="39.949487" lon="-.681033">
        <ele>973.135</ele>
        <time>2020-08-29T14:24:42Z</time>
      </trkpt>
      <trkpt lat="39.949518" lon="-.680985">
        <ele>973.145</ele>
        <time>2020-08-29T14:24:43Z</time>
      </trkpt>
      <trkpt lat="39.949576" lon="-.680909">
        <ele>973.284</ele>
        <time>2020-08-29T14:24:45Z</time>
      </trkpt>
      <trkpt lat="39.949634" lon="-.680829">
        <ele>973.407</ele>
        <time>2020-08-29T14:24:47Z</time>
      </trkpt>
      <trkpt lat="39.949678" lon="-.680764">
        <ele>973.317</ele>
        <time>2020-08-29T14:24:49Z</time>
      </trkpt>
      <trkpt lat="39.949714" lon="-.680712">
        <ele>973.308</ele>
        <time>2020-08-29T14:24:50Z</time>
      </trkpt>
      <trkpt lat="39.949756" lon="-.680646">
        <ele>973.343</ele>
        <time>2020-08-29T14:24:51Z</time>
      </trkpt>
      <trkpt lat="39.949789" lon="-.680589">
        <ele>973.133</ele>
        <time>2020-08-29T14:24:52Z</time>
      </trkpt>
      <trkpt lat="39.949818" lon="-.680541">
        <ele>972.825</ele>
        <time>2020-08-29T14:24:53Z</time>
      </trkpt>
      <trkpt lat="39.94985" lon="-.680492">
        <ele>972.587</ele>
        <time>2020-08-29T14:24:54Z</time>
      </trkpt>
      <trkpt lat="39.949879" lon="-.680431">
        <ele>972.455</ele>
        <time>2020-08-29T14:24:55Z</time>
      </trkpt>
      <trkpt lat="39.949933" lon="-.680336">
        <ele>971.632</ele>
        <time>2020-08-29T14:24:57Z</time>
      </trkpt>
      <trkpt lat="39.949965" lon="-.680285">
        <ele>971.670</ele>
        <time>2020-08-29T14:24:58Z</time>
      </trkpt>
      <trkpt lat="39.949996" lon="-.68024">
        <ele>971.530</ele>
        <time>2020-08-29T14:24:59Z</time>
      </trkpt>
      <trkpt lat="39.950019" lon="-.680187">
        <ele>971.456</ele>
        <time>2020-08-29T14:25:00Z</time>
      </trkpt>
      <trkpt lat="39.950074" lon="-.680098">
        <ele>971.459</ele>
        <time>2020-08-29T14:25:02Z</time>
      </trkpt>
      <trkpt lat="39.950123" lon="-.680002">
        <ele>971.514</ele>
        <time>2020-08-29T14:25:04Z</time>
      </trkpt>
      <trkpt lat="39.950149" lon="-.679952">
        <ele>971.408</ele>
        <time>2020-08-29T14:25:05Z</time>
      </trkpt>
      <trkpt lat="39.950199" lon="-.679871">
        <ele>971.270</ele>
        <time>2020-08-29T14:25:07Z</time>
      </trkpt>
      <trkpt lat="39.950249" lon="-.679788">
        <ele>971.110</ele>
        <time>2020-08-29T14:25:09Z</time>
      </trkpt>
      <trkpt lat="39.950295" lon="-.679689">
        <ele>970.962</ele>
        <time>2020-08-29T14:25:11Z</time>
      </trkpt>
      <trkpt lat="39.950328" lon="-.679648">
        <ele>970.884</ele>
        <time>2020-08-29T14:25:12Z</time>
      </trkpt>
      <trkpt lat="39.950381" lon="-.679559">
        <ele>970.562</ele>
        <time>2020-08-29T14:25:14Z</time>
      </trkpt>
      <trkpt lat="39.950408" lon="-.679506">
        <ele>970.349</ele>
        <time>2020-08-29T14:25:15Z</time>
      </trkpt>
      <trkpt lat="39.950439" lon="-.679454">
        <ele>970.287</ele>
        <time>2020-08-29T14:25:16Z</time>
      </trkpt>
      <trkpt lat="39.950471" lon="-.679398">
        <ele>970.187</ele>
        <time>2020-08-29T14:25:17Z</time>
      </trkpt>
      <trkpt lat="39.950499" lon="-.679351">
        <ele>970.055</ele>
        <time>2020-08-29T14:25:18Z</time>
      </trkpt>
      <trkpt lat="39.95052" lon="-.679283">
        <ele>969.907</ele>
        <time>2020-08-29T14:25:19Z</time>
      </trkpt>
      <trkpt lat="39.950563" lon="-.679193">
        <ele>969.617</ele>
        <time>2020-08-29T14:25:21Z</time>
      </trkpt>
      <trkpt lat="39.950586" lon="-.679132">
        <ele>969.108</ele>
        <time>2020-08-29T14:25:22Z</time>
      </trkpt>
      <trkpt lat="39.95061" lon="-.679078">
        <ele>968.810</ele>
        <time>2020-08-29T14:25:23Z</time>
      </trkpt>
      <trkpt lat="39.950635" lon="-.679013">
        <ele>968.640</ele>
        <time>2020-08-29T14:25:24Z</time>
      </trkpt>
      <trkpt lat="39.950688" lon="-.678908">
        <ele>968.312</ele>
        <time>2020-08-29T14:25:26Z</time>
      </trkpt>
      <trkpt lat="39.950713" lon="-.678809">
        <ele>968.214</ele>
        <time>2020-08-29T14:25:28Z</time>
      </trkpt>
      <trkpt lat="39.950733" lon="-.678756">
        <ele>968.142</ele>
        <time>2020-08-29T14:25:29Z</time>
      </trkpt>
      <trkpt lat="39.950774" lon="-.678669">
        <ele>967.989</ele>
        <time>2020-08-29T14:25:31Z</time>
      </trkpt>
      <trkpt lat="39.950809" lon="-.678542">
        <ele>967.717</ele>
        <time>2020-08-29T14:25:33Z</time>
      </trkpt>
      <trkpt lat="39.950837" lon="-.678449">
        <ele>967.977</ele>
        <time>2020-08-29T14:25:35Z</time>
      </trkpt>
      <trkpt lat="39.950844" lon="-.678377">
        <ele>968.218</ele>
        <time>2020-08-29T14:25:36Z</time>
      </trkpt>
      <trkpt lat="39.950856" lon="-.678294">
        <ele>968.298</ele>
        <time>2020-08-29T14:25:37Z</time>
      </trkpt>
      <trkpt lat="39.950866" lon="-.678233">
        <ele>968.117</ele>
        <time>2020-08-29T14:25:38Z</time>
      </trkpt>
      <trkpt lat="39.950884" lon="-.678167">
        <ele>968.008</ele>
        <time>2020-08-29T14:25:39Z</time>
      </trkpt>
      <trkpt lat="39.950905" lon="-.67811">
        <ele>967.716</ele>
        <time>2020-08-29T14:25:40Z</time>
      </trkpt>
      <trkpt lat="39.950915" lon="-.678029">
        <ele>967.326</ele>
        <time>2020-08-29T14:25:41Z</time>
      </trkpt>
      <trkpt lat="39.950927" lon="-.677941">
        <ele>967.348</ele>
        <time>2020-08-29T14:25:42Z</time>
      </trkpt>
      <trkpt lat="39.950935" lon="-.67787">
        <ele>967.160</ele>
        <time>2020-08-29T14:25:43Z</time>
      </trkpt>
      <trkpt lat="39.950962" lon="-.677787">
        <ele>966.168</ele>
        <time>2020-08-29T14:25:44Z</time>
      </trkpt>
      <trkpt lat="39.950974" lon="-.67771">
        <ele>966.195</ele>
        <time>2020-08-29T14:25:45Z</time>
      </trkpt>
      <trkpt lat="39.95098" lon="-.677637">
        <ele>966.183</ele>
        <time>2020-08-29T14:25:46Z</time>
      </trkpt>
      <trkpt lat="39.950994" lon="-.677558">
        <ele>966.443</ele>
        <time>2020-08-29T14:25:47Z</time>
      </trkpt>
      <trkpt lat="39.951" lon="-.677477">
        <ele>966.415</ele>
        <time>2020-08-29T14:25:48Z</time>
      </trkpt>
      <trkpt lat="39.951015" lon="-.677409">
        <ele>966.465</ele>
        <time>2020-08-29T14:25:49Z</time>
      </trkpt>
      <trkpt lat="39.95102" lon="-.677335">
        <ele>966.811</ele>
        <time>2020-08-29T14:25:50Z</time>
      </trkpt>
      <trkpt lat="39.951031" lon="-.677263">
        <ele>966.808</ele>
        <time>2020-08-29T14:25:51Z</time>
      </trkpt>
      <trkpt lat="39.951031" lon="-.677195">
        <ele>966.326</ele>
        <time>2020-08-29T14:25:52Z</time>
      </trkpt>
      <trkpt lat="39.951033" lon="-.677128">
        <ele>966.246</ele>
        <time>2020-08-29T14:25:53Z</time>
      </trkpt>
      <trkpt lat="39.951034" lon="-.677057">
        <ele>966.198</ele>
        <time>2020-08-29T14:25:54Z</time>
      </trkpt>
      <trkpt lat="39.951036" lon="-.676982">
        <ele>966.170</ele>
        <time>2020-08-29T14:25:55Z</time>
      </trkpt>
      <trkpt lat="39.951028" lon="-.676901">
        <ele>965.928</ele>
        <time>2020-08-29T14:25:56Z</time>
      </trkpt>
      <trkpt lat="39.951034" lon="-.676812">
        <ele>965.915</ele>
        <time>2020-08-29T14:25:57Z</time>
      </trkpt>
      <trkpt lat="39.95103" lon="-.676725">
        <ele>966.033</ele>
        <time>2020-08-29T14:25:58Z</time>
      </trkpt>
      <trkpt lat="39.951024" lon="-.676641">
        <ele>966.013</ele>
        <time>2020-08-29T14:25:59Z</time>
      </trkpt>
      <trkpt lat="39.951011" lon="-.676544">
        <ele>965.935</ele>
        <time>2020-08-29T14:26:00Z</time>
      </trkpt>
      <trkpt lat="39.951002" lon="-.676456">
        <ele>965.386</ele>
        <time>2020-08-29T14:26:01Z</time>
      </trkpt>
      <trkpt lat="39.950983" lon="-.67637">
        <ele>965.314</ele>
        <time>2020-08-29T14:26:02Z</time>
      </trkpt>
      <trkpt lat="39.950973" lon="-.676286">
        <ele>965.308</ele>
        <time>2020-08-29T14:26:03Z</time>
      </trkpt>
      <trkpt lat="39.95096" lon="-.676199">
        <ele>964.918</ele>
        <time>2020-08-29T14:26:04Z</time>
      </trkpt>
      <trkpt lat="39.950944" lon="-.676115">
        <ele>964.768</ele>
        <time>2020-08-29T14:26:05Z</time>
      </trkpt>
      <trkpt lat="39.950937" lon="-.676029">
        <ele>964.140</ele>
        <time>2020-08-29T14:26:06Z</time>
      </trkpt>
      <trkpt lat="39.95092" lon="-.675941">
        <ele>964.112</ele>
        <time>2020-08-29T14:26:07Z</time>
      </trkpt>
      <trkpt lat="39.950899" lon="-.675854">
        <ele>964.180</ele>
        <time>2020-08-29T14:26:08Z</time>
      </trkpt>
      <trkpt lat="39.950879" lon="-.675776">
        <ele>963.767</ele>
        <time>2020-08-29T14:26:09Z</time>
      </trkpt>
      <trkpt lat="39.950872" lon="-.675689">
        <ele>963.345</ele>
        <time>2020-08-29T14:26:10Z</time>
      </trkpt>
      <trkpt lat="39.95086" lon="-.675612">
        <ele>963.315</ele>
        <time>2020-08-29T14:26:11Z</time>
      </trkpt>
      <trkpt lat="39.950829" lon="-.675523">
        <ele>963.518</ele>
        <time>2020-08-29T14:26:12Z</time>
      </trkpt>
      <trkpt lat="39.950804" lon="-.675441">
        <ele>963.598</ele>
        <time>2020-08-29T14:26:13Z</time>
      </trkpt>
      <trkpt lat="39.95078" lon="-.675345">
        <ele>962.817</ele>
        <time>2020-08-29T14:26:14Z</time>
      </trkpt>
      <trkpt lat="39.950754" lon="-.675262">
        <ele>962.808</ele>
        <time>2020-08-29T14:26:15Z</time>
      </trkpt>
      <trkpt lat="39.950737" lon="-.675191">
        <ele>962.746</ele>
        <time>2020-08-29T14:26:16Z</time>
      </trkpt>
      <trkpt lat="39.950701" lon="-.675094">
        <ele>962.586</ele>
        <time>2020-08-29T14:26:17Z</time>
      </trkpt>
      <trkpt lat="39.950668" lon="-.675008">
        <ele>962.428</ele>
        <time>2020-08-29T14:26:18Z</time>
      </trkpt>
      <trkpt lat="39.950637" lon="-.674937">
        <ele>962.020</ele>
        <time>2020-08-29T14:26:19Z</time>
      </trkpt>
      <trkpt lat="39.950608" lon="-.674859">
        <ele>961.838</ele>
        <time>2020-08-29T14:26:20Z</time>
      </trkpt>
      <trkpt lat="39.95057" lon="-.674793">
        <ele>961.425</ele>
        <time>2020-08-29T14:26:21Z</time>
      </trkpt>
      <trkpt lat="39.950552" lon="-.674727">
        <ele>961.193</ele>
        <time>2020-08-29T14:26:22Z</time>
      </trkpt>
      <trkpt lat="39.950539" lon="-.674649">
        <ele>960.993</ele>
        <time>2020-08-29T14:26:23Z</time>
      </trkpt>
      <trkpt lat="39.950517" lon="-.674579">
        <ele>960.867</ele>
        <time>2020-08-29T14:26:24Z</time>
      </trkpt>
      <trkpt lat="39.950469" lon="-.674501">
        <ele>960.681</ele>
        <time>2020-08-29T14:26:25Z</time>
      </trkpt>
      <trkpt lat="39.95042" lon="-.674432">
        <ele>960.619</ele>
        <time>2020-08-29T14:26:26Z</time>
      </trkpt>
      <trkpt lat="39.95037" lon="-.674364">
        <ele>960.408</ele>
        <time>2020-08-29T14:26:27Z</time>
      </trkpt>
      <trkpt lat="39.950314" lon="-.674302">
        <ele>960.371</ele>
        <time>2020-08-29T14:26:28Z</time>
      </trkpt>
      <trkpt lat="39.950262" lon="-.67424">
        <ele>960.321</ele>
        <time>2020-08-29T14:26:29Z</time>
      </trkpt>
      <trkpt lat="39.950204" lon="-.674168">
        <ele>960.323</ele>
        <time>2020-08-29T14:26:30Z</time>
      </trkpt>
      <trkpt lat="39.950145" lon="-.6741">
        <ele>960.265</ele>
        <time>2020-08-29T14:26:31Z</time>
      </trkpt>
      <trkpt lat="39.950111" lon="-.674045">
        <ele>960.053</ele>
        <time>2020-08-29T14:26:32Z</time>
      </trkpt>
      <trkpt lat="39.950057" lon="-.673979">
        <ele>959.850</ele>
        <time>2020-08-29T14:26:33Z</time>
      </trkpt>
      <trkpt lat="39.950006" lon="-.67391">
        <ele>959.568</ele>
        <time>2020-08-29T14:26:34Z</time>
      </trkpt>
      <trkpt lat="39.949946" lon="-.673848">
        <ele>959.418</ele>
        <time>2020-08-29T14:26:35Z</time>
      </trkpt>
      <trkpt lat="39.949904" lon="-.673788">
        <ele>959.314</ele>
        <time>2020-08-29T14:26:36Z</time>
      </trkpt>
      <trkpt lat="39.949849" lon="-.673713">
        <ele>959.254</ele>
        <time>2020-08-29T14:26:37Z</time>
      </trkpt>
      <trkpt lat="39.949799" lon="-.673633">
        <ele>959.009</ele>
        <time>2020-08-29T14:26:38Z</time>
      </trkpt>
      <trkpt lat="39.949741" lon="-.673583">
        <ele>959.008</ele>
        <time>2020-08-29T14:26:39Z</time>
      </trkpt>
      <trkpt lat="39.94968" lon="-.673534">
        <ele>958.496</ele>
        <time>2020-08-29T14:26:40Z</time>
      </trkpt>
      <trkpt lat="39.949626" lon="-.673464">
        <ele>958.376</ele>
        <time>2020-08-29T14:26:41Z</time>
      </trkpt>
      <trkpt lat="39.949567" lon="-.673401">
        <ele>958.158</ele>
        <time>2020-08-29T14:26:42Z</time>
      </trkpt>
      <trkpt lat="39.949514" lon="-.673327">
        <ele>957.760</ele>
        <time>2020-08-29T14:26:43Z</time>
      </trkpt>
      <trkpt lat="39.949459" lon="-.673276">
        <ele>957.748</ele>
        <time>2020-08-29T14:26:44Z</time>
      </trkpt>
      <trkpt lat="39.949403" lon="-.673226">
        <ele>957.935</ele>
        <time>2020-08-29T14:26:45Z</time>
      </trkpt>
      <trkpt lat="39.949358" lon="-.67318">
        <ele>957.923</ele>
        <time>2020-08-29T14:26:46Z</time>
      </trkpt>
      <trkpt lat="39.949297" lon="-.673129">
        <ele>957.853</ele>
        <time>2020-08-29T14:26:47Z</time>
      </trkpt>
      <trkpt lat="39.94923" lon="-.673095">
        <ele>957.652</ele>
        <time>2020-08-29T14:26:48Z</time>
      </trkpt>
      <trkpt lat="39.949164" lon="-.673053">
        <ele>957.553</ele>
        <time>2020-08-29T14:26:49Z</time>
      </trkpt>
      <trkpt lat="39.949097" lon="-.673002">
        <ele>957.008</ele>
        <time>2020-08-29T14:26:50Z</time>
      </trkpt>
      <trkpt lat="39.949046" lon="-.672937">
        <ele>956.808</ele>
        <time>2020-08-29T14:26:51Z</time>
      </trkpt>
      <trkpt lat="39.948985" lon="-.672887">
        <ele>956.870</ele>
        <time>2020-08-29T14:26:52Z</time>
      </trkpt>
      <trkpt lat="39.948908" lon="-.672865">
        <ele>956.680</ele>
        <time>2020-08-29T14:26:53Z</time>
      </trkpt>
      <trkpt lat="39.948842" lon="-.672826">
        <ele>956.642</ele>
        <time>2020-08-29T14:26:54Z</time>
      </trkpt>
      <trkpt lat="39.94878" lon="-.672789">
        <ele>956.394</ele>
        <time>2020-08-29T14:26:55Z</time>
      </trkpt>
      <trkpt lat="39.948711" lon="-.672761">
        <ele>955.552</ele>
        <time>2020-08-29T14:26:56Z</time>
      </trkpt>
      <trkpt lat="39.948642" lon="-.672739">
        <ele>955.489</ele>
        <time>2020-08-29T14:26:57Z</time>
      </trkpt>
      <trkpt lat="39.948578" lon="-.672722">
        <ele>955.267</ele>
        <time>2020-08-29T14:26:58Z</time>
      </trkpt>
      <trkpt lat="39.94851" lon="-.672699">
        <ele>955.177</ele>
        <time>2020-08-29T14:26:59Z</time>
      </trkpt>
      <trkpt lat="39.948447" lon="-.672674">
        <ele>955.197</ele>
        <time>2020-08-29T14:27:00Z</time>
      </trkpt>
      <trkpt lat="39.948382" lon="-.672651">
        <ele>955.123</ele>
        <time>2020-08-29T14:27:01Z</time>
      </trkpt>
      <trkpt lat="39.948323" lon="-.672631">
        <ele>954.925</ele>
        <time>2020-08-29T14:27:02Z</time>
      </trkpt>
      <trkpt lat="39.948257" lon="-.672617">
        <ele>954.708</ele>
        <time>2020-08-29T14:27:03Z</time>
      </trkpt>
      <trkpt lat="39.948198" lon="-.672592">
        <ele>954.654</ele>
        <time>2020-08-29T14:27:04Z</time>
      </trkpt>
      <trkpt lat="39.948135" lon="-.672577">
        <ele>954.544</ele>
        <time>2020-08-29T14:27:05Z</time>
      </trkpt>
      <trkpt lat="39.948073" lon="-.672561">
        <ele>954.486</ele>
        <time>2020-08-29T14:27:06Z</time>
      </trkpt>
      <trkpt lat="39.948008" lon="-.672548">
        <ele>954.268</ele>
        <time>2020-08-29T14:27:07Z</time>
      </trkpt>
      <trkpt lat="39.947941" lon="-.67254">
        <ele>954.096</ele>
        <time>2020-08-29T14:27:08Z</time>
      </trkpt>
      <trkpt lat="39.947873" lon="-.672535">
        <ele>953.853</ele>
        <time>2020-08-29T14:27:09Z</time>
      </trkpt>
      <trkpt lat="39.947809" lon="-.672528">
        <ele>953.641</ele>
        <time>2020-08-29T14:27:10Z</time>
      </trkpt>
      <trkpt lat="39.947748" lon="-.672512">
        <ele>953.441</ele>
        <time>2020-08-29T14:27:11Z</time>
      </trkpt>
      <trkpt lat="39.947681" lon="-.672506">
        <ele>953.448</ele>
        <time>2020-08-29T14:27:12Z</time>
      </trkpt>
      <trkpt lat="39.94761" lon="-.672513">
        <ele>953.461</ele>
        <time>2020-08-29T14:27:13Z</time>
      </trkpt>
      <trkpt lat="39.947543" lon="-.672516">
        <ele>953.417</ele>
        <time>2020-08-29T14:27:14Z</time>
      </trkpt>
      <trkpt lat="39.94746" lon="-.672521">
        <ele>952.708</ele>
        <time>2020-08-29T14:27:15Z</time>
      </trkpt>
      <trkpt lat="39.947386" lon="-.672534">
        <ele>952.699</ele>
        <time>2020-08-29T14:27:16Z</time>
      </trkpt>
      <trkpt lat="39.947316" lon="-.672534">
        <ele>952.589</ele>
        <time>2020-08-29T14:27:17Z</time>
      </trkpt>
      <trkpt lat="39.947244" lon="-.672535">
        <ele>952.041</ele>
        <time>2020-08-29T14:27:18Z</time>
      </trkpt>
      <trkpt lat="39.947169" lon="-.672542">
        <ele>951.643</ele>
        <time>2020-08-29T14:27:19Z</time>
      </trkpt>
      <trkpt lat="39.947092" lon="-.672551">
        <ele>951.671</ele>
        <time>2020-08-29T14:27:20Z</time>
      </trkpt>
      <trkpt lat="39.947018" lon="-.672552">
        <ele>951.368</ele>
        <time>2020-08-29T14:27:21Z</time>
      </trkpt>
      <trkpt lat="39.946945" lon="-.672557">
        <ele>951.196</ele>
        <time>2020-08-29T14:27:22Z</time>
      </trkpt>
      <trkpt lat="39.946874" lon="-.672563">
        <ele>950.936</ele>
        <time>2020-08-29T14:27:23Z</time>
      </trkpt>
      <trkpt lat="39.946797" lon="-.672568">
        <ele>950.712</ele>
        <time>2020-08-29T14:27:24Z</time>
      </trkpt>
      <trkpt lat="39.946728" lon="-.672576">
        <ele>950.532</ele>
        <time>2020-08-29T14:27:25Z</time>
      </trkpt>
      <trkpt lat="39.946657" lon="-.67259">
        <ele>950.405</ele>
        <time>2020-08-29T14:27:26Z</time>
      </trkpt>
      <trkpt lat="39.946586" lon="-.672596">
        <ele>950.208</ele>
        <time>2020-08-29T14:27:27Z</time>
      </trkpt>
      <trkpt lat="39.946511" lon="-.672595">
        <ele>950.146</ele>
        <time>2020-08-29T14:27:28Z</time>
      </trkpt>
      <trkpt lat="39.946443" lon="-.672591">
        <ele>950.176</ele>
        <time>2020-08-29T14:27:29Z</time>
      </trkpt>
      <trkpt lat="39.946371" lon="-.672604">
        <ele>950.028</ele>
        <time>2020-08-29T14:27:30Z</time>
      </trkpt>
      <trkpt lat="39.946297" lon="-.67261">
        <ele>949.820</ele>
        <time>2020-08-29T14:27:31Z</time>
      </trkpt>
      <trkpt lat="39.946228" lon="-.672612">
        <ele>949.728</ele>
        <time>2020-08-29T14:27:32Z</time>
      </trkpt>
      <trkpt lat="39.946152" lon="-.672613">
        <ele>949.435</ele>
        <time>2020-08-29T14:27:33Z</time>
      </trkpt>
      <trkpt lat="39.946074" lon="-.672611">
        <ele>949.393</ele>
        <time>2020-08-29T14:27:34Z</time>
      </trkpt>
      <trkpt lat="39.946007" lon="-.672614">
        <ele>949.283</ele>
        <time>2020-08-29T14:27:35Z</time>
      </trkpt>
      <trkpt lat="39.945932" lon="-.672639">
        <ele>949.159</ele>
        <time>2020-08-29T14:27:36Z</time>
      </trkpt>
      <trkpt lat="39.945865" lon="-.672641">
        <ele>949.003</ele>
        <time>2020-08-29T14:27:37Z</time>
      </trkpt>
      <trkpt lat="39.945799" lon="-.672637">
        <ele>948.923</ele>
        <time>2020-08-29T14:27:38Z</time>
      </trkpt>
      <trkpt lat="39.945727" lon="-.672639">
        <ele>948.808</ele>
        <time>2020-08-29T14:27:39Z</time>
      </trkpt>
      <trkpt lat="39.945651" lon="-.672655">
        <ele>948.830</ele>
        <time>2020-08-29T14:27:40Z</time>
      </trkpt>
      <trkpt lat="39.945583" lon="-.672656">
        <ele>948.860</ele>
        <time>2020-08-29T14:27:41Z</time>
      </trkpt>
      <trkpt lat="39.945515" lon="-.672651">
        <ele>948.882</ele>
        <time>2020-08-29T14:27:42Z</time>
      </trkpt>
      <trkpt lat="39.94544" lon="-.672667">
        <ele>948.854</ele>
        <time>2020-08-29T14:27:43Z</time>
      </trkpt>
      <trkpt lat="39.945375" lon="-.672665">
        <ele>948.782</ele>
        <time>2020-08-29T14:27:44Z</time>
      </trkpt>
      <trkpt lat="39.945309" lon="-.672667">
        <ele>948.419</ele>
        <time>2020-08-29T14:27:45Z</time>
      </trkpt>
      <trkpt lat="39.945241" lon="-.672658">
        <ele>948.047</ele>
        <time>2020-08-29T14:27:46Z</time>
      </trkpt>
      <trkpt lat="39.945165" lon="-.67265">
        <ele>947.657</ele>
        <time>2020-08-29T14:27:47Z</time>
      </trkpt>
      <trkpt lat="39.945094" lon="-.672636">
        <ele>947.264</ele>
        <time>2020-08-29T14:27:48Z</time>
      </trkpt>
      <trkpt lat="39.945025" lon="-.672635">
        <ele>946.906</ele>
        <time>2020-08-29T14:27:49Z</time>
      </trkpt>
      <trkpt lat="39.944959" lon="-.672618">
        <ele>946.716</ele>
        <time>2020-08-29T14:27:50Z</time>
      </trkpt>
      <trkpt lat="39.944883" lon="-.672607">
        <ele>946.508</ele>
        <time>2020-08-29T14:27:51Z</time>
      </trkpt>
      <trkpt lat="39.944821" lon="-.672581">
        <ele>946.441</ele>
        <time>2020-08-29T14:27:52Z</time>
      </trkpt>
      <trkpt lat="39.944755" lon="-.672554">
        <ele>946.061</ele>
        <time>2020-08-29T14:27:53Z</time>
      </trkpt>
      <trkpt lat="39.944682" lon="-.672535">
        <ele>945.823</ele>
        <time>2020-08-29T14:27:54Z</time>
      </trkpt>
      <trkpt lat="39.944608" lon="-.672509">
        <ele>945.675</ele>
        <time>2020-08-29T14:27:55Z</time>
      </trkpt>
      <trkpt lat="39.944533" lon="-.672477">
        <ele>945.383</ele>
        <time>2020-08-29T14:27:56Z</time>
      </trkpt>
      <trkpt lat="39.944465" lon="-.672444">
        <ele>945.220</ele>
        <time>2020-08-29T14:27:57Z</time>
      </trkpt>
      <trkpt lat="39.944401" lon="-.672411">
        <ele>945.118</ele>
        <time>2020-08-29T14:27:58Z</time>
      </trkpt>
      <trkpt lat="39.944349" lon="-.672373">
        <ele>945.168</ele>
        <time>2020-08-29T14:27:59Z</time>
      </trkpt>
      <trkpt lat="39.944306" lon="-.672328">
        <ele>945.029</ele>
        <time>2020-08-29T14:28:00Z</time>
      </trkpt>
      <trkpt lat="39.944226" lon="-.672295">
        <ele>944.800</ele>
        <time>2020-08-29T14:28:01Z</time>
      </trkpt>
      <trkpt lat="39.944146" lon="-.672263">
        <ele>944.620</ele>
        <time>2020-08-29T14:28:02Z</time>
      </trkpt>
      <trkpt lat="39.94407" lon="-.672225">
        <ele>944.408</ele>
        <time>2020-08-29T14:28:03Z</time>
      </trkpt>
      <trkpt lat="39.944001" lon="-.672184">
        <ele>944.247</ele>
        <time>2020-08-29T14:28:04Z</time>
      </trkpt>
      <trkpt lat="39.943944" lon="-.672127">
        <ele>944.257</ele>
        <time>2020-08-29T14:28:05Z</time>
      </trkpt>
      <trkpt lat="39.943884" lon="-.672075">
        <ele>944.139</ele>
        <time>2020-08-29T14:28:06Z</time>
      </trkpt>
      <trkpt lat="39.943832" lon="-.672031">
        <ele>944.051</ele>
        <time>2020-08-29T14:28:07Z</time>
      </trkpt>
      <trkpt lat="39.943773" lon="-.671993">
        <ele>943.829</ele>
        <time>2020-08-29T14:28:08Z</time>
      </trkpt>
      <trkpt lat="39.943722" lon="-.671947">
        <ele>943.656</ele>
        <time>2020-08-29T14:28:09Z</time>
      </trkpt>
      <trkpt lat="39.943665" lon="-.67191">
        <ele>942.754</ele>
        <time>2020-08-29T14:28:10Z</time>
      </trkpt>
      <trkpt lat="39.943601" lon="-.671847">
        <ele>942.524</ele>
        <time>2020-08-29T14:28:11Z</time>
      </trkpt>
      <trkpt lat="39.943556" lon="-.671802">
        <ele>942.326</ele>
        <time>2020-08-29T14:28:12Z</time>
      </trkpt>
      <trkpt lat="39.943513" lon="-.671747">
        <ele>942.347</ele>
        <time>2020-08-29T14:28:13Z</time>
      </trkpt>
      <trkpt lat="39.94345" lon="-.671686">
        <ele>942.411</ele>
        <time>2020-08-29T14:28:14Z</time>
      </trkpt>
      <trkpt lat="39.943407" lon="-.671636">
        <ele>942.408</ele>
        <time>2020-08-29T14:28:15Z</time>
      </trkpt>
      <trkpt lat="39.943365" lon="-.671575">
        <ele>942.157</ele>
        <time>2020-08-29T14:28:16Z</time>
      </trkpt>
      <trkpt lat="39.943309" lon="-.671511">
        <ele>942.067</ele>
        <time>2020-08-29T14:28:17Z</time>
      </trkpt>
      <trkpt lat="39.943262" lon="-.671445">
        <ele>942.049</ele>
        <time>2020-08-29T14:28:18Z</time>
      </trkpt>
      <trkpt lat="39.943222" lon="-.671383">
        <ele>942.091</ele>
        <time>2020-08-29T14:28:19Z</time>
      </trkpt>
      <trkpt lat="39.943176" lon="-.671326">
        <ele>942.029</ele>
        <time>2020-08-29T14:28:20Z</time>
      </trkpt>
      <trkpt lat="39.943125" lon="-.671266">
        <ele>942.076</ele>
        <time>2020-08-29T14:28:21Z</time>
      </trkpt>
      <trkpt lat="39.943078" lon="-.671195">
        <ele>942.124</ele>
        <time>2020-08-29T14:28:22Z</time>
      </trkpt>
      <trkpt lat="39.943052" lon="-.671122">
        <ele>942.244</ele>
        <time>2020-08-29T14:28:23Z</time>
      </trkpt>
      <trkpt lat="39.943011" lon="-.671061">
        <ele>942.121</ele>
        <time>2020-08-29T14:28:24Z</time>
      </trkpt>
      <trkpt lat="39.942968" lon="-.670991">
        <ele>942.141</ele>
        <time>2020-08-29T14:28:25Z</time>
      </trkpt>
      <trkpt lat="39.942928" lon="-.670923">
        <ele>942.105</ele>
        <time>2020-08-29T14:28:26Z</time>
      </trkpt>
      <trkpt lat="39.942897" lon="-.670856">
        <ele>941.708</ele>
        <time>2020-08-29T14:28:27Z</time>
      </trkpt>
      <trkpt lat="39.942865" lon="-.670793">
        <ele>941.387</ele>
        <time>2020-08-29T14:28:28Z</time>
      </trkpt>
      <trkpt lat="39.942832" lon="-.670719">
        <ele>940.857</ele>
        <time>2020-08-29T14:28:29Z</time>
      </trkpt>
      <trkpt lat="39.942796" lon="-.670648">
        <ele>940.449</ele>
        <time>2020-08-29T14:28:30Z</time>
      </trkpt>
      <trkpt lat="39.942765" lon="-.670574">
        <ele>940.131</ele>
        <time>2020-08-29T14:28:31Z</time>
      </trkpt>
      <trkpt lat="39.942736" lon="-.670503">
        <ele>939.939</ele>
        <time>2020-08-29T14:28:32Z</time>
      </trkpt>
      <trkpt lat="39.942703" lon="-.670428">
        <ele>939.956</ele>
        <time>2020-08-29T14:28:33Z</time>
      </trkpt>
      <trkpt lat="39.942678" lon="-.670355">
        <ele>939.924</ele>
        <time>2020-08-29T14:28:34Z</time>
      </trkpt>
      <trkpt lat="39.942652" lon="-.67028">
        <ele>939.854</ele>
        <time>2020-08-29T14:28:35Z</time>
      </trkpt>
      <trkpt lat="39.942633" lon="-.670201">
        <ele>939.616</ele>
        <time>2020-08-29T14:28:36Z</time>
      </trkpt>
      <trkpt lat="39.942614" lon="-.670125">
        <ele>939.476</ele>
        <time>2020-08-29T14:28:37Z</time>
      </trkpt>
      <trkpt lat="39.942592" lon="-.670045">
        <ele>939.113</ele>
        <time>2020-08-29T14:28:38Z</time>
      </trkpt>
      <trkpt lat="39.942575" lon="-.669973">
        <ele>938.808</ele>
        <time>2020-08-29T14:28:39Z</time>
      </trkpt>
      <trkpt lat="39.94255" lon="-.669899">
        <ele>938.666</ele>
        <time>2020-08-29T14:28:40Z</time>
      </trkpt>
      <trkpt lat="39.942538" lon="-.669824">
        <ele>938.476</ele>
        <time>2020-08-29T14:28:41Z</time>
      </trkpt>
      <trkpt lat="39.942524" lon="-.669745">
        <ele>938.238</ele>
        <time>2020-08-29T14:28:42Z</time>
      </trkpt>
      <trkpt lat="39.942504" lon="-.669664">
        <ele>938.110</ele>
        <time>2020-08-29T14:28:43Z</time>
      </trkpt>
      <trkpt lat="39.94249" lon="-.669585">
        <ele>938.148</ele>
        <time>2020-08-29T14:28:44Z</time>
      </trkpt>
      <trkpt lat="39.942475" lon="-.66951">
        <ele>938.015</ele>
        <time>2020-08-29T14:28:45Z</time>
      </trkpt>
      <trkpt lat="39.942467" lon="-.669434">
        <ele>937.913</ele>
        <time>2020-08-29T14:28:46Z</time>
      </trkpt>
      <trkpt lat="39.94246" lon="-.669357">
        <ele>937.893</ele>
        <time>2020-08-29T14:28:47Z</time>
      </trkpt>
      <trkpt lat="39.942461" lon="-.669296">
        <ele>937.727</ele>
        <time>2020-08-29T14:28:48Z</time>
      </trkpt>
      <trkpt lat="39.942454" lon="-.669206">
        <ele>937.568</ele>
        <time>2020-08-29T14:28:49Z</time>
      </trkpt>
      <trkpt lat="39.942449" lon="-.669133">
        <ele>937.314</ele>
        <time>2020-08-29T14:28:50Z</time>
      </trkpt>
      <trkpt lat="39.942439" lon="-.669065">
        <ele>936.808</ele>
        <time>2020-08-29T14:28:51Z</time>
      </trkpt>
      <trkpt lat="39.942468" lon="-.668986">
        <ele>936.417</ele>
        <time>2020-08-29T14:28:53Z</time>
      </trkpt>
      <trkpt lat="39.942475" lon="-.668859">
        <ele>936.327</ele>
        <time>2020-08-29T14:28:55Z</time>
      </trkpt>
      <trkpt lat="39.94247" lon="-.668751">
        <ele>936.369</ele>
        <time>2020-08-29T14:28:56Z</time>
      </trkpt>
      <trkpt lat="39.942471" lon="-.668678">
        <ele>935.981</ele>
        <time>2020-08-29T14:28:57Z</time>
      </trkpt>
      <trkpt lat="39.94247" lon="-.66859">
        <ele>935.969</ele>
        <time>2020-08-29T14:28:58Z</time>
      </trkpt>
      <trkpt lat="39.942478" lon="-.668519">
        <ele>935.926</ele>
        <time>2020-08-29T14:28:59Z</time>
      </trkpt>
      <trkpt lat="39.94249" lon="-.668442">
        <ele>936.014</ele>
        <time>2020-08-29T14:29:00Z</time>
      </trkpt>
      <trkpt lat="39.942495" lon="-.668364">
        <ele>936.024</ele>
        <time>2020-08-29T14:29:01Z</time>
      </trkpt>
      <trkpt lat="39.9425" lon="-.668284">
        <ele>936.265</ele>
        <time>2020-08-29T14:29:02Z</time>
      </trkpt>
      <trkpt lat="39.94251" lon="-.668217">
        <ele>936.968</ele>
        <time>2020-08-29T14:29:03Z</time>
      </trkpt>
      <trkpt lat="39.942522" lon="-.668146">
        <ele>936.914</ele>
        <time>2020-08-29T14:29:04Z</time>
      </trkpt>
      <trkpt lat="39.942529" lon="-.668066">
        <ele>936.508</ele>
        <time>2020-08-29T14:29:05Z</time>
      </trkpt>
      <trkpt lat="39.942548" lon="-.667991">
        <ele>936.221</ele>
        <time>2020-08-29T14:29:06Z</time>
      </trkpt>
      <trkpt lat="39.942556" lon="-.667913">
        <ele>936.141</ele>
        <time>2020-08-29T14:29:07Z</time>
      </trkpt>
      <trkpt lat="39.942573" lon="-.667829">
        <ele>935.963</ele>
        <time>2020-08-29T14:29:08Z</time>
      </trkpt>
      <trkpt lat="39.942593" lon="-.667769">
        <ele>934.635</ele>
        <time>2020-08-29T14:29:09Z</time>
      </trkpt>
      <trkpt lat="39.942614" lon="-.667709">
        <ele>934.663</ele>
        <time>2020-08-29T14:29:10Z</time>
      </trkpt>
      <trkpt lat="39.942634" lon="-.667625">
        <ele>934.660</ele>
        <time>2020-08-29T14:29:11Z</time>
      </trkpt>
      <trkpt lat="39.942653" lon="-.667547">
        <ele>934.598</ele>
        <time>2020-08-29T14:29:12Z</time>
      </trkpt>
      <trkpt lat="39.942674" lon="-.667468">
        <ele>934.538</ele>
        <time>2020-08-29T14:29:13Z</time>
      </trkpt>
      <trkpt lat="39.942695" lon="-.667405">
        <ele>934.578</ele>
        <time>2020-08-29T14:29:14Z</time>
      </trkpt>
      <trkpt lat="39.942714" lon="-.667332">
        <ele>934.533</ele>
        <time>2020-08-29T14:29:15Z</time>
      </trkpt>
      <trkpt lat="39.942755" lon="-.667263">
        <ele>934.126</ele>
        <time>2020-08-29T14:29:16Z</time>
      </trkpt>
      <trkpt lat="39.94279" lon="-.667191">
        <ele>934.108</ele>
        <time>2020-08-29T14:29:17Z</time>
      </trkpt>
      <trkpt lat="39.942821" lon="-.667104">
        <ele>934.182</ele>
        <time>2020-08-29T14:29:18Z</time>
      </trkpt>
      <trkpt lat="39.942842" lon="-.667027">
        <ele>934.152</ele>
        <time>2020-08-29T14:29:19Z</time>
      </trkpt>
      <trkpt lat="39.942873" lon="-.666961">
        <ele>933.964</ele>
        <time>2020-08-29T14:29:20Z</time>
      </trkpt>
      <trkpt lat="39.942908" lon="-.666889">
        <ele>933.916</ele>
        <time>2020-08-29T14:29:21Z</time>
      </trkpt>
      <trkpt lat="39.94294" lon="-.666821">
        <ele>933.794</ele>
        <time>2020-08-29T14:29:22Z</time>
      </trkpt>
      <trkpt lat="39.942973" lon="-.666757">
        <ele>932.931</ele>
        <time>2020-08-29T14:29:23Z</time>
      </trkpt>
      <trkpt lat="39.943013" lon="-.66668">
        <ele>932.929</ele>
        <time>2020-08-29T14:29:24Z</time>
      </trkpt>
      <trkpt lat="39.943072" lon="-.666552">
        <ele>932.989</ele>
        <time>2020-08-29T14:29:26Z</time>
      </trkpt>
      <trkpt lat="39.943106" lon="-.666484">
        <ele>932.982</ele>
        <time>2020-08-29T14:29:27Z</time>
      </trkpt>
      <trkpt lat="39.943146" lon="-.666417">
        <ele>932.843</ele>
        <time>2020-08-29T14:29:28Z</time>
      </trkpt>
      <trkpt lat="39.943183" lon="-.666359">
        <ele>932.717</ele>
        <time>2020-08-29T14:29:29Z</time>
      </trkpt>
      <trkpt lat="39.943223" lon="-.666293">
        <ele>932.708</ele>
        <time>2020-08-29T14:29:30Z</time>
      </trkpt>
      <trkpt lat="39.94326" lon="-.666229">
        <ele>932.593</ele>
        <time>2020-08-29T14:29:31Z</time>
      </trkpt>
      <trkpt lat="39.9433" lon="-.666159">
        <ele>932.523</ele>
        <time>2020-08-29T14:29:32Z</time>
      </trkpt>
      <trkpt lat="39.943333" lon="-.666118">
        <ele>932.625</ele>
        <time>2020-08-29T14:29:33Z</time>
      </trkpt>
      <trkpt lat="39.943369" lon="-.666078">
        <ele>932.657</ele>
        <time>2020-08-29T14:29:34Z</time>
      </trkpt>
      <trkpt lat="39.943425" lon="-.665963">
        <ele>931.275</ele>
        <time>2020-08-29T14:29:36Z</time>
      </trkpt>
      <trkpt lat="39.943447" lon="-.665904">
        <ele>930.892</ele>
        <time>2020-08-29T14:29:37Z</time>
      </trkpt>
      <trkpt lat="39.94347" lon="-.665819">
        <ele>930.150</ele>
        <time>2020-08-29T14:29:39Z</time>
      </trkpt>
      <trkpt lat="39.943495" lon="-.665756">
        <ele>929.590</ele>
        <time>2020-08-29T14:29:42Z</time>
      </trkpt>
      <trkpt lat="39.943502" lon="-.665687">
        <ele>929.021</ele>
        <time>2020-08-29T14:31:24Z</time>
      </trkpt>
      <trkpt lat="39.943553" lon="-.665655">
        <ele>929.441</ele>
        <time>2020-08-29T14:31:53Z</time>
      </trkpt>
      <trkpt lat="39.943581" lon="-.665601">
        <ele>927.905</ele>
        <time>2020-08-29T14:31:56Z</time>
      </trkpt>
      <trkpt lat="39.943618" lon="-.665551">
        <ele>927.608</ele>
        <time>2020-08-29T14:31:58Z</time>
      </trkpt>
      <trkpt lat="39.943672" lon="-.665487">
        <ele>928.487</ele>
        <time>2020-08-29T14:32:00Z</time>
      </trkpt>
      <trkpt lat="39.943721" lon="-.66541">
        <ele>930.257</ele>
        <time>2020-08-29T14:32:02Z</time>
      </trkpt>
      <trkpt lat="39.943769" lon="-.665338">
        <ele>929.219</ele>
        <time>2020-08-29T14:32:04Z</time>
      </trkpt>
      <trkpt lat="39.943821" lon="-.665269">
        <ele>929.271</ele>
        <time>2020-08-29T14:32:06Z</time>
      </trkpt>
      <trkpt lat="39.943873" lon="-.665196">
        <ele>928.739</ele>
        <time>2020-08-29T14:32:08Z</time>
      </trkpt>
      <trkpt lat="39.943926" lon="-.66512">
        <ele>928.216</ele>
        <time>2020-08-29T14:32:10Z</time>
      </trkpt>
      <trkpt lat="39.943979" lon="-.665038">
        <ele>927.514</ele>
        <time>2020-08-29T14:32:12Z</time>
      </trkpt>
      <trkpt lat="39.944031" lon="-.664963">
        <ele>927.484</ele>
        <time>2020-08-29T14:32:14Z</time>
      </trkpt>
      <trkpt lat="39.944085" lon="-.664884">
        <ele>927.422</ele>
        <time>2020-08-29T14:32:16Z</time>
      </trkpt>
      <trkpt lat="39.944136" lon="-.664803">
        <ele>927.462</ele>
        <time>2020-08-29T14:32:18Z</time>
      </trkpt>
      <trkpt lat="39.944191" lon="-.664722">
        <ele>927.008</ele>
        <time>2020-08-29T14:32:20Z</time>
      </trkpt>
      <trkpt lat="39.944242" lon="-.664648">
        <ele>926.408</ele>
        <time>2020-08-29T14:32:22Z</time>
      </trkpt>
      <trkpt lat="39.944276" lon="-.664591">
        <ele>926.447</ele>
        <time>2020-08-29T14:32:23Z</time>
      </trkpt>
      <trkpt lat="39.944337" lon="-.66451">
        <ele>926.317</ele>
        <time>2020-08-29T14:32:25Z</time>
      </trkpt>
      <trkpt lat="39.944373" lon="-.664462">
        <ele>926.339</ele>
        <time>2020-08-29T14:32:26Z</time>
      </trkpt>
      <trkpt lat="39.944439" lon="-.664363">
        <ele>925.281</ele>
        <time>2020-08-29T14:32:28Z</time>
      </trkpt>
      <trkpt lat="39.944475" lon="-.66431">
        <ele>925.259</ele>
        <time>2020-08-29T14:32:29Z</time>
      </trkpt>
      <trkpt lat="39.944519" lon="-.66425">
        <ele>925.396</ele>
        <time>2020-08-29T14:32:30Z</time>
      </trkpt>
      <trkpt lat="39.944585" lon="-.664158">
        <ele>925.554</ele>
        <time>2020-08-29T14:32:32Z</time>
      </trkpt>
      <trkpt lat="39.944622" lon="-.664098">
        <ele>925.594</ele>
        <time>2020-08-29T14:32:33Z</time>
      </trkpt>
      <trkpt lat="39.944658" lon="-.664051">
        <ele>925.427</ele>
        <time>2020-08-29T14:32:34Z</time>
      </trkpt>
      <trkpt lat="39.944698" lon="-.663988">
        <ele>925.268</ele>
        <time>2020-08-29T14:32:35Z</time>
      </trkpt>
      <trkpt lat="39.944732" lon="-.663925">
        <ele>925.114</ele>
        <time>2020-08-29T14:32:36Z</time>
      </trkpt>
      <trkpt lat="39.944766" lon="-.663871">
        <ele>925.008</ele>
        <time>2020-08-29T14:32:37Z</time>
      </trkpt>
      <trkpt lat="39.944797" lon="-.663805">
        <ele>924.697</ele>
        <time>2020-08-29T14:32:38Z</time>
      </trkpt>
      <trkpt lat="39.94484" lon="-.663749">
        <ele>924.497</ele>
        <time>2020-08-29T14:32:39Z</time>
      </trkpt>
      <trkpt lat="39.944871" lon="-.663674">
        <ele>924.139</ele>
        <time>2020-08-29T14:32:40Z</time>
      </trkpt>
      <trkpt lat="39.944904" lon="-.663609">
        <ele>923.081</ele>
        <time>2020-08-29T14:32:41Z</time>
      </trkpt>
      <trkpt lat="39.944938" lon="-.663551">
        <ele>922.899</ele>
        <time>2020-08-29T14:32:42Z</time>
      </trkpt>
      <trkpt lat="39.944973" lon="-.663486">
        <ele>922.826</ele>
        <time>2020-08-29T14:32:43Z</time>
      </trkpt>
      <trkpt lat="39.94501" lon="-.663432">
        <ele>922.814</ele>
        <time>2020-08-29T14:32:44Z</time>
      </trkpt>
      <trkpt lat="39.945031" lon="-.663364">
        <ele>922.944</ele>
        <time>2020-08-29T14:32:45Z</time>
      </trkpt>
      <trkpt lat="39.945065" lon="-.663303">
        <ele>922.976</ele>
        <time>2020-08-29T14:32:46Z</time>
      </trkpt>
      <trkpt lat="39.945104" lon="-.66325">
        <ele>923.990</ele>
        <time>2020-08-29T14:32:47Z</time>
      </trkpt>
      <trkpt lat="39.945137" lon="-.663206">
        <ele>924.119</ele>
        <time>2020-08-29T14:32:48Z</time>
      </trkpt>
      <trkpt lat="39.945163" lon="-.663146">
        <ele>924.508</ele>
        <time>2020-08-29T14:32:49Z</time>
      </trkpt>
      <trkpt lat="39.945194" lon="-.663082">
        <ele>924.112</ele>
        <time>2020-08-29T14:32:50Z</time>
      </trkpt>
      <trkpt lat="39.945225" lon="-.663038">
        <ele>924.022</ele>
        <time>2020-08-29T14:32:51Z</time>
      </trkpt>
      <trkpt lat="39.94525" lon="-.66297">
        <ele>924.024</ele>
        <time>2020-08-29T14:32:52Z</time>
      </trkpt>
      <trkpt lat="39.945278" lon="-.66291">
        <ele>923.716</ele>
        <time>2020-08-29T14:32:53Z</time>
      </trkpt>
      <trkpt lat="39.945331" lon="-.662797">
        <ele>923.564</ele>
        <time>2020-08-29T14:32:55Z</time>
      </trkpt>
      <trkpt lat="39.945361" lon="-.662741">
        <ele>923.661</ele>
        <time>2020-08-29T14:32:56Z</time>
      </trkpt>
      <trkpt lat="39.94539" lon="-.662691">
        <ele>923.659</ele>
        <time>2020-08-29T14:32:57Z</time>
      </trkpt>
      <trkpt lat="39.94542" lon="-.662647">
        <ele>923.489</ele>
        <time>2020-08-29T14:32:58Z</time>
      </trkpt>
      <trkpt lat="39.94545" lon="-.66259">
        <ele>923.245</ele>
        <time>2020-08-29T14:32:59Z</time>
      </trkpt>
      <trkpt lat="39.945476" lon="-.66253">
        <ele>923.047</ele>
        <time>2020-08-29T14:33:00Z</time>
      </trkpt>
      <trkpt lat="39.945499" lon="-.662466">
        <ele>922.911</ele>
        <time>2020-08-29T14:33:01Z</time>
      </trkpt>
      <trkpt lat="39.945525" lon="-.66241">
        <ele>922.308</ele>
        <time>2020-08-29T14:33:02Z</time>
      </trkpt>
      <trkpt lat="39.94555" lon="-.662357">
        <ele>922.249</ele>
        <time>2020-08-29T14:33:03Z</time>
      </trkpt>
      <trkpt lat="39.945572" lon="-.662302">
        <ele>922.299</ele>
        <time>2020-08-29T14:33:04Z</time>
      </trkpt>
      <trkpt lat="39.945596" lon="-.662237">
        <ele>921.931</ele>
        <time>2020-08-29T14:33:05Z</time>
      </trkpt>
      <trkpt lat="39.945619" lon="-.662184">
        <ele>921.963</ele>
        <time>2020-08-29T14:33:06Z</time>
      </trkpt>
      <trkpt lat="39.945637" lon="-.662128">
        <ele>922.321</ele>
        <time>2020-08-29T14:33:07Z</time>
      </trkpt>
      <trkpt lat="39.945694" lon="-.662032">
        <ele>922.268</ele>
        <time>2020-08-29T14:33:09Z</time>
      </trkpt>
      <trkpt lat="39.945714" lon="-.661966">
        <ele>922.286</ele>
        <time>2020-08-29T14:33:10Z</time>
      </trkpt>
      <trkpt lat="39.945741" lon="-.661902">
        <ele>921.786</ele>
        <time>2020-08-29T14:33:11Z</time>
      </trkpt>
      <trkpt lat="39.945771" lon="-.661833">
        <ele>921.435</ele>
        <time>2020-08-29T14:33:12Z</time>
      </trkpt>
      <trkpt lat="39.94579" lon="-.661767">
        <ele>921.386</ele>
        <time>2020-08-29T14:33:13Z</time>
      </trkpt>
      <trkpt lat="39.945828" lon="-.661703">
        <ele>921.414</ele>
        <time>2020-08-29T14:33:14Z</time>
      </trkpt>
      <trkpt lat="39.945848" lon="-.661647">
        <ele>921.308</ele>
        <time>2020-08-29T14:33:15Z</time>
      </trkpt>
      <trkpt lat="39.945888" lon="-.661588">
        <ele>921.518</ele>
        <time>2020-08-29T14:33:16Z</time>
      </trkpt>
      <trkpt lat="39.945921" lon="-.66154">
        <ele>921.578</ele>
        <time>2020-08-29T14:33:17Z</time>
      </trkpt>
      <trkpt lat="39.945956" lon="-.66147">
        <ele>921.590</ele>
        <time>2020-08-29T14:33:18Z</time>
      </trkpt>
      <trkpt lat="39.945986" lon="-.661407">
        <ele>921.162</ele>
        <time>2020-08-29T14:33:19Z</time>
      </trkpt>
      <trkpt lat="39.946019" lon="-.661327">
        <ele>920.750</ele>
        <time>2020-08-29T14:33:20Z</time>
      </trkpt>
      <trkpt lat="39.946066" lon="-.66121">
        <ele>919.397</ele>
        <time>2020-08-29T14:33:22Z</time>
      </trkpt>
      <trkpt lat="39.946105" lon="-.661147">
        <ele>919.315</ele>
        <time>2020-08-29T14:33:23Z</time>
      </trkpt>
      <trkpt lat="39.946142" lon="-.661077">
        <ele>919.555</ele>
        <time>2020-08-29T14:33:24Z</time>
      </trkpt>
      <trkpt lat="39.946174" lon="-.661015">
        <ele>919.796</ele>
        <time>2020-08-29T14:33:25Z</time>
      </trkpt>
      <trkpt lat="39.946205" lon="-.660964">
        <ele>919.831</ele>
        <time>2020-08-29T14:33:26Z</time>
      </trkpt>
      <trkpt lat="39.946255" lon="-.660904">
        <ele>920.224</ele>
        <time>2020-08-29T14:33:27Z</time>
      </trkpt>
      <trkpt lat="39.946284" lon="-.66084">
        <ele>920.308</ele>
        <time>2020-08-29T14:33:28Z</time>
      </trkpt>
      <trkpt lat="39.946318" lon="-.660786">
        <ele>920.324</ele>
        <time>2020-08-29T14:33:29Z</time>
      </trkpt>
      <trkpt lat="39.946353" lon="-.660737">
        <ele>919.284</ele>
        <time>2020-08-29T14:33:30Z</time>
      </trkpt>
      <trkpt lat="39.946387" lon="-.660669">
        <ele>918.346</ele>
        <time>2020-08-29T14:33:31Z</time>
      </trkpt>
      <trkpt lat="39.946416" lon="-.660592">
        <ele>918.348</ele>
        <time>2020-08-29T14:33:32Z</time>
      </trkpt>
      <trkpt lat="39.946455" lon="-.660543">
        <ele>918.526</ele>
        <time>2020-08-29T14:33:33Z</time>
      </trkpt>
      <trkpt lat="39.946475" lon="-.660486">
        <ele>918.733</ele>
        <time>2020-08-29T14:33:34Z</time>
      </trkpt>
      <trkpt lat="39.94651" lon="-.660418">
        <ele>918.711</ele>
        <time>2020-08-29T14:33:35Z</time>
      </trkpt>
      <trkpt lat="39.94655" lon="-.660345">
        <ele>919.361</ele>
        <time>2020-08-29T14:33:36Z</time>
      </trkpt>
      <trkpt lat="39.946582" lon="-.660276">
        <ele>919.397</ele>
        <time>2020-08-29T14:33:37Z</time>
      </trkpt>
      <trkpt lat="39.946614" lon="-.660212">
        <ele>919.323</ele>
        <time>2020-08-29T14:33:38Z</time>
      </trkpt>
      <trkpt lat="39.946637" lon="-.660157">
        <ele>917.825</ele>
        <time>2020-08-29T14:33:39Z</time>
      </trkpt>
      <trkpt lat="39.946675" lon="-.660091">
        <ele>917.608</ele>
        <time>2020-08-29T14:33:40Z</time>
      </trkpt>
      <trkpt lat="39.946708" lon="-.660031">
        <ele>917.664</ele>
        <time>2020-08-29T14:33:41Z</time>
      </trkpt>
      <trkpt lat="39.946745" lon="-.659971">
        <ele>917.534</ele>
        <time>2020-08-29T14:33:42Z</time>
      </trkpt>
      <trkpt lat="39.946802" lon="-.659862">
        <ele>917.946</ele>
        <time>2020-08-29T14:33:44Z</time>
      </trkpt>
      <trkpt lat="39.946831" lon="-.659798">
        <ele>918.238</ele>
        <time>2020-08-29T14:33:45Z</time>
      </trkpt>
      <trkpt lat="39.946874" lon="-.65973">
        <ele>919.186</ele>
        <time>2020-08-29T14:33:46Z</time>
      </trkpt>
      <trkpt lat="39.946911" lon="-.659668">
        <ele>919.173</ele>
        <time>2020-08-29T14:33:47Z</time>
      </trkpt>
      <trkpt lat="39.946943" lon="-.659618">
        <ele>918.921</ele>
        <time>2020-08-29T14:33:48Z</time>
      </trkpt>
      <trkpt lat="39.946976" lon="-.659559">
        <ele>917.881</ele>
        <time>2020-08-29T14:33:49Z</time>
      </trkpt>
      <trkpt lat="39.947007" lon="-.659473">
        <ele>917.047</ele>
        <time>2020-08-29T14:33:50Z</time>
      </trkpt>
      <trkpt lat="39.947033" lon="-.659402">
        <ele>917.029</ele>
        <time>2020-08-29T14:33:51Z</time>
      </trkpt>
      <trkpt lat="39.947062" lon="-.659344">
        <ele>917.021</ele>
        <time>2020-08-29T14:33:52Z</time>
      </trkpt>
      <trkpt lat="39.947101" lon="-.659285">
        <ele>917.308</ele>
        <time>2020-08-29T14:33:53Z</time>
      </trkpt>
      <trkpt lat="39.947132" lon="-.659203">
        <ele>918.039</ele>
        <time>2020-08-29T14:33:54Z</time>
      </trkpt>
      <trkpt lat="39.947163" lon="-.659125">
        <ele>918.699</ele>
        <time>2020-08-29T14:33:55Z</time>
      </trkpt>
      <trkpt lat="39.947199" lon="-.659065">
        <ele>918.621</ele>
        <time>2020-08-29T14:33:56Z</time>
      </trkpt>
      <trkpt lat="39.947238" lon="-.659005">
        <ele>917.423</ele>
        <time>2020-08-29T14:33:57Z</time>
      </trkpt>
      <trkpt lat="39.947276" lon="-.658941">
        <ele>916.861</ele>
        <time>2020-08-29T14:33:58Z</time>
      </trkpt>
      <trkpt lat="39.947304" lon="-.658873">
        <ele>916.438</ele>
        <time>2020-08-29T14:33:59Z</time>
      </trkpt>
      <trkpt lat="39.947342" lon="-.658805">
        <ele>916.416</ele>
        <time>2020-08-29T14:34:00Z</time>
      </trkpt>
      <trkpt lat="39.947388" lon="-.658759">
        <ele>916.876</ele>
        <time>2020-08-29T14:34:01Z</time>
      </trkpt>
      <trkpt lat="39.947433" lon="-.658708">
        <ele>917.278</ele>
        <time>2020-08-29T14:34:02Z</time>
      </trkpt>
      <trkpt lat="39.947478" lon="-.658648">
        <ele>917.233</ele>
        <time>2020-08-29T14:34:03Z</time>
      </trkpt>
      <trkpt lat="39.94753" lon="-.658598">
        <ele>917.626</ele>
        <time>2020-08-29T14:34:04Z</time>
      </trkpt>
      <trkpt lat="39.947582" lon="-.658554">
        <ele>917.608</ele>
        <time>2020-08-29T14:34:05Z</time>
      </trkpt>
      <trkpt lat="39.947633" lon="-.6585">
        <ele>917.222</ele>
        <time>2020-08-29T14:34:06Z</time>
      </trkpt>
      <trkpt lat="39.94769" lon="-.658458">
        <ele>916.682</ele>
        <time>2020-08-29T14:34:07Z</time>
      </trkpt>
      <trkpt lat="39.947745" lon="-.658391">
        <ele>916.414</ele>
        <time>2020-08-29T14:34:08Z</time>
      </trkpt>
      <trkpt lat="39.947796" lon="-.658342">
        <ele>916.086</ele>
        <time>2020-08-29T14:34:09Z</time>
      </trkpt>
      <trkpt lat="39.947865" lon="-.658294">
        <ele>915.634</ele>
        <time>2020-08-29T14:34:10Z</time>
      </trkpt>
      <trkpt lat="39.947927" lon="-.658245">
        <ele>914.991</ele>
        <time>2020-08-29T14:34:11Z</time>
      </trkpt>
      <trkpt lat="39.947982" lon="-.658184">
        <ele>914.539</ele>
        <time>2020-08-29T14:34:12Z</time>
      </trkpt>
      <trkpt lat="39.94805" lon="-.658147">
        <ele>914.429</ele>
        <time>2020-08-29T14:34:13Z</time>
      </trkpt>
      <trkpt lat="39.948117" lon="-.658113">
        <ele>914.485</ele>
        <time>2020-08-29T14:34:14Z</time>
      </trkpt>
      <trkpt lat="39.948183" lon="-.658081">
        <ele>914.189</ele>
        <time>2020-08-29T14:34:15Z</time>
      </trkpt>
      <trkpt lat="39.94824" lon="-.658057">
        <ele>914.317</ele>
        <time>2020-08-29T14:34:16Z</time>
      </trkpt>
      <trkpt lat="39.948296" lon="-.658032">
        <ele>914.108</ele>
        <time>2020-08-29T14:34:17Z</time>
      </trkpt>
      <trkpt lat="39.948349" lon="-.658005">
        <ele>914.183</ele>
        <time>2020-08-29T14:34:18Z</time>
      </trkpt>
      <trkpt lat="39.948409" lon="-.657981">
        <ele>914.133</ele>
        <time>2020-08-29T14:34:19Z</time>
      </trkpt>
      <trkpt lat="39.94846" lon="-.65796">
        <ele>913.545</ele>
        <time>2020-08-29T14:34:20Z</time>
      </trkpt>
      <trkpt lat="39.948504" lon="-.657934">
        <ele>912.937</ele>
        <time>2020-08-29T14:34:21Z</time>
      </trkpt>
      <trkpt lat="39.948559" lon="-.6579">
        <ele>912.515</ele>
        <time>2020-08-29T14:34:22Z</time>
      </trkpt>
      <trkpt lat="39.948655" lon="-.657855">
        <ele>912.552</ele>
        <time>2020-08-29T14:34:24Z</time>
      </trkpt>
      <trkpt lat="39.948713" lon="-.657823">
        <ele>912.670</ele>
        <time>2020-08-29T14:34:25Z</time>
      </trkpt>
      <trkpt lat="39.948775" lon="-.657792">
        <ele>912.620</ele>
        <time>2020-08-29T14:34:26Z</time>
      </trkpt>
      <trkpt lat="39.948841" lon="-.657766">
        <ele>913.215</ele>
        <time>2020-08-29T14:34:27Z</time>
      </trkpt>
      <trkpt lat="39.948905" lon="-.657747">
        <ele>913.265</ele>
        <time>2020-08-29T14:34:28Z</time>
      </trkpt>
      <trkpt lat="39.948962" lon="-.657721">
        <ele>912.811</ele>
        <time>2020-08-29T14:34:29Z</time>
      </trkpt>
      <trkpt lat="39.94902" lon="-.657695">
        <ele>912.208</ele>
        <time>2020-08-29T14:34:30Z</time>
      </trkpt>
      <trkpt lat="39.949077" lon="-.657665">
        <ele>912.246</ele>
        <time>2020-08-29T14:34:31Z</time>
      </trkpt>
      <trkpt lat="39.949149" lon="-.657649">
        <ele>912.266</ele>
        <time>2020-08-29T14:34:32Z</time>
      </trkpt>
      <trkpt lat="39.949213" lon="-.65763">
        <ele>912.288</ele>
        <time>2020-08-29T14:34:33Z</time>
      </trkpt>
      <trkpt lat="39.94929" lon="-.657618">
        <ele>911.820</ele>
        <time>2020-08-29T14:34:34Z</time>
      </trkpt>
      <trkpt lat="39.949375" lon="-.657588">
        <ele>911.248</ele>
        <time>2020-08-29T14:34:35Z</time>
      </trkpt>
      <trkpt lat="39.949451" lon="-.657559">
        <ele>910.945</ele>
        <time>2020-08-29T14:34:36Z</time>
      </trkpt>
      <trkpt lat="39.94951" lon="-.657539">
        <ele>910.843</ele>
        <time>2020-08-29T14:34:37Z</time>
      </trkpt>
      <trkpt lat="39.949587" lon="-.657495">
        <ele>910.593</ele>
        <time>2020-08-29T14:34:38Z</time>
      </trkpt>
      <trkpt lat="39.949658" lon="-.657467">
        <ele>910.448</ele>
        <time>2020-08-29T14:34:39Z</time>
      </trkpt>
      <trkpt lat="39.949709" lon="-.657453">
        <ele>909.961</ele>
        <time>2020-08-29T14:34:40Z</time>
      </trkpt>
      <trkpt lat="39.94976" lon="-.657438">
        <ele>909.917</ele>
        <time>2020-08-29T14:34:41Z</time>
      </trkpt>
      <trkpt lat="39.949844" lon="-.657383">
        <ele>910.108</ele>
        <time>2020-08-29T14:34:42Z</time>
      </trkpt>
      <trkpt lat="39.94991" lon="-.657346">
        <ele>910.199</ele>
        <time>2020-08-29T14:34:43Z</time>
      </trkpt>
      <trkpt lat="39.949964" lon="-.657326">
        <ele>909.349</ele>
        <time>2020-08-29T14:34:44Z</time>
      </trkpt>
      <trkpt lat="39.950014" lon="-.657314">
        <ele>908.771</ele>
        <time>2020-08-29T14:34:45Z</time>
      </trkpt>
      <trkpt lat="39.95007" lon="-.657282">
        <ele>908.723</ele>
        <time>2020-08-29T14:34:46Z</time>
      </trkpt>
      <trkpt lat="39.950124" lon="-.657246">
        <ele>907.751</ele>
        <time>2020-08-29T14:34:47Z</time>
      </trkpt>
      <trkpt lat="39.950188" lon="-.657217">
        <ele>907.218</ele>
        <time>2020-08-29T14:34:48Z</time>
      </trkpt>
      <trkpt lat="39.950234" lon="-.657185">
        <ele>907.216</ele>
        <time>2020-08-29T14:34:49Z</time>
      </trkpt>
      <trkpt lat="39.950285" lon="-.657167">
        <ele>907.516</ele>
        <time>2020-08-29T14:34:50Z</time>
      </trkpt>
      <trkpt lat="39.950352" lon="-.657146">
        <ele>907.693</ele>
        <time>2020-08-29T14:34:51Z</time>
      </trkpt>
      <trkpt lat="39.950419" lon="-.657107">
        <ele>907.565</ele>
        <time>2020-08-29T14:34:52Z</time>
      </trkpt>
      <trkpt lat="39.950487" lon="-.65708">
        <ele>906.921</ele>
        <time>2020-08-29T14:34:53Z</time>
      </trkpt>
      <trkpt lat="39.950548" lon="-.657052">
        <ele>906.908</ele>
        <time>2020-08-29T14:34:54Z</time>
      </trkpt>
      <trkpt lat="39.950606" lon="-.657013">
        <ele>906.914</ele>
        <time>2020-08-29T14:34:55Z</time>
      </trkpt>
      <trkpt lat="39.950663" lon="-.656971">
        <ele>906.644</ele>
        <time>2020-08-29T14:34:56Z</time>
      </trkpt>
      <trkpt lat="39.950734" lon="-.656949">
        <ele>906.596</ele>
        <time>2020-08-29T14:34:57Z</time>
      </trkpt>
      <trkpt lat="39.950792" lon="-.656923">
        <ele>906.178</ele>
        <time>2020-08-29T14:34:58Z</time>
      </trkpt>
      <trkpt lat="39.950842" lon="-.656868">
        <ele>906.136</ele>
        <time>2020-08-29T14:34:59Z</time>
      </trkpt>
      <trkpt lat="39.950902" lon="-.656838">
        <ele>906.293</ele>
        <time>2020-08-29T14:35:00Z</time>
      </trkpt>
      <trkpt lat="39.950956" lon="-.656803">
        <ele>906.221</ele>
        <time>2020-08-29T14:35:01Z</time>
      </trkpt>
      <trkpt lat="39.951013" lon="-.656757">
        <ele>905.541</ele>
        <time>2020-08-29T14:35:02Z</time>
      </trkpt>
      <trkpt lat="39.951081" lon="-.656743">
        <ele>905.061</ele>
        <time>2020-08-29T14:35:03Z</time>
      </trkpt>
      <trkpt lat="39.95114" lon="-.656724">
        <ele>905.021</ele>
        <time>2020-08-29T14:35:04Z</time>
      </trkpt>
      <trkpt lat="39.95119" lon="-.656709">
        <ele>905.013</ele>
        <time>2020-08-29T14:35:05Z</time>
      </trkpt>
      <trkpt lat="39.951239" lon="-.656706">
        <ele>904.408</ele>
        <time>2020-08-29T14:35:06Z</time>
      </trkpt>
      <trkpt lat="39.951288" lon="-.656694">
        <ele>903.861</ele>
        <time>2020-08-29T14:35:07Z</time>
      </trkpt>
      <trkpt lat="39.951356" lon="-.656686">
        <ele>903.821</ele>
        <time>2020-08-29T14:35:08Z</time>
      </trkpt>
      <trkpt lat="39.951443" lon="-.656685">
        <ele>904.093</ele>
        <time>2020-08-29T14:35:09Z</time>
      </trkpt>
      <trkpt lat="39.951513" lon="-.656668">
        <ele>904.015</ele>
        <time>2020-08-29T14:35:10Z</time>
      </trkpt>
      <trkpt lat="39.951582" lon="-.656651">
        <ele>903.613</ele>
        <time>2020-08-29T14:35:11Z</time>
      </trkpt>
      <trkpt lat="39.951653" lon="-.656621">
        <ele>903.680</ele>
        <time>2020-08-29T14:35:12Z</time>
      </trkpt>
      <trkpt lat="39.951715" lon="-.656609">
        <ele>903.528</ele>
        <time>2020-08-29T14:35:13Z</time>
      </trkpt>
      <trkpt lat="39.951775" lon="-.65658">
        <ele>903.528</ele>
        <time>2020-08-29T14:35:14Z</time>
      </trkpt>
      <trkpt lat="39.951836" lon="-.656558">
        <ele>903.077</ele>
        <time>2020-08-29T14:35:15Z</time>
      </trkpt>
      <trkpt lat="39.951897" lon="-.656537">
        <ele>901.961</ele>
        <time>2020-08-29T14:35:16Z</time>
      </trkpt>
      <trkpt lat="39.951964" lon="-.656522">
        <ele>901.927</ele>
        <time>2020-08-29T14:35:17Z</time>
      </trkpt>
      <trkpt lat="39.952025" lon="-.656504">
        <ele>902.608</ele>
        <time>2020-08-29T14:35:18Z</time>
      </trkpt>
      <trkpt lat="39.952093" lon="-.65648">
        <ele>902.662</ele>
        <time>2020-08-29T14:35:19Z</time>
      </trkpt>
      <trkpt lat="39.952163" lon="-.656454">
        <ele>901.832</ele>
        <time>2020-08-29T14:35:20Z</time>
      </trkpt>
      <trkpt lat="39.952226" lon="-.656422">
        <ele>901.864</ele>
        <time>2020-08-29T14:35:21Z</time>
      </trkpt>
      <trkpt lat="39.952291" lon="-.656392">
        <ele>902.366</ele>
        <time>2020-08-29T14:35:22Z</time>
      </trkpt>
      <trkpt lat="39.952354" lon="-.656367">
        <ele>901.884</ele>
        <time>2020-08-29T14:35:23Z</time>
      </trkpt>
      <trkpt lat="39.952416" lon="-.656329">
        <ele>901.811</ele>
        <time>2020-08-29T14:35:24Z</time>
      </trkpt>
      <trkpt lat="39.952483" lon="-.656296">
        <ele>901.839</ele>
        <time>2020-08-29T14:35:25Z</time>
      </trkpt>
      <trkpt lat="39.952551" lon="-.656273">
        <ele>901.349</ele>
        <time>2020-08-29T14:35:26Z</time>
      </trkpt>
      <trkpt lat="39.95261" lon="-.656256">
        <ele>901.351</ele>
        <time>2020-08-29T14:35:27Z</time>
      </trkpt>
      <trkpt lat="39.952672" lon="-.656226">
        <ele>901.801</ele>
        <time>2020-08-29T14:35:28Z</time>
      </trkpt>
      <trkpt lat="39.952729" lon="-.656208">
        <ele>901.811</ele>
        <time>2020-08-29T14:35:29Z</time>
      </trkpt>
      <trkpt lat="39.952792" lon="-.656177">
        <ele>900.208</ele>
        <time>2020-08-29T14:35:30Z</time>
      </trkpt>
      <trkpt lat="39.952865" lon="-.656151">
        <ele>900.250</ele>
        <time>2020-08-29T14:35:31Z</time>
      </trkpt>
      <trkpt lat="39.952929" lon="-.656119">
        <ele>900.430</ele>
        <time>2020-08-29T14:35:32Z</time>
      </trkpt>
      <trkpt lat="39.952994" lon="-.656092">
        <ele>900.422</ele>
        <time>2020-08-29T14:35:33Z</time>
      </trkpt>
      <trkpt lat="39.95306" lon="-.656065">
        <ele>900.994</ele>
        <time>2020-08-29T14:35:34Z</time>
      </trkpt>
      <trkpt lat="39.953127" lon="-.656052">
        <ele>901.162</ele>
        <time>2020-08-29T14:35:35Z</time>
      </trkpt>
      <trkpt lat="39.953196" lon="-.656023">
        <ele>901.189</ele>
        <time>2020-08-29T14:35:36Z</time>
      </trkpt>
      <trkpt lat="39.953272" lon="-.655999">
        <ele>900.987</ele>
        <time>2020-08-29T14:35:37Z</time>
      </trkpt>
      <trkpt lat="39.953342" lon="-.655978">
        <ele>899.487</ele>
        <time>2020-08-29T14:35:38Z</time>
      </trkpt>
      <trkpt lat="39.953411" lon="-.655954">
        <ele>899.246</ele>
        <time>2020-08-29T14:35:39Z</time>
      </trkpt>
      <trkpt lat="39.953478" lon="-.65593">
        <ele>899.288</ele>
        <time>2020-08-29T14:35:40Z</time>
      </trkpt>
      <trkpt lat="39.953546" lon="-.655902">
        <ele>899.516</ele>
        <time>2020-08-29T14:35:41Z</time>
      </trkpt>
      <trkpt lat="39.953607" lon="-.655875">
        <ele>899.108</ele>
        <time>2020-08-29T14:35:42Z</time>
      </trkpt>
      <trkpt lat="39.953677" lon="-.655849">
        <ele>898.629</ele>
        <time>2020-08-29T14:35:43Z</time>
      </trkpt>
      <trkpt lat="39.953736" lon="-.655826">
        <ele>898.429</ele>
        <time>2020-08-29T14:35:44Z</time>
      </trkpt>
      <trkpt lat="39.953798" lon="-.6558">
        <ele>898.321</ele>
        <time>2020-08-29T14:35:45Z</time>
      </trkpt>
      <trkpt lat="39.953858" lon="-.655778">
        <ele>898.463</ele>
        <time>2020-08-29T14:35:46Z</time>
      </trkpt>
      <trkpt lat="39.953931" lon="-.655752">
        <ele>898.451</ele>
        <time>2020-08-29T14:35:47Z</time>
      </trkpt>
      <trkpt lat="39.953996" lon="-.655729">
        <ele>898.858</ele>
        <time>2020-08-29T14:35:48Z</time>
      </trkpt>
      <trkpt lat="39.954064" lon="-.655696">
        <ele>898.866</ele>
        <time>2020-08-29T14:35:49Z</time>
      </trkpt>
      <trkpt lat="39.954143" lon="-.655671">
        <ele>898.266</ele>
        <time>2020-08-29T14:35:50Z</time>
      </trkpt>
      <trkpt lat="39.954214" lon="-.655651">
        <ele>897.219</ele>
        <time>2020-08-29T14:35:51Z</time>
      </trkpt>
      <trkpt lat="39.954286" lon="-.655618">
        <ele>897.109</ele>
        <time>2020-08-29T14:35:52Z</time>
      </trkpt>
      <trkpt lat="39.954353" lon="-.655586">
        <ele>896.519</ele>
        <time>2020-08-29T14:35:53Z</time>
      </trkpt>
      <trkpt lat="39.954418" lon="-.65556">
        <ele>896.808</ele>
        <time>2020-08-29T14:35:54Z</time>
      </trkpt>
      <trkpt lat="39.954493" lon="-.655532">
        <ele>896.646</ele>
        <time>2020-08-29T14:35:55Z</time>
      </trkpt>
      <trkpt lat="39.954563" lon="-.6555">
        <ele>896.646</ele>
        <time>2020-08-29T14:35:56Z</time>
      </trkpt>
      <trkpt lat="39.954633" lon="-.65547">
        <ele>896.648</ele>
        <time>2020-08-29T14:35:57Z</time>
      </trkpt>
      <trkpt lat="39.954699" lon="-.655442">
        <ele>896.370</ele>
        <time>2020-08-29T14:35:58Z</time>
      </trkpt>
      <trkpt lat="39.954755" lon="-.65541">
        <ele>896.698</ele>
        <time>2020-08-29T14:35:59Z</time>
      </trkpt>
      <trkpt lat="39.954818" lon="-.655388">
        <ele>896.345</ele>
        <time>2020-08-29T14:36:00Z</time>
      </trkpt>
      <trkpt lat="39.954876" lon="-.655362">
        <ele>896.693</ele>
        <time>2020-08-29T14:36:01Z</time>
      </trkpt>
      <trkpt lat="39.954933" lon="-.655339">
        <ele>896.893</ele>
        <time>2020-08-29T14:36:02Z</time>
      </trkpt>
      <trkpt lat="39.954984" lon="-.655329">
        <ele>896.865</ele>
        <time>2020-08-29T14:36:03Z</time>
      </trkpt>
      <trkpt lat="39.95503" lon="-.655311">
        <ele>896.268</ele>
        <time>2020-08-29T14:36:04Z</time>
      </trkpt>
      <trkpt lat="39.955075" lon="-.655276">
        <ele>896.114</ele>
        <time>2020-08-29T14:36:05Z</time>
      </trkpt>
      <trkpt lat="39.955151" lon="-.655241">
        <ele>897.108</ele>
        <time>2020-08-29T14:36:07Z</time>
      </trkpt>
      <trkpt lat="39.95523" lon="-.655219">
        <ele>897.651</ele>
        <time>2020-08-29T14:36:09Z</time>
      </trkpt>
      <trkpt lat="39.955299" lon="-.655191">
        <ele>897.911</ele>
        <time>2020-08-29T14:36:11Z</time>
      </trkpt>
      <trkpt lat="39.955375" lon="-.655155">
        <ele>897.933</ele>
        <time>2020-08-29T14:36:13Z</time>
      </trkpt>
      <trkpt lat="39.955433" lon="-.655129">
        <ele>896.815</ele>
        <time>2020-08-29T14:36:15Z</time>
      </trkpt>
      <trkpt lat="39.955495" lon="-.655115">
        <ele>897.083</ele>
        <time>2020-08-29T14:36:17Z</time>
      </trkpt>
      <trkpt lat="39.955536" lon="-.655091">
        <ele>897.090</ele>
        <time>2020-08-29T14:36:18Z</time>
      </trkpt>
      <trkpt lat="39.95561" lon="-.655076">
        <ele>897.178</ele>
        <time>2020-08-29T14:36:20Z</time>
      </trkpt>
      <trkpt lat="39.955671" lon="-.655044">
        <ele>896.688</ele>
        <time>2020-08-29T14:36:22Z</time>
      </trkpt>
      <trkpt lat="39.955724" lon="-.655005">
        <ele>896.225</ele>
        <time>2020-08-29T14:36:24Z</time>
      </trkpt>
      <trkpt lat="39.955769" lon="-.654991">
        <ele>896.026</ele>
        <time>2020-08-29T14:36:25Z</time>
      </trkpt>
      <trkpt lat="39.955852" lon="-.654963">
        <ele>896.008</ele>
        <time>2020-08-29T14:36:27Z</time>
      </trkpt>
      <trkpt lat="39.955902" lon="-.654952">
        <ele>896.208</ele>
        <time>2020-08-29T14:36:28Z</time>
      </trkpt>
      <trkpt lat="39.95595" lon="-.65494">
        <ele>896.177</ele>
        <time>2020-08-29T14:36:29Z</time>
      </trkpt>
      <trkpt lat="39.955998" lon="-.654921">
        <ele>896.117</ele>
        <time>2020-08-29T14:36:30Z</time>
      </trkpt>
      <trkpt lat="39.956045" lon="-.654903">
        <ele>895.689</ele>
        <time>2020-08-29T14:36:31Z</time>
      </trkpt>
      <trkpt lat="39.956094" lon="-.654889">
        <ele>895.431</ele>
        <time>2020-08-29T14:36:32Z</time>
      </trkpt>
      <trkpt lat="39.956144" lon="-.654857">
        <ele>895.349</ele>
        <time>2020-08-29T14:36:33Z</time>
      </trkpt>
      <trkpt lat="39.956201" lon="-.654828">
        <ele>894.676</ele>
        <time>2020-08-29T14:36:34Z</time>
      </trkpt>
      <trkpt lat="39.956263" lon="-.654799">
        <ele>894.644</ele>
        <time>2020-08-29T14:36:35Z</time>
      </trkpt>
      <trkpt lat="39.956318" lon="-.654769">
        <ele>894.444</ele>
        <time>2020-08-29T14:36:36Z</time>
      </trkpt>
      <trkpt lat="39.956364" lon="-.65474">
        <ele>893.344</ele>
        <time>2020-08-29T14:36:37Z</time>
      </trkpt>
      <trkpt lat="39.956426" lon="-.654707">
        <ele>893.105</ele>
        <time>2020-08-29T14:36:38Z</time>
      </trkpt>
      <trkpt lat="39.956489" lon="-.654668">
        <ele>893.115</ele>
        <time>2020-08-29T14:36:39Z</time>
      </trkpt>
      <trkpt lat="39.956554" lon="-.654626">
        <ele>892.708</ele>
        <time>2020-08-29T14:36:40Z</time>
      </trkpt>
      <trkpt lat="39.956609" lon="-.654587">
        <ele>892.799</ele>
        <time>2020-08-29T14:36:41Z</time>
      </trkpt>
      <trkpt lat="39.956675" lon="-.654548">
        <ele>893.089</ele>
        <time>2020-08-29T14:36:42Z</time>
      </trkpt>
      <trkpt lat="39.956734" lon="-.65449">
        <ele>893.081</ele>
        <time>2020-08-29T14:36:43Z</time>
      </trkpt>
      <trkpt lat="39.956806" lon="-.654428">
        <ele>892.973</ele>
        <time>2020-08-29T14:36:44Z</time>
      </trkpt>
      <trkpt lat="39.956862" lon="-.654361">
        <ele>892.751</ele>
        <time>2020-08-29T14:36:45Z</time>
      </trkpt>
      <trkpt lat="39.956914" lon="-.654296">
        <ele>892.728</ele>
        <time>2020-08-29T14:36:46Z</time>
      </trkpt>
      <trkpt lat="39.95697" lon="-.654244">
        <ele>892.486</ele>
        <time>2020-08-29T14:36:47Z</time>
      </trkpt>
      <trkpt lat="39.957032" lon="-.654209">
        <ele>892.426</ele>
        <time>2020-08-29T14:36:48Z</time>
      </trkpt>
      <trkpt lat="39.957082" lon="-.654146">
        <ele>892.128</ele>
        <time>2020-08-29T14:36:49Z</time>
      </trkpt>
      <trkpt lat="39.957133" lon="-.654091">
        <ele>892.089</ele>
        <time>2020-08-29T14:36:50Z</time>
      </trkpt>
      <trkpt lat="39.957183" lon="-.65404">
        <ele>891.317</ele>
        <time>2020-08-29T14:36:51Z</time>
      </trkpt>
      <trkpt lat="39.957229" lon="-.65398">
        <ele>890.808</ele>
        <time>2020-08-29T14:36:52Z</time>
      </trkpt>
      <trkpt lat="39.957271" lon="-.653929">
        <ele>890.247</ele>
        <time>2020-08-29T14:36:53Z</time>
      </trkpt>
      <trkpt lat="39.957311" lon="-.653895">
        <ele>889.937</ele>
        <time>2020-08-29T14:36:54Z</time>
      </trkpt>
      <trkpt lat="39.95737" lon="-.653858">
        <ele>889.919</ele>
        <time>2020-08-29T14:36:55Z</time>
      </trkpt>
      <trkpt lat="39.957418" lon="-.653816">
        <ele>889.921</ele>
        <time>2020-08-29T14:36:56Z</time>
      </trkpt>
      <trkpt lat="39.957474" lon="-.653767">
        <ele>889.539</ele>
        <time>2020-08-29T14:36:57Z</time>
      </trkpt>
      <trkpt lat="39.957515" lon="-.653699">
        <ele>889.546</ele>
        <time>2020-08-29T14:36:58Z</time>
      </trkpt>
      <trkpt lat="39.95756" lon="-.653652">
        <ele>889.544</ele>
        <time>2020-08-29T14:36:59Z</time>
      </trkpt>
      <trkpt lat="39.957601" lon="-.653608">
        <ele>889.114</ele>
        <time>2020-08-29T14:37:00Z</time>
      </trkpt>
      <trkpt lat="39.957648" lon="-.653569">
        <ele>889.149</ele>
        <time>2020-08-29T14:37:01Z</time>
      </trkpt>
      <trkpt lat="39.95769" lon="-.653517">
        <ele>889.202</ele>
        <time>2020-08-29T14:37:02Z</time>
      </trkpt>
      <trkpt lat="39.957722" lon="-.653464">
        <ele>889.222</ele>
        <time>2020-08-29T14:37:03Z</time>
      </trkpt>
      <trkpt lat="39.957754" lon="-.653398">
        <ele>889.208</ele>
        <time>2020-08-29T14:37:04Z</time>
      </trkpt>
      <trkpt lat="39.957782" lon="-.653347">
        <ele>889.049</ele>
        <time>2020-08-29T14:37:05Z</time>
      </trkpt>
      <trkpt lat="39.957836" lon="-.653264">
        <ele>888.569</ele>
        <time>2020-08-29T14:37:07Z</time>
      </trkpt>
      <trkpt lat="39.957871" lon="-.653196">
        <ele>887.831</ele>
        <time>2020-08-29T14:37:09Z</time>
      </trkpt>
      <trkpt lat="39.957907" lon="-.653133">
        <ele>887.473</ele>
        <time>2020-08-29T14:37:11Z</time>
      </trkpt>
      <trkpt lat="39.957926" lon="-.653061">
        <ele>887.161</ele>
        <time>2020-08-29T14:37:13Z</time>
      </trkpt>
      <trkpt lat="39.957981" lon="-.653032">
        <ele>887.368</ele>
        <time>2020-08-29T14:37:17Z</time>
      </trkpt>
      <trkpt lat="39.957999" lon="-.652962">
        <ele>886.946</ele>
        <time>2020-08-29T14:37:20Z</time>
      </trkpt>
      <trkpt lat="39.95802" lon="-.65291">
        <ele>886.986</ele>
        <time>2020-08-29T14:37:23Z</time>
      </trkpt>
      <trkpt lat="39.958031" lon="-.65279">
        <ele>886.138</ele>
        <time>2020-08-29T14:37:27Z</time>
      </trkpt>
      <trkpt lat="39.958932" lon="-.649753">
        <ele>881.270</ele>
        <time>2020-08-29T14:38:28Z</time>
      </trkpt>
      <trkpt lat="39.959013" lon="-.649611">
        <ele>880.517</ele>
        <time>2020-08-29T14:38:29Z</time>
      </trkpt>
      <trkpt lat="39.959054" lon="-.649578">
        <ele>882.008</ele>
        <time>2020-08-29T14:38:33Z</time>
      </trkpt>
      <trkpt lat="39.959105" lon="-.649454">
        <ele>881.228</ele>
        <time>2020-08-29T14:38:35Z</time>
      </trkpt>
      <trkpt lat="39.95915" lon="-.649431">
        <ele>881.278</ele>
        <time>2020-08-29T14:38:36Z</time>
      </trkpt>
      <trkpt lat="39.959195" lon="-.649384">
        <ele>881.310</ele>
        <time>2020-08-29T14:38:37Z</time>
      </trkpt>
      <trkpt lat="39.959237" lon="-.649339">
        <ele>881.722</ele>
        <time>2020-08-29T14:38:38Z</time>
      </trkpt>
      <trkpt lat="39.959306" lon="-.64928">
        <ele>881.110</ele>
        <time>2020-08-29T14:38:40Z</time>
      </trkpt>
      <trkpt lat="39.959341" lon="-.649239">
        <ele>881.137</ele>
        <time>2020-08-29T14:38:41Z</time>
      </trkpt>
      <trkpt lat="39.959379" lon="-.649194">
        <ele>880.945</ele>
        <time>2020-08-29T14:38:42Z</time>
      </trkpt>
      <trkpt lat="39.95942" lon="-.649163">
        <ele>881.115</ele>
        <time>2020-08-29T14:38:43Z</time>
      </trkpt>
      <trkpt lat="39.959458" lon="-.649118">
        <ele>881.046</ele>
        <time>2020-08-29T14:38:44Z</time>
      </trkpt>
      <trkpt lat="39.959507" lon="-.649071">
        <ele>881.088</ele>
        <time>2020-08-29T14:38:45Z</time>
      </trkpt>
      <trkpt lat="39.959552" lon="-.649023">
        <ele>880.316</ele>
        <time>2020-08-29T14:38:46Z</time>
      </trkpt>
      <trkpt lat="39.959593" lon="-.648967">
        <ele>880.208</ele>
        <time>2020-08-29T14:38:47Z</time>
      </trkpt>
      <trkpt lat="39.959635" lon="-.64893">
        <ele>879.959</ele>
        <time>2020-08-29T14:38:48Z</time>
      </trkpt>
      <trkpt lat="39.959694" lon="-.64888">
        <ele>879.869</ele>
        <time>2020-08-29T14:38:49Z</time>
      </trkpt>
      <trkpt lat="39.95974" lon="-.648827">
        <ele>879.851</ele>
        <time>2020-08-29T14:38:50Z</time>
      </trkpt>
      <trkpt lat="39.959782" lon="-.648756">
        <ele>879.993</ele>
        <time>2020-08-29T14:38:51Z</time>
      </trkpt>
      <trkpt lat="39.95983" lon="-.648698">
        <ele>879.921</ele>
        <time>2020-08-29T14:38:52Z</time>
      </trkpt>
      <trkpt lat="39.959875" lon="-.648656">
        <ele>879.278</ele>
        <time>2020-08-29T14:38:53Z</time>
      </trkpt>
      <trkpt lat="39.959916" lon="-.64861">
        <ele>878.736</ele>
        <time>2020-08-29T14:38:54Z</time>
      </trkpt>
      <trkpt lat="39.959967" lon="-.648558">
        <ele>878.766</ele>
        <time>2020-08-29T14:38:55Z</time>
      </trkpt>
      <trkpt lat="39.960009" lon="-.648501">
        <ele>878.884</ele>
        <time>2020-08-29T14:38:56Z</time>
      </trkpt>
      <trkpt lat="39.960051" lon="-.648447">
        <ele>878.807</ele>
        <time>2020-08-29T14:38:57Z</time>
      </trkpt>
      <trkpt lat="39.960096" lon="-.648393">
        <ele>878.817</ele>
        <time>2020-08-29T14:38:58Z</time>
      </trkpt>
      <trkpt lat="39.960132" lon="-.648333">
        <ele>878.508</ele>
        <time>2020-08-29T14:38:59Z</time>
      </trkpt>
      <trkpt lat="39.960171" lon="-.648265">
        <ele>878.443</ele>
        <time>2020-08-29T14:39:00Z</time>
      </trkpt>
      <trkpt lat="39.960207" lon="-.648193">
        <ele>878.043</ele>
        <time>2020-08-29T14:39:01Z</time>
      </trkpt>
      <trkpt lat="39.960244" lon="-.648124">
        <ele>877.735</ele>
        <time>2020-08-29T14:39:02Z</time>
      </trkpt>
      <trkpt lat="39.960278" lon="-.648051">
        <ele>877.487</ele>
        <time>2020-08-29T14:39:03Z</time>
      </trkpt>
      <trkpt lat="39.960315" lon="-.647972">
        <ele>877.465</ele>
        <time>2020-08-29T14:39:04Z</time>
      </trkpt>
      <trkpt lat="39.960358" lon="-.647898">
        <ele>877.112</ele>
        <time>2020-08-29T14:39:05Z</time>
      </trkpt>
      <trkpt lat="39.960389" lon="-.64784">
        <ele>877.040</ele>
        <time>2020-08-29T14:39:06Z</time>
      </trkpt>
      <trkpt lat="39.960417" lon="-.647768">
        <ele>876.960</ele>
        <time>2020-08-29T14:39:07Z</time>
      </trkpt>
      <trkpt lat="39.960451" lon="-.647708">
        <ele>876.164</ele>
        <time>2020-08-29T14:39:08Z</time>
      </trkpt>
      <trkpt lat="39.960493" lon="-.647655">
        <ele>876.106</ele>
        <time>2020-08-29T14:39:09Z</time>
      </trkpt>
      <trkpt lat="39.96053" lon="-.6476">
        <ele>876.116</ele>
        <time>2020-08-29T14:39:10Z</time>
      </trkpt>
      <trkpt lat="39.960564" lon="-.647541">
        <ele>876.108</ele>
        <time>2020-08-29T14:39:11Z</time>
      </trkpt>
      <trkpt lat="39.960601" lon="-.647482">
        <ele>875.791</ele>
        <time>2020-08-29T14:39:12Z</time>
      </trkpt>
      <trkpt lat="39.960643" lon="-.647439">
        <ele>875.781</ele>
        <time>2020-08-29T14:39:13Z</time>
      </trkpt>
      <trkpt lat="39.960685" lon="-.647387">
        <ele>875.223</ele>
        <time>2020-08-29T14:39:14Z</time>
      </trkpt>
      <trkpt lat="39.960728" lon="-.647328">
        <ele>875.155</ele>
        <time>2020-08-29T14:39:15Z</time>
      </trkpt>
      <trkpt lat="39.960769" lon="-.647272">
        <ele>875.123</ele>
        <time>2020-08-29T14:39:16Z</time>
      </trkpt>
      <trkpt lat="39.960808" lon="-.647206">
        <ele>875.120</ele>
        <time>2020-08-29T14:39:17Z</time>
      </trkpt>
      <trkpt lat="39.96085" lon="-.647124">
        <ele>875.018</ele>
        <time>2020-08-29T14:39:18Z</time>
      </trkpt>
      <trkpt lat="39.960886" lon="-.647065">
        <ele>875.018</ele>
        <time>2020-08-29T14:39:19Z</time>
      </trkpt>
      <trkpt lat="39.960919" lon="-.647013">
        <ele>874.958</ele>
        <time>2020-08-29T14:39:20Z</time>
      </trkpt>
      <trkpt lat="39.960962" lon="-.646951">
        <ele>874.952</ele>
        <time>2020-08-29T14:39:21Z</time>
      </trkpt>
      <trkpt lat="39.961007" lon="-.646891">
        <ele>874.917</ele>
        <time>2020-08-29T14:39:22Z</time>
      </trkpt>
      <trkpt lat="39.961045" lon="-.646836">
        <ele>874.108</ele>
        <time>2020-08-29T14:39:23Z</time>
      </trkpt>
      <trkpt lat="39.961092" lon="-.646782">
        <ele>874.020</ele>
        <time>2020-08-29T14:39:24Z</time>
      </trkpt>
      <trkpt lat="39.961129" lon="-.646734">
        <ele>874.050</ele>
        <time>2020-08-29T14:39:25Z</time>
      </trkpt>
      <trkpt lat="39.961171" lon="-.646675">
        <ele>873.572</ele>
        <time>2020-08-29T14:39:26Z</time>
      </trkpt>
      <trkpt lat="39.961212" lon="-.646613">
        <ele>873.594</ele>
        <time>2020-08-29T14:39:27Z</time>
      </trkpt>
      <trkpt lat="39.961251" lon="-.646573">
        <ele>873.482</ele>
        <time>2020-08-29T14:39:28Z</time>
      </trkpt>
      <trkpt lat="39.961293" lon="-.646503">
        <ele>873.319</ele>
        <time>2020-08-29T14:39:29Z</time>
      </trkpt>
      <trkpt lat="39.961338" lon="-.646446">
        <ele>872.987</ele>
        <time>2020-08-29T14:39:30Z</time>
      </trkpt>
      <trkpt lat="39.961378" lon="-.6464">
        <ele>872.987</ele>
        <time>2020-08-29T14:39:31Z</time>
      </trkpt>
      <trkpt lat="39.961413" lon="-.64634">
        <ele>872.762</ele>
        <time>2020-08-29T14:39:32Z</time>
      </trkpt>
      <trkpt lat="39.961455" lon="-.646283">
        <ele>872.783</ele>
        <time>2020-08-29T14:39:33Z</time>
      </trkpt>
      <trkpt lat="39.961496" lon="-.646227">
        <ele>872.611</ele>
        <time>2020-08-29T14:39:34Z</time>
      </trkpt>
      <trkpt lat="39.96154" lon="-.646166">
        <ele>872.608</ele>
        <time>2020-08-29T14:39:35Z</time>
      </trkpt>
      <trkpt lat="39.961567" lon="-.646112">
        <ele>872.411</ele>
        <time>2020-08-29T14:39:36Z</time>
      </trkpt>
      <trkpt lat="39.961608" lon="-.646057">
        <ele>872.431</ele>
        <time>2020-08-29T14:39:37Z</time>
      </trkpt>
      <trkpt lat="39.961649" lon="-.646008">
        <ele>872.353</ele>
        <time>2020-08-29T14:39:38Z</time>
      </trkpt>
      <trkpt lat="39.96168" lon="-.645948">
        <ele>872.065</ele>
        <time>2020-08-29T14:39:39Z</time>
      </trkpt>
      <trkpt lat="39.96173" lon="-.645873">
        <ele>871.743</ele>
        <time>2020-08-29T14:39:41Z</time>
      </trkpt>
      <trkpt lat="39.961766" lon="-.645808">
        <ele>871.780</ele>
        <time>2020-08-29T14:39:43Z</time>
      </trkpt>
      <trkpt lat="39.961815" lon="-.645734">
        <ele>871.858</ele>
        <time>2020-08-29T14:39:45Z</time>
      </trkpt>
      <trkpt lat="39.961837" lon="-.645675">
        <ele>871.618</ele>
        <time>2020-08-29T14:39:46Z</time>
      </trkpt>
      <trkpt lat="39.961877" lon="-.645588">
        <ele>871.137</ele>
        <time>2020-08-29T14:39:48Z</time>
      </trkpt>
      <trkpt lat="39.961918" lon="-.645503">
        <ele>870.949</ele>
        <time>2020-08-29T14:39:50Z</time>
      </trkpt>
      <trkpt lat="39.961955" lon="-.645418">
        <ele>871.013</ele>
        <time>2020-08-29T14:39:52Z</time>
      </trkpt>
      <trkpt lat="39.961981" lon="-.64537">
        <ele>871.008</ele>
        <time>2020-08-29T14:39:54Z</time>
      </trkpt>
      <trkpt lat="39.962021" lon="-.645282">
        <ele>870.698</ele>
        <time>2020-08-29T14:39:56Z</time>
      </trkpt>
      <trkpt lat="39.962186" lon="-.644937">
        <ele>870.018</ele>
        <time>2020-08-29T14:40:04Z</time>
      </trkpt>
      <trkpt lat="39.962224" lon="-.644858">
        <ele>869.720</ele>
        <time>2020-08-29T14:40:05Z</time>
      </trkpt>
      <trkpt lat="39.962375" lon="-.644797">
        <ele>869.442</ele>
        <time>2020-08-29T14:40:06Z</time>
      </trkpt>
      <trkpt lat="39.962456" lon="-.644724">
        <ele>869.150</ele>
        <time>2020-08-29T14:40:07Z</time>
      </trkpt>
      <trkpt lat="39.962485" lon="-.644476">
        <ele>868.677</ele>
        <time>2020-08-29T14:40:08Z</time>
      </trkpt>
      <trkpt lat="39.962521" lon="-.644405">
        <ele>867.795</ele>
        <time>2020-08-29T14:40:10Z</time>
      </trkpt>
      <trkpt lat="39.962567" lon="-.644369">
        <ele>867.495</ele>
        <time>2020-08-29T14:40:11Z</time>
      </trkpt>
      <trkpt lat="39.962599" lon="-.644308">
        <ele>867.412</ele>
        <time>2020-08-29T14:40:12Z</time>
      </trkpt>
      <trkpt lat="39.962616" lon="-.64423">
        <ele>867.432</ele>
        <time>2020-08-29T14:40:13Z</time>
      </trkpt>
      <trkpt lat="39.962618" lon="-.644131">
        <ele>867.605</ele>
        <time>2020-08-29T14:40:14Z</time>
      </trkpt>
      <trkpt lat="39.962636" lon="-.644075">
        <ele>868.108</ele>
        <time>2020-08-29T14:40:15Z</time>
      </trkpt>
      <trkpt lat="39.962677" lon="-.643956">
        <ele>867.776</ele>
        <time>2020-08-29T14:40:17Z</time>
      </trkpt>
      <trkpt lat="39.962702" lon="-.643899">
        <ele>867.776</ele>
        <time>2020-08-29T14:40:18Z</time>
      </trkpt>
      <trkpt lat="39.962708" lon="-.643821">
        <ele>867.668</ele>
        <time>2020-08-29T14:40:19Z</time>
      </trkpt>
      <trkpt lat="39.96272" lon="-.643752">
        <ele>867.370</ele>
        <time>2020-08-29T14:40:20Z</time>
      </trkpt>
      <trkpt lat="39.962739" lon="-.643679">
        <ele>867.328</ele>
        <time>2020-08-29T14:40:21Z</time>
      </trkpt>
      <trkpt lat="39.962755" lon="-.64359">
        <ele>867.155</ele>
        <time>2020-08-29T14:40:22Z</time>
      </trkpt>
      <trkpt lat="39.962771" lon="-.643497">
        <ele>867.053</ele>
        <time>2020-08-29T14:40:23Z</time>
      </trkpt>
      <trkpt lat="39.962787" lon="-.64344">
        <ele>867.433</ele>
        <time>2020-08-29T14:40:24Z</time>
      </trkpt>
      <trkpt lat="39.962836" lon="-.643364">
        <ele>867.521</ele>
        <time>2020-08-29T14:40:26Z</time>
      </trkpt>
      <trkpt lat="39.96286" lon="-.643293">
        <ele>867.541</ele>
        <time>2020-08-29T14:40:27Z</time>
      </trkpt>
      <trkpt lat="39.96288" lon="-.643223">
        <ele>867.205</ele>
        <time>2020-08-29T14:40:28Z</time>
      </trkpt>
      <trkpt lat="39.962923" lon="-.643116">
        <ele>866.608</ele>
        <time>2020-08-29T14:40:30Z</time>
      </trkpt>
      <trkpt lat="39.96296" lon="-.643026">
        <ele>866.387</ele>
        <time>2020-08-29T14:40:32Z</time>
      </trkpt>
      <trkpt lat="39.962978" lon="-.642952">
        <ele>866.197</ele>
        <time>2020-08-29T14:40:33Z</time>
      </trkpt>
      <trkpt lat="39.962991" lon="-.642887">
        <ele>866.129</ele>
        <time>2020-08-29T14:40:34Z</time>
      </trkpt>
      <trkpt lat="39.963007" lon="-.642832">
        <ele>865.741</ele>
        <time>2020-08-29T14:40:35Z</time>
      </trkpt>
      <trkpt lat="39.963022" lon="-.642777">
        <ele>865.929</ele>
        <time>2020-08-29T14:40:36Z</time>
      </trkpt>
      <trkpt lat="39.963051" lon="-.64267">
        <ele>865.516</ele>
        <time>2020-08-29T14:40:38Z</time>
      </trkpt>
      <trkpt lat="39.96307" lon="-.642606">
        <ele>865.494</ele>
        <time>2020-08-29T14:40:40Z</time>
      </trkpt>
      <trkpt lat="39.96325" lon="-.641581">
        <ele>863.384</ele>
        <time>2020-08-29T14:40:59Z</time>
      </trkpt>
      <trkpt lat="39.963307" lon="-.641282">
        <ele>862.814</ele>
        <time>2020-08-29T14:41:00Z</time>
      </trkpt>
      <trkpt lat="39.963451" lon="-.641241">
        <ele>862.354</ele>
        <time>2020-08-29T14:41:02Z</time>
      </trkpt>
      <trkpt lat="39.963465" lon="-.641174">
        <ele>862.309</ele>
        <time>2020-08-29T14:41:03Z</time>
      </trkpt>
      <trkpt lat="39.963504" lon="-.641115">
        <ele>862.508</ele>
        <time>2020-08-29T14:41:04Z</time>
      </trkpt>
      <trkpt lat="39.963605" lon="-.641065">
        <ele>862.586</ele>
        <time>2020-08-29T14:41:05Z</time>
      </trkpt>
      <trkpt lat="39.963662" lon="-.640992">
        <ele>861.916</ele>
        <time>2020-08-29T14:41:07Z</time>
      </trkpt>
      <trkpt lat="39.963703" lon="-.640914">
        <ele>861.348</ele>
        <time>2020-08-29T14:41:09Z</time>
      </trkpt>
      <trkpt lat="39.963729" lon="-.640808">
        <ele>862.360</ele>
        <time>2020-08-29T14:41:11Z</time>
      </trkpt>
      <trkpt lat="39.963788" lon="-.640676">
        <ele>862.398</ele>
        <time>2020-08-29T14:41:13Z</time>
      </trkpt>
      <trkpt lat="39.963798" lon="-.640607">
        <ele>862.055</ele>
        <time>2020-08-29T14:41:14Z</time>
      </trkpt>
      <trkpt lat="39.963824" lon="-.640482">
        <ele>861.133</ele>
        <time>2020-08-29T14:41:16Z</time>
      </trkpt>
      <trkpt lat="39.963837" lon="-.640423">
        <ele>859.913</ele>
        <time>2020-08-29T14:41:17Z</time>
      </trkpt>
      <trkpt lat="39.963856" lon="-.640349">
        <ele>859.958</ele>
        <time>2020-08-29T14:41:18Z</time>
      </trkpt>
      <trkpt lat="39.963874" lon="-.640288">
        <ele>859.952</ele>
        <time>2020-08-29T14:41:19Z</time>
      </trkpt>
      <trkpt lat="39.963897" lon="-.64021">
        <ele>860.117</ele>
        <time>2020-08-29T14:41:20Z</time>
      </trkpt>
      <trkpt lat="39.963919" lon="-.640128">
        <ele>861.108</ele>
        <time>2020-08-29T14:41:21Z</time>
      </trkpt>
      <trkpt lat="39.963933" lon="-.640035">
        <ele>861.140</ele>
        <time>2020-08-29T14:41:22Z</time>
      </trkpt>
      <trkpt lat="39.963961" lon="-.639954">
        <ele>861.160</ele>
        <time>2020-08-29T14:41:23Z</time>
      </trkpt>
      <trkpt lat="39.963979" lon="-.639869">
        <ele>861.182</ele>
        <time>2020-08-29T14:41:24Z</time>
      </trkpt>
      <trkpt lat="39.964006" lon="-.639781">
        <ele>860.754</ele>
        <time>2020-08-29T14:41:25Z</time>
      </trkpt>
      <trkpt lat="39.964033" lon="-.639704">
        <ele>860.262</ele>
        <time>2020-08-29T14:41:26Z</time>
      </trkpt>
      <trkpt lat="39.96406" lon="-.639629">
        <ele>859.929</ele>
        <time>2020-08-29T14:41:27Z</time>
      </trkpt>
      <trkpt lat="39.964084" lon="-.639559">
        <ele>859.027</ele>
        <time>2020-08-29T14:41:28Z</time>
      </trkpt>
      <trkpt lat="39.964105" lon="-.639494">
        <ele>858.737</ele>
        <time>2020-08-29T14:41:29Z</time>
      </trkpt>
      <trkpt lat="39.964111" lon="-.639416">
        <ele>858.747</ele>
        <time>2020-08-29T14:41:30Z</time>
      </trkpt>
      <trkpt lat="39.964125" lon="-.63935">
        <ele>858.729</ele>
        <time>2020-08-29T14:41:31Z</time>
      </trkpt>
      <trkpt lat="39.964142" lon="-.639279">
        <ele>858.921</ele>
        <time>2020-08-29T14:41:32Z</time>
      </trkpt>
      <trkpt lat="39.964166" lon="-.639218">
        <ele>858.908</ele>
        <time>2020-08-29T14:41:33Z</time>
      </trkpt>
      <trkpt lat="39.964188" lon="-.63915">
        <ele>858.699</ele>
        <time>2020-08-29T14:41:34Z</time>
      </trkpt>
      <trkpt lat="39.964225" lon="-.639071">
        <ele>857.859</ele>
        <time>2020-08-29T14:41:35Z</time>
      </trkpt>
      <trkpt lat="39.964242" lon="-.639">
        <ele>857.871</ele>
        <time>2020-08-29T14:41:36Z</time>
      </trkpt>
      <trkpt lat="39.964267" lon="-.638935">
        <ele>857.843</ele>
        <time>2020-08-29T14:41:37Z</time>
      </trkpt>
      <trkpt lat="39.964304" lon="-.638868">
        <ele>857.831</ele>
        <time>2020-08-29T14:41:38Z</time>
      </trkpt>
      <trkpt lat="39.964328" lon="-.638801">
        <ele>857.868</ele>
        <time>2020-08-29T14:41:39Z</time>
      </trkpt>
      <trkpt lat="39.964347" lon="-.638727">
        <ele>858.176</ele>
        <time>2020-08-29T14:41:40Z</time>
      </trkpt>
      <trkpt lat="39.964367" lon="-.638672">
        <ele>858.126</ele>
        <time>2020-08-29T14:41:41Z</time>
      </trkpt>
      <trkpt lat="39.964388" lon="-.638617">
        <ele>857.417</ele>
        <time>2020-08-29T14:41:42Z</time>
      </trkpt>
      <trkpt lat="39.96442" lon="-.638539">
        <ele>857.287</ele>
        <time>2020-08-29T14:41:43Z</time>
      </trkpt>
      <trkpt lat="39.964447" lon="-.638459">
        <ele>857.115</ele>
        <time>2020-08-29T14:41:44Z</time>
      </trkpt>
      <trkpt lat="39.96447" lon="-.638397">
        <ele>857.108</ele>
        <time>2020-08-29T14:41:45Z</time>
      </trkpt>
      <trkpt lat="39.964493" lon="-.638337">
        <ele>857.276</ele>
        <time>2020-08-29T14:41:46Z</time>
      </trkpt>
      <trkpt lat="39.964518" lon="-.638269">
        <ele>857.266</ele>
        <time>2020-08-29T14:41:47Z</time>
      </trkpt>
      <trkpt lat="39.96454" lon="-.638189">
        <ele>857.268</ele>
        <time>2020-08-29T14:41:48Z</time>
      </trkpt>
      <trkpt lat="39.964572" lon="-.638118">
        <ele>856.840</ele>
        <time>2020-08-29T14:41:49Z</time>
      </trkpt>
      <trkpt lat="39.964603" lon="-.638043">
        <ele>856.818</ele>
        <time>2020-08-29T14:41:50Z</time>
      </trkpt>
      <trkpt lat="39.964631" lon="-.637973">
        <ele>856.985</ele>
        <time>2020-08-29T14:41:51Z</time>
      </trkpt>
      <trkpt lat="39.964686" lon="-.637885">
        <ele>855.443</ele>
        <time>2020-08-29T14:41:53Z</time>
      </trkpt>
      <trkpt lat="39.964712" lon="-.637828">
        <ele>855.613</ele>
        <time>2020-08-29T14:41:54Z</time>
      </trkpt>
      <trkpt lat="39.964747" lon="-.637756">
        <ele>855.656</ele>
        <time>2020-08-29T14:41:55Z</time>
      </trkpt>
      <trkpt lat="39.964782" lon="-.63768">
        <ele>855.559</ele>
        <time>2020-08-29T14:41:56Z</time>
      </trkpt>
      <trkpt lat="39.964815" lon="-.637589">
        <ele>855.514</ele>
        <time>2020-08-29T14:41:57Z</time>
      </trkpt>
      <trkpt lat="39.964847" lon="-.637492">
        <ele>855.508</ele>
        <time>2020-08-29T14:41:58Z</time>
      </trkpt>
      <trkpt lat="39.964869" lon="-.637407">
        <ele>855.450</ele>
        <time>2020-08-29T14:41:59Z</time>
      </trkpt>
      <trkpt lat="39.964908" lon="-.637323">
        <ele>854.890</ele>
        <time>2020-08-29T14:42:00Z</time>
      </trkpt>
      <trkpt lat="39.964967" lon="-.63722">
        <ele>854.622</ele>
        <time>2020-08-29T14:42:01Z</time>
      </trkpt>
      <trkpt lat="39.965025" lon="-.63714">
        <ele>854.324</ele>
        <time>2020-08-29T14:42:02Z</time>
      </trkpt>
      <trkpt lat="39.965067" lon="-.637052">
        <ele>854.322</ele>
        <time>2020-08-29T14:42:03Z</time>
      </trkpt>
      <trkpt lat="39.965117" lon="-.636961">
        <ele>853.849</ele>
        <time>2020-08-29T14:42:04Z</time>
      </trkpt>
      <trkpt lat="39.965155" lon="-.63689">
        <ele>853.787</ele>
        <time>2020-08-29T14:42:05Z</time>
      </trkpt>
      <trkpt lat="39.965191" lon="-.636814">
        <ele>853.737</ele>
        <time>2020-08-29T14:42:06Z</time>
      </trkpt>
      <trkpt lat="39.965226" lon="-.636725">
        <ele>854.097</ele>
        <time>2020-08-29T14:42:07Z</time>
      </trkpt>
      <trkpt lat="39.965249" lon="-.63661">
        <ele>854.223</ele>
        <time>2020-08-29T14:42:08Z</time>
      </trkpt>
      <trkpt lat="39.965317" lon="-.636562">
        <ele>854.125</ele>
        <time>2020-08-29T14:42:09Z</time>
      </trkpt>
      <trkpt lat="39.965359" lon="-.636446">
        <ele>854.208</ele>
        <time>2020-08-29T14:42:10Z</time>
      </trkpt>
      <trkpt lat="39.9654" lon="-.636379">
        <ele>854.194</ele>
        <time>2020-08-29T14:42:11Z</time>
      </trkpt>
      <trkpt lat="39.965443" lon="-.636284">
        <ele>851.944</ele>
        <time>2020-08-29T14:42:12Z</time>
      </trkpt>
      <trkpt lat="39.965493" lon="-.636225">
        <ele>851.586</ele>
        <time>2020-08-29T14:42:13Z</time>
      </trkpt>
      <trkpt lat="39.965537" lon="-.636132">
        <ele>851.518</ele>
        <time>2020-08-29T14:42:14Z</time>
      </trkpt>
      <trkpt lat="39.965593" lon="-.636049">
        <ele>851.726</ele>
        <time>2020-08-29T14:42:15Z</time>
      </trkpt>
      <trkpt lat="39.965643" lon="-.635979">
        <ele>851.893</ele>
        <time>2020-08-29T14:42:16Z</time>
      </trkpt>
      <trkpt lat="39.965696" lon="-.635926">
        <ele>851.951</ele>
        <time>2020-08-29T14:42:17Z</time>
      </trkpt>
      <trkpt lat="39.965732" lon="-.635851">
        <ele>852.021</ele>
        <time>2020-08-29T14:42:18Z</time>
      </trkpt>
      <trkpt lat="39.965777" lon="-.63578">
        <ele>852.523</ele>
        <time>2020-08-29T14:42:19Z</time>
      </trkpt>
      <trkpt lat="39.96583" lon="-.635717">
        <ele>852.583</ele>
        <time>2020-08-29T14:42:20Z</time>
      </trkpt>
      <trkpt lat="39.965877" lon="-.635663">
        <ele>851.711</ele>
        <time>2020-08-29T14:42:21Z</time>
      </trkpt>
      <trkpt lat="39.965925" lon="-.635595">
        <ele>851.608</ele>
        <time>2020-08-29T14:42:22Z</time>
      </trkpt>
      <trkpt lat="39.965964" lon="-.635529">
        <ele>851.377</ele>
        <time>2020-08-29T14:42:23Z</time>
      </trkpt>
      <trkpt lat="39.966004" lon="-.635469">
        <ele>851.337</ele>
        <time>2020-08-29T14:42:24Z</time>
      </trkpt>
      <trkpt lat="39.966049" lon="-.635403">
        <ele>851.279</ele>
        <time>2020-08-29T14:42:25Z</time>
      </trkpt>
      <trkpt lat="39.966092" lon="-.63535">
        <ele>851.081</ele>
        <time>2020-08-29T14:42:26Z</time>
      </trkpt>
      <trkpt lat="39.966141" lon="-.635279">
        <ele>850.899</ele>
        <time>2020-08-29T14:42:27Z</time>
      </trkpt>
      <trkpt lat="39.966186" lon="-.63521">
        <ele>849.986</ele>
        <time>2020-08-29T14:42:28Z</time>
      </trkpt>
      <trkpt lat="39.966237" lon="-.635147">
        <ele>849.964</ele>
        <time>2020-08-29T14:42:29Z</time>
      </trkpt>
      <trkpt lat="39.966281" lon="-.635093">
        <ele>849.564</ele>
        <time>2020-08-29T14:42:30Z</time>
      </trkpt>
      <trkpt lat="39.96632" lon="-.635036">
        <ele>849.589</ele>
        <time>2020-08-29T14:42:31Z</time>
      </trkpt>
      <trkpt lat="39.966361" lon="-.63499">
        <ele>850.006</ele>
        <time>2020-08-29T14:42:32Z</time>
      </trkpt>
      <trkpt lat="39.9664" lon="-.634937">
        <ele>850.026</ele>
        <time>2020-08-29T14:42:33Z</time>
      </trkpt>
      <trkpt lat="39.966443" lon="-.634891">
        <ele>849.708</ele>
        <time>2020-08-29T14:42:34Z</time>
      </trkpt>
      <trkpt lat="39.96649" lon="-.634837">
        <ele>849.293</ele>
        <time>2020-08-29T14:42:35Z</time>
      </trkpt>
      <trkpt lat="39.966523" lon="-.634775">
        <ele>849.763</ele>
        <time>2020-08-29T14:42:36Z</time>
      </trkpt>
      <trkpt lat="39.966569" lon="-.634725">
        <ele>849.225</ele>
        <time>2020-08-29T14:42:37Z</time>
      </trkpt>
      <trkpt lat="39.966608" lon="-.634671">
        <ele>849.777</ele>
        <time>2020-08-29T14:42:38Z</time>
      </trkpt>
      <trkpt lat="39.966645" lon="-.634608">
        <ele>849.715</ele>
        <time>2020-08-29T14:42:39Z</time>
      </trkpt>
      <trkpt lat="39.966697" lon="-.63453">
        <ele>849.732</ele>
        <time>2020-08-29T14:42:40Z</time>
      </trkpt>
      <trkpt lat="39.966737" lon="-.634467">
        <ele>849.440</ele>
        <time>2020-08-29T14:42:41Z</time>
      </trkpt>
      <trkpt lat="39.966784" lon="-.634419">
        <ele>849.420</ele>
        <time>2020-08-29T14:42:42Z</time>
      </trkpt>
      <trkpt lat="39.966848" lon="-.634391">
        <ele>849.327</ele>
        <time>2020-08-29T14:42:43Z</time>
      </trkpt>
      <trkpt lat="39.966884" lon="-.634323">
        <ele>849.168</ele>
        <time>2020-08-29T14:42:44Z</time>
      </trkpt>
      <trkpt lat="39.966932" lon="-.634266">
        <ele>849.114</ele>
        <time>2020-08-29T14:42:45Z</time>
      </trkpt>
      <trkpt lat="39.966972" lon="-.634196">
        <ele>848.908</ele>
        <time>2020-08-29T14:42:46Z</time>
      </trkpt>
      <trkpt lat="39.967016" lon="-.634119">
        <ele>848.077</ele>
        <time>2020-08-29T14:42:47Z</time>
      </trkpt>
      <trkpt lat="39.967043" lon="-.634056">
        <ele>848.017</ele>
        <time>2020-08-29T14:42:48Z</time>
      </trkpt>
      <trkpt lat="39.96708" lon="-.633981">
        <ele>848.129</ele>
        <time>2020-08-29T14:42:49Z</time>
      </trkpt>
      <trkpt lat="39.967121" lon="-.633919">
        <ele>848.271</ele>
        <time>2020-08-29T14:42:50Z</time>
      </trkpt>
      <trkpt lat="39.967159" lon="-.633855">
        <ele>848.289</ele>
        <time>2020-08-29T14:42:51Z</time>
      </trkpt>
      <trkpt lat="39.967194" lon="-.633784">
        <ele>848.556</ele>
        <time>2020-08-29T14:42:52Z</time>
      </trkpt>
      <trkpt lat="39.967231" lon="-.633721">
        <ele>848.564</ele>
        <time>2020-08-29T14:42:53Z</time>
      </trkpt>
      <trkpt lat="39.967268" lon="-.633666">
        <ele>847.464</ele>
        <time>2020-08-29T14:42:54Z</time>
      </trkpt>
      <trkpt lat="39.967296" lon="-.633598">
        <ele>846.976</ele>
        <time>2020-08-29T14:42:55Z</time>
      </trkpt>
      <trkpt lat="39.96732" lon="-.633545">
        <ele>846.790</ele>
        <time>2020-08-29T14:42:56Z</time>
      </trkpt>
      <trkpt lat="39.967359" lon="-.633479">
        <ele>845.719</ele>
        <time>2020-08-29T14:42:58Z</time>
      </trkpt>
      <trkpt lat="39.967394" lon="-.633394">
        <ele>845.708</ele>
        <time>2020-08-29T14:43:00Z</time>
      </trkpt>
      <trkpt lat="39.967431" lon="-.633318">
        <ele>845.652</ele>
        <time>2020-08-29T14:43:02Z</time>
      </trkpt>
      <trkpt lat="39.967469" lon="-.633235">
        <ele>845.722</ele>
        <time>2020-08-29T14:43:04Z</time>
      </trkpt>
      <trkpt lat="39.96749" lon="-.633169">
        <ele>845.784</ele>
        <time>2020-08-29T14:43:05Z</time>
      </trkpt>
      <trkpt lat="39.967518" lon="-.633114">
        <ele>845.716</ele>
        <time>2020-08-29T14:43:06Z</time>
      </trkpt>
      <trkpt lat="39.967544" lon="-.633058">
        <ele>844.944</ele>
        <time>2020-08-29T14:43:07Z</time>
      </trkpt>
      <trkpt lat="39.967565" lon="-.63299">
        <ele>844.931</ele>
        <time>2020-08-29T14:43:08Z</time>
      </trkpt>
      <trkpt lat="39.96759" lon="-.632928">
        <ele>845.239</ele>
        <time>2020-08-29T14:43:09Z</time>
      </trkpt>
      <trkpt lat="39.967613" lon="-.632868">
        <ele>845.459</ele>
        <time>2020-08-29T14:43:10Z</time>
      </trkpt>
      <trkpt lat="39.967656" lon="-.632755">
        <ele>845.234</ele>
        <time>2020-08-29T14:43:12Z</time>
      </trkpt>
      <trkpt lat="39.9677" lon="-.632649">
        <ele>844.455</ele>
        <time>2020-08-29T14:43:14Z</time>
      </trkpt>
      <trkpt lat="39.967725" lon="-.632571">
        <ele>844.410</ele>
        <time>2020-08-29T14:43:15Z</time>
      </trkpt>
      <trkpt lat="39.967749" lon="-.632505">
        <ele>844.408</ele>
        <time>2020-08-29T14:43:16Z</time>
      </trkpt>
      <trkpt lat="39.967775" lon="-.63244">
        <ele>844.328</ele>
        <time>2020-08-29T14:43:17Z</time>
      </trkpt>
      <trkpt lat="39.967792" lon="-.632382">
        <ele>844.378</ele>
        <time>2020-08-29T14:43:18Z</time>
      </trkpt>
      <trkpt lat="39.967816" lon="-.63233">
        <ele>844.310</ele>
        <time>2020-08-29T14:43:19Z</time>
      </trkpt>
      <trkpt lat="39.967836" lon="-.632272">
        <ele>844.392</ele>
        <time>2020-08-29T14:43:20Z</time>
      </trkpt>
      <trkpt lat="39.967863" lon="-.632208">
        <ele>844.270</ele>
        <time>2020-08-29T14:43:21Z</time>
      </trkpt>
      <trkpt lat="39.967884" lon="-.632141">
        <ele>844.177</ele>
        <time>2020-08-29T14:43:22Z</time>
      </trkpt>
      <trkpt lat="39.967908" lon="-.632084">
        <ele>844.085</ele>
        <time>2020-08-29T14:43:23Z</time>
      </trkpt>
      <trkpt lat="39.967926" lon="-.632028">
        <ele>843.735</ele>
        <time>2020-08-29T14:43:24Z</time>
      </trkpt>
      <trkpt lat="39.967951" lon="-.63196">
        <ele>843.879</ele>
        <time>2020-08-29T14:43:25Z</time>
      </trkpt>
      <trkpt lat="39.967976" lon="-.6319">
        <ele>843.505</ele>
        <time>2020-08-29T14:43:26Z</time>
      </trkpt>
      <trkpt lat="39.967995" lon="-.631829">
        <ele>843.525</ele>
        <time>2020-08-29T14:43:27Z</time>
      </trkpt>
      <trkpt lat="39.968014" lon="-.631764">
        <ele>843.008</ele>
        <time>2020-08-29T14:43:28Z</time>
      </trkpt>
      <trkpt lat="39.968034" lon="-.631703">
        <ele>842.982</ele>
        <time>2020-08-29T14:43:29Z</time>
      </trkpt>
      <trkpt lat="39.968059" lon="-.631634">
        <ele>842.962</ele>
        <time>2020-08-29T14:43:30Z</time>
      </trkpt>
      <trkpt lat="39.968083" lon="-.631574">
        <ele>843.194</ele>
        <time>2020-08-29T14:43:31Z</time>
      </trkpt>
      <trkpt lat="39.96811" lon="-.631511">
        <ele>843.176</ele>
        <time>2020-08-29T14:43:32Z</time>
      </trkpt>
      <trkpt lat="39.968138" lon="-.631449">
        <ele>843.184</ele>
        <time>2020-08-29T14:43:33Z</time>
      </trkpt>
      <trkpt lat="39.968163" lon="-.63139">
        <ele>842.811</ele>
        <time>2020-08-29T14:43:34Z</time>
      </trkpt>
      <trkpt lat="39.968187" lon="-.631336">
        <ele>842.779</ele>
        <time>2020-08-29T14:43:35Z</time>
      </trkpt>
      <trkpt lat="39.968245" lon="-.631244">
        <ele>841.749</ele>
        <time>2020-08-29T14:43:37Z</time>
      </trkpt>
      <trkpt lat="39.968275" lon="-.631197">
        <ele>841.747</ele>
        <time>2020-08-29T14:43:38Z</time>
      </trkpt>
      <trkpt lat="39.968301" lon="-.631148">
        <ele>841.729</ele>
        <time>2020-08-29T14:43:39Z</time>
      </trkpt>
      <trkpt lat="39.968336" lon="-.631105">
        <ele>841.821</ele>
        <time>2020-08-29T14:43:40Z</time>
      </trkpt>
      <trkpt lat="39.968366" lon="-.631059">
        <ele>841.908</ele>
        <time>2020-08-29T14:43:41Z</time>
      </trkpt>
      <trkpt lat="39.968386" lon="-.631006">
        <ele>841.719</ele>
        <time>2020-08-29T14:43:42Z</time>
      </trkpt>
      <trkpt lat="39.968416" lon="-.63095">
        <ele>841.559</ele>
        <time>2020-08-29T14:43:43Z</time>
      </trkpt>
      <trkpt lat="39.968449" lon="-.63087">
        <ele>841.011</ele>
        <time>2020-08-29T14:43:45Z</time>
      </trkpt>
      <trkpt lat="39.968465" lon="-.630802">
        <ele>840.663</ele>
        <time>2020-08-29T14:43:46Z</time>
      </trkpt>
      <trkpt lat="39.968501" lon="-.630711">
        <ele>840.561</ele>
        <time>2020-08-29T14:43:48Z</time>
      </trkpt>
      <trkpt lat="39.968514" lon="-.630645">
        <ele>840.438</ele>
        <time>2020-08-29T14:43:49Z</time>
      </trkpt>
      <trkpt lat="39.96855" lon="-.630577">
        <ele>840.296</ele>
        <time>2020-08-29T14:43:50Z</time>
      </trkpt>
      <trkpt lat="39.968607" lon="-.630527">
        <ele>840.296</ele>
        <time>2020-08-29T14:43:51Z</time>
      </trkpt>
      <trkpt lat="39.968643" lon="-.630478">
        <ele>840.232</ele>
        <time>2020-08-29T14:43:52Z</time>
      </trkpt>
      <trkpt lat="39.96868" lon="-.630421">
        <ele>840.292</ele>
        <time>2020-08-29T14:43:53Z</time>
      </trkpt>
      <trkpt lat="39.968707" lon="-.630356">
        <ele>839.511</ele>
        <time>2020-08-29T14:43:54Z</time>
      </trkpt>
      <trkpt lat="39.968714" lon="-.630281">
        <ele>839.508</ele>
        <time>2020-08-29T14:43:55Z</time>
      </trkpt>
      <trkpt lat="39.968719" lon="-.630221">
        <ele>838.838</ele>
        <time>2020-08-29T14:43:56Z</time>
      </trkpt>
      <trkpt lat="39.968737" lon="-.630161">
        <ele>838.888</ele>
        <time>2020-08-29T14:43:57Z</time>
      </trkpt>
      <trkpt lat="39.968754" lon="-.630105">
        <ele>838.890</ele>
        <time>2020-08-29T14:43:58Z</time>
      </trkpt>
      <trkpt lat="39.96877" lon="-.630049">
        <ele>839.282</ele>
        <time>2020-08-29T14:43:59Z</time>
      </trkpt>
      <trkpt lat="39.968787" lon="-.629993">
        <ele>839.590</ele>
        <time>2020-08-29T14:44:00Z</time>
      </trkpt>
      <trkpt lat="39.9688" lon="-.629934">
        <ele>838.937</ele>
        <time>2020-08-29T14:44:01Z</time>
      </trkpt>
      <trkpt lat="39.968851" lon="-.629717">
        <ele>838.655</ele>
        <time>2020-08-29T14:44:05Z</time>
      </trkpt>
      <trkpt lat="39.968864" lon="-.629642">
        <ele>838.795</ele>
        <time>2020-08-29T14:44:06Z</time>
      </trkpt>
      <trkpt lat="39.968895" lon="-.629572">
        <ele>838.799</ele>
        <time>2020-08-29T14:44:07Z</time>
      </trkpt>
      <trkpt lat="39.969079" lon="-.629548">
        <ele>838.507</ele>
        <time>2020-08-29T14:44:08Z</time>
      </trkpt>
      <trkpt lat="39.969201" lon="-.62953">
        <ele>838.527</ele>
        <time>2020-08-29T14:44:09Z</time>
      </trkpt>
      <trkpt lat="39.969249" lon="-.629447">
        <ele>838.008</ele>
        <time>2020-08-29T14:44:10Z</time>
      </trkpt>
      <trkpt lat="39.969306" lon="-.629359">
        <ele>837.724</ele>
        <time>2020-08-29T14:44:12Z</time>
      </trkpt>
      <trkpt lat="39.969361" lon="-.629262">
        <ele>837.684</ele>
        <time>2020-08-29T14:44:14Z</time>
      </trkpt>
      <trkpt lat="39.96938" lon="-.629207">
        <ele>837.156</ele>
        <time>2020-08-29T14:44:15Z</time>
      </trkpt>
      <trkpt lat="39.969444" lon="-.629121">
        <ele>836.788</ele>
        <time>2020-08-29T14:44:17Z</time>
      </trkpt>
      <trkpt lat="39.969469" lon="-.629064">
        <ele>835.916</ele>
        <time>2020-08-29T14:44:18Z</time>
      </trkpt>
      <trkpt lat="39.9695" lon="-.628999">
        <ele>835.973</ele>
        <time>2020-08-29T14:44:19Z</time>
      </trkpt>
      <trkpt lat="39.969529" lon="-.628938">
        <ele>835.951</ele>
        <time>2020-08-29T14:44:20Z</time>
      </trkpt>
      <trkpt lat="39.969557" lon="-.628877">
        <ele>835.551</ele>
        <time>2020-08-29T14:44:21Z</time>
      </trkpt>
      <trkpt lat="39.969591" lon="-.628831">
        <ele>835.598</ele>
        <time>2020-08-29T14:44:22Z</time>
      </trkpt>
      <trkpt lat="39.969608" lon="-.62877">
        <ele>835.315</ele>
        <time>2020-08-29T14:44:23Z</time>
      </trkpt>
      <trkpt lat="39.969631" lon="-.628712">
        <ele>835.226</ele>
        <time>2020-08-29T14:44:24Z</time>
      </trkpt>
      <trkpt lat="39.969661" lon="-.628608">
        <ele>835.208</ele>
        <time>2020-08-29T14:44:25Z</time>
      </trkpt>
      <trkpt lat="39.969692" lon="-.628492">
        <ele>834.864</ele>
        <time>2020-08-29T14:44:26Z</time>
      </trkpt>
      <trkpt lat="39.969712" lon="-.628402">
        <ele>834.734</ele>
        <time>2020-08-29T14:44:27Z</time>
      </trkpt>
      <trkpt lat="39.969765" lon="-.628268">
        <ele>834.356</ele>
        <time>2020-08-29T14:44:29Z</time>
      </trkpt>
      <trkpt lat="39.969784" lon="-.628188">
        <ele>834.248</ele>
        <time>2020-08-29T14:44:30Z</time>
      </trkpt>
      <trkpt lat="39.969795" lon="-.628125">
        <ele>834.246</ele>
        <time>2020-08-29T14:44:31Z</time>
      </trkpt>
      <trkpt lat="39.969825" lon="-.628036">
        <ele>834.053</ele>
        <time>2020-08-29T14:44:32Z</time>
      </trkpt>
      <trkpt lat="39.969852" lon="-.627901">
        <ele>834.081</ele>
        <time>2020-08-29T14:44:34Z</time>
      </trkpt>
      <trkpt lat="39.969857" lon="-.627832">
        <ele>833.871</ele>
        <time>2020-08-29T14:44:35Z</time>
      </trkpt>
      <trkpt lat="39.969866" lon="-.627755">
        <ele>833.868</ele>
        <time>2020-08-29T14:44:36Z</time>
      </trkpt>
      <trkpt lat="39.969879" lon="-.627695">
        <ele>833.542</ele>
        <time>2020-08-29T14:44:37Z</time>
      </trkpt>
      <trkpt lat="39.969892" lon="-.62762">
        <ele>833.426</ele>
        <time>2020-08-29T14:44:38Z</time>
      </trkpt>
      <trkpt lat="39.969908" lon="-.627549">
        <ele>833.208</ele>
        <time>2020-08-29T14:44:39Z</time>
      </trkpt>
      <trkpt lat="39.969934" lon="-.627439">
        <ele>832.951</ele>
        <time>2020-08-29T14:44:41Z</time>
      </trkpt>
      <trkpt lat="39.969937" lon="-.627374">
        <ele>832.691</ele>
        <time>2020-08-29T14:44:42Z</time>
      </trkpt>
      <trkpt lat="39.969947" lon="-.627305">
        <ele>831.553</ele>
        <time>2020-08-29T14:44:43Z</time>
      </trkpt>
      <trkpt lat="39.969953" lon="-.627246">
        <ele>831.525</ele>
        <time>2020-08-29T14:44:44Z</time>
      </trkpt>
      <trkpt lat="39.969954" lon="-.627175">
        <ele>831.383</ele>
        <time>2020-08-29T14:44:45Z</time>
      </trkpt>
      <trkpt lat="39.96994" lon="-.627109">
        <ele>831.630</ele>
        <time>2020-08-29T14:44:46Z</time>
      </trkpt>
      <trkpt lat="39.969925" lon="-.627034">
        <ele>831.648</ele>
        <time>2020-08-29T14:44:47Z</time>
      </trkpt>
      <trkpt lat="39.969929" lon="-.626966">
        <ele>832.398</ele>
        <time>2020-08-29T14:44:48Z</time>
      </trkpt>
      <trkpt lat="39.969925" lon="-.626897">
        <ele>832.394</ele>
        <time>2020-08-29T14:44:49Z</time>
      </trkpt>
      <trkpt lat="39.96992" lon="-.626805">
        <ele>831.357</ele>
        <time>2020-08-29T14:44:50Z</time>
      </trkpt>
      <trkpt lat="39.969908" lon="-.626711">
        <ele>831.322</ele>
        <time>2020-08-29T14:44:51Z</time>
      </trkpt>
      <trkpt lat="39.969921" lon="-.626619">
        <ele>832.208</ele>
        <time>2020-08-29T14:44:52Z</time>
      </trkpt>
      <trkpt lat="39.969923" lon="-.626526">
        <ele>832.214</ele>
        <time>2020-08-29T14:44:53Z</time>
      </trkpt>
      <trkpt lat="39.969915" lon="-.626428">
        <ele>832.314</ele>
        <time>2020-08-29T14:44:54Z</time>
      </trkpt>
      <trkpt lat="39.969914" lon="-.626362">
        <ele>832.736</ele>
        <time>2020-08-29T14:44:55Z</time>
      </trkpt>
      <trkpt lat="39.969907" lon="-.626301">
        <ele>831.458</ele>
        <time>2020-08-29T14:44:56Z</time>
      </trkpt>
      <trkpt lat="39.969896" lon="-.626194">
        <ele>831.316</ele>
        <time>2020-08-29T14:44:57Z</time>
      </trkpt>
      <trkpt lat="39.969895" lon="-.626111">
        <ele>831.133</ele>
        <time>2020-08-29T14:44:58Z</time>
      </trkpt>
      <trkpt lat="39.969893" lon="-.626008">
        <ele>830.961</ele>
        <time>2020-08-29T14:44:59Z</time>
      </trkpt>
      <trkpt lat="39.969892" lon="-.625925">
        <ele>830.721</ele>
        <time>2020-08-29T14:45:00Z</time>
      </trkpt>
      <trkpt lat="39.969873" lon="-.62584">
        <ele>830.741</ele>
        <time>2020-08-29T14:45:01Z</time>
      </trkpt>
      <trkpt lat="39.96985" lon="-.625763">
        <ele>830.781</ele>
        <time>2020-08-29T14:45:02Z</time>
      </trkpt>
      <trkpt lat="39.969831" lon="-.625683">
        <ele>830.609</ele>
        <time>2020-08-29T14:45:03Z</time>
      </trkpt>
      <trkpt lat="39.969815" lon="-.625621">
        <ele>830.308</ele>
        <time>2020-08-29T14:45:04Z</time>
      </trkpt>
      <trkpt lat="39.969807" lon="-.62554">
        <ele>830.159</ele>
        <time>2020-08-29T14:45:05Z</time>
      </trkpt>
      <trkpt lat="39.969794" lon="-.625461">
        <ele>829.769</ele>
        <time>2020-08-29T14:45:06Z</time>
      </trkpt>
      <trkpt lat="39.969774" lon="-.625367">
        <ele>829.771</ele>
        <time>2020-08-29T14:45:07Z</time>
      </trkpt>
      <trkpt lat="39.969754" lon="-.625289">
        <ele>829.673</ele>
        <time>2020-08-29T14:45:08Z</time>
      </trkpt>
      <trkpt lat="39.969746" lon="-.625222">
        <ele>829.411</ele>
        <time>2020-08-29T14:45:09Z</time>
      </trkpt>
      <trkpt lat="39.969728" lon="-.625149">
        <ele>829.438</ele>
        <time>2020-08-29T14:45:10Z</time>
      </trkpt>
      <trkpt lat="39.969703" lon="-.625071">
        <ele>829.126</ele>
        <time>2020-08-29T14:45:11Z</time>
      </trkpt>
      <trkpt lat="39.969675" lon="-.624996">
        <ele>828.866</ele>
        <time>2020-08-29T14:45:12Z</time>
      </trkpt>
      <trkpt lat="39.969663" lon="-.624919">
        <ele>828.779</ele>
        <time>2020-08-29T14:45:13Z</time>
      </trkpt>
      <trkpt lat="39.969654" lon="-.624846">
        <ele>828.105</ele>
        <time>2020-08-29T14:45:14Z</time>
      </trkpt>
      <trkpt lat="39.969628" lon="-.624766">
        <ele>827.925</ele>
        <time>2020-08-29T14:45:15Z</time>
      </trkpt>
      <trkpt lat="39.969624" lon="-.624701">
        <ele>827.908</ele>
        <time>2020-08-29T14:45:16Z</time>
      </trkpt>
      <trkpt lat="39.969597" lon="-.624641">
        <ele>827.992</ele>
        <time>2020-08-29T14:45:17Z</time>
      </trkpt>
      <trkpt lat="39.969572" lon="-.624572">
        <ele>827.622</ele>
        <time>2020-08-29T14:45:18Z</time>
      </trkpt>
      <trkpt lat="39.969558" lon="-.624485">
        <ele>827.544</ele>
        <time>2020-08-29T14:45:19Z</time>
      </trkpt>
      <trkpt lat="39.969546" lon="-.624415">
        <ele>827.526</ele>
        <time>2020-08-29T14:45:20Z</time>
      </trkpt>
      <trkpt lat="39.969557" lon="-.624342">
        <ele>827.174</ele>
        <time>2020-08-29T14:45:21Z</time>
      </trkpt>
      <trkpt lat="39.969553" lon="-.624254">
        <ele>827.161</ele>
        <time>2020-08-29T14:45:22Z</time>
      </trkpt>
      <trkpt lat="39.969527" lon="-.624175">
        <ele>827.059</ele>
        <time>2020-08-29T14:45:23Z</time>
      </trkpt>
      <trkpt lat="39.96952" lon="-.624074">
        <ele>827.059</ele>
        <time>2020-08-29T14:45:24Z</time>
      </trkpt>
      <trkpt lat="39.969506" lon="-.623988">
        <ele>826.868</ele>
        <time>2020-08-29T14:45:25Z</time>
      </trkpt>
      <trkpt lat="39.969497" lon="-.623918">
        <ele>826.842</ele>
        <time>2020-08-29T14:45:26Z</time>
      </trkpt>
      <trkpt lat="39.969479" lon="-.623826">
        <ele>826.726</ele>
        <time>2020-08-29T14:45:27Z</time>
      </trkpt>
      <trkpt lat="39.969462" lon="-.623746">
        <ele>826.708</ele>
        <time>2020-08-29T14:45:28Z</time>
      </trkpt>
      <trkpt lat="39.969436" lon="-.623679">
        <ele>826.521</ele>
        <time>2020-08-29T14:45:29Z</time>
      </trkpt>
      <trkpt lat="39.96942" lon="-.62359">
        <ele>826.441</ele>
        <time>2020-08-29T14:45:30Z</time>
      </trkpt>
      <trkpt lat="39.969411" lon="-.623511">
        <ele>826.463</ele>
        <time>2020-08-29T14:45:31Z</time>
      </trkpt>
      <trkpt lat="39.969372" lon="-.623399">
        <ele>825.885</ele>
        <time>2020-08-29T14:45:33Z</time>
      </trkpt>
      <trkpt lat="39.969348" lon="-.623333">
        <ele>825.893</ele>
        <time>2020-08-29T14:45:34Z</time>
      </trkpt>
      <trkpt lat="39.969328" lon="-.623254">
        <ele>825.870</ele>
        <time>2020-08-29T14:45:35Z</time>
      </trkpt>
      <trkpt lat="39.969321" lon="-.623158">
        <ele>825.598</ele>
        <time>2020-08-29T14:45:36Z</time>
      </trkpt>
      <trkpt lat="39.969318" lon="-.623057">
        <ele>825.578</ele>
        <time>2020-08-29T14:45:37Z</time>
      </trkpt>
      <trkpt lat="39.969296" lon="-.62299">
        <ele>825.413</ele>
        <time>2020-08-29T14:45:38Z</time>
      </trkpt>
      <trkpt lat="39.969287" lon="-.622917">
        <ele>825.343</ele>
        <time>2020-08-29T14:45:39Z</time>
      </trkpt>
      <trkpt lat="39.96927" lon="-.622838">
        <ele>825.207</ele>
        <time>2020-08-29T14:45:40Z</time>
      </trkpt>
      <trkpt lat="39.969245" lon="-.622759">
        <ele>824.808</ele>
        <time>2020-08-29T14:45:41Z</time>
      </trkpt>
      <trkpt lat="39.969229" lon="-.622672">
        <ele>824.626</ele>
        <time>2020-08-29T14:45:42Z</time>
      </trkpt>
      <trkpt lat="39.969212" lon="-.622582">
        <ele>824.486</ele>
        <time>2020-08-29T14:45:43Z</time>
      </trkpt>
      <trkpt lat="39.969193" lon="-.622499">
        <ele>824.198</ele>
        <time>2020-08-29T14:45:44Z</time>
      </trkpt>
      <trkpt lat="39.969174" lon="-.622418">
        <ele>823.770</ele>
        <time>2020-08-29T14:45:45Z</time>
      </trkpt>
      <trkpt lat="39.969141" lon="-.622345">
        <ele>823.618</ele>
        <time>2020-08-29T14:45:46Z</time>
      </trkpt>
      <trkpt lat="39.96912" lon="-.622276">
        <ele>823.395</ele>
        <time>2020-08-29T14:45:47Z</time>
      </trkpt>
      <trkpt lat="39.969102" lon="-.622214">
        <ele>822.453</ele>
        <time>2020-08-29T14:45:48Z</time>
      </trkpt>
      <trkpt lat="39.969075" lon="-.622145">
        <ele>822.283</ele>
        <time>2020-08-29T14:45:49Z</time>
      </trkpt>
      <trkpt lat="39.969043" lon="-.622088">
        <ele>822.258</ele>
        <time>2020-08-29T14:45:50Z</time>
      </trkpt>
      <trkpt lat="39.969002" lon="-.622021">
        <ele>822.052</ele>
        <time>2020-08-29T14:45:51Z</time>
      </trkpt>
      <trkpt lat="39.968968" lon="-.621957">
        <ele>822.917</ele>
        <time>2020-08-29T14:45:52Z</time>
      </trkpt>
      <trkpt lat="39.968932" lon="-.621885">
        <ele>823.108</ele>
        <time>2020-08-29T14:45:53Z</time>
      </trkpt>
      <trkpt lat="39.968917" lon="-.621811">
        <ele>823.010</ele>
        <time>2020-08-29T14:45:54Z</time>
      </trkpt>
      <trkpt lat="39.968892" lon="-.62174">
        <ele>823.060</ele>
        <time>2020-08-29T14:45:55Z</time>
      </trkpt>
      <trkpt lat="39.96885" lon="-.621682">
        <ele>822.442</ele>
        <time>2020-08-29T14:45:56Z</time>
      </trkpt>
      <trkpt lat="39.968818" lon="-.621608">
        <ele>822.124</ele>
        <time>2020-08-29T14:45:57Z</time>
      </trkpt>
      <trkpt lat="39.968774" lon="-.621538">
        <ele>821.832</ele>
        <time>2020-08-29T14:45:58Z</time>
      </trkpt>
      <trkpt lat="39.968742" lon="-.621484">
        <ele>821.259</ele>
        <time>2020-08-29T14:45:59Z</time>
      </trkpt>
      <trkpt lat="39.968702" lon="-.621441">
        <ele>821.287</ele>
        <time>2020-08-29T14:46:00Z</time>
      </trkpt>
      <trkpt lat="39.968656" lon="-.621383">
        <ele>821.027</ele>
        <time>2020-08-29T14:46:01Z</time>
      </trkpt>
      <trkpt lat="39.968614" lon="-.621331">
        <ele>820.828</ele>
        <time>2020-08-29T14:46:02Z</time>
      </trkpt>
      <trkpt lat="39.968567" lon="-.621283">
        <ele>820.789</ele>
        <time>2020-08-29T14:46:03Z</time>
      </trkpt>
      <trkpt lat="39.96852" lon="-.621245">
        <ele>820.517</ele>
        <time>2020-08-29T14:46:04Z</time>
      </trkpt>
      <trkpt lat="39.968485" lon="-.621208">
        <ele>820.308</ele>
        <time>2020-08-29T14:46:05Z</time>
      </trkpt>
      <trkpt lat="39.968438" lon="-.621158">
        <ele>820.367</ele>
        <time>2020-08-29T14:46:06Z</time>
      </trkpt>
      <trkpt lat="39.968387" lon="-.62111">
        <ele>820.387</ele>
        <time>2020-08-29T14:46:07Z</time>
      </trkpt>
      <trkpt lat="39.968342" lon="-.621067">
        <ele>820.089</ele>
        <time>2020-08-29T14:46:08Z</time>
      </trkpt>
      <trkpt lat="39.968307" lon="-.621014">
        <ele>820.061</ele>
        <time>2020-08-29T14:46:09Z</time>
      </trkpt>
      <trkpt lat="39.968271" lon="-.620977">
        <ele>819.849</ele>
        <time>2020-08-29T14:46:10Z</time>
      </trkpt>
      <trkpt lat="39.96821" lon="-.62091">
        <ele>819.726</ele>
        <time>2020-08-29T14:46:12Z</time>
      </trkpt>
      <trkpt lat="39.968161" lon="-.620882">
        <ele>819.264</ele>
        <time>2020-08-29T14:46:13Z</time>
      </trkpt>
      <trkpt lat="39.968111" lon="-.620874">
        <ele>819.294</ele>
        <time>2020-08-29T14:46:14Z</time>
      </trkpt>
      <trkpt lat="39.96806" lon="-.620845">
        <ele>819.279</ele>
        <time>2020-08-29T14:46:15Z</time>
      </trkpt>
      <trkpt lat="39.968002" lon="-.6208">
        <ele>819.205</ele>
        <time>2020-08-29T14:46:16Z</time>
      </trkpt>
      <trkpt lat="39.967933" lon="-.620745">
        <ele>819.025</ele>
        <time>2020-08-29T14:46:17Z</time>
      </trkpt>
      <trkpt lat="39.967873" lon="-.620704">
        <ele>819.008</ele>
        <time>2020-08-29T14:46:18Z</time>
      </trkpt>
      <trkpt lat="39.967821" lon="-.62066">
        <ele>819.342</ele>
        <time>2020-08-29T14:46:19Z</time>
      </trkpt>
      <trkpt lat="39.967768" lon="-.62061">
        <ele>819.362</ele>
        <time>2020-08-29T14:46:20Z</time>
      </trkpt>
      <trkpt lat="39.967682" lon="-.620539">
        <ele>819.054</ele>
        <time>2020-08-29T14:46:22Z</time>
      </trkpt>
      <trkpt lat="39.967619" lon="-.620485">
        <ele>818.956</ele>
        <time>2020-08-29T14:46:23Z</time>
      </trkpt>
      <trkpt lat="39.96755" lon="-.620448">
        <ele>818.494</ele>
        <time>2020-08-29T14:46:24Z</time>
      </trkpt>
      <trkpt lat="39.967474" lon="-.620399">
        <ele>818.391</ele>
        <time>2020-08-29T14:46:25Z</time>
      </trkpt>
      <trkpt lat="39.96741" lon="-.620378">
        <ele>818.129</ele>
        <time>2020-08-29T14:46:26Z</time>
      </trkpt>
      <trkpt lat="39.967363" lon="-.620349">
        <ele>817.699</ele>
        <time>2020-08-29T14:46:27Z</time>
      </trkpt>
      <trkpt lat="39.967316" lon="-.620316">
        <ele>817.544</ele>
        <time>2020-08-29T14:46:28Z</time>
      </trkpt>
      <trkpt lat="39.967268" lon="-.620286">
        <ele>817.305</ele>
        <time>2020-08-29T14:46:29Z</time>
      </trkpt>
      <trkpt lat="39.967214" lon="-.620262">
        <ele>817.315</ele>
        <time>2020-08-29T14:46:30Z</time>
      </trkpt>
      <trkpt lat="39.967162" lon="-.620246">
        <ele>817.308</ele>
        <time>2020-08-29T14:46:31Z</time>
      </trkpt>
      <trkpt lat="39.967076" lon="-.620216">
        <ele>816.849</ele>
        <time>2020-08-29T14:46:33Z</time>
      </trkpt>
      <trkpt lat="39.967006" lon="-.620221">
        <ele>816.889</ele>
        <time>2020-08-29T14:46:34Z</time>
      </trkpt>
      <trkpt lat="39.96695" lon="-.620221">
        <ele>816.871</ele>
        <time>2020-08-29T14:46:35Z</time>
      </trkpt>
      <trkpt lat="39.96689" lon="-.620211">
        <ele>816.843</ele>
        <time>2020-08-29T14:46:36Z</time>
      </trkpt>
      <trkpt lat="39.966842" lon="-.620213">
        <ele>816.831</ele>
        <time>2020-08-29T14:46:37Z</time>
      </trkpt>
      <trkpt lat="39.966788" lon="-.620211">
        <ele>816.398</ele>
        <time>2020-08-29T14:46:38Z</time>
      </trkpt>
      <trkpt lat="39.966739" lon="-.620206">
        <ele>816.246</ele>
        <time>2020-08-29T14:46:39Z</time>
      </trkpt>
      <trkpt lat="39.966675" lon="-.620186">
        <ele>816.196</ele>
        <time>2020-08-29T14:46:40Z</time>
      </trkpt>
      <trkpt lat="39.966612" lon="-.620172">
        <ele>815.796</ele>
        <time>2020-08-29T14:46:41Z</time>
      </trkpt>
      <trkpt lat="39.966552" lon="-.620185">
        <ele>815.731</ele>
        <time>2020-08-29T14:46:42Z</time>
      </trkpt>
      <trkpt lat="39.966494" lon="-.620202">
        <ele>815.724</ele>
        <time>2020-08-29T14:46:43Z</time>
      </trkpt>
      <trkpt lat="39.966425" lon="-.620205">
        <ele>815.308</ele>
        <time>2020-08-29T14:46:44Z</time>
      </trkpt>
      <trkpt lat="39.966355" lon="-.620211">
        <ele>815.384</ele>
        <time>2020-08-29T14:46:45Z</time>
      </trkpt>
      <trkpt lat="39.966304" lon="-.620224">
        <ele>815.364</ele>
        <time>2020-08-29T14:46:46Z</time>
      </trkpt>
      <trkpt lat="39.966255" lon="-.620239">
        <ele>815.066</ele>
        <time>2020-08-29T14:46:47Z</time>
      </trkpt>
      <trkpt lat="39.966184" lon="-.620259">
        <ele>814.898</ele>
        <time>2020-08-29T14:46:48Z</time>
      </trkpt>
      <trkpt lat="39.966113" lon="-.620274">
        <ele>814.776</ele>
        <time>2020-08-29T14:46:49Z</time>
      </trkpt>
      <trkpt lat="39.966047" lon="-.620288">
        <ele>814.333</ele>
        <time>2020-08-29T14:46:50Z</time>
      </trkpt>
      <trkpt lat="39.965984" lon="-.620296">
        <ele>814.331</ele>
        <time>2020-08-29T14:46:51Z</time>
      </trkpt>
      <trkpt lat="39.965919" lon="-.620305">
        <ele>814.361</ele>
        <time>2020-08-29T14:46:52Z</time>
      </trkpt>
      <trkpt lat="39.965864" lon="-.620321">
        <ele>814.292</ele>
        <time>2020-08-29T14:46:53Z</time>
      </trkpt>
      <trkpt lat="39.965808" lon="-.620339">
        <ele>814.273</ele>
        <time>2020-08-29T14:46:54Z</time>
      </trkpt>
      <trkpt lat="39.96576" lon="-.620354">
        <ele>814.020</ele>
        <time>2020-08-29T14:46:55Z</time>
      </trkpt>
      <trkpt lat="39.965709" lon="-.620361">
        <ele>814.008</ele>
        <time>2020-08-29T14:46:56Z</time>
      </trkpt>
      <trkpt lat="39.965651" lon="-.620374">
        <ele>814.034</ele>
        <time>2020-08-29T14:46:57Z</time>
      </trkpt>
      <trkpt lat="39.965589" lon="-.620375">
        <ele>813.854</ele>
        <time>2020-08-29T14:46:58Z</time>
      </trkpt>
      <trkpt lat="39.965526" lon="-.620407">
        <ele>813.376</ele>
        <time>2020-08-29T14:46:59Z</time>
      </trkpt>
      <trkpt lat="39.965463" lon="-.620411">
        <ele>813.368</ele>
        <time>2020-08-29T14:47:00Z</time>
      </trkpt>
      <trkpt lat="39.965423" lon="-.620439">
        <ele>813.236</ele>
        <time>2020-08-29T14:47:01Z</time>
      </trkpt>
      <trkpt lat="39.965371" lon="-.62047">
        <ele>813.083</ele>
        <time>2020-08-29T14:47:02Z</time>
      </trkpt>
      <trkpt lat="39.965315" lon="-.620476">
        <ele>813.051</ele>
        <time>2020-08-29T14:47:03Z</time>
      </trkpt>
      <trkpt lat="39.965242" lon="-.620481">
        <ele>812.771</ele>
        <time>2020-08-29T14:47:04Z</time>
      </trkpt>
      <trkpt lat="39.965178" lon="-.620467">
        <ele>812.584</ele>
        <time>2020-08-29T14:47:05Z</time>
      </trkpt>
      <trkpt lat="39.965115" lon="-.620454">
        <ele>811.307</ele>
        <time>2020-08-29T14:47:06Z</time>
      </trkpt>
      <trkpt lat="39.965057" lon="-.620464">
        <ele>811.317</ele>
        <time>2020-08-29T14:47:07Z</time>
      </trkpt>
      <trkpt lat="39.964995" lon="-.620485">
        <ele>811.008</ele>
        <time>2020-08-29T14:47:08Z</time>
      </trkpt>
      <trkpt lat="39.964948" lon="-.620524">
        <ele>810.993</ele>
        <time>2020-08-29T14:47:09Z</time>
      </trkpt>
      <trkpt lat="39.964894" lon="-.620541">
        <ele>810.913</ele>
        <time>2020-08-29T14:47:10Z</time>
      </trkpt>
      <trkpt lat="39.964839" lon="-.620525">
        <ele>811.165</ele>
        <time>2020-08-29T14:47:11Z</time>
      </trkpt>
      <trkpt lat="39.964772" lon="-.620534">
        <ele>811.427</ele>
        <time>2020-08-29T14:47:12Z</time>
      </trkpt>
      <trkpt lat="39.964697" lon="-.620526">
        <ele>811.145</ele>
        <time>2020-08-29T14:47:13Z</time>
      </trkpt>
      <trkpt lat="39.964638" lon="-.620542">
        <ele>810.942</ele>
        <time>2020-08-29T14:47:14Z</time>
      </trkpt>
      <trkpt lat="39.964575" lon="-.620557">
        <ele>810.960</ele>
        <time>2020-08-29T14:47:15Z</time>
      </trkpt>
      <trkpt lat="39.964503" lon="-.620579">
        <ele>810.950</ele>
        <time>2020-08-29T14:47:16Z</time>
      </trkpt>
      <trkpt lat="39.964445" lon="-.620595">
        <ele>810.684</ele>
        <time>2020-08-29T14:47:17Z</time>
      </trkpt>
      <trkpt lat="39.964383" lon="-.620602">
        <ele>810.607</ele>
        <time>2020-08-29T14:47:18Z</time>
      </trkpt>
      <trkpt lat="39.964321" lon="-.620594">
        <ele>810.417</ele>
        <time>2020-08-29T14:47:19Z</time>
      </trkpt>
      <trkpt lat="39.964266" lon="-.620609">
        <ele>810.408</ele>
        <time>2020-08-29T14:47:20Z</time>
      </trkpt>
      <trkpt lat="39.964215" lon="-.620621">
        <ele>810.393</ele>
        <time>2020-08-29T14:47:21Z</time>
      </trkpt>
      <trkpt lat="39.964149" lon="-.620632">
        <ele>810.083</ele>
        <time>2020-08-29T14:47:22Z</time>
      </trkpt>
      <trkpt lat="39.964077" lon="-.620653">
        <ele>810.095</ele>
        <time>2020-08-29T14:47:23Z</time>
      </trkpt>
      <trkpt lat="39.964016" lon="-.620676">
        <ele>809.967</ele>
        <time>2020-08-29T14:47:24Z</time>
      </trkpt>
      <trkpt lat="39.963956" lon="-.620688">
        <ele>809.665</ele>
        <time>2020-08-29T14:47:25Z</time>
      </trkpt>
      <trkpt lat="39.963897" lon="-.620694">
        <ele>809.582</ele>
        <time>2020-08-29T14:47:26Z</time>
      </trkpt>
      <trkpt lat="39.963835" lon="-.620697">
        <ele>809.270</ele>
        <time>2020-08-29T14:47:27Z</time>
      </trkpt>
      <trkpt lat="39.963774" lon="-.620713">
        <ele>808.860</ele>
        <time>2020-08-29T14:47:28Z</time>
      </trkpt>
      <trkpt lat="39.963727" lon="-.620727">
        <ele>808.735</ele>
        <time>2020-08-29T14:47:29Z</time>
      </trkpt>
      <trkpt lat="39.963665" lon="-.620744">
        <ele>808.586</ele>
        <time>2020-08-29T14:47:30Z</time>
      </trkpt>
      <trkpt lat="39.963592" lon="-.620746">
        <ele>808.514</ele>
        <time>2020-08-29T14:47:31Z</time>
      </trkpt>
      <trkpt lat="39.963528" lon="-.620743">
        <ele>808.508</ele>
        <time>2020-08-29T14:47:32Z</time>
      </trkpt>
      <trkpt lat="39.963457" lon="-.620755">
        <ele>808.868</ele>
        <time>2020-08-29T14:47:33Z</time>
      </trkpt>
      <trkpt lat="39.963387" lon="-.620762">
        <ele>809.228</ele>
        <time>2020-08-29T14:47:34Z</time>
      </trkpt>
      <trkpt lat="39.963322" lon="-.620766">
        <ele>809.320</ele>
        <time>2020-08-29T14:47:35Z</time>
      </trkpt>
      <trkpt lat="39.963254" lon="-.620777">
        <ele>809.552</ele>
        <time>2020-08-29T14:47:36Z</time>
      </trkpt>
      <trkpt lat="39.963205" lon="-.620774">
        <ele>809.020</ele>
        <time>2020-08-29T14:47:37Z</time>
      </trkpt>
      <trkpt lat="39.963139" lon="-.62078">
        <ele>808.177</ele>
        <time>2020-08-29T14:47:38Z</time>
      </trkpt>
      <trkpt lat="39.963079" lon="-.62078">
        <ele>808.085</ele>
        <time>2020-08-29T14:47:39Z</time>
      </trkpt>
      <trkpt lat="39.963012" lon="-.62077">
        <ele>808.145</ele>
        <time>2020-08-29T14:47:40Z</time>
      </trkpt>
      <trkpt lat="39.962955" lon="-.620762">
        <ele>808.037</ele>
        <time>2020-08-29T14:47:41Z</time>
      </trkpt>
      <trkpt lat="39.9629" lon="-.620757">
        <ele>807.949</ele>
        <time>2020-08-29T14:47:42Z</time>
      </trkpt>
      <trkpt lat="39.96283" lon="-.620749">
        <ele>807.913</ele>
        <time>2020-08-29T14:47:43Z</time>
      </trkpt>
      <trkpt lat="39.962771" lon="-.62074">
        <ele>807.908</ele>
        <time>2020-08-29T14:47:44Z</time>
      </trkpt>
      <trkpt lat="39.962706" lon="-.620734">
        <ele>807.378</ele>
        <time>2020-08-29T14:47:45Z</time>
      </trkpt>
      <trkpt lat="39.962644" lon="-.620724">
        <ele>807.378</ele>
        <time>2020-08-29T14:47:46Z</time>
      </trkpt>
      <trkpt lat="39.962583" lon="-.620708">
        <ele>807.270</ele>
        <time>2020-08-29T14:47:47Z</time>
      </trkpt>
      <trkpt lat="39.962521" lon="-.6207">
        <ele>806.822</ele>
        <time>2020-08-29T14:47:48Z</time>
      </trkpt>
      <trkpt lat="39.96246" lon="-.620686">
        <ele>806.850</ele>
        <time>2020-08-29T14:47:49Z</time>
      </trkpt>
      <trkpt lat="39.962401" lon="-.620669">
        <ele>806.957</ele>
        <time>2020-08-29T14:47:50Z</time>
      </trkpt>
      <trkpt lat="39.962343" lon="-.620657">
        <ele>806.975</ele>
        <time>2020-08-29T14:47:51Z</time>
      </trkpt>
      <trkpt lat="39.962278" lon="-.620641">
        <ele>806.575</ele>
        <time>2020-08-29T14:47:52Z</time>
      </trkpt>
      <trkpt lat="39.962223" lon="-.620626">
        <ele>806.487</ele>
        <time>2020-08-29T14:47:53Z</time>
      </trkpt>
      <trkpt lat="39.962154" lon="-.620611">
        <ele>806.342</ele>
        <time>2020-08-29T14:47:54Z</time>
      </trkpt>
      <trkpt lat="39.962094" lon="-.620593">
        <ele>806.026</ele>
        <time>2020-08-29T14:47:55Z</time>
      </trkpt>
      <trkpt lat="39.962032" lon="-.620577">
        <ele>806.008</ele>
        <time>2020-08-29T14:47:56Z</time>
      </trkpt>
      <trkpt lat="39.96197" lon="-.620561">
        <ele>805.963</ele>
        <time>2020-08-29T14:47:57Z</time>
      </trkpt>
      <trkpt lat="39.961913" lon="-.620545">
        <ele>805.883</ele>
        <time>2020-08-29T14:47:58Z</time>
      </trkpt>
      <trkpt lat="39.961851" lon="-.620523">
        <ele>805.345</ele>
        <time>2020-08-29T14:47:59Z</time>
      </trkpt>
      <trkpt lat="39.961792" lon="-.620505">
        <ele>805.197</ele>
        <time>2020-08-29T14:48:00Z</time>
      </trkpt>
      <trkpt lat="39.961739" lon="-.620489">
        <ele>804.745</ele>
        <time>2020-08-29T14:48:01Z</time>
      </trkpt>
      <trkpt lat="39.961676" lon="-.620483">
        <ele>804.382</ele>
        <time>2020-08-29T14:48:02Z</time>
      </trkpt>
      <trkpt lat="39.961619" lon="-.620463">
        <ele>803.960</ele>
        <time>2020-08-29T14:48:03Z</time>
      </trkpt>
      <trkpt lat="39.961573" lon="-.620445">
        <ele>803.960</ele>
        <time>2020-08-29T14:48:04Z</time>
      </trkpt>
      <trkpt lat="39.961519" lon="-.62043">
        <ele>803.784</ele>
        <time>2020-08-29T14:48:05Z</time>
      </trkpt>
      <trkpt lat="39.961449" lon="-.620413">
        <ele>803.707</ele>
        <time>2020-08-29T14:48:06Z</time>
      </trkpt>
      <trkpt lat="39.961397" lon="-.620393">
        <ele>803.517</ele>
        <time>2020-08-29T14:48:07Z</time>
      </trkpt>
      <trkpt lat="39.96134" lon="-.620379">
        <ele>803.408</ele>
        <time>2020-08-29T14:48:08Z</time>
      </trkpt>
      <trkpt lat="39.96128" lon="-.620364">
        <ele>803.373</ele>
        <time>2020-08-29T14:48:09Z</time>
      </trkpt>
      <trkpt lat="39.961216" lon="-.620352">
        <ele>803.283</ele>
        <time>2020-08-29T14:48:10Z</time>
      </trkpt>
      <trkpt lat="39.961149" lon="-.620337">
        <ele>802.975</ele>
        <time>2020-08-29T14:48:11Z</time>
      </trkpt>
      <trkpt lat="39.961086" lon="-.62032">
        <ele>802.957</ele>
        <time>2020-08-29T14:48:12Z</time>
      </trkpt>
      <trkpt lat="39.961038" lon="-.620298">
        <ele>802.815</ele>
        <time>2020-08-29T14:48:13Z</time>
      </trkpt>
      <trkpt lat="39.96098" lon="-.62028">
        <ele>802.632</ele>
        <time>2020-08-29T14:48:14Z</time>
      </trkpt>
      <trkpt lat="39.960917" lon="-.620256">
        <ele>802.420</ele>
        <time>2020-08-29T14:48:15Z</time>
      </trkpt>
      <trkpt lat="39.960865" lon="-.620227">
        <ele>802.440</ele>
        <time>2020-08-29T14:48:16Z</time>
      </trkpt>
      <trkpt lat="39.960802" lon="-.620208">
        <ele>802.137</ele>
        <time>2020-08-29T14:48:17Z</time>
      </trkpt>
      <trkpt lat="39.960751" lon="-.620186">
        <ele>802.049</ele>
        <time>2020-08-29T14:48:18Z</time>
      </trkpt>
      <trkpt lat="39.960701" lon="-.620161">
        <ele>801.813</ele>
        <time>2020-08-29T14:48:19Z</time>
      </trkpt>
      <trkpt lat="39.960645" lon="-.62013">
        <ele>801.708</ele>
        <time>2020-08-29T14:48:20Z</time>
      </trkpt>
      <trkpt lat="39.960596" lon="-.620102">
        <ele>801.648</ele>
        <time>2020-08-29T14:48:21Z</time>
      </trkpt>
      <trkpt lat="39.960544" lon="-.620068">
        <ele>801.688</ele>
        <time>2020-08-29T14:48:22Z</time>
      </trkpt>
      <trkpt lat="39.960489" lon="-.620044">
        <ele>801.330</ele>
        <time>2020-08-29T14:48:23Z</time>
      </trkpt>
      <trkpt lat="39.960437" lon="-.62001">
        <ele>801.382</ele>
        <time>2020-08-29T14:48:24Z</time>
      </trkpt>
      <trkpt lat="39.960387" lon="-.619976">
        <ele>801.280</ele>
        <time>2020-08-29T14:48:25Z</time>
      </trkpt>
      <trkpt lat="39.960324" lon="-.619907">
        <ele>800.857</ele>
        <time>2020-08-29T14:48:27Z</time>
      </trkpt>
      <trkpt lat="39.960266" lon="-.619882">
        <ele>800.795</ele>
        <time>2020-08-29T14:48:28Z</time>
      </trkpt>
      <trkpt lat="39.960208" lon="-.619842">
        <ele>800.675</ele>
        <time>2020-08-29T14:48:29Z</time>
      </trkpt>
      <trkpt lat="39.960154" lon="-.619809">
        <ele>800.637</ele>
        <time>2020-08-29T14:48:30Z</time>
      </trkpt>
      <trkpt lat="39.9601" lon="-.619772">
        <ele>800.549</ele>
        <time>2020-08-29T14:48:31Z</time>
      </trkpt>
      <trkpt lat="39.960056" lon="-.619734">
        <ele>800.413</ele>
        <time>2020-08-29T14:48:32Z</time>
      </trkpt>
      <trkpt lat="39.96001" lon="-.619691">
        <ele>800.308</ele>
        <time>2020-08-29T14:48:33Z</time>
      </trkpt>
      <trkpt lat="39.959966" lon="-.619646">
        <ele>800.168</ele>
        <time>2020-08-29T14:48:34Z</time>
      </trkpt>
      <trkpt lat="39.959923" lon="-.619608">
        <ele>800.028</ele>
        <time>2020-08-29T14:48:35Z</time>
      </trkpt>
      <trkpt lat="39.959873" lon="-.619567">
        <ele>799.890</ele>
        <time>2020-08-29T14:48:36Z</time>
      </trkpt>
      <trkpt lat="39.959827" lon="-.619525">
        <ele>799.552</ele>
        <time>2020-08-29T14:48:37Z</time>
      </trkpt>
      <trkpt lat="39.959796" lon="-.61948">
        <ele>799.560</ele>
        <time>2020-08-29T14:48:38Z</time>
      </trkpt>
      <trkpt lat="39.959746" lon="-.619428">
        <ele>799.277</ele>
        <time>2020-08-29T14:48:39Z</time>
      </trkpt>
      <trkpt lat="39.959702" lon="-.61939">
        <ele>799.135</ele>
        <time>2020-08-29T14:48:40Z</time>
      </trkpt>
      <trkpt lat="39.959655" lon="-.619338">
        <ele>799.145</ele>
        <time>2020-08-29T14:48:41Z</time>
      </trkpt>
      <trkpt lat="39.959609" lon="-.619288">
        <ele>798.924</ele>
        <time>2020-08-29T14:48:42Z</time>
      </trkpt>
      <trkpt lat="39.959573" lon="-.619231">
        <ele>798.904</ele>
        <time>2020-08-29T14:48:43Z</time>
      </trkpt>
      <trkpt lat="39.959539" lon="-.61917">
        <ele>798.914</ele>
        <time>2020-08-29T14:48:44Z</time>
      </trkpt>
      <trkpt lat="39.959498" lon="-.619104">
        <ele>798.708</ele>
        <time>2020-08-29T14:48:45Z</time>
      </trkpt>
      <trkpt lat="39.959463" lon="-.619026">
        <ele>798.717</ele>
        <time>2020-08-29T14:48:46Z</time>
      </trkpt>
      <trkpt lat="39.959428" lon="-.618959">
        <ele>798.547</ele>
        <time>2020-08-29T14:48:47Z</time>
      </trkpt>
      <trkpt lat="39.959394" lon="-.618893">
        <ele>798.269</ele>
        <time>2020-08-29T14:48:48Z</time>
      </trkpt>
      <trkpt lat="39.959352" lon="-.618812">
        <ele>798.261</ele>
        <time>2020-08-29T14:48:49Z</time>
      </trkpt>
      <trkpt lat="39.959319" lon="-.618746">
        <ele>798.329</ele>
        <time>2020-08-29T14:48:50Z</time>
      </trkpt>
      <trkpt lat="39.959292" lon="-.618676">
        <ele>798.276</ele>
        <time>2020-08-29T14:48:51Z</time>
      </trkpt>
      <trkpt lat="39.959261" lon="-.618607">
        <ele>798.294</ele>
        <time>2020-08-29T14:48:52Z</time>
      </trkpt>
      <trkpt lat="39.959232" lon="-.618537">
        <ele>797.814</ele>
        <time>2020-08-29T14:48:53Z</time>
      </trkpt>
      <trkpt lat="39.959201" lon="-.618468">
        <ele>797.718</ele>
        <time>2020-08-29T14:48:54Z</time>
      </trkpt>
      <trkpt lat="39.959165" lon="-.618401">
        <ele>797.798</ele>
        <time>2020-08-29T14:48:55Z</time>
      </trkpt>
      <trkpt lat="39.959141" lon="-.618333">
        <ele>797.017</ele>
        <time>2020-08-29T14:48:56Z</time>
      </trkpt>
      <trkpt lat="39.959116" lon="-.618268">
        <ele>797.008</ele>
        <time>2020-08-29T14:48:57Z</time>
      </trkpt>
      <trkpt lat="39.959088" lon="-.618202">
        <ele>796.846</ele>
        <time>2020-08-29T14:48:58Z</time>
      </trkpt>
      <trkpt lat="39.959061" lon="-.618143">
        <ele>796.426</ele>
        <time>2020-08-29T14:48:59Z</time>
      </trkpt>
      <trkpt lat="39.959033" lon="-.618069">
        <ele>796.488</ele>
        <time>2020-08-29T14:49:00Z</time>
      </trkpt>
      <trkpt lat="39.959002" lon="-.617999">
        <ele>796.670</ele>
        <time>2020-08-29T14:49:01Z</time>
      </trkpt>
      <trkpt lat="39.958973" lon="-.61792">
        <ele>796.688</ele>
        <time>2020-08-29T14:49:02Z</time>
      </trkpt>
      <trkpt lat="39.958947" lon="-.61785">
        <ele>796.695</ele>
        <time>2020-08-29T14:49:03Z</time>
      </trkpt>
      <trkpt lat="39.958912" lon="-.617773">
        <ele>796.513</ele>
        <time>2020-08-29T14:49:04Z</time>
      </trkpt>
      <trkpt lat="39.958869" lon="-.617692">
        <ele>795.643</ele>
        <time>2020-08-29T14:49:05Z</time>
      </trkpt>
      <trkpt lat="39.958835" lon="-.617617">
        <ele>794.762</ele>
        <time>2020-08-29T14:49:06Z</time>
      </trkpt>
      <trkpt lat="39.958806" lon="-.617544">
        <ele>794.483</ele>
        <time>2020-08-29T14:49:07Z</time>
      </trkpt>
      <trkpt lat="39.958774" lon="-.617467">
        <ele>794.411</ele>
        <time>2020-08-29T14:49:08Z</time>
      </trkpt>
      <trkpt lat="39.958738" lon="-.617394">
        <ele>794.508</ele>
        <time>2020-08-29T14:49:09Z</time>
      </trkpt>
      <trkpt lat="39.958712" lon="-.617324">
        <ele>794.541</ele>
        <time>2020-08-29T14:49:10Z</time>
      </trkpt>
      <trkpt lat="39.958685" lon="-.617253">
        <ele>794.671</ele>
        <time>2020-08-29T14:49:11Z</time>
      </trkpt>
      <trkpt lat="39.958658" lon="-.617181">
        <ele>794.933</ele>
        <time>2020-08-29T14:49:12Z</time>
      </trkpt>
      <trkpt lat="39.958621" lon="-.617115">
        <ele>795.225</ele>
        <time>2020-08-29T14:49:13Z</time>
      </trkpt>
      <trkpt lat="39.958586" lon="-.617046">
        <ele>795.213</ele>
        <time>2020-08-29T14:49:14Z</time>
      </trkpt>
      <trkpt lat="39.958557" lon="-.616974">
        <ele>795.260</ele>
        <time>2020-08-29T14:49:15Z</time>
      </trkpt>
      <trkpt lat="39.958537" lon="-.616916">
        <ele>794.818</ele>
        <time>2020-08-29T14:49:16Z</time>
      </trkpt>
      <trkpt lat="39.958514" lon="-.616854">
        <ele>794.618</ele>
        <time>2020-08-29T14:49:18Z</time>
      </trkpt>
      <trkpt lat="39.958469" lon="-.61683">
        <ele>792.686</ele>
        <time>2020-08-29T14:54:11Z</time>
      </trkpt>
      <trkpt lat="39.958453" lon="-.616769">
        <ele>792.760</ele>
        <time>2020-08-29T14:56:04Z</time>
      </trkpt>
      <trkpt lat="39.958432" lon="-.6167">
        <ele>792.326</ele>
        <time>2020-08-29T14:56:07Z</time>
      </trkpt>
      <trkpt lat="39.958401" lon="-.616651">
        <ele>791.708</ele>
        <time>2020-08-29T14:56:09Z</time>
      </trkpt>
      <trkpt lat="39.958375" lon="-.616584">
        <ele>791.773</ele>
        <time>2020-08-29T14:56:11Z</time>
      </trkpt>
      <trkpt lat="39.958349" lon="-.616516">
        <ele>792.373</ele>
        <time>2020-08-29T14:56:13Z</time>
      </trkpt>
      <trkpt lat="39.958302" lon="-.61644">
        <ele>792.345</ele>
        <time>2020-08-29T14:56:15Z</time>
      </trkpt>
      <trkpt lat="39.958271" lon="-.616392">
        <ele>792.637</ele>
        <time>2020-08-29T14:56:16Z</time>
      </trkpt>
      <trkpt lat="39.958236" lon="-.616328">
        <ele>792.695</ele>
        <time>2020-08-29T14:56:17Z</time>
      </trkpt>
      <trkpt lat="39.958181" lon="-.616232">
        <ele>792.542</ele>
        <time>2020-08-29T14:56:19Z</time>
      </trkpt>
      <trkpt lat="39.958149" lon="-.616178">
        <ele>792.560</ele>
        <time>2020-08-29T14:56:20Z</time>
      </trkpt>
      <trkpt lat="39.958115" lon="-.616129">
        <ele>791.660</ele>
        <time>2020-08-29T14:56:21Z</time>
      </trkpt>
      <trkpt lat="39.958081" lon="-.616085">
        <ele>791.637</ele>
        <time>2020-08-29T14:56:22Z</time>
      </trkpt>
      <trkpt lat="39.958036" lon="-.616046">
        <ele>791.549</ele>
        <time>2020-08-29T14:56:23Z</time>
      </trkpt>
      <trkpt lat="39.958005" lon="-.616001">
        <ele>791.413</ele>
        <time>2020-08-29T14:56:24Z</time>
      </trkpt>
      <trkpt lat="39.957965" lon="-.615952">
        <ele>791.408</ele>
        <time>2020-08-29T14:56:25Z</time>
      </trkpt>
      <trkpt lat="39.957917" lon="-.615904">
        <ele>791.728</ele>
        <time>2020-08-29T14:56:26Z</time>
      </trkpt>
      <trkpt lat="39.95788" lon="-.615859">
        <ele>791.858</ele>
        <time>2020-08-29T14:56:27Z</time>
      </trkpt>
      <trkpt lat="39.957842" lon="-.615812">
        <ele>791.840</ele>
        <time>2020-08-29T14:56:28Z</time>
      </trkpt>
      <trkpt lat="39.957798" lon="-.61577">
        <ele>791.682</ele>
        <time>2020-08-29T14:56:29Z</time>
      </trkpt>
      <trkpt lat="39.957761" lon="-.615719">
        <ele>791.350</ele>
        <time>2020-08-29T14:56:30Z</time>
      </trkpt>
      <trkpt lat="39.957723" lon="-.615681">
        <ele>791.247</ele>
        <time>2020-08-29T14:56:31Z</time>
      </trkpt>
      <trkpt lat="39.957679" lon="-.615634">
        <ele>791.085</ele>
        <time>2020-08-29T14:56:32Z</time>
      </trkpt>
      <trkpt lat="39.957644" lon="-.61559">
        <ele>790.935</ele>
        <time>2020-08-29T14:56:33Z</time>
      </trkpt>
      <trkpt lat="39.957594" lon="-.615546">
        <ele>790.568</ele>
        <time>2020-08-29T14:56:34Z</time>
      </trkpt>
      <trkpt lat="39.957548" lon="-.615503">
        <ele>790.542</ele>
        <time>2020-08-29T14:56:35Z</time>
      </trkpt>
      <trkpt lat="39.957509" lon="-.615468">
        <ele>791.126</ele>
        <time>2020-08-29T14:56:36Z</time>
      </trkpt>
      <trkpt lat="39.957414" lon="-.615378">
        <ele>791.408</ele>
        <time>2020-08-29T14:56:38Z</time>
      </trkpt>
      <trkpt lat="39.957376" lon="-.615326">
        <ele>791.161</ele>
        <time>2020-08-29T14:56:39Z</time>
      </trkpt>
      <trkpt lat="39.957313" lon="-.615269">
        <ele>790.711</ele>
        <time>2020-08-29T14:56:40Z</time>
      </trkpt>
      <trkpt lat="39.95726" lon="-.615218">
        <ele>790.313</ele>
        <time>2020-08-29T14:56:41Z</time>
      </trkpt>
      <trkpt lat="39.957199" lon="-.615179">
        <ele>788.545</ele>
        <time>2020-08-29T14:56:42Z</time>
      </trkpt>
      <trkpt lat="39.957144" lon="-.615156">
        <ele>788.563</ele>
        <time>2020-08-29T14:56:43Z</time>
      </trkpt>
      <trkpt lat="39.957098" lon="-.615131">
        <ele>789.490</ele>
        <time>2020-08-29T14:56:44Z</time>
      </trkpt>
      <trkpt lat="39.957047" lon="-.615111">
        <ele>789.658</ele>
        <time>2020-08-29T14:56:45Z</time>
      </trkpt>
      <trkpt lat="39.956997" lon="-.615069">
        <ele>790.038</ele>
        <time>2020-08-29T14:56:46Z</time>
      </trkpt>
      <trkpt lat="39.956938" lon="-.615041">
        <ele>790.126</ele>
        <time>2020-08-29T14:56:47Z</time>
      </trkpt>
      <trkpt lat="39.956891" lon="-.61502">
        <ele>790.147</ele>
        <time>2020-08-29T14:56:48Z</time>
      </trkpt>
      <trkpt lat="39.956837" lon="-.615001">
        <ele>789.511</ele>
        <time>2020-08-29T14:56:49Z</time>
      </trkpt>
      <trkpt lat="39.956784" lon="-.614983">
        <ele>789.308</ele>
        <time>2020-08-29T14:56:50Z</time>
      </trkpt>
      <trkpt lat="39.956725" lon="-.614961">
        <ele>789.217</ele>
        <time>2020-08-29T14:56:51Z</time>
      </trkpt>
      <trkpt lat="39.956663" lon="-.614945">
        <ele>789.217</ele>
        <time>2020-08-29T14:56:52Z</time>
      </trkpt>
      <trkpt lat="39.956609" lon="-.614934">
        <ele>789.259</ele>
        <time>2020-08-29T14:56:53Z</time>
      </trkpt>
      <trkpt lat="39.956561" lon="-.614905">
        <ele>789.341</ele>
        <time>2020-08-29T14:56:54Z</time>
      </trkpt>
      <trkpt lat="39.956502" lon="-.614877">
        <ele>789.389</ele>
        <time>2020-08-29T14:56:55Z</time>
      </trkpt>
      <trkpt lat="39.956448" lon="-.614858">
        <ele>789.296</ele>
        <time>2020-08-29T14:56:56Z</time>
      </trkpt>
      <trkpt lat="39.956393" lon="-.61485">
        <ele>789.024</ele>
        <time>2020-08-29T14:56:57Z</time>
      </trkpt>
      <trkpt lat="39.956346" lon="-.614842">
        <ele>788.944</ele>
        <time>2020-08-29T14:56:58Z</time>
      </trkpt>
      <trkpt lat="39.9563" lon="-.614828">
        <ele>788.236</ele>
        <time>2020-08-29T14:56:59Z</time>
      </trkpt>
      <trkpt lat="39.956247" lon="-.614814">
        <ele>788.117</ele>
        <time>2020-08-29T14:57:00Z</time>
      </trkpt>
      <trkpt lat="39.95619" lon="-.614809">
        <ele>787.818</ele>
        <time>2020-08-29T14:57:01Z</time>
      </trkpt>
      <trkpt lat="39.956141" lon="-.614804">
        <ele>787.608</ele>
        <time>2020-08-29T14:57:02Z</time>
      </trkpt>
      <trkpt lat="39.956046" lon="-.614784">
        <ele>787.198</ele>
        <time>2020-08-29T14:57:04Z</time>
      </trkpt>
      <trkpt lat="39.955995" lon="-.614775">
        <ele>787.048</ele>
        <time>2020-08-29T14:57:05Z</time>
      </trkpt>
      <trkpt lat="39.955937" lon="-.614771">
        <ele>787.060</ele>
        <time>2020-08-29T14:57:06Z</time>
      </trkpt>
      <trkpt lat="39.955881" lon="-.614783">
        <ele>786.992</ele>
        <time>2020-08-29T14:57:07Z</time>
      </trkpt>
      <trkpt lat="39.955827" lon="-.614778">
        <ele>786.980</ele>
        <time>2020-08-29T14:57:08Z</time>
      </trkpt>
      <trkpt lat="39.955777" lon="-.614771">
        <ele>786.817</ele>
        <time>2020-08-29T14:57:09Z</time>
      </trkpt>
      <trkpt lat="39.95573" lon="-.614777">
        <ele>786.465</ele>
        <time>2020-08-29T14:57:10Z</time>
      </trkpt>
      <trkpt lat="39.955684" lon="-.614781">
        <ele>786.355</ele>
        <time>2020-08-29T14:57:11Z</time>
      </trkpt>
      <trkpt lat="39.955598" lon="-.614784">
        <ele>785.719</ele>
        <time>2020-08-29T14:57:13Z</time>
      </trkpt>
      <trkpt lat="39.955509" lon="-.61479">
        <ele>785.409</ele>
        <time>2020-08-29T14:57:15Z</time>
      </trkpt>
      <trkpt lat="39.95546" lon="-.614808">
        <ele>785.319</ele>
        <time>2020-08-29T14:57:16Z</time>
      </trkpt>
      <trkpt lat="39.955414" lon="-.61482">
        <ele>785.208</ele>
        <time>2020-08-29T14:57:17Z</time>
      </trkpt>
      <trkpt lat="39.955326" lon="-.614849">
        <ele>785.076</ele>
        <time>2020-08-29T14:57:19Z</time>
      </trkpt>
      <trkpt lat="39.955279" lon="-.614857">
        <ele>784.986</ele>
        <time>2020-08-29T14:57:20Z</time>
      </trkpt>
      <trkpt lat="39.955193" lon="-.614878">
        <ele>784.668</ele>
        <time>2020-08-29T14:57:22Z</time>
      </trkpt>
      <trkpt lat="39.955105" lon="-.614907">
        <ele>784.610</ele>
        <time>2020-08-29T14:57:24Z</time>
      </trkpt>
      <trkpt lat="39.95506" lon="-.614923">
        <ele>784.488</ele>
        <time>2020-08-29T14:57:25Z</time>
      </trkpt>
      <trkpt lat="39.95501" lon="-.614954">
        <ele>784.425</ele>
        <time>2020-08-29T14:57:26Z</time>
      </trkpt>
      <trkpt lat="39.954964" lon="-.614975">
        <ele>784.363</ele>
        <time>2020-08-29T14:57:27Z</time>
      </trkpt>
      <trkpt lat="39.954915" lon="-.615004">
        <ele>784.123</ele>
        <time>2020-08-29T14:57:28Z</time>
      </trkpt>
      <trkpt lat="39.95487" lon="-.615025">
        <ele>783.945</ele>
        <time>2020-08-29T14:57:29Z</time>
      </trkpt>
      <trkpt lat="39.954824" lon="-.615055">
        <ele>783.947</ele>
        <time>2020-08-29T14:57:30Z</time>
      </trkpt>
      <trkpt lat="39.954781" lon="-.615077">
        <ele>783.811</ele>
        <time>2020-08-29T14:57:31Z</time>
      </trkpt>
      <trkpt lat="39.954738" lon="-.615105">
        <ele>783.608</ele>
        <time>2020-08-29T14:57:32Z</time>
      </trkpt>
      <trkpt lat="39.954694" lon="-.61512">
        <ele>783.479</ele>
        <time>2020-08-29T14:57:33Z</time>
      </trkpt>
      <trkpt lat="39.954653" lon="-.615147">
        <ele>783.319</ele>
        <time>2020-08-29T14:57:34Z</time>
      </trkpt>
      <trkpt lat="39.954613" lon="-.615175">
        <ele>782.971</ele>
        <time>2020-08-29T14:57:35Z</time>
      </trkpt>
      <trkpt lat="39.954562" lon="-.615195">
        <ele>782.233</ele>
        <time>2020-08-29T14:57:36Z</time>
      </trkpt>
      <trkpt lat="39.954513" lon="-.615219">
        <ele>781.431</ele>
        <time>2020-08-29T14:57:37Z</time>
      </trkpt>
      <trkpt lat="39.954453" lon="-.61525">
        <ele>781.418</ele>
        <time>2020-08-29T14:57:38Z</time>
      </trkpt>
      <trkpt lat="39.954393" lon="-.615276">
        <ele>781.466</ele>
        <time>2020-08-29T14:57:39Z</time>
      </trkpt>
      <trkpt lat="39.954343" lon="-.615306">
        <ele>782.166</ele>
        <time>2020-08-29T14:57:40Z</time>
      </trkpt>
      <trkpt lat="39.954289" lon="-.615336">
        <ele>782.992</ele>
        <time>2020-08-29T14:57:41Z</time>
      </trkpt>
      <trkpt lat="39.95423" lon="-.615361">
        <ele>782.973</ele>
        <time>2020-08-29T14:57:42Z</time>
      </trkpt>
      <trkpt lat="39.954174" lon="-.615391">
        <ele>781.920</ele>
        <time>2020-08-29T14:57:43Z</time>
      </trkpt>
      <trkpt lat="39.954125" lon="-.615423">
        <ele>781.308</ele>
        <time>2020-08-29T14:57:44Z</time>
      </trkpt>
      <trkpt lat="39.954078" lon="-.615466">
        <ele>781.344</ele>
        <time>2020-08-29T14:57:45Z</time>
      </trkpt>
      <trkpt lat="39.954028" lon="-.615484">
        <ele>781.684</ele>
        <time>2020-08-29T14:57:46Z</time>
      </trkpt>
      <trkpt lat="39.953954" lon="-.615509">
        <ele>781.936</ele>
        <time>2020-08-29T14:57:47Z</time>
      </trkpt>
      <trkpt lat="39.953893" lon="-.615534">
        <ele>782.288</ele>
        <time>2020-08-29T14:57:48Z</time>
      </trkpt>
      <trkpt lat="39.953829" lon="-.615566">
        <ele>782.226</ele>
        <time>2020-08-29T14:57:49Z</time>
      </trkpt>
      <trkpt lat="39.953775" lon="-.615611">
        <ele>780.923</ele>
        <time>2020-08-29T14:57:50Z</time>
      </trkpt>
      <trkpt lat="39.953727" lon="-.615643">
        <ele>780.281</ele>
        <time>2020-08-29T14:57:51Z</time>
      </trkpt>
      <trkpt lat="39.953671" lon="-.615688">
        <ele>780.281</ele>
        <time>2020-08-29T14:57:52Z</time>
      </trkpt>
      <trkpt lat="39.953614" lon="-.615719">
        <ele>780.269</ele>
        <time>2020-08-29T14:57:53Z</time>
      </trkpt>
      <trkpt lat="39.953561" lon="-.615756">
        <ele>780.904</ele>
        <time>2020-08-29T14:57:54Z</time>
      </trkpt>
      <trkpt lat="39.9535" lon="-.615788">
        <ele>780.924</ele>
        <time>2020-08-29T14:57:55Z</time>
      </trkpt>
      <trkpt lat="39.953442" lon="-.615811">
        <ele>780.508</ele>
        <time>2020-08-29T14:57:56Z</time>
      </trkpt>
      <trkpt lat="39.953382" lon="-.615844">
        <ele>780.581</ele>
        <time>2020-08-29T14:57:57Z</time>
      </trkpt>
      <trkpt lat="39.953326" lon="-.61587">
        <ele>780.271</ele>
        <time>2020-08-29T14:57:58Z</time>
      </trkpt>
      <trkpt lat="39.953258" lon="-.615883">
        <ele>780.283</ele>
        <time>2020-08-29T14:57:59Z</time>
      </trkpt>
      <trkpt lat="39.953191" lon="-.615898">
        <ele>780.265</ele>
        <time>2020-08-29T14:58:00Z</time>
      </trkpt>
      <trkpt lat="39.953128" lon="-.615911">
        <ele>780.013</ele>
        <time>2020-08-29T14:58:01Z</time>
      </trkpt>
      <trkpt lat="39.953075" lon="-.615927">
        <ele>779.980</ele>
        <time>2020-08-29T14:58:02Z</time>
      </trkpt>
      <trkpt lat="39.953011" lon="-.615945">
        <ele>780.088</ele>
        <time>2020-08-29T14:58:03Z</time>
      </trkpt>
      <trkpt lat="39.952946" lon="-.615952">
        <ele>780.388</ele>
        <time>2020-08-29T14:58:04Z</time>
      </trkpt>
      <trkpt lat="39.952867" lon="-.615949">
        <ele>780.332</ele>
        <time>2020-08-29T14:58:05Z</time>
      </trkpt>
      <trkpt lat="39.952795" lon="-.615961">
        <ele>779.792</ele>
        <time>2020-08-29T14:58:06Z</time>
      </trkpt>
      <trkpt lat="39.952729" lon="-.615953">
        <ele>779.311</ele>
        <time>2020-08-29T14:58:07Z</time>
      </trkpt>
      <trkpt lat="39.952662" lon="-.61596">
        <ele>778.408</ele>
        <time>2020-08-29T14:58:08Z</time>
      </trkpt>
      <trkpt lat="39.952588" lon="-.615964">
        <ele>777.498</ele>
        <time>2020-08-29T14:58:09Z</time>
      </trkpt>
      <trkpt lat="39.952522" lon="-.615958">
        <ele>777.458</ele>
        <time>2020-08-29T14:58:10Z</time>
      </trkpt>
      <trkpt lat="39.952447" lon="-.615955">
        <ele>777.360</ele>
        <time>2020-08-29T14:58:11Z</time>
      </trkpt>
      <trkpt lat="39.952383" lon="-.61595">
        <ele>777.332</ele>
        <time>2020-08-29T14:58:12Z</time>
      </trkpt>
      <trkpt lat="39.952319" lon="-.615948">
        <ele>777.390</ele>
        <time>2020-08-29T14:58:13Z</time>
      </trkpt>
      <trkpt lat="39.952251" lon="-.615934">
        <ele>777.777</ele>
        <time>2020-08-29T14:58:14Z</time>
      </trkpt>
      <trkpt lat="39.952186" lon="-.615925">
        <ele>777.475</ele>
        <time>2020-08-29T14:58:15Z</time>
      </trkpt>
      <trkpt lat="39.952121" lon="-.615907">
        <ele>777.485</ele>
        <time>2020-08-29T14:58:16Z</time>
      </trkpt>
      <trkpt lat="39.952064" lon="-.615891">
        <ele>777.456</ele>
        <time>2020-08-29T14:58:17Z</time>
      </trkpt>
      <trkpt lat="39.952005" lon="-.615869">
        <ele>777.459</ele>
        <time>2020-08-29T14:58:18Z</time>
      </trkpt>
      <trkpt lat="39.951951" lon="-.61585">
        <ele>777.214</ele>
        <time>2020-08-29T14:58:19Z</time>
      </trkpt>
      <trkpt lat="39.951891" lon="-.615823">
        <ele>777.008</ele>
        <time>2020-08-29T14:58:20Z</time>
      </trkpt>
      <trkpt lat="39.951847" lon="-.615803">
        <ele>776.790</ele>
        <time>2020-08-29T14:58:21Z</time>
      </trkpt>
      <trkpt lat="39.951777" lon="-.615773">
        <ele>776.540</ele>
        <time>2020-08-29T14:58:22Z</time>
      </trkpt>
      <trkpt lat="39.951717" lon="-.615745">
        <ele>776.222</ele>
        <time>2020-08-29T14:58:23Z</time>
      </trkpt>
      <trkpt lat="39.951665" lon="-.615718">
        <ele>776.094</ele>
        <time>2020-08-29T14:58:24Z</time>
      </trkpt>
      <trkpt lat="39.95162" lon="-.615693">
        <ele>776.272</ele>
        <time>2020-08-29T14:58:25Z</time>
      </trkpt>
      <trkpt lat="39.951573" lon="-.615645">
        <ele>776.699</ele>
        <time>2020-08-29T14:58:26Z</time>
      </trkpt>
      <trkpt lat="39.951509" lon="-.61558">
        <ele>776.647</ele>
        <time>2020-08-29T14:58:27Z</time>
      </trkpt>
      <trkpt lat="39.951449" lon="-.615541">
        <ele>776.187</ele>
        <time>2020-08-29T14:58:28Z</time>
      </trkpt>
      <trkpt lat="39.951382" lon="-.615484">
        <ele>776.143</ele>
        <time>2020-08-29T14:58:29Z</time>
      </trkpt>
      <trkpt lat="39.951319" lon="-.615444">
        <ele>775.564</ele>
        <time>2020-08-29T14:58:30Z</time>
      </trkpt>
      <trkpt lat="39.951262" lon="-.615396">
        <ele>775.110</ele>
        <time>2020-08-29T14:58:31Z</time>
      </trkpt>
      <trkpt lat="39.951215" lon="-.615338">
        <ele>775.108</ele>
        <time>2020-08-29T14:58:32Z</time>
      </trkpt>
      <trkpt lat="39.951159" lon="-.615294">
        <ele>775.169</ele>
        <time>2020-08-29T14:58:33Z</time>
      </trkpt>
      <trkpt lat="39.951109" lon="-.615241">
        <ele>774.719</ele>
        <time>2020-08-29T14:58:34Z</time>
      </trkpt>
      <trkpt lat="39.951056" lon="-.615188">
        <ele>774.621</ele>
        <time>2020-08-29T14:58:35Z</time>
      </trkpt>
      <trkpt lat="39.951014" lon="-.615131">
        <ele>774.553</ele>
        <time>2020-08-29T14:58:36Z</time>
      </trkpt>
      <trkpt lat="39.950972" lon="-.615065">
        <ele>774.361</ele>
        <time>2020-08-29T14:58:37Z</time>
      </trkpt>
      <trkpt lat="39.950922" lon="-.615015">
        <ele>774.238</ele>
        <time>2020-08-29T14:58:38Z</time>
      </trkpt>
      <trkpt lat="39.950868" lon="-.614952">
        <ele>774.056</ele>
        <time>2020-08-29T14:58:39Z</time>
      </trkpt>
      <trkpt lat="39.950819" lon="-.614897">
        <ele>773.856</ele>
        <time>2020-08-29T14:58:40Z</time>
      </trkpt>
      <trkpt lat="39.950789" lon="-.614827">
        <ele>773.746</ele>
        <time>2020-08-29T14:58:41Z</time>
      </trkpt>
      <trkpt lat="39.950753" lon="-.61477">
        <ele>773.688</ele>
        <time>2020-08-29T14:58:42Z</time>
      </trkpt>
      <trkpt lat="39.950716" lon="-.614703">
        <ele>773.416</ele>
        <time>2020-08-29T14:58:43Z</time>
      </trkpt>
      <trkpt lat="39.95068" lon="-.614646">
        <ele>773.308</ele>
        <time>2020-08-29T14:58:44Z</time>
      </trkpt>
      <trkpt lat="39.950643" lon="-.61459">
        <ele>773.279</ele>
        <time>2020-08-29T14:58:45Z</time>
      </trkpt>
      <trkpt lat="39.950611" lon="-.614518">
        <ele>773.039</ele>
        <time>2020-08-29T14:58:46Z</time>
      </trkpt>
      <trkpt lat="39.95058" lon="-.614459">
        <ele>772.891</ele>
        <time>2020-08-29T14:58:47Z</time>
      </trkpt>
      <trkpt lat="39.950547" lon="-.614394">
        <ele>772.763</ele>
        <time>2020-08-29T14:58:48Z</time>
      </trkpt>
      <trkpt lat="39.950511" lon="-.614321">
        <ele>772.581</ele>
        <time>2020-08-29T14:58:49Z</time>
      </trkpt>
      <trkpt lat="39.950489" lon="-.614264">
        <ele>772.368</ele>
        <time>2020-08-29T14:58:50Z</time>
      </trkpt>
      <trkpt lat="39.950462" lon="-.614203">
        <ele>772.196</ele>
        <time>2020-08-29T14:58:51Z</time>
      </trkpt>
      <trkpt lat="39.950442" lon="-.614146">
        <ele>772.066</ele>
        <time>2020-08-29T14:58:52Z</time>
      </trkpt>
      <trkpt lat="39.950422" lon="-.614086">
        <ele>771.716</ele>
        <time>2020-08-29T14:58:53Z</time>
      </trkpt>
      <trkpt lat="39.950402" lon="-.614029">
        <ele>771.476</ele>
        <time>2020-08-29T14:58:54Z</time>
      </trkpt>
      <trkpt lat="39.950371" lon="-.613963">
        <ele>771.213</ele>
        <time>2020-08-29T14:58:55Z</time>
      </trkpt>
      <trkpt lat="39.95036" lon="-.6139">
        <ele>771.008</ele>
        <time>2020-08-29T14:58:56Z</time>
      </trkpt>
      <trkpt lat="39.950329" lon="-.613793">
        <ele>770.946</ele>
        <time>2020-08-29T14:58:58Z</time>
      </trkpt>
      <trkpt lat="39.950309" lon="-.613709">
        <ele>770.776</ele>
        <time>2020-08-29T14:58:59Z</time>
      </trkpt>
      <trkpt lat="39.950298" lon="-.613639">
        <ele>770.618</ele>
        <time>2020-08-29T14:59:00Z</time>
      </trkpt>
      <trkpt lat="39.950292" lon="-.613571">
        <ele>770.680</ele>
        <time>2020-08-29T14:59:01Z</time>
      </trkpt>
      <trkpt lat="39.95028" lon="-.613506">
        <ele>770.488</ele>
        <time>2020-08-29T14:59:02Z</time>
      </trkpt>
      <trkpt lat="39.950276" lon="-.613436">
        <ele>770.135</ele>
        <time>2020-08-29T14:59:03Z</time>
      </trkpt>
      <trkpt lat="39.950272" lon="-.613371">
        <ele>770.023</ele>
        <time>2020-08-29T14:59:04Z</time>
      </trkpt>
      <trkpt lat="39.950258" lon="-.613295">
        <ele>769.983</ele>
        <time>2020-08-29T14:59:05Z</time>
      </trkpt>
      <trkpt lat="39.950238" lon="-.613215">
        <ele>769.767</ele>
        <time>2020-08-29T14:59:06Z</time>
      </trkpt>
      <trkpt lat="39.950227" lon="-.613136">
        <ele>769.581</ele>
        <time>2020-08-29T14:59:07Z</time>
      </trkpt>
      <trkpt lat="39.950224" lon="-.613055">
        <ele>769.419</ele>
        <time>2020-08-29T14:59:08Z</time>
      </trkpt>
      <trkpt lat="39.950215" lon="-.612978">
        <ele>769.208</ele>
        <time>2020-08-29T14:59:09Z</time>
      </trkpt>
      <trkpt lat="39.950207" lon="-.612893">
        <ele>769.161</ele>
        <time>2020-08-29T14:59:10Z</time>
      </trkpt>
      <trkpt lat="39.950206" lon="-.612822">
        <ele>768.981</ele>
        <time>2020-08-29T14:59:11Z</time>
      </trkpt>
      <trkpt lat="39.950205" lon="-.612693">
        <ele>768.633</ele>
        <time>2020-08-29T14:59:13Z</time>
      </trkpt>
      <trkpt lat="39.950209" lon="-.612568">
        <ele>768.355</ele>
        <time>2020-08-29T14:59:15Z</time>
      </trkpt>
      <trkpt lat="39.95021" lon="-.612505">
        <ele>768.293</ele>
        <time>2020-08-29T14:59:16Z</time>
      </trkpt>
      <trkpt lat="39.950207" lon="-.612439">
        <ele>768.130</ele>
        <time>2020-08-29T14:59:17Z</time>
      </trkpt>
      <trkpt lat="39.9502" lon="-.612355">
        <ele>768.138</ele>
        <time>2020-08-29T14:59:18Z</time>
      </trkpt>
      <trkpt lat="39.950205" lon="-.612293">
        <ele>767.838</ele>
        <time>2020-08-29T14:59:19Z</time>
      </trkpt>
      <trkpt lat="39.950218" lon="-.61223">
        <ele>767.858</ele>
        <time>2020-08-29T14:59:20Z</time>
      </trkpt>
      <trkpt lat="39.950228" lon="-.612108">
        <ele>767.052</ele>
        <time>2020-08-29T14:59:22Z</time>
      </trkpt>
      <trkpt lat="39.950241" lon="-.612043">
        <ele>766.817</ele>
        <time>2020-08-29T14:59:23Z</time>
      </trkpt>
      <trkpt lat="39.950255" lon="-.611979">
        <ele>766.808</ele>
        <time>2020-08-29T14:59:24Z</time>
      </trkpt>
      <trkpt lat="39.950267" lon="-.61192">
        <ele>766.850</ele>
        <time>2020-08-29T14:59:25Z</time>
      </trkpt>
      <trkpt lat="39.950283" lon="-.611856">
        <ele>766.750</ele>
        <time>2020-08-29T14:59:26Z</time>
      </trkpt>
      <trkpt lat="39.950295" lon="-.611791">
        <ele>766.642</ele>
        <time>2020-08-29T14:59:27Z</time>
      </trkpt>
      <trkpt lat="39.950312" lon="-.611734">
        <ele>766.594</ele>
        <time>2020-08-29T14:59:28Z</time>
      </trkpt>
      <trkpt lat="39.950329" lon="-.611665">
        <ele>766.312</ele>
        <time>2020-08-29T14:59:29Z</time>
      </trkpt>
      <trkpt lat="39.950346" lon="-.611601">
        <ele>766.269</ele>
        <time>2020-08-29T14:59:30Z</time>
      </trkpt>
      <trkpt lat="39.950365" lon="-.611535">
        <ele>766.147</ele>
        <time>2020-08-29T14:59:31Z</time>
      </trkpt>
      <trkpt lat="39.950382" lon="-.611479">
        <ele>766.097</ele>
        <time>2020-08-29T14:59:32Z</time>
      </trkpt>
      <trkpt lat="39.950401" lon="-.611416">
        <ele>765.926</ele>
        <time>2020-08-29T14:59:33Z</time>
      </trkpt>
      <trkpt lat="39.950422" lon="-.611351">
        <ele>765.947</ele>
        <time>2020-08-29T14:59:34Z</time>
      </trkpt>
      <trkpt lat="39.950447" lon="-.611287">
        <ele>765.711</ele>
        <time>2020-08-29T14:59:35Z</time>
      </trkpt>
      <trkpt lat="39.950469" lon="-.611222">
        <ele>765.608</ele>
        <time>2020-08-29T14:59:36Z</time>
      </trkpt>
      <trkpt lat="39.950487" lon="-.611159">
        <ele>765.527</ele>
        <time>2020-08-29T14:59:37Z</time>
      </trkpt>
      <trkpt lat="39.950511" lon="-.611094">
        <ele>765.337</ele>
        <time>2020-08-29T14:59:38Z</time>
      </trkpt>
      <trkpt lat="39.950533" lon="-.611031">
        <ele>765.179</ele>
        <time>2020-08-29T14:59:39Z</time>
      </trkpt>
      <trkpt lat="39.950556" lon="-.610969">
        <ele>765.091</ele>
        <time>2020-08-29T14:59:40Z</time>
      </trkpt>
      <trkpt lat="39.950581" lon="-.610907">
        <ele>764.869</ele>
        <time>2020-08-29T14:59:41Z</time>
      </trkpt>
      <trkpt lat="39.950605" lon="-.610844">
        <ele>764.756</ele>
        <time>2020-08-29T14:59:42Z</time>
      </trkpt>
      <trkpt lat="39.950625" lon="-.610781">
        <ele>764.644</ele>
        <time>2020-08-29T14:59:43Z</time>
      </trkpt>
      <trkpt lat="39.950646" lon="-.610718">
        <ele>764.554</ele>
        <time>2020-08-29T14:59:44Z</time>
      </trkpt>
      <trkpt lat="39.950671" lon="-.610659">
        <ele>764.456</ele>
        <time>2020-08-29T14:59:45Z</time>
      </trkpt>
      <trkpt lat="39.950692" lon="-.610597">
        <ele>764.259</ele>
        <time>2020-08-29T14:59:46Z</time>
      </trkpt>
      <trkpt lat="39.95071" lon="-.610543">
        <ele>764.014</ele>
        <time>2020-08-29T14:59:47Z</time>
      </trkpt>
      <trkpt lat="39.95073" lon="-.610484">
        <ele>763.908</ele>
        <time>2020-08-29T14:59:48Z</time>
      </trkpt>
      <trkpt lat="39.950753" lon="-.610423">
        <ele>763.870</ele>
        <time>2020-08-29T14:59:49Z</time>
      </trkpt>
      <trkpt lat="39.950773" lon="-.610362">
        <ele>763.780</ele>
        <time>2020-08-29T14:59:50Z</time>
      </trkpt>
      <trkpt lat="39.950798" lon="-.6103">
        <ele>763.562</ele>
        <time>2020-08-29T14:59:51Z</time>
      </trkpt>
      <trkpt lat="39.950816" lon="-.610237">
        <ele>763.514</ele>
        <time>2020-08-29T14:59:52Z</time>
      </trkpt>
      <trkpt lat="39.950839" lon="-.610175">
        <ele>763.432</ele>
        <time>2020-08-29T14:59:53Z</time>
      </trkpt>
      <trkpt lat="39.950862" lon="-.610118">
        <ele>763.399</ele>
        <time>2020-08-29T14:59:54Z</time>
      </trkpt>
      <trkpt lat="39.950886" lon="-.610055">
        <ele>763.037</ele>
        <time>2020-08-29T14:59:55Z</time>
      </trkpt>
      <trkpt lat="39.950912" lon="-.609995">
        <ele>762.967</ele>
        <time>2020-08-29T14:59:56Z</time>
      </trkpt>
      <trkpt lat="39.950932" lon="-.609932">
        <ele>762.734</ele>
        <time>2020-08-29T14:59:57Z</time>
      </trkpt>
      <trkpt lat="39.950952" lon="-.609869">
        <ele>762.455</ele>
        <time>2020-08-29T14:59:58Z</time>
      </trkpt>
      <trkpt lat="39.950979" lon="-.609806">
        <ele>762.410</ele>
        <time>2020-08-29T14:59:59Z</time>
      </trkpt>
      <trkpt lat="39.951" lon="-.609742">
        <ele>762.408</ele>
        <time>2020-08-29T15:00:00Z</time>
      </trkpt>
      <trkpt lat="39.951024" lon="-.60968">
        <ele>762.458</ele>
        <time>2020-08-29T15:00:01Z</time>
      </trkpt>
      <trkpt lat="39.951043" lon="-.609613">
        <ele>762.588</ele>
        <time>2020-08-29T15:00:02Z</time>
      </trkpt>
      <trkpt lat="39.951068" lon="-.609548">
        <ele>762.780</ele>
        <time>2020-08-29T15:00:03Z</time>
      </trkpt>
      <trkpt lat="39.951093" lon="-.609487">
        <ele>762.762</ele>
        <time>2020-08-29T15:00:04Z</time>
      </trkpt>
      <trkpt lat="39.951117" lon="-.609422">
        <ele>762.690</ele>
        <time>2020-08-29T15:00:05Z</time>
      </trkpt>
      <trkpt lat="39.951138" lon="-.609358">
        <ele>762.517</ele>
        <time>2020-08-29T15:00:06Z</time>
      </trkpt>
      <trkpt lat="39.951162" lon="-.609294">
        <ele>762.345</ele>
        <time>2020-08-29T15:00:07Z</time>
      </trkpt>
      <trkpt lat="39.951185" lon="-.609226">
        <ele>762.285</ele>
        <time>2020-08-29T15:00:08Z</time>
      </trkpt>
      <trkpt lat="39.951211" lon="-.609161">
        <ele>762.166</ele>
        <time>2020-08-29T15:00:09Z</time>
      </trkpt>
      <trkpt lat="39.951235" lon="-.609095">
        <ele>762.029</ele>
        <time>2020-08-29T15:00:10Z</time>
      </trkpt>
      <trkpt lat="39.951257" lon="-.609031">
        <ele>761.921</ele>
        <time>2020-08-29T15:00:11Z</time>
      </trkpt>
      <trkpt lat="39.951278" lon="-.608969">
        <ele>761.808</ele>
        <time>2020-08-29T15:00:12Z</time>
      </trkpt>
      <trkpt lat="39.951301" lon="-.608909">
        <ele>761.721</ele>
        <time>2020-08-29T15:00:13Z</time>
      </trkpt>
      <trkpt lat="39.951326" lon="-.608844">
        <ele>761.671</ele>
        <time>2020-08-29T15:00:14Z</time>
      </trkpt>
      <trkpt lat="39.951348" lon="-.608783">
        <ele>761.593</ele>
        <time>2020-08-29T15:00:15Z</time>
      </trkpt>
      <trkpt lat="39.951366" lon="-.608717">
        <ele>761.435</ele>
        <time>2020-08-29T15:00:16Z</time>
      </trkpt>
      <trkpt lat="39.951387" lon="-.608653">
        <ele>761.213</ele>
        <time>2020-08-29T15:00:17Z</time>
      </trkpt>
      <trkpt lat="39.951407" lon="-.608588">
        <ele>761.150</ele>
        <time>2020-08-29T15:00:18Z</time>
      </trkpt>
      <trkpt lat="39.951432" lon="-.608524">
        <ele>761.038</ele>
        <time>2020-08-29T15:00:19Z</time>
      </trkpt>
      <trkpt lat="39.951458" lon="-.608459">
        <ele>761.048</ele>
        <time>2020-08-29T15:00:20Z</time>
      </trkpt>
      <trkpt lat="39.951488" lon="-.608392">
        <ele>760.964</ele>
        <time>2020-08-29T15:00:21Z</time>
      </trkpt>
      <trkpt lat="39.951507" lon="-.608334">
        <ele>760.806</ele>
        <time>2020-08-29T15:00:22Z</time>
      </trkpt>
      <trkpt lat="39.95153" lon="-.608271">
        <ele>760.516</ele>
        <time>2020-08-29T15:00:23Z</time>
      </trkpt>
      <trkpt lat="39.951552" lon="-.608209">
        <ele>760.208</ele>
        <time>2020-08-29T15:00:24Z</time>
      </trkpt>
      <trkpt lat="39.951575" lon="-.608151">
        <ele>759.951</ele>
        <time>2020-08-29T15:00:25Z</time>
      </trkpt>
      <trkpt lat="39.951596" lon="-.608093">
        <ele>759.361</ele>
        <time>2020-08-29T15:00:26Z</time>
      </trkpt>
      <trkpt lat="39.951619" lon="-.608034">
        <ele>759.213</ele>
        <time>2020-08-29T15:00:27Z</time>
      </trkpt>
      <trkpt lat="39.951637" lon="-.607979">
        <ele>759.155</ele>
        <time>2020-08-29T15:00:28Z</time>
      </trkpt>
      <trkpt lat="39.951655" lon="-.607925">
        <ele>759.083</ele>
        <time>2020-08-29T15:00:29Z</time>
      </trkpt>
      <trkpt lat="39.951677" lon="-.607871">
        <ele>758.930</ele>
        <time>2020-08-29T15:00:30Z</time>
      </trkpt>
      <trkpt lat="39.951699" lon="-.607818">
        <ele>758.858</ele>
        <time>2020-08-29T15:00:31Z</time>
      </trkpt>
      <trkpt lat="39.951717" lon="-.607763">
        <ele>758.768</ele>
        <time>2020-08-29T15:00:32Z</time>
      </trkpt>
      <trkpt lat="39.951758" lon="-.607652">
        <ele>758.597</ele>
        <time>2020-08-29T15:00:34Z</time>
      </trkpt>
      <trkpt lat="39.951776" lon="-.607593">
        <ele>758.423</ele>
        <time>2020-08-29T15:00:35Z</time>
      </trkpt>
      <trkpt lat="39.951814" lon="-.60748">
        <ele>758.225</ele>
        <time>2020-08-29T15:00:37Z</time>
      </trkpt>
      <trkpt lat="39.951833" lon="-.607424">
        <ele>758.108</ele>
        <time>2020-08-29T15:00:38Z</time>
      </trkpt>
      <trkpt lat="39.951854" lon="-.607365">
        <ele>757.964</ele>
        <time>2020-08-29T15:00:39Z</time>
      </trkpt>
      <trkpt lat="39.951872" lon="-.607301">
        <ele>757.794</ele>
        <time>2020-08-29T15:00:40Z</time>
      </trkpt>
      <trkpt lat="39.951901" lon="-.607182">
        <ele>757.666</ele>
        <time>2020-08-29T15:00:42Z</time>
      </trkpt>
      <trkpt lat="39.951921" lon="-.607126">
        <ele>757.638</ele>
        <time>2020-08-29T15:00:43Z</time>
      </trkpt>
      <trkpt lat="39.951942" lon="-.607068">
        <ele>757.526</ele>
        <time>2020-08-29T15:00:44Z</time>
      </trkpt>
      <trkpt lat="39.951968" lon="-.606947">
        <ele>757.313</ele>
        <time>2020-08-29T15:00:46Z</time>
      </trkpt>
      <trkpt lat="39.951977" lon="-.606882">
        <ele>757.291</ele>
        <time>2020-08-29T15:00:47Z</time>
      </trkpt>
      <trkpt lat="39.951993" lon="-.606776">
        <ele>757.051</ele>
        <time>2020-08-29T15:00:49Z</time>
      </trkpt>
      <trkpt lat="39.952005" lon="-.606659">
        <ele>756.829</ele>
        <time>2020-08-29T15:00:51Z</time>
      </trkpt>
      <trkpt lat="39.952013" lon="-.606596">
        <ele>756.700</ele>
        <time>2020-08-29T15:00:52Z</time>
      </trkpt>
      <trkpt lat="39.952016" lon="-.606537">
        <ele>756.620</ele>
        <time>2020-08-29T15:00:53Z</time>
      </trkpt>
      <trkpt lat="39.95202" lon="-.606432">
        <ele>756.508</ele>
        <time>2020-08-29T15:00:55Z</time>
      </trkpt>
      <trkpt lat="39.952025" lon="-.606329">
        <ele>756.357</ele>
        <time>2020-08-29T15:00:57Z</time>
      </trkpt>
      <trkpt lat="39.952027" lon="-.606226">
        <ele>756.157</ele>
        <time>2020-08-29T15:00:59Z</time>
      </trkpt>
      <trkpt lat="39.952023" lon="-.606124">
        <ele>756.129</ele>
        <time>2020-08-29T15:01:01Z</time>
      </trkpt>
      <trkpt lat="39.952027" lon="-.606017">
        <ele>756.091</ele>
        <time>2020-08-29T15:01:03Z</time>
      </trkpt>
      <trkpt lat="39.95203" lon="-.605926">
        <ele>755.899</ele>
        <time>2020-08-29T15:01:05Z</time>
      </trkpt>
      <trkpt lat="39.952021" lon="-.605821">
        <ele>754.816</ele>
        <time>2020-08-29T15:01:07Z</time>
      </trkpt>
      <trkpt lat="39.952021" lon="-.605708">
        <ele>754.884</ele>
        <time>2020-08-29T15:01:09Z</time>
      </trkpt>
      <trkpt lat="39.952011" lon="-.605603">
        <ele>755.134</ele>
        <time>2020-08-29T15:01:11Z</time>
      </trkpt>
      <trkpt lat="39.952009" lon="-.605544">
        <ele>755.135</ele>
        <time>2020-08-29T15:01:12Z</time>
      </trkpt>
      <trkpt lat="39.952021" lon="-.605447">
        <ele>754.986</ele>
        <time>2020-08-29T15:01:14Z</time>
      </trkpt>
      <trkpt lat="39.952003" lon="-.605385">
        <ele>754.914</ele>
        <time>2020-08-29T15:01:15Z</time>
      </trkpt>
      <trkpt lat="39.952019" lon="-.605261">
        <ele>754.808</ele>
        <time>2020-08-29T15:01:17Z</time>
      </trkpt>
      <trkpt lat="39.952007" lon="-.605144">
        <ele>754.358</ele>
        <time>2020-08-29T15:01:19Z</time>
      </trkpt>
      <trkpt lat="39.952003" lon="-.605058">
        <ele>754.338</ele>
        <time>2020-08-29T15:01:20Z</time>
      </trkpt>
      <trkpt lat="39.952003" lon="-.604982">
        <ele>754.420</ele>
        <time>2020-08-29T15:01:21Z</time>
      </trkpt>
      <trkpt lat="39.952011" lon="-.604912">
        <ele>754.582</ele>
        <time>2020-08-29T15:01:22Z</time>
      </trkpt>
      <trkpt lat="39.952006" lon="-.604836">
        <ele>754.510</ele>
        <time>2020-08-29T15:01:23Z</time>
      </trkpt>
      <trkpt lat="39.95201" lon="-.60476">
        <ele>754.567</ele>
        <time>2020-08-29T15:01:24Z</time>
      </trkpt>
      <trkpt lat="39.952" lon="-.604682">
        <ele>754.185</ele>
        <time>2020-08-29T15:01:25Z</time>
      </trkpt>
      <trkpt lat="39.951998" lon="-.60462">
        <ele>754.135</ele>
        <time>2020-08-29T15:01:26Z</time>
      </trkpt>
      <trkpt lat="39.95199" lon="-.604543">
        <ele>754.038</ele>
        <time>2020-08-29T15:01:27Z</time>
      </trkpt>
      <trkpt lat="39.95199" lon="-.60447">
        <ele>754.070</ele>
        <time>2020-08-29T15:01:28Z</time>
      </trkpt>
      <trkpt lat="39.951984" lon="-.604388">
        <ele>753.817</ele>
        <time>2020-08-29T15:01:29Z</time>
      </trkpt>
      <trkpt lat="39.951983" lon="-.604311">
        <ele>753.808</ele>
        <time>2020-08-29T15:01:30Z</time>
      </trkpt>
      <trkpt lat="39.951991" lon="-.604247">
        <ele>753.888</ele>
        <time>2020-08-29T15:01:31Z</time>
      </trkpt>
      <trkpt lat="39.951991" lon="-.604186">
        <ele>753.698</ele>
        <time>2020-08-29T15:01:32Z</time>
      </trkpt>
      <trkpt lat="39.95199" lon="-.604122">
        <ele>753.480</ele>
        <time>2020-08-29T15:01:33Z</time>
      </trkpt>
      <trkpt lat="39.951982" lon="-.604061">
        <ele>753.242</ele>
        <time>2020-08-29T15:01:34Z</time>
      </trkpt>
      <trkpt lat="39.951981" lon="-.603996">
        <ele>753.120</ele>
        <time>2020-08-29T15:01:35Z</time>
      </trkpt>
      <trkpt lat="39.951968" lon="-.603929">
        <ele>752.817</ele>
        <time>2020-08-29T15:01:36Z</time>
      </trkpt>
      <trkpt lat="39.951964" lon="-.603864">
        <ele>752.645</ele>
        <time>2020-08-29T15:01:37Z</time>
      </trkpt>
      <trkpt lat="39.951963" lon="-.6038">
        <ele>752.535</ele>
        <time>2020-08-29T15:01:38Z</time>
      </trkpt>
      <trkpt lat="39.951958" lon="-.603717">
        <ele>752.554</ele>
        <time>2020-08-29T15:01:39Z</time>
      </trkpt>
      <trkpt lat="39.951948" lon="-.603632">
        <ele>752.456</ele>
        <time>2020-08-29T15:01:40Z</time>
      </trkpt>
      <trkpt lat="39.951942" lon="-.603561">
        <ele>752.211</ele>
        <time>2020-08-29T15:01:41Z</time>
      </trkpt>
      <trkpt lat="39.951923" lon="-.603493">
        <ele>752.108</ele>
        <time>2020-08-29T15:01:42Z</time>
      </trkpt>
      <trkpt lat="39.951909" lon="-.60342">
        <ele>752.090</ele>
        <time>2020-08-29T15:01:43Z</time>
      </trkpt>
      <trkpt lat="39.951899" lon="-.60335">
        <ele>751.910</ele>
        <time>2020-08-29T15:01:44Z</time>
      </trkpt>
      <trkpt lat="39.951891" lon="-.603277">
        <ele>751.992</ele>
        <time>2020-08-29T15:01:45Z</time>
      </trkpt>
      <trkpt lat="39.951886" lon="-.603213">
        <ele>751.994</ele>
        <time>2020-08-29T15:01:46Z</time>
      </trkpt>
      <trkpt lat="39.95188" lon="-.603094">
        <ele>751.852</ele>
        <time>2020-08-29T15:01:48Z</time>
      </trkpt>
      <trkpt lat="39.951875" lon="-.603019">
        <ele>751.739</ele>
        <time>2020-08-29T15:01:49Z</time>
      </trkpt>
      <trkpt lat="39.951869" lon="-.602948">
        <ele>751.457</ele>
        <time>2020-08-29T15:01:50Z</time>
      </trkpt>
      <trkpt lat="39.951865" lon="-.602876">
        <ele>751.047</ele>
        <time>2020-08-29T15:01:51Z</time>
      </trkpt>
      <trkpt lat="39.951865" lon="-.602799">
        <ele>751.036</ele>
        <time>2020-08-29T15:01:52Z</time>
      </trkpt>
      <trkpt lat="39.951864" lon="-.602733">
        <ele>751.017</ele>
        <time>2020-08-29T15:01:53Z</time>
      </trkpt>
      <trkpt lat="39.951866" lon="-.602672">
        <ele>751.018</ele>
        <time>2020-08-29T15:01:54Z</time>
      </trkpt>
      <trkpt lat="39.951867" lon="-.602606">
        <ele>751.008</ele>
        <time>2020-08-29T15:01:55Z</time>
      </trkpt>
      <trkpt lat="39.951862" lon="-.602535">
        <ele>751.138</ele>
        <time>2020-08-29T15:01:56Z</time>
      </trkpt>
      <trkpt lat="39.951857" lon="-.602471">
        <ele>751.158</ele>
        <time>2020-08-29T15:01:57Z</time>
      </trkpt>
      <trkpt lat="39.951859" lon="-.602408">
        <ele>750.970</ele>
        <time>2020-08-29T15:01:58Z</time>
      </trkpt>
      <trkpt lat="39.951858" lon="-.602342">
        <ele>750.772</ele>
        <time>2020-08-29T15:01:59Z</time>
      </trkpt>
      <trkpt lat="39.951864" lon="-.602266">
        <ele>750.470</ele>
        <time>2020-08-29T15:02:00Z</time>
      </trkpt>
      <trkpt lat="39.951852" lon="-.602183">
        <ele>750.287</ele>
        <time>2020-08-29T15:02:01Z</time>
      </trkpt>
      <trkpt lat="39.951849" lon="-.602106">
        <ele>750.015</ele>
        <time>2020-08-29T15:02:02Z</time>
      </trkpt>
      <trkpt lat="39.951847" lon="-.60204">
        <ele>750.035</ele>
        <time>2020-08-29T15:02:03Z</time>
      </trkpt>
      <trkpt lat="39.951854" lon="-.601974">
        <ele>750.011</ele>
        <time>2020-08-29T15:02:04Z</time>
      </trkpt>
      <trkpt lat="39.951855" lon="-.60191">
        <ele>750.121</ele>
        <time>2020-08-29T15:02:05Z</time>
      </trkpt>
      <trkpt lat="39.951854" lon="-.601833">
        <ele>750.103</ele>
        <time>2020-08-29T15:02:06Z</time>
      </trkpt>
      <trkpt lat="39.951858" lon="-.601754">
        <ele>749.808</ele>
        <time>2020-08-29T15:02:07Z</time>
      </trkpt>
      <trkpt lat="39.95186" lon="-.601683">
        <ele>749.766</ele>
        <time>2020-08-29T15:02:08Z</time>
      </trkpt>
      <trkpt lat="39.951863" lon="-.601614">
        <ele>749.616</ele>
        <time>2020-08-29T15:02:09Z</time>
      </trkpt>
      <trkpt lat="39.951867" lon="-.601552">
        <ele>749.418</ele>
        <time>2020-08-29T15:02:10Z</time>
      </trkpt>
      <trkpt lat="39.951879" lon="-.601479">
        <ele>749.340</ele>
        <time>2020-08-29T15:02:11Z</time>
      </trkpt>
      <trkpt lat="39.951881" lon="-.601399">
        <ele>749.338</ele>
        <time>2020-08-29T15:02:12Z</time>
      </trkpt>
      <trkpt lat="39.951897" lon="-.601322">
        <ele>749.275</ele>
        <time>2020-08-29T15:02:13Z</time>
      </trkpt>
      <trkpt lat="39.95191" lon="-.601247">
        <ele>748.913</ele>
        <time>2020-08-29T15:02:14Z</time>
      </trkpt>
      <trkpt lat="39.951915" lon="-.601167">
        <ele>748.843</ele>
        <time>2020-08-29T15:02:15Z</time>
      </trkpt>
      <trkpt lat="39.951903" lon="-.601071">
        <ele>748.845</ele>
        <time>2020-08-29T15:02:16Z</time>
      </trkpt>
      <trkpt lat="39.951919" lon="-.600988">
        <ele>748.647</ele>
        <time>2020-08-29T15:02:17Z</time>
      </trkpt>
      <trkpt lat="39.951935" lon="-.600915">
        <ele>748.611</ele>
        <time>2020-08-29T15:02:18Z</time>
      </trkpt>
      <trkpt lat="39.951945" lon="-.60085">
        <ele>748.508</ele>
        <time>2020-08-29T15:02:19Z</time>
      </trkpt>
      <trkpt lat="39.951954" lon="-.600769">
        <ele>748.479</ele>
        <time>2020-08-29T15:02:20Z</time>
      </trkpt>
      <trkpt lat="39.951967" lon="-.600701">
        <ele>748.439</ele>
        <time>2020-08-29T15:02:21Z</time>
      </trkpt>
      <trkpt lat="39.951975" lon="-.600631">
        <ele>748.471</ele>
        <time>2020-08-29T15:02:22Z</time>
      </trkpt>
      <trkpt lat="39.951987" lon="-.600566">
        <ele>748.163</ele>
        <time>2020-08-29T15:02:23Z</time>
      </trkpt>
      <trkpt lat="39.952002" lon="-.600503">
        <ele>748.091</ele>
        <time>2020-08-29T15:02:24Z</time>
      </trkpt>
      <trkpt lat="39.95202" lon="-.600424">
        <ele>747.768</ele>
        <time>2020-08-29T15:02:25Z</time>
      </trkpt>
      <trkpt lat="39.95204" lon="-.600345">
        <ele>747.656</ele>
        <time>2020-08-29T15:02:26Z</time>
      </trkpt>
      <trkpt lat="39.952056" lon="-.600272">
        <ele>747.556</ele>
        <time>2020-08-29T15:02:27Z</time>
      </trkpt>
      <trkpt lat="39.952076" lon="-.600202">
        <ele>747.432</ele>
        <time>2020-08-29T15:02:28Z</time>
      </trkpt>
      <trkpt lat="39.952088" lon="-.600133">
        <ele>747.392</ele>
        <time>2020-08-29T15:02:29Z</time>
      </trkpt>
      <trkpt lat="39.95211" lon="-.600073">
        <ele>747.111</ele>
        <time>2020-08-29T15:02:30Z</time>
      </trkpt>
      <trkpt lat="39.95213" lon="-.60001">
        <ele>747.008</ele>
        <time>2020-08-29T15:02:31Z</time>
      </trkpt>
      <trkpt lat="39.952153" lon="-.599948">
        <ele>746.838</ele>
        <time>2020-08-29T15:02:32Z</time>
      </trkpt>
      <trkpt lat="39.952177" lon="-.599884">
        <ele>746.788</ele>
        <time>2020-08-29T15:02:33Z</time>
      </trkpt>
      <trkpt lat="39.952201" lon="-.599824">
        <ele>746.620</ele>
        <time>2020-08-29T15:02:34Z</time>
      </trkpt>
      <trkpt lat="39.952225" lon="-.599772">
        <ele>746.562</ele>
        <time>2020-08-29T15:02:35Z</time>
      </trkpt>
      <trkpt lat="39.952246" lon="-.599707">
        <ele>746.490</ele>
        <time>2020-08-29T15:02:36Z</time>
      </trkpt>
      <trkpt lat="39.952296" lon="-.599615">
        <ele>746.227</ele>
        <time>2020-08-29T15:02:38Z</time>
      </trkpt>
      <trkpt lat="39.952349" lon="-.599524">
        <ele>746.035</ele>
        <time>2020-08-29T15:02:40Z</time>
      </trkpt>
      <trkpt lat="39.952383" lon="-.59946">
        <ele>745.725</ele>
        <time>2020-08-29T15:02:42Z</time>
      </trkpt>
      <trkpt lat="39.952429" lon="-.599372">
        <ele>745.524</ele>
        <time>2020-08-29T15:02:44Z</time>
      </trkpt>
      <trkpt lat="39.952486" lon="-.599315">
        <ele>745.504</ele>
        <time>2020-08-29T15:02:46Z</time>
      </trkpt>
      <trkpt lat="39.952534" lon="-.599212">
        <ele>745.114</ele>
        <time>2020-08-29T15:02:48Z</time>
      </trkpt>
      <trkpt lat="39.95257" lon="-.599154">
        <ele>745.008</ele>
        <time>2020-08-29T15:02:49Z</time>
      </trkpt>
      <trkpt lat="39.952624" lon="-.599057">
        <ele>744.677</ele>
        <time>2020-08-29T15:02:51Z</time>
      </trkpt>
      <trkpt lat="39.952653" lon="-.599003">
        <ele>744.557</ele>
        <time>2020-08-29T15:02:52Z</time>
      </trkpt>
      <trkpt lat="39.952689" lon="-.598959">
        <ele>744.519</ele>
        <time>2020-08-29T15:02:53Z</time>
      </trkpt>
      <trkpt lat="39.952724" lon="-.598906">
        <ele>744.551</ele>
        <time>2020-08-29T15:02:54Z</time>
      </trkpt>
      <trkpt lat="39.952765" lon="-.598849">
        <ele>744.529</ele>
        <time>2020-08-29T15:02:55Z</time>
      </trkpt>
      <trkpt lat="39.952797" lon="-.598804">
        <ele>744.596</ele>
        <time>2020-08-29T15:02:56Z</time>
      </trkpt>
      <trkpt lat="39.952835" lon="-.598747">
        <ele>744.594</ele>
        <time>2020-08-29T15:02:57Z</time>
      </trkpt>
      <trkpt lat="39.952905" lon="-.598667">
        <ele>744.514</ele>
        <time>2020-08-29T15:02:59Z</time>
      </trkpt>
      <trkpt lat="39.952947" lon="-.59862">
        <ele>744.493</ele>
        <time>2020-08-29T15:03:00Z</time>
      </trkpt>
      <trkpt lat="39.95299" lon="-.598566">
        <ele>744.265</ele>
        <time>2020-08-29T15:03:01Z</time>
      </trkpt>
      <trkpt lat="39.95303" lon="-.598517">
        <ele>744.221</ele>
        <time>2020-08-29T15:03:02Z</time>
      </trkpt>
      <trkpt lat="39.953069" lon="-.598466">
        <ele>744.208</ele>
        <time>2020-08-29T15:03:03Z</time>
      </trkpt>
      <trkpt lat="39.953113" lon="-.598426">
        <ele>744.214</ele>
        <time>2020-08-29T15:03:04Z</time>
      </trkpt>
      <trkpt lat="39.953155" lon="-.598388">
        <ele>744.254</ele>
        <time>2020-08-29T15:03:05Z</time>
      </trkpt>
      <trkpt lat="39.953193" lon="-.59834">
        <ele>744.296</ele>
        <time>2020-08-29T15:03:06Z</time>
      </trkpt>
      <trkpt lat="39.953254" lon="-.598281">
        <ele>744.138</ele>
        <time>2020-08-29T15:03:08Z</time>
      </trkpt>
      <trkpt lat="39.953286" lon="-.598239">
        <ele>743.946</ele>
        <time>2020-08-29T15:03:09Z</time>
      </trkpt>
      <trkpt lat="39.953322" lon="-.598194">
        <ele>743.863</ele>
        <time>2020-08-29T15:03:10Z</time>
      </trkpt>
      <trkpt lat="39.953363" lon="-.598142">
        <ele>743.781</ele>
        <time>2020-08-29T15:03:11Z</time>
      </trkpt>
      <trkpt lat="39.953405" lon="-.598112">
        <ele>743.621</ele>
        <time>2020-08-29T15:03:12Z</time>
      </trkpt>
      <trkpt lat="39.953444" lon="-.598075">
        <ele>743.521</ele>
        <time>2020-08-29T15:03:13Z</time>
      </trkpt>
      <trkpt lat="39.953496" lon="-.598051">
        <ele>743.641</ele>
        <time>2020-08-29T15:03:14Z</time>
      </trkpt>
      <trkpt lat="39.953541" lon="-.597995">
        <ele>743.705</ele>
        <time>2020-08-29T15:03:15Z</time>
      </trkpt>
      <trkpt lat="39.953594" lon="-.597941">
        <ele>744.008</ele>
        <time>2020-08-29T15:03:17Z</time>
      </trkpt>
      <trkpt lat="39.953644" lon="-.597897">
        <ele>744.097</ele>
        <time>2020-08-29T15:03:18Z</time>
      </trkpt>
      <trkpt lat="39.953685" lon="-.597872">
        <ele>744.177</ele>
        <time>2020-08-29T15:03:19Z</time>
      </trkpt>
      <trkpt lat="39.953745" lon="-.597814">
        <ele>744.119</ele>
        <time>2020-08-29T15:03:21Z</time>
      </trkpt>
      <trkpt lat="39.953783" lon="-.597771">
        <ele>744.131</ele>
        <time>2020-08-29T15:03:22Z</time>
      </trkpt>
      <trkpt lat="39.953813" lon="-.597725">
        <ele>744.169</ele>
        <time>2020-08-29T15:03:23Z</time>
      </trkpt>
      <trkpt lat="39.953889" lon="-.59766">
        <ele>744.016</ele>
        <time>2020-08-29T15:03:25Z</time>
      </trkpt>
      <trkpt lat="39.95397" lon="-.597592">
        <ele>743.974</ele>
        <time>2020-08-29T15:03:27Z</time>
      </trkpt>
      <trkpt lat="39.954009" lon="-.597551">
        <ele>743.684</ele>
        <time>2020-08-29T15:03:28Z</time>
      </trkpt>
      <trkpt lat="39.954055" lon="-.597511">
        <ele>743.485</ele>
        <time>2020-08-29T15:03:29Z</time>
      </trkpt>
      <trkpt lat="39.954123" lon="-.597485">
        <ele>743.389</ele>
        <time>2020-08-29T15:03:30Z</time>
      </trkpt>
      <trkpt lat="39.954174" lon="-.597477">
        <ele>743.117</ele>
        <time>2020-08-29T15:03:31Z</time>
      </trkpt>
      <trkpt lat="39.954218" lon="-.597449">
        <ele>742.808</ele>
        <time>2020-08-29T15:03:32Z</time>
      </trkpt>
      <trkpt lat="39.954246" lon="-.597402">
        <ele>742.743</ele>
        <time>2020-08-29T15:03:33Z</time>
      </trkpt>
      <trkpt lat="39.954292" lon="-.59738">
        <ele>742.483</ele>
        <time>2020-08-29T15:03:34Z</time>
      </trkpt>
      <trkpt lat="39.954345" lon="-.597365">
        <ele>742.185</ele>
        <time>2020-08-29T15:03:35Z</time>
      </trkpt>
      <trkpt lat="39.954413" lon="-.59737">
        <ele>741.897</ele>
        <time>2020-08-29T15:03:36Z</time>
      </trkpt>
      <trkpt lat="39.95448" lon="-.597364">
        <ele>741.765</ele>
        <time>2020-08-29T15:03:37Z</time>
      </trkpt>
      <trkpt lat="39.954573" lon="-.597314">
        <ele>741.342</ele>
        <time>2020-08-29T15:03:38Z</time>
      </trkpt>
      <trkpt lat="39.954638" lon="-.597297">
        <ele>741.120</ele>
        <time>2020-08-29T15:03:39Z</time>
      </trkpt>
      <trkpt lat="39.954699" lon="-.597272">
        <ele>741.070</ele>
        <time>2020-08-29T15:03:40Z</time>
      </trkpt>
      <trkpt lat="39.954757" lon="-.597214">
        <ele>740.412</ele>
        <time>2020-08-29T15:03:41Z</time>
      </trkpt>
      <trkpt lat="39.954832" lon="-.597185">
        <ele>740.332</ele>
        <time>2020-08-29T15:03:42Z</time>
      </trkpt>
      <trkpt lat="39.954898" lon="-.597139">
        <ele>740.105</ele>
        <time>2020-08-29T15:03:43Z</time>
      </trkpt>
      <trkpt lat="39.954983" lon="-.59713">
        <ele>740.008</ele>
        <time>2020-08-29T15:03:44Z</time>
      </trkpt>
      <trkpt lat="39.955071" lon="-.597123">
        <ele>739.986</ele>
        <time>2020-08-29T15:03:45Z</time>
      </trkpt>
      <trkpt lat="39.955162" lon="-.597094">
        <ele>739.896</ele>
        <time>2020-08-29T15:03:46Z</time>
      </trkpt>
      <trkpt lat="39.95524" lon="-.597089">
        <ele>739.798</ele>
        <time>2020-08-29T15:03:47Z</time>
      </trkpt>
      <trkpt lat="39.955298" lon="-.597073">
        <ele>739.660</ele>
        <time>2020-08-29T15:03:48Z</time>
      </trkpt>
      <trkpt lat="39.955356" lon="-.597053">
        <ele>739.548</ele>
        <time>2020-08-29T15:03:49Z</time>
      </trkpt>
      <trkpt lat="39.955407" lon="-.597039">
        <ele>739.495</ele>
        <time>2020-08-29T15:03:50Z</time>
      </trkpt>
      <trkpt lat="39.955471" lon="-.59702">
        <ele>739.363</ele>
        <time>2020-08-29T15:03:51Z</time>
      </trkpt>
      <trkpt lat="39.955526" lon="-.597002">
        <ele>739.213</ele>
        <time>2020-08-29T15:03:52Z</time>
      </trkpt>
      <trkpt lat="39.955588" lon="-.596984">
        <ele>739.264</ele>
        <time>2020-08-29T15:03:53Z</time>
      </trkpt>
      <trkpt lat="39.955643" lon="-.596963">
        <ele>739.006</ele>
        <time>2020-08-29T15:03:54Z</time>
      </trkpt>
      <trkpt lat="39.955702" lon="-.596934">
        <ele>738.916</ele>
        <time>2020-08-29T15:03:55Z</time>
      </trkpt>
      <trkpt lat="39.955754" lon="-.596924">
        <ele>738.808</ele>
        <time>2020-08-29T15:03:56Z</time>
      </trkpt>
      <trkpt lat="39.95581" lon="-.596899">
        <ele>738.761</ele>
        <time>2020-08-29T15:03:57Z</time>
      </trkpt>
      <trkpt lat="39.955873" lon="-.596873">
        <ele>738.631</ele>
        <time>2020-08-29T15:03:58Z</time>
      </trkpt>
      <trkpt lat="39.955932" lon="-.596854">
        <ele>738.693</ele>
        <time>2020-08-29T15:03:59Z</time>
      </trkpt>
      <trkpt lat="39.955996" lon="-.596833">
        <ele>738.345</ele>
        <time>2020-08-29T15:04:00Z</time>
      </trkpt>
      <trkpt lat="39.956054" lon="-.596812">
        <ele>738.213</ele>
        <time>2020-08-29T15:04:01Z</time>
      </trkpt>
      <trkpt lat="39.956105" lon="-.596784">
        <ele>738.110</ele>
        <time>2020-08-29T15:04:02Z</time>
      </trkpt>
      <trkpt lat="39.956166" lon="-.596757">
        <ele>737.928</ele>
        <time>2020-08-29T15:04:03Z</time>
      </trkpt>
      <trkpt lat="39.956228" lon="-.596725">
        <ele>737.858</ele>
        <time>2020-08-29T15:04:04Z</time>
      </trkpt>
      <trkpt lat="39.956288" lon="-.596687">
        <ele>737.425</ele>
        <time>2020-08-29T15:04:05Z</time>
      </trkpt>
      <trkpt lat="39.956349" lon="-.596646">
        <ele>737.226</ele>
        <time>2020-08-29T15:04:06Z</time>
      </trkpt>
      <trkpt lat="39.956414" lon="-.59661">
        <ele>737.208</ele>
        <time>2020-08-29T15:04:07Z</time>
      </trkpt>
      <trkpt lat="39.956468" lon="-.596574">
        <ele>737.208</ele>
        <time>2020-08-29T15:04:08Z</time>
      </trkpt>
      <trkpt lat="39.956518" lon="-.596534">
        <ele>737.127</ele>
        <time>2020-08-29T15:04:09Z</time>
      </trkpt>
      <trkpt lat="39.956568" lon="-.596493">
        <ele>737.187</ele>
        <time>2020-08-29T15:04:10Z</time>
      </trkpt>
      <trkpt lat="39.956616" lon="-.596462">
        <ele>737.289</ele>
        <time>2020-08-29T15:04:11Z</time>
      </trkpt>
      <trkpt lat="39.956667" lon="-.596412">
        <ele>737.231</ele>
        <time>2020-08-29T15:04:12Z</time>
      </trkpt>
      <trkpt lat="39.956708" lon="-.596376">
        <ele>736.969</ele>
        <time>2020-08-29T15:04:13Z</time>
      </trkpt>
      <trkpt lat="39.956746" lon="-.596339">
        <ele>736.766</ele>
        <time>2020-08-29T15:04:14Z</time>
      </trkpt>
      <trkpt lat="39.956815" lon="-.596263">
        <ele>736.344</ele>
        <time>2020-08-29T15:04:16Z</time>
      </trkpt>
      <trkpt lat="39.956853" lon="-.596224">
        <ele>736.124</ele>
        <time>2020-08-29T15:04:17Z</time>
      </trkpt>
      <trkpt lat="39.9569" lon="-.596189">
        <ele>736.112</ele>
        <time>2020-08-29T15:04:18Z</time>
      </trkpt>
      <trkpt lat="39.956952" lon="-.59615">
        <ele>736.132</ele>
        <time>2020-08-29T15:04:19Z</time>
      </trkpt>
      <trkpt lat="39.956991" lon="-.596108">
        <ele>735.805</ele>
        <time>2020-08-29T15:04:20Z</time>
      </trkpt>
      <trkpt lat="39.957038" lon="-.59607">
        <ele>735.708</ele>
        <time>2020-08-29T15:04:21Z</time>
      </trkpt>
      <trkpt lat="39.957086" lon="-.596037">
        <ele>735.566</ele>
        <time>2020-08-29T15:04:22Z</time>
      </trkpt>
      <trkpt lat="39.957133" lon="-.596">
        <ele>735.336</ele>
        <time>2020-08-29T15:04:23Z</time>
      </trkpt>
      <trkpt lat="39.957183" lon="-.59595">
        <ele>735.168</ele>
        <time>2020-08-29T15:04:24Z</time>
      </trkpt>
      <trkpt lat="39.957224" lon="-.595905">
        <ele>735.020</ele>
        <time>2020-08-29T15:04:25Z</time>
      </trkpt>
      <trkpt lat="39.957267" lon="-.595855">
        <ele>734.928</ele>
        <time>2020-08-29T15:04:26Z</time>
      </trkpt>
      <trkpt lat="39.957312" lon="-.59583">
        <ele>734.715</ele>
        <time>2020-08-29T15:04:27Z</time>
      </trkpt>
      <trkpt lat="39.957366" lon="-.595798">
        <ele>734.643</ele>
        <time>2020-08-29T15:04:28Z</time>
      </trkpt>
      <trkpt lat="39.957418" lon="-.595755">
        <ele>734.633</ele>
        <time>2020-08-29T15:04:29Z</time>
      </trkpt>
      <trkpt lat="39.957467" lon="-.595702">
        <ele>734.525</ele>
        <time>2020-08-29T15:04:30Z</time>
      </trkpt>
      <trkpt lat="39.957506" lon="-.595643">
        <ele>734.326</ele>
        <time>2020-08-29T15:04:31Z</time>
      </trkpt>
      <trkpt lat="39.957549" lon="-.595596">
        <ele>734.208</ele>
        <time>2020-08-29T15:04:32Z</time>
      </trkpt>
      <trkpt lat="39.957589" lon="-.595547">
        <ele>734.108</ele>
        <time>2020-08-29T15:04:33Z</time>
      </trkpt>
      <trkpt lat="39.957628" lon="-.595493">
        <ele>734.127</ele>
        <time>2020-08-29T15:04:34Z</time>
      </trkpt>
      <trkpt lat="39.957679" lon="-.595451">
        <ele>734.067</ele>
        <time>2020-08-29T15:04:35Z</time>
      </trkpt>
      <trkpt lat="39.957708" lon="-.595398">
        <ele>733.999</ele>
        <time>2020-08-29T15:04:36Z</time>
      </trkpt>
      <trkpt lat="39.957744" lon="-.595343">
        <ele>733.721</ele>
        <time>2020-08-29T15:04:37Z</time>
      </trkpt>
      <trkpt lat="39.957772" lon="-.595271">
        <ele>733.469</ele>
        <time>2020-08-29T15:04:38Z</time>
      </trkpt>
      <trkpt lat="39.957809" lon="-.59521">
        <ele>733.146</ele>
        <time>2020-08-29T15:04:39Z</time>
      </trkpt>
      <trkpt lat="39.957859" lon="-.595153">
        <ele>733.154</ele>
        <time>2020-08-29T15:04:40Z</time>
      </trkpt>
      <trkpt lat="39.957898" lon="-.595086">
        <ele>733.124</ele>
        <time>2020-08-29T15:04:41Z</time>
      </trkpt>
      <trkpt lat="39.957939" lon="-.595023">
        <ele>733.123</ele>
        <time>2020-08-29T15:04:42Z</time>
      </trkpt>
      <trkpt lat="39.957985" lon="-.594982">
        <ele>733.183</ele>
        <time>2020-08-29T15:04:43Z</time>
      </trkpt>
      <trkpt lat="39.958021" lon="-.594926">
        <ele>733.111</ele>
        <time>2020-08-29T15:04:44Z</time>
      </trkpt>
      <trkpt lat="39.958065" lon="-.594861">
        <ele>732.708</ele>
        <time>2020-08-29T15:04:45Z</time>
      </trkpt>
      <trkpt lat="39.9581" lon="-.594805">
        <ele>732.647</ele>
        <time>2020-08-29T15:04:46Z</time>
      </trkpt>
      <trkpt lat="39.958137" lon="-.594747">
        <ele>732.557</ele>
        <time>2020-08-29T15:04:47Z</time>
      </trkpt>
      <trkpt lat="39.958179" lon="-.594661">
        <ele>732.499</ele>
        <time>2020-08-29T15:04:48Z</time>
      </trkpt>
      <trkpt lat="39.958221" lon="-.59461">
        <ele>732.351</ele>
        <time>2020-08-29T15:04:49Z</time>
      </trkpt>
      <trkpt lat="39.958263" lon="-.594526">
        <ele>732.189</ele>
        <time>2020-08-29T15:04:50Z</time>
      </trkpt>
      <trkpt lat="39.958297" lon="-.59447">
        <ele>732.136</ele>
        <time>2020-08-29T15:04:51Z</time>
      </trkpt>
      <trkpt lat="39.958327" lon="-.594406">
        <ele>731.814</ele>
        <time>2020-08-29T15:04:52Z</time>
      </trkpt>
      <trkpt lat="39.958345" lon="-.594339">
        <ele>731.694</ele>
        <time>2020-08-29T15:04:53Z</time>
      </trkpt>
      <trkpt lat="39.958349" lon="-.594251">
        <ele>731.593</ele>
        <time>2020-08-29T15:04:54Z</time>
      </trkpt>
      <trkpt lat="39.958364" lon="-.594187">
        <ele>731.465</ele>
        <time>2020-08-29T15:04:55Z</time>
      </trkpt>
      <trkpt lat="39.958374" lon="-.59411">
        <ele>731.221</ele>
        <time>2020-08-29T15:04:56Z</time>
      </trkpt>
      <trkpt lat="39.95838" lon="-.594051">
        <ele>731.108</ele>
        <time>2020-08-29T15:04:57Z</time>
      </trkpt>
      <trkpt lat="39.958405" lon="-.59397">
        <ele>730.944</ele>
        <time>2020-08-29T15:04:58Z</time>
      </trkpt>
      <trkpt lat="39.958427" lon="-.593891">
        <ele>730.614</ele>
        <time>2020-08-29T15:04:59Z</time>
      </trkpt>
      <trkpt lat="39.958462" lon="-.593802">
        <ele>730.456</ele>
        <time>2020-08-29T15:05:00Z</time>
      </trkpt>
      <trkpt lat="39.958506" lon="-.593702">
        <ele>730.248</ele>
        <time>2020-08-29T15:05:01Z</time>
      </trkpt>
      <trkpt lat="39.958533" lon="-.593633">
        <ele>730.266</ele>
        <time>2020-08-29T15:05:02Z</time>
      </trkpt>
      <trkpt lat="39.958553" lon="-.593546">
        <ele>730.163</ele>
        <time>2020-08-29T15:05:03Z</time>
      </trkpt>
      <trkpt lat="39.958555" lon="-.593456">
        <ele>729.941</ele>
        <time>2020-08-29T15:05:04Z</time>
      </trkpt>
      <trkpt lat="39.958567" lon="-.593374">
        <ele>729.851</ele>
        <time>2020-08-29T15:05:05Z</time>
      </trkpt>
      <trkpt lat="39.958571" lon="-.593268">
        <ele>729.856</ele>
        <time>2020-08-29T15:05:06Z</time>
      </trkpt>
      <trkpt lat="39.958576" lon="-.593176">
        <ele>729.759</ele>
        <time>2020-08-29T15:05:07Z</time>
      </trkpt>
      <trkpt lat="39.958594" lon="-.593081">
        <ele>729.614</ele>
        <time>2020-08-29T15:05:08Z</time>
      </trkpt>
      <trkpt lat="39.9586" lon="-.593016">
        <ele>728.608</ele>
        <time>2020-08-29T15:05:09Z</time>
      </trkpt>
      <trkpt lat="39.958595" lon="-.592935">
        <ele>728.610</ele>
        <time>2020-08-29T15:05:10Z</time>
      </trkpt>
      <trkpt lat="39.958579" lon="-.592863">
        <ele>728.760</ele>
        <time>2020-08-29T15:05:11Z</time>
      </trkpt>
      <trkpt lat="39.958588" lon="-.592771">
        <ele>728.792</ele>
        <time>2020-08-29T15:05:12Z</time>
      </trkpt>
      <trkpt lat="39.958582" lon="-.592678">
        <ele>728.734</ele>
        <time>2020-08-29T15:05:13Z</time>
      </trkpt>
      <trkpt lat="39.958595" lon="-.592613">
        <ele>728.712</ele>
        <time>2020-08-29T15:05:14Z</time>
      </trkpt>
      <trkpt lat="39.958599" lon="-.59252">
        <ele>728.849</ele>
        <time>2020-08-29T15:05:15Z</time>
      </trkpt>
      <trkpt lat="39.958593" lon="-.592445">
        <ele>728.847</ele>
        <time>2020-08-29T15:05:16Z</time>
      </trkpt>
      <trkpt lat="39.958595" lon="-.592366">
        <ele>728.537</ele>
        <time>2020-08-29T15:05:17Z</time>
      </trkpt>
      <trkpt lat="39.958588" lon="-.592298">
        <ele>727.541</ele>
        <time>2020-08-29T15:05:18Z</time>
      </trkpt>
      <trkpt lat="39.958598" lon="-.592204">
        <ele>727.381</ele>
        <time>2020-08-29T15:05:19Z</time>
      </trkpt>
      <trkpt lat="39.95859" lon="-.59213">
        <ele>727.309</ele>
        <time>2020-08-29T15:05:20Z</time>
      </trkpt>
      <trkpt lat="39.958583" lon="-.592058">
        <ele>727.408</ele>
        <time>2020-08-29T15:05:21Z</time>
      </trkpt>
      <trkpt lat="39.95858" lon="-.59196">
        <ele>727.539</ele>
        <time>2020-08-29T15:05:22Z</time>
      </trkpt>
      <trkpt lat="39.958567" lon="-.591861">
        <ele>727.539</ele>
        <time>2020-08-29T15:05:23Z</time>
      </trkpt>
      <trkpt lat="39.958567" lon="-.591793">
        <ele>727.781</ele>
        <time>2020-08-29T15:05:24Z</time>
      </trkpt>
      <trkpt lat="39.958561" lon="-.591705">
        <ele>727.723</ele>
        <time>2020-08-29T15:05:25Z</time>
      </trkpt>
      <trkpt lat="39.958558" lon="-.591628">
        <ele>727.231</ele>
        <time>2020-08-29T15:05:26Z</time>
      </trkpt>
      <trkpt lat="39.958537" lon="-.59153">
        <ele>726.848</ele>
        <time>2020-08-29T15:05:27Z</time>
      </trkpt>
      <trkpt lat="39.958519" lon="-.591454">
        <ele>726.666</ele>
        <time>2020-08-29T15:05:28Z</time>
      </trkpt>
      <trkpt lat="39.958515" lon="-.591373">
        <ele>726.316</ele>
        <time>2020-08-29T15:05:29Z</time>
      </trkpt>
      <trkpt lat="39.958501" lon="-.591291">
        <ele>726.282</ele>
        <time>2020-08-29T15:05:30Z</time>
      </trkpt>
      <trkpt lat="39.958487" lon="-.591221">
        <ele>726.243</ele>
        <time>2020-08-29T15:05:31Z</time>
      </trkpt>
      <trkpt lat="39.958476" lon="-.591158">
        <ele>726.317</ele>
        <time>2020-08-29T15:05:32Z</time>
      </trkpt>
      <trkpt lat="39.95846" lon="-.59108">
        <ele>726.308</ele>
        <time>2020-08-29T15:05:33Z</time>
      </trkpt>
      <trkpt lat="39.958448" lon="-.591009">
        <ele>726.373</ele>
        <time>2020-08-29T15:05:34Z</time>
      </trkpt>
      <trkpt lat="39.958437" lon="-.590933">
        <ele>726.153</ele>
        <time>2020-08-29T15:05:35Z</time>
      </trkpt>
      <trkpt lat="39.958428" lon="-.590873">
        <ele>725.825</ele>
        <time>2020-08-29T15:05:36Z</time>
      </trkpt>
      <trkpt lat="39.958418" lon="-.590808">
        <ele>725.557</ele>
        <time>2020-08-29T15:05:37Z</time>
      </trkpt>
      <trkpt lat="39.958402" lon="-.590731">
        <ele>725.165</ele>
        <time>2020-08-29T15:05:38Z</time>
      </trkpt>
      <trkpt lat="39.958396" lon="-.590664">
        <ele>725.212</ele>
        <time>2020-08-29T15:05:39Z</time>
      </trkpt>
      <trkpt lat="39.958384" lon="-.590597">
        <ele>725.260</ele>
        <time>2020-08-29T15:05:40Z</time>
      </trkpt>
      <trkpt lat="39.95837" lon="-.590458">
        <ele>725.390</ele>
        <time>2020-08-29T15:05:42Z</time>
      </trkpt>
      <trkpt lat="39.958352" lon="-.590381">
        <ele>724.988</ele>
        <time>2020-08-29T15:05:43Z</time>
      </trkpt>
      <trkpt lat="39.958338" lon="-.590301">
        <ele>724.624</ele>
        <time>2020-08-29T15:05:44Z</time>
      </trkpt>
      <trkpt lat="39.958317" lon="-.590226">
        <ele>724.426</ele>
        <time>2020-08-29T15:05:45Z</time>
      </trkpt>
      <trkpt lat="39.958303" lon="-.590146">
        <ele>724.008</ele>
        <time>2020-08-29T15:05:46Z</time>
      </trkpt>
      <trkpt lat="39.958282" lon="-.59008">
        <ele>723.723</ele>
        <time>2020-08-29T15:05:47Z</time>
      </trkpt>
      <trkpt lat="39.958266" lon="-.590013">
        <ele>723.473</ele>
        <time>2020-08-29T15:05:48Z</time>
      </trkpt>
      <trkpt lat="39.958245" lon="-.58995">
        <ele>723.445</ele>
        <time>2020-08-29T15:05:49Z</time>
      </trkpt>
      <trkpt lat="39.958224" lon="-.589883">
        <ele>723.447</ele>
        <time>2020-08-29T15:05:50Z</time>
      </trkpt>
      <trkpt lat="39.958204" lon="-.589814">
        <ele>723.445</ele>
        <time>2020-08-29T15:05:51Z</time>
      </trkpt>
      <trkpt lat="39.958179" lon="-.589755">
        <ele>723.262</ele>
        <time>2020-08-29T15:05:52Z</time>
      </trkpt>
      <trkpt lat="39.958161" lon="-.589689">
        <ele>723.220</ele>
        <time>2020-08-29T15:05:53Z</time>
      </trkpt>
      <trkpt lat="39.958138" lon="-.589625">
        <ele>723.230</ele>
        <time>2020-08-29T15:05:54Z</time>
      </trkpt>
      <trkpt lat="39.958117" lon="-.589554">
        <ele>722.968</ele>
        <time>2020-08-29T15:05:55Z</time>
      </trkpt>
      <trkpt lat="39.958092" lon="-.589491">
        <ele>722.942</ele>
        <time>2020-08-29T15:05:56Z</time>
      </trkpt>
      <trkpt lat="39.958067" lon="-.589432">
        <ele>722.926</ele>
        <time>2020-08-29T15:05:57Z</time>
      </trkpt>
      <trkpt lat="39.958045" lon="-.589381">
        <ele>722.908</ele>
        <time>2020-08-29T15:05:58Z</time>
      </trkpt>
      <trkpt lat="39.958001" lon="-.589271">
        <ele>722.471</ele>
        <time>2020-08-29T15:06:00Z</time>
      </trkpt>
      <trkpt lat="39.957975" lon="-.58922">
        <ele>722.361</ele>
        <time>2020-08-29T15:06:01Z</time>
      </trkpt>
      <trkpt lat="39.957943" lon="-.589165">
        <ele>722.173</ele>
        <time>2020-08-29T15:06:02Z</time>
      </trkpt>
      <trkpt lat="39.957914" lon="-.589107">
        <ele>721.925</ele>
        <time>2020-08-29T15:06:03Z</time>
      </trkpt>
      <trkpt lat="39.957897" lon="-.589048">
        <ele>721.583</ele>
        <time>2020-08-29T15:06:04Z</time>
      </trkpt>
      <trkpt lat="39.95787" lon="-.588986">
        <ele>721.430</ele>
        <time>2020-08-29T15:06:05Z</time>
      </trkpt>
      <trkpt lat="39.957842" lon="-.588929">
        <ele>721.118</ele>
        <time>2020-08-29T15:06:06Z</time>
      </trkpt>
      <trkpt lat="39.957812" lon="-.58887">
        <ele>721.048</ele>
        <time>2020-08-29T15:06:07Z</time>
      </trkpt>
      <trkpt lat="39.957784" lon="-.58882">
        <ele>720.967</ele>
        <time>2020-08-29T15:06:08Z</time>
      </trkpt>
      <trkpt lat="39.95776" lon="-.588765">
        <ele>720.981</ele>
        <time>2020-08-29T15:06:09Z</time>
      </trkpt>
      <trkpt lat="39.957713" lon="-.58866">
        <ele>720.919</ele>
        <time>2020-08-29T15:06:11Z</time>
      </trkpt>
      <trkpt lat="39.957677" lon="-.588598">
        <ele>720.808</ele>
        <time>2020-08-29T15:06:12Z</time>
      </trkpt>
      <trkpt lat="39.957642" lon="-.588554">
        <ele>720.761</ele>
        <time>2020-08-29T15:06:13Z</time>
      </trkpt>
      <trkpt lat="39.957594" lon="-.588493">
        <ele>720.441</ele>
        <time>2020-08-29T15:06:14Z</time>
      </trkpt>
      <trkpt lat="39.957543" lon="-.588399">
        <ele>720.263</ele>
        <time>2020-08-29T15:06:15Z</time>
      </trkpt>
      <trkpt lat="39.957496" lon="-.588337">
        <ele>719.775</ele>
        <time>2020-08-29T15:06:16Z</time>
      </trkpt>
      <trkpt lat="39.957456" lon="-.588284">
        <ele>719.623</ele>
        <time>2020-08-29T15:06:17Z</time>
      </trkpt>
      <trkpt lat="39.957412" lon="-.588232">
        <ele>719.620</ele>
        <time>2020-08-29T15:06:18Z</time>
      </trkpt>
      <trkpt lat="39.957371" lon="-.588177">
        <ele>719.388</ele>
        <time>2020-08-29T15:06:19Z</time>
      </trkpt>
      <trkpt lat="39.957321" lon="-.588119">
        <ele>719.328</ele>
        <time>2020-08-29T15:06:20Z</time>
      </trkpt>
      <trkpt lat="39.957277" lon="-.588061">
        <ele>719.366</ele>
        <time>2020-08-29T15:06:21Z</time>
      </trkpt>
      <trkpt lat="39.957233" lon="-.588014">
        <ele>719.229</ele>
        <time>2020-08-29T15:06:22Z</time>
      </trkpt>
      <trkpt lat="39.957189" lon="-.587955">
        <ele>719.021</ele>
        <time>2020-08-29T15:06:23Z</time>
      </trkpt>
      <trkpt lat="39.957142" lon="-.587911">
        <ele>718.808</ele>
        <time>2020-08-29T15:06:24Z</time>
      </trkpt>
      <trkpt lat="39.957094" lon="-.587863">
        <ele>718.341</ele>
        <time>2020-08-29T15:06:25Z</time>
      </trkpt>
      <trkpt lat="39.957047" lon="-.587822">
        <ele>718.351</ele>
        <time>2020-08-29T15:06:26Z</time>
      </trkpt>
      <trkpt lat="39.957005" lon="-.587786">
        <ele>718.393</ele>
        <time>2020-08-29T15:06:27Z</time>
      </trkpt>
      <trkpt lat="39.956964" lon="-.587736">
        <ele>718.365</ele>
        <time>2020-08-29T15:06:28Z</time>
      </trkpt>
      <trkpt lat="39.956926" lon="-.587696">
        <ele>718.313</ele>
        <time>2020-08-29T15:06:29Z</time>
      </trkpt>
      <trkpt lat="39.956882" lon="-.587654">
        <ele>718.360</ele>
        <time>2020-08-29T15:06:30Z</time>
      </trkpt>
      <trkpt lat="39.95684" lon="-.587612">
        <ele>718.188</ele>
        <time>2020-08-29T15:06:31Z</time>
      </trkpt>
      <trkpt lat="39.956769" lon="-.587539">
        <ele>717.858</ele>
        <time>2020-08-29T15:06:33Z</time>
      </trkpt>
      <trkpt lat="39.956721" lon="-.587497">
        <ele>717.641</ele>
        <time>2020-08-29T15:06:34Z</time>
      </trkpt>
      <trkpt lat="39.956682" lon="-.587461">
        <ele>717.581</ele>
        <time>2020-08-29T15:06:35Z</time>
      </trkpt>
      <trkpt lat="39.95664" lon="-.587415">
        <ele>717.409</ele>
        <time>2020-08-29T15:06:36Z</time>
      </trkpt>
      <trkpt lat="39.956603" lon="-.58738">
        <ele>717.208</ele>
        <time>2020-08-29T15:06:37Z</time>
      </trkpt>
      <trkpt lat="39.956542" lon="-.587327">
        <ele>716.789</ele>
        <time>2020-08-29T15:06:39Z</time>
      </trkpt>
      <trkpt lat="39.956485" lon="-.587277">
        <ele>716.659</ele>
        <time>2020-08-29T15:06:40Z</time>
      </trkpt>
      <trkpt lat="39.95644" lon="-.587245">
        <ele>716.541</ele>
        <time>2020-08-29T15:06:41Z</time>
      </trkpt>
      <trkpt lat="39.956359" lon="-.587227">
        <ele>716.793</ele>
        <time>2020-08-29T15:06:43Z</time>
      </trkpt>
      <trkpt lat="39.956304" lon="-.587195">
        <ele>716.721</ele>
        <time>2020-08-29T15:06:44Z</time>
      </trkpt>
      <trkpt lat="39.956255" lon="-.587167">
        <ele>716.678</ele>
        <time>2020-08-29T15:06:45Z</time>
      </trkpt>
      <trkpt lat="39.956163" lon="-.587114">
        <ele>716.316</ele>
        <time>2020-08-29T15:06:47Z</time>
      </trkpt>
      <trkpt lat="39.9561" lon="-.587074">
        <ele>716.046</ele>
        <time>2020-08-29T15:06:48Z</time>
      </trkpt>
      <trkpt lat="39.956037" lon="-.587044">
        <ele>715.888</ele>
        <time>2020-08-29T15:06:49Z</time>
      </trkpt>
      <trkpt lat="39.955973" lon="-.587015">
        <ele>715.424</ele>
        <time>2020-08-29T15:06:50Z</time>
      </trkpt>
      <trkpt lat="39.955916" lon="-.586985">
        <ele>715.126</ele>
        <time>2020-08-29T15:06:51Z</time>
      </trkpt>
      <trkpt lat="39.955862" lon="-.586959">
        <ele>715.108</ele>
        <time>2020-08-29T15:06:52Z</time>
      </trkpt>
      <trkpt lat="39.955787" lon="-.586942">
        <ele>715.193</ele>
        <time>2020-08-29T15:06:53Z</time>
      </trkpt>
      <trkpt lat="39.955728" lon="-.586921">
        <ele>715.163</ele>
        <time>2020-08-29T15:06:54Z</time>
      </trkpt>
      <trkpt lat="39.955674" lon="-.586915">
        <ele>715.175</ele>
        <time>2020-08-29T15:06:55Z</time>
      </trkpt>
      <trkpt lat="39.955607" lon="-.586925">
        <ele>715.187</ele>
        <time>2020-08-29T15:06:56Z</time>
      </trkpt>
      <trkpt lat="39.95555" lon="-.586913">
        <ele>715.035</ele>
        <time>2020-08-29T15:06:57Z</time>
      </trkpt>
      <trkpt lat="39.95549" lon="-.5869">
        <ele>714.592</ele>
        <time>2020-08-29T15:06:58Z</time>
      </trkpt>
      <trkpt lat="39.95543" lon="-.586885">
        <ele>714.380</ele>
        <time>2020-08-29T15:06:59Z</time>
      </trkpt>
      <trkpt lat="39.955363" lon="-.586875">
        <ele>714.360</ele>
        <time>2020-08-29T15:07:00Z</time>
      </trkpt>
      <trkpt lat="39.955288" lon="-.58687">
        <ele>714.282</ele>
        <time>2020-08-29T15:07:01Z</time>
      </trkpt>
      <trkpt lat="39.955211" lon="-.58687">
        <ele>714.243</ele>
        <time>2020-08-29T15:07:02Z</time>
      </trkpt>
      <trkpt lat="39.955143" lon="-.586874">
        <ele>714.017</ele>
        <time>2020-08-29T15:07:03Z</time>
      </trkpt>
      <trkpt lat="39.955078" lon="-.586865">
        <ele>713.808</ele>
        <time>2020-08-29T15:07:04Z</time>
      </trkpt>
      <trkpt lat="39.955009" lon="-.586861">
        <ele>713.853</ele>
        <time>2020-08-29T15:07:05Z</time>
      </trkpt>
      <trkpt lat="39.954943" lon="-.586862">
        <ele>713.733</ele>
        <time>2020-08-29T15:07:06Z</time>
      </trkpt>
      <trkpt lat="39.954886" lon="-.586863">
        <ele>713.465</ele>
        <time>2020-08-29T15:07:07Z</time>
      </trkpt>
      <trkpt lat="39.954826" lon="-.586866">
        <ele>713.497</ele>
        <time>2020-08-29T15:07:08Z</time>
      </trkpt>
      <trkpt lat="39.954761" lon="-.586871">
        <ele>713.475</ele>
        <time>2020-08-29T15:07:09Z</time>
      </trkpt>
      <trkpt lat="39.954706" lon="-.586872">
        <ele>713.272</ele>
        <time>2020-08-29T15:07:10Z</time>
      </trkpt>
      <trkpt lat="39.954647" lon="-.586872">
        <ele>713.270</ele>
        <time>2020-08-29T15:07:11Z</time>
      </trkpt>
      <trkpt lat="39.954577" lon="-.586861">
        <ele>713.270</ele>
        <time>2020-08-29T15:07:12Z</time>
      </trkpt>
      <trkpt lat="39.954521" lon="-.586866">
        <ele>712.692</ele>
        <time>2020-08-29T15:07:13Z</time>
      </trkpt>
      <trkpt lat="39.954462" lon="-.586875">
        <ele>712.473</ele>
        <time>2020-08-29T15:07:14Z</time>
      </trkpt>
      <trkpt lat="39.954414" lon="-.586881">
        <ele>712.420</ele>
        <time>2020-08-29T15:07:15Z</time>
      </trkpt>
      <trkpt lat="39.954359" lon="-.586895">
        <ele>712.108</ele>
        <time>2020-08-29T15:07:16Z</time>
      </trkpt>
      <trkpt lat="39.954307" lon="-.586906">
        <ele>712.014</ele>
        <time>2020-08-29T15:07:17Z</time>
      </trkpt>
      <trkpt lat="39.954251" lon="-.586906">
        <ele>712.014</ele>
        <time>2020-08-29T15:07:18Z</time>
      </trkpt>
      <trkpt lat="39.954187" lon="-.586916">
        <ele>711.816</ele>
        <time>2020-08-29T15:07:19Z</time>
      </trkpt>
      <trkpt lat="39.954122" lon="-.586934">
        <ele>711.328</ele>
        <time>2020-08-29T15:07:20Z</time>
      </trkpt>
      <trkpt lat="39.954054" lon="-.586943">
        <ele>711.216</ele>
        <time>2020-08-29T15:07:21Z</time>
      </trkpt>
      <trkpt lat="39.953988" lon="-.586961">
        <ele>711.113</ele>
        <time>2020-08-29T15:07:22Z</time>
      </trkpt>
      <trkpt lat="39.953925" lon="-.586975">
        <ele>711.031</ele>
        <time>2020-08-29T15:07:23Z</time>
      </trkpt>
      <trkpt lat="39.953856" lon="-.586978">
        <ele>710.981</ele>
        <time>2020-08-29T15:07:24Z</time>
      </trkpt>
      <trkpt lat="39.95379" lon="-.58699">
        <ele>710.859</ele>
        <time>2020-08-29T15:07:25Z</time>
      </trkpt>
      <trkpt lat="39.953729" lon="-.587006">
        <ele>710.803</ele>
        <time>2020-08-29T15:07:26Z</time>
      </trkpt>
      <trkpt lat="39.953667" lon="-.587017">
        <ele>710.723</ele>
        <time>2020-08-29T15:07:27Z</time>
      </trkpt>
      <trkpt lat="39.953603" lon="-.587027">
        <ele>710.408</ele>
        <time>2020-08-29T15:07:28Z</time>
      </trkpt>
      <trkpt lat="39.953547" lon="-.587035">
        <ele>710.350</ele>
        <time>2020-08-29T15:07:29Z</time>
      </trkpt>
      <trkpt lat="39.953489" lon="-.587044">
        <ele>710.270</ele>
        <time>2020-08-29T15:07:30Z</time>
      </trkpt>
      <trkpt lat="39.953433" lon="-.587058">
        <ele>710.142</ele>
        <time>2020-08-29T15:07:31Z</time>
      </trkpt>
      <trkpt lat="39.953381" lon="-.587068">
        <ele>710.084</ele>
        <time>2020-08-29T15:07:32Z</time>
      </trkpt>
      <trkpt lat="39.953327" lon="-.587079">
        <ele>709.952</ele>
        <time>2020-08-29T15:07:33Z</time>
      </trkpt>
      <trkpt lat="39.95327" lon="-.587086">
        <ele>709.779</ele>
        <time>2020-08-29T15:07:34Z</time>
      </trkpt>
      <trkpt lat="39.953208" lon="-.587102">
        <ele>709.657</ele>
        <time>2020-08-29T15:07:35Z</time>
      </trkpt>
      <trkpt lat="39.95316" lon="-.587115">
        <ele>709.327</ele>
        <time>2020-08-29T15:07:36Z</time>
      </trkpt>
      <trkpt lat="39.953103" lon="-.587126">
        <ele>709.212</ele>
        <time>2020-08-29T15:07:37Z</time>
      </trkpt>
      <trkpt lat="39.95305" lon="-.587136">
        <ele>709.132</ele>
        <time>2020-08-29T15:07:38Z</time>
      </trkpt>
      <trkpt lat="39.952985" lon="-.58716">
        <ele>709.005</ele>
        <time>2020-08-29T15:07:39Z</time>
      </trkpt>
      <trkpt lat="39.952918" lon="-.587169">
        <ele>708.908</ele>
        <time>2020-08-29T15:07:40Z</time>
      </trkpt>
      <trkpt lat="39.952862" lon="-.587181">
        <ele>708.766</ele>
        <time>2020-08-29T15:07:41Z</time>
      </trkpt>
      <trkpt lat="39.952803" lon="-.587197">
        <ele>708.626</ele>
        <time>2020-08-29T15:07:42Z</time>
      </trkpt>
      <trkpt lat="39.952746" lon="-.587216">
        <ele>708.488</ele>
        <time>2020-08-29T15:07:43Z</time>
      </trkpt>
      <trkpt lat="39.952692" lon="-.587228">
        <ele>708.220</ele>
        <time>2020-08-29T15:07:44Z</time>
      </trkpt>
      <trkpt lat="39.952631" lon="-.587241">
        <ele>708.068</ele>
        <time>2020-08-29T15:07:45Z</time>
      </trkpt>
      <trkpt lat="39.952577" lon="-.587255">
        <ele>707.865</ele>
        <time>2020-08-29T15:07:46Z</time>
      </trkpt>
      <trkpt lat="39.952525" lon="-.587268">
        <ele>707.663</ele>
        <time>2020-08-29T15:07:47Z</time>
      </trkpt>
      <trkpt lat="39.952463" lon="-.587284">
        <ele>707.483</ele>
        <time>2020-08-29T15:07:48Z</time>
      </trkpt>
      <trkpt lat="39.952403" lon="-.587303">
        <ele>707.316</ele>
        <time>2020-08-29T15:07:49Z</time>
      </trkpt>
      <trkpt lat="39.952344" lon="-.587312">
        <ele>707.276</ele>
        <time>2020-08-29T15:07:50Z</time>
      </trkpt>
      <trkpt lat="39.952289" lon="-.587306">
        <ele>707.113</ele>
        <time>2020-08-29T15:07:51Z</time>
      </trkpt>
      <trkpt lat="39.952236" lon="-.587312">
        <ele>706.908</ele>
        <time>2020-08-29T15:07:52Z</time>
      </trkpt>
      <trkpt lat="39.952178" lon="-.587328">
        <ele>706.876</ele>
        <time>2020-08-29T15:07:53Z</time>
      </trkpt>
      <trkpt lat="39.952126" lon="-.587331">
        <ele>706.646</ele>
        <time>2020-08-29T15:07:54Z</time>
      </trkpt>
      <trkpt lat="39.952074" lon="-.587338">
        <ele>706.568</ele>
        <time>2020-08-29T15:07:55Z</time>
      </trkpt>
      <trkpt lat="39.952028" lon="-.587344">
        <ele>706.340</ele>
        <time>2020-08-29T15:07:56Z</time>
      </trkpt>
      <trkpt lat="39.951976" lon="-.58735">
        <ele>706.288</ele>
        <time>2020-08-29T15:07:57Z</time>
      </trkpt>
      <trkpt lat="39.951921" lon="-.587358">
        <ele>706.125</ele>
        <time>2020-08-29T15:07:58Z</time>
      </trkpt>
      <trkpt lat="39.951865" lon="-.587368">
        <ele>705.993</ele>
        <time>2020-08-29T15:07:59Z</time>
      </trkpt>
      <trkpt lat="39.951809" lon="-.58738">
        <ele>705.733</ele>
        <time>2020-08-29T15:08:00Z</time>
      </trkpt>
      <trkpt lat="39.951755" lon="-.587396">
        <ele>705.614</ele>
        <time>2020-08-29T15:08:01Z</time>
      </trkpt>
      <trkpt lat="39.951709" lon="-.587411">
        <ele>705.554</ele>
        <time>2020-08-29T15:08:02Z</time>
      </trkpt>
      <trkpt lat="39.95165" lon="-.587428">
        <ele>705.309</ele>
        <time>2020-08-29T15:08:03Z</time>
      </trkpt>
      <trkpt lat="39.95159" lon="-.587442">
        <ele>705.208</ele>
        <time>2020-08-29T15:08:04Z</time>
      </trkpt>
      <trkpt lat="39.951539" lon="-.587462">
        <ele>705.226</ele>
        <time>2020-08-29T15:08:05Z</time>
      </trkpt>
      <trkpt lat="39.951491" lon="-.587473">
        <ele>705.086</ele>
        <time>2020-08-29T15:08:06Z</time>
      </trkpt>
      <trkpt lat="39.951439" lon="-.587478">
        <ele>704.828</ele>
        <time>2020-08-29T15:08:07Z</time>
      </trkpt>
      <trkpt lat="39.95139" lon="-.587486">
        <ele>704.890</ele>
        <time>2020-08-29T15:08:08Z</time>
      </trkpt>
      <trkpt lat="39.951337" lon="-.58751">
        <ele>704.878</ele>
        <time>2020-08-29T15:08:09Z</time>
      </trkpt>
      <trkpt lat="39.951258" lon="-.587521">
        <ele>704.635</ele>
        <time>2020-08-29T15:08:10Z</time>
      </trkpt>
      <trkpt lat="39.951183" lon="-.587543">
        <ele>704.633</ele>
        <time>2020-08-29T15:08:11Z</time>
      </trkpt>
      <trkpt lat="39.951094" lon="-.587566">
        <ele>704.663</ele>
        <time>2020-08-29T15:08:12Z</time>
      </trkpt>
      <trkpt lat="39.951023" lon="-.58758">
        <ele>704.146</ele>
        <time>2020-08-29T15:08:13Z</time>
      </trkpt>
      <trkpt lat="39.95096" lon="-.587589">
        <ele>703.988</ele>
        <time>2020-08-29T15:08:14Z</time>
      </trkpt>
      <trkpt lat="39.950892" lon="-.587611">
        <ele>703.516</ele>
        <time>2020-08-29T15:08:15Z</time>
      </trkpt>
      <trkpt lat="39.950837" lon="-.587611">
        <ele>703.308</ele>
        <time>2020-08-29T15:08:16Z</time>
      </trkpt>
      <trkpt lat="39.950772" lon="-.587639">
        <ele>703.289</ele>
        <time>2020-08-29T15:08:17Z</time>
      </trkpt>
      <trkpt lat="39.950714" lon="-.587651">
        <ele>703.289</ele>
        <time>2020-08-29T15:08:18Z</time>
      </trkpt>
      <trkpt lat="39.950647" lon="-.587665">
        <ele>703.191</ele>
        <time>2020-08-29T15:08:19Z</time>
      </trkpt>
      <trkpt lat="39.950586" lon="-.587675">
        <ele>702.913</ele>
        <time>2020-08-29T15:08:20Z</time>
      </trkpt>
      <trkpt lat="39.950539" lon="-.58769">
        <ele>702.781</ele>
        <time>2020-08-29T15:08:21Z</time>
      </trkpt>
      <trkpt lat="39.950474" lon="-.587709">
        <ele>702.648</ele>
        <time>2020-08-29T15:08:22Z</time>
      </trkpt>
      <trkpt lat="39.950414" lon="-.587721">
        <ele>702.476</ele>
        <time>2020-08-29T15:08:23Z</time>
      </trkpt>
      <trkpt lat="39.950352" lon="-.587728">
        <ele>702.356</ele>
        <time>2020-08-29T15:08:24Z</time>
      </trkpt>
      <trkpt lat="39.950302" lon="-.587713">
        <ele>702.214</ele>
        <time>2020-08-29T15:08:25Z</time>
      </trkpt>
      <trkpt lat="39.950245" lon="-.587709">
        <ele>702.154</ele>
        <time>2020-08-29T15:08:26Z</time>
      </trkpt>
      <trkpt lat="39.95019" lon="-.587707">
        <ele>702.009</ele>
        <time>2020-08-29T15:08:27Z</time>
      </trkpt>
      <trkpt lat="39.950128" lon="-.587703">
        <ele>701.908</ele>
        <time>2020-08-29T15:08:28Z</time>
      </trkpt>
      <trkpt lat="39.950073" lon="-.587691">
        <ele>701.866</ele>
        <time>2020-08-29T15:08:29Z</time>
      </trkpt>
      <trkpt lat="39.95002" lon="-.587675">
        <ele>701.776</ele>
        <time>2020-08-29T15:08:30Z</time>
      </trkpt>
      <trkpt lat="39.949966" lon="-.587662">
        <ele>701.338</ele>
        <time>2020-08-29T15:08:31Z</time>
      </trkpt>
      <trkpt lat="39.949918" lon="-.587647">
        <ele>701.150</ele>
        <time>2020-08-29T15:08:32Z</time>
      </trkpt>
      <trkpt lat="39.949863" lon="-.58763">
        <ele>700.938</ele>
        <time>2020-08-29T15:08:33Z</time>
      </trkpt>
      <trkpt lat="39.949811" lon="-.587606">
        <ele>700.775</ele>
        <time>2020-08-29T15:08:34Z</time>
      </trkpt>
      <trkpt lat="39.949757" lon="-.587588">
        <ele>700.633</ele>
        <time>2020-08-29T15:08:35Z</time>
      </trkpt>
      <trkpt lat="39.949704" lon="-.58757">
        <ele>700.483</ele>
        <time>2020-08-29T15:08:36Z</time>
      </trkpt>
      <trkpt lat="39.949655" lon="-.587544">
        <ele>700.359</ele>
        <time>2020-08-29T15:08:37Z</time>
      </trkpt>
      <trkpt lat="39.949604" lon="-.587529">
        <ele>700.103</ele>
        <time>2020-08-29T15:08:38Z</time>
      </trkpt>
      <trkpt lat="39.949547" lon="-.587504">
        <ele>700.023</ele>
        <time>2020-08-29T15:08:39Z</time>
      </trkpt>
      <trkpt lat="39.949491" lon="-.587481">
        <ele>700.008</ele>
        <time>2020-08-29T15:08:40Z</time>
      </trkpt>
      <trkpt lat="39.949447" lon="-.587454">
        <ele>699.960</ele>
        <time>2020-08-29T15:08:41Z</time>
      </trkpt>
      <trkpt lat="39.949398" lon="-.587421">
        <ele>699.870</ele>
        <time>2020-08-29T15:08:42Z</time>
      </trkpt>
      <trkpt lat="39.949348" lon="-.587386">
        <ele>699.712</ele>
        <time>2020-08-29T15:08:43Z</time>
      </trkpt>
      <trkpt lat="39.949304" lon="-.587344">
        <ele>699.774</ele>
        <time>2020-08-29T15:08:44Z</time>
      </trkpt>
      <trkpt lat="39.949257" lon="-.587299">
        <ele>699.612</ele>
        <time>2020-08-29T15:08:45Z</time>
      </trkpt>
      <trkpt lat="39.949186" lon="-.58723">
        <ele>699.459</ele>
        <time>2020-08-29T15:08:47Z</time>
      </trkpt>
      <trkpt lat="39.949151" lon="-.58719">
        <ele>699.337</ele>
        <time>2020-08-29T15:08:48Z</time>
      </trkpt>
      <trkpt lat="39.949075" lon="-.587114">
        <ele>698.777</ele>
        <time>2020-08-29T15:08:50Z</time>
      </trkpt>
      <trkpt lat="39.949045" lon="-.587071">
        <ele>698.574</ele>
        <time>2020-08-29T15:08:51Z</time>
      </trkpt>
      <trkpt lat="39.94901" lon="-.587028">
        <ele>698.356</ele>
        <time>2020-08-29T15:08:52Z</time>
      </trkpt>
      <trkpt lat="39.948975" lon="-.586984">
        <ele>698.321</ele>
        <time>2020-08-29T15:08:53Z</time>
      </trkpt>
      <trkpt lat="39.948939" lon="-.586939">
        <ele>698.108</ele>
        <time>2020-08-29T15:08:54Z</time>
      </trkpt>
      <trkpt lat="39.94891" lon="-.586887">
        <ele>698.162</ele>
        <time>2020-08-29T15:08:55Z</time>
      </trkpt>
      <trkpt lat="39.948876" lon="-.586834">
        <ele>698.182</ele>
        <time>2020-08-29T15:08:56Z</time>
      </trkpt>
      <trkpt lat="39.948821" lon="-.586742">
        <ele>697.774</ele>
        <time>2020-08-29T15:08:58Z</time>
      </trkpt>
      <trkpt lat="39.948789" lon="-.586697">
        <ele>697.526</ele>
        <time>2020-08-29T15:08:59Z</time>
      </trkpt>
      <trkpt lat="39.948753" lon="-.58665">
        <ele>697.334</ele>
        <time>2020-08-29T15:09:00Z</time>
      </trkpt>
      <trkpt lat="39.948731" lon="-.586597">
        <ele>697.131</ele>
        <time>2020-08-29T15:09:01Z</time>
      </trkpt>
      <trkpt lat="39.948712" lon="-.58654">
        <ele>696.919</ele>
        <time>2020-08-29T15:09:02Z</time>
      </trkpt>
      <trkpt lat="39.94868" lon="-.586476">
        <ele>696.899</ele>
        <time>2020-08-29T15:09:03Z</time>
      </trkpt>
      <trkpt lat="39.948633" lon="-.58637">
        <ele>696.821</ele>
        <time>2020-08-29T15:09:05Z</time>
      </trkpt>
      <trkpt lat="39.948614" lon="-.586314">
        <ele>696.841</ele>
        <time>2020-08-29T15:09:06Z</time>
      </trkpt>
      <trkpt lat="39.948591" lon="-.586249">
        <ele>696.905</ele>
        <time>2020-08-29T15:09:07Z</time>
      </trkpt>
      <trkpt lat="39.948578" lon="-.586192">
        <ele>696.908</ele>
        <time>2020-08-29T15:09:08Z</time>
      </trkpt>
      <trkpt lat="39.948547" lon="-.586091">
        <ele>696.767</ele>
        <time>2020-08-29T15:09:10Z</time>
      </trkpt>
      <trkpt lat="39.948531" lon="-.586032">
        <ele>696.577</ele>
        <time>2020-08-29T15:09:11Z</time>
      </trkpt>
      <trkpt lat="39.948501" lon="-.585926">
        <ele>696.389</ele>
        <time>2020-08-29T15:09:13Z</time>
      </trkpt>
      <trkpt lat="39.948496" lon="-.585867">
        <ele>696.241</ele>
        <time>2020-08-29T15:09:14Z</time>
      </trkpt>
      <trkpt lat="39.948478" lon="-.585792">
        <ele>696.059</ele>
        <time>2020-08-29T15:09:15Z</time>
      </trkpt>
      <trkpt lat="39.948476" lon="-.585733">
        <ele>696.086</ele>
        <time>2020-08-29T15:09:16Z</time>
      </trkpt>
      <trkpt lat="39.948472" lon="-.585658">
        <ele>695.974</ele>
        <time>2020-08-29T15:09:17Z</time>
      </trkpt>
      <trkpt lat="39.948461" lon="-.585596">
        <ele>695.724</ele>
        <time>2020-08-29T15:09:18Z</time>
      </trkpt>
      <trkpt lat="39.948462" lon="-.585485">
        <ele>695.614</ele>
        <time>2020-08-29T15:09:20Z</time>
      </trkpt>
      <trkpt lat="39.948468" lon="-.585395">
        <ele>695.354</ele>
        <time>2020-08-29T15:09:22Z</time>
      </trkpt>
      <trkpt lat="39.948478" lon="-.585265">
        <ele>695.009</ele>
        <time>2020-08-29T15:09:24Z</time>
      </trkpt>
      <trkpt lat="39.948471" lon="-.585187">
        <ele>694.808</ele>
        <time>2020-08-29T15:09:25Z</time>
      </trkpt>
      <trkpt lat="39.948465" lon="-.585128">
        <ele>694.726</ele>
        <time>2020-08-29T15:09:26Z</time>
      </trkpt>
      <trkpt lat="39.94848" lon="-.585021">
        <ele>694.416</ele>
        <time>2020-08-29T15:09:28Z</time>
      </trkpt>
      <trkpt lat="39.948483" lon="-.584946">
        <ele>694.328</ele>
        <time>2020-08-29T15:09:29Z</time>
      </trkpt>
      <trkpt lat="39.94849" lon="-.58488">
        <ele>694.230</ele>
        <time>2020-08-29T15:09:30Z</time>
      </trkpt>
      <trkpt lat="39.948497" lon="-.584803">
        <ele>694.148</ele>
        <time>2020-08-29T15:09:31Z</time>
      </trkpt>
      <trkpt lat="39.948511" lon="-.584736">
        <ele>694.045</ele>
        <time>2020-08-29T15:09:32Z</time>
      </trkpt>
      <trkpt lat="39.948522" lon="-.584676">
        <ele>693.833</ele>
        <time>2020-08-29T15:09:33Z</time>
      </trkpt>
      <trkpt lat="39.948537" lon="-.584619">
        <ele>693.713</ele>
        <time>2020-08-29T15:09:34Z</time>
      </trkpt>
      <trkpt lat="39.948556" lon="-.58455">
        <ele>693.693</ele>
        <time>2020-08-29T15:09:35Z</time>
      </trkpt>
      <trkpt lat="39.948566" lon="-.584475">
        <ele>693.465</ele>
        <time>2020-08-29T15:09:36Z</time>
      </trkpt>
      <trkpt lat="39.948582" lon="-.584402">
        <ele>693.321</ele>
        <time>2020-08-29T15:09:37Z</time>
      </trkpt>
      <trkpt lat="39.948602" lon="-.584339">
        <ele>693.208</ele>
        <time>2020-08-29T15:09:38Z</time>
      </trkpt>
      <trkpt lat="39.94864" lon="-.584232">
        <ele>692.964</ele>
        <time>2020-08-29T15:09:40Z</time>
      </trkpt>
      <trkpt lat="39.948665" lon="-.584149">
        <ele>692.994</ele>
        <time>2020-08-29T15:09:41Z</time>
      </trkpt>
      <trkpt lat="39.948691" lon="-.584091">
        <ele>692.796</ele>
        <time>2020-08-29T15:09:42Z</time>
      </trkpt>
      <trkpt lat="39.948714" lon="-.584027">
        <ele>692.698</ele>
        <time>2020-08-29T15:09:43Z</time>
      </trkpt>
      <trkpt lat="39.948737" lon="-.583974">
        <ele>692.586</ele>
        <time>2020-08-29T15:09:44Z</time>
      </trkpt>
      <trkpt lat="39.948755" lon="-.583906">
        <ele>692.453</ele>
        <time>2020-08-29T15:09:45Z</time>
      </trkpt>
      <trkpt lat="39.948782" lon="-.583851">
        <ele>692.241</ele>
        <time>2020-08-29T15:09:46Z</time>
      </trkpt>
      <trkpt lat="39.948815" lon="-.583784">
        <ele>692.111</ele>
        <time>2020-08-29T15:09:47Z</time>
      </trkpt>
      <trkpt lat="39.948837" lon="-.58373">
        <ele>691.744</ele>
        <time>2020-08-29T15:09:48Z</time>
      </trkpt>
      <trkpt lat="39.94889" lon="-.583626">
        <ele>692.005</ele>
        <time>2020-08-29T15:09:50Z</time>
      </trkpt>
      <trkpt lat="39.948912" lon="-.583567">
        <ele>692.015</ele>
        <time>2020-08-29T15:09:51Z</time>
      </trkpt>
      <trkpt lat="39.948935" lon="-.583505">
        <ele>692.008</ele>
        <time>2020-08-29T15:09:52Z</time>
      </trkpt>
      <trkpt lat="39.94899" lon="-.58341">
        <ele>692.099</ele>
        <time>2020-08-29T15:09:54Z</time>
      </trkpt>
      <trkpt lat="39.949017" lon="-.583348">
        <ele>691.999</ele>
        <time>2020-08-29T15:09:55Z</time>
      </trkpt>
      <trkpt lat="39.949046" lon="-.58329">
        <ele>691.831</ele>
        <time>2020-08-29T15:09:56Z</time>
      </trkpt>
      <trkpt lat="39.949072" lon="-.583236">
        <ele>691.783</ele>
        <time>2020-08-29T15:09:57Z</time>
      </trkpt>
      <trkpt lat="39.949102" lon="-.583156">
        <ele>691.521</ele>
        <time>2020-08-29T15:09:58Z</time>
      </trkpt>
      <trkpt lat="39.949128" lon="-.583095">
        <ele>691.578</ele>
        <time>2020-08-29T15:09:59Z</time>
      </trkpt>
      <trkpt lat="39.94916" lon="-.58304">
        <ele>691.376</ele>
        <time>2020-08-29T15:10:00Z</time>
      </trkpt>
      <trkpt lat="39.949187" lon="-.582988">
        <ele>691.356</ele>
        <time>2020-08-29T15:10:01Z</time>
      </trkpt>
      <trkpt lat="39.949212" lon="-.582918">
        <ele>691.513</ele>
        <time>2020-08-29T15:10:02Z</time>
      </trkpt>
      <trkpt lat="39.94924" lon="-.582867">
        <ele>691.843</ele>
        <time>2020-08-29T15:10:03Z</time>
      </trkpt>
      <trkpt lat="39.94927" lon="-.58281">
        <ele>691.807</ele>
        <time>2020-08-29T15:10:04Z</time>
      </trkpt>
      <trkpt lat="39.949306" lon="-.582756">
        <ele>691.508</ele>
        <time>2020-08-29T15:10:05Z</time>
      </trkpt>
      <trkpt lat="39.949341" lon="-.582715">
        <ele>691.446</ele>
        <time>2020-08-29T15:10:06Z</time>
      </trkpt>
      <trkpt lat="39.949363" lon="-.58264">
        <ele>691.416</ele>
        <time>2020-08-29T15:10:08Z</time>
      </trkpt>
      <trkpt lat="39.949405" lon="-.582547">
        <ele>691.398</ele>
        <time>2020-08-29T15:10:10Z</time>
      </trkpt>
      <trkpt lat="39.949446" lon="-.582477">
        <ele>691.150</ele>
        <time>2020-08-29T15:10:11Z</time>
      </trkpt>
      <trkpt lat="39.949473" lon="-.582421">
        <ele>691.168</ele>
        <time>2020-08-29T15:10:12Z</time>
      </trkpt>
      <trkpt lat="39.949499" lon="-.582365">
        <ele>691.275</ele>
        <time>2020-08-29T15:10:13Z</time>
      </trkpt>
      <trkpt lat="39.949549" lon="-.582282">
        <ele>691.243</ele>
        <time>2020-08-29T15:10:15Z</time>
      </trkpt>
      <trkpt lat="39.949609" lon="-.582172">
        <ele>690.633</ele>
        <time>2020-08-29T15:10:17Z</time>
      </trkpt>
      <trkpt lat="39.949641" lon="-.582118">
        <ele>690.635</ele>
        <time>2020-08-29T15:10:18Z</time>
      </trkpt>
      <trkpt lat="39.94968" lon="-.58206">
        <ele>690.686</ele>
        <time>2020-08-29T15:10:19Z</time>
      </trkpt>
      <trkpt lat="39.94971" lon="-.58201">
        <ele>690.614</ele>
        <time>2020-08-29T15:10:20Z</time>
      </trkpt>
      <trkpt lat="39.949736" lon="-.581939">
        <ele>690.808</ele>
        <time>2020-08-29T15:10:21Z</time>
      </trkpt>
      <trkpt lat="39.949769" lon="-.581872">
        <ele>691.078</ele>
        <time>2020-08-29T15:10:22Z</time>
      </trkpt>
      <trkpt lat="39.949792" lon="-.581814">
        <ele>691.198</ele>
        <time>2020-08-29T15:10:23Z</time>
      </trkpt>
      <trkpt lat="39.949847" lon="-.581724">
        <ele>692.070</ele>
        <time>2020-08-29T15:10:25Z</time>
      </trkpt>
      <trkpt lat="39.949881" lon="-.58166">
        <ele>691.832</ele>
        <time>2020-08-29T15:10:26Z</time>
      </trkpt>
      <trkpt lat="39.94991" lon="-.581598">
        <ele>691.720</ele>
        <time>2020-08-29T15:10:27Z</time>
      </trkpt>
      <trkpt lat="39.949929" lon="-.581542">
        <ele>691.627</ele>
        <time>2020-08-29T15:10:28Z</time>
      </trkpt>
      <trkpt lat="39.949983" lon="-.581454">
        <ele>691.185</ele>
        <time>2020-08-29T15:10:30Z</time>
      </trkpt>
      <trkpt lat="39.950016" lon="-.58141">
        <ele>691.115</ele>
        <time>2020-08-29T15:10:31Z</time>
      </trkpt>
      <trkpt lat="39.950041" lon="-.581359">
        <ele>691.135</ele>
        <time>2020-08-29T15:10:32Z</time>
      </trkpt>
      <trkpt lat="39.950074" lon="-.581314">
        <ele>691.286</ele>
        <time>2020-08-29T15:10:33Z</time>
      </trkpt>
      <trkpt lat="39.95012" lon="-.581201">
        <ele>691.314</ele>
        <time>2020-08-29T15:10:35Z</time>
      </trkpt>
      <trkpt lat="39.950148" lon="-.58113">
        <ele>691.508</ele>
        <time>2020-08-29T15:10:36Z</time>
      </trkpt>
      <trkpt lat="39.9502" lon="-.581012">
        <ele>691.558</ele>
        <time>2020-08-29T15:10:38Z</time>
      </trkpt>
      <trkpt lat="39.950233" lon="-.580947">
        <ele>691.038</ele>
        <time>2020-08-29T15:10:39Z</time>
      </trkpt>
      <trkpt lat="39.950261" lon="-.580887">
        <ele>690.640</ele>
        <time>2020-08-29T15:10:40Z</time>
      </trkpt>
      <trkpt lat="39.95032" lon="-.580779">
        <ele>690.672</ele>
        <time>2020-08-29T15:10:42Z</time>
      </trkpt>
      <trkpt lat="39.950354" lon="-.58072">
        <ele>690.640</ele>
        <time>2020-08-29T15:10:43Z</time>
      </trkpt>
      <trkpt lat="39.95039" lon="-.580666">
        <ele>690.627</ele>
        <time>2020-08-29T15:10:44Z</time>
      </trkpt>
      <trkpt lat="39.950423" lon="-.580614">
        <ele>690.645</ele>
        <time>2020-08-29T15:10:45Z</time>
      </trkpt>
      <trkpt lat="39.950446" lon="-.580554">
        <ele>690.375</ele>
        <time>2020-08-29T15:10:46Z</time>
      </trkpt>
      <trkpt lat="39.950468" lon="-.580484">
        <ele>690.314</ele>
        <time>2020-08-29T15:10:47Z</time>
      </trkpt>
      <trkpt lat="39.950492" lon="-.580429">
        <ele>690.354</ele>
        <time>2020-08-29T15:10:48Z</time>
      </trkpt>
      <trkpt lat="39.950522" lon="-.580371">
        <ele>690.209</ele>
        <time>2020-08-29T15:10:49Z</time>
      </trkpt>
      <trkpt lat="39.95057" lon="-.580294">
        <ele>690.008</ele>
        <time>2020-08-29T15:10:51Z</time>
      </trkpt>
      <trkpt lat="39.950618" lon="-.580221">
        <ele>689.636</ele>
        <time>2020-08-29T15:10:53Z</time>
      </trkpt>
      <trkpt lat="39.950658" lon="-.580144">
        <ele>689.476</ele>
        <time>2020-08-29T15:10:55Z</time>
      </trkpt>
      <trkpt lat="39.950708" lon="-.580067">
        <ele>689.028</ele>
        <time>2020-08-29T15:10:57Z</time>
      </trkpt>
      <trkpt lat="39.950742" lon="-.579972">
        <ele>688.740</ele>
        <time>2020-08-29T15:10:59Z</time>
      </trkpt>
      <trkpt lat="39.950767" lon="-.579905">
        <ele>688.528</ele>
        <time>2020-08-29T15:11:00Z</time>
      </trkpt>
      <trkpt lat="39.950788" lon="-.57984">
        <ele>688.135</ele>
        <time>2020-08-29T15:11:01Z</time>
      </trkpt>
      <trkpt lat="39.95081" lon="-.579731">
        <ele>688.173</ele>
        <time>2020-08-29T15:11:02Z</time>
      </trkpt>
      <trkpt lat="39.950837" lon="-.579608">
        <ele>688.153</ele>
        <time>2020-08-29T15:11:03Z</time>
      </trkpt>
      <trkpt lat="39.950856" lon="-.579526">
        <ele>687.837</ele>
        <time>2020-08-29T15:11:04Z</time>
      </trkpt>
      <trkpt lat="39.950879" lon="-.579404">
        <ele>687.849</ele>
        <time>2020-08-29T15:11:06Z</time>
      </trkpt>
      <trkpt lat="39.950895" lon="-.579336">
        <ele>687.313</ele>
        <time>2020-08-29T15:11:07Z</time>
      </trkpt>
      <trkpt lat="39.950907" lon="-.579265">
        <ele>687.308</ele>
        <time>2020-08-29T15:11:08Z</time>
      </trkpt>
      <trkpt lat="39.950915" lon="-.579194">
        <ele>686.928</ele>
        <time>2020-08-29T15:11:09Z</time>
      </trkpt>
      <trkpt lat="39.95092" lon="-.579126">
        <ele>686.568</ele>
        <time>2020-08-29T15:11:10Z</time>
      </trkpt>
      <trkpt lat="39.950928" lon="-.57905">
        <ele>686.530</ele>
        <time>2020-08-29T15:11:11Z</time>
      </trkpt>
      <trkpt lat="39.950929" lon="-.578949">
        <ele>686.322</ele>
        <time>2020-08-29T15:11:13Z</time>
      </trkpt>
      <trkpt lat="39.950931" lon="-.578887">
        <ele>686.390</ele>
        <time>2020-08-29T15:11:14Z</time>
      </trkpt>
      <trkpt lat="39.950938" lon="-.5788">
        <ele>686.257</ele>
        <time>2020-08-29T15:11:15Z</time>
      </trkpt>
      <trkpt lat="39.950941" lon="-.578719">
        <ele>686.095</ele>
        <time>2020-08-29T15:11:16Z</time>
      </trkpt>
      <trkpt lat="39.950955" lon="-.578633">
        <ele>685.735</ele>
        <time>2020-08-29T15:11:18Z</time>
      </trkpt>
      <trkpt lat="39.950949" lon="-.578513">
        <ele>685.558</ele>
        <time>2020-08-29T15:11:20Z</time>
      </trkpt>
      <trkpt lat="39.950942" lon="-.578449">
        <ele>685.652</ele>
        <time>2020-08-29T15:11:21Z</time>
      </trkpt>
      <trkpt lat="39.950934" lon="-.578388">
        <ele>685.617</ele>
        <time>2020-08-29T15:11:22Z</time>
      </trkpt>
      <trkpt lat="39.950928" lon="-.578311">
        <ele>685.608</ele>
        <time>2020-08-29T15:11:23Z</time>
      </trkpt>
      <trkpt lat="39.950901" lon="-.578186">
        <ele>685.480</ele>
        <time>2020-08-29T15:11:25Z</time>
      </trkpt>
      <trkpt lat="39.950891" lon="-.578122">
        <ele>685.310</ele>
        <time>2020-08-29T15:11:26Z</time>
      </trkpt>
      <trkpt lat="39.950879" lon="-.578058">
        <ele>685.172</ele>
        <time>2020-08-29T15:11:27Z</time>
      </trkpt>
      <trkpt lat="39.950846" lon="-.577949">
        <ele>684.974</ele>
        <time>2020-08-29T15:11:29Z</time>
      </trkpt>
      <trkpt lat="39.950826" lon="-.577855">
        <ele>684.712</ele>
        <time>2020-08-29T15:11:31Z</time>
      </trkpt>
      <trkpt lat="39.950802" lon="-.577801">
        <ele>684.739</ele>
        <time>2020-08-29T15:11:32Z</time>
      </trkpt>
      <trkpt lat="39.950779" lon="-.577731">
        <ele>684.617</ele>
        <time>2020-08-29T15:11:33Z</time>
      </trkpt>
      <trkpt lat="39.950755" lon="-.57767">
        <ele>684.547</ele>
        <time>2020-08-29T15:11:34Z</time>
      </trkpt>
      <trkpt lat="39.950738" lon="-.577592">
        <ele>684.335</ele>
        <time>2020-08-29T15:11:35Z</time>
      </trkpt>
      <trkpt lat="39.95072" lon="-.57752">
        <ele>684.386</ele>
        <time>2020-08-29T15:11:36Z</time>
      </trkpt>
      <trkpt lat="39.950696" lon="-.577419">
        <ele>683.914</ele>
        <time>2020-08-29T15:11:38Z</time>
      </trkpt>
      <trkpt lat="39.950685" lon="-.577354">
        <ele>683.908</ele>
        <time>2020-08-29T15:11:39Z</time>
      </trkpt>
      <trkpt lat="39.95066" lon="-.57729">
        <ele>683.998</ele>
        <time>2020-08-29T15:11:40Z</time>
      </trkpt>
      <trkpt lat="39.950633" lon="-.577209">
        <ele>683.948</ele>
        <time>2020-08-29T15:11:41Z</time>
      </trkpt>
      <trkpt lat="39.950588" lon="-.57714">
        <ele>683.870</ele>
        <time>2020-08-29T15:11:42Z</time>
      </trkpt>
      <trkpt lat="39.950567" lon="-.577073">
        <ele>683.812</ele>
        <time>2020-08-29T15:11:43Z</time>
      </trkpt>
      <trkpt lat="39.950528" lon="-.576974">
        <ele>683.720</ele>
        <time>2020-08-29T15:11:45Z</time>
      </trkpt>
      <trkpt lat="39.950496" lon="-.57691">
        <ele>683.577</ele>
        <time>2020-08-29T15:11:46Z</time>
      </trkpt>
      <trkpt lat="39.950468" lon="-.576827">
        <ele>683.595</ele>
        <time>2020-08-29T15:11:47Z</time>
      </trkpt>
      <trkpt lat="39.950453" lon="-.576764">
        <ele>683.455</ele>
        <time>2020-08-29T15:11:48Z</time>
      </trkpt>
      <trkpt lat="39.95045" lon="-.576705">
        <ele>683.327</ele>
        <time>2020-08-29T15:11:49Z</time>
      </trkpt>
      <trkpt lat="39.950424" lon="-.576629">
        <ele>682.968</ele>
        <time>2020-08-29T15:11:51Z</time>
      </trkpt>
      <trkpt lat="39.950398" lon="-.576547">
        <ele>682.714</ele>
        <time>2020-08-29T15:11:52Z</time>
      </trkpt>
      <trkpt lat="39.950362" lon="-.576464">
        <ele>682.508</ele>
        <time>2020-08-29T15:11:53Z</time>
      </trkpt>
      <trkpt lat="39.950332" lon="-.576398">
        <ele>682.397</ele>
        <time>2020-08-29T15:11:54Z</time>
      </trkpt>
      <trkpt lat="39.950293" lon="-.576329">
        <ele>682.247</ele>
        <time>2020-08-29T15:11:55Z</time>
      </trkpt>
      <trkpt lat="39.950263" lon="-.576253">
        <ele>681.569</ele>
        <time>2020-08-29T15:11:56Z</time>
      </trkpt>
      <trkpt lat="39.950235" lon="-.576181">
        <ele>681.571</ele>
        <time>2020-08-29T15:11:57Z</time>
      </trkpt>
      <trkpt lat="39.950198" lon="-.576103">
        <ele>681.529</ele>
        <time>2020-08-29T15:11:58Z</time>
      </trkpt>
      <trkpt lat="39.950173" lon="-.576031">
        <ele>681.586</ele>
        <time>2020-08-29T15:11:59Z</time>
      </trkpt>
      <trkpt lat="39.950141" lon="-.575956">
        <ele>681.554</ele>
        <time>2020-08-29T15:12:00Z</time>
      </trkpt>
      <trkpt lat="39.950127" lon="-.575896">
        <ele>681.544</ele>
        <time>2020-08-29T15:12:01Z</time>
      </trkpt>
      <trkpt lat="39.950106" lon="-.57582">
        <ele>681.442</ele>
        <time>2020-08-29T15:12:02Z</time>
      </trkpt>
      <trkpt lat="39.950092" lon="-.575759">
        <ele>681.422</ele>
        <time>2020-08-29T15:12:03Z</time>
      </trkpt>
      <trkpt lat="39.95007" lon="-.575681">
        <ele>681.314</ele>
        <time>2020-08-29T15:12:04Z</time>
      </trkpt>
      <trkpt lat="39.950064" lon="-.57561">
        <ele>681.008</ele>
        <time>2020-08-29T15:12:05Z</time>
      </trkpt>
      <trkpt lat="39.95004" lon="-.575539">
        <ele>680.959</ele>
        <time>2020-08-29T15:12:06Z</time>
      </trkpt>
      <trkpt lat="39.950031" lon="-.575472">
        <ele>680.899</ele>
        <time>2020-08-29T15:12:07Z</time>
      </trkpt>
      <trkpt lat="39.95002" lon="-.575399">
        <ele>680.721</ele>
        <time>2020-08-29T15:12:08Z</time>
      </trkpt>
      <trkpt lat="39.94999" lon="-.575309">
        <ele>680.573</ele>
        <time>2020-08-29T15:12:09Z</time>
      </trkpt>
      <trkpt lat="39.949962" lon="-.575196">
        <ele>680.411</ele>
        <time>2020-08-29T15:12:10Z</time>
      </trkpt>
      <trkpt lat="39.94993" lon="-.575119">
        <ele>680.358</ele>
        <time>2020-08-29T15:12:11Z</time>
      </trkpt>
      <trkpt lat="39.949894" lon="-.575029">
        <ele>680.056</ele>
        <time>2020-08-29T15:12:12Z</time>
      </trkpt>
      <trkpt lat="39.949869" lon="-.574949">
        <ele>679.696</ele>
        <time>2020-08-29T15:12:13Z</time>
      </trkpt>
      <trkpt lat="39.949853" lon="-.574875">
        <ele>679.491</ele>
        <time>2020-08-29T15:12:14Z</time>
      </trkpt>
      <trkpt lat="39.949848" lon="-.574794">
        <ele>679.181</ele>
        <time>2020-08-29T15:12:15Z</time>
      </trkpt>
      <trkpt lat="39.949836" lon="-.574722">
        <ele>678.919</ele>
        <time>2020-08-29T15:12:16Z</time>
      </trkpt>
      <trkpt lat="39.949827" lon="-.574645">
        <ele>678.808</ele>
        <time>2020-08-29T15:12:17Z</time>
      </trkpt>
      <trkpt lat="39.94982" lon="-.574568">
        <ele>678.644</ele>
        <time>2020-08-29T15:12:18Z</time>
      </trkpt>
      <trkpt lat="39.949817" lon="-.574497">
        <ele>678.434</ele>
        <time>2020-08-29T15:12:19Z</time>
      </trkpt>
      <trkpt lat="39.949816" lon="-.574423">
        <ele>678.476</ele>
        <time>2020-08-29T15:12:20Z</time>
      </trkpt>
      <trkpt lat="39.949817" lon="-.574302">
        <ele>678.268</ele>
        <time>2020-08-29T15:12:22Z</time>
      </trkpt>
      <trkpt lat="39.949821" lon="-.574225">
        <ele>678.076</ele>
        <time>2020-08-29T15:12:23Z</time>
      </trkpt>
      <trkpt lat="39.949812" lon="-.574156">
        <ele>677.843</ele>
        <time>2020-08-29T15:12:24Z</time>
      </trkpt>
      <trkpt lat="39.949817" lon="-.574042">
        <ele>677.571</ele>
        <time>2020-08-29T15:12:26Z</time>
      </trkpt>
      <trkpt lat="39.949822" lon="-.573967">
        <ele>677.391</ele>
        <time>2020-08-29T15:12:27Z</time>
      </trkpt>
      <trkpt lat="39.949821" lon="-.573906">
        <ele>677.361</ele>
        <time>2020-08-29T15:12:28Z</time>
      </trkpt>
      <trkpt lat="39.949816" lon="-.573838">
        <ele>677.221</ele>
        <time>2020-08-29T15:12:29Z</time>
      </trkpt>
      <trkpt lat="39.949808" lon="-.573751">
        <ele>677.013</ele>
        <time>2020-08-29T15:12:30Z</time>
      </trkpt>
      <trkpt lat="39.949806" lon="-.573673">
        <ele>676.808</ele>
        <time>2020-08-29T15:12:31Z</time>
      </trkpt>
      <trkpt lat="39.949803" lon="-.573595">
        <ele>676.641</ele>
        <time>2020-08-29T15:12:32Z</time>
      </trkpt>
      <trkpt lat="39.949805" lon="-.573524">
        <ele>676.541</ele>
        <time>2020-08-29T15:12:33Z</time>
      </trkpt>
      <trkpt lat="39.949804" lon="-.573459">
        <ele>676.473</ele>
        <time>2020-08-29T15:12:34Z</time>
      </trkpt>
      <trkpt lat="39.949801" lon="-.573367">
        <ele>676.155</ele>
        <time>2020-08-29T15:12:36Z</time>
      </trkpt>
      <trkpt lat="39.949801" lon="-.573265">
        <ele>675.553</ele>
        <time>2020-08-29T15:12:38Z</time>
      </trkpt>
      <trkpt lat="39.949807" lon="-.573164">
        <ele>675.490</ele>
        <time>2020-08-29T15:12:40Z</time>
      </trkpt>
      <trkpt lat="39.949816" lon="-.573044">
        <ele>675.418</ele>
        <time>2020-08-29T15:12:42Z</time>
      </trkpt>
      <trkpt lat="39.949808" lon="-.57298">
        <ele>675.488</ele>
        <time>2020-08-29T15:12:43Z</time>
      </trkpt>
      <trkpt lat="39.949809" lon="-.572896">
        <ele>675.277</ele>
        <time>2020-08-29T15:12:44Z</time>
      </trkpt>
      <trkpt lat="39.949804" lon="-.572818">
        <ele>675.261</ele>
        <time>2020-08-29T15:12:45Z</time>
      </trkpt>
      <trkpt lat="39.949799" lon="-.572727">
        <ele>675.127</ele>
        <time>2020-08-29T15:12:46Z</time>
      </trkpt>
      <trkpt lat="39.949805" lon="-.572635">
        <ele>674.908</ele>
        <time>2020-08-29T15:12:47Z</time>
      </trkpt>
      <trkpt lat="39.949805" lon="-.572554">
        <ele>674.952</ele>
        <time>2020-08-29T15:12:48Z</time>
      </trkpt>
      <trkpt lat="39.949801" lon="-.572467">
        <ele>674.852</ele>
        <time>2020-08-29T15:12:49Z</time>
      </trkpt>
      <trkpt lat="39.949803" lon="-.572391">
        <ele>674.564</ele>
        <time>2020-08-29T15:12:50Z</time>
      </trkpt>
      <trkpt lat="39.949799" lon="-.572314">
        <ele>674.436</ele>
        <time>2020-08-29T15:12:51Z</time>
      </trkpt>
      <trkpt lat="39.949792" lon="-.57224">
        <ele>674.024</ele>
        <time>2020-08-29T15:12:52Z</time>
      </trkpt>
      <trkpt lat="39.949793" lon="-.572169">
        <ele>674.031</ele>
        <time>2020-08-29T15:12:53Z</time>
      </trkpt>
      <trkpt lat="39.949791" lon="-.572099">
        <ele>673.949</ele>
        <time>2020-08-29T15:12:54Z</time>
      </trkpt>
      <trkpt lat="39.949792" lon="-.572028">
        <ele>673.649</ele>
        <time>2020-08-29T15:12:55Z</time>
      </trkpt>
      <trkpt lat="39.949796" lon="-.571964">
        <ele>673.621</ele>
        <time>2020-08-29T15:12:56Z</time>
      </trkpt>
      <trkpt lat="39.9498" lon="-.571905">
        <ele>673.541</ele>
        <time>2020-08-29T15:12:57Z</time>
      </trkpt>
      <trkpt lat="39.949804" lon="-.571806">
        <ele>673.205</ele>
        <time>2020-08-29T15:12:59Z</time>
      </trkpt>
      <trkpt lat="39.949792" lon="-.571673">
        <ele>673.208</ele>
        <time>2020-08-29T15:13:01Z</time>
      </trkpt>
      <trkpt lat="39.949788" lon="-.571595">
        <ele>672.987</ele>
        <time>2020-08-29T15:13:02Z</time>
      </trkpt>
      <trkpt lat="39.949788" lon="-.571533">
        <ele>672.927</ele>
        <time>2020-08-29T15:13:03Z</time>
      </trkpt>
      <trkpt lat="39.949779" lon="-.571468">
        <ele>672.939</ele>
        <time>2020-08-29T15:13:04Z</time>
      </trkpt>
      <trkpt lat="39.949773" lon="-.571389">
        <ele>672.591</ele>
        <time>2020-08-29T15:13:05Z</time>
      </trkpt>
      <trkpt lat="39.949771" lon="-.571311">
        <ele>672.499</ele>
        <time>2020-08-29T15:13:06Z</time>
      </trkpt>
      <trkpt lat="39.949775" lon="-.571232">
        <ele>672.326</ele>
        <time>2020-08-29T15:13:07Z</time>
      </trkpt>
      <trkpt lat="39.9498" lon="-.571151">
        <ele>672.054</ele>
        <time>2020-08-29T15:13:08Z</time>
      </trkpt>
      <trkpt lat="39.949795" lon="-.571075">
        <ele>671.924</ele>
        <time>2020-08-29T15:13:10Z</time>
      </trkpt>
      <trkpt lat="39.949799" lon="-.570978">
        <ele>671.822</ele>
        <time>2020-08-29T15:13:13Z</time>
      </trkpt>
      <trkpt lat="39.949779" lon="-.570914">
        <ele>671.762</ele>
        <time>2020-08-29T15:13:15Z</time>
      </trkpt>
      <trkpt lat="39.949763" lon="-.570854">
        <ele>671.608</ele>
        <time>2020-08-29T15:13:16Z</time>
      </trkpt>
      <trkpt lat="39.949754" lon="-.570794">
        <ele>671.308</ele>
        <time>2020-08-29T15:13:17Z</time>
      </trkpt>
      <trkpt lat="39.949764" lon="-.570717">
        <ele>670.867</ele>
        <time>2020-08-29T15:13:21Z</time>
      </trkpt>
      <trkpt lat="39.949752" lon="-.570647">
        <ele>670.697</ele>
        <time>2020-08-29T15:13:24Z</time>
      </trkpt>
      <trkpt lat="39.949747" lon="-.570531">
        <ele>669.789</ele>
        <time>2020-08-29T15:13:33Z</time>
      </trkpt>
      <trkpt lat="39.949783" lon="-.570462">
        <ele>670.591</ele>
        <time>2020-08-29T15:14:05Z</time>
      </trkpt>
      <trkpt lat="39.949727" lon="-.570595">
        <ele>670.319</ele>
        <time>2020-08-29T15:14:20Z</time>
      </trkpt>
      <trkpt lat="39.949706" lon="-.570541">
        <ele>670.356</ele>
        <time>2020-08-29T15:15:15Z</time>
      </trkpt>
      <trkpt lat="39.949742" lon="-.570412">
        <ele>669.974</ele>
        <time>2020-08-29T15:15:36Z</time>
      </trkpt>
      <trkpt lat="39.949771" lon="-.570255">
        <ele>669.834</ele>
        <time>2020-08-29T15:15:40Z</time>
      </trkpt>
      <trkpt lat="39.949785" lon="-.570179">
        <ele>669.633</ele>
        <time>2020-08-29T15:15:43Z</time>
      </trkpt>
      <trkpt lat="39.949795" lon="-.570115">
        <ele>669.523</ele>
        <time>2020-08-29T15:15:46Z</time>
      </trkpt>
      <trkpt lat="39.949781" lon="-.570048">
        <ele>669.515</ele>
        <time>2020-08-29T15:15:48Z</time>
      </trkpt>
      <trkpt lat="39.949755" lon="-.569999">
        <ele>669.308</ele>
        <time>2020-08-29T15:15:50Z</time>
      </trkpt>
      <trkpt lat="39.949711" lon="-.569962">
        <ele>669.458</ele>
        <time>2020-08-29T15:15:54Z</time>
      </trkpt>
      <trkpt lat="39.949703" lon="-.570255">
        <ele>669.618</ele>
        <time>2020-08-29T15:16:04Z</time>
      </trkpt>
      <trkpt lat="39.949734" lon="-.570207">
        <ele>669.340</ele>
        <time>2020-08-29T15:16:06Z</time>
      </trkpt>
      <trkpt lat="39.949761" lon="-.570136">
        <ele>669.212</ele>
        <time>2020-08-29T15:16:09Z</time>
      </trkpt>
      <trkpt lat="39.949782" lon="-.570067">
        <ele>669.360</ele>
        <time>2020-08-29T15:16:13Z</time>
      </trkpt>
      <trkpt lat="39.948985" lon="-.567247">
        <ele>665.087</ele>
        <time>2020-08-29T15:17:14Z</time>
      </trkpt>
      <trkpt lat="39.94874" lon="-.567312">
        <ele>664.985</ele>
        <time>2020-08-29T15:17:15Z</time>
      </trkpt>
      <trkpt lat="39.948502" lon="-.567263">
        <ele>664.735</ele>
        <time>2020-08-29T15:17:17Z</time>
      </trkpt>
      <trkpt lat="39.948523" lon="-.567322">
        <ele>664.771</ele>
        <time>2020-08-29T15:17:18Z</time>
      </trkpt>
      <trkpt lat="39.948503" lon="-.567209">
        <ele>664.241</ele>
        <time>2020-08-29T15:17:21Z</time>
      </trkpt>
      <trkpt lat="39.948478" lon="-.567123">
        <ele>663.915</ele>
        <time>2020-08-29T15:17:24Z</time>
      </trkpt>
      <trkpt lat="39.948466" lon="-.567019">
        <ele>663.808</ele>
        <time>2020-08-29T15:17:26Z</time>
      </trkpt>
      <trkpt lat="39.948467" lon="-.566918">
        <ele>663.482</ele>
        <time>2020-08-29T15:17:28Z</time>
      </trkpt>
      <trkpt lat="39.948425" lon="-.566858">
        <ele>663.242</ele>
        <time>2020-08-29T15:17:30Z</time>
      </trkpt>
      <trkpt lat="39.948372" lon="-.566798">
        <ele>663.084</ele>
        <time>2020-08-29T15:17:32Z</time>
      </trkpt>
      <trkpt lat="39.948328" lon="-.566745">
        <ele>663.066</ele>
        <time>2020-08-29T15:17:34Z</time>
      </trkpt>
      <trkpt lat="39.948321" lon="-.56665">
        <ele>662.944</ele>
        <time>2020-08-29T15:17:35Z</time>
      </trkpt>
      <trkpt lat="39.948315" lon="-.566573">
        <ele>662.671</ele>
        <time>2020-08-29T15:17:36Z</time>
      </trkpt>
      <trkpt lat="39.948297" lon="-.566491">
        <ele>662.529</ele>
        <time>2020-08-29T15:17:38Z</time>
      </trkpt>
      <trkpt lat="39.948297" lon="-.566421">
        <ele>661.619</ele>
        <time>2020-08-29T15:17:40Z</time>
      </trkpt>
      <trkpt lat="39.948288" lon="-.566354">
        <ele>662.611</ele>
        <time>2020-08-29T15:17:42Z</time>
      </trkpt>
      <trkpt lat="39.948255" lon="-.566299">
        <ele>664.421</ele>
        <time>2020-08-29T15:17:46Z</time>
      </trkpt>
      <trkpt lat="39.948181" lon="-.566248">
        <ele>664.703</ele>
        <time>2020-08-29T15:18:56Z</time>
      </trkpt>
      <trkpt lat="39.948163" lon="-.566177">
        <ele>664.508</ele>
        <time>2020-08-29T15:18:58Z</time>
      </trkpt>
      <trkpt lat="39.948121" lon="-.566116">
        <ele>663.946</ele>
        <time>2020-08-29T15:19:00Z</time>
      </trkpt>
      <trkpt lat="39.94808" lon="-.566052">
        <ele>662.916</ele>
        <time>2020-08-29T15:19:02Z</time>
      </trkpt>
      <trkpt lat="39.948061" lon="-.565997">
        <ele>662.748</ele>
        <time>2020-08-29T15:19:03Z</time>
      </trkpt>
      <trkpt lat="39.948035" lon="-.565948">
        <ele>662.780</ele>
        <time>2020-08-29T15:19:04Z</time>
      </trkpt>
      <trkpt lat="39.947992" lon="-.565876">
        <ele>662.738</ele>
        <time>2020-08-29T15:19:05Z</time>
      </trkpt>
      <trkpt lat="39.947962" lon="-.565812">
        <ele>662.725</ele>
        <time>2020-08-29T15:19:06Z</time>
      </trkpt>
      <trkpt lat="39.947919" lon="-.565757">
        <ele>662.633</ele>
        <time>2020-08-29T15:19:07Z</time>
      </trkpt>
      <trkpt lat="39.947867" lon="-.56569">
        <ele>662.253</ele>
        <time>2020-08-29T15:19:08Z</time>
      </trkpt>
      <trkpt lat="39.947824" lon="-.565619">
        <ele>661.855</ele>
        <time>2020-08-29T15:19:09Z</time>
      </trkpt>
      <trkpt lat="39.947783" lon="-.565548">
        <ele>661.807</ele>
        <time>2020-08-29T15:19:10Z</time>
      </trkpt>
      <trkpt lat="39.947743" lon="-.565474">
        <ele>661.517</ele>
        <time>2020-08-29T15:19:11Z</time>
      </trkpt>
      <trkpt lat="39.947702" lon="-.565402">
        <ele>661.308</ele>
        <time>2020-08-29T15:19:12Z</time>
      </trkpt>
      <trkpt lat="39.947652" lon="-.565328">
        <ele>661.230</ele>
        <time>2020-08-29T15:19:13Z</time>
      </trkpt>
      <trkpt lat="39.947611" lon="-.565247">
        <ele>660.930</ele>
        <time>2020-08-29T15:19:14Z</time>
      </trkpt>
      <trkpt lat="39.947563" lon="-.565167">
        <ele>660.462</ele>
        <time>2020-08-29T15:19:15Z</time>
      </trkpt>
      <trkpt lat="39.947537" lon="-.5651">
        <ele>660.314</ele>
        <time>2020-08-29T15:19:16Z</time>
      </trkpt>
      <trkpt lat="39.94751" lon="-.565028">
        <ele>659.492</ele>
        <time>2020-08-29T15:19:17Z</time>
      </trkpt>
      <trkpt lat="39.947469" lon="-.564953">
        <ele>659.439</ele>
        <time>2020-08-29T15:19:18Z</time>
      </trkpt>
      <trkpt lat="39.947424" lon="-.564878">
        <ele>659.587</ele>
        <time>2020-08-29T15:19:19Z</time>
      </trkpt>
      <trkpt lat="39.947382" lon="-.564813">
        <ele>659.557</ele>
        <time>2020-08-29T15:19:20Z</time>
      </trkpt>
      <trkpt lat="39.947339" lon="-.564737">
        <ele>659.685</ele>
        <time>2020-08-29T15:19:21Z</time>
      </trkpt>
      <trkpt lat="39.947288" lon="-.564664">
        <ele>660.289</ele>
        <time>2020-08-29T15:19:22Z</time>
      </trkpt>
      <trkpt lat="39.947242" lon="-.564595">
        <ele>660.217</ele>
        <time>2020-08-29T15:19:23Z</time>
      </trkpt>
      <trkpt lat="39.947194" lon="-.564514">
        <ele>659.108</ele>
        <time>2020-08-29T15:19:24Z</time>
      </trkpt>
      <trkpt lat="39.947136" lon="-.564434">
        <ele>659.183</ele>
        <time>2020-08-29T15:19:25Z</time>
      </trkpt>
      <trkpt lat="39.947094" lon="-.56436">
        <ele>658.693</ele>
        <time>2020-08-29T15:19:26Z</time>
      </trkpt>
      <trkpt lat="39.94706" lon="-.564304">
        <ele>657.915</ele>
        <time>2020-08-29T15:19:27Z</time>
      </trkpt>
      <trkpt lat="39.947025" lon="-.564249">
        <ele>657.967</ele>
        <time>2020-08-29T15:19:28Z</time>
      </trkpt>
      <trkpt lat="39.946992" lon="-.564191">
        <ele>657.975</ele>
        <time>2020-08-29T15:19:29Z</time>
      </trkpt>
      <trkpt lat="39.946953" lon="-.564119">
        <ele>657.922</ele>
        <time>2020-08-29T15:19:30Z</time>
      </trkpt>
      <trkpt lat="39.94691" lon="-.564045">
        <ele>657.810</ele>
        <time>2020-08-29T15:19:31Z</time>
      </trkpt>
      <trkpt lat="39.946873" lon="-.563976">
        <ele>657.290</ele>
        <time>2020-08-29T15:19:32Z</time>
      </trkpt>
      <trkpt lat="39.94683" lon="-.563908">
        <ele>657.112</ele>
        <time>2020-08-29T15:19:33Z</time>
      </trkpt>
      <trkpt lat="39.946806" lon="-.563838">
        <ele>657.132</ele>
        <time>2020-08-29T15:19:34Z</time>
      </trkpt>
      <trkpt lat="39.94678" lon="-.56377">
        <ele>656.705</ele>
        <time>2020-08-29T15:19:35Z</time>
      </trkpt>
      <trkpt lat="39.946746" lon="-.563717">
        <ele>656.708</ele>
        <time>2020-08-29T15:19:36Z</time>
      </trkpt>
      <trkpt lat="39.94669" lon="-.56365">
        <ele>656.086</ele>
        <time>2020-08-29T15:19:38Z</time>
      </trkpt>
      <trkpt lat="39.946657" lon="-.563591">
        <ele>655.656</ele>
        <time>2020-08-29T15:19:39Z</time>
      </trkpt>
      <trkpt lat="39.946626" lon="-.563539">
        <ele>655.558</ele>
        <time>2020-08-29T15:19:40Z</time>
      </trkpt>
      <trkpt lat="39.946566" lon="-.56345">
        <ele>655.380</ele>
        <time>2020-08-29T15:19:42Z</time>
      </trkpt>
      <trkpt lat="39.946513" lon="-.563358">
        <ele>655.158</ele>
        <time>2020-08-29T15:19:44Z</time>
      </trkpt>
      <trkpt lat="39.946446" lon="-.563278">
        <ele>654.965</ele>
        <time>2020-08-29T15:19:46Z</time>
      </trkpt>
      <trkpt lat="39.946379" lon="-.563174">
        <ele>654.593</ele>
        <time>2020-08-29T15:19:48Z</time>
      </trkpt>
      <trkpt lat="39.946344" lon="-.563136">
        <ele>654.253</ele>
        <time>2020-08-29T15:19:49Z</time>
      </trkpt>
      <trkpt lat="39.946327" lon="-.56308">
        <ele>654.082</ele>
        <time>2020-08-29T15:19:50Z</time>
      </trkpt>
      <trkpt lat="39.946254" lon="-.562988">
        <ele>653.743</ele>
        <time>2020-08-29T15:19:52Z</time>
      </trkpt>
      <trkpt lat="39.946216" lon="-.562933">
        <ele>653.717</ele>
        <time>2020-08-29T15:19:53Z</time>
      </trkpt>
      <trkpt lat="39.946177" lon="-.562897">
        <ele>653.608</ele>
        <time>2020-08-29T15:19:54Z</time>
      </trkpt>
      <trkpt lat="39.946109" lon="-.562831">
        <ele>653.663</ele>
        <time>2020-08-29T15:19:56Z</time>
      </trkpt>
      <trkpt lat="39.946063" lon="-.562798">
        <ele>653.583</ele>
        <time>2020-08-29T15:19:57Z</time>
      </trkpt>
      <trkpt lat="39.946013" lon="-.562761">
        <ele>653.585</ele>
        <time>2020-08-29T15:19:58Z</time>
      </trkpt>
      <trkpt lat="39.945968" lon="-.562718">
        <ele>653.527</ele>
        <time>2020-08-29T15:19:59Z</time>
      </trkpt>
      <trkpt lat="39.945884" lon="-.562657">
        <ele>653.565</ele>
        <time>2020-08-29T15:20:01Z</time>
      </trkpt>
      <trkpt lat="39.945841" lon="-.562632">
        <ele>653.612</ele>
        <time>2020-08-29T15:20:02Z</time>
      </trkpt>
      <trkpt lat="39.945788" lon="-.562614">
        <ele>653.660</ele>
        <time>2020-08-29T15:20:03Z</time>
      </trkpt>
      <trkpt lat="39.945705" lon="-.562577">
        <ele>653.410</ele>
        <time>2020-08-29T15:20:05Z</time>
      </trkpt>
      <trkpt lat="39.945628" lon="-.562536">
        <ele>653.141</ele>
        <time>2020-08-29T15:20:07Z</time>
      </trkpt>
      <trkpt lat="39.945582" lon="-.562522">
        <ele>652.981</ele>
        <time>2020-08-29T15:20:08Z</time>
      </trkpt>
      <trkpt lat="39.945536" lon="-.562513">
        <ele>652.809</ele>
        <time>2020-08-29T15:20:09Z</time>
      </trkpt>
      <trkpt lat="39.945457" lon="-.562477">
        <ele>652.508</ele>
        <time>2020-08-29T15:20:11Z</time>
      </trkpt>
      <trkpt lat="39.945376" lon="-.562458">
        <ele>652.329</ele>
        <time>2020-08-29T15:20:13Z</time>
      </trkpt>
      <trkpt lat="39.945291" lon="-.562442">
        <ele>652.039</ele>
        <time>2020-08-29T15:20:15Z</time>
      </trkpt>
      <trkpt lat="39.945204" lon="-.562431">
        <ele>651.841</ele>
        <time>2020-08-29T15:20:17Z</time>
      </trkpt>
      <trkpt lat="39.945117" lon="-.562426">
        <ele>651.643</ele>
        <time>2020-08-29T15:20:19Z</time>
      </trkpt>
      <trkpt lat="39.945034" lon="-.562419">
        <ele>651.461</ele>
        <time>2020-08-29T15:20:21Z</time>
      </trkpt>
      <trkpt lat="39.944949" lon="-.562398">
        <ele>651.188</ele>
        <time>2020-08-29T15:20:23Z</time>
      </trkpt>
      <trkpt lat="39.944867" lon="-.562383">
        <ele>650.876</ele>
        <time>2020-08-29T15:20:25Z</time>
      </trkpt>
      <trkpt lat="39.944776" lon="-.56237">
        <ele>650.596</ele>
        <time>2020-08-29T15:20:27Z</time>
      </trkpt>
      <trkpt lat="39.944699" lon="-.562346">
        <ele>650.289</ele>
        <time>2020-08-29T15:20:29Z</time>
      </trkpt>
      <trkpt lat="39.944652" lon="-.562341">
        <ele>650.106</ele>
        <time>2020-08-29T15:20:30Z</time>
      </trkpt>
      <trkpt lat="39.944606" lon="-.562338">
        <ele>649.926</ele>
        <time>2020-08-29T15:20:31Z</time>
      </trkpt>
      <trkpt lat="39.94456" lon="-.562343">
        <ele>649.808</ele>
        <time>2020-08-29T15:20:32Z</time>
      </trkpt>
      <trkpt lat="39.944479" lon="-.562332">
        <ele>649.723</ele>
        <time>2020-08-29T15:20:34Z</time>
      </trkpt>
      <trkpt lat="39.944396" lon="-.562314">
        <ele>649.593</ele>
        <time>2020-08-29T15:20:36Z</time>
      </trkpt>
      <trkpt lat="39.944327" lon="-.562305">
        <ele>649.255</ele>
        <time>2020-08-29T15:20:38Z</time>
      </trkpt>
      <trkpt lat="39.944251" lon="-.562288">
        <ele>648.937</ele>
        <time>2020-08-29T15:20:40Z</time>
      </trkpt>
      <trkpt lat="39.944179" lon="-.562283">
        <ele>648.685</ele>
        <time>2020-08-29T15:20:42Z</time>
      </trkpt>
      <trkpt lat="39.944135" lon="-.562272">
        <ele>648.562</ele>
        <time>2020-08-29T15:20:43Z</time>
      </trkpt>
      <trkpt lat="39.94406" lon="-.562265">
        <ele>648.430</ele>
        <time>2020-08-29T15:20:45Z</time>
      </trkpt>
      <trkpt lat="39.94399" lon="-.562256">
        <ele>648.590</ele>
        <time>2020-08-29T15:20:47Z</time>
      </trkpt>
      <trkpt lat="39.943913" lon="-.562246">
        <ele>648.196</ele>
        <time>2020-08-29T15:20:49Z</time>
      </trkpt>
      <trkpt lat="39.943835" lon="-.562231">
        <ele>647.531</ele>
        <time>2020-08-29T15:20:51Z</time>
      </trkpt>
      <trkpt lat="39.943758" lon="-.562231">
        <ele>646.924</ele>
        <time>2020-08-29T15:20:53Z</time>
      </trkpt>
      <trkpt lat="39.943675" lon="-.562223">
        <ele>646.708</ele>
        <time>2020-08-29T15:20:55Z</time>
      </trkpt>
      <trkpt lat="39.943594" lon="-.562206">
        <ele>646.954</ele>
        <time>2020-08-29T15:20:57Z</time>
      </trkpt>
      <trkpt lat="39.94352" lon="-.562188">
        <ele>646.964</ele>
        <time>2020-08-29T15:20:59Z</time>
      </trkpt>
      <trkpt lat="39.94344" lon="-.562179">
        <ele>646.936</ele>
        <time>2020-08-29T15:21:01Z</time>
      </trkpt>
      <trkpt lat="39.943356" lon="-.562175">
        <ele>646.618</ele>
        <time>2020-08-29T15:21:03Z</time>
      </trkpt>
      <trkpt lat="39.943285" lon="-.562143">
        <ele>646.586</ele>
        <time>2020-08-29T15:21:05Z</time>
      </trkpt>
      <trkpt lat="39.943196" lon="-.562141">
        <ele>646.413</ele>
        <time>2020-08-29T15:21:07Z</time>
      </trkpt>
      <trkpt lat="39.943113" lon="-.562123">
        <ele>646.361</ele>
        <time>2020-08-29T15:21:09Z</time>
      </trkpt>
      <trkpt lat="39.943067" lon="-.562103">
        <ele>646.021</ele>
        <time>2020-08-29T15:21:10Z</time>
      </trkpt>
      <trkpt lat="39.943021" lon="-.562089">
        <ele>645.999</ele>
        <time>2020-08-29T15:21:11Z</time>
      </trkpt>
      <trkpt lat="39.94295" lon="-.562052">
        <ele>645.707</ele>
        <time>2020-08-29T15:21:13Z</time>
      </trkpt>
      <trkpt lat="39.942869" lon="-.562026">
        <ele>645.727</ele>
        <time>2020-08-29T15:21:15Z</time>
      </trkpt>
      <trkpt lat="39.942823" lon="-.562001">
        <ele>645.708</ele>
        <time>2020-08-29T15:21:16Z</time>
      </trkpt>
      <trkpt lat="39.942777" lon="-.561976">
        <ele>645.634</ele>
        <time>2020-08-29T15:21:17Z</time>
      </trkpt>
      <trkpt lat="39.942696" lon="-.561933">
        <ele>645.344</ele>
        <time>2020-08-29T15:21:19Z</time>
      </trkpt>
      <trkpt lat="39.942613" lon="-.561888">
        <ele>645.066</ele>
        <time>2020-08-29T15:21:21Z</time>
      </trkpt>
      <trkpt lat="39.942569" lon="-.561861">
        <ele>644.848</ele>
        <time>2020-08-29T15:21:22Z</time>
      </trkpt>
      <trkpt lat="39.942526" lon="-.561831">
        <ele>644.756</ele>
        <time>2020-08-29T15:21:23Z</time>
      </trkpt>
      <trkpt lat="39.942483" lon="-.561797">
        <ele>644.633</ele>
        <time>2020-08-29T15:21:24Z</time>
      </trkpt>
      <trkpt lat="39.942398" lon="-.561744">
        <ele>644.521</ele>
        <time>2020-08-29T15:21:26Z</time>
      </trkpt>
      <trkpt lat="39.942315" lon="-.561679">
        <ele>644.331</ele>
        <time>2020-08-29T15:21:28Z</time>
      </trkpt>
      <trkpt lat="39.94228" lon="-.56164">
        <ele>644.173</ele>
        <time>2020-08-29T15:21:29Z</time>
      </trkpt>
      <trkpt lat="39.942215" lon="-.561561">
        <ele>643.785</ele>
        <time>2020-08-29T15:21:31Z</time>
      </trkpt>
      <trkpt lat="39.942174" lon="-.561519">
        <ele>643.513</ele>
        <time>2020-08-29T15:21:32Z</time>
      </trkpt>
      <trkpt lat="39.942135" lon="-.561475">
        <ele>643.008</ele>
        <time>2020-08-29T15:21:33Z</time>
      </trkpt>
      <trkpt lat="39.9421" lon="-.561431">
        <ele>642.872</ele>
        <time>2020-08-29T15:21:34Z</time>
      </trkpt>
      <trkpt lat="39.942031" lon="-.561353">
        <ele>642.592</ele>
        <time>2020-08-29T15:21:36Z</time>
      </trkpt>
      <trkpt lat="39.941971" lon="-.561273">
        <ele>642.554</ele>
        <time>2020-08-29T15:21:38Z</time>
      </trkpt>
      <trkpt lat="39.941907" lon="-.561192">
        <ele>642.516</ele>
        <time>2020-08-29T15:21:40Z</time>
      </trkpt>
      <trkpt lat="39.941869" lon="-.56116">
        <ele>642.554</ele>
        <time>2020-08-29T15:21:41Z</time>
      </trkpt>
      <trkpt lat="39.941833" lon="-.561119">
        <ele>642.541</ele>
        <time>2020-08-29T15:21:42Z</time>
      </trkpt>
      <trkpt lat="39.941798" lon="-.561073">
        <ele>642.469</ele>
        <time>2020-08-29T15:21:43Z</time>
      </trkpt>
      <trkpt lat="39.941765" lon="-.561029">
        <ele>642.339</ele>
        <time>2020-08-29T15:21:44Z</time>
      </trkpt>
      <trkpt lat="39.941706" lon="-.56095">
        <ele>642.082</ele>
        <time>2020-08-29T15:21:46Z</time>
      </trkpt>
      <trkpt lat="39.941649" lon="-.560868">
        <ele>641.743</ele>
        <time>2020-08-29T15:21:48Z</time>
      </trkpt>
      <trkpt lat="39.941585" lon="-.56079">
        <ele>641.617</ele>
        <time>2020-08-29T15:21:50Z</time>
      </trkpt>
      <trkpt lat="39.941551" lon="-.56075">
        <ele>641.508</ele>
        <time>2020-08-29T15:21:51Z</time>
      </trkpt>
      <trkpt lat="39.941494" lon="-.560668">
        <ele>641.393</ele>
        <time>2020-08-29T15:21:53Z</time>
      </trkpt>
      <trkpt lat="39.941462" lon="-.560626">
        <ele>641.253</ele>
        <time>2020-08-29T15:21:54Z</time>
      </trkpt>
      <trkpt lat="39.941425" lon="-.56059">
        <ele>641.075</ele>
        <time>2020-08-29T15:21:55Z</time>
      </trkpt>
      <trkpt lat="39.941393" lon="-.560547">
        <ele>640.887</ele>
        <time>2020-08-29T15:21:56Z</time>
      </trkpt>
      <trkpt lat="39.941332" lon="-.560462">
        <ele>640.625</ele>
        <time>2020-08-29T15:21:58Z</time>
      </trkpt>
      <trkpt lat="39.941302" lon="-.560414">
        <ele>640.682</ele>
        <time>2020-08-29T15:21:59Z</time>
      </trkpt>
      <trkpt lat="39.941244" lon="-.560345">
        <ele>640.410</ele>
        <time>2020-08-29T15:22:01Z</time>
      </trkpt>
      <trkpt lat="39.941192" lon="-.560277">
        <ele>640.420</ele>
        <time>2020-08-29T15:22:03Z</time>
      </trkpt>
      <trkpt lat="39.941165" lon="-.560225">
        <ele>640.422</ele>
        <time>2020-08-29T15:22:04Z</time>
      </trkpt>
      <trkpt lat="39.941118" lon="-.560138">
        <ele>640.362</ele>
        <time>2020-08-29T15:22:06Z</time>
      </trkpt>
      <trkpt lat="39.941052" lon="-.560074">
        <ele>640.308</ele>
        <time>2020-08-29T15:22:08Z</time>
      </trkpt>
      <trkpt lat="39.941006" lon="-.560021">
        <ele>640.108</ele>
        <time>2020-08-29T15:22:10Z</time>
      </trkpt>
      <trkpt lat="39.940951" lon="-.559964">
        <ele>639.627</ele>
        <time>2020-08-29T15:22:12Z</time>
      </trkpt>
      <trkpt lat="39.940902" lon="-.559906">
        <ele>639.227</ele>
        <time>2020-08-29T15:22:14Z</time>
      </trkpt>
      <trkpt lat="39.940852" lon="-.559827">
        <ele>639.359</ele>
        <time>2020-08-29T15:22:16Z</time>
      </trkpt>
      <trkpt lat="39.940799" lon="-.559754">
        <ele>639.331</ele>
        <time>2020-08-29T15:22:18Z</time>
      </trkpt>
      <trkpt lat="39.940743" lon="-.559692">
        <ele>639.279</ele>
        <time>2020-08-29T15:22:20Z</time>
      </trkpt>
      <trkpt lat="39.940704" lon="-.55964">
        <ele>639.186</ele>
        <time>2020-08-29T15:22:22Z</time>
      </trkpt>
      <trkpt lat="39.940664" lon="-.559588">
        <ele>638.974</ele>
        <time>2020-08-29T15:22:24Z</time>
      </trkpt>
      <trkpt lat="39.940611" lon="-.559535">
        <ele>638.854</ele>
        <time>2020-08-29T15:22:26Z</time>
      </trkpt>
      <trkpt lat="39.940568" lon="-.559479">
        <ele>638.637</ele>
        <time>2020-08-29T15:22:28Z</time>
      </trkpt>
      <trkpt lat="39.94053" lon="-.559427">
        <ele>638.549</ele>
        <time>2020-08-29T15:22:29Z</time>
      </trkpt>
      <trkpt lat="39.94045" lon="-.559363">
        <ele>638.413</ele>
        <time>2020-08-29T15:22:31Z</time>
      </trkpt>
      <trkpt lat="39.940397" lon="-.559288">
        <ele>638.408</ele>
        <time>2020-08-29T15:22:33Z</time>
      </trkpt>
      <trkpt lat="39.940339" lon="-.559222">
        <ele>638.458</ele>
        <time>2020-08-29T15:22:35Z</time>
      </trkpt>
      <trkpt lat="39.940275" lon="-.55916">
        <ele>638.218</ele>
        <time>2020-08-29T15:22:37Z</time>
      </trkpt>
      <trkpt lat="39.94022" lon="-.559106">
        <ele>637.550</ele>
        <time>2020-08-29T15:22:39Z</time>
      </trkpt>
      <trkpt lat="39.940163" lon="-.559038">
        <ele>637.372</ele>
        <time>2020-08-29T15:22:41Z</time>
      </trkpt>
      <trkpt lat="39.940108" lon="-.558988">
        <ele>637.050</ele>
        <time>2020-08-29T15:22:43Z</time>
      </trkpt>
      <trkpt lat="39.940052" lon="-.558929">
        <ele>636.877</ele>
        <time>2020-08-29T15:22:45Z</time>
      </trkpt>
      <trkpt lat="39.939996" lon="-.558871">
        <ele>636.625</ele>
        <time>2020-08-29T15:22:47Z</time>
      </trkpt>
      <trkpt lat="39.93994" lon="-.558815">
        <ele>636.555</ele>
        <time>2020-08-29T15:22:49Z</time>
      </trkpt>
      <trkpt lat="39.939885" lon="-.558766">
        <ele>636.513</ele>
        <time>2020-08-29T15:22:51Z</time>
      </trkpt>
      <trkpt lat="39.939831" lon="-.558702">
        <ele>636.443</ele>
        <time>2020-08-29T15:22:53Z</time>
      </trkpt>
      <trkpt lat="39.939764" lon="-.558643">
        <ele>636.307</ele>
        <time>2020-08-29T15:22:55Z</time>
      </trkpt>
      <trkpt lat="39.939702" lon="-.558584">
        <ele>636.408</ele>
        <time>2020-08-29T15:22:57Z</time>
      </trkpt>
      <trkpt lat="39.939643" lon="-.558526">
        <ele>636.526</ele>
        <time>2020-08-29T15:22:59Z</time>
      </trkpt>
      <trkpt lat="39.939574" lon="-.55847">
        <ele>636.496</ele>
        <time>2020-08-29T15:23:01Z</time>
      </trkpt>
      <trkpt lat="39.939509" lon="-.558401">
        <ele>636.248</ele>
        <time>2020-08-29T15:23:03Z</time>
      </trkpt>
      <trkpt lat="39.939452" lon="-.55834">
        <ele>635.760</ele>
        <time>2020-08-29T15:23:05Z</time>
      </trkpt>
      <trkpt lat="39.939401" lon="-.55829">
        <ele>635.358</ele>
        <time>2020-08-29T15:23:07Z</time>
      </trkpt>
      <trkpt lat="39.939342" lon="-.558234">
        <ele>635.335</ele>
        <time>2020-08-29T15:23:09Z</time>
      </trkpt>
      <trkpt lat="39.939274" lon="-.55818">
        <ele>635.233</ele>
        <time>2020-08-29T15:23:11Z</time>
      </trkpt>
      <trkpt lat="39.939205" lon="-.558132">
        <ele>635.013</ele>
        <time>2020-08-29T15:23:13Z</time>
      </trkpt>
      <trkpt lat="39.939134" lon="-.558081">
        <ele>634.964</ele>
        <time>2020-08-29T15:23:15Z</time>
      </trkpt>
      <trkpt lat="39.939069" lon="-.55802">
        <ele>634.806</ele>
        <time>2020-08-29T15:23:17Z</time>
      </trkpt>
      <trkpt lat="39.93902" lon="-.557985">
        <ele>634.716</ele>
        <time>2020-08-29T15:23:19Z</time>
      </trkpt>
      <trkpt lat="39.938953" lon="-.557956">
        <ele>634.408</ele>
        <time>2020-08-29T15:23:21Z</time>
      </trkpt>
      <trkpt lat="39.938886" lon="-.557909">
        <ele>633.611</ele>
        <time>2020-08-29T15:23:24Z</time>
      </trkpt>
      <trkpt lat="39.938828" lon="-.557857">
        <ele>633.211</ele>
        <time>2020-08-29T15:23:26Z</time>
      </trkpt>
      <trkpt lat="39.938786" lon="-.557829">
        <ele>633.043</ele>
        <time>2020-08-29T15:23:28Z</time>
      </trkpt>
      <trkpt lat="39.938732" lon="-.557788">
        <ele>632.785</ele>
        <time>2020-08-29T15:23:31Z</time>
      </trkpt>
      <trkpt lat="39.938663" lon="-.557744">
        <ele>632.683</ele>
        <time>2020-08-29T15:23:33Z</time>
      </trkpt>
      <trkpt lat="39.9386" lon="-.5577">
        <ele>632.620</ele>
        <time>2020-08-29T15:23:35Z</time>
      </trkpt>
      <trkpt lat="39.938559" lon="-.557648">
        <ele>632.598</ele>
        <time>2020-08-29T15:23:37Z</time>
      </trkpt>
      <trkpt lat="39.938514" lon="-.557605">
        <ele>632.438</ele>
        <time>2020-08-29T15:23:39Z</time>
      </trkpt>
      <trkpt lat="39.938473" lon="-.557568">
        <ele>632.273</ele>
        <time>2020-08-29T15:23:41Z</time>
      </trkpt>
      <trkpt lat="39.938422" lon="-.557517">
        <ele>632.085</ele>
        <time>2020-08-29T15:23:43Z</time>
      </trkpt>
      <trkpt lat="39.938367" lon="-.557459">
        <ele>631.913</ele>
        <time>2020-08-29T15:23:45Z</time>
      </trkpt>
      <trkpt lat="39.938303" lon="-.557426">
        <ele>631.908</ele>
        <time>2020-08-29T15:23:47Z</time>
      </trkpt>
      <trkpt lat="39.938245" lon="-.557375">
        <ele>631.752</ele>
        <time>2020-08-29T15:23:49Z</time>
      </trkpt>
      <trkpt lat="39.938187" lon="-.55734">
        <ele>631.582</ele>
        <time>2020-08-29T15:23:51Z</time>
      </trkpt>
      <trkpt lat="39.938134" lon="-.557286">
        <ele>631.244</ele>
        <time>2020-08-29T15:23:53Z</time>
      </trkpt>
      <trkpt lat="39.938083" lon="-.557246">
        <ele>631.096</ele>
        <time>2020-08-29T15:23:55Z</time>
      </trkpt>
      <trkpt lat="39.938032" lon="-.55721">
        <ele>630.914</ele>
        <time>2020-08-29T15:23:57Z</time>
      </trkpt>
      <trkpt lat="39.937975" lon="-.557164">
        <ele>630.831</ele>
        <time>2020-08-29T15:23:59Z</time>
      </trkpt>
      <trkpt lat="39.937922" lon="-.55712">
        <ele>630.619</ele>
        <time>2020-08-29T15:24:01Z</time>
      </trkpt>
      <trkpt lat="39.937871" lon="-.557069">
        <ele>630.419</ele>
        <time>2020-08-29T15:24:03Z</time>
      </trkpt>
      <trkpt lat="39.937812" lon="-.557038">
        <ele>630.368</ele>
        <time>2020-08-29T15:24:05Z</time>
      </trkpt>
      <trkpt lat="39.937759" lon="-.556987">
        <ele>630.342</ele>
        <time>2020-08-29T15:24:07Z</time>
      </trkpt>
      <trkpt lat="39.9377" lon="-.556951">
        <ele>630.126</ele>
        <time>2020-08-29T15:24:09Z</time>
      </trkpt>
      <trkpt lat="39.937647" lon="-.556908">
        <ele>630.008</ele>
        <time>2020-08-29T15:24:11Z</time>
      </trkpt>
      <trkpt lat="39.937587" lon="-.556865">
        <ele>629.911</ele>
        <time>2020-08-29T15:24:13Z</time>
      </trkpt>
      <trkpt lat="39.937532" lon="-.556811">
        <ele>629.781</ele>
        <time>2020-08-29T15:24:15Z</time>
      </trkpt>
      <trkpt lat="39.93748" lon="-.55677">
        <ele>629.513</ele>
        <time>2020-08-29T15:24:17Z</time>
      </trkpt>
      <trkpt lat="39.937429" lon="-.556724">
        <ele>629.355</ele>
        <time>2020-08-29T15:24:19Z</time>
      </trkpt>
      <trkpt lat="39.93738" lon="-.556672">
        <ele>628.983</ele>
        <time>2020-08-29T15:24:21Z</time>
      </trkpt>
      <trkpt lat="39.937328" lon="-.556621">
        <ele>628.650</ele>
        <time>2020-08-29T15:24:23Z</time>
      </trkpt>
      <trkpt lat="39.937286" lon="-.556585">
        <ele>628.548</ele>
        <time>2020-08-29T15:24:25Z</time>
      </trkpt>
      <trkpt lat="39.937232" lon="-.556518">
        <ele>628.568</ele>
        <time>2020-08-29T15:24:27Z</time>
      </trkpt>
      <trkpt lat="39.937184" lon="-.556463">
        <ele>628.392</ele>
        <time>2020-08-29T15:24:29Z</time>
      </trkpt>
      <trkpt lat="39.937134" lon="-.556411">
        <ele>628.073</ele>
        <time>2020-08-29T15:24:31Z</time>
      </trkpt>
      <trkpt lat="39.937085" lon="-.556351">
        <ele>627.620</ele>
        <time>2020-08-29T15:24:33Z</time>
      </trkpt>
      <trkpt lat="39.937033" lon="-.556292">
        <ele>627.408</ele>
        <time>2020-08-29T15:24:35Z</time>
      </trkpt>
      <trkpt lat="39.936977" lon="-.556234">
        <ele>627.364</ele>
        <time>2020-08-29T15:24:37Z</time>
      </trkpt>
      <trkpt lat="39.936929" lon="-.556169">
        <ele>627.264</ele>
        <time>2020-08-29T15:24:39Z</time>
      </trkpt>
      <trkpt lat="39.93688" lon="-.556107">
        <ele>627.126</ele>
        <time>2020-08-29T15:24:41Z</time>
      </trkpt>
      <trkpt lat="39.936835" lon="-.556044">
        <ele>627.068</ele>
        <time>2020-08-29T15:24:43Z</time>
      </trkpt>
      <trkpt lat="39.936779" lon="-.555971">
        <ele>626.926</ele>
        <time>2020-08-29T15:24:45Z</time>
      </trkpt>
      <trkpt lat="39.936725" lon="-.555903">
        <ele>626.773</ele>
        <time>2020-08-29T15:24:47Z</time>
      </trkpt>
      <trkpt lat="39.936678" lon="-.555836">
        <ele>626.521</ele>
        <time>2020-08-29T15:24:49Z</time>
      </trkpt>
      <trkpt lat="39.93663" lon="-.555766">
        <ele>626.421</ele>
        <time>2020-08-29T15:24:51Z</time>
      </trkpt>
      <trkpt lat="39.936581" lon="-.555697">
        <ele>626.323</ele>
        <time>2020-08-29T15:24:53Z</time>
      </trkpt>
      <trkpt lat="39.936527" lon="-.555627">
        <ele>626.283</ele>
        <time>2020-08-29T15:24:55Z</time>
      </trkpt>
      <trkpt lat="39.936479" lon="-.555551">
        <ele>626.011</ele>
        <time>2020-08-29T15:24:57Z</time>
      </trkpt>
      <trkpt lat="39.936432" lon="-.555476">
        <ele>625.508</ele>
        <time>2020-08-29T15:24:59Z</time>
      </trkpt>
      <trkpt lat="39.936393" lon="-.555399">
        <ele>625.497</ele>
        <time>2020-08-29T15:25:01Z</time>
      </trkpt>
      <trkpt lat="39.936341" lon="-.555317">
        <ele>625.317</ele>
        <time>2020-08-29T15:25:03Z</time>
      </trkpt>
      <trkpt lat="39.93629" lon="-.55523">
        <ele>625.289</ele>
        <time>2020-08-29T15:25:05Z</time>
      </trkpt>
      <trkpt lat="39.936244" lon="-.555141">
        <ele>625.041</ele>
        <time>2020-08-29T15:25:07Z</time>
      </trkpt>
      <trkpt lat="39.936198" lon="-.55505">
        <ele>624.779</ele>
        <time>2020-08-29T15:25:09Z</time>
      </trkpt>
      <trkpt lat="39.936155" lon="-.554976">
        <ele>624.636</ele>
        <time>2020-08-29T15:25:11Z</time>
      </trkpt>
      <trkpt lat="39.936118" lon="-.554906">
        <ele>624.254</ele>
        <time>2020-08-29T15:25:13Z</time>
      </trkpt>
      <trkpt lat="39.936076" lon="-.554814">
        <ele>623.614</ele>
        <time>2020-08-29T15:25:15Z</time>
      </trkpt>
      <trkpt lat="39.936039" lon="-.554742">
        <ele>622.889</ele>
        <time>2020-08-29T15:25:17Z</time>
      </trkpt>
      <trkpt lat="39.936002" lon="-.554658">
        <ele>622.606</ele>
        <time>2020-08-29T15:25:19Z</time>
      </trkpt>
      <trkpt lat="39.93596" lon="-.554564">
        <ele>622.426</ele>
        <time>2020-08-29T15:25:21Z</time>
      </trkpt>
      <trkpt lat="39.93592" lon="-.554485">
        <ele>622.408</ele>
        <time>2020-08-29T15:25:23Z</time>
      </trkpt>
      <trkpt lat="39.935877" lon="-.554399">
        <ele>622.093</ele>
        <time>2020-08-29T15:25:25Z</time>
      </trkpt>
      <trkpt lat="39.93584" lon="-.554312">
        <ele>621.493</ele>
        <time>2020-08-29T15:25:27Z</time>
      </trkpt>
      <trkpt lat="39.935797" lon="-.554226">
        <ele>620.775</ele>
        <time>2020-08-29T15:25:29Z</time>
      </trkpt>
      <trkpt lat="39.935756" lon="-.554135">
        <ele>620.097</ele>
        <time>2020-08-29T15:25:31Z</time>
      </trkpt>
      <trkpt lat="39.935719" lon="-.554043">
        <ele>619.445</ele>
        <time>2020-08-29T15:25:33Z</time>
      </trkpt>
      <trkpt lat="39.935681" lon="-.553973">
        <ele>619.072</ele>
        <time>2020-08-29T15:25:35Z</time>
      </trkpt>
      <trkpt lat="39.935644" lon="-.553888">
        <ele>619.040</ele>
        <time>2020-08-29T15:25:37Z</time>
      </trkpt>
      <trkpt lat="39.935606" lon="-.553809">
        <ele>619.450</ele>
        <time>2020-08-29T15:25:39Z</time>
      </trkpt>
      <trkpt lat="39.935576" lon="-.553718">
        <ele>619.624</ele>
        <time>2020-08-29T15:25:41Z</time>
      </trkpt>
      <trkpt lat="39.935534" lon="-.55363">
        <ele>619.604</ele>
        <time>2020-08-29T15:25:43Z</time>
      </trkpt>
      <trkpt lat="39.935493" lon="-.553543">
        <ele>619.614</ele>
        <time>2020-08-29T15:25:45Z</time>
      </trkpt>
      <trkpt lat="39.935458" lon="-.553458">
        <ele>620.008</ele>
        <time>2020-08-29T15:25:47Z</time>
      </trkpt>
      <trkpt lat="39.935421" lon="-.553374">
        <ele>620.147</ele>
        <time>2020-08-29T15:25:49Z</time>
      </trkpt>
      <trkpt lat="39.935399" lon="-.553321">
        <ele>620.157</ele>
        <time>2020-08-29T15:25:50Z</time>
      </trkpt>
      <trkpt lat="39.935353" lon="-.553223">
        <ele>619.949</ele>
        <time>2020-08-29T15:25:52Z</time>
      </trkpt>
      <trkpt lat="39.935315" lon="-.553128">
        <ele>620.111</ele>
        <time>2020-08-29T15:25:54Z</time>
      </trkpt>
      <trkpt lat="39.935274" lon="-.55303">
        <ele>620.259</ele>
        <time>2020-08-29T15:25:56Z</time>
      </trkpt>
      <trkpt lat="39.935227" lon="-.552949">
        <ele>620.296</ele>
        <time>2020-08-29T15:25:58Z</time>
      </trkpt>
      <trkpt lat="39.9352" lon="-.552867">
        <ele>620.474</ele>
        <time>2020-08-29T15:26:00Z</time>
      </trkpt>
      <trkpt lat="39.935162" lon="-.552775">
        <ele>620.554</ele>
        <time>2020-08-29T15:26:02Z</time>
      </trkpt>
      <trkpt lat="39.935138" lon="-.552691">
        <ele>620.162</ele>
        <time>2020-08-29T15:26:04Z</time>
      </trkpt>
      <trkpt lat="39.935098" lon="-.552604">
        <ele>619.583</ele>
        <time>2020-08-29T15:26:06Z</time>
      </trkpt>
      <trkpt lat="39.93509" lon="-.552533">
        <ele>617.211</ele>
        <time>2020-08-29T15:26:08Z</time>
      </trkpt>
      <trkpt lat="39.935071" lon="-.552471">
        <ele>618.008</ele>
        <time>2020-08-29T15:26:09Z</time>
      </trkpt>
      <trkpt lat="39.935041" lon="-.552394">
        <ele>618.061</ele>
        <time>2020-08-29T15:26:10Z</time>
      </trkpt>
      <trkpt lat="39.935003" lon="-.552314">
        <ele>619.221</ele>
        <time>2020-08-29T15:26:11Z</time>
      </trkpt>
      <trkpt lat="39.934957" lon="-.55222">
        <ele>619.883</ele>
        <time>2020-08-29T15:26:12Z</time>
      </trkpt>
      <trkpt lat="39.93492" lon="-.552147">
        <ele>621.245</ele>
        <time>2020-08-29T15:26:13Z</time>
      </trkpt>
      <trkpt lat="39.934882" lon="-.552072">
        <ele>621.213</ele>
        <time>2020-08-29T15:26:14Z</time>
      </trkpt>
      <trkpt lat="39.934852" lon="-.552011">
        <ele>619.450</ele>
        <time>2020-08-29T15:26:15Z</time>
      </trkpt>
      <trkpt lat="39.93483" lon="-.551941">
        <ele>619.448</ele>
        <time>2020-08-29T15:26:16Z</time>
      </trkpt>
      <trkpt lat="39.934817" lon="-.551874">
        <ele>619.438</ele>
        <time>2020-08-29T15:26:17Z</time>
      </trkpt>
      <trkpt lat="39.934792" lon="-.551808">
        <ele>619.342</ele>
        <time>2020-08-29T15:26:18Z</time>
      </trkpt>
      <trkpt lat="39.934775" lon="-.551745">
        <ele>619.322</ele>
        <time>2020-08-29T15:26:19Z</time>
      </trkpt>
      <trkpt lat="39.934754" lon="-.551676">
        <ele>619.314</ele>
        <time>2020-08-29T15:26:20Z</time>
      </trkpt>
      <trkpt lat="39.934738" lon="-.551615">
        <ele>619.308</ele>
        <time>2020-08-29T15:26:21Z</time>
      </trkpt>
      <trkpt lat="39.93472" lon="-.55154">
        <ele>619.039</ele>
        <time>2020-08-29T15:26:22Z</time>
      </trkpt>
      <trkpt lat="39.934703" lon="-.55147">
        <ele>618.829</ele>
        <time>2020-08-29T15:26:23Z</time>
      </trkpt>
      <trkpt lat="39.934684" lon="-.551413">
        <ele>618.751</ele>
        <time>2020-08-29T15:26:24Z</time>
      </trkpt>
      <trkpt lat="39.934666" lon="-.551343">
        <ele>618.643</ele>
        <time>2020-08-29T15:26:25Z</time>
      </trkpt>
      <trkpt lat="39.934648" lon="-.551281">
        <ele>618.461</ele>
        <time>2020-08-29T15:26:26Z</time>
      </trkpt>
      <trkpt lat="39.934637" lon="-.55117">
        <ele>618.378</ele>
        <time>2020-08-29T15:26:28Z</time>
      </trkpt>
      <trkpt lat="39.934619" lon="-.551102">
        <ele>617.816</ele>
        <time>2020-08-29T15:26:29Z</time>
      </trkpt>
      <trkpt lat="39.934598" lon="-.551036">
        <ele>617.746</ele>
        <time>2020-08-29T15:26:30Z</time>
      </trkpt>
      <trkpt lat="39.934575" lon="-.55094">
        <ele>617.451</ele>
        <time>2020-08-29T15:26:32Z</time>
      </trkpt>
      <trkpt lat="39.934551" lon="-.550875">
        <ele>617.101</ele>
        <time>2020-08-29T15:26:33Z</time>
      </trkpt>
      <trkpt lat="39.93453" lon="-.550809">
        <ele>617.111</ele>
        <time>2020-08-29T15:26:34Z</time>
      </trkpt>
      <trkpt lat="39.934499" lon="-.550732">
        <ele>617.108</ele>
        <time>2020-08-29T15:26:35Z</time>
      </trkpt>
      <trkpt lat="39.934473" lon="-.550649">
        <ele>616.540</ele>
        <time>2020-08-29T15:26:36Z</time>
      </trkpt>
      <trkpt lat="39.934449" lon="-.550566">
        <ele>616.540</ele>
        <time>2020-08-29T15:26:37Z</time>
      </trkpt>
      <trkpt lat="39.934421" lon="-.550478">
        <ele>616.962</ele>
        <time>2020-08-29T15:26:38Z</time>
      </trkpt>
      <trkpt lat="39.934399" lon="-.550388">
        <ele>616.934</ele>
        <time>2020-08-29T15:26:39Z</time>
      </trkpt>
      <trkpt lat="39.934375" lon="-.550315">
        <ele>616.272</ele>
        <time>2020-08-29T15:26:40Z</time>
      </trkpt>
      <trkpt lat="39.93436" lon="-.550241">
        <ele>616.249</ele>
        <time>2020-08-29T15:26:41Z</time>
      </trkpt>
      <trkpt lat="39.934339" lon="-.55017">
        <ele>615.767</ele>
        <time>2020-08-29T15:26:42Z</time>
      </trkpt>
      <trkpt lat="39.93432" lon="-.550097">
        <ele>615.587</ele>
        <time>2020-08-29T15:26:43Z</time>
      </trkpt>
      <trkpt lat="39.934301" lon="-.55003">
        <ele>615.533</ele>
        <time>2020-08-29T15:26:44Z</time>
      </trkpt>
      <trkpt lat="39.934278" lon="-.549961">
        <ele>615.523</ele>
        <time>2020-08-29T15:26:45Z</time>
      </trkpt>
      <trkpt lat="39.934257" lon="-.549895">
        <ele>615.015</ele>
        <time>2020-08-29T15:26:46Z</time>
      </trkpt>
      <trkpt lat="39.934236" lon="-.549822">
        <ele>615.008</ele>
        <time>2020-08-29T15:26:47Z</time>
      </trkpt>
      <trkpt lat="39.934213" lon="-.549754">
        <ele>616.018</ele>
        <time>2020-08-29T15:26:48Z</time>
      </trkpt>
      <trkpt lat="39.934189" lon="-.549683">
        <ele>615.018</ele>
        <time>2020-08-29T15:26:49Z</time>
      </trkpt>
      <trkpt lat="39.934167" lon="-.54962">
        <ele>615.050</ele>
        <time>2020-08-29T15:26:50Z</time>
      </trkpt>
      <trkpt lat="39.934123" lon="-.549538">
        <ele>615.582</ele>
        <time>2020-08-29T15:26:52Z</time>
      </trkpt>
      <trkpt lat="39.934099" lon="-.549483">
        <ele>614.760</ele>
        <time>2020-08-29T15:26:53Z</time>
      </trkpt>
      <trkpt lat="39.934079" lon="-.549386">
        <ele>614.797</ele>
        <time>2020-08-29T15:26:54Z</time>
      </trkpt>
      <trkpt lat="39.934059" lon="-.549317">
        <ele>614.435</ele>
        <time>2020-08-29T15:26:55Z</time>
      </trkpt>
      <trkpt lat="39.934021" lon="-.549241">
        <ele>614.365</ele>
        <time>2020-08-29T15:26:56Z</time>
      </trkpt>
      <trkpt lat="39.933996" lon="-.549174">
        <ele>613.995</ele>
        <time>2020-08-29T15:26:57Z</time>
      </trkpt>
      <trkpt lat="39.933942" lon="-.549079">
        <ele>613.849</ele>
        <time>2020-08-29T15:26:59Z</time>
      </trkpt>
      <trkpt lat="39.933914" lon="-.549031">
        <ele>613.723</ele>
        <time>2020-08-29T15:27:00Z</time>
      </trkpt>
      <trkpt lat="39.933885" lon="-.548935">
        <ele>613.708</ele>
        <time>2020-08-29T15:27:01Z</time>
      </trkpt>
      <trkpt lat="39.933828" lon="-.548845">
        <ele>613.544</ele>
        <time>2020-08-29T15:27:03Z</time>
      </trkpt>
      <trkpt lat="39.933795" lon="-.548767">
        <ele>613.594</ele>
        <time>2020-08-29T15:27:04Z</time>
      </trkpt>
      <trkpt lat="39.933752" lon="-.548706">
        <ele>613.526</ele>
        <time>2020-08-29T15:27:05Z</time>
      </trkpt>
      <trkpt lat="39.933706" lon="-.548642">
        <ele>614.058</ele>
        <time>2020-08-29T15:27:06Z</time>
      </trkpt>
      <trkpt lat="39.933651" lon="-.548575">
        <ele>613.736</ele>
        <time>2020-08-29T15:27:07Z</time>
      </trkpt>
      <trkpt lat="39.933611" lon="-.548521">
        <ele>613.233</ele>
        <time>2020-08-29T15:27:08Z</time>
      </trkpt>
      <trkpt lat="39.933556" lon="-.54846">
        <ele>612.671</ele>
        <time>2020-08-29T15:27:09Z</time>
      </trkpt>
      <trkpt lat="39.933513" lon="-.548401">
        <ele>612.331</ele>
        <time>2020-08-29T15:27:10Z</time>
      </trkpt>
      <trkpt lat="39.933468" lon="-.548363">
        <ele>612.139</ele>
        <time>2020-08-29T15:27:11Z</time>
      </trkpt>
      <trkpt lat="39.933423" lon="-.548301">
        <ele>611.401</ele>
        <time>2020-08-29T15:27:12Z</time>
      </trkpt>
      <trkpt lat="39.93337" lon="-.548248">
        <ele>611.421</ele>
        <time>2020-08-29T15:27:13Z</time>
      </trkpt>
      <trkpt lat="39.933304" lon="-.548211">
        <ele>612.408</ele>
        <time>2020-08-29T15:27:14Z</time>
      </trkpt>
      <trkpt lat="39.933245" lon="-.548182">
        <ele>612.428</ele>
        <time>2020-08-29T15:27:15Z</time>
      </trkpt>
      <trkpt lat="39.933189" lon="-.54814">
        <ele>611.758</ele>
        <time>2020-08-29T15:27:16Z</time>
      </trkpt>
      <trkpt lat="39.933134" lon="-.548099">
        <ele>611.760</ele>
        <time>2020-08-29T15:27:17Z</time>
      </trkpt>
      <trkpt lat="39.933082" lon="-.548061">
        <ele>611.772</ele>
        <time>2020-08-29T15:27:18Z</time>
      </trkpt>
      <trkpt lat="39.933035" lon="-.548024">
        <ele>611.760</ele>
        <time>2020-08-29T15:27:19Z</time>
      </trkpt>
      <trkpt lat="39.932979" lon="-.547985">
        <ele>611.527</ele>
        <time>2020-08-29T15:27:20Z</time>
      </trkpt>
      <trkpt lat="39.932931" lon="-.547954">
        <ele>611.345</ele>
        <time>2020-08-29T15:27:21Z</time>
      </trkpt>
      <trkpt lat="39.932884" lon="-.547937">
        <ele>611.355</ele>
        <time>2020-08-29T15:27:22Z</time>
      </trkpt>
      <trkpt lat="39.932837" lon="-.547901">
        <ele>611.292</ele>
        <time>2020-08-29T15:27:23Z</time>
      </trkpt>
      <trkpt lat="39.932789" lon="-.547862">
        <ele>611.173</ele>
        <time>2020-08-29T15:27:24Z</time>
      </trkpt>
      <trkpt lat="39.93275" lon="-.54783">
        <ele>611.020</ele>
        <time>2020-08-29T15:27:25Z</time>
      </trkpt>
      <trkpt lat="39.9327" lon="-.54781">
        <ele>610.208</ele>
        <time>2020-08-29T15:27:26Z</time>
      </trkpt>
      <trkpt lat="39.932658" lon="-.547782">
        <ele>610.254</ele>
        <time>2020-08-29T15:27:27Z</time>
      </trkpt>
      <trkpt lat="39.932612" lon="-.547756">
        <ele>609.964</ele>
        <time>2020-08-29T15:27:28Z</time>
      </trkpt>
      <trkpt lat="39.932563" lon="-.547717">
        <ele>609.676</ele>
        <time>2020-08-29T15:27:29Z</time>
      </trkpt>
      <trkpt lat="39.93252" lon="-.54768">
        <ele>609.538</ele>
        <time>2020-08-29T15:27:30Z</time>
      </trkpt>
      <trkpt lat="39.932474" lon="-.54765">
        <ele>609.476</ele>
        <time>2020-08-29T15:27:31Z</time>
      </trkpt>
      <trkpt lat="39.932425" lon="-.547603">
        <ele>609.363</ele>
        <time>2020-08-29T15:27:32Z</time>
      </trkpt>
      <trkpt lat="39.932381" lon="-.547569">
        <ele>609.331</ele>
        <time>2020-08-29T15:27:33Z</time>
      </trkpt>
      <trkpt lat="39.932339" lon="-.547537">
        <ele>609.331</ele>
        <time>2020-08-29T15:27:34Z</time>
      </trkpt>
      <trkpt lat="39.932287" lon="-.547509">
        <ele>609.162</ele>
        <time>2020-08-29T15:27:35Z</time>
      </trkpt>
      <trkpt lat="39.932232" lon="-.547481">
        <ele>608.883</ele>
        <time>2020-08-29T15:27:36Z</time>
      </trkpt>
      <trkpt lat="39.932186" lon="-.547454">
        <ele>608.611</ele>
        <time>2020-08-29T15:27:37Z</time>
      </trkpt>
      <trkpt lat="39.932135" lon="-.547432">
        <ele>608.508</ele>
        <time>2020-08-29T15:27:38Z</time>
      </trkpt>
      <trkpt lat="39.932091" lon="-.547399">
        <ele>608.531</ele>
        <time>2020-08-29T15:27:39Z</time>
      </trkpt>
      <trkpt lat="39.932039" lon="-.54737">
        <ele>608.381</ele>
        <time>2020-08-29T15:27:40Z</time>
      </trkpt>
      <trkpt lat="39.931989" lon="-.547338">
        <ele>608.413</ele>
        <time>2020-08-29T15:27:41Z</time>
      </trkpt>
      <trkpt lat="39.931941" lon="-.54732">
        <ele>608.355</ele>
        <time>2020-08-29T15:27:42Z</time>
      </trkpt>
      <trkpt lat="39.931885" lon="-.547304">
        <ele>608.263</ele>
        <time>2020-08-29T15:27:43Z</time>
      </trkpt>
      <trkpt lat="39.93184" lon="-.547272">
        <ele>607.790</ele>
        <time>2020-08-29T15:27:44Z</time>
      </trkpt>
      <trkpt lat="39.931773" lon="-.54725">
        <ele>607.848</ele>
        <time>2020-08-29T15:27:45Z</time>
      </trkpt>
      <trkpt lat="39.931711" lon="-.547233">
        <ele>607.828</ele>
        <time>2020-08-29T15:27:46Z</time>
      </trkpt>
      <trkpt lat="39.931659" lon="-.547214">
        <ele>607.851</ele>
        <time>2020-08-29T15:27:47Z</time>
      </trkpt>
      <trkpt lat="39.931606" lon="-.547205">
        <ele>608.001</ele>
        <time>2020-08-29T15:27:48Z</time>
      </trkpt>
      <trkpt lat="39.931553" lon="-.547202">
        <ele>608.011</ele>
        <time>2020-08-29T15:27:49Z</time>
      </trkpt>
      <trkpt lat="39.931501" lon="-.547193">
        <ele>607.908</ele>
        <time>2020-08-29T15:27:50Z</time>
      </trkpt>
      <trkpt lat="39.931449" lon="-.54718">
        <ele>607.780</ele>
        <time>2020-08-29T15:27:51Z</time>
      </trkpt>
      <trkpt lat="39.931386" lon="-.547176">
        <ele>607.690</ele>
        <time>2020-08-29T15:27:52Z</time>
      </trkpt>
      <trkpt lat="39.931333" lon="-.547178">
        <ele>607.332</ele>
        <time>2020-08-29T15:27:53Z</time>
      </trkpt>
      <trkpt lat="39.93128" lon="-.547161">
        <ele>607.014</ele>
        <time>2020-08-29T15:27:54Z</time>
      </trkpt>
      <trkpt lat="39.931222" lon="-.547143">
        <ele>606.822</ele>
        <time>2020-08-29T15:27:55Z</time>
      </trkpt>
      <trkpt lat="39.931163" lon="-.54715">
        <ele>606.679</ele>
        <time>2020-08-29T15:27:56Z</time>
      </trkpt>
      <trkpt lat="39.93111" lon="-.54716">
        <ele>606.617</ele>
        <time>2020-08-29T15:27:57Z</time>
      </trkpt>
      <trkpt lat="39.931061" lon="-.547175">
        <ele>606.567</ele>
        <time>2020-08-29T15:27:58Z</time>
      </trkpt>
      <trkpt lat="39.931008" lon="-.547176">
        <ele>606.315</ele>
        <time>2020-08-29T15:27:59Z</time>
      </trkpt>
      <trkpt lat="39.930957" lon="-.547187">
        <ele>606.165</ele>
        <time>2020-08-29T15:28:00Z</time>
      </trkpt>
      <trkpt lat="39.930906" lon="-.547202">
        <ele>606.011</ele>
        <time>2020-08-29T15:28:01Z</time>
      </trkpt>
      <trkpt lat="39.930851" lon="-.547229">
        <ele>605.908</ele>
        <time>2020-08-29T15:28:02Z</time>
      </trkpt>
      <trkpt lat="39.930797" lon="-.547247">
        <ele>605.576</ele>
        <time>2020-08-29T15:28:03Z</time>
      </trkpt>
      <trkpt lat="39.930749" lon="-.547253">
        <ele>605.426</ele>
        <time>2020-08-29T15:28:04Z</time>
      </trkpt>
      <trkpt lat="39.930697" lon="-.54727">
        <ele>605.388</ele>
        <time>2020-08-29T15:28:05Z</time>
      </trkpt>
      <trkpt lat="39.930644" lon="-.547297">
        <ele>604.570</ele>
        <time>2020-08-29T15:28:06Z</time>
      </trkpt>
      <trkpt lat="39.930586" lon="-.547308">
        <ele>604.088</ele>
        <time>2020-08-29T15:28:07Z</time>
      </trkpt>
      <trkpt lat="39.930536" lon="-.547329">
        <ele>604.045</ele>
        <time>2020-08-29T15:28:08Z</time>
      </trkpt>
      <trkpt lat="39.930476" lon="-.547359">
        <ele>604.123</ele>
        <time>2020-08-29T15:28:09Z</time>
      </trkpt>
      <trkpt lat="39.930419" lon="-.547398">
        <ele>604.163</ele>
        <time>2020-08-29T15:28:10Z</time>
      </trkpt>
      <trkpt lat="39.930372" lon="-.547436">
        <ele>603.978</ele>
        <time>2020-08-29T15:28:11Z</time>
      </trkpt>
      <trkpt lat="39.930314" lon="-.547466">
        <ele>603.933</ele>
        <time>2020-08-29T15:28:12Z</time>
      </trkpt>
      <trkpt lat="39.930258" lon="-.547499">
        <ele>603.926</ele>
        <time>2020-08-29T15:28:13Z</time>
      </trkpt>
      <trkpt lat="39.930206" lon="-.547539">
        <ele>603.608</ele>
        <time>2020-08-29T15:28:14Z</time>
      </trkpt>
      <trkpt lat="39.930153" lon="-.547588">
        <ele>603.612</ele>
        <time>2020-08-29T15:28:15Z</time>
      </trkpt>
      <trkpt lat="39.930111" lon="-.547631">
        <ele>604.012</ele>
        <time>2020-08-29T15:28:16Z</time>
      </trkpt>
      <trkpt lat="39.930058" lon="-.54768">
        <ele>604.024</ele>
        <time>2020-08-29T15:28:17Z</time>
      </trkpt>
      <trkpt lat="39.930007" lon="-.547721">
        <ele>603.686</ele>
        <time>2020-08-29T15:28:18Z</time>
      </trkpt>
      <trkpt lat="39.929946" lon="-.547772">
        <ele>603.674</ele>
        <time>2020-08-29T15:28:19Z</time>
      </trkpt>
      <trkpt lat="39.929893" lon="-.547827">
        <ele>603.391</ele>
        <time>2020-08-29T15:28:20Z</time>
      </trkpt>
      <trkpt lat="39.929865" lon="-.547877">
        <ele>603.269</ele>
        <time>2020-08-29T15:28:21Z</time>
      </trkpt>
      <trkpt lat="39.929815" lon="-.547929">
        <ele>602.859</ele>
        <time>2020-08-29T15:28:22Z</time>
      </trkpt>
      <trkpt lat="39.929769" lon="-.547973">
        <ele>602.859</ele>
        <time>2020-08-29T15:28:23Z</time>
      </trkpt>
      <trkpt lat="39.929722" lon="-.548026">
        <ele>602.803</ele>
        <time>2020-08-29T15:28:24Z</time>
      </trkpt>
      <trkpt lat="39.929679" lon="-.548071">
        <ele>602.723</ele>
        <time>2020-08-29T15:28:25Z</time>
      </trkpt>
      <trkpt lat="39.929641" lon="-.548125">
        <ele>602.708</ele>
        <time>2020-08-29T15:28:26Z</time>
      </trkpt>
      <trkpt lat="39.929604" lon="-.548188">
        <ele>602.520</ele>
        <time>2020-08-29T15:28:27Z</time>
      </trkpt>
      <trkpt lat="39.929569" lon="-.548244">
        <ele>602.050</ele>
        <time>2020-08-29T15:28:28Z</time>
      </trkpt>
      <trkpt lat="39.929536" lon="-.548293">
        <ele>601.922</ele>
        <time>2020-08-29T15:28:29Z</time>
      </trkpt>
      <trkpt lat="39.929496" lon="-.548358">
        <ele>601.554</ele>
        <time>2020-08-29T15:28:30Z</time>
      </trkpt>
      <trkpt lat="39.929458" lon="-.548425">
        <ele>601.372</ele>
        <time>2020-08-29T15:28:31Z</time>
      </trkpt>
      <trkpt lat="39.92942" lon="-.548498">
        <ele>601.359</ele>
        <time>2020-08-29T15:28:32Z</time>
      </trkpt>
      <trkpt lat="39.92938" lon="-.548557">
        <ele>601.397</ele>
        <time>2020-08-29T15:28:33Z</time>
      </trkpt>
      <trkpt lat="39.929341" lon="-.548625">
        <ele>601.087</ele>
        <time>2020-08-29T15:28:34Z</time>
      </trkpt>
      <trkpt lat="39.929306" lon="-.548688">
        <ele>601.062</ele>
        <time>2020-08-29T15:28:35Z</time>
      </trkpt>
      <trkpt lat="39.92927" lon="-.548739">
        <ele>601.083</ele>
        <time>2020-08-29T15:28:36Z</time>
      </trkpt>
      <trkpt lat="39.929237" lon="-.5488">
        <ele>601.011</ele>
        <time>2020-08-29T15:28:37Z</time>
      </trkpt>
      <trkpt lat="39.929203" lon="-.548858">
        <ele>600.708</ele>
        <time>2020-08-29T15:28:38Z</time>
      </trkpt>
      <trkpt lat="39.929169" lon="-.548919">
        <ele>600.651</ele>
        <time>2020-08-29T15:28:39Z</time>
      </trkpt>
      <trkpt lat="39.929133" lon="-.54899">
        <ele>600.551</ele>
        <time>2020-08-29T15:28:40Z</time>
      </trkpt>
      <trkpt lat="39.929099" lon="-.549056">
        <ele>600.313</ele>
        <time>2020-08-29T15:28:41Z</time>
      </trkpt>
      <trkpt lat="39.929056" lon="-.549128">
        <ele>600.485</ele>
        <time>2020-08-29T15:28:42Z</time>
      </trkpt>
      <trkpt lat="39.929024" lon="-.549197">
        <ele>600.183</ele>
        <time>2020-08-29T15:28:43Z</time>
      </trkpt>
      <trkpt lat="39.92899" lon="-.549265">
        <ele>600.050</ele>
        <time>2020-08-29T15:28:44Z</time>
      </trkpt>
      <trkpt lat="39.928962" lon="-.549321">
        <ele>599.778</ele>
        <time>2020-08-29T15:28:45Z</time>
      </trkpt>
      <trkpt lat="39.928927" lon="-.549384">
        <ele>599.198</ele>
        <time>2020-08-29T15:28:46Z</time>
      </trkpt>
      <trkpt lat="39.928888" lon="-.549443">
        <ele>599.095</ele>
        <time>2020-08-29T15:28:47Z</time>
      </trkpt>
      <trkpt lat="39.928856" lon="-.549506">
        <ele>598.749</ele>
        <time>2020-08-29T15:28:48Z</time>
      </trkpt>
      <trkpt lat="39.928836" lon="-.549576">
        <ele>598.723</ele>
        <time>2020-08-29T15:28:49Z</time>
      </trkpt>
      <trkpt lat="39.928817" lon="-.549652">
        <ele>598.708</ele>
        <time>2020-08-29T15:28:50Z</time>
      </trkpt>
      <trkpt lat="39.928795" lon="-.549717">
        <ele>598.534</ele>
        <time>2020-08-29T15:28:51Z</time>
      </trkpt>
      <trkpt lat="39.928775" lon="-.549784">
        <ele>598.224</ele>
        <time>2020-08-29T15:28:52Z</time>
      </trkpt>
      <trkpt lat="39.928755" lon="-.549856">
        <ele>598.226</ele>
        <time>2020-08-29T15:28:53Z</time>
      </trkpt>
      <trkpt lat="39.92874" lon="-.549927">
        <ele>598.128</ele>
        <time>2020-08-29T15:28:54Z</time>
      </trkpt>
      <trkpt lat="39.928715" lon="-.550048">
        <ele>597.846</ele>
        <time>2020-08-29T15:28:56Z</time>
      </trkpt>
      <trkpt lat="39.928698" lon="-.550106">
        <ele>597.763</ele>
        <time>2020-08-29T15:28:57Z</time>
      </trkpt>
      <trkpt lat="39.928681" lon="-.550171">
        <ele>597.621</ele>
        <time>2020-08-29T15:28:58Z</time>
      </trkpt>
      <trkpt lat="39.928667" lon="-.550236">
        <ele>597.331</ele>
        <time>2020-08-29T15:28:59Z</time>
      </trkpt>
      <trkpt lat="39.928658" lon="-.550301">
        <ele>597.277</ele>
        <time>2020-08-29T15:29:00Z</time>
      </trkpt>
      <trkpt lat="39.928647" lon="-.55037">
        <ele>597.261</ele>
        <time>2020-08-29T15:29:01Z</time>
      </trkpt>
      <trkpt lat="39.928638" lon="-.55044">
        <ele>597.027</ele>
        <time>2020-08-29T15:29:02Z</time>
      </trkpt>
      <trkpt lat="39.928631" lon="-.55051">
        <ele>597.008</ele>
        <time>2020-08-29T15:29:03Z</time>
      </trkpt>
      <trkpt lat="39.928622" lon="-.550572">
        <ele>596.892</ele>
        <time>2020-08-29T15:29:04Z</time>
      </trkpt>
      <trkpt lat="39.928611" lon="-.550643">
        <ele>596.822</ele>
        <time>2020-08-29T15:29:05Z</time>
      </trkpt>
      <trkpt lat="39.928597" lon="-.550706">
        <ele>596.744</ele>
        <time>2020-08-29T15:29:06Z</time>
      </trkpt>
      <trkpt lat="39.928585" lon="-.550779">
        <ele>596.456</ele>
        <time>2020-08-29T15:29:07Z</time>
      </trkpt>
      <trkpt lat="39.928577" lon="-.550847">
        <ele>596.414</ele>
        <time>2020-08-29T15:29:08Z</time>
      </trkpt>
      <trkpt lat="39.928574" lon="-.550914">
        <ele>596.151</ele>
        <time>2020-08-29T15:29:09Z</time>
      </trkpt>
      <trkpt lat="39.928572" lon="-.55099">
        <ele>596.049</ele>
        <time>2020-08-29T15:29:10Z</time>
      </trkpt>
      <trkpt lat="39.92857" lon="-.551058">
        <ele>595.849</ele>
        <time>2020-08-29T15:29:11Z</time>
      </trkpt>
      <trkpt lat="39.928569" lon="-.551123">
        <ele>595.884</ele>
        <time>2020-08-29T15:29:12Z</time>
      </trkpt>
      <trkpt lat="39.928565" lon="-.551209">
        <ele>595.507</ele>
        <time>2020-08-29T15:29:13Z</time>
      </trkpt>
      <trkpt lat="39.928568" lon="-.551286">
        <ele>595.517</ele>
        <time>2020-08-29T15:29:14Z</time>
      </trkpt>
      <trkpt lat="39.928566" lon="-.551344">
        <ele>595.508</ele>
        <time>2020-08-29T15:29:15Z</time>
      </trkpt>
      <trkpt lat="39.928569" lon="-.55141">
        <ele>595.233</ele>
        <time>2020-08-29T15:29:16Z</time>
      </trkpt>
      <trkpt lat="39.928575" lon="-.551477">
        <ele>595.293</ele>
        <time>2020-08-29T15:29:17Z</time>
      </trkpt>
      <trkpt lat="39.928577" lon="-.551539">
        <ele>595.075</ele>
        <time>2020-08-29T15:29:18Z</time>
      </trkpt>
      <trkpt lat="39.928568" lon="-.551609">
        <ele>594.887</ele>
        <time>2020-08-29T15:29:19Z</time>
      </trkpt>
      <trkpt lat="39.928567" lon="-.551683">
        <ele>594.835</ele>
        <time>2020-08-29T15:29:20Z</time>
      </trkpt>
      <trkpt lat="39.928556" lon="-.551751">
        <ele>594.732</ele>
        <time>2020-08-29T15:29:21Z</time>
      </trkpt>
      <trkpt lat="39.928556" lon="-.551824">
        <ele>594.720</ele>
        <time>2020-08-29T15:29:22Z</time>
      </trkpt>
      <trkpt lat="39.928566" lon="-.551904">
        <ele>594.680</ele>
        <time>2020-08-29T15:29:23Z</time>
      </trkpt>
      <trkpt lat="39.928565" lon="-.551978">
        <ele>594.461</ele>
        <time>2020-08-29T15:29:24Z</time>
      </trkpt>
      <trkpt lat="39.928566" lon="-.552049">
        <ele>594.221</ele>
        <time>2020-08-29T15:29:25Z</time>
      </trkpt>
      <trkpt lat="39.928567" lon="-.552121">
        <ele>593.813</ele>
        <time>2020-08-29T15:29:26Z</time>
      </trkpt>
      <trkpt lat="39.928566" lon="-.5522">
        <ele>593.608</ele>
        <time>2020-08-29T15:29:27Z</time>
      </trkpt>
      <trkpt lat="39.928565" lon="-.55227">
        <ele>593.371</ele>
        <time>2020-08-29T15:29:28Z</time>
      </trkpt>
      <trkpt lat="39.92857" lon="-.552348">
        <ele>593.361</ele>
        <time>2020-08-29T15:29:29Z</time>
      </trkpt>
      <trkpt lat="39.928573" lon="-.552416">
        <ele>593.343</ele>
        <time>2020-08-29T15:29:30Z</time>
      </trkpt>
      <trkpt lat="39.928571" lon="-.55248">
        <ele>593.395</ele>
        <time>2020-08-29T15:29:31Z</time>
      </trkpt>
      <trkpt lat="39.92858" lon="-.552561">
        <ele>593.143</ele>
        <time>2020-08-29T15:29:32Z</time>
      </trkpt>
      <trkpt lat="39.928585" lon="-.552645">
        <ele>593.190</ele>
        <time>2020-08-29T15:29:33Z</time>
      </trkpt>
      <trkpt lat="39.928587" lon="-.552729">
        <ele>593.048</ele>
        <time>2020-08-29T15:29:34Z</time>
      </trkpt>
      <trkpt lat="39.928578" lon="-.552787">
        <ele>593.028</ele>
        <time>2020-08-29T15:29:35Z</time>
      </trkpt>
      <trkpt lat="39.928572" lon="-.552856">
        <ele>592.738</ele>
        <time>2020-08-29T15:29:36Z</time>
      </trkpt>
      <trkpt lat="39.928572" lon="-.552942">
        <ele>592.570</ele>
        <time>2020-08-29T15:29:37Z</time>
      </trkpt>
      <trkpt lat="39.928577" lon="-.553033">
        <ele>592.517</ele>
        <time>2020-08-29T15:29:38Z</time>
      </trkpt>
      <trkpt lat="39.928584" lon="-.553124">
        <ele>592.308</ele>
        <time>2020-08-29T15:29:39Z</time>
      </trkpt>
      <trkpt lat="39.92858" lon="-.553199">
        <ele>592.268</ele>
        <time>2020-08-29T15:29:40Z</time>
      </trkpt>
      <trkpt lat="39.928577" lon="-.553283">
        <ele>592.218</ele>
        <time>2020-08-29T15:29:41Z</time>
      </trkpt>
      <trkpt lat="39.928578" lon="-.553373">
        <ele>592.510</ele>
        <time>2020-08-29T15:29:42Z</time>
      </trkpt>
      <trkpt lat="39.928589" lon="-.553443">
        <ele>592.532</ele>
        <time>2020-08-29T15:29:43Z</time>
      </trkpt>
      <trkpt lat="39.928589" lon="-.55351">
        <ele>592.390</ele>
        <time>2020-08-29T15:29:44Z</time>
      </trkpt>
      <trkpt lat="39.928592" lon="-.553603">
        <ele>592.367</ele>
        <time>2020-08-29T15:29:45Z</time>
      </trkpt>
      <trkpt lat="39.928597" lon="-.553692">
        <ele>592.355</ele>
        <time>2020-08-29T15:29:46Z</time>
      </trkpt>
      <trkpt lat="39.928601" lon="-.553769">
        <ele>592.145</ele>
        <time>2020-08-29T15:29:47Z</time>
      </trkpt>
      <trkpt lat="39.928594" lon="-.553832">
        <ele>591.924</ele>
        <time>2020-08-29T15:29:48Z</time>
      </trkpt>
      <trkpt lat="39.928601" lon="-.553899">
        <ele>591.704</ele>
        <time>2020-08-29T15:29:49Z</time>
      </trkpt>
      <trkpt lat="39.928609" lon="-.553971">
        <ele>591.714</ele>
        <time>2020-08-29T15:29:50Z</time>
      </trkpt>
      <trkpt lat="39.928608" lon="-.554037">
        <ele>591.708</ele>
        <time>2020-08-29T15:29:51Z</time>
      </trkpt>
      <trkpt lat="39.928603" lon="-.554104">
        <ele>591.437</ele>
        <time>2020-08-29T15:29:52Z</time>
      </trkpt>
      <trkpt lat="39.928594" lon="-.554179">
        <ele>591.477</ele>
        <time>2020-08-29T15:29:53Z</time>
      </trkpt>
      <trkpt lat="39.928585" lon="-.554249">
        <ele>591.489</ele>
        <time>2020-08-29T15:29:54Z</time>
      </trkpt>
      <trkpt lat="39.928584" lon="-.554314">
        <ele>591.871</ele>
        <time>2020-08-29T15:29:55Z</time>
      </trkpt>
      <trkpt lat="39.928585" lon="-.55443">
        <ele>591.199</ele>
        <time>2020-08-29T15:29:57Z</time>
      </trkpt>
      <trkpt lat="39.92859" lon="-.554494">
        <ele>591.166</ele>
        <time>2020-08-29T15:29:58Z</time>
      </trkpt>
      <trkpt lat="39.928591" lon="-.554586">
        <ele>591.184</ele>
        <time>2020-08-29T15:29:59Z</time>
      </trkpt>
      <trkpt lat="39.928582" lon="-.554678">
        <ele>590.334</ele>
        <time>2020-08-29T15:30:00Z</time>
      </trkpt>
      <trkpt lat="39.92858" lon="-.554757">
        <ele>590.369</ele>
        <time>2020-08-29T15:30:01Z</time>
      </trkpt>
      <trkpt lat="39.928588" lon="-.554841">
        <ele>590.504</ele>
        <time>2020-08-29T15:30:02Z</time>
      </trkpt>
      <trkpt lat="39.928589" lon="-.554923">
        <ele>590.524</ele>
        <time>2020-08-29T15:30:03Z</time>
      </trkpt>
      <trkpt lat="39.928589" lon="-.55501">
        <ele>590.508</ele>
        <time>2020-08-29T15:30:04Z</time>
      </trkpt>
      <trkpt lat="39.928594" lon="-.555094">
        <ele>590.221</ele>
        <time>2020-08-29T15:30:05Z</time>
      </trkpt>
      <trkpt lat="39.928603" lon="-.555173">
        <ele>590.271</ele>
        <time>2020-08-29T15:30:06Z</time>
      </trkpt>
      <trkpt lat="39.928597" lon="-.55525">
        <ele>590.413</ele>
        <time>2020-08-29T15:30:07Z</time>
      </trkpt>
      <trkpt lat="39.92859" lon="-.555346">
        <ele>590.455</ele>
        <time>2020-08-29T15:30:08Z</time>
      </trkpt>
      <trkpt lat="39.928594" lon="-.555442">
        <ele>590.483</ele>
        <time>2020-08-29T15:30:09Z</time>
      </trkpt>
      <trkpt lat="39.928604" lon="-.555524">
        <ele>590.170</ele>
        <time>2020-08-29T15:30:10Z</time>
      </trkpt>
      <trkpt lat="39.928605" lon="-.555612">
        <ele>590.178</ele>
        <time>2020-08-29T15:30:11Z</time>
      </trkpt>
      <trkpt lat="39.928609" lon="-.555703">
        <ele>590.578</ele>
        <time>2020-08-29T15:30:12Z</time>
      </trkpt>
      <trkpt lat="39.928599" lon="-.555787">
        <ele>589.944</ele>
        <time>2020-08-29T15:30:13Z</time>
      </trkpt>
      <trkpt lat="39.928606" lon="-.555873">
        <ele>589.805</ele>
        <time>2020-08-29T15:30:14Z</time>
      </trkpt>
      <trkpt lat="39.928614" lon="-.555958">
        <ele>589.815</ele>
        <time>2020-08-29T15:30:15Z</time>
      </trkpt>
      <trkpt lat="39.928613" lon="-.55604">
        <ele>589.808</ele>
        <time>2020-08-29T15:30:16Z</time>
      </trkpt>
      <trkpt lat="39.928614" lon="-.556114">
        <ele>589.329</ele>
        <time>2020-08-29T15:30:17Z</time>
      </trkpt>
      <trkpt lat="39.928617" lon="-.556175">
        <ele>589.239</ele>
        <time>2020-08-29T15:30:18Z</time>
      </trkpt>
      <trkpt lat="39.928616" lon="-.556254">
        <ele>589.261</ele>
        <time>2020-08-29T15:30:19Z</time>
      </trkpt>
      <trkpt lat="39.92861" lon="-.556313">
        <ele>589.333</ele>
        <time>2020-08-29T15:30:20Z</time>
      </trkpt>
      <trkpt lat="39.928605" lon="-.556384">
        <ele>589.311</ele>
        <time>2020-08-29T15:30:21Z</time>
      </trkpt>
      <trkpt lat="39.928611" lon="-.556458">
        <ele>589.398</ele>
        <time>2020-08-29T15:30:22Z</time>
      </trkpt>
      <trkpt lat="39.928616" lon="-.556528">
        <ele>589.746</ele>
        <time>2020-08-29T15:30:23Z</time>
      </trkpt>
      <trkpt lat="39.928621" lon="-.556603">
        <ele>590.096</ele>
        <time>2020-08-29T15:30:24Z</time>
      </trkpt>
      <trkpt lat="39.928621" lon="-.556672">
        <ele>590.169</ele>
        <time>2020-08-29T15:30:25Z</time>
      </trkpt>
      <trkpt lat="39.928621" lon="-.556746">
        <ele>590.104</ele>
        <time>2020-08-29T15:30:26Z</time>
      </trkpt>
      <trkpt lat="39.928626" lon="-.556822">
        <ele>590.124</ele>
        <time>2020-08-29T15:30:27Z</time>
      </trkpt>
      <trkpt lat="39.928629" lon="-.556891">
        <ele>590.008</ele>
        <time>2020-08-29T15:30:28Z</time>
      </trkpt>
      <trkpt lat="39.928624" lon="-.556955">
        <ele>589.811</ele>
        <time>2020-08-29T15:30:29Z</time>
      </trkpt>
      <trkpt lat="39.928622" lon="-.557019">
        <ele>589.771</ele>
        <time>2020-08-29T15:30:30Z</time>
      </trkpt>
      <trkpt lat="39.928624" lon="-.557139">
        <ele>589.963</ele>
        <time>2020-08-29T15:30:32Z</time>
      </trkpt>
      <trkpt lat="39.928626" lon="-.557247">
        <ele>589.765</ele>
        <time>2020-08-29T15:30:34Z</time>
      </trkpt>
      <trkpt lat="39.928628" lon="-.557352">
        <ele>590.153</ele>
        <time>2020-08-29T15:30:36Z</time>
      </trkpt>
      <trkpt lat="39.928622" lon="-.557448">
        <ele>591.060</ele>
        <time>2020-08-29T15:30:38Z</time>
      </trkpt>
      <trkpt lat="39.928615" lon="-.557546">
        <ele>590.898</ele>
        <time>2020-08-29T15:30:40Z</time>
      </trkpt>
      <trkpt lat="39.928625" lon="-.557654">
        <ele>590.798</ele>
        <time>2020-08-29T15:30:42Z</time>
      </trkpt>
      <trkpt lat="39.928634" lon="-.557765">
        <ele>590.778</ele>
        <time>2020-08-29T15:30:44Z</time>
      </trkpt>
      <trkpt lat="39.928631" lon="-.557823">
        <ele>590.633</ele>
        <time>2020-08-29T15:30:45Z</time>
      </trkpt>
      <trkpt lat="39.928624" lon="-.557932">
        <ele>590.626</ele>
        <time>2020-08-29T15:30:47Z</time>
      </trkpt>
      <trkpt lat="39.928625" lon="-.558029">
        <ele>590.608</ele>
        <time>2020-08-29T15:30:49Z</time>
      </trkpt>
      <trkpt lat="39.928635" lon="-.558139">
        <ele>590.242</ele>
        <time>2020-08-29T15:30:51Z</time>
      </trkpt>
      <trkpt lat="39.928628" lon="-.55825">
        <ele>589.652</ele>
        <time>2020-08-29T15:30:53Z</time>
      </trkpt>
      <trkpt lat="39.928628" lon="-.558322">
        <ele>589.674</ele>
        <time>2020-08-29T15:30:54Z</time>
      </trkpt>
      <trkpt lat="39.928628" lon="-.558396">
        <ele>589.726</ele>
        <time>2020-08-29T15:30:55Z</time>
      </trkpt>
      <trkpt lat="39.928634" lon="-.558476">
        <ele>590.344</ele>
        <time>2020-08-29T15:30:56Z</time>
      </trkpt>
      <trkpt lat="39.92864" lon="-.558564">
        <ele>590.321</ele>
        <time>2020-08-29T15:30:57Z</time>
      </trkpt>
      <trkpt lat="39.928637" lon="-.558637">
        <ele>590.389</ele>
        <time>2020-08-29T15:30:58Z</time>
      </trkpt>
      <trkpt lat="39.928626" lon="-.558705">
        <ele>590.349</ele>
        <time>2020-08-29T15:30:59Z</time>
      </trkpt>
      <trkpt lat="39.928626" lon="-.558775">
        <ele>590.329</ele>
        <time>2020-08-29T15:31:00Z</time>
      </trkpt>
      <trkpt lat="39.928627" lon="-.558867">
        <ele>590.400</ele>
        <time>2020-08-29T15:31:01Z</time>
      </trkpt>
      <trkpt lat="39.928617" lon="-.558959">
        <ele>590.620</ele>
        <time>2020-08-29T15:31:02Z</time>
      </trkpt>
      <trkpt lat="39.928631" lon="-.559036">
        <ele>590.608</ele>
        <time>2020-08-29T15:31:03Z</time>
      </trkpt>
      <trkpt lat="39.92863" lon="-.559118">
        <ele>590.667</ele>
        <time>2020-08-29T15:31:04Z</time>
      </trkpt>
      <trkpt lat="39.928625" lon="-.559187">
        <ele>590.337</ele>
        <time>2020-08-29T15:31:05Z</time>
      </trkpt>
      <trkpt lat="39.928613" lon="-.559289">
        <ele>589.789</ele>
        <time>2020-08-29T15:31:06Z</time>
      </trkpt>
      <trkpt lat="39.928616" lon="-.559358">
        <ele>589.621</ele>
        <time>2020-08-29T15:31:07Z</time>
      </trkpt>
      <trkpt lat="39.928612" lon="-.559432">
        <ele>589.289</ele>
        <time>2020-08-29T15:31:08Z</time>
      </trkpt>
      <trkpt lat="39.9286" lon="-.559506">
        <ele>589.286</ele>
        <time>2020-08-29T15:31:09Z</time>
      </trkpt>
      <trkpt lat="39.928595" lon="-.559573">
        <ele>588.884</ele>
        <time>2020-08-29T15:31:10Z</time>
      </trkpt>
      <trkpt lat="39.928591" lon="-.559642">
        <ele>588.614</ele>
        <time>2020-08-29T15:31:11Z</time>
      </trkpt>
      <trkpt lat="39.92858" lon="-.559706">
        <ele>588.453</ele>
        <time>2020-08-29T15:31:12Z</time>
      </trkpt>
      <trkpt lat="39.928589" lon="-.5598">
        <ele>588.304</ele>
        <time>2020-08-29T15:31:13Z</time>
      </trkpt>
      <trkpt lat="39.92861" lon="-.559895">
        <ele>588.214</ele>
        <time>2020-08-29T15:31:14Z</time>
      </trkpt>
      <trkpt lat="39.92864" lon="-.559995">
        <ele>588.208</ele>
        <time>2020-08-29T15:31:15Z</time>
      </trkpt>
      <trkpt lat="39.928656" lon="-.56009">
        <ele>588.020</ele>
        <time>2020-08-29T15:31:16Z</time>
      </trkpt>
      <trkpt lat="39.928667" lon="-.560167">
        <ele>588.210</ele>
        <time>2020-08-29T15:31:17Z</time>
      </trkpt>
      <trkpt lat="39.928674" lon="-.560239">
        <ele>588.062</ele>
        <time>2020-08-29T15:31:18Z</time>
      </trkpt>
      <trkpt lat="39.928678" lon="-.560316">
        <ele>588.284</ele>
        <time>2020-08-29T15:31:19Z</time>
      </trkpt>
      <trkpt lat="39.928684" lon="-.560392">
        <ele>588.292</ele>
        <time>2020-08-29T15:31:20Z</time>
      </trkpt>
      <trkpt lat="39.928685" lon="-.56047">
        <ele>588.259</ele>
        <time>2020-08-29T15:31:21Z</time>
      </trkpt>
      <trkpt lat="39.928688" lon="-.560549">
        <ele>588.097</ele>
        <time>2020-08-29T15:31:22Z</time>
      </trkpt>
      <trkpt lat="39.928695" lon="-.560622">
        <ele>587.797</ele>
        <time>2020-08-29T15:31:23Z</time>
      </trkpt>
      <trkpt lat="39.928695" lon="-.5607">
        <ele>587.273</ele>
        <time>2020-08-29T15:31:24Z</time>
      </trkpt>
      <trkpt lat="39.928693" lon="-.560784">
        <ele>587.185</ele>
        <time>2020-08-29T15:31:25Z</time>
      </trkpt>
      <trkpt lat="39.928684" lon="-.560863">
        <ele>587.513</ele>
        <time>2020-08-29T15:31:26Z</time>
      </trkpt>
      <trkpt lat="39.928689" lon="-.56094">
        <ele>587.708</ele>
        <time>2020-08-29T15:31:27Z</time>
      </trkpt>
      <trkpt lat="39.928685" lon="-.561028">
        <ele>587.792</ele>
        <time>2020-08-29T15:31:28Z</time>
      </trkpt>
      <trkpt lat="39.928689" lon="-.561106">
        <ele>587.762</ele>
        <time>2020-08-29T15:31:29Z</time>
      </trkpt>
      <trkpt lat="39.928695" lon="-.56119">
        <ele>586.994</ele>
        <time>2020-08-29T15:31:30Z</time>
      </trkpt>
      <trkpt lat="39.928694" lon="-.561273">
        <ele>586.816</ele>
        <time>2020-08-29T15:31:31Z</time>
      </trkpt>
      <trkpt lat="39.928693" lon="-.561347">
        <ele>586.894</ele>
        <time>2020-08-29T15:31:32Z</time>
      </trkpt>
      <trkpt lat="39.9287" lon="-.561413">
        <ele>587.021</ele>
        <time>2020-08-29T15:31:33Z</time>
      </trkpt>
      <trkpt lat="39.928699" lon="-.561481">
        <ele>587.279</ele>
        <time>2020-08-29T15:31:34Z</time>
      </trkpt>
      <trkpt lat="39.928698" lon="-.561544">
        <ele>587.899</ele>
        <time>2020-08-29T15:31:35Z</time>
      </trkpt>
      <trkpt lat="39.928698" lon="-.561648">
        <ele>587.666</ele>
        <time>2020-08-29T15:31:37Z</time>
      </trkpt>
      <trkpt lat="39.928717" lon="-.561734">
        <ele>585.529</ele>
        <time>2020-08-29T15:32:25Z</time>
      </trkpt>
      <trkpt lat="39.928716" lon="-.561812">
        <ele>585.021</ele>
        <time>2020-08-29T15:32:32Z</time>
      </trkpt>
      <trkpt lat="39.928711" lon="-.56188">
        <ele>585.508</ele>
        <time>2020-08-29T15:32:35Z</time>
      </trkpt>
      <trkpt lat="39.928702" lon="-.561966">
        <ele>585.531</ele>
        <time>2020-08-29T15:32:37Z</time>
      </trkpt>
      <trkpt lat="39.928682" lon="-.562058">
        <ele>586.091</ele>
        <time>2020-08-29T15:32:39Z</time>
      </trkpt>
      <trkpt lat="39.928678" lon="-.562154">
        <ele>586.093</ele>
        <time>2020-08-29T15:32:41Z</time>
      </trkpt>
      <trkpt lat="39.928666" lon="-.562238">
        <ele>585.955</ele>
        <time>2020-08-29T15:32:43Z</time>
      </trkpt>
      <trkpt lat="39.928653" lon="-.562295">
        <ele>585.213</ele>
        <time>2020-08-29T15:32:44Z</time>
      </trkpt>
      <trkpt lat="39.92862" lon="-.562377">
        <ele>584.790</ele>
        <time>2020-08-29T15:32:46Z</time>
      </trkpt>
      <trkpt lat="39.92859" lon="-.562466">
        <ele>585.418</ele>
        <time>2020-08-29T15:32:48Z</time>
      </trkpt>
      <trkpt lat="39.928542" lon="-.56256">
        <ele>585.848</ele>
        <time>2020-08-29T15:32:50Z</time>
      </trkpt>
      <trkpt lat="39.928501" lon="-.562649">
        <ele>585.247</ele>
        <time>2020-08-29T15:32:52Z</time>
      </trkpt>
      <trkpt lat="39.928457" lon="-.562726">
        <ele>584.729</ele>
        <time>2020-08-29T15:32:54Z</time>
      </trkpt>
      <trkpt lat="39.928423" lon="-.562836">
        <ele>585.021</ele>
        <time>2020-08-29T15:32:56Z</time>
      </trkpt>
      <trkpt lat="39.92839" lon="-.562917">
        <ele>585.408</ele>
        <time>2020-08-29T15:32:58Z</time>
      </trkpt>
      <trkpt lat="39.928349" lon="-.562992">
        <ele>585.529</ele>
        <time>2020-08-29T15:33:00Z</time>
      </trkpt>
      <trkpt lat="39.928308" lon="-.563024">
        <ele>585.739</ele>
        <time>2020-08-29T15:33:01Z</time>
      </trkpt>
      <trkpt lat="39.928269" lon="-.563075">
        <ele>585.751</ele>
        <time>2020-08-29T15:33:02Z</time>
      </trkpt>
      <trkpt lat="39.928232" lon="-.563132">
        <ele>585.553</ele>
        <time>2020-08-29T15:33:03Z</time>
      </trkpt>
      <trkpt lat="39.928159" lon="-.563213">
        <ele>584.621</ele>
        <time>2020-08-29T15:33:05Z</time>
      </trkpt>
      <trkpt lat="39.928123" lon="-.563254">
        <ele>584.018</ele>
        <time>2020-08-29T15:33:06Z</time>
      </trkpt>
      <trkpt lat="39.928087" lon="-.563295">
        <ele>584.036</ele>
        <time>2020-08-29T15:33:07Z</time>
      </trkpt>
      <trkpt lat="39.928044" lon="-.563341">
        <ele>584.346</ele>
        <time>2020-08-29T15:33:08Z</time>
      </trkpt>
      <trkpt lat="39.928004" lon="-.56339">
        <ele>584.798</ele>
        <time>2020-08-29T15:33:09Z</time>
      </trkpt>
      <trkpt lat="39.927953" lon="-.563449">
        <ele>585.115</ele>
        <time>2020-08-29T15:33:10Z</time>
      </trkpt>
      <trkpt lat="39.927911" lon="-.563511">
        <ele>585.126</ele>
        <time>2020-08-29T15:33:11Z</time>
      </trkpt>
      <trkpt lat="39.927834" lon="-.563604">
        <ele>584.708</ele>
        <time>2020-08-29T15:33:13Z</time>
      </trkpt>
      <trkpt lat="39.92779" lon="-.563661">
        <ele>584.364</ele>
        <time>2020-08-29T15:33:14Z</time>
      </trkpt>
      <trkpt lat="39.927736" lon="-.563699">
        <ele>584.384</ele>
        <time>2020-08-29T15:33:15Z</time>
      </trkpt>
      <trkpt lat="39.927698" lon="-.563737">
        <ele>584.246</ele>
        <time>2020-08-29T15:33:16Z</time>
      </trkpt>
      <trkpt lat="39.927628" lon="-.563786">
        <ele>583.918</ele>
        <time>2020-08-29T15:33:18Z</time>
      </trkpt>
      <trkpt lat="39.927587" lon="-.56381">
        <ele>583.996</ele>
        <time>2020-08-29T15:33:19Z</time>
      </trkpt>
      <trkpt lat="39.927539" lon="-.563836">
        <ele>583.983</ele>
        <time>2020-08-29T15:33:20Z</time>
      </trkpt>
      <trkpt lat="39.927496" lon="-.563862">
        <ele>583.711</ele>
        <time>2020-08-29T15:33:21Z</time>
      </trkpt>
      <trkpt lat="39.927456" lon="-.56389">
        <ele>583.671</ele>
        <time>2020-08-29T15:33:22Z</time>
      </trkpt>
      <trkpt lat="39.927404" lon="-.563927">
        <ele>583.783</ele>
        <time>2020-08-29T15:33:23Z</time>
      </trkpt>
      <trkpt lat="39.927357" lon="-.563974">
        <ele>583.625</ele>
        <time>2020-08-29T15:33:24Z</time>
      </trkpt>
      <trkpt lat="39.927302" lon="-.564016">
        <ele>583.517</ele>
        <time>2020-08-29T15:33:25Z</time>
      </trkpt>
      <trkpt lat="39.92725" lon="-.564055">
        <ele>583.208</ele>
        <time>2020-08-29T15:33:26Z</time>
      </trkpt>
      <trkpt lat="39.927201" lon="-.564092">
        <ele>583.243</ele>
        <time>2020-08-29T15:33:27Z</time>
      </trkpt>
      <trkpt lat="39.927155" lon="-.564117">
        <ele>583.273</ele>
        <time>2020-08-29T15:33:28Z</time>
      </trkpt>
      <trkpt lat="39.927114" lon="-.564168">
        <ele>583.385</ele>
        <time>2020-08-29T15:33:29Z</time>
      </trkpt>
      <trkpt lat="39.927075" lon="-.564208">
        <ele>583.447</ele>
        <time>2020-08-29T15:33:30Z</time>
      </trkpt>
      <trkpt lat="39.927026" lon="-.564248">
        <ele>583.495</ele>
        <time>2020-08-29T15:33:31Z</time>
      </trkpt>
      <trkpt lat="39.926981" lon="-.56428">
        <ele>583.472</ele>
        <time>2020-08-29T15:33:32Z</time>
      </trkpt>
      <trkpt lat="39.926938" lon="-.564317">
        <ele>583.460</ele>
        <time>2020-08-29T15:33:33Z</time>
      </trkpt>
      <trkpt lat="39.926883" lon="-.564345">
        <ele>583.210</ele>
        <time>2020-08-29T15:33:34Z</time>
      </trkpt>
      <trkpt lat="39.926828" lon="-.564391">
        <ele>583.279</ele>
        <time>2020-08-29T15:33:35Z</time>
      </trkpt>
      <trkpt lat="39.926791" lon="-.564445">
        <ele>583.005</ele>
        <time>2020-08-29T15:33:36Z</time>
      </trkpt>
      <trkpt lat="39.926746" lon="-.564495">
        <ele>583.125</ele>
        <time>2020-08-29T15:33:37Z</time>
      </trkpt>
      <trkpt lat="39.926705" lon="-.564555">
        <ele>583.108</ele>
        <time>2020-08-29T15:33:38Z</time>
      </trkpt>
      <trkpt lat="39.926659" lon="-.564599">
        <ele>583.112</ele>
        <time>2020-08-29T15:33:39Z</time>
      </trkpt>
      <trkpt lat="39.926617" lon="-.564631">
        <ele>583.042</ele>
        <time>2020-08-29T15:33:40Z</time>
      </trkpt>
      <trkpt lat="39.926559" lon="-.564663">
        <ele>582.074</ele>
        <time>2020-08-29T15:33:41Z</time>
      </trkpt>
      <trkpt lat="39.926524" lon="-.564706">
        <ele>582.016</ele>
        <time>2020-08-29T15:33:42Z</time>
      </trkpt>
      <trkpt lat="39.926456" lon="-.564742">
        <ele>582.864</ele>
        <time>2020-08-29T15:33:44Z</time>
      </trkpt>
      <trkpt lat="39.926403" lon="-.564772">
        <ele>583.151</ele>
        <time>2020-08-29T15:33:45Z</time>
      </trkpt>
      <trkpt lat="39.926363" lon="-.56482">
        <ele>583.729</ele>
        <time>2020-08-29T15:33:46Z</time>
      </trkpt>
      <trkpt lat="39.926325" lon="-.564864">
        <ele>583.729</ele>
        <time>2020-08-29T15:33:47Z</time>
      </trkpt>
      <trkpt lat="39.92628" lon="-.564894">
        <ele>583.376</ele>
        <time>2020-08-29T15:33:48Z</time>
      </trkpt>
      <trkpt lat="39.926232" lon="-.564882">
        <ele>583.190</ele>
        <time>2020-08-29T15:33:49Z</time>
      </trkpt>
      <trkpt lat="39.926186" lon="-.564933">
        <ele>583.019</ele>
        <time>2020-08-29T15:33:50Z</time>
      </trkpt>
      <trkpt lat="39.926142" lon="-.564957">
        <ele>582.008</ele>
        <time>2020-08-29T15:33:51Z</time>
      </trkpt>
      <trkpt lat="39.926099" lon="-.565004">
        <ele>581.562</ele>
        <time>2020-08-29T15:33:52Z</time>
      </trkpt>
      <trkpt lat="39.926042" lon="-.565058">
        <ele>581.572</ele>
        <time>2020-08-29T15:33:53Z</time>
      </trkpt>
      <trkpt lat="39.925989" lon="-.565105">
        <ele>582.194</ele>
        <time>2020-08-29T15:33:54Z</time>
      </trkpt>
      <trkpt lat="39.925941" lon="-.565153">
        <ele>582.126</ele>
        <time>2020-08-29T15:33:55Z</time>
      </trkpt>
      <trkpt lat="39.925894" lon="-.565195">
        <ele>582.234</ele>
        <time>2020-08-29T15:33:56Z</time>
      </trkpt>
      <trkpt lat="39.925847" lon="-.565238">
        <ele>582.031</ele>
        <time>2020-08-29T15:33:57Z</time>
      </trkpt>
      <trkpt lat="39.925798" lon="-.565268">
        <ele>582.029</ele>
        <time>2020-08-29T15:33:58Z</time>
      </trkpt>
      <trkpt lat="39.925749" lon="-.56528">
        <ele>582.079</ele>
        <time>2020-08-29T15:33:59Z</time>
      </trkpt>
      <trkpt lat="39.925703" lon="-.56533">
        <ele>581.415</ele>
        <time>2020-08-29T15:34:00Z</time>
      </trkpt>
      <trkpt lat="39.925675" lon="-.565397">
        <ele>581.465</ele>
        <time>2020-08-29T15:34:01Z</time>
      </trkpt>
      <trkpt lat="39.925597" lon="-.565479">
        <ele>582.111</ele>
        <time>2020-08-29T15:34:03Z</time>
      </trkpt>
      <trkpt lat="39.925535" lon="-.565507">
        <ele>581.608</ele>
        <time>2020-08-29T15:34:04Z</time>
      </trkpt>
      <trkpt lat="39.925485" lon="-.565533">
        <ele>581.566</ele>
        <time>2020-08-29T15:34:05Z</time>
      </trkpt>
      <trkpt lat="39.925432" lon="-.565564">
        <ele>581.276</ele>
        <time>2020-08-29T15:34:06Z</time>
      </trkpt>
      <trkpt lat="39.925391" lon="-.565604">
        <ele>581.088</ele>
        <time>2020-08-29T15:34:07Z</time>
      </trkpt>
      <trkpt lat="39.925349" lon="-.56565">
        <ele>580.860</ele>
        <time>2020-08-29T15:34:08Z</time>
      </trkpt>
      <trkpt lat="39.925274" lon="-.565729">
        <ele>580.928</ele>
        <time>2020-08-29T15:34:10Z</time>
      </trkpt>
      <trkpt lat="39.92523" lon="-.565758">
        <ele>581.235</ele>
        <time>2020-08-29T15:34:11Z</time>
      </trkpt>
      <trkpt lat="39.92519" lon="-.565792">
        <ele>581.253</ele>
        <time>2020-08-29T15:34:12Z</time>
      </trkpt>
      <trkpt lat="39.925146" lon="-.565842">
        <ele>580.733</ele>
        <time>2020-08-29T15:34:14Z</time>
      </trkpt>
      <trkpt lat="39.925076" lon="-.565888">
        <ele>580.598</ele>
        <time>2020-08-29T15:34:16Z</time>
      </trkpt>
      <trkpt lat="39.925015" lon="-.565905">
        <ele>580.415</ele>
        <time>2020-08-29T15:34:17Z</time>
      </trkpt>
      <trkpt lat="39.92493" lon="-.565968">
        <ele>580.326</ele>
        <time>2020-08-29T15:34:19Z</time>
      </trkpt>
      <trkpt lat="39.924855" lon="-.566005">
        <ele>580.308</ele>
        <time>2020-08-29T15:34:21Z</time>
      </trkpt>
      <trkpt lat="39.924808" lon="-.56603">
        <ele>580.364</ele>
        <time>2020-08-29T15:34:22Z</time>
      </trkpt>
      <trkpt lat="39.924768" lon="-.566067">
        <ele>580.724</ele>
        <time>2020-08-29T15:34:23Z</time>
      </trkpt>
      <trkpt lat="39.924719" lon="-.566097">
        <ele>580.786</ele>
        <time>2020-08-29T15:34:24Z</time>
      </trkpt>
      <trkpt lat="39.924665" lon="-.566143">
        <ele>580.728</ele>
        <time>2020-08-29T15:34:25Z</time>
      </trkpt>
      <trkpt lat="39.924621" lon="-.566177">
        <ele>580.636</ele>
        <time>2020-08-29T15:34:26Z</time>
      </trkpt>
      <trkpt lat="39.924579" lon="-.566207">
        <ele>580.523</ele>
        <time>2020-08-29T15:34:27Z</time>
      </trkpt>
      <trkpt lat="39.924503" lon="-.56627">
        <ele>579.631</ele>
        <time>2020-08-29T15:34:29Z</time>
      </trkpt>
      <trkpt lat="39.924461" lon="-.566299">
        <ele>579.581</ele>
        <time>2020-08-29T15:34:30Z</time>
      </trkpt>
      <trkpt lat="39.92442" lon="-.56633">
        <ele>579.322</ele>
        <time>2020-08-29T15:34:31Z</time>
      </trkpt>
      <trkpt lat="39.924381" lon="-.56637">
        <ele>579.562</ele>
        <time>2020-08-29T15:34:32Z</time>
      </trkpt>
      <trkpt lat="39.92434" lon="-.56641">
        <ele>579.808</ele>
        <time>2020-08-29T15:34:33Z</time>
      </trkpt>
      <trkpt lat="39.9243" lon="-.566446">
        <ele>579.908</ele>
        <time>2020-08-29T15:34:34Z</time>
      </trkpt>
      <trkpt lat="39.924232" lon="-.566502">
        <ele>579.987</ele>
        <time>2020-08-29T15:34:36Z</time>
      </trkpt>
      <trkpt lat="39.924196" lon="-.566543">
        <ele>579.977</ele>
        <time>2020-08-29T15:34:38Z</time>
      </trkpt>
      <trkpt lat="39.924147" lon="-.566578">
        <ele>579.959</ele>
        <time>2020-08-29T15:34:39Z</time>
      </trkpt>
      <trkpt lat="39.924099" lon="-.56661">
        <ele>579.521</ele>
        <time>2020-08-29T15:34:40Z</time>
      </trkpt>
      <trkpt lat="39.924059" lon="-.566639">
        <ele>579.449</ele>
        <time>2020-08-29T15:34:41Z</time>
      </trkpt>
      <trkpt lat="39.923989" lon="-.566683">
        <ele>578.996</ele>
        <time>2020-08-29T15:34:43Z</time>
      </trkpt>
      <trkpt lat="39.923929" lon="-.56675">
        <ele>578.864</ele>
        <time>2020-08-29T15:34:45Z</time>
      </trkpt>
      <trkpt lat="39.923877" lon="-.566789">
        <ele>578.614</ele>
        <time>2020-08-29T15:34:46Z</time>
      </trkpt>
      <trkpt lat="39.923834" lon="-.566817">
        <ele>578.515</ele>
        <time>2020-08-29T15:34:47Z</time>
      </trkpt>
      <trkpt lat="39.923757" lon="-.566876">
        <ele>578.265</ele>
        <time>2020-08-29T15:34:49Z</time>
      </trkpt>
      <trkpt lat="39.923718" lon="-.566912">
        <ele>578.211</ele>
        <time>2020-08-29T15:34:50Z</time>
      </trkpt>
      <trkpt lat="39.923667" lon="-.566966">
        <ele>578.108</ele>
        <time>2020-08-29T15:34:51Z</time>
      </trkpt>
      <trkpt lat="39.923624" lon="-.566992">
        <ele>577.696</ele>
        <time>2020-08-29T15:34:52Z</time>
      </trkpt>
      <trkpt lat="39.923578" lon="-.567025">
        <ele>577.396</ele>
        <time>2020-08-29T15:34:53Z</time>
      </trkpt>
      <trkpt lat="39.923518" lon="-.567064">
        <ele>577.038</ele>
        <time>2020-08-29T15:34:55Z</time>
      </trkpt>
      <trkpt lat="39.923472" lon="-.567088">
        <ele>577.260</ele>
        <time>2020-08-29T15:34:56Z</time>
      </trkpt>
      <trkpt lat="39.923427" lon="-.56714">
        <ele>578.268</ele>
        <time>2020-08-29T15:34:57Z</time>
      </trkpt>
      <trkpt lat="39.923387" lon="-.567192">
        <ele>578.355</ele>
        <time>2020-08-29T15:34:58Z</time>
      </trkpt>
      <trkpt lat="39.923355" lon="-.567238">
        <ele>578.313</ele>
        <time>2020-08-29T15:34:59Z</time>
      </trkpt>
      <trkpt lat="39.923311" lon="-.567298">
        <ele>578.353</ele>
        <time>2020-08-29T15:35:00Z</time>
      </trkpt>
      <trkpt lat="39.923274" lon="-.56736">
        <ele>578.326</ele>
        <time>2020-08-29T15:35:01Z</time>
      </trkpt>
      <trkpt lat="39.923243" lon="-.567407">
        <ele>577.947</ele>
        <time>2020-08-29T15:35:02Z</time>
      </trkpt>
      <trkpt lat="39.923211" lon="-.567455">
        <ele>577.211</ele>
        <time>2020-08-29T15:35:03Z</time>
      </trkpt>
      <trkpt lat="39.923182" lon="-.567507">
        <ele>577.108</ele>
        <time>2020-08-29T15:35:04Z</time>
      </trkpt>
      <trkpt lat="39.923151" lon="-.567561">
        <ele>577.117</ele>
        <time>2020-08-29T15:35:05Z</time>
      </trkpt>
      <trkpt lat="39.92313" lon="-.567623">
        <ele>577.067</ele>
        <time>2020-08-29T15:35:06Z</time>
      </trkpt>
      <trkpt lat="39.923101" lon="-.567672">
        <ele>576.969</ele>
        <time>2020-08-29T15:35:07Z</time>
      </trkpt>
      <trkpt lat="39.923075" lon="-.567724">
        <ele>576.521</ele>
        <time>2020-08-29T15:35:08Z</time>
      </trkpt>
      <trkpt lat="39.923011" lon="-.567781">
        <ele>576.219</ele>
        <time>2020-08-29T15:35:10Z</time>
      </trkpt>
      <trkpt lat="39.922982" lon="-.567826">
        <ele>576.126</ele>
        <time>2020-08-29T15:35:11Z</time>
      </trkpt>
      <trkpt lat="39.922952" lon="-.567871">
        <ele>576.044</ele>
        <time>2020-08-29T15:35:12Z</time>
      </trkpt>
      <trkpt lat="39.922892" lon="-.567949">
        <ele>576.084</ele>
        <time>2020-08-29T15:35:14Z</time>
      </trkpt>
      <trkpt lat="39.922831" lon="-.568024">
        <ele>575.663</ele>
        <time>2020-08-29T15:35:16Z</time>
      </trkpt>
      <trkpt lat="39.922766" lon="-.568101">
        <ele>575.244</ele>
        <time>2020-08-29T15:35:19Z</time>
      </trkpt>
      <trkpt lat="39.92271" lon="-.568174">
        <ele>575.118</ele>
        <time>2020-08-29T15:35:20Z</time>
      </trkpt>
      <trkpt lat="39.922674" lon="-.568288">
        <ele>574.808</ele>
        <time>2020-08-29T15:35:21Z</time>
      </trkpt>
      <trkpt lat="39.922646" lon="-.568377">
        <ele>574.771</ele>
        <time>2020-08-29T15:35:22Z</time>
      </trkpt>
      <trkpt lat="39.922613" lon="-.568425">
        <ele>574.661</ele>
        <time>2020-08-29T15:35:23Z</time>
      </trkpt>
      <trkpt lat="39.922565" lon="-.568555">
        <ele>574.623</ele>
        <time>2020-08-29T15:35:24Z</time>
      </trkpt>
      <trkpt lat="39.922524" lon="-.568661">
        <ele>574.525</ele>
        <time>2020-08-29T15:35:25Z</time>
      </trkpt>
      <trkpt lat="39.922492" lon="-.568755">
        <ele>574.313</ele>
        <time>2020-08-29T15:35:26Z</time>
      </trkpt>
      <trkpt lat="39.922455" lon="-.568813">
        <ele>574.140</ele>
        <time>2020-08-29T15:35:27Z</time>
      </trkpt>
      <trkpt lat="39.922444" lon="-.568887">
        <ele>574.188</ele>
        <time>2020-08-29T15:35:28Z</time>
      </trkpt>
      <trkpt lat="39.922411" lon="-.568938">
        <ele>573.738</ele>
        <time>2020-08-29T15:35:29Z</time>
      </trkpt>
      <trkpt lat="39.92237" lon="-.568982">
        <ele>573.767</ele>
        <time>2020-08-29T15:35:30Z</time>
      </trkpt>
      <trkpt lat="39.922332" lon="-.569087">
        <ele>573.581</ele>
        <time>2020-08-29T15:35:32Z</time>
      </trkpt>
      <trkpt lat="39.922309" lon="-.569139">
        <ele>573.319</ele>
        <time>2020-08-29T15:35:33Z</time>
      </trkpt>
      <trkpt lat="39.922285" lon="-.56919">
        <ele>573.208</ele>
        <time>2020-08-29T15:35:34Z</time>
      </trkpt>
      <trkpt lat="39.922239" lon="-.569286">
        <ele>572.931</ele>
        <time>2020-08-29T15:35:36Z</time>
      </trkpt>
      <trkpt lat="39.922215" lon="-.56934">
        <ele>572.821</ele>
        <time>2020-08-29T15:35:37Z</time>
      </trkpt>
      <trkpt lat="39.922192" lon="-.569391">
        <ele>572.753</ele>
        <time>2020-08-29T15:35:38Z</time>
      </trkpt>
      <trkpt lat="39.922166" lon="-.569477">
        <ele>572.645</ele>
        <time>2020-08-29T15:35:39Z</time>
      </trkpt>
      <trkpt lat="39.919373" lon="-.574218">
        <ele>561.023</ele>
        <time>2020-08-29T15:38:40Z</time>
      </trkpt>
      <trkpt lat="39.91919" lon="-.574713">
        <ele>560.660</ele>
        <time>2020-08-29T15:38:41Z</time>
      </trkpt>
      <trkpt lat="39.919116" lon="-.57475">
        <ele>560.188</ele>
        <time>2020-08-29T15:38:43Z</time>
      </trkpt>
      <trkpt lat="39.91905" lon="-.574773">
        <ele>559.638</ele>
        <time>2020-08-29T15:38:45Z</time>
      </trkpt>
      <trkpt lat="39.918999" lon="-.574818">
        <ele>559.349</ele>
        <time>2020-08-29T15:38:47Z</time>
      </trkpt>
      <trkpt lat="39.918942" lon="-.574859">
        <ele>559.202</ele>
        <time>2020-08-29T15:38:49Z</time>
      </trkpt>
      <trkpt lat="39.918883" lon="-.574909">
        <ele>559.122</ele>
        <time>2020-08-29T15:38:51Z</time>
      </trkpt>
      <trkpt lat="39.918812" lon="-.574958">
        <ele>559.008</ele>
        <time>2020-08-29T15:38:53Z</time>
      </trkpt>
      <trkpt lat="39.918733" lon="-.575012">
        <ele>558.849</ele>
        <time>2020-08-29T15:38:55Z</time>
      </trkpt>
      <trkpt lat="39.918648" lon="-.575048">
        <ele>558.429</ele>
        <time>2020-08-29T15:38:57Z</time>
      </trkpt>
      <trkpt lat="39.918575" lon="-.575099">
        <ele>558.071</ele>
        <time>2020-08-29T15:38:59Z</time>
      </trkpt>
      <trkpt lat="39.918499" lon="-.57514">
        <ele>557.793</ele>
        <time>2020-08-29T15:39:01Z</time>
      </trkpt>
      <trkpt lat="39.918423" lon="-.575165">
        <ele>557.691</ele>
        <time>2020-08-29T15:39:03Z</time>
      </trkpt>
      <trkpt lat="39.918344" lon="-.5752">
        <ele>557.478</ele>
        <time>2020-08-29T15:39:05Z</time>
      </trkpt>
      <trkpt lat="39.918269" lon="-.575219">
        <ele>557.216</ele>
        <time>2020-08-29T15:39:07Z</time>
      </trkpt>
      <trkpt lat="39.918193" lon="-.57521">
        <ele>557.656</ele>
        <time>2020-08-29T15:39:09Z</time>
      </trkpt>
      <trkpt lat="39.918124" lon="-.575157">
        <ele>557.815</ele>
        <time>2020-08-29T15:39:11Z</time>
      </trkpt>
      <trkpt lat="39.918066" lon="-.575106">
        <ele>557.965</ele>
        <time>2020-08-29T15:39:13Z</time>
      </trkpt>
      <trkpt lat="39.918002" lon="-.575062">
        <ele>557.811</ele>
        <time>2020-08-29T15:39:15Z</time>
      </trkpt>
      <trkpt lat="39.917929" lon="-.575099">
        <ele>557.908</ele>
        <time>2020-08-29T15:39:16Z</time>
      </trkpt>
      <trkpt lat="39.917873" lon="-.575108">
        <ele>558.046</ele>
        <time>2020-08-29T15:39:17Z</time>
      </trkpt>
      <trkpt lat="39.917807" lon="-.575173">
        <ele>558.046</ele>
        <time>2020-08-29T15:39:18Z</time>
      </trkpt>
      <trkpt lat="39.917767" lon="-.575215">
        <ele>557.948</ele>
        <time>2020-08-29T15:39:19Z</time>
      </trkpt>
      <trkpt lat="39.917695" lon="-.575207">
        <ele>557.730</ele>
        <time>2020-08-29T15:39:21Z</time>
      </trkpt>
      <trkpt lat="39.917599" lon="-.575173">
        <ele>557.788</ele>
        <time>2020-08-29T15:39:23Z</time>
      </trkpt>
      <trkpt lat="39.917556" lon="-.575151">
        <ele>557.625</ele>
        <time>2020-08-29T15:39:24Z</time>
      </trkpt>
      <trkpt lat="39.917504" lon="-.575131">
        <ele>557.583</ele>
        <time>2020-08-29T15:39:25Z</time>
      </trkpt>
      <trkpt lat="39.917453" lon="-.57512">
        <ele>557.583</ele>
        <time>2020-08-29T15:39:26Z</time>
      </trkpt>
      <trkpt lat="39.917404" lon="-.575102">
        <ele>557.384</ele>
        <time>2020-08-29T15:39:27Z</time>
      </trkpt>
      <trkpt lat="39.917345" lon="-.575084">
        <ele>556.907</ele>
        <time>2020-08-29T15:39:28Z</time>
      </trkpt>
      <trkpt lat="39.917293" lon="-.575065">
        <ele>556.617</ele>
        <time>2020-08-29T15:39:29Z</time>
      </trkpt>
      <trkpt lat="39.917242" lon="-.575042">
        <ele>556.408</ele>
        <time>2020-08-29T15:39:30Z</time>
      </trkpt>
      <trkpt lat="39.917196" lon="-.575012">
        <ele>556.413</ele>
        <time>2020-08-29T15:39:31Z</time>
      </trkpt>
      <trkpt lat="39.917159" lon="-.574976">
        <ele>556.423</ele>
        <time>2020-08-29T15:39:32Z</time>
      </trkpt>
      <trkpt lat="39.917078" lon="-.57491">
        <ele>556.255</ele>
        <time>2020-08-29T15:39:34Z</time>
      </trkpt>
      <trkpt lat="39.917032" lon="-.574882">
        <ele>556.017</ele>
        <time>2020-08-29T15:39:35Z</time>
      </trkpt>
      <trkpt lat="39.916953" lon="-.574821">
        <ele>555.335</ele>
        <time>2020-08-29T15:39:37Z</time>
      </trkpt>
      <trkpt lat="39.916915" lon="-.574787">
        <ele>555.072</ele>
        <time>2020-08-29T15:39:38Z</time>
      </trkpt>
      <trkpt lat="39.916851" lon="-.574743">
        <ele>554.580</ele>
        <time>2020-08-29T15:39:40Z</time>
      </trkpt>
      <trkpt lat="39.916799" lon="-.574689">
        <ele>554.280</ele>
        <time>2020-08-29T15:39:42Z</time>
      </trkpt>
      <trkpt lat="39.916757" lon="-.574666">
        <ele>554.069</ele>
        <time>2020-08-29T15:39:43Z</time>
      </trkpt>
      <trkpt lat="39.916717" lon="-.574621">
        <ele>554.004</ele>
        <time>2020-08-29T15:39:44Z</time>
      </trkpt>
      <trkpt lat="39.916639" lon="-.574547">
        <ele>554.124</ele>
        <time>2020-08-29T15:39:46Z</time>
      </trkpt>
      <trkpt lat="39.916561" lon="-.574497">
        <ele>554.408</ele>
        <time>2020-08-29T15:39:48Z</time>
      </trkpt>
      <trkpt lat="39.916509" lon="-.574461">
        <ele>554.361</ele>
        <time>2020-08-29T15:39:49Z</time>
      </trkpt>
      <trkpt lat="39.916455" lon="-.57442">
        <ele>553.461</ele>
        <time>2020-08-29T15:39:50Z</time>
      </trkpt>
      <trkpt lat="39.916402" lon="-.574381">
        <ele>553.463</ele>
        <time>2020-08-29T15:39:51Z</time>
      </trkpt>
      <trkpt lat="39.916345" lon="-.574344">
        <ele>553.465</ele>
        <time>2020-08-29T15:39:52Z</time>
      </trkpt>
      <trkpt lat="39.916298" lon="-.574314">
        <ele>553.333</ele>
        <time>2020-08-29T15:39:53Z</time>
      </trkpt>
      <trkpt lat="39.916249" lon="-.574279">
        <ele>553.240</ele>
        <time>2020-08-29T15:39:54Z</time>
      </trkpt>
      <trkpt lat="39.916195" lon="-.574254">
        <ele>553.398</ele>
        <time>2020-08-29T15:39:55Z</time>
      </trkpt>
      <trkpt lat="39.916149" lon="-.574216">
        <ele>553.158</ele>
        <time>2020-08-29T15:39:56Z</time>
      </trkpt>
      <trkpt lat="39.916106" lon="-.574178">
        <ele>553.177</ele>
        <time>2020-08-29T15:39:57Z</time>
      </trkpt>
      <trkpt lat="39.916057" lon="-.574156">
        <ele>552.561</ele>
        <time>2020-08-29T15:39:58Z</time>
      </trkpt>
      <trkpt lat="39.916012" lon="-.574135">
        <ele>552.127</ele>
        <time>2020-08-29T15:39:59Z</time>
      </trkpt>
      <trkpt lat="39.91597" lon="-.574083">
        <ele>552.008</ele>
        <time>2020-08-29T15:40:00Z</time>
      </trkpt>
      <trkpt lat="39.915923" lon="-.574039">
        <ele>551.182</ele>
        <time>2020-08-29T15:40:01Z</time>
      </trkpt>
      <trkpt lat="39.915881" lon="-.573999">
        <ele>551.142</ele>
        <time>2020-08-29T15:40:02Z</time>
      </trkpt>
      <trkpt lat="39.915836" lon="-.573957">
        <ele>551.534</ele>
        <time>2020-08-29T15:40:03Z</time>
      </trkpt>
      <trkpt lat="39.915789" lon="-.57392">
        <ele>551.696</ele>
        <time>2020-08-29T15:40:04Z</time>
      </trkpt>
      <trkpt lat="39.915748" lon="-.573881">
        <ele>551.664</ele>
        <time>2020-08-29T15:40:05Z</time>
      </trkpt>
      <trkpt lat="39.915706" lon="-.57384">
        <ele>552.561</ele>
        <time>2020-08-29T15:40:06Z</time>
      </trkpt>
      <trkpt lat="39.915631" lon="-.573779">
        <ele>552.499</ele>
        <time>2020-08-29T15:40:08Z</time>
      </trkpt>
      <trkpt lat="39.915593" lon="-.573736">
        <ele>552.289</ele>
        <time>2020-08-29T15:40:09Z</time>
      </trkpt>
      <trkpt lat="39.915545" lon="-.5737">
        <ele>551.662</ele>
        <time>2020-08-29T15:40:10Z</time>
      </trkpt>
      <trkpt lat="39.915501" lon="-.573662">
        <ele>551.583</ele>
        <time>2020-08-29T15:40:11Z</time>
      </trkpt>
      <trkpt lat="39.915433" lon="-.573598">
        <ele>551.411</ele>
        <time>2020-08-29T15:40:13Z</time>
      </trkpt>
      <trkpt lat="39.915371" lon="-.573534">
        <ele>551.608</ele>
        <time>2020-08-29T15:40:15Z</time>
      </trkpt>
      <trkpt lat="39.915297" lon="-.573481">
        <ele>551.551</ele>
        <time>2020-08-29T15:40:17Z</time>
      </trkpt>
      <trkpt lat="39.915263" lon="-.573441">
        <ele>551.731</ele>
        <time>2020-08-29T15:40:18Z</time>
      </trkpt>
      <trkpt lat="39.915195" lon="-.573377">
        <ele>552.043</ele>
        <time>2020-08-29T15:40:20Z</time>
      </trkpt>
      <trkpt lat="39.915166" lon="-.573314">
        <ele>551.725</ele>
        <time>2020-08-29T15:40:22Z</time>
      </trkpt>
      <trkpt lat="39.91511" lon="-.573274">
        <ele>551.113</ele>
        <time>2020-08-29T15:40:37Z</time>
      </trkpt>
      <trkpt lat="39.915078" lon="-.573206">
        <ele>549.710</ele>
        <time>2020-08-29T15:40:39Z</time>
      </trkpt>
      <trkpt lat="39.91505" lon="-.573143">
        <ele>547.478</ele>
        <time>2020-08-29T15:40:41Z</time>
      </trkpt>
      <trkpt lat="39.915045" lon="-.573076">
        <ele>548.758</ele>
        <time>2020-08-29T15:40:43Z</time>
      </trkpt>
      <trkpt lat="39.914999" lon="-.573009">
        <ele>548.973</ele>
        <time>2020-08-29T15:40:45Z</time>
      </trkpt>
      <trkpt lat="39.914956" lon="-.572955">
        <ele>549.485</ele>
        <time>2020-08-29T15:40:47Z</time>
      </trkpt>
      <trkpt lat="39.914907" lon="-.572901">
        <ele>549.913</ele>
        <time>2020-08-29T15:40:49Z</time>
      </trkpt>
      <trkpt lat="39.914876" lon="-.572838">
        <ele>549.708</ele>
        <time>2020-08-29T15:40:51Z</time>
      </trkpt>
      <trkpt lat="39.914817" lon="-.57276">
        <ele>550.682</ele>
        <time>2020-08-29T15:40:53Z</time>
      </trkpt>
      <trkpt lat="39.914773" lon="-.572714">
        <ele>551.532</ele>
        <time>2020-08-29T15:40:55Z</time>
      </trkpt>
      <trkpt lat="39.914766" lon="-.572645">
        <ele>551.224</ele>
        <time>2020-08-29T15:40:57Z</time>
      </trkpt>
      <trkpt lat="39.914726" lon="-.572617">
        <ele>550.596</ele>
        <time>2020-08-29T15:41:01Z</time>
      </trkpt>
      <trkpt lat="39.914699" lon="-.572569">
        <ele>550.254</ele>
        <time>2020-08-29T15:41:03Z</time>
      </trkpt>
      <trkpt lat="39.914716" lon="-.572496">
        <ele>549.551</ele>
        <time>2020-08-29T15:41:05Z</time>
      </trkpt>
      <trkpt lat="39.914696" lon="-.572399">
        <ele>548.919</ele>
        <time>2020-08-29T15:41:07Z</time>
      </trkpt>
      <trkpt lat="39.914671" lon="-.572347">
        <ele>549.069</ele>
        <time>2020-08-29T15:41:08Z</time>
      </trkpt>
      <trkpt lat="39.914662" lon="-.572285">
        <ele>549.152</ele>
        <time>2020-08-29T15:41:09Z</time>
      </trkpt>
      <trkpt lat="39.914664" lon="-.572222">
        <ele>549.153</ele>
        <time>2020-08-29T15:41:10Z</time>
      </trkpt>
      <trkpt lat="39.914641" lon="-.572154">
        <ele>548.808</ele>
        <time>2020-08-29T15:41:12Z</time>
      </trkpt>
      <trkpt lat="39.914621" lon="-.5721">
        <ele>548.308</ele>
        <time>2020-08-29T15:41:14Z</time>
      </trkpt>
      <trkpt lat="39.914609" lon="-.572031">
        <ele>548.340</ele>
        <time>2020-08-29T15:41:16Z</time>
      </trkpt>
      <trkpt lat="39.914593" lon="-.571971">
        <ele>548.110</ele>
        <time>2020-08-29T15:41:18Z</time>
      </trkpt>
      <trkpt lat="39.914581" lon="-.571896">
        <ele>547.632</ele>
        <time>2020-08-29T15:41:20Z</time>
      </trkpt>
      <trkpt lat="39.914548" lon="-.571824">
        <ele>547.314</ele>
        <time>2020-08-29T15:41:24Z</time>
      </trkpt>
      <trkpt lat="39.914532" lon="-.57176">
        <ele>547.192</ele>
        <time>2020-08-29T15:41:27Z</time>
      </trkpt>
      <trkpt lat="39.914503" lon="-.571685">
        <ele>546.849</ele>
        <time>2020-08-29T15:41:31Z</time>
      </trkpt>
      <trkpt lat="39.914477" lon="-.571621">
        <ele>546.137</ele>
        <time>2020-08-29T15:41:52Z</time>
      </trkpt>
      <trkpt lat="39.914461" lon="-.571551">
        <ele>546.477</ele>
        <time>2020-08-29T15:42:14Z</time>
      </trkpt>
      <trkpt lat="39.914447" lon="-.571469">
        <ele>546.329</ele>
        <time>2020-08-29T15:42:17Z</time>
      </trkpt>
      <trkpt lat="39.914446" lon="-.571385">
        <ele>546.000</ele>
        <time>2020-08-29T15:42:19Z</time>
      </trkpt>
      <trkpt lat="39.914418" lon="-.571311">
        <ele>545.720</ele>
        <time>2020-08-29T15:42:21Z</time>
      </trkpt>
      <trkpt lat="39.914371" lon="-.571261">
        <ele>545.708</ele>
        <time>2020-08-29T15:42:22Z</time>
      </trkpt>
      <trkpt lat="39.914312" lon="-.571216">
        <ele>545.667</ele>
        <time>2020-08-29T15:42:24Z</time>
      </trkpt>
      <trkpt lat="39.914276" lon="-.571177">
        <ele>545.197</ele>
        <time>2020-08-29T15:42:26Z</time>
      </trkpt>
      <trkpt lat="39.914188" lon="-.571278">
        <ele>544.759</ele>
        <time>2020-08-29T15:42:28Z</time>
      </trkpt>
      <trkpt lat="39.914067" lon="-.571316">
        <ele>544.611</ele>
        <time>2020-08-29T15:42:29Z</time>
      </trkpt>
      <trkpt lat="39.914021" lon="-.571322">
        <ele>544.459</ele>
        <time>2020-08-29T15:42:30Z</time>
      </trkpt>
      <trkpt lat="39.913964" lon="-.571354">
        <ele>543.916</ele>
        <time>2020-08-29T15:42:31Z</time>
      </trkpt>
      <trkpt lat="39.913918" lon="-.571399">
        <ele>543.824</ele>
        <time>2020-08-29T15:42:32Z</time>
      </trkpt>
      <trkpt lat="39.913879" lon="-.571439">
        <ele>543.824</ele>
        <time>2020-08-29T15:42:33Z</time>
      </trkpt>
      <trkpt lat="39.913835" lon="-.571454">
        <ele>543.884</ele>
        <time>2020-08-29T15:42:34Z</time>
      </trkpt>
      <trkpt lat="39.913794" lon="-.571482">
        <ele>543.807</ele>
        <time>2020-08-29T15:42:35Z</time>
      </trkpt>
      <trkpt lat="39.913723" lon="-.571539">
        <ele>543.717</ele>
        <time>2020-08-29T15:42:37Z</time>
      </trkpt>
      <trkpt lat="39.913656" lon="-.5716">
        <ele>543.708</ele>
        <time>2020-08-29T15:42:39Z</time>
      </trkpt>
      <trkpt lat="39.91358" lon="-.57164">
        <ele>543.683</ele>
        <time>2020-08-29T15:42:41Z</time>
      </trkpt>
      <trkpt lat="39.913514" lon="-.57169">
        <ele>543.643</ele>
        <time>2020-08-29T15:42:43Z</time>
      </trkpt>
      <trkpt lat="39.913451" lon="-.571721">
        <ele>543.415</ele>
        <time>2020-08-29T15:42:45Z</time>
      </trkpt>
      <trkpt lat="39.913389" lon="-.571765">
        <ele>543.267</ele>
        <time>2020-08-29T15:42:47Z</time>
      </trkpt>
      <trkpt lat="39.913342" lon="-.571809">
        <ele>542.625</ele>
        <time>2020-08-29T15:42:49Z</time>
      </trkpt>
      <trkpt lat="39.913264" lon="-.571824">
        <ele>542.032</ele>
        <time>2020-08-29T15:42:51Z</time>
      </trkpt>
      <trkpt lat="39.913199" lon="-.571915">
        <ele>541.660</ele>
        <time>2020-08-29T15:42:53Z</time>
      </trkpt>
      <trkpt lat="39.913164" lon="-.571953">
        <ele>541.630</ele>
        <time>2020-08-29T15:42:54Z</time>
      </trkpt>
      <trkpt lat="39.913102" lon="-.572008">
        <ele>541.511</ele>
        <time>2020-08-29T15:42:56Z</time>
      </trkpt>
      <trkpt lat="39.913033" lon="-.57205">
        <ele>541.421</ele>
        <time>2020-08-29T15:42:58Z</time>
      </trkpt>
      <trkpt lat="39.912991" lon="-.57208">
        <ele>541.303</ele>
        <time>2020-08-29T15:42:59Z</time>
      </trkpt>
      <trkpt lat="39.912951" lon="-.572113">
        <ele>541.208</ele>
        <time>2020-08-29T15:43:00Z</time>
      </trkpt>
      <trkpt lat="39.912884" lon="-.5722">
        <ele>541.146</ele>
        <time>2020-08-29T15:43:02Z</time>
      </trkpt>
      <trkpt lat="39.912839" lon="-.572217">
        <ele>541.116</ele>
        <time>2020-08-29T15:43:03Z</time>
      </trkpt>
      <trkpt lat="39.91279" lon="-.572243">
        <ele>541.148</ele>
        <time>2020-08-29T15:43:04Z</time>
      </trkpt>
      <trkpt lat="39.912713" lon="-.572304">
        <ele>540.920</ele>
        <time>2020-08-29T15:43:06Z</time>
      </trkpt>
      <trkpt lat="39.912636" lon="-.572343">
        <ele>540.758</ele>
        <time>2020-08-29T15:43:08Z</time>
      </trkpt>
      <trkpt lat="39.912594" lon="-.572389">
        <ele>540.665</ele>
        <time>2020-08-29T15:43:11Z</time>
      </trkpt>
      <trkpt lat="39.912589" lon="-.572304">
        <ele>540.523</ele>
        <time>2020-08-29T15:43:14Z</time>
      </trkpt>
      <trkpt lat="39.912587" lon="-.572185">
        <ele>540.373</ele>
        <time>2020-08-29T15:43:16Z</time>
      </trkpt>
      <trkpt lat="39.912591" lon="-.572121">
        <ele>540.251</ele>
        <time>2020-08-29T15:43:17Z</time>
      </trkpt>
      <trkpt lat="39.912583" lon="-.572029">
        <ele>540.001</ele>
        <time>2020-08-29T15:43:19Z</time>
      </trkpt>
      <trkpt lat="39.912559" lon="-.571977">
        <ele>540.011</ele>
        <time>2020-08-29T15:43:20Z</time>
      </trkpt>
      <trkpt lat="39.91252" lon="-.571894">
        <ele>539.908</ele>
        <time>2020-08-29T15:43:22Z</time>
      </trkpt>
      <trkpt lat="39.912472" lon="-.571829">
        <ele>539.650</ele>
        <time>2020-08-29T15:43:24Z</time>
      </trkpt>
      <trkpt lat="39.912463" lon="-.571705">
        <ele>539.080</ele>
        <time>2020-08-29T15:43:26Z</time>
      </trkpt>
      <trkpt lat="39.912443" lon="-.571626">
        <ele>538.772</ele>
        <time>2020-08-29T15:43:27Z</time>
      </trkpt>
      <trkpt lat="39.912426" lon="-.571564">
        <ele>538.474</ele>
        <time>2020-08-29T15:43:28Z</time>
      </trkpt>
      <trkpt lat="39.912411" lon="-.571503">
        <ele>538.212</ele>
        <time>2020-08-29T15:43:29Z</time>
      </trkpt>
      <trkpt lat="39.912403" lon="-.571444">
        <ele>537.959</ele>
        <time>2020-08-29T15:43:30Z</time>
      </trkpt>
      <trkpt lat="39.912385" lon="-.571389">
        <ele>537.597</ele>
        <time>2020-08-29T15:43:31Z</time>
      </trkpt>
      <trkpt lat="39.912304" lon="-.571292">
        <ele>537.177</ele>
        <time>2020-08-29T15:43:33Z</time>
      </trkpt>
      <trkpt lat="39.912251" lon="-.571245">
        <ele>537.056</ele>
        <time>2020-08-29T15:43:34Z</time>
      </trkpt>
      <trkpt lat="39.9122" lon="-.571203">
        <ele>537.059</ele>
        <time>2020-08-29T15:43:35Z</time>
      </trkpt>
      <trkpt lat="39.912165" lon="-.571158">
        <ele>537.114</ele>
        <time>2020-08-29T15:43:36Z</time>
      </trkpt>
      <trkpt lat="39.912107" lon="-.57107">
        <ele>537.308</ele>
        <time>2020-08-29T15:43:38Z</time>
      </trkpt>
      <trkpt lat="39.912068" lon="-.570997">
        <ele>537.840</ele>
        <time>2020-08-29T15:43:40Z</time>
      </trkpt>
      <trkpt lat="39.912018" lon="-.570967">
        <ele>538.080</ele>
        <time>2020-08-29T15:43:43Z</time>
      </trkpt>
      <trkpt lat="39.911984" lon="-.57092">
        <ele>537.922</ele>
        <time>2020-08-29T15:43:47Z</time>
      </trkpt>
      <trkpt lat="39.911919" lon="-.570838">
        <ele>538.084</ele>
        <time>2020-08-29T15:43:50Z</time>
      </trkpt>
      <trkpt lat="39.911879" lon="-.570803">
        <ele>538.052</ele>
        <time>2020-08-29T15:43:51Z</time>
      </trkpt>
      <trkpt lat="39.911816" lon="-.570728">
        <ele>537.949</ele>
        <time>2020-08-29T15:43:53Z</time>
      </trkpt>
      <trkpt lat="39.911772" lon="-.570678">
        <ele>537.847</ele>
        <time>2020-08-29T15:43:55Z</time>
      </trkpt>
      <trkpt lat="39.911733" lon="-.570638">
        <ele>537.867</ele>
        <time>2020-08-29T15:43:57Z</time>
      </trkpt>
      <trkpt lat="39.911689" lon="-.570615">
        <ele>537.577</ele>
        <time>2020-08-29T15:43:59Z</time>
      </trkpt>
      <trkpt lat="39.911619" lon="-.570587">
        <ele>537.261</ele>
        <time>2020-08-29T15:44:02Z</time>
      </trkpt>
      <trkpt lat="39.911556" lon="-.570569">
        <ele>537.427</ele>
        <time>2020-08-29T15:44:05Z</time>
      </trkpt>
      <trkpt lat="39.911495" lon="-.570547">
        <ele>537.308</ele>
        <time>2020-08-29T15:44:07Z</time>
      </trkpt>
      <trkpt lat="39.911446" lon="-.570554">
        <ele>537.152</ele>
        <time>2020-08-29T15:44:08Z</time>
      </trkpt>
      <trkpt lat="39.91139" lon="-.570557">
        <ele>536.612</ele>
        <time>2020-08-29T15:44:10Z</time>
      </trkpt>
      <trkpt lat="39.911325" lon="-.570553">
        <ele>536.234</ele>
        <time>2020-08-29T15:44:12Z</time>
      </trkpt>
      <trkpt lat="39.911272" lon="-.570607">
        <ele>536.156</ele>
        <time>2020-08-29T15:44:14Z</time>
      </trkpt>
      <trkpt lat="39.911203" lon="-.570599">
        <ele>536.414</ele>
        <time>2020-08-29T15:44:16Z</time>
      </trkpt>
      <trkpt lat="39.911132" lon="-.57057">
        <ele>536.671</ele>
        <time>2020-08-29T15:44:18Z</time>
      </trkpt>
      <trkpt lat="39.911092" lon="-.570541">
        <ele>536.959</ele>
        <time>2020-08-29T15:44:19Z</time>
      </trkpt>
      <trkpt lat="39.91104" lon="-.570512">
        <ele>536.969</ele>
        <time>2020-08-29T15:44:20Z</time>
      </trkpt>
      <trkpt lat="39.91099" lon="-.570521">
        <ele>537.062</ele>
        <time>2020-08-29T15:44:21Z</time>
      </trkpt>
      <trkpt lat="39.910938" lon="-.570523">
        <ele>537.183</ele>
        <time>2020-08-29T15:44:22Z</time>
      </trkpt>
      <trkpt lat="39.910863" lon="-.570482">
        <ele>537.011</ele>
        <time>2020-08-29T15:44:24Z</time>
      </trkpt>
      <trkpt lat="39.910816" lon="-.570458">
        <ele>536.908</ele>
        <time>2020-08-29T15:44:25Z</time>
      </trkpt>
      <trkpt lat="39.910744" lon="-.570462">
        <ele>536.751</ele>
        <time>2020-08-29T15:44:27Z</time>
      </trkpt>
      <trkpt lat="39.910699" lon="-.570455">
        <ele>536.621</ele>
        <time>2020-08-29T15:44:28Z</time>
      </trkpt>
      <trkpt lat="39.910625" lon="-.570463">
        <ele>536.443</ele>
        <time>2020-08-29T15:44:30Z</time>
      </trkpt>
      <trkpt lat="39.910529" lon="-.570468">
        <ele>536.435</ele>
        <time>2020-08-29T15:44:32Z</time>
      </trkpt>
      <trkpt lat="39.910468" lon="-.570459">
        <ele>536.433</ele>
        <time>2020-08-29T15:44:33Z</time>
      </trkpt>
      <trkpt lat="39.910415" lon="-.570433">
        <ele>536.460</ele>
        <time>2020-08-29T15:44:34Z</time>
      </trkpt>
      <trkpt lat="39.91036" lon="-.570395">
        <ele>536.458</ele>
        <time>2020-08-29T15:44:35Z</time>
      </trkpt>
      <trkpt lat="39.910287" lon="-.570372">
        <ele>536.068</ele>
        <time>2020-08-29T15:44:37Z</time>
      </trkpt>
      <trkpt lat="39.910229" lon="-.570325">
        <ele>535.696</ele>
        <time>2020-08-29T15:44:39Z</time>
      </trkpt>
      <trkpt lat="39.910177" lon="-.570287">
        <ele>534.931</ele>
        <time>2020-08-29T15:44:41Z</time>
      </trkpt>
      <trkpt lat="39.910095" lon="-.570281">
        <ele>533.524</ele>
        <time>2020-08-29T15:44:43Z</time>
      </trkpt>
      <trkpt lat="39.91003" lon="-.57031">
        <ele>533.308</ele>
        <time>2020-08-29T15:44:45Z</time>
      </trkpt>
      <trkpt lat="39.909972" lon="-.570346">
        <ele>533.274</ele>
        <time>2020-08-29T15:44:47Z</time>
      </trkpt>
      <trkpt lat="39.909928" lon="-.570383">
        <ele>533.144</ele>
        <time>2020-08-29T15:44:49Z</time>
      </trkpt>
      <trkpt lat="39.909884" lon="-.570434">
        <ele>533.066</ele>
        <time>2020-08-29T15:44:51Z</time>
      </trkpt>
      <trkpt lat="39.909831" lon="-.570463">
        <ele>533.068</ele>
        <time>2020-08-29T15:44:53Z</time>
      </trkpt>
      <trkpt lat="39.909788" lon="-.570534">
        <ele>532.626</ele>
        <time>2020-08-29T15:44:55Z</time>
      </trkpt>
      <trkpt lat="39.909739" lon="-.570579">
        <ele>532.223</ele>
        <time>2020-08-29T15:44:57Z</time>
      </trkpt>
      <trkpt lat="39.909666" lon="-.570618">
        <ele>532.251</ele>
        <time>2020-08-29T15:44:59Z</time>
      </trkpt>
      <trkpt lat="39.909618" lon="-.570654">
        <ele>532.491</ele>
        <time>2020-08-29T15:45:01Z</time>
      </trkpt>
      <trkpt lat="39.909553" lon="-.570702">
        <ele>533.192</ele>
        <time>2020-08-29T15:45:03Z</time>
      </trkpt>
      <trkpt lat="39.9095" lon="-.570713">
        <ele>533.273</ele>
        <time>2020-08-29T15:45:05Z</time>
      </trkpt>
      <trkpt lat="39.909441" lon="-.570731">
        <ele>533.020</ele>
        <time>2020-08-29T15:45:07Z</time>
      </trkpt>
      <trkpt lat="39.909411" lon="-.570775">
        <ele>533.008</ele>
        <time>2020-08-29T15:45:10Z</time>
      </trkpt>
      <trkpt lat="39.909383" lon="-.570822">
        <ele>533.684</ele>
        <time>2020-08-29T15:45:13Z</time>
      </trkpt>
      <trkpt lat="39.909348" lon="-.57086">
        <ele>534.054</ele>
        <time>2020-08-29T15:45:16Z</time>
      </trkpt>
      <trkpt lat="39.909315" lon="-.570913">
        <ele>534.376</ele>
        <time>2020-08-29T15:45:19Z</time>
      </trkpt>
      <trkpt lat="39.909276" lon="-.570956">
        <ele>534.628</ele>
        <time>2020-08-29T15:45:22Z</time>
      </trkpt>
      <trkpt lat="39.909234" lon="-.571008">
        <ele>534.966</ele>
        <time>2020-08-29T15:45:25Z</time>
      </trkpt>
      <trkpt lat="39.909198" lon="-.571047">
        <ele>535.323</ele>
        <time>2020-08-29T15:45:28Z</time>
      </trkpt>
      <trkpt lat="39.909165" lon="-.571108">
        <ele>534.021</ele>
        <time>2020-08-29T15:45:31Z</time>
      </trkpt>
      <trkpt lat="39.909136" lon="-.571177">
        <ele>535.371</ele>
        <time>2020-08-29T15:45:34Z</time>
      </trkpt>
      <trkpt lat="39.909116" lon="-.57124">
        <ele>537.135</ele>
        <time>2020-08-29T15:45:37Z</time>
      </trkpt>
      <trkpt lat="39.909095" lon="-.571303">
        <ele>538.686</ele>
        <time>2020-08-29T15:45:39Z</time>
      </trkpt>
      <trkpt lat="39.909085" lon="-.571372">
        <ele>538.414</ele>
        <time>2020-08-29T15:45:43Z</time>
      </trkpt>
      <trkpt lat="39.9091" lon="-.57143">
        <ele>539.808</ele>
        <time>2020-08-29T15:45:46Z</time>
      </trkpt>
      <trkpt lat="39.909112" lon="-.571362">
        <ele>539.978</ele>
        <time>2020-08-29T15:45:57Z</time>
      </trkpt>
      <trkpt lat="39.90915" lon="-.571324">
        <ele>541.598</ele>
        <time>2020-08-29T15:46:00Z</time>
      </trkpt>
      <trkpt lat="39.909206" lon="-.571294">
        <ele>541.120</ele>
        <time>2020-08-29T15:46:05Z</time>
      </trkpt>
      <trkpt lat="39.909254" lon="-.571306">
        <ele>541.212</ele>
        <time>2020-08-29T15:46:08Z</time>
      </trkpt>
      <trkpt lat="39.909304" lon="-.57131">
        <ele>541.390</ele>
        <time>2020-08-29T15:46:11Z</time>
      </trkpt>
      <trkpt lat="39.909344" lon="-.57128">
        <ele>542.737</ele>
        <time>2020-08-29T15:47:18Z</time>
      </trkpt>
      <trkpt lat="39.909363" lon="-.571211">
        <ele>543.055</ele>
        <time>2020-08-29T15:52:39Z</time>
      </trkpt>
      <trkpt lat="39.910932" lon="-.571783">
        <ele>542.835</ele>
        <time>2020-08-29T19:13:12Z</time>
      </trkpt>
      <trkpt lat="39.912373" lon="-.571338">
        <ele>543.567</ele>
        <time>2020-08-30T09:53:20Z</time>
      </trkpt>
      <trkpt lat="39.912343" lon="-.571266">
        <ele>543.981</ele>
        <time>2020-08-30T09:53:23Z</time>
      </trkpt>
      <trkpt lat="39.912301" lon="-.571228">
        <ele>544.019</ele>
        <time>2020-08-30T09:53:25Z</time>
      </trkpt>
      <trkpt lat="39.912307" lon="-.57116">
        <ele>543.908</ele>
        <time>2020-08-30T09:53:27Z</time>
      </trkpt>
      <trkpt lat="39.912275" lon="-.57107">
        <ele>543.421</ele>
        <time>2020-08-30T09:53:31Z</time>
      </trkpt>
      <trkpt lat="39.912221" lon="-.57098">
        <ele>542.741</ele>
        <time>2020-08-30T09:53:33Z</time>
      </trkpt>
      <trkpt lat="39.912193" lon="-.570913">
        <ele>542.293</ele>
        <time>2020-08-30T09:53:34Z</time>
      </trkpt>
      <trkpt lat="39.912165" lon="-.570838">
        <ele>541.745</ele>
        <time>2020-08-30T09:53:35Z</time>
      </trkpt>
      <trkpt lat="39.912133" lon="-.570755">
        <ele>541.153</ele>
        <time>2020-08-30T09:53:36Z</time>
      </trkpt>
      <trkpt lat="39.912104" lon="-.570624">
        <ele>540.390</ele>
        <time>2020-08-30T09:53:37Z</time>
      </trkpt>
      <trkpt lat="39.912104" lon="-.570494">
        <ele>539.858</ele>
        <time>2020-08-30T09:53:38Z</time>
      </trkpt>
      <trkpt lat="39.912106" lon="-.570392">
        <ele>539.258</ele>
        <time>2020-08-30T09:53:39Z</time>
      </trkpt>
      <trkpt lat="39.912103" lon="-.570293">
        <ele>538.623</ele>
        <time>2020-08-30T09:53:40Z</time>
      </trkpt>
      <trkpt lat="39.912102" lon="-.570226">
        <ele>538.283</ele>
        <time>2020-08-30T09:53:41Z</time>
      </trkpt>
      <trkpt lat="39.912096" lon="-.570159">
        <ele>537.911</ele>
        <time>2020-08-30T09:53:42Z</time>
      </trkpt>
      <trkpt lat="39.912061" lon="-.57011">
        <ele>537.808</ele>
        <time>2020-08-30T09:53:43Z</time>
      </trkpt>
      <trkpt lat="39.912016" lon="-.570101">
        <ele>537.717</ele>
        <time>2020-08-30T09:53:44Z</time>
      </trkpt>
      <trkpt lat="39.91198" lon="-.570057">
        <ele>537.327</ele>
        <time>2020-08-30T09:53:46Z</time>
      </trkpt>
      <trkpt lat="39.911934" lon="-.570019">
        <ele>536.779</ele>
        <time>2020-08-30T09:53:48Z</time>
      </trkpt>
      <trkpt lat="39.911886" lon="-.570005">
        <ele>535.621</ele>
        <time>2020-08-30T09:53:49Z</time>
      </trkpt>
      <trkpt lat="39.911809" lon="-.569978">
        <ele>535.149</ele>
        <time>2020-08-30T09:53:51Z</time>
      </trkpt>
      <trkpt lat="39.911773" lon="-.569937">
        <ele>534.896</ele>
        <time>2020-08-30T09:53:52Z</time>
      </trkpt>
      <trkpt lat="39.911742" lon="-.56989">
        <ele>534.854</ele>
        <time>2020-08-30T09:53:53Z</time>
      </trkpt>
      <trkpt lat="39.911697" lon="-.56983">
        <ele>534.534</ele>
        <time>2020-08-30T09:53:54Z</time>
      </trkpt>
      <trkpt lat="39.911612" lon="-.56974">
        <ele>534.092</ele>
        <time>2020-08-30T09:53:56Z</time>
      </trkpt>
      <trkpt lat="39.911559" lon="-.569678">
        <ele>533.873</ele>
        <time>2020-08-30T09:53:57Z</time>
      </trkpt>
      <trkpt lat="39.911521" lon="-.569624">
        <ele>533.820</ele>
        <time>2020-08-30T09:53:58Z</time>
      </trkpt>
      <trkpt lat="39.911477" lon="-.569568">
        <ele>533.608</ele>
        <time>2020-08-30T09:53:59Z</time>
      </trkpt>
      <trkpt lat="39.911434" lon="-.569497">
        <ele>532.974</ele>
        <time>2020-08-30T09:54:00Z</time>
      </trkpt>
      <trkpt lat="39.911361" lon="-.569434">
        <ele>532.194</ele>
        <time>2020-08-30T09:54:02Z</time>
      </trkpt>
      <trkpt lat="39.911315" lon="-.5694">
        <ele>531.956</ele>
        <time>2020-08-30T09:54:03Z</time>
      </trkpt>
      <trkpt lat="39.911273" lon="-.569357">
        <ele>531.958</ele>
        <time>2020-08-30T09:54:04Z</time>
      </trkpt>
      <trkpt lat="39.911231" lon="-.569296">
        <ele>531.976</ele>
        <time>2020-08-30T09:54:05Z</time>
      </trkpt>
      <trkpt lat="39.911167" lon="-.569233">
        <ele>531.953</ele>
        <time>2020-08-30T09:54:07Z</time>
      </trkpt>
      <trkpt lat="39.911108" lon="-.569182">
        <ele>531.951</ele>
        <time>2020-08-30T09:54:09Z</time>
      </trkpt>
      <trkpt lat="39.91107" lon="-.569107">
        <ele>531.091</ele>
        <time>2020-08-30T09:54:11Z</time>
      </trkpt>
      <trkpt lat="39.911065" lon="-.569045">
        <ele>531.062</ele>
        <time>2020-08-30T09:54:12Z</time>
      </trkpt>
      <trkpt lat="39.911056" lon="-.568945">
        <ele>530.483</ele>
        <time>2020-08-30T09:54:14Z</time>
      </trkpt>
      <trkpt lat="39.911037" lon="-.568878">
        <ele>529.911</ele>
        <time>2020-08-30T09:54:16Z</time>
      </trkpt>
      <trkpt lat="39.910998" lon="-.568766">
        <ele>529.308</ele>
        <time>2020-08-30T09:54:18Z</time>
      </trkpt>
      <trkpt lat="39.910967" lon="-.568702">
        <ele>529.351</ele>
        <time>2020-08-30T09:54:19Z</time>
      </trkpt>
      <trkpt lat="39.910931" lon="-.568642">
        <ele>529.171</ele>
        <time>2020-08-30T09:54:20Z</time>
      </trkpt>
      <trkpt lat="39.910903" lon="-.568582">
        <ele>528.723</ele>
        <time>2020-08-30T09:54:21Z</time>
      </trkpt>
      <trkpt lat="39.910872" lon="-.568526">
        <ele>528.355</ele>
        <time>2020-08-30T09:54:22Z</time>
      </trkpt>
      <trkpt lat="39.910842" lon="-.568459">
        <ele>527.993</ele>
        <time>2020-08-30T09:54:23Z</time>
      </trkpt>
      <trkpt lat="39.910818" lon="-.568396">
        <ele>527.490</ele>
        <time>2020-08-30T09:54:24Z</time>
      </trkpt>
      <trkpt lat="39.91079" lon="-.568347">
        <ele>527.088</ele>
        <time>2020-08-30T09:54:25Z</time>
      </trkpt>
      <trkpt lat="39.910772" lon="-.56829">
        <ele>526.658</ele>
        <time>2020-08-30T09:54:26Z</time>
      </trkpt>
      <trkpt lat="39.910749" lon="-.568234">
        <ele>526.579</ele>
        <time>2020-08-30T09:54:27Z</time>
      </trkpt>
      <trkpt lat="39.910716" lon="-.56818">
        <ele>526.505</ele>
        <time>2020-08-30T09:54:28Z</time>
      </trkpt>
      <trkpt lat="39.910683" lon="-.568122">
        <ele>526.425</ele>
        <time>2020-08-30T09:54:29Z</time>
      </trkpt>
      <trkpt lat="39.910656" lon="-.568062">
        <ele>526.408</ele>
        <time>2020-08-30T09:54:30Z</time>
      </trkpt>
      <trkpt lat="39.910641" lon="-.568005">
        <ele>526.232</ele>
        <time>2020-08-30T09:54:31Z</time>
      </trkpt>
      <trkpt lat="39.910613" lon="-.567941">
        <ele>525.592</ele>
        <time>2020-08-30T09:54:32Z</time>
      </trkpt>
      <trkpt lat="39.910591" lon="-.567877">
        <ele>525.394</ele>
        <time>2020-08-30T09:54:33Z</time>
      </trkpt>
      <trkpt lat="39.910553" lon="-.567818">
        <ele>525.026</ele>
        <time>2020-08-30T09:54:34Z</time>
      </trkpt>
      <trkpt lat="39.910509" lon="-.567765">
        <ele>524.634</ele>
        <time>2020-08-30T09:54:35Z</time>
      </trkpt>
      <trkpt lat="39.910459" lon="-.567711">
        <ele>524.321</ele>
        <time>2020-08-30T09:54:36Z</time>
      </trkpt>
      <trkpt lat="39.910398" lon="-.567663">
        <ele>524.099</ele>
        <time>2020-08-30T09:54:37Z</time>
      </trkpt>
      <trkpt lat="39.910349" lon="-.567603">
        <ele>523.549</ele>
        <time>2020-08-30T09:54:38Z</time>
      </trkpt>
      <trkpt lat="39.910297" lon="-.56755">
        <ele>523.155</ele>
        <time>2020-08-30T09:54:39Z</time>
      </trkpt>
      <trkpt lat="39.910249" lon="-.567497">
        <ele>522.407</ele>
        <time>2020-08-30T09:54:40Z</time>
      </trkpt>
      <trkpt lat="39.910202" lon="-.567453">
        <ele>522.117</ele>
        <time>2020-08-30T09:54:41Z</time>
      </trkpt>
      <trkpt lat="39.910152" lon="-.56741">
        <ele>521.808</ele>
        <time>2020-08-30T09:54:42Z</time>
      </trkpt>
      <trkpt lat="39.910107" lon="-.567352">
        <ele>521.530</ele>
        <time>2020-08-30T09:54:43Z</time>
      </trkpt>
      <trkpt lat="39.910064" lon="-.567293">
        <ele>521.120</ele>
        <time>2020-08-30T09:54:44Z</time>
      </trkpt>
      <trkpt lat="39.910036" lon="-.567235">
        <ele>520.732</ele>
        <time>2020-08-30T09:54:45Z</time>
      </trkpt>
      <trkpt lat="39.91002" lon="-.567167">
        <ele>520.334</ele>
        <time>2020-08-30T09:54:46Z</time>
      </trkpt>
      <trkpt lat="39.910026" lon="-.567099">
        <ele>519.952</ele>
        <time>2020-08-30T09:54:47Z</time>
      </trkpt>
      <trkpt lat="39.910041" lon="-.567044">
        <ele>519.649</ele>
        <time>2020-08-30T09:54:48Z</time>
      </trkpt>
      <trkpt lat="39.910058" lon="-.566967">
        <ele>519.437</ele>
        <time>2020-08-30T09:54:49Z</time>
      </trkpt>
      <trkpt lat="39.91006" lon="-.566871">
        <ele>519.117</ele>
        <time>2020-08-30T09:54:50Z</time>
      </trkpt>
      <trkpt lat="39.910051" lon="-.566789">
        <ele>518.839</ele>
        <time>2020-08-30T09:54:51Z</time>
      </trkpt>
      <trkpt lat="39.910035" lon="-.566719">
        <ele>518.501</ele>
        <time>2020-08-30T09:54:52Z</time>
      </trkpt>
      <trkpt lat="39.910032" lon="-.56662">
        <ele>518.221</ele>
        <time>2020-08-30T09:54:53Z</time>
      </trkpt>
      <trkpt lat="39.910013" lon="-.566538">
        <ele>517.808</ele>
        <time>2020-08-30T09:54:54Z</time>
      </trkpt>
      <trkpt lat="39.909989" lon="-.566453">
        <ele>517.548</ele>
        <time>2020-08-30T09:54:55Z</time>
      </trkpt>
      <trkpt lat="39.909965" lon="-.566366">
        <ele>517.158</ele>
        <time>2020-08-30T09:54:56Z</time>
      </trkpt>
      <trkpt lat="39.90994" lon="-.566281">
        <ele>516.710</ele>
        <time>2020-08-30T09:54:57Z</time>
      </trkpt>
      <trkpt lat="39.909918" lon="-.566203">
        <ele>516.452</ele>
        <time>2020-08-30T09:54:58Z</time>
      </trkpt>
      <trkpt lat="39.909901" lon="-.566125">
        <ele>515.540</ele>
        <time>2020-08-30T09:54:59Z</time>
      </trkpt>
      <trkpt lat="39.909881" lon="-.566042">
        <ele>515.217</ele>
        <time>2020-08-30T09:55:00Z</time>
      </trkpt>
      <trkpt lat="39.909858" lon="-.565963">
        <ele>514.895</ele>
        <time>2020-08-30T09:55:01Z</time>
      </trkpt>
      <trkpt lat="39.909848" lon="-.565876">
        <ele>514.395</ele>
        <time>2020-08-30T09:55:02Z</time>
      </trkpt>
      <trkpt lat="39.90983" lon="-.565796">
        <ele>514.195</ele>
        <time>2020-08-30T09:55:03Z</time>
      </trkpt>
      <trkpt lat="39.909798" lon="-.565717">
        <ele>513.949</ele>
        <time>2020-08-30T09:55:04Z</time>
      </trkpt>
      <trkpt lat="39.909777" lon="-.565632">
        <ele>513.623</ele>
        <time>2020-08-30T09:55:05Z</time>
      </trkpt>
      <trkpt lat="39.909763" lon="-.565554">
        <ele>513.508</ele>
        <time>2020-08-30T09:55:06Z</time>
      </trkpt>
      <trkpt lat="39.909742" lon="-.565477">
        <ele>513.514</ele>
        <time>2020-08-30T09:55:07Z</time>
      </trkpt>
      <trkpt lat="39.909726" lon="-.5654">
        <ele>513.434</ele>
        <time>2020-08-30T09:55:08Z</time>
      </trkpt>
      <trkpt lat="39.909704" lon="-.565325">
        <ele>513.376</ele>
        <time>2020-08-30T09:55:09Z</time>
      </trkpt>
      <trkpt lat="39.909684" lon="-.56525">
        <ele>513.358</ele>
        <time>2020-08-30T09:55:10Z</time>
      </trkpt>
      <trkpt lat="39.909666" lon="-.565172">
        <ele>513.276</ele>
        <time>2020-08-30T09:55:11Z</time>
      </trkpt>
      <trkpt lat="39.909645" lon="-.565102">
        <ele>513.143</ele>
        <time>2020-08-30T09:55:12Z</time>
      </trkpt>
      <trkpt lat="39.909625" lon="-.565028">
        <ele>513.171</ele>
        <time>2020-08-30T09:55:13Z</time>
      </trkpt>
      <trkpt lat="39.909601" lon="-.564962">
        <ele>513.181</ele>
        <time>2020-08-30T09:55:14Z</time>
      </trkpt>
      <trkpt lat="39.909577" lon="-.564898">
        <ele>513.068</ele>
        <time>2020-08-30T09:55:15Z</time>
      </trkpt>
      <trkpt lat="39.909552" lon="-.564831">
        <ele>512.542</ele>
        <time>2020-08-30T09:55:16Z</time>
      </trkpt>
      <trkpt lat="39.909542" lon="-.564751">
        <ele>512.226</ele>
        <time>2020-08-30T09:55:17Z</time>
      </trkpt>
      <trkpt lat="39.909523" lon="-.564669">
        <ele>511.108</ele>
        <time>2020-08-30T09:55:18Z</time>
      </trkpt>
      <trkpt lat="39.909505" lon="-.564578">
        <ele>509.691</ele>
        <time>2020-08-30T09:55:19Z</time>
      </trkpt>
      <trkpt lat="39.909493" lon="-.564499">
        <ele>509.651</ele>
        <time>2020-08-30T09:55:20Z</time>
      </trkpt>
      <trkpt lat="39.90948" lon="-.564422">
        <ele>509.913</ele>
        <time>2020-08-30T09:55:21Z</time>
      </trkpt>
      <trkpt lat="39.909453" lon="-.564343">
        <ele>510.115</ele>
        <time>2020-08-30T09:55:22Z</time>
      </trkpt>
      <trkpt lat="39.909436" lon="-.564266">
        <ele>510.153</ele>
        <time>2020-08-30T09:55:23Z</time>
      </trkpt>
      <trkpt lat="39.909419" lon="-.564187">
        <ele>510.190</ele>
        <time>2020-08-30T09:55:24Z</time>
      </trkpt>
      <trkpt lat="39.909398" lon="-.564106">
        <ele>511.128</ele>
        <time>2020-08-30T09:55:25Z</time>
      </trkpt>
      <trkpt lat="39.909371" lon="-.56403">
        <ele>511.188</ele>
        <time>2020-08-30T09:55:26Z</time>
      </trkpt>
      <trkpt lat="39.909351" lon="-.563949">
        <ele>511.055</ele>
        <time>2020-08-30T09:55:27Z</time>
      </trkpt>
      <trkpt lat="39.909333" lon="-.563867">
        <ele>511.007</ele>
        <time>2020-08-30T09:55:28Z</time>
      </trkpt>
      <trkpt lat="39.90931" lon="-.563785">
        <ele>511.117</ele>
        <time>2020-08-30T09:55:29Z</time>
      </trkpt>
      <trkpt lat="39.90928" lon="-.563702">
        <ele>511.108</ele>
        <time>2020-08-30T09:55:30Z</time>
      </trkpt>
      <trkpt lat="39.909262" lon="-.563626">
        <ele>510.880</ele>
        <time>2020-08-30T09:55:31Z</time>
      </trkpt>
      <trkpt lat="39.90924" lon="-.563541">
        <ele>510.850</ele>
        <time>2020-08-30T09:55:32Z</time>
      </trkpt>
      <trkpt lat="39.909216" lon="-.563454">
        <ele>510.612</ele>
        <time>2020-08-30T09:55:33Z</time>
      </trkpt>
      <trkpt lat="39.9092" lon="-.563364">
        <ele>510.584</ele>
        <time>2020-08-30T09:55:34Z</time>
      </trkpt>
      <trkpt lat="39.909181" lon="-.563279">
        <ele>510.382</ele>
        <time>2020-08-30T09:55:35Z</time>
      </trkpt>
      <trkpt lat="39.909163" lon="-.563194">
        <ele>510.339</ele>
        <time>2020-08-30T09:55:36Z</time>
      </trkpt>
      <trkpt lat="39.909143" lon="-.563115">
        <ele>510.337</ele>
        <time>2020-08-30T09:55:37Z</time>
      </trkpt>
      <trkpt lat="39.909123" lon="-.563042">
        <ele>509.747</ele>
        <time>2020-08-30T09:55:38Z</time>
      </trkpt>
      <trkpt lat="39.909101" lon="-.562957">
        <ele>509.448</ele>
        <time>2020-08-30T09:55:39Z</time>
      </trkpt>
      <trkpt lat="39.909082" lon="-.562879">
        <ele>509.461</ele>
        <time>2020-08-30T09:55:40Z</time>
      </trkpt>
      <trkpt lat="39.909067" lon="-.562811">
        <ele>509.017</ele>
        <time>2020-08-30T09:55:41Z</time>
      </trkpt>
      <trkpt lat="39.90905" lon="-.562738">
        <ele>508.608</ele>
        <time>2020-08-30T09:55:42Z</time>
      </trkpt>
      <trkpt lat="39.909027" lon="-.562664">
        <ele>508.569</ele>
        <time>2020-08-30T09:55:43Z</time>
      </trkpt>
      <trkpt lat="39.909015" lon="-.562596">
        <ele>507.079</ele>
        <time>2020-08-30T09:55:44Z</time>
      </trkpt>
      <trkpt lat="39.909003" lon="-.562534">
        <ele>507.061</ele>
        <time>2020-08-30T09:55:44Z</time>
      </trkpt>
      <trkpt lat="39.908987" lon="-.562453">
        <ele>507.443</ele>
        <time>2020-08-30T09:55:45Z</time>
      </trkpt>
      <trkpt lat="39.908967" lon="-.562379">
        <ele>507.481</ele>
        <time>2020-08-30T09:55:46Z</time>
      </trkpt>
      <trkpt lat="39.908953" lon="-.56232">
        <ele>506.628</ele>
        <time>2020-08-30T09:55:47Z</time>
      </trkpt>
      <trkpt lat="39.90894" lon="-.562257">
        <ele>506.646</ele>
        <time>2020-08-30T09:55:48Z</time>
      </trkpt>
      <trkpt lat="39.908932" lon="-.562196">
        <ele>507.566</ele>
        <time>2020-08-30T09:55:49Z</time>
      </trkpt>
      <trkpt lat="39.908916" lon="-.562134">
        <ele>507.564</ele>
        <time>2020-08-30T09:55:50Z</time>
      </trkpt>
      <trkpt lat="39.908904" lon="-.562067">
        <ele>507.106</ele>
        <time>2020-08-30T09:55:51Z</time>
      </trkpt>
      <trkpt lat="39.908892" lon="-.561993">
        <ele>507.116</ele>
        <time>2020-08-30T09:55:52Z</time>
      </trkpt>
      <trkpt lat="39.908882" lon="-.56193">
        <ele>508.308</ele>
        <time>2020-08-30T09:55:53Z</time>
      </trkpt>
      <trkpt lat="39.908866" lon="-.561871">
        <ele>508.371</ele>
        <time>2020-08-30T09:55:54Z</time>
      </trkpt>
      <trkpt lat="39.908846" lon="-.561807">
        <ele>507.091</ele>
        <time>2020-08-30T09:55:55Z</time>
      </trkpt>
      <trkpt lat="39.908834" lon="-.561732">
        <ele>505.863</ele>
        <time>2020-08-30T09:55:56Z</time>
      </trkpt>
      <trkpt lat="39.908819" lon="-.56167">
        <ele>505.875</ele>
        <time>2020-08-30T09:55:57Z</time>
      </trkpt>
      <trkpt lat="39.908814" lon="-.561608">
        <ele>506.233</ele>
        <time>2020-08-30T09:55:58Z</time>
      </trkpt>
      <trkpt lat="39.908799" lon="-.561542">
        <ele>506.820</ele>
        <time>2020-08-30T09:55:59Z</time>
      </trkpt>
      <trkpt lat="39.908781" lon="-.561485">
        <ele>507.138</ele>
        <time>2020-08-30T09:56:00Z</time>
      </trkpt>
      <trkpt lat="39.90876" lon="-.561426">
        <ele>507.738</ele>
        <time>2020-08-30T09:56:01Z</time>
      </trkpt>
      <trkpt lat="39.908735" lon="-.561367">
        <ele>508.537</ele>
        <time>2020-08-30T09:56:02Z</time>
      </trkpt>
      <trkpt lat="39.908712" lon="-.561306">
        <ele>508.549</ele>
        <time>2020-08-30T09:56:03Z</time>
      </trkpt>
      <trkpt lat="39.908692" lon="-.561249">
        <ele>508.513</ele>
        <time>2020-08-30T09:56:04Z</time>
      </trkpt>
      <trkpt lat="39.90867" lon="-.561193">
        <ele>507.708</ele>
        <time>2020-08-30T09:56:05Z</time>
      </trkpt>
      <trkpt lat="39.908642" lon="-.561134">
        <ele>507.458</ele>
        <time>2020-08-30T09:56:06Z</time>
      </trkpt>
      <trkpt lat="39.908618" lon="-.561077">
        <ele>506.858</ele>
        <time>2020-08-30T09:56:07Z</time>
      </trkpt>
      <trkpt lat="39.908597" lon="-.561015">
        <ele>506.220</ele>
        <time>2020-08-30T09:56:08Z</time>
      </trkpt>
      <trkpt lat="39.908578" lon="-.560959">
        <ele>506.072</ele>
        <time>2020-08-30T09:56:09Z</time>
      </trkpt>
      <trkpt lat="39.908552" lon="-.560904">
        <ele>506.090</ele>
        <time>2020-08-30T09:56:10Z</time>
      </trkpt>
      <trkpt lat="39.908508" lon="-.560797">
        <ele>505.997</ele>
        <time>2020-08-30T09:56:12Z</time>
      </trkpt>
      <trkpt lat="39.90848" lon="-.560748">
        <ele>505.995</ele>
        <time>2020-08-30T09:56:13Z</time>
      </trkpt>
      <trkpt lat="39.908456" lon="-.560696">
        <ele>506.395</ele>
        <time>2020-08-30T09:56:14Z</time>
      </trkpt>
      <trkpt lat="39.908403" lon="-.560588">
        <ele>508.242</ele>
        <time>2020-08-30T09:56:16Z</time>
      </trkpt>
      <trkpt lat="39.908359" lon="-.560497">
        <ele>508.522</ele>
        <time>2020-08-30T09:56:18Z</time>
      </trkpt>
      <trkpt lat="39.90833" lon="-.560426">
        <ele>508.814</ele>
        <time>2020-08-30T09:56:20Z</time>
      </trkpt>
      <trkpt lat="39.908291" lon="-.560391">
        <ele>508.508</ele>
        <time>2020-08-30T09:56:22Z</time>
      </trkpt>
      <trkpt lat="39.908243" lon="-.56038">
        <ele>508.249</ele>
        <time>2020-08-30T09:56:24Z</time>
      </trkpt>
      <trkpt lat="39.908209" lon="-.560333">
        <ele>509.039</ele>
        <time>2020-08-30T09:57:03Z</time>
      </trkpt>
      <trkpt lat="39.908164" lon="-.560309">
        <ele>508.521</ele>
        <time>2020-08-30T09:58:22Z</time>
      </trkpt>
      <trkpt lat="39.908127" lon="-.560249">
        <ele>508.023</ele>
        <time>2020-08-30T09:58:26Z</time>
      </trkpt>
      <trkpt lat="39.908093" lon="-.5602">
        <ele>506.421</ele>
        <time>2020-08-30T09:58:29Z</time>
      </trkpt>
      <trkpt lat="39.908044" lon="-.560128">
        <ele>508.238</ele>
        <time>2020-08-30T09:58:32Z</time>
      </trkpt>
      <trkpt lat="39.908014" lon="-.560085">
        <ele>508.216</ele>
        <time>2020-08-30T09:58:34Z</time>
      </trkpt>
      <trkpt lat="39.907984" lon="-.560035">
        <ele>508.266</ele>
        <time>2020-08-30T09:58:36Z</time>
      </trkpt>
      <trkpt lat="39.907942" lon="-.559989">
        <ele>508.349</ele>
        <time>2020-08-30T09:58:38Z</time>
      </trkpt>
      <trkpt lat="39.90791" lon="-.559937">
        <ele>508.302</ele>
        <time>2020-08-30T09:58:40Z</time>
      </trkpt>
      <trkpt lat="39.90788" lon="-.559881">
        <ele>508.322</ele>
        <time>2020-08-30T09:58:42Z</time>
      </trkpt>
      <trkpt lat="39.907844" lon="-.559816">
        <ele>508.308</ele>
        <time>2020-08-30T09:58:44Z</time>
      </trkpt>
      <trkpt lat="39.907809" lon="-.559766">
        <ele>507.549</ele>
        <time>2020-08-30T09:58:46Z</time>
      </trkpt>
      <trkpt lat="39.907772" lon="-.559695">
        <ele>508.119</ele>
        <time>2020-08-30T09:58:48Z</time>
      </trkpt>
      <trkpt lat="39.907729" lon="-.559628">
        <ele>509.611</ele>
        <time>2020-08-30T09:58:50Z</time>
      </trkpt>
      <trkpt lat="39.907692" lon="-.559577">
        <ele>507.993</ele>
        <time>2020-08-30T09:58:52Z</time>
      </trkpt>
      <trkpt lat="39.907646" lon="-.559507">
        <ele>507.071</ele>
        <time>2020-08-30T09:58:54Z</time>
      </trkpt>
      <trkpt lat="39.907604" lon="-.559435">
        <ele>508.988</ele>
        <time>2020-08-30T09:58:56Z</time>
      </trkpt>
      <trkpt lat="39.907559" lon="-.559382">
        <ele>509.466</ele>
        <time>2020-08-30T09:58:58Z</time>
      </trkpt>
      <trkpt lat="39.907506" lon="-.559331">
        <ele>508.416</ele>
        <time>2020-08-30T09:59:00Z</time>
      </trkpt>
      <trkpt lat="39.907454" lon="-.559286">
        <ele>508.559</ele>
        <time>2020-08-30T09:59:02Z</time>
      </trkpt>
      <trkpt lat="39.907404" lon="-.559243">
        <ele>508.703</ele>
        <time>2020-08-30T09:59:04Z</time>
      </trkpt>
      <trkpt lat="39.907354" lon="-.559211">
        <ele>508.823</ele>
        <time>2020-08-30T09:59:07Z</time>
      </trkpt>
      <trkpt lat="39.9073" lon="-.559171">
        <ele>508.808</ele>
        <time>2020-08-30T09:59:10Z</time>
      </trkpt>
      <trkpt lat="39.907246" lon="-.559138">
        <ele>508.350</ele>
        <time>2020-08-30T09:59:13Z</time>
      </trkpt>
      <trkpt lat="39.90718" lon="-.559109">
        <ele>508.450</ele>
        <time>2020-08-30T09:59:16Z</time>
      </trkpt>
      <trkpt lat="39.907139" lon="-.559076">
        <ele>511.572</ele>
        <time>2020-08-30T09:59:18Z</time>
      </trkpt>
      <trkpt lat="39.907106" lon="-.55903">
        <ele>511.154</ele>
        <time>2020-08-30T09:59:20Z</time>
      </trkpt>
      <trkpt lat="39.907055" lon="-.559003">
        <ele>510.132</ele>
        <time>2020-08-30T09:59:22Z</time>
      </trkpt>
      <trkpt lat="39.907011" lon="-.558969">
        <ele>509.649</ele>
        <time>2020-08-30T09:59:24Z</time>
      </trkpt>
      <trkpt lat="39.906966" lon="-.558947">
        <ele>508.647</ele>
        <time>2020-08-30T09:59:26Z</time>
      </trkpt>
      <trkpt lat="39.90692" lon="-.558925">
        <ele>512.127</ele>
        <time>2020-08-30T09:59:28Z</time>
      </trkpt>
      <trkpt lat="39.906871" lon="-.558914">
        <ele>511.192</ele>
        <time>2020-08-30T09:59:30Z</time>
      </trkpt>
      <trkpt lat="39.906812" lon="-.558903">
        <ele>509.973</ele>
        <time>2020-08-30T09:59:32Z</time>
      </trkpt>
      <trkpt lat="39.906747" lon="-.558894">
        <ele>512.920</ele>
        <time>2020-08-30T09:59:35Z</time>
      </trkpt>
      <trkpt lat="39.906695" lon="-.5589">
        <ele>510.208</ele>
        <time>2020-08-30T09:59:37Z</time>
      </trkpt>
      <trkpt lat="39.906631" lon="-.558906">
        <ele>512.274</ele>
        <time>2020-08-30T09:59:40Z</time>
      </trkpt>
      <trkpt lat="39.906581" lon="-.558931">
        <ele>512.854</ele>
        <time>2020-08-30T09:59:42Z</time>
      </trkpt>
      <trkpt lat="39.906528" lon="-.55895">
        <ele>511.026</ele>
        <time>2020-08-30T09:59:44Z</time>
      </trkpt>
      <trkpt lat="39.906482" lon="-.558952">
        <ele>514.118</ele>
        <time>2020-08-30T09:59:46Z</time>
      </trkpt>
      <trkpt lat="39.906432" lon="-.558983">
        <ele>512.336</ele>
        <time>2020-08-30T09:59:48Z</time>
      </trkpt>
      <trkpt lat="39.906366" lon="-.559014">
        <ele>513.743</ele>
        <time>2020-08-30T09:59:51Z</time>
      </trkpt>
      <trkpt lat="39.906307" lon="-.559037">
        <ele>513.681</ele>
        <time>2020-08-30T09:59:54Z</time>
      </trkpt>
      <trkpt lat="39.906244" lon="-.559051">
        <ele>513.981</ele>
        <time>2020-08-30T09:59:57Z</time>
      </trkpt>
      <trkpt lat="39.906198" lon="-.559078">
        <ele>513.854</ele>
        <time>2020-08-30T09:59:59Z</time>
      </trkpt>
      <trkpt lat="39.906127" lon="-.559109">
        <ele>514.756</ele>
        <time>2020-08-30T10:00:02Z</time>
      </trkpt>
      <trkpt lat="39.906075" lon="-.559135">
        <ele>514.011</ele>
        <time>2020-08-30T10:00:04Z</time>
      </trkpt>
      <trkpt lat="39.906028" lon="-.559163">
        <ele>515.308</ele>
        <time>2020-08-30T10:00:06Z</time>
      </trkpt>
      <trkpt lat="39.905976" lon="-.559185">
        <ele>515.830</ele>
        <time>2020-08-30T10:00:08Z</time>
      </trkpt>
      <trkpt lat="39.905915" lon="-.559208">
        <ele>516.210</ele>
        <time>2020-08-30T10:00:11Z</time>
      </trkpt>
      <trkpt lat="39.905854" lon="-.559236">
        <ele>516.362</ele>
        <time>2020-08-30T10:00:14Z</time>
      </trkpt>
      <trkpt lat="39.905801" lon="-.559241">
        <ele>516.634</ele>
        <time>2020-08-30T10:00:16Z</time>
      </trkpt>
      <trkpt lat="39.905725" lon="-.559259">
        <ele>516.612</ele>
        <time>2020-08-30T10:00:19Z</time>
      </trkpt>
      <trkpt lat="39.905666" lon="-.559276">
        <ele>517.559</ele>
        <time>2020-08-30T10:00:22Z</time>
      </trkpt>
      <trkpt lat="39.905622" lon="-.559306">
        <ele>518.057</ele>
        <time>2020-08-30T10:00:24Z</time>
      </trkpt>
      <trkpt lat="39.905582" lon="-.559343">
        <ele>518.087</ele>
        <time>2020-08-30T10:00:26Z</time>
      </trkpt>
      <trkpt lat="39.905544" lon="-.559383">
        <ele>517.799</ele>
        <time>2020-08-30T10:00:28Z</time>
      </trkpt>
      <trkpt lat="39.905503" lon="-.559414">
        <ele>517.607</ele>
        <time>2020-08-30T10:00:29Z</time>
      </trkpt>
      <trkpt lat="39.905453" lon="-.559492">
        <ele>516.327</ele>
        <time>2020-08-30T10:00:30Z</time>
      </trkpt>
      <trkpt lat="39.905406" lon="-.559522">
        <ele>516.308</ele>
        <time>2020-08-30T10:00:31Z</time>
      </trkpt>
      <trkpt lat="39.905361" lon="-.559577">
        <ele>516.464</ele>
        <time>2020-08-30T10:00:32Z</time>
      </trkpt>
      <trkpt lat="39.905293" lon="-.559628">
        <ele>516.544</ele>
        <time>2020-08-30T10:00:34Z</time>
      </trkpt>
      <trkpt lat="39.905227" lon="-.559673">
        <ele>518.396</ele>
        <time>2020-08-30T10:00:36Z</time>
      </trkpt>
      <trkpt lat="39.905163" lon="-.559733">
        <ele>518.218</ele>
        <time>2020-08-30T10:00:38Z</time>
      </trkpt>
      <trkpt lat="39.905094" lon="-.55979">
        <ele>517.386</ele>
        <time>2020-08-30T10:00:40Z</time>
      </trkpt>
      <trkpt lat="39.905054" lon="-.559823">
        <ele>516.563</ele>
        <time>2020-08-30T10:00:41Z</time>
      </trkpt>
      <trkpt lat="39.905008" lon="-.559863">
        <ele>516.831</ele>
        <time>2020-08-30T10:00:42Z</time>
      </trkpt>
      <trkpt lat="39.904965" lon="-.559904">
        <ele>517.361</ele>
        <time>2020-08-30T10:00:43Z</time>
      </trkpt>
      <trkpt lat="39.904917" lon="-.559956">
        <ele>517.594</ele>
        <time>2020-08-30T10:00:44Z</time>
      </trkpt>
      <trkpt lat="39.904875" lon="-.559975">
        <ele>518.357</ele>
        <time>2020-08-30T10:00:46Z</time>
      </trkpt>
      <trkpt lat="39.90483" lon="-.559999">
        <ele>517.122</ele>
        <time>2020-08-30T10:00:48Z</time>
      </trkpt>
      <trkpt lat="39.904788" lon="-.560044">
        <ele>516.808</ele>
        <time>2020-08-30T10:00:50Z</time>
      </trkpt>
      <trkpt lat="39.904739" lon="-.560094">
        <ele>516.694</ele>
        <time>2020-08-30T10:00:52Z</time>
      </trkpt>
      <trkpt lat="39.904695" lon="-.560142">
        <ele>516.624</ele>
        <time>2020-08-30T10:00:53Z</time>
      </trkpt>
      <trkpt lat="39.904657" lon="-.560186">
        <ele>516.626</ele>
        <time>2020-08-30T10:00:54Z</time>
      </trkpt>
      <trkpt lat="39.904595" lon="-.560261">
        <ele>516.238</ele>
        <time>2020-08-30T10:00:56Z</time>
      </trkpt>
      <trkpt lat="39.904558" lon="-.560297">
        <ele>516.086</ele>
        <time>2020-08-30T10:00:57Z</time>
      </trkpt>
      <trkpt lat="39.904515" lon="-.560337">
        <ele>514.973</ele>
        <time>2020-08-30T10:00:58Z</time>
      </trkpt>
      <trkpt lat="39.904448" lon="-.560415">
        <ele>515.181</ele>
        <time>2020-08-30T10:01:00Z</time>
      </trkpt>
      <trkpt lat="39.904412" lon="-.560451">
        <ele>514.991</ele>
        <time>2020-08-30T10:01:01Z</time>
      </trkpt>
      <trkpt lat="39.904364" lon="-.560487">
        <ele>514.987</ele>
        <time>2020-08-30T10:01:02Z</time>
      </trkpt>
      <trkpt lat="39.90432" lon="-.560522">
        <ele>515.942</ele>
        <time>2020-08-30T10:01:03Z</time>
      </trkpt>
      <trkpt lat="39.904268" lon="-.560582">
        <ele>515.926</ele>
        <time>2020-08-30T10:01:04Z</time>
      </trkpt>
      <trkpt lat="39.904215" lon="-.560609">
        <ele>514.208</ele>
        <time>2020-08-30T10:01:05Z</time>
      </trkpt>
      <trkpt lat="39.904167" lon="-.560639">
        <ele>514.273</ele>
        <time>2020-08-30T10:01:06Z</time>
      </trkpt>
      <trkpt lat="39.904117" lon="-.560687">
        <ele>515.413</ele>
        <time>2020-08-30T10:01:07Z</time>
      </trkpt>
      <trkpt lat="39.904073" lon="-.56071">
        <ele>515.495</ele>
        <time>2020-08-30T10:01:08Z</time>
      </trkpt>
      <trkpt lat="39.904016" lon="-.560745">
        <ele>515.157</ele>
        <time>2020-08-30T10:01:09Z</time>
      </trkpt>
      <trkpt lat="39.903965" lon="-.560777">
        <ele>515.135</ele>
        <time>2020-08-30T10:01:10Z</time>
      </trkpt>
      <trkpt lat="39.903913" lon="-.560825">
        <ele>515.272</ele>
        <time>2020-08-30T10:01:11Z</time>
      </trkpt>
      <trkpt lat="39.903866" lon="-.56085">
        <ele>515.370</ele>
        <time>2020-08-30T10:01:12Z</time>
      </trkpt>
      <trkpt lat="39.903811" lon="-.560882">
        <ele>515.310</ele>
        <time>2020-08-30T10:01:13Z</time>
      </trkpt>
      <trkpt lat="39.903763" lon="-.560911">
        <ele>515.187</ele>
        <time>2020-08-30T10:01:14Z</time>
      </trkpt>
      <trkpt lat="39.903706" lon="-.560949">
        <ele>515.142</ele>
        <time>2020-08-30T10:01:15Z</time>
      </trkpt>
      <trkpt lat="39.903644" lon="-.560989">
        <ele>516.226</ele>
        <time>2020-08-30T10:01:16Z</time>
      </trkpt>
      <trkpt lat="39.903592" lon="-.560997">
        <ele>516.208</ele>
        <time>2020-08-30T10:01:17Z</time>
      </trkpt>
      <trkpt lat="39.903545" lon="-.561012">
        <ele>515.533</ele>
        <time>2020-08-30T10:01:18Z</time>
      </trkpt>
      <trkpt lat="39.903495" lon="-.561052">
        <ele>515.223</ele>
        <time>2020-08-30T10:01:19Z</time>
      </trkpt>
      <trkpt lat="39.903433" lon="-.561069">
        <ele>515.175</ele>
        <time>2020-08-30T10:01:20Z</time>
      </trkpt>
      <trkpt lat="39.903383" lon="-.561085">
        <ele>514.947</ele>
        <time>2020-08-30T10:01:21Z</time>
      </trkpt>
      <trkpt lat="39.903329" lon="-.561084">
        <ele>514.985</ele>
        <time>2020-08-30T10:01:22Z</time>
      </trkpt>
      <trkpt lat="39.90328" lon="-.561081">
        <ele>514.942</ele>
        <time>2020-08-30T10:01:23Z</time>
      </trkpt>
      <trkpt lat="39.903224" lon="-.561096">
        <ele>514.930</ele>
        <time>2020-08-30T10:01:24Z</time>
      </trkpt>
      <trkpt lat="39.903169" lon="-.561106">
        <ele>514.930</ele>
        <time>2020-08-30T10:01:25Z</time>
      </trkpt>
      <trkpt lat="39.903117" lon="-.561119">
        <ele>514.744</ele>
        <time>2020-08-30T10:01:26Z</time>
      </trkpt>
      <trkpt lat="39.90307" lon="-.561118">
        <ele>514.405</ele>
        <time>2020-08-30T10:01:27Z</time>
      </trkpt>
      <trkpt lat="39.903022" lon="-.561127">
        <ele>514.115</ele>
        <time>2020-08-30T10:01:28Z</time>
      </trkpt>
      <trkpt lat="39.902969" lon="-.561143">
        <ele>513.808</ele>
        <time>2020-08-30T10:01:29Z</time>
      </trkpt>
      <trkpt lat="39.902915" lon="-.561147">
        <ele>513.599</ele>
        <time>2020-08-30T10:01:30Z</time>
      </trkpt>
      <trkpt lat="39.90286" lon="-.561134">
        <ele>513.349</ele>
        <time>2020-08-30T10:01:31Z</time>
      </trkpt>
      <trkpt lat="39.902801" lon="-.561129">
        <ele>513.381</ele>
        <time>2020-08-30T10:01:32Z</time>
      </trkpt>
      <trkpt lat="39.902742" lon="-.561124">
        <ele>513.143</ele>
        <time>2020-08-30T10:01:33Z</time>
      </trkpt>
      <trkpt lat="39.902679" lon="-.561112">
        <ele>512.931</ele>
        <time>2020-08-30T10:01:34Z</time>
      </trkpt>
      <trkpt lat="39.902629" lon="-.561102">
        <ele>512.778</ele>
        <time>2020-08-30T10:01:35Z</time>
      </trkpt>
      <trkpt lat="39.902567" lon="-.5611">
        <ele>512.556</ele>
        <time>2020-08-30T10:01:36Z</time>
      </trkpt>
      <trkpt lat="39.902499" lon="-.561094">
        <ele>512.236</ele>
        <time>2020-08-30T10:01:37Z</time>
      </trkpt>
      <trkpt lat="39.902437" lon="-.561074">
        <ele>512.023</ele>
        <time>2020-08-30T10:01:38Z</time>
      </trkpt>
      <trkpt lat="39.902383" lon="-.561052">
        <ele>511.983</ele>
        <time>2020-08-30T10:01:39Z</time>
      </trkpt>
      <trkpt lat="39.902325" lon="-.56103">
        <ele>511.711</ele>
        <time>2020-08-30T10:01:40Z</time>
      </trkpt>
      <trkpt lat="39.902271" lon="-.560999">
        <ele>511.408</ele>
        <time>2020-08-30T10:01:41Z</time>
      </trkpt>
      <trkpt lat="39.902212" lon="-.560991">
        <ele>510.517</ele>
        <time>2020-08-30T10:01:42Z</time>
      </trkpt>
      <trkpt lat="39.902149" lon="-.560964">
        <ele>510.157</ele>
        <time>2020-08-30T10:01:43Z</time>
      </trkpt>
      <trkpt lat="39.902083" lon="-.560942">
        <ele>509.789</ele>
        <time>2020-08-30T10:01:44Z</time>
      </trkpt>
      <trkpt lat="39.902022" lon="-.560918">
        <ele>509.621</ele>
        <time>2020-08-30T10:01:45Z</time>
      </trkpt>
      <trkpt lat="39.901953" lon="-.560878">
        <ele>509.649</ele>
        <time>2020-08-30T10:01:46Z</time>
      </trkpt>
      <trkpt lat="39.901892" lon="-.560832">
        <ele>509.546</ele>
        <time>2020-08-30T10:01:47Z</time>
      </trkpt>
      <trkpt lat="39.901827" lon="-.560795">
        <ele>509.564</ele>
        <time>2020-08-30T10:01:48Z</time>
      </trkpt>
      <trkpt lat="39.901761" lon="-.560754">
        <ele>509.374</ele>
        <time>2020-08-30T10:01:49Z</time>
      </trkpt>
      <trkpt lat="39.901692" lon="-.560715">
        <ele>509.137</ele>
        <time>2020-08-30T10:01:50Z</time>
      </trkpt>
      <trkpt lat="39.901643" lon="-.560667">
        <ele>509.049</ele>
        <time>2020-08-30T10:01:51Z</time>
      </trkpt>
      <trkpt lat="39.9016" lon="-.56063">
        <ele>508.913</ele>
        <time>2020-08-30T10:01:52Z</time>
      </trkpt>
      <trkpt lat="39.901532" lon="-.56056">
        <ele>508.908</ele>
        <time>2020-08-30T10:01:53Z</time>
      </trkpt>
      <trkpt lat="39.901497" lon="-.560508">
        <ele>509.098</ele>
        <time>2020-08-30T10:01:54Z</time>
      </trkpt>
      <trkpt lat="39.901446" lon="-.560473">
        <ele>509.018</ele>
        <time>2020-08-30T10:01:55Z</time>
      </trkpt>
      <trkpt lat="39.901398" lon="-.560423">
        <ele>509.280</ele>
        <time>2020-08-30T10:01:56Z</time>
      </trkpt>
      <trkpt lat="39.90134" lon="-.560376">
        <ele>508.842</ele>
        <time>2020-08-30T10:01:57Z</time>
      </trkpt>
      <trkpt lat="39.901296" lon="-.560338">
        <ele>508.580</ele>
        <time>2020-08-30T10:01:58Z</time>
      </trkpt>
      <trkpt lat="39.901256" lon="-.560289">
        <ele>508.497</ele>
        <time>2020-08-30T10:01:59Z</time>
      </trkpt>
      <trkpt lat="39.901204" lon="-.560242">
        <ele>507.765</ele>
        <time>2020-08-30T10:02:00Z</time>
      </trkpt>
      <trkpt lat="39.90115" lon="-.560205">
        <ele>507.575</ele>
        <time>2020-08-30T10:02:01Z</time>
      </trkpt>
      <trkpt lat="39.901111" lon="-.560162">
        <ele>507.494</ele>
        <time>2020-08-30T10:02:02Z</time>
      </trkpt>
      <trkpt lat="39.901075" lon="-.560127">
        <ele>507.457</ele>
        <time>2020-08-30T10:02:03Z</time>
      </trkpt>
      <trkpt lat="39.90102" lon="-.560085">
        <ele>506.822</ele>
        <time>2020-08-30T10:02:04Z</time>
      </trkpt>
      <trkpt lat="39.900972" lon="-.560035">
        <ele>506.808</ele>
        <time>2020-08-30T10:02:05Z</time>
      </trkpt>
      <trkpt lat="39.900915" lon="-.559996">
        <ele>506.864</ele>
        <time>2020-08-30T10:02:06Z</time>
      </trkpt>
      <trkpt lat="39.900856" lon="-.55995">
        <ele>507.614</ele>
        <time>2020-08-30T10:02:07Z</time>
      </trkpt>
      <trkpt lat="39.900802" lon="-.55992">
        <ele>507.686</ele>
        <time>2020-08-30T10:02:08Z</time>
      </trkpt>
      <trkpt lat="39.900748" lon="-.559894">
        <ele>506.048</ele>
        <time>2020-08-30T10:02:09Z</time>
      </trkpt>
      <trkpt lat="39.900707" lon="-.559863">
        <ele>506.026</ele>
        <time>2020-08-30T10:02:10Z</time>
      </trkpt>
      <trkpt lat="39.900664" lon="-.559823">
        <ele>506.043</ele>
        <time>2020-08-30T10:02:11Z</time>
      </trkpt>
      <trkpt lat="39.900608" lon="-.559781">
        <ele>506.091</ele>
        <time>2020-08-30T10:02:12Z</time>
      </trkpt>
      <trkpt lat="39.900549" lon="-.559727">
        <ele>506.091</ele>
        <time>2020-08-30T10:02:13Z</time>
      </trkpt>
      <trkpt lat="39.900503" lon="-.559668">
        <ele>506.989</ele>
        <time>2020-08-30T10:02:14Z</time>
      </trkpt>
      <trkpt lat="39.900454" lon="-.559626">
        <ele>507.006</ele>
        <time>2020-08-30T10:02:15Z</time>
      </trkpt>
      <trkpt lat="39.900396" lon="-.559586">
        <ele>506.226</ele>
        <time>2020-08-30T10:02:16Z</time>
      </trkpt>
      <trkpt lat="39.900336" lon="-.559527">
        <ele>505.908</ele>
        <time>2020-08-30T10:02:17Z</time>
      </trkpt>
      <trkpt lat="39.900278" lon="-.559476">
        <ele>505.883</ele>
        <time>2020-08-30T10:02:18Z</time>
      </trkpt>
      <trkpt lat="39.900217" lon="-.559433">
        <ele>505.993</ele>
        <time>2020-08-30T10:02:19Z</time>
      </trkpt>
      <trkpt lat="39.900162" lon="-.559376">
        <ele>505.915</ele>
        <time>2020-08-30T10:02:20Z</time>
      </trkpt>
      <trkpt lat="39.900116" lon="-.559318">
        <ele>506.047</ele>
        <time>2020-08-30T10:02:21Z</time>
      </trkpt>
      <trkpt lat="39.90006" lon="-.559282">
        <ele>506.765</ele>
        <time>2020-08-30T10:02:22Z</time>
      </trkpt>
      <trkpt lat="39.900008" lon="-.559236">
        <ele>506.762</ele>
        <time>2020-08-30T10:02:23Z</time>
      </trkpt>
      <trkpt lat="39.899959" lon="-.559195">
        <ele>506.330</ele>
        <time>2020-08-30T10:02:24Z</time>
      </trkpt>
      <trkpt lat="39.899922" lon="-.559149">
        <ele>506.170</ele>
        <time>2020-08-30T10:02:25Z</time>
      </trkpt>
      <trkpt lat="39.899876" lon="-.559106">
        <ele>505.947</ele>
        <time>2020-08-30T10:02:26Z</time>
      </trkpt>
      <trkpt lat="39.89983" lon="-.559061">
        <ele>505.629</ele>
        <time>2020-08-30T10:02:27Z</time>
      </trkpt>
      <trkpt lat="39.899785" lon="-.559023">
        <ele>505.221</ele>
        <time>2020-08-30T10:02:28Z</time>
      </trkpt>
      <trkpt lat="39.899727" lon="-.558987">
        <ele>504.908</ele>
        <time>2020-08-30T10:02:29Z</time>
      </trkpt>
      <trkpt lat="39.899686" lon="-.558942">
        <ele>504.649</ele>
        <time>2020-08-30T10:02:30Z</time>
      </trkpt>
      <trkpt lat="39.899647" lon="-.558897">
        <ele>504.439</ele>
        <time>2020-08-30T10:02:31Z</time>
      </trkpt>
      <trkpt lat="39.899601" lon="-.558848">
        <ele>504.271</ele>
        <time>2020-08-30T10:02:32Z</time>
      </trkpt>
      <trkpt lat="39.899526" lon="-.558823">
        <ele>504.283</ele>
        <time>2020-08-30T10:02:33Z</time>
      </trkpt>
      <trkpt lat="39.899475" lon="-.558785">
        <ele>504.031</ele>
        <time>2020-08-30T10:02:34Z</time>
      </trkpt>
      <trkpt lat="39.899431" lon="-.558747">
        <ele>503.758</ele>
        <time>2020-08-30T10:02:35Z</time>
      </trkpt>
      <trkpt lat="39.899384" lon="-.558709">
        <ele>503.636</ele>
        <time>2020-08-30T10:02:36Z</time>
      </trkpt>
      <trkpt lat="39.899334" lon="-.558666">
        <ele>503.326</ele>
        <time>2020-08-30T10:02:37Z</time>
      </trkpt>
      <trkpt lat="39.899291" lon="-.558629">
        <ele>503.314</ele>
        <time>2020-08-30T10:02:38Z</time>
      </trkpt>
      <trkpt lat="39.899252" lon="-.558595">
        <ele>503.154</ele>
        <time>2020-08-30T10:02:39Z</time>
      </trkpt>
      <trkpt lat="39.899207" lon="-.558551">
        <ele>502.909</ele>
        <time>2020-08-30T10:02:40Z</time>
      </trkpt>
      <trkpt lat="39.899165" lon="-.558511">
        <ele>502.908</ele>
        <time>2020-08-30T10:02:41Z</time>
      </trkpt>
      <trkpt lat="39.899122" lon="-.558475">
        <ele>502.946</ele>
        <time>2020-08-30T10:02:42Z</time>
      </trkpt>
      <trkpt lat="39.899077" lon="-.558436">
        <ele>502.846</ele>
        <time>2020-08-30T10:02:43Z</time>
      </trkpt>
      <trkpt lat="39.899032" lon="-.558396">
        <ele>502.758</ele>
        <time>2020-08-30T10:02:44Z</time>
      </trkpt>
      <trkpt lat="39.898983" lon="-.55836">
        <ele>502.640</ele>
        <time>2020-08-30T10:02:45Z</time>
      </trkpt>
      <trkpt lat="39.898935" lon="-.558321">
        <ele>502.458</ele>
        <time>2020-08-30T10:02:46Z</time>
      </trkpt>
      <trkpt lat="39.898887" lon="-.558283">
        <ele>502.135</ele>
        <time>2020-08-30T10:02:47Z</time>
      </trkpt>
      <trkpt lat="39.898847" lon="-.558245">
        <ele>502.053</ele>
        <time>2020-08-30T10:02:48Z</time>
      </trkpt>
      <trkpt lat="39.898794" lon="-.558212">
        <ele>501.973</ele>
        <time>2020-08-30T10:02:49Z</time>
      </trkpt>
      <trkpt lat="39.89875" lon="-.558178">
        <ele>501.844</ele>
        <time>2020-08-30T10:02:50Z</time>
      </trkpt>
      <trkpt lat="39.898705" lon="-.558137">
        <ele>501.705</ele>
        <time>2020-08-30T10:02:51Z</time>
      </trkpt>
      <trkpt lat="39.898656" lon="-.558102">
        <ele>501.715</ele>
        <time>2020-08-30T10:02:52Z</time>
      </trkpt>
      <trkpt lat="39.898616" lon="-.558058">
        <ele>501.608</ele>
        <time>2020-08-30T10:02:53Z</time>
      </trkpt>
      <trkpt lat="39.898571" lon="-.558017">
        <ele>501.359</ele>
        <time>2020-08-30T10:02:54Z</time>
      </trkpt>
      <trkpt lat="39.898528" lon="-.557979">
        <ele>501.299</ele>
        <time>2020-08-30T10:02:55Z</time>
      </trkpt>
      <trkpt lat="39.898481" lon="-.557934">
        <ele>501.191</ele>
        <time>2020-08-30T10:02:56Z</time>
      </trkpt>
      <trkpt lat="39.898439" lon="-.557895">
        <ele>501.063</ele>
        <time>2020-08-30T10:02:57Z</time>
      </trkpt>
      <trkpt lat="39.898397" lon="-.557859">
        <ele>500.971</ele>
        <time>2020-08-30T10:02:58Z</time>
      </trkpt>
      <trkpt lat="39.898348" lon="-.557808">
        <ele>500.888</ele>
        <time>2020-08-30T10:02:59Z</time>
      </trkpt>
      <trkpt lat="39.898315" lon="-.557746">
        <ele>500.766</ele>
        <time>2020-08-30T10:03:00Z</time>
      </trkpt>
      <trkpt lat="39.898252" lon="-.557669">
        <ele>500.686</ele>
        <time>2020-08-30T10:03:02Z</time>
      </trkpt>
      <trkpt lat="39.898216" lon="-.557629">
        <ele>500.511</ele>
        <time>2020-08-30T10:03:03Z</time>
      </trkpt>
      <trkpt lat="39.898168" lon="-.557576">
        <ele>500.521</ele>
        <time>2020-08-30T10:03:04Z</time>
      </trkpt>
      <trkpt lat="39.898124" lon="-.557526">
        <ele>500.403</ele>
        <time>2020-08-30T10:03:05Z</time>
      </trkpt>
      <trkpt lat="39.898087" lon="-.557482">
        <ele>500.308</ele>
        <time>2020-08-30T10:03:06Z</time>
      </trkpt>
      <trkpt lat="39.898037" lon="-.557422">
        <ele>500.246</ele>
        <time>2020-08-30T10:03:07Z</time>
      </trkpt>
      <trkpt lat="39.897997" lon="-.557361">
        <ele>500.116</ele>
        <time>2020-08-30T10:03:08Z</time>
      </trkpt>
      <trkpt lat="39.897992" lon="-.557278">
        <ele>500.058</ele>
        <time>2020-08-30T10:03:09Z</time>
      </trkpt>
      <trkpt lat="39.897951" lon="-.557216">
        <ele>499.950</ele>
        <time>2020-08-30T10:03:10Z</time>
      </trkpt>
      <trkpt lat="39.897913" lon="-.557162">
        <ele>499.878</ele>
        <time>2020-08-30T10:03:11Z</time>
      </trkpt>
      <trkpt lat="39.897863" lon="-.557103">
        <ele>499.865</ele>
        <time>2020-08-30T10:03:12Z</time>
      </trkpt>
      <trkpt lat="39.89783" lon="-.55704">
        <ele>499.763</ele>
        <time>2020-08-30T10:03:13Z</time>
      </trkpt>
      <trkpt lat="39.897799" lon="-.55698">
        <ele>499.543</ele>
        <time>2020-08-30T10:03:14Z</time>
      </trkpt>
      <trkpt lat="39.897766" lon="-.556929">
        <ele>499.437</ele>
        <time>2020-08-30T10:03:15Z</time>
      </trkpt>
      <trkpt lat="39.897733" lon="-.556871">
        <ele>499.249</ele>
        <time>2020-08-30T10:03:16Z</time>
      </trkpt>
      <trkpt lat="39.897698" lon="-.556812">
        <ele>499.113</ele>
        <time>2020-08-30T10:03:17Z</time>
      </trkpt>
      <trkpt lat="39.897666" lon="-.556751">
        <ele>498.908</ele>
        <time>2020-08-30T10:03:18Z</time>
      </trkpt>
      <trkpt lat="39.897626" lon="-.556697">
        <ele>498.878</ele>
        <time>2020-08-30T10:03:19Z</time>
      </trkpt>
      <trkpt lat="39.897586" lon="-.556639">
        <ele>498.718</ele>
        <time>2020-08-30T10:03:20Z</time>
      </trkpt>
      <trkpt lat="39.897559" lon="-.556572">
        <ele>498.720</ele>
        <time>2020-08-30T10:03:21Z</time>
      </trkpt>
      <trkpt lat="39.897531" lon="-.556519">
        <ele>498.552</ele>
        <time>2020-08-30T10:03:22Z</time>
      </trkpt>
      <trkpt lat="39.897495" lon="-.556465">
        <ele>498.330</ele>
        <time>2020-08-30T10:03:23Z</time>
      </trkpt>
      <trkpt lat="39.89746" lon="-.556404">
        <ele>498.267</ele>
        <time>2020-08-30T10:03:24Z</time>
      </trkpt>
      <trkpt lat="39.897431" lon="-.556345">
        <ele>498.025</ele>
        <time>2020-08-30T10:03:25Z</time>
      </trkpt>
      <trkpt lat="39.897382" lon="-.556292">
        <ele>497.795</ele>
        <time>2020-08-30T10:03:26Z</time>
      </trkpt>
      <trkpt lat="39.897349" lon="-.556242">
        <ele>497.551</ele>
        <time>2020-08-30T10:03:27Z</time>
      </trkpt>
      <trkpt lat="39.897314" lon="-.556184">
        <ele>497.401</ele>
        <time>2020-08-30T10:03:28Z</time>
      </trkpt>
      <trkpt lat="39.897283" lon="-.556115">
        <ele>497.311</ele>
        <time>2020-08-30T10:03:29Z</time>
      </trkpt>
      <trkpt lat="39.897256" lon="-.556061">
        <ele>497.208</ele>
        <time>2020-08-30T10:03:30Z</time>
      </trkpt>
      <trkpt lat="39.897226" lon="-.556009">
        <ele>497.130</ele>
        <time>2020-08-30T10:03:31Z</time>
      </trkpt>
      <trkpt lat="39.897197" lon="-.555937">
        <ele>497.010</ele>
        <time>2020-08-30T10:03:32Z</time>
      </trkpt>
      <trkpt lat="39.897163" lon="-.555888">
        <ele>496.912</ele>
        <time>2020-08-30T10:03:33Z</time>
      </trkpt>
      <trkpt lat="39.897132" lon="-.555834">
        <ele>496.654</ele>
        <time>2020-08-30T10:03:34Z</time>
      </trkpt>
      <trkpt lat="39.897103" lon="-.555783">
        <ele>496.572</ele>
        <time>2020-08-30T10:03:35Z</time>
      </trkpt>
      <trkpt lat="39.897083" lon="-.555728">
        <ele>496.419</ele>
        <time>2020-08-30T10:03:36Z</time>
      </trkpt>
      <trkpt lat="39.89706" lon="-.555672">
        <ele>496.387</ele>
        <time>2020-08-30T10:03:37Z</time>
      </trkpt>
      <trkpt lat="39.897031" lon="-.555614">
        <ele>496.237</ele>
        <time>2020-08-30T10:03:38Z</time>
      </trkpt>
      <trkpt lat="39.89698" lon="-.555536">
        <ele>495.949</ele>
        <time>2020-08-30T10:03:40Z</time>
      </trkpt>
      <trkpt lat="39.89695" lon="-.555483">
        <ele>495.602</ele>
        <time>2020-08-30T10:03:41Z</time>
      </trkpt>
      <trkpt lat="39.8969" lon="-.555386">
        <ele>495.222</ele>
        <time>2020-08-30T10:03:43Z</time>
      </trkpt>
      <trkpt lat="39.896868" lon="-.555324">
        <ele>495.108</ele>
        <time>2020-08-30T10:03:44Z</time>
      </trkpt>
      <trkpt lat="39.896833" lon="-.555275">
        <ele>495.089</ele>
        <time>2020-08-30T10:03:45Z</time>
      </trkpt>
      <trkpt lat="39.8968" lon="-.555219">
        <ele>495.099</ele>
        <time>2020-08-30T10:03:46Z</time>
      </trkpt>
      <trkpt lat="39.896771" lon="-.555165">
        <ele>495.051</ele>
        <time>2020-08-30T10:03:47Z</time>
      </trkpt>
      <trkpt lat="39.896741" lon="-.555107">
        <ele>495.073</ele>
        <time>2020-08-30T10:03:48Z</time>
      </trkpt>
      <trkpt lat="39.896712" lon="-.555055">
        <ele>494.911</ele>
        <time>2020-08-30T10:03:49Z</time>
      </trkpt>
      <trkpt lat="39.896684" lon="-.554997">
        <ele>494.748</ele>
        <time>2020-08-30T10:03:50Z</time>
      </trkpt>
      <trkpt lat="39.896653" lon="-.554943">
        <ele>494.566</ele>
        <time>2020-08-30T10:03:51Z</time>
      </trkpt>
      <trkpt lat="39.896622" lon="-.554883">
        <ele>494.316</ele>
        <time>2020-08-30T10:03:52Z</time>
      </trkpt>
      <trkpt lat="39.896589" lon="-.554823">
        <ele>493.974</ele>
        <time>2020-08-30T10:03:53Z</time>
      </trkpt>
      <trkpt lat="39.896563" lon="-.554768">
        <ele>493.956</ele>
        <time>2020-08-30T10:03:54Z</time>
      </trkpt>
      <trkpt lat="39.896532" lon="-.554705">
        <ele>493.821</ele>
        <time>2020-08-30T10:03:55Z</time>
      </trkpt>
      <trkpt lat="39.8965" lon="-.554648">
        <ele>493.708</ele>
        <time>2020-08-30T10:03:56Z</time>
      </trkpt>
      <trkpt lat="39.896477" lon="-.554591">
        <ele>493.762</ele>
        <time>2020-08-30T10:03:57Z</time>
      </trkpt>
      <trkpt lat="39.896442" lon="-.554532">
        <ele>493.652</ele>
        <time>2020-08-30T10:03:58Z</time>
      </trkpt>
      <trkpt lat="39.896403" lon="-.55448">
        <ele>493.614</ele>
        <time>2020-08-30T10:03:59Z</time>
      </trkpt>
      <trkpt lat="39.89638" lon="-.554425">
        <ele>493.596</ele>
        <time>2020-08-30T10:04:00Z</time>
      </trkpt>
      <trkpt lat="39.896347" lon="-.55437">
        <ele>493.444</ele>
        <time>2020-08-30T10:04:01Z</time>
      </trkpt>
      <trkpt lat="39.896314" lon="-.554313">
        <ele>493.231</ele>
        <time>2020-08-30T10:04:02Z</time>
      </trkpt>
      <trkpt lat="39.89628" lon="-.554254">
        <ele>493.069</ele>
        <time>2020-08-30T10:04:03Z</time>
      </trkpt>
      <trkpt lat="39.896251" lon="-.554201">
        <ele>492.869</ele>
        <time>2020-08-30T10:04:04Z</time>
      </trkpt>
      <trkpt lat="39.896219" lon="-.554139">
        <ele>492.525</ele>
        <time>2020-08-30T10:04:05Z</time>
      </trkpt>
      <trkpt lat="39.896185" lon="-.554084">
        <ele>492.426</ele>
        <time>2020-08-30T10:04:06Z</time>
      </trkpt>
      <trkpt lat="39.896154" lon="-.554027">
        <ele>492.408</ele>
        <time>2020-08-30T10:04:07Z</time>
      </trkpt>
      <trkpt lat="39.896124" lon="-.553959">
        <ele>492.308</ele>
        <time>2020-08-30T10:04:08Z</time>
      </trkpt>
      <trkpt lat="39.896092" lon="-.553903">
        <ele>492.267</ele>
        <time>2020-08-30T10:04:09Z</time>
      </trkpt>
      <trkpt lat="39.896057" lon="-.553843">
        <ele>492.297</ele>
        <time>2020-08-30T10:04:10Z</time>
      </trkpt>
      <trkpt lat="39.89602" lon="-.553783">
        <ele>492.379</ele>
        <time>2020-08-30T10:04:11Z</time>
      </trkpt>
      <trkpt lat="39.895989" lon="-.553726">
        <ele>492.371</ele>
        <time>2020-08-30T10:04:12Z</time>
      </trkpt>
      <trkpt lat="39.895958" lon="-.553677">
        <ele>492.249</ele>
        <time>2020-08-30T10:04:13Z</time>
      </trkpt>
      <trkpt lat="39.895925" lon="-.553616">
        <ele>492.146</ele>
        <time>2020-08-30T10:04:14Z</time>
      </trkpt>
      <trkpt lat="39.8959" lon="-.553566">
        <ele>492.144</ele>
        <time>2020-08-30T10:04:15Z</time>
      </trkpt>
      <trkpt lat="39.895871" lon="-.553514">
        <ele>491.864</ele>
        <time>2020-08-30T10:04:16Z</time>
      </trkpt>
      <trkpt lat="39.895841" lon="-.553463">
        <ele>491.734</ele>
        <time>2020-08-30T10:04:17Z</time>
      </trkpt>
      <trkpt lat="39.895796" lon="-.553362">
        <ele>491.655</ele>
        <time>2020-08-30T10:04:19Z</time>
      </trkpt>
      <trkpt lat="39.895766" lon="-.553309">
        <ele>491.510</ele>
        <time>2020-08-30T10:04:20Z</time>
      </trkpt>
      <trkpt lat="39.895714" lon="-.553217">
        <ele>491.308</ele>
        <time>2020-08-30T10:04:22Z</time>
      </trkpt>
      <trkpt lat="39.895682" lon="-.553168">
        <ele>491.398</ele>
        <time>2020-08-30T10:04:23Z</time>
      </trkpt>
      <trkpt lat="39.895649" lon="-.553117">
        <ele>491.278</ele>
        <time>2020-08-30T10:04:24Z</time>
      </trkpt>
      <trkpt lat="39.895619" lon="-.553073">
        <ele>491.160</ele>
        <time>2020-08-30T10:04:25Z</time>
      </trkpt>
      <trkpt lat="39.895591" lon="-.553019">
        <ele>491.182</ele>
        <time>2020-08-30T10:04:26Z</time>
      </trkpt>
      <trkpt lat="39.895563" lon="-.55296">
        <ele>491.150</ele>
        <time>2020-08-30T10:04:27Z</time>
      </trkpt>
      <trkpt lat="39.895534" lon="-.552912">
        <ele>491.197</ele>
        <time>2020-08-30T10:04:28Z</time>
      </trkpt>
      <trkpt lat="39.895484" lon="-.552818">
        <ele>491.165</ele>
        <time>2020-08-30T10:04:30Z</time>
      </trkpt>
      <trkpt lat="39.895441" lon="-.552738">
        <ele>490.915</ele>
        <time>2020-08-30T10:04:32Z</time>
      </trkpt>
      <trkpt lat="39.895395" lon="-.552669">
        <ele>490.929</ele>
        <time>2020-08-30T10:04:34Z</time>
      </trkpt>
      <trkpt lat="39.89535" lon="-.552581">
        <ele>491.100</ele>
        <time>2020-08-30T10:04:36Z</time>
      </trkpt>
      <trkpt lat="39.895303" lon="-.552507">
        <ele>491.220</ele>
        <time>2020-08-30T10:04:38Z</time>
      </trkpt>
      <trkpt lat="39.895272" lon="-.55245">
        <ele>491.208</ele>
        <time>2020-08-30T10:04:39Z</time>
      </trkpt>
      <trkpt lat="39.895239" lon="-.552395">
        <ele>491.277</ele>
        <time>2020-08-30T10:04:40Z</time>
      </trkpt>
      <trkpt lat="39.895194" lon="-.552294">
        <ele>491.257</ele>
        <time>2020-08-30T10:04:42Z</time>
      </trkpt>
      <trkpt lat="39.895167" lon="-.552243">
        <ele>491.379</ele>
        <time>2020-08-30T10:04:43Z</time>
      </trkpt>
      <trkpt lat="39.895139" lon="-.552194">
        <ele>491.361</ele>
        <time>2020-08-30T10:04:44Z</time>
      </trkpt>
      <trkpt lat="39.895108" lon="-.552142">
        <ele>491.369</ele>
        <time>2020-08-30T10:04:45Z</time>
      </trkpt>
      <trkpt lat="39.895075" lon="-.552091">
        <ele>491.326</ele>
        <time>2020-08-30T10:04:46Z</time>
      </trkpt>
      <trkpt lat="39.895046" lon="-.552021">
        <ele>491.354</ele>
        <time>2020-08-30T10:04:47Z</time>
      </trkpt>
      <trkpt lat="39.895015" lon="-.55197">
        <ele>491.364</ele>
        <time>2020-08-30T10:04:48Z</time>
      </trkpt>
      <trkpt lat="39.894994" lon="-.551908">
        <ele>491.398</ele>
        <time>2020-08-30T10:04:49Z</time>
      </trkpt>
      <trkpt lat="39.894943" lon="-.551807">
        <ele>491.415</ele>
        <time>2020-08-30T10:04:51Z</time>
      </trkpt>
      <trkpt lat="39.894893" lon="-.551713">
        <ele>491.326</ele>
        <time>2020-08-30T10:04:53Z</time>
      </trkpt>
      <trkpt lat="39.894851" lon="-.551639">
        <ele>491.208</ele>
        <time>2020-08-30T10:04:55Z</time>
      </trkpt>
      <trkpt lat="39.894811" lon="-.551551">
        <ele>490.914</ele>
        <time>2020-08-30T10:04:57Z</time>
      </trkpt>
      <trkpt lat="39.894766" lon="-.551457">
        <ele>490.784</ele>
        <time>2020-08-30T10:04:59Z</time>
      </trkpt>
      <trkpt lat="39.894723" lon="-.551383">
        <ele>490.026</ele>
        <time>2020-08-30T10:05:01Z</time>
      </trkpt>
      <trkpt lat="39.894681" lon="-.5513">
        <ele>489.398</ele>
        <time>2020-08-30T10:05:03Z</time>
      </trkpt>
      <trkpt lat="39.894645" lon="-.551226">
        <ele>490.996</ele>
        <time>2020-08-30T10:05:05Z</time>
      </trkpt>
      <trkpt lat="39.894602" lon="-.551144">
        <ele>491.693</ele>
        <time>2020-08-30T10:05:07Z</time>
      </trkpt>
      <trkpt lat="39.89455" lon="-.55107">
        <ele>489.591</ele>
        <time>2020-08-30T10:05:09Z</time>
      </trkpt>
      <trkpt lat="39.89452" lon="-.551026">
        <ele>489.571</ele>
        <time>2020-08-30T10:05:10Z</time>
      </trkpt>
      <trkpt lat="39.894474" lon="-.550961">
        <ele>491.979</ele>
        <time>2020-08-30T10:05:12Z</time>
      </trkpt>
      <trkpt lat="39.894431" lon="-.5509">
        <ele>490.505</ele>
        <time>2020-08-30T10:05:14Z</time>
      </trkpt>
      <trkpt lat="39.894399" lon="-.550834">
        <ele>490.325</ele>
        <time>2020-08-30T10:05:16Z</time>
      </trkpt>
      <trkpt lat="39.894377" lon="-.550782">
        <ele>491.708</ele>
        <time>2020-08-30T10:05:17Z</time>
      </trkpt>
      <trkpt lat="39.89436" lon="-.550728">
        <ele>493.252</ele>
        <time>2020-08-30T10:05:18Z</time>
      </trkpt>
      <trkpt lat="39.894335" lon="-.550644">
        <ele>492.952</ele>
        <time>2020-08-30T10:05:20Z</time>
      </trkpt>
      <trkpt lat="39.894316" lon="-.550556">
        <ele>491.964</ele>
        <time>2020-08-30T10:05:22Z</time>
      </trkpt>
      <trkpt lat="39.89427" lon="-.55049">
        <ele>491.996</ele>
        <time>2020-08-30T10:05:24Z</time>
      </trkpt>
      <trkpt lat="39.894251" lon="-.550426">
        <ele>492.024</ele>
        <time>2020-08-30T10:05:25Z</time>
      </trkpt>
      <trkpt lat="39.894194" lon="-.550366">
        <ele>492.281</ele>
        <time>2020-08-30T10:05:27Z</time>
      </trkpt>
      <trkpt lat="39.894154" lon="-.550263">
        <ele>492.279</ele>
        <time>2020-08-30T10:05:29Z</time>
      </trkpt>
      <trkpt lat="39.894122" lon="-.550181">
        <ele>492.199</ele>
        <time>2020-08-30T10:05:31Z</time>
      </trkpt>
      <trkpt lat="39.894067" lon="-.550104">
        <ele>490.898</ele>
        <time>2020-08-30T10:05:33Z</time>
      </trkpt>
      <trkpt lat="39.894025" lon="-.550017">
        <ele>491.415</ele>
        <time>2020-08-30T10:05:35Z</time>
      </trkpt>
      <trkpt lat="39.893988" lon="-.54998">
        <ele>491.726</ele>
        <time>2020-08-30T10:05:36Z</time>
      </trkpt>
      <trkpt lat="39.893948" lon="-.549911">
        <ele>492.308</ele>
        <time>2020-08-30T10:05:38Z</time>
      </trkpt>
      <trkpt lat="39.89392" lon="-.549852">
        <ele>492.354</ele>
        <time>2020-08-30T10:05:39Z</time>
      </trkpt>
      <trkpt lat="39.893899" lon="-.549786">
        <ele>491.764</ele>
        <time>2020-08-30T10:05:41Z</time>
      </trkpt>
      <trkpt lat="39.893876" lon="-.54972">
        <ele>490.896</ele>
        <time>2020-08-30T10:05:43Z</time>
      </trkpt>
      <trkpt lat="39.893828" lon="-.549639">
        <ele>491.338</ele>
        <time>2020-08-30T10:05:46Z</time>
      </trkpt>
      <trkpt lat="39.893811" lon="-.549576">
        <ele>491.716</ele>
        <time>2020-08-30T10:05:48Z</time>
      </trkpt>
      <trkpt lat="39.893772" lon="-.549521">
        <ele>492.573</ele>
        <time>2020-08-30T10:05:50Z</time>
      </trkpt>
      <trkpt lat="39.89371" lon="-.549485">
        <ele>492.441</ele>
        <time>2020-08-30T10:05:52Z</time>
      </trkpt>
      <trkpt lat="39.893639" lon="-.549446">
        <ele>492.461</ele>
        <time>2020-08-30T10:05:54Z</time>
      </trkpt>
      <trkpt lat="39.893584" lon="-.549391">
        <ele>492.419</ele>
        <time>2020-08-30T10:05:56Z</time>
      </trkpt>
      <trkpt lat="39.893544" lon="-.549312">
        <ele>492.909</ele>
        <time>2020-08-30T10:05:58Z</time>
      </trkpt>
      <trkpt lat="39.893509" lon="-.54924">
        <ele>492.919</ele>
        <time>2020-08-30T10:06:00Z</time>
      </trkpt>
      <trkpt lat="39.893477" lon="-.549189">
        <ele>492.908</ele>
        <time>2020-08-30T10:06:01Z</time>
      </trkpt>
      <trkpt lat="39.893432" lon="-.549136">
        <ele>492.936</ele>
        <time>2020-08-30T10:06:02Z</time>
      </trkpt>
      <trkpt lat="39.893401" lon="-.549078">
        <ele>492.426</ele>
        <time>2020-08-30T10:06:03Z</time>
      </trkpt>
      <trkpt lat="39.893354" lon="-.549044">
        <ele>492.468</ele>
        <time>2020-08-30T10:06:04Z</time>
      </trkpt>
      <trkpt lat="39.893279" lon="-.548986">
        <ele>492.690</ele>
        <time>2020-08-30T10:06:06Z</time>
      </trkpt>
      <trkpt lat="39.893214" lon="-.548912">
        <ele>492.418</ele>
        <time>2020-08-30T10:06:08Z</time>
      </trkpt>
      <trkpt lat="39.893185" lon="-.548863">
        <ele>492.465</ele>
        <time>2020-08-30T10:06:09Z</time>
      </trkpt>
      <trkpt lat="39.893127" lon="-.548798">
        <ele>492.323</ele>
        <time>2020-08-30T10:06:11Z</time>
      </trkpt>
      <trkpt lat="39.893053" lon="-.548754">
        <ele>493.063</ele>
        <time>2020-08-30T10:06:15Z</time>
      </trkpt>
      <trkpt lat="39.893012" lon="-.548723">
        <ele>493.562</ele>
        <time>2020-08-30T10:06:17Z</time>
      </trkpt>
      <trkpt lat="39.892974" lon="-.548647">
        <ele>493.183</ele>
        <time>2020-08-30T10:06:19Z</time>
      </trkpt>
      <trkpt lat="39.892936" lon="-.548594">
        <ele>492.811</ele>
        <time>2020-08-30T10:06:21Z</time>
      </trkpt>
      <trkpt lat="39.892895" lon="-.548541">
        <ele>492.508</ele>
        <time>2020-08-30T10:06:23Z</time>
      </trkpt>
      <trkpt lat="39.89285" lon="-.548493">
        <ele>492.671</ele>
        <time>2020-08-30T10:06:25Z</time>
      </trkpt>
      <trkpt lat="39.892795" lon="-.548442">
        <ele>492.561</ele>
        <time>2020-08-30T10:06:27Z</time>
      </trkpt>
      <trkpt lat="39.892741" lon="-.548405">
        <ele>492.383</ele>
        <time>2020-08-30T10:06:29Z</time>
      </trkpt>
      <trkpt lat="39.892677" lon="-.548398">
        <ele>492.275</ele>
        <time>2020-08-30T10:06:30Z</time>
      </trkpt>
      <trkpt lat="39.892605" lon="-.548371">
        <ele>492.373</ele>
        <time>2020-08-30T10:06:32Z</time>
      </trkpt>
      <trkpt lat="39.892529" lon="-.548323">
        <ele>492.760</ele>
        <time>2020-08-30T10:06:34Z</time>
      </trkpt>
      <trkpt lat="39.892459" lon="-.5483">
        <ele>493.448</ele>
        <time>2020-08-30T10:06:36Z</time>
      </trkpt>
      <trkpt lat="39.892393" lon="-.54823">
        <ele>493.428</ele>
        <time>2020-08-30T10:06:38Z</time>
      </trkpt>
      <trkpt lat="39.892331" lon="-.548174">
        <ele>493.565</ele>
        <time>2020-08-30T10:06:40Z</time>
      </trkpt>
      <trkpt lat="39.892244" lon="-.548168">
        <ele>493.968</ele>
        <time>2020-08-30T10:06:42Z</time>
      </trkpt>
      <trkpt lat="39.892168" lon="-.548157">
        <ele>493.714</ele>
        <time>2020-08-30T10:06:44Z</time>
      </trkpt>
      <trkpt lat="39.892101" lon="-.54812">
        <ele>493.608</ele>
        <time>2020-08-30T10:06:46Z</time>
      </trkpt>
      <trkpt lat="39.892019" lon="-.548088">
        <ele>493.761</ele>
        <time>2020-08-30T10:06:48Z</time>
      </trkpt>
      <trkpt lat="39.89195" lon="-.548068">
        <ele>493.851</ele>
        <time>2020-08-30T10:06:50Z</time>
      </trkpt>
      <trkpt lat="39.891869" lon="-.548065">
        <ele>493.573</ele>
        <time>2020-08-30T10:06:52Z</time>
      </trkpt>
      <trkpt lat="39.891802" lon="-.548066">
        <ele>493.055</ele>
        <time>2020-08-30T10:06:54Z</time>
      </trkpt>
      <trkpt lat="39.891723" lon="-.548036">
        <ele>492.273</ele>
        <time>2020-08-30T10:06:56Z</time>
      </trkpt>
      <trkpt lat="39.891646" lon="-.548016">
        <ele>492.370</ele>
        <time>2020-08-30T10:06:58Z</time>
      </trkpt>
      <trkpt lat="39.891604" lon="-.547977">
        <ele>492.348</ele>
        <time>2020-08-30T10:06:59Z</time>
      </trkpt>
      <trkpt lat="39.89154" lon="-.547947">
        <ele>492.818</ele>
        <time>2020-08-30T10:07:01Z</time>
      </trkpt>
      <trkpt lat="39.891458" lon="-.547921">
        <ele>493.581</ele>
        <time>2020-08-30T10:07:03Z</time>
      </trkpt>
      <trkpt lat="39.89138" lon="-.547891">
        <ele>494.161</ele>
        <time>2020-08-30T10:07:05Z</time>
      </trkpt>
      <trkpt lat="39.891291" lon="-.54785">
        <ele>494.417</ele>
        <time>2020-08-30T10:07:07Z</time>
      </trkpt>
      <trkpt lat="39.891212" lon="-.547799">
        <ele>494.308</ele>
        <time>2020-08-30T10:07:09Z</time>
      </trkpt>
      <trkpt lat="39.891152" lon="-.547796">
        <ele>494.083</ele>
        <time>2020-08-30T10:07:11Z</time>
      </trkpt>
      <trkpt lat="39.891077" lon="-.54778">
        <ele>493.743</ele>
        <time>2020-08-30T10:07:13Z</time>
      </trkpt>
      <trkpt lat="39.891025" lon="-.547772">
        <ele>492.765</ele>
        <time>2020-08-30T10:07:15Z</time>
      </trkpt>
      <trkpt lat="39.890963" lon="-.547764">
        <ele>492.057</ele>
        <time>2020-08-30T10:07:17Z</time>
      </trkpt>
      <trkpt lat="39.890881" lon="-.547773">
        <ele>493.045</ele>
        <time>2020-08-30T10:07:19Z</time>
      </trkpt>
      <trkpt lat="39.890803" lon="-.547788">
        <ele>493.782</ele>
        <time>2020-08-30T10:07:21Z</time>
      </trkpt>
      <trkpt lat="39.890727" lon="-.547788">
        <ele>493.960</ele>
        <time>2020-08-30T10:07:23Z</time>
      </trkpt>
      <trkpt lat="39.890646" lon="-.547765">
        <ele>493.190</ele>
        <time>2020-08-30T10:07:25Z</time>
      </trkpt>
      <trkpt lat="39.890567" lon="-.547752">
        <ele>493.195</ele>
        <time>2020-08-30T10:07:27Z</time>
      </trkpt>
      <trkpt lat="39.890482" lon="-.547744">
        <ele>493.149</ele>
        <time>2020-08-30T10:07:29Z</time>
      </trkpt>
      <trkpt lat="39.89041" lon="-.547732">
        <ele>493.423</ele>
        <time>2020-08-30T10:07:31Z</time>
      </trkpt>
      <trkpt lat="39.890341" lon="-.547714">
        <ele>493.508</ele>
        <time>2020-08-30T10:07:33Z</time>
      </trkpt>
      <trkpt lat="39.890265" lon="-.547707">
        <ele>492.834</ele>
        <time>2020-08-30T10:07:35Z</time>
      </trkpt>
      <trkpt lat="39.890199" lon="-.547693">
        <ele>493.044</ele>
        <time>2020-08-30T10:07:37Z</time>
      </trkpt>
      <trkpt lat="39.890141" lon="-.547651">
        <ele>493.286</ele>
        <time>2020-08-30T10:07:39Z</time>
      </trkpt>
      <trkpt lat="39.890079" lon="-.547619">
        <ele>493.448</ele>
        <time>2020-08-30T10:07:41Z</time>
      </trkpt>
      <trkpt lat="39.890005" lon="-.547592">
        <ele>493.616</ele>
        <time>2020-08-30T10:07:43Z</time>
      </trkpt>
      <trkpt lat="39.889948" lon="-.547563">
        <ele>493.883</ele>
        <time>2020-08-30T10:07:45Z</time>
      </trkpt>
      <trkpt lat="39.889879" lon="-.547572">
        <ele>493.881</ele>
        <time>2020-08-30T10:07:47Z</time>
      </trkpt>
      <trkpt lat="39.889827" lon="-.547539">
        <ele>493.451</ele>
        <time>2020-08-30T10:07:49Z</time>
      </trkpt>
      <trkpt lat="39.889767" lon="-.54751">
        <ele>493.192</ele>
        <time>2020-08-30T10:07:51Z</time>
      </trkpt>
      <trkpt lat="39.889688" lon="-.547493">
        <ele>493.073</ele>
        <time>2020-08-30T10:07:53Z</time>
      </trkpt>
      <trkpt lat="39.889633" lon="-.547461">
        <ele>492.820</ele>
        <time>2020-08-30T10:07:55Z</time>
      </trkpt>
      <trkpt lat="39.889592" lon="-.547412">
        <ele>492.808</ele>
        <time>2020-08-30T10:07:57Z</time>
      </trkpt>
      <trkpt lat="39.889556" lon="-.547348">
        <ele>492.744</ele>
        <time>2020-08-30T10:07:59Z</time>
      </trkpt>
      <trkpt lat="39.889508" lon="-.547299">
        <ele>492.714</ele>
        <time>2020-08-30T10:08:01Z</time>
      </trkpt>
      <trkpt lat="39.88945" lon="-.547243">
        <ele>492.916</ele>
        <time>2020-08-30T10:08:03Z</time>
      </trkpt>
      <trkpt lat="39.889418" lon="-.547172">
        <ele>492.978</ele>
        <time>2020-08-30T10:08:05Z</time>
      </trkpt>
      <trkpt lat="39.889369" lon="-.547112">
        <ele>493.086</ele>
        <time>2020-08-30T10:08:07Z</time>
      </trkpt>
      <trkpt lat="39.88933" lon="-.547077">
        <ele>493.013</ele>
        <time>2020-08-30T10:08:09Z</time>
      </trkpt>
      <trkpt lat="39.889296" lon="-.547028">
        <ele>493.171</ele>
        <time>2020-08-30T10:08:11Z</time>
      </trkpt>
      <trkpt lat="39.88924" lon="-.546996">
        <ele>493.161</ele>
        <time>2020-08-30T10:08:13Z</time>
      </trkpt>
      <trkpt lat="39.889202" lon="-.546917">
        <ele>493.219</ele>
        <time>2020-08-30T10:08:15Z</time>
      </trkpt>
      <trkpt lat="39.889138" lon="-.546868">
        <ele>493.209</ele>
        <time>2020-08-30T10:08:17Z</time>
      </trkpt>
      <trkpt lat="39.88907" lon="-.546822">
        <ele>493.319</ele>
        <time>2020-08-30T10:08:19Z</time>
      </trkpt>
      <trkpt lat="39.889036" lon="-.546758">
        <ele>493.208</ele>
        <time>2020-08-30T10:08:21Z</time>
      </trkpt>
      <trkpt lat="39.889042" lon="-.546663">
        <ele>493.166</ele>
        <time>2020-08-30T10:08:23Z</time>
      </trkpt>
      <trkpt lat="39.889006" lon="-.546604">
        <ele>493.126</ele>
        <time>2020-08-30T10:08:25Z</time>
      </trkpt>
      <trkpt lat="39.888947" lon="-.546538">
        <ele>493.148</ele>
        <time>2020-08-30T10:08:27Z</time>
      </trkpt>
      <trkpt lat="39.888944" lon="-.546438">
        <ele>492.890</ele>
        <time>2020-08-30T10:08:29Z</time>
      </trkpt>
      <trkpt lat="39.888895" lon="-.546349">
        <ele>492.368</ele>
        <time>2020-08-30T10:08:31Z</time>
      </trkpt>
      <trkpt lat="39.888833" lon="-.546298">
        <ele>492.235</ele>
        <time>2020-08-30T10:08:33Z</time>
      </trkpt>
      <trkpt lat="39.888776" lon="-.546248">
        <ele>492.143</ele>
        <time>2020-08-30T10:08:35Z</time>
      </trkpt>
      <trkpt lat="39.888395" lon="-.54597">
        <ele>492.383</ele>
        <time>2020-08-30T10:08:36Z</time>
      </trkpt>
      <trkpt lat="39.888333" lon="-.545908">
        <ele>492.055</ele>
        <time>2020-08-30T10:08:38Z</time>
      </trkpt>
      <trkpt lat="39.88831" lon="-.545833">
        <ele>492.207</ele>
        <time>2020-08-30T10:08:39Z</time>
      </trkpt>
      <trkpt lat="39.888285" lon="-.545725">
        <ele>491.917</ele>
        <time>2020-08-30T10:08:40Z</time>
      </trkpt>
      <trkpt lat="39.888299" lon="-.545655">
        <ele>491.908</ele>
        <time>2020-08-30T10:08:41Z</time>
      </trkpt>
      <trkpt lat="39.888332" lon="-.545583">
        <ele>491.670</ele>
        <time>2020-08-30T10:08:42Z</time>
      </trkpt>
      <trkpt lat="39.888344" lon="-.545467">
        <ele>491.150</ele>
        <time>2020-08-30T10:08:43Z</time>
      </trkpt>
      <trkpt lat="39.88837" lon="-.545366">
        <ele>490.972</ele>
        <time>2020-08-30T10:08:44Z</time>
      </trkpt>
      <trkpt lat="39.888403" lon="-.545276">
        <ele>490.024</ele>
        <time>2020-08-30T10:08:45Z</time>
      </trkpt>
      <trkpt lat="39.888432" lon="-.545204">
        <ele>489.562</ele>
        <time>2020-08-30T10:08:46Z</time>
      </trkpt>
      <trkpt lat="39.888461" lon="-.545132">
        <ele>489.129</ele>
        <time>2020-08-30T10:08:47Z</time>
      </trkpt>
      <trkpt lat="39.88849" lon="-.545059">
        <ele>488.957</ele>
        <time>2020-08-30T10:08:48Z</time>
      </trkpt>
      <trkpt lat="39.888524" lon="-.544976">
        <ele>488.777</ele>
        <time>2020-08-30T10:08:50Z</time>
      </trkpt>
      <trkpt lat="39.888549" lon="-.544914">
        <ele>488.672</ele>
        <time>2020-08-30T10:08:50Z</time>
      </trkpt>
      <trkpt lat="39.888466" lon="-.544793">
        <ele>488.213</ele>
        <time>2020-08-30T10:08:51Z</time>
      </trkpt>
      <trkpt lat="39.88823" lon="-.544742">
        <ele>488.014</ele>
        <time>2020-08-30T10:08:52Z</time>
      </trkpt>
      <trkpt lat="39.888071" lon="-.544468">
        <ele>488.208</ele>
        <time>2020-08-30T10:08:53Z</time>
      </trkpt>
      <trkpt lat="39.887998" lon="-.544324">
        <ele>488.452</ele>
        <time>2020-08-30T10:08:54Z</time>
      </trkpt>
      <trkpt lat="39.887933" lon="-.544156">
        <ele>488.772</ele>
        <time>2020-08-30T10:08:55Z</time>
      </trkpt>
      <trkpt lat="39.887857" lon="-.544019">
        <ele>489.624</ele>
        <time>2020-08-30T10:08:56Z</time>
      </trkpt>
      <trkpt lat="39.887793" lon="-.543927">
        <ele>489.646</ele>
        <time>2020-08-30T10:08:57Z</time>
      </trkpt>
      <trkpt lat="39.887748" lon="-.543891">
        <ele>489.714</ele>
        <time>2020-08-30T10:08:58Z</time>
      </trkpt>
      <trkpt lat="39.887675" lon="-.543902">
        <ele>489.891</ele>
        <time>2020-08-30T10:09:00Z</time>
      </trkpt>
      <trkpt lat="39.887642" lon="-.543861">
        <ele>489.869</ele>
        <time>2020-08-30T10:09:01Z</time>
      </trkpt>
      <trkpt lat="39.88758" lon="-.543821">
        <ele>490.139</ele>
        <time>2020-08-30T10:09:03Z</time>
      </trkpt>
      <trkpt lat="39.887503" lon="-.543792">
        <ele>490.627</ele>
        <time>2020-08-30T10:09:05Z</time>
      </trkpt>
      <trkpt lat="39.88745" lon="-.543751">
        <ele>490.668</ele>
        <time>2020-08-30T10:09:07Z</time>
      </trkpt>
      <trkpt lat="39.887392" lon="-.543716">
        <ele>490.814</ele>
        <time>2020-08-30T10:09:09Z</time>
      </trkpt>
      <trkpt lat="39.887339" lon="-.543682">
        <ele>490.808</ele>
        <time>2020-08-30T10:09:11Z</time>
      </trkpt>
      <trkpt lat="39.887279" lon="-.54364">
        <ele>489.927</ele>
        <time>2020-08-30T10:09:13Z</time>
      </trkpt>
      <trkpt lat="39.887228" lon="-.543611">
        <ele>492.257</ele>
        <time>2020-08-30T10:09:15Z</time>
      </trkpt>
      <trkpt lat="39.887177" lon="-.543593">
        <ele>492.139</ele>
        <time>2020-08-30T10:09:17Z</time>
      </trkpt>
      <trkpt lat="39.887132" lon="-.543557">
        <ele>491.651</ele>
        <time>2020-08-30T10:09:19Z</time>
      </trkpt>
      <trkpt lat="39.887092" lon="-.543525">
        <ele>491.199</ele>
        <time>2020-08-30T10:09:21Z</time>
      </trkpt>
      <trkpt lat="39.887053" lon="-.543489">
        <ele>490.816</ele>
        <time>2020-08-30T10:09:23Z</time>
      </trkpt>
      <trkpt lat="39.887003" lon="-.543451">
        <ele>490.854</ele>
        <time>2020-08-30T10:09:25Z</time>
      </trkpt>
      <trkpt lat="39.886951" lon="-.543429">
        <ele>491.074</ele>
        <time>2020-08-30T10:09:27Z</time>
      </trkpt>
      <trkpt lat="39.886887" lon="-.543384">
        <ele>491.437</ele>
        <time>2020-08-30T10:09:29Z</time>
      </trkpt>
      <trkpt lat="39.886841" lon="-.543358">
        <ele>491.949</ele>
        <time>2020-08-30T10:09:31Z</time>
      </trkpt>
      <trkpt lat="39.886784" lon="-.543327">
        <ele>492.713</ele>
        <time>2020-08-30T10:09:33Z</time>
      </trkpt>
      <trkpt lat="39.886727" lon="-.543285">
        <ele>493.208</ele>
        <time>2020-08-30T10:09:35Z</time>
      </trkpt>
      <trkpt lat="39.886681" lon="-.543233">
        <ele>493.268</ele>
        <time>2020-08-30T10:09:37Z</time>
      </trkpt>
      <trkpt lat="39.886637" lon="-.543203">
        <ele>492.958</ele>
        <time>2020-08-30T10:09:39Z</time>
      </trkpt>
      <trkpt lat="39.886599" lon="-.54317">
        <ele>492.890</ele>
        <time>2020-08-30T10:09:41Z</time>
      </trkpt>
      <trkpt lat="39.88655" lon="-.543142">
        <ele>492.962</ele>
        <time>2020-08-30T10:09:43Z</time>
      </trkpt>
      <trkpt lat="39.886496" lon="-.5431">
        <ele>492.570</ele>
        <time>2020-08-30T10:09:45Z</time>
      </trkpt>
      <trkpt lat="39.886454" lon="-.543047">
        <ele>492.047</ele>
        <time>2020-08-30T10:09:47Z</time>
      </trkpt>
      <trkpt lat="39.886377" lon="-.543042">
        <ele>492.825</ele>
        <time>2020-08-30T10:09:49Z</time>
      </trkpt>
      <trkpt lat="39.886328" lon="-.543026">
        <ele>493.055</ele>
        <time>2020-08-30T10:09:50Z</time>
      </trkpt>
      <trkpt lat="39.886282" lon="-.542978">
        <ele>493.875</ele>
        <time>2020-08-30T10:09:52Z</time>
      </trkpt>
      <trkpt lat="39.886232" lon="-.542893">
        <ele>492.828</ele>
        <time>2020-08-30T10:09:54Z</time>
      </trkpt>
      <trkpt lat="39.886146" lon="-.542871">
        <ele>492.920</ele>
        <time>2020-08-30T10:09:56Z</time>
      </trkpt>
      <trkpt lat="39.886089" lon="-.542809">
        <ele>492.808</ele>
        <time>2020-08-30T10:09:58Z</time>
      </trkpt>
      <trkpt lat="39.88603" lon="-.542764">
        <ele>493.022</ele>
        <time>2020-08-30T10:10:00Z</time>
      </trkpt>
      <trkpt lat="39.885959" lon="-.542724">
        <ele>492.872</ele>
        <time>2020-08-30T10:10:02Z</time>
      </trkpt>
      <trkpt lat="39.885893" lon="-.542666">
        <ele>491.884</ele>
        <time>2020-08-30T10:10:04Z</time>
      </trkpt>
      <trkpt lat="39.885829" lon="-.542605">
        <ele>492.346</ele>
        <time>2020-08-30T10:10:06Z</time>
      </trkpt>
      <trkpt lat="39.885757" lon="-.542568">
        <ele>492.434</ele>
        <time>2020-08-30T10:10:08Z</time>
      </trkpt>
      <trkpt lat="39.885722" lon="-.542494">
        <ele>492.961</ele>
        <time>2020-08-30T10:10:10Z</time>
      </trkpt>
      <trkpt lat="39.885666" lon="-.542451">
        <ele>492.559</ele>
        <time>2020-08-30T10:10:12Z</time>
      </trkpt>
      <trkpt lat="39.885605" lon="-.542418">
        <ele>492.679</ele>
        <time>2020-08-30T10:10:14Z</time>
      </trkpt>
      <trkpt lat="39.88554" lon="-.542376">
        <ele>492.745</ele>
        <time>2020-08-30T10:10:16Z</time>
      </trkpt>
      <trkpt lat="39.885476" lon="-.542328">
        <ele>492.347</ele>
        <time>2020-08-30T10:10:18Z</time>
      </trkpt>
      <trkpt lat="39.885424" lon="-.542261">
        <ele>492.311</ele>
        <time>2020-08-30T10:10:20Z</time>
      </trkpt>
      <trkpt lat="39.885366" lon="-.542202">
        <ele>492.008</ele>
        <time>2020-08-30T10:10:22Z</time>
      </trkpt>
      <trkpt lat="39.885331" lon="-.542119">
        <ele>492.199</ele>
        <time>2020-08-30T10:10:24Z</time>
      </trkpt>
      <trkpt lat="39.885262" lon="-.542084">
        <ele>492.149</ele>
        <time>2020-08-30T10:10:26Z</time>
      </trkpt>
      <trkpt lat="39.885205" lon="-.542044">
        <ele>492.081</ele>
        <time>2020-08-30T10:10:28Z</time>
      </trkpt>
      <trkpt lat="39.885152" lon="-.54199">
        <ele>492.793</ele>
        <time>2020-08-30T10:10:30Z</time>
      </trkpt>
      <trkpt lat="39.885093" lon="-.541937">
        <ele>492.431</ele>
        <time>2020-08-30T10:10:32Z</time>
      </trkpt>
      <trkpt lat="39.88503" lon="-.541874">
        <ele>492.348</ele>
        <time>2020-08-30T10:10:34Z</time>
      </trkpt>
      <trkpt lat="39.884972" lon="-.541805">
        <ele>492.046</ele>
        <time>2020-08-30T10:10:36Z</time>
      </trkpt>
      <trkpt lat="39.88493" lon="-.541731">
        <ele>491.886</ele>
        <time>2020-08-30T10:10:38Z</time>
      </trkpt>
      <trkpt lat="39.88488" lon="-.541668">
        <ele>491.857</ele>
        <time>2020-08-30T10:10:40Z</time>
      </trkpt>
      <trkpt lat="39.884853" lon="-.541614">
        <ele>491.800</ele>
        <time>2020-08-30T10:10:41Z</time>
      </trkpt>
      <trkpt lat="39.88481" lon="-.541543">
        <ele>491.820</ele>
        <time>2020-08-30T10:10:43Z</time>
      </trkpt>
      <trkpt lat="39.884761" lon="-.541481">
        <ele>492.108</ele>
        <time>2020-08-30T10:10:45Z</time>
      </trkpt>
      <trkpt lat="39.884709" lon="-.54141">
        <ele>492.150</ele>
        <time>2020-08-30T10:10:47Z</time>
      </trkpt>
      <trkpt lat="39.88469" lon="-.54135">
        <ele>492.070</ele>
        <time>2020-08-30T10:10:48Z</time>
      </trkpt>
      <trkpt lat="39.88464" lon="-.541257">
        <ele>492.492</ele>
        <time>2020-08-30T10:10:50Z</time>
      </trkpt>
      <trkpt lat="39.884613" lon="-.541209">
        <ele>492.414</ele>
        <time>2020-08-30T10:10:51Z</time>
      </trkpt>
      <trkpt lat="39.884596" lon="-.541153">
        <ele>492.312</ele>
        <time>2020-08-30T10:10:52Z</time>
      </trkpt>
      <trkpt lat="39.884573" lon="-.541049">
        <ele>492.859</ele>
        <time>2020-08-30T10:10:54Z</time>
      </trkpt>
      <trkpt lat="39.884525" lon="-.540951">
        <ele>491.737</ele>
        <time>2020-08-30T10:10:56Z</time>
      </trkpt>
      <trkpt lat="39.884484" lon="-.540859">
        <ele>492.667</ele>
        <time>2020-08-30T10:10:58Z</time>
      </trkpt>
      <trkpt lat="39.884453" lon="-.54076">
        <ele>492.948</ele>
        <time>2020-08-30T10:11:00Z</time>
      </trkpt>
      <trkpt lat="39.884407" lon="-.540726">
        <ele>492.961</ele>
        <time>2020-08-30T10:11:01Z</time>
      </trkpt>
      <trkpt lat="39.884387" lon="-.540638">
        <ele>492.817</ele>
        <time>2020-08-30T10:11:03Z</time>
      </trkpt>
      <trkpt lat="39.884358" lon="-.540548">
        <ele>492.908</ele>
        <time>2020-08-30T10:11:05Z</time>
      </trkpt>
      <trkpt lat="39.884326" lon="-.540451">
        <ele>493.369</ele>
        <time>2020-08-30T10:11:07Z</time>
      </trkpt>
      <trkpt lat="39.884299" lon="-.540399">
        <ele>492.879</ele>
        <time>2020-08-30T10:11:08Z</time>
      </trkpt>
      <trkpt lat="39.884256" lon="-.540311">
        <ele>493.241</ele>
        <time>2020-08-30T10:11:10Z</time>
      </trkpt>
      <trkpt lat="39.884208" lon="-.54021">
        <ele>493.483</ele>
        <time>2020-08-30T10:11:12Z</time>
      </trkpt>
      <trkpt lat="39.884244" lon="-.540116">
        <ele>493.581</ele>
        <time>2020-08-30T10:11:13Z</time>
      </trkpt>
      <trkpt lat="39.884255" lon="-.540048">
        <ele>493.418</ele>
        <time>2020-08-30T10:11:14Z</time>
      </trkpt>
      <trkpt lat="39.884248" lon="-.539981">
        <ele>493.416</ele>
        <time>2020-08-30T10:11:15Z</time>
      </trkpt>
      <trkpt lat="39.884232" lon="-.539922">
        <ele>493.166</ele>
        <time>2020-08-30T10:11:16Z</time>
      </trkpt>
      <trkpt lat="39.884216" lon="-.539808">
        <ele>493.127</ele>
        <time>2020-08-30T10:11:18Z</time>
      </trkpt>
      <trkpt lat="39.884171" lon="-.53971">
        <ele>493.568</ele>
        <time>2020-08-30T10:11:20Z</time>
      </trkpt>
      <trkpt lat="39.884177" lon="-.539645">
        <ele>493.314</ele>
        <time>2020-08-30T10:11:21Z</time>
      </trkpt>
      <trkpt lat="39.88413" lon="-.539544">
        <ele>493.108</ele>
        <time>2020-08-30T10:11:23Z</time>
      </trkpt>
      <trkpt lat="39.884111" lon="-.539482">
        <ele>493.067</ele>
        <time>2020-08-30T10:11:24Z</time>
      </trkpt>
      <trkpt lat="39.884088" lon="-.539426">
        <ele>493.087</ele>
        <time>2020-08-30T10:11:25Z</time>
      </trkpt>
      <trkpt lat="39.884062" lon="-.539377">
        <ele>492.869</ele>
        <time>2020-08-30T10:11:26Z</time>
      </trkpt>
      <trkpt lat="39.884067" lon="-.539311">
        <ele>492.591</ele>
        <time>2020-08-30T10:11:27Z</time>
      </trkpt>
      <trkpt lat="39.88406" lon="-.539192">
        <ele>492.469</ele>
        <time>2020-08-30T10:11:29Z</time>
      </trkpt>
      <trkpt lat="39.884042" lon="-.539116">
        <ele>492.416</ele>
        <time>2020-08-30T10:11:30Z</time>
      </trkpt>
      <trkpt lat="39.884044" lon="-.539046">
        <ele>492.134</ele>
        <time>2020-08-30T10:11:31Z</time>
      </trkpt>
      <trkpt lat="39.884028" lon="-.538978">
        <ele>491.914</ele>
        <time>2020-08-30T10:11:32Z</time>
      </trkpt>
      <trkpt lat="39.884033" lon="-.5389">
        <ele>492.716</ele>
        <time>2020-08-30T10:11:33Z</time>
      </trkpt>
      <trkpt lat="39.884021" lon="-.538843">
        <ele>492.776</ele>
        <time>2020-08-30T10:11:34Z</time>
      </trkpt>
      <trkpt lat="39.883982" lon="-.538744">
        <ele>492.413</ele>
        <time>2020-08-30T10:11:36Z</time>
      </trkpt>
      <trkpt lat="39.883993" lon="-.538643">
        <ele>492.708</ele>
        <time>2020-08-30T10:11:38Z</time>
      </trkpt>
      <trkpt lat="39.883968" lon="-.538544">
        <ele>492.926</ele>
        <time>2020-08-30T10:11:40Z</time>
      </trkpt>
      <trkpt lat="39.883975" lon="-.538433">
        <ele>492.796</ele>
        <time>2020-08-30T10:11:42Z</time>
      </trkpt>
      <trkpt lat="39.883974" lon="-.538338">
        <ele>493.058</ele>
        <time>2020-08-30T10:11:44Z</time>
      </trkpt>
      <trkpt lat="39.883953" lon="-.538234">
        <ele>492.640</ele>
        <time>2020-08-30T10:11:46Z</time>
      </trkpt>
      <trkpt lat="39.883938" lon="-.538119">
        <ele>493.128</ele>
        <time>2020-08-30T10:11:48Z</time>
      </trkpt>
      <trkpt lat="39.883929" lon="-.538008">
        <ele>492.875</ele>
        <time>2020-08-30T10:11:50Z</time>
      </trkpt>
      <trkpt lat="39.883928" lon="-.537902">
        <ele>492.893</ele>
        <time>2020-08-30T10:11:52Z</time>
      </trkpt>
      <trkpt lat="39.883908" lon="-.537798">
        <ele>492.173</ele>
        <time>2020-08-30T10:11:54Z</time>
      </trkpt>
      <trkpt lat="39.883906" lon="-.537696">
        <ele>492.234</ele>
        <time>2020-08-30T10:11:56Z</time>
      </trkpt>
      <trkpt lat="39.883887" lon="-.537595">
        <ele>491.855</ele>
        <time>2020-08-30T10:11:58Z</time>
      </trkpt>
      <trkpt lat="39.88389" lon="-.53748">
        <ele>492.710</ele>
        <time>2020-08-30T10:12:00Z</time>
      </trkpt>
      <trkpt lat="39.883879" lon="-.537421">
        <ele>492.708</ele>
        <time>2020-08-30T10:12:01Z</time>
      </trkpt>
      <trkpt lat="39.883866" lon="-.537364">
        <ele>492.078</ele>
        <time>2020-08-30T10:12:02Z</time>
      </trkpt>
      <trkpt lat="39.883847" lon="-.537253">
        <ele>492.068</ele>
        <time>2020-08-30T10:12:04Z</time>
      </trkpt>
      <trkpt lat="39.883857" lon="-.537149">
        <ele>492.190</ele>
        <time>2020-08-30T10:12:06Z</time>
      </trkpt>
      <trkpt lat="39.883826" lon="-.537043">
        <ele>491.692</ele>
        <time>2020-08-30T10:12:08Z</time>
      </trkpt>
      <trkpt lat="39.8838" lon="-.536926">
        <ele>492.220</ele>
        <time>2020-08-30T10:12:10Z</time>
      </trkpt>
      <trkpt lat="39.883787" lon="-.536826">
        <ele>491.997</ele>
        <time>2020-08-30T10:12:12Z</time>
      </trkpt>
      <trkpt lat="39.883796" lon="-.536726">
        <ele>492.465</ele>
        <time>2020-08-30T10:12:14Z</time>
      </trkpt>
      <trkpt lat="39.883812" lon="-.536632">
        <ele>492.135</ele>
        <time>2020-08-30T10:12:16Z</time>
      </trkpt>
      <trkpt lat="39.883802" lon="-.536552">
        <ele>492.331</ele>
        <time>2020-08-30T10:12:18Z</time>
      </trkpt>
      <trkpt lat="39.883783" lon="-.536465">
        <ele>492.361</ele>
        <time>2020-08-30T10:12:20Z</time>
      </trkpt>
      <trkpt lat="39.88378" lon="-.536362">
        <ele>492.907</ele>
        <time>2020-08-30T10:12:22Z</time>
      </trkpt>
      <trkpt lat="39.883766" lon="-.536295">
        <ele>492.608</ele>
        <time>2020-08-30T10:12:24Z</time>
      </trkpt>
      <trkpt lat="39.883765" lon="-.536221">
        <ele>492.968</ele>
        <time>2020-08-30T10:12:28Z</time>
      </trkpt>
      <trkpt lat="39.883745" lon="-.536093">
        <ele>493.068</ele>
        <time>2020-08-30T10:12:30Z</time>
      </trkpt>
      <trkpt lat="39.883786" lon="-.536019">
        <ele>492.650</ele>
        <time>2020-08-30T10:12:32Z</time>
      </trkpt>
      <trkpt lat="39.883804" lon="-.535958">
        <ele>492.722</ele>
        <time>2020-08-30T10:12:33Z</time>
      </trkpt>
      <trkpt lat="39.883804" lon="-.535899">
        <ele>492.780</ele>
        <time>2020-08-30T10:12:34Z</time>
      </trkpt>
      <trkpt lat="39.883821" lon="-.535795">
        <ele>492.547</ele>
        <time>2020-08-30T10:12:35Z</time>
      </trkpt>
      <trkpt lat="39.883812" lon="-.535726">
        <ele>492.575</ele>
        <time>2020-08-30T10:12:36Z</time>
      </trkpt>
      <trkpt lat="39.8838" lon="-.535628">
        <ele>492.595</ele>
        <time>2020-08-30T10:12:37Z</time>
      </trkpt>
      <trkpt lat="39.883801" lon="-.535565">
        <ele>492.578</ele>
        <time>2020-08-30T10:12:38Z</time>
      </trkpt>
      <trkpt lat="39.883824" lon="-.535478">
        <ele>492.533</ele>
        <time>2020-08-30T10:12:39Z</time>
      </trkpt>
      <trkpt lat="39.883823" lon="-.535419">
        <ele>492.726</ele>
        <time>2020-08-30T10:12:40Z</time>
      </trkpt>
      <trkpt lat="39.883823" lon="-.535318">
        <ele>492.708</ele>
        <time>2020-08-30T10:12:41Z</time>
      </trkpt>
      <trkpt lat="39.883809" lon="-.535258">
        <ele>492.522</ele>
        <time>2020-08-30T10:12:42Z</time>
      </trkpt>
      <trkpt lat="39.883803" lon="-.535166">
        <ele>492.522</ele>
        <time>2020-08-30T10:12:43Z</time>
      </trkpt>
      <trkpt lat="39.883804" lon="-.535101">
        <ele>492.894</ele>
        <time>2020-08-30T10:12:44Z</time>
      </trkpt>
      <trkpt lat="39.883807" lon="-.535017">
        <ele>492.876</ele>
        <time>2020-08-30T10:12:45Z</time>
      </trkpt>
      <trkpt lat="39.883836" lon="-.534897">
        <ele>492.244</ele>
        <time>2020-08-30T10:12:47Z</time>
      </trkpt>
      <trkpt lat="39.883814" lon="-.534797">
        <ele>492.111</ele>
        <time>2020-08-30T10:12:49Z</time>
      </trkpt>
      <trkpt lat="39.883819" lon="-.534738">
        <ele>492.329</ele>
        <time>2020-08-30T10:12:50Z</time>
      </trkpt>
      <trkpt lat="39.883821" lon="-.534652">
        <ele>492.369</ele>
        <time>2020-08-30T10:12:51Z</time>
      </trkpt>
      <trkpt lat="39.883799" lon="-.534598">
        <ele>492.222</ele>
        <time>2020-08-30T10:12:52Z</time>
      </trkpt>
      <trkpt lat="39.883802" lon="-.534507">
        <ele>492.262</ele>
        <time>2020-08-30T10:12:53Z</time>
      </trkpt>
      <trkpt lat="39.883819" lon="-.534405">
        <ele>492.608</ele>
        <time>2020-08-30T10:12:55Z</time>
      </trkpt>
      <trkpt lat="39.883826" lon="-.534299">
        <ele>492.508</ele>
        <time>2020-08-30T10:12:57Z</time>
      </trkpt>
      <trkpt lat="39.883827" lon="-.534229">
        <ele>492.427</ele>
        <time>2020-08-30T10:12:58Z</time>
      </trkpt>
      <trkpt lat="39.883829" lon="-.534112">
        <ele>491.947</ele>
        <time>2020-08-30T10:13:00Z</time>
      </trkpt>
      <trkpt lat="39.88383" lon="-.534004">
        <ele>492.419</ele>
        <time>2020-08-30T10:13:02Z</time>
      </trkpt>
      <trkpt lat="39.883828" lon="-.533904">
        <ele>491.851</ele>
        <time>2020-08-30T10:13:04Z</time>
      </trkpt>
      <trkpt lat="39.88384" lon="-.533819">
        <ele>492.589</ele>
        <time>2020-08-30T10:13:06Z</time>
      </trkpt>
      <trkpt lat="39.883815" lon="-.533717">
        <ele>492.666</ele>
        <time>2020-08-30T10:13:08Z</time>
      </trkpt>
      <trkpt lat="39.88382" lon="-.533637">
        <ele>492.824</ele>
        <time>2020-08-30T10:13:10Z</time>
      </trkpt>
      <trkpt lat="39.883828" lon="-.533535">
        <ele>492.674</ele>
        <time>2020-08-30T10:13:12Z</time>
      </trkpt>
      <trkpt lat="39.883815" lon="-.533443">
        <ele>492.575</ele>
        <time>2020-08-30T10:13:14Z</time>
      </trkpt>
      <trkpt lat="39.883802" lon="-.533327">
        <ele>492.728</ele>
        <time>2020-08-30T10:13:16Z</time>
      </trkpt>
      <trkpt lat="39.883799" lon="-.533231">
        <ele>492.520</ele>
        <time>2020-08-30T10:13:18Z</time>
      </trkpt>
      <trkpt lat="39.883831" lon="-.533139">
        <ele>493.408</ele>
        <time>2020-08-30T10:13:20Z</time>
      </trkpt>
      <trkpt lat="39.883875" lon="-.533015">
        <ele>492.822</ele>
        <time>2020-08-30T10:13:22Z</time>
      </trkpt>
      <trkpt lat="39.883895" lon="-.53291">
        <ele>493.572</ele>
        <time>2020-08-30T10:13:24Z</time>
      </trkpt>
      <trkpt lat="39.88388" lon="-.532851">
        <ele>493.534</ele>
        <time>2020-08-30T10:13:25Z</time>
      </trkpt>
      <trkpt lat="39.883887" lon="-.532777">
        <ele>492.266</ele>
        <time>2020-08-30T10:13:26Z</time>
      </trkpt>
      <trkpt lat="39.883875" lon="-.532639">
        <ele>492.714</ele>
        <time>2020-08-30T10:13:28Z</time>
      </trkpt>
      <trkpt lat="39.883895" lon="-.532534">
        <ele>491.851</ele>
        <time>2020-08-30T10:13:30Z</time>
      </trkpt>
      <trkpt lat="39.883903" lon="-.532411">
        <ele>492.339</ele>
        <time>2020-08-30T10:13:32Z</time>
      </trkpt>
      <trkpt lat="39.883933" lon="-.532304">
        <ele>491.089</ele>
        <time>2020-08-30T10:13:34Z</time>
      </trkpt>
      <trkpt lat="39.883969" lon="-.532197">
        <ele>492.223</ele>
        <time>2020-08-30T10:13:36Z</time>
      </trkpt>
      <trkpt lat="39.88399" lon="-.532093">
        <ele>491.883</ele>
        <time>2020-08-30T10:13:38Z</time>
      </trkpt>
      <trkpt lat="39.88401" lon="-.532002">
        <ele>492.611</ele>
        <time>2020-08-30T10:13:40Z</time>
      </trkpt>
      <trkpt lat="39.884039" lon="-.531871">
        <ele>491.508</ele>
        <time>2020-08-30T10:13:42Z</time>
      </trkpt>
      <trkpt lat="39.884064" lon="-.531783">
        <ele>491.797</ele>
        <time>2020-08-30T10:13:44Z</time>
      </trkpt>
      <trkpt lat="39.884093" lon="-.531673">
        <ele>491.587</ele>
        <time>2020-08-30T10:13:46Z</time>
      </trkpt>
      <trkpt lat="39.884118" lon="-.531576">
        <ele>492.489</ele>
        <time>2020-08-30T10:13:48Z</time>
      </trkpt>
      <trkpt lat="39.884149" lon="-.5315">
        <ele>492.381</ele>
        <time>2020-08-30T10:13:50Z</time>
      </trkpt>
      <trkpt lat="39.884186" lon="-.531365">
        <ele>493.029</ele>
        <time>2020-08-30T10:13:52Z</time>
      </trkpt>
      <trkpt lat="39.884209" lon="-.531287">
        <ele>492.846</ele>
        <time>2020-08-30T10:13:54Z</time>
      </trkpt>
      <trkpt lat="39.884209" lon="-.531159">
        <ele>492.564</ele>
        <time>2020-08-30T10:13:56Z</time>
      </trkpt>
      <trkpt lat="39.884231" lon="-.531059">
        <ele>492.644</ele>
        <time>2020-08-30T10:13:58Z</time>
      </trkpt>
      <trkpt lat="39.884266" lon="-.530956">
        <ele>491.778</ele>
        <time>2020-08-30T10:14:00Z</time>
      </trkpt>
      <trkpt lat="39.884305" lon="-.53089">
        <ele>491.933</ele>
        <time>2020-08-30T10:14:02Z</time>
      </trkpt>
      <trkpt lat="39.884312" lon="-.530787">
        <ele>491.826</ele>
        <time>2020-08-30T10:14:04Z</time>
      </trkpt>
      <trkpt lat="39.88438" lon="-.530716">
        <ele>492.208</ele>
        <time>2020-08-30T10:14:06Z</time>
      </trkpt>
      <trkpt lat="39.884392" lon="-.530607">
        <ele>492.382</ele>
        <time>2020-08-30T10:14:08Z</time>
      </trkpt>
      <trkpt lat="39.884418" lon="-.530531">
        <ele>492.562</ele>
        <time>2020-08-30T10:14:10Z</time>
      </trkpt>
      <trkpt lat="39.884449" lon="-.530461">
        <ele>492.534</ele>
        <time>2020-08-30T10:14:12Z</time>
      </trkpt>
      <trkpt lat="39.884492" lon="-.530366">
        <ele>492.576</ele>
        <time>2020-08-30T10:14:14Z</time>
      </trkpt>
      <trkpt lat="39.88452" lon="-.53032">
        <ele>492.424</ele>
        <time>2020-08-30T10:14:15Z</time>
      </trkpt>
      <trkpt lat="39.884551" lon="-.530266">
        <ele>492.471</ele>
        <time>2020-08-30T10:14:16Z</time>
      </trkpt>
      <trkpt lat="39.884588" lon="-.530159">
        <ele>492.599</ele>
        <time>2020-08-30T10:14:18Z</time>
      </trkpt>
      <trkpt lat="39.884611" lon="-.530106">
        <ele>492.379</ele>
        <time>2020-08-30T10:14:19Z</time>
      </trkpt>
      <trkpt lat="39.884627" lon="-.530048">
        <ele>492.176</ele>
        <time>2020-08-30T10:14:20Z</time>
      </trkpt>
      <trkpt lat="39.884637" lon="-.529984">
        <ele>491.990</ele>
        <time>2020-08-30T10:14:21Z</time>
      </trkpt>
      <trkpt lat="39.88467" lon="-.529939">
        <ele>491.919</ele>
        <time>2020-08-30T10:14:22Z</time>
      </trkpt>
      <trkpt lat="39.884715" lon="-.529847">
        <ele>491.808</ele>
        <time>2020-08-30T10:14:24Z</time>
      </trkpt>
      <trkpt lat="39.884772" lon="-.529758">
        <ele>492.112</ele>
        <time>2020-08-30T10:14:26Z</time>
      </trkpt>
      <trkpt lat="39.884792" lon="-.529705">
        <ele>492.152</ele>
        <time>2020-08-30T10:14:27Z</time>
      </trkpt>
      <trkpt lat="39.884832" lon="-.529602">
        <ele>492.064</ele>
        <time>2020-08-30T10:14:29Z</time>
      </trkpt>
      <trkpt lat="39.884872" lon="-.529523">
        <ele>492.386</ele>
        <time>2020-08-30T10:14:31Z</time>
      </trkpt>
      <trkpt lat="39.884921" lon="-.529461">
        <ele>492.244</ele>
        <time>2020-08-30T10:14:33Z</time>
      </trkpt>
      <trkpt lat="39.884918" lon="-.529338">
        <ele>491.991</ele>
        <time>2020-08-30T10:14:35Z</time>
      </trkpt>
      <trkpt lat="39.884896" lon="-.529264">
        <ele>492.519</ele>
        <time>2020-08-30T10:14:36Z</time>
      </trkpt>
      <trkpt lat="39.884903" lon="-.529204">
        <ele>492.559</ele>
        <time>2020-08-30T10:14:37Z</time>
      </trkpt>
      <trkpt lat="39.88495" lon="-.529099">
        <ele>492.379</ele>
        <time>2020-08-30T10:14:39Z</time>
      </trkpt>
      <trkpt lat="39.884979" lon="-.528975">
        <ele>492.505</ele>
        <time>2020-08-30T10:14:41Z</time>
      </trkpt>
      <trkpt lat="39.884987" lon="-.528852">
        <ele>492.325</ele>
        <time>2020-08-30T10:14:43Z</time>
      </trkpt>
      <trkpt lat="39.885031" lon="-.528749">
        <ele>492.408</ele>
        <time>2020-08-30T10:14:45Z</time>
      </trkpt>
      <trkpt lat="39.885054" lon="-.528648">
        <ele>492.222</ele>
        <time>2020-08-30T10:14:47Z</time>
      </trkpt>
      <trkpt lat="39.885072" lon="-.52855">
        <ele>492.112</ele>
        <time>2020-08-30T10:14:49Z</time>
      </trkpt>
      <trkpt lat="39.885088" lon="-.528468">
        <ele>492.254</ele>
        <time>2020-08-30T10:14:51Z</time>
      </trkpt>
      <trkpt lat="39.885133" lon="-.528355">
        <ele>492.026</ele>
        <time>2020-08-30T10:14:53Z</time>
      </trkpt>
      <trkpt lat="39.885159" lon="-.528286">
        <ele>491.944</ele>
        <time>2020-08-30T10:14:55Z</time>
      </trkpt>
      <trkpt lat="39.885188" lon="-.528235">
        <ele>492.491</ele>
        <time>2020-08-30T10:14:56Z</time>
      </trkpt>
      <trkpt lat="39.885236" lon="-.528148">
        <ele>492.329</ele>
        <time>2020-08-30T10:14:58Z</time>
      </trkpt>
      <trkpt lat="39.885265" lon="-.528103">
        <ele>491.859</ele>
        <time>2020-08-30T10:14:59Z</time>
      </trkpt>
      <trkpt lat="39.885297" lon="-.528054">
        <ele>491.838</ele>
        <time>2020-08-30T10:15:00Z</time>
      </trkpt>
      <trkpt lat="39.88532" lon="-.52799">
        <ele>492.270</ele>
        <time>2020-08-30T10:15:01Z</time>
      </trkpt>
      <trkpt lat="39.885368" lon="-.527885">
        <ele>492.217</ele>
        <time>2020-08-30T10:15:03Z</time>
      </trkpt>
      <trkpt lat="39.885379" lon="-.527766">
        <ele>492.408</ele>
        <time>2020-08-30T10:15:05Z</time>
      </trkpt>
      <trkpt lat="39.885435" lon="-.527671">
        <ele>492.398</ele>
        <time>2020-08-30T10:15:07Z</time>
      </trkpt>
      <trkpt lat="39.885483" lon="-.527591">
        <ele>492.288</ele>
        <time>2020-08-30T10:15:09Z</time>
      </trkpt>
      <trkpt lat="39.885484" lon="-.527523">
        <ele>492.340</ele>
        <time>2020-08-30T10:15:10Z</time>
      </trkpt>
      <trkpt lat="39.885526" lon="-.527437">
        <ele>492.162</ele>
        <time>2020-08-30T10:15:12Z</time>
      </trkpt>
      <trkpt lat="39.885532" lon="-.527376">
        <ele>492.020</ele>
        <time>2020-08-30T10:15:13Z</time>
      </trkpt>
      <trkpt lat="39.885565" lon="-.527297">
        <ele>492.637</ele>
        <time>2020-08-30T10:15:15Z</time>
      </trkpt>
      <trkpt lat="39.885617" lon="-.527269">
        <ele>492.675</ele>
        <time>2020-08-30T10:15:16Z</time>
      </trkpt>
      <trkpt lat="39.885664" lon="-.527189">
        <ele>492.325</ele>
        <time>2020-08-30T10:15:18Z</time>
      </trkpt>
      <trkpt lat="39.885678" lon="-.527082">
        <ele>492.852</ele>
        <time>2020-08-30T10:15:20Z</time>
      </trkpt>
      <trkpt lat="39.885697" lon="-.526994">
        <ele>492.453</ele>
        <time>2020-08-30T10:15:23Z</time>
      </trkpt>
      <trkpt lat="39.885705" lon="-.526911">
        <ele>493.108</ele>
        <time>2020-08-30T10:15:25Z</time>
      </trkpt>
      <trkpt lat="39.885714" lon="-.526831">
        <ele>492.808</ele>
        <time>2020-08-30T10:15:27Z</time>
      </trkpt>
      <trkpt lat="39.885723" lon="-.526772">
        <ele>492.850</ele>
        <time>2020-08-30T10:15:28Z</time>
      </trkpt>
      <trkpt lat="39.88574" lon="-.526692">
        <ele>492.440</ele>
        <time>2020-08-30T10:15:31Z</time>
      </trkpt>
      <trkpt lat="39.885757" lon="-.526634">
        <ele>493.382</ele>
        <time>2020-08-30T10:15:34Z</time>
      </trkpt>
      <trkpt lat="39.88578" lon="-.52657">
        <ele>493.354</ele>
        <time>2020-08-30T10:15:38Z</time>
      </trkpt>
      <trkpt lat="39.885962" lon="-.525906">
        <ele>492.562</ele>
        <time>2020-08-30T10:15:59Z</time>
      </trkpt>
      <trkpt lat="39.886254" lon="-.524914">
        <ele>492.029</ele>
        <time>2020-08-30T10:16:00Z</time>
      </trkpt>
      <trkpt lat="39.886502" lon="-.524456">
        <ele>492.047</ele>
        <time>2020-08-30T10:16:01Z</time>
      </trkpt>
      <trkpt lat="39.886543" lon="-.524322">
        <ele>491.947</ele>
        <time>2020-08-30T10:16:02Z</time>
      </trkpt>
      <trkpt lat="39.886536" lon="-.524256">
        <ele>491.913</ele>
        <time>2020-08-30T10:16:03Z</time>
      </trkpt>
      <trkpt lat="39.886539" lon="-.524135">
        <ele>491.843</ele>
        <time>2020-08-30T10:16:05Z</time>
      </trkpt>
      <trkpt lat="39.886559" lon="-.524036">
        <ele>492.007</ele>
        <time>2020-08-30T10:16:07Z</time>
      </trkpt>
      <trkpt lat="39.886567" lon="-.52395">
        <ele>491.808</ele>
        <time>2020-08-30T10:16:09Z</time>
      </trkpt>
      <trkpt lat="39.886577" lon="-.523859">
        <ele>492.516</ele>
        <time>2020-08-30T10:16:11Z</time>
      </trkpt>
      <trkpt lat="39.886591" lon="-.523745">
        <ele>492.586</ele>
        <time>2020-08-30T10:16:13Z</time>
      </trkpt>
      <trkpt lat="39.886579" lon="-.523642">
        <ele>491.478</ele>
        <time>2020-08-30T10:16:15Z</time>
      </trkpt>
      <trkpt lat="39.886563" lon="-.52354">
        <ele>490.760</ele>
        <time>2020-08-30T10:16:17Z</time>
      </trkpt>
      <trkpt lat="39.886554" lon="-.523481">
        <ele>490.758</ele>
        <time>2020-08-30T10:16:18Z</time>
      </trkpt>
      <trkpt lat="39.886544" lon="-.52338">
        <ele>491.245</ele>
        <time>2020-08-30T10:16:20Z</time>
      </trkpt>
      <trkpt lat="39.886544" lon="-.523266">
        <ele>491.353</ele>
        <time>2020-08-30T10:16:22Z</time>
      </trkpt>
      <trkpt lat="39.886537" lon="-.523171">
        <ele>491.783</ele>
        <time>2020-08-30T10:16:24Z</time>
      </trkpt>
      <trkpt lat="39.886523" lon="-.523084">
        <ele>491.819</ele>
        <time>2020-08-30T10:16:26Z</time>
      </trkpt>
      <trkpt lat="39.886501" lon="-.52299">
        <ele>490.609</ele>
        <time>2020-08-30T10:16:28Z</time>
      </trkpt>
      <trkpt lat="39.886491" lon="-.522887">
        <ele>490.519</ele>
        <time>2020-08-30T10:16:30Z</time>
      </trkpt>
      <trkpt lat="39.886481" lon="-.522781">
        <ele>489.708</ele>
        <time>2020-08-30T10:16:32Z</time>
      </trkpt>
      <trkpt lat="39.886467" lon="-.522673">
        <ele>489.536</ele>
        <time>2020-08-30T10:16:34Z</time>
      </trkpt>
      <trkpt lat="39.88646" lon="-.522607">
        <ele>489.576</ele>
        <time>2020-08-30T10:16:35Z</time>
      </trkpt>
      <trkpt lat="39.886446" lon="-.522535">
        <ele>489.968</ele>
        <time>2020-08-30T10:16:36Z</time>
      </trkpt>
      <trkpt lat="39.886441" lon="-.522475">
        <ele>490.050</ele>
        <time>2020-08-30T10:16:37Z</time>
      </trkpt>
      <trkpt lat="39.886427" lon="-.522413">
        <ele>490.768</ele>
        <time>2020-08-30T10:16:38Z</time>
      </trkpt>
      <trkpt lat="39.88642" lon="-.522352">
        <ele>491.015</ele>
        <time>2020-08-30T10:16:39Z</time>
      </trkpt>
      <trkpt lat="39.886412" lon="-.522255">
        <ele>490.773</ele>
        <time>2020-08-30T10:16:41Z</time>
      </trkpt>
      <trkpt lat="39.886397" lon="-.522147">
        <ele>490.483</ele>
        <time>2020-08-30T10:16:43Z</time>
      </trkpt>
      <trkpt lat="39.886385" lon="-.52205">
        <ele>490.365</ele>
        <time>2020-08-30T10:16:45Z</time>
      </trkpt>
      <trkpt lat="39.886373" lon="-.52197">
        <ele>490.468</ele>
        <time>2020-08-30T10:16:47Z</time>
      </trkpt>
      <trkpt lat="39.886366" lon="-.521898">
        <ele>490.514</ele>
        <time>2020-08-30T10:16:49Z</time>
      </trkpt>
      <trkpt lat="39.886349" lon="-.521823">
        <ele>490.608</ele>
        <time>2020-08-30T10:16:51Z</time>
      </trkpt>
      <trkpt lat="39.886337" lon="-.521744">
        <ele>490.661</ele>
        <time>2020-08-30T10:16:53Z</time>
      </trkpt>
      <trkpt lat="39.886333" lon="-.521665">
        <ele>490.561</ele>
        <time>2020-08-30T10:16:56Z</time>
      </trkpt>
      <trkpt lat="39.886338" lon="-.521606">
        <ele>490.613</ele>
        <time>2020-08-30T10:17:06Z</time>
      </trkpt>
      <trkpt lat="39.886284" lon="-.521644">
        <ele>490.555</ele>
        <time>2020-08-30T10:19:28Z</time>
      </trkpt>
      <trkpt lat="39.886267" lon="-.52158">
        <ele>490.593</ele>
        <time>2020-08-30T10:19:52Z</time>
      </trkpt>
      <trkpt lat="39.886252" lon="-.521504">
        <ele>490.960</ele>
        <time>2020-08-30T10:19:55Z</time>
      </trkpt>
      <trkpt lat="39.886233" lon="-.521435">
        <ele>491.048</ele>
        <time>2020-08-30T10:19:58Z</time>
      </trkpt>
      <trkpt lat="39.886206" lon="-.521353">
        <ele>491.248</ele>
        <time>2020-08-30T10:20:01Z</time>
      </trkpt>
      <trkpt lat="39.886176" lon="-.521298">
        <ele>491.265</ele>
        <time>2020-08-30T10:20:04Z</time>
      </trkpt>
      <trkpt lat="39.886222" lon="-.521208">
        <ele>490.768</ele>
        <time>2020-08-30T10:20:31Z</time>
      </trkpt>
      <trkpt lat="39.886172" lon="-.521185">
        <ele>491.214</ele>
        <time>2020-08-30T10:20:51Z</time>
      </trkpt>
      <trkpt lat="39.886144" lon="-.521119">
        <ele>491.108</ele>
        <time>2020-08-30T10:20:55Z</time>
      </trkpt>
      <trkpt lat="39.88611" lon="-.521053">
        <ele>491.121</ele>
        <time>2020-08-30T10:20:58Z</time>
      </trkpt>
      <trkpt lat="39.886079" lon="-.520981">
        <ele>491.071</ele>
        <time>2020-08-30T10:21:01Z</time>
      </trkpt>
      <trkpt lat="39.886036" lon="-.520906">
        <ele>490.933</ele>
        <time>2020-08-30T10:21:03Z</time>
      </trkpt>
      <trkpt lat="39.885998" lon="-.520823">
        <ele>490.855</ele>
        <time>2020-08-30T10:21:05Z</time>
      </trkpt>
      <trkpt lat="39.885935" lon="-.520736">
        <ele>490.873</ele>
        <time>2020-08-30T10:21:07Z</time>
      </trkpt>
      <trkpt lat="39.885877" lon="-.520657">
        <ele>490.830</ele>
        <time>2020-08-30T10:21:09Z</time>
      </trkpt>
      <trkpt lat="39.885833" lon="-.520615">
        <ele>490.888</ele>
        <time>2020-08-30T10:21:10Z</time>
      </trkpt>
      <trkpt lat="39.885798" lon="-.520566">
        <ele>490.868</ele>
        <time>2020-08-30T10:21:11Z</time>
      </trkpt>
      <trkpt lat="39.885769" lon="-.520514">
        <ele>490.848</ele>
        <time>2020-08-30T10:21:12Z</time>
      </trkpt>
      <trkpt lat="39.885746" lon="-.520458">
        <ele>491.161</ele>
        <time>2020-08-30T10:21:16Z</time>
      </trkpt>
      <trkpt lat="39.885695" lon="-.520413">
        <ele>491.117</ele>
        <time>2020-08-30T10:21:18Z</time>
      </trkpt>
      <trkpt lat="39.885657" lon="-.520353">
        <ele>490.808</ele>
        <time>2020-08-30T10:21:20Z</time>
      </trkpt>
      <trkpt lat="39.885617" lon="-.520306">
        <ele>490.569</ele>
        <time>2020-08-30T10:21:22Z</time>
      </trkpt>
      <trkpt lat="39.88558" lon="-.520251">
        <ele>490.529</ele>
        <time>2020-08-30T10:21:24Z</time>
      </trkpt>
      <trkpt lat="39.885539" lon="-.520195">
        <ele>490.411</ele>
        <time>2020-08-30T10:21:26Z</time>
      </trkpt>
      <trkpt lat="39.885488" lon="-.520117">
        <ele>490.233</ele>
        <time>2020-08-30T10:21:28Z</time>
      </trkpt>
      <trkpt lat="39.885448" lon="-.520057">
        <ele>490.271</ele>
        <time>2020-08-30T10:21:29Z</time>
      </trkpt>
      <trkpt lat="39.885414" lon="-.520005">
        <ele>490.288</ele>
        <time>2020-08-30T10:21:30Z</time>
      </trkpt>
      <trkpt lat="39.885382" lon="-.51996">
        <ele>490.146</ele>
        <time>2020-08-30T10:21:33Z</time>
      </trkpt>
      <trkpt lat="39.885337" lon="-.519929">
        <ele>490.196</ele>
        <time>2020-08-30T10:21:36Z</time>
      </trkpt>
      <trkpt lat="39.885297" lon="-.519888">
        <ele>490.473</ele>
        <time>2020-08-30T10:21:41Z</time>
      </trkpt>
      <trkpt lat="39.885139" lon="-.519709">
        <ele>490.385</ele>
        <time>2020-08-30T10:21:44Z</time>
      </trkpt>
      <trkpt lat="39.884718" lon="-.519185">
        <ele>490.113</ele>
        <time>2020-08-30T10:22:11Z</time>
      </trkpt>
      <trkpt lat="39.884204" lon="-.518637">
        <ele>490.108</ele>
        <time>2020-08-30T10:22:12Z</time>
      </trkpt>
      <trkpt lat="39.88396" lon="-.518472">
        <ele>490.112</ele>
        <time>2020-08-30T10:22:13Z</time>
      </trkpt>
      <trkpt lat="39.883911" lon="-.518479">
        <ele>490.192</ele>
        <time>2020-08-30T10:22:14Z</time>
      </trkpt>
      <trkpt lat="39.883841" lon="-.51845">
        <ele>490.144</ele>
        <time>2020-08-30T10:22:15Z</time>
      </trkpt>
      <trkpt lat="39.883752" lon="-.518444">
        <ele>490.196</ele>
        <time>2020-08-30T10:22:17Z</time>
      </trkpt>
      <trkpt lat="39.8837" lon="-.518428">
        <ele>490.294</ele>
        <time>2020-08-30T10:22:19Z</time>
      </trkpt>
      <trkpt lat="39.883656" lon="-.518393">
        <ele>490.221</ele>
        <time>2020-08-30T10:22:21Z</time>
      </trkpt>
      <trkpt lat="39.883604" lon="-.518351">
        <ele>490.179</ele>
        <time>2020-08-30T10:22:23Z</time>
      </trkpt>
      <trkpt lat="39.883548" lon="-.518328">
        <ele>490.169</ele>
        <time>2020-08-30T10:22:25Z</time>
      </trkpt>
      <trkpt lat="39.883479" lon="-.518303">
        <ele>490.163</ele>
        <time>2020-08-30T10:22:27Z</time>
      </trkpt>
      <trkpt lat="39.88343" lon="-.518267">
        <ele>490.044</ele>
        <time>2020-08-30T10:22:29Z</time>
      </trkpt>
      <trkpt lat="39.883372" lon="-.518252">
        <ele>489.918</ele>
        <time>2020-08-30T10:22:31Z</time>
      </trkpt>
      <trkpt lat="39.883308" lon="-.518225">
        <ele>489.908</ele>
        <time>2020-08-30T10:22:33Z</time>
      </trkpt>
      <trkpt lat="39.88326" lon="-.518196">
        <ele>489.991</ele>
        <time>2020-08-30T10:22:34Z</time>
      </trkpt>
      <trkpt lat="39.883199" lon="-.518168">
        <ele>489.951</ele>
        <time>2020-08-30T10:22:35Z</time>
      </trkpt>
      <trkpt lat="39.883147" lon="-.518137">
        <ele>489.963</ele>
        <time>2020-08-30T10:22:36Z</time>
      </trkpt>
      <trkpt lat="39.883088" lon="-.518117">
        <ele>489.985</ele>
        <time>2020-08-30T10:22:37Z</time>
      </trkpt>
      <trkpt lat="39.883034" lon="-.518098">
        <ele>489.973</ele>
        <time>2020-08-30T10:22:38Z</time>
      </trkpt>
      <trkpt lat="39.882981" lon="-.518083">
        <ele>489.860</ele>
        <time>2020-08-30T10:22:39Z</time>
      </trkpt>
      <trkpt lat="39.882928" lon="-.51806">
        <ele>489.668</ele>
        <time>2020-08-30T10:22:40Z</time>
      </trkpt>
      <trkpt lat="39.882882" lon="-.51804">
        <ele>489.518</ele>
        <time>2020-08-30T10:22:41Z</time>
      </trkpt>
      <trkpt lat="39.882832" lon="-.518014">
        <ele>489.481</ele>
        <time>2020-08-30T10:22:42Z</time>
      </trkpt>
      <trkpt lat="39.882782" lon="-.517994">
        <ele>489.361</ele>
        <time>2020-08-30T10:22:43Z</time>
      </trkpt>
      <trkpt lat="39.882734" lon="-.517972">
        <ele>489.317</ele>
        <time>2020-08-30T10:22:44Z</time>
      </trkpt>
      <trkpt lat="39.882685" lon="-.517947">
        <ele>489.308</ele>
        <time>2020-08-30T10:22:45Z</time>
      </trkpt>
      <trkpt lat="39.88262" lon="-.517922">
        <ele>489.343</ele>
        <time>2020-08-30T10:22:46Z</time>
      </trkpt>
      <trkpt lat="39.882566" lon="-.517883">
        <ele>489.333</ele>
        <time>2020-08-30T10:22:47Z</time>
      </trkpt>
      <trkpt lat="39.882523" lon="-.517853">
        <ele>489.325</ele>
        <time>2020-08-30T10:22:48Z</time>
      </trkpt>
      <trkpt lat="39.882473" lon="-.517827">
        <ele>489.347</ele>
        <time>2020-08-30T10:22:49Z</time>
      </trkpt>
      <trkpt lat="39.88242" lon="-.517815">
        <ele>489.355</ele>
        <time>2020-08-30T10:22:50Z</time>
      </trkpt>
      <trkpt lat="39.882378" lon="-.51779">
        <ele>489.312</ele>
        <time>2020-08-30T10:22:51Z</time>
      </trkpt>
      <trkpt lat="39.882329" lon="-.517773">
        <ele>489.380</ele>
        <time>2020-08-30T10:22:52Z</time>
      </trkpt>
      <trkpt lat="39.882284" lon="-.517757">
        <ele>489.380</ele>
        <time>2020-08-30T10:22:53Z</time>
      </trkpt>
      <trkpt lat="39.882201" lon="-.517726">
        <ele>489.327</ele>
        <time>2020-08-30T10:22:55Z</time>
      </trkpt>
      <trkpt lat="39.882152" lon="-.517706">
        <ele>489.368</ele>
        <time>2020-08-30T10:22:56Z</time>
      </trkpt>
      <trkpt lat="39.882099" lon="-.517682">
        <ele>489.314</ele>
        <time>2020-08-30T10:22:57Z</time>
      </trkpt>
      <trkpt lat="39.882023" lon="-.517641">
        <ele>489.208</ele>
        <time>2020-08-30T10:22:59Z</time>
      </trkpt>
      <trkpt lat="39.881939" lon="-.517607">
        <ele>489.297</ele>
        <time>2020-08-30T10:23:01Z</time>
      </trkpt>
      <trkpt lat="39.881859" lon="-.517584">
        <ele>489.317</ele>
        <time>2020-08-30T10:23:03Z</time>
      </trkpt>
      <trkpt lat="39.881813" lon="-.517559">
        <ele>489.349</ele>
        <time>2020-08-30T10:23:04Z</time>
      </trkpt>
      <trkpt lat="39.881764" lon="-.517533">
        <ele>489.261</ele>
        <time>2020-08-30T10:23:05Z</time>
      </trkpt>
      <trkpt lat="39.881716" lon="-.517515">
        <ele>489.299</ele>
        <time>2020-08-30T10:23:06Z</time>
      </trkpt>
      <trkpt lat="39.88167" lon="-.517492">
        <ele>489.146</ele>
        <time>2020-08-30T10:23:07Z</time>
      </trkpt>
      <trkpt lat="39.881621" lon="-.517476">
        <ele>489.124</ele>
        <time>2020-08-30T10:23:08Z</time>
      </trkpt>
      <trkpt lat="39.881532" lon="-.517443">
        <ele>489.124</ele>
        <time>2020-08-30T10:23:10Z</time>
      </trkpt>
      <trkpt lat="39.881485" lon="-.517426">
        <ele>489.151</ele>
        <time>2020-08-30T10:23:11Z</time>
      </trkpt>
      <trkpt lat="39.881401" lon="-.517394">
        <ele>489.101</ele>
        <time>2020-08-30T10:23:13Z</time>
      </trkpt>
      <trkpt lat="39.881323" lon="-.517362">
        <ele>489.111</ele>
        <time>2020-08-30T10:23:15Z</time>
      </trkpt>
      <trkpt lat="39.881279" lon="-.517343">
        <ele>489.108</ele>
        <time>2020-08-30T10:23:16Z</time>
      </trkpt>
      <trkpt lat="39.881235" lon="-.517329">
        <ele>489.190</ele>
        <time>2020-08-30T10:23:17Z</time>
      </trkpt>
      <trkpt lat="39.881149" lon="-.517295">
        <ele>489.090</ele>
        <time>2020-08-30T10:23:19Z</time>
      </trkpt>
      <trkpt lat="39.881065" lon="-.51726">
        <ele>488.982</ele>
        <time>2020-08-30T10:23:21Z</time>
      </trkpt>
      <trkpt lat="39.880979" lon="-.517236">
        <ele>488.724</ele>
        <time>2020-08-30T10:23:23Z</time>
      </trkpt>
      <trkpt lat="39.880895" lon="-.517201">
        <ele>488.642</ele>
        <time>2020-08-30T10:23:25Z</time>
      </trkpt>
      <trkpt lat="39.88085" lon="-.517179">
        <ele>488.619</ele>
        <time>2020-08-30T10:23:26Z</time>
      </trkpt>
      <trkpt lat="39.880805" lon="-.517158">
        <ele>488.677</ele>
        <time>2020-08-30T10:23:27Z</time>
      </trkpt>
      <trkpt lat="39.880722" lon="-.517128">
        <ele>488.797</ele>
        <time>2020-08-30T10:23:29Z</time>
      </trkpt>
      <trkpt lat="39.880647" lon="-.5171">
        <ele>488.851</ele>
        <time>2020-08-30T10:23:31Z</time>
      </trkpt>
      <trkpt lat="39.880565" lon="-.517069">
        <ele>488.901</ele>
        <time>2020-08-30T10:23:33Z</time>
      </trkpt>
      <trkpt lat="39.880522" lon="-.517048">
        <ele>489.011</ele>
        <time>2020-08-30T10:23:34Z</time>
      </trkpt>
      <trkpt lat="39.880449" lon="-.517017">
        <ele>489.108</ele>
        <time>2020-08-30T10:23:36Z</time>
      </trkpt>
      <trkpt lat="39.880362" lon="-.516988">
        <ele>489.120</ele>
        <time>2020-08-30T10:23:38Z</time>
      </trkpt>
      <trkpt lat="39.880319" lon="-.516969">
        <ele>489.150</ele>
        <time>2020-08-30T10:23:39Z</time>
      </trkpt>
      <trkpt lat="39.880238" lon="-.516937">
        <ele>489.242</ele>
        <time>2020-08-30T10:23:41Z</time>
      </trkpt>
      <trkpt lat="39.880188" lon="-.516913">
        <ele>489.224</ele>
        <time>2020-08-30T10:23:42Z</time>
      </trkpt>
      <trkpt lat="39.880143" lon="-.516894">
        <ele>489.352</ele>
        <time>2020-08-30T10:23:43Z</time>
      </trkpt>
      <trkpt lat="39.8801" lon="-.516875">
        <ele>489.469</ele>
        <time>2020-08-30T10:23:44Z</time>
      </trkpt>
      <trkpt lat="39.880009" lon="-.516847">
        <ele>489.577</ele>
        <time>2020-08-30T10:23:46Z</time>
      </trkpt>
      <trkpt lat="39.879962" lon="-.516825">
        <ele>489.637</ele>
        <time>2020-08-30T10:23:47Z</time>
      </trkpt>
      <trkpt lat="39.879881" lon="-.516792">
        <ele>489.779</ele>
        <time>2020-08-30T10:23:49Z</time>
      </trkpt>
      <trkpt lat="39.879837" lon="-.516776">
        <ele>489.705</ele>
        <time>2020-08-30T10:23:50Z</time>
      </trkpt>
      <trkpt lat="39.87979" lon="-.516754">
        <ele>489.825</ele>
        <time>2020-08-30T10:23:51Z</time>
      </trkpt>
      <trkpt lat="39.879739" lon="-.516736">
        <ele>489.808</ele>
        <time>2020-08-30T10:23:52Z</time>
      </trkpt>
      <trkpt lat="39.879689" lon="-.516717">
        <ele>489.892</ele>
        <time>2020-08-30T10:23:53Z</time>
      </trkpt>
      <trkpt lat="39.879605" lon="-.516673">
        <ele>489.852</ele>
        <time>2020-08-30T10:23:55Z</time>
      </trkpt>
      <trkpt lat="39.879554" lon="-.516664">
        <ele>489.854</ele>
        <time>2020-08-30T10:23:56Z</time>
      </trkpt>
      <trkpt lat="39.879506" lon="-.516643">
        <ele>489.856</ele>
        <time>2020-08-30T10:23:57Z</time>
      </trkpt>
      <trkpt lat="39.879426" lon="-.516609">
        <ele>489.754</ele>
        <time>2020-08-30T10:23:59Z</time>
      </trkpt>
      <trkpt lat="39.87934" lon="-.516573">
        <ele>489.671</ele>
        <time>2020-08-30T10:24:01Z</time>
      </trkpt>
      <trkpt lat="39.879295" lon="-.516559">
        <ele>489.659</ele>
        <time>2020-08-30T10:24:02Z</time>
      </trkpt>
      <trkpt lat="39.879215" lon="-.516524">
        <ele>489.879</ele>
        <time>2020-08-30T10:24:04Z</time>
      </trkpt>
      <trkpt lat="39.879134" lon="-.516485">
        <ele>490.035</ele>
        <time>2020-08-30T10:24:06Z</time>
      </trkpt>
      <trkpt lat="39.879061" lon="-.516432">
        <ele>490.086</ele>
        <time>2020-08-30T10:24:08Z</time>
      </trkpt>
      <trkpt lat="39.879013" lon="-.516416">
        <ele>489.914</ele>
        <time>2020-08-30T10:24:09Z</time>
      </trkpt>
      <trkpt lat="39.878938" lon="-.516373">
        <ele>489.708</ele>
        <time>2020-08-30T10:24:11Z</time>
      </trkpt>
      <trkpt lat="39.878866" lon="-.516317">
        <ele>489.568</ele>
        <time>2020-08-30T10:24:13Z</time>
      </trkpt>
      <trkpt lat="39.878801" lon="-.51626">
        <ele>489.578</ele>
        <time>2020-08-30T10:24:15Z</time>
      </trkpt>
      <trkpt lat="39.87876" lon="-.516233">
        <ele>489.530</ele>
        <time>2020-08-30T10:24:16Z</time>
      </trkpt>
      <trkpt lat="39.878685" lon="-.516159">
        <ele>489.692</ele>
        <time>2020-08-30T10:24:18Z</time>
      </trkpt>
      <trkpt lat="39.878614" lon="-.516091">
        <ele>489.640</ele>
        <time>2020-08-30T10:24:20Z</time>
      </trkpt>
      <trkpt lat="39.878555" lon="-.516031">
        <ele>489.537</ele>
        <time>2020-08-30T10:24:22Z</time>
      </trkpt>
      <trkpt lat="39.878495" lon="-.515959">
        <ele>489.425</ele>
        <time>2020-08-30T10:24:24Z</time>
      </trkpt>
      <trkpt lat="39.878456" lon="-.515914">
        <ele>489.465</ele>
        <time>2020-08-30T10:24:25Z</time>
      </trkpt>
      <trkpt lat="39.878419" lon="-.515869">
        <ele>489.526</ele>
        <time>2020-08-30T10:24:26Z</time>
      </trkpt>
      <trkpt lat="39.878387" lon="-.515819">
        <ele>489.547</ele>
        <time>2020-08-30T10:24:27Z</time>
      </trkpt>
      <trkpt lat="39.878352" lon="-.515779">
        <ele>489.511</ele>
        <time>2020-08-30T10:24:28Z</time>
      </trkpt>
      <trkpt lat="39.878306" lon="-.515693">
        <ele>489.408</ele>
        <time>2020-08-30T10:24:30Z</time>
      </trkpt>
      <trkpt lat="39.878249" lon="-.515633">
        <ele>489.377</ele>
        <time>2020-08-30T10:24:32Z</time>
      </trkpt>
      <trkpt lat="39.878213" lon="-.515586">
        <ele>489.377</ele>
        <time>2020-08-30T10:24:33Z</time>
      </trkpt>
      <trkpt lat="39.878147" lon="-.515516">
        <ele>489.349</ele>
        <time>2020-08-30T10:24:35Z</time>
      </trkpt>
      <trkpt lat="39.878106" lon="-.515471">
        <ele>489.321</ele>
        <time>2020-08-30T10:24:36Z</time>
      </trkpt>
      <trkpt lat="39.878047" lon="-.515408">
        <ele>489.279</ele>
        <time>2020-08-30T10:24:38Z</time>
      </trkpt>
      <trkpt lat="39.878018" lon="-.515363">
        <ele>489.296</ele>
        <time>2020-08-30T10:24:39Z</time>
      </trkpt>
      <trkpt lat="39.877987" lon="-.515316">
        <ele>489.264</ele>
        <time>2020-08-30T10:24:40Z</time>
      </trkpt>
      <trkpt lat="39.877952" lon="-.515267">
        <ele>489.284</ele>
        <time>2020-08-30T10:24:41Z</time>
      </trkpt>
      <trkpt lat="39.877913" lon="-.515222">
        <ele>489.286</ele>
        <time>2020-08-30T10:24:42Z</time>
      </trkpt>
      <trkpt lat="39.877878" lon="-.515185">
        <ele>489.260</ele>
        <time>2020-08-30T10:24:43Z</time>
      </trkpt>
      <trkpt lat="39.877811" lon="-.515108">
        <ele>489.426</ele>
        <time>2020-08-30T10:24:45Z</time>
      </trkpt>
      <trkpt lat="39.877757" lon="-.515034">
        <ele>489.608</ele>
        <time>2020-08-30T10:24:47Z</time>
      </trkpt>
      <trkpt lat="39.87773" lon="-.514986">
        <ele>489.723</ele>
        <time>2020-08-30T10:24:48Z</time>
      </trkpt>
      <trkpt lat="39.877671" lon="-.514893">
        <ele>489.733</ele>
        <time>2020-08-30T10:24:50Z</time>
      </trkpt>
      <trkpt lat="39.877635" lon="-.514852">
        <ele>489.775</ele>
        <time>2020-08-30T10:24:51Z</time>
      </trkpt>
      <trkpt lat="39.877573" lon="-.514784">
        <ele>489.657</ele>
        <time>2020-08-30T10:24:53Z</time>
      </trkpt>
      <trkpt lat="39.87754" lon="-.514743">
        <ele>489.635</ele>
        <time>2020-08-30T10:24:54Z</time>
      </trkpt>
      <trkpt lat="39.87746" lon="-.514678">
        <ele>489.652</ele>
        <time>2020-08-30T10:24:56Z</time>
      </trkpt>
      <trkpt lat="39.877389" lon="-.51461">
        <ele>489.640</ele>
        <time>2020-08-30T10:24:58Z</time>
      </trkpt>
      <trkpt lat="39.877344" lon="-.514561">
        <ele>489.680</ele>
        <time>2020-08-30T10:24:59Z</time>
      </trkpt>
      <trkpt lat="39.877304" lon="-.514508">
        <ele>489.633</ele>
        <time>2020-08-30T10:25:00Z</time>
      </trkpt>
      <trkpt lat="39.877257" lon="-.514481">
        <ele>489.623</ele>
        <time>2020-08-30T10:25:01Z</time>
      </trkpt>
      <trkpt lat="39.877171" lon="-.514448">
        <ele>489.715</ele>
        <time>2020-08-30T10:25:03Z</time>
      </trkpt>
      <trkpt lat="39.877126" lon="-.514411">
        <ele>489.708</ele>
        <time>2020-08-30T10:25:04Z</time>
      </trkpt>
      <trkpt lat="39.877078" lon="-.5144">
        <ele>489.768</ele>
        <time>2020-08-30T10:25:05Z</time>
      </trkpt>
      <trkpt lat="39.877028" lon="-.514368">
        <ele>489.828</ele>
        <time>2020-08-30T10:25:06Z</time>
      </trkpt>
      <trkpt lat="39.87698" lon="-.514332">
        <ele>489.820</ele>
        <time>2020-08-30T10:25:07Z</time>
      </trkpt>
      <trkpt lat="39.876931" lon="-.514312">
        <ele>489.962</ele>
        <time>2020-08-30T10:25:08Z</time>
      </trkpt>
      <trkpt lat="39.876857" lon="-.514276">
        <ele>490.070</ele>
        <time>2020-08-30T10:25:10Z</time>
      </trkpt>
      <trkpt lat="39.876787" lon="-.51424">
        <ele>490.117</ele>
        <time>2020-08-30T10:25:12Z</time>
      </trkpt>
      <trkpt lat="39.876734" lon="-.514218">
        <ele>490.155</ele>
        <time>2020-08-30T10:25:13Z</time>
      </trkpt>
      <trkpt lat="39.876688" lon="-.514194">
        <ele>490.125</ele>
        <time>2020-08-30T10:25:14Z</time>
      </trkpt>
      <trkpt lat="39.876627" lon="-.514153">
        <ele>490.247</ele>
        <time>2020-08-30T10:25:16Z</time>
      </trkpt>
      <trkpt lat="39.876547" lon="-.514116">
        <ele>490.229</ele>
        <time>2020-08-30T10:25:18Z</time>
      </trkpt>
      <trkpt lat="39.876467" lon="-.514071">
        <ele>490.221</ele>
        <time>2020-08-30T10:25:20Z</time>
      </trkpt>
      <trkpt lat="39.87639" lon="-.514036">
        <ele>490.408</ele>
        <time>2020-08-30T10:25:22Z</time>
      </trkpt>
      <trkpt lat="39.876326" lon="-.514026">
        <ele>490.579</ele>
        <time>2020-08-30T10:25:24Z</time>
      </trkpt>
      <trkpt lat="39.876246" lon="-.513979">
        <ele>490.489</ele>
        <time>2020-08-30T10:25:26Z</time>
      </trkpt>
      <trkpt lat="39.876163" lon="-.513944">
        <ele>490.251</ele>
        <time>2020-08-30T10:25:28Z</time>
      </trkpt>
      <trkpt lat="39.876107" lon="-.513922">
        <ele>490.023</ele>
        <time>2020-08-30T10:25:29Z</time>
      </trkpt>
      <trkpt lat="39.876057" lon="-.513902">
        <ele>489.931</ele>
        <time>2020-08-30T10:25:30Z</time>
      </trkpt>
      <trkpt lat="39.87601" lon="-.513885">
        <ele>489.968</ele>
        <time>2020-08-30T10:25:31Z</time>
      </trkpt>
      <trkpt lat="39.875963" lon="-.513866">
        <ele>489.926</ele>
        <time>2020-08-30T10:25:32Z</time>
      </trkpt>
      <trkpt lat="39.87589" lon="-.51383">
        <ele>489.926</ele>
        <time>2020-08-30T10:25:34Z</time>
      </trkpt>
      <trkpt lat="39.87582" lon="-.513798">
        <ele>489.953</ele>
        <time>2020-08-30T10:25:36Z</time>
      </trkpt>
      <trkpt lat="39.87575" lon="-.513754">
        <ele>489.904</ele>
        <time>2020-08-30T10:25:38Z</time>
      </trkpt>
      <trkpt lat="39.875671" lon="-.513717">
        <ele>489.814</ele>
        <time>2020-08-30T10:25:40Z</time>
      </trkpt>
      <trkpt lat="39.875587" lon="-.513665">
        <ele>490.008</ele>
        <time>2020-08-30T10:25:42Z</time>
      </trkpt>
      <trkpt lat="39.87554" lon="-.513637">
        <ele>490.130</ele>
        <time>2020-08-30T10:25:43Z</time>
      </trkpt>
      <trkpt lat="39.875463" lon="-.513584">
        <ele>490.160</ele>
        <time>2020-08-30T10:25:45Z</time>
      </trkpt>
      <trkpt lat="39.875391" lon="-.51354">
        <ele>490.172</ele>
        <time>2020-08-30T10:25:47Z</time>
      </trkpt>
      <trkpt lat="39.875318" lon="-.513479">
        <ele>490.154</ele>
        <time>2020-08-30T10:25:49Z</time>
      </trkpt>
      <trkpt lat="39.875281" lon="-.51343">
        <ele>490.152</ele>
        <time>2020-08-30T10:25:50Z</time>
      </trkpt>
      <trkpt lat="39.875245" lon="-.51338">
        <ele>490.179</ele>
        <time>2020-08-30T10:25:51Z</time>
      </trkpt>
      <trkpt lat="39.875179" lon="-.513311">
        <ele>490.117</ele>
        <time>2020-08-30T10:25:53Z</time>
      </trkpt>
      <trkpt lat="39.875139" lon="-.513275">
        <ele>490.117</ele>
        <time>2020-08-30T10:25:54Z</time>
      </trkpt>
      <trkpt lat="39.875073" lon="-.513197">
        <ele>490.073</ele>
        <time>2020-08-30T10:25:56Z</time>
      </trkpt>
      <trkpt lat="39.875036" lon="-.513158">
        <ele>490.085</ele>
        <time>2020-08-30T10:25:57Z</time>
      </trkpt>
      <trkpt lat="39.874998" lon="-.513113">
        <ele>489.913</ele>
        <time>2020-08-30T10:25:58Z</time>
      </trkpt>
      <trkpt lat="39.874958" lon="-.513073">
        <ele>489.908</ele>
        <time>2020-08-30T10:25:59Z</time>
      </trkpt>
      <trkpt lat="39.874933" lon="-.51302">
        <ele>490.072</ele>
        <time>2020-08-30T10:26:00Z</time>
      </trkpt>
      <trkpt lat="39.874873" lon="-.512926">
        <ele>490.142</ele>
        <time>2020-08-30T10:26:02Z</time>
      </trkpt>
      <trkpt lat="39.87484" lon="-.512882">
        <ele>490.234</ele>
        <time>2020-08-30T10:26:03Z</time>
      </trkpt>
      <trkpt lat="39.874808" lon="-.512832">
        <ele>490.256</ele>
        <time>2020-08-30T10:26:04Z</time>
      </trkpt>
      <trkpt lat="39.87478" lon="-.512784">
        <ele>490.244</ele>
        <time>2020-08-30T10:26:05Z</time>
      </trkpt>
      <trkpt lat="39.874746" lon="-.512732">
        <ele>490.291</ele>
        <time>2020-08-30T10:26:06Z</time>
      </trkpt>
      <trkpt lat="39.874697" lon="-.512653">
        <ele>490.169</ele>
        <time>2020-08-30T10:26:08Z</time>
      </trkpt>
      <trkpt lat="39.874668" lon="-.5126">
        <ele>489.959</ele>
        <time>2020-08-30T10:26:09Z</time>
      </trkpt>
      <trkpt lat="39.874632" lon="-.512549">
        <ele>489.838</ele>
        <time>2020-08-30T10:26:10Z</time>
      </trkpt>
      <trkpt lat="39.874573" lon="-.512462">
        <ele>489.670</ele>
        <time>2020-08-30T10:26:12Z</time>
      </trkpt>
      <trkpt lat="39.874523" lon="-.512379">
        <ele>489.517</ele>
        <time>2020-08-30T10:26:14Z</time>
      </trkpt>
      <trkpt lat="39.874463" lon="-.512289">
        <ele>489.408</ele>
        <time>2020-08-30T10:26:16Z</time>
      </trkpt>
      <trkpt lat="39.874409" lon="-.512208">
        <ele>489.468</ele>
        <time>2020-08-30T10:26:18Z</time>
      </trkpt>
      <trkpt lat="39.874364" lon="-.512135">
        <ele>489.558</ele>
        <time>2020-08-30T10:26:20Z</time>
      </trkpt>
      <trkpt lat="39.874328" lon="-.512071">
        <ele>489.660</ele>
        <time>2020-08-30T10:26:22Z</time>
      </trkpt>
      <trkpt lat="39.874276" lon="-.511992">
        <ele>489.622</ele>
        <time>2020-08-30T10:26:24Z</time>
      </trkpt>
      <trkpt lat="39.874236" lon="-.511938">
        <ele>489.570</ele>
        <time>2020-08-30T10:26:26Z</time>
      </trkpt>
      <trkpt lat="39.874192" lon="-.511868">
        <ele>489.387</ele>
        <time>2020-08-30T10:26:28Z</time>
      </trkpt>
      <trkpt lat="39.874148" lon="-.511811">
        <ele>489.135</ele>
        <time>2020-08-30T10:26:30Z</time>
      </trkpt>
      <trkpt lat="39.874097" lon="-.511732">
        <ele>489.095</ele>
        <time>2020-08-30T10:26:32Z</time>
      </trkpt>
      <trkpt lat="39.874037" lon="-.511651">
        <ele>489.095</ele>
        <time>2020-08-30T10:26:34Z</time>
      </trkpt>
      <trkpt lat="39.874009" lon="-.511602">
        <ele>489.049</ele>
        <time>2020-08-30T10:26:35Z</time>
      </trkpt>
      <trkpt lat="39.873965" lon="-.51151">
        <ele>489.123</ele>
        <time>2020-08-30T10:26:37Z</time>
      </trkpt>
      <trkpt lat="39.873907" lon="-.511419">
        <ele>489.208</ele>
        <time>2020-08-30T10:26:39Z</time>
      </trkpt>
      <trkpt lat="39.873863" lon="-.511342">
        <ele>489.464</ele>
        <time>2020-08-30T10:26:41Z</time>
      </trkpt>
      <trkpt lat="39.873815" lon="-.51127">
        <ele>489.674</ele>
        <time>2020-08-30T10:26:43Z</time>
      </trkpt>
      <trkpt lat="39.873766" lon="-.511183">
        <ele>489.626</ele>
        <time>2020-08-30T10:26:45Z</time>
      </trkpt>
      <trkpt lat="39.87372" lon="-.51112">
        <ele>489.428</ele>
        <time>2020-08-30T10:26:47Z</time>
      </trkpt>
      <trkpt lat="39.873667" lon="-.511065">
        <ele>489.316</ele>
        <time>2020-08-30T10:26:49Z</time>
      </trkpt>
      <trkpt lat="39.873612" lon="-.510991">
        <ele>489.483</ele>
        <time>2020-08-30T10:26:51Z</time>
      </trkpt>
      <trkpt lat="39.873554" lon="-.510933">
        <ele>489.431</ele>
        <time>2020-08-30T10:26:53Z</time>
      </trkpt>
      <trkpt lat="39.873525" lon="-.510886">
        <ele>489.521</ele>
        <time>2020-08-30T10:26:54Z</time>
      </trkpt>
      <trkpt lat="39.873497" lon="-.510837">
        <ele>489.685</ele>
        <time>2020-08-30T10:26:55Z</time>
      </trkpt>
      <trkpt lat="39.87344" lon="-.510792">
        <ele>489.789</ele>
        <time>2020-08-30T10:26:57Z</time>
      </trkpt>
      <trkpt lat="39.873394" lon="-.510764">
        <ele>489.817</ele>
        <time>2020-08-30T10:26:58Z</time>
      </trkpt>
      <trkpt lat="39.873356" lon="-.510713">
        <ele>489.808</ele>
        <time>2020-08-30T10:26:59Z</time>
      </trkpt>
      <trkpt lat="39.873331" lon="-.510662">
        <ele>489.843</ele>
        <time>2020-08-30T10:27:00Z</time>
      </trkpt>
      <trkpt lat="39.873255" lon="-.510613">
        <ele>489.923</ele>
        <time>2020-08-30T10:27:02Z</time>
      </trkpt>
      <trkpt lat="39.873179" lon="-.510572">
        <ele>489.945</ele>
        <time>2020-08-30T10:27:04Z</time>
      </trkpt>
      <trkpt lat="39.873136" lon="-.510555">
        <ele>489.947</ele>
        <time>2020-08-30T10:27:05Z</time>
      </trkpt>
      <trkpt lat="39.873094" lon="-.510533">
        <ele>489.925</ele>
        <time>2020-08-30T10:27:06Z</time>
      </trkpt>
      <trkpt lat="39.873058" lon="-.510497">
        <ele>489.912</ele>
        <time>2020-08-30T10:27:07Z</time>
      </trkpt>
      <trkpt lat="39.872974" lon="-.51047">
        <ele>490.080</ele>
        <time>2020-08-30T10:27:09Z</time>
      </trkpt>
      <trkpt lat="39.872885" lon="-.510444">
        <ele>490.060</ele>
        <time>2020-08-30T10:27:11Z</time>
      </trkpt>
      <trkpt lat="39.872836" lon="-.51042">
        <ele>490.046</ele>
        <time>2020-08-30T10:27:12Z</time>
      </trkpt>
      <trkpt lat="39.872749" lon="-.510397">
        <ele>490.088</ele>
        <time>2020-08-30T10:27:14Z</time>
      </trkpt>
      <trkpt lat="39.872703" lon="-.51038">
        <ele>490.116</ele>
        <time>2020-08-30T10:27:15Z</time>
      </trkpt>
      <trkpt lat="39.872636" lon="-.510359">
        <ele>490.208</ele>
        <time>2020-08-30T10:27:17Z</time>
      </trkpt>
      <trkpt lat="39.872557" lon="-.510325">
        <ele>490.219</ele>
        <time>2020-08-30T10:27:19Z</time>
      </trkpt>
      <trkpt lat="39.872503" lon="-.510323">
        <ele>490.289</ele>
        <time>2020-08-30T10:27:20Z</time>
      </trkpt>
      <trkpt lat="39.872454" lon="-.510321">
        <ele>490.221</ele>
        <time>2020-08-30T10:27:21Z</time>
      </trkpt>
      <trkpt lat="39.872407" lon="-.510315">
        <ele>490.283</ele>
        <time>2020-08-30T10:27:22Z</time>
      </trkpt>
      <trkpt lat="39.872326" lon="-.510321">
        <ele>490.341</ele>
        <time>2020-08-30T10:27:24Z</time>
      </trkpt>
      <trkpt lat="39.872266" lon="-.510319">
        <ele>490.348</ele>
        <time>2020-08-30T10:27:25Z</time>
      </trkpt>
      <trkpt lat="39.872221" lon="-.510323">
        <ele>490.336</ele>
        <time>2020-08-30T10:27:26Z</time>
      </trkpt>
      <trkpt lat="39.872172" lon="-.510322">
        <ele>490.226</ele>
        <time>2020-08-30T10:27:27Z</time>
      </trkpt>
      <trkpt lat="39.872124" lon="-.510326">
        <ele>490.115</ele>
        <time>2020-08-30T10:27:28Z</time>
      </trkpt>
      <trkpt lat="39.87208" lon="-.51034">
        <ele>490.165</ele>
        <time>2020-08-30T10:27:29Z</time>
      </trkpt>
      <trkpt lat="39.871987" lon="-.510366">
        <ele>489.911</ele>
        <time>2020-08-30T10:27:31Z</time>
      </trkpt>
      <trkpt lat="39.871914" lon="-.510404">
        <ele>489.808</ele>
        <time>2020-08-30T10:27:33Z</time>
      </trkpt>
      <trkpt lat="39.871815" lon="-.510422">
        <ele>489.776</ele>
        <time>2020-08-30T10:27:35Z</time>
      </trkpt>
      <trkpt lat="39.871763" lon="-.510436">
        <ele>489.736</ele>
        <time>2020-08-30T10:27:36Z</time>
      </trkpt>
      <trkpt lat="39.871718" lon="-.510456">
        <ele>489.668</ele>
        <time>2020-08-30T10:27:37Z</time>
      </trkpt>
      <trkpt lat="39.871651" lon="-.510498">
        <ele>489.430</ele>
        <time>2020-08-30T10:27:39Z</time>
      </trkpt>
      <trkpt lat="39.871607" lon="-.510511">
        <ele>489.328</ele>
        <time>2020-08-30T10:27:40Z</time>
      </trkpt>
      <trkpt lat="39.871526" lon="-.510561">
        <ele>489.165</ele>
        <time>2020-08-30T10:27:42Z</time>
      </trkpt>
      <trkpt lat="39.871464" lon="-.510631">
        <ele>488.953</ele>
        <time>2020-08-30T10:27:44Z</time>
      </trkpt>
      <trkpt lat="39.871402" lon="-.510665">
        <ele>488.723</ele>
        <time>2020-08-30T10:27:45Z</time>
      </trkpt>
      <trkpt lat="39.871323" lon="-.51071">
        <ele>488.522</ele>
        <time>2020-08-30T10:27:47Z</time>
      </trkpt>
      <trkpt lat="39.87128" lon="-.510729">
        <ele>488.562</ele>
        <time>2020-08-30T10:27:48Z</time>
      </trkpt>
      <trkpt lat="39.871206" lon="-.510772">
        <ele>488.108</ele>
        <time>2020-08-30T10:27:50Z</time>
      </trkpt>
      <trkpt lat="39.871137" lon="-.510822">
        <ele>488.108</ele>
        <time>2020-08-30T10:27:52Z</time>
      </trkpt>
      <trkpt lat="39.871078" lon="-.510869">
        <ele>488.177</ele>
        <time>2020-08-30T10:27:54Z</time>
      </trkpt>
      <trkpt lat="39.871018" lon="-.510924">
        <ele>487.997</ele>
        <time>2020-08-30T10:27:56Z</time>
      </trkpt>
      <trkpt lat="39.870965" lon="-.510963">
        <ele>487.829</ele>
        <time>2020-08-30T10:27:58Z</time>
      </trkpt>
      <trkpt lat="39.87091" lon="-.511006">
        <ele>487.811</ele>
        <time>2020-08-30T10:28:00Z</time>
      </trkpt>
      <trkpt lat="39.870863" lon="-.511037">
        <ele>487.869</ele>
        <time>2020-08-30T10:28:02Z</time>
      </trkpt>
      <trkpt lat="39.870817" lon="-.51107">
        <ele>487.886</ele>
        <time>2020-08-30T10:28:04Z</time>
      </trkpt>
      <trkpt lat="39.870771" lon="-.511106">
        <ele>487.684</ele>
        <time>2020-08-30T10:28:06Z</time>
      </trkpt>
      <trkpt lat="39.870721" lon="-.511144">
        <ele>487.664</ele>
        <time>2020-08-30T10:28:08Z</time>
      </trkpt>
      <trkpt lat="39.870657" lon="-.511185">
        <ele>487.667</ele>
        <time>2020-08-30T10:28:10Z</time>
      </trkpt>
      <trkpt lat="39.870602" lon="-.511223">
        <ele>487.581</ele>
        <time>2020-08-30T10:28:12Z</time>
      </trkpt>
      <trkpt lat="39.870556" lon="-.51127">
        <ele>487.419</ele>
        <time>2020-08-30T10:28:14Z</time>
      </trkpt>
      <trkpt lat="39.870487" lon="-.511322">
        <ele>487.308</ele>
        <time>2020-08-30T10:28:16Z</time>
      </trkpt>
      <trkpt lat="39.870416" lon="-.511375">
        <ele>486.951</ele>
        <time>2020-08-30T10:28:18Z</time>
      </trkpt>
      <trkpt lat="39.870348" lon="-.511418">
        <ele>486.911</ele>
        <time>2020-08-30T10:28:20Z</time>
      </trkpt>
      <trkpt lat="39.870289" lon="-.511467">
        <ele>487.183</ele>
        <time>2020-08-30T10:28:22Z</time>
      </trkpt>
      <trkpt lat="39.870226" lon="-.511513">
        <ele>487.325</ele>
        <time>2020-08-30T10:28:24Z</time>
      </trkpt>
      <trkpt lat="39.870164" lon="-.511556">
        <ele>487.273</ele>
        <time>2020-08-30T10:28:26Z</time>
      </trkpt>
      <trkpt lat="39.870112" lon="-.511599">
        <ele>487.270</ele>
        <time>2020-08-30T10:28:28Z</time>
      </trkpt>
      <trkpt lat="39.870057" lon="-.511626">
        <ele>487.168</ele>
        <time>2020-08-30T10:28:30Z</time>
      </trkpt>
      <trkpt lat="39.87001" lon="-.511661">
        <ele>487.118</ele>
        <time>2020-08-30T10:28:32Z</time>
      </trkpt>
      <trkpt lat="39.869961" lon="-.511691">
        <ele>487.086</ele>
        <time>2020-08-30T10:28:34Z</time>
      </trkpt>
      <trkpt lat="39.869916" lon="-.511727">
        <ele>487.060</ele>
        <time>2020-08-30T10:28:36Z</time>
      </trkpt>
      <trkpt lat="39.869855" lon="-.511757">
        <ele>486.726</ele>
        <time>2020-08-30T10:28:38Z</time>
      </trkpt>
      <trkpt lat="39.869797" lon="-.511796">
        <ele>486.608</ele>
        <time>2020-08-30T10:28:40Z</time>
      </trkpt>
      <trkpt lat="39.869732" lon="-.511844">
        <ele>486.583</ele>
        <time>2020-08-30T10:28:42Z</time>
      </trkpt>
      <trkpt lat="39.869648" lon="-.511894">
        <ele>486.353</ele>
        <time>2020-08-30T10:28:44Z</time>
      </trkpt>
      <trkpt lat="39.869562" lon="-.511942">
        <ele>486.355</ele>
        <time>2020-08-30T10:28:46Z</time>
      </trkpt>
      <trkpt lat="39.869492" lon="-.51198">
        <ele>486.317</ele>
        <time>2020-08-30T10:28:48Z</time>
      </trkpt>
      <trkpt lat="39.869422" lon="-.511994">
        <ele>486.335</ele>
        <time>2020-08-30T10:28:50Z</time>
      </trkpt>
      <trkpt lat="39.869357" lon="-.512024">
        <ele>486.322</ele>
        <time>2020-08-30T10:28:52Z</time>
      </trkpt>
      <trkpt lat="39.869287" lon="-.512049">
        <ele>486.330</ele>
        <time>2020-08-30T10:28:54Z</time>
      </trkpt>
      <trkpt lat="39.86923" lon="-.512074">
        <ele>486.240</ele>
        <time>2020-08-30T10:28:56Z</time>
      </trkpt>
      <trkpt lat="39.869175" lon="-.51209">
        <ele>486.266</ele>
        <time>2020-08-30T10:28:58Z</time>
      </trkpt>
      <trkpt lat="39.869118" lon="-.512105">
        <ele>486.229</ele>
        <time>2020-08-30T10:29:00Z</time>
      </trkpt>
      <trkpt lat="39.869066" lon="-.512128">
        <ele>486.321</ele>
        <time>2020-08-30T10:29:02Z</time>
      </trkpt>
      <trkpt lat="39.869002" lon="-.512132">
        <ele>486.308</ele>
        <time>2020-08-30T10:29:04Z</time>
      </trkpt>
      <trkpt lat="39.868931" lon="-.512159">
        <ele>486.271</ele>
        <time>2020-08-30T10:29:06Z</time>
      </trkpt>
      <trkpt lat="39.868883" lon="-.512175">
        <ele>486.191</ele>
        <time>2020-08-30T10:29:08Z</time>
      </trkpt>
      <trkpt lat="39.868834" lon="-.51218">
        <ele>486.023</ele>
        <time>2020-08-30T10:29:10Z</time>
      </trkpt>
      <trkpt lat="39.868777" lon="-.512197">
        <ele>485.895</ele>
        <time>2020-08-30T10:29:12Z</time>
      </trkpt>
      <trkpt lat="39.868716" lon="-.512214">
        <ele>486.073</ele>
        <time>2020-08-30T10:29:14Z</time>
      </trkpt>
      <trkpt lat="39.868646" lon="-.512211">
        <ele>486.350</ele>
        <time>2020-08-30T10:29:16Z</time>
      </trkpt>
      <trkpt lat="39.868582" lon="-.512215">
        <ele>486.248</ele>
        <time>2020-08-30T10:29:18Z</time>
      </trkpt>
      <trkpt lat="39.868519" lon="-.512219">
        <ele>486.088</ele>
        <time>2020-08-30T10:29:20Z</time>
      </trkpt>
      <trkpt lat="39.86846" lon="-.512222">
        <ele>486.126</ele>
        <time>2020-08-30T10:29:22Z</time>
      </trkpt>
      <trkpt lat="39.868399" lon="-.512241">
        <ele>486.047</ele>
        <time>2020-08-30T10:29:24Z</time>
      </trkpt>
      <trkpt lat="39.868332" lon="-.512251">
        <ele>485.811</ele>
        <time>2020-08-30T10:29:26Z</time>
      </trkpt>
      <trkpt lat="39.868255" lon="-.512259">
        <ele>485.808</ele>
        <time>2020-08-30T10:29:28Z</time>
      </trkpt>
      <trkpt lat="39.868181" lon="-.512269">
        <ele>486.167</ele>
        <time>2020-08-30T10:29:30Z</time>
      </trkpt>
      <trkpt lat="39.868111" lon="-.512278">
        <ele>486.317</ele>
        <time>2020-08-30T10:29:32Z</time>
      </trkpt>
      <trkpt lat="39.868064" lon="-.51228">
        <ele>486.329</ele>
        <time>2020-08-30T10:29:33Z</time>
      </trkpt>
      <trkpt lat="39.867972" lon="-.512284">
        <ele>486.431</ele>
        <time>2020-08-30T10:29:35Z</time>
      </trkpt>
      <trkpt lat="39.86792" lon="-.512319">
        <ele>486.289</ele>
        <time>2020-08-30T10:29:39Z</time>
      </trkpt>
      <trkpt lat="39.86787" lon="-.512324">
        <ele>486.016</ele>
        <time>2020-08-30T10:29:41Z</time>
      </trkpt>
      <trkpt lat="39.867809" lon="-.512323">
        <ele>486.094</ele>
        <time>2020-08-30T10:29:44Z</time>
      </trkpt>
      <trkpt lat="39.867763" lon="-.512324">
        <ele>486.264</ele>
        <time>2020-08-30T10:29:46Z</time>
      </trkpt>
      <trkpt lat="39.86771" lon="-.512322">
        <ele>486.373</ele>
        <time>2020-08-30T10:29:48Z</time>
      </trkpt>
      <trkpt lat="39.867643" lon="-.512329">
        <ele>486.185</ele>
        <time>2020-08-30T10:29:50Z</time>
      </trkpt>
      <trkpt lat="39.867576" lon="-.512344">
        <ele>485.913</ele>
        <time>2020-08-30T10:29:52Z</time>
      </trkpt>
      <trkpt lat="39.86751" lon="-.51235">
        <ele>485.908</ele>
        <time>2020-08-30T10:29:54Z</time>
      </trkpt>
      <trkpt lat="39.86744" lon="-.512338">
        <ele>485.842</ele>
        <time>2020-08-30T10:29:56Z</time>
      </trkpt>
      <trkpt lat="39.867363" lon="-.512318">
        <ele>485.812</ele>
        <time>2020-08-30T10:29:58Z</time>
      </trkpt>
      <trkpt lat="39.867295" lon="-.512306">
        <ele>485.844</ele>
        <time>2020-08-30T10:30:00Z</time>
      </trkpt>
      <trkpt lat="39.867228" lon="-.5123">
        <ele>485.836</ele>
        <time>2020-08-30T10:30:02Z</time>
      </trkpt>
      <trkpt lat="39.86716" lon="-.512305">
        <ele>485.654</ele>
        <time>2020-08-30T10:30:04Z</time>
      </trkpt>
      <trkpt lat="39.867088" lon="-.512299">
        <ele>485.441</ele>
        <time>2020-08-30T10:30:06Z</time>
      </trkpt>
      <trkpt lat="39.867037" lon="-.512301">
        <ele>485.329</ele>
        <time>2020-08-30T10:30:07Z</time>
      </trkpt>
      <trkpt lat="39.866972" lon="-.512304">
        <ele>485.289</ele>
        <time>2020-08-30T10:30:08Z</time>
      </trkpt>
      <trkpt lat="39.866898" lon="-.512306">
        <ele>485.143</ele>
        <time>2020-08-30T10:30:09Z</time>
      </trkpt>
      <trkpt lat="39.866823" lon="-.512316">
        <ele>485.164</ele>
        <time>2020-08-30T10:30:10Z</time>
      </trkpt>
      <trkpt lat="39.866752" lon="-.512319">
        <ele>485.010</ele>
        <time>2020-08-30T10:30:11Z</time>
      </trkpt>
      <trkpt lat="39.866645" lon="-.512328">
        <ele>484.908</ele>
        <time>2020-08-30T10:30:12Z</time>
      </trkpt>
      <trkpt lat="39.866547" lon="-.512334">
        <ele>484.999</ele>
        <time>2020-08-30T10:30:13Z</time>
      </trkpt>
      <trkpt lat="39.866454" lon="-.512337">
        <ele>484.979</ele>
        <time>2020-08-30T10:30:14Z</time>
      </trkpt>
      <trkpt lat="39.866361" lon="-.512343">
        <ele>484.841</ele>
        <time>2020-08-30T10:30:15Z</time>
      </trkpt>
      <trkpt lat="39.866263" lon="-.512353">
        <ele>484.653</ele>
        <time>2020-08-30T10:30:16Z</time>
      </trkpt>
      <trkpt lat="39.866173" lon="-.512361">
        <ele>484.481</ele>
        <time>2020-08-30T10:30:17Z</time>
      </trkpt>
      <trkpt lat="39.866083" lon="-.51237">
        <ele>484.168</ele>
        <time>2020-08-30T10:30:18Z</time>
      </trkpt>
      <trkpt lat="39.866009" lon="-.512372">
        <ele>483.896</ele>
        <time>2020-08-30T10:30:19Z</time>
      </trkpt>
      <trkpt lat="39.865931" lon="-.512377">
        <ele>483.556</ele>
        <time>2020-08-30T10:30:20Z</time>
      </trkpt>
      <trkpt lat="39.865852" lon="-.512389">
        <ele>483.212</ele>
        <time>2020-08-30T10:30:21Z</time>
      </trkpt>
      <trkpt lat="39.865774" lon="-.5124">
        <ele>482.932</ele>
        <time>2020-08-30T10:30:22Z</time>
      </trkpt>
      <trkpt lat="39.865701" lon="-.512412">
        <ele>482.605</ele>
        <time>2020-08-30T10:30:23Z</time>
      </trkpt>
      <trkpt lat="39.865626" lon="-.51242">
        <ele>482.208</ele>
        <time>2020-08-30T10:30:24Z</time>
      </trkpt>
      <trkpt lat="39.865568" lon="-.512416">
        <ele>481.966</ele>
        <time>2020-08-30T10:30:25Z</time>
      </trkpt>
      <trkpt lat="39.865508" lon="-.512401">
        <ele>481.736</ele>
        <time>2020-08-30T10:30:26Z</time>
      </trkpt>
      <trkpt lat="39.865452" lon="-.512393">
        <ele>481.598</ele>
        <time>2020-08-30T10:30:27Z</time>
      </trkpt>
      <trkpt lat="39.865397" lon="-.512385">
        <ele>481.390</ele>
        <time>2020-08-30T10:30:28Z</time>
      </trkpt>
      <trkpt lat="39.865345" lon="-.512378">
        <ele>481.238</ele>
        <time>2020-08-30T10:30:29Z</time>
      </trkpt>
      <trkpt lat="39.865295" lon="-.512372">
        <ele>481.235</ele>
        <time>2020-08-30T10:30:30Z</time>
      </trkpt>
      <trkpt lat="39.865243" lon="-.512361">
        <ele>481.173</ele>
        <time>2020-08-30T10:30:31Z</time>
      </trkpt>
      <trkpt lat="39.865192" lon="-.51235">
        <ele>481.183</ele>
        <time>2020-08-30T10:30:32Z</time>
      </trkpt>
      <trkpt lat="39.864994" lon="-.512351">
        <ele>481.119</ele>
        <time>2020-08-30T10:30:34Z</time>
      </trkpt>
      <trkpt lat="39.86499" lon="-.512458">
        <ele>481.509</ele>
        <time>2020-08-30T10:30:37Z</time>
      </trkpt>
      <trkpt lat="39.864871" lon="-.512483">
        <ele>481.619</ele>
        <time>2020-08-30T10:30:38Z</time>
      </trkpt>
      <trkpt lat="39.864786" lon="-.512518">
        <ele>481.708</ele>
        <time>2020-08-30T10:30:39Z</time>
      </trkpt>
      <trkpt lat="39.86471" lon="-.512529">
        <ele>481.826</ele>
        <time>2020-08-30T10:30:40Z</time>
      </trkpt>
      <trkpt lat="39.864651" lon="-.512533">
        <ele>481.926</ele>
        <time>2020-08-30T10:30:41Z</time>
      </trkpt>
      <trkpt lat="39.864601" lon="-.512536">
        <ele>482.178</ele>
        <time>2020-08-30T10:30:42Z</time>
      </trkpt>
      <trkpt lat="39.86455" lon="-.512533">
        <ele>482.270</ele>
        <time>2020-08-30T10:30:43Z</time>
      </trkpt>
      <trkpt lat="39.864496" lon="-.512545">
        <ele>482.378</ele>
        <time>2020-08-30T10:30:44Z</time>
      </trkpt>
      <trkpt lat="39.864446" lon="-.512542">
        <ele>482.465</ele>
        <time>2020-08-30T10:30:45Z</time>
      </trkpt>
      <trkpt lat="39.864355" lon="-.512541">
        <ele>482.543</ele>
        <time>2020-08-30T10:30:47Z</time>
      </trkpt>
      <trkpt lat="39.864278" lon="-.512543">
        <ele>482.743</ele>
        <time>2020-08-30T10:30:49Z</time>
      </trkpt>
      <trkpt lat="39.864199" lon="-.512548">
        <ele>483.147</ele>
        <time>2020-08-30T10:30:51Z</time>
      </trkpt>
      <trkpt lat="39.864119" lon="-.512559">
        <ele>483.429</ele>
        <time>2020-08-30T10:30:53Z</time>
      </trkpt>
      <trkpt lat="39.864041" lon="-.512553">
        <ele>483.621</ele>
        <time>2020-08-30T10:30:55Z</time>
      </trkpt>
      <trkpt lat="39.863969" lon="-.512558">
        <ele>483.808</ele>
        <time>2020-08-30T10:30:57Z</time>
      </trkpt>
      <trkpt lat="39.863889" lon="-.512555">
        <ele>484.089</ele>
        <time>2020-08-30T10:30:59Z</time>
      </trkpt>
      <trkpt lat="39.863816" lon="-.512555">
        <ele>484.289</ele>
        <time>2020-08-30T10:31:01Z</time>
      </trkpt>
      <trkpt lat="39.863736" lon="-.512556">
        <ele>484.451</ele>
        <time>2020-08-30T10:31:03Z</time>
      </trkpt>
      <trkpt lat="39.86366" lon="-.512556">
        <ele>484.743</ele>
        <time>2020-08-30T10:31:05Z</time>
      </trkpt>
      <trkpt lat="39.863584" lon="-.512552">
        <ele>484.981</ele>
        <time>2020-08-30T10:31:07Z</time>
      </trkpt>
      <trkpt lat="39.863503" lon="-.512552">
        <ele>485.268</ele>
        <time>2020-08-30T10:31:09Z</time>
      </trkpt>
      <trkpt lat="39.863427" lon="-.512545">
        <ele>485.586</ele>
        <time>2020-08-30T10:31:11Z</time>
      </trkpt>
      <trkpt lat="39.863352" lon="-.512538">
        <ele>485.846</ele>
        <time>2020-08-30T10:31:13Z</time>
      </trkpt>
      <trkpt lat="39.863267" lon="-.512528">
        <ele>485.985</ele>
        <time>2020-08-30T10:31:15Z</time>
      </trkpt>
      <trkpt lat="39.863185" lon="-.512528">
        <ele>485.989</ele>
        <time>2020-08-30T10:31:17Z</time>
      </trkpt>
      <trkpt lat="39.863139" lon="-.512529">
        <ele>485.917</ele>
        <time>2020-08-30T10:31:18Z</time>
      </trkpt>
      <trkpt lat="39.863093" lon="-.512521">
        <ele>485.908</ele>
        <time>2020-08-30T10:31:19Z</time>
      </trkpt>
      <trkpt lat="39.863048" lon="-.512511">
        <ele>485.923</ele>
        <time>2020-08-30T10:31:20Z</time>
      </trkpt>
      <trkpt lat="39.862996" lon="-.5125">
        <ele>485.983</ele>
        <time>2020-08-30T10:31:21Z</time>
      </trkpt>
      <trkpt lat="39.862944" lon="-.512493">
        <ele>485.825</ele>
        <time>2020-08-30T10:31:22Z</time>
      </trkpt>
      <trkpt lat="39.862893" lon="-.512479">
        <ele>485.717</ele>
        <time>2020-08-30T10:31:23Z</time>
      </trkpt>
      <trkpt lat="39.862842" lon="-.512476">
        <ele>485.615</ele>
        <time>2020-08-30T10:31:24Z</time>
      </trkpt>
      <trkpt lat="39.862794" lon="-.512467">
        <ele>485.572</ele>
        <time>2020-08-30T10:31:25Z</time>
      </trkpt>
      <trkpt lat="39.862747" lon="-.512455">
        <ele>485.430</ele>
        <time>2020-08-30T10:31:26Z</time>
      </trkpt>
      <trkpt lat="39.862696" lon="-.512441">
        <ele>485.270</ele>
        <time>2020-08-30T10:31:27Z</time>
      </trkpt>
      <trkpt lat="39.86265" lon="-.51243">
        <ele>485.059</ele>
        <time>2020-08-30T10:31:28Z</time>
      </trkpt>
      <trkpt lat="39.862566" lon="-.512406">
        <ele>484.703</ele>
        <time>2020-08-30T10:31:30Z</time>
      </trkpt>
      <trkpt lat="39.862522" lon="-.51239">
        <ele>484.623</ele>
        <time>2020-08-30T10:31:31Z</time>
      </trkpt>
      <trkpt lat="39.862438" lon="-.512358">
        <ele>484.408</ele>
        <time>2020-08-30T10:31:33Z</time>
      </trkpt>
      <trkpt lat="39.86239" lon="-.512344">
        <ele>484.340</ele>
        <time>2020-08-30T10:31:34Z</time>
      </trkpt>
      <trkpt lat="39.862342" lon="-.512333">
        <ele>484.110</ele>
        <time>2020-08-30T10:31:35Z</time>
      </trkpt>
      <trkpt lat="39.862287" lon="-.512334">
        <ele>484.062</ele>
        <time>2020-08-30T10:31:36Z</time>
      </trkpt>
      <trkpt lat="39.862237" lon="-.512336">
        <ele>483.854</ele>
        <time>2020-08-30T10:31:37Z</time>
      </trkpt>
      <trkpt lat="39.862168" lon="-.512334">
        <ele>483.492</ele>
        <time>2020-08-30T10:31:39Z</time>
      </trkpt>
      <trkpt lat="39.862122" lon="-.512328">
        <ele>483.199</ele>
        <time>2020-08-30T10:31:40Z</time>
      </trkpt>
      <trkpt lat="39.862076" lon="-.512322">
        <ele>483.017</ele>
        <time>2020-08-30T10:31:41Z</time>
      </trkpt>
      <trkpt lat="39.86199" lon="-.512307">
        <ele>482.817</ele>
        <time>2020-08-30T10:31:43Z</time>
      </trkpt>
      <trkpt lat="39.861946" lon="-.512294">
        <ele>482.793</ele>
        <time>2020-08-30T10:31:44Z</time>
      </trkpt>
      <trkpt lat="39.8619" lon="-.512281">
        <ele>482.765</ele>
        <time>2020-08-30T10:31:45Z</time>
      </trkpt>
      <trkpt lat="39.861807" lon="-.512261">
        <ele>482.621</ele>
        <time>2020-08-30T10:31:48Z</time>
      </trkpt>
      <trkpt lat="39.861763" lon="-.512242">
        <ele>482.608</ele>
        <time>2020-08-30T10:31:49Z</time>
      </trkpt>
      <trkpt lat="39.861718" lon="-.512227">
        <ele>482.644</ele>
        <time>2020-08-30T10:31:50Z</time>
      </trkpt>
      <trkpt lat="39.861674" lon="-.512215">
        <ele>482.694</ele>
        <time>2020-08-30T10:31:51Z</time>
      </trkpt>
      <trkpt lat="39.861629" lon="-.512205">
        <ele>482.666</ele>
        <time>2020-08-30T10:31:52Z</time>
      </trkpt>
      <trkpt lat="39.861585" lon="-.512191">
        <ele>482.688</ele>
        <time>2020-08-30T10:31:53Z</time>
      </trkpt>
      <trkpt lat="39.861496" lon="-.512167">
        <ele>482.536</ele>
        <time>2020-08-30T10:31:55Z</time>
      </trkpt>
      <trkpt lat="39.861447" lon="-.512197">
        <ele>482.423</ele>
        <time>2020-08-30T10:31:58Z</time>
      </trkpt>
      <trkpt lat="39.861466" lon="-.512416">
        <ele>482.541</ele>
        <time>2020-08-30T10:31:58Z</time>
      </trkpt>
      <trkpt lat="39.861282" lon="-.512885">
        <ele>482.681</ele>
        <time>2020-08-30T10:31:59Z</time>
      </trkpt>
      <trkpt lat="39.861245" lon="-.513016">
        <ele>482.795</ele>
        <time>2020-08-30T10:32:00Z</time>
      </trkpt>
      <trkpt lat="39.861196" lon="-.513056">
        <ele>482.849</ele>
        <time>2020-08-30T10:32:01Z</time>
      </trkpt>
      <trkpt lat="39.861155" lon="-.513087">
        <ele>482.823</ele>
        <time>2020-08-30T10:32:02Z</time>
      </trkpt>
      <trkpt lat="39.861126" lon="-.513136">
        <ele>482.708</ele>
        <time>2020-08-30T10:32:03Z</time>
      </trkpt>
      <trkpt lat="39.861096" lon="-.51318">
        <ele>482.694</ele>
        <time>2020-08-30T10:32:04Z</time>
      </trkpt>
      <trkpt lat="39.861031" lon="-.513242">
        <ele>482.524</ele>
        <time>2020-08-30T10:32:07Z</time>
      </trkpt>
      <trkpt lat="39.860995" lon="-.513297">
        <ele>482.716</ele>
        <time>2020-08-30T10:32:09Z</time>
      </trkpt>
      <trkpt lat="39.860958" lon="-.513354">
        <ele>482.688</ele>
        <time>2020-08-30T10:32:11Z</time>
      </trkpt>
      <trkpt lat="39.860905" lon="-.513426">
        <ele>482.256</ele>
        <time>2020-08-30T10:32:13Z</time>
      </trkpt>
      <trkpt lat="39.860837" lon="-.513493">
        <ele>481.613</ele>
        <time>2020-08-30T10:32:15Z</time>
      </trkpt>
      <trkpt lat="39.860778" lon="-.513562">
        <ele>481.321</ele>
        <time>2020-08-30T10:32:17Z</time>
      </trkpt>
      <trkpt lat="39.860719" lon="-.513625">
        <ele>481.241</ele>
        <time>2020-08-30T10:32:19Z</time>
      </trkpt>
      <trkpt lat="39.860688" lon="-.51367">
        <ele>481.115</ele>
        <time>2020-08-30T10:32:21Z</time>
      </trkpt>
      <trkpt lat="39.860748" lon="-.51366">
        <ele>480.765</ele>
        <time>2020-08-30T10:33:04Z</time>
      </trkpt>
      <trkpt lat="39.860776" lon="-.513579">
        <ele>480.911</ele>
        <time>2020-08-30T10:33:07Z</time>
      </trkpt>
      <trkpt lat="39.860822" lon="-.513528">
        <ele>481.008</ele>
        <time>2020-08-30T10:33:10Z</time>
      </trkpt>
      <trkpt lat="39.860867" lon="-.513579">
        <ele>481.066</ele>
        <time>2020-08-30T10:33:13Z</time>
      </trkpt>
      <trkpt lat="39.860844" lon="-.51366">
        <ele>481.476</ele>
        <time>2020-08-30T10:33:16Z</time>
      </trkpt>
      <trkpt lat="39.860814" lon="-.513723">
        <ele>481.558</ele>
        <time>2020-08-30T10:33:18Z</time>
      </trkpt>
      <trkpt lat="39.860787" lon="-.513778">
        <ele>481.530</ele>
        <time>2020-08-30T10:33:20Z</time>
      </trkpt>
      <trkpt lat="39.860766" lon="-.513844">
        <ele>481.618</ele>
        <time>2020-08-30T10:33:22Z</time>
      </trkpt>
      <trkpt lat="39.860736" lon="-.513911">
        <ele>481.875</ele>
        <time>2020-08-30T10:33:24Z</time>
      </trkpt>
      <trkpt lat="39.860706" lon="-.513981">
        <ele>481.993</ele>
        <time>2020-08-30T10:33:26Z</time>
      </trkpt>
      <trkpt lat="39.860675" lon="-.514062">
        <ele>481.973</ele>
        <time>2020-08-30T10:33:28Z</time>
      </trkpt>
      <trkpt lat="39.86064" lon="-.514157">
        <ele>481.941</ele>
        <time>2020-08-30T10:33:30Z</time>
      </trkpt>
      <trkpt lat="39.860593" lon="-.514253">
        <ele>482.081</ele>
        <time>2020-08-30T10:33:32Z</time>
      </trkpt>
      <trkpt lat="39.860581" lon="-.514316">
        <ele>482.209</ele>
        <time>2020-08-30T10:33:35Z</time>
      </trkpt>
      <trkpt lat="39.860561" lon="-.514369">
        <ele>482.408</ele>
        <time>2020-08-30T10:33:37Z</time>
      </trkpt>
      <trkpt lat="39.860538" lon="-.514445">
        <ele>482.749</ele>
        <time>2020-08-30T10:33:39Z</time>
      </trkpt>
      <trkpt lat="39.860515" lon="-.514506">
        <ele>483.049</ele>
        <time>2020-08-30T10:33:41Z</time>
      </trkpt>
      <trkpt lat="39.860479" lon="-.514577">
        <ele>483.061</ele>
        <time>2020-08-30T10:33:43Z</time>
      </trkpt>
      <trkpt lat="39.860449" lon="-.514647">
        <ele>482.483</ele>
        <time>2020-08-30T10:33:45Z</time>
      </trkpt>
      <trkpt lat="39.860416" lon="-.514716">
        <ele>481.541</ele>
        <time>2020-08-30T10:33:47Z</time>
      </trkpt>
      <trkpt lat="39.860354" lon="-.514806">
        <ele>481.088</ele>
        <time>2020-08-30T10:33:49Z</time>
      </trkpt>
      <trkpt lat="39.860303" lon="-.514877">
        <ele>480.896</ele>
        <time>2020-08-30T10:33:50Z</time>
      </trkpt>
      <trkpt lat="39.860248" lon="-.514942">
        <ele>480.776</ele>
        <time>2020-08-30T10:33:51Z</time>
      </trkpt>
      <trkpt lat="39.860207" lon="-.515004">
        <ele>480.775</ele>
        <time>2020-08-30T10:33:52Z</time>
      </trkpt>
      <trkpt lat="39.860172" lon="-.515064">
        <ele>480.928</ele>
        <time>2020-08-30T10:33:53Z</time>
      </trkpt>
      <trkpt lat="39.860138" lon="-.515113">
        <ele>481.120</ele>
        <time>2020-08-30T10:33:54Z</time>
      </trkpt>
      <trkpt lat="39.860105" lon="-.515157">
        <ele>481.108</ele>
        <time>2020-08-30T10:33:55Z</time>
      </trkpt>
      <trkpt lat="39.860048" lon="-.51524">
        <ele>480.972</ele>
        <time>2020-08-30T10:33:57Z</time>
      </trkpt>
      <trkpt lat="39.860013" lon="-.515285">
        <ele>480.782</ele>
        <time>2020-08-30T10:33:58Z</time>
      </trkpt>
      <trkpt lat="39.859975" lon="-.51534">
        <ele>480.674</ele>
        <time>2020-08-30T10:33:59Z</time>
      </trkpt>
      <trkpt lat="39.859932" lon="-.515399">
        <ele>480.546</ele>
        <time>2020-08-30T10:34:00Z</time>
      </trkpt>
      <trkpt lat="39.8599" lon="-.515456">
        <ele>480.454</ele>
        <time>2020-08-30T10:34:01Z</time>
      </trkpt>
      <trkpt lat="39.859857" lon="-.51551">
        <ele>480.341</ele>
        <time>2020-08-30T10:34:02Z</time>
      </trkpt>
      <trkpt lat="39.859813" lon="-.515555">
        <ele>480.269</ele>
        <time>2020-08-30T10:34:03Z</time>
      </trkpt>
      <trkpt lat="39.859775" lon="-.515605">
        <ele>480.189</ele>
        <time>2020-08-30T10:34:04Z</time>
      </trkpt>
      <trkpt lat="39.859739" lon="-.515655">
        <ele>480.069</ele>
        <time>2020-08-30T10:34:05Z</time>
      </trkpt>
      <trkpt lat="39.859696" lon="-.515699">
        <ele>480.004</ele>
        <time>2020-08-30T10:34:06Z</time>
      </trkpt>
      <trkpt lat="39.859648" lon="-.515738">
        <ele>480.024</ele>
        <time>2020-08-30T10:34:07Z</time>
      </trkpt>
      <trkpt lat="39.859606" lon="-.515779">
        <ele>480.008</ele>
        <time>2020-08-30T10:34:08Z</time>
      </trkpt>
      <trkpt lat="39.859561" lon="-.515821">
        <ele>480.171</ele>
        <time>2020-08-30T10:34:09Z</time>
      </trkpt>
      <trkpt lat="39.85947" lon="-.515891">
        <ele>480.341</ele>
        <time>2020-08-30T10:34:11Z</time>
      </trkpt>
      <trkpt lat="39.859421" lon="-.515926">
        <ele>480.393</ele>
        <time>2020-08-30T10:34:12Z</time>
      </trkpt>
      <trkpt lat="39.859372" lon="-.515956">
        <ele>480.115</ele>
        <time>2020-08-30T10:34:13Z</time>
      </trkpt>
      <trkpt lat="39.859319" lon="-.51599">
        <ele>479.983</ele>
        <time>2020-08-30T10:34:14Z</time>
      </trkpt>
      <trkpt lat="39.859263" lon="-.516023">
        <ele>479.790</ele>
        <time>2020-08-30T10:34:15Z</time>
      </trkpt>
      <trkpt lat="39.859206" lon="-.51605">
        <ele>479.528</ele>
        <time>2020-08-30T10:34:16Z</time>
      </trkpt>
      <trkpt lat="39.85916" lon="-.516079">
        <ele>479.388</ele>
        <time>2020-08-30T10:34:17Z</time>
      </trkpt>
      <trkpt lat="39.85908" lon="-.516112">
        <ele>478.946</ele>
        <time>2020-08-30T10:34:19Z</time>
      </trkpt>
      <trkpt lat="39.859035" lon="-.516143">
        <ele>478.888</ele>
        <time>2020-08-30T10:34:20Z</time>
      </trkpt>
      <trkpt lat="39.858995" lon="-.516173">
        <ele>478.716</ele>
        <time>2020-08-30T10:34:21Z</time>
      </trkpt>
      <trkpt lat="39.858948" lon="-.516194">
        <ele>478.608</ele>
        <time>2020-08-30T10:34:22Z</time>
      </trkpt>
      <trkpt lat="39.858897" lon="-.516224">
        <ele>478.669</ele>
        <time>2020-08-30T10:34:23Z</time>
      </trkpt>
      <trkpt lat="39.858841" lon="-.516241">
        <ele>478.669</ele>
        <time>2020-08-30T10:34:24Z</time>
      </trkpt>
      <trkpt lat="39.858784" lon="-.516247">
        <ele>478.671</ele>
        <time>2020-08-30T10:34:25Z</time>
      </trkpt>
      <trkpt lat="39.858734" lon="-.516265">
        <ele>478.683</ele>
        <time>2020-08-30T10:34:26Z</time>
      </trkpt>
      <trkpt lat="39.858681" lon="-.516276">
        <ele>478.651</ele>
        <time>2020-08-30T10:34:27Z</time>
      </trkpt>
      <trkpt lat="39.858622" lon="-.516288">
        <ele>478.668</ele>
        <time>2020-08-30T10:34:28Z</time>
      </trkpt>
      <trkpt lat="39.85856" lon="-.516302">
        <ele>478.656</ele>
        <time>2020-08-30T10:34:29Z</time>
      </trkpt>
      <trkpt lat="39.858501" lon="-.516315">
        <ele>478.696</ele>
        <time>2020-08-30T10:34:30Z</time>
      </trkpt>
      <trkpt lat="39.858447" lon="-.516328">
        <ele>478.683</ele>
        <time>2020-08-30T10:34:31Z</time>
      </trkpt>
      <trkpt lat="39.858392" lon="-.516342">
        <ele>478.525</ele>
        <time>2020-08-30T10:34:32Z</time>
      </trkpt>
      <trkpt lat="39.85834" lon="-.516349">
        <ele>478.517</ele>
        <time>2020-08-30T10:34:33Z</time>
      </trkpt>
      <trkpt lat="39.858276" lon="-.51636">
        <ele>478.408</ele>
        <time>2020-08-30T10:34:34Z</time>
      </trkpt>
      <trkpt lat="39.85821" lon="-.516366">
        <ele>478.253</ele>
        <time>2020-08-30T10:34:35Z</time>
      </trkpt>
      <trkpt lat="39.858151" lon="-.516377">
        <ele>478.143</ele>
        <time>2020-08-30T10:34:36Z</time>
      </trkpt>
      <trkpt lat="39.858095" lon="-.516382">
        <ele>477.915</ele>
        <time>2020-08-30T10:34:37Z</time>
      </trkpt>
      <trkpt lat="39.85804" lon="-.516388">
        <ele>477.767</ele>
        <time>2020-08-30T10:34:38Z</time>
      </trkpt>
      <trkpt lat="39.857988" lon="-.516379">
        <ele>477.695</ele>
        <time>2020-08-30T10:34:39Z</time>
      </trkpt>
      <trkpt lat="39.857942" lon="-.516406">
        <ele>477.572</ele>
        <time>2020-08-30T10:34:40Z</time>
      </trkpt>
      <trkpt lat="39.857881" lon="-.516425">
        <ele>477.420</ele>
        <time>2020-08-30T10:34:41Z</time>
      </trkpt>
      <trkpt lat="39.85783" lon="-.516435">
        <ele>477.320</ele>
        <time>2020-08-30T10:34:42Z</time>
      </trkpt>
      <trkpt lat="39.85778" lon="-.51645">
        <ele>477.211</ele>
        <time>2020-08-30T10:34:43Z</time>
      </trkpt>
      <trkpt lat="39.857698" lon="-.516463">
        <ele>477.121</ele>
        <time>2020-08-30T10:34:45Z</time>
      </trkpt>
      <trkpt lat="39.857633" lon="-.516497">
        <ele>477.103</ele>
        <time>2020-08-30T10:34:46Z</time>
      </trkpt>
      <trkpt lat="39.85757" lon="-.516507">
        <ele>477.108</ele>
        <time>2020-08-30T10:34:47Z</time>
      </trkpt>
      <trkpt lat="39.857506" lon="-.516519">
        <ele>477.176</ele>
        <time>2020-08-30T10:34:48Z</time>
      </trkpt>
      <trkpt lat="39.857446" lon="-.516531">
        <ele>477.076</ele>
        <time>2020-08-30T10:34:49Z</time>
      </trkpt>
      <trkpt lat="39.85739" lon="-.516546">
        <ele>476.948</ele>
        <time>2020-08-30T10:34:50Z</time>
      </trkpt>
      <trkpt lat="39.857332" lon="-.516555">
        <ele>476.820</ele>
        <time>2020-08-30T10:34:51Z</time>
      </trkpt>
      <trkpt lat="39.857276" lon="-.51656">
        <ele>476.718</ele>
        <time>2020-08-30T10:34:52Z</time>
      </trkpt>
      <trkpt lat="39.857218" lon="-.516561">
        <ele>476.825</ele>
        <time>2020-08-30T10:34:53Z</time>
      </trkpt>
      <trkpt lat="39.857156" lon="-.516571">
        <ele>476.843</ele>
        <time>2020-08-30T10:34:54Z</time>
      </trkpt>
      <trkpt lat="39.857095" lon="-.516588">
        <ele>476.773</ele>
        <time>2020-08-30T10:34:55Z</time>
      </trkpt>
      <trkpt lat="39.857033" lon="-.516597">
        <ele>476.541</ele>
        <time>2020-08-30T10:34:56Z</time>
      </trkpt>
      <trkpt lat="39.856965" lon="-.51661">
        <ele>476.381</ele>
        <time>2020-08-30T10:34:57Z</time>
      </trkpt>
      <trkpt lat="39.856901" lon="-.516615">
        <ele>475.909</ele>
        <time>2020-08-30T10:34:58Z</time>
      </trkpt>
      <trkpt lat="39.856841" lon="-.516628">
        <ele>475.708</ele>
        <time>2020-08-30T10:34:59Z</time>
      </trkpt>
      <trkpt lat="39.856772" lon="-.516646">
        <ele>475.539</ele>
        <time>2020-08-30T10:35:00Z</time>
      </trkpt>
      <trkpt lat="39.856712" lon="-.516662">
        <ele>475.559</ele>
        <time>2020-08-30T10:35:01Z</time>
      </trkpt>
      <trkpt lat="39.856652" lon="-.516673">
        <ele>475.551</ele>
        <time>2020-08-30T10:35:02Z</time>
      </trkpt>
      <trkpt lat="39.85659" lon="-.516686">
        <ele>475.563</ele>
        <time>2020-08-30T10:35:03Z</time>
      </trkpt>
      <trkpt lat="39.856529" lon="-.516691">
        <ele>475.541</ele>
        <time>2020-08-30T10:35:04Z</time>
      </trkpt>
      <trkpt lat="39.856471" lon="-.516699">
        <ele>475.518</ele>
        <time>2020-08-30T10:35:05Z</time>
      </trkpt>
      <trkpt lat="39.856416" lon="-.516716">
        <ele>475.326</ele>
        <time>2020-08-30T10:35:06Z</time>
      </trkpt>
      <trkpt lat="39.856353" lon="-.516722">
        <ele>475.266</ele>
        <time>2020-08-30T10:35:07Z</time>
      </trkpt>
      <trkpt lat="39.856293" lon="-.516733">
        <ele>475.013</ele>
        <time>2020-08-30T10:35:08Z</time>
      </trkpt>
      <trkpt lat="39.856236" lon="-.516744">
        <ele>474.743</ele>
        <time>2020-08-30T10:35:09Z</time>
      </trkpt>
      <trkpt lat="39.856171" lon="-.516761">
        <ele>474.507</ele>
        <time>2020-08-30T10:35:10Z</time>
      </trkpt>
      <trkpt lat="39.856108" lon="-.516779">
        <ele>474.408</ele>
        <time>2020-08-30T10:35:11Z</time>
      </trkpt>
      <trkpt lat="39.856046" lon="-.516792">
        <ele>474.166</ele>
        <time>2020-08-30T10:35:12Z</time>
      </trkpt>
      <trkpt lat="39.855982" lon="-.516806">
        <ele>474.026</ele>
        <time>2020-08-30T10:35:13Z</time>
      </trkpt>
      <trkpt lat="39.855917" lon="-.51682">
        <ele>473.968</ele>
        <time>2020-08-30T10:35:14Z</time>
      </trkpt>
      <trkpt lat="39.855852" lon="-.51683">
        <ele>473.840</ele>
        <time>2020-08-30T10:35:15Z</time>
      </trkpt>
      <trkpt lat="39.855781" lon="-.51684">
        <ele>473.838</ele>
        <time>2020-08-30T10:35:16Z</time>
      </trkpt>
      <trkpt lat="39.855716" lon="-.516855">
        <ele>473.895</ele>
        <time>2020-08-30T10:35:17Z</time>
      </trkpt>
      <trkpt lat="39.855647" lon="-.516866">
        <ele>473.823</ele>
        <time>2020-08-30T10:35:18Z</time>
      </trkpt>
      <trkpt lat="39.855575" lon="-.516874">
        <ele>473.843</ele>
        <time>2020-08-30T10:35:19Z</time>
      </trkpt>
      <trkpt lat="39.85551" lon="-.516884">
        <ele>473.852</ele>
        <time>2020-08-30T10:35:20Z</time>
      </trkpt>
      <trkpt lat="39.855439" lon="-.516902">
        <ele>473.853</ele>
        <time>2020-08-30T10:35:21Z</time>
      </trkpt>
      <trkpt lat="39.85537" lon="-.51691">
        <ele>473.808</ele>
        <time>2020-08-30T10:35:22Z</time>
      </trkpt>
      <trkpt lat="39.855299" lon="-.516919">
        <ele>473.808</ele>
        <time>2020-08-30T10:35:23Z</time>
      </trkpt>
      <trkpt lat="39.855235" lon="-.516928">
        <ele>473.710</ele>
        <time>2020-08-30T10:35:24Z</time>
      </trkpt>
      <trkpt lat="39.855171" lon="-.516939">
        <ele>473.680</ele>
        <time>2020-08-30T10:35:25Z</time>
      </trkpt>
      <trkpt lat="39.855105" lon="-.516959">
        <ele>473.422</ele>
        <time>2020-08-30T10:35:26Z</time>
      </trkpt>
      <trkpt lat="39.855036" lon="-.51697">
        <ele>473.214</ele>
        <time>2020-08-30T10:35:27Z</time>
      </trkpt>
      <trkpt lat="39.854969" lon="-.516983">
        <ele>472.962</ele>
        <time>2020-08-30T10:35:28Z</time>
      </trkpt>
      <trkpt lat="39.854902" lon="-.516996">
        <ele>472.759</ele>
        <time>2020-08-30T10:35:29Z</time>
      </trkpt>
      <trkpt lat="39.854837" lon="-.517006">
        <ele>472.657</ele>
        <time>2020-08-30T10:35:30Z</time>
      </trkpt>
      <trkpt lat="39.854774" lon="-.517017">
        <ele>472.417</ele>
        <time>2020-08-30T10:35:31Z</time>
      </trkpt>
      <trkpt lat="39.854714" lon="-.51703">
        <ele>472.456</ele>
        <time>2020-08-30T10:35:32Z</time>
      </trkpt>
      <trkpt lat="39.854655" lon="-.517037">
        <ele>472.359</ele>
        <time>2020-08-30T10:35:33Z</time>
      </trkpt>
      <trkpt lat="39.854594" lon="-.517033">
        <ele>472.214</ele>
        <time>2020-08-30T10:35:34Z</time>
      </trkpt>
      <trkpt lat="39.854534" lon="-.517021">
        <ele>472.208</ele>
        <time>2020-08-30T10:35:35Z</time>
      </trkpt>
      <trkpt lat="39.854479" lon="-.517001">
        <ele>472.220</ele>
        <time>2020-08-30T10:35:36Z</time>
      </trkpt>
      <trkpt lat="39.85443" lon="-.516974">
        <ele>472.290</ele>
        <time>2020-08-30T10:35:37Z</time>
      </trkpt>
      <trkpt lat="39.854383" lon="-.516935">
        <ele>472.282</ele>
        <time>2020-08-30T10:35:38Z</time>
      </trkpt>
      <trkpt lat="39.854342" lon="-.516895">
        <ele>472.274</ele>
        <time>2020-08-30T10:35:39Z</time>
      </trkpt>
      <trkpt lat="39.854314" lon="-.516841">
        <ele>472.132</ele>
        <time>2020-08-30T10:35:40Z</time>
      </trkpt>
      <trkpt lat="39.854294" lon="-.516762">
        <ele>472.189</ele>
        <time>2020-08-30T10:35:41Z</time>
      </trkpt>
      <trkpt lat="39.854284" lon="-.516697">
        <ele>472.147</ele>
        <time>2020-08-30T10:35:42Z</time>
      </trkpt>
      <trkpt lat="39.854252" lon="-.5166">
        <ele>472.037</ele>
        <time>2020-08-30T10:35:44Z</time>
      </trkpt>
      <trkpt lat="39.854212" lon="-.516522">
        <ele>472.096</ele>
        <time>2020-08-30T10:35:46Z</time>
      </trkpt>
      <trkpt lat="39.854193" lon="-.516434">
        <ele>472.031</ele>
        <time>2020-08-30T10:35:48Z</time>
      </trkpt>
      <trkpt lat="39.854163" lon="-.516331">
        <ele>472.124</ele>
        <time>2020-08-30T10:35:50Z</time>
      </trkpt>
      <trkpt lat="39.854121" lon="-.51623">
        <ele>472.108</ele>
        <time>2020-08-30T10:35:52Z</time>
      </trkpt>
      <trkpt lat="39.854086" lon="-.516119">
        <ele>472.114</ele>
        <time>2020-08-30T10:35:54Z</time>
      </trkpt>
      <trkpt lat="39.854064" lon="-.516067">
        <ele>472.024</ele>
        <time>2020-08-30T10:35:55Z</time>
      </trkpt>
      <trkpt lat="39.854036" lon="-.515968">
        <ele>471.986</ele>
        <time>2020-08-30T10:35:57Z</time>
      </trkpt>
      <trkpt lat="39.854008" lon="-.515921">
        <ele>471.878</ele>
        <time>2020-08-30T10:35:58Z</time>
      </trkpt>
      <trkpt lat="39.853984" lon="-.515864">
        <ele>471.666</ele>
        <time>2020-08-30T10:35:59Z</time>
      </trkpt>
      <trkpt lat="39.853966" lon="-.51581">
        <ele>471.433</ele>
        <time>2020-08-30T10:36:00Z</time>
      </trkpt>
      <trkpt lat="39.853932" lon="-.515713">
        <ele>471.061</ele>
        <time>2020-08-30T10:36:02Z</time>
      </trkpt>
      <trkpt lat="39.853934" lon="-.515652">
        <ele>470.521</ele>
        <time>2020-08-30T10:36:04Z</time>
      </trkpt>
      <trkpt lat="39.853914" lon="-.515584">
        <ele>469.784</ele>
        <time>2020-08-30T10:36:08Z</time>
      </trkpt>
      <trkpt lat="39.85387" lon="-.51556">
        <ele>469.607</ele>
        <time>2020-08-30T10:36:27Z</time>
      </trkpt>
      <trkpt lat="39.853825" lon="-.515582">
        <ele>469.117</ele>
        <time>2020-08-30T10:36:31Z</time>
      </trkpt>
      <trkpt lat="39.853772" lon="-.515612">
        <ele>469.108</ele>
        <time>2020-08-30T10:36:34Z</time>
      </trkpt>
      <trkpt lat="39.853749" lon="-.515672">
        <ele>469.243</ele>
        <time>2020-08-30T10:36:37Z</time>
      </trkpt>
      <trkpt lat="39.853696" lon="-.515696">
        <ele>469.463</ele>
        <time>2020-08-30T10:36:42Z</time>
      </trkpt>
      <trkpt lat="39.853706" lon="-.515766">
        <ele>469.465</ele>
        <time>2020-08-30T10:36:48Z</time>
      </trkpt>
      <trkpt lat="39.853729" lon="-.515827">
        <ele>469.727</ele>
        <time>2020-08-30T10:36:51Z</time>
      </trkpt>
      <trkpt lat="39.853761" lon="-.515891">
        <ele>470.015</ele>
        <time>2020-08-30T10:36:54Z</time>
      </trkpt>
      <trkpt lat="39.853775" lon="-.51595">
        <ele>470.222</ele>
        <time>2020-08-30T10:36:56Z</time>
      </trkpt>
      <trkpt lat="39.853799" lon="-.516026">
        <ele>470.610</ele>
        <time>2020-08-30T10:36:59Z</time>
      </trkpt>
      <trkpt lat="39.853831" lon="-.516097">
        <ele>471.390</ele>
        <time>2020-08-30T10:37:02Z</time>
      </trkpt>
      <trkpt lat="39.853876" lon="-.51616">
        <ele>471.736</ele>
        <time>2020-08-30T10:37:05Z</time>
      </trkpt>
      <trkpt lat="39.853914" lon="-.516232">
        <ele>471.817</ele>
        <time>2020-08-30T10:37:07Z</time>
      </trkpt>
      <trkpt lat="39.853929" lon="-.516295">
        <ele>472.118</ele>
        <time>2020-08-30T10:37:09Z</time>
      </trkpt>
      <trkpt lat="39.853937" lon="-.516372">
        <ele>472.308</ele>
        <time>2020-08-30T10:37:14Z</time>
      </trkpt>
      <trkpt lat="39.853936" lon="-.51644">
        <ele>472.238</ele>
        <time>2020-08-30T10:37:17Z</time>
      </trkpt>
      <trkpt lat="39.853947" lon="-.516518">
        <ele>472.468</ele>
        <time>2020-08-30T10:37:20Z</time>
      </trkpt>
      <trkpt lat="39.853933" lon="-.516585">
        <ele>472.980</ele>
        <time>2020-08-30T10:37:23Z</time>
      </trkpt>
      <trkpt lat="39.853899" lon="-.516635">
        <ele>473.182</ele>
        <time>2020-08-30T10:37:25Z</time>
      </trkpt>
      <trkpt lat="39.853846" lon="-.516691">
        <ele>473.350</ele>
        <time>2020-08-30T10:37:28Z</time>
      </trkpt>
      <trkpt lat="39.853807" lon="-.51672">
        <ele>473.397</ele>
        <time>2020-08-30T10:37:30Z</time>
      </trkpt>
      <trkpt lat="39.853749" lon="-.51676">
        <ele>473.125</ele>
        <time>2020-08-30T10:37:33Z</time>
      </trkpt>
      <trkpt lat="39.853703" lon="-.516786">
        <ele>472.915</ele>
        <time>2020-08-30T10:37:36Z</time>
      </trkpt>
      <trkpt lat="39.853647" lon="-.516816">
        <ele>472.789</ele>
        <time>2020-08-30T10:37:38Z</time>
      </trkpt>
      <trkpt lat="39.853524" lon="-.516833">
        <ele>472.506</ele>
        <time>2020-08-30T10:37:40Z</time>
      </trkpt>
      <trkpt lat="39.853444" lon="-.516843">
        <ele>472.426</ele>
        <time>2020-08-30T10:37:41Z</time>
      </trkpt>
      <trkpt lat="39.85338" lon="-.516852">
        <ele>472.408</ele>
        <time>2020-08-30T10:37:42Z</time>
      </trkpt>
      <trkpt lat="39.853298" lon="-.516863">
        <ele>472.223</ele>
        <time>2020-08-30T10:37:44Z</time>
      </trkpt>
      <trkpt lat="39.853213" lon="-.516874">
        <ele>471.633</ele>
        <time>2020-08-30T10:37:46Z</time>
      </trkpt>
      <trkpt lat="39.853165" lon="-.516881">
        <ele>471.575</ele>
        <time>2020-08-30T10:37:47Z</time>
      </trkpt>
      <trkpt lat="39.85312" lon="-.516891">
        <ele>471.047</ele>
        <time>2020-08-30T10:37:48Z</time>
      </trkpt>
      <trkpt lat="39.853031" lon="-.516908">
        <ele>470.775</ele>
        <time>2020-08-30T10:37:50Z</time>
      </trkpt>
      <trkpt lat="39.852947" lon="-.51692">
        <ele>471.092</ele>
        <time>2020-08-30T10:37:52Z</time>
      </trkpt>
      <trkpt lat="39.85287" lon="-.516948">
        <ele>471.020</ele>
        <time>2020-08-30T10:37:54Z</time>
      </trkpt>
      <trkpt lat="39.852817" lon="-.517008">
        <ele>471.110</ele>
        <time>2020-08-30T10:37:56Z</time>
      </trkpt>
      <trkpt lat="39.85279" lon="-.517085">
        <ele>471.332</ele>
        <time>2020-08-30T10:37:58Z</time>
      </trkpt>
      <trkpt lat="39.852776" lon="-.517154">
        <ele>471.292</ele>
        <time>2020-08-30T10:38:00Z</time>
      </trkpt>
      <trkpt lat="39.852773" lon="-.517214">
        <ele>471.411</ele>
        <time>2020-08-30T10:38:02Z</time>
      </trkpt>
      <trkpt lat="39.852763" lon="-.517298">
        <ele>473.208</ele>
        <time>2020-08-30T10:38:05Z</time>
      </trkpt>
      <trkpt lat="39.852773" lon="-.517359">
        <ele>473.778</ele>
        <time>2020-08-30T10:38:07Z</time>
      </trkpt>
      <trkpt lat="39.852782" lon="-.517423">
        <ele>473.968</ele>
        <time>2020-08-30T10:38:09Z</time>
      </trkpt>
      <trkpt lat="39.852704" lon="-.517504">
        <ele>472.720</ele>
        <time>2020-08-30T10:38:42Z</time>
      </trkpt>
      <trkpt lat="39.85265" lon="-.51751">
        <ele>472.192</ele>
        <time>2020-08-30T10:38:51Z</time>
      </trkpt>
      <trkpt lat="39.852604" lon="-.5175">
        <ele>470.210</ele>
        <time>2020-08-30T10:38:58Z</time>
      </trkpt>
      <trkpt lat="39.852558" lon="-.517501">
        <ele>470.447</ele>
        <time>2020-08-30T10:39:03Z</time>
      </trkpt>
      <trkpt lat="39.85251" lon="-.517505">
        <ele>470.135</ele>
        <time>2020-08-30T10:39:11Z</time>
      </trkpt>
      <trkpt lat="39.852463" lon="-.517524">
        <ele>469.425</ele>
        <time>2020-08-30T10:39:18Z</time>
      </trkpt>
      <trkpt lat="39.852417" lon="-.517523">
        <ele>468.889</ele>
        <time>2020-08-30T10:39:25Z</time>
      </trkpt>
      <trkpt lat="39.852372" lon="-.517535">
        <ele>468.406</ele>
        <time>2020-08-30T10:39:32Z</time>
      </trkpt>
      <trkpt lat="39.852314" lon="-.517552">
        <ele>467.126</ele>
        <time>2020-08-30T10:39:41Z</time>
      </trkpt>
      <trkpt lat="39.852255" lon="-.517564">
        <ele>466.308</ele>
        <time>2020-08-30T10:39:50Z</time>
      </trkpt>
      <trkpt lat="39.852206" lon="-.517567">
        <ele>466.443</ele>
        <time>2020-08-30T10:40:00Z</time>
      </trkpt>
      <trkpt lat="39.85215" lon="-.517574">
        <ele>466.043</ele>
        <time>2020-08-30T10:40:04Z</time>
      </trkpt>
      <trkpt lat="39.852097" lon="-.517555">
        <ele>466.165</ele>
        <time>2020-08-30T10:40:14Z</time>
      </trkpt>
      <trkpt lat="39.852061" lon="-.517516">
        <ele>465.097</ele>
        <time>2020-08-30T10:40:19Z</time>
      </trkpt>
      <trkpt lat="39.852013" lon="-.517507">
        <ele>465.295</ele>
        <time>2020-08-30T10:40:21Z</time>
      </trkpt>
      <trkpt lat="39.851958" lon="-.517531">
        <ele>465.592</ele>
        <time>2020-08-30T10:40:24Z</time>
      </trkpt>
      <trkpt lat="39.851891" lon="-.517531">
        <ele>465.320</ele>
        <time>2020-08-30T10:40:26Z</time>
      </trkpt>
      <trkpt lat="39.851821" lon="-.517533">
        <ele>465.080</ele>
        <time>2020-08-30T10:40:28Z</time>
      </trkpt>
      <trkpt lat="39.851746" lon="-.517542">
        <ele>464.972</ele>
        <time>2020-08-30T10:40:30Z</time>
      </trkpt>
      <trkpt lat="39.851666" lon="-.51755">
        <ele>464.913</ele>
        <time>2020-08-30T10:40:32Z</time>
      </trkpt>
      <trkpt lat="39.851592" lon="-.517557">
        <ele>464.914</ele>
        <time>2020-08-30T10:40:34Z</time>
      </trkpt>
      <trkpt lat="39.851534" lon="-.517576">
        <ele>464.808</ele>
        <time>2020-08-30T10:40:37Z</time>
      </trkpt>
      <trkpt lat="39.851476" lon="-.517594">
        <ele>464.812</ele>
        <time>2020-08-30T10:40:39Z</time>
      </trkpt>
      <trkpt lat="39.851421" lon="-.517604">
        <ele>464.772</ele>
        <time>2020-08-30T10:40:40Z</time>
      </trkpt>
      <trkpt lat="39.85136" lon="-.517611">
        <ele>464.434</ele>
        <time>2020-08-30T10:40:41Z</time>
      </trkpt>
      <trkpt lat="39.851302" lon="-.517615">
        <ele>464.366</ele>
        <time>2020-08-30T10:40:42Z</time>
      </trkpt>
      <trkpt lat="39.851248" lon="-.517623">
        <ele>464.014</ele>
        <time>2020-08-30T10:40:43Z</time>
      </trkpt>
      <trkpt lat="39.85119" lon="-.517634">
        <ele>463.981</ele>
        <time>2020-08-30T10:40:44Z</time>
      </trkpt>
      <trkpt lat="39.851138" lon="-.517644">
        <ele>463.799</ele>
        <time>2020-08-30T10:40:45Z</time>
      </trkpt>
      <trkpt lat="39.851093" lon="-.517651">
        <ele>463.689</ele>
        <time>2020-08-30T10:40:46Z</time>
      </trkpt>
      <trkpt lat="39.851016" lon="-.517662">
        <ele>463.676</ele>
        <time>2020-08-30T10:40:47Z</time>
      </trkpt>
      <trkpt lat="39.850951" lon="-.517657">
        <ele>463.690</ele>
        <time>2020-08-30T10:40:48Z</time>
      </trkpt>
      <trkpt lat="39.850884" lon="-.517644">
        <ele>463.519</ele>
        <time>2020-08-30T10:40:49Z</time>
      </trkpt>
      <trkpt lat="39.850824" lon="-.517634">
        <ele>463.408</ele>
        <time>2020-08-30T10:40:50Z</time>
      </trkpt>
      <trkpt lat="39.850764" lon="-.517629">
        <ele>463.442</ele>
        <time>2020-08-30T10:40:51Z</time>
      </trkpt>
      <trkpt lat="39.850705" lon="-.517628">
        <ele>463.452</ele>
        <time>2020-08-30T10:40:52Z</time>
      </trkpt>
      <trkpt lat="39.850647" lon="-.517631">
        <ele>463.454</ele>
        <time>2020-08-30T10:40:53Z</time>
      </trkpt>
      <trkpt lat="39.850592" lon="-.517632">
        <ele>463.496</ele>
        <time>2020-08-30T10:40:54Z</time>
      </trkpt>
      <trkpt lat="39.850537" lon="-.517625">
        <ele>463.464</ele>
        <time>2020-08-30T10:40:55Z</time>
      </trkpt>
      <trkpt lat="39.850482" lon="-.517615">
        <ele>463.361</ele>
        <time>2020-08-30T10:40:56Z</time>
      </trkpt>
      <trkpt lat="39.850432" lon="-.517602">
        <ele>463.249</ele>
        <time>2020-08-30T10:40:57Z</time>
      </trkpt>
      <trkpt lat="39.850387" lon="-.517587">
        <ele>463.049</ele>
        <time>2020-08-30T10:40:58Z</time>
      </trkpt>
      <trkpt lat="39.850336" lon="-.517577">
        <ele>462.662</ele>
        <time>2020-08-30T10:40:59Z</time>
      </trkpt>
      <trkpt lat="39.850288" lon="-.517561">
        <ele>462.483</ele>
        <time>2020-08-30T10:41:00Z</time>
      </trkpt>
      <trkpt lat="39.850236" lon="-.517547">
        <ele>462.211</ele>
        <time>2020-08-30T10:41:01Z</time>
      </trkpt>
      <trkpt lat="39.85019" lon="-.517536">
        <ele>462.108</ele>
        <time>2020-08-30T10:41:02Z</time>
      </trkpt>
      <trkpt lat="39.850142" lon="-.51752">
        <ele>462.071</ele>
        <time>2020-08-30T10:41:03Z</time>
      </trkpt>
      <trkpt lat="39.850089" lon="-.517506">
        <ele>461.971</ele>
        <time>2020-08-30T10:41:04Z</time>
      </trkpt>
      <trkpt lat="39.850037" lon="-.517492">
        <ele>461.883</ele>
        <time>2020-08-30T10:41:05Z</time>
      </trkpt>
      <trkpt lat="39.849981" lon="-.517477">
        <ele>461.695</ele>
        <time>2020-08-30T10:41:06Z</time>
      </trkpt>
      <trkpt lat="39.849921" lon="-.517461">
        <ele>461.493</ele>
        <time>2020-08-30T10:41:07Z</time>
      </trkpt>
      <trkpt lat="39.849864" lon="-.517437">
        <ele>461.180</ele>
        <time>2020-08-30T10:41:08Z</time>
      </trkpt>
      <trkpt lat="39.849809" lon="-.517408">
        <ele>460.948</ele>
        <time>2020-08-30T10:41:09Z</time>
      </trkpt>
      <trkpt lat="39.849757" lon="-.517377">
        <ele>460.888</ele>
        <time>2020-08-30T10:41:10Z</time>
      </trkpt>
      <trkpt lat="39.849706" lon="-.517339">
        <ele>460.794</ele>
        <time>2020-08-30T10:41:11Z</time>
      </trkpt>
      <trkpt lat="39.849651" lon="-.517298">
        <ele>460.757</ele>
        <time>2020-08-30T10:41:12Z</time>
      </trkpt>
      <trkpt lat="39.849596" lon="-.51726">
        <ele>460.722</ele>
        <time>2020-08-30T10:41:13Z</time>
      </trkpt>
      <trkpt lat="39.849542" lon="-.517227">
        <ele>460.608</ele>
        <time>2020-08-30T10:41:14Z</time>
      </trkpt>
      <trkpt lat="39.849492" lon="-.51719">
        <ele>460.534</ele>
        <time>2020-08-30T10:41:15Z</time>
      </trkpt>
      <trkpt lat="39.849446" lon="-.517154">
        <ele>460.494</ele>
        <time>2020-08-30T10:41:16Z</time>
      </trkpt>
      <trkpt lat="39.849395" lon="-.517122">
        <ele>460.376</ele>
        <time>2020-08-30T10:41:17Z</time>
      </trkpt>
      <trkpt lat="39.849345" lon="-.517084">
        <ele>460.148</ele>
        <time>2020-08-30T10:41:18Z</time>
      </trkpt>
      <trkpt lat="39.849296" lon="-.517047">
        <ele>460.076</ele>
        <time>2020-08-30T10:41:19Z</time>
      </trkpt>
      <trkpt lat="39.849246" lon="-.517009">
        <ele>459.913</ele>
        <time>2020-08-30T10:41:20Z</time>
      </trkpt>
      <trkpt lat="39.849196" lon="-.516977">
        <ele>459.821</ele>
        <time>2020-08-30T10:41:21Z</time>
      </trkpt>
      <trkpt lat="39.849145" lon="-.516944">
        <ele>459.611</ele>
        <time>2020-08-30T10:41:22Z</time>
      </trkpt>
      <trkpt lat="39.849095" lon="-.516907">
        <ele>459.517</ele>
        <time>2020-08-30T10:41:23Z</time>
      </trkpt>
      <trkpt lat="39.849048" lon="-.516875">
        <ele>459.387</ele>
        <time>2020-08-30T10:41:24Z</time>
      </trkpt>
      <trkpt lat="39.848999" lon="-.516843">
        <ele>459.215</ele>
        <time>2020-08-30T10:41:25Z</time>
      </trkpt>
      <trkpt lat="39.848952" lon="-.516814">
        <ele>459.208</ele>
        <time>2020-08-30T10:41:26Z</time>
      </trkpt>
      <trkpt lat="39.848905" lon="-.516784">
        <ele>459.286</ele>
        <time>2020-08-30T10:41:27Z</time>
      </trkpt>
      <trkpt lat="39.848859" lon="-.516751">
        <ele>459.246</ele>
        <time>2020-08-30T10:41:28Z</time>
      </trkpt>
      <trkpt lat="39.848815" lon="-.516725">
        <ele>459.138</ele>
        <time>2020-08-30T10:41:29Z</time>
      </trkpt>
      <trkpt lat="39.848746" lon="-.516672">
        <ele>459.080</ele>
        <time>2020-08-30T10:41:31Z</time>
      </trkpt>
      <trkpt lat="39.848698" lon="-.516624">
        <ele>458.968</ele>
        <time>2020-08-30T10:41:33Z</time>
      </trkpt>
      <trkpt lat="39.848676" lon="-.516571">
        <ele>459.125</ele>
        <time>2020-08-30T10:41:35Z</time>
      </trkpt>
      <trkpt lat="39.848658" lon="-.516498">
        <ele>460.573</ele>
        <time>2020-08-30T10:41:38Z</time>
      </trkpt>
      <trkpt lat="39.84863" lon="-.516451">
        <ele>461.283</ele>
        <time>2020-08-30T10:41:40Z</time>
      </trkpt>
      <trkpt lat="39.84859" lon="-.516423">
        <ele>461.618</ele>
        <time>2020-08-30T10:41:42Z</time>
      </trkpt>
      <trkpt lat="39.848535" lon="-.516379">
        <ele>461.898</ele>
        <time>2020-08-30T10:41:45Z</time>
      </trkpt>
      <trkpt lat="39.84849" lon="-.516357">
        <ele>461.917</ele>
        <time>2020-08-30T10:41:47Z</time>
      </trkpt>
      <trkpt lat="39.848443" lon="-.51632">
        <ele>461.908</ele>
        <time>2020-08-30T10:41:49Z</time>
      </trkpt>
      <trkpt lat="39.848393" lon="-.516276">
        <ele>461.856</ele>
        <time>2020-08-30T10:41:51Z</time>
      </trkpt>
      <trkpt lat="39.848352" lon="-.516245">
        <ele>461.536</ele>
        <time>2020-08-30T10:41:53Z</time>
      </trkpt>
      <trkpt lat="39.848296" lon="-.516294">
        <ele>460.988</ele>
        <time>2020-08-30T10:42:37Z</time>
      </trkpt>
      <trkpt lat="39.848245" lon="-.516309">
        <ele>460.660</ele>
        <time>2020-08-30T10:42:40Z</time>
      </trkpt>
      <trkpt lat="39.848195" lon="-.516309">
        <ele>460.038</ele>
        <time>2020-08-30T10:42:42Z</time>
      </trkpt>
      <trkpt lat="39.848141" lon="-.516299">
        <ele>459.875</ele>
        <time>2020-08-30T10:42:43Z</time>
      </trkpt>
      <trkpt lat="39.848093" lon="-.516258">
        <ele>459.523</ele>
        <time>2020-08-30T10:42:44Z</time>
      </trkpt>
      <trkpt lat="39.848048" lon="-.516227">
        <ele>459.333</ele>
        <time>2020-08-30T10:42:45Z</time>
      </trkpt>
      <trkpt lat="39.847998" lon="-.516214">
        <ele>459.353</ele>
        <time>2020-08-30T10:42:46Z</time>
      </trkpt>
      <trkpt lat="39.847926" lon="-.516174">
        <ele>459.204</ele>
        <time>2020-08-30T10:42:48Z</time>
      </trkpt>
      <trkpt lat="39.847847" lon="-.516123">
        <ele>459.214</ele>
        <time>2020-08-30T10:42:50Z</time>
      </trkpt>
      <trkpt lat="39.847783" lon="-.516102">
        <ele>459.008</ele>
        <time>2020-08-30T10:42:52Z</time>
      </trkpt>
      <trkpt lat="39.847707" lon="-.516086">
        <ele>458.860</ele>
        <time>2020-08-30T10:42:54Z</time>
      </trkpt>
      <trkpt lat="39.847659" lon="-.516076">
        <ele>458.880</ele>
        <time>2020-08-30T10:42:55Z</time>
      </trkpt>
      <trkpt lat="39.847574" lon="-.516015">
        <ele>458.742</ele>
        <time>2020-08-30T10:42:57Z</time>
      </trkpt>
      <trkpt lat="39.847525" lon="-.516017">
        <ele>458.624</ele>
        <time>2020-08-30T10:42:58Z</time>
      </trkpt>
      <trkpt lat="39.847482" lon="-.515997">
        <ele>458.632</ele>
        <time>2020-08-30T10:42:59Z</time>
      </trkpt>
      <trkpt lat="39.847433" lon="-.515985">
        <ele>458.649</ele>
        <time>2020-08-30T10:43:00Z</time>
      </trkpt>
      <trkpt lat="39.847379" lon="-.515973">
        <ele>458.697</ele>
        <time>2020-08-30T10:43:01Z</time>
      </trkpt>
      <trkpt lat="39.847309" lon="-.515936">
        <ele>458.647</ele>
        <time>2020-08-30T10:43:03Z</time>
      </trkpt>
      <trkpt lat="39.847227" lon="-.515924">
        <ele>458.657</ele>
        <time>2020-08-30T10:43:05Z</time>
      </trkpt>
      <trkpt lat="39.847181" lon="-.515922">
        <ele>458.600</ele>
        <time>2020-08-30T10:43:06Z</time>
      </trkpt>
      <trkpt lat="39.847121" lon="-.515923">
        <ele>458.420</ele>
        <time>2020-08-30T10:43:08Z</time>
      </trkpt>
      <trkpt lat="39.847064" lon="-.515923">
        <ele>458.108</ele>
        <time>2020-08-30T10:43:10Z</time>
      </trkpt>
      <trkpt lat="39.847019" lon="-.515908">
        <ele>457.640</ele>
        <time>2020-08-30T10:43:13Z</time>
      </trkpt>
      <trkpt lat="39.846971" lon="-.515914">
        <ele>457.250</ele>
        <time>2020-08-30T10:43:32Z</time>
      </trkpt>
      <trkpt lat="39.846891" lon="-.515902">
        <ele>457.172</ele>
        <time>2020-08-30T10:43:36Z</time>
      </trkpt>
      <trkpt lat="39.846823" lon="-.515919">
        <ele>456.974</ele>
        <time>2020-08-30T10:43:38Z</time>
      </trkpt>
      <trkpt lat="39.846756" lon="-.515934">
        <ele>456.892</ele>
        <time>2020-08-30T10:43:40Z</time>
      </trkpt>
      <trkpt lat="39.846697" lon="-.515954">
        <ele>456.779</ele>
        <time>2020-08-30T10:43:42Z</time>
      </trkpt>
      <trkpt lat="39.846652" lon="-.51597">
        <ele>456.487</ele>
        <time>2020-08-30T10:43:44Z</time>
      </trkpt>
      <trkpt lat="39.846591" lon="-.515983">
        <ele>456.197</ele>
        <time>2020-08-30T10:43:46Z</time>
      </trkpt>
      <trkpt lat="39.846527" lon="-.516012">
        <ele>456.091</ele>
        <time>2020-08-30T10:43:48Z</time>
      </trkpt>
      <trkpt lat="39.846447" lon="-.51604">
        <ele>456.081</ele>
        <time>2020-08-30T10:43:50Z</time>
      </trkpt>
      <trkpt lat="39.846381" lon="-.516068">
        <ele>455.919</ele>
        <time>2020-08-30T10:43:52Z</time>
      </trkpt>
      <trkpt lat="39.846328" lon="-.516089">
        <ele>455.808</ele>
        <time>2020-08-30T10:43:53Z</time>
      </trkpt>
      <trkpt lat="39.846255" lon="-.516125">
        <ele>455.794</ele>
        <time>2020-08-30T10:43:55Z</time>
      </trkpt>
      <trkpt lat="39.846206" lon="-.516121">
        <ele>455.484</ele>
        <time>2020-08-30T10:44:00Z</time>
      </trkpt>
      <trkpt lat="39.846154" lon="-.516157">
        <ele>455.376</ele>
        <time>2020-08-30T10:44:34Z</time>
      </trkpt>
      <trkpt lat="39.846104" lon="-.516194">
        <ele>455.368</ele>
        <time>2020-08-30T10:44:39Z</time>
      </trkpt>
      <trkpt lat="39.846049" lon="-.51623">
        <ele>455.486</ele>
        <time>2020-08-30T10:44:42Z</time>
      </trkpt>
      <trkpt lat="39.846" lon="-.516254">
        <ele>455.483</ele>
        <time>2020-08-30T10:44:44Z</time>
      </trkpt>
      <trkpt lat="39.845955" lon="-.516302">
        <ele>455.481</ele>
        <time>2020-08-30T10:44:46Z</time>
      </trkpt>
      <trkpt lat="39.845905" lon="-.51635">
        <ele>455.321</ele>
        <time>2020-08-30T10:44:48Z</time>
      </trkpt>
      <trkpt lat="39.84584" lon="-.516395">
        <ele>455.254</ele>
        <time>2020-08-30T10:44:50Z</time>
      </trkpt>
      <trkpt lat="39.845765" lon="-.516425">
        <ele>455.256</ele>
        <time>2020-08-30T10:44:52Z</time>
      </trkpt>
      <trkpt lat="39.845687" lon="-.516476">
        <ele>455.111</ele>
        <time>2020-08-30T10:44:54Z</time>
      </trkpt>
      <trkpt lat="39.84562" lon="-.516511">
        <ele>455.008</ele>
        <time>2020-08-30T10:44:56Z</time>
      </trkpt>
      <trkpt lat="39.845567" lon="-.516539">
        <ele>454.820</ele>
        <time>2020-08-30T10:44:58Z</time>
      </trkpt>
      <trkpt lat="39.845502" lon="-.516576">
        <ele>454.720</ele>
        <time>2020-08-30T10:45:00Z</time>
      </trkpt>
      <trkpt lat="39.84543" lon="-.516583">
        <ele>454.842</ele>
        <time>2020-08-30T10:45:02Z</time>
      </trkpt>
      <trkpt lat="39.845364" lon="-.516606">
        <ele>454.994</ele>
        <time>2020-08-30T10:45:04Z</time>
      </trkpt>
      <trkpt lat="39.845307" lon="-.516658">
        <ele>454.642</ele>
        <time>2020-08-30T10:45:06Z</time>
      </trkpt>
      <trkpt lat="39.845273" lon="-.516739">
        <ele>454.039</ele>
        <time>2020-08-30T10:45:10Z</time>
      </trkpt>
      <trkpt lat="39.845232" lon="-.516781">
        <ele>453.997</ele>
        <time>2020-08-30T10:45:12Z</time>
      </trkpt>
      <trkpt lat="39.845191" lon="-.51682">
        <ele>453.937</ele>
        <time>2020-08-30T10:45:14Z</time>
      </trkpt>
      <trkpt lat="39.845132" lon="-.516866">
        <ele>454.153</ele>
        <time>2020-08-30T10:45:16Z</time>
      </trkpt>
      <trkpt lat="39.845075" lon="-.516904">
        <ele>454.004</ele>
        <time>2020-08-30T10:45:18Z</time>
      </trkpt>
      <trkpt lat="39.845" lon="-.516939">
        <ele>453.814</ele>
        <time>2020-08-30T10:45:20Z</time>
      </trkpt>
      <trkpt lat="39.844933" lon="-.516986">
        <ele>453.608</ele>
        <time>2020-08-30T10:45:24Z</time>
      </trkpt>
      <trkpt lat="39.844865" lon="-.517033">
        <ele>453.680</ele>
        <time>2020-08-30T10:45:26Z</time>
      </trkpt>
      <trkpt lat="39.844825" lon="-.517066">
        <ele>453.610</ele>
        <time>2020-08-30T10:45:27Z</time>
      </trkpt>
      <trkpt lat="39.84478" lon="-.517088">
        <ele>453.662</ele>
        <time>2020-08-30T10:45:28Z</time>
      </trkpt>
      <trkpt lat="39.844732" lon="-.517116">
        <ele>453.614</ele>
        <time>2020-08-30T10:45:29Z</time>
      </trkpt>
      <trkpt lat="39.844685" lon="-.51714">
        <ele>453.532</ele>
        <time>2020-08-30T10:45:30Z</time>
      </trkpt>
      <trkpt lat="39.844638" lon="-.517159">
        <ele>453.439</ele>
        <time>2020-08-30T10:45:31Z</time>
      </trkpt>
      <trkpt lat="39.844594" lon="-.517178">
        <ele>453.287</ele>
        <time>2020-08-30T10:45:32Z</time>
      </trkpt>
      <trkpt lat="39.844526" lon="-.517235">
        <ele>453.027</ele>
        <time>2020-08-30T10:45:34Z</time>
      </trkpt>
      <trkpt lat="39.844428" lon="-.517283">
        <ele>452.847</ele>
        <time>2020-08-30T10:45:36Z</time>
      </trkpt>
      <trkpt lat="39.844376" lon="-.517304">
        <ele>452.729</ele>
        <time>2020-08-30T10:45:37Z</time>
      </trkpt>
      <trkpt lat="39.844335" lon="-.51733">
        <ele>452.621</ele>
        <time>2020-08-30T10:45:38Z</time>
      </trkpt>
      <trkpt lat="39.844297" lon="-.517363">
        <ele>452.508</ele>
        <time>2020-08-30T10:45:39Z</time>
      </trkpt>
      <trkpt lat="39.844247" lon="-.51739">
        <ele>452.539</ele>
        <time>2020-08-30T10:45:40Z</time>
      </trkpt>
      <trkpt lat="39.844201" lon="-.517421">
        <ele>452.549</ele>
        <time>2020-08-30T10:45:41Z</time>
      </trkpt>
      <trkpt lat="39.844152" lon="-.517454">
        <ele>452.451</ele>
        <time>2020-08-30T10:45:42Z</time>
      </trkpt>
      <trkpt lat="39.844106" lon="-.517486">
        <ele>452.313</ele>
        <time>2020-08-30T10:45:43Z</time>
      </trkpt>
      <trkpt lat="39.844063" lon="-.51752">
        <ele>452.281</ele>
        <time>2020-08-30T10:45:44Z</time>
      </trkpt>
      <trkpt lat="39.843993" lon="-.517565">
        <ele>452.128</ele>
        <time>2020-08-30T10:45:46Z</time>
      </trkpt>
      <trkpt lat="39.843929" lon="-.517611">
        <ele>452.076</ele>
        <time>2020-08-30T10:45:48Z</time>
      </trkpt>
      <trkpt lat="39.843897" lon="-.517678">
        <ele>452.256</ele>
        <time>2020-08-30T10:45:52Z</time>
      </trkpt>
      <trkpt lat="39.843828" lon="-.517727">
        <ele>451.963</ele>
        <time>2020-08-30T10:45:55Z</time>
      </trkpt>
      <trkpt lat="39.843782" lon="-.517762">
        <ele>451.744</ele>
        <time>2020-08-30T10:45:58Z</time>
      </trkpt>
      <trkpt lat="39.843739" lon="-.517795">
        <ele>451.718</ele>
        <time>2020-08-30T10:46:00Z</time>
      </trkpt>
      <trkpt lat="39.843693" lon="-.517836">
        <ele>451.808</ele>
        <time>2020-08-30T10:46:02Z</time>
      </trkpt>
      <trkpt lat="39.843654" lon="-.517869">
        <ele>452.321</ele>
        <time>2020-08-30T10:46:04Z</time>
      </trkpt>
      <trkpt lat="39.843609" lon="-.517892">
        <ele>452.591</ele>
        <time>2020-08-30T10:46:05Z</time>
      </trkpt>
      <trkpt lat="39.843567" lon="-.517921">
        <ele>452.823</ele>
        <time>2020-08-30T10:46:07Z</time>
      </trkpt>
      <trkpt lat="39.843523" lon="-.51795">
        <ele>453.185</ele>
        <time>2020-08-30T10:46:09Z</time>
      </trkpt>
      <trkpt lat="39.843461" lon="-.517994">
        <ele>453.393</ele>
        <time>2020-08-30T10:46:11Z</time>
      </trkpt>
      <trkpt lat="39.843405" lon="-.518018">
        <ele>453.550</ele>
        <time>2020-08-30T10:46:13Z</time>
      </trkpt>
      <trkpt lat="39.843351" lon="-.51805">
        <ele>453.838</ele>
        <time>2020-08-30T10:46:15Z</time>
      </trkpt>
      <trkpt lat="39.843294" lon="-.518086">
        <ele>454.138</ele>
        <time>2020-08-30T10:46:17Z</time>
      </trkpt>
      <trkpt lat="39.843239" lon="-.518124">
        <ele>454.457</ele>
        <time>2020-08-30T10:46:19Z</time>
      </trkpt>
      <trkpt lat="39.843184" lon="-.518155">
        <ele>454.700</ele>
        <time>2020-08-30T10:46:21Z</time>
      </trkpt>
      <trkpt lat="39.843129" lon="-.518184">
        <ele>454.820</ele>
        <time>2020-08-30T10:46:23Z</time>
      </trkpt>
      <trkpt lat="39.843073" lon="-.518208">
        <ele>455.008</ele>
        <time>2020-08-30T10:46:25Z</time>
      </trkpt>
      <trkpt lat="39.843012" lon="-.518235">
        <ele>455.280</ele>
        <time>2020-08-30T10:46:27Z</time>
      </trkpt>
      <trkpt lat="39.842964" lon="-.518256">
        <ele>455.360</ele>
        <time>2020-08-30T10:46:29Z</time>
      </trkpt>
      <trkpt lat="39.842912" lon="-.518291">
        <ele>455.382</ele>
        <time>2020-08-30T10:46:31Z</time>
      </trkpt>
      <trkpt lat="39.842868" lon="-.518315">
        <ele>455.364</ele>
        <time>2020-08-30T10:46:33Z</time>
      </trkpt>
      <trkpt lat="39.842822" lon="-.518337">
        <ele>455.652</ele>
        <time>2020-08-30T10:46:35Z</time>
      </trkpt>
      <trkpt lat="39.842779" lon="-.518356">
        <ele>455.979</ele>
        <time>2020-08-30T10:46:37Z</time>
      </trkpt>
      <trkpt lat="39.842738" lon="-.51838">
        <ele>456.187</ele>
        <time>2020-08-30T10:46:39Z</time>
      </trkpt>
      <trkpt lat="39.842694" lon="-.518397">
        <ele>456.227</ele>
        <time>2020-08-30T10:46:41Z</time>
      </trkpt>
      <trkpt lat="39.842648" lon="-.51842">
        <ele>456.319</ele>
        <time>2020-08-30T10:46:43Z</time>
      </trkpt>
      <trkpt lat="39.842601" lon="-.518437">
        <ele>456.409</ele>
        <time>2020-08-30T10:46:45Z</time>
      </trkpt>
      <trkpt lat="39.842556" lon="-.518447">
        <ele>456.519</ele>
        <time>2020-08-30T10:46:47Z</time>
      </trkpt>
      <trkpt lat="39.842514" lon="-.518482">
        <ele>456.708</ele>
        <time>2020-08-30T10:46:49Z</time>
      </trkpt>
      <trkpt lat="39.842471" lon="-.518519">
        <ele>457.236</ele>
        <time>2020-08-30T10:46:51Z</time>
      </trkpt>
      <trkpt lat="39.842424" lon="-.51853">
        <ele>457.926</ele>
        <time>2020-08-30T10:46:53Z</time>
      </trkpt>
      <trkpt lat="39.842368" lon="-.518521">
        <ele>458.888</ele>
        <time>2020-08-30T10:46:55Z</time>
      </trkpt>
      <trkpt lat="39.842316" lon="-.518518">
        <ele>459.410</ele>
        <time>2020-08-30T10:46:57Z</time>
      </trkpt>
      <trkpt lat="39.842267" lon="-.518516">
        <ele>459.058</ele>
        <time>2020-08-30T10:46:59Z</time>
      </trkpt>
      <trkpt lat="39.842214" lon="-.518513">
        <ele>458.535</ele>
        <time>2020-08-30T10:47:01Z</time>
      </trkpt>
      <trkpt lat="39.842142" lon="-.518516">
        <ele>457.823</ele>
        <time>2020-08-30T10:47:04Z</time>
      </trkpt>
      <trkpt lat="39.842094" lon="-.518515">
        <ele>457.543</ele>
        <time>2020-08-30T10:47:05Z</time>
      </trkpt>
      <trkpt lat="39.842023" lon="-.518493">
        <ele>457.288</ele>
        <time>2020-08-30T10:47:06Z</time>
      </trkpt>
      <trkpt lat="39.841948" lon="-.518482">
        <ele>456.924</ele>
        <time>2020-08-30T10:47:07Z</time>
      </trkpt>
      <trkpt lat="39.841894" lon="-.518485">
        <ele>456.626</ele>
        <time>2020-08-30T10:47:08Z</time>
      </trkpt>
      <trkpt lat="39.841827" lon="-.518472">
        <ele>456.208</ele>
        <time>2020-08-30T10:47:09Z</time>
      </trkpt>
      <trkpt lat="39.841738" lon="-.518449">
        <ele>455.843</ele>
        <time>2020-08-30T10:47:10Z</time>
      </trkpt>
      <trkpt lat="39.841606" lon="-.518417">
        <ele>455.443</ele>
        <time>2020-08-30T10:47:11Z</time>
      </trkpt>
      <trkpt lat="39.841501" lon="-.51841">
        <ele>455.015</ele>
        <time>2020-08-30T10:47:12Z</time>
      </trkpt>
      <trkpt lat="39.841391" lon="-.51839">
        <ele>454.567</ele>
        <time>2020-08-30T10:47:13Z</time>
      </trkpt>
      <trkpt lat="39.841298" lon="-.518378">
        <ele>454.185</ele>
        <time>2020-08-30T10:47:14Z</time>
      </trkpt>
      <trkpt lat="39.8412" lon="-.518365">
        <ele>453.732</ele>
        <time>2020-08-30T10:47:15Z</time>
      </trkpt>
      <trkpt lat="39.841111" lon="-.518359">
        <ele>453.060</ele>
        <time>2020-08-30T10:47:16Z</time>
      </trkpt>
      <trkpt lat="39.841028" lon="-.518348">
        <ele>452.690</ele>
        <time>2020-08-30T10:47:17Z</time>
      </trkpt>
      <trkpt lat="39.840948" lon="-.518336">
        <ele>452.114</ele>
        <time>2020-08-30T10:47:18Z</time>
      </trkpt>
      <trkpt lat="39.840869" lon="-.518323">
        <ele>451.754</ele>
        <time>2020-08-30T10:47:19Z</time>
      </trkpt>
      <trkpt lat="39.840803" lon="-.518315">
        <ele>451.309</ele>
        <time>2020-08-30T10:47:20Z</time>
      </trkpt>
      <trkpt lat="39.84074" lon="-.518305">
        <ele>451.008</ele>
        <time>2020-08-30T10:47:21Z</time>
      </trkpt>
      <trkpt lat="39.840677" lon="-.5183">
        <ele>450.726</ele>
        <time>2020-08-30T10:47:22Z</time>
      </trkpt>
      <trkpt lat="39.840605" lon="-.518279">
        <ele>450.596</ele>
        <time>2020-08-30T10:47:23Z</time>
      </trkpt>
      <trkpt lat="39.840537" lon="-.518272">
        <ele>450.318</ele>
        <time>2020-08-30T10:47:24Z</time>
      </trkpt>
      <trkpt lat="39.840463" lon="-.518256">
        <ele>450.040</ele>
        <time>2020-08-30T10:47:25Z</time>
      </trkpt>
      <trkpt lat="39.840396" lon="-.518236">
        <ele>449.818</ele>
        <time>2020-08-30T10:47:26Z</time>
      </trkpt>
      <trkpt lat="39.840326" lon="-.518221">
        <ele>449.515</ele>
        <time>2020-08-30T10:47:27Z</time>
      </trkpt>
      <trkpt lat="39.840254" lon="-.518203">
        <ele>449.353</ele>
        <time>2020-08-30T10:47:28Z</time>
      </trkpt>
      <trkpt lat="39.840189" lon="-.518193">
        <ele>448.953</ele>
        <time>2020-08-30T10:47:29Z</time>
      </trkpt>
      <trkpt lat="39.840132" lon="-.518179">
        <ele>448.419</ele>
        <time>2020-08-30T10:47:30Z</time>
      </trkpt>
      <trkpt lat="39.840073" lon="-.518168">
        <ele>447.809</ele>
        <time>2020-08-30T10:47:31Z</time>
      </trkpt>
      <trkpt lat="39.840019" lon="-.518152">
        <ele>447.319</ele>
        <time>2020-08-30T10:47:32Z</time>
      </trkpt>
      <trkpt lat="39.839959" lon="-.518138">
        <ele>446.908</ele>
        <time>2020-08-30T10:47:33Z</time>
      </trkpt>
      <trkpt lat="39.83991" lon="-.518124">
        <ele>446.576</ele>
        <time>2020-08-30T10:47:34Z</time>
      </trkpt>
      <trkpt lat="39.839822" lon="-.518107">
        <ele>446.016</ele>
        <time>2020-08-30T10:47:36Z</time>
      </trkpt>
      <trkpt lat="39.839744" lon="-.51808">
        <ele>445.578</ele>
        <time>2020-08-30T10:47:38Z</time>
      </trkpt>
      <trkpt lat="39.839678" lon="-.518072">
        <ele>445.130</ele>
        <time>2020-08-30T10:47:40Z</time>
      </trkpt>
      <trkpt lat="39.83963" lon="-.518057">
        <ele>444.878</ele>
        <time>2020-08-30T10:47:42Z</time>
      </trkpt>
      <trkpt lat="39.839576" lon="-.518036">
        <ele>444.465</ele>
        <time>2020-08-30T10:47:45Z</time>
      </trkpt>
      <trkpt lat="39.839527" lon="-.518047">
        <ele>444.693</ele>
        <time>2020-08-30T10:48:25Z</time>
      </trkpt>
      <trkpt lat="39.839484" lon="-.518011">
        <ele>444.673</ele>
        <time>2020-08-30T10:48:48Z</time>
      </trkpt>
      <trkpt lat="39.839438" lon="-.517996">
        <ele>444.646</ele>
        <time>2020-08-30T10:48:50Z</time>
      </trkpt>
      <trkpt lat="39.839374" lon="-.517976">
        <ele>444.588</ele>
        <time>2020-08-30T10:48:52Z</time>
      </trkpt>
      <trkpt lat="39.839319" lon="-.517966">
        <ele>444.316</ele>
        <time>2020-08-30T10:48:54Z</time>
      </trkpt>
      <trkpt lat="39.839265" lon="-.517944">
        <ele>444.108</ele>
        <time>2020-08-30T10:48:56Z</time>
      </trkpt>
      <trkpt lat="39.839197" lon="-.51793">
        <ele>443.919</ele>
        <time>2020-08-30T10:48:58Z</time>
      </trkpt>
      <trkpt lat="39.839128" lon="-.517905">
        <ele>443.789</ele>
        <time>2020-08-30T10:49:00Z</time>
      </trkpt>
      <trkpt lat="39.839056" lon="-.517881">
        <ele>443.521</ele>
        <time>2020-08-30T10:49:02Z</time>
      </trkpt>
      <trkpt lat="39.838988" lon="-.517854">
        <ele>443.383</ele>
        <time>2020-08-30T10:49:04Z</time>
      </trkpt>
      <trkpt lat="39.83892" lon="-.517828">
        <ele>443.181</ele>
        <time>2020-08-30T10:49:06Z</time>
      </trkpt>
      <trkpt lat="39.838846" lon="-.517801">
        <ele>442.938</ele>
        <time>2020-08-30T10:49:08Z</time>
      </trkpt>
      <trkpt lat="39.838764" lon="-.517785">
        <ele>442.866</ele>
        <time>2020-08-30T10:49:10Z</time>
      </trkpt>
      <trkpt lat="39.838689" lon="-.517757">
        <ele>442.686</ele>
        <time>2020-08-30T10:49:12Z</time>
      </trkpt>
      <trkpt lat="39.838615" lon="-.517734">
        <ele>442.578</ele>
        <time>2020-08-30T10:49:14Z</time>
      </trkpt>
      <trkpt lat="39.83857" lon="-.51772">
        <ele>442.433</ele>
        <time>2020-08-30T10:49:15Z</time>
      </trkpt>
      <trkpt lat="39.838493" lon="-.517696">
        <ele>442.326</ele>
        <time>2020-08-30T10:49:17Z</time>
      </trkpt>
      <trkpt lat="39.838406" lon="-.517664">
        <ele>442.408</ele>
        <time>2020-08-30T10:49:19Z</time>
      </trkpt>
      <trkpt lat="39.838361" lon="-.517648">
        <ele>442.522</ele>
        <time>2020-08-30T10:49:20Z</time>
      </trkpt>
      <trkpt lat="39.838289" lon="-.517642">
        <ele>442.532</ele>
        <time>2020-08-30T10:49:21Z</time>
      </trkpt>
      <trkpt lat="39.838221" lon="-.517593">
        <ele>442.524</ele>
        <time>2020-08-30T10:49:23Z</time>
      </trkpt>
      <trkpt lat="39.838137" lon="-.517542">
        <ele>442.356</ele>
        <time>2020-08-30T10:49:25Z</time>
      </trkpt>
      <trkpt lat="39.838095" lon="-.517519">
        <ele>442.214</ele>
        <time>2020-08-30T10:49:26Z</time>
      </trkpt>
      <trkpt lat="39.838015" lon="-.517481">
        <ele>442.111</ele>
        <time>2020-08-30T10:49:28Z</time>
      </trkpt>
      <trkpt lat="39.837927" lon="-.517449">
        <ele>441.959</ele>
        <time>2020-08-30T10:49:30Z</time>
      </trkpt>
      <trkpt lat="39.837882" lon="-.517417">
        <ele>441.819</ele>
        <time>2020-08-30T10:49:31Z</time>
      </trkpt>
      <trkpt lat="39.837833" lon="-.517407">
        <ele>441.739</ele>
        <time>2020-08-30T10:49:32Z</time>
      </trkpt>
      <trkpt lat="39.83777" lon="-.517372">
        <ele>441.701</ele>
        <time>2020-08-30T10:49:33Z</time>
      </trkpt>
      <trkpt lat="39.837719" lon="-.517339">
        <ele>441.721</ele>
        <time>2020-08-30T10:49:34Z</time>
      </trkpt>
      <trkpt lat="39.837675" lon="-.517318">
        <ele>441.708</ele>
        <time>2020-08-30T10:49:35Z</time>
      </trkpt>
      <trkpt lat="39.837619" lon="-.517297">
        <ele>441.738</ele>
        <time>2020-08-30T10:49:36Z</time>
      </trkpt>
      <trkpt lat="39.837563" lon="-.517272">
        <ele>441.698</ele>
        <time>2020-08-30T10:49:37Z</time>
      </trkpt>
      <trkpt lat="39.837507" lon="-.517246">
        <ele>441.410</ele>
        <time>2020-08-30T10:49:38Z</time>
      </trkpt>
      <trkpt lat="39.837453" lon="-.517217">
        <ele>441.292</ele>
        <time>2020-08-30T10:49:39Z</time>
      </trkpt>
      <trkpt lat="39.837398" lon="-.51719">
        <ele>441.180</ele>
        <time>2020-08-30T10:49:40Z</time>
      </trkpt>
      <trkpt lat="39.837345" lon="-.517161">
        <ele>441.047</ele>
        <time>2020-08-30T10:49:41Z</time>
      </trkpt>
      <trkpt lat="39.837291" lon="-.517152">
        <ele>440.915</ele>
        <time>2020-08-30T10:49:42Z</time>
      </trkpt>
      <trkpt lat="39.837243" lon="-.51714">
        <ele>440.765</ele>
        <time>2020-08-30T10:49:43Z</time>
      </trkpt>
      <trkpt lat="39.837184" lon="-.517126">
        <ele>440.631</ele>
        <time>2020-08-30T10:49:44Z</time>
      </trkpt>
      <trkpt lat="39.837126" lon="-.517102">
        <ele>440.561</ele>
        <time>2020-08-30T10:49:45Z</time>
      </trkpt>
      <trkpt lat="39.837067" lon="-.517073">
        <ele>440.407</ele>
        <time>2020-08-30T10:49:46Z</time>
      </trkpt>
      <trkpt lat="39.837015" lon="-.517043">
        <ele>440.308</ele>
        <time>2020-08-30T10:49:47Z</time>
      </trkpt>
      <trkpt lat="39.836958" lon="-.517019">
        <ele>440.268</ele>
        <time>2020-08-30T10:49:48Z</time>
      </trkpt>
      <trkpt lat="39.836902" lon="-.516994">
        <ele>440.198</ele>
        <time>2020-08-30T10:49:49Z</time>
      </trkpt>
      <trkpt lat="39.836849" lon="-.516967">
        <ele>440.060</ele>
        <time>2020-08-30T10:49:50Z</time>
      </trkpt>
      <trkpt lat="39.836795" lon="-.516931">
        <ele>439.922</ele>
        <time>2020-08-30T10:49:51Z</time>
      </trkpt>
      <trkpt lat="39.836748" lon="-.516898">
        <ele>439.890</ele>
        <time>2020-08-30T10:49:52Z</time>
      </trkpt>
      <trkpt lat="39.836696" lon="-.516863">
        <ele>439.737</ele>
        <time>2020-08-30T10:49:53Z</time>
      </trkpt>
      <trkpt lat="39.836636" lon="-.516843">
        <ele>439.665</ele>
        <time>2020-08-30T10:49:54Z</time>
      </trkpt>
      <trkpt lat="39.836588" lon="-.516825">
        <ele>439.635</ele>
        <time>2020-08-30T10:49:55Z</time>
      </trkpt>
      <trkpt lat="39.836531" lon="-.5168">
        <ele>439.561</ele>
        <time>2020-08-30T10:49:56Z</time>
      </trkpt>
      <trkpt lat="39.836475" lon="-.516779">
        <ele>439.521</ele>
        <time>2020-08-30T10:49:57Z</time>
      </trkpt>
      <trkpt lat="39.836426" lon="-.516751">
        <ele>439.513</ele>
        <time>2020-08-30T10:49:58Z</time>
      </trkpt>
      <trkpt lat="39.83638" lon="-.516722">
        <ele>439.508</ele>
        <time>2020-08-30T10:49:59Z</time>
      </trkpt>
      <trkpt lat="39.83633" lon="-.516698">
        <ele>439.561</ele>
        <time>2020-08-30T10:50:00Z</time>
      </trkpt>
      <trkpt lat="39.836279" lon="-.516679">
        <ele>439.591</ele>
        <time>2020-08-30T10:50:01Z</time>
      </trkpt>
      <trkpt lat="39.83622" lon="-.516654">
        <ele>439.673</ele>
        <time>2020-08-30T10:50:02Z</time>
      </trkpt>
      <trkpt lat="39.836164" lon="-.516631">
        <ele>439.675</ele>
        <time>2020-08-30T10:50:03Z</time>
      </trkpt>
      <trkpt lat="39.836104" lon="-.516586">
        <ele>439.663</ele>
        <time>2020-08-30T10:50:04Z</time>
      </trkpt>
      <trkpt lat="39.836046" lon="-.516549">
        <ele>439.660</ele>
        <time>2020-08-30T10:50:05Z</time>
      </trkpt>
      <trkpt lat="39.835992" lon="-.516513">
        <ele>439.688</ele>
        <time>2020-08-30T10:50:06Z</time>
      </trkpt>
      <trkpt lat="39.835928" lon="-.516472">
        <ele>439.398</ele>
        <time>2020-08-30T10:50:07Z</time>
      </trkpt>
      <trkpt lat="39.835876" lon="-.516428">
        <ele>439.273</ele>
        <time>2020-08-30T10:50:08Z</time>
      </trkpt>
      <trkpt lat="39.835824" lon="-.51639">
        <ele>439.085</ele>
        <time>2020-08-30T10:50:09Z</time>
      </trkpt>
      <trkpt lat="39.835774" lon="-.516331">
        <ele>438.913</ele>
        <time>2020-08-30T10:50:10Z</time>
      </trkpt>
      <trkpt lat="39.835737" lon="-.516283">
        <ele>438.608</ele>
        <time>2020-08-30T10:50:11Z</time>
      </trkpt>
      <trkpt lat="39.835682" lon="-.516231">
        <ele>438.362</ele>
        <time>2020-08-30T10:50:12Z</time>
      </trkpt>
      <trkpt lat="39.835638" lon="-.516174">
        <ele>438.012</ele>
        <time>2020-08-30T10:50:13Z</time>
      </trkpt>
      <trkpt lat="39.835597" lon="-.516123">
        <ele>437.874</ele>
        <time>2020-08-30T10:50:14Z</time>
      </trkpt>
      <trkpt lat="39.835552" lon="-.51607">
        <ele>437.516</ele>
        <time>2020-08-30T10:50:15Z</time>
      </trkpt>
      <trkpt lat="39.83551" lon="-.516008">
        <ele>437.514</ele>
        <time>2020-08-30T10:50:16Z</time>
      </trkpt>
      <trkpt lat="39.835477" lon="-.515954">
        <ele>437.591</ele>
        <time>2020-08-30T10:50:17Z</time>
      </trkpt>
      <trkpt lat="39.835442" lon="-.515893">
        <ele>437.539</ele>
        <time>2020-08-30T10:50:18Z</time>
      </trkpt>
      <trkpt lat="39.835414" lon="-.515834">
        <ele>437.569</ele>
        <time>2020-08-30T10:50:19Z</time>
      </trkpt>
      <trkpt lat="39.835382" lon="-.515776">
        <ele>437.327</ele>
        <time>2020-08-30T10:50:20Z</time>
      </trkpt>
      <trkpt lat="39.835349" lon="-.515714">
        <ele>437.268</ele>
        <time>2020-08-30T10:50:21Z</time>
      </trkpt>
      <trkpt lat="39.835327" lon="-.51565">
        <ele>437.114</ele>
        <time>2020-08-30T10:50:22Z</time>
      </trkpt>
      <trkpt lat="39.835299" lon="-.515588">
        <ele>436.908</ele>
        <time>2020-08-30T10:50:23Z</time>
      </trkpt>
      <trkpt lat="39.835274" lon="-.51553">
        <ele>436.767</ele>
        <time>2020-08-30T10:50:24Z</time>
      </trkpt>
      <trkpt lat="39.835241" lon="-.515465">
        <ele>436.637</ele>
        <time>2020-08-30T10:50:25Z</time>
      </trkpt>
      <trkpt lat="39.835217" lon="-.515394">
        <ele>436.529</ele>
        <time>2020-08-30T10:50:26Z</time>
      </trkpt>
      <trkpt lat="39.835193" lon="-.515318">
        <ele>436.331</ele>
        <time>2020-08-30T10:50:27Z</time>
      </trkpt>
      <trkpt lat="39.83517" lon="-.515244">
        <ele>436.169</ele>
        <time>2020-08-30T10:50:28Z</time>
      </trkpt>
      <trkpt lat="39.835151" lon="-.515176">
        <ele>436.086</ele>
        <time>2020-08-30T10:50:29Z</time>
      </trkpt>
      <trkpt lat="39.835141" lon="-.515112">
        <ele>435.894</ele>
        <time>2020-08-30T10:50:30Z</time>
      </trkpt>
      <trkpt lat="39.835125" lon="-.515054">
        <ele>435.534</ele>
        <time>2020-08-30T10:50:31Z</time>
      </trkpt>
      <trkpt lat="39.835108" lon="-.514997">
        <ele>435.341</ele>
        <time>2020-08-30T10:50:32Z</time>
      </trkpt>
      <trkpt lat="39.835097" lon="-.514895">
        <ele>434.981</ele>
        <time>2020-08-30T10:50:34Z</time>
      </trkpt>
      <trkpt lat="39.835081" lon="-.514835">
        <ele>434.809</ele>
        <time>2020-08-30T10:50:35Z</time>
      </trkpt>
      <trkpt lat="39.835083" lon="-.514767">
        <ele>434.808</ele>
        <time>2020-08-30T10:50:36Z</time>
      </trkpt>
      <trkpt lat="39.835078" lon="-.5147">
        <ele>434.889</ele>
        <time>2020-08-30T10:50:37Z</time>
      </trkpt>
      <trkpt lat="39.835059" lon="-.51462">
        <ele>434.829</ele>
        <time>2020-08-30T10:50:38Z</time>
      </trkpt>
      <trkpt lat="39.835058" lon="-.514544">
        <ele>434.821</ele>
        <time>2020-08-30T10:50:39Z</time>
      </trkpt>
      <trkpt lat="39.835045" lon="-.514472">
        <ele>434.923</ele>
        <time>2020-08-30T10:50:40Z</time>
      </trkpt>
      <trkpt lat="39.835043" lon="-.514402">
        <ele>434.981</ele>
        <time>2020-08-30T10:50:41Z</time>
      </trkpt>
      <trkpt lat="39.835033" lon="-.514331">
        <ele>434.998</ele>
        <time>2020-08-30T10:50:42Z</time>
      </trkpt>
      <trkpt lat="39.835028" lon="-.514251">
        <ele>434.636</ele>
        <time>2020-08-30T10:50:43Z</time>
      </trkpt>
      <trkpt lat="39.835032" lon="-.514191">
        <ele>434.336</ele>
        <time>2020-08-30T10:50:44Z</time>
      </trkpt>
      <trkpt lat="39.835051" lon="-.514132">
        <ele>434.377</ele>
        <time>2020-08-30T10:50:45Z</time>
      </trkpt>
      <trkpt lat="39.835059" lon="-.514063">
        <ele>434.361</ele>
        <time>2020-08-30T10:50:46Z</time>
      </trkpt>
      <trkpt lat="39.835072" lon="-.514002">
        <ele>434.327</ele>
        <time>2020-08-30T10:50:47Z</time>
      </trkpt>
      <trkpt lat="39.835083" lon="-.513944">
        <ele>434.308</ele>
        <time>2020-08-30T10:50:48Z</time>
      </trkpt>
      <trkpt lat="39.835088" lon="-.513885">
        <ele>434.482</ele>
        <time>2020-08-30T10:50:49Z</time>
      </trkpt>
      <trkpt lat="39.835109" lon="-.513817">
        <ele>434.422</ele>
        <time>2020-08-30T10:50:50Z</time>
      </trkpt>
      <trkpt lat="39.835128" lon="-.513762">
        <ele>434.254</ele>
        <time>2020-08-30T10:50:51Z</time>
      </trkpt>
      <trkpt lat="39.835138" lon="-.513694">
        <ele>434.036</ele>
        <time>2020-08-30T10:50:52Z</time>
      </trkpt>
      <trkpt lat="39.835145" lon="-.51361">
        <ele>433.684</ele>
        <time>2020-08-30T10:50:53Z</time>
      </trkpt>
      <trkpt lat="39.835157" lon="-.513535">
        <ele>433.511</ele>
        <time>2020-08-30T10:50:54Z</time>
      </trkpt>
      <trkpt lat="39.835186" lon="-.513461">
        <ele>433.439</ele>
        <time>2020-08-30T10:50:55Z</time>
      </trkpt>
      <trkpt lat="39.835201" lon="-.513379">
        <ele>433.279</ele>
        <time>2020-08-30T10:50:56Z</time>
      </trkpt>
      <trkpt lat="39.835212" lon="-.513298">
        <ele>433.087</ele>
        <time>2020-08-30T10:50:57Z</time>
      </trkpt>
      <trkpt lat="39.835222" lon="-.513227">
        <ele>432.842</ele>
        <time>2020-08-30T10:50:58Z</time>
      </trkpt>
      <trkpt lat="39.83523" lon="-.513152">
        <ele>432.626</ele>
        <time>2020-08-30T10:50:59Z</time>
      </trkpt>
      <trkpt lat="39.835253" lon="-.513081">
        <ele>432.308</ele>
        <time>2020-08-30T10:51:00Z</time>
      </trkpt>
      <trkpt lat="39.835267" lon="-.513014">
        <ele>432.223</ele>
        <time>2020-08-30T10:51:01Z</time>
      </trkpt>
      <trkpt lat="39.835289" lon="-.512957">
        <ele>432.183</ele>
        <time>2020-08-30T10:51:02Z</time>
      </trkpt>
      <trkpt lat="39.835304" lon="-.512886">
        <ele>431.925</ele>
        <time>2020-08-30T10:51:03Z</time>
      </trkpt>
      <trkpt lat="39.835309" lon="-.512818">
        <ele>431.617</ele>
        <time>2020-08-30T10:51:04Z</time>
      </trkpt>
      <trkpt lat="39.835329" lon="-.512744">
        <ele>431.565</ele>
        <time>2020-08-30T10:51:05Z</time>
      </trkpt>
      <trkpt lat="39.835348" lon="-.51267">
        <ele>431.482</ele>
        <time>2020-08-30T10:51:06Z</time>
      </trkpt>
      <trkpt lat="39.835369" lon="-.512606">
        <ele>431.380</ele>
        <time>2020-08-30T10:51:07Z</time>
      </trkpt>
      <trkpt lat="39.835376" lon="-.512537">
        <ele>431.360</ele>
        <time>2020-08-30T10:51:08Z</time>
      </trkpt>
      <trkpt lat="39.835417" lon="-.512424">
        <ele>431.383</ele>
        <time>2020-08-30T10:51:10Z</time>
      </trkpt>
      <trkpt lat="39.835445" lon="-.51234">
        <ele>431.325</ele>
        <time>2020-08-30T10:51:11Z</time>
      </trkpt>
      <trkpt lat="39.83547" lon="-.512263">
        <ele>431.317</ele>
        <time>2020-08-30T10:51:12Z</time>
      </trkpt>
      <trkpt lat="39.835499" lon="-.512182">
        <ele>431.508</ele>
        <time>2020-08-30T10:51:13Z</time>
      </trkpt>
      <trkpt lat="39.835518" lon="-.512106">
        <ele>431.573</ele>
        <time>2020-08-30T10:51:14Z</time>
      </trkpt>
      <trkpt lat="39.835547" lon="-.512036">
        <ele>431.523</ele>
        <time>2020-08-30T10:51:15Z</time>
      </trkpt>
      <trkpt lat="39.835572" lon="-.511974">
        <ele>431.525</ele>
        <time>2020-08-30T10:51:16Z</time>
      </trkpt>
      <trkpt lat="39.835595" lon="-.511915">
        <ele>431.597</ele>
        <time>2020-08-30T10:51:17Z</time>
      </trkpt>
      <trkpt lat="39.835631" lon="-.511854">
        <ele>431.655</ele>
        <time>2020-08-30T10:51:18Z</time>
      </trkpt>
      <trkpt lat="39.835664" lon="-.511789">
        <ele>431.772</ele>
        <time>2020-08-30T10:51:19Z</time>
      </trkpt>
      <trkpt lat="39.835693" lon="-.511732">
        <ele>431.790</ele>
        <time>2020-08-30T10:51:20Z</time>
      </trkpt>
      <trkpt lat="39.835721" lon="-.511674">
        <ele>431.770</ele>
        <time>2020-08-30T10:51:21Z</time>
      </trkpt>
      <trkpt lat="39.835754" lon="-.511609">
        <ele>431.618</ele>
        <time>2020-08-30T10:51:22Z</time>
      </trkpt>
      <trkpt lat="39.835787" lon="-.511555">
        <ele>431.598</ele>
        <time>2020-08-30T10:51:23Z</time>
      </trkpt>
      <trkpt lat="39.835815" lon="-.5115">
        <ele>431.417</ele>
        <time>2020-08-30T10:51:24Z</time>
      </trkpt>
      <trkpt lat="39.835841" lon="-.511445">
        <ele>431.308</ele>
        <time>2020-08-30T10:51:25Z</time>
      </trkpt>
      <trkpt lat="39.835865" lon="-.511386">
        <ele>431.226</ele>
        <time>2020-08-30T10:51:26Z</time>
      </trkpt>
      <trkpt lat="39.835885" lon="-.511333">
        <ele>431.136</ele>
        <time>2020-08-30T10:51:27Z</time>
      </trkpt>
      <trkpt lat="39.835927" lon="-.511224">
        <ele>431.198</ele>
        <time>2020-08-30T10:51:29Z</time>
      </trkpt>
      <trkpt lat="39.835954" lon="-.511173">
        <ele>431.160</ele>
        <time>2020-08-30T10:51:30Z</time>
      </trkpt>
      <trkpt lat="39.836003" lon="-.511091">
        <ele>431.088</ele>
        <time>2020-08-30T10:51:32Z</time>
      </trkpt>
      <trkpt lat="39.836024" lon="-.511037">
        <ele>431.065</ele>
        <time>2020-08-30T10:51:33Z</time>
      </trkpt>
      <trkpt lat="39.836077" lon="-.510937">
        <ele>431.193</ele>
        <time>2020-08-30T10:51:35Z</time>
      </trkpt>
      <trkpt lat="39.836099" lon="-.510872">
        <ele>431.243</ele>
        <time>2020-08-30T10:51:36Z</time>
      </trkpt>
      <trkpt lat="39.836133" lon="-.510816">
        <ele>431.234</ele>
        <time>2020-08-30T10:51:37Z</time>
      </trkpt>
      <trkpt lat="39.836163" lon="-.510751">
        <ele>431.155</ele>
        <time>2020-08-30T10:51:39Z</time>
      </trkpt>
      <trkpt lat="39.836197" lon="-.510657">
        <ele>430.810</ele>
        <time>2020-08-30T10:51:42Z</time>
      </trkpt>
      <trkpt lat="39.836242" lon="-.510568">
        <ele>430.808</ele>
        <time>2020-08-30T10:51:44Z</time>
      </trkpt>
      <trkpt lat="39.83628" lon="-.510492">
        <ele>430.948</ele>
        <time>2020-08-30T10:51:46Z</time>
      </trkpt>
      <trkpt lat="39.83631" lon="-.510413">
        <ele>430.958</ele>
        <time>2020-08-30T10:51:48Z</time>
      </trkpt>
      <trkpt lat="39.836353" lon="-.510328">
        <ele>430.950</ele>
        <time>2020-08-30T10:51:50Z</time>
      </trkpt>
      <trkpt lat="39.836381" lon="-.510246">
        <ele>431.052</ele>
        <time>2020-08-30T10:51:52Z</time>
      </trkpt>
      <trkpt lat="39.836414" lon="-.510139">
        <ele>431.010</ele>
        <time>2020-08-30T10:51:54Z</time>
      </trkpt>
      <trkpt lat="39.836456" lon="-.510045">
        <ele>431.147</ele>
        <time>2020-08-30T10:51:56Z</time>
      </trkpt>
      <trkpt lat="39.836486" lon="-.509991">
        <ele>431.155</ele>
        <time>2020-08-30T10:51:57Z</time>
      </trkpt>
      <trkpt lat="39.836526" lon="-.509905">
        <ele>431.115</ele>
        <time>2020-08-30T10:51:59Z</time>
      </trkpt>
      <trkpt lat="39.836566" lon="-.509842">
        <ele>431.027</ele>
        <time>2020-08-30T10:52:01Z</time>
      </trkpt>
      <trkpt lat="39.836602" lon="-.509753">
        <ele>431.068</ele>
        <time>2020-08-30T10:52:03Z</time>
      </trkpt>
      <trkpt lat="39.836624" lon="-.509682">
        <ele>431.014</ele>
        <time>2020-08-30T10:52:05Z</time>
      </trkpt>
      <trkpt lat="39.836634" lon="-.509577">
        <ele>431.008</ele>
        <time>2020-08-30T10:52:07Z</time>
      </trkpt>
      <trkpt lat="39.836662" lon="-.509473">
        <ele>431.067</ele>
        <time>2020-08-30T10:52:09Z</time>
      </trkpt>
      <trkpt lat="39.836713" lon="-.509397">
        <ele>431.157</ele>
        <time>2020-08-30T10:52:11Z</time>
      </trkpt>
      <trkpt lat="39.836747" lon="-.509322">
        <ele>431.189</ele>
        <time>2020-08-30T10:52:12Z</time>
      </trkpt>
      <trkpt lat="39.836774" lon="-.509262">
        <ele>431.171</ele>
        <time>2020-08-30T10:52:13Z</time>
      </trkpt>
      <trkpt lat="39.836807" lon="-.50919">
        <ele>431.149</ele>
        <time>2020-08-30T10:52:15Z</time>
      </trkpt>
      <trkpt lat="39.836836" lon="-.509123">
        <ele>431.196</ele>
        <time>2020-08-30T10:52:16Z</time>
      </trkpt>
      <trkpt lat="39.836862" lon="-.509057">
        <ele>431.114</ele>
        <time>2020-08-30T10:52:17Z</time>
      </trkpt>
      <trkpt lat="39.836884" lon="-.508991">
        <ele>431.144</ele>
        <time>2020-08-30T10:52:18Z</time>
      </trkpt>
      <trkpt lat="39.836906" lon="-.508933">
        <ele>431.122</ele>
        <time>2020-08-30T10:52:19Z</time>
      </trkpt>
      <trkpt lat="39.83693" lon="-.508877">
        <ele>431.162</ele>
        <time>2020-08-30T10:52:20Z</time>
      </trkpt>
      <trkpt lat="39.836965" lon="-.508815">
        <ele>431.208</ele>
        <time>2020-08-30T10:52:21Z</time>
      </trkpt>
      <trkpt lat="39.83699" lon="-.508757">
        <ele>431.308</ele>
        <time>2020-08-30T10:52:22Z</time>
      </trkpt>
      <trkpt lat="39.837021" lon="-.508697">
        <ele>431.317</ele>
        <time>2020-08-30T10:52:23Z</time>
      </trkpt>
      <trkpt lat="39.837048" lon="-.508637">
        <ele>431.387</ele>
        <time>2020-08-30T10:52:24Z</time>
      </trkpt>
      <trkpt lat="39.837092" lon="-.508557">
        <ele>431.149</ele>
        <time>2020-08-30T10:52:26Z</time>
      </trkpt>
      <trkpt lat="39.837107" lon="-.508487">
        <ele>431.051</ele>
        <time>2020-08-30T10:52:27Z</time>
      </trkpt>
      <trkpt lat="39.83712" lon="-.508424">
        <ele>431.049</ele>
        <time>2020-08-30T10:52:28Z</time>
      </trkpt>
      <trkpt lat="39.837152" lon="-.508294">
        <ele>431.096</ele>
        <time>2020-08-30T10:52:30Z</time>
      </trkpt>
      <trkpt lat="39.837166" lon="-.508237">
        <ele>430.954</ele>
        <time>2020-08-30T10:52:31Z</time>
      </trkpt>
      <trkpt lat="39.837177" lon="-.508179">
        <ele>430.824</ele>
        <time>2020-08-30T10:52:32Z</time>
      </trkpt>
      <trkpt lat="39.837187" lon="-.508092">
        <ele>430.712</ele>
        <time>2020-08-30T10:52:33Z</time>
      </trkpt>
      <trkpt lat="39.837217" lon="-.508013">
        <ele>430.632</ele>
        <time>2020-08-30T10:52:34Z</time>
      </trkpt>
      <trkpt lat="39.837231" lon="-.507935">
        <ele>430.505</ele>
        <time>2020-08-30T10:52:35Z</time>
      </trkpt>
      <trkpt lat="39.837242" lon="-.50786">
        <ele>430.508</ele>
        <time>2020-08-30T10:52:36Z</time>
      </trkpt>
      <trkpt lat="39.837255" lon="-.50779">
        <ele>430.576</ele>
        <time>2020-08-30T10:52:37Z</time>
      </trkpt>
      <trkpt lat="39.837268" lon="-.507726">
        <ele>430.496</ele>
        <time>2020-08-30T10:52:38Z</time>
      </trkpt>
      <trkpt lat="39.837301" lon="-.507617">
        <ele>430.258</ele>
        <time>2020-08-30T10:52:40Z</time>
      </trkpt>
      <trkpt lat="39.8373" lon="-.507532">
        <ele>430.170</ele>
        <time>2020-08-30T10:52:41Z</time>
      </trkpt>
      <trkpt lat="39.837308" lon="-.507455">
        <ele>429.998</ele>
        <time>2020-08-30T10:52:42Z</time>
      </trkpt>
      <trkpt lat="39.837316" lon="-.507381">
        <ele>429.895</ele>
        <time>2020-08-30T10:52:43Z</time>
      </trkpt>
      <trkpt lat="39.837331" lon="-.507307">
        <ele>429.893</ele>
        <time>2020-08-30T10:52:44Z</time>
      </trkpt>
      <trkpt lat="39.83734" lon="-.507222">
        <ele>429.833</ele>
        <time>2020-08-30T10:52:45Z</time>
      </trkpt>
      <trkpt lat="39.837342" lon="-.507154">
        <ele>429.865</ele>
        <time>2020-08-30T10:52:46Z</time>
      </trkpt>
      <trkpt lat="39.837339" lon="-.507057">
        <ele>429.568</ele>
        <time>2020-08-30T10:52:48Z</time>
      </trkpt>
      <trkpt lat="39.837347" lon="-.506937">
        <ele>429.114</ele>
        <time>2020-08-30T10:52:50Z</time>
      </trkpt>
      <trkpt lat="39.837344" lon="-.506852">
        <ele>429.008</ele>
        <time>2020-08-30T10:52:51Z</time>
      </trkpt>
      <trkpt lat="39.83735" lon="-.50677">
        <ele>428.981</ele>
        <time>2020-08-30T10:52:52Z</time>
      </trkpt>
      <trkpt lat="39.837352" lon="-.506692">
        <ele>428.841</ele>
        <time>2020-08-30T10:52:53Z</time>
      </trkpt>
      <trkpt lat="39.837353" lon="-.506613">
        <ele>428.713</ele>
        <time>2020-08-30T10:52:54Z</time>
      </trkpt>
      <trkpt lat="39.837358" lon="-.506527">
        <ele>428.625</ele>
        <time>2020-08-30T10:52:55Z</time>
      </trkpt>
      <trkpt lat="39.837351" lon="-.50645">
        <ele>428.593</ele>
        <time>2020-08-30T10:52:56Z</time>
      </trkpt>
      <trkpt lat="39.837341" lon="-.506378">
        <ele>428.420</ele>
        <time>2020-08-30T10:52:57Z</time>
      </trkpt>
      <trkpt lat="39.83734" lon="-.506305">
        <ele>428.358</ele>
        <time>2020-08-30T10:52:58Z</time>
      </trkpt>
      <trkpt lat="39.837338" lon="-.506231">
        <ele>428.228</ele>
        <time>2020-08-30T10:52:59Z</time>
      </trkpt>
      <trkpt lat="39.837333" lon="-.506159">
        <ele>428.094</ele>
        <time>2020-08-30T10:53:00Z</time>
      </trkpt>
      <trkpt lat="39.837329" lon="-.506086">
        <ele>427.857</ele>
        <time>2020-08-30T10:53:01Z</time>
      </trkpt>
      <trkpt lat="39.837317" lon="-.506006">
        <ele>427.622</ele>
        <time>2020-08-30T10:53:02Z</time>
      </trkpt>
      <trkpt lat="39.837311" lon="-.505921">
        <ele>427.408</ele>
        <time>2020-08-30T10:53:03Z</time>
      </trkpt>
      <trkpt lat="39.837302" lon="-.505841">
        <ele>427.224</ele>
        <time>2020-08-30T10:53:04Z</time>
      </trkpt>
      <trkpt lat="39.8373" lon="-.505761">
        <ele>427.134</ele>
        <time>2020-08-30T10:53:05Z</time>
      </trkpt>
      <trkpt lat="39.83729" lon="-.505689">
        <ele>427.066</ele>
        <time>2020-08-30T10:53:06Z</time>
      </trkpt>
      <trkpt lat="39.837277" lon="-.505618">
        <ele>426.898</ele>
        <time>2020-08-30T10:53:07Z</time>
      </trkpt>
      <trkpt lat="39.837259" lon="-.505546">
        <ele>426.896</ele>
        <time>2020-08-30T10:53:08Z</time>
      </trkpt>
      <trkpt lat="39.837242" lon="-.505466">
        <ele>426.823</ele>
        <time>2020-08-30T10:53:09Z</time>
      </trkpt>
      <trkpt lat="39.837227" lon="-.505403">
        <ele>426.871</ele>
        <time>2020-08-30T10:53:10Z</time>
      </trkpt>
      <trkpt lat="39.837208" lon="-.505338">
        <ele>426.821</ele>
        <time>2020-08-30T10:53:11Z</time>
      </trkpt>
      <trkpt lat="39.837189" lon="-.505267">
        <ele>426.847</ele>
        <time>2020-08-30T10:53:12Z</time>
      </trkpt>
      <trkpt lat="39.837172" lon="-.505198">
        <ele>426.729</ele>
        <time>2020-08-30T10:53:13Z</time>
      </trkpt>
      <trkpt lat="39.837158" lon="-.505133">
        <ele>426.521</ele>
        <time>2020-08-30T10:53:14Z</time>
      </trkpt>
      <trkpt lat="39.837136" lon="-.505061">
        <ele>426.308</ele>
        <time>2020-08-30T10:53:15Z</time>
      </trkpt>
      <trkpt lat="39.837114" lon="-.505002">
        <ele>426.219</ele>
        <time>2020-08-30T10:53:16Z</time>
      </trkpt>
      <trkpt lat="39.837093" lon="-.504933">
        <ele>426.189</ele>
        <time>2020-08-30T10:53:17Z</time>
      </trkpt>
      <trkpt lat="39.837072" lon="-.504871">
        <ele>426.051</ele>
        <time>2020-08-30T10:53:18Z</time>
      </trkpt>
      <trkpt lat="39.837047" lon="-.504808">
        <ele>425.913</ele>
        <time>2020-08-30T10:53:19Z</time>
      </trkpt>
      <trkpt lat="39.837023" lon="-.504741">
        <ele>425.751</ele>
        <time>2020-08-30T10:53:20Z</time>
      </trkpt>
      <trkpt lat="39.837004" lon="-.504676">
        <ele>425.548</ele>
        <time>2020-08-30T10:53:21Z</time>
      </trkpt>
      <trkpt lat="39.836982" lon="-.504606">
        <ele>425.316</ele>
        <time>2020-08-30T10:53:22Z</time>
      </trkpt>
      <trkpt lat="39.836954" lon="-.504545">
        <ele>425.146</ele>
        <time>2020-08-30T10:53:23Z</time>
      </trkpt>
      <trkpt lat="39.836928" lon="-.50447">
        <ele>425.048</ele>
        <time>2020-08-30T10:53:24Z</time>
      </trkpt>
      <trkpt lat="39.836897" lon="-.504408">
        <ele>425.061</ele>
        <time>2020-08-30T10:53:25Z</time>
      </trkpt>
      <trkpt lat="39.836864" lon="-.504339">
        <ele>425.017</ele>
        <time>2020-08-30T10:53:26Z</time>
      </trkpt>
      <trkpt lat="39.836835" lon="-.504268">
        <ele>425.008</ele>
        <time>2020-08-30T10:53:27Z</time>
      </trkpt>
      <trkpt lat="39.8368" lon="-.504199">
        <ele>424.979</ele>
        <time>2020-08-30T10:53:28Z</time>
      </trkpt>
      <trkpt lat="39.836768" lon="-.50413">
        <ele>424.899</ele>
        <time>2020-08-30T10:53:29Z</time>
      </trkpt>
      <trkpt lat="39.836736" lon="-.504062">
        <ele>424.751</ele>
        <time>2020-08-30T10:53:30Z</time>
      </trkpt>
      <trkpt lat="39.836709" lon="-.503993">
        <ele>424.763</ele>
        <time>2020-08-30T10:53:31Z</time>
      </trkpt>
      <trkpt lat="39.836678" lon="-.503927">
        <ele>424.681</ele>
        <time>2020-08-30T10:53:32Z</time>
      </trkpt>
      <trkpt lat="39.836649" lon="-.50386">
        <ele>424.518</ele>
        <time>2020-08-30T10:53:33Z</time>
      </trkpt>
      <trkpt lat="39.836619" lon="-.503796">
        <ele>424.426</ele>
        <time>2020-08-30T10:53:34Z</time>
      </trkpt>
      <trkpt lat="39.836591" lon="-.503742">
        <ele>424.336</ele>
        <time>2020-08-30T10:53:35Z</time>
      </trkpt>
      <trkpt lat="39.836563" lon="-.50368">
        <ele>424.139</ele>
        <time>2020-08-30T10:53:36Z</time>
      </trkpt>
      <trkpt lat="39.836546" lon="-.50362">
        <ele>424.001</ele>
        <time>2020-08-30T10:53:37Z</time>
      </trkpt>
      <trkpt lat="39.836515" lon="-.503548">
        <ele>423.821</ele>
        <time>2020-08-30T10:53:38Z</time>
      </trkpt>
      <trkpt lat="39.836486" lon="-.503487">
        <ele>423.708</ele>
        <time>2020-08-30T10:53:39Z</time>
      </trkpt>
      <trkpt lat="39.836456" lon="-.503426">
        <ele>423.688</ele>
        <time>2020-08-30T10:53:40Z</time>
      </trkpt>
      <trkpt lat="39.836425" lon="-.50336">
        <ele>423.528</ele>
        <time>2020-08-30T10:53:41Z</time>
      </trkpt>
      <trkpt lat="39.836399" lon="-.5033">
        <ele>423.580</ele>
        <time>2020-08-30T10:53:42Z</time>
      </trkpt>
      <trkpt lat="39.836372" lon="-.503236">
        <ele>423.522</ele>
        <time>2020-08-30T10:53:43Z</time>
      </trkpt>
      <trkpt lat="39.836336" lon="-.503172">
        <ele>423.460</ele>
        <time>2020-08-30T10:53:44Z</time>
      </trkpt>
      <trkpt lat="39.836304" lon="-.503106">
        <ele>423.327</ele>
        <time>2020-08-30T10:53:45Z</time>
      </trkpt>
      <trkpt lat="39.836274" lon="-.503038">
        <ele>423.185</ele>
        <time>2020-08-30T10:53:46Z</time>
      </trkpt>
      <trkpt lat="39.836245" lon="-.502979">
        <ele>422.945</ele>
        <time>2020-08-30T10:53:47Z</time>
      </trkpt>
      <trkpt lat="39.836217" lon="-.502928">
        <ele>422.818</ele>
        <time>2020-08-30T10:53:48Z</time>
      </trkpt>
      <trkpt lat="39.836185" lon="-.502864">
        <ele>422.798</ele>
        <time>2020-08-30T10:53:49Z</time>
      </trkpt>
      <trkpt lat="39.836161" lon="-.502798">
        <ele>422.717</ele>
        <time>2020-08-30T10:53:50Z</time>
      </trkpt>
      <trkpt lat="39.836134" lon="-.502728">
        <ele>422.608</ele>
        <time>2020-08-30T10:53:51Z</time>
      </trkpt>
      <trkpt lat="39.836104" lon="-.502663">
        <ele>422.586</ele>
        <time>2020-08-30T10:53:52Z</time>
      </trkpt>
      <trkpt lat="39.836072" lon="-.502599">
        <ele>422.316</ele>
        <time>2020-08-30T10:53:53Z</time>
      </trkpt>
      <trkpt lat="39.836047" lon="-.502545">
        <ele>422.158</ele>
        <time>2020-08-30T10:53:54Z</time>
      </trkpt>
      <trkpt lat="39.836023" lon="-.502489">
        <ele>421.910</ele>
        <time>2020-08-30T10:53:55Z</time>
      </trkpt>
      <trkpt lat="39.835997" lon="-.502428">
        <ele>421.848</ele>
        <time>2020-08-30T10:53:56Z</time>
      </trkpt>
      <trkpt lat="39.835969" lon="-.502364">
        <ele>421.745</ele>
        <time>2020-08-30T10:53:57Z</time>
      </trkpt>
      <trkpt lat="39.835947" lon="-.502304">
        <ele>421.783</ele>
        <time>2020-08-30T10:53:58Z</time>
      </trkpt>
      <trkpt lat="39.83592" lon="-.502237">
        <ele>421.753</ele>
        <time>2020-08-30T10:53:59Z</time>
      </trkpt>
      <trkpt lat="39.835885" lon="-.502163">
        <ele>421.568</ele>
        <time>2020-08-30T10:54:00Z</time>
      </trkpt>
      <trkpt lat="39.835851" lon="-.502099">
        <ele>421.242</ele>
        <time>2020-08-30T10:54:01Z</time>
      </trkpt>
      <trkpt lat="39.835819" lon="-.502039">
        <ele>420.826</ele>
        <time>2020-08-30T10:54:02Z</time>
      </trkpt>
      <trkpt lat="39.835788" lon="-.501972">
        <ele>420.508</ele>
        <time>2020-08-30T10:54:03Z</time>
      </trkpt>
      <trkpt lat="39.835759" lon="-.501906">
        <ele>420.471</ele>
        <time>2020-08-30T10:54:04Z</time>
      </trkpt>
      <trkpt lat="39.835722" lon="-.501832">
        <ele>420.421</ele>
        <time>2020-08-30T10:54:05Z</time>
      </trkpt>
      <trkpt lat="39.83569" lon="-.50175">
        <ele>420.323</ele>
        <time>2020-08-30T10:54:06Z</time>
      </trkpt>
      <trkpt lat="39.835654" lon="-.501682">
        <ele>420.145</ele>
        <time>2020-08-30T10:54:07Z</time>
      </trkpt>
      <trkpt lat="39.835621" lon="-.501615">
        <ele>420.033</ele>
        <time>2020-08-30T10:54:08Z</time>
      </trkpt>
      <trkpt lat="39.835592" lon="-.501549">
        <ele>419.990</ele>
        <time>2020-08-30T10:54:09Z</time>
      </trkpt>
      <trkpt lat="39.835558" lon="-.501477">
        <ele>419.738</ele>
        <time>2020-08-30T10:54:10Z</time>
      </trkpt>
      <trkpt lat="39.835529" lon="-.501408">
        <ele>419.698</ele>
        <time>2020-08-30T10:54:11Z</time>
      </trkpt>
      <trkpt lat="39.835505" lon="-.501349">
        <ele>419.571</ele>
        <time>2020-08-30T10:54:12Z</time>
      </trkpt>
      <trkpt lat="39.835475" lon="-.501281">
        <ele>419.441</ele>
        <time>2020-08-30T10:54:13Z</time>
      </trkpt>
      <trkpt lat="39.835438" lon="-.501208">
        <ele>419.415</ele>
        <time>2020-08-30T10:54:14Z</time>
      </trkpt>
      <trkpt lat="39.835403" lon="-.501135">
        <ele>419.408</ele>
        <time>2020-08-30T10:54:15Z</time>
      </trkpt>
      <trkpt lat="39.835375" lon="-.501067">
        <ele>419.432</ele>
        <time>2020-08-30T10:54:16Z</time>
      </trkpt>
      <trkpt lat="39.835346" lon="-.501005">
        <ele>419.392</ele>
        <time>2020-08-30T10:54:17Z</time>
      </trkpt>
      <trkpt lat="39.835317" lon="-.500942">
        <ele>419.244</ele>
        <time>2020-08-30T10:54:18Z</time>
      </trkpt>
      <trkpt lat="39.835287" lon="-.500873">
        <ele>419.036</ele>
        <time>2020-08-30T10:54:19Z</time>
      </trkpt>
      <trkpt lat="39.835257" lon="-.500809">
        <ele>418.584</ele>
        <time>2020-08-30T10:54:20Z</time>
      </trkpt>
      <trkpt lat="39.835224" lon="-.500744">
        <ele>418.381</ele>
        <time>2020-08-30T10:54:21Z</time>
      </trkpt>
      <trkpt lat="39.835194" lon="-.500683">
        <ele>418.219</ele>
        <time>2020-08-30T10:54:22Z</time>
      </trkpt>
      <trkpt lat="39.835166" lon="-.500626">
        <ele>418.099</ele>
        <time>2020-08-30T10:54:23Z</time>
      </trkpt>
      <trkpt lat="39.835141" lon="-.500561">
        <ele>417.949</ele>
        <time>2020-08-30T10:54:24Z</time>
      </trkpt>
      <trkpt lat="39.835117" lon="-.500502">
        <ele>417.802</ele>
        <time>2020-08-30T10:54:25Z</time>
      </trkpt>
      <trkpt lat="39.83509" lon="-.500453">
        <ele>417.722</ele>
        <time>2020-08-30T10:54:26Z</time>
      </trkpt>
      <trkpt lat="39.835064" lon="-.500395">
        <ele>417.608</ele>
        <time>2020-08-30T10:54:27Z</time>
      </trkpt>
      <trkpt lat="39.835036" lon="-.500326">
        <ele>417.549</ele>
        <time>2020-08-30T10:54:28Z</time>
      </trkpt>
      <trkpt lat="39.835004" lon="-.500256">
        <ele>417.469</ele>
        <time>2020-08-30T10:54:29Z</time>
      </trkpt>
      <trkpt lat="39.834967" lon="-.500139">
        <ele>417.371</ele>
        <time>2020-08-30T10:54:31Z</time>
      </trkpt>
      <trkpt lat="39.834943" lon="-.500068">
        <ele>417.293</ele>
        <time>2020-08-30T10:54:32Z</time>
      </trkpt>
      <trkpt lat="39.834911" lon="-.500002">
        <ele>417.171</ele>
        <time>2020-08-30T10:54:33Z</time>
      </trkpt>
      <trkpt lat="39.834891" lon="-.499932">
        <ele>417.038</ele>
        <time>2020-08-30T10:54:34Z</time>
      </trkpt>
      <trkpt lat="39.834857" lon="-.499872">
        <ele>416.926</ele>
        <time>2020-08-30T10:54:35Z</time>
      </trkpt>
      <trkpt lat="39.834824" lon="-.499804">
        <ele>416.816</ele>
        <time>2020-08-30T10:54:36Z</time>
      </trkpt>
      <trkpt lat="39.834803" lon="-.499734">
        <ele>416.712</ele>
        <time>2020-08-30T10:54:37Z</time>
      </trkpt>
      <trkpt lat="39.834785" lon="-.499674">
        <ele>416.632</ele>
        <time>2020-08-30T10:54:38Z</time>
      </trkpt>
      <trkpt lat="39.834744" lon="-.499621">
        <ele>416.605</ele>
        <time>2020-08-30T10:54:39Z</time>
      </trkpt>
      <trkpt lat="39.834712" lon="-.499554">
        <ele>416.508</ele>
        <time>2020-08-30T10:54:40Z</time>
      </trkpt>
      <trkpt lat="39.834663" lon="-.499471">
        <ele>416.466</ele>
        <time>2020-08-30T10:54:41Z</time>
      </trkpt>
      <trkpt lat="39.834625" lon="-.499406">
        <ele>416.366</ele>
        <time>2020-08-30T10:54:42Z</time>
      </trkpt>
      <trkpt lat="39.834573" lon="-.499331">
        <ele>416.288</ele>
        <time>2020-08-30T10:54:43Z</time>
      </trkpt>
      <trkpt lat="39.83452" lon="-.499252">
        <ele>416.160</ele>
        <time>2020-08-30T10:54:44Z</time>
      </trkpt>
      <trkpt lat="39.834482" lon="-.499169">
        <ele>416.078</ele>
        <time>2020-08-30T10:54:45Z</time>
      </trkpt>
      <trkpt lat="39.834452" lon="-.4991">
        <ele>415.915</ele>
        <time>2020-08-30T10:54:46Z</time>
      </trkpt>
      <trkpt lat="39.834423" lon="-.499028">
        <ele>415.873</ele>
        <time>2020-08-30T10:54:47Z</time>
      </trkpt>
      <trkpt lat="39.834396" lon="-.49896">
        <ele>415.763</ele>
        <time>2020-08-30T10:54:48Z</time>
      </trkpt>
      <trkpt lat="39.834361" lon="-.498887">
        <ele>415.656</ele>
        <time>2020-08-30T10:54:49Z</time>
      </trkpt>
      <trkpt lat="39.834314" lon="-.498809">
        <ele>415.559</ele>
        <time>2020-08-30T10:54:50Z</time>
      </trkpt>
      <trkpt lat="39.834278" lon="-.498725">
        <ele>415.414</ele>
        <time>2020-08-30T10:54:51Z</time>
      </trkpt>
      <trkpt lat="39.834249" lon="-.498638">
        <ele>415.308</ele>
        <time>2020-08-30T10:54:52Z</time>
      </trkpt>
      <trkpt lat="39.834208" lon="-.498551">
        <ele>415.280</ele>
        <time>2020-08-30T10:54:53Z</time>
      </trkpt>
      <trkpt lat="39.83417" lon="-.498469">
        <ele>415.080</ele>
        <time>2020-08-30T10:54:54Z</time>
      </trkpt>
      <trkpt lat="39.834144" lon="-.498399">
        <ele>414.892</ele>
        <time>2020-08-30T10:54:55Z</time>
      </trkpt>
      <trkpt lat="39.834125" lon="-.498333">
        <ele>414.594</ele>
        <time>2020-08-30T10:54:56Z</time>
      </trkpt>
      <trkpt lat="39.834093" lon="-.498263">
        <ele>413.922</ele>
        <time>2020-08-30T10:54:57Z</time>
      </trkpt>
      <trkpt lat="39.834055" lon="-.498197">
        <ele>413.759</ele>
        <time>2020-08-30T10:54:58Z</time>
      </trkpt>
      <trkpt lat="39.834024" lon="-.498133">
        <ele>413.677</ele>
        <time>2020-08-30T10:54:59Z</time>
      </trkpt>
      <trkpt lat="39.834007" lon="-.498066">
        <ele>413.617</ele>
        <time>2020-08-30T10:55:00Z</time>
      </trkpt>
      <trkpt lat="39.833976" lon="-.497989">
        <ele>413.681</ele>
        <time>2020-08-30T10:55:01Z</time>
      </trkpt>
      <trkpt lat="39.833955" lon="-.497916">
        <ele>413.661</ele>
        <time>2020-08-30T10:55:02Z</time>
      </trkpt>
      <trkpt lat="39.833926" lon="-.497834">
        <ele>413.617</ele>
        <time>2020-08-30T10:55:03Z</time>
      </trkpt>
      <trkpt lat="39.833894" lon="-.497752">
        <ele>413.508</ele>
        <time>2020-08-30T10:55:04Z</time>
      </trkpt>
      <trkpt lat="39.833858" lon="-.497673">
        <ele>413.473</ele>
        <time>2020-08-30T10:55:05Z</time>
      </trkpt>
      <trkpt lat="39.833829" lon="-.497598">
        <ele>413.243</ele>
        <time>2020-08-30T10:55:06Z</time>
      </trkpt>
      <trkpt lat="39.833804" lon="-.497527">
        <ele>413.035</ele>
        <time>2020-08-30T10:55:07Z</time>
      </trkpt>
      <trkpt lat="39.833788" lon="-.497462">
        <ele>412.837</ele>
        <time>2020-08-30T10:55:08Z</time>
      </trkpt>
      <trkpt lat="39.833762" lon="-.497388">
        <ele>412.615</ele>
        <time>2020-08-30T10:55:09Z</time>
      </trkpt>
      <trkpt lat="39.833735" lon="-.497319">
        <ele>412.492</ele>
        <time>2020-08-30T10:55:10Z</time>
      </trkpt>
      <trkpt lat="39.833713" lon="-.49725">
        <ele>412.350</ele>
        <time>2020-08-30T10:55:11Z</time>
      </trkpt>
      <trkpt lat="39.833683" lon="-.497183">
        <ele>412.240</ele>
        <time>2020-08-30T10:55:12Z</time>
      </trkpt>
      <trkpt lat="39.833656" lon="-.497103">
        <ele>412.178</ele>
        <time>2020-08-30T10:55:13Z</time>
      </trkpt>
      <trkpt lat="39.833627" lon="-.497048">
        <ele>412.133</ele>
        <time>2020-08-30T10:55:14Z</time>
      </trkpt>
      <trkpt lat="39.833604" lon="-.49699">
        <ele>412.026</ele>
        <time>2020-08-30T10:55:15Z</time>
      </trkpt>
      <trkpt lat="39.833576" lon="-.496918">
        <ele>411.908</ele>
        <time>2020-08-30T10:55:16Z</time>
      </trkpt>
      <trkpt lat="39.833547" lon="-.49685">
        <ele>411.872</ele>
        <time>2020-08-30T10:55:17Z</time>
      </trkpt>
      <trkpt lat="39.833529" lon="-.496779">
        <ele>411.532</ele>
        <time>2020-08-30T10:55:18Z</time>
      </trkpt>
      <trkpt lat="39.833518" lon="-.496713">
        <ele>411.314</ele>
        <time>2020-08-30T10:55:19Z</time>
      </trkpt>
      <trkpt lat="39.833491" lon="-.496657">
        <ele>411.266</ele>
        <time>2020-08-30T10:55:20Z</time>
      </trkpt>
      <trkpt lat="39.833463" lon="-.496608">
        <ele>411.174</ele>
        <time>2020-08-30T10:55:21Z</time>
      </trkpt>
      <trkpt lat="39.833417" lon="-.496517">
        <ele>411.021</ele>
        <time>2020-08-30T10:55:23Z</time>
      </trkpt>
      <trkpt lat="39.833398" lon="-.496452">
        <ele>411.099</ele>
        <time>2020-08-30T10:55:24Z</time>
      </trkpt>
      <trkpt lat="39.833376" lon="-.496397">
        <ele>410.999</ele>
        <time>2020-08-30T10:55:25Z</time>
      </trkpt>
      <trkpt lat="39.833353" lon="-.49633">
        <ele>410.877</ele>
        <time>2020-08-30T10:55:26Z</time>
      </trkpt>
      <trkpt lat="39.833316" lon="-.496236">
        <ele>410.461</ele>
        <time>2020-08-30T10:55:28Z</time>
      </trkpt>
      <trkpt lat="39.833283" lon="-.496126">
        <ele>410.027</ele>
        <time>2020-08-30T10:55:30Z</time>
      </trkpt>
      <trkpt lat="39.833253" lon="-.496074">
        <ele>409.808</ele>
        <time>2020-08-30T10:55:31Z</time>
      </trkpt>
      <trkpt lat="39.833227" lon="-.496024">
        <ele>409.762</ele>
        <time>2020-08-30T10:55:32Z</time>
      </trkpt>
      <trkpt lat="39.833195" lon="-.495948">
        <ele>409.472</ele>
        <time>2020-08-30T10:55:34Z</time>
      </trkpt>
      <trkpt lat="39.833179" lon="-.495873">
        <ele>409.434</ele>
        <time>2020-08-30T10:55:35Z</time>
      </trkpt>
      <trkpt lat="39.833153" lon="-.495795">
        <ele>409.436</ele>
        <time>2020-08-30T10:55:36Z</time>
      </trkpt>
      <trkpt lat="39.833116" lon="-.495721">
        <ele>409.364</ele>
        <time>2020-08-30T10:55:37Z</time>
      </trkpt>
      <trkpt lat="39.833086" lon="-.495667">
        <ele>409.281</ele>
        <time>2020-08-30T10:55:38Z</time>
      </trkpt>
      <trkpt lat="39.833026" lon="-.495551">
        <ele>408.929</ele>
        <time>2020-08-30T10:55:40Z</time>
      </trkpt>
      <trkpt lat="39.832989" lon="-.495485">
        <ele>408.789</ele>
        <time>2020-08-30T10:55:41Z</time>
      </trkpt>
      <trkpt lat="39.832962" lon="-.495421">
        <ele>408.648</ele>
        <time>2020-08-30T10:55:42Z</time>
      </trkpt>
      <trkpt lat="39.832939" lon="-.495345">
        <ele>408.561</ele>
        <time>2020-08-30T10:55:43Z</time>
      </trkpt>
      <trkpt lat="39.832909" lon="-.495264">
        <ele>408.517</ele>
        <time>2020-08-30T10:55:44Z</time>
      </trkpt>
      <trkpt lat="39.832873" lon="-.495197">
        <ele>408.508</ele>
        <time>2020-08-30T10:55:45Z</time>
      </trkpt>
      <trkpt lat="39.832835" lon="-.495124">
        <ele>408.539</ele>
        <time>2020-08-30T10:55:46Z</time>
      </trkpt>
      <trkpt lat="39.832804" lon="-.49505">
        <ele>408.429</ele>
        <time>2020-08-30T10:55:47Z</time>
      </trkpt>
      <trkpt lat="39.832769" lon="-.494983">
        <ele>408.281</ele>
        <time>2020-08-30T10:55:48Z</time>
      </trkpt>
      <trkpt lat="39.832727" lon="-.494919">
        <ele>408.083</ele>
        <time>2020-08-30T10:55:49Z</time>
      </trkpt>
      <trkpt lat="39.832696" lon="-.494873">
        <ele>407.921</ele>
        <time>2020-08-30T10:55:50Z</time>
      </trkpt>
      <trkpt lat="39.832635" lon="-.494758">
        <ele>407.668</ele>
        <time>2020-08-30T10:55:52Z</time>
      </trkpt>
      <trkpt lat="39.832609" lon="-.494707">
        <ele>407.616</ele>
        <time>2020-08-30T10:55:53Z</time>
      </trkpt>
      <trkpt lat="39.832564" lon="-.494649">
        <ele>407.536</ele>
        <time>2020-08-30T10:55:55Z</time>
      </trkpt>
      <trkpt lat="39.832534" lon="-.494589">
        <ele>406.828</ele>
        <time>2020-08-30T10:56:06Z</time>
      </trkpt>
      <trkpt lat="39.832512" lon="-.494527">
        <ele>406.689</ele>
        <time>2020-08-30T10:57:37Z</time>
      </trkpt>
      <trkpt lat="39.832475" lon="-.494469">
        <ele>406.217</ele>
        <time>2020-08-30T10:57:40Z</time>
      </trkpt>
      <trkpt lat="39.83244" lon="-.494418">
        <ele>406.008</ele>
        <time>2020-08-30T10:57:42Z</time>
      </trkpt>
      <trkpt lat="39.832411" lon="-.494368">
        <ele>405.897</ele>
        <time>2020-08-30T10:57:44Z</time>
      </trkpt>
      <trkpt lat="39.832365" lon="-.494308">
        <ele>405.647</ele>
        <time>2020-08-30T10:57:46Z</time>
      </trkpt>
      <trkpt lat="39.832321" lon="-.494249">
        <ele>405.529</ele>
        <time>2020-08-30T10:57:48Z</time>
      </trkpt>
      <trkpt lat="39.832278" lon="-.494183">
        <ele>405.451</ele>
        <time>2020-08-30T10:57:50Z</time>
      </trkpt>
      <trkpt lat="39.832243" lon="-.494122">
        <ele>405.149</ele>
        <time>2020-08-30T10:57:52Z</time>
      </trkpt>
      <trkpt lat="39.832208" lon="-.494066">
        <ele>405.026</ele>
        <time>2020-08-30T10:57:55Z</time>
      </trkpt>
      <trkpt lat="39.832149" lon="-.493987">
        <ele>404.924</ele>
        <time>2020-08-30T10:57:57Z</time>
      </trkpt>
      <trkpt lat="39.83211" lon="-.493955">
        <ele>404.614</ele>
        <time>2020-08-30T10:57:58Z</time>
      </trkpt>
      <trkpt lat="39.832039" lon="-.493896">
        <ele>404.689</ele>
        <time>2020-08-30T10:57:59Z</time>
      </trkpt>
      <trkpt lat="39.832008" lon="-.493853">
        <ele>404.506</ele>
        <time>2020-08-30T10:58:00Z</time>
      </trkpt>
      <trkpt lat="39.831961" lon="-.493779">
        <ele>404.326</ele>
        <time>2020-08-30T10:58:02Z</time>
      </trkpt>
      <trkpt lat="39.831907" lon="-.493716">
        <ele>403.908</ele>
        <time>2020-08-30T10:58:04Z</time>
      </trkpt>
      <trkpt lat="39.831858" lon="-.493664">
        <ele>403.593</ele>
        <time>2020-08-30T10:58:06Z</time>
      </trkpt>
      <trkpt lat="39.831805" lon="-.493579">
        <ele>404.053</ele>
        <time>2020-08-30T10:58:08Z</time>
      </trkpt>
      <trkpt lat="39.831746" lon="-.493509">
        <ele>404.435</ele>
        <time>2020-08-30T10:58:10Z</time>
      </trkpt>
      <trkpt lat="39.83169" lon="-.493438">
        <ele>404.247</ele>
        <time>2020-08-30T10:58:12Z</time>
      </trkpt>
      <trkpt lat="39.831622" lon="-.493351">
        <ele>403.635</ele>
        <time>2020-08-30T10:58:14Z</time>
      </trkpt>
      <trkpt lat="39.83156" lon="-.493275">
        <ele>403.332</ele>
        <time>2020-08-30T10:58:16Z</time>
      </trkpt>
      <trkpt lat="39.831502" lon="-.493191">
        <ele>403.280</ele>
        <time>2020-08-30T10:58:18Z</time>
      </trkpt>
      <trkpt lat="39.831444" lon="-.493123">
        <ele>403.110</ele>
        <time>2020-08-30T10:58:20Z</time>
      </trkpt>
      <trkpt lat="39.831408" lon="-.493083">
        <ele>403.073</ele>
        <time>2020-08-30T10:58:21Z</time>
      </trkpt>
      <trkpt lat="39.831353" lon="-.493014">
        <ele>402.885</ele>
        <time>2020-08-30T10:58:23Z</time>
      </trkpt>
      <trkpt lat="39.831295" lon="-.492958">
        <ele>402.613</ele>
        <time>2020-08-30T10:58:25Z</time>
      </trkpt>
      <trkpt lat="39.831257" lon="-.492899">
        <ele>402.708</ele>
        <time>2020-08-30T10:58:27Z</time>
      </trkpt>
      <trkpt lat="39.83119" lon="-.49283">
        <ele>402.762</ele>
        <time>2020-08-30T10:58:29Z</time>
      </trkpt>
      <trkpt lat="39.831129" lon="-.492778">
        <ele>402.642</ele>
        <time>2020-08-30T10:58:31Z</time>
      </trkpt>
      <trkpt lat="39.83109" lon="-.492734">
        <ele>402.444</ele>
        <time>2020-08-30T10:58:32Z</time>
      </trkpt>
      <trkpt lat="39.831059" lon="-.492686">
        <ele>402.396</ele>
        <time>2020-08-30T10:58:33Z</time>
      </trkpt>
      <trkpt lat="39.830996" lon="-.492611">
        <ele>402.184</ele>
        <time>2020-08-30T10:58:35Z</time>
      </trkpt>
      <trkpt lat="39.830967" lon="-.492555">
        <ele>402.051</ele>
        <time>2020-08-30T10:58:36Z</time>
      </trkpt>
      <trkpt lat="39.830938" lon="-.492509">
        <ele>402.049</ele>
        <time>2020-08-30T10:58:37Z</time>
      </trkpt>
      <trkpt lat="39.830895" lon="-.492411">
        <ele>402.039</ele>
        <time>2020-08-30T10:58:39Z</time>
      </trkpt>
      <trkpt lat="39.830851" lon="-.492311">
        <ele>401.747</ele>
        <time>2020-08-30T10:58:41Z</time>
      </trkpt>
      <trkpt lat="39.830809" lon="-.492215">
        <ele>401.229</ele>
        <time>2020-08-30T10:58:43Z</time>
      </trkpt>
      <trkpt lat="39.830772" lon="-.49213">
        <ele>400.721</ele>
        <time>2020-08-30T10:58:45Z</time>
      </trkpt>
      <trkpt lat="39.830738" lon="-.492035">
        <ele>400.308</ele>
        <time>2020-08-30T10:58:47Z</time>
      </trkpt>
      <trkpt lat="39.830695" lon="-.491947">
        <ele>400.159</ele>
        <time>2020-08-30T10:58:49Z</time>
      </trkpt>
      <trkpt lat="39.830662" lon="-.491845">
        <ele>399.899</ele>
        <time>2020-08-30T10:58:51Z</time>
      </trkpt>
      <trkpt lat="39.830634" lon="-.491747">
        <ele>399.621</ele>
        <time>2020-08-30T10:58:53Z</time>
      </trkpt>
      <trkpt lat="39.830602" lon="-.491652">
        <ele>399.593</ele>
        <time>2020-08-30T10:58:55Z</time>
      </trkpt>
      <trkpt lat="39.830583" lon="-.491565">
        <ele>399.341</ele>
        <time>2020-08-30T10:58:57Z</time>
      </trkpt>
      <trkpt lat="39.830577" lon="-.491473">
        <ele>399.278</ele>
        <time>2020-08-30T10:58:59Z</time>
      </trkpt>
      <trkpt lat="39.830571" lon="-.49138">
        <ele>399.246</ele>
        <time>2020-08-30T10:59:01Z</time>
      </trkpt>
      <trkpt lat="39.830557" lon="-.491283">
        <ele>399.396</ele>
        <time>2020-08-30T10:59:03Z</time>
      </trkpt>
      <trkpt lat="39.830542" lon="-.491184">
        <ele>399.354</ele>
        <time>2020-08-30T10:59:05Z</time>
      </trkpt>
      <trkpt lat="39.830523" lon="-.491086">
        <ele>399.256</ele>
        <time>2020-08-30T10:59:07Z</time>
      </trkpt>
      <trkpt lat="39.830504" lon="-.490985">
        <ele>399.111</ele>
        <time>2020-08-30T10:59:09Z</time>
      </trkpt>
      <trkpt lat="39.830491" lon="-.490926">
        <ele>399.008</ele>
        <time>2020-08-30T10:59:10Z</time>
      </trkpt>
      <trkpt lat="39.830483" lon="-.490862">
        <ele>398.980</ele>
        <time>2020-08-30T10:59:11Z</time>
      </trkpt>
      <trkpt lat="39.830471" lon="-.490797">
        <ele>398.920</ele>
        <time>2020-08-30T10:59:12Z</time>
      </trkpt>
      <trkpt lat="39.830456" lon="-.490735">
        <ele>398.852</ele>
        <time>2020-08-30T10:59:13Z</time>
      </trkpt>
      <trkpt lat="39.830446" lon="-.490671">
        <ele>398.864</ele>
        <time>2020-08-30T10:59:14Z</time>
      </trkpt>
      <trkpt lat="39.830431" lon="-.490608">
        <ele>398.862</ele>
        <time>2020-08-30T10:59:15Z</time>
      </trkpt>
      <trkpt lat="39.830413" lon="-.490544">
        <ele>398.829</ele>
        <time>2020-08-30T10:59:16Z</time>
      </trkpt>
      <trkpt lat="39.830405" lon="-.490485">
        <ele>398.897</ele>
        <time>2020-08-30T10:59:17Z</time>
      </trkpt>
      <trkpt lat="39.830398" lon="-.490352">
        <ele>398.787</ele>
        <time>2020-08-30T10:59:19Z</time>
      </trkpt>
      <trkpt lat="39.830378" lon="-.490239">
        <ele>398.749</ele>
        <time>2020-08-30T10:59:21Z</time>
      </trkpt>
      <trkpt lat="39.830373" lon="-.490173">
        <ele>398.702</ele>
        <time>2020-08-30T10:59:22Z</time>
      </trkpt>
      <trkpt lat="39.830363" lon="-.490111">
        <ele>398.622</ele>
        <time>2020-08-30T10:59:23Z</time>
      </trkpt>
      <trkpt lat="39.830355" lon="-.489987">
        <ele>398.508</ele>
        <time>2020-08-30T10:59:25Z</time>
      </trkpt>
      <trkpt lat="39.830337" lon="-.489924">
        <ele>398.459</ele>
        <time>2020-08-30T10:59:26Z</time>
      </trkpt>
      <trkpt lat="39.830321" lon="-.489864">
        <ele>398.399</ele>
        <time>2020-08-30T10:59:27Z</time>
      </trkpt>
      <trkpt lat="39.830305" lon="-.489809">
        <ele>398.111</ele>
        <time>2020-08-30T10:59:28Z</time>
      </trkpt>
      <trkpt lat="39.830291" lon="-.489748">
        <ele>397.953</ele>
        <time>2020-08-30T10:59:29Z</time>
      </trkpt>
      <trkpt lat="39.830258" lon="-.489645">
        <ele>397.521</ele>
        <time>2020-08-30T10:59:31Z</time>
      </trkpt>
      <trkpt lat="39.830249" lon="-.489539">
        <ele>397.358</ele>
        <time>2020-08-30T10:59:33Z</time>
      </trkpt>
      <trkpt lat="39.830236" lon="-.489453">
        <ele>397.256</ele>
        <time>2020-08-30T10:59:35Z</time>
      </trkpt>
      <trkpt lat="39.83023" lon="-.489394">
        <ele>397.286</ele>
        <time>2020-08-30T10:59:36Z</time>
      </trkpt>
      <trkpt lat="39.830216" lon="-.489297">
        <ele>397.176</ele>
        <time>2020-08-30T10:59:38Z</time>
      </trkpt>
      <trkpt lat="39.83019" lon="-.489206">
        <ele>396.990</ele>
        <time>2020-08-30T10:59:40Z</time>
      </trkpt>
      <trkpt lat="39.830167" lon="-.489129">
        <ele>396.919</ele>
        <time>2020-08-30T10:59:42Z</time>
      </trkpt>
      <trkpt lat="39.830169" lon="-.489022">
        <ele>397.008</ele>
        <time>2020-08-30T10:59:44Z</time>
      </trkpt>
      <trkpt lat="39.830141" lon="-.488949">
        <ele>397.122</ele>
        <time>2020-08-30T10:59:46Z</time>
      </trkpt>
      <trkpt lat="39.83014" lon="-.488887">
        <ele>397.052</ele>
        <time>2020-08-30T10:59:47Z</time>
      </trkpt>
      <trkpt lat="39.830116" lon="-.48881">
        <ele>396.734</ele>
        <time>2020-08-30T10:59:49Z</time>
      </trkpt>
      <trkpt lat="39.83009" lon="-.488738">
        <ele>396.446</ele>
        <time>2020-08-30T10:59:51Z</time>
      </trkpt>
      <trkpt lat="39.830093" lon="-.488637">
        <ele>396.384</ele>
        <time>2020-08-30T10:59:53Z</time>
      </trkpt>
      <trkpt lat="39.830086" lon="-.488578">
        <ele>396.371</ele>
        <time>2020-08-30T10:59:54Z</time>
      </trkpt>
      <trkpt lat="39.83006" lon="-.488478">
        <ele>396.359</ele>
        <time>2020-08-30T10:59:56Z</time>
      </trkpt>
      <trkpt lat="39.830038" lon="-.488425">
        <ele>396.459</ele>
        <time>2020-08-30T10:59:57Z</time>
      </trkpt>
      <trkpt lat="39.830024" lon="-.488362">
        <ele>396.443</ele>
        <time>2020-08-30T10:59:58Z</time>
      </trkpt>
      <trkpt lat="39.830004" lon="-.48826">
        <ele>396.464</ele>
        <time>2020-08-30T11:00:00Z</time>
      </trkpt>
      <trkpt lat="39.830014" lon="-.488155">
        <ele>396.310</ele>
        <time>2020-08-30T11:00:02Z</time>
      </trkpt>
      <trkpt lat="39.830006" lon="-.488094">
        <ele>396.208</ele>
        <time>2020-08-30T11:00:03Z</time>
      </trkpt>
      <trkpt lat="39.82999" lon="-.488033">
        <ele>396.169</ele>
        <time>2020-08-30T11:00:04Z</time>
      </trkpt>
      <trkpt lat="39.82997" lon="-.487932">
        <ele>395.959</ele>
        <time>2020-08-30T11:00:06Z</time>
      </trkpt>
      <trkpt lat="39.829941" lon="-.48781">
        <ele>395.861</ele>
        <time>2020-08-30T11:00:08Z</time>
      </trkpt>
      <trkpt lat="39.829941" lon="-.487731">
        <ele>395.883</ele>
        <time>2020-08-30T11:00:09Z</time>
      </trkpt>
      <trkpt lat="39.829937" lon="-.487649">
        <ele>395.851</ele>
        <time>2020-08-30T11:00:10Z</time>
      </trkpt>
      <trkpt lat="39.829932" lon="-.487582">
        <ele>395.798</ele>
        <time>2020-08-30T11:00:11Z</time>
      </trkpt>
      <trkpt lat="39.82993" lon="-.487509">
        <ele>395.676</ele>
        <time>2020-08-30T11:00:12Z</time>
      </trkpt>
      <trkpt lat="39.829932" lon="-.487443">
        <ele>395.666</ele>
        <time>2020-08-30T11:00:13Z</time>
      </trkpt>
      <trkpt lat="39.829931" lon="-.487383">
        <ele>395.534</ele>
        <time>2020-08-30T11:00:14Z</time>
      </trkpt>
      <trkpt lat="39.829932" lon="-.487305">
        <ele>395.455</ele>
        <time>2020-08-30T11:00:15Z</time>
      </trkpt>
      <trkpt lat="39.829944" lon="-.487237">
        <ele>395.310</ele>
        <time>2020-08-30T11:00:16Z</time>
      </trkpt>
      <trkpt lat="39.829951" lon="-.487168">
        <ele>395.208</ele>
        <time>2020-08-30T11:00:17Z</time>
      </trkpt>
      <trkpt lat="39.829957" lon="-.487089">
        <ele>395.128</ele>
        <time>2020-08-30T11:00:18Z</time>
      </trkpt>
      <trkpt lat="39.829962" lon="-.487008">
        <ele>395.088</ele>
        <time>2020-08-30T11:00:19Z</time>
      </trkpt>
      <trkpt lat="39.82997" lon="-.486939">
        <ele>395.020</ele>
        <time>2020-08-30T11:00:20Z</time>
      </trkpt>
      <trkpt lat="39.829982" lon="-.486876">
        <ele>395.022</ele>
        <time>2020-08-30T11:00:21Z</time>
      </trkpt>
      <trkpt lat="39.829996" lon="-.48681">
        <ele>395.010</ele>
        <time>2020-08-30T11:00:22Z</time>
      </trkpt>
      <trkpt lat="39.830002" lon="-.486733">
        <ele>395.177</ele>
        <time>2020-08-30T11:00:23Z</time>
      </trkpt>
      <trkpt lat="39.830013" lon="-.486658">
        <ele>395.255</ele>
        <time>2020-08-30T11:00:24Z</time>
      </trkpt>
      <trkpt lat="39.830039" lon="-.486583">
        <ele>395.345</ele>
        <time>2020-08-30T11:00:25Z</time>
      </trkpt>
      <trkpt lat="39.830058" lon="-.486508">
        <ele>395.373</ele>
        <time>2020-08-30T11:00:26Z</time>
      </trkpt>
      <trkpt lat="39.830061" lon="-.486428">
        <ele>395.385</ele>
        <time>2020-08-30T11:00:27Z</time>
      </trkpt>
      <trkpt lat="39.830069" lon="-.486345">
        <ele>395.213</ele>
        <time>2020-08-30T11:00:28Z</time>
      </trkpt>
      <trkpt lat="39.83008" lon="-.486255">
        <ele>395.108</ele>
        <time>2020-08-30T11:00:29Z</time>
      </trkpt>
      <trkpt lat="39.830098" lon="-.486175">
        <ele>395.162</ele>
        <time>2020-08-30T11:00:30Z</time>
      </trkpt>
      <trkpt lat="39.830114" lon="-.486106">
        <ele>395.142</ele>
        <time>2020-08-30T11:00:31Z</time>
      </trkpt>
      <trkpt lat="39.830132" lon="-.486038">
        <ele>395.134</ele>
        <time>2020-08-30T11:00:32Z</time>
      </trkpt>
      <trkpt lat="39.830149" lon="-.485972">
        <ele>395.136</ele>
        <time>2020-08-30T11:00:33Z</time>
      </trkpt>
      <trkpt lat="39.830159" lon="-.485894">
        <ele>395.044</ele>
        <time>2020-08-30T11:00:34Z</time>
      </trkpt>
      <trkpt lat="39.830178" lon="-.485826">
        <ele>394.941</ele>
        <time>2020-08-30T11:00:35Z</time>
      </trkpt>
      <trkpt lat="39.830185" lon="-.485764">
        <ele>394.879</ele>
        <time>2020-08-30T11:00:36Z</time>
      </trkpt>
      <trkpt lat="39.830202" lon="-.48569">
        <ele>394.849</ele>
        <time>2020-08-30T11:00:37Z</time>
      </trkpt>
      <trkpt lat="39.830215" lon="-.485616">
        <ele>394.718</ele>
        <time>2020-08-30T11:00:38Z</time>
      </trkpt>
      <trkpt lat="39.830232" lon="-.485548">
        <ele>394.598</ele>
        <time>2020-08-30T11:00:39Z</time>
      </trkpt>
      <trkpt lat="39.830244" lon="-.485468">
        <ele>394.417</ele>
        <time>2020-08-30T11:00:40Z</time>
      </trkpt>
      <trkpt lat="39.830264" lon="-.485394">
        <ele>394.308</ele>
        <time>2020-08-30T11:00:41Z</time>
      </trkpt>
      <trkpt lat="39.830279" lon="-.485324">
        <ele>394.126</ele>
        <time>2020-08-30T11:00:42Z</time>
      </trkpt>
      <trkpt lat="39.830293" lon="-.485257">
        <ele>394.056</ele>
        <time>2020-08-30T11:00:43Z</time>
      </trkpt>
      <trkpt lat="39.830311" lon="-.485186">
        <ele>393.948</ele>
        <time>2020-08-30T11:00:44Z</time>
      </trkpt>
      <trkpt lat="39.830324" lon="-.48512">
        <ele>393.840</ele>
        <time>2020-08-30T11:00:45Z</time>
      </trkpt>
      <trkpt lat="39.830342" lon="-.485049">
        <ele>393.768</ele>
        <time>2020-08-30T11:00:46Z</time>
      </trkpt>
      <trkpt lat="39.830351" lon="-.484986">
        <ele>393.715</ele>
        <time>2020-08-30T11:00:47Z</time>
      </trkpt>
      <trkpt lat="39.830365" lon="-.484925">
        <ele>393.713</ele>
        <time>2020-08-30T11:00:48Z</time>
      </trkpt>
      <trkpt lat="39.830381" lon="-.484858">
        <ele>393.753</ele>
        <time>2020-08-30T11:00:49Z</time>
      </trkpt>
      <trkpt lat="39.830391" lon="-.484783">
        <ele>393.729</ele>
        <time>2020-08-30T11:00:50Z</time>
      </trkpt>
      <trkpt lat="39.83041" lon="-.484715">
        <ele>393.700</ele>
        <time>2020-08-30T11:00:51Z</time>
      </trkpt>
      <trkpt lat="39.830431" lon="-.48465">
        <ele>393.720</ele>
        <time>2020-08-30T11:00:52Z</time>
      </trkpt>
      <trkpt lat="39.830449" lon="-.484579">
        <ele>393.708</ele>
        <time>2020-08-30T11:00:53Z</time>
      </trkpt>
      <trkpt lat="39.830463" lon="-.484476">
        <ele>393.847</ele>
        <time>2020-08-30T11:00:55Z</time>
      </trkpt>
      <trkpt lat="39.830475" lon="-.484411">
        <ele>393.877</ele>
        <time>2020-08-30T11:00:56Z</time>
      </trkpt>
      <trkpt lat="39.83049" lon="-.484352">
        <ele>393.869</ele>
        <time>2020-08-30T11:00:57Z</time>
      </trkpt>
      <trkpt lat="39.830502" lon="-.48429">
        <ele>393.831</ele>
        <time>2020-08-30T11:00:58Z</time>
      </trkpt>
      <trkpt lat="39.830542" lon="-.484213">
        <ele>393.719</ele>
        <time>2020-08-30T11:00:59Z</time>
      </trkpt>
      <trkpt lat="39.830568" lon="-.484142">
        <ele>393.776</ele>
        <time>2020-08-30T11:01:00Z</time>
      </trkpt>
      <trkpt lat="39.83058" lon="-.484074">
        <ele>393.774</ele>
        <time>2020-08-30T11:01:01Z</time>
      </trkpt>
      <trkpt lat="39.830599" lon="-.483992">
        <ele>393.754</ele>
        <time>2020-08-30T11:01:02Z</time>
      </trkpt>
      <trkpt lat="39.830607" lon="-.483912">
        <ele>393.712</ele>
        <time>2020-08-30T11:01:03Z</time>
      </trkpt>
      <trkpt lat="39.83062" lon="-.483833">
        <ele>393.632</ele>
        <time>2020-08-30T11:01:04Z</time>
      </trkpt>
      <trkpt lat="39.830645" lon="-.483751">
        <ele>393.405</ele>
        <time>2020-08-30T11:01:05Z</time>
      </trkpt>
      <trkpt lat="39.830668" lon="-.483674">
        <ele>393.208</ele>
        <time>2020-08-30T11:01:06Z</time>
      </trkpt>
      <trkpt lat="39.830686" lon="-.4836">
        <ele>392.926</ele>
        <time>2020-08-30T11:01:07Z</time>
      </trkpt>
      <trkpt lat="39.830695" lon="-.483528">
        <ele>392.736</ele>
        <time>2020-08-30T11:01:08Z</time>
      </trkpt>
      <trkpt lat="39.830717" lon="-.483455">
        <ele>392.588</ele>
        <time>2020-08-30T11:01:09Z</time>
      </trkpt>
      <trkpt lat="39.830737" lon="-.483376">
        <ele>392.410</ele>
        <time>2020-08-30T11:01:10Z</time>
      </trkpt>
      <trkpt lat="39.83075" lon="-.483299">
        <ele>392.288</ele>
        <time>2020-08-30T11:01:11Z</time>
      </trkpt>
      <trkpt lat="39.830768" lon="-.483219">
        <ele>392.235</ele>
        <time>2020-08-30T11:01:12Z</time>
      </trkpt>
      <trkpt lat="39.830784" lon="-.483138">
        <ele>392.263</ele>
        <time>2020-08-30T11:01:13Z</time>
      </trkpt>
      <trkpt lat="39.830797" lon="-.483061">
        <ele>392.163</ele>
        <time>2020-08-30T11:01:14Z</time>
      </trkpt>
      <trkpt lat="39.83082" lon="-.482987">
        <ele>392.097</ele>
        <time>2020-08-30T11:01:15Z</time>
      </trkpt>
      <trkpt lat="39.830841" lon="-.482909">
        <ele>391.923</ele>
        <time>2020-08-30T11:01:16Z</time>
      </trkpt>
      <trkpt lat="39.830861" lon="-.482835">
        <ele>391.825</ele>
        <time>2020-08-30T11:01:17Z</time>
      </trkpt>
      <trkpt lat="39.830868" lon="-.482756">
        <ele>391.708</ele>
        <time>2020-08-30T11:01:18Z</time>
      </trkpt>
      <trkpt lat="39.830882" lon="-.482684">
        <ele>391.654</ele>
        <time>2020-08-30T11:01:19Z</time>
      </trkpt>
      <trkpt lat="39.830899" lon="-.48261">
        <ele>391.424</ele>
        <time>2020-08-30T11:01:20Z</time>
      </trkpt>
      <trkpt lat="39.830914" lon="-.482535">
        <ele>391.396</ele>
        <time>2020-08-30T11:01:21Z</time>
      </trkpt>
      <trkpt lat="39.83093" lon="-.482462">
        <ele>391.278</ele>
        <time>2020-08-30T11:01:22Z</time>
      </trkpt>
      <trkpt lat="39.830945" lon="-.482393">
        <ele>391.146</ele>
        <time>2020-08-30T11:01:23Z</time>
      </trkpt>
      <trkpt lat="39.830959" lon="-.482319">
        <ele>391.073</ele>
        <time>2020-08-30T11:01:24Z</time>
      </trkpt>
      <trkpt lat="39.830975" lon="-.482245">
        <ele>390.921</ele>
        <time>2020-08-30T11:01:25Z</time>
      </trkpt>
      <trkpt lat="39.830993" lon="-.482169">
        <ele>390.861</ele>
        <time>2020-08-30T11:01:26Z</time>
      </trkpt>
      <trkpt lat="39.831009" lon="-.482099">
        <ele>390.737</ele>
        <time>2020-08-30T11:01:27Z</time>
      </trkpt>
      <trkpt lat="39.831026" lon="-.482027">
        <ele>390.649</ele>
        <time>2020-08-30T11:01:28Z</time>
      </trkpt>
      <trkpt lat="39.83104" lon="-.481952">
        <ele>390.513</ele>
        <time>2020-08-30T11:01:29Z</time>
      </trkpt>
      <trkpt lat="39.831058" lon="-.481877">
        <ele>390.408</ele>
        <time>2020-08-30T11:01:30Z</time>
      </trkpt>
      <trkpt lat="39.831078" lon="-.481799">
        <ele>390.338</ele>
        <time>2020-08-30T11:01:31Z</time>
      </trkpt>
      <trkpt lat="39.8311" lon="-.481719">
        <ele>390.398</ele>
        <time>2020-08-30T11:01:32Z</time>
      </trkpt>
      <trkpt lat="39.831122" lon="-.481638">
        <ele>390.330</ele>
        <time>2020-08-30T11:01:33Z</time>
      </trkpt>
      <trkpt lat="39.831141" lon="-.481561">
        <ele>390.362</ele>
        <time>2020-08-30T11:01:34Z</time>
      </trkpt>
      <trkpt lat="39.831151" lon="-.481479">
        <ele>390.330</ele>
        <time>2020-08-30T11:01:35Z</time>
      </trkpt>
      <trkpt lat="39.831159" lon="-.481403">
        <ele>390.317</ele>
        <time>2020-08-30T11:01:36Z</time>
      </trkpt>
      <trkpt lat="39.831175" lon="-.48133">
        <ele>390.255</ele>
        <time>2020-08-30T11:01:37Z</time>
      </trkpt>
      <trkpt lat="39.831192" lon="-.481259">
        <ele>390.115</ele>
        <time>2020-08-30T11:01:38Z</time>
      </trkpt>
      <trkpt lat="39.831209" lon="-.481186">
        <ele>390.017</ele>
        <time>2020-08-30T11:01:39Z</time>
      </trkpt>
      <trkpt lat="39.831223" lon="-.481113">
        <ele>389.987</ele>
        <time>2020-08-30T11:01:40Z</time>
      </trkpt>
      <trkpt lat="39.831232" lon="-.481043">
        <ele>389.815</ele>
        <time>2020-08-30T11:01:41Z</time>
      </trkpt>
      <trkpt lat="39.831245" lon="-.480974">
        <ele>389.608</ele>
        <time>2020-08-30T11:01:42Z</time>
      </trkpt>
      <trkpt lat="39.831255" lon="-.480904">
        <ele>389.476</ele>
        <time>2020-08-30T11:01:43Z</time>
      </trkpt>
      <trkpt lat="39.831266" lon="-.480836">
        <ele>389.236</ele>
        <time>2020-08-30T11:01:44Z</time>
      </trkpt>
      <trkpt lat="39.831273" lon="-.480765">
        <ele>389.098</ele>
        <time>2020-08-30T11:01:45Z</time>
      </trkpt>
      <trkpt lat="39.831276" lon="-.480693">
        <ele>388.960</ele>
        <time>2020-08-30T11:01:46Z</time>
      </trkpt>
      <trkpt lat="39.831289" lon="-.480623">
        <ele>388.878</ele>
        <time>2020-08-30T11:01:47Z</time>
      </trkpt>
      <trkpt lat="39.831299" lon="-.480555">
        <ele>388.745</ele>
        <time>2020-08-30T11:01:48Z</time>
      </trkpt>
      <trkpt lat="39.83131" lon="-.480483">
        <ele>388.443</ele>
        <time>2020-08-30T11:01:49Z</time>
      </trkpt>
      <trkpt lat="39.831318" lon="-.480412">
        <ele>388.333</ele>
        <time>2020-08-30T11:01:50Z</time>
      </trkpt>
      <trkpt lat="39.831326" lon="-.480343">
        <ele>388.228</ele>
        <time>2020-08-30T11:01:51Z</time>
      </trkpt>
      <trkpt lat="39.831329" lon="-.480279">
        <ele>388.189</ele>
        <time>2020-08-30T11:01:52Z</time>
      </trkpt>
      <trkpt lat="39.831338" lon="-.480215">
        <ele>388.017</ele>
        <time>2020-08-30T11:01:53Z</time>
      </trkpt>
      <trkpt lat="39.831335" lon="-.480153">
        <ele>387.908</ele>
        <time>2020-08-30T11:01:54Z</time>
      </trkpt>
      <trkpt lat="39.831339" lon="-.480081">
        <ele>387.857</ele>
        <time>2020-08-30T11:01:55Z</time>
      </trkpt>
      <trkpt lat="39.831339" lon="-.480006">
        <ele>387.687</ele>
        <time>2020-08-30T11:01:56Z</time>
      </trkpt>
      <trkpt lat="39.831327" lon="-.479939">
        <ele>387.459</ele>
        <time>2020-08-30T11:01:57Z</time>
      </trkpt>
      <trkpt lat="39.831319" lon="-.479866">
        <ele>387.291</ele>
        <time>2020-08-30T11:01:58Z</time>
      </trkpt>
      <trkpt lat="39.831321" lon="-.479803">
        <ele>387.089</ele>
        <time>2020-08-30T11:01:59Z</time>
      </trkpt>
      <trkpt lat="39.831323" lon="-.479742">
        <ele>386.836</ele>
        <time>2020-08-30T11:02:00Z</time>
      </trkpt>
      <trkpt lat="39.831341" lon="-.479666">
        <ele>386.764</ele>
        <time>2020-08-30T11:02:01Z</time>
      </trkpt>
      <trkpt lat="39.831327" lon="-.479584">
        <ele>386.614</ele>
        <time>2020-08-30T11:02:02Z</time>
      </trkpt>
      <trkpt lat="39.83132" lon="-.479495">
        <ele>386.517</ele>
        <time>2020-08-30T11:02:03Z</time>
      </trkpt>
      <trkpt lat="39.831309" lon="-.479417">
        <ele>386.487</ele>
        <time>2020-08-30T11:02:04Z</time>
      </trkpt>
      <trkpt lat="39.831299" lon="-.47934">
        <ele>386.415</ele>
        <time>2020-08-30T11:02:05Z</time>
      </trkpt>
      <trkpt lat="39.831297" lon="-.47926">
        <ele>386.308</ele>
        <time>2020-08-30T11:02:06Z</time>
      </trkpt>
      <trkpt lat="39.831291" lon="-.479186">
        <ele>386.016</ele>
        <time>2020-08-30T11:02:07Z</time>
      </trkpt>
      <trkpt lat="39.831287" lon="-.479114">
        <ele>385.976</ele>
        <time>2020-08-30T11:02:08Z</time>
      </trkpt>
      <trkpt lat="39.831284" lon="-.479037">
        <ele>385.788</ele>
        <time>2020-08-30T11:02:09Z</time>
      </trkpt>
      <trkpt lat="39.831281" lon="-.478963">
        <ele>385.620</ele>
        <time>2020-08-30T11:02:10Z</time>
      </trkpt>
      <trkpt lat="39.831282" lon="-.478892">
        <ele>385.568</ele>
        <time>2020-08-30T11:02:11Z</time>
      </trkpt>
      <trkpt lat="39.831282" lon="-.478827">
        <ele>385.475</ele>
        <time>2020-08-30T11:02:12Z</time>
      </trkpt>
      <trkpt lat="39.831276" lon="-.478704">
        <ele>385.213</ele>
        <time>2020-08-30T11:02:14Z</time>
      </trkpt>
      <trkpt lat="39.831279" lon="-.478618">
        <ele>385.133</ele>
        <time>2020-08-30T11:02:15Z</time>
      </trkpt>
      <trkpt lat="39.831273" lon="-.478542">
        <ele>385.135</ele>
        <time>2020-08-30T11:02:16Z</time>
      </trkpt>
      <trkpt lat="39.831267" lon="-.478464">
        <ele>385.086</ele>
        <time>2020-08-30T11:02:17Z</time>
      </trkpt>
      <trkpt lat="39.831258" lon="-.478381">
        <ele>384.914</ele>
        <time>2020-08-30T11:02:18Z</time>
      </trkpt>
      <trkpt lat="39.831259" lon="-.478286">
        <ele>384.808</ele>
        <time>2020-08-30T11:02:19Z</time>
      </trkpt>
      <trkpt lat="39.831258" lon="-.478195">
        <ele>384.768</ele>
        <time>2020-08-30T11:02:20Z</time>
      </trkpt>
      <trkpt lat="39.83126" lon="-.478111">
        <ele>384.688</ele>
        <time>2020-08-30T11:02:21Z</time>
      </trkpt>
      <trkpt lat="39.83126" lon="-.478029">
        <ele>384.590</ele>
        <time>2020-08-30T11:02:22Z</time>
      </trkpt>
      <trkpt lat="39.831259" lon="-.477947">
        <ele>384.582</ele>
        <time>2020-08-30T11:02:23Z</time>
      </trkpt>
      <trkpt lat="39.831258" lon="-.477863">
        <ele>384.490</ele>
        <time>2020-08-30T11:02:24Z</time>
      </trkpt>
      <trkpt lat="39.831251" lon="-.477778">
        <ele>384.217</ele>
        <time>2020-08-30T11:02:25Z</time>
      </trkpt>
      <trkpt lat="39.831252" lon="-.477691">
        <ele>384.195</ele>
        <time>2020-08-30T11:02:26Z</time>
      </trkpt>
      <trkpt lat="39.831255" lon="-.477608">
        <ele>384.055</ele>
        <time>2020-08-30T11:02:27Z</time>
      </trkpt>
      <trkpt lat="39.831254" lon="-.477521">
        <ele>383.932</ele>
        <time>2020-08-30T11:02:28Z</time>
      </trkpt>
      <trkpt lat="39.831248" lon="-.477449">
        <ele>383.892</ele>
        <time>2020-08-30T11:02:29Z</time>
      </trkpt>
      <trkpt lat="39.83124" lon="-.477387">
        <ele>383.711</ele>
        <time>2020-08-30T11:02:30Z</time>
      </trkpt>
      <trkpt lat="39.831243" lon="-.477305">
        <ele>383.608</ele>
        <time>2020-08-30T11:02:31Z</time>
      </trkpt>
      <trkpt lat="39.831242" lon="-.47722">
        <ele>383.428</ele>
        <time>2020-08-30T11:02:32Z</time>
      </trkpt>
      <trkpt lat="39.831248" lon="-.477128">
        <ele>383.468</ele>
        <time>2020-08-30T11:02:33Z</time>
      </trkpt>
      <trkpt lat="39.831241" lon="-.47705">
        <ele>383.380</ele>
        <time>2020-08-30T11:02:34Z</time>
      </trkpt>
      <trkpt lat="39.831234" lon="-.476969">
        <ele>383.262</ele>
        <time>2020-08-30T11:02:35Z</time>
      </trkpt>
      <trkpt lat="39.831224" lon="-.476882">
        <ele>383.080</ele>
        <time>2020-08-30T11:02:36Z</time>
      </trkpt>
      <trkpt lat="39.831214" lon="-.476798">
        <ele>382.947</ele>
        <time>2020-08-30T11:02:37Z</time>
      </trkpt>
      <trkpt lat="39.831196" lon="-.476713">
        <ele>382.775</ele>
        <time>2020-08-30T11:02:38Z</time>
      </trkpt>
      <trkpt lat="39.831181" lon="-.47663">
        <ele>382.565</ele>
        <time>2020-08-30T11:02:39Z</time>
      </trkpt>
      <trkpt lat="39.831166" lon="-.476545">
        <ele>382.477</ele>
        <time>2020-08-30T11:02:40Z</time>
      </trkpt>
      <trkpt lat="39.831147" lon="-.47646">
        <ele>382.261</ele>
        <time>2020-08-30T11:02:41Z</time>
      </trkpt>
      <trkpt lat="39.831134" lon="-.476365">
        <ele>382.027</ele>
        <time>2020-08-30T11:02:42Z</time>
      </trkpt>
      <trkpt lat="39.831117" lon="-.476286">
        <ele>381.808</ele>
        <time>2020-08-30T11:02:43Z</time>
      </trkpt>
      <trkpt lat="39.831089" lon="-.47621">
        <ele>381.692</ele>
        <time>2020-08-30T11:02:44Z</time>
      </trkpt>
      <trkpt lat="39.831065" lon="-.476127">
        <ele>381.512</ele>
        <time>2020-08-30T11:02:45Z</time>
      </trkpt>
      <trkpt lat="39.831048" lon="-.47605">
        <ele>381.414</ele>
        <time>2020-08-30T11:02:46Z</time>
      </trkpt>
      <trkpt lat="39.831026" lon="-.475975">
        <ele>381.396</ele>
        <time>2020-08-30T11:02:47Z</time>
      </trkpt>
      <trkpt lat="39.830998" lon="-.475902">
        <ele>381.164</ele>
        <time>2020-08-30T11:02:48Z</time>
      </trkpt>
      <trkpt lat="39.83098" lon="-.475822">
        <ele>380.881</ele>
        <time>2020-08-30T11:02:49Z</time>
      </trkpt>
      <trkpt lat="39.830958" lon="-.475743">
        <ele>380.529</ele>
        <time>2020-08-30T11:02:50Z</time>
      </trkpt>
      <trkpt lat="39.830928" lon="-.475667">
        <ele>380.279</ele>
        <time>2020-08-30T11:02:51Z</time>
      </trkpt>
      <trkpt lat="39.830905" lon="-.475592">
        <ele>380.088</ele>
        <time>2020-08-30T11:02:52Z</time>
      </trkpt>
      <trkpt lat="39.830884" lon="-.475522">
        <ele>379.924</ele>
        <time>2020-08-30T11:02:53Z</time>
      </trkpt>
      <trkpt lat="39.83085" lon="-.475452">
        <ele>379.726</ele>
        <time>2020-08-30T11:02:54Z</time>
      </trkpt>
      <trkpt lat="39.830822" lon="-.475383">
        <ele>379.508</ele>
        <time>2020-08-30T11:02:55Z</time>
      </trkpt>
      <trkpt lat="39.830796" lon="-.47531">
        <ele>379.443</ele>
        <time>2020-08-30T11:02:56Z</time>
      </trkpt>
      <trkpt lat="39.830775" lon="-.475234">
        <ele>379.393</ele>
        <time>2020-08-30T11:02:57Z</time>
      </trkpt>
      <trkpt lat="39.830749" lon="-.475159">
        <ele>379.135</ele>
        <time>2020-08-30T11:02:58Z</time>
      </trkpt>
      <trkpt lat="39.830725" lon="-.475083">
        <ele>379.017</ele>
        <time>2020-08-30T11:02:59Z</time>
      </trkpt>
      <trkpt lat="39.830701" lon="-.475013">
        <ele>378.945</ele>
        <time>2020-08-30T11:03:00Z</time>
      </trkpt>
      <trkpt lat="39.830676" lon="-.474937">
        <ele>378.822</ele>
        <time>2020-08-30T11:03:01Z</time>
      </trkpt>
      <trkpt lat="39.830651" lon="-.474863">
        <ele>378.750</ele>
        <time>2020-08-30T11:03:02Z</time>
      </trkpt>
      <trkpt lat="39.830629" lon="-.474787">
        <ele>378.780</ele>
        <time>2020-08-30T11:03:03Z</time>
      </trkpt>
      <trkpt lat="39.830602" lon="-.474719">
        <ele>378.719</ele>
        <time>2020-08-30T11:03:04Z</time>
      </trkpt>
      <trkpt lat="39.830582" lon="-.474647">
        <ele>378.609</ele>
        <time>2020-08-30T11:03:05Z</time>
      </trkpt>
      <trkpt lat="39.830558" lon="-.474578">
        <ele>378.519</ele>
        <time>2020-08-30T11:03:06Z</time>
      </trkpt>
      <trkpt lat="39.830535" lon="-.474505">
        <ele>378.308</ele>
        <time>2020-08-30T11:03:07Z</time>
      </trkpt>
      <trkpt lat="39.83051" lon="-.474434">
        <ele>378.176</ele>
        <time>2020-08-30T11:03:08Z</time>
      </trkpt>
      <trkpt lat="39.830492" lon="-.474366">
        <ele>377.936</ele>
        <time>2020-08-30T11:03:09Z</time>
      </trkpt>
      <trkpt lat="39.830469" lon="-.47431">
        <ele>377.728</ele>
        <time>2020-08-30T11:03:10Z</time>
      </trkpt>
      <trkpt lat="39.830436" lon="-.474211">
        <ele>377.440</ele>
        <time>2020-08-30T11:03:12Z</time>
      </trkpt>
      <trkpt lat="39.830426" lon="-.47413">
        <ele>377.278</ele>
        <time>2020-08-30T11:03:14Z</time>
      </trkpt>
      <trkpt lat="39.830409" lon="-.47406">
        <ele>376.975</ele>
        <time>2020-08-30T11:03:16Z</time>
      </trkpt>
      <trkpt lat="39.830363" lon="-.474003">
        <ele>376.363</ele>
        <time>2020-08-30T11:03:18Z</time>
      </trkpt>
      <trkpt lat="39.830304" lon="-.473957">
        <ele>375.733</ele>
        <time>2020-08-30T11:03:20Z</time>
      </trkpt>
      <trkpt lat="39.830269" lon="-.473877">
        <ele>375.391</ele>
        <time>2020-08-30T11:03:22Z</time>
      </trkpt>
      <trkpt lat="39.830258" lon="-.473817">
        <ele>375.481</ele>
        <time>2020-08-30T11:03:24Z</time>
      </trkpt>
      <trkpt lat="39.830265" lon="-.473747">
        <ele>375.919</ele>
        <time>2020-08-30T11:03:27Z</time>
      </trkpt>
      <trkpt lat="39.830259" lon="-.473687">
        <ele>376.208</ele>
        <time>2020-08-30T11:03:29Z</time>
      </trkpt>
      <trkpt lat="39.830235" lon="-.473615">
        <ele>376.334</ele>
        <time>2020-08-30T11:03:31Z</time>
      </trkpt>
      <trkpt lat="39.830208" lon="-.473542">
        <ele>376.244</ele>
        <time>2020-08-30T11:03:33Z</time>
      </trkpt>
      <trkpt lat="39.830177" lon="-.47344">
        <ele>376.176</ele>
        <time>2020-08-30T11:03:35Z</time>
      </trkpt>
      <trkpt lat="39.830148" lon="-.473355">
        <ele>375.948</ele>
        <time>2020-08-30T11:03:37Z</time>
      </trkpt>
      <trkpt lat="39.830121" lon="-.473269">
        <ele>375.756</ele>
        <time>2020-08-30T11:03:39Z</time>
      </trkpt>
      <trkpt lat="39.830086" lon="-.473173">
        <ele>375.663</ele>
        <time>2020-08-30T11:03:41Z</time>
      </trkpt>
      <trkpt lat="39.830063" lon="-.473076">
        <ele>375.511</ele>
        <time>2020-08-30T11:03:43Z</time>
      </trkpt>
      <trkpt lat="39.830031" lon="-.473002">
        <ele>375.481</ele>
        <time>2020-08-30T11:03:45Z</time>
      </trkpt>
      <trkpt lat="39.830007" lon="-.472933">
        <ele>375.269</ele>
        <time>2020-08-30T11:03:47Z</time>
      </trkpt>
      <trkpt lat="39.829987" lon="-.472865">
        <ele>374.904</ele>
        <time>2020-08-30T11:03:51Z</time>
      </trkpt>
      <trkpt lat="39.829999" lon="-.472805">
        <ele>374.824</ele>
        <time>2020-08-30T11:04:29Z</time>
      </trkpt>
      <trkpt lat="39.829986" lon="-.472746">
        <ele>374.708</ele>
        <time>2020-08-30T11:04:36Z</time>
      </trkpt>
      <trkpt lat="39.829964" lon="-.472667">
        <ele>374.721</ele>
        <time>2020-08-30T11:04:39Z</time>
      </trkpt>
      <trkpt lat="39.829933" lon="-.472611">
        <ele>374.751</ele>
        <time>2020-08-30T11:04:41Z</time>
      </trkpt>
      <trkpt lat="39.829906" lon="-.472527">
        <ele>374.853</ele>
        <time>2020-08-30T11:04:43Z</time>
      </trkpt>
      <trkpt lat="39.82988" lon="-.472454">
        <ele>374.915</ele>
        <time>2020-08-30T11:04:45Z</time>
      </trkpt>
      <trkpt lat="39.829848" lon="-.472378">
        <ele>375.033</ele>
        <time>2020-08-30T11:04:47Z</time>
      </trkpt>
      <trkpt lat="39.829815" lon="-.47231">
        <ele>375.080</ele>
        <time>2020-08-30T11:04:49Z</time>
      </trkpt>
      <trkpt lat="39.829792" lon="-.472237">
        <ele>374.898</ele>
        <time>2020-08-30T11:04:51Z</time>
      </trkpt>
      <trkpt lat="39.82977" lon="-.472171">
        <ele>374.748</ele>
        <time>2020-08-30T11:04:53Z</time>
      </trkpt>
      <trkpt lat="39.829744" lon="-.472102">
        <ele>374.753</ele>
        <time>2020-08-30T11:04:55Z</time>
      </trkpt>
      <trkpt lat="39.829717" lon="-.472023">
        <ele>374.604</ele>
        <time>2020-08-30T11:04:57Z</time>
      </trkpt>
      <trkpt lat="39.829688" lon="-.471937">
        <ele>374.514</ele>
        <time>2020-08-30T11:04:59Z</time>
      </trkpt>
      <trkpt lat="39.829659" lon="-.471861">
        <ele>374.508</ele>
        <time>2020-08-30T11:05:01Z</time>
      </trkpt>
      <trkpt lat="39.829636" lon="-.471778">
        <ele>374.420</ele>
        <time>2020-08-30T11:05:03Z</time>
      </trkpt>
      <trkpt lat="39.829607" lon="-.471701">
        <ele>374.360</ele>
        <time>2020-08-30T11:05:05Z</time>
      </trkpt>
      <trkpt lat="39.829577" lon="-.471608">
        <ele>374.332</ele>
        <time>2020-08-30T11:05:07Z</time>
      </trkpt>
      <trkpt lat="39.829561" lon="-.471551">
        <ele>374.364</ele>
        <time>2020-08-30T11:05:08Z</time>
      </trkpt>
      <trkpt lat="39.829533" lon="-.47146">
        <ele>374.482</ele>
        <time>2020-08-30T11:05:10Z</time>
      </trkpt>
      <trkpt lat="39.829506" lon="-.471371">
        <ele>374.439</ele>
        <time>2020-08-30T11:05:12Z</time>
      </trkpt>
      <trkpt lat="39.829476" lon="-.471285">
        <ele>374.497</ele>
        <time>2020-08-30T11:05:14Z</time>
      </trkpt>
      <trkpt lat="39.829436" lon="-.471201">
        <ele>374.347</ele>
        <time>2020-08-30T11:05:16Z</time>
      </trkpt>
      <trkpt lat="39.829403" lon="-.471111">
        <ele>374.365</ele>
        <time>2020-08-30T11:05:18Z</time>
      </trkpt>
      <trkpt lat="39.829364" lon="-.471025">
        <ele>374.368</ele>
        <time>2020-08-30T11:05:20Z</time>
      </trkpt>
      <trkpt lat="39.829322" lon="-.470918">
        <ele>374.214</ele>
        <time>2020-08-30T11:05:22Z</time>
      </trkpt>
      <trkpt lat="39.829293" lon="-.470825">
        <ele>374.108</ele>
        <time>2020-08-30T11:05:24Z</time>
      </trkpt>
      <trkpt lat="39.829275" lon="-.47077">
        <ele>374.151</ele>
        <time>2020-08-30T11:05:25Z</time>
      </trkpt>
      <trkpt lat="39.829241" lon="-.470679">
        <ele>374.261</ele>
        <time>2020-08-30T11:05:27Z</time>
      </trkpt>
      <trkpt lat="39.829207" lon="-.470575">
        <ele>374.263</ele>
        <time>2020-08-30T11:05:29Z</time>
      </trkpt>
      <trkpt lat="39.829165" lon="-.470475">
        <ele>374.275</ele>
        <time>2020-08-30T11:05:31Z</time>
      </trkpt>
      <trkpt lat="39.829142" lon="-.47037">
        <ele>374.273</ele>
        <time>2020-08-30T11:05:33Z</time>
      </trkpt>
      <trkpt lat="39.829123" lon="-.470315">
        <ele>374.220</ele>
        <time>2020-08-30T11:05:34Z</time>
      </trkpt>
      <trkpt lat="39.82908" lon="-.470218">
        <ele>374.288</ele>
        <time>2020-08-30T11:05:36Z</time>
      </trkpt>
      <trkpt lat="39.829033" lon="-.470122">
        <ele>374.248</ele>
        <time>2020-08-30T11:05:38Z</time>
      </trkpt>
      <trkpt lat="39.828985" lon="-.470023">
        <ele>374.218</ele>
        <time>2020-08-30T11:05:40Z</time>
      </trkpt>
      <trkpt lat="39.828945" lon="-.469929">
        <ele>374.298</ele>
        <time>2020-08-30T11:05:42Z</time>
      </trkpt>
      <trkpt lat="39.828907" lon="-.469878">
        <ele>374.217</ele>
        <time>2020-08-30T11:05:43Z</time>
      </trkpt>
      <trkpt lat="39.828857" lon="-.4698">
        <ele>374.308</ele>
        <time>2020-08-30T11:05:45Z</time>
      </trkpt>
      <trkpt lat="39.828784" lon="-.469734">
        <ele>374.386</ele>
        <time>2020-08-30T11:05:47Z</time>
      </trkpt>
      <trkpt lat="39.828746" lon="-.469685">
        <ele>374.356</ele>
        <time>2020-08-30T11:05:48Z</time>
      </trkpt>
      <trkpt lat="39.828713" lon="-.469633">
        <ele>374.328</ele>
        <time>2020-08-30T11:05:49Z</time>
      </trkpt>
      <trkpt lat="39.828687" lon="-.469579">
        <ele>374.350</ele>
        <time>2020-08-30T11:05:50Z</time>
      </trkpt>
      <trkpt lat="39.828653" lon="-.469535">
        <ele>374.368</ele>
        <time>2020-08-30T11:05:51Z</time>
      </trkpt>
      <trkpt lat="39.828622" lon="-.469489">
        <ele>374.465</ele>
        <time>2020-08-30T11:05:52Z</time>
      </trkpt>
      <trkpt lat="39.828554" lon="-.469415">
        <ele>374.653</ele>
        <time>2020-08-30T11:05:54Z</time>
      </trkpt>
      <trkpt lat="39.828521" lon="-.469373">
        <ele>374.643</ele>
        <time>2020-08-30T11:05:55Z</time>
      </trkpt>
      <trkpt lat="39.828481" lon="-.46933">
        <ele>374.627</ele>
        <time>2020-08-30T11:05:56Z</time>
      </trkpt>
      <trkpt lat="39.828437" lon="-.469287">
        <ele>374.568</ele>
        <time>2020-08-30T11:05:57Z</time>
      </trkpt>
      <trkpt lat="39.828395" lon="-.469247">
        <ele>374.414</ele>
        <time>2020-08-30T11:05:58Z</time>
      </trkpt>
      <trkpt lat="39.828357" lon="-.469198">
        <ele>374.308</ele>
        <time>2020-08-30T11:05:59Z</time>
      </trkpt>
      <trkpt lat="39.828296" lon="-.469128">
        <ele>374.217</ele>
        <time>2020-08-30T11:06:01Z</time>
      </trkpt>
      <trkpt lat="39.828236" lon="-.469058">
        <ele>374.177</ele>
        <time>2020-08-30T11:06:03Z</time>
      </trkpt>
      <trkpt lat="39.828179" lon="-.468987">
        <ele>373.999</ele>
        <time>2020-08-30T11:06:05Z</time>
      </trkpt>
      <trkpt lat="39.828139" lon="-.468937">
        <ele>373.981</ele>
        <time>2020-08-30T11:06:06Z</time>
      </trkpt>
      <trkpt lat="39.828086" lon="-.468894">
        <ele>374.179</ele>
        <time>2020-08-30T11:06:08Z</time>
      </trkpt>
      <trkpt lat="39.828045" lon="-.468838">
        <ele>374.336</ele>
        <time>2020-08-30T11:06:10Z</time>
      </trkpt>
      <trkpt lat="39.827986" lon="-.468757">
        <ele>373.974</ele>
        <time>2020-08-30T11:06:12Z</time>
      </trkpt>
      <trkpt lat="39.827927" lon="-.468691">
        <ele>373.934</ele>
        <time>2020-08-30T11:06:14Z</time>
      </trkpt>
      <trkpt lat="39.82789" lon="-.468654">
        <ele>374.058</ele>
        <time>2020-08-30T11:06:15Z</time>
      </trkpt>
      <trkpt lat="39.827827" lon="-.468602">
        <ele>374.152</ele>
        <time>2020-08-30T11:06:17Z</time>
      </trkpt>
      <trkpt lat="39.827785" lon="-.468557">
        <ele>373.817</ele>
        <time>2020-08-30T11:06:18Z</time>
      </trkpt>
      <trkpt lat="39.827748" lon="-.468521">
        <ele>373.808</ele>
        <time>2020-08-30T11:06:19Z</time>
      </trkpt>
      <trkpt lat="39.827679" lon="-.46845">
        <ele>373.970</ele>
        <time>2020-08-30T11:06:21Z</time>
      </trkpt>
      <trkpt lat="39.827644" lon="-.46841">
        <ele>374.470</ele>
        <time>2020-08-30T11:06:22Z</time>
      </trkpt>
      <trkpt lat="39.82761" lon="-.468371">
        <ele>374.422</ele>
        <time>2020-08-30T11:06:23Z</time>
      </trkpt>
      <trkpt lat="39.827545" lon="-.468287">
        <ele>374.444</ele>
        <time>2020-08-30T11:06:25Z</time>
      </trkpt>
      <trkpt lat="39.827514" lon="-.468243">
        <ele>374.442</ele>
        <time>2020-08-30T11:06:26Z</time>
      </trkpt>
      <trkpt lat="39.827453" lon="-.468158">
        <ele>374.359</ele>
        <time>2020-08-30T11:06:28Z</time>
      </trkpt>
      <trkpt lat="39.827389" lon="-.468076">
        <ele>374.377</ele>
        <time>2020-08-30T11:06:30Z</time>
      </trkpt>
      <trkpt lat="39.827356" lon="-.468034">
        <ele>374.337</ele>
        <time>2020-08-30T11:06:31Z</time>
      </trkpt>
      <trkpt lat="39.827323" lon="-.467992">
        <ele>374.394</ele>
        <time>2020-08-30T11:06:32Z</time>
      </trkpt>
      <trkpt lat="39.827261" lon="-.467904">
        <ele>374.257</ele>
        <time>2020-08-30T11:06:34Z</time>
      </trkpt>
      <trkpt lat="39.827193" lon="-.467824">
        <ele>374.122</ele>
        <time>2020-08-30T11:06:36Z</time>
      </trkpt>
      <trkpt lat="39.827124" lon="-.467752">
        <ele>374.208</ele>
        <time>2020-08-30T11:06:38Z</time>
      </trkpt>
      <trkpt lat="39.827058" lon="-.467669">
        <ele>374.224</ele>
        <time>2020-08-30T11:06:40Z</time>
      </trkpt>
      <trkpt lat="39.826995" lon="-.467579">
        <ele>374.154</ele>
        <time>2020-08-30T11:06:42Z</time>
      </trkpt>
      <trkpt lat="39.826965" lon="-.467535">
        <ele>374.146</ele>
        <time>2020-08-30T11:06:43Z</time>
      </trkpt>
      <trkpt lat="39.826899" lon="-.467451">
        <ele>374.288</ele>
        <time>2020-08-30T11:06:45Z</time>
      </trkpt>
      <trkpt lat="39.826871" lon="-.467399">
        <ele>374.266</ele>
        <time>2020-08-30T11:06:46Z</time>
      </trkpt>
      <trkpt lat="39.826819" lon="-.46731">
        <ele>374.373</ele>
        <time>2020-08-30T11:06:48Z</time>
      </trkpt>
      <trkpt lat="39.826787" lon="-.467267">
        <ele>374.341</ele>
        <time>2020-08-30T11:06:49Z</time>
      </trkpt>
      <trkpt lat="39.826765" lon="-.467211">
        <ele>374.361</ele>
        <time>2020-08-30T11:06:50Z</time>
      </trkpt>
      <trkpt lat="39.826738" lon="-.46716">
        <ele>374.379</ele>
        <time>2020-08-30T11:06:51Z</time>
      </trkpt>
      <trkpt lat="39.826716" lon="-.467105">
        <ele>374.305</ele>
        <time>2020-08-30T11:06:52Z</time>
      </trkpt>
      <trkpt lat="39.826676" lon="-.466999">
        <ele>374.225</ele>
        <time>2020-08-30T11:06:54Z</time>
      </trkpt>
      <trkpt lat="39.826653" lon="-.466946">
        <ele>374.208</ele>
        <time>2020-08-30T11:06:55Z</time>
      </trkpt>
      <trkpt lat="39.826621" lon="-.466835">
        <ele>374.312</ele>
        <time>2020-08-30T11:06:57Z</time>
      </trkpt>
      <trkpt lat="39.826604" lon="-.46678">
        <ele>374.432</ele>
        <time>2020-08-30T11:06:58Z</time>
      </trkpt>
      <trkpt lat="39.826589" lon="-.466724">
        <ele>374.474</ele>
        <time>2020-08-30T11:06:59Z</time>
      </trkpt>
      <trkpt lat="39.826574" lon="-.466668">
        <ele>374.426</ele>
        <time>2020-08-30T11:07:00Z</time>
      </trkpt>
      <trkpt lat="39.826553" lon="-.466551">
        <ele>374.454</ele>
        <time>2020-08-30T11:07:02Z</time>
      </trkpt>
      <trkpt lat="39.826542" lon="-.466492">
        <ele>374.421</ele>
        <time>2020-08-30T11:07:03Z</time>
      </trkpt>
      <trkpt lat="39.826529" lon="-.466436">
        <ele>374.499</ele>
        <time>2020-08-30T11:07:04Z</time>
      </trkpt>
      <trkpt lat="39.826518" lon="-.466325">
        <ele>374.439</ele>
        <time>2020-08-30T11:07:06Z</time>
      </trkpt>
      <trkpt lat="39.826514" lon="-.466264">
        <ele>374.327</ele>
        <time>2020-08-30T11:07:07Z</time>
      </trkpt>
      <trkpt lat="39.826502" lon="-.466154">
        <ele>374.368</ele>
        <time>2020-08-30T11:07:09Z</time>
      </trkpt>
      <trkpt lat="39.826501" lon="-.46609">
        <ele>374.314</ele>
        <time>2020-08-30T11:07:10Z</time>
      </trkpt>
      <trkpt lat="39.826499" lon="-.466029">
        <ele>374.308</ele>
        <time>2020-08-30T11:07:11Z</time>
      </trkpt>
      <trkpt lat="39.8265" lon="-.465968">
        <ele>374.387</ele>
        <time>2020-08-30T11:07:12Z</time>
      </trkpt>
      <trkpt lat="39.826499" lon="-.465909">
        <ele>374.437</ele>
        <time>2020-08-30T11:07:13Z</time>
      </trkpt>
      <trkpt lat="39.826502" lon="-.465849">
        <ele>374.419</ele>
        <time>2020-08-30T11:07:14Z</time>
      </trkpt>
      <trkpt lat="39.826495" lon="-.465735">
        <ele>374.411</ele>
        <time>2020-08-30T11:07:16Z</time>
      </trkpt>
      <trkpt lat="39.826494" lon="-.465675">
        <ele>374.499</ele>
        <time>2020-08-30T11:07:17Z</time>
      </trkpt>
      <trkpt lat="39.82649" lon="-.465559">
        <ele>374.576</ele>
        <time>2020-08-30T11:07:19Z</time>
      </trkpt>
      <trkpt lat="39.826491" lon="-.465437">
        <ele>374.564</ele>
        <time>2020-08-30T11:07:21Z</time>
      </trkpt>
      <trkpt lat="39.826484" lon="-.465378">
        <ele>374.584</ele>
        <time>2020-08-30T11:07:22Z</time>
      </trkpt>
      <trkpt lat="39.826483" lon="-.465259">
        <ele>374.456</ele>
        <time>2020-08-30T11:07:24Z</time>
      </trkpt>
      <trkpt lat="39.82648" lon="-.465146">
        <ele>374.459</ele>
        <time>2020-08-30T11:07:26Z</time>
      </trkpt>
      <trkpt lat="39.826476" lon="-.465087">
        <ele>374.214</ele>
        <time>2020-08-30T11:07:27Z</time>
      </trkpt>
      <trkpt lat="39.826476" lon="-.465026">
        <ele>374.208</ele>
        <time>2020-08-30T11:07:28Z</time>
      </trkpt>
      <trkpt lat="39.826475" lon="-.464966">
        <ele>374.220</ele>
        <time>2020-08-30T11:07:29Z</time>
      </trkpt>
      <trkpt lat="39.826469" lon="-.464849">
        <ele>374.310</ele>
        <time>2020-08-30T11:07:31Z</time>
      </trkpt>
      <trkpt lat="39.826468" lon="-.464787">
        <ele>374.382</ele>
        <time>2020-08-30T11:07:32Z</time>
      </trkpt>
      <trkpt lat="39.826456" lon="-.464676">
        <ele>374.324</ele>
        <time>2020-08-30T11:07:34Z</time>
      </trkpt>
      <trkpt lat="39.826447" lon="-.464559">
        <ele>374.172</ele>
        <time>2020-08-30T11:07:36Z</time>
      </trkpt>
      <trkpt lat="39.826443" lon="-.464497">
        <ele>374.079</ele>
        <time>2020-08-30T11:07:37Z</time>
      </trkpt>
      <trkpt lat="39.826441" lon="-.464437">
        <ele>373.957</ele>
        <time>2020-08-30T11:07:38Z</time>
      </trkpt>
      <trkpt lat="39.826439" lon="-.464378">
        <ele>373.987</ele>
        <time>2020-08-30T11:07:39Z</time>
      </trkpt>
      <trkpt lat="39.826439" lon="-.464258">
        <ele>374.067</ele>
        <time>2020-08-30T11:07:41Z</time>
      </trkpt>
      <trkpt lat="39.826435" lon="-.464145">
        <ele>374.081</ele>
        <time>2020-08-30T11:07:43Z</time>
      </trkpt>
      <trkpt lat="39.826432" lon="-.46408">
        <ele>374.019</ele>
        <time>2020-08-30T11:07:44Z</time>
      </trkpt>
      <trkpt lat="39.826416" lon="-.46397">
        <ele>374.008</ele>
        <time>2020-08-30T11:07:46Z</time>
      </trkpt>
      <trkpt lat="39.826411" lon="-.463906">
        <ele>374.021</ele>
        <time>2020-08-30T11:07:47Z</time>
      </trkpt>
      <trkpt lat="39.826407" lon="-.463841">
        <ele>374.021</ele>
        <time>2020-08-30T11:07:48Z</time>
      </trkpt>
      <trkpt lat="39.826398" lon="-.463782">
        <ele>374.083</ele>
        <time>2020-08-30T11:07:49Z</time>
      </trkpt>
      <trkpt lat="39.82638" lon="-.463673">
        <ele>374.025</ele>
        <time>2020-08-30T11:07:51Z</time>
      </trkpt>
      <trkpt lat="39.826365" lon="-.463616">
        <ele>374.053</ele>
        <time>2020-08-30T11:07:52Z</time>
      </trkpt>
      <trkpt lat="39.826352" lon="-.463556">
        <ele>374.120</ele>
        <time>2020-08-30T11:07:53Z</time>
      </trkpt>
      <trkpt lat="39.82633" lon="-.463449">
        <ele>374.198</ele>
        <time>2020-08-30T11:07:55Z</time>
      </trkpt>
      <trkpt lat="39.826315" lon="-.463392">
        <ele>374.058</ele>
        <time>2020-08-30T11:07:56Z</time>
      </trkpt>
      <trkpt lat="39.826294" lon="-.463336">
        <ele>374.085</ele>
        <time>2020-08-30T11:07:57Z</time>
      </trkpt>
      <trkpt lat="39.826274" lon="-.463283">
        <ele>373.989</ele>
        <time>2020-08-30T11:07:58Z</time>
      </trkpt>
      <trkpt lat="39.826232" lon="-.46317">
        <ele>374.017</ele>
        <time>2020-08-30T11:08:00Z</time>
      </trkpt>
      <trkpt lat="39.826211" lon="-.463115">
        <ele>374.108</ele>
        <time>2020-08-30T11:08:01Z</time>
      </trkpt>
      <trkpt lat="39.826189" lon="-.463062">
        <ele>374.113</ele>
        <time>2020-08-30T11:08:02Z</time>
      </trkpt>
      <trkpt lat="39.826167" lon="-.46301">
        <ele>374.223</ele>
        <time>2020-08-30T11:08:03Z</time>
      </trkpt>
      <trkpt lat="39.826144" lon="-.462955">
        <ele>374.255</ele>
        <time>2020-08-30T11:08:04Z</time>
      </trkpt>
      <trkpt lat="39.82612" lon="-.462904">
        <ele>374.287</ele>
        <time>2020-08-30T11:08:05Z</time>
      </trkpt>
      <trkpt lat="39.826092" lon="-.462857">
        <ele>374.175</ele>
        <time>2020-08-30T11:08:06Z</time>
      </trkpt>
      <trkpt lat="39.826043" lon="-.462751">
        <ele>374.172</ele>
        <time>2020-08-30T11:08:08Z</time>
      </trkpt>
      <trkpt lat="39.826019" lon="-.462701">
        <ele>374.110</ele>
        <time>2020-08-30T11:08:09Z</time>
      </trkpt>
      <trkpt lat="39.825997" lon="-.462649">
        <ele>374.120</ele>
        <time>2020-08-30T11:08:10Z</time>
      </trkpt>
      <trkpt lat="39.825972" lon="-.462599">
        <ele>374.231</ele>
        <time>2020-08-30T11:08:11Z</time>
      </trkpt>
      <trkpt lat="39.825942" lon="-.46255">
        <ele>374.361</ele>
        <time>2020-08-30T11:08:12Z</time>
      </trkpt>
      <trkpt lat="39.825918" lon="-.4625">
        <ele>374.407</ele>
        <time>2020-08-30T11:08:13Z</time>
      </trkpt>
      <trkpt lat="39.825895" lon="-.462443">
        <ele>374.408</ele>
        <time>2020-08-30T11:08:14Z</time>
      </trkpt>
      <trkpt lat="39.825868" lon="-.462395">
        <ele>374.498</ele>
        <time>2020-08-30T11:08:15Z</time>
      </trkpt>
      <trkpt lat="39.825842" lon="-.462342">
        <ele>374.488</ele>
        <time>2020-08-30T11:08:16Z</time>
      </trkpt>
      <trkpt lat="39.825821" lon="-.462287">
        <ele>374.450</ele>
        <time>2020-08-30T11:08:17Z</time>
      </trkpt>
      <trkpt lat="39.825798" lon="-.462233">
        <ele>374.462</ele>
        <time>2020-08-30T11:08:18Z</time>
      </trkpt>
      <trkpt lat="39.825773" lon="-.462184">
        <ele>374.440</ele>
        <time>2020-08-30T11:08:19Z</time>
      </trkpt>
      <trkpt lat="39.825749" lon="-.46213">
        <ele>374.427</ele>
        <time>2020-08-30T11:08:20Z</time>
      </trkpt>
      <trkpt lat="39.825724" lon="-.462076">
        <ele>374.425</ele>
        <time>2020-08-30T11:08:21Z</time>
      </trkpt>
      <trkpt lat="39.825703" lon="-.462023">
        <ele>374.435</ele>
        <time>2020-08-30T11:08:22Z</time>
      </trkpt>
      <trkpt lat="39.825681" lon="-.461969">
        <ele>374.424</ele>
        <time>2020-08-30T11:08:23Z</time>
      </trkpt>
      <trkpt lat="39.825656" lon="-.461913">
        <ele>374.204</ele>
        <time>2020-08-30T11:08:24Z</time>
      </trkpt>
      <trkpt lat="39.825629" lon="-.461865">
        <ele>374.214</ele>
        <time>2020-08-30T11:08:25Z</time>
      </trkpt>
      <trkpt lat="39.825608" lon="-.461813">
        <ele>374.208</ele>
        <time>2020-08-30T11:08:26Z</time>
      </trkpt>
      <trkpt lat="39.825588" lon="-.461757">
        <ele>374.117</ele>
        <time>2020-08-30T11:08:27Z</time>
      </trkpt>
      <trkpt lat="39.825538" lon="-.461655">
        <ele>374.167</ele>
        <time>2020-08-30T11:08:29Z</time>
      </trkpt>
      <trkpt lat="39.825516" lon="-.461598">
        <ele>374.199</ele>
        <time>2020-08-30T11:08:30Z</time>
      </trkpt>
      <trkpt lat="39.825493" lon="-.461546">
        <ele>374.161</ele>
        <time>2020-08-30T11:08:31Z</time>
      </trkpt>
      <trkpt lat="39.825467" lon="-.461497">
        <ele>374.189</ele>
        <time>2020-08-30T11:08:32Z</time>
      </trkpt>
      <trkpt lat="39.825421" lon="-.461396">
        <ele>374.256</ele>
        <time>2020-08-30T11:08:34Z</time>
      </trkpt>
      <trkpt lat="39.82537" lon="-.461297">
        <ele>374.184</ele>
        <time>2020-08-30T11:08:36Z</time>
      </trkpt>
      <trkpt lat="39.825345" lon="-.461247">
        <ele>374.084</ele>
        <time>2020-08-30T11:08:37Z</time>
      </trkpt>
      <trkpt lat="39.825303" lon="-.461145">
        <ele>374.159</ele>
        <time>2020-08-30T11:08:39Z</time>
      </trkpt>
      <trkpt lat="39.825277" lon="-.461095">
        <ele>374.203</ele>
        <time>2020-08-30T11:08:40Z</time>
      </trkpt>
      <trkpt lat="39.825257" lon="-.461041">
        <ele>374.323</ele>
        <time>2020-08-30T11:08:41Z</time>
      </trkpt>
      <trkpt lat="39.825234" lon="-.460987">
        <ele>374.308</ele>
        <time>2020-08-30T11:08:42Z</time>
      </trkpt>
      <trkpt lat="39.825207" lon="-.460936">
        <ele>374.490</ele>
        <time>2020-08-30T11:08:43Z</time>
      </trkpt>
      <trkpt lat="39.825156" lon="-.460831">
        <ele>374.430</ele>
        <time>2020-08-30T11:08:45Z</time>
      </trkpt>
      <trkpt lat="39.82511" lon="-.460724">
        <ele>374.312</ele>
        <time>2020-08-30T11:08:47Z</time>
      </trkpt>
      <trkpt lat="39.825086" lon="-.460671">
        <ele>374.244</ele>
        <time>2020-08-30T11:08:48Z</time>
      </trkpt>
      <trkpt lat="39.825032" lon="-.460567">
        <ele>374.112</ele>
        <time>2020-08-30T11:08:50Z</time>
      </trkpt>
      <trkpt lat="39.82501" lon="-.460516">
        <ele>374.029</ele>
        <time>2020-08-30T11:08:51Z</time>
      </trkpt>
      <trkpt lat="39.824984" lon="-.460463">
        <ele>374.057</ele>
        <time>2020-08-30T11:08:52Z</time>
      </trkpt>
      <trkpt lat="39.824961" lon="-.460407">
        <ele>374.027</ele>
        <time>2020-08-30T11:08:53Z</time>
      </trkpt>
      <trkpt lat="39.824938" lon="-.460354">
        <ele>374.098</ele>
        <time>2020-08-30T11:08:54Z</time>
      </trkpt>
      <trkpt lat="39.824909" lon="-.4603">
        <ele>374.015</ele>
        <time>2020-08-30T11:08:55Z</time>
      </trkpt>
      <trkpt lat="39.824889" lon="-.460244">
        <ele>373.926</ele>
        <time>2020-08-30T11:08:56Z</time>
      </trkpt>
      <trkpt lat="39.824842" lon="-.460145">
        <ele>373.908</ele>
        <time>2020-08-30T11:08:58Z</time>
      </trkpt>
      <trkpt lat="39.824796" lon="-.460051">
        <ele>374.134</ele>
        <time>2020-08-30T11:09:00Z</time>
      </trkpt>
      <trkpt lat="39.824752" lon="-.459956">
        <ele>374.264</ele>
        <time>2020-08-30T11:09:02Z</time>
      </trkpt>
      <trkpt lat="39.824728" lon="-.459906">
        <ele>374.296</ele>
        <time>2020-08-30T11:09:03Z</time>
      </trkpt>
      <trkpt lat="39.824697" lon="-.459856">
        <ele>374.198</ele>
        <time>2020-08-30T11:09:04Z</time>
      </trkpt>
      <trkpt lat="39.824672" lon="-.459805">
        <ele>374.046</ele>
        <time>2020-08-30T11:09:05Z</time>
      </trkpt>
      <trkpt lat="39.824649" lon="-.45975">
        <ele>373.873</ele>
        <time>2020-08-30T11:09:06Z</time>
      </trkpt>
      <trkpt lat="39.824633" lon="-.459693">
        <ele>373.891</ele>
        <time>2020-08-30T11:09:07Z</time>
      </trkpt>
      <trkpt lat="39.824609" lon="-.459618">
        <ele>374.051</ele>
        <time>2020-08-30T11:09:08Z</time>
      </trkpt>
      <trkpt lat="39.824586" lon="-.459562">
        <ele>374.086</ele>
        <time>2020-08-30T11:09:09Z</time>
      </trkpt>
      <trkpt lat="39.824539" lon="-.45947">
        <ele>373.560</ele>
        <time>2020-08-30T11:09:11Z</time>
      </trkpt>
      <trkpt lat="39.824512" lon="-.45942">
        <ele>373.426</ele>
        <time>2020-08-30T11:09:12Z</time>
      </trkpt>
      <trkpt lat="39.824487" lon="-.459365">
        <ele>372.708</ele>
        <time>2020-08-30T11:09:13Z</time>
      </trkpt>
      <trkpt lat="39.824433" lon="-.459262">
        <ele>372.443</ele>
        <time>2020-08-30T11:09:15Z</time>
      </trkpt>
      <trkpt lat="39.824411" lon="-.45921">
        <ele>372.493</ele>
        <time>2020-08-30T11:09:16Z</time>
      </trkpt>
      <trkpt lat="39.824366" lon="-.459115">
        <ele>372.265</ele>
        <time>2020-08-30T11:09:18Z</time>
      </trkpt>
      <trkpt lat="39.824338" lon="-.459064">
        <ele>372.267</ele>
        <time>2020-08-30T11:09:19Z</time>
      </trkpt>
      <trkpt lat="39.824313" lon="-.459012">
        <ele>372.215</ele>
        <time>2020-08-30T11:09:20Z</time>
      </trkpt>
      <trkpt lat="39.824268" lon="-.458918">
        <ele>372.082</ele>
        <time>2020-08-30T11:09:22Z</time>
      </trkpt>
      <trkpt lat="39.824245" lon="-.458864">
        <ele>371.960</ele>
        <time>2020-08-30T11:09:23Z</time>
      </trkpt>
      <trkpt lat="39.82422" lon="-.458814">
        <ele>371.830</ele>
        <time>2020-08-30T11:09:24Z</time>
      </trkpt>
      <trkpt lat="39.824193" lon="-.458761">
        <ele>371.712</ele>
        <time>2020-08-30T11:09:25Z</time>
      </trkpt>
      <trkpt lat="39.824169" lon="-.458709">
        <ele>371.632</ele>
        <time>2020-08-30T11:09:26Z</time>
      </trkpt>
      <trkpt lat="39.824125" lon="-.458606">
        <ele>371.405</ele>
        <time>2020-08-30T11:09:28Z</time>
      </trkpt>
      <trkpt lat="39.824083" lon="-.458505">
        <ele>371.308</ele>
        <time>2020-08-30T11:09:30Z</time>
      </trkpt>
      <trkpt lat="39.824038" lon="-.458412">
        <ele>371.136</ele>
        <time>2020-08-30T11:09:32Z</time>
      </trkpt>
      <trkpt lat="39.824017" lon="-.458354">
        <ele>371.026</ele>
        <time>2020-08-30T11:09:33Z</time>
      </trkpt>
      <trkpt lat="39.823968" lon="-.458254">
        <ele>370.968</ele>
        <time>2020-08-30T11:09:35Z</time>
      </trkpt>
      <trkpt lat="39.823922" lon="-.45816">
        <ele>370.960</ele>
        <time>2020-08-30T11:09:37Z</time>
      </trkpt>
      <trkpt lat="39.823898" lon="-.458106">
        <ele>370.868</ele>
        <time>2020-08-30T11:09:38Z</time>
      </trkpt>
      <trkpt lat="39.82388" lon="-.458052">
        <ele>370.685</ele>
        <time>2020-08-30T11:09:39Z</time>
      </trkpt>
      <trkpt lat="39.823835" lon="-.457951">
        <ele>370.243</ele>
        <time>2020-08-30T11:09:41Z</time>
      </trkpt>
      <trkpt lat="39.823809" lon="-.457899">
        <ele>370.023</ele>
        <time>2020-08-30T11:09:42Z</time>
      </trkpt>
      <trkpt lat="39.82378" lon="-.457844">
        <ele>370.031</ele>
        <time>2020-08-30T11:09:43Z</time>
      </trkpt>
      <trkpt lat="39.823759" lon="-.457787">
        <ele>370.161</ele>
        <time>2020-08-30T11:09:44Z</time>
      </trkpt>
      <trkpt lat="39.823736" lon="-.457733">
        <ele>370.107</ele>
        <time>2020-08-30T11:09:45Z</time>
      </trkpt>
      <trkpt lat="39.823713" lon="-.457682">
        <ele>370.108</ele>
        <time>2020-08-30T11:09:46Z</time>
      </trkpt>
      <trkpt lat="39.823667" lon="-.457574">
        <ele>370.028</ele>
        <time>2020-08-30T11:09:48Z</time>
      </trkpt>
      <trkpt lat="39.823639" lon="-.457515">
        <ele>369.898</ele>
        <time>2020-08-30T11:09:49Z</time>
      </trkpt>
      <trkpt lat="39.823615" lon="-.457457">
        <ele>369.730</ele>
        <time>2020-08-30T11:09:50Z</time>
      </trkpt>
      <trkpt lat="39.823588" lon="-.457408">
        <ele>369.582</ele>
        <time>2020-08-30T11:09:51Z</time>
      </trkpt>
      <trkpt lat="39.823558" lon="-.457353">
        <ele>369.370</ele>
        <time>2020-08-30T11:09:52Z</time>
      </trkpt>
      <trkpt lat="39.823532" lon="-.457298">
        <ele>369.127</ele>
        <time>2020-08-30T11:09:53Z</time>
      </trkpt>
      <trkpt lat="39.823509" lon="-.457236">
        <ele>369.045</ele>
        <time>2020-08-30T11:09:54Z</time>
      </trkpt>
      <trkpt lat="39.823484" lon="-.457182">
        <ele>368.955</ele>
        <time>2020-08-30T11:09:55Z</time>
      </trkpt>
      <trkpt lat="39.823459" lon="-.457117">
        <ele>368.927</ele>
        <time>2020-08-30T11:09:56Z</time>
      </trkpt>
      <trkpt lat="39.823432" lon="-.457065">
        <ele>368.968</ele>
        <time>2020-08-30T11:09:57Z</time>
      </trkpt>
      <trkpt lat="39.823406" lon="-.45701">
        <ele>368.914</ele>
        <time>2020-08-30T11:09:58Z</time>
      </trkpt>
      <trkpt lat="39.823381" lon="-.456951">
        <ele>368.808</ele>
        <time>2020-08-30T11:09:59Z</time>
      </trkpt>
      <trkpt lat="39.823358" lon="-.456894">
        <ele>368.797</ele>
        <time>2020-08-30T11:10:00Z</time>
      </trkpt>
      <trkpt lat="39.823335" lon="-.456837">
        <ele>368.657</ele>
        <time>2020-08-30T11:10:01Z</time>
      </trkpt>
      <trkpt lat="39.823313" lon="-.456781">
        <ele>368.569</ele>
        <time>2020-08-30T11:10:02Z</time>
      </trkpt>
      <trkpt lat="39.823269" lon="-.456676">
        <ele>368.251</ele>
        <time>2020-08-30T11:10:04Z</time>
      </trkpt>
      <trkpt lat="39.823228" lon="-.456635">
        <ele>368.089</ele>
        <time>2020-08-30T11:10:05Z</time>
      </trkpt>
      <trkpt lat="39.823202" lon="-.456566">
        <ele>367.776</ele>
        <time>2020-08-30T11:10:06Z</time>
      </trkpt>
      <trkpt lat="39.823152" lon="-.456466">
        <ele>367.284</ele>
        <time>2020-08-30T11:10:08Z</time>
      </trkpt>
      <trkpt lat="39.823117" lon="-.45642">
        <ele>367.124</ele>
        <time>2020-08-30T11:10:09Z</time>
      </trkpt>
      <trkpt lat="39.823072" lon="-.456332">
        <ele>366.981</ele>
        <time>2020-08-30T11:10:11Z</time>
      </trkpt>
      <trkpt lat="39.823028" lon="-.456247">
        <ele>366.761</ele>
        <time>2020-08-30T11:10:13Z</time>
      </trkpt>
      <trkpt lat="39.82299" lon="-.456169">
        <ele>366.617</ele>
        <time>2020-08-30T11:10:15Z</time>
      </trkpt>
      <trkpt lat="39.822932" lon="-.456095">
        <ele>366.508</ele>
        <time>2020-08-30T11:10:17Z</time>
      </trkpt>
      <trkpt lat="39.822902" lon="-.456049">
        <ele>366.433</ele>
        <time>2020-08-30T11:10:18Z</time>
      </trkpt>
      <trkpt lat="39.822869" lon="-.456008">
        <ele>366.353</ele>
        <time>2020-08-30T11:10:19Z</time>
      </trkpt>
      <trkpt lat="39.822838" lon="-.455958">
        <ele>366.245</ele>
        <time>2020-08-30T11:10:20Z</time>
      </trkpt>
      <trkpt lat="39.822805" lon="-.455912">
        <ele>366.157</ele>
        <time>2020-08-30T11:10:21Z</time>
      </trkpt>
      <trkpt lat="39.822734" lon="-.455823">
        <ele>365.935</ele>
        <time>2020-08-30T11:10:23Z</time>
      </trkpt>
      <trkpt lat="39.822687" lon="-.455773">
        <ele>365.842</ele>
        <time>2020-08-30T11:10:24Z</time>
      </trkpt>
      <trkpt lat="39.822647" lon="-.455726">
        <ele>365.880</ele>
        <time>2020-08-30T11:10:25Z</time>
      </trkpt>
      <trkpt lat="39.822604" lon="-.455678">
        <ele>365.880</ele>
        <time>2020-08-30T11:10:26Z</time>
      </trkpt>
      <trkpt lat="39.822559" lon="-.455625">
        <ele>365.798</ele>
        <time>2020-08-30T11:10:27Z</time>
      </trkpt>
      <trkpt lat="39.822515" lon="-.45558">
        <ele>365.615</ele>
        <time>2020-08-30T11:10:28Z</time>
      </trkpt>
      <trkpt lat="39.822469" lon="-.455532">
        <ele>365.626</ele>
        <time>2020-08-30T11:10:29Z</time>
      </trkpt>
      <trkpt lat="39.82242" lon="-.455489">
        <ele>365.508</ele>
        <time>2020-08-30T11:10:30Z</time>
      </trkpt>
      <trkpt lat="39.822371" lon="-.45545">
        <ele>365.494</ele>
        <time>2020-08-30T11:10:31Z</time>
      </trkpt>
      <trkpt lat="39.822325" lon="-.455405">
        <ele>365.354</ele>
        <time>2020-08-30T11:10:32Z</time>
      </trkpt>
      <trkpt lat="39.822279" lon="-.45537">
        <ele>365.236</ele>
        <time>2020-08-30T11:10:33Z</time>
      </trkpt>
      <trkpt lat="39.822232" lon="-.45533">
        <ele>365.158</ele>
        <time>2020-08-30T11:10:34Z</time>
      </trkpt>
      <trkpt lat="39.822187" lon="-.455295">
        <ele>364.976</ele>
        <time>2020-08-30T11:10:35Z</time>
      </trkpt>
      <trkpt lat="39.822139" lon="-.455258">
        <ele>364.893</ele>
        <time>2020-08-30T11:10:36Z</time>
      </trkpt>
      <trkpt lat="39.822092" lon="-.455222">
        <ele>364.721</ele>
        <time>2020-08-30T11:10:37Z</time>
      </trkpt>
      <trkpt lat="39.822044" lon="-.455185">
        <ele>364.631</ele>
        <time>2020-08-30T11:10:38Z</time>
      </trkpt>
      <trkpt lat="39.821997" lon="-.455151">
        <ele>364.413</ele>
        <time>2020-08-30T11:10:39Z</time>
      </trkpt>
      <trkpt lat="39.821948" lon="-.455112">
        <ele>364.343</ele>
        <time>2020-08-30T11:10:40Z</time>
      </trkpt>
      <trkpt lat="39.8219" lon="-.455079">
        <ele>364.207</ele>
        <time>2020-08-30T11:10:41Z</time>
      </trkpt>
      <trkpt lat="39.821851" lon="-.45504">
        <ele>363.808</ele>
        <time>2020-08-30T11:10:42Z</time>
      </trkpt>
      <trkpt lat="39.821802" lon="-.455003">
        <ele>363.786</ele>
        <time>2020-08-30T11:10:43Z</time>
      </trkpt>
      <trkpt lat="39.821754" lon="-.454964">
        <ele>363.696</ele>
        <time>2020-08-30T11:10:44Z</time>
      </trkpt>
      <trkpt lat="39.821705" lon="-.454934">
        <ele>363.558</ele>
        <time>2020-08-30T11:10:45Z</time>
      </trkpt>
      <trkpt lat="39.821657" lon="-.454898">
        <ele>363.480</ele>
        <time>2020-08-30T11:10:46Z</time>
      </trkpt>
      <trkpt lat="39.821608" lon="-.454856">
        <ele>363.368</ele>
        <time>2020-08-30T11:10:47Z</time>
      </trkpt>
      <trkpt lat="39.821561" lon="-.454818">
        <ele>363.195</ele>
        <time>2020-08-30T11:10:48Z</time>
      </trkpt>
      <trkpt lat="39.821519" lon="-.45478">
        <ele>362.953</ele>
        <time>2020-08-30T11:10:49Z</time>
      </trkpt>
      <trkpt lat="39.821465" lon="-.45474">
        <ele>362.993</ele>
        <time>2020-08-30T11:10:50Z</time>
      </trkpt>
      <trkpt lat="39.821408" lon="-.454705">
        <ele>362.818</ele>
        <time>2020-08-30T11:10:51Z</time>
      </trkpt>
      <trkpt lat="39.82136" lon="-.454667">
        <ele>362.898</ele>
        <time>2020-08-30T11:10:52Z</time>
      </trkpt>
      <trkpt lat="39.82131" lon="-.454624">
        <ele>362.817</ele>
        <time>2020-08-30T11:10:53Z</time>
      </trkpt>
      <trkpt lat="39.821256" lon="-.454579">
        <ele>362.708</ele>
        <time>2020-08-30T11:10:54Z</time>
      </trkpt>
      <trkpt lat="39.821196" lon="-.454544">
        <ele>362.596</ele>
        <time>2020-08-30T11:10:55Z</time>
      </trkpt>
      <trkpt lat="39.821144" lon="-.454505">
        <ele>362.566</ele>
        <time>2020-08-30T11:10:56Z</time>
      </trkpt>
      <trkpt lat="39.821091" lon="-.454461">
        <ele>362.378</ele>
        <time>2020-08-30T11:10:57Z</time>
      </trkpt>
      <trkpt lat="39.821033" lon="-.454416">
        <ele>362.290</ele>
        <time>2020-08-30T11:10:58Z</time>
      </trkpt>
      <trkpt lat="39.820978" lon="-.454377">
        <ele>362.018</ele>
        <time>2020-08-30T11:10:59Z</time>
      </trkpt>
      <trkpt lat="39.820927" lon="-.454336">
        <ele>361.935</ele>
        <time>2020-08-30T11:11:00Z</time>
      </trkpt>
      <trkpt lat="39.820869" lon="-.454287">
        <ele>361.623</ele>
        <time>2020-08-30T11:11:01Z</time>
      </trkpt>
      <trkpt lat="39.820811" lon="-.454243">
        <ele>361.553</ele>
        <time>2020-08-30T11:11:02Z</time>
      </trkpt>
      <trkpt lat="39.820757" lon="-.454205">
        <ele>361.488</ele>
        <time>2020-08-30T11:11:03Z</time>
      </trkpt>
      <trkpt lat="39.8207" lon="-.454163">
        <ele>361.324</ele>
        <time>2020-08-30T11:11:04Z</time>
      </trkpt>
      <trkpt lat="39.820637" lon="-.454115">
        <ele>361.126</ele>
        <time>2020-08-30T11:11:05Z</time>
      </trkpt>
      <trkpt lat="39.820578" lon="-.454067">
        <ele>361.008</ele>
        <time>2020-08-30T11:11:06Z</time>
      </trkpt>
      <trkpt lat="39.82052" lon="-.454019">
        <ele>360.923</ele>
        <time>2020-08-30T11:11:07Z</time>
      </trkpt>
      <trkpt lat="39.82046" lon="-.453977">
        <ele>360.943</ele>
        <time>2020-08-30T11:11:08Z</time>
      </trkpt>
      <trkpt lat="39.820406" lon="-.453931">
        <ele>360.835</ele>
        <time>2020-08-30T11:11:09Z</time>
      </trkpt>
      <trkpt lat="39.820346" lon="-.453891">
        <ele>360.777</ele>
        <time>2020-08-30T11:11:10Z</time>
      </trkpt>
      <trkpt lat="39.82029" lon="-.453845">
        <ele>360.745</ele>
        <time>2020-08-30T11:11:11Z</time>
      </trkpt>
      <trkpt lat="39.820224" lon="-.4538">
        <ele>360.552</ele>
        <time>2020-08-30T11:11:12Z</time>
      </trkpt>
      <trkpt lat="39.820163" lon="-.453754">
        <ele>360.350</ele>
        <time>2020-08-30T11:11:13Z</time>
      </trkpt>
      <trkpt lat="39.820102" lon="-.453704">
        <ele>360.190</ele>
        <time>2020-08-30T11:11:14Z</time>
      </trkpt>
      <trkpt lat="39.820044" lon="-.453661">
        <ele>359.955</ele>
        <time>2020-08-30T11:11:15Z</time>
      </trkpt>
      <trkpt lat="39.819984" lon="-.453618">
        <ele>359.707</ele>
        <time>2020-08-30T11:11:16Z</time>
      </trkpt>
      <trkpt lat="39.819921" lon="-.45357">
        <ele>359.517</ele>
        <time>2020-08-30T11:11:17Z</time>
      </trkpt>
      <trkpt lat="39.819862" lon="-.453526">
        <ele>359.308</ele>
        <time>2020-08-30T11:11:18Z</time>
      </trkpt>
      <trkpt lat="39.819805" lon="-.453484">
        <ele>359.170</ele>
        <time>2020-08-30T11:11:19Z</time>
      </trkpt>
      <trkpt lat="39.819751" lon="-.453439">
        <ele>358.890</ele>
        <time>2020-08-30T11:11:20Z</time>
      </trkpt>
      <trkpt lat="39.819695" lon="-.453396">
        <ele>358.672</ele>
        <time>2020-08-30T11:11:21Z</time>
      </trkpt>
      <trkpt lat="39.819641" lon="-.453356">
        <ele>358.434</ele>
        <time>2020-08-30T11:11:22Z</time>
      </trkpt>
      <trkpt lat="39.819585" lon="-.453316">
        <ele>358.222</ele>
        <time>2020-08-30T11:11:23Z</time>
      </trkpt>
      <trkpt lat="39.819533" lon="-.453277">
        <ele>358.199</ele>
        <time>2020-08-30T11:11:24Z</time>
      </trkpt>
      <trkpt lat="39.819478" lon="-.453237">
        <ele>357.947</ele>
        <time>2020-08-30T11:11:25Z</time>
      </trkpt>
      <trkpt lat="39.819428" lon="-.453206">
        <ele>357.857</ele>
        <time>2020-08-30T11:11:26Z</time>
      </trkpt>
      <trkpt lat="39.819382" lon="-.453165">
        <ele>357.657</ele>
        <time>2020-08-30T11:11:27Z</time>
      </trkpt>
      <trkpt lat="39.819332" lon="-.453131">
        <ele>357.400</ele>
        <time>2020-08-30T11:11:28Z</time>
      </trkpt>
      <trkpt lat="39.819278" lon="-.453094">
        <ele>357.420</ele>
        <time>2020-08-30T11:11:29Z</time>
      </trkpt>
      <trkpt lat="39.819225" lon="-.453057">
        <ele>357.308</ele>
        <time>2020-08-30T11:11:30Z</time>
      </trkpt>
      <trkpt lat="39.81918" lon="-.453022">
        <ele>357.120</ele>
        <time>2020-08-30T11:11:31Z</time>
      </trkpt>
      <trkpt lat="39.819125" lon="-.452987">
        <ele>357.150</ele>
        <time>2020-08-30T11:11:32Z</time>
      </trkpt>
      <trkpt lat="39.819075" lon="-.45294">
        <ele>357.022</ele>
        <time>2020-08-30T11:11:33Z</time>
      </trkpt>
      <trkpt lat="39.819028" lon="-.452895">
        <ele>356.924</ele>
        <time>2020-08-30T11:11:34Z</time>
      </trkpt>
      <trkpt lat="39.818984" lon="-.452848">
        <ele>356.992</ele>
        <time>2020-08-30T11:11:35Z</time>
      </trkpt>
      <trkpt lat="39.81894" lon="-.452808">
        <ele>356.849</ele>
        <time>2020-08-30T11:11:36Z</time>
      </trkpt>
      <trkpt lat="39.818892" lon="-.452764">
        <ele>356.747</ele>
        <time>2020-08-30T11:11:37Z</time>
      </trkpt>
      <trkpt lat="39.818847" lon="-.452711">
        <ele>356.477</ele>
        <time>2020-08-30T11:11:38Z</time>
      </trkpt>
      <trkpt lat="39.818804" lon="-.452656">
        <ele>356.116</ele>
        <time>2020-08-30T11:11:39Z</time>
      </trkpt>
      <trkpt lat="39.818762" lon="-.452606">
        <ele>356.076</ele>
        <time>2020-08-30T11:11:40Z</time>
      </trkpt>
      <trkpt lat="39.818721" lon="-.452551">
        <ele>355.913</ele>
        <time>2020-08-30T11:11:41Z</time>
      </trkpt>
      <trkpt lat="39.81868" lon="-.452493">
        <ele>355.708</ele>
        <time>2020-08-30T11:11:42Z</time>
      </trkpt>
      <trkpt lat="39.818642" lon="-.452433">
        <ele>355.656</ele>
        <time>2020-08-30T11:11:43Z</time>
      </trkpt>
      <trkpt lat="39.818606" lon="-.452371">
        <ele>355.426</ele>
        <time>2020-08-30T11:11:44Z</time>
      </trkpt>
      <trkpt lat="39.818573" lon="-.452314">
        <ele>355.298</ele>
        <time>2020-08-30T11:11:45Z</time>
      </trkpt>
      <trkpt lat="39.818538" lon="-.452252">
        <ele>355.070</ele>
        <time>2020-08-30T11:11:46Z</time>
      </trkpt>
      <trkpt lat="39.818506" lon="-.452189">
        <ele>354.878</ele>
        <time>2020-08-30T11:11:47Z</time>
      </trkpt>
      <trkpt lat="39.818479" lon="-.45212">
        <ele>354.795</ele>
        <time>2020-08-30T11:11:48Z</time>
      </trkpt>
      <trkpt lat="39.818451" lon="-.452047">
        <ele>354.683</ele>
        <time>2020-08-30T11:11:49Z</time>
      </trkpt>
      <trkpt lat="39.818424" lon="-.451979">
        <ele>354.513</ele>
        <time>2020-08-30T11:11:50Z</time>
      </trkpt>
      <trkpt lat="39.818394" lon="-.45191">
        <ele>354.562</ele>
        <time>2020-08-30T11:11:51Z</time>
      </trkpt>
      <trkpt lat="39.818366" lon="-.451833">
        <ele>354.483</ele>
        <time>2020-08-30T11:11:52Z</time>
      </trkpt>
      <trkpt lat="39.81834" lon="-.451753">
        <ele>354.311</ele>
        <time>2020-08-30T11:11:53Z</time>
      </trkpt>
      <trkpt lat="39.818324" lon="-.451655">
        <ele>354.308</ele>
        <time>2020-08-30T11:11:54Z</time>
      </trkpt>
      <trkpt lat="39.818301" lon="-.451581">
        <ele>354.381</ele>
        <time>2020-08-30T11:11:55Z</time>
      </trkpt>
      <trkpt lat="39.818286" lon="-.451499">
        <ele>354.311</ele>
        <time>2020-08-30T11:11:56Z</time>
      </trkpt>
      <trkpt lat="39.818274" lon="-.451415">
        <ele>354.373</ele>
        <time>2020-08-30T11:11:57Z</time>
      </trkpt>
      <trkpt lat="39.818263" lon="-.451329">
        <ele>354.365</ele>
        <time>2020-08-30T11:11:58Z</time>
      </trkpt>
      <trkpt lat="39.818254" lon="-.451245">
        <ele>354.113</ele>
        <time>2020-08-30T11:11:59Z</time>
      </trkpt>
      <trkpt lat="39.81825" lon="-.45116">
        <ele>354.010</ele>
        <time>2020-08-30T11:12:00Z</time>
      </trkpt>
      <trkpt lat="39.81824" lon="-.45108">
        <ele>353.988</ele>
        <time>2020-08-30T11:12:01Z</time>
      </trkpt>
      <trkpt lat="39.818232" lon="-.450996">
        <ele>353.768</ele>
        <time>2020-08-30T11:12:02Z</time>
      </trkpt>
      <trkpt lat="39.818225" lon="-.450914">
        <ele>353.562</ele>
        <time>2020-08-30T11:12:03Z</time>
      </trkpt>
      <trkpt lat="39.818217" lon="-.450835">
        <ele>353.483</ele>
        <time>2020-08-30T11:12:04Z</time>
      </trkpt>
      <trkpt lat="39.818209" lon="-.450754">
        <ele>353.311</ele>
        <time>2020-08-30T11:12:05Z</time>
      </trkpt>
      <trkpt lat="39.818207" lon="-.450664">
        <ele>353.208</ele>
        <time>2020-08-30T11:12:06Z</time>
      </trkpt>
      <trkpt lat="39.8182" lon="-.450583">
        <ele>353.121</ele>
        <time>2020-08-30T11:12:07Z</time>
      </trkpt>
      <trkpt lat="39.818192" lon="-.450504">
        <ele>353.081</ele>
        <time>2020-08-30T11:12:08Z</time>
      </trkpt>
      <trkpt lat="39.818185" lon="-.450423">
        <ele>352.963</ele>
        <time>2020-08-30T11:12:09Z</time>
      </trkpt>
      <trkpt lat="39.81818" lon="-.450336">
        <ele>352.935</ele>
        <time>2020-08-30T11:12:10Z</time>
      </trkpt>
      <trkpt lat="39.818171" lon="-.45025">
        <ele>352.783</ele>
        <time>2020-08-30T11:12:11Z</time>
      </trkpt>
      <trkpt lat="39.818168" lon="-.450159">
        <ele>352.730</ele>
        <time>2020-08-30T11:12:12Z</time>
      </trkpt>
      <trkpt lat="39.818159" lon="-.450082">
        <ele>352.678</ele>
        <time>2020-08-30T11:12:13Z</time>
      </trkpt>
      <trkpt lat="39.818154" lon="-.449995">
        <ele>352.658</ele>
        <time>2020-08-30T11:12:14Z</time>
      </trkpt>
      <trkpt lat="39.818143" lon="-.449911">
        <ele>352.655</ele>
        <time>2020-08-30T11:12:15Z</time>
      </trkpt>
      <trkpt lat="39.818136" lon="-.44983">
        <ele>352.607</ele>
        <time>2020-08-30T11:12:16Z</time>
      </trkpt>
      <trkpt lat="39.818128" lon="-.449746">
        <ele>352.617</ele>
        <time>2020-08-30T11:12:17Z</time>
      </trkpt>
      <trkpt lat="39.818116" lon="-.449662">
        <ele>352.708</ele>
        <time>2020-08-30T11:12:18Z</time>
      </trkpt>
      <trkpt lat="39.818104" lon="-.449582">
        <ele>352.760</ele>
        <time>2020-08-30T11:12:19Z</time>
      </trkpt>
      <trkpt lat="39.818098" lon="-.449502">
        <ele>352.720</ele>
        <time>2020-08-30T11:12:20Z</time>
      </trkpt>
      <trkpt lat="39.818089" lon="-.449424">
        <ele>352.632</ele>
        <time>2020-08-30T11:12:21Z</time>
      </trkpt>
      <trkpt lat="39.818081" lon="-.449346">
        <ele>352.654</ele>
        <time>2020-08-30T11:12:22Z</time>
      </trkpt>
      <trkpt lat="39.818076" lon="-.44927">
        <ele>352.632</ele>
        <time>2020-08-30T11:12:23Z</time>
      </trkpt>
      <trkpt lat="39.818067" lon="-.449194">
        <ele>352.699</ele>
        <time>2020-08-30T11:12:24Z</time>
      </trkpt>
      <trkpt lat="39.818057" lon="-.449122">
        <ele>352.647</ele>
        <time>2020-08-30T11:12:25Z</time>
      </trkpt>
      <trkpt lat="39.818048" lon="-.449053">
        <ele>352.537</ele>
        <time>2020-08-30T11:12:26Z</time>
      </trkpt>
      <trkpt lat="39.818043" lon="-.448977">
        <ele>352.548</ele>
        <time>2020-08-30T11:12:27Z</time>
      </trkpt>
      <trkpt lat="39.818035" lon="-.448909">
        <ele>352.561</ele>
        <time>2020-08-30T11:12:28Z</time>
      </trkpt>
      <trkpt lat="39.818031" lon="-.448837">
        <ele>352.517</ele>
        <time>2020-08-30T11:12:29Z</time>
      </trkpt>
      <trkpt lat="39.818026" lon="-.448764">
        <ele>352.508</ele>
        <time>2020-08-30T11:12:30Z</time>
      </trkpt>
      <trkpt lat="39.818013" lon="-.448704">
        <ele>352.699</ele>
        <time>2020-08-30T11:12:31Z</time>
      </trkpt>
      <trkpt lat="39.818006" lon="-.448638">
        <ele>352.629</ele>
        <time>2020-08-30T11:12:32Z</time>
      </trkpt>
      <trkpt lat="39.817999" lon="-.44858">
        <ele>352.641</ele>
        <time>2020-08-30T11:12:33Z</time>
      </trkpt>
      <trkpt lat="39.817982" lon="-.448472">
        <ele>352.543</ele>
        <time>2020-08-30T11:12:35Z</time>
      </trkpt>
      <trkpt lat="39.817962" lon="-.448362">
        <ele>352.431</ele>
        <time>2020-08-30T11:12:37Z</time>
      </trkpt>
      <trkpt lat="39.817939" lon="-.448252">
        <ele>352.318</ele>
        <time>2020-08-30T11:12:39Z</time>
      </trkpt>
      <trkpt lat="39.817929" lon="-.448194">
        <ele>352.246</ele>
        <time>2020-08-30T11:12:40Z</time>
      </trkpt>
      <trkpt lat="39.81792" lon="-.448128">
        <ele>352.266</ele>
        <time>2020-08-30T11:12:41Z</time>
      </trkpt>
      <trkpt lat="39.817902" lon="-.448071">
        <ele>352.229</ele>
        <time>2020-08-30T11:12:42Z</time>
      </trkpt>
      <trkpt lat="39.817867" lon="-.447962">
        <ele>352.300</ele>
        <time>2020-08-30T11:12:44Z</time>
      </trkpt>
      <trkpt lat="39.817853" lon="-.447903">
        <ele>352.420</ele>
        <time>2020-08-30T11:12:45Z</time>
      </trkpt>
      <trkpt lat="39.817836" lon="-.447847">
        <ele>352.608</ele>
        <time>2020-08-30T11:12:46Z</time>
      </trkpt>
      <trkpt lat="39.817814" lon="-.44779">
        <ele>352.777</ele>
        <time>2020-08-30T11:12:47Z</time>
      </trkpt>
      <trkpt lat="39.817797" lon="-.447727">
        <ele>352.937</ele>
        <time>2020-08-30T11:12:48Z</time>
      </trkpt>
      <trkpt lat="39.817762" lon="-.447621">
        <ele>353.179</ele>
        <time>2020-08-30T11:12:50Z</time>
      </trkpt>
      <trkpt lat="39.817725" lon="-.44752">
        <ele>353.181</ele>
        <time>2020-08-30T11:12:52Z</time>
      </trkpt>
      <trkpt lat="39.817707" lon="-.447466">
        <ele>352.999</ele>
        <time>2020-08-30T11:12:53Z</time>
      </trkpt>
      <trkpt lat="39.817667" lon="-.447365">
        <ele>352.856</ele>
        <time>2020-08-30T11:12:55Z</time>
      </trkpt>
      <trkpt lat="39.817628" lon="-.447266">
        <ele>352.884</ele>
        <time>2020-08-30T11:12:57Z</time>
      </trkpt>
      <trkpt lat="39.817583" lon="-.447169">
        <ele>352.864</ele>
        <time>2020-08-30T11:12:59Z</time>
      </trkpt>
      <trkpt lat="39.817535" lon="-.447083">
        <ele>352.866</ele>
        <time>2020-08-30T11:13:01Z</time>
      </trkpt>
      <trkpt lat="39.817491" lon="-.447003">
        <ele>352.729</ele>
        <time>2020-08-30T11:13:03Z</time>
      </trkpt>
      <trkpt lat="39.817448" lon="-.446916">
        <ele>352.721</ele>
        <time>2020-08-30T11:13:05Z</time>
      </trkpt>
      <trkpt lat="39.817401" lon="-.446823">
        <ele>352.708</ele>
        <time>2020-08-30T11:13:07Z</time>
      </trkpt>
      <trkpt lat="39.817347" lon="-.446741">
        <ele>352.891</ele>
        <time>2020-08-30T11:13:09Z</time>
      </trkpt>
      <trkpt lat="39.8173" lon="-.446648">
        <ele>352.981</ele>
        <time>2020-08-30T11:13:11Z</time>
      </trkpt>
      <trkpt lat="39.817255" lon="-.44655">
        <ele>353.063</ele>
        <time>2020-08-30T11:13:13Z</time>
      </trkpt>
      <trkpt lat="39.817206" lon="-.446461">
        <ele>353.045</ele>
        <time>2020-08-30T11:13:15Z</time>
      </trkpt>
      <trkpt lat="39.817183" lon="-.44641">
        <ele>353.133</ele>
        <time>2020-08-30T11:13:16Z</time>
      </trkpt>
      <trkpt lat="39.817134" lon="-.446313">
        <ele>353.280</ele>
        <time>2020-08-30T11:13:18Z</time>
      </trkpt>
      <trkpt lat="39.817087" lon="-.446231">
        <ele>353.248</ele>
        <time>2020-08-30T11:13:20Z</time>
      </trkpt>
      <trkpt lat="39.817041" lon="-.446142">
        <ele>353.288</ele>
        <time>2020-08-30T11:13:22Z</time>
      </trkpt>
      <trkpt lat="39.816999" lon="-.446045">
        <ele>353.233</ele>
        <time>2020-08-30T11:13:24Z</time>
      </trkpt>
      <trkpt lat="39.816957" lon="-.445957">
        <ele>353.223</ele>
        <time>2020-08-30T11:13:26Z</time>
      </trkpt>
      <trkpt lat="39.816913" lon="-.445873">
        <ele>353.215</ele>
        <time>2020-08-30T11:13:28Z</time>
      </trkpt>
      <trkpt lat="39.816879" lon="-.445783">
        <ele>353.308</ele>
        <time>2020-08-30T11:13:30Z</time>
      </trkpt>
      <trkpt lat="39.81684" lon="-.445698">
        <ele>353.418</ele>
        <time>2020-08-30T11:13:32Z</time>
      </trkpt>
      <trkpt lat="39.8168" lon="-.445613">
        <ele>353.458</ele>
        <time>2020-08-30T11:13:34Z</time>
      </trkpt>
      <trkpt lat="39.816763" lon="-.445523">
        <ele>353.420</ele>
        <time>2020-08-30T11:13:36Z</time>
      </trkpt>
      <trkpt lat="39.816724" lon="-.44543">
        <ele>353.592</ele>
        <time>2020-08-30T11:13:38Z</time>
      </trkpt>
      <trkpt lat="39.816683" lon="-.445355">
        <ele>353.670</ele>
        <time>2020-08-30T11:13:40Z</time>
      </trkpt>
      <trkpt lat="39.816642" lon="-.445267">
        <ele>353.757</ele>
        <time>2020-08-30T11:13:42Z</time>
      </trkpt>
      <trkpt lat="39.8166" lon="-.445176">
        <ele>353.735</ele>
        <time>2020-08-30T11:13:44Z</time>
      </trkpt>
      <trkpt lat="39.816554" lon="-.445095">
        <ele>353.735</ele>
        <time>2020-08-30T11:13:46Z</time>
      </trkpt>
      <trkpt lat="39.816515" lon="-.445001">
        <ele>353.617</ele>
        <time>2020-08-30T11:13:48Z</time>
      </trkpt>
      <trkpt lat="39.816472" lon="-.444911">
        <ele>353.587</ele>
        <time>2020-08-30T11:13:50Z</time>
      </trkpt>
      <trkpt lat="39.816426" lon="-.444826">
        <ele>353.515</ele>
        <time>2020-08-30T11:13:52Z</time>
      </trkpt>
      <trkpt lat="39.816388" lon="-.444726">
        <ele>353.608</ele>
        <time>2020-08-30T11:13:54Z</time>
      </trkpt>
      <trkpt lat="39.816341" lon="-.444646">
        <ele>353.656</ele>
        <time>2020-08-30T11:13:56Z</time>
      </trkpt>
      <trkpt lat="39.816296" lon="-.444563">
        <ele>353.526</ele>
        <time>2020-08-30T11:13:58Z</time>
      </trkpt>
      <trkpt lat="39.816255" lon="-.444469">
        <ele>353.488</ele>
        <time>2020-08-30T11:14:00Z</time>
      </trkpt>
      <trkpt lat="39.816212" lon="-.444385">
        <ele>353.690</ele>
        <time>2020-08-30T11:14:02Z</time>
      </trkpt>
      <trkpt lat="39.816171" lon="-.444297">
        <ele>353.798</ele>
        <time>2020-08-30T11:14:04Z</time>
      </trkpt>
      <trkpt lat="39.816126" lon="-.444207">
        <ele>353.855</ele>
        <time>2020-08-30T11:14:06Z</time>
      </trkpt>
      <trkpt lat="39.816084" lon="-.444123">
        <ele>354.073</ele>
        <time>2020-08-30T11:14:08Z</time>
      </trkpt>
      <trkpt lat="39.816035" lon="-.444035">
        <ele>354.223</ele>
        <time>2020-08-30T11:14:10Z</time>
      </trkpt>
      <trkpt lat="39.815992" lon="-.443948">
        <ele>354.369</ele>
        <time>2020-08-30T11:14:12Z</time>
      </trkpt>
      <trkpt lat="39.815954" lon="-.443858">
        <ele>354.404</ele>
        <time>2020-08-30T11:14:14Z</time>
      </trkpt>
      <trkpt lat="39.815913" lon="-.443772">
        <ele>354.424</ele>
        <time>2020-08-30T11:14:16Z</time>
      </trkpt>
      <trkpt lat="39.815875" lon="-.443682">
        <ele>354.508</ele>
        <time>2020-08-30T11:14:18Z</time>
      </trkpt>
      <trkpt lat="39.815833" lon="-.443604">
        <ele>354.611</ele>
        <time>2020-08-30T11:14:20Z</time>
      </trkpt>
      <trkpt lat="39.815786" lon="-.443516">
        <ele>354.771</ele>
        <time>2020-08-30T11:14:22Z</time>
      </trkpt>
      <trkpt lat="39.815742" lon="-.443424">
        <ele>354.843</ele>
        <time>2020-08-30T11:14:24Z</time>
      </trkpt>
      <trkpt lat="39.815691" lon="-.443338">
        <ele>354.955</ele>
        <time>2020-08-30T11:14:26Z</time>
      </trkpt>
      <trkpt lat="39.815645" lon="-.443239">
        <ele>354.933</ele>
        <time>2020-08-30T11:14:28Z</time>
      </trkpt>
      <trkpt lat="39.815604" lon="-.44314">
        <ele>355.040</ele>
        <time>2020-08-30T11:14:30Z</time>
      </trkpt>
      <trkpt lat="39.815562" lon="-.443049">
        <ele>355.128</ele>
        <time>2020-08-30T11:14:32Z</time>
      </trkpt>
      <trkpt lat="39.81552" lon="-.44296">
        <ele>355.148</ele>
        <time>2020-08-30T11:14:34Z</time>
      </trkpt>
      <trkpt lat="39.8155" lon="-.442907">
        <ele>355.044</ele>
        <time>2020-08-30T11:14:35Z</time>
      </trkpt>
      <trkpt lat="39.815477" lon="-.442855">
        <ele>355.005</ele>
        <time>2020-08-30T11:14:36Z</time>
      </trkpt>
      <trkpt lat="39.815436" lon="-.442762">
        <ele>355.215</ele>
        <time>2020-08-30T11:14:38Z</time>
      </trkpt>
      <trkpt lat="39.815394" lon="-.442682">
        <ele>355.308</ele>
        <time>2020-08-30T11:14:40Z</time>
      </trkpt>
      <trkpt lat="39.815349" lon="-.442602">
        <ele>355.399</ele>
        <time>2020-08-30T11:14:42Z</time>
      </trkpt>
      <trkpt lat="39.815311" lon="-.442511">
        <ele>355.379</ele>
        <time>2020-08-30T11:14:44Z</time>
      </trkpt>
      <trkpt lat="39.815269" lon="-.442424">
        <ele>355.311</ele>
        <time>2020-08-30T11:14:46Z</time>
      </trkpt>
      <trkpt lat="39.815226" lon="-.442335">
        <ele>355.343</ele>
        <time>2020-08-30T11:14:48Z</time>
      </trkpt>
      <trkpt lat="39.815181" lon="-.442242">
        <ele>355.241</ele>
        <time>2020-08-30T11:14:50Z</time>
      </trkpt>
      <trkpt lat="39.815136" lon="-.442144">
        <ele>355.258</ele>
        <time>2020-08-30T11:14:52Z</time>
      </trkpt>
      <trkpt lat="39.815087" lon="-.442051">
        <ele>355.446</ele>
        <time>2020-08-30T11:14:54Z</time>
      </trkpt>
      <trkpt lat="39.815037" lon="-.441957">
        <ele>355.446</ele>
        <time>2020-08-30T11:14:56Z</time>
      </trkpt>
      <trkpt lat="39.814988" lon="-.441862">
        <ele>355.443</ele>
        <time>2020-08-30T11:14:58Z</time>
      </trkpt>
      <trkpt lat="39.814942" lon="-.441768">
        <ele>355.464</ele>
        <time>2020-08-30T11:15:00Z</time>
      </trkpt>
      <trkpt lat="39.814896" lon="-.44167">
        <ele>355.410</ele>
        <time>2020-08-30T11:15:02Z</time>
      </trkpt>
      <trkpt lat="39.814849" lon="-.441576">
        <ele>355.408</ele>
        <time>2020-08-30T11:15:04Z</time>
      </trkpt>
      <trkpt lat="39.814804" lon="-.441477">
        <ele>355.449</ele>
        <time>2020-08-30T11:15:06Z</time>
      </trkpt>
      <trkpt lat="39.81478" lon="-.441423">
        <ele>355.449</ele>
        <time>2020-08-30T11:15:07Z</time>
      </trkpt>
      <trkpt lat="39.814732" lon="-.441329">
        <ele>355.481</ele>
        <time>2020-08-30T11:15:09Z</time>
      </trkpt>
      <trkpt lat="39.814685" lon="-.44123">
        <ele>355.593</ele>
        <time>2020-08-30T11:15:11Z</time>
      </trkpt>
      <trkpt lat="39.814658" lon="-.441182">
        <ele>355.521</ele>
        <time>2020-08-30T11:15:12Z</time>
      </trkpt>
      <trkpt lat="39.814611" lon="-.441093">
        <ele>355.628</ele>
        <time>2020-08-30T11:15:14Z</time>
      </trkpt>
      <trkpt lat="39.814567" lon="-.440996">
        <ele>355.616</ele>
        <time>2020-08-30T11:15:16Z</time>
      </trkpt>
      <trkpt lat="39.814518" lon="-.440906">
        <ele>355.666</ele>
        <time>2020-08-30T11:15:18Z</time>
      </trkpt>
      <trkpt lat="39.814468" lon="-.440815">
        <ele>355.663</ele>
        <time>2020-08-30T11:15:20Z</time>
      </trkpt>
      <trkpt lat="39.814419" lon="-.440719">
        <ele>355.744</ele>
        <time>2020-08-30T11:15:22Z</time>
      </trkpt>
      <trkpt lat="39.814364" lon="-.440632">
        <ele>355.718</ele>
        <time>2020-08-30T11:15:24Z</time>
      </trkpt>
      <trkpt lat="39.814339" lon="-.440578">
        <ele>355.808</ele>
        <time>2020-08-30T11:15:25Z</time>
      </trkpt>
      <trkpt lat="39.814318" lon="-.440523">
        <ele>355.761</ele>
        <time>2020-08-30T11:15:26Z</time>
      </trkpt>
      <trkpt lat="39.814271" lon="-.440428">
        <ele>355.871</ele>
        <time>2020-08-30T11:15:28Z</time>
      </trkpt>
      <trkpt lat="39.81425" lon="-.440376">
        <ele>355.973</ele>
        <time>2020-08-30T11:15:29Z</time>
      </trkpt>
      <trkpt lat="39.814227" lon="-.440324">
        <ele>356.065</ele>
        <time>2020-08-30T11:15:30Z</time>
      </trkpt>
      <trkpt lat="39.814185" lon="-.440232">
        <ele>356.033</ele>
        <time>2020-08-30T11:15:32Z</time>
      </trkpt>
      <trkpt lat="39.814159" lon="-.440182">
        <ele>355.910</ele>
        <time>2020-08-30T11:15:33Z</time>
      </trkpt>
      <trkpt lat="39.814118" lon="-.440084">
        <ele>355.858</ele>
        <time>2020-08-30T11:15:35Z</time>
      </trkpt>
      <trkpt lat="39.814079" lon="-.440002">
        <ele>355.778</ele>
        <time>2020-08-30T11:15:37Z</time>
      </trkpt>
      <trkpt lat="39.814042" lon="-.439915">
        <ele>355.871</ele>
        <time>2020-08-30T11:15:39Z</time>
      </trkpt>
      <trkpt lat="39.813999" lon="-.439825">
        <ele>355.941</ele>
        <time>2020-08-30T11:15:41Z</time>
      </trkpt>
      <trkpt lat="39.813954" lon="-.439735">
        <ele>356.015</ele>
        <time>2020-08-30T11:15:43Z</time>
      </trkpt>
      <trkpt lat="39.813915" lon="-.439644">
        <ele>356.008</ele>
        <time>2020-08-30T11:15:45Z</time>
      </trkpt>
      <trkpt lat="39.813893" lon="-.439591">
        <ele>356.012</ele>
        <time>2020-08-30T11:15:46Z</time>
      </trkpt>
      <trkpt lat="39.813849" lon="-.439495">
        <ele>356.152</ele>
        <time>2020-08-30T11:15:48Z</time>
      </trkpt>
      <trkpt lat="39.813806" lon="-.439393">
        <ele>356.264</ele>
        <time>2020-08-30T11:15:50Z</time>
      </trkpt>
      <trkpt lat="39.813786" lon="-.439338">
        <ele>356.236</ele>
        <time>2020-08-30T11:15:51Z</time>
      </trkpt>
      <trkpt lat="39.813746" lon="-.439242">
        <ele>356.314</ele>
        <time>2020-08-30T11:15:53Z</time>
      </trkpt>
      <trkpt lat="39.813728" lon="-.439184">
        <ele>356.381</ele>
        <time>2020-08-30T11:15:54Z</time>
      </trkpt>
      <trkpt lat="39.813689" lon="-.439078">
        <ele>356.379</ele>
        <time>2020-08-30T11:15:56Z</time>
      </trkpt>
      <trkpt lat="39.813668" lon="-.439026">
        <ele>356.289</ele>
        <time>2020-08-30T11:15:57Z</time>
      </trkpt>
      <trkpt lat="39.813626" lon="-.438919">
        <ele>356.257</ele>
        <time>2020-08-30T11:15:59Z</time>
      </trkpt>
      <trkpt lat="39.813608" lon="-.438862">
        <ele>356.200</ele>
        <time>2020-08-30T11:16:00Z</time>
      </trkpt>
      <trkpt lat="39.813586" lon="-.438809">
        <ele>356.220</ele>
        <time>2020-08-30T11:16:01Z</time>
      </trkpt>
      <trkpt lat="39.813567" lon="-.438754">
        <ele>356.208</ele>
        <time>2020-08-30T11:16:02Z</time>
      </trkpt>
      <trkpt lat="39.813548" lon="-.4387">
        <ele>356.370</ele>
        <time>2020-08-30T11:16:03Z</time>
      </trkpt>
      <trkpt lat="39.813531" lon="-.438645">
        <ele>356.340</ele>
        <time>2020-08-30T11:16:04Z</time>
      </trkpt>
      <trkpt lat="39.813499" lon="-.438536">
        <ele>356.392</ele>
        <time>2020-08-30T11:16:06Z</time>
      </trkpt>
      <trkpt lat="39.813464" lon="-.438437">
        <ele>356.224</ele>
        <time>2020-08-30T11:16:08Z</time>
      </trkpt>
      <trkpt lat="39.813437" lon="-.438337">
        <ele>356.192</ele>
        <time>2020-08-30T11:16:10Z</time>
      </trkpt>
      <trkpt lat="39.813409" lon="-.438241">
        <ele>356.139</ele>
        <time>2020-08-30T11:16:12Z</time>
      </trkpt>
      <trkpt lat="39.813381" lon="-.438145">
        <ele>356.027</ele>
        <time>2020-08-30T11:16:14Z</time>
      </trkpt>
      <trkpt lat="39.813349" lon="-.438046">
        <ele>356.037</ele>
        <time>2020-08-30T11:16:16Z</time>
      </trkpt>
      <trkpt lat="39.813331" lon="-.437992">
        <ele>356.077</ele>
        <time>2020-08-30T11:16:17Z</time>
      </trkpt>
      <trkpt lat="39.813303" lon="-.437883">
        <ele>356.261</ele>
        <time>2020-08-30T11:16:19Z</time>
      </trkpt>
      <trkpt lat="39.813274" lon="-.437788">
        <ele>356.227</ele>
        <time>2020-08-30T11:16:21Z</time>
      </trkpt>
      <trkpt lat="39.813249" lon="-.437703">
        <ele>356.108</ele>
        <time>2020-08-30T11:16:23Z</time>
      </trkpt>
      <trkpt lat="39.813221" lon="-.437617">
        <ele>356.182</ele>
        <time>2020-08-30T11:16:25Z</time>
      </trkpt>
      <trkpt lat="39.813197" lon="-.437533">
        <ele>356.192</ele>
        <time>2020-08-30T11:16:27Z</time>
      </trkpt>
      <trkpt lat="39.813177" lon="-.437447">
        <ele>356.194</ele>
        <time>2020-08-30T11:16:29Z</time>
      </trkpt>
      <trkpt lat="39.813157" lon="-.437359">
        <ele>356.296</ele>
        <time>2020-08-30T11:16:31Z</time>
      </trkpt>
      <trkpt lat="39.813136" lon="-.437274">
        <ele>356.214</ele>
        <time>2020-08-30T11:16:33Z</time>
      </trkpt>
      <trkpt lat="39.813112" lon="-.437178">
        <ele>356.151</ele>
        <time>2020-08-30T11:16:35Z</time>
      </trkpt>
      <trkpt lat="39.813093" lon="-.437072">
        <ele>356.289</ele>
        <time>2020-08-30T11:16:37Z</time>
      </trkpt>
      <trkpt lat="39.813069" lon="-.436963">
        <ele>356.399</ele>
        <time>2020-08-30T11:16:39Z</time>
      </trkpt>
      <trkpt lat="39.813048" lon="-.436848">
        <ele>356.469</ele>
        <time>2020-08-30T11:16:41Z</time>
      </trkpt>
      <trkpt lat="39.813027" lon="-.43674">
        <ele>356.304</ele>
        <time>2020-08-30T11:16:43Z</time>
      </trkpt>
      <trkpt lat="39.813014" lon="-.436683">
        <ele>356.224</ele>
        <time>2020-08-30T11:16:44Z</time>
      </trkpt>
      <trkpt lat="39.812992" lon="-.43657">
        <ele>356.208</ele>
        <time>2020-08-30T11:16:46Z</time>
      </trkpt>
      <trkpt lat="39.812964" lon="-.436463">
        <ele>356.361</ele>
        <time>2020-08-30T11:16:48Z</time>
      </trkpt>
      <trkpt lat="39.812951" lon="-.436404">
        <ele>356.411</ele>
        <time>2020-08-30T11:16:49Z</time>
      </trkpt>
      <trkpt lat="39.812941" lon="-.436336">
        <ele>356.473</ele>
        <time>2020-08-30T11:16:50Z</time>
      </trkpt>
      <trkpt lat="39.812932" lon="-.436274">
        <ele>356.495</ele>
        <time>2020-08-30T11:16:51Z</time>
      </trkpt>
      <trkpt lat="39.812924" lon="-.436214">
        <ele>356.373</ele>
        <time>2020-08-30T11:16:52Z</time>
      </trkpt>
      <trkpt lat="39.812913" lon="-.436157">
        <ele>356.250</ele>
        <time>2020-08-30T11:16:53Z</time>
      </trkpt>
      <trkpt lat="39.812898" lon="-.436049">
        <ele>356.188</ele>
        <time>2020-08-30T11:16:55Z</time>
      </trkpt>
      <trkpt lat="39.81288" lon="-.435952">
        <ele>356.198</ele>
        <time>2020-08-30T11:16:57Z</time>
      </trkpt>
      <trkpt lat="39.81287" lon="-.435854">
        <ele>356.123</ele>
        <time>2020-08-30T11:16:59Z</time>
      </trkpt>
      <trkpt lat="39.812858" lon="-.435763">
        <ele>356.183</ele>
        <time>2020-08-30T11:17:01Z</time>
      </trkpt>
      <trkpt lat="39.812849" lon="-.43566">
        <ele>356.111</ele>
        <time>2020-08-30T11:17:03Z</time>
      </trkpt>
      <trkpt lat="39.812836" lon="-.435555">
        <ele>356.208</ele>
        <time>2020-08-30T11:17:05Z</time>
      </trkpt>
      <trkpt lat="39.812828" lon="-.43544">
        <ele>356.237</ele>
        <time>2020-08-30T11:17:07Z</time>
      </trkpt>
      <trkpt lat="39.812818" lon="-.435327">
        <ele>356.117</ele>
        <time>2020-08-30T11:17:09Z</time>
      </trkpt>
      <trkpt lat="39.812816" lon="-.435266">
        <ele>356.079</ele>
        <time>2020-08-30T11:17:10Z</time>
      </trkpt>
      <trkpt lat="39.812812" lon="-.435204">
        <ele>355.981</ele>
        <time>2020-08-30T11:17:11Z</time>
      </trkpt>
      <trkpt lat="39.812807" lon="-.435145">
        <ele>355.949</ele>
        <time>2020-08-30T11:17:12Z</time>
      </trkpt>
      <trkpt lat="39.812798" lon="-.435031">
        <ele>355.726</ele>
        <time>2020-08-30T11:17:14Z</time>
      </trkpt>
      <trkpt lat="39.81279" lon="-.434923">
        <ele>355.754</ele>
        <time>2020-08-30T11:17:16Z</time>
      </trkpt>
      <trkpt lat="39.81278" lon="-.434824">
        <ele>355.734</ele>
        <time>2020-08-30T11:17:18Z</time>
      </trkpt>
      <trkpt lat="39.81277" lon="-.434721">
        <ele>355.716</ele>
        <time>2020-08-30T11:17:20Z</time>
      </trkpt>
      <trkpt lat="39.812765" lon="-.434662">
        <ele>355.776</ele>
        <time>2020-08-30T11:17:21Z</time>
      </trkpt>
      <trkpt lat="39.81276" lon="-.434601">
        <ele>355.613</ele>
        <time>2020-08-30T11:17:22Z</time>
      </trkpt>
      <trkpt lat="39.812757" lon="-.434526">
        <ele>355.508</ele>
        <time>2020-08-30T11:17:23Z</time>
      </trkpt>
      <trkpt lat="39.812749" lon="-.434441">
        <ele>355.176</ele>
        <time>2020-08-30T11:17:24Z</time>
      </trkpt>
      <trkpt lat="39.812734" lon="-.434358">
        <ele>354.916</ele>
        <time>2020-08-30T11:17:25Z</time>
      </trkpt>
      <trkpt lat="39.81271" lon="-.434286">
        <ele>354.558</ele>
        <time>2020-08-30T11:17:26Z</time>
      </trkpt>
      <trkpt lat="39.812681" lon="-.434214">
        <ele>354.390</ele>
        <time>2020-08-30T11:17:27Z</time>
      </trkpt>
      <trkpt lat="39.812645" lon="-.434159">
        <ele>354.078</ele>
        <time>2020-08-30T11:17:28Z</time>
      </trkpt>
      <trkpt lat="39.812606" lon="-.434106">
        <ele>353.925</ele>
        <time>2020-08-30T11:17:29Z</time>
      </trkpt>
      <trkpt lat="39.812568" lon="-.434056">
        <ele>353.763</ele>
        <time>2020-08-30T11:17:30Z</time>
      </trkpt>
      <trkpt lat="39.81253" lon="-.434007">
        <ele>353.663</ele>
        <time>2020-08-30T11:17:31Z</time>
      </trkpt>
      <trkpt lat="39.812496" lon="-.433958">
        <ele>353.635</ele>
        <time>2020-08-30T11:17:32Z</time>
      </trkpt>
      <trkpt lat="39.812458" lon="-.433917">
        <ele>353.686</ele>
        <time>2020-08-30T11:17:33Z</time>
      </trkpt>
      <trkpt lat="39.812417" lon="-.433872">
        <ele>353.614</ele>
        <time>2020-08-30T11:17:34Z</time>
      </trkpt>
      <trkpt lat="39.812379" lon="-.433832">
        <ele>353.608</ele>
        <time>2020-08-30T11:17:35Z</time>
      </trkpt>
      <trkpt lat="39.812345" lon="-.433794">
        <ele>353.688</ele>
        <time>2020-08-30T11:17:36Z</time>
      </trkpt>
      <trkpt lat="39.812279" lon="-.43373">
        <ele>353.788</ele>
        <time>2020-08-30T11:17:38Z</time>
      </trkpt>
      <trkpt lat="39.812219" lon="-.433677">
        <ele>353.920</ele>
        <time>2020-08-30T11:17:40Z</time>
      </trkpt>
      <trkpt lat="39.812165" lon="-.433616">
        <ele>354.312</ele>
        <time>2020-08-30T11:17:42Z</time>
      </trkpt>
      <trkpt lat="39.812112" lon="-.433564">
        <ele>354.750</ele>
        <time>2020-08-30T11:17:44Z</time>
      </trkpt>
      <trkpt lat="39.812062" lon="-.4335">
        <ele>354.857</ele>
        <time>2020-08-30T11:17:46Z</time>
      </trkpt>
      <trkpt lat="39.812008" lon="-.433424">
        <ele>355.035</ele>
        <time>2020-08-30T11:17:48Z</time>
      </trkpt>
      <trkpt lat="39.811953" lon="-.433353">
        <ele>355.135</ele>
        <time>2020-08-30T11:17:50Z</time>
      </trkpt>
      <trkpt lat="39.811902" lon="-.433284">
        <ele>355.123</ele>
        <time>2020-08-30T11:17:52Z</time>
      </trkpt>
      <trkpt lat="39.811854" lon="-.43321">
        <ele>355.183</ele>
        <time>2020-08-30T11:17:54Z</time>
      </trkpt>
      <trkpt lat="39.811797" lon="-.433157">
        <ele>355.211</ele>
        <time>2020-08-30T11:17:56Z</time>
      </trkpt>
      <trkpt lat="39.811742" lon="-.433094">
        <ele>355.208</ele>
        <time>2020-08-30T11:17:58Z</time>
      </trkpt>
      <trkpt lat="39.811682" lon="-.433031">
        <ele>355.457</ele>
        <time>2020-08-30T11:18:00Z</time>
      </trkpt>
      <trkpt lat="39.811624" lon="-.432975">
        <ele>355.527</ele>
        <time>2020-08-30T11:18:02Z</time>
      </trkpt>
      <trkpt lat="39.811562" lon="-.432916">
        <ele>355.679</ele>
        <time>2020-08-30T11:18:04Z</time>
      </trkpt>
      <trkpt lat="39.811506" lon="-.432865">
        <ele>355.921</ele>
        <time>2020-08-30T11:18:06Z</time>
      </trkpt>
      <trkpt lat="39.811445" lon="-.432809">
        <ele>356.189</ele>
        <time>2020-08-30T11:18:08Z</time>
      </trkpt>
      <trkpt lat="39.811394" lon="-.432756">
        <ele>356.476</ele>
        <time>2020-08-30T11:18:10Z</time>
      </trkpt>
      <trkpt lat="39.811333" lon="-.432703">
        <ele>356.784</ele>
        <time>2020-08-30T11:18:12Z</time>
      </trkpt>
      <trkpt lat="39.811274" lon="-.432649">
        <ele>357.164</ele>
        <time>2020-08-30T11:18:14Z</time>
      </trkpt>
      <trkpt lat="39.81121" lon="-.432598">
        <ele>357.318</ele>
        <time>2020-08-30T11:18:16Z</time>
      </trkpt>
      <trkpt lat="39.811149" lon="-.432553">
        <ele>357.698</ele>
        <time>2020-08-30T11:18:18Z</time>
      </trkpt>
      <trkpt lat="39.811085" lon="-.432508">
        <ele>357.917</ele>
        <time>2020-08-30T11:18:20Z</time>
      </trkpt>
      <trkpt lat="39.811022" lon="-.432473">
        <ele>358.208</ele>
        <time>2020-08-30T11:18:22Z</time>
      </trkpt>
      <trkpt lat="39.810959" lon="-.432426">
        <ele>358.826</ele>
        <time>2020-08-30T11:18:24Z</time>
      </trkpt>
      <trkpt lat="39.810897" lon="-.43239">
        <ele>359.176</ele>
        <time>2020-08-30T11:18:26Z</time>
      </trkpt>
      <trkpt lat="39.81084" lon="-.43235">
        <ele>359.428</ele>
        <time>2020-08-30T11:18:28Z</time>
      </trkpt>
      <trkpt lat="39.810781" lon="-.432315">
        <ele>359.780</ele>
        <time>2020-08-30T11:18:30Z</time>
      </trkpt>
      <trkpt lat="39.810719" lon="-.432262">
        <ele>359.968</ele>
        <time>2020-08-30T11:18:32Z</time>
      </trkpt>
      <trkpt lat="39.810651" lon="-.432219">
        <ele>360.085</ele>
        <time>2020-08-30T11:18:34Z</time>
      </trkpt>
      <trkpt lat="39.810583" lon="-.432181">
        <ele>360.033</ele>
        <time>2020-08-30T11:18:36Z</time>
      </trkpt>
      <trkpt lat="39.810517" lon="-.432133">
        <ele>360.153</ele>
        <time>2020-08-30T11:18:38Z</time>
      </trkpt>
      <trkpt lat="39.81045" lon="-.432097">
        <ele>360.218</ele>
        <time>2020-08-30T11:18:40Z</time>
      </trkpt>
      <trkpt lat="39.810381" lon="-.432054">
        <ele>360.598</ele>
        <time>2020-08-30T11:18:42Z</time>
      </trkpt>
      <trkpt lat="39.81031" lon="-.43202">
        <ele>360.617</ele>
        <time>2020-08-30T11:18:44Z</time>
      </trkpt>
      <trkpt lat="39.810245" lon="-.43199">
        <ele>360.608</ele>
        <time>2020-08-30T11:18:46Z</time>
      </trkpt>
      <trkpt lat="39.810181" lon="-.431968">
        <ele>360.626</ele>
        <time>2020-08-30T11:18:48Z</time>
      </trkpt>
      <trkpt lat="39.810114" lon="-.431954">
        <ele>360.726</ele>
        <time>2020-08-30T11:18:50Z</time>
      </trkpt>
      <trkpt lat="39.810054" lon="-.431937">
        <ele>361.048</ele>
        <time>2020-08-30T11:18:52Z</time>
      </trkpt>
      <trkpt lat="39.809989" lon="-.431904">
        <ele>361.270</ele>
        <time>2020-08-30T11:18:54Z</time>
      </trkpt>
      <trkpt lat="39.809922" lon="-.431888">
        <ele>361.388</ele>
        <time>2020-08-30T11:18:56Z</time>
      </trkpt>
      <trkpt lat="39.809844" lon="-.431864">
        <ele>361.285</ele>
        <time>2020-08-30T11:18:58Z</time>
      </trkpt>
      <trkpt lat="39.809763" lon="-.431842">
        <ele>361.123</ele>
        <time>2020-08-30T11:19:00Z</time>
      </trkpt>
      <trkpt lat="39.809686" lon="-.43182">
        <ele>360.913</ele>
        <time>2020-08-30T11:19:02Z</time>
      </trkpt>
      <trkpt lat="39.809619" lon="-.431801">
        <ele>361.031</ele>
        <time>2020-08-30T11:19:04Z</time>
      </trkpt>
      <trkpt lat="39.80955" lon="-.431778">
        <ele>361.361</ele>
        <time>2020-08-30T11:19:06Z</time>
      </trkpt>
      <trkpt lat="39.809487" lon="-.431741">
        <ele>361.607</ele>
        <time>2020-08-30T11:19:08Z</time>
      </trkpt>
      <trkpt lat="39.809429" lon="-.43172">
        <ele>361.708</ele>
        <time>2020-08-30T11:19:10Z</time>
      </trkpt>
      <trkpt lat="39.809375" lon="-.431708">
        <ele>361.868</ele>
        <time>2020-08-30T11:19:12Z</time>
      </trkpt>
      <trkpt lat="39.809317" lon="-.431675">
        <ele>361.858</ele>
        <time>2020-08-30T11:19:14Z</time>
      </trkpt>
      <trkpt lat="39.809262" lon="-.431641">
        <ele>361.890</ele>
        <time>2020-08-30T11:19:16Z</time>
      </trkpt>
      <trkpt lat="39.809204" lon="-.431633">
        <ele>361.882</ele>
        <time>2020-08-30T11:19:18Z</time>
      </trkpt>
      <trkpt lat="39.809144" lon="-.431625">
        <ele>362.070</ele>
        <time>2020-08-30T11:19:20Z</time>
      </trkpt>
      <trkpt lat="39.809079" lon="-.431617">
        <ele>362.557</ele>
        <time>2020-08-30T11:19:22Z</time>
      </trkpt>
      <trkpt lat="39.809025" lon="-.431607">
        <ele>362.925</ele>
        <time>2020-08-30T11:19:24Z</time>
      </trkpt>
      <trkpt lat="39.808971" lon="-.431595">
        <ele>363.325</ele>
        <time>2020-08-30T11:19:26Z</time>
      </trkpt>
      <trkpt lat="39.80891" lon="-.431592">
        <ele>363.853</ele>
        <time>2020-08-30T11:19:28Z</time>
      </trkpt>
      <trkpt lat="39.808847" lon="-.431591">
        <ele>364.204</ele>
        <time>2020-08-30T11:19:30Z</time>
      </trkpt>
      <trkpt lat="39.808789" lon="-.431576">
        <ele>364.414</ele>
        <time>2020-08-30T11:19:32Z</time>
      </trkpt>
      <trkpt lat="39.80873" lon="-.431564">
        <ele>364.708</ele>
        <time>2020-08-30T11:19:34Z</time>
      </trkpt>
      <trkpt lat="39.808659" lon="-.431551">
        <ele>364.980</ele>
        <time>2020-08-30T11:19:36Z</time>
      </trkpt>
      <trkpt lat="39.808593" lon="-.431529">
        <ele>365.050</ele>
        <time>2020-08-30T11:19:38Z</time>
      </trkpt>
      <trkpt lat="39.808513" lon="-.43151">
        <ele>365.042</ele>
        <time>2020-08-30T11:19:40Z</time>
      </trkpt>
      <trkpt lat="39.808446" lon="-.431491">
        <ele>364.964</ele>
        <time>2020-08-30T11:19:42Z</time>
      </trkpt>
      <trkpt lat="39.808372" lon="-.431458">
        <ele>364.952</ele>
        <time>2020-08-30T11:19:44Z</time>
      </trkpt>
      <trkpt lat="39.808298" lon="-.431426">
        <ele>364.989</ele>
        <time>2020-08-30T11:19:46Z</time>
      </trkpt>
      <trkpt lat="39.808222" lon="-.431389">
        <ele>364.897</ele>
        <time>2020-08-30T11:19:48Z</time>
      </trkpt>
      <trkpt lat="39.808137" lon="-.431356">
        <ele>364.637</ele>
        <time>2020-08-30T11:19:50Z</time>
      </trkpt>
      <trkpt lat="39.808092" lon="-.43133">
        <ele>364.617</ele>
        <time>2020-08-30T11:19:51Z</time>
      </trkpt>
      <trkpt lat="39.808048" lon="-.431301">
        <ele>364.687</ele>
        <time>2020-08-30T11:19:52Z</time>
      </trkpt>
      <trkpt lat="39.808" lon="-.431265">
        <ele>364.515</ele>
        <time>2020-08-30T11:19:53Z</time>
      </trkpt>
      <trkpt lat="39.807951" lon="-.431228">
        <ele>364.408</ele>
        <time>2020-08-30T11:19:54Z</time>
      </trkpt>
      <trkpt lat="39.8079" lon="-.4312">
        <ele>364.226</ele>
        <time>2020-08-30T11:19:55Z</time>
      </trkpt>
      <trkpt lat="39.807845" lon="-.431161">
        <ele>364.076</ele>
        <time>2020-08-30T11:19:56Z</time>
      </trkpt>
      <trkpt lat="39.807794" lon="-.431131">
        <ele>363.748</ele>
        <time>2020-08-30T11:19:57Z</time>
      </trkpt>
      <trkpt lat="39.807735" lon="-.431088">
        <ele>363.330</ele>
        <time>2020-08-30T11:19:58Z</time>
      </trkpt>
      <trkpt lat="39.807679" lon="-.431032">
        <ele>363.018</ele>
        <time>2020-08-30T11:19:59Z</time>
      </trkpt>
      <trkpt lat="39.807619" lon="-.43097">
        <ele>362.675</ele>
        <time>2020-08-30T11:20:00Z</time>
      </trkpt>
      <trkpt lat="39.807559" lon="-.430914">
        <ele>362.253</ele>
        <time>2020-08-30T11:20:01Z</time>
      </trkpt>
      <trkpt lat="39.807497" lon="-.43086">
        <ele>361.813</ele>
        <time>2020-08-30T11:20:02Z</time>
      </trkpt>
      <trkpt lat="39.807442" lon="-.430796">
        <ele>361.459</ele>
        <time>2020-08-30T11:20:03Z</time>
      </trkpt>
      <trkpt lat="39.807381" lon="-.430736">
        <ele>360.903</ele>
        <time>2020-08-30T11:20:04Z</time>
      </trkpt>
      <trkpt lat="39.807313" lon="-.430672">
        <ele>360.423</ele>
        <time>2020-08-30T11:20:05Z</time>
      </trkpt>
      <trkpt lat="39.807249" lon="-.430609">
        <ele>359.808</ele>
        <time>2020-08-30T11:20:06Z</time>
      </trkpt>
      <trkpt lat="39.807184" lon="-.430545">
        <ele>359.250</ele>
        <time>2020-08-30T11:20:07Z</time>
      </trkpt>
      <trkpt lat="39.807123" lon="-.430482">
        <ele>357.510</ele>
        <time>2020-08-30T11:20:08Z</time>
      </trkpt>
      <trkpt lat="39.807064" lon="-.430413">
        <ele>356.872</ele>
        <time>2020-08-30T11:20:09Z</time>
      </trkpt>
      <trkpt lat="39.807005" lon="-.430344">
        <ele>355.944</ele>
        <time>2020-08-30T11:20:10Z</time>
      </trkpt>
      <trkpt lat="39.806949" lon="-.430272">
        <ele>355.052</ele>
        <time>2020-08-30T11:20:11Z</time>
      </trkpt>
      <trkpt lat="39.806887" lon="-.430195">
        <ele>354.019</ele>
        <time>2020-08-30T11:20:12Z</time>
      </trkpt>
      <trkpt lat="39.806826" lon="-.43011">
        <ele>353.267</ele>
        <time>2020-08-30T11:20:13Z</time>
      </trkpt>
      <trkpt lat="39.806766" lon="-.430029">
        <ele>352.217</ele>
        <time>2020-08-30T11:20:14Z</time>
      </trkpt>
      <trkpt lat="39.806713" lon="-.429947">
        <ele>351.333</ele>
        <time>2020-08-30T11:20:15Z</time>
      </trkpt>
      <trkpt lat="39.806655" lon="-.429864">
        <ele>350.223</ele>
        <time>2020-08-30T11:20:16Z</time>
      </trkpt>
      <trkpt lat="39.806594" lon="-.429778">
        <ele>349.315</ele>
        <time>2020-08-30T11:20:17Z</time>
      </trkpt>
      <trkpt lat="39.806543" lon="-.429687">
        <ele>348.308</ele>
        <time>2020-08-30T11:20:18Z</time>
      </trkpt>
      <trkpt lat="39.806496" lon="-.429597">
        <ele>347.578</ele>
        <time>2020-08-30T11:20:19Z</time>
      </trkpt>
      <trkpt lat="39.806452" lon="-.429512">
        <ele>346.668</ele>
        <time>2020-08-30T11:20:20Z</time>
      </trkpt>
      <trkpt lat="39.806408" lon="-.429427">
        <ele>345.760</ele>
        <time>2020-08-30T11:20:21Z</time>
      </trkpt>
      <trkpt lat="39.80637" lon="-.429349">
        <ele>345.082</ele>
        <time>2020-08-30T11:20:22Z</time>
      </trkpt>
      <trkpt lat="39.806333" lon="-.429273">
        <ele>344.160</ele>
        <time>2020-08-30T11:20:23Z</time>
      </trkpt>
      <trkpt lat="39.806298" lon="-.429198">
        <ele>343.247</ele>
        <time>2020-08-30T11:20:24Z</time>
      </trkpt>
      <trkpt lat="39.806264" lon="-.429125">
        <ele>341.575</ele>
        <time>2020-08-30T11:20:25Z</time>
      </trkpt>
      <trkpt lat="39.806229" lon="-.429057">
        <ele>340.735</ele>
        <time>2020-08-30T11:20:26Z</time>
      </trkpt>
      <trkpt lat="39.806193" lon="-.428987">
        <ele>339.967</ele>
        <time>2020-08-30T11:20:27Z</time>
      </trkpt>
      <trkpt lat="39.806162" lon="-.428918">
        <ele>339.281</ele>
        <time>2020-08-30T11:20:28Z</time>
      </trkpt>
      <trkpt lat="39.80613" lon="-.428852">
        <ele>338.619</ele>
        <time>2020-08-30T11:20:29Z</time>
      </trkpt>
      <trkpt lat="39.806099" lon="-.428785">
        <ele>338.108</ele>
        <time>2020-08-30T11:20:30Z</time>
      </trkpt>
      <trkpt lat="39.806064" lon="-.428719">
        <ele>337.691</ele>
        <time>2020-08-30T11:20:31Z</time>
      </trkpt>
      <trkpt lat="39.806029" lon="-.428663">
        <ele>337.141</ele>
        <time>2020-08-30T11:20:32Z</time>
      </trkpt>
      <trkpt lat="39.806" lon="-.428612">
        <ele>336.633</ele>
        <time>2020-08-30T11:20:33Z</time>
      </trkpt>
      <trkpt lat="39.805956" lon="-.428538">
        <ele>335.695</ele>
        <time>2020-08-30T11:20:35Z</time>
      </trkpt>
      <trkpt lat="39.805912" lon="-.428454">
        <ele>334.813</ele>
        <time>2020-08-30T11:20:37Z</time>
      </trkpt>
      <trkpt lat="39.805881" lon="-.4284">
        <ele>334.330</ele>
        <time>2020-08-30T11:20:38Z</time>
      </trkpt>
      <trkpt lat="39.805856" lon="-.428345">
        <ele>334.098</ele>
        <time>2020-08-30T11:20:39Z</time>
      </trkpt>
      <trkpt lat="39.805835" lon="-.428286">
        <ele>333.758</ele>
        <time>2020-08-30T11:20:40Z</time>
      </trkpt>
      <trkpt lat="39.805809" lon="-.428231">
        <ele>333.556</ele>
        <time>2020-08-30T11:20:41Z</time>
      </trkpt>
      <trkpt lat="39.805771" lon="-.428198">
        <ele>333.259</ele>
        <time>2020-08-30T11:20:42Z</time>
      </trkpt>
      <trkpt lat="39.805707" lon="-.428202">
        <ele>332.514</ele>
        <time>2020-08-30T11:20:44Z</time>
      </trkpt>
      <trkpt lat="39.805636" lon="-.428261">
        <ele>332.108</ele>
        <time>2020-08-30T11:20:46Z</time>
      </trkpt>
      <trkpt lat="39.80555" lon="-.428227">
        <ele>331.970</ele>
        <time>2020-08-30T11:20:48Z</time>
      </trkpt>
      <trkpt lat="39.805514" lon="-.428187">
        <ele>331.840</ele>
        <time>2020-08-30T11:20:49Z</time>
      </trkpt>
      <trkpt lat="39.805472" lon="-.428162">
        <ele>331.742</ele>
        <time>2020-08-30T11:20:50Z</time>
      </trkpt>
      <trkpt lat="39.805425" lon="-.42815">
        <ele>331.534</ele>
        <time>2020-08-30T11:20:51Z</time>
      </trkpt>
      <trkpt lat="39.805375" lon="-.428139">
        <ele>331.412</ele>
        <time>2020-08-30T11:20:52Z</time>
      </trkpt>
      <trkpt lat="39.805325" lon="-.428117">
        <ele>331.019</ele>
        <time>2020-08-30T11:20:53Z</time>
      </trkpt>
      <trkpt lat="39.805272" lon="-.428106">
        <ele>330.997</ele>
        <time>2020-08-30T11:20:54Z</time>
      </trkpt>
      <trkpt lat="39.805219" lon="-.42809">
        <ele>330.827</ele>
        <time>2020-08-30T11:20:55Z</time>
      </trkpt>
      <trkpt lat="39.805166" lon="-.428073">
        <ele>330.578</ele>
        <time>2020-08-30T11:20:56Z</time>
      </trkpt>
      <trkpt lat="39.80511" lon="-.428061">
        <ele>330.333</ele>
        <time>2020-08-30T11:20:57Z</time>
      </trkpt>
      <trkpt lat="39.805061" lon="-.428046">
        <ele>330.226</ele>
        <time>2020-08-30T11:20:58Z</time>
      </trkpt>
      <trkpt lat="39.805006" lon="-.428031">
        <ele>330.008</ele>
        <time>2020-08-30T11:20:59Z</time>
      </trkpt>
      <trkpt lat="39.804945" lon="-.428024">
        <ele>329.792</ele>
        <time>2020-08-30T11:21:00Z</time>
      </trkpt>
      <trkpt lat="39.804888" lon="-.428009">
        <ele>329.562</ele>
        <time>2020-08-30T11:21:01Z</time>
      </trkpt>
      <trkpt lat="39.80483" lon="-.427985">
        <ele>329.394</ele>
        <time>2020-08-30T11:21:02Z</time>
      </trkpt>
      <trkpt lat="39.804768" lon="-.427962">
        <ele>329.196</ele>
        <time>2020-08-30T11:21:03Z</time>
      </trkpt>
      <trkpt lat="39.804719" lon="-.427931">
        <ele>328.924</ele>
        <time>2020-08-30T11:21:04Z</time>
      </trkpt>
      <trkpt lat="39.804668" lon="-.427892">
        <ele>328.711</ele>
        <time>2020-08-30T11:21:05Z</time>
      </trkpt>
      <trkpt lat="39.804621" lon="-.42785">
        <ele>328.519</ele>
        <time>2020-08-30T11:21:06Z</time>
      </trkpt>
      <trkpt lat="39.804574" lon="-.427826">
        <ele>328.559</ele>
        <time>2020-08-30T11:21:07Z</time>
      </trkpt>
      <trkpt lat="39.804526" lon="-.427811">
        <ele>328.584</ele>
        <time>2020-08-30T11:21:08Z</time>
      </trkpt>
      <trkpt lat="39.804482" lon="-.427792">
        <ele>328.707</ele>
        <time>2020-08-30T11:21:09Z</time>
      </trkpt>
      <trkpt lat="39.804398" lon="-.427767">
        <ele>328.817</ele>
        <time>2020-08-30T11:21:11Z</time>
      </trkpt>
      <trkpt lat="39.804354" lon="-.427751">
        <ele>328.808</ele>
        <time>2020-08-30T11:21:12Z</time>
      </trkpt>
      <trkpt lat="39.80431" lon="-.427731">
        <ele>328.843</ele>
        <time>2020-08-30T11:21:13Z</time>
      </trkpt>
      <trkpt lat="39.804266" lon="-.42771">
        <ele>328.813</ele>
        <time>2020-08-30T11:21:14Z</time>
      </trkpt>
      <trkpt lat="39.804183" lon="-.427668">
        <ele>328.875</ele>
        <time>2020-08-30T11:21:16Z</time>
      </trkpt>
      <trkpt lat="39.804101" lon="-.42763">
        <ele>328.847</ele>
        <time>2020-08-30T11:21:18Z</time>
      </trkpt>
      <trkpt lat="39.804055" lon="-.427615">
        <ele>328.945</ele>
        <time>2020-08-30T11:21:19Z</time>
      </trkpt>
      <trkpt lat="39.803971" lon="-.427581">
        <ele>329.082</ele>
        <time>2020-08-30T11:21:21Z</time>
      </trkpt>
      <trkpt lat="39.803886" lon="-.427542">
        <ele>328.950</ele>
        <time>2020-08-30T11:21:23Z</time>
      </trkpt>
      <trkpt lat="39.803842" lon="-.427525">
        <ele>328.910</ele>
        <time>2020-08-30T11:21:24Z</time>
      </trkpt>
      <trkpt lat="39.803793" lon="-.427516">
        <ele>328.979</ele>
        <time>2020-08-30T11:21:25Z</time>
      </trkpt>
      <trkpt lat="39.803741" lon="-.427495">
        <ele>328.905</ele>
        <time>2020-08-30T11:21:26Z</time>
      </trkpt>
      <trkpt lat="39.803685" lon="-.427487">
        <ele>328.825</ele>
        <time>2020-08-30T11:21:27Z</time>
      </trkpt>
      <trkpt lat="39.803631" lon="-.427481">
        <ele>328.708</ele>
        <time>2020-08-30T11:21:28Z</time>
      </trkpt>
      <trkpt lat="39.803571" lon="-.427466">
        <ele>328.532</ele>
        <time>2020-08-30T11:21:29Z</time>
      </trkpt>
      <trkpt lat="39.803511" lon="-.427431">
        <ele>328.352</ele>
        <time>2020-08-30T11:21:30Z</time>
      </trkpt>
      <trkpt lat="39.803456" lon="-.42738">
        <ele>328.074</ele>
        <time>2020-08-30T11:21:31Z</time>
      </trkpt>
      <trkpt lat="39.803408" lon="-.427328">
        <ele>327.836</ele>
        <time>2020-08-30T11:21:32Z</time>
      </trkpt>
      <trkpt lat="39.803364" lon="-.427285">
        <ele>327.694</ele>
        <time>2020-08-30T11:21:33Z</time>
      </trkpt>
      <trkpt lat="39.803316" lon="-.427244">
        <ele>327.581</ele>
        <time>2020-08-30T11:21:34Z</time>
      </trkpt>
      <trkpt lat="39.803272" lon="-.427222">
        <ele>327.339</ele>
        <time>2020-08-30T11:21:35Z</time>
      </trkpt>
      <trkpt lat="39.803226" lon="-.427186">
        <ele>327.279</ele>
        <time>2020-08-30T11:21:36Z</time>
      </trkpt>
      <trkpt lat="39.803179" lon="-.427157">
        <ele>327.279</ele>
        <time>2020-08-30T11:21:37Z</time>
      </trkpt>
      <trkpt lat="39.803136" lon="-.427127">
        <ele>327.205</ele>
        <time>2020-08-30T11:21:38Z</time>
      </trkpt>
      <trkpt lat="39.803062" lon="-.427058">
        <ele>327.325</ele>
        <time>2020-08-30T11:21:40Z</time>
      </trkpt>
      <trkpt lat="39.802986" lon="-.426998">
        <ele>327.308</ele>
        <time>2020-08-30T11:21:42Z</time>
      </trkpt>
      <trkpt lat="39.802948" lon="-.426964">
        <ele>327.552</ele>
        <time>2020-08-30T11:21:43Z</time>
      </trkpt>
      <trkpt lat="39.802913" lon="-.426926">
        <ele>327.712</ele>
        <time>2020-08-30T11:21:44Z</time>
      </trkpt>
      <trkpt lat="39.802869" lon="-.426902">
        <ele>327.914</ele>
        <time>2020-08-30T11:21:45Z</time>
      </trkpt>
      <trkpt lat="39.802795" lon="-.426842">
        <ele>328.446</ele>
        <time>2020-08-30T11:21:47Z</time>
      </trkpt>
      <trkpt lat="39.802716" lon="-.426789">
        <ele>328.854</ele>
        <time>2020-08-30T11:21:49Z</time>
      </trkpt>
      <trkpt lat="39.802637" lon="-.426736">
        <ele>328.941</ele>
        <time>2020-08-30T11:21:51Z</time>
      </trkpt>
      <trkpt lat="39.802595" lon="-.426712">
        <ele>328.929</ele>
        <time>2020-08-30T11:21:52Z</time>
      </trkpt>
      <trkpt lat="39.802551" lon="-.426677">
        <ele>328.949</ele>
        <time>2020-08-30T11:21:53Z</time>
      </trkpt>
      <trkpt lat="39.802498" lon="-.426637">
        <ele>328.769</ele>
        <time>2020-08-30T11:21:54Z</time>
      </trkpt>
      <trkpt lat="39.802445" lon="-.426602">
        <ele>328.604</ele>
        <time>2020-08-30T11:21:55Z</time>
      </trkpt>
      <trkpt lat="39.802391" lon="-.426561">
        <ele>328.224</ele>
        <time>2020-08-30T11:21:56Z</time>
      </trkpt>
      <trkpt lat="39.802341" lon="-.426503">
        <ele>328.008</ele>
        <time>2020-08-30T11:21:57Z</time>
      </trkpt>
      <trkpt lat="39.802286" lon="-.426453">
        <ele>327.881</ele>
        <time>2020-08-30T11:21:58Z</time>
      </trkpt>
      <trkpt lat="39.802239" lon="-.426397">
        <ele>327.781</ele>
        <time>2020-08-30T11:21:59Z</time>
      </trkpt>
      <trkpt lat="39.802185" lon="-.426345">
        <ele>327.683</ele>
        <time>2020-08-30T11:22:00Z</time>
      </trkpt>
      <trkpt lat="39.802138" lon="-.42629">
        <ele>327.465</ele>
        <time>2020-08-30T11:22:01Z</time>
      </trkpt>
      <trkpt lat="39.802083" lon="-.426241">
        <ele>327.153</ele>
        <time>2020-08-30T11:22:02Z</time>
      </trkpt>
      <trkpt lat="39.802036" lon="-.426192">
        <ele>326.980</ele>
        <time>2020-08-30T11:22:03Z</time>
      </trkpt>
      <trkpt lat="39.80199" lon="-.426142">
        <ele>326.628</ele>
        <time>2020-08-30T11:22:04Z</time>
      </trkpt>
      <trkpt lat="39.801931" lon="-.426098">
        <ele>326.468</ele>
        <time>2020-08-30T11:22:05Z</time>
      </trkpt>
      <trkpt lat="39.801885" lon="-.426038">
        <ele>326.212</ele>
        <time>2020-08-30T11:22:06Z</time>
      </trkpt>
      <trkpt lat="39.801837" lon="-.425986">
        <ele>326.132</ele>
        <time>2020-08-30T11:22:07Z</time>
      </trkpt>
      <trkpt lat="39.801787" lon="-.425936">
        <ele>325.905</ele>
        <time>2020-08-30T11:22:08Z</time>
      </trkpt>
      <trkpt lat="39.801737" lon="-.425892">
        <ele>325.708</ele>
        <time>2020-08-30T11:22:09Z</time>
      </trkpt>
      <trkpt lat="39.801692" lon="-.425835">
        <ele>325.626</ele>
        <time>2020-08-30T11:22:10Z</time>
      </trkpt>
      <trkpt lat="39.801646" lon="-.425779">
        <ele>325.256</ele>
        <time>2020-08-30T11:22:11Z</time>
      </trkpt>
      <trkpt lat="39.801595" lon="-.425713">
        <ele>325.278</ele>
        <time>2020-08-30T11:22:12Z</time>
      </trkpt>
      <trkpt lat="39.801552" lon="-.425655">
        <ele>325.040</ele>
        <time>2020-08-30T11:22:13Z</time>
      </trkpt>
      <trkpt lat="39.801514" lon="-.425595">
        <ele>324.868</ele>
        <time>2020-08-30T11:22:14Z</time>
      </trkpt>
      <trkpt lat="39.801471" lon="-.425549">
        <ele>324.465</ele>
        <time>2020-08-30T11:22:15Z</time>
      </trkpt>
      <trkpt lat="39.801431" lon="-.425495">
        <ele>324.373</ele>
        <time>2020-08-30T11:22:16Z</time>
      </trkpt>
      <trkpt lat="39.801392" lon="-.42544">
        <ele>324.233</ele>
        <time>2020-08-30T11:22:17Z</time>
      </trkpt>
      <trkpt lat="39.801349" lon="-.425391">
        <ele>324.124</ele>
        <time>2020-08-30T11:22:18Z</time>
      </trkpt>
      <trkpt lat="39.801305" lon="-.425337">
        <ele>324.004</ele>
        <time>2020-08-30T11:22:19Z</time>
      </trkpt>
      <trkpt lat="39.801263" lon="-.425284">
        <ele>324.014</ele>
        <time>2020-08-30T11:22:20Z</time>
      </trkpt>
      <trkpt lat="39.801228" lon="-.425235">
        <ele>323.908</ele>
        <time>2020-08-30T11:22:21Z</time>
      </trkpt>
      <trkpt lat="39.801191" lon="-.425186">
        <ele>323.877</ele>
        <time>2020-08-30T11:22:22Z</time>
      </trkpt>
      <trkpt lat="39.801151" lon="-.425141">
        <ele>323.627</ele>
        <time>2020-08-30T11:22:23Z</time>
      </trkpt>
      <trkpt lat="39.801113" lon="-.425089">
        <ele>323.579</ele>
        <time>2020-08-30T11:22:24Z</time>
      </trkpt>
      <trkpt lat="39.801079" lon="-.425044">
        <ele>323.511</ele>
        <time>2020-08-30T11:22:25Z</time>
      </trkpt>
      <trkpt lat="39.801049" lon="-.424997">
        <ele>323.419</ele>
        <time>2020-08-30T11:22:26Z</time>
      </trkpt>
      <trkpt lat="39.800993" lon="-.424916">
        <ele>323.476</ele>
        <time>2020-08-30T11:22:28Z</time>
      </trkpt>
      <trkpt lat="39.800975" lon="-.424856">
        <ele>323.634</ele>
        <time>2020-08-30T11:22:29Z</time>
      </trkpt>
      <trkpt lat="39.800917" lon="-.424776">
        <ele>323.854</ele>
        <time>2020-08-30T11:22:31Z</time>
      </trkpt>
      <trkpt lat="39.800886" lon="-.424729">
        <ele>323.845</ele>
        <time>2020-08-30T11:22:32Z</time>
      </trkpt>
      <trkpt lat="39.800859" lon="-.424679">
        <ele>323.847</ele>
        <time>2020-08-30T11:22:33Z</time>
      </trkpt>
      <trkpt lat="39.800796" lon="-.424589">
        <ele>323.811</ele>
        <time>2020-08-30T11:22:35Z</time>
      </trkpt>
      <trkpt lat="39.800765" lon="-.424539">
        <ele>323.808</ele>
        <time>2020-08-30T11:22:36Z</time>
      </trkpt>
      <trkpt lat="39.800723" lon="-.424504">
        <ele>323.729</ele>
        <time>2020-08-30T11:22:37Z</time>
      </trkpt>
      <trkpt lat="39.800689" lon="-.42446">
        <ele>323.729</ele>
        <time>2020-08-30T11:22:38Z</time>
      </trkpt>
      <trkpt lat="39.800653" lon="-.424415">
        <ele>323.711</ele>
        <time>2020-08-30T11:22:39Z</time>
      </trkpt>
      <trkpt lat="39.800623" lon="-.424363">
        <ele>323.743</ele>
        <time>2020-08-30T11:22:40Z</time>
      </trkpt>
      <trkpt lat="39.80059" lon="-.424317">
        <ele>323.841</ele>
        <time>2020-08-30T11:22:41Z</time>
      </trkpt>
      <trkpt lat="39.800559" lon="-.424268">
        <ele>323.878</ele>
        <time>2020-08-30T11:22:42Z</time>
      </trkpt>
      <trkpt lat="39.800528" lon="-.424219">
        <ele>323.886</ele>
        <time>2020-08-30T11:22:43Z</time>
      </trkpt>
      <trkpt lat="39.800497" lon="-.424173">
        <ele>323.866</ele>
        <time>2020-08-30T11:22:44Z</time>
      </trkpt>
      <trkpt lat="39.800469" lon="-.424112">
        <ele>323.946</ele>
        <time>2020-08-30T11:22:45Z</time>
      </trkpt>
      <trkpt lat="39.800441" lon="-.424055">
        <ele>324.088</ele>
        <time>2020-08-30T11:22:46Z</time>
      </trkpt>
      <trkpt lat="39.800412" lon="-.423998">
        <ele>323.916</ele>
        <time>2020-08-30T11:22:47Z</time>
      </trkpt>
      <trkpt lat="39.800382" lon="-.423941">
        <ele>323.808</ele>
        <time>2020-08-30T11:22:48Z</time>
      </trkpt>
      <trkpt lat="39.80035" lon="-.42389">
        <ele>323.849</ele>
        <time>2020-08-30T11:22:49Z</time>
      </trkpt>
      <trkpt lat="39.800325" lon="-.423831">
        <ele>323.719</ele>
        <time>2020-08-30T11:22:50Z</time>
      </trkpt>
      <trkpt lat="39.800303" lon="-.42377">
        <ele>323.651</ele>
        <time>2020-08-30T11:22:51Z</time>
      </trkpt>
      <trkpt lat="39.800278" lon="-.423717">
        <ele>323.543</ele>
        <time>2020-08-30T11:22:52Z</time>
      </trkpt>
      <trkpt lat="39.800246" lon="-.423665">
        <ele>323.741</ele>
        <time>2020-08-30T11:22:53Z</time>
      </trkpt>
      <trkpt lat="39.800215" lon="-.423596">
        <ele>323.888</ele>
        <time>2020-08-30T11:22:54Z</time>
      </trkpt>
      <trkpt lat="39.800189" lon="-.423538">
        <ele>323.886</ele>
        <time>2020-08-30T11:22:55Z</time>
      </trkpt>
      <trkpt lat="39.800152" lon="-.423443">
        <ele>323.736</ele>
        <time>2020-08-30T11:22:57Z</time>
      </trkpt>
      <trkpt lat="39.800117" lon="-.423346">
        <ele>323.127</ele>
        <time>2020-08-30T11:22:59Z</time>
      </trkpt>
      <trkpt lat="39.800095" lon="-.423293">
        <ele>323.168</ele>
        <time>2020-08-30T11:23:00Z</time>
      </trkpt>
      <trkpt lat="39.800062" lon="-.423251">
        <ele>323.114</ele>
        <time>2020-08-30T11:23:01Z</time>
      </trkpt>
      <trkpt lat="39.800022" lon="-.423151">
        <ele>322.308</ele>
        <time>2020-08-30T11:23:03Z</time>
      </trkpt>
      <trkpt lat="39.799973" lon="-.423063">
        <ele>322.697</ele>
        <time>2020-08-30T11:23:05Z</time>
      </trkpt>
      <trkpt lat="39.799952" lon="-.423008">
        <ele>322.627</ele>
        <time>2020-08-30T11:23:06Z</time>
      </trkpt>
      <trkpt lat="39.799896" lon="-.422951">
        <ele>323.249</ele>
        <time>2020-08-30T11:23:08Z</time>
      </trkpt>
      <trkpt lat="39.799862" lon="-.42286">
        <ele>323.051</ele>
        <time>2020-08-30T11:23:10Z</time>
      </trkpt>
      <trkpt lat="39.799837" lon="-.422805">
        <ele>322.869</ele>
        <time>2020-08-30T11:23:11Z</time>
      </trkpt>
      <trkpt lat="39.799783" lon="-.422701">
        <ele>322.866</ele>
        <time>2020-08-30T11:23:13Z</time>
      </trkpt>
      <trkpt lat="39.799758" lon="-.422647">
        <ele>322.744</ele>
        <time>2020-08-30T11:23:14Z</time>
      </trkpt>
      <trkpt lat="39.799731" lon="-.422598">
        <ele>322.684</ele>
        <time>2020-08-30T11:23:15Z</time>
      </trkpt>
      <trkpt lat="39.799701" lon="-.42254">
        <ele>322.621</ele>
        <time>2020-08-30T11:23:16Z</time>
      </trkpt>
      <trkpt lat="39.799682" lon="-.422487">
        <ele>322.641</ele>
        <time>2020-08-30T11:23:17Z</time>
      </trkpt>
      <trkpt lat="39.799655" lon="-.422434">
        <ele>322.505</ele>
        <time>2020-08-30T11:23:18Z</time>
      </trkpt>
      <trkpt lat="39.799631" lon="-.422372">
        <ele>322.408</ele>
        <time>2020-08-30T11:23:19Z</time>
      </trkpt>
      <trkpt lat="39.799578" lon="-.422273">
        <ele>322.347</ele>
        <time>2020-08-30T11:23:21Z</time>
      </trkpt>
      <trkpt lat="39.799553" lon="-.422216">
        <ele>322.267</ele>
        <time>2020-08-30T11:23:22Z</time>
      </trkpt>
      <trkpt lat="39.799525" lon="-.422166">
        <ele>322.149</ele>
        <time>2020-08-30T11:23:23Z</time>
      </trkpt>
      <trkpt lat="39.799474" lon="-.422069">
        <ele>321.831</ele>
        <time>2020-08-30T11:23:25Z</time>
      </trkpt>
      <trkpt lat="39.79944" lon="-.42201">
        <ele>321.829</ele>
        <time>2020-08-30T11:23:26Z</time>
      </trkpt>
      <trkpt lat="39.799413" lon="-.421961">
        <ele>321.746</ele>
        <time>2020-08-30T11:23:27Z</time>
      </trkpt>
      <trkpt lat="39.799382" lon="-.421911">
        <ele>321.584</ele>
        <time>2020-08-30T11:23:28Z</time>
      </trkpt>
      <trkpt lat="39.799355" lon="-.421858">
        <ele>321.594</ele>
        <time>2020-08-30T11:23:29Z</time>
      </trkpt>
      <trkpt lat="39.799324" lon="-.421803">
        <ele>321.383</ele>
        <time>2020-08-30T11:23:30Z</time>
      </trkpt>
      <trkpt lat="39.799292" lon="-.421749">
        <ele>321.125</ele>
        <time>2020-08-30T11:23:31Z</time>
      </trkpt>
      <trkpt lat="39.799264" lon="-.421691">
        <ele>321.017</ele>
        <time>2020-08-30T11:23:32Z</time>
      </trkpt>
      <trkpt lat="39.799238" lon="-.421626">
        <ele>321.008</ele>
        <time>2020-08-30T11:23:33Z</time>
      </trkpt>
      <trkpt lat="39.79921" lon="-.421569">
        <ele>321.073</ele>
        <time>2020-08-30T11:23:34Z</time>
      </trkpt>
      <trkpt lat="39.79918" lon="-.421503">
        <ele>320.763</ele>
        <time>2020-08-30T11:23:35Z</time>
      </trkpt>
      <trkpt lat="39.799148" lon="-.421438">
        <ele>320.425</ele>
        <time>2020-08-30T11:23:36Z</time>
      </trkpt>
      <trkpt lat="39.799115" lon="-.421372">
        <ele>320.247</ele>
        <time>2020-08-30T11:23:37Z</time>
      </trkpt>
      <trkpt lat="39.799087" lon="-.421307">
        <ele>319.985</ele>
        <time>2020-08-30T11:23:38Z</time>
      </trkpt>
      <trkpt lat="39.79906" lon="-.421256">
        <ele>319.712</ele>
        <time>2020-08-30T11:23:39Z</time>
      </trkpt>
      <trkpt lat="39.799012" lon="-.421158">
        <ele>319.810</ele>
        <time>2020-08-30T11:23:41Z</time>
      </trkpt>
      <trkpt lat="39.798988" lon="-.421107">
        <ele>320.050</ele>
        <time>2020-08-30T11:23:42Z</time>
      </trkpt>
      <trkpt lat="39.798962" lon="-.421057">
        <ele>320.219</ele>
        <time>2020-08-30T11:23:43Z</time>
      </trkpt>
      <trkpt lat="39.798937" lon="-.421004">
        <ele>320.409</ele>
        <time>2020-08-30T11:23:44Z</time>
      </trkpt>
      <trkpt lat="39.798917" lon="-.420948">
        <ele>320.519</ele>
        <time>2020-08-30T11:23:45Z</time>
      </trkpt>
      <trkpt lat="39.79889" lon="-.4209">
        <ele>320.608</ele>
        <time>2020-08-30T11:23:46Z</time>
      </trkpt>
      <trkpt lat="39.79886" lon="-.420855">
        <ele>320.746</ele>
        <time>2020-08-30T11:23:47Z</time>
      </trkpt>
      <trkpt lat="39.79883" lon="-.420801">
        <ele>320.796</ele>
        <time>2020-08-30T11:23:48Z</time>
      </trkpt>
      <trkpt lat="39.798783" lon="-.420704">
        <ele>320.728</ele>
        <time>2020-08-30T11:23:50Z</time>
      </trkpt>
      <trkpt lat="39.798734" lon="-.420607">
        <ele>320.970</ele>
        <time>2020-08-30T11:23:52Z</time>
      </trkpt>
      <trkpt lat="39.798676" lon="-.420509">
        <ele>321.198</ele>
        <time>2020-08-30T11:23:54Z</time>
      </trkpt>
      <trkpt lat="39.798645" lon="-.420459">
        <ele>321.255</ele>
        <time>2020-08-30T11:23:55Z</time>
      </trkpt>
      <trkpt lat="39.798613" lon="-.420409">
        <ele>321.393</ele>
        <time>2020-08-30T11:23:56Z</time>
      </trkpt>
      <trkpt lat="39.798579" lon="-.420363">
        <ele>321.363</ele>
        <time>2020-08-30T11:23:57Z</time>
      </trkpt>
      <trkpt lat="39.798501" lon="-.420297">
        <ele>321.324</ele>
        <time>2020-08-30T11:23:59Z</time>
      </trkpt>
      <trkpt lat="39.798459" lon="-.420273">
        <ele>321.304</ele>
        <time>2020-08-30T11:24:00Z</time>
      </trkpt>
      <trkpt lat="39.798377" lon="-.420286">
        <ele>321.514</ele>
        <time>2020-08-30T11:24:02Z</time>
      </trkpt>
      <trkpt lat="39.798321" lon="-.42032">
        <ele>321.608</ele>
        <time>2020-08-30T11:24:04Z</time>
      </trkpt>
      <trkpt lat="39.798279" lon="-.420371">
        <ele>322.087</ele>
        <time>2020-08-30T11:24:06Z</time>
      </trkpt>
      <trkpt lat="39.798226" lon="-.420402">
        <ele>322.637</ele>
        <time>2020-08-30T11:24:08Z</time>
      </trkpt>
      <trkpt lat="39.798186" lon="-.420436">
        <ele>323.699</ele>
        <time>2020-08-30T11:24:10Z</time>
      </trkpt>
      <trkpt lat="39.798135" lon="-.420411">
        <ele>324.041</ele>
        <time>2020-08-30T11:24:12Z</time>
      </trkpt>
      <trkpt lat="39.798098" lon="-.420362">
        <ele>324.369</ele>
        <time>2020-08-30T11:24:14Z</time>
      </trkpt>
      <trkpt lat="39.798053" lon="-.420297">
        <ele>324.356</ele>
        <time>2020-08-30T11:24:16Z</time>
      </trkpt>
      <trkpt lat="39.797997" lon="-.420219">
        <ele>324.124</ele>
        <time>2020-08-30T11:24:18Z</time>
      </trkpt>
      <trkpt lat="39.797945" lon="-.420155">
        <ele>324.014</ele>
        <time>2020-08-30T11:24:20Z</time>
      </trkpt>
      <trkpt lat="39.797888" lon="-.420086">
        <ele>324.087</ele>
        <time>2020-08-30T11:24:22Z</time>
      </trkpt>
      <trkpt lat="39.797846" lon="-.420004">
        <ele>323.742</ele>
        <time>2020-08-30T11:24:24Z</time>
      </trkpt>
      <trkpt lat="39.797794" lon="-.419921">
        <ele>323.626</ele>
        <time>2020-08-30T11:24:26Z</time>
      </trkpt>
      <trkpt lat="39.797742" lon="-.419842">
        <ele>323.408</ele>
        <time>2020-08-30T11:24:28Z</time>
      </trkpt>
      <trkpt lat="39.797685" lon="-.41976">
        <ele>323.223</ele>
        <time>2020-08-30T11:24:30Z</time>
      </trkpt>
      <trkpt lat="39.797655" lon="-.419716">
        <ele>323.093</ele>
        <time>2020-08-30T11:24:31Z</time>
      </trkpt>
      <trkpt lat="39.797598" lon="-.419635">
        <ele>322.835</ele>
        <time>2020-08-30T11:24:33Z</time>
      </trkpt>
      <trkpt lat="39.797543" lon="-.419551">
        <ele>322.637</ele>
        <time>2020-08-30T11:24:35Z</time>
      </trkpt>
      <trkpt lat="39.797489" lon="-.41947">
        <ele>322.495</ele>
        <time>2020-08-30T11:24:37Z</time>
      </trkpt>
      <trkpt lat="39.79743" lon="-.419391">
        <ele>322.382</ele>
        <time>2020-08-30T11:24:39Z</time>
      </trkpt>
      <trkpt lat="39.797366" lon="-.419314">
        <ele>322.170</ele>
        <time>2020-08-30T11:24:41Z</time>
      </trkpt>
      <trkpt lat="39.797309" lon="-.419246">
        <ele>321.980</ele>
        <time>2020-08-30T11:24:43Z</time>
      </trkpt>
      <trkpt lat="39.797249" lon="-.419173">
        <ele>321.736</ele>
        <time>2020-08-30T11:24:45Z</time>
      </trkpt>
      <trkpt lat="39.797205" lon="-.419094">
        <ele>321.617</ele>
        <time>2020-08-30T11:24:47Z</time>
      </trkpt>
      <trkpt lat="39.797158" lon="-.419018">
        <ele>321.618</ele>
        <time>2020-08-30T11:24:49Z</time>
      </trkpt>
      <trkpt lat="39.797132" lon="-.418969">
        <ele>321.608</ele>
        <time>2020-08-30T11:24:50Z</time>
      </trkpt>
      <trkpt lat="39.797085" lon="-.418907">
        <ele>321.668</ele>
        <time>2020-08-30T11:24:52Z</time>
      </trkpt>
      <trkpt lat="39.797048" lon="-.418861">
        <ele>321.448</ele>
        <time>2020-08-30T11:24:53Z</time>
      </trkpt>
      <trkpt lat="39.796987" lon="-.418788">
        <ele>321.260</ele>
        <time>2020-08-30T11:24:55Z</time>
      </trkpt>
      <trkpt lat="39.796931" lon="-.418709">
        <ele>321.152</ele>
        <time>2020-08-30T11:24:57Z</time>
      </trkpt>
      <trkpt lat="39.79687" lon="-.418634">
        <ele>321.140</ele>
        <time>2020-08-30T11:24:59Z</time>
      </trkpt>
      <trkpt lat="39.796823" lon="-.418556">
        <ele>321.187</ele>
        <time>2020-08-30T11:25:01Z</time>
      </trkpt>
      <trkpt lat="39.796757" lon="-.418458">
        <ele>321.295</ele>
        <time>2020-08-30T11:25:03Z</time>
      </trkpt>
      <trkpt lat="39.796693" lon="-.418377">
        <ele>321.155</ele>
        <time>2020-08-30T11:25:05Z</time>
      </trkpt>
      <trkpt lat="39.796654" lon="-.41829">
        <ele>320.978</ele>
        <time>2020-08-30T11:25:07Z</time>
      </trkpt>
      <trkpt lat="39.796606" lon="-.418208">
        <ele>320.433</ele>
        <time>2020-08-30T11:25:09Z</time>
      </trkpt>
      <trkpt lat="39.796553" lon="-.418124">
        <ele>320.226</ele>
        <time>2020-08-30T11:25:11Z</time>
      </trkpt>
      <trkpt lat="39.796489" lon="-.418031">
        <ele>320.208</ele>
        <time>2020-08-30T11:25:13Z</time>
      </trkpt>
      <trkpt lat="39.796455" lon="-.417984">
        <ele>320.132</ele>
        <time>2020-08-30T11:25:14Z</time>
      </trkpt>
      <trkpt lat="39.796423" lon="-.417939">
        <ele>320.132</ele>
        <time>2020-08-30T11:25:15Z</time>
      </trkpt>
      <trkpt lat="39.79639" lon="-.417888">
        <ele>320.014</ele>
        <time>2020-08-30T11:25:16Z</time>
      </trkpt>
      <trkpt lat="39.796355" lon="-.417844">
        <ele>320.046</ele>
        <time>2020-08-30T11:25:17Z</time>
      </trkpt>
      <trkpt lat="39.796317" lon="-.417795">
        <ele>319.964</ele>
        <time>2020-08-30T11:25:18Z</time>
      </trkpt>
      <trkpt lat="39.796281" lon="-.417746">
        <ele>319.871</ele>
        <time>2020-08-30T11:25:19Z</time>
      </trkpt>
      <trkpt lat="39.79625" lon="-.417696">
        <ele>319.759</ele>
        <time>2020-08-30T11:25:20Z</time>
      </trkpt>
      <trkpt lat="39.796214" lon="-.417643">
        <ele>319.729</ele>
        <time>2020-08-30T11:25:21Z</time>
      </trkpt>
      <trkpt lat="39.796175" lon="-.417591">
        <ele>319.663</ele>
        <time>2020-08-30T11:25:22Z</time>
      </trkpt>
      <trkpt lat="39.796142" lon="-.41754">
        <ele>319.644</ele>
        <time>2020-08-30T11:25:23Z</time>
      </trkpt>
      <trkpt lat="39.796103" lon="-.41749">
        <ele>319.618</ele>
        <time>2020-08-30T11:25:24Z</time>
      </trkpt>
      <trkpt lat="39.796068" lon="-.417436">
        <ele>319.508</ele>
        <time>2020-08-30T11:25:25Z</time>
      </trkpt>
      <trkpt lat="39.796032" lon="-.417385">
        <ele>319.481</ele>
        <time>2020-08-30T11:25:26Z</time>
      </trkpt>
      <trkpt lat="39.795999" lon="-.417335">
        <ele>319.371</ele>
        <time>2020-08-30T11:25:27Z</time>
      </trkpt>
      <trkpt lat="39.795968" lon="-.417284">
        <ele>319.283</ele>
        <time>2020-08-30T11:25:28Z</time>
      </trkpt>
      <trkpt lat="39.795928" lon="-.417227">
        <ele>319.165</ele>
        <time>2020-08-30T11:25:29Z</time>
      </trkpt>
      <trkpt lat="39.795894" lon="-.41718">
        <ele>319.013</ele>
        <time>2020-08-30T11:25:30Z</time>
      </trkpt>
      <trkpt lat="39.795861" lon="-.417137">
        <ele>318.710</ele>
        <time>2020-08-30T11:25:31Z</time>
      </trkpt>
      <trkpt lat="39.795833" lon="-.417091">
        <ele>318.768</ele>
        <time>2020-08-30T11:25:32Z</time>
      </trkpt>
      <trkpt lat="39.795797" lon="-.417047">
        <ele>318.628</ele>
        <time>2020-08-30T11:25:33Z</time>
      </trkpt>
      <trkpt lat="39.795733" lon="-.416962">
        <ele>318.699</ele>
        <time>2020-08-30T11:25:35Z</time>
      </trkpt>
      <trkpt lat="39.795702" lon="-.416913">
        <ele>318.607</ele>
        <time>2020-08-30T11:25:36Z</time>
      </trkpt>
      <trkpt lat="39.795667" lon="-.416865">
        <ele>318.627</ele>
        <time>2020-08-30T11:25:37Z</time>
      </trkpt>
      <trkpt lat="39.79563" lon="-.416818">
        <ele>318.508</ele>
        <time>2020-08-30T11:25:38Z</time>
      </trkpt>
      <trkpt lat="39.7956" lon="-.416769">
        <ele>318.484</ele>
        <time>2020-08-30T11:25:39Z</time>
      </trkpt>
      <trkpt lat="39.795572" lon="-.416722">
        <ele>318.384</ele>
        <time>2020-08-30T11:25:40Z</time>
      </trkpt>
      <trkpt lat="39.795536" lon="-.416678">
        <ele>318.286</ele>
        <time>2020-08-30T11:25:41Z</time>
      </trkpt>
      <trkpt lat="39.7955" lon="-.416635">
        <ele>318.178</ele>
        <time>2020-08-30T11:25:42Z</time>
      </trkpt>
      <trkpt lat="39.795453" lon="-.416548">
        <ele>318.046</ele>
        <time>2020-08-30T11:25:44Z</time>
      </trkpt>
      <trkpt lat="39.795423" lon="-.416503">
        <ele>318.083</ele>
        <time>2020-08-30T11:25:45Z</time>
      </trkpt>
      <trkpt lat="39.795381" lon="-.416457">
        <ele>318.071</ele>
        <time>2020-08-30T11:25:46Z</time>
      </trkpt>
      <trkpt lat="39.795349" lon="-.41641">
        <ele>317.961</ele>
        <time>2020-08-30T11:25:47Z</time>
      </trkpt>
      <trkpt lat="39.795313" lon="-.416369">
        <ele>317.881</ele>
        <time>2020-08-30T11:25:48Z</time>
      </trkpt>
      <trkpt lat="39.795278" lon="-.416333">
        <ele>317.761</ele>
        <time>2020-08-30T11:25:49Z</time>
      </trkpt>
      <trkpt lat="39.795233" lon="-.41623">
        <ele>317.517</ele>
        <time>2020-08-30T11:25:51Z</time>
      </trkpt>
      <trkpt lat="39.795168" lon="-.41615">
        <ele>317.408</ele>
        <time>2020-08-30T11:25:53Z</time>
      </trkpt>
      <trkpt lat="39.79512" lon="-.416064">
        <ele>317.153</ele>
        <time>2020-08-30T11:25:55Z</time>
      </trkpt>
      <trkpt lat="39.795087" lon="-.416022">
        <ele>317.023</ele>
        <time>2020-08-30T11:25:56Z</time>
      </trkpt>
      <trkpt lat="39.795049" lon="-.41598">
        <ele>316.955</ele>
        <time>2020-08-30T11:25:57Z</time>
      </trkpt>
      <trkpt lat="39.79502" lon="-.415932">
        <ele>316.827</ele>
        <time>2020-08-30T11:25:58Z</time>
      </trkpt>
      <trkpt lat="39.794988" lon="-.415885">
        <ele>316.725</ele>
        <time>2020-08-30T11:25:59Z</time>
      </trkpt>
      <trkpt lat="39.794952" lon="-.415843">
        <ele>316.632</ele>
        <time>2020-08-30T11:26:00Z</time>
      </trkpt>
      <trkpt lat="39.794916" lon="-.415788">
        <ele>316.620</ele>
        <time>2020-08-30T11:26:01Z</time>
      </trkpt>
      <trkpt lat="39.794846" lon="-.415708">
        <ele>316.640</ele>
        <time>2020-08-30T11:26:03Z</time>
      </trkpt>
      <trkpt lat="39.794814" lon="-.415667">
        <ele>316.652</ele>
        <time>2020-08-30T11:26:04Z</time>
      </trkpt>
      <trkpt lat="39.794783" lon="-.415621">
        <ele>316.753</ele>
        <time>2020-08-30T11:26:05Z</time>
      </trkpt>
      <trkpt lat="39.794733" lon="-.415539">
        <ele>316.708</ele>
        <time>2020-08-30T11:26:07Z</time>
      </trkpt>
      <trkpt lat="39.794699" lon="-.415496">
        <ele>316.608</ele>
        <time>2020-08-30T11:26:08Z</time>
      </trkpt>
      <trkpt lat="39.794674" lon="-.415447">
        <ele>316.550</ele>
        <time>2020-08-30T11:26:09Z</time>
      </trkpt>
      <trkpt lat="39.794631" lon="-.415356">
        <ele>316.330</ele>
        <time>2020-08-30T11:26:11Z</time>
      </trkpt>
      <trkpt lat="39.794602" lon="-.415308">
        <ele>316.322</ele>
        <time>2020-08-30T11:26:12Z</time>
      </trkpt>
      <trkpt lat="39.794538" lon="-.415214">
        <ele>316.294</ele>
        <time>2020-08-30T11:26:14Z</time>
      </trkpt>
      <trkpt lat="39.794505" lon="-.415171">
        <ele>316.192</ele>
        <time>2020-08-30T11:26:15Z</time>
      </trkpt>
      <trkpt lat="39.794476" lon="-.41512">
        <ele>316.099</ele>
        <time>2020-08-30T11:26:16Z</time>
      </trkpt>
      <trkpt lat="39.794442" lon="-.415073">
        <ele>315.997</ele>
        <time>2020-08-30T11:26:17Z</time>
      </trkpt>
      <trkpt lat="39.794413" lon="-.415025">
        <ele>315.847</ele>
        <time>2020-08-30T11:26:18Z</time>
      </trkpt>
      <trkpt lat="39.794349" lon="-.414937">
        <ele>315.657</ele>
        <time>2020-08-30T11:26:20Z</time>
      </trkpt>
      <trkpt lat="39.79432" lon="-.414892">
        <ele>315.500</ele>
        <time>2020-08-30T11:26:21Z</time>
      </trkpt>
      <trkpt lat="39.794291" lon="-.414841">
        <ele>315.420</ele>
        <time>2020-08-30T11:26:22Z</time>
      </trkpt>
      <trkpt lat="39.794227" lon="-.414745">
        <ele>315.208</ele>
        <time>2020-08-30T11:26:24Z</time>
      </trkpt>
      <trkpt lat="39.794191" lon="-.414696">
        <ele>315.180</ele>
        <time>2020-08-30T11:26:25Z</time>
      </trkpt>
      <trkpt lat="39.794154" lon="-.414653">
        <ele>315.080</ele>
        <time>2020-08-30T11:26:26Z</time>
      </trkpt>
      <trkpt lat="39.79409" lon="-.414562">
        <ele>315.062</ele>
        <time>2020-08-30T11:26:28Z</time>
      </trkpt>
      <trkpt lat="39.794057" lon="-.414513">
        <ele>315.084</ele>
        <time>2020-08-30T11:26:29Z</time>
      </trkpt>
      <trkpt lat="39.794" lon="-.414433">
        <ele>314.872</ele>
        <time>2020-08-30T11:26:31Z</time>
      </trkpt>
      <trkpt lat="39.793939" lon="-.414347">
        <ele>314.769</ele>
        <time>2020-08-30T11:26:33Z</time>
      </trkpt>
      <trkpt lat="39.793882" lon="-.41427">
        <ele>314.547</ele>
        <time>2020-08-30T11:26:35Z</time>
      </trkpt>
      <trkpt lat="39.793843" lon="-.414239">
        <ele>314.417</ele>
        <time>2020-08-30T11:26:36Z</time>
      </trkpt>
      <trkpt lat="39.793779" lon="-.414158">
        <ele>314.234</ele>
        <time>2020-08-30T11:26:38Z</time>
      </trkpt>
      <trkpt lat="39.79374" lon="-.414115">
        <ele>314.155</ele>
        <time>2020-08-30T11:26:39Z</time>
      </trkpt>
      <trkpt lat="39.793711" lon="-.41406">
        <ele>314.110</ele>
        <time>2020-08-30T11:26:40Z</time>
      </trkpt>
      <trkpt lat="39.793674" lon="-.414019">
        <ele>314.008</ele>
        <time>2020-08-30T11:26:41Z</time>
      </trkpt>
      <trkpt lat="39.79363" lon="-.413987">
        <ele>313.928</ele>
        <time>2020-08-30T11:26:42Z</time>
      </trkpt>
      <trkpt lat="39.793556" lon="-.413892">
        <ele>313.848</ele>
        <time>2020-08-30T11:26:44Z</time>
      </trkpt>
      <trkpt lat="39.79351" lon="-.413835">
        <ele>313.840</ele>
        <time>2020-08-30T11:26:45Z</time>
      </trkpt>
      <trkpt lat="39.793472" lon="-.413798">
        <ele>313.842</ele>
        <time>2020-08-30T11:26:46Z</time>
      </trkpt>
      <trkpt lat="39.793433" lon="-.413758">
        <ele>313.860</ele>
        <time>2020-08-30T11:26:47Z</time>
      </trkpt>
      <trkpt lat="39.793385" lon="-.413714">
        <ele>313.817</ele>
        <time>2020-08-30T11:26:48Z</time>
      </trkpt>
      <trkpt lat="39.793345" lon="-.413675">
        <ele>313.715</ele>
        <time>2020-08-30T11:26:49Z</time>
      </trkpt>
      <trkpt lat="39.793275" lon="-.413607">
        <ele>313.515</ele>
        <time>2020-08-30T11:26:51Z</time>
      </trkpt>
      <trkpt lat="39.793223" lon="-.413572">
        <ele>313.529</ele>
        <time>2020-08-30T11:26:52Z</time>
      </trkpt>
      <trkpt lat="39.793151" lon="-.41351">
        <ele>313.400</ele>
        <time>2020-08-30T11:26:54Z</time>
      </trkpt>
      <trkpt lat="39.793112" lon="-.413479">
        <ele>313.320</ele>
        <time>2020-08-30T11:26:55Z</time>
      </trkpt>
      <trkpt lat="39.793062" lon="-.413446">
        <ele>313.208</ele>
        <time>2020-08-30T11:26:56Z</time>
      </trkpt>
      <trkpt lat="39.792986" lon="-.413373">
        <ele>313.187</ele>
        <time>2020-08-30T11:26:58Z</time>
      </trkpt>
      <trkpt lat="39.792911" lon="-.413299">
        <ele>313.197</ele>
        <time>2020-08-30T11:27:00Z</time>
      </trkpt>
      <trkpt lat="39.792833" lon="-.413238">
        <ele>313.139</ele>
        <time>2020-08-30T11:27:02Z</time>
      </trkpt>
      <trkpt lat="39.792785" lon="-.41321">
        <ele>313.111</ele>
        <time>2020-08-30T11:27:03Z</time>
      </trkpt>
      <trkpt lat="39.792729" lon="-.413158">
        <ele>313.129</ele>
        <time>2020-08-30T11:27:05Z</time>
      </trkpt>
      <trkpt lat="39.79266" lon="-.413107">
        <ele>312.936</ele>
        <time>2020-08-30T11:27:07Z</time>
      </trkpt>
      <trkpt lat="39.792609" lon="-.413071">
        <ele>312.824</ele>
        <time>2020-08-30T11:27:08Z</time>
      </trkpt>
      <trkpt lat="39.792557" lon="-.41304">
        <ele>312.744</ele>
        <time>2020-08-30T11:27:09Z</time>
      </trkpt>
      <trkpt lat="39.792505" lon="-.413007">
        <ele>312.789</ele>
        <time>2020-08-30T11:27:10Z</time>
      </trkpt>
      <trkpt lat="39.792458" lon="-.412977">
        <ele>312.706</ele>
        <time>2020-08-30T11:27:11Z</time>
      </trkpt>
      <trkpt lat="39.792418" lon="-.412948">
        <ele>312.726</ele>
        <time>2020-08-30T11:27:12Z</time>
      </trkpt>
      <trkpt lat="39.792374" lon="-.412918">
        <ele>312.608</ele>
        <time>2020-08-30T11:27:13Z</time>
      </trkpt>
      <trkpt lat="39.792321" lon="-.41289">
        <ele>312.533</ele>
        <time>2020-08-30T11:27:14Z</time>
      </trkpt>
      <trkpt lat="39.792266" lon="-.41285">
        <ele>312.443</ele>
        <time>2020-08-30T11:27:15Z</time>
      </trkpt>
      <trkpt lat="39.792216" lon="-.412818">
        <ele>312.325</ele>
        <time>2020-08-30T11:27:16Z</time>
      </trkpt>
      <trkpt lat="39.792168" lon="-.412791">
        <ele>312.257</ele>
        <time>2020-08-30T11:27:17Z</time>
      </trkpt>
      <trkpt lat="39.792125" lon="-.412767">
        <ele>312.195</ele>
        <time>2020-08-30T11:27:18Z</time>
      </trkpt>
      <trkpt lat="39.792043" lon="-.412715">
        <ele>311.982</ele>
        <time>2020-08-30T11:27:20Z</time>
      </trkpt>
      <trkpt lat="39.792001" lon="-.412689">
        <ele>311.890</ele>
        <time>2020-08-30T11:27:21Z</time>
      </trkpt>
      <trkpt lat="39.791912" lon="-.412644">
        <ele>311.680</ele>
        <time>2020-08-30T11:27:23Z</time>
      </trkpt>
      <trkpt lat="39.79184" lon="-.412602">
        <ele>311.666</ele>
        <time>2020-08-30T11:27:25Z</time>
      </trkpt>
      <trkpt lat="39.791766" lon="-.412556">
        <ele>311.629</ele>
        <time>2020-08-30T11:27:27Z</time>
      </trkpt>
      <trkpt lat="39.79171" lon="-.412523">
        <ele>311.421</ele>
        <time>2020-08-30T11:27:29Z</time>
      </trkpt>
      <trkpt lat="39.791622" lon="-.412477">
        <ele>311.108</ele>
        <time>2020-08-30T11:27:31Z</time>
      </trkpt>
      <trkpt lat="39.791555" lon="-.412432">
        <ele>311.011</ele>
        <time>2020-08-30T11:27:33Z</time>
      </trkpt>
      <trkpt lat="39.791509" lon="-.412406">
        <ele>310.961</ele>
        <time>2020-08-30T11:27:35Z</time>
      </trkpt>
      <trkpt lat="39.79146" lon="-.412369">
        <ele>310.383</ele>
        <time>2020-08-30T11:27:58Z</time>
      </trkpt>
      <trkpt lat="39.791408" lon="-.412335">
        <ele>310.435</ele>
        <time>2020-08-30T11:28:00Z</time>
      </trkpt>
      <trkpt lat="39.791357" lon="-.412306">
        <ele>310.433</ele>
        <time>2020-08-30T11:28:02Z</time>
      </trkpt>
      <trkpt lat="39.791302" lon="-.412261">
        <ele>310.470</ele>
        <time>2020-08-30T11:28:04Z</time>
      </trkpt>
      <trkpt lat="39.791242" lon="-.412213">
        <ele>310.388</ele>
        <time>2020-08-30T11:28:06Z</time>
      </trkpt>
      <trkpt lat="39.791196" lon="-.412182">
        <ele>310.218</ele>
        <time>2020-08-30T11:28:08Z</time>
      </trkpt>
      <trkpt lat="39.791139" lon="-.412145">
        <ele>310.136</ele>
        <time>2020-08-30T11:28:10Z</time>
      </trkpt>
      <trkpt lat="39.791081" lon="-.412105">
        <ele>310.117</ele>
        <time>2020-08-30T11:28:12Z</time>
      </trkpt>
      <trkpt lat="39.791029" lon="-.412068">
        <ele>310.118</ele>
        <time>2020-08-30T11:28:14Z</time>
      </trkpt>
      <trkpt lat="39.790971" lon="-.412044">
        <ele>310.008</ele>
        <time>2020-08-30T11:28:16Z</time>
      </trkpt>
      <trkpt lat="39.790898" lon="-.411984">
        <ele>310.038</ele>
        <time>2020-08-30T11:28:18Z</time>
      </trkpt>
      <trkpt lat="39.790822" lon="-.411932">
        <ele>310.028</ele>
        <time>2020-08-30T11:28:20Z</time>
      </trkpt>
      <trkpt lat="39.790748" lon="-.411883">
        <ele>309.970</ele>
        <time>2020-08-30T11:28:22Z</time>
      </trkpt>
      <trkpt lat="39.790702" lon="-.41186">
        <ele>309.842</ele>
        <time>2020-08-30T11:28:23Z</time>
      </trkpt>
      <trkpt lat="39.790664" lon="-.41182">
        <ele>309.730</ele>
        <time>2020-08-30T11:28:24Z</time>
      </trkpt>
      <trkpt lat="39.790618" lon="-.411792">
        <ele>309.677</ele>
        <time>2020-08-30T11:28:25Z</time>
      </trkpt>
      <trkpt lat="39.79057" lon="-.411759">
        <ele>309.625</ele>
        <time>2020-08-30T11:28:26Z</time>
      </trkpt>
      <trkpt lat="39.790525" lon="-.411731">
        <ele>309.515</ele>
        <time>2020-08-30T11:28:27Z</time>
      </trkpt>
      <trkpt lat="39.79045" lon="-.411682">
        <ele>309.492</ele>
        <time>2020-08-30T11:28:29Z</time>
      </trkpt>
      <trkpt lat="39.790376" lon="-.411644">
        <ele>309.573</ele>
        <time>2020-08-30T11:28:31Z</time>
      </trkpt>
      <trkpt lat="39.790304" lon="-.411592">
        <ele>309.620</ele>
        <time>2020-08-30T11:28:33Z</time>
      </trkpt>
      <trkpt lat="39.790232" lon="-.411546">
        <ele>309.608</ele>
        <time>2020-08-30T11:28:35Z</time>
      </trkpt>
      <trkpt lat="39.790161" lon="-.411496">
        <ele>309.414</ele>
        <time>2020-08-30T11:28:37Z</time>
      </trkpt>
      <trkpt lat="39.790078" lon="-.411439">
        <ele>309.424</ele>
        <time>2020-08-30T11:28:39Z</time>
      </trkpt>
      <trkpt lat="39.790035" lon="-.411406">
        <ele>309.356</ele>
        <time>2020-08-30T11:28:40Z</time>
      </trkpt>
      <trkpt lat="39.789994" lon="-.411381">
        <ele>309.228</ele>
        <time>2020-08-30T11:28:41Z</time>
      </trkpt>
      <trkpt lat="39.789948" lon="-.411353">
        <ele>309.186</ele>
        <time>2020-08-30T11:28:42Z</time>
      </trkpt>
      <trkpt lat="39.789901" lon="-.411318">
        <ele>308.963</ele>
        <time>2020-08-30T11:28:43Z</time>
      </trkpt>
      <trkpt lat="39.789814" lon="-.411273">
        <ele>308.871</ele>
        <time>2020-08-30T11:28:45Z</time>
      </trkpt>
      <trkpt lat="39.789769" lon="-.411247">
        <ele>308.831</ele>
        <time>2020-08-30T11:28:46Z</time>
      </trkpt>
      <trkpt lat="39.789725" lon="-.411216">
        <ele>308.727</ele>
        <time>2020-08-30T11:28:47Z</time>
      </trkpt>
      <trkpt lat="39.789677" lon="-.411187">
        <ele>308.768</ele>
        <time>2020-08-30T11:28:48Z</time>
      </trkpt>
      <trkpt lat="39.789633" lon="-.411162">
        <ele>308.614</ele>
        <time>2020-08-30T11:28:49Z</time>
      </trkpt>
      <trkpt lat="39.789553" lon="-.411111">
        <ele>308.408</ele>
        <time>2020-08-30T11:28:51Z</time>
      </trkpt>
      <trkpt lat="39.78951" lon="-.411084">
        <ele>308.357</ele>
        <time>2020-08-30T11:28:52Z</time>
      </trkpt>
      <trkpt lat="39.789434" lon="-.41104">
        <ele>308.237</ele>
        <time>2020-08-30T11:28:54Z</time>
      </trkpt>
      <trkpt lat="39.78939" lon="-.411015">
        <ele>308.259</ele>
        <time>2020-08-30T11:28:55Z</time>
      </trkpt>
      <trkpt lat="39.789348" lon="-.410991">
        <ele>308.211</ele>
        <time>2020-08-30T11:28:56Z</time>
      </trkpt>
      <trkpt lat="39.789269" lon="-.410937">
        <ele>308.159</ele>
        <time>2020-08-30T11:28:58Z</time>
      </trkpt>
      <trkpt lat="39.789204" lon="-.410887">
        <ele>308.036</ele>
        <time>2020-08-30T11:29:00Z</time>
      </trkpt>
      <trkpt lat="39.789132" lon="-.410831">
        <ele>307.864</ele>
        <time>2020-08-30T11:29:02Z</time>
      </trkpt>
      <trkpt lat="39.789085" lon="-.410813">
        <ele>307.844</ele>
        <time>2020-08-30T11:29:03Z</time>
      </trkpt>
      <trkpt lat="39.789011" lon="-.410814">
        <ele>307.742</ele>
        <time>2020-08-30T11:29:05Z</time>
      </trkpt>
      <trkpt lat="39.788937" lon="-.410743">
        <ele>307.522</ele>
        <time>2020-08-30T11:29:07Z</time>
      </trkpt>
      <trkpt lat="39.788892" lon="-.410705">
        <ele>307.414</ele>
        <time>2020-08-30T11:29:08Z</time>
      </trkpt>
      <trkpt lat="39.788849" lon="-.410678">
        <ele>307.308</ele>
        <time>2020-08-30T11:29:09Z</time>
      </trkpt>
      <trkpt lat="39.788807" lon="-.410647">
        <ele>307.199</ele>
        <time>2020-08-30T11:29:10Z</time>
      </trkpt>
      <trkpt lat="39.788761" lon="-.410614">
        <ele>307.079</ele>
        <time>2020-08-30T11:29:11Z</time>
      </trkpt>
      <trkpt lat="39.788685" lon="-.410565">
        <ele>306.991</ele>
        <time>2020-08-30T11:29:13Z</time>
      </trkpt>
      <trkpt lat="39.788626" lon="-.41052">
        <ele>306.933</ele>
        <time>2020-08-30T11:29:15Z</time>
      </trkpt>
      <trkpt lat="39.788576" lon="-.410489">
        <ele>306.811</ele>
        <time>2020-08-30T11:29:17Z</time>
      </trkpt>
      <trkpt lat="39.788515" lon="-.410471">
        <ele>306.888</ele>
        <time>2020-08-30T11:29:19Z</time>
      </trkpt>
      <trkpt lat="39.788463" lon="-.410408">
        <ele>306.836</ele>
        <time>2020-08-30T11:29:21Z</time>
      </trkpt>
      <trkpt lat="39.788407" lon="-.410378">
        <ele>306.796</ele>
        <time>2020-08-30T11:29:23Z</time>
      </trkpt>
      <trkpt lat="39.788352" lon="-.410338">
        <ele>306.574</ele>
        <time>2020-08-30T11:29:25Z</time>
      </trkpt>
      <trkpt lat="39.788302" lon="-.410318">
        <ele>306.556</ele>
        <time>2020-08-30T11:29:27Z</time>
      </trkpt>
      <trkpt lat="39.788252" lon="-.410277">
        <ele>306.421</ele>
        <time>2020-08-30T11:29:29Z</time>
      </trkpt>
      <trkpt lat="39.7882" lon="-.410241">
        <ele>306.308</ele>
        <time>2020-08-30T11:29:31Z</time>
      </trkpt>
      <trkpt lat="39.788152" lon="-.410217">
        <ele>306.172</ele>
        <time>2020-08-30T11:29:33Z</time>
      </trkpt>
      <trkpt lat="39.788102" lon="-.410183">
        <ele>306.112</ele>
        <time>2020-08-30T11:29:35Z</time>
      </trkpt>
      <trkpt lat="39.788043" lon="-.410148">
        <ele>306.134</ele>
        <time>2020-08-30T11:29:37Z</time>
      </trkpt>
      <trkpt lat="39.788002" lon="-.410119">
        <ele>306.186</ele>
        <time>2020-08-30T11:29:39Z</time>
      </trkpt>
      <trkpt lat="39.787954" lon="-.410089">
        <ele>305.914</ele>
        <time>2020-08-30T11:29:41Z</time>
      </trkpt>
      <trkpt lat="39.787886" lon="-.410046">
        <ele>305.851</ele>
        <time>2020-08-30T11:29:44Z</time>
      </trkpt>
      <trkpt lat="39.787813" lon="-.410005">
        <ele>305.719</ele>
        <time>2020-08-30T11:29:47Z</time>
      </trkpt>
      <trkpt lat="39.787739" lon="-.409965">
        <ele>305.559</ele>
        <time>2020-08-30T11:29:49Z</time>
      </trkpt>
      <trkpt lat="39.787677" lon="-.409917">
        <ele>305.334</ele>
        <time>2020-08-30T11:29:51Z</time>
      </trkpt>
      <trkpt lat="39.7876" lon="-.409865">
        <ele>305.355</ele>
        <time>2020-08-30T11:29:53Z</time>
      </trkpt>
      <trkpt lat="39.78753" lon="-.409821">
        <ele>305.210</ele>
        <time>2020-08-30T11:29:55Z</time>
      </trkpt>
      <trkpt lat="39.787485" lon="-.409793">
        <ele>305.108</ele>
        <time>2020-08-30T11:29:56Z</time>
      </trkpt>
      <trkpt lat="39.787414" lon="-.409726">
        <ele>305.078</ele>
        <time>2020-08-30T11:29:58Z</time>
      </trkpt>
      <trkpt lat="39.787376" lon="-.409692">
        <ele>304.918</ele>
        <time>2020-08-30T11:29:59Z</time>
      </trkpt>
      <trkpt lat="39.787309" lon="-.409629">
        <ele>304.750</ele>
        <time>2020-08-30T11:30:01Z</time>
      </trkpt>
      <trkpt lat="39.787255" lon="-.409584">
        <ele>304.412</ele>
        <time>2020-08-30T11:30:03Z</time>
      </trkpt>
      <trkpt lat="39.787201" lon="-.409509">
        <ele>304.220</ele>
        <time>2020-08-30T11:30:05Z</time>
      </trkpt>
      <trkpt lat="39.787172" lon="-.409462">
        <ele>304.287</ele>
        <time>2020-08-30T11:30:06Z</time>
      </trkpt>
      <trkpt lat="39.787119" lon="-.409393">
        <ele>304.275</ele>
        <time>2020-08-30T11:30:08Z</time>
      </trkpt>
      <trkpt lat="39.787064" lon="-.409347">
        <ele>304.395</ele>
        <time>2020-08-30T11:30:10Z</time>
      </trkpt>
      <trkpt lat="39.787039" lon="-.409275">
        <ele>304.297</ele>
        <time>2020-08-30T11:31:23Z</time>
      </trkpt>
      <trkpt lat="39.786989" lon="-.409198">
        <ele>304.223</ele>
        <time>2020-08-30T11:31:26Z</time>
      </trkpt>
      <trkpt lat="39.786963" lon="-.409141">
        <ele>304.025</ele>
        <time>2020-08-30T11:31:28Z</time>
      </trkpt>
      <trkpt lat="39.786928" lon="-.409088">
        <ele>303.808</ele>
        <time>2020-08-30T11:31:30Z</time>
      </trkpt>
      <trkpt lat="39.786891" lon="-.40903">
        <ele>303.624</ele>
        <time>2020-08-30T11:31:32Z</time>
      </trkpt>
      <trkpt lat="39.786861" lon="-.408951">
        <ele>303.664</ele>
        <time>2020-08-30T11:31:34Z</time>
      </trkpt>
      <trkpt lat="39.786829" lon="-.408879">
        <ele>303.636</ele>
        <time>2020-08-30T11:31:36Z</time>
      </trkpt>
      <trkpt lat="39.786801" lon="-.408804">
        <ele>303.578</ele>
        <time>2020-08-30T11:31:38Z</time>
      </trkpt>
      <trkpt lat="39.786776" lon="-.408736">
        <ele>303.536</ele>
        <time>2020-08-30T11:31:40Z</time>
      </trkpt>
      <trkpt lat="39.786757" lon="-.408668">
        <ele>303.433</ele>
        <time>2020-08-30T11:31:42Z</time>
      </trkpt>
      <trkpt lat="39.786737" lon="-.408598">
        <ele>303.271</ele>
        <time>2020-08-30T11:31:44Z</time>
      </trkpt>
      <trkpt lat="39.786711" lon="-.408517">
        <ele>303.121</ele>
        <time>2020-08-30T11:31:46Z</time>
      </trkpt>
      <trkpt lat="39.786686" lon="-.40841">
        <ele>303.024</ele>
        <time>2020-08-30T11:31:48Z</time>
      </trkpt>
      <trkpt lat="39.786658" lon="-.408315">
        <ele>302.804</ele>
        <time>2020-08-30T11:31:50Z</time>
      </trkpt>
      <trkpt lat="39.786638" lon="-.408219">
        <ele>302.714</ele>
        <time>2020-08-30T11:31:52Z</time>
      </trkpt>
      <trkpt lat="39.78662" lon="-.408132">
        <ele>302.608</ele>
        <time>2020-08-30T11:31:54Z</time>
      </trkpt>
      <trkpt lat="39.786607" lon="-.40805">
        <ele>302.527</ele>
        <time>2020-08-30T11:31:56Z</time>
      </trkpt>
      <trkpt lat="39.786581" lon="-.407956">
        <ele>302.417</ele>
        <time>2020-08-30T11:31:58Z</time>
      </trkpt>
      <trkpt lat="39.786559" lon="-.40786">
        <ele>302.499</ele>
        <time>2020-08-30T11:32:00Z</time>
      </trkpt>
      <trkpt lat="39.786544" lon="-.407786">
        <ele>302.421</ele>
        <time>2020-08-30T11:32:02Z</time>
      </trkpt>
      <trkpt lat="39.786523" lon="-.407729">
        <ele>302.419</ele>
        <time>2020-08-30T11:32:03Z</time>
      </trkpt>
      <trkpt lat="39.786503" lon="-.407673">
        <ele>302.466</ele>
        <time>2020-08-30T11:32:04Z</time>
      </trkpt>
      <trkpt lat="39.786482" lon="-.407564">
        <ele>302.434</ele>
        <time>2020-08-30T11:32:06Z</time>
      </trkpt>
      <trkpt lat="39.786474" lon="-.407497">
        <ele>302.484</ele>
        <time>2020-08-30T11:32:07Z</time>
      </trkpt>
      <trkpt lat="39.786461" lon="-.407425">
        <ele>302.472</ele>
        <time>2020-08-30T11:32:08Z</time>
      </trkpt>
      <trkpt lat="39.786455" lon="-.407363">
        <ele>302.413</ele>
        <time>2020-08-30T11:32:09Z</time>
      </trkpt>
      <trkpt lat="39.78644" lon="-.407259">
        <ele>302.414</ele>
        <time>2020-08-30T11:32:11Z</time>
      </trkpt>
      <trkpt lat="39.786431" lon="-.407198">
        <ele>302.408</ele>
        <time>2020-08-30T11:32:12Z</time>
      </trkpt>
      <trkpt lat="39.786419" lon="-.407137">
        <ele>302.582</ele>
        <time>2020-08-30T11:32:13Z</time>
      </trkpt>
      <trkpt lat="39.7864" lon="-.40706">
        <ele>302.562</ele>
        <time>2020-08-30T11:32:14Z</time>
      </trkpt>
      <trkpt lat="39.786394" lon="-.407001">
        <ele>302.564</ele>
        <time>2020-08-30T11:32:15Z</time>
      </trkpt>
      <trkpt lat="39.786375" lon="-.406948">
        <ele>302.516</ele>
        <time>2020-08-30T11:32:16Z</time>
      </trkpt>
      <trkpt lat="39.786351" lon="-.406833">
        <ele>302.414</ele>
        <time>2020-08-30T11:32:18Z</time>
      </trkpt>
      <trkpt lat="39.786328" lon="-.40672">
        <ele>302.291</ele>
        <time>2020-08-30T11:32:20Z</time>
      </trkpt>
      <trkpt lat="39.786326" lon="-.406661">
        <ele>302.259</ele>
        <time>2020-08-30T11:32:21Z</time>
      </trkpt>
      <trkpt lat="39.786305" lon="-.406566">
        <ele>302.269</ele>
        <time>2020-08-30T11:32:23Z</time>
      </trkpt>
      <trkpt lat="39.786282" lon="-.40645">
        <ele>302.216</ele>
        <time>2020-08-30T11:32:25Z</time>
      </trkpt>
      <trkpt lat="39.786265" lon="-.406344">
        <ele>302.376</ele>
        <time>2020-08-30T11:32:27Z</time>
      </trkpt>
      <trkpt lat="39.78624" lon="-.406234">
        <ele>302.413</ele>
        <time>2020-08-30T11:32:29Z</time>
      </trkpt>
      <trkpt lat="39.786219" lon="-.406174">
        <ele>302.408</ele>
        <time>2020-08-30T11:32:30Z</time>
      </trkpt>
      <trkpt lat="39.786204" lon="-.40607">
        <ele>302.596</ele>
        <time>2020-08-30T11:32:32Z</time>
      </trkpt>
      <trkpt lat="39.786182" lon="-.405974">
        <ele>302.776</ele>
        <time>2020-08-30T11:32:34Z</time>
      </trkpt>
      <trkpt lat="39.78617" lon="-.405874">
        <ele>302.928</ele>
        <time>2020-08-30T11:32:36Z</time>
      </trkpt>
      <trkpt lat="39.786145" lon="-.40577">
        <ele>302.980</ele>
        <time>2020-08-30T11:32:38Z</time>
      </trkpt>
      <trkpt lat="39.786108" lon="-.405668">
        <ele>302.848</ele>
        <time>2020-08-30T11:32:40Z</time>
      </trkpt>
      <trkpt lat="39.786094" lon="-.405607">
        <ele>302.835</ele>
        <time>2020-08-30T11:32:41Z</time>
      </trkpt>
      <trkpt lat="39.78608" lon="-.405541">
        <ele>302.913</ele>
        <time>2020-08-30T11:32:42Z</time>
      </trkpt>
      <trkpt lat="39.786075" lon="-.405478">
        <ele>302.943</ele>
        <time>2020-08-30T11:32:43Z</time>
      </trkpt>
      <trkpt lat="39.786067" lon="-.405417">
        <ele>302.961</ele>
        <time>2020-08-30T11:32:44Z</time>
      </trkpt>
      <trkpt lat="39.786039" lon="-.405319">
        <ele>302.921</ele>
        <time>2020-08-30T11:32:46Z</time>
      </trkpt>
      <trkpt lat="39.786014" lon="-.405223">
        <ele>303.013</ele>
        <time>2020-08-30T11:32:48Z</time>
      </trkpt>
      <trkpt lat="39.78599" lon="-.40513">
        <ele>303.108</ele>
        <time>2020-08-30T11:32:50Z</time>
      </trkpt>
      <trkpt lat="39.785966" lon="-.405013">
        <ele>303.151</ele>
        <time>2020-08-30T11:32:52Z</time>
      </trkpt>
      <trkpt lat="39.785951" lon="-.404903">
        <ele>303.171</ele>
        <time>2020-08-30T11:32:54Z</time>
      </trkpt>
      <trkpt lat="39.785921" lon="-.404785">
        <ele>303.213</ele>
        <time>2020-08-30T11:32:56Z</time>
      </trkpt>
      <trkpt lat="39.785914" lon="-.404676">
        <ele>303.335</ele>
        <time>2020-08-30T11:32:58Z</time>
      </trkpt>
      <trkpt lat="39.785888" lon="-.404553">
        <ele>303.423</ele>
        <time>2020-08-30T11:33:00Z</time>
      </trkpt>
      <trkpt lat="39.785884" lon="-.404439">
        <ele>303.680</ele>
        <time>2020-08-30T11:33:02Z</time>
      </trkpt>
      <trkpt lat="39.785874" lon="-.40438">
        <ele>303.748</ele>
        <time>2020-08-30T11:33:03Z</time>
      </trkpt>
      <trkpt lat="39.785857" lon="-.404264">
        <ele>303.818</ele>
        <time>2020-08-30T11:33:05Z</time>
      </trkpt>
      <trkpt lat="39.785849" lon="-.404201">
        <ele>303.818</ele>
        <time>2020-08-30T11:33:06Z</time>
      </trkpt>
      <trkpt lat="39.785833" lon="-.404141">
        <ele>303.898</ele>
        <time>2020-08-30T11:33:07Z</time>
      </trkpt>
      <trkpt lat="39.785814" lon="-.40408">
        <ele>303.917</ele>
        <time>2020-08-30T11:33:08Z</time>
      </trkpt>
      <trkpt lat="39.785779" lon="-.403972">
        <ele>304.008</ele>
        <time>2020-08-30T11:33:10Z</time>
      </trkpt>
      <trkpt lat="39.785752" lon="-.403914">
        <ele>304.056</ele>
        <time>2020-08-30T11:33:11Z</time>
      </trkpt>
      <trkpt lat="39.785746" lon="-.403815">
        <ele>304.086</ele>
        <time>2020-08-30T11:33:13Z</time>
      </trkpt>
      <trkpt lat="39.785719" lon="-.403711">
        <ele>304.038</ele>
        <time>2020-08-30T11:33:15Z</time>
      </trkpt>
      <trkpt lat="39.785694" lon="-.403605">
        <ele>304.060</ele>
        <time>2020-08-30T11:33:17Z</time>
      </trkpt>
      <trkpt lat="39.785685" lon="-.403505">
        <ele>304.068</ele>
        <time>2020-08-30T11:33:19Z</time>
      </trkpt>
      <trkpt lat="39.785678" lon="-.403445">
        <ele>304.025</ele>
        <time>2020-08-30T11:33:20Z</time>
      </trkpt>
      <trkpt lat="39.785662" lon="-.403341">
        <ele>304.093</ele>
        <time>2020-08-30T11:33:22Z</time>
      </trkpt>
      <trkpt lat="39.785654" lon="-.403281">
        <ele>304.093</ele>
        <time>2020-08-30T11:33:23Z</time>
      </trkpt>
      <trkpt lat="39.785637" lon="-.403178">
        <ele>304.097</ele>
        <time>2020-08-30T11:33:25Z</time>
      </trkpt>
      <trkpt lat="39.785618" lon="-.403069">
        <ele>304.123</ele>
        <time>2020-08-30T11:33:27Z</time>
      </trkpt>
      <trkpt lat="39.785609" lon="-.402962">
        <ele>304.225</ele>
        <time>2020-08-30T11:33:29Z</time>
      </trkpt>
      <trkpt lat="39.785609" lon="-.402861">
        <ele>304.308</ele>
        <time>2020-08-30T11:33:31Z</time>
      </trkpt>
      <trkpt lat="39.785608" lon="-.402758">
        <ele>304.444</ele>
        <time>2020-08-30T11:33:33Z</time>
      </trkpt>
      <trkpt lat="39.78562" lon="-.402649">
        <ele>304.794</ele>
        <time>2020-08-30T11:33:36Z</time>
      </trkpt>
      <trkpt lat="39.78561" lon="-.402542">
        <ele>304.896</ele>
        <time>2020-08-30T11:33:38Z</time>
      </trkpt>
      <trkpt lat="39.78561" lon="-.402423">
        <ele>304.888</ele>
        <time>2020-08-30T11:33:40Z</time>
      </trkpt>
      <trkpt lat="39.785615" lon="-.402319">
        <ele>304.796</ele>
        <time>2020-08-30T11:33:42Z</time>
      </trkpt>
      <trkpt lat="39.785633" lon="-.402216">
        <ele>304.743</ele>
        <time>2020-08-30T11:33:44Z</time>
      </trkpt>
      <trkpt lat="39.785638" lon="-.402117">
        <ele>304.831</ele>
        <time>2020-08-30T11:33:46Z</time>
      </trkpt>
      <trkpt lat="39.78565" lon="-.402059">
        <ele>304.841</ele>
        <time>2020-08-30T11:33:47Z</time>
      </trkpt>
      <trkpt lat="39.785661" lon="-.401949">
        <ele>304.828</ele>
        <time>2020-08-30T11:33:49Z</time>
      </trkpt>
      <trkpt lat="39.785688" lon="-.401849">
        <ele>304.789</ele>
        <time>2020-08-30T11:33:51Z</time>
      </trkpt>
      <trkpt lat="39.78569" lon="-.401762">
        <ele>304.717</ele>
        <time>2020-08-30T11:33:53Z</time>
      </trkpt>
      <trkpt lat="39.785718" lon="-.401684">
        <ele>304.808</ele>
        <time>2020-08-30T11:33:55Z</time>
      </trkpt>
      <trkpt lat="39.78575" lon="-.401588">
        <ele>304.987</ele>
        <time>2020-08-30T11:33:57Z</time>
      </trkpt>
      <trkpt lat="39.785766" lon="-.401485">
        <ele>304.937</ele>
        <time>2020-08-30T11:33:59Z</time>
      </trkpt>
      <trkpt lat="39.785779" lon="-.401428">
        <ele>304.999</ele>
        <time>2020-08-30T11:34:00Z</time>
      </trkpt>
      <trkpt lat="39.785792" lon="-.401332">
        <ele>305.081</ele>
        <time>2020-08-30T11:34:02Z</time>
      </trkpt>
      <trkpt lat="39.785816" lon="-.401232">
        <ele>305.119</ele>
        <time>2020-08-30T11:34:04Z</time>
      </trkpt>
      <trkpt lat="39.785835" lon="-.40114">
        <ele>305.276</ele>
        <time>2020-08-30T11:34:06Z</time>
      </trkpt>
      <trkpt lat="39.785851" lon="-.401064">
        <ele>305.254</ele>
        <time>2020-08-30T11:34:08Z</time>
      </trkpt>
      <trkpt lat="39.785864" lon="-.400978">
        <ele>305.284</ele>
        <time>2020-08-30T11:34:10Z</time>
      </trkpt>
      <trkpt lat="39.78589" lon="-.400895">
        <ele>305.258</ele>
        <time>2020-08-30T11:34:12Z</time>
      </trkpt>
      <trkpt lat="39.785914" lon="-.400804">
        <ele>305.352</ele>
        <time>2020-08-30T11:34:14Z</time>
      </trkpt>
      <trkpt lat="39.785935" lon="-.400709">
        <ele>305.417</ele>
        <time>2020-08-30T11:34:16Z</time>
      </trkpt>
      <trkpt lat="39.785955" lon="-.400621">
        <ele>305.408</ele>
        <time>2020-08-30T11:34:18Z</time>
      </trkpt>
      <trkpt lat="39.785965" lon="-.40052">
        <ele>305.470</ele>
        <time>2020-08-30T11:34:20Z</time>
      </trkpt>
      <trkpt lat="39.785945" lon="-.400441">
        <ele>305.610</ele>
        <time>2020-08-30T11:34:23Z</time>
      </trkpt>
      <trkpt lat="39.785973" lon="-.400395">
        <ele>305.642</ele>
        <time>2020-08-30T11:34:24Z</time>
      </trkpt>
      <trkpt lat="39.785996" lon="-.400328">
        <ele>305.694</ele>
        <time>2020-08-30T11:34:26Z</time>
      </trkpt>
      <trkpt lat="39.786026" lon="-.400238">
        <ele>305.722</ele>
        <time>2020-08-30T11:34:28Z</time>
      </trkpt>
      <trkpt lat="39.786038" lon="-.400167">
        <ele>305.829</ele>
        <time>2020-08-30T11:34:30Z</time>
      </trkpt>
      <trkpt lat="39.78603" lon="-.400084">
        <ele>305.997</ele>
        <time>2020-08-30T11:34:32Z</time>
      </trkpt>
      <trkpt lat="39.786041" lon="-.400003">
        <ele>305.957</ele>
        <time>2020-08-30T11:34:34Z</time>
      </trkpt>
      <trkpt lat="39.78608" lon="-.399922">
        <ele>305.952</ele>
        <time>2020-08-30T11:34:36Z</time>
      </trkpt>
      <trkpt lat="39.786101" lon="-.399816">
        <ele>305.953</ele>
        <time>2020-08-30T11:34:38Z</time>
      </trkpt>
      <trkpt lat="39.786096" lon="-.399754">
        <ele>305.908</ele>
        <time>2020-08-30T11:34:39Z</time>
      </trkpt>
      <trkpt lat="39.786095" lon="-.399684">
        <ele>305.908</ele>
        <time>2020-08-30T11:34:40Z</time>
      </trkpt>
      <trkpt lat="39.786104" lon="-.399615">
        <ele>306.040</ele>
        <time>2020-08-30T11:34:41Z</time>
      </trkpt>
      <trkpt lat="39.786135" lon="-.399548">
        <ele>306.170</ele>
        <time>2020-08-30T11:34:42Z</time>
      </trkpt>
      <trkpt lat="39.786149" lon="-.399479">
        <ele>306.122</ele>
        <time>2020-08-30T11:34:43Z</time>
      </trkpt>
      <trkpt lat="39.786149" lon="-.399419">
        <ele>306.194</ele>
        <time>2020-08-30T11:34:44Z</time>
      </trkpt>
      <trkpt lat="39.786173" lon="-.399369">
        <ele>306.112</ele>
        <time>2020-08-30T11:34:45Z</time>
      </trkpt>
      <trkpt lat="39.786196" lon="-.399308">
        <ele>306.139</ele>
        <time>2020-08-30T11:34:46Z</time>
      </trkpt>
      <trkpt lat="39.786225" lon="-.399227">
        <ele>306.157</ele>
        <time>2020-08-30T11:34:48Z</time>
      </trkpt>
      <trkpt lat="39.786216" lon="-.399145">
        <ele>306.137</ele>
        <time>2020-08-30T11:34:50Z</time>
      </trkpt>
      <trkpt lat="39.786235" lon="-.39905">
        <ele>306.119</ele>
        <time>2020-08-30T11:34:52Z</time>
      </trkpt>
      <trkpt lat="39.786256" lon="-.398985">
        <ele>306.109</ele>
        <time>2020-08-30T11:34:54Z</time>
      </trkpt>
      <trkpt lat="39.786253" lon="-.398903">
        <ele>306.119</ele>
        <time>2020-08-30T11:34:56Z</time>
      </trkpt>
      <trkpt lat="39.786256" lon="-.398826">
        <ele>306.208</ele>
        <time>2020-08-30T11:34:58Z</time>
      </trkpt>
      <trkpt lat="39.786273" lon="-.398736">
        <ele>306.346</ele>
        <time>2020-08-30T11:35:00Z</time>
      </trkpt>
      <trkpt lat="39.786299" lon="-.398687">
        <ele>306.466</ele>
        <time>2020-08-30T11:35:01Z</time>
      </trkpt>
      <trkpt lat="39.786332" lon="-.398606">
        <ele>306.518</ele>
        <time>2020-08-30T11:35:03Z</time>
      </trkpt>
      <trkpt lat="39.786374" lon="-.398525">
        <ele>306.630</ele>
        <time>2020-08-30T11:35:05Z</time>
      </trkpt>
      <trkpt lat="39.786368" lon="-.398443">
        <ele>306.728</ele>
        <time>2020-08-30T11:35:07Z</time>
      </trkpt>
      <trkpt lat="39.786369" lon="-.398372">
        <ele>306.715</ele>
        <time>2020-08-30T11:35:09Z</time>
      </trkpt>
      <trkpt lat="39.786385" lon="-.398278">
        <ele>306.673</ele>
        <time>2020-08-30T11:35:11Z</time>
      </trkpt>
      <trkpt lat="39.786411" lon="-.398212">
        <ele>306.663</ele>
        <time>2020-08-30T11:35:12Z</time>
      </trkpt>
      <trkpt lat="39.78647" lon="-.398174">
        <ele>306.652</ele>
        <time>2020-08-30T11:35:14Z</time>
      </trkpt>
      <trkpt lat="39.786489" lon="-.398107">
        <ele>306.653</ele>
        <time>2020-08-30T11:35:15Z</time>
      </trkpt>
      <trkpt lat="39.786501" lon="-.398026">
        <ele>306.608</ele>
        <time>2020-08-30T11:35:17Z</time>
      </trkpt>
      <trkpt lat="39.786522" lon="-.39796">
        <ele>306.708</ele>
        <time>2020-08-30T11:35:18Z</time>
      </trkpt>
      <trkpt lat="39.786509" lon="-.397869">
        <ele>306.940</ele>
        <time>2020-08-30T11:35:20Z</time>
      </trkpt>
      <trkpt lat="39.786536" lon="-.397818">
        <ele>307.080</ele>
        <time>2020-08-30T11:35:21Z</time>
      </trkpt>
      <trkpt lat="39.78656" lon="-.397721">
        <ele>307.162</ele>
        <time>2020-08-30T11:35:23Z</time>
      </trkpt>
      <trkpt lat="39.786634" lon="-.397619">
        <ele>307.034</ele>
        <time>2020-08-30T11:35:25Z</time>
      </trkpt>
      <trkpt lat="39.7867" lon="-.397544">
        <ele>306.652</ele>
        <time>2020-08-30T11:35:27Z</time>
      </trkpt>
      <trkpt lat="39.786734" lon="-.397499">
        <ele>306.529</ele>
        <time>2020-08-30T11:35:28Z</time>
      </trkpt>
      <trkpt lat="39.786794" lon="-.397453">
        <ele>306.267</ele>
        <time>2020-08-30T11:35:30Z</time>
      </trkpt>
      <trkpt lat="39.786839" lon="-.397433">
        <ele>305.847</ele>
        <time>2020-08-30T11:35:32Z</time>
      </trkpt>
      <trkpt lat="39.786899" lon="-.397417">
        <ele>305.543</ele>
        <time>2020-08-30T11:35:34Z</time>
      </trkpt>
      <trkpt lat="39.786978" lon="-.397389">
        <ele>305.264</ele>
        <time>2020-08-30T11:35:36Z</time>
      </trkpt>
      <trkpt lat="39.787051" lon="-.397355">
        <ele>304.810</ele>
        <time>2020-08-30T11:35:38Z</time>
      </trkpt>
      <trkpt lat="39.787133" lon="-.397319">
        <ele>304.508</ele>
        <time>2020-08-30T11:35:40Z</time>
      </trkpt>
      <trkpt lat="39.787184" lon="-.397295">
        <ele>304.259</ele>
        <time>2020-08-30T11:35:41Z</time>
      </trkpt>
      <trkpt lat="39.787245" lon="-.397283">
        <ele>304.139</ele>
        <time>2020-08-30T11:35:42Z</time>
      </trkpt>
      <trkpt lat="39.787301" lon="-.397269">
        <ele>303.991</ele>
        <time>2020-08-30T11:35:43Z</time>
      </trkpt>
      <trkpt lat="39.787346" lon="-.397244">
        <ele>303.833</ele>
        <time>2020-08-30T11:35:44Z</time>
      </trkpt>
      <trkpt lat="39.787386" lon="-.397214">
        <ele>303.721</ele>
        <time>2020-08-30T11:35:45Z</time>
      </trkpt>
      <trkpt lat="39.787424" lon="-.397178">
        <ele>303.638</ele>
        <time>2020-08-30T11:35:46Z</time>
      </trkpt>
      <trkpt lat="39.78745" lon="-.397115">
        <ele>303.696</ele>
        <time>2020-08-30T11:35:48Z</time>
      </trkpt>
      <trkpt lat="39.787477" lon="-.397067">
        <ele>303.636</ele>
        <time>2020-08-30T11:35:50Z</time>
      </trkpt>
      <trkpt lat="39.787509" lon="-.397021">
        <ele>303.793</ele>
        <time>2020-08-30T11:35:52Z</time>
      </trkpt>
      <trkpt lat="39.787532" lon="-.396931">
        <ele>303.865</ele>
        <time>2020-08-30T11:35:54Z</time>
      </trkpt>
      <trkpt lat="39.787519" lon="-.396862">
        <ele>303.921</ele>
        <time>2020-08-30T11:35:56Z</time>
      </trkpt>
      <trkpt lat="39.787524" lon="-.396792">
        <ele>303.908</ele>
        <time>2020-08-30T11:35:57Z</time>
      </trkpt>
      <trkpt lat="39.787494" lon="-.396681">
        <ele>304.154</ele>
        <time>2020-08-30T11:35:59Z</time>
      </trkpt>
      <trkpt lat="39.787503" lon="-.396584">
        <ele>304.414</ele>
        <time>2020-08-30T11:36:01Z</time>
      </trkpt>
      <trkpt lat="39.787474" lon="-.396502">
        <ele>304.676</ele>
        <time>2020-08-30T11:36:04Z</time>
      </trkpt>
      <trkpt lat="39.787492" lon="-.396415">
        <ele>304.838</ele>
        <time>2020-08-30T11:36:06Z</time>
      </trkpt>
      <trkpt lat="39.787498" lon="-.396303">
        <ele>305.026</ele>
        <time>2020-08-30T11:36:08Z</time>
      </trkpt>
      <trkpt lat="39.787498" lon="-.396211">
        <ele>305.133</ele>
        <time>2020-08-30T11:36:10Z</time>
      </trkpt>
      <trkpt lat="39.787486" lon="-.396139">
        <ele>305.311</ele>
        <time>2020-08-30T11:36:12Z</time>
      </trkpt>
      <trkpt lat="39.78748" lon="-.396062">
        <ele>305.621</ele>
        <time>2020-08-30T11:36:14Z</time>
      </trkpt>
      <trkpt lat="39.787487" lon="-.39599">
        <ele>305.818</ele>
        <time>2020-08-30T11:36:16Z</time>
      </trkpt>
      <trkpt lat="39.787486" lon="-.395921">
        <ele>305.898</ele>
        <time>2020-08-30T11:36:18Z</time>
      </trkpt>
      <trkpt lat="39.787469" lon="-.395842">
        <ele>306.017</ele>
        <time>2020-08-30T11:36:20Z</time>
      </trkpt>
      <trkpt lat="39.787471" lon="-.39577">
        <ele>306.208</ele>
        <time>2020-08-30T11:36:22Z</time>
      </trkpt>
      <trkpt lat="39.78747" lon="-.395675">
        <ele>306.286</ele>
        <time>2020-08-30T11:36:24Z</time>
      </trkpt>
      <trkpt lat="39.787481" lon="-.39559">
        <ele>306.236</ele>
        <time>2020-08-30T11:36:26Z</time>
      </trkpt>
      <trkpt lat="39.787485" lon="-.395506">
        <ele>306.268</ele>
        <time>2020-08-30T11:36:28Z</time>
      </trkpt>
      <trkpt lat="39.787475" lon="-.395426">
        <ele>306.260</ele>
        <time>2020-08-30T11:36:30Z</time>
      </trkpt>
      <trkpt lat="39.787462" lon="-.395348">
        <ele>306.228</ele>
        <time>2020-08-30T11:36:32Z</time>
      </trkpt>
      <trkpt lat="39.787457" lon="-.395278">
        <ele>306.495</ele>
        <time>2020-08-30T11:36:34Z</time>
      </trkpt>
      <trkpt lat="39.787456" lon="-.395212">
        <ele>306.533</ele>
        <time>2020-08-30T11:36:36Z</time>
      </trkpt>
      <trkpt lat="39.787456" lon="-.39514">
        <ele>306.523</ele>
        <time>2020-08-30T11:36:38Z</time>
      </trkpt>
      <trkpt lat="39.787458" lon="-.395048">
        <ele>306.889</ele>
        <time>2020-08-30T11:36:40Z</time>
      </trkpt>
      <trkpt lat="39.787447" lon="-.394978">
        <ele>307.206</ele>
        <time>2020-08-30T11:36:42Z</time>
      </trkpt>
      <trkpt lat="39.787441" lon="-.394899">
        <ele>307.526</ele>
        <time>2020-08-30T11:36:45Z</time>
      </trkpt>
      <trkpt lat="39.787455" lon="-.39484">
        <ele>307.508</ele>
        <time>2020-08-30T11:36:46Z</time>
      </trkpt>
      <trkpt lat="39.787461" lon="-.394778">
        <ele>307.623</ele>
        <time>2020-08-30T11:36:48Z</time>
      </trkpt>
      <trkpt lat="39.787462" lon="-.394682">
        <ele>307.853</ele>
        <time>2020-08-30T11:36:50Z</time>
      </trkpt>
      <trkpt lat="39.787466" lon="-.394574">
        <ele>308.145</ele>
        <time>2020-08-30T11:36:52Z</time>
      </trkpt>
      <trkpt lat="39.787457" lon="-.394485">
        <ele>308.437</ele>
        <time>2020-08-30T11:36:54Z</time>
      </trkpt>
      <trkpt lat="39.787433" lon="-.394412">
        <ele>308.645</ele>
        <time>2020-08-30T11:36:56Z</time>
      </trkpt>
      <trkpt lat="39.787399" lon="-.394349">
        <ele>308.822</ele>
        <time>2020-08-30T11:36:58Z</time>
      </trkpt>
      <trkpt lat="39.787349" lon="-.394291">
        <ele>309.270</ele>
        <time>2020-08-30T11:37:00Z</time>
      </trkpt>
      <trkpt lat="39.787306" lon="-.394244">
        <ele>309.670</ele>
        <time>2020-08-30T11:37:02Z</time>
      </trkpt>
      <trkpt lat="39.787267" lon="-.3942">
        <ele>309.934</ele>
        <time>2020-08-30T11:37:04Z</time>
      </trkpt>
      <trkpt lat="39.787231" lon="-.39416">
        <ele>310.155</ele>
        <time>2020-08-30T11:37:06Z</time>
      </trkpt>
      <trkpt lat="39.787196" lon="-.394105">
        <ele>310.310</ele>
        <time>2020-08-30T11:37:08Z</time>
      </trkpt>
      <trkpt lat="39.787172" lon="-.394023">
        <ele>310.208</ele>
        <time>2020-08-30T11:37:10Z</time>
      </trkpt>
      <trkpt lat="39.787146" lon="-.39396">
        <ele>309.888</ele>
        <time>2020-08-30T11:37:12Z</time>
      </trkpt>
      <trkpt lat="39.787136" lon="-.393856">
        <ele>309.028</ele>
        <time>2020-08-30T11:37:14Z</time>
      </trkpt>
      <trkpt lat="39.787112" lon="-.393791">
        <ele>308.550</ele>
        <time>2020-08-30T11:37:16Z</time>
      </trkpt>
      <trkpt lat="39.787095" lon="-.393706">
        <ele>308.252</ele>
        <time>2020-08-30T11:37:18Z</time>
      </trkpt>
      <trkpt lat="39.78707" lon="-.393641">
        <ele>308.150</ele>
        <time>2020-08-30T11:37:19Z</time>
      </trkpt>
      <trkpt lat="39.787056" lon="-.393551">
        <ele>308.197</ele>
        <time>2020-08-30T11:37:20Z</time>
      </trkpt>
      <trkpt lat="39.787021" lon="-.39346">
        <ele>308.335</ele>
        <time>2020-08-30T11:37:23Z</time>
      </trkpt>
      <trkpt lat="39.787026" lon="-.393382">
        <ele>308.325</ele>
        <time>2020-08-30T11:37:25Z</time>
      </trkpt>
      <trkpt lat="39.787019" lon="-.393296">
        <ele>308.374</ele>
        <time>2020-08-30T11:37:27Z</time>
      </trkpt>
      <trkpt lat="39.787" lon="-.393223">
        <ele>308.256</ele>
        <time>2020-08-30T11:37:28Z</time>
      </trkpt>
      <trkpt lat="39.786983" lon="-.393159">
        <ele>308.221</ele>
        <time>2020-08-30T11:37:29Z</time>
      </trkpt>
      <trkpt lat="39.786962" lon="-.393094">
        <ele>308.208</ele>
        <time>2020-08-30T11:37:30Z</time>
      </trkpt>
      <trkpt lat="39.786934" lon="-.393032">
        <ele>308.212</ele>
        <time>2020-08-30T11:37:31Z</time>
      </trkpt>
      <trkpt lat="39.786908" lon="-.39296">
        <ele>308.242</ele>
        <time>2020-08-30T11:37:32Z</time>
      </trkpt>
      <trkpt lat="39.786882" lon="-.392895">
        <ele>308.384</ele>
        <time>2020-08-30T11:37:33Z</time>
      </trkpt>
      <trkpt lat="39.786843" lon="-.392835">
        <ele>308.376</ele>
        <time>2020-08-30T11:37:34Z</time>
      </trkpt>
      <trkpt lat="39.786803" lon="-.392782">
        <ele>308.314</ele>
        <time>2020-08-30T11:37:35Z</time>
      </trkpt>
      <trkpt lat="39.78678" lon="-.392713">
        <ele>308.391</ele>
        <time>2020-08-30T11:37:36Z</time>
      </trkpt>
      <trkpt lat="39.786755" lon="-.392655">
        <ele>308.339</ele>
        <time>2020-08-30T11:37:37Z</time>
      </trkpt>
      <trkpt lat="39.786716" lon="-.392587">
        <ele>308.399</ele>
        <time>2020-08-30T11:37:38Z</time>
      </trkpt>
      <trkpt lat="39.786697" lon="-.392525">
        <ele>308.343</ele>
        <time>2020-08-30T11:37:40Z</time>
      </trkpt>
      <trkpt lat="39.786654" lon="-.392459">
        <ele>308.364</ele>
        <time>2020-08-30T11:37:42Z</time>
      </trkpt>
      <trkpt lat="39.78662" lon="-.392377">
        <ele>308.410</ele>
        <time>2020-08-30T11:37:44Z</time>
      </trkpt>
      <trkpt lat="39.78657" lon="-.39231">
        <ele>308.508</ele>
        <time>2020-08-30T11:37:46Z</time>
      </trkpt>
      <trkpt lat="39.786544" lon="-.392251">
        <ele>308.659</ele>
        <time>2020-08-30T11:37:48Z</time>
      </trkpt>
      <trkpt lat="39.786519" lon="-.392201">
        <ele>308.799</ele>
        <time>2020-08-30T11:37:50Z</time>
      </trkpt>
      <trkpt lat="39.78647" lon="-.392148">
        <ele>308.871</ele>
        <time>2020-08-30T11:37:52Z</time>
      </trkpt>
      <trkpt lat="39.786443" lon="-.392092">
        <ele>309.033</ele>
        <time>2020-08-30T11:37:54Z</time>
      </trkpt>
      <trkpt lat="39.786403" lon="-.39205">
        <ele>309.281</ele>
        <time>2020-08-30T11:37:56Z</time>
      </trkpt>
      <trkpt lat="39.786363" lon="-.39198">
        <ele>309.498</ele>
        <time>2020-08-30T11:37:58Z</time>
      </trkpt>
      <trkpt lat="39.78631" lon="-.391902">
        <ele>309.446</ele>
        <time>2020-08-30T11:38:01Z</time>
      </trkpt>
      <trkpt lat="39.786248" lon="-.391837">
        <ele>309.436</ele>
        <time>2020-08-30T11:38:04Z</time>
      </trkpt>
      <trkpt lat="39.786204" lon="-.391782">
        <ele>309.597</ele>
        <time>2020-08-30T11:38:06Z</time>
      </trkpt>
      <trkpt lat="39.786158" lon="-.391716">
        <ele>309.723</ele>
        <time>2020-08-30T11:38:08Z</time>
      </trkpt>
      <trkpt lat="39.786116" lon="-.391638">
        <ele>309.925</ele>
        <time>2020-08-30T11:38:10Z</time>
      </trkpt>
      <trkpt lat="39.786078" lon="-.39156">
        <ele>310.008</ele>
        <time>2020-08-30T11:38:12Z</time>
      </trkpt>
      <trkpt lat="39.786042" lon="-.391481">
        <ele>309.914</ele>
        <time>2020-08-30T11:38:14Z</time>
      </trkpt>
      <trkpt lat="39.786006" lon="-.391403">
        <ele>309.894</ele>
        <time>2020-08-30T11:38:16Z</time>
      </trkpt>
      <trkpt lat="39.785968" lon="-.391332">
        <ele>309.876</ele>
        <time>2020-08-30T11:38:18Z</time>
      </trkpt>
      <trkpt lat="39.785935" lon="-.39125">
        <ele>309.978</ele>
        <time>2020-08-30T11:38:20Z</time>
      </trkpt>
      <trkpt lat="39.785888" lon="-.391173">
        <ele>310.236</ele>
        <time>2020-08-30T11:38:22Z</time>
      </trkpt>
      <trkpt lat="39.785851" lon="-.391085">
        <ele>310.623</ele>
        <time>2020-08-30T11:38:24Z</time>
      </trkpt>
      <trkpt lat="39.785784" lon="-.391026">
        <ele>310.751</ele>
        <time>2020-08-30T11:38:26Z</time>
      </trkpt>
      <trkpt lat="39.785743" lon="-.390941">
        <ele>310.751</ele>
        <time>2020-08-30T11:38:28Z</time>
      </trkpt>
      <trkpt lat="39.785688" lon="-.390878">
        <ele>310.774</ele>
        <time>2020-08-30T11:38:30Z</time>
      </trkpt>
      <trkpt lat="39.785648" lon="-.390795">
        <ele>310.756</ele>
        <time>2020-08-30T11:38:32Z</time>
      </trkpt>
      <trkpt lat="39.785597" lon="-.390729">
        <ele>310.721</ele>
        <time>2020-08-30T11:38:34Z</time>
      </trkpt>
      <trkpt lat="39.785553" lon="-.390644">
        <ele>310.808</ele>
        <time>2020-08-30T11:38:36Z</time>
      </trkpt>
      <trkpt lat="39.785511" lon="-.390555">
        <ele>310.952</ele>
        <time>2020-08-30T11:38:38Z</time>
      </trkpt>
      <trkpt lat="39.785447" lon="-.390492">
        <ele>311.072</ele>
        <time>2020-08-30T11:38:40Z</time>
      </trkpt>
      <trkpt lat="39.785379" lon="-.390438">
        <ele>311.134</ele>
        <time>2020-08-30T11:38:42Z</time>
      </trkpt>
      <trkpt lat="39.785346" lon="-.390395">
        <ele>311.246</ele>
        <time>2020-08-30T11:38:43Z</time>
      </trkpt>
      <trkpt lat="39.785307" lon="-.390356">
        <ele>311.234</ele>
        <time>2020-08-30T11:38:44Z</time>
      </trkpt>
      <trkpt lat="39.785268" lon="-.390278">
        <ele>311.331</ele>
        <time>2020-08-30T11:38:46Z</time>
      </trkpt>
      <trkpt lat="39.785227" lon="-.390182">
        <ele>311.319</ele>
        <time>2020-08-30T11:38:48Z</time>
      </trkpt>
      <trkpt lat="39.785191" lon="-.390126">
        <ele>311.419</ele>
        <time>2020-08-30T11:38:50Z</time>
      </trkpt>
      <trkpt lat="39.785164" lon="-.390065">
        <ele>311.529</ele>
        <time>2020-08-30T11:38:52Z</time>
      </trkpt>
      <trkpt lat="39.785109" lon="-.390037">
        <ele>311.500</ele>
        <time>2020-08-30T11:38:54Z</time>
      </trkpt>
      <trkpt lat="39.785075" lon="-.389971">
        <ele>311.520</ele>
        <time>2020-08-30T11:38:56Z</time>
      </trkpt>
      <trkpt lat="39.784892" lon="-.389823">
        <ele>311.708</ele>
        <time>2020-08-30T11:39:04Z</time>
      </trkpt>
      <trkpt lat="39.784696" lon="-.389753">
        <ele>311.667</ele>
        <time>2020-08-30T11:39:20Z</time>
      </trkpt>
      <trkpt lat="39.784622" lon="-.389708">
        <ele>311.617</ele>
        <time>2020-08-30T11:39:53Z</time>
      </trkpt>
      <trkpt lat="39.784593" lon="-.389645">
        <ele>311.749</ele>
        <time>2020-08-30T11:39:56Z</time>
      </trkpt>
      <trkpt lat="39.784554" lon="-.3896">
        <ele>311.731</ele>
        <time>2020-08-30T11:39:58Z</time>
      </trkpt>
      <trkpt lat="39.784509" lon="-.389535">
        <ele>311.749</ele>
        <time>2020-08-30T11:40:00Z</time>
      </trkpt>
      <trkpt lat="39.784483" lon="-.38946">
        <ele>311.676</ele>
        <time>2020-08-30T11:40:02Z</time>
      </trkpt>
      <trkpt lat="39.784439" lon="-.389402">
        <ele>311.544</ele>
        <time>2020-08-30T11:40:04Z</time>
      </trkpt>
      <trkpt lat="39.784407" lon="-.389325">
        <ele>311.454</ele>
        <time>2020-08-30T11:40:06Z</time>
      </trkpt>
      <trkpt lat="39.784345" lon="-.389297">
        <ele>311.319</ele>
        <time>2020-08-30T11:40:08Z</time>
      </trkpt>
      <trkpt lat="39.784306" lon="-.389254">
        <ele>311.209</ele>
        <time>2020-08-30T11:40:10Z</time>
      </trkpt>
      <trkpt lat="39.784258" lon="-.389197">
        <ele>311.019</ele>
        <time>2020-08-30T11:40:12Z</time>
      </trkpt>
      <trkpt lat="39.784213" lon="-.389133">
        <ele>310.908</ele>
        <time>2020-08-30T11:40:14Z</time>
      </trkpt>
      <trkpt lat="39.784172" lon="-.389069">
        <ele>310.866</ele>
        <time>2020-08-30T11:40:16Z</time>
      </trkpt>
      <trkpt lat="39.784124" lon="-.389003">
        <ele>310.766</ele>
        <time>2020-08-30T11:40:18Z</time>
      </trkpt>
      <trkpt lat="39.784084" lon="-.388973">
        <ele>310.618</ele>
        <time>2020-08-30T11:40:19Z</time>
      </trkpt>
      <trkpt lat="39.784045" lon="-.388933">
        <ele>310.630</ele>
        <time>2020-08-30T11:40:20Z</time>
      </trkpt>
      <trkpt lat="39.784002" lon="-.388853">
        <ele>310.428</ele>
        <time>2020-08-30T11:40:22Z</time>
      </trkpt>
      <trkpt lat="39.783965" lon="-.388805">
        <ele>310.365</ele>
        <time>2020-08-30T11:40:23Z</time>
      </trkpt>
      <trkpt lat="39.783932" lon="-.388712">
        <ele>310.013</ele>
        <time>2020-08-30T11:40:25Z</time>
      </trkpt>
      <trkpt lat="39.783887" lon="-.388617">
        <ele>309.723</ele>
        <time>2020-08-30T11:40:27Z</time>
      </trkpt>
      <trkpt lat="39.78385" lon="-.38857">
        <ele>309.667</ele>
        <time>2020-08-30T11:40:28Z</time>
      </trkpt>
      <trkpt lat="39.783818" lon="-.388524">
        <ele>309.581</ele>
        <time>2020-08-30T11:40:29Z</time>
      </trkpt>
      <trkpt lat="39.783785" lon="-.388479">
        <ele>309.419</ele>
        <time>2020-08-30T11:40:30Z</time>
      </trkpt>
      <trkpt lat="39.783742" lon="-.388428">
        <ele>309.408</ele>
        <time>2020-08-30T11:40:31Z</time>
      </trkpt>
      <trkpt lat="39.783703" lon="-.388381">
        <ele>309.351</ele>
        <time>2020-08-30T11:40:32Z</time>
      </trkpt>
      <trkpt lat="39.783655" lon="-.388335">
        <ele>309.191</ele>
        <time>2020-08-30T11:40:33Z</time>
      </trkpt>
      <trkpt lat="39.783611" lon="-.388293">
        <ele>308.923</ele>
        <time>2020-08-30T11:40:34Z</time>
      </trkpt>
      <trkpt lat="39.783558" lon="-.388254">
        <ele>308.715</ele>
        <time>2020-08-30T11:40:35Z</time>
      </trkpt>
      <trkpt lat="39.783515" lon="-.388192">
        <ele>308.473</ele>
        <time>2020-08-30T11:40:36Z</time>
      </trkpt>
      <trkpt lat="39.783484" lon="-.388142">
        <ele>308.270</ele>
        <time>2020-08-30T11:40:37Z</time>
      </trkpt>
      <trkpt lat="39.783437" lon="-.388101">
        <ele>308.038</ele>
        <time>2020-08-30T11:40:38Z</time>
      </trkpt>
      <trkpt lat="39.783391" lon="-.38806">
        <ele>307.988</ele>
        <time>2020-08-30T11:40:39Z</time>
      </trkpt>
      <trkpt lat="39.783298" lon="-.388027">
        <ele>307.884</ele>
        <time>2020-08-30T11:40:40Z</time>
      </trkpt>
      <trkpt lat="39.783269" lon="-.387951">
        <ele>307.707</ele>
        <time>2020-08-30T11:40:41Z</time>
      </trkpt>
      <trkpt lat="39.783211" lon="-.387889">
        <ele>307.517</ele>
        <time>2020-08-30T11:40:42Z</time>
      </trkpt>
      <trkpt lat="39.783159" lon="-.387826">
        <ele>307.408</ele>
        <time>2020-08-30T11:40:43Z</time>
      </trkpt>
      <trkpt lat="39.783122" lon="-.387768">
        <ele>307.353</ele>
        <time>2020-08-30T11:40:44Z</time>
      </trkpt>
      <trkpt lat="39.783076" lon="-.387724">
        <ele>307.243</ele>
        <time>2020-08-30T11:40:45Z</time>
      </trkpt>
      <trkpt lat="39.783029" lon="-.387678">
        <ele>307.145</ele>
        <time>2020-08-30T11:40:46Z</time>
      </trkpt>
      <trkpt lat="39.782988" lon="-.387608">
        <ele>307.087</ele>
        <time>2020-08-30T11:40:47Z</time>
      </trkpt>
      <trkpt lat="39.78295" lon="-.387557">
        <ele>306.975</ele>
        <time>2020-08-30T11:40:48Z</time>
      </trkpt>
      <trkpt lat="39.782883" lon="-.387477">
        <ele>306.722</ele>
        <time>2020-08-30T11:40:50Z</time>
      </trkpt>
      <trkpt lat="39.782833" lon="-.387421">
        <ele>306.620</ele>
        <time>2020-08-30T11:40:51Z</time>
      </trkpt>
      <trkpt lat="39.782788" lon="-.387371">
        <ele>306.630</ele>
        <time>2020-08-30T11:40:52Z</time>
      </trkpt>
      <trkpt lat="39.782745" lon="-.387319">
        <ele>306.573</ele>
        <time>2020-08-30T11:40:53Z</time>
      </trkpt>
      <trkpt lat="39.782708" lon="-.387269">
        <ele>306.485</ele>
        <time>2020-08-30T11:40:54Z</time>
      </trkpt>
      <trkpt lat="39.78267" lon="-.387221">
        <ele>306.313</ele>
        <time>2020-08-30T11:40:55Z</time>
      </trkpt>
      <trkpt lat="39.782632" lon="-.387175">
        <ele>306.208</ele>
        <time>2020-08-30T11:40:56Z</time>
      </trkpt>
      <trkpt lat="39.782591" lon="-.387132">
        <ele>306.052</ele>
        <time>2020-08-30T11:40:57Z</time>
      </trkpt>
      <trkpt lat="39.782549" lon="-.387077">
        <ele>305.942</ele>
        <time>2020-08-30T11:40:58Z</time>
      </trkpt>
      <trkpt lat="39.782509" lon="-.387029">
        <ele>305.834</ele>
        <time>2020-08-30T11:40:59Z</time>
      </trkpt>
      <trkpt lat="39.782474" lon="-.386977">
        <ele>305.696</ele>
        <time>2020-08-30T11:41:00Z</time>
      </trkpt>
      <trkpt lat="39.782432" lon="-.386925">
        <ele>305.414</ele>
        <time>2020-08-30T11:41:01Z</time>
      </trkpt>
      <trkpt lat="39.782389" lon="-.386879">
        <ele>305.311</ele>
        <time>2020-08-30T11:41:02Z</time>
      </trkpt>
      <trkpt lat="39.78236" lon="-.386833">
        <ele>305.289</ele>
        <time>2020-08-30T11:41:03Z</time>
      </trkpt>
      <trkpt lat="39.782321" lon="-.386784">
        <ele>305.099</ele>
        <time>2020-08-30T11:41:04Z</time>
      </trkpt>
      <trkpt lat="39.782282" lon="-.386734">
        <ele>304.993</ele>
        <time>2020-08-30T11:41:05Z</time>
      </trkpt>
      <trkpt lat="39.782241" lon="-.386683">
        <ele>304.865</ele>
        <time>2020-08-30T11:41:06Z</time>
      </trkpt>
      <trkpt lat="39.782202" lon="-.386628">
        <ele>304.721</ele>
        <time>2020-08-30T11:41:07Z</time>
      </trkpt>
      <trkpt lat="39.782163" lon="-.386577">
        <ele>304.608</ele>
        <time>2020-08-30T11:41:08Z</time>
      </trkpt>
      <trkpt lat="39.782135" lon="-.386526">
        <ele>304.514</ele>
        <time>2020-08-30T11:41:09Z</time>
      </trkpt>
      <trkpt lat="39.782067" lon="-.386434">
        <ele>304.364</ele>
        <time>2020-08-30T11:41:11Z</time>
      </trkpt>
      <trkpt lat="39.78203" lon="-.386388">
        <ele>304.356</ele>
        <time>2020-08-30T11:41:12Z</time>
      </trkpt>
      <trkpt lat="39.781978" lon="-.386329">
        <ele>304.348</ele>
        <time>2020-08-30T11:41:13Z</time>
      </trkpt>
      <trkpt lat="39.781942" lon="-.386282">
        <ele>304.356</ele>
        <time>2020-08-30T11:41:14Z</time>
      </trkpt>
      <trkpt lat="39.781909" lon="-.386225">
        <ele>304.233</ele>
        <time>2020-08-30T11:41:15Z</time>
      </trkpt>
      <trkpt lat="39.781879" lon="-.386174">
        <ele>304.091</ele>
        <time>2020-08-30T11:41:16Z</time>
      </trkpt>
      <trkpt lat="39.78185" lon="-.386126">
        <ele>303.921</ele>
        <time>2020-08-30T11:41:17Z</time>
      </trkpt>
      <trkpt lat="39.781812" lon="-.386063">
        <ele>303.996</ele>
        <time>2020-08-30T11:41:18Z</time>
      </trkpt>
      <trkpt lat="39.781773" lon="-.385972">
        <ele>303.831</ele>
        <time>2020-08-30T11:41:20Z</time>
      </trkpt>
      <trkpt lat="39.781732" lon="-.385872">
        <ele>303.724</ele>
        <time>2020-08-30T11:41:22Z</time>
      </trkpt>
      <trkpt lat="39.781703" lon="-.385821">
        <ele>303.608</ele>
        <time>2020-08-30T11:41:23Z</time>
      </trkpt>
      <trkpt lat="39.781656" lon="-.385741">
        <ele>303.184</ele>
        <time>2020-08-30T11:41:25Z</time>
      </trkpt>
      <trkpt lat="39.781622" lon="-.385676">
        <ele>302.954</ele>
        <time>2020-08-30T11:41:26Z</time>
      </trkpt>
      <trkpt lat="39.781614" lon="-.385613">
        <ele>302.846</ele>
        <time>2020-08-30T11:41:27Z</time>
      </trkpt>
      <trkpt lat="39.781608" lon="-.385547">
        <ele>302.778</ele>
        <time>2020-08-30T11:41:28Z</time>
      </trkpt>
      <trkpt lat="39.781598" lon="-.385467">
        <ele>302.646</ele>
        <time>2020-08-30T11:41:29Z</time>
      </trkpt>
      <trkpt lat="39.78159" lon="-.385388">
        <ele>302.583</ele>
        <time>2020-08-30T11:41:30Z</time>
      </trkpt>
      <trkpt lat="39.781587" lon="-.38532">
        <ele>302.541</ele>
        <time>2020-08-30T11:41:31Z</time>
      </trkpt>
      <trkpt lat="39.781595" lon="-.385249">
        <ele>302.481</ele>
        <time>2020-08-30T11:41:32Z</time>
      </trkpt>
      <trkpt lat="39.781597" lon="-.385172">
        <ele>302.218</ele>
        <time>2020-08-30T11:41:33Z</time>
      </trkpt>
      <trkpt lat="39.781601" lon="-.385097">
        <ele>302.098</ele>
        <time>2020-08-30T11:41:34Z</time>
      </trkpt>
      <trkpt lat="39.781605" lon="-.385022">
        <ele>301.817</ele>
        <time>2020-08-30T11:41:35Z</time>
      </trkpt>
      <trkpt lat="39.781615" lon="-.384942">
        <ele>301.408</ele>
        <time>2020-08-30T11:41:36Z</time>
      </trkpt>
      <trkpt lat="39.78162" lon="-.384848">
        <ele>300.956</ele>
        <time>2020-08-30T11:41:37Z</time>
      </trkpt>
      <trkpt lat="39.781628" lon="-.384749">
        <ele>300.376</ele>
        <time>2020-08-30T11:41:38Z</time>
      </trkpt>
      <trkpt lat="39.781639" lon="-.384643">
        <ele>299.738</ele>
        <time>2020-08-30T11:41:39Z</time>
      </trkpt>
      <trkpt lat="39.781649" lon="-.38454">
        <ele>299.020</ele>
        <time>2020-08-30T11:41:40Z</time>
      </trkpt>
      <trkpt lat="39.781671" lon="-.384427">
        <ele>298.588</ele>
        <time>2020-08-30T11:41:41Z</time>
      </trkpt>
      <trkpt lat="39.781689" lon="-.384317">
        <ele>298.235</ele>
        <time>2020-08-30T11:41:42Z</time>
      </trkpt>
      <trkpt lat="39.781709" lon="-.384203">
        <ele>297.983</ele>
        <time>2020-08-30T11:41:43Z</time>
      </trkpt>
      <trkpt lat="39.78173" lon="-.384089">
        <ele>297.663</ele>
        <time>2020-08-30T11:41:44Z</time>
      </trkpt>
      <trkpt lat="39.781749" lon="-.38397">
        <ele>297.385</ele>
        <time>2020-08-30T11:41:45Z</time>
      </trkpt>
      <trkpt lat="39.781757" lon="-.383844">
        <ele>296.889</ele>
        <time>2020-08-30T11:41:46Z</time>
      </trkpt>
      <trkpt lat="39.781768" lon="-.383732">
        <ele>295.517</ele>
        <time>2020-08-30T11:41:47Z</time>
      </trkpt>
      <trkpt lat="39.781774" lon="-.383641">
        <ele>294.908</ele>
        <time>2020-08-30T11:41:48Z</time>
      </trkpt>
      <trkpt lat="39.781764" lon="-.383542">
        <ele>294.333</ele>
        <time>2020-08-30T11:41:49Z</time>
      </trkpt>
      <trkpt lat="39.781751" lon="-.383438">
        <ele>293.813</ele>
        <time>2020-08-30T11:41:50Z</time>
      </trkpt>
      <trkpt lat="39.781746" lon="-.383325">
        <ele>293.355</ele>
        <time>2020-08-30T11:41:51Z</time>
      </trkpt>
      <trkpt lat="39.781731" lon="-.383217">
        <ele>292.877</ele>
        <time>2020-08-30T11:41:52Z</time>
      </trkpt>
      <trkpt lat="39.781725" lon="-.383124">
        <ele>292.155</ele>
        <time>2020-08-30T11:41:53Z</time>
      </trkpt>
      <trkpt lat="39.78172" lon="-.38304">
        <ele>291.712</ele>
        <time>2020-08-30T11:41:54Z</time>
      </trkpt>
      <trkpt lat="39.78171" lon="-.382966">
        <ele>291.490</ele>
        <time>2020-08-30T11:41:55Z</time>
      </trkpt>
      <trkpt lat="39.781712" lon="-.382906">
        <ele>291.320</ele>
        <time>2020-08-30T11:41:56Z</time>
      </trkpt>
      <trkpt lat="39.781717" lon="-.382829">
        <ele>291.692</ele>
        <time>2020-08-30T11:41:58Z</time>
      </trkpt>
      <trkpt lat="39.781722" lon="-.382756">
        <ele>292.373</ele>
        <time>2020-08-30T11:42:00Z</time>
      </trkpt>
      <trkpt lat="39.781723" lon="-.382686">
        <ele>293.020</ele>
        <time>2020-08-30T11:42:02Z</time>
      </trkpt>
      <trkpt lat="39.781715" lon="-.382628">
        <ele>293.708</ele>
        <time>2020-08-30T11:42:04Z</time>
      </trkpt>
      <trkpt lat="39.781715" lon="-.382568">
        <ele>294.374</ele>
        <time>2020-08-30T11:42:06Z</time>
      </trkpt>
      <trkpt lat="39.781697" lon="-.38249">
        <ele>295.344</ele>
        <time>2020-08-30T11:42:09Z</time>
      </trkpt>
      <trkpt lat="39.781702" lon="-.382405">
        <ele>296.656</ele>
        <time>2020-08-30T11:42:12Z</time>
      </trkpt>
      <trkpt lat="39.781694" lon="-.382338">
        <ele>297.178</ele>
        <time>2020-08-30T11:42:14Z</time>
      </trkpt>
      <trkpt lat="39.781695" lon="-.38227">
        <ele>298.216</ele>
        <time>2020-08-30T11:42:18Z</time>
      </trkpt>
      <trkpt lat="39.781676" lon="-.382198">
        <ele>299.013</ele>
        <time>2020-08-30T11:42:21Z</time>
      </trkpt>
      <trkpt lat="39.781677" lon="-.382132">
        <ele>299.561</ele>
        <time>2020-08-30T11:42:24Z</time>
      </trkpt>
      <trkpt lat="39.781689" lon="-.382068">
        <ele>299.631</ele>
        <time>2020-08-30T11:42:26Z</time>
      </trkpt>
      <trkpt lat="39.7817" lon="-.382004">
        <ele>299.456</ele>
        <time>2020-08-30T11:42:28Z</time>
      </trkpt>
      <trkpt lat="39.7817" lon="-.381936">
        <ele>299.359</ele>
        <time>2020-08-30T11:42:30Z</time>
      </trkpt>
      <trkpt lat="39.781714" lon="-.381861">
        <ele>299.414</ele>
        <time>2020-08-30T11:42:32Z</time>
      </trkpt>
      <trkpt lat="39.781733" lon="-.381781">
        <ele>299.408</ele>
        <time>2020-08-30T11:42:34Z</time>
      </trkpt>
      <trkpt lat="39.781738" lon="-.381706">
        <ele>299.490</ele>
        <time>2020-08-30T11:42:36Z</time>
      </trkpt>
      <trkpt lat="39.781771" lon="-.381616">
        <ele>299.350</ele>
        <time>2020-08-30T11:42:38Z</time>
      </trkpt>
      <trkpt lat="39.781807" lon="-.381515">
        <ele>299.262</ele>
        <time>2020-08-30T11:42:40Z</time>
      </trkpt>
      <trkpt lat="39.781837" lon="-.381429">
        <ele>299.014</ele>
        <time>2020-08-30T11:42:42Z</time>
      </trkpt>
      <trkpt lat="39.781877" lon="-.38134">
        <ele>299.082</ele>
        <time>2020-08-30T11:42:44Z</time>
      </trkpt>
      <trkpt lat="39.781905" lon="-.381257">
        <ele>298.899</ele>
        <time>2020-08-30T11:42:47Z</time>
      </trkpt>
      <trkpt lat="39.781921" lon="-.381202">
        <ele>298.777</ele>
        <time>2020-08-30T11:42:48Z</time>
      </trkpt>
      <trkpt lat="39.781937" lon="-.381137">
        <ele>298.427</ele>
        <time>2020-08-30T11:42:50Z</time>
      </trkpt>
      <trkpt lat="39.781952" lon="-.381065">
        <ele>298.042</ele>
        <time>2020-08-30T11:42:51Z</time>
      </trkpt>
      <trkpt lat="39.781964" lon="-.380999">
        <ele>298.022</ele>
        <time>2020-08-30T11:42:52Z</time>
      </trkpt>
      <trkpt lat="39.781982" lon="-.380897">
        <ele>297.714</ele>
        <time>2020-08-30T11:42:54Z</time>
      </trkpt>
      <trkpt lat="39.781987" lon="-.380835">
        <ele>297.608</ele>
        <time>2020-08-30T11:42:55Z</time>
      </trkpt>
      <trkpt lat="39.781997" lon="-.380715">
        <ele>297.469</ele>
        <time>2020-08-30T11:42:57Z</time>
      </trkpt>
      <trkpt lat="39.782004" lon="-.380642">
        <ele>297.329</ele>
        <time>2020-08-30T11:42:58Z</time>
      </trkpt>
      <trkpt lat="39.782006" lon="-.380572">
        <ele>297.221</ele>
        <time>2020-08-30T11:42:59Z</time>
      </trkpt>
      <trkpt lat="39.782015" lon="-.38051">
        <ele>297.133</ele>
        <time>2020-08-30T11:43:00Z</time>
      </trkpt>
      <trkpt lat="39.782035" lon="-.380444">
        <ele>297.061</ele>
        <time>2020-08-30T11:43:01Z</time>
      </trkpt>
      <trkpt lat="39.782048" lon="-.380377">
        <ele>296.988</ele>
        <time>2020-08-30T11:43:02Z</time>
      </trkpt>
      <trkpt lat="39.782055" lon="-.380309">
        <ele>296.896</ele>
        <time>2020-08-30T11:43:03Z</time>
      </trkpt>
      <trkpt lat="39.782056" lon="-.38023">
        <ele>296.786</ele>
        <time>2020-08-30T11:43:04Z</time>
      </trkpt>
      <trkpt lat="39.782057" lon="-.380165">
        <ele>296.673</ele>
        <time>2020-08-30T11:43:05Z</time>
      </trkpt>
      <trkpt lat="39.782058" lon="-.38009">
        <ele>296.685</ele>
        <time>2020-08-30T11:43:06Z</time>
      </trkpt>
      <trkpt lat="39.78207" lon="-.380017">
        <ele>296.613</ele>
        <time>2020-08-30T11:43:07Z</time>
      </trkpt>
      <trkpt lat="39.782085" lon="-.37996">
        <ele>296.608</ele>
        <time>2020-08-30T11:43:08Z</time>
      </trkpt>
      <trkpt lat="39.782088" lon="-.379846">
        <ele>296.622</ele>
        <time>2020-08-30T11:43:09Z</time>
      </trkpt>
      <trkpt lat="39.782046" lon="-.379761">
        <ele>296.672</ele>
        <time>2020-08-30T11:43:10Z</time>
      </trkpt>
      <trkpt lat="39.782022" lon="-.379686">
        <ele>296.514</ele>
        <time>2020-08-30T11:43:11Z</time>
      </trkpt>
      <trkpt lat="39.782027" lon="-.379619">
        <ele>296.576</ele>
        <time>2020-08-30T11:43:12Z</time>
      </trkpt>
      <trkpt lat="39.782023" lon="-.379554">
        <ele>296.484</ele>
        <time>2020-08-30T11:43:13Z</time>
      </trkpt>
      <trkpt lat="39.782001" lon="-.379502">
        <ele>296.341</ele>
        <time>2020-08-30T11:43:14Z</time>
      </trkpt>
      <trkpt lat="39.781993" lon="-.379437">
        <ele>296.289</ele>
        <time>2020-08-30T11:43:15Z</time>
      </trkpt>
      <trkpt lat="39.781993" lon="-.379346">
        <ele>295.969</ele>
        <time>2020-08-30T11:43:17Z</time>
      </trkpt>
      <trkpt lat="39.781986" lon="-.379268">
        <ele>295.871</ele>
        <time>2020-08-30T11:43:18Z</time>
      </trkpt>
      <trkpt lat="39.781977" lon="-.379202">
        <ele>295.741</ele>
        <time>2020-08-30T11:43:19Z</time>
      </trkpt>
      <trkpt lat="39.781958" lon="-.379136">
        <ele>295.615</ele>
        <time>2020-08-30T11:43:20Z</time>
      </trkpt>
      <trkpt lat="39.781936" lon="-.379076">
        <ele>295.508</ele>
        <time>2020-08-30T11:43:21Z</time>
      </trkpt>
      <trkpt lat="39.781918" lon="-.379019">
        <ele>295.332</ele>
        <time>2020-08-30T11:43:22Z</time>
      </trkpt>
      <trkpt lat="39.781905" lon="-.378963">
        <ele>295.292</ele>
        <time>2020-08-30T11:43:23Z</time>
      </trkpt>
      <trkpt lat="39.781905" lon="-.378881">
        <ele>295.194</ele>
        <time>2020-08-30T11:43:24Z</time>
      </trkpt>
      <trkpt lat="39.781881" lon="-.378803">
        <ele>295.026</ele>
        <time>2020-08-30T11:43:25Z</time>
      </trkpt>
      <trkpt lat="39.78186" lon="-.378733">
        <ele>294.924</ele>
        <time>2020-08-30T11:43:26Z</time>
      </trkpt>
      <trkpt lat="39.781832" lon="-.37868">
        <ele>294.831</ele>
        <time>2020-08-30T11:43:27Z</time>
      </trkpt>
      <trkpt lat="39.781803" lon="-.378618">
        <ele>294.789</ele>
        <time>2020-08-30T11:43:28Z</time>
      </trkpt>
      <trkpt lat="39.781789" lon="-.378546">
        <ele>294.559</ele>
        <time>2020-08-30T11:43:29Z</time>
      </trkpt>
      <trkpt lat="39.781775" lon="-.378485">
        <ele>294.462</ele>
        <time>2020-08-30T11:43:30Z</time>
      </trkpt>
      <trkpt lat="39.781764" lon="-.378419">
        <ele>294.383</ele>
        <time>2020-08-30T11:43:31Z</time>
      </trkpt>
      <trkpt lat="39.781745" lon="-.378351">
        <ele>294.311</ele>
        <time>2020-08-30T11:43:32Z</time>
      </trkpt>
      <trkpt lat="39.781719" lon="-.378292">
        <ele>294.308</ele>
        <time>2020-08-30T11:43:33Z</time>
      </trkpt>
      <trkpt lat="39.781688" lon="-.378241">
        <ele>294.211</ele>
        <time>2020-08-30T11:43:34Z</time>
      </trkpt>
      <trkpt lat="39.781642" lon="-.378143">
        <ele>294.171</ele>
        <time>2020-08-30T11:43:36Z</time>
      </trkpt>
      <trkpt lat="39.781622" lon="-.37807">
        <ele>294.083</ele>
        <time>2020-08-30T11:43:37Z</time>
      </trkpt>
      <trkpt lat="39.781605" lon="-.378012">
        <ele>293.995</ele>
        <time>2020-08-30T11:43:38Z</time>
      </trkpt>
      <trkpt lat="39.781569" lon="-.377903">
        <ele>293.893</ele>
        <time>2020-08-30T11:43:40Z</time>
      </trkpt>
      <trkpt lat="39.781535" lon="-.377821">
        <ele>293.840</ele>
        <time>2020-08-30T11:43:42Z</time>
      </trkpt>
      <trkpt lat="39.781509" lon="-.377741">
        <ele>293.898</ele>
        <time>2020-08-30T11:43:44Z</time>
      </trkpt>
      <trkpt lat="39.781474" lon="-.377659">
        <ele>293.728</ele>
        <time>2020-08-30T11:43:46Z</time>
      </trkpt>
      <trkpt lat="39.781422" lon="-.377581">
        <ele>293.382</ele>
        <time>2020-08-30T11:43:48Z</time>
      </trkpt>
      <trkpt lat="39.781369" lon="-.377516">
        <ele>293.243</ele>
        <time>2020-08-30T11:43:49Z</time>
      </trkpt>
      <trkpt lat="39.781318" lon="-.377414">
        <ele>293.017</ele>
        <time>2020-08-30T11:43:51Z</time>
      </trkpt>
      <trkpt lat="39.781274" lon="-.37737">
        <ele>293.008</ele>
        <time>2020-08-30T11:43:52Z</time>
      </trkpt>
      <trkpt lat="39.78124" lon="-.377306">
        <ele>292.913</ele>
        <time>2020-08-30T11:43:53Z</time>
      </trkpt>
      <trkpt lat="39.781174" lon="-.37722">
        <ele>292.073</ele>
        <time>2020-08-30T11:43:55Z</time>
      </trkpt>
      <trkpt lat="39.781141" lon="-.37716">
        <ele>291.895</ele>
        <time>2020-08-30T11:43:56Z</time>
      </trkpt>
      <trkpt lat="39.7811" lon="-.377109">
        <ele>291.617</ele>
        <time>2020-08-30T11:43:57Z</time>
      </trkpt>
      <trkpt lat="39.781065" lon="-.377058">
        <ele>291.475</ele>
        <time>2020-08-30T11:43:58Z</time>
      </trkpt>
      <trkpt lat="39.781029" lon="-.376997">
        <ele>291.182</ele>
        <time>2020-08-30T11:43:59Z</time>
      </trkpt>
      <trkpt lat="39.780997" lon="-.376955">
        <ele>290.830</ele>
        <time>2020-08-30T11:44:00Z</time>
      </trkpt>
      <trkpt lat="39.780963" lon="-.376898">
        <ele>290.690</ele>
        <time>2020-08-30T11:44:01Z</time>
      </trkpt>
      <trkpt lat="39.780922" lon="-.376838">
        <ele>290.469</ele>
        <time>2020-08-30T11:44:02Z</time>
      </trkpt>
      <trkpt lat="39.780893" lon="-.376781">
        <ele>290.204</ele>
        <time>2020-08-30T11:44:03Z</time>
      </trkpt>
      <trkpt lat="39.780857" lon="-.376735">
        <ele>290.024</ele>
        <time>2020-08-30T11:44:04Z</time>
      </trkpt>
      <trkpt lat="39.780809" lon="-.376684">
        <ele>289.708</ele>
        <time>2020-08-30T11:44:05Z</time>
      </trkpt>
      <trkpt lat="39.780773" lon="-.376636">
        <ele>289.411</ele>
        <time>2020-08-30T11:44:06Z</time>
      </trkpt>
      <trkpt lat="39.780736" lon="-.376593">
        <ele>289.151</ele>
        <time>2020-08-30T11:44:07Z</time>
      </trkpt>
      <trkpt lat="39.780701" lon="-.376539">
        <ele>289.073</ele>
        <time>2020-08-30T11:44:08Z</time>
      </trkpt>
      <trkpt lat="39.780658" lon="-.376484">
        <ele>288.935</ele>
        <time>2020-08-30T11:44:09Z</time>
      </trkpt>
      <trkpt lat="39.780619" lon="-.376433">
        <ele>288.863</ele>
        <time>2020-08-30T11:44:10Z</time>
      </trkpt>
      <trkpt lat="39.780574" lon="-.376373">
        <ele>288.710</ele>
        <time>2020-08-30T11:44:11Z</time>
      </trkpt>
      <trkpt lat="39.780528" lon="-.37632">
        <ele>288.638</ele>
        <time>2020-08-30T11:44:12Z</time>
      </trkpt>
      <trkpt lat="39.780482" lon="-.376253">
        <ele>288.458</ele>
        <time>2020-08-30T11:44:13Z</time>
      </trkpt>
      <trkpt lat="39.780441" lon="-.376221">
        <ele>288.241</ele>
        <time>2020-08-30T11:44:14Z</time>
      </trkpt>
      <trkpt lat="39.780401" lon="-.376143">
        <ele>288.281</ele>
        <time>2020-08-30T11:44:15Z</time>
      </trkpt>
      <trkpt lat="39.780349" lon="-.376082">
        <ele>288.009</ele>
        <time>2020-08-30T11:44:16Z</time>
      </trkpt>
      <trkpt lat="39.780294" lon="-.376021">
        <ele>287.308</ele>
        <time>2020-08-30T11:44:17Z</time>
      </trkpt>
      <trkpt lat="39.780243" lon="-.375956">
        <ele>287.189</ele>
        <time>2020-08-30T11:44:18Z</time>
      </trkpt>
      <trkpt lat="39.780195" lon="-.375894">
        <ele>287.129</ele>
        <time>2020-08-30T11:44:19Z</time>
      </trkpt>
      <trkpt lat="39.780148" lon="-.375827">
        <ele>286.921</ele>
        <time>2020-08-30T11:44:20Z</time>
      </trkpt>
      <trkpt lat="39.7801" lon="-.375782">
        <ele>286.973</ele>
        <time>2020-08-30T11:44:21Z</time>
      </trkpt>
      <trkpt lat="39.78005" lon="-.375728">
        <ele>287.011</ele>
        <time>2020-08-30T11:44:22Z</time>
      </trkpt>
      <trkpt lat="39.779998" lon="-.375666">
        <ele>287.088</ele>
        <time>2020-08-30T11:44:23Z</time>
      </trkpt>
      <trkpt lat="39.779943" lon="-.37561">
        <ele>286.826</ele>
        <time>2020-08-30T11:44:24Z</time>
      </trkpt>
      <trkpt lat="39.779888" lon="-.375557">
        <ele>286.546</ele>
        <time>2020-08-30T11:44:25Z</time>
      </trkpt>
      <trkpt lat="39.779829" lon="-.375497">
        <ele>286.339</ele>
        <time>2020-08-30T11:44:26Z</time>
      </trkpt>
      <trkpt lat="39.77977" lon="-.375431">
        <ele>286.001</ele>
        <time>2020-08-30T11:44:27Z</time>
      </trkpt>
      <trkpt lat="39.779713" lon="-.37537">
        <ele>285.521</ele>
        <time>2020-08-30T11:44:28Z</time>
      </trkpt>
      <trkpt lat="39.779661" lon="-.375297">
        <ele>285.308</ele>
        <time>2020-08-30T11:44:29Z</time>
      </trkpt>
      <trkpt lat="39.779614" lon="-.375231">
        <ele>285.148</ele>
        <time>2020-08-30T11:44:30Z</time>
      </trkpt>
      <trkpt lat="39.779569" lon="-.375174">
        <ele>284.938</ele>
        <time>2020-08-30T11:44:31Z</time>
      </trkpt>
      <trkpt lat="39.779513" lon="-.375105">
        <ele>284.630</ele>
        <time>2020-08-30T11:44:32Z</time>
      </trkpt>
      <trkpt lat="39.77946" lon="-.375041">
        <ele>284.322</ele>
        <time>2020-08-30T11:44:33Z</time>
      </trkpt>
      <trkpt lat="39.779412" lon="-.374978">
        <ele>284.050</ele>
        <time>2020-08-30T11:44:34Z</time>
      </trkpt>
      <trkpt lat="39.779355" lon="-.374924">
        <ele>283.877</ele>
        <time>2020-08-30T11:44:35Z</time>
      </trkpt>
      <trkpt lat="39.779302" lon="-.374877">
        <ele>283.645</ele>
        <time>2020-08-30T11:44:36Z</time>
      </trkpt>
      <trkpt lat="39.779251" lon="-.374805">
        <ele>283.435</ele>
        <time>2020-08-30T11:44:37Z</time>
      </trkpt>
      <trkpt lat="39.779202" lon="-.374737">
        <ele>283.331</ele>
        <time>2020-08-30T11:44:38Z</time>
      </trkpt>
      <trkpt lat="39.779154" lon="-.374675">
        <ele>283.161</ele>
        <time>2020-08-30T11:44:39Z</time>
      </trkpt>
      <trkpt lat="39.779101" lon="-.374609">
        <ele>282.907</ele>
        <time>2020-08-30T11:44:40Z</time>
      </trkpt>
      <trkpt lat="39.779056" lon="-.374554">
        <ele>282.808</ele>
        <time>2020-08-30T11:44:41Z</time>
      </trkpt>
      <trkpt lat="39.779012" lon="-.374496">
        <ele>282.668</ele>
        <time>2020-08-30T11:44:42Z</time>
      </trkpt>
      <trkpt lat="39.77894" lon="-.374431">
        <ele>282.458</ele>
        <time>2020-08-30T11:44:43Z</time>
      </trkpt>
      <trkpt lat="39.778879" lon="-.374374">
        <ele>282.390</ele>
        <time>2020-08-30T11:44:44Z</time>
      </trkpt>
      <trkpt lat="39.778814" lon="-.374308">
        <ele>282.162</ele>
        <time>2020-08-30T11:44:45Z</time>
      </trkpt>
      <trkpt lat="39.778759" lon="-.374252">
        <ele>281.920</ele>
        <time>2020-08-30T11:44:46Z</time>
      </trkpt>
      <trkpt lat="39.7787" lon="-.374192">
        <ele>281.797</ele>
        <time>2020-08-30T11:44:47Z</time>
      </trkpt>
      <trkpt lat="39.77865" lon="-.37414">
        <ele>281.555</ele>
        <time>2020-08-30T11:44:48Z</time>
      </trkpt>
      <trkpt lat="39.778592" lon="-.374085">
        <ele>281.345</ele>
        <time>2020-08-30T11:44:49Z</time>
      </trkpt>
      <trkpt lat="39.778549" lon="-.374025">
        <ele>281.137</ele>
        <time>2020-08-30T11:44:50Z</time>
      </trkpt>
      <trkpt lat="39.778508" lon="-.373975">
        <ele>280.349</ele>
        <time>2020-08-30T11:44:51Z</time>
      </trkpt>
      <trkpt lat="39.778445" lon="-.373912">
        <ele>280.213</ele>
        <time>2020-08-30T11:44:52Z</time>
      </trkpt>
      <trkpt lat="39.778384" lon="-.373845">
        <ele>280.208</ele>
        <time>2020-08-30T11:44:53Z</time>
      </trkpt>
      <trkpt lat="39.778346" lon="-.373806">
        <ele>280.088</ele>
        <time>2020-08-30T11:44:54Z</time>
      </trkpt>
      <trkpt lat="39.778274" lon="-.373738">
        <ele>279.888</ele>
        <time>2020-08-30T11:44:56Z</time>
      </trkpt>
      <trkpt lat="39.778215" lon="-.373711">
        <ele>279.330</ele>
        <time>2020-08-30T11:44:58Z</time>
      </trkpt>
      <trkpt lat="39.778163" lon="-.37378">
        <ele>279.092</ele>
        <time>2020-08-30T11:45:00Z</time>
      </trkpt>
      <trkpt lat="39.778171" lon="-.373873">
        <ele>278.740</ele>
        <time>2020-08-30T11:45:02Z</time>
      </trkpt>
      <trkpt lat="39.778153" lon="-.373943">
        <ele>278.647</ele>
        <time>2020-08-30T11:45:04Z</time>
      </trkpt>
      <trkpt lat="39.778132" lon="-.374012">
        <ele>278.645</ele>
        <time>2020-08-30T11:45:06Z</time>
      </trkpt>
      <trkpt lat="39.778114" lon="-.374073">
        <ele>278.765</ele>
        <time>2020-08-30T11:45:08Z</time>
      </trkpt>
      <trkpt lat="39.778055" lon="-.374115">
        <ele>278.622</ele>
        <time>2020-08-30T11:45:11Z</time>
      </trkpt>
      <trkpt lat="39.778005" lon="-.374122">
        <ele>278.762</ele>
        <time>2020-08-30T11:45:13Z</time>
      </trkpt>
      <trkpt lat="39.777963" lon="-.374083">
        <ele>279.508</ele>
        <time>2020-08-30T11:45:16Z</time>
      </trkpt>
      <trkpt lat="39.777926" lon="-.374034">
        <ele>280.508</ele>
        <time>2020-08-30T11:45:19Z</time>
      </trkpt>
      <trkpt lat="39.777893" lon="-.373994">
        <ele>281.147</ele>
        <time>2020-08-30T11:45:21Z</time>
      </trkpt>
      <trkpt lat="39.777852" lon="-.373964">
        <ele>281.577</ele>
        <time>2020-08-30T11:45:23Z</time>
      </trkpt>
      <trkpt lat="39.777804" lon="-.373927">
        <ele>281.719</ele>
        <time>2020-08-30T11:45:25Z</time>
      </trkpt>
      <trkpt lat="39.777759" lon="-.37389">
        <ele>281.861</ele>
        <time>2020-08-30T11:45:27Z</time>
      </trkpt>
      <trkpt lat="39.777708" lon="-.373842">
        <ele>281.799</ele>
        <time>2020-08-30T11:45:29Z</time>
      </trkpt>
      <trkpt lat="39.777668" lon="-.3738">
        <ele>281.976</ele>
        <time>2020-08-30T11:45:31Z</time>
      </trkpt>
      <trkpt lat="39.777621" lon="-.373782">
        <ele>281.994</ele>
        <time>2020-08-30T11:45:33Z</time>
      </trkpt>
      <trkpt lat="39.777571" lon="-.373735">
        <ele>282.024</ele>
        <time>2020-08-30T11:45:35Z</time>
      </trkpt>
      <trkpt lat="39.777519" lon="-.37369">
        <ele>281.985</ele>
        <time>2020-08-30T11:45:37Z</time>
      </trkpt>
      <trkpt lat="39.777465" lon="-.373642">
        <ele>281.789</ele>
        <time>2020-08-30T11:45:39Z</time>
      </trkpt>
      <trkpt lat="39.777402" lon="-.373593">
        <ele>281.517</ele>
        <time>2020-08-30T11:45:41Z</time>
      </trkpt>
      <trkpt lat="39.777338" lon="-.373533">
        <ele>281.308</ele>
        <time>2020-08-30T11:45:43Z</time>
      </trkpt>
      <trkpt lat="39.777264" lon="-.373472">
        <ele>281.223</ele>
        <time>2020-08-30T11:45:45Z</time>
      </trkpt>
      <trkpt lat="39.777221" lon="-.37344">
        <ele>281.183</ele>
        <time>2020-08-30T11:45:46Z</time>
      </trkpt>
      <trkpt lat="39.777176" lon="-.373411">
        <ele>281.155</ele>
        <time>2020-08-30T11:45:47Z</time>
      </trkpt>
      <trkpt lat="39.777136" lon="-.373379">
        <ele>281.177</ele>
        <time>2020-08-30T11:45:48Z</time>
      </trkpt>
      <trkpt lat="39.777089" lon="-.373344">
        <ele>281.095</ele>
        <time>2020-08-30T11:45:49Z</time>
      </trkpt>
      <trkpt lat="39.777045" lon="-.373308">
        <ele>280.982</ele>
        <time>2020-08-30T11:45:50Z</time>
      </trkpt>
      <trkpt lat="39.777001" lon="-.373265">
        <ele>280.750</ele>
        <time>2020-08-30T11:45:51Z</time>
      </trkpt>
      <trkpt lat="39.776958" lon="-.373226">
        <ele>280.760</ele>
        <time>2020-08-30T11:45:52Z</time>
      </trkpt>
      <trkpt lat="39.776915" lon="-.373188">
        <ele>280.635</ele>
        <time>2020-08-30T11:45:53Z</time>
      </trkpt>
      <trkpt lat="39.776846" lon="-.373129">
        <ele>280.486</ele>
        <time>2020-08-30T11:45:55Z</time>
      </trkpt>
      <trkpt lat="39.776771" lon="-.373069">
        <ele>280.214</ele>
        <time>2020-08-30T11:45:57Z</time>
      </trkpt>
      <trkpt lat="39.776693" lon="-.373007">
        <ele>280.008</ele>
        <time>2020-08-30T11:45:59Z</time>
      </trkpt>
      <trkpt lat="39.776651" lon="-.372966">
        <ele>279.848</ele>
        <time>2020-08-30T11:46:00Z</time>
      </trkpt>
      <trkpt lat="39.776611" lon="-.372934">
        <ele>279.738</ele>
        <time>2020-08-30T11:46:01Z</time>
      </trkpt>
      <trkpt lat="39.776566" lon="-.372896">
        <ele>279.630</ele>
        <time>2020-08-30T11:46:02Z</time>
      </trkpt>
      <trkpt lat="39.776521" lon="-.372872">
        <ele>279.492</ele>
        <time>2020-08-30T11:46:03Z</time>
      </trkpt>
      <trkpt lat="39.77648" lon="-.372835">
        <ele>279.330</ele>
        <time>2020-08-30T11:46:04Z</time>
      </trkpt>
      <trkpt lat="39.77644" lon="-.372795">
        <ele>279.347</ele>
        <time>2020-08-30T11:46:05Z</time>
      </trkpt>
      <trkpt lat="39.776395" lon="-.372752">
        <ele>279.215</ele>
        <time>2020-08-30T11:46:06Z</time>
      </trkpt>
      <trkpt lat="39.776346" lon="-.372712">
        <ele>279.115</ele>
        <time>2020-08-30T11:46:07Z</time>
      </trkpt>
      <trkpt lat="39.776295" lon="-.372668">
        <ele>279.046</ele>
        <time>2020-08-30T11:46:08Z</time>
      </trkpt>
      <trkpt lat="39.776254" lon="-.372626">
        <ele>278.988</ele>
        <time>2020-08-30T11:46:09Z</time>
      </trkpt>
      <trkpt lat="39.776207" lon="-.372588">
        <ele>278.716</ele>
        <time>2020-08-30T11:46:10Z</time>
      </trkpt>
      <trkpt lat="39.776161" lon="-.372553">
        <ele>278.508</ele>
        <time>2020-08-30T11:46:11Z</time>
      </trkpt>
      <trkpt lat="39.776112" lon="-.372511">
        <ele>278.559</ele>
        <time>2020-08-30T11:46:12Z</time>
      </trkpt>
      <trkpt lat="39.776066" lon="-.372468">
        <ele>278.489</ele>
        <time>2020-08-30T11:46:13Z</time>
      </trkpt>
      <trkpt lat="39.776024" lon="-.372421">
        <ele>278.321</ele>
        <time>2020-08-30T11:46:14Z</time>
      </trkpt>
      <trkpt lat="39.775975" lon="-.372379">
        <ele>278.223</ele>
        <time>2020-08-30T11:46:15Z</time>
      </trkpt>
      <trkpt lat="39.775934" lon="-.372347">
        <ele>278.191</ele>
        <time>2020-08-30T11:46:16Z</time>
      </trkpt>
      <trkpt lat="39.775897" lon="-.372308">
        <ele>278.078</ele>
        <time>2020-08-30T11:46:17Z</time>
      </trkpt>
      <trkpt lat="39.77586" lon="-.372269">
        <ele>277.956</ele>
        <time>2020-08-30T11:46:18Z</time>
      </trkpt>
      <trkpt lat="39.775813" lon="-.372223">
        <ele>277.896</ele>
        <time>2020-08-30T11:46:19Z</time>
      </trkpt>
      <trkpt lat="39.775755" lon="-.372179">
        <ele>277.764</ele>
        <time>2020-08-30T11:46:20Z</time>
      </trkpt>
      <trkpt lat="39.775704" lon="-.372142">
        <ele>277.406</ele>
        <time>2020-08-30T11:46:21Z</time>
      </trkpt>
      <trkpt lat="39.775653" lon="-.372104">
        <ele>277.216</ele>
        <time>2020-08-30T11:46:22Z</time>
      </trkpt>
      <trkpt lat="39.775615" lon="-.372057">
        <ele>277.108</ele>
        <time>2020-08-30T11:46:23Z</time>
      </trkpt>
      <trkpt lat="39.775572" lon="-.372013">
        <ele>277.011</ele>
        <time>2020-08-30T11:46:24Z</time>
      </trkpt>
      <trkpt lat="39.775521" lon="-.371966">
        <ele>276.931</ele>
        <time>2020-08-30T11:46:25Z</time>
      </trkpt>
      <trkpt lat="39.775467" lon="-.371927">
        <ele>276.943</ele>
        <time>2020-08-30T11:46:26Z</time>
      </trkpt>
      <trkpt lat="39.775415" lon="-.371888">
        <ele>276.875</ele>
        <time>2020-08-30T11:46:27Z</time>
      </trkpt>
      <trkpt lat="39.77537" lon="-.371847">
        <ele>276.853</ele>
        <time>2020-08-30T11:46:28Z</time>
      </trkpt>
      <trkpt lat="39.775322" lon="-.371803">
        <ele>276.740</ele>
        <time>2020-08-30T11:46:29Z</time>
      </trkpt>
      <trkpt lat="39.775272" lon="-.371764">
        <ele>276.678</ele>
        <time>2020-08-30T11:46:30Z</time>
      </trkpt>
      <trkpt lat="39.775229" lon="-.37173">
        <ele>276.538</ele>
        <time>2020-08-30T11:46:31Z</time>
      </trkpt>
      <trkpt lat="39.775175" lon="-.371692">
        <ele>276.595</ele>
        <time>2020-08-30T11:46:32Z</time>
      </trkpt>
      <trkpt lat="39.775123" lon="-.371658">
        <ele>276.549</ele>
        <time>2020-08-30T11:46:33Z</time>
      </trkpt>
      <trkpt lat="39.775068" lon="-.371621">
        <ele>276.423</ele>
        <time>2020-08-30T11:46:34Z</time>
      </trkpt>
      <trkpt lat="39.775013" lon="-.37159">
        <ele>276.408</ele>
        <time>2020-08-30T11:46:35Z</time>
      </trkpt>
      <trkpt lat="39.774964" lon="-.371558">
        <ele>276.354</ele>
        <time>2020-08-30T11:46:36Z</time>
      </trkpt>
      <trkpt lat="39.774919" lon="-.371531">
        <ele>276.184</ele>
        <time>2020-08-30T11:46:37Z</time>
      </trkpt>
      <trkpt lat="39.774871" lon="-.3715">
        <ele>275.976</ele>
        <time>2020-08-30T11:46:38Z</time>
      </trkpt>
      <trkpt lat="39.774826" lon="-.371481">
        <ele>275.818</ele>
        <time>2020-08-30T11:46:39Z</time>
      </trkpt>
      <trkpt lat="39.774756" lon="-.371448">
        <ele>275.466</ele>
        <time>2020-08-30T11:46:41Z</time>
      </trkpt>
      <trkpt lat="39.774707" lon="-.371411">
        <ele>275.023</ele>
        <time>2020-08-30T11:46:42Z</time>
      </trkpt>
      <trkpt lat="39.77466" lon="-.371373">
        <ele>274.821</ele>
        <time>2020-08-30T11:46:43Z</time>
      </trkpt>
      <trkpt lat="39.774604" lon="-.371353">
        <ele>274.671</ele>
        <time>2020-08-30T11:46:44Z</time>
      </trkpt>
      <trkpt lat="39.77456" lon="-.371322">
        <ele>274.435</ele>
        <time>2020-08-30T11:46:45Z</time>
      </trkpt>
      <trkpt lat="39.774516" lon="-.371295">
        <ele>274.386</ele>
        <time>2020-08-30T11:46:46Z</time>
      </trkpt>
      <trkpt lat="39.774462" lon="-.371286">
        <ele>274.214</ele>
        <time>2020-08-30T11:46:47Z</time>
      </trkpt>
      <trkpt lat="39.774417" lon="-.37127">
        <ele>274.108</ele>
        <time>2020-08-30T11:46:48Z</time>
      </trkpt>
      <trkpt lat="39.77437" lon="-.371249">
        <ele>274.128</ele>
        <time>2020-08-30T11:46:49Z</time>
      </trkpt>
      <trkpt lat="39.774325" lon="-.37123">
        <ele>274.198</ele>
        <time>2020-08-30T11:46:50Z</time>
      </trkpt>
      <trkpt lat="39.774278" lon="-.371215">
        <ele>274.090</ele>
        <time>2020-08-30T11:46:51Z</time>
      </trkpt>
      <trkpt lat="39.774187" lon="-.371184">
        <ele>273.852</ele>
        <time>2020-08-30T11:46:53Z</time>
      </trkpt>
      <trkpt lat="39.774135" lon="-.371173">
        <ele>273.640</ele>
        <time>2020-08-30T11:46:54Z</time>
      </trkpt>
      <trkpt lat="39.774071" lon="-.37116">
        <ele>273.237</ele>
        <time>2020-08-30T11:46:56Z</time>
      </trkpt>
      <trkpt lat="39.773986" lon="-.371127">
        <ele>273.095</ele>
        <time>2020-08-30T11:46:58Z</time>
      </trkpt>
      <trkpt lat="39.773905" lon="-.371105">
        <ele>272.895</ele>
        <time>2020-08-30T11:47:00Z</time>
      </trkpt>
      <trkpt lat="39.77386" lon="-.371092">
        <ele>272.712</ele>
        <time>2020-08-30T11:47:01Z</time>
      </trkpt>
      <trkpt lat="39.773786" lon="-.371077">
        <ele>272.532</ele>
        <time>2020-08-30T11:47:02Z</time>
      </trkpt>
      <trkpt lat="39.773721" lon="-.371063">
        <ele>272.405</ele>
        <time>2020-08-30T11:47:03Z</time>
      </trkpt>
      <trkpt lat="39.77367" lon="-.371041">
        <ele>272.308</ele>
        <time>2020-08-30T11:47:04Z</time>
      </trkpt>
      <trkpt lat="39.773621" lon="-.371023">
        <ele>272.176</ele>
        <time>2020-08-30T11:47:05Z</time>
      </trkpt>
      <trkpt lat="39.773572" lon="-.371026">
        <ele>272.036</ele>
        <time>2020-08-30T11:47:06Z</time>
      </trkpt>
      <trkpt lat="39.773521" lon="-.37102">
        <ele>271.968</ele>
        <time>2020-08-30T11:47:07Z</time>
      </trkpt>
      <trkpt lat="39.773464" lon="-.371012">
        <ele>271.860</ele>
        <time>2020-08-30T11:47:08Z</time>
      </trkpt>
      <trkpt lat="39.773403" lon="-.371">
        <ele>271.728</ele>
        <time>2020-08-30T11:47:09Z</time>
      </trkpt>
      <trkpt lat="39.773337" lon="-.370969">
        <ele>271.655</ele>
        <time>2020-08-30T11:47:10Z</time>
      </trkpt>
      <trkpt lat="39.77327" lon="-.370962">
        <ele>271.573</ele>
        <time>2020-08-30T11:47:11Z</time>
      </trkpt>
      <trkpt lat="39.773207" lon="-.370947">
        <ele>271.443</ele>
        <time>2020-08-30T11:47:12Z</time>
      </trkpt>
      <trkpt lat="39.773159" lon="-.370942">
        <ele>271.321</ele>
        <time>2020-08-30T11:47:13Z</time>
      </trkpt>
      <trkpt lat="39.773098" lon="-.370933">
        <ele>271.241</ele>
        <time>2020-08-30T11:47:14Z</time>
      </trkpt>
      <trkpt lat="39.773043" lon="-.370913">
        <ele>271.105</ele>
        <time>2020-08-30T11:47:15Z</time>
      </trkpt>
      <trkpt lat="39.772984" lon="-.37091">
        <ele>271.008</ele>
        <time>2020-08-30T11:47:16Z</time>
      </trkpt>
      <trkpt lat="39.772927" lon="-.370895">
        <ele>270.987</ele>
        <time>2020-08-30T11:47:17Z</time>
      </trkpt>
      <trkpt lat="39.772868" lon="-.37087">
        <ele>270.837</ele>
        <time>2020-08-30T11:47:18Z</time>
      </trkpt>
      <trkpt lat="39.772806" lon="-.370848">
        <ele>270.749</ele>
        <time>2020-08-30T11:47:19Z</time>
      </trkpt>
      <trkpt lat="39.772748" lon="-.370831">
        <ele>270.661</ele>
        <time>2020-08-30T11:47:20Z</time>
      </trkpt>
      <trkpt lat="39.772687" lon="-.370818">
        <ele>270.619</ele>
        <time>2020-08-30T11:47:21Z</time>
      </trkpt>
      <trkpt lat="39.772619" lon="-.370798">
        <ele>270.686</ele>
        <time>2020-08-30T11:47:22Z</time>
      </trkpt>
      <trkpt lat="39.772559" lon="-.370778">
        <ele>270.524</ele>
        <time>2020-08-30T11:47:23Z</time>
      </trkpt>
      <trkpt lat="39.772502" lon="-.370765">
        <ele>270.494</ele>
        <time>2020-08-30T11:47:24Z</time>
      </trkpt>
      <trkpt lat="39.772451" lon="-.370749">
        <ele>270.283</ele>
        <time>2020-08-30T11:47:25Z</time>
      </trkpt>
      <trkpt lat="39.772406" lon="-.370734">
        <ele>270.125</ele>
        <time>2020-08-30T11:47:26Z</time>
      </trkpt>
      <trkpt lat="39.772352" lon="-.370708">
        <ele>269.917</ele>
        <time>2020-08-30T11:47:27Z</time>
      </trkpt>
      <trkpt lat="39.772293" lon="-.37069">
        <ele>269.708</ele>
        <time>2020-08-30T11:47:28Z</time>
      </trkpt>
      <trkpt lat="39.772233" lon="-.370671">
        <ele>269.563</ele>
        <time>2020-08-30T11:47:29Z</time>
      </trkpt>
      <trkpt lat="39.772173" lon="-.370654">
        <ele>269.463</ele>
        <time>2020-08-30T11:47:30Z</time>
      </trkpt>
      <trkpt lat="39.772107" lon="-.370638">
        <ele>269.345</ele>
        <time>2020-08-30T11:47:31Z</time>
      </trkpt>
      <trkpt lat="39.772052" lon="-.370628">
        <ele>269.217</ele>
        <time>2020-08-30T11:47:32Z</time>
      </trkpt>
      <trkpt lat="39.771999" lon="-.370619">
        <ele>269.025</ele>
        <time>2020-08-30T11:47:33Z</time>
      </trkpt>
      <trkpt lat="39.771949" lon="-.370606">
        <ele>268.922</ele>
        <time>2020-08-30T11:47:34Z</time>
      </trkpt>
      <trkpt lat="39.771898" lon="-.370597">
        <ele>268.780</ele>
        <time>2020-08-30T11:47:35Z</time>
      </trkpt>
      <trkpt lat="39.771841" lon="-.370593">
        <ele>268.540</ele>
        <time>2020-08-30T11:47:36Z</time>
      </trkpt>
      <trkpt lat="39.771789" lon="-.370584">
        <ele>268.471</ele>
        <time>2020-08-30T11:47:37Z</time>
      </trkpt>
      <trkpt lat="39.771735" lon="-.370579">
        <ele>268.441</ele>
        <time>2020-08-30T11:47:38Z</time>
      </trkpt>
      <trkpt lat="39.77168" lon="-.370565">
        <ele>268.315</ele>
        <time>2020-08-30T11:47:39Z</time>
      </trkpt>
      <trkpt lat="39.771623" lon="-.37056">
        <ele>268.208</ele>
        <time>2020-08-30T11:47:40Z</time>
      </trkpt>
      <trkpt lat="39.771564" lon="-.370561">
        <ele>268.232</ele>
        <time>2020-08-30T11:47:41Z</time>
      </trkpt>
      <trkpt lat="39.771507" lon="-.370563">
        <ele>268.222</ele>
        <time>2020-08-30T11:47:42Z</time>
      </trkpt>
      <trkpt lat="39.77145" lon="-.370558">
        <ele>267.974</ele>
        <time>2020-08-30T11:47:43Z</time>
      </trkpt>
      <trkpt lat="39.77139" lon="-.370561">
        <ele>267.746</ele>
        <time>2020-08-30T11:47:44Z</time>
      </trkpt>
      <trkpt lat="39.771335" lon="-.370561">
        <ele>267.514</ele>
        <time>2020-08-30T11:47:45Z</time>
      </trkpt>
      <trkpt lat="39.771278" lon="-.370564">
        <ele>267.321</ele>
        <time>2020-08-30T11:47:46Z</time>
      </trkpt>
      <trkpt lat="39.771223" lon="-.370571">
        <ele>267.289</ele>
        <time>2020-08-30T11:47:47Z</time>
      </trkpt>
      <trkpt lat="39.771168" lon="-.370579">
        <ele>267.119</ele>
        <time>2020-08-30T11:47:48Z</time>
      </trkpt>
      <trkpt lat="39.771119" lon="-.37059">
        <ele>267.012</ele>
        <time>2020-08-30T11:47:49Z</time>
      </trkpt>
      <trkpt lat="39.771062" lon="-.370606">
        <ele>266.932</ele>
        <time>2020-08-30T11:47:50Z</time>
      </trkpt>
      <trkpt lat="39.771016" lon="-.370621">
        <ele>266.805</ele>
        <time>2020-08-30T11:47:51Z</time>
      </trkpt>
      <trkpt lat="39.77096" lon="-.370632">
        <ele>266.708</ele>
        <time>2020-08-30T11:47:52Z</time>
      </trkpt>
      <trkpt lat="39.770908" lon="-.370648">
        <ele>266.716</ele>
        <time>2020-08-30T11:47:53Z</time>
      </trkpt>
      <trkpt lat="39.770853" lon="-.370662">
        <ele>266.676</ele>
        <time>2020-08-30T11:47:54Z</time>
      </trkpt>
      <trkpt lat="39.770799" lon="-.370681">
        <ele>266.538</ele>
        <time>2020-08-30T11:47:55Z</time>
      </trkpt>
      <trkpt lat="39.770744" lon="-.370698">
        <ele>266.480</ele>
        <time>2020-08-30T11:47:56Z</time>
      </trkpt>
      <trkpt lat="39.770693" lon="-.370714">
        <ele>266.368</ele>
        <time>2020-08-30T11:47:57Z</time>
      </trkpt>
      <trkpt lat="39.770641" lon="-.370731">
        <ele>266.285</ele>
        <time>2020-08-30T11:47:58Z</time>
      </trkpt>
      <trkpt lat="39.770582" lon="-.370749">
        <ele>266.063</ele>
        <time>2020-08-30T11:47:59Z</time>
      </trkpt>
      <trkpt lat="39.770521" lon="-.370769">
        <ele>265.923</ele>
        <time>2020-08-30T11:48:00Z</time>
      </trkpt>
      <trkpt lat="39.770462" lon="-.370783">
        <ele>265.754</ele>
        <time>2020-08-30T11:48:01Z</time>
      </trkpt>
      <trkpt lat="39.770408" lon="-.370795">
        <ele>265.656</ele>
        <time>2020-08-30T11:48:02Z</time>
      </trkpt>
      <trkpt lat="39.770352" lon="-.37081">
        <ele>265.411</ele>
        <time>2020-08-30T11:48:03Z</time>
      </trkpt>
      <trkpt lat="39.770298" lon="-.370827">
        <ele>265.408</ele>
        <time>2020-08-30T11:48:04Z</time>
      </trkpt>
      <trkpt lat="39.770246" lon="-.370842">
        <ele>265.430</ele>
        <time>2020-08-30T11:48:05Z</time>
      </trkpt>
      <trkpt lat="39.770193" lon="-.370861">
        <ele>265.490</ele>
        <time>2020-08-30T11:48:06Z</time>
      </trkpt>
      <trkpt lat="39.770144" lon="-.370877">
        <ele>265.482</ele>
        <time>2020-08-30T11:48:07Z</time>
      </trkpt>
      <trkpt lat="39.770096" lon="-.370889">
        <ele>265.334</ele>
        <time>2020-08-30T11:48:08Z</time>
      </trkpt>
      <trkpt lat="39.77005" lon="-.370906">
        <ele>265.252</ele>
        <time>2020-08-30T11:48:09Z</time>
      </trkpt>
      <trkpt lat="39.769999" lon="-.37092">
        <ele>265.179</ele>
        <time>2020-08-30T11:48:10Z</time>
      </trkpt>
      <trkpt lat="39.769949" lon="-.370931">
        <ele>265.077</ele>
        <time>2020-08-30T11:48:11Z</time>
      </trkpt>
      <trkpt lat="39.769901" lon="-.370948">
        <ele>264.987</ele>
        <time>2020-08-30T11:48:12Z</time>
      </trkpt>
      <trkpt lat="39.769854" lon="-.370963">
        <ele>264.955</ele>
        <time>2020-08-30T11:48:13Z</time>
      </trkpt>
      <trkpt lat="39.769802" lon="-.370977">
        <ele>264.907</ele>
        <time>2020-08-30T11:48:14Z</time>
      </trkpt>
      <trkpt lat="39.769751" lon="-.370997">
        <ele>264.917</ele>
        <time>2020-08-30T11:48:15Z</time>
      </trkpt>
      <trkpt lat="39.769698" lon="-.371013">
        <ele>264.908</ele>
        <time>2020-08-30T11:48:16Z</time>
      </trkpt>
      <trkpt lat="39.769648" lon="-.371031">
        <ele>264.920</ele>
        <time>2020-08-30T11:48:17Z</time>
      </trkpt>
      <trkpt lat="39.769593" lon="-.371047">
        <ele>264.810</ele>
        <time>2020-08-30T11:48:18Z</time>
      </trkpt>
      <trkpt lat="39.769536" lon="-.371062">
        <ele>264.712</ele>
        <time>2020-08-30T11:48:19Z</time>
      </trkpt>
      <trkpt lat="39.769491" lon="-.371076">
        <ele>264.624</ele>
        <time>2020-08-30T11:48:20Z</time>
      </trkpt>
      <trkpt lat="39.769447" lon="-.371093">
        <ele>264.542</ele>
        <time>2020-08-30T11:48:21Z</time>
      </trkpt>
      <trkpt lat="39.769402" lon="-.371107">
        <ele>264.429</ele>
        <time>2020-08-30T11:48:22Z</time>
      </trkpt>
      <trkpt lat="39.769354" lon="-.371118">
        <ele>264.377</ele>
        <time>2020-08-30T11:48:23Z</time>
      </trkpt>
      <trkpt lat="39.769303" lon="-.371132">
        <ele>264.117</ele>
        <time>2020-08-30T11:48:24Z</time>
      </trkpt>
      <trkpt lat="39.769252" lon="-.371151">
        <ele>264.036</ele>
        <time>2020-08-30T11:48:25Z</time>
      </trkpt>
      <trkpt lat="39.769198" lon="-.371166">
        <ele>263.917</ele>
        <time>2020-08-30T11:48:26Z</time>
      </trkpt>
      <trkpt lat="39.769151" lon="-.371185">
        <ele>263.918</ele>
        <time>2020-08-30T11:48:27Z</time>
      </trkpt>
      <trkpt lat="39.769099" lon="-.371201">
        <ele>263.908</ele>
        <time>2020-08-30T11:48:28Z</time>
      </trkpt>
      <trkpt lat="39.76905" lon="-.371209">
        <ele>263.938</ele>
        <time>2020-08-30T11:48:29Z</time>
      </trkpt>
      <trkpt lat="39.769003" lon="-.371224">
        <ele>263.978</ele>
        <time>2020-08-30T11:48:30Z</time>
      </trkpt>
      <trkpt lat="39.768954" lon="-.371236">
        <ele>263.940</ele>
        <time>2020-08-30T11:48:31Z</time>
      </trkpt>
      <trkpt lat="39.768906" lon="-.371242">
        <ele>263.872</ele>
        <time>2020-08-30T11:48:32Z</time>
      </trkpt>
      <trkpt lat="39.768853" lon="-.37125">
        <ele>263.710</ele>
        <time>2020-08-30T11:48:33Z</time>
      </trkpt>
      <trkpt lat="39.768799" lon="-.371256">
        <ele>263.767</ele>
        <time>2020-08-30T11:48:34Z</time>
      </trkpt>
      <trkpt lat="39.76875" lon="-.371267">
        <ele>263.795</ele>
        <time>2020-08-30T11:48:35Z</time>
      </trkpt>
      <trkpt lat="39.768702" lon="-.371275">
        <ele>263.785</ele>
        <time>2020-08-30T11:48:36Z</time>
      </trkpt>
      <trkpt lat="39.768607" lon="-.37128">
        <ele>263.761</ele>
        <time>2020-08-30T11:48:38Z</time>
      </trkpt>
      <trkpt lat="39.768551" lon="-.371281">
        <ele>263.721</ele>
        <time>2020-08-30T11:48:39Z</time>
      </trkpt>
      <trkpt lat="39.768496" lon="-.371276">
        <ele>263.713</ele>
        <time>2020-08-30T11:48:40Z</time>
      </trkpt>
      <trkpt lat="39.768447" lon="-.371271">
        <ele>263.708</ele>
        <time>2020-08-30T11:48:41Z</time>
      </trkpt>
      <trkpt lat="39.768393" lon="-.371266">
        <ele>263.781</ele>
        <time>2020-08-30T11:48:42Z</time>
      </trkpt>
      <trkpt lat="39.768304" lon="-.371238">
        <ele>263.981</ele>
        <time>2020-08-30T11:48:44Z</time>
      </trkpt>
      <trkpt lat="39.768257" lon="-.371223">
        <ele>264.053</ele>
        <time>2020-08-30T11:48:45Z</time>
      </trkpt>
      <trkpt lat="39.768209" lon="-.371212">
        <ele>264.195</ele>
        <time>2020-08-30T11:48:46Z</time>
      </trkpt>
      <trkpt lat="39.768157" lon="-.371196">
        <ele>264.273</ele>
        <time>2020-08-30T11:48:47Z</time>
      </trkpt>
      <trkpt lat="39.768109" lon="-.371182">
        <ele>264.220</ele>
        <time>2020-08-30T11:48:48Z</time>
      </trkpt>
      <trkpt lat="39.768062" lon="-.371162">
        <ele>264.288</ele>
        <time>2020-08-30T11:48:49Z</time>
      </trkpt>
      <trkpt lat="39.767978" lon="-.37112">
        <ele>264.218</ele>
        <time>2020-08-30T11:48:51Z</time>
      </trkpt>
      <trkpt lat="39.767899" lon="-.371076">
        <ele>264.415</ele>
        <time>2020-08-30T11:48:53Z</time>
      </trkpt>
      <trkpt lat="39.767857" lon="-.371048">
        <ele>264.465</ele>
        <time>2020-08-30T11:48:54Z</time>
      </trkpt>
      <trkpt lat="39.767774" lon="-.371003">
        <ele>264.311</ele>
        <time>2020-08-30T11:48:56Z</time>
      </trkpt>
      <trkpt lat="39.76769" lon="-.370941">
        <ele>264.208</ele>
        <time>2020-08-30T11:48:58Z</time>
      </trkpt>
      <trkpt lat="39.767649" lon="-.370901">
        <ele>264.236</ele>
        <time>2020-08-30T11:48:59Z</time>
      </trkpt>
      <trkpt lat="39.767576" lon="-.370832">
        <ele>264.616</ele>
        <time>2020-08-30T11:49:01Z</time>
      </trkpt>
      <trkpt lat="39.767537" lon="-.370797">
        <ele>264.898</ele>
        <time>2020-08-30T11:49:02Z</time>
      </trkpt>
      <trkpt lat="39.767501" lon="-.370758">
        <ele>264.930</ele>
        <time>2020-08-30T11:49:03Z</time>
      </trkpt>
      <trkpt lat="39.767436" lon="-.370678">
        <ele>264.618</ele>
        <time>2020-08-30T11:49:05Z</time>
      </trkpt>
      <trkpt lat="39.7674" lon="-.370639">
        <ele>264.515</ele>
        <time>2020-08-30T11:49:06Z</time>
      </trkpt>
      <trkpt lat="39.76733" lon="-.370564">
        <ele>264.433</ele>
        <time>2020-08-30T11:49:08Z</time>
      </trkpt>
      <trkpt lat="39.767298" lon="-.370517">
        <ele>264.453</ele>
        <time>2020-08-30T11:49:09Z</time>
      </trkpt>
      <trkpt lat="39.767264" lon="-.370473">
        <ele>264.497</ele>
        <time>2020-08-30T11:49:10Z</time>
      </trkpt>
      <trkpt lat="39.767232" lon="-.370423">
        <ele>264.523</ele>
        <time>2020-08-30T11:49:11Z</time>
      </trkpt>
      <trkpt lat="39.767171" lon="-.370331">
        <ele>264.525</ele>
        <time>2020-08-30T11:49:13Z</time>
      </trkpt>
      <trkpt lat="39.767112" lon="-.370245">
        <ele>264.408</ele>
        <time>2020-08-30T11:49:15Z</time>
      </trkpt>
      <trkpt lat="39.767061" lon="-.370156">
        <ele>264.394</ele>
        <time>2020-08-30T11:49:17Z</time>
      </trkpt>
      <trkpt lat="39.767031" lon="-.370112">
        <ele>264.364</ele>
        <time>2020-08-30T11:49:18Z</time>
      </trkpt>
      <trkpt lat="39.766986" lon="-.370035">
        <ele>264.436</ele>
        <time>2020-08-30T11:49:20Z</time>
      </trkpt>
      <trkpt lat="39.766944" lon="-.369944">
        <ele>264.438</ele>
        <time>2020-08-30T11:49:22Z</time>
      </trkpt>
      <trkpt lat="39.766887" lon="-.369867">
        <ele>264.436</ele>
        <time>2020-08-30T11:49:24Z</time>
      </trkpt>
      <trkpt lat="39.76685" lon="-.369825">
        <ele>264.443</ele>
        <time>2020-08-30T11:49:25Z</time>
      </trkpt>
      <trkpt lat="39.766818" lon="-.369776">
        <ele>264.491</ele>
        <time>2020-08-30T11:49:26Z</time>
      </trkpt>
      <trkpt lat="39.766762" lon="-.369698">
        <ele>264.381</ele>
        <time>2020-08-30T11:49:28Z</time>
      </trkpt>
      <trkpt lat="39.76673" lon="-.369649">
        <ele>264.311</ele>
        <time>2020-08-30T11:49:29Z</time>
      </trkpt>
      <trkpt lat="39.766675" lon="-.369563">
        <ele>264.321</ele>
        <time>2020-08-30T11:49:31Z</time>
      </trkpt>
      <trkpt lat="39.766616" lon="-.369474">
        <ele>264.403</ele>
        <time>2020-08-30T11:49:33Z</time>
      </trkpt>
      <trkpt lat="39.76658" lon="-.369426">
        <ele>264.408</ele>
        <time>2020-08-30T11:49:34Z</time>
      </trkpt>
      <trkpt lat="39.766547" lon="-.36938">
        <ele>264.486</ele>
        <time>2020-08-30T11:49:35Z</time>
      </trkpt>
      <trkpt lat="39.766493" lon="-.369294">
        <ele>264.536</ele>
        <time>2020-08-30T11:49:37Z</time>
      </trkpt>
      <trkpt lat="39.766463" lon="-.369247">
        <ele>264.588</ele>
        <time>2020-08-30T11:49:38Z</time>
      </trkpt>
      <trkpt lat="39.766426" lon="-.369197">
        <ele>264.560</ele>
        <time>2020-08-30T11:49:39Z</time>
      </trkpt>
      <trkpt lat="39.766394" lon="-.369154">
        <ele>264.578</ele>
        <time>2020-08-30T11:49:40Z</time>
      </trkpt>
      <trkpt lat="39.766337" lon="-.369069">
        <ele>264.625</ele>
        <time>2020-08-30T11:49:42Z</time>
      </trkpt>
      <trkpt lat="39.766303" lon="-.369017">
        <ele>264.783</ele>
        <time>2020-08-30T11:49:43Z</time>
      </trkpt>
      <trkpt lat="39.766273" lon="-.368971">
        <ele>264.853</ele>
        <time>2020-08-30T11:49:44Z</time>
      </trkpt>
      <trkpt lat="39.766245" lon="-.368925">
        <ele>264.982</ele>
        <time>2020-08-30T11:49:45Z</time>
      </trkpt>
      <trkpt lat="39.766217" lon="-.368876">
        <ele>264.943</ele>
        <time>2020-08-30T11:49:46Z</time>
      </trkpt>
      <trkpt lat="39.766157" lon="-.368791">
        <ele>265.017</ele>
        <time>2020-08-30T11:49:48Z</time>
      </trkpt>
      <trkpt lat="39.766123" lon="-.368753">
        <ele>265.008</ele>
        <time>2020-08-30T11:49:49Z</time>
      </trkpt>
      <trkpt lat="39.766091" lon="-.368705">
        <ele>265.033</ele>
        <time>2020-08-30T11:49:50Z</time>
      </trkpt>
      <trkpt lat="39.766059" lon="-.368659">
        <ele>265.023</ele>
        <time>2020-08-30T11:49:51Z</time>
      </trkpt>
      <trkpt lat="39.76601" lon="-.368585">
        <ele>265.065</ele>
        <time>2020-08-30T11:49:53Z</time>
      </trkpt>
      <trkpt lat="39.765944" lon="-.368497">
        <ele>265.097</ele>
        <time>2020-08-30T11:49:55Z</time>
      </trkpt>
      <trkpt lat="39.76591" lon="-.368448">
        <ele>265.095</ele>
        <time>2020-08-30T11:49:56Z</time>
      </trkpt>
      <trkpt lat="39.765853" lon="-.368364">
        <ele>265.022</ele>
        <time>2020-08-30T11:49:58Z</time>
      </trkpt>
      <trkpt lat="39.765824" lon="-.368317">
        <ele>265.030</ele>
        <time>2020-08-30T11:49:59Z</time>
      </trkpt>
      <trkpt lat="39.765802" lon="-.368266">
        <ele>265.170</ele>
        <time>2020-08-30T11:50:00Z</time>
      </trkpt>
      <trkpt lat="39.765776" lon="-.368214">
        <ele>265.245</ele>
        <time>2020-08-30T11:50:01Z</time>
      </trkpt>
      <trkpt lat="39.765719" lon="-.368131">
        <ele>265.247</ele>
        <time>2020-08-30T11:50:03Z</time>
      </trkpt>
      <trkpt lat="39.765674" lon="-.368036">
        <ele>265.211</ele>
        <time>2020-08-30T11:50:05Z</time>
      </trkpt>
      <trkpt lat="39.765646" lon="-.367987">
        <ele>265.208</ele>
        <time>2020-08-30T11:50:06Z</time>
      </trkpt>
      <trkpt lat="39.765603" lon="-.367953">
        <ele>265.269</ele>
        <time>2020-08-30T11:50:07Z</time>
      </trkpt>
      <trkpt lat="39.765556" lon="-.367916">
        <ele>265.229</ele>
        <time>2020-08-30T11:50:08Z</time>
      </trkpt>
      <trkpt lat="39.765517" lon="-.367852">
        <ele>265.321</ele>
        <time>2020-08-30T11:50:10Z</time>
      </trkpt>
      <trkpt lat="39.765463" lon="-.367816">
        <ele>265.463</ele>
        <time>2020-08-30T11:50:11Z</time>
      </trkpt>
      <trkpt lat="39.765435" lon="-.367768">
        <ele>265.451</ele>
        <time>2020-08-30T11:50:12Z</time>
      </trkpt>
      <trkpt lat="39.765406" lon="-.367715">
        <ele>265.438</ele>
        <time>2020-08-30T11:50:13Z</time>
      </trkpt>
      <trkpt lat="39.765382" lon="-.367657">
        <ele>265.456</ele>
        <time>2020-08-30T11:50:14Z</time>
      </trkpt>
      <trkpt lat="39.765337" lon="-.367626">
        <ele>265.466</ele>
        <time>2020-08-30T11:50:15Z</time>
      </trkpt>
      <trkpt lat="39.765291" lon="-.367589">
        <ele>265.417</ele>
        <time>2020-08-30T11:50:16Z</time>
      </trkpt>
      <trkpt lat="39.765249" lon="-.367494">
        <ele>265.587</ele>
        <time>2020-08-30T11:50:18Z</time>
      </trkpt>
      <trkpt lat="39.765192" lon="-.36741">
        <ele>265.615</ele>
        <time>2020-08-30T11:50:20Z</time>
      </trkpt>
      <trkpt lat="39.765133" lon="-.367322">
        <ele>265.608</ele>
        <time>2020-08-30T11:50:22Z</time>
      </trkpt>
      <trkpt lat="39.765071" lon="-.367224">
        <ele>265.686</ele>
        <time>2020-08-30T11:50:24Z</time>
      </trkpt>
      <trkpt lat="39.765035" lon="-.367177">
        <ele>265.646</ele>
        <time>2020-08-30T11:50:25Z</time>
      </trkpt>
      <trkpt lat="39.765004" lon="-.367132">
        <ele>265.688</ele>
        <time>2020-08-30T11:50:26Z</time>
      </trkpt>
      <trkpt lat="39.764957" lon="-.367048">
        <ele>265.770</ele>
        <time>2020-08-30T11:50:28Z</time>
      </trkpt>
      <trkpt lat="39.764891" lon="-.366969">
        <ele>265.868</ele>
        <time>2020-08-30T11:50:30Z</time>
      </trkpt>
      <trkpt lat="39.764828" lon="-.366886">
        <ele>265.945</ele>
        <time>2020-08-30T11:50:32Z</time>
      </trkpt>
      <trkpt lat="39.764764" lon="-.366814">
        <ele>265.953</ele>
        <time>2020-08-30T11:50:34Z</time>
      </trkpt>
      <trkpt lat="39.764698" lon="-.366743">
        <ele>265.923</ele>
        <time>2020-08-30T11:50:36Z</time>
      </trkpt>
      <trkpt lat="39.764641" lon="-.366668">
        <ele>265.968</ele>
        <time>2020-08-30T11:50:38Z</time>
      </trkpt>
      <trkpt lat="39.764575" lon="-.366601">
        <ele>266.042</ele>
        <time>2020-08-30T11:50:40Z</time>
      </trkpt>
      <trkpt lat="39.764538" lon="-.366561">
        <ele>266.026</ele>
        <time>2020-08-30T11:50:41Z</time>
      </trkpt>
      <trkpt lat="39.764503" lon="-.366525">
        <ele>266.008</ele>
        <time>2020-08-30T11:50:42Z</time>
      </trkpt>
      <trkpt lat="39.764433" lon="-.366467">
        <ele>266.051</ele>
        <time>2020-08-30T11:50:44Z</time>
      </trkpt>
      <trkpt lat="39.764361" lon="-.366417">
        <ele>266.161</ele>
        <time>2020-08-30T11:50:46Z</time>
      </trkpt>
      <trkpt lat="39.764307" lon="-.366362">
        <ele>266.313</ele>
        <time>2020-08-30T11:50:48Z</time>
      </trkpt>
      <trkpt lat="39.764228" lon="-.366303">
        <ele>266.355</ele>
        <time>2020-08-30T11:50:50Z</time>
      </trkpt>
      <trkpt lat="39.764187" lon="-.366274">
        <ele>266.373</ele>
        <time>2020-08-30T11:50:51Z</time>
      </trkpt>
      <trkpt lat="39.764143" lon="-.36624">
        <ele>266.340</ele>
        <time>2020-08-30T11:50:52Z</time>
      </trkpt>
      <trkpt lat="39.764102" lon="-.366205">
        <ele>266.368</ele>
        <time>2020-08-30T11:50:53Z</time>
      </trkpt>
      <trkpt lat="39.764058" lon="-.366173">
        <ele>266.468</ele>
        <time>2020-08-30T11:50:54Z</time>
      </trkpt>
      <trkpt lat="39.763978" lon="-.366129">
        <ele>266.571</ele>
        <time>2020-08-30T11:50:56Z</time>
      </trkpt>
      <trkpt lat="39.763895" lon="-.366072">
        <ele>266.541</ele>
        <time>2020-08-30T11:50:58Z</time>
      </trkpt>
      <trkpt lat="39.763852" lon="-.366051">
        <ele>266.515</ele>
        <time>2020-08-30T11:50:59Z</time>
      </trkpt>
      <trkpt lat="39.763808" lon="-.366026">
        <ele>266.508</ele>
        <time>2020-08-30T11:51:00Z</time>
      </trkpt>
      <trkpt lat="39.763727" lon="-.365973">
        <ele>266.662</ele>
        <time>2020-08-30T11:51:02Z</time>
      </trkpt>
      <trkpt lat="39.76368" lon="-.365952">
        <ele>266.792</ele>
        <time>2020-08-30T11:51:03Z</time>
      </trkpt>
      <trkpt lat="39.763637" lon="-.365928">
        <ele>266.834</ele>
        <time>2020-08-30T11:51:04Z</time>
      </trkpt>
      <trkpt lat="39.76359" lon="-.365907">
        <ele>266.946</ele>
        <time>2020-08-30T11:51:05Z</time>
      </trkpt>
      <trkpt lat="39.763546" lon="-.365885">
        <ele>266.924</ele>
        <time>2020-08-30T11:51:06Z</time>
      </trkpt>
      <trkpt lat="39.763456" lon="-.365865">
        <ele>267.051</ele>
        <time>2020-08-30T11:51:08Z</time>
      </trkpt>
      <trkpt lat="39.763372" lon="-.365828">
        <ele>267.169</ele>
        <time>2020-08-30T11:51:10Z</time>
      </trkpt>
      <trkpt lat="39.763294" lon="-.365795">
        <ele>267.149</ele>
        <time>2020-08-30T11:51:12Z</time>
      </trkpt>
      <trkpt lat="39.763207" lon="-.36577">
        <ele>267.176</ele>
        <time>2020-08-30T11:51:14Z</time>
      </trkpt>
      <trkpt lat="39.763118" lon="-.365745">
        <ele>267.290</ele>
        <time>2020-08-30T11:51:16Z</time>
      </trkpt>
      <trkpt lat="39.76303" lon="-.365726">
        <ele>267.319</ele>
        <time>2020-08-30T11:51:18Z</time>
      </trkpt>
      <trkpt lat="39.762985" lon="-.365708">
        <ele>267.308</ele>
        <time>2020-08-30T11:51:19Z</time>
      </trkpt>
      <trkpt lat="39.762894" lon="-.365688">
        <ele>267.382</ele>
        <time>2020-08-30T11:51:21Z</time>
      </trkpt>
      <trkpt lat="39.762848" lon="-.365684">
        <ele>267.382</ele>
        <time>2020-08-30T11:51:22Z</time>
      </trkpt>
      <trkpt lat="39.762771" lon="-.365659">
        <ele>267.474</ele>
        <time>2020-08-30T11:51:24Z</time>
      </trkpt>
      <trkpt lat="39.762726" lon="-.365649">
        <ele>267.546</ele>
        <time>2020-08-30T11:51:25Z</time>
      </trkpt>
      <trkpt lat="39.76264" lon="-.365634">
        <ele>267.644</ele>
        <time>2020-08-30T11:51:27Z</time>
      </trkpt>
      <trkpt lat="39.762553" lon="-.365623">
        <ele>267.661</ele>
        <time>2020-08-30T11:51:29Z</time>
      </trkpt>
      <trkpt lat="39.762504" lon="-.365613">
        <ele>267.699</ele>
        <time>2020-08-30T11:51:30Z</time>
      </trkpt>
      <trkpt lat="39.762459" lon="-.365599">
        <ele>267.739</ele>
        <time>2020-08-30T11:51:31Z</time>
      </trkpt>
      <trkpt lat="39.762369" lon="-.365582">
        <ele>267.772</ele>
        <time>2020-08-30T11:51:33Z</time>
      </trkpt>
      <trkpt lat="39.762322" lon="-.36557">
        <ele>267.713</ele>
        <time>2020-08-30T11:51:34Z</time>
      </trkpt>
      <trkpt lat="39.762271" lon="-.36556">
        <ele>267.714</ele>
        <time>2020-08-30T11:51:35Z</time>
      </trkpt>
      <trkpt lat="39.762219" lon="-.365547">
        <ele>267.708</ele>
        <time>2020-08-30T11:51:36Z</time>
      </trkpt>
      <trkpt lat="39.762173" lon="-.365538">
        <ele>267.712</ele>
        <time>2020-08-30T11:51:37Z</time>
      </trkpt>
      <trkpt lat="39.762084" lon="-.365512">
        <ele>267.762</ele>
        <time>2020-08-30T11:51:39Z</time>
      </trkpt>
      <trkpt lat="39.762012" lon="-.365497">
        <ele>267.754</ele>
        <time>2020-08-30T11:51:41Z</time>
      </trkpt>
      <trkpt lat="39.761965" lon="-.365485">
        <ele>267.786</ele>
        <time>2020-08-30T11:51:42Z</time>
      </trkpt>
      <trkpt lat="39.761917" lon="-.365484">
        <ele>267.754</ele>
        <time>2020-08-30T11:51:43Z</time>
      </trkpt>
      <trkpt lat="39.761868" lon="-.365473">
        <ele>267.771</ele>
        <time>2020-08-30T11:51:44Z</time>
      </trkpt>
      <trkpt lat="39.761776" lon="-.365454">
        <ele>267.879</ele>
        <time>2020-08-30T11:51:46Z</time>
      </trkpt>
      <trkpt lat="39.761702" lon="-.365446">
        <ele>267.889</ele>
        <time>2020-08-30T11:51:48Z</time>
      </trkpt>
      <trkpt lat="39.761622" lon="-.365418">
        <ele>267.845</ele>
        <time>2020-08-30T11:51:50Z</time>
      </trkpt>
      <trkpt lat="39.761577" lon="-.365409">
        <ele>267.947</ele>
        <time>2020-08-30T11:51:51Z</time>
      </trkpt>
      <trkpt lat="39.76153" lon="-.365395">
        <ele>267.911</ele>
        <time>2020-08-30T11:51:52Z</time>
      </trkpt>
      <trkpt lat="39.761443" lon="-.365379">
        <ele>268.108</ele>
        <time>2020-08-30T11:51:54Z</time>
      </trkpt>
      <trkpt lat="39.761393" lon="-.365373">
        <ele>268.319</ele>
        <time>2020-08-30T11:51:55Z</time>
      </trkpt>
      <trkpt lat="39.761345" lon="-.365358">
        <ele>268.499</ele>
        <time>2020-08-30T11:51:56Z</time>
      </trkpt>
      <trkpt lat="39.761298" lon="-.365345">
        <ele>268.431</ele>
        <time>2020-08-30T11:51:57Z</time>
      </trkpt>
      <trkpt lat="39.761206" lon="-.365323">
        <ele>268.413</ele>
        <time>2020-08-30T11:51:59Z</time>
      </trkpt>
      <trkpt lat="39.761161" lon="-.365313">
        <ele>268.411</ele>
        <time>2020-08-30T11:52:00Z</time>
      </trkpt>
      <trkpt lat="39.761115" lon="-.365299">
        <ele>268.398</ele>
        <time>2020-08-30T11:52:01Z</time>
      </trkpt>
      <trkpt lat="39.76107" lon="-.365292">
        <ele>268.286</ele>
        <time>2020-08-30T11:52:02Z</time>
      </trkpt>
      <trkpt lat="39.760987" lon="-.365276">
        <ele>268.126</ele>
        <time>2020-08-30T11:52:04Z</time>
      </trkpt>
      <trkpt lat="39.760941" lon="-.365259">
        <ele>268.075</ele>
        <time>2020-08-30T11:52:05Z</time>
      </trkpt>
      <trkpt lat="39.760896" lon="-.365244">
        <ele>268.028</ele>
        <time>2020-08-30T11:52:06Z</time>
      </trkpt>
      <trkpt lat="39.76085" lon="-.36523">
        <ele>268.020</ele>
        <time>2020-08-30T11:52:07Z</time>
      </trkpt>
      <trkpt lat="39.760801" lon="-.365223">
        <ele>268.008</ele>
        <time>2020-08-30T11:52:08Z</time>
      </trkpt>
      <trkpt lat="39.760753" lon="-.365217">
        <ele>268.052</ele>
        <time>2020-08-30T11:52:09Z</time>
      </trkpt>
      <trkpt lat="39.760706" lon="-.365209">
        <ele>268.012</ele>
        <time>2020-08-30T11:52:10Z</time>
      </trkpt>
      <trkpt lat="39.760618" lon="-.365183">
        <ele>268.044</ele>
        <time>2020-08-30T11:52:12Z</time>
      </trkpt>
      <trkpt lat="39.760567" lon="-.365166">
        <ele>268.076</ele>
        <time>2020-08-30T11:52:13Z</time>
      </trkpt>
      <trkpt lat="39.760475" lon="-.365154">
        <ele>268.044</ele>
        <time>2020-08-30T11:52:15Z</time>
      </trkpt>
      <trkpt lat="39.76043" lon="-.36514">
        <ele>268.071</ele>
        <time>2020-08-30T11:52:16Z</time>
      </trkpt>
      <trkpt lat="39.760378" lon="-.365123">
        <ele>267.979</ele>
        <time>2020-08-30T11:52:17Z</time>
      </trkpt>
      <trkpt lat="39.760331" lon="-.365102">
        <ele>267.969</ele>
        <time>2020-08-30T11:52:18Z</time>
      </trkpt>
      <trkpt lat="39.760285" lon="-.365083">
        <ele>267.923</ele>
        <time>2020-08-30T11:52:19Z</time>
      </trkpt>
      <trkpt lat="39.760237" lon="-.365062">
        <ele>267.983</ele>
        <time>2020-08-30T11:52:20Z</time>
      </trkpt>
      <trkpt lat="39.760191" lon="-.365045">
        <ele>267.911</ele>
        <time>2020-08-30T11:52:21Z</time>
      </trkpt>
      <trkpt lat="39.760107" lon="-.364998">
        <ele>267.908</ele>
        <time>2020-08-30T11:52:23Z</time>
      </trkpt>
      <trkpt lat="39.76006" lon="-.364973">
        <ele>267.977</ele>
        <time>2020-08-30T11:52:24Z</time>
      </trkpt>
      <trkpt lat="39.760014" lon="-.364952">
        <ele>267.957</ele>
        <time>2020-08-30T11:52:25Z</time>
      </trkpt>
      <trkpt lat="39.759934" lon="-.364915">
        <ele>267.989</ele>
        <time>2020-08-30T11:52:27Z</time>
      </trkpt>
      <trkpt lat="39.759857" lon="-.36487">
        <ele>267.911</ele>
        <time>2020-08-30T11:52:29Z</time>
      </trkpt>
      <trkpt lat="39.759811" lon="-.364843">
        <ele>267.939</ele>
        <time>2020-08-30T11:52:30Z</time>
      </trkpt>
      <trkpt lat="39.759769" lon="-.364808">
        <ele>267.866</ele>
        <time>2020-08-30T11:52:31Z</time>
      </trkpt>
      <trkpt lat="39.759729" lon="-.364779">
        <ele>267.884</ele>
        <time>2020-08-30T11:52:32Z</time>
      </trkpt>
      <trkpt lat="39.759647" lon="-.364715">
        <ele>267.784</ele>
        <time>2020-08-30T11:52:34Z</time>
      </trkpt>
      <trkpt lat="39.759599" lon="-.364674">
        <ele>267.688</ele>
        <time>2020-08-30T11:52:35Z</time>
      </trkpt>
      <trkpt lat="39.759561" lon="-.36464">
        <ele>267.624</ele>
        <time>2020-08-30T11:52:36Z</time>
      </trkpt>
      <trkpt lat="39.75952" lon="-.364604">
        <ele>267.626</ele>
        <time>2020-08-30T11:52:37Z</time>
      </trkpt>
      <trkpt lat="39.759481" lon="-.364567">
        <ele>267.708</ele>
        <time>2020-08-30T11:52:38Z</time>
      </trkpt>
      <trkpt lat="39.759439" lon="-.364526">
        <ele>267.873</ele>
        <time>2020-08-30T11:52:39Z</time>
      </trkpt>
      <trkpt lat="39.7594" lon="-.364489">
        <ele>267.963</ele>
        <time>2020-08-30T11:52:40Z</time>
      </trkpt>
      <trkpt lat="39.759363" lon="-.364454">
        <ele>267.925</ele>
        <time>2020-08-30T11:52:41Z</time>
      </trkpt>
      <trkpt lat="39.759324" lon="-.364414">
        <ele>267.987</ele>
        <time>2020-08-30T11:52:42Z</time>
      </trkpt>
      <trkpt lat="39.759287" lon="-.364362">
        <ele>267.965</ele>
        <time>2020-08-30T11:52:43Z</time>
      </trkpt>
      <trkpt lat="39.759247" lon="-.364323">
        <ele>267.972</ele>
        <time>2020-08-30T11:52:44Z</time>
      </trkpt>
      <trkpt lat="39.759206" lon="-.364277">
        <ele>267.950</ele>
        <time>2020-08-30T11:52:45Z</time>
      </trkpt>
      <trkpt lat="39.759164" lon="-.364232">
        <ele>267.970</ele>
        <time>2020-08-30T11:52:46Z</time>
      </trkpt>
      <trkpt lat="39.759125" lon="-.364188">
        <ele>267.835</ele>
        <time>2020-08-30T11:52:47Z</time>
      </trkpt>
      <trkpt lat="39.75909" lon="-.364148">
        <ele>267.786</ele>
        <time>2020-08-30T11:52:48Z</time>
      </trkpt>
      <trkpt lat="39.759044" lon="-.364102">
        <ele>267.614</ele>
        <time>2020-08-30T11:52:49Z</time>
      </trkpt>
      <trkpt lat="39.759003" lon="-.364059">
        <ele>267.508</ele>
        <time>2020-08-30T11:52:50Z</time>
      </trkpt>
      <trkpt lat="39.758962" lon="-.364019">
        <ele>267.468</ele>
        <time>2020-08-30T11:52:51Z</time>
      </trkpt>
      <trkpt lat="39.758924" lon="-.36398">
        <ele>267.438</ele>
        <time>2020-08-30T11:52:52Z</time>
      </trkpt>
      <trkpt lat="39.758882" lon="-.363933">
        <ele>267.490</ele>
        <time>2020-08-30T11:52:53Z</time>
      </trkpt>
      <trkpt lat="39.758842" lon="-.363891">
        <ele>267.532</ele>
        <time>2020-08-30T11:52:54Z</time>
      </trkpt>
      <trkpt lat="39.758803" lon="-.363847">
        <ele>267.570</ele>
        <time>2020-08-30T11:52:55Z</time>
      </trkpt>
      <trkpt lat="39.758759" lon="-.363804">
        <ele>267.627</ele>
        <time>2020-08-30T11:52:56Z</time>
      </trkpt>
      <trkpt lat="39.758718" lon="-.363766">
        <ele>267.765</ele>
        <time>2020-08-30T11:52:57Z</time>
      </trkpt>
      <trkpt lat="39.758675" lon="-.363732">
        <ele>267.755</ele>
        <time>2020-08-30T11:52:58Z</time>
      </trkpt>
      <trkpt lat="39.758641" lon="-.363691">
        <ele>267.767</ele>
        <time>2020-08-30T11:52:59Z</time>
      </trkpt>
      <trkpt lat="39.758601" lon="-.363659">
        <ele>267.781</ele>
        <time>2020-08-30T11:53:00Z</time>
      </trkpt>
      <trkpt lat="39.758554" lon="-.363617">
        <ele>267.719</ele>
        <time>2020-08-30T11:53:01Z</time>
      </trkpt>
      <trkpt lat="39.758501" lon="-.363565">
        <ele>267.508</ele>
        <time>2020-08-30T11:53:02Z</time>
      </trkpt>
      <trkpt lat="39.758455" lon="-.363524">
        <ele>267.561</ele>
        <time>2020-08-30T11:53:03Z</time>
      </trkpt>
      <trkpt lat="39.758415" lon="-.363492">
        <ele>267.511</ele>
        <time>2020-08-30T11:53:04Z</time>
      </trkpt>
      <trkpt lat="39.75838" lon="-.363453">
        <ele>267.583</ele>
        <time>2020-08-30T11:53:05Z</time>
      </trkpt>
      <trkpt lat="39.758342" lon="-.363418">
        <ele>267.555</ele>
        <time>2020-08-30T11:53:06Z</time>
      </trkpt>
      <trkpt lat="39.758304" lon="-.363374">
        <ele>267.533</ele>
        <time>2020-08-30T11:53:07Z</time>
      </trkpt>
      <trkpt lat="39.758253" lon="-.363338">
        <ele>267.690</ele>
        <time>2020-08-30T11:53:08Z</time>
      </trkpt>
      <trkpt lat="39.758168" lon="-.363285">
        <ele>267.618</ele>
        <time>2020-08-30T11:53:10Z</time>
      </trkpt>
      <trkpt lat="39.75812" lon="-.363259">
        <ele>267.698</ele>
        <time>2020-08-30T11:53:11Z</time>
      </trkpt>
      <trkpt lat="39.758073" lon="-.36323">
        <ele>267.628</ele>
        <time>2020-08-30T11:53:12Z</time>
      </trkpt>
      <trkpt lat="39.758025" lon="-.363203">
        <ele>267.689</ele>
        <time>2020-08-30T11:53:13Z</time>
      </trkpt>
      <trkpt lat="39.75797" lon="-.363186">
        <ele>267.617</ele>
        <time>2020-08-30T11:53:14Z</time>
      </trkpt>
      <trkpt lat="39.757925" lon="-.363149">
        <ele>267.608</ele>
        <time>2020-08-30T11:53:15Z</time>
      </trkpt>
      <trkpt lat="39.757858" lon="-.363133">
        <ele>267.737</ele>
        <time>2020-08-30T11:53:16Z</time>
      </trkpt>
      <trkpt lat="39.757809" lon="-.363128">
        <ele>267.767</ele>
        <time>2020-08-30T11:53:17Z</time>
      </trkpt>
      <trkpt lat="39.757755" lon="-.363115">
        <ele>267.719</ele>
        <time>2020-08-30T11:53:18Z</time>
      </trkpt>
      <trkpt lat="39.7577" lon="-.363085">
        <ele>267.851</ele>
        <time>2020-08-30T11:53:19Z</time>
      </trkpt>
      <trkpt lat="39.75764" lon="-.363074">
        <ele>267.819</ele>
        <time>2020-08-30T11:53:20Z</time>
      </trkpt>
      <trkpt lat="39.757551" lon="-.363034">
        <ele>267.866</ele>
        <time>2020-08-30T11:53:22Z</time>
      </trkpt>
      <trkpt lat="39.757506" lon="-.363029">
        <ele>267.884</ele>
        <time>2020-08-30T11:53:23Z</time>
      </trkpt>
      <trkpt lat="39.75745" lon="-.363013">
        <ele>267.684</ele>
        <time>2020-08-30T11:53:24Z</time>
      </trkpt>
      <trkpt lat="39.757402" lon="-.363005">
        <ele>267.536</ele>
        <time>2020-08-30T11:53:25Z</time>
      </trkpt>
      <trkpt lat="39.757347" lon="-.362999">
        <ele>267.417</ele>
        <time>2020-08-30T11:53:26Z</time>
      </trkpt>
      <trkpt lat="39.757283" lon="-.362997">
        <ele>267.418</ele>
        <time>2020-08-30T11:53:27Z</time>
      </trkpt>
      <trkpt lat="39.757231" lon="-.362988">
        <ele>267.408</ele>
        <time>2020-08-30T11:53:28Z</time>
      </trkpt>
      <trkpt lat="39.757177" lon="-.36299">
        <ele>267.438</ele>
        <time>2020-08-30T11:53:29Z</time>
      </trkpt>
      <trkpt lat="39.757133" lon="-.363005">
        <ele>267.418</ele>
        <time>2020-08-30T11:53:30Z</time>
      </trkpt>
      <trkpt lat="39.757084" lon="-.363013">
        <ele>267.350</ele>
        <time>2020-08-30T11:53:31Z</time>
      </trkpt>
      <trkpt lat="39.757026" lon="-.363034">
        <ele>267.272</ele>
        <time>2020-08-30T11:53:32Z</time>
      </trkpt>
      <trkpt lat="39.756972" lon="-.363045">
        <ele>267.150</ele>
        <time>2020-08-30T11:53:33Z</time>
      </trkpt>
      <trkpt lat="39.756922" lon="-.363054">
        <ele>267.037</ele>
        <time>2020-08-30T11:53:34Z</time>
      </trkpt>
      <trkpt lat="39.756862" lon="-.363068">
        <ele>267.055</ele>
        <time>2020-08-30T11:53:35Z</time>
      </trkpt>
      <trkpt lat="39.756812" lon="-.363094">
        <ele>267.025</ele>
        <time>2020-08-30T11:53:36Z</time>
      </trkpt>
      <trkpt lat="39.75677" lon="-.363116">
        <ele>266.951</ele>
        <time>2020-08-30T11:53:37Z</time>
      </trkpt>
      <trkpt lat="39.75673" lon="-.363143">
        <ele>266.701</ele>
        <time>2020-08-30T11:53:38Z</time>
      </trkpt>
      <trkpt lat="39.75668" lon="-.363172">
        <ele>266.511</ele>
        <time>2020-08-30T11:53:39Z</time>
      </trkpt>
      <trkpt lat="39.756627" lon="-.3632">
        <ele>266.208</ele>
        <time>2020-08-30T11:53:40Z</time>
      </trkpt>
      <trkpt lat="39.756573" lon="-.363233">
        <ele>266.070</ele>
        <time>2020-08-30T11:53:41Z</time>
      </trkpt>
      <trkpt lat="39.756521" lon="-.363263">
        <ele>265.950</ele>
        <time>2020-08-30T11:53:42Z</time>
      </trkpt>
      <trkpt lat="39.756476" lon="-.363289">
        <ele>265.822</ele>
        <time>2020-08-30T11:53:43Z</time>
      </trkpt>
      <trkpt lat="39.75643" lon="-.363318">
        <ele>265.844</ele>
        <time>2020-08-30T11:53:44Z</time>
      </trkpt>
      <trkpt lat="39.756386" lon="-.363348">
        <ele>265.792</ele>
        <time>2020-08-30T11:53:45Z</time>
      </trkpt>
      <trkpt lat="39.756343" lon="-.363382">
        <ele>265.539</ele>
        <time>2020-08-30T11:53:46Z</time>
      </trkpt>
      <trkpt lat="39.756271" lon="-.363461">
        <ele>265.217</ele>
        <time>2020-08-30T11:53:48Z</time>
      </trkpt>
      <trkpt lat="39.756227" lon="-.363503">
        <ele>265.137</ele>
        <time>2020-08-30T11:53:49Z</time>
      </trkpt>
      <trkpt lat="39.756182" lon="-.363547">
        <ele>265.077</ele>
        <time>2020-08-30T11:53:50Z</time>
      </trkpt>
      <trkpt lat="39.756139" lon="-.363589">
        <ele>264.961</ele>
        <time>2020-08-30T11:53:51Z</time>
      </trkpt>
      <trkpt lat="39.756103" lon="-.363626">
        <ele>264.527</ele>
        <time>2020-08-30T11:53:52Z</time>
      </trkpt>
      <trkpt lat="39.756069" lon="-.363685">
        <ele>264.408</ele>
        <time>2020-08-30T11:53:53Z</time>
      </trkpt>
      <trkpt lat="39.756026" lon="-.363727">
        <ele>264.452</ele>
        <time>2020-08-30T11:53:54Z</time>
      </trkpt>
      <trkpt lat="39.755985" lon="-.363773">
        <ele>264.142</ele>
        <time>2020-08-30T11:53:55Z</time>
      </trkpt>
      <trkpt lat="39.755958" lon="-.36384">
        <ele>263.994</ele>
        <time>2020-08-30T11:53:56Z</time>
      </trkpt>
      <trkpt lat="39.755921" lon="-.363882">
        <ele>263.876</ele>
        <time>2020-08-30T11:53:57Z</time>
      </trkpt>
      <trkpt lat="39.755888" lon="-.363931">
        <ele>263.534</ele>
        <time>2020-08-30T11:53:58Z</time>
      </trkpt>
      <trkpt lat="39.755834" lon="-.364019">
        <ele>263.151</ele>
        <time>2020-08-30T11:54:00Z</time>
      </trkpt>
      <trkpt lat="39.755777" lon="-.364105">
        <ele>263.129</ele>
        <time>2020-08-30T11:54:02Z</time>
      </trkpt>
      <trkpt lat="39.755723" lon="-.364188">
        <ele>263.169</ele>
        <time>2020-08-30T11:54:04Z</time>
      </trkpt>
      <trkpt lat="39.755668" lon="-.36427">
        <ele>262.968</ele>
        <time>2020-08-30T11:54:06Z</time>
      </trkpt>
      <trkpt lat="39.75562" lon="-.364358">
        <ele>262.542</ele>
        <time>2020-08-30T11:54:08Z</time>
      </trkpt>
      <trkpt lat="39.755565" lon="-.364439">
        <ele>262.426</ele>
        <time>2020-08-30T11:54:10Z</time>
      </trkpt>
      <trkpt lat="39.755514" lon="-.364523">
        <ele>262.308</ele>
        <time>2020-08-30T11:54:12Z</time>
      </trkpt>
      <trkpt lat="39.755465" lon="-.364607">
        <ele>262.261</ele>
        <time>2020-08-30T11:54:14Z</time>
      </trkpt>
      <trkpt lat="39.755419" lon="-.364696">
        <ele>262.121</ele>
        <time>2020-08-30T11:54:16Z</time>
      </trkpt>
      <trkpt lat="39.755396" lon="-.364747">
        <ele>262.133</ele>
        <time>2020-08-30T11:54:17Z</time>
      </trkpt>
      <trkpt lat="39.755347" lon="-.364836">
        <ele>262.155</ele>
        <time>2020-08-30T11:54:19Z</time>
      </trkpt>
      <trkpt lat="39.755294" lon="-.364913">
        <ele>261.953</ele>
        <time>2020-08-30T11:54:21Z</time>
      </trkpt>
      <trkpt lat="39.755235" lon="-.364992">
        <ele>261.780</ele>
        <time>2020-08-30T11:54:23Z</time>
      </trkpt>
      <trkpt lat="39.755183" lon="-.365083">
        <ele>261.548</ele>
        <time>2020-08-30T11:54:25Z</time>
      </trkpt>
      <trkpt lat="39.755136" lon="-.365173">
        <ele>261.668</ele>
        <time>2020-08-30T11:54:27Z</time>
      </trkpt>
      <trkpt lat="39.75508" lon="-.365248">
        <ele>261.647</ele>
        <time>2020-08-30T11:54:29Z</time>
      </trkpt>
      <trkpt lat="39.755041" lon="-.365344">
        <ele>261.329</ele>
        <time>2020-08-30T11:54:31Z</time>
      </trkpt>
      <trkpt lat="39.754986" lon="-.36541">
        <ele>260.921</ele>
        <time>2020-08-30T11:54:33Z</time>
      </trkpt>
      <trkpt lat="39.754943" lon="-.365493">
        <ele>260.708</ele>
        <time>2020-08-30T11:54:35Z</time>
      </trkpt>
      <trkpt lat="39.7549" lon="-.365574">
        <ele>260.599</ele>
        <time>2020-08-30T11:54:37Z</time>
      </trkpt>
      <trkpt lat="39.754849" lon="-.365652">
        <ele>260.389</ele>
        <time>2020-08-30T11:54:39Z</time>
      </trkpt>
      <trkpt lat="39.754811" lon="-.365724">
        <ele>259.991</ele>
        <time>2020-08-30T11:54:41Z</time>
      </trkpt>
      <trkpt lat="39.754768" lon="-.36579">
        <ele>259.563</ele>
        <time>2020-08-30T11:54:43Z</time>
      </trkpt>
      <trkpt lat="39.754716" lon="-.365862">
        <ele>259.421</ele>
        <time>2020-08-30T11:54:45Z</time>
      </trkpt>
      <trkpt lat="39.754667" lon="-.365928">
        <ele>259.638</ele>
        <time>2020-08-30T11:54:47Z</time>
      </trkpt>
      <trkpt lat="39.754625" lon="-.365998">
        <ele>259.916</ele>
        <time>2020-08-30T11:54:49Z</time>
      </trkpt>
      <trkpt lat="39.754573" lon="-.366071">
        <ele>259.846</ele>
        <time>2020-08-30T11:54:51Z</time>
      </trkpt>
      <trkpt lat="39.754534" lon="-.366134">
        <ele>259.632</ele>
        <time>2020-08-30T11:54:53Z</time>
      </trkpt>
      <trkpt lat="39.754495" lon="-.366203">
        <ele>259.592</ele>
        <time>2020-08-30T11:54:55Z</time>
      </trkpt>
      <trkpt lat="39.754452" lon="-.366267">
        <ele>259.411</ele>
        <time>2020-08-30T11:54:57Z</time>
      </trkpt>
      <trkpt lat="39.754406" lon="-.366328">
        <ele>259.308</ele>
        <time>2020-08-30T11:54:59Z</time>
      </trkpt>
      <trkpt lat="39.754359" lon="-.366394">
        <ele>259.318</ele>
        <time>2020-08-30T11:55:01Z</time>
      </trkpt>
      <trkpt lat="39.754333" lon="-.366454">
        <ele>259.378</ele>
        <time>2020-08-30T11:55:03Z</time>
      </trkpt>
      <trkpt lat="39.754302" lon="-.366514">
        <ele>259.250</ele>
        <time>2020-08-30T11:55:05Z</time>
      </trkpt>
      <trkpt lat="39.754244" lon="-.36656">
        <ele>259.222</ele>
        <time>2020-08-30T11:55:07Z</time>
      </trkpt>
      <trkpt lat="39.754207" lon="-.366622">
        <ele>259.220</ele>
        <time>2020-08-30T11:55:09Z</time>
      </trkpt>
      <trkpt lat="39.754164" lon="-.366677">
        <ele>259.347</ele>
        <time>2020-08-30T11:55:11Z</time>
      </trkpt>
      <trkpt lat="39.754117" lon="-.366747">
        <ele>259.375</ele>
        <time>2020-08-30T11:55:13Z</time>
      </trkpt>
      <trkpt lat="39.754068" lon="-.36682">
        <ele>259.355</ele>
        <time>2020-08-30T11:55:15Z</time>
      </trkpt>
      <trkpt lat="39.754035" lon="-.366872">
        <ele>259.345</ele>
        <time>2020-08-30T11:55:17Z</time>
      </trkpt>
      <trkpt lat="39.753997" lon="-.366913">
        <ele>259.347</ele>
        <time>2020-08-30T11:55:19Z</time>
      </trkpt>
      <trkpt lat="39.753929" lon="-.366911">
        <ele>259.211</ele>
        <time>2020-08-30T11:55:21Z</time>
      </trkpt>
      <trkpt lat="39.753886" lon="-.366884">
        <ele>259.108</ele>
        <time>2020-08-30T11:55:22Z</time>
      </trkpt>
      <trkpt lat="39.753854" lon="-.366831">
        <ele>258.849</ele>
        <time>2020-08-30T11:55:23Z</time>
      </trkpt>
      <trkpt lat="39.753844" lon="-.366763">
        <ele>258.569</ele>
        <time>2020-08-30T11:55:24Z</time>
      </trkpt>
      <trkpt lat="39.753842" lon="-.366687">
        <ele>258.321</ele>
        <time>2020-08-30T11:55:25Z</time>
      </trkpt>
      <trkpt lat="39.75383" lon="-.366614">
        <ele>258.043</ele>
        <time>2020-08-30T11:55:26Z</time>
      </trkpt>
      <trkpt lat="39.753825" lon="-.366545">
        <ele>257.711</ele>
        <time>2020-08-30T11:55:27Z</time>
      </trkpt>
      <trkpt lat="39.753817" lon="-.366469">
        <ele>257.418</ele>
        <time>2020-08-30T11:55:28Z</time>
      </trkpt>
      <trkpt lat="39.753814" lon="-.366387">
        <ele>257.156</ele>
        <time>2020-08-30T11:55:29Z</time>
      </trkpt>
      <trkpt lat="39.753808" lon="-.366301">
        <ele>256.736</ele>
        <time>2020-08-30T11:55:30Z</time>
      </trkpt>
      <trkpt lat="39.753801" lon="-.366214">
        <ele>255.922</ele>
        <time>2020-08-30T11:55:31Z</time>
      </trkpt>
      <trkpt lat="39.753795" lon="-.366127">
        <ele>255.962</ele>
        <time>2020-08-30T11:55:32Z</time>
      </trkpt>
      <trkpt lat="39.753783" lon="-.366039">
        <ele>255.508</ele>
        <time>2020-08-30T11:55:33Z</time>
      </trkpt>
      <trkpt lat="39.753777" lon="-.365949">
        <ele>254.708</ele>
        <time>2020-08-30T11:55:34Z</time>
      </trkpt>
      <trkpt lat="39.753769" lon="-.36586">
        <ele>254.397</ele>
        <time>2020-08-30T11:55:35Z</time>
      </trkpt>
      <trkpt lat="39.753759" lon="-.365764">
        <ele>253.847</ele>
        <time>2020-08-30T11:55:36Z</time>
      </trkpt>
      <trkpt lat="39.75375" lon="-.365669">
        <ele>253.379</ele>
        <time>2020-08-30T11:55:37Z</time>
      </trkpt>
      <trkpt lat="39.753745" lon="-.365571">
        <ele>252.921</ele>
        <time>2020-08-30T11:55:38Z</time>
      </trkpt>
      <trkpt lat="39.753741" lon="-.365477">
        <ele>252.519</ele>
        <time>2020-08-30T11:55:39Z</time>
      </trkpt>
      <trkpt lat="39.753741" lon="-.365393">
        <ele>252.166</ele>
        <time>2020-08-30T11:55:40Z</time>
      </trkpt>
      <trkpt lat="39.753744" lon="-.365314">
        <ele>251.764</ele>
        <time>2020-08-30T11:55:41Z</time>
      </trkpt>
      <trkpt lat="39.753752" lon="-.365241">
        <ele>251.244</ele>
        <time>2020-08-30T11:55:42Z</time>
      </trkpt>
      <trkpt lat="39.753751" lon="-.365137">
        <ele>250.017</ele>
        <time>2020-08-30T11:55:44Z</time>
      </trkpt>
      <trkpt lat="39.753756" lon="-.365058">
        <ele>248.987</ele>
        <time>2020-08-30T11:55:46Z</time>
      </trkpt>
      <trkpt lat="39.753761" lon="-.364979">
        <ele>248.215</ele>
        <time>2020-08-30T11:55:48Z</time>
      </trkpt>
      <trkpt lat="39.753764" lon="-.364919">
        <ele>247.908</ele>
        <time>2020-08-30T11:55:49Z</time>
      </trkpt>
      <trkpt lat="39.753746" lon="-.364825">
        <ele>246.896</ele>
        <time>2020-08-30T11:55:51Z</time>
      </trkpt>
      <trkpt lat="39.753732" lon="-.364742">
        <ele>246.596</ele>
        <time>2020-08-30T11:55:53Z</time>
      </trkpt>
      <trkpt lat="39.753754" lon="-.364665">
        <ele>246.258</ele>
        <time>2020-08-30T11:55:55Z</time>
      </trkpt>
      <trkpt lat="39.75379" lon="-.364579">
        <ele>246.010</ele>
        <time>2020-08-30T11:55:57Z</time>
      </trkpt>
      <trkpt lat="39.753815" lon="-.364494">
        <ele>245.948</ele>
        <time>2020-08-30T11:55:59Z</time>
      </trkpt>
      <trkpt lat="39.753829" lon="-.364423">
        <ele>245.855</ele>
        <time>2020-08-30T11:56:01Z</time>
      </trkpt>
      <trkpt lat="39.753831" lon="-.364351">
        <ele>245.733</ele>
        <time>2020-08-30T11:56:03Z</time>
      </trkpt>
      <trkpt lat="39.753811" lon="-.364281">
        <ele>245.763</ele>
        <time>2020-08-30T11:56:06Z</time>
      </trkpt>
      <trkpt lat="39.753761" lon="-.364265">
        <ele>245.748</ele>
        <time>2020-08-30T11:56:09Z</time>
      </trkpt>
      <trkpt lat="39.753704" lon="-.364208">
        <ele>245.361</ele>
        <time>2020-08-30T11:56:28Z</time>
      </trkpt>
      <trkpt lat="39.75365" lon="-.364232">
        <ele>245.517</ele>
        <time>2020-08-30T11:56:55Z</time>
      </trkpt>
      <trkpt lat="39.753525" lon="-.364265">
        <ele>245.908</ele>
        <time>2020-08-30T12:06:23Z</time>
      </trkpt>
      <trkpt lat="39.753549" lon="-.364318">
        <ele>246.399</ele>
        <time>2020-08-30T12:08:33Z</time>
      </trkpt>
      <trkpt lat="39.753498" lon="-.364246">
        <ele>246.839</ele>
        <time>2020-08-30T12:09:28Z</time>
      </trkpt>
      <trkpt lat="39.753555" lon="-.364259">
        <ele>246.021</ele>
        <time>2020-08-30T12:28:56Z</time>
      </trkpt>
      <trkpt lat="39.753512" lon="-.364278">
        <ele>247.513</ele>
        <time>2020-08-30T12:51:19Z</time>
      </trkpt>
      <trkpt lat="39.75356" lon="-.364283">
        <ele>247.581</ele>
        <time>2020-08-30T12:51:25Z</time>
      </trkpt>
      <trkpt lat="39.753625" lon="-.364225">
        <ele>247.558</ele>
        <time>2020-08-30T12:51:36Z</time>
      </trkpt>
      <trkpt lat="39.753678" lon="-.364194">
        <ele>247.626</ele>
        <time>2020-08-30T12:51:59Z</time>
      </trkpt>
      <trkpt lat="39.753717" lon="-.364227">
        <ele>247.796</ele>
        <time>2020-08-30T12:54:23Z</time>
      </trkpt>
      <trkpt lat="39.753729" lon="-.364284">
        <ele>247.975</ele>
        <time>2020-08-30T12:54:30Z</time>
      </trkpt>
      <trkpt lat="39.753705" lon="-.364342">
        <ele>247.928</ele>
        <time>2020-08-30T12:54:33Z</time>
      </trkpt>
      <trkpt lat="39.753697" lon="-.364404">
        <ele>248.020</ele>
        <time>2020-08-30T12:54:36Z</time>
      </trkpt>
      <trkpt lat="39.753693" lon="-.364479">
        <ele>247.708</ele>
        <time>2020-08-30T12:54:39Z</time>
      </trkpt>
      <trkpt lat="39.753684" lon="-.364555">
        <ele>247.712</ele>
        <time>2020-08-30T12:54:41Z</time>
      </trkpt>
      <trkpt lat="39.753682" lon="-.364627">
        <ele>247.912</ele>
        <time>2020-08-30T12:54:43Z</time>
      </trkpt>
      <trkpt lat="39.753682" lon="-.364695">
        <ele>248.074</ele>
        <time>2020-08-30T12:54:45Z</time>
      </trkpt>
      <trkpt lat="39.75369" lon="-.36476">
        <ele>248.166</ele>
        <time>2020-08-30T12:54:48Z</time>
      </trkpt>
      <trkpt lat="39.753671" lon="-.364816">
        <ele>248.054</ele>
        <time>2020-08-30T12:54:55Z</time>
      </trkpt>
      <trkpt lat="39.753683" lon="-.364881">
        <ele>247.821</ele>
        <time>2020-08-30T12:54:58Z</time>
      </trkpt>
      <trkpt lat="39.753713" lon="-.364941">
        <ele>247.899</ele>
        <time>2020-08-30T12:55:07Z</time>
      </trkpt>
      <trkpt lat="39.753728" lon="-.365002">
        <ele>248.249</ele>
        <time>2020-08-30T12:55:20Z</time>
      </trkpt>
      <trkpt lat="39.753759" lon="-.365052">
        <ele>248.433</ele>
        <time>2020-08-30T12:55:24Z</time>
      </trkpt>
      <trkpt lat="39.753762" lon="-.365117">
        <ele>249.623</ele>
        <time>2020-08-30T12:55:29Z</time>
      </trkpt>
      <trkpt lat="39.75375" lon="-.365176">
        <ele>249.915</ele>
        <time>2020-08-30T12:55:37Z</time>
      </trkpt>
      <trkpt lat="39.753758" lon="-.365239">
        <ele>250.408</ele>
        <time>2020-08-30T12:55:40Z</time>
      </trkpt>
      <trkpt lat="39.753757" lon="-.365298">
        <ele>250.848</ele>
        <time>2020-08-30T12:55:43Z</time>
      </trkpt>
      <trkpt lat="39.753753" lon="-.365362">
        <ele>251.088</ele>
        <time>2020-08-30T12:55:47Z</time>
      </trkpt>
      <trkpt lat="39.753734" lon="-.365431">
        <ele>251.480</ele>
        <time>2020-08-30T12:55:51Z</time>
      </trkpt>
      <trkpt lat="39.753737" lon="-.36551">
        <ele>251.882</ele>
        <time>2020-08-30T12:55:54Z</time>
      </trkpt>
      <trkpt lat="39.753733" lon="-.365577">
        <ele>251.980</ele>
        <time>2020-08-30T12:55:58Z</time>
      </trkpt>
      <trkpt lat="39.753734" lon="-.365655">
        <ele>252.347</ele>
        <time>2020-08-30T12:56:02Z</time>
      </trkpt>
      <trkpt lat="39.753739" lon="-.365719">
        <ele>252.565</ele>
        <time>2020-08-30T12:56:05Z</time>
      </trkpt>
      <trkpt lat="39.753741" lon="-.365791">
        <ele>252.945</ele>
        <time>2020-08-30T12:56:09Z</time>
      </trkpt>
      <trkpt lat="39.753747" lon="-.365854">
        <ele>253.373</ele>
        <time>2020-08-30T12:56:12Z</time>
      </trkpt>
      <trkpt lat="39.753759" lon="-.365918">
        <ele>253.885</ele>
        <time>2020-08-30T12:56:15Z</time>
      </trkpt>
      <trkpt lat="39.753765" lon="-.366002">
        <ele>254.513</ele>
        <time>2020-08-30T12:56:19Z</time>
      </trkpt>
      <trkpt lat="39.753766" lon="-.366076">
        <ele>254.808</ele>
        <time>2020-08-30T12:56:22Z</time>
      </trkpt>
      <trkpt lat="39.753773" lon="-.366136">
        <ele>255.392</ele>
        <time>2020-08-30T12:56:25Z</time>
      </trkpt>
      <trkpt lat="39.75378" lon="-.366194">
        <ele>255.532</ele>
        <time>2020-08-30T12:56:27Z</time>
      </trkpt>
      <trkpt lat="39.753784" lon="-.366265">
        <ele>255.784</ele>
        <time>2020-08-30T12:56:30Z</time>
      </trkpt>
      <trkpt lat="39.75379" lon="-.366345">
        <ele>256.226</ele>
        <time>2020-08-30T12:56:33Z</time>
      </trkpt>
      <trkpt lat="39.753795" lon="-.366412">
        <ele>256.974</ele>
        <time>2020-08-30T12:56:36Z</time>
      </trkpt>
      <trkpt lat="39.753798" lon="-.366491">
        <ele>257.511</ele>
        <time>2020-08-30T12:56:39Z</time>
      </trkpt>
      <trkpt lat="39.7538" lon="-.366569">
        <ele>258.199</ele>
        <time>2020-08-30T12:56:42Z</time>
      </trkpt>
      <trkpt lat="39.753807" lon="-.366643">
        <ele>258.619</ele>
        <time>2020-08-30T12:56:45Z</time>
      </trkpt>
      <trkpt lat="39.753817" lon="-.366725">
        <ele>259.055</ele>
        <time>2020-08-30T12:56:48Z</time>
      </trkpt>
      <trkpt lat="39.753827" lon="-.366783">
        <ele>259.307</ele>
        <time>2020-08-30T12:56:50Z</time>
      </trkpt>
      <trkpt lat="39.753826" lon="-.366858">
        <ele>259.817</ele>
        <time>2020-08-30T12:56:53Z</time>
      </trkpt>
      <trkpt lat="39.753827" lon="-.366929">
        <ele>260.208</ele>
        <time>2020-08-30T12:56:56Z</time>
      </trkpt>
      <trkpt lat="39.753799" lon="-.366986">
        <ele>260.380</ele>
        <time>2020-08-30T12:56:59Z</time>
      </trkpt>
      <trkpt lat="39.753761" lon="-.367051">
        <ele>260.180</ele>
        <time>2020-08-30T12:57:02Z</time>
      </trkpt>
      <trkpt lat="39.753733" lon="-.367112">
        <ele>260.072</ele>
        <time>2020-08-30T12:57:05Z</time>
      </trkpt>
      <trkpt lat="39.753691" lon="-.367183">
        <ele>259.974</ele>
        <time>2020-08-30T12:57:08Z</time>
      </trkpt>
      <trkpt lat="39.753659" lon="-.367228">
        <ele>260.022</ele>
        <time>2020-08-30T12:57:10Z</time>
      </trkpt>
      <trkpt lat="39.753606" lon="-.367285">
        <ele>260.159</ele>
        <time>2020-08-30T12:57:12Z</time>
      </trkpt>
      <trkpt lat="39.753552" lon="-.367331">
        <ele>260.047</ele>
        <time>2020-08-30T12:57:14Z</time>
      </trkpt>
      <trkpt lat="39.753507" lon="-.367399">
        <ele>259.897</ele>
        <time>2020-08-30T12:57:16Z</time>
      </trkpt>
      <trkpt lat="39.753461" lon="-.367458">
        <ele>259.828</ele>
        <time>2020-08-30T12:57:18Z</time>
      </trkpt>
      <trkpt lat="39.75341" lon="-.367525">
        <ele>259.789</ele>
        <time>2020-08-30T12:57:20Z</time>
      </trkpt>
      <trkpt lat="39.753363" lon="-.367583">
        <ele>259.517</ele>
        <time>2020-08-30T12:57:22Z</time>
      </trkpt>
      <trkpt lat="39.753303" lon="-.367658">
        <ele>259.508</ele>
        <time>2020-08-30T12:57:24Z</time>
      </trkpt>
      <trkpt lat="39.753243" lon="-.367723">
        <ele>259.557</ele>
        <time>2020-08-30T12:57:26Z</time>
      </trkpt>
      <trkpt lat="39.753171" lon="-.367794">
        <ele>259.557</ele>
        <time>2020-08-30T12:57:28Z</time>
      </trkpt>
      <trkpt lat="39.753102" lon="-.36786">
        <ele>259.319</ele>
        <time>2020-08-30T12:57:30Z</time>
      </trkpt>
      <trkpt lat="39.753027" lon="-.367933">
        <ele>259.381</ele>
        <time>2020-08-30T12:57:32Z</time>
      </trkpt>
      <trkpt lat="39.752987" lon="-.367968">
        <ele>259.339</ele>
        <time>2020-08-30T12:57:33Z</time>
      </trkpt>
      <trkpt lat="39.752943" lon="-.368003">
        <ele>259.236</ele>
        <time>2020-08-30T12:57:34Z</time>
      </trkpt>
      <trkpt lat="39.75287" lon="-.368074">
        <ele>258.914</ele>
        <time>2020-08-30T12:57:36Z</time>
      </trkpt>
      <trkpt lat="39.752834" lon="-.368113">
        <ele>258.734</ele>
        <time>2020-08-30T12:57:37Z</time>
      </trkpt>
      <trkpt lat="39.752764" lon="-.368176">
        <ele>258.791</ele>
        <time>2020-08-30T12:57:39Z</time>
      </trkpt>
      <trkpt lat="39.752699" lon="-.368241">
        <ele>258.681</ele>
        <time>2020-08-30T12:57:41Z</time>
      </trkpt>
      <trkpt lat="39.75264" lon="-.368289">
        <ele>258.419</ele>
        <time>2020-08-30T12:57:43Z</time>
      </trkpt>
      <trkpt lat="39.752573" lon="-.368355">
        <ele>258.208</ele>
        <time>2020-08-30T12:57:45Z</time>
      </trkpt>
      <trkpt lat="39.752545" lon="-.368407">
        <ele>258.144</ele>
        <time>2020-08-30T12:57:46Z</time>
      </trkpt>
      <trkpt lat="39.752493" lon="-.368445">
        <ele>258.044</ele>
        <time>2020-08-30T12:57:47Z</time>
      </trkpt>
      <trkpt lat="39.752418" lon="-.368513">
        <ele>257.986</ele>
        <time>2020-08-30T12:57:49Z</time>
      </trkpt>
      <trkpt lat="39.752379" lon="-.368548">
        <ele>257.838</ele>
        <time>2020-08-30T12:57:50Z</time>
      </trkpt>
      <trkpt lat="39.752335" lon="-.368588">
        <ele>257.796</ele>
        <time>2020-08-30T12:57:51Z</time>
      </trkpt>
      <trkpt lat="39.752295" lon="-.368623">
        <ele>257.763</ele>
        <time>2020-08-30T12:57:52Z</time>
      </trkpt>
      <trkpt lat="39.752254" lon="-.368653">
        <ele>257.751</ele>
        <time>2020-08-30T12:57:53Z</time>
      </trkpt>
      <trkpt lat="39.752199" lon="-.368686">
        <ele>256.431</ele>
        <time>2020-08-30T12:57:54Z</time>
      </trkpt>
      <trkpt lat="39.752144" lon="-.368786">
        <ele>256.162</ele>
        <time>2020-08-30T12:57:55Z</time>
      </trkpt>
      <trkpt lat="39.752103" lon="-.368825">
        <ele>256.183</ele>
        <time>2020-08-30T12:57:56Z</time>
      </trkpt>
      <trkpt lat="39.752028" lon="-.368877">
        <ele>256.911</ele>
        <time>2020-08-30T12:57:58Z</time>
      </trkpt>
      <trkpt lat="39.751984" lon="-.368916">
        <ele>257.508</ele>
        <time>2020-08-30T12:57:59Z</time>
      </trkpt>
      <trkpt lat="39.751951" lon="-.368967">
        <ele>257.951</ele>
        <time>2020-08-30T12:58:00Z</time>
      </trkpt>
      <trkpt lat="39.751919" lon="-.369009">
        <ele>257.991</ele>
        <time>2020-08-30T12:58:01Z</time>
      </trkpt>
      <trkpt lat="39.751879" lon="-.369043">
        <ele>256.643</ele>
        <time>2020-08-30T12:58:02Z</time>
      </trkpt>
      <trkpt lat="39.751836" lon="-.369075">
        <ele>256.165</ele>
        <time>2020-08-30T12:58:03Z</time>
      </trkpt>
      <trkpt lat="39.751763" lon="-.369148">
        <ele>256.023</ele>
        <time>2020-08-30T12:58:05Z</time>
      </trkpt>
      <trkpt lat="39.751706" lon="-.369206">
        <ele>255.950</ele>
        <time>2020-08-30T12:58:07Z</time>
      </trkpt>
      <trkpt lat="39.751642" lon="-.36927">
        <ele>255.968</ele>
        <time>2020-08-30T12:58:09Z</time>
      </trkpt>
      <trkpt lat="39.751582" lon="-.369314">
        <ele>255.818</ele>
        <time>2020-08-30T12:58:11Z</time>
      </trkpt>
      <trkpt lat="39.751518" lon="-.369357">
        <ele>255.776</ele>
        <time>2020-08-30T12:58:13Z</time>
      </trkpt>
      <trkpt lat="39.751459" lon="-.369411">
        <ele>255.790</ele>
        <time>2020-08-30T12:58:15Z</time>
      </trkpt>
      <trkpt lat="39.751397" lon="-.369467">
        <ele>255.619</ele>
        <time>2020-08-30T12:58:17Z</time>
      </trkpt>
      <trkpt lat="39.751331" lon="-.369523">
        <ele>255.608</ele>
        <time>2020-08-30T12:58:19Z</time>
      </trkpt>
      <trkpt lat="39.751274" lon="-.369563">
        <ele>255.452</ele>
        <time>2020-08-30T12:58:21Z</time>
      </trkpt>
      <trkpt lat="39.751226" lon="-.369625">
        <ele>255.212</ele>
        <time>2020-08-30T12:58:23Z</time>
      </trkpt>
      <trkpt lat="39.751173" lon="-.369659">
        <ele>255.214</ele>
        <time>2020-08-30T12:58:25Z</time>
      </trkpt>
      <trkpt lat="39.75111" lon="-.369722">
        <ele>253.746</ele>
        <time>2020-08-30T12:58:27Z</time>
      </trkpt>
      <trkpt lat="39.751073" lon="-.369763">
        <ele>253.744</ele>
        <time>2020-08-30T12:58:29Z</time>
      </trkpt>
      <trkpt lat="39.751019" lon="-.369795">
        <ele>254.551</ele>
        <time>2020-08-30T12:59:01Z</time>
      </trkpt>
      <trkpt lat="39.750962" lon="-.369849">
        <ele>255.019</ele>
        <time>2020-08-30T12:59:03Z</time>
      </trkpt>
      <trkpt lat="39.750906" lon="-.3699">
        <ele>255.199</ele>
        <time>2020-08-30T12:59:05Z</time>
      </trkpt>
      <trkpt lat="39.750871" lon="-.369938">
        <ele>255.184</ele>
        <time>2020-08-30T12:59:06Z</time>
      </trkpt>
      <trkpt lat="39.750802" lon="-.370001">
        <ele>254.907</ele>
        <time>2020-08-30T12:59:08Z</time>
      </trkpt>
      <trkpt lat="39.750765" lon="-.370042">
        <ele>254.817</ele>
        <time>2020-08-30T12:59:09Z</time>
      </trkpt>
      <trkpt lat="39.750729" lon="-.37008">
        <ele>254.808</ele>
        <time>2020-08-30T12:59:10Z</time>
      </trkpt>
      <trkpt lat="39.750656" lon="-.370135">
        <ele>254.723</ele>
        <time>2020-08-30T12:59:12Z</time>
      </trkpt>
      <trkpt lat="39.750585" lon="-.370206">
        <ele>254.753</ele>
        <time>2020-08-30T12:59:14Z</time>
      </trkpt>
      <trkpt lat="39.750512" lon="-.370272">
        <ele>254.555</ele>
        <time>2020-08-30T12:59:16Z</time>
      </trkpt>
      <trkpt lat="39.750473" lon="-.370302">
        <ele>254.477</ele>
        <time>2020-08-30T12:59:17Z</time>
      </trkpt>
      <trkpt lat="39.750398" lon="-.370362">
        <ele>254.295</ele>
        <time>2020-08-30T12:59:19Z</time>
      </trkpt>
      <trkpt lat="39.750363" lon="-.370403">
        <ele>254.262</ele>
        <time>2020-08-30T12:59:20Z</time>
      </trkpt>
      <trkpt lat="39.750305" lon="-.370447">
        <ele>254.130</ele>
        <time>2020-08-30T12:59:22Z</time>
      </trkpt>
      <trkpt lat="39.750253" lon="-.37051">
        <ele>253.930</ele>
        <time>2020-08-30T12:59:24Z</time>
      </trkpt>
      <trkpt lat="39.750182" lon="-.370566">
        <ele>253.872</ele>
        <time>2020-08-30T12:59:26Z</time>
      </trkpt>
      <trkpt lat="39.750146" lon="-.370601">
        <ele>253.713</ele>
        <time>2020-08-30T12:59:27Z</time>
      </trkpt>
      <trkpt lat="39.75011" lon="-.370639">
        <ele>253.714</ele>
        <time>2020-08-30T12:59:28Z</time>
      </trkpt>
      <trkpt lat="39.750072" lon="-.370678">
        <ele>253.808</ele>
        <time>2020-08-30T12:59:29Z</time>
      </trkpt>
      <trkpt lat="39.749999" lon="-.370746">
        <ele>253.792</ele>
        <time>2020-08-30T12:59:31Z</time>
      </trkpt>
      <trkpt lat="39.749928" lon="-.370822">
        <ele>253.622</ele>
        <time>2020-08-30T12:59:33Z</time>
      </trkpt>
      <trkpt lat="39.74989" lon="-.370855">
        <ele>253.544</ele>
        <time>2020-08-30T12:59:34Z</time>
      </trkpt>
      <trkpt lat="39.749852" lon="-.370892">
        <ele>253.536</ele>
        <time>2020-08-30T12:59:35Z</time>
      </trkpt>
      <trkpt lat="39.74978" lon="-.370955">
        <ele>253.474</ele>
        <time>2020-08-30T12:59:37Z</time>
      </trkpt>
      <trkpt lat="39.749743" lon="-.370989">
        <ele>253.411</ele>
        <time>2020-08-30T12:59:38Z</time>
      </trkpt>
      <trkpt lat="39.749707" lon="-.371025">
        <ele>253.349</ele>
        <time>2020-08-30T12:59:39Z</time>
      </trkpt>
      <trkpt lat="39.749669" lon="-.37106">
        <ele>253.179</ele>
        <time>2020-08-30T12:59:40Z</time>
      </trkpt>
      <trkpt lat="39.749598" lon="-.37113">
        <ele>252.887</ele>
        <time>2020-08-30T12:59:42Z</time>
      </trkpt>
      <trkpt lat="39.749524" lon="-.371197">
        <ele>252.742</ele>
        <time>2020-08-30T12:59:44Z</time>
      </trkpt>
      <trkpt lat="39.74945" lon="-.371262">
        <ele>252.526</ele>
        <time>2020-08-30T12:59:46Z</time>
      </trkpt>
      <trkpt lat="39.749379" lon="-.371322">
        <ele>252.308</ele>
        <time>2020-08-30T12:59:48Z</time>
      </trkpt>
      <trkpt lat="39.749302" lon="-.371375">
        <ele>252.243</ele>
        <time>2020-08-30T12:59:50Z</time>
      </trkpt>
      <trkpt lat="39.74922" lon="-.371419">
        <ele>252.363</ele>
        <time>2020-08-30T12:59:52Z</time>
      </trkpt>
      <trkpt lat="39.749175" lon="-.37145">
        <ele>252.425</ele>
        <time>2020-08-30T12:59:53Z</time>
      </trkpt>
      <trkpt lat="39.749128" lon="-.371478">
        <ele>252.527</ele>
        <time>2020-08-30T12:59:54Z</time>
      </trkpt>
      <trkpt lat="39.749079" lon="-.371507">
        <ele>252.555</ele>
        <time>2020-08-30T12:59:55Z</time>
      </trkpt>
      <trkpt lat="39.749029" lon="-.371531">
        <ele>252.612</ele>
        <time>2020-08-30T12:59:56Z</time>
      </trkpt>
      <trkpt lat="39.748979" lon="-.371551">
        <ele>252.680</ele>
        <time>2020-08-30T12:59:57Z</time>
      </trkpt>
      <trkpt lat="39.748896" lon="-.371581">
        <ele>252.440</ele>
        <time>2020-08-30T12:59:59Z</time>
      </trkpt>
      <trkpt lat="39.748818" lon="-.371603">
        <ele>252.069</ele>
        <time>2020-08-30T13:00:01Z</time>
      </trkpt>
      <trkpt lat="39.748732" lon="-.371604">
        <ele>251.604</ele>
        <time>2020-08-30T13:00:03Z</time>
      </trkpt>
      <trkpt lat="39.748641" lon="-.371616">
        <ele>251.424</ele>
        <time>2020-08-30T13:00:05Z</time>
      </trkpt>
      <trkpt lat="39.748592" lon="-.371619">
        <ele>251.408</ele>
        <time>2020-08-30T13:00:06Z</time>
      </trkpt>
      <trkpt lat="39.748515" lon="-.371613">
        <ele>251.541</ele>
        <time>2020-08-30T13:00:08Z</time>
      </trkpt>
      <trkpt lat="39.748447" lon="-.371612">
        <ele>251.541</ele>
        <time>2020-08-30T13:00:10Z</time>
      </trkpt>
      <trkpt lat="39.748402" lon="-.371627">
        <ele>251.353</ele>
        <time>2020-08-30T13:00:12Z</time>
      </trkpt>
      <trkpt lat="39.748355" lon="-.37163">
        <ele>250.965</ele>
        <time>2020-08-30T13:00:21Z</time>
      </trkpt>
      <trkpt lat="39.748279" lon="-.371629">
        <ele>251.193</ele>
        <time>2020-08-30T13:00:24Z</time>
      </trkpt>
      <trkpt lat="39.748211" lon="-.371603">
        <ele>251.240</ele>
        <time>2020-08-30T13:00:26Z</time>
      </trkpt>
      <trkpt lat="39.748144" lon="-.37158">
        <ele>251.248</ele>
        <time>2020-08-30T13:00:28Z</time>
      </trkpt>
      <trkpt lat="39.748078" lon="-.371562">
        <ele>251.068</ele>
        <time>2020-08-30T13:00:30Z</time>
      </trkpt>
      <trkpt lat="39.748018" lon="-.371541">
        <ele>251.023</ele>
        <time>2020-08-30T13:00:32Z</time>
      </trkpt>
      <trkpt lat="39.74796" lon="-.371525">
        <ele>250.883</ele>
        <time>2020-08-30T13:00:34Z</time>
      </trkpt>
      <trkpt lat="39.747882" lon="-.371498">
        <ele>250.711</ele>
        <time>2020-08-30T13:00:36Z</time>
      </trkpt>
      <trkpt lat="39.747808" lon="-.371454">
        <ele>250.708</ele>
        <time>2020-08-30T13:00:38Z</time>
      </trkpt>
      <trkpt lat="39.74773" lon="-.371404">
        <ele>250.947</ele>
        <time>2020-08-30T13:00:40Z</time>
      </trkpt>
      <trkpt lat="39.747686" lon="-.371375">
        <ele>251.027</ele>
        <time>2020-08-30T13:00:41Z</time>
      </trkpt>
      <trkpt lat="39.747643" lon="-.371342">
        <ele>251.019</ele>
        <time>2020-08-30T13:00:42Z</time>
      </trkpt>
      <trkpt lat="39.747565" lon="-.371296">
        <ele>250.951</ele>
        <time>2020-08-30T13:00:44Z</time>
      </trkpt>
      <trkpt lat="39.747496" lon="-.371252">
        <ele>250.749</ele>
        <time>2020-08-30T13:00:46Z</time>
      </trkpt>
      <trkpt lat="39.74743" lon="-.371203">
        <ele>250.536</ele>
        <time>2020-08-30T13:00:48Z</time>
      </trkpt>
      <trkpt lat="39.747377" lon="-.371148">
        <ele>250.524</ele>
        <time>2020-08-30T13:00:50Z</time>
      </trkpt>
      <trkpt lat="39.747322" lon="-.371093">
        <ele>250.524</ele>
        <time>2020-08-30T13:00:52Z</time>
      </trkpt>
      <trkpt lat="39.747259" lon="-.371033">
        <ele>250.615</ele>
        <time>2020-08-30T13:00:54Z</time>
      </trkpt>
      <trkpt lat="39.747197" lon="-.370979">
        <ele>250.665</ele>
        <time>2020-08-30T13:00:56Z</time>
      </trkpt>
      <trkpt lat="39.747127" lon="-.37092">
        <ele>250.611</ele>
        <time>2020-08-30T13:00:58Z</time>
      </trkpt>
      <trkpt lat="39.747067" lon="-.370862">
        <ele>250.708</ele>
        <time>2020-08-30T13:01:00Z</time>
      </trkpt>
      <trkpt lat="39.747003" lon="-.370799">
        <ele>250.716</ele>
        <time>2020-08-30T13:01:02Z</time>
      </trkpt>
      <trkpt lat="39.746941" lon="-.370736">
        <ele>250.546</ele>
        <time>2020-08-30T13:01:04Z</time>
      </trkpt>
      <trkpt lat="39.746869" lon="-.370675">
        <ele>250.568</ele>
        <time>2020-08-30T13:01:06Z</time>
      </trkpt>
      <trkpt lat="39.746797" lon="-.37061">
        <ele>250.760</ele>
        <time>2020-08-30T13:01:08Z</time>
      </trkpt>
      <trkpt lat="39.746757" lon="-.370571">
        <ele>250.788</ele>
        <time>2020-08-30T13:01:09Z</time>
      </trkpt>
      <trkpt lat="39.746721" lon="-.370531">
        <ele>250.715</ele>
        <time>2020-08-30T13:01:10Z</time>
      </trkpt>
      <trkpt lat="39.746685" lon="-.370489">
        <ele>250.763</ele>
        <time>2020-08-30T13:01:11Z</time>
      </trkpt>
      <trkpt lat="39.74665" lon="-.370448">
        <ele>250.763</ele>
        <time>2020-08-30T13:01:12Z</time>
      </trkpt>
      <trkpt lat="39.746584" lon="-.370356">
        <ele>250.561</ele>
        <time>2020-08-30T13:01:14Z</time>
      </trkpt>
      <trkpt lat="39.746555" lon="-.370296">
        <ele>250.421</ele>
        <time>2020-08-30T13:01:15Z</time>
      </trkpt>
      <trkpt lat="39.746526" lon="-.370232">
        <ele>250.413</ele>
        <time>2020-08-30T13:01:16Z</time>
      </trkpt>
      <trkpt lat="39.746513" lon="-.370166">
        <ele>250.208</ele>
        <time>2020-08-30T13:01:17Z</time>
      </trkpt>
      <trkpt lat="39.746505" lon="-.370065">
        <ele>249.651</ele>
        <time>2020-08-30T13:01:19Z</time>
      </trkpt>
      <trkpt lat="39.746506" lon="-.370005">
        <ele>248.431</ele>
        <time>2020-08-30T13:01:21Z</time>
      </trkpt>
      <trkpt lat="39.746489" lon="-.369942">
        <ele>246.633</ele>
        <time>2020-08-30T13:01:24Z</time>
      </trkpt>
      <trkpt lat="39.746445" lon="-.3699">
        <ele>246.025</ele>
        <time>2020-08-30T13:01:27Z</time>
      </trkpt>
      <trkpt lat="39.746403" lon="-.36996">
        <ele>245.513</ele>
        <time>2020-08-30T13:01:30Z</time>
      </trkpt>
      <trkpt lat="39.746373" lon="-.370013">
        <ele>245.540</ele>
        <time>2020-08-30T13:01:32Z</time>
      </trkpt>
      <trkpt lat="39.746349" lon="-.370089">
        <ele>245.828</ele>
        <time>2020-08-30T13:01:34Z</time>
      </trkpt>
      <trkpt lat="39.746326" lon="-.370149">
        <ele>245.928</ele>
        <time>2020-08-30T13:01:36Z</time>
      </trkpt>
      <trkpt lat="39.746317" lon="-.370216">
        <ele>246.123</ele>
        <time>2020-08-30T13:01:38Z</time>
      </trkpt>
      <trkpt lat="39.746293" lon="-.370299">
        <ele>246.283</ele>
        <time>2020-08-30T13:01:40Z</time>
      </trkpt>
      <trkpt lat="39.746284" lon="-.370387">
        <ele>246.211</ele>
        <time>2020-08-30T13:01:42Z</time>
      </trkpt>
      <trkpt lat="39.746269" lon="-.370475">
        <ele>246.308</ele>
        <time>2020-08-30T13:01:44Z</time>
      </trkpt>
      <trkpt lat="39.746222" lon="-.37048">
        <ele>246.497</ele>
        <time>2020-08-30T13:01:46Z</time>
      </trkpt>
      <trkpt lat="39.746196" lon="-.37043">
        <ele>246.617</ele>
        <time>2020-08-30T13:01:48Z</time>
      </trkpt>
      <trkpt lat="39.746178" lon="-.370375">
        <ele>247.169</ele>
        <time>2020-08-30T13:01:51Z</time>
      </trkpt>
      <trkpt lat="39.746163" lon="-.370307">
        <ele>247.871</ele>
        <time>2020-08-30T13:01:55Z</time>
      </trkpt>
      <trkpt lat="39.746135" lon="-.370241">
        <ele>248.879</ele>
        <time>2020-08-30T13:01:58Z</time>
      </trkpt>
      <trkpt lat="39.746111" lon="-.370176">
        <ele>249.586</ele>
        <time>2020-08-30T13:02:01Z</time>
      </trkpt>
      <trkpt lat="39.74608" lon="-.370121">
        <ele>250.014</ele>
        <time>2020-08-30T13:02:04Z</time>
      </trkpt>
      <trkpt lat="39.746052" lon="-.37007">
        <ele>250.824</ele>
        <time>2020-08-30T13:02:07Z</time>
      </trkpt>
      <trkpt lat="39.746004" lon="-.370032">
        <ele>251.383</ele>
        <time>2020-08-30T13:02:10Z</time>
      </trkpt>
      <trkpt lat="39.745957" lon="-.369997">
        <ele>251.825</ele>
        <time>2020-08-30T13:02:13Z</time>
      </trkpt>
      <trkpt lat="39.745911" lon="-.369966">
        <ele>252.417</ele>
        <time>2020-08-30T13:02:16Z</time>
      </trkpt>
      <trkpt lat="39.745866" lon="-.369933">
        <ele>252.808</ele>
        <time>2020-08-30T13:02:19Z</time>
      </trkpt>
      <trkpt lat="39.745822" lon="-.369898">
        <ele>253.563</ele>
        <time>2020-08-30T13:02:22Z</time>
      </trkpt>
      <trkpt lat="39.745778" lon="-.369854">
        <ele>254.123</ele>
        <time>2020-08-30T13:02:25Z</time>
      </trkpt>
      <trkpt lat="39.745731" lon="-.36983">
        <ele>254.635</ele>
        <time>2020-08-30T13:02:28Z</time>
      </trkpt>
      <trkpt lat="39.745668" lon="-.369801">
        <ele>255.547</ele>
        <time>2020-08-30T13:02:31Z</time>
      </trkpt>
      <trkpt lat="39.745614" lon="-.369763">
        <ele>255.825</ele>
        <time>2020-08-30T13:02:34Z</time>
      </trkpt>
      <trkpt lat="39.745578" lon="-.369724">
        <ele>256.282</ele>
        <time>2020-08-30T13:02:36Z</time>
      </trkpt>
      <trkpt lat="39.745525" lon="-.369692">
        <ele>256.940</ele>
        <time>2020-08-30T13:02:39Z</time>
      </trkpt>
      <trkpt lat="39.745469" lon="-.369651">
        <ele>257.370</ele>
        <time>2020-08-30T13:02:42Z</time>
      </trkpt>
      <trkpt lat="39.745416" lon="-.36961">
        <ele>257.938</ele>
        <time>2020-08-30T13:02:45Z</time>
      </trkpt>
      <trkpt lat="39.74536" lon="-.369575">
        <ele>258.170</ele>
        <time>2020-08-30T13:02:48Z</time>
      </trkpt>
      <trkpt lat="39.745308" lon="-.369528">
        <ele>258.517</ele>
        <time>2020-08-30T13:02:51Z</time>
      </trkpt>
      <trkpt lat="39.745258" lon="-.369472">
        <ele>258.608</ele>
        <time>2020-08-30T13:02:54Z</time>
      </trkpt>
      <trkpt lat="39.745215" lon="-.369445">
        <ele>258.898</ele>
        <time>2020-08-30T13:02:56Z</time>
      </trkpt>
      <trkpt lat="39.745176" lon="-.369415">
        <ele>259.068</ele>
        <time>2020-08-30T13:02:58Z</time>
      </trkpt>
      <trkpt lat="39.745135" lon="-.369382">
        <ele>259.020</ele>
        <time>2020-08-30T13:03:00Z</time>
      </trkpt>
      <trkpt lat="39.745091" lon="-.369352">
        <ele>259.092</ele>
        <time>2020-08-30T13:03:02Z</time>
      </trkpt>
      <trkpt lat="39.745045" lon="-.369327">
        <ele>259.150</ele>
        <time>2020-08-30T13:03:04Z</time>
      </trkpt>
      <trkpt lat="39.744998" lon="-.369295">
        <ele>259.117</ele>
        <time>2020-08-30T13:03:06Z</time>
      </trkpt>
      <trkpt lat="39.744943" lon="-.369257">
        <ele>259.395</ele>
        <time>2020-08-30T13:03:09Z</time>
      </trkpt>
      <trkpt lat="39.744903" lon="-.369229">
        <ele>259.315</ele>
        <time>2020-08-30T13:03:11Z</time>
      </trkpt>
      <trkpt lat="39.744862" lon="-.369198">
        <ele>259.239</ele>
        <time>2020-08-30T13:03:13Z</time>
      </trkpt>
      <trkpt lat="39.744827" lon="-.369159">
        <ele>259.201</ele>
        <time>2020-08-30T13:03:15Z</time>
      </trkpt>
      <trkpt lat="39.744789" lon="-.369124">
        <ele>259.321</ele>
        <time>2020-08-30T13:03:17Z</time>
      </trkpt>
      <trkpt lat="39.744739" lon="-.369102">
        <ele>259.308</ele>
        <time>2020-08-30T13:03:19Z</time>
      </trkpt>
      <trkpt lat="39.744693" lon="-.369077">
        <ele>259.248</ele>
        <time>2020-08-30T13:03:21Z</time>
      </trkpt>
      <trkpt lat="39.744649" lon="-.369032">
        <ele>259.018</ele>
        <time>2020-08-30T13:03:23Z</time>
      </trkpt>
      <trkpt lat="39.744603" lon="-.368984">
        <ele>259.050</ele>
        <time>2020-08-30T13:03:25Z</time>
      </trkpt>
      <trkpt lat="39.744554" lon="-.368943">
        <ele>259.192</ele>
        <time>2020-08-30T13:03:27Z</time>
      </trkpt>
      <trkpt lat="39.744505" lon="-.368908">
        <ele>259.290</ele>
        <time>2020-08-30T13:03:29Z</time>
      </trkpt>
      <trkpt lat="39.744451" lon="-.368861">
        <ele>259.527</ele>
        <time>2020-08-30T13:03:31Z</time>
      </trkpt>
      <trkpt lat="39.744378" lon="-.368815">
        <ele>259.895</ele>
        <time>2020-08-30T13:03:33Z</time>
      </trkpt>
      <trkpt lat="39.744315" lon="-.368776">
        <ele>260.015</ele>
        <time>2020-08-30T13:03:35Z</time>
      </trkpt>
      <trkpt lat="39.744243" lon="-.368732">
        <ele>260.287</ele>
        <time>2020-08-30T13:03:37Z</time>
      </trkpt>
      <trkpt lat="39.744171" lon="-.368684">
        <ele>260.442</ele>
        <time>2020-08-30T13:03:39Z</time>
      </trkpt>
      <trkpt lat="39.744107" lon="-.368643">
        <ele>260.426</ele>
        <time>2020-08-30T13:03:41Z</time>
      </trkpt>
      <trkpt lat="39.744056" lon="-.368619">
        <ele>260.408</ele>
        <time>2020-08-30T13:03:42Z</time>
      </trkpt>
      <trkpt lat="39.744013" lon="-.368593">
        <ele>260.473</ele>
        <time>2020-08-30T13:03:43Z</time>
      </trkpt>
      <trkpt lat="39.743973" lon="-.368565">
        <ele>260.443</ele>
        <time>2020-08-30T13:03:44Z</time>
      </trkpt>
      <trkpt lat="39.743933" lon="-.368534">
        <ele>260.495</ele>
        <time>2020-08-30T13:03:45Z</time>
      </trkpt>
      <trkpt lat="39.743862" lon="-.368513">
        <ele>260.637</ele>
        <time>2020-08-30T13:03:47Z</time>
      </trkpt>
      <trkpt lat="39.743789" lon="-.368479">
        <ele>260.745</ele>
        <time>2020-08-30T13:03:49Z</time>
      </trkpt>
      <trkpt lat="39.74371" lon="-.368457">
        <ele>260.832</ele>
        <time>2020-08-30T13:03:51Z</time>
      </trkpt>
      <trkpt lat="39.743636" lon="-.368428">
        <ele>260.870</ele>
        <time>2020-08-30T13:03:53Z</time>
      </trkpt>
      <trkpt lat="39.743586" lon="-.368416">
        <ele>260.850</ele>
        <time>2020-08-30T13:03:55Z</time>
      </trkpt>
      <trkpt lat="39.74352" lon="-.3684">
        <ele>260.897</ele>
        <time>2020-08-30T13:03:57Z</time>
      </trkpt>
      <trkpt lat="39.743455" lon="-.36837">
        <ele>260.723</ele>
        <time>2020-08-30T13:03:59Z</time>
      </trkpt>
      <trkpt lat="39.743408" lon="-.368346">
        <ele>260.725</ele>
        <time>2020-08-30T13:04:00Z</time>
      </trkpt>
      <trkpt lat="39.743352" lon="-.368324">
        <ele>260.608</ele>
        <time>2020-08-30T13:04:01Z</time>
      </trkpt>
      <trkpt lat="39.743302" lon="-.368306">
        <ele>260.684</ele>
        <time>2020-08-30T13:04:02Z</time>
      </trkpt>
      <trkpt lat="39.743253" lon="-.368295">
        <ele>260.514</ele>
        <time>2020-08-30T13:04:03Z</time>
      </trkpt>
      <trkpt lat="39.743206" lon="-.368284">
        <ele>260.446</ele>
        <time>2020-08-30T13:04:04Z</time>
      </trkpt>
      <trkpt lat="39.743161" lon="-.368266">
        <ele>260.388</ele>
        <time>2020-08-30T13:04:05Z</time>
      </trkpt>
      <trkpt lat="39.743112" lon="-.36825">
        <ele>260.156</ele>
        <time>2020-08-30T13:04:06Z</time>
      </trkpt>
      <trkpt lat="39.743065" lon="-.368231">
        <ele>259.923</ele>
        <time>2020-08-30T13:04:07Z</time>
      </trkpt>
      <trkpt lat="39.743015" lon="-.368219">
        <ele>259.821</ele>
        <time>2020-08-30T13:04:08Z</time>
      </trkpt>
      <trkpt lat="39.74297" lon="-.368198">
        <ele>259.781</ele>
        <time>2020-08-30T13:04:09Z</time>
      </trkpt>
      <trkpt lat="39.742891" lon="-.368134">
        <ele>259.314</ele>
        <time>2020-08-30T13:04:11Z</time>
      </trkpt>
      <trkpt lat="39.742853" lon="-.368087">
        <ele>259.354</ele>
        <time>2020-08-30T13:04:12Z</time>
      </trkpt>
      <trkpt lat="39.742818" lon="-.368025">
        <ele>259.109</ele>
        <time>2020-08-30T13:04:13Z</time>
      </trkpt>
      <trkpt lat="39.742794" lon="-.367964">
        <ele>259.008</ele>
        <time>2020-08-30T13:04:14Z</time>
      </trkpt>
      <trkpt lat="39.742769" lon="-.367902">
        <ele>258.886</ele>
        <time>2020-08-30T13:04:15Z</time>
      </trkpt>
      <trkpt lat="39.742751" lon="-.367828">
        <ele>258.766</ele>
        <time>2020-08-30T13:04:16Z</time>
      </trkpt>
      <trkpt lat="39.742739" lon="-.36775">
        <ele>258.358</ele>
        <time>2020-08-30T13:04:17Z</time>
      </trkpt>
      <trkpt lat="39.742744" lon="-.367678">
        <ele>258.120</ele>
        <time>2020-08-30T13:04:18Z</time>
      </trkpt>
      <trkpt lat="39.742747" lon="-.367601">
        <ele>257.628</ele>
        <time>2020-08-30T13:04:19Z</time>
      </trkpt>
      <trkpt lat="39.742738" lon="-.367523">
        <ele>257.345</ele>
        <time>2020-08-30T13:04:20Z</time>
      </trkpt>
      <trkpt lat="39.742725" lon="-.367445">
        <ele>256.933</ele>
        <time>2020-08-30T13:04:21Z</time>
      </trkpt>
      <trkpt lat="39.742707" lon="-.367363">
        <ele>256.663</ele>
        <time>2020-08-30T13:04:22Z</time>
      </trkpt>
      <trkpt lat="39.742684" lon="-.367284">
        <ele>256.332</ele>
        <time>2020-08-30T13:04:23Z</time>
      </trkpt>
      <trkpt lat="39.74266" lon="-.36721">
        <ele>255.992</ele>
        <time>2020-08-30T13:04:24Z</time>
      </trkpt>
      <trkpt lat="39.742642" lon="-.367135">
        <ele>255.611</ele>
        <time>2020-08-30T13:04:25Z</time>
      </trkpt>
      <trkpt lat="39.742613" lon="-.367077">
        <ele>255.108</ele>
        <time>2020-08-30T13:04:26Z</time>
      </trkpt>
      <trkpt lat="39.742568" lon="-.367005">
        <ele>254.658</ele>
        <time>2020-08-30T13:04:27Z</time>
      </trkpt>
      <trkpt lat="39.742518" lon="-.366959">
        <ele>254.038</ele>
        <time>2020-08-30T13:04:28Z</time>
      </trkpt>
      <trkpt lat="39.742463" lon="-.366938">
        <ele>253.510</ele>
        <time>2020-08-30T13:04:29Z</time>
      </trkpt>
      <trkpt lat="39.742417" lon="-.366938">
        <ele>252.982</ele>
        <time>2020-08-30T13:04:30Z</time>
      </trkpt>
      <trkpt lat="39.742357" lon="-.366927">
        <ele>251.930</ele>
        <time>2020-08-30T13:04:32Z</time>
      </trkpt>
      <trkpt lat="39.742286" lon="-.366928">
        <ele>251.327</ele>
        <time>2020-08-30T13:04:34Z</time>
      </trkpt>
      <trkpt lat="39.742211" lon="-.366941">
        <ele>250.915</ele>
        <time>2020-08-30T13:04:36Z</time>
      </trkpt>
      <trkpt lat="39.742159" lon="-.366957">
        <ele>250.115</ele>
        <time>2020-08-30T13:04:38Z</time>
      </trkpt>
      <trkpt lat="39.74209" lon="-.367011">
        <ele>249.756</ele>
        <time>2020-08-30T13:04:40Z</time>
      </trkpt>
      <trkpt lat="39.742048" lon="-.367034">
        <ele>249.559</ele>
        <time>2020-08-30T13:04:41Z</time>
      </trkpt>
      <trkpt lat="39.741971" lon="-.367089">
        <ele>249.214</ele>
        <time>2020-08-30T13:04:43Z</time>
      </trkpt>
      <trkpt lat="39.741895" lon="-.36715">
        <ele>248.908</ele>
        <time>2020-08-30T13:04:45Z</time>
      </trkpt>
      <trkpt lat="39.74182" lon="-.367208">
        <ele>248.830</ele>
        <time>2020-08-30T13:04:47Z</time>
      </trkpt>
      <trkpt lat="39.741778" lon="-.367244">
        <ele>248.880</ele>
        <time>2020-08-30T13:04:48Z</time>
      </trkpt>
      <trkpt lat="39.741699" lon="-.367309">
        <ele>248.912</ele>
        <time>2020-08-30T13:04:50Z</time>
      </trkpt>
      <trkpt lat="39.741621" lon="-.36736">
        <ele>249.084</ele>
        <time>2020-08-30T13:04:52Z</time>
      </trkpt>
      <trkpt lat="39.741553" lon="-.367401">
        <ele>248.872</ele>
        <time>2020-08-30T13:04:54Z</time>
      </trkpt>
      <trkpt lat="39.741483" lon="-.36739">
        <ele>248.559</ele>
        <time>2020-08-30T13:04:56Z</time>
      </trkpt>
      <trkpt lat="39.741415" lon="-.367379">
        <ele>248.437</ele>
        <time>2020-08-30T13:04:58Z</time>
      </trkpt>
      <trkpt lat="39.741346" lon="-.36742">
        <ele>248.227</ele>
        <time>2020-08-30T13:05:00Z</time>
      </trkpt>
      <trkpt lat="39.741275" lon="-.367454">
        <ele>247.921</ele>
        <time>2020-08-30T13:05:02Z</time>
      </trkpt>
      <trkpt lat="39.741218" lon="-.36746">
        <ele>247.741</ele>
        <time>2020-08-30T13:05:05Z</time>
      </trkpt>
      <trkpt lat="39.741177" lon="-.367435">
        <ele>246.705</ele>
        <time>2020-08-30T13:05:17Z</time>
      </trkpt>
      <trkpt lat="39.741122" lon="-.367444">
        <ele>246.908</ele>
        <time>2020-08-30T13:05:20Z</time>
      </trkpt>
      <trkpt lat="39.741084" lon="-.367504">
        <ele>247.257</ele>
        <time>2020-08-30T13:05:23Z</time>
      </trkpt>
      <trkpt lat="39.741072" lon="-.367573">
        <ele>247.577</ele>
        <time>2020-08-30T13:05:25Z</time>
      </trkpt>
      <trkpt lat="39.741061" lon="-.367665">
        <ele>247.679</ele>
        <time>2020-08-30T13:05:27Z</time>
      </trkpt>
      <trkpt lat="39.74104" lon="-.367753">
        <ele>247.681</ele>
        <time>2020-08-30T13:05:29Z</time>
      </trkpt>
      <trkpt lat="39.741024" lon="-.367837">
        <ele>247.739</ele>
        <time>2020-08-30T13:05:31Z</time>
      </trkpt>
      <trkpt lat="39.741012" lon="-.367914">
        <ele>247.816</ele>
        <time>2020-08-30T13:05:33Z</time>
      </trkpt>
      <trkpt lat="39.740999" lon="-.367981">
        <ele>247.864</ele>
        <time>2020-08-30T13:05:35Z</time>
      </trkpt>
      <trkpt lat="39.740993" lon="-.368065">
        <ele>247.964</ele>
        <time>2020-08-30T13:05:37Z</time>
      </trkpt>
      <trkpt lat="39.740999" lon="-.368145">
        <ele>248.075</ele>
        <time>2020-08-30T13:05:39Z</time>
      </trkpt>
      <trkpt lat="39.741002" lon="-.36822">
        <ele>247.828</ele>
        <time>2020-08-30T13:05:41Z</time>
      </trkpt>
      <trkpt lat="39.74101" lon="-.368298">
        <ele>247.820</ele>
        <time>2020-08-30T13:05:43Z</time>
      </trkpt>
      <trkpt lat="39.741015" lon="-.368373">
        <ele>247.908</ele>
        <time>2020-08-30T13:05:45Z</time>
      </trkpt>
      <trkpt lat="39.741009" lon="-.36845">
        <ele>247.912</ele>
        <time>2020-08-30T13:05:47Z</time>
      </trkpt>
      <trkpt lat="39.740999" lon="-.368537">
        <ele>247.962</ele>
        <time>2020-08-30T13:05:48Z</time>
      </trkpt>
      <trkpt lat="39.741002" lon="-.368609">
        <ele>248.144</ele>
        <time>2020-08-30T13:05:51Z</time>
      </trkpt>
      <trkpt lat="39.741" lon="-.368672">
        <ele>248.396</ele>
        <time>2020-08-30T13:05:53Z</time>
      </trkpt>
      <trkpt lat="39.740992" lon="-.368747">
        <ele>249.094</ele>
        <time>2020-08-30T13:05:56Z</time>
      </trkpt>
      <trkpt lat="39.740973" lon="-.368808">
        <ele>249.621</ele>
        <time>2020-08-30T13:05:59Z</time>
      </trkpt>
      <trkpt lat="39.74095" lon="-.368882">
        <ele>250.239</ele>
        <time>2020-08-30T13:06:03Z</time>
      </trkpt>
      <trkpt lat="39.740917" lon="-.368933">
        <ele>250.829</ele>
        <time>2020-08-30T13:06:06Z</time>
      </trkpt>
      <trkpt lat="39.740893" lon="-.36899">
        <ele>251.693</ele>
        <time>2020-08-30T13:06:09Z</time>
      </trkpt>
      <trkpt lat="39.740862" lon="-.369038">
        <ele>252.465</ele>
        <time>2020-08-30T13:06:12Z</time>
      </trkpt>
      <trkpt lat="39.740836" lon="-.369112">
        <ele>253.021</ele>
        <time>2020-08-30T13:06:15Z</time>
      </trkpt>
      <trkpt lat="39.740795" lon="-.369158">
        <ele>253.408</ele>
        <time>2020-08-30T13:06:18Z</time>
      </trkpt>
      <trkpt lat="39.74076" lon="-.369213">
        <ele>254.144</ele>
        <time>2020-08-30T13:06:21Z</time>
      </trkpt>
      <trkpt lat="39.740716" lon="-.369257">
        <ele>254.784</ele>
        <time>2020-08-30T13:06:24Z</time>
      </trkpt>
      <trkpt lat="39.740681" lon="-.369313">
        <ele>255.666</ele>
        <time>2020-08-30T13:06:27Z</time>
      </trkpt>
      <trkpt lat="39.740642" lon="-.369371">
        <ele>256.138</ele>
        <time>2020-08-30T13:06:30Z</time>
      </trkpt>
      <trkpt lat="39.740612" lon="-.369433">
        <ele>256.786</ele>
        <time>2020-08-30T13:06:33Z</time>
      </trkpt>
      <trkpt lat="39.74057" lon="-.369476">
        <ele>257.613</ele>
        <time>2020-08-30T13:06:36Z</time>
      </trkpt>
      <trkpt lat="39.740529" lon="-.369514">
        <ele>258.391</ele>
        <time>2020-08-30T13:06:39Z</time>
      </trkpt>
      <trkpt lat="39.740474" lon="-.369532">
        <ele>258.851</ele>
        <time>2020-08-30T13:06:42Z</time>
      </trkpt>
      <trkpt lat="39.740431" lon="-.369512">
        <ele>259.238</ele>
        <time>2020-08-30T13:06:45Z</time>
      </trkpt>
      <trkpt lat="39.740382" lon="-.369492">
        <ele>259.370</ele>
        <time>2020-08-30T13:06:48Z</time>
      </trkpt>
      <trkpt lat="39.74035" lon="-.369431">
        <ele>259.417</ele>
        <time>2020-08-30T13:06:51Z</time>
      </trkpt>
      <trkpt lat="39.740307" lon="-.369373">
        <ele>259.408</ele>
        <time>2020-08-30T13:06:54Z</time>
      </trkpt>
      <trkpt lat="39.740286" lon="-.369319">
        <ele>259.248</ele>
        <time>2020-08-30T13:06:56Z</time>
      </trkpt>
      <trkpt lat="39.740228" lon="-.369224">
        <ele>258.688</ele>
        <time>2020-08-30T13:06:58Z</time>
      </trkpt>
      <trkpt lat="39.740189" lon="-.369162">
        <ele>258.220</ele>
        <time>2020-08-30T13:06:59Z</time>
      </trkpt>
      <trkpt lat="39.740152" lon="-.369106">
        <ele>258.122</ele>
        <time>2020-08-30T13:07:00Z</time>
      </trkpt>
      <trkpt lat="39.740117" lon="-.369055">
        <ele>257.690</ele>
        <time>2020-08-30T13:07:01Z</time>
      </trkpt>
      <trkpt lat="39.740088" lon="-.369006">
        <ele>257.627</ele>
        <time>2020-08-30T13:07:02Z</time>
      </trkpt>
      <trkpt lat="39.740022" lon="-.368932">
        <ele>257.195</ele>
        <time>2020-08-30T13:07:04Z</time>
      </trkpt>
      <trkpt lat="39.739975" lon="-.368922">
        <ele>256.765</ele>
        <time>2020-08-30T13:07:05Z</time>
      </trkpt>
      <trkpt lat="39.739931" lon="-.36894">
        <ele>256.575</ele>
        <time>2020-08-30T13:07:06Z</time>
      </trkpt>
      <trkpt lat="39.739885" lon="-.368983">
        <ele>256.228</ele>
        <time>2020-08-30T13:07:07Z</time>
      </trkpt>
      <trkpt lat="39.739812" lon="-.369031">
        <ele>255.920</ele>
        <time>2020-08-30T13:07:09Z</time>
      </trkpt>
      <trkpt lat="39.739742" lon="-.36908">
        <ele>255.908</ele>
        <time>2020-08-30T13:07:11Z</time>
      </trkpt>
      <trkpt lat="39.739674" lon="-.369133">
        <ele>255.932</ele>
        <time>2020-08-30T13:07:13Z</time>
      </trkpt>
      <trkpt lat="39.739606" lon="-.369177">
        <ele>255.922</ele>
        <time>2020-08-30T13:07:15Z</time>
      </trkpt>
      <trkpt lat="39.739571" lon="-.369214">
        <ele>255.934</ele>
        <time>2020-08-30T13:07:16Z</time>
      </trkpt>
      <trkpt lat="39.73951" lon="-.36926">
        <ele>255.766</ele>
        <time>2020-08-30T13:07:18Z</time>
      </trkpt>
      <trkpt lat="39.739434" lon="-.369319">
        <ele>255.524</ele>
        <time>2020-08-30T13:07:20Z</time>
      </trkpt>
      <trkpt lat="39.739374" lon="-.36934">
        <ele>255.171</ele>
        <time>2020-08-30T13:07:22Z</time>
      </trkpt>
      <trkpt lat="39.739312" lon="-.36936">
        <ele>254.519</ele>
        <time>2020-08-30T13:07:24Z</time>
      </trkpt>
      <trkpt lat="39.739236" lon="-.369347">
        <ele>254.159</ele>
        <time>2020-08-30T13:07:26Z</time>
      </trkpt>
      <trkpt lat="39.739194" lon="-.369327">
        <ele>254.152</ele>
        <time>2020-08-30T13:07:27Z</time>
      </trkpt>
      <trkpt lat="39.739111" lon="-.369279">
        <ele>253.753</ele>
        <time>2020-08-30T13:07:29Z</time>
      </trkpt>
      <trkpt lat="39.739037" lon="-.36922">
        <ele>253.008</ele>
        <time>2020-08-30T13:07:31Z</time>
      </trkpt>
      <trkpt lat="39.738994" lon="-.369189">
        <ele>253.008</ele>
        <time>2020-08-30T13:07:32Z</time>
      </trkpt>
      <trkpt lat="39.738954" lon="-.369147">
        <ele>252.850</ele>
        <time>2020-08-30T13:07:33Z</time>
      </trkpt>
      <trkpt lat="39.738904" lon="-.369111">
        <ele>252.750</ele>
        <time>2020-08-30T13:07:34Z</time>
      </trkpt>
      <trkpt lat="39.738854" lon="-.369073">
        <ele>252.532</ele>
        <time>2020-08-30T13:07:35Z</time>
      </trkpt>
      <trkpt lat="39.738787" lon="-.369057">
        <ele>252.234</ele>
        <time>2020-08-30T13:07:36Z</time>
      </trkpt>
      <trkpt lat="39.738715" lon="-.369051">
        <ele>251.782</ele>
        <time>2020-08-30T13:07:37Z</time>
      </trkpt>
      <trkpt lat="39.738643" lon="-.369064">
        <ele>251.389</ele>
        <time>2020-08-30T13:07:38Z</time>
      </trkpt>
      <trkpt lat="39.738572" lon="-.369103">
        <ele>250.897</ele>
        <time>2020-08-30T13:07:39Z</time>
      </trkpt>
      <trkpt lat="39.738506" lon="-.369146">
        <ele>250.487</ele>
        <time>2020-08-30T13:07:40Z</time>
      </trkpt>
      <trkpt lat="39.738438" lon="-.36918">
        <ele>250.019</ele>
        <time>2020-08-30T13:07:41Z</time>
      </trkpt>
      <trkpt lat="39.738365" lon="-.369214">
        <ele>249.509</ele>
        <time>2020-08-30T13:07:42Z</time>
      </trkpt>
      <trkpt lat="39.738289" lon="-.369257">
        <ele>249.319</ele>
        <time>2020-08-30T13:07:43Z</time>
      </trkpt>
      <trkpt lat="39.738219" lon="-.369277">
        <ele>249.108</ele>
        <time>2020-08-30T13:07:44Z</time>
      </trkpt>
      <trkpt lat="39.73815" lon="-.369322">
        <ele>248.946</ele>
        <time>2020-08-30T13:07:45Z</time>
      </trkpt>
      <trkpt lat="39.738083" lon="-.369356">
        <ele>248.856</ele>
        <time>2020-08-30T13:07:46Z</time>
      </trkpt>
      <trkpt lat="39.738019" lon="-.369395">
        <ele>248.788</ele>
        <time>2020-08-30T13:07:47Z</time>
      </trkpt>
      <trkpt lat="39.73796" lon="-.369419">
        <ele>248.620</ele>
        <time>2020-08-30T13:07:48Z</time>
      </trkpt>
      <trkpt lat="39.737896" lon="-.369455">
        <ele>248.558</ele>
        <time>2020-08-30T13:07:49Z</time>
      </trkpt>
      <trkpt lat="39.737831" lon="-.369499">
        <ele>248.445</ele>
        <time>2020-08-30T13:07:50Z</time>
      </trkpt>
      <trkpt lat="39.737769" lon="-.369543">
        <ele>248.053</ele>
        <time>2020-08-30T13:07:51Z</time>
      </trkpt>
      <trkpt lat="39.737708" lon="-.369585">
        <ele>248.023</ele>
        <time>2020-08-30T13:07:52Z</time>
      </trkpt>
      <trkpt lat="39.737648" lon="-.369625">
        <ele>247.916</ele>
        <time>2020-08-30T13:07:53Z</time>
      </trkpt>
      <trkpt lat="39.737587" lon="-.369658">
        <ele>247.676</ele>
        <time>2020-08-30T13:07:54Z</time>
      </trkpt>
      <trkpt lat="39.737529" lon="-.369699">
        <ele>247.413</ele>
        <time>2020-08-30T13:07:55Z</time>
      </trkpt>
      <trkpt lat="39.73747" lon="-.369741">
        <ele>247.208</ele>
        <time>2020-08-30T13:07:56Z</time>
      </trkpt>
      <trkpt lat="39.737411" lon="-.36979">
        <ele>247.016</ele>
        <time>2020-08-30T13:07:57Z</time>
      </trkpt>
      <trkpt lat="39.737348" lon="-.369841">
        <ele>246.866</ele>
        <time>2020-08-30T13:07:58Z</time>
      </trkpt>
      <trkpt lat="39.737286" lon="-.369884">
        <ele>246.768</ele>
        <time>2020-08-30T13:07:59Z</time>
      </trkpt>
      <trkpt lat="39.737226" lon="-.36993">
        <ele>246.530</ele>
        <time>2020-08-30T13:08:00Z</time>
      </trkpt>
      <trkpt lat="39.737168" lon="-.369979">
        <ele>246.488</ele>
        <time>2020-08-30T13:08:01Z</time>
      </trkpt>
      <trkpt lat="39.737108" lon="-.370029">
        <ele>246.355</ele>
        <time>2020-08-30T13:08:02Z</time>
      </trkpt>
      <trkpt lat="39.737044" lon="-.370072">
        <ele>246.283</ele>
        <time>2020-08-30T13:08:03Z</time>
      </trkpt>
      <trkpt lat="39.736983" lon="-.370113">
        <ele>246.093</ele>
        <time>2020-08-30T13:08:04Z</time>
      </trkpt>
      <trkpt lat="39.736922" lon="-.370153">
        <ele>245.934</ele>
        <time>2020-08-30T13:08:05Z</time>
      </trkpt>
      <trkpt lat="39.736859" lon="-.3702">
        <ele>245.655</ele>
        <time>2020-08-30T13:08:06Z</time>
      </trkpt>
      <trkpt lat="39.736799" lon="-.370249">
        <ele>245.410</ele>
        <time>2020-08-30T13:08:07Z</time>
      </trkpt>
      <trkpt lat="39.736739" lon="-.370297">
        <ele>245.108</ele>
        <time>2020-08-30T13:08:08Z</time>
      </trkpt>
      <trkpt lat="39.736675" lon="-.370337">
        <ele>244.948</ele>
        <time>2020-08-30T13:08:09Z</time>
      </trkpt>
      <trkpt lat="39.736611" lon="-.370385">
        <ele>244.868</ele>
        <time>2020-08-30T13:08:10Z</time>
      </trkpt>
      <trkpt lat="39.736549" lon="-.370433">
        <ele>244.640</ele>
        <time>2020-08-30T13:08:11Z</time>
      </trkpt>
      <trkpt lat="39.736489" lon="-.370484">
        <ele>244.662</ele>
        <time>2020-08-30T13:08:12Z</time>
      </trkpt>
      <trkpt lat="39.736428" lon="-.37053">
        <ele>244.410</ele>
        <time>2020-08-30T13:08:13Z</time>
      </trkpt>
      <trkpt lat="39.736369" lon="-.370572">
        <ele>244.447</ele>
        <time>2020-08-30T13:08:14Z</time>
      </trkpt>
      <trkpt lat="39.736312" lon="-.370619">
        <ele>244.355</ele>
        <time>2020-08-30T13:08:15Z</time>
      </trkpt>
      <trkpt lat="39.736253" lon="-.370663">
        <ele>244.335</ele>
        <time>2020-08-30T13:08:16Z</time>
      </trkpt>
      <trkpt lat="39.736197" lon="-.37071">
        <ele>244.228</ele>
        <time>2020-08-30T13:08:17Z</time>
      </trkpt>
      <trkpt lat="39.736138" lon="-.370756">
        <ele>244.289</ele>
        <time>2020-08-30T13:08:18Z</time>
      </trkpt>
      <trkpt lat="39.736082" lon="-.370797">
        <ele>244.117</ele>
        <time>2020-08-30T13:08:19Z</time>
      </trkpt>
      <trkpt lat="39.736026" lon="-.370844">
        <ele>243.908</ele>
        <time>2020-08-30T13:08:20Z</time>
      </trkpt>
      <trkpt lat="39.735969" lon="-.370892">
        <ele>243.627</ele>
        <time>2020-08-30T13:08:21Z</time>
      </trkpt>
      <trkpt lat="39.735912" lon="-.370936">
        <ele>243.527</ele>
        <time>2020-08-30T13:08:22Z</time>
      </trkpt>
      <trkpt lat="39.735857" lon="-.370977">
        <ele>243.219</ele>
        <time>2020-08-30T13:08:23Z</time>
      </trkpt>
      <trkpt lat="39.735802" lon="-.371021">
        <ele>243.021</ele>
        <time>2020-08-30T13:08:24Z</time>
      </trkpt>
      <trkpt lat="39.735746" lon="-.371064">
        <ele>242.879</ele>
        <time>2020-08-30T13:08:25Z</time>
      </trkpt>
      <trkpt lat="39.735689" lon="-.371107">
        <ele>242.696</ele>
        <time>2020-08-30T13:08:26Z</time>
      </trkpt>
      <trkpt lat="39.735634" lon="-.371153">
        <ele>242.324</ele>
        <time>2020-08-30T13:08:27Z</time>
      </trkpt>
      <trkpt lat="39.735578" lon="-.371197">
        <ele>242.184</ele>
        <time>2020-08-30T13:08:28Z</time>
      </trkpt>
      <trkpt lat="39.735523" lon="-.371242">
        <ele>241.948</ele>
        <time>2020-08-30T13:08:29Z</time>
      </trkpt>
      <trkpt lat="39.735467" lon="-.371286">
        <ele>241.761</ele>
        <time>2020-08-30T13:08:30Z</time>
      </trkpt>
      <trkpt lat="39.735409" lon="-.371327">
        <ele>241.517</ele>
        <time>2020-08-30T13:08:31Z</time>
      </trkpt>
      <trkpt lat="39.735353" lon="-.371369">
        <ele>241.408</ele>
        <time>2020-08-30T13:08:32Z</time>
      </trkpt>
      <trkpt lat="39.735297" lon="-.371408">
        <ele>241.339</ele>
        <time>2020-08-30T13:08:33Z</time>
      </trkpt>
      <trkpt lat="39.735242" lon="-.371447">
        <ele>241.149</ele>
        <time>2020-08-30T13:08:34Z</time>
      </trkpt>
      <trkpt lat="39.735191" lon="-.371486">
        <ele>241.021</ele>
        <time>2020-08-30T13:08:35Z</time>
      </trkpt>
      <trkpt lat="39.735139" lon="-.371527">
        <ele>240.943</ele>
        <time>2020-08-30T13:08:36Z</time>
      </trkpt>
      <trkpt lat="39.735085" lon="-.371567">
        <ele>240.731</ele>
        <time>2020-08-30T13:08:37Z</time>
      </trkpt>
      <trkpt lat="39.735028" lon="-.371605">
        <ele>240.538</ele>
        <time>2020-08-30T13:08:38Z</time>
      </trkpt>
      <trkpt lat="39.734973" lon="-.371647">
        <ele>240.436</ele>
        <time>2020-08-30T13:08:39Z</time>
      </trkpt>
      <trkpt lat="39.734919" lon="-.371689">
        <ele>240.376</ele>
        <time>2020-08-30T13:08:40Z</time>
      </trkpt>
      <trkpt lat="39.734864" lon="-.37173">
        <ele>240.323</ele>
        <time>2020-08-30T13:08:41Z</time>
      </trkpt>
      <trkpt lat="39.734811" lon="-.371765">
        <ele>240.383</ele>
        <time>2020-08-30T13:08:42Z</time>
      </trkpt>
      <trkpt lat="39.734753" lon="-.371809">
        <ele>240.211</ele>
        <time>2020-08-30T13:08:43Z</time>
      </trkpt>
      <trkpt lat="39.734697" lon="-.37185">
        <ele>240.108</ele>
        <time>2020-08-30T13:08:44Z</time>
      </trkpt>
      <trkpt lat="39.734641" lon="-.37189">
        <ele>240.017</ele>
        <time>2020-08-30T13:08:45Z</time>
      </trkpt>
      <trkpt lat="39.734587" lon="-.371933">
        <ele>239.967</ele>
        <time>2020-08-30T13:08:46Z</time>
      </trkpt>
      <trkpt lat="39.734534" lon="-.371973">
        <ele>239.969</ele>
        <time>2020-08-30T13:08:47Z</time>
      </trkpt>
      <trkpt lat="39.73448" lon="-.372012">
        <ele>239.881</ele>
        <time>2020-08-30T13:08:48Z</time>
      </trkpt>
      <trkpt lat="39.734427" lon="-.372048">
        <ele>239.779</ele>
        <time>2020-08-30T13:08:49Z</time>
      </trkpt>
      <trkpt lat="39.734378" lon="-.372088">
        <ele>239.596</ele>
        <time>2020-08-30T13:08:50Z</time>
      </trkpt>
      <trkpt lat="39.734326" lon="-.372127">
        <ele>239.534</ele>
        <time>2020-08-30T13:08:51Z</time>
      </trkpt>
      <trkpt lat="39.734275" lon="-.372163">
        <ele>239.534</ele>
        <time>2020-08-30T13:08:52Z</time>
      </trkpt>
      <trkpt lat="39.734222" lon="-.372198">
        <ele>239.388</ele>
        <time>2020-08-30T13:08:53Z</time>
      </trkpt>
      <trkpt lat="39.73417" lon="-.372233">
        <ele>239.324</ele>
        <time>2020-08-30T13:08:54Z</time>
      </trkpt>
      <trkpt lat="39.73412" lon="-.372269">
        <ele>239.326</ele>
        <time>2020-08-30T13:08:55Z</time>
      </trkpt>
      <trkpt lat="39.734071" lon="-.372308">
        <ele>239.208</ele>
        <time>2020-08-30T13:08:56Z</time>
      </trkpt>
      <trkpt lat="39.734022" lon="-.372345">
        <ele>239.243</ele>
        <time>2020-08-30T13:08:57Z</time>
      </trkpt>
      <trkpt lat="39.733972" lon="-.372378">
        <ele>239.193</ele>
        <time>2020-08-30T13:08:58Z</time>
      </trkpt>
      <trkpt lat="39.733919" lon="-.372409">
        <ele>238.915</ele>
        <time>2020-08-30T13:08:59Z</time>
      </trkpt>
      <trkpt lat="39.733869" lon="-.372439">
        <ele>238.717</ele>
        <time>2020-08-30T13:09:00Z</time>
      </trkpt>
      <trkpt lat="39.733819" lon="-.37247">
        <ele>238.645</ele>
        <time>2020-08-30T13:09:01Z</time>
      </trkpt>
      <trkpt lat="39.733771" lon="-.372503">
        <ele>238.362</ele>
        <time>2020-08-30T13:09:02Z</time>
      </trkpt>
      <trkpt lat="39.733722" lon="-.372539">
        <ele>238.220</ele>
        <time>2020-08-30T13:09:03Z</time>
      </trkpt>
      <trkpt lat="39.73367" lon="-.372572">
        <ele>238.120</ele>
        <time>2020-08-30T13:09:04Z</time>
      </trkpt>
      <trkpt lat="39.733619" lon="-.372603">
        <ele>238.086</ele>
        <time>2020-08-30T13:09:05Z</time>
      </trkpt>
      <trkpt lat="39.733566" lon="-.372631">
        <ele>237.860</ele>
        <time>2020-08-30T13:09:06Z</time>
      </trkpt>
      <trkpt lat="39.733514" lon="-.37266">
        <ele>237.826</ele>
        <time>2020-08-30T13:09:07Z</time>
      </trkpt>
      <trkpt lat="39.733464" lon="-.372687">
        <ele>237.708</ele>
        <time>2020-08-30T13:09:08Z</time>
      </trkpt>
      <trkpt lat="39.733414" lon="-.372719">
        <ele>237.763</ele>
        <time>2020-08-30T13:09:09Z</time>
      </trkpt>
      <trkpt lat="39.733364" lon="-.37275">
        <ele>237.773</ele>
        <time>2020-08-30T13:09:10Z</time>
      </trkpt>
      <trkpt lat="39.733315" lon="-.37278">
        <ele>237.555</ele>
        <time>2020-08-30T13:09:11Z</time>
      </trkpt>
      <trkpt lat="39.733265" lon="-.372807">
        <ele>237.497</ele>
        <time>2020-08-30T13:09:12Z</time>
      </trkpt>
      <trkpt lat="39.733211" lon="-.372824">
        <ele>237.315</ele>
        <time>2020-08-30T13:09:13Z</time>
      </trkpt>
      <trkpt lat="39.733157" lon="-.372854">
        <ele>237.112</ele>
        <time>2020-08-30T13:09:14Z</time>
      </trkpt>
      <trkpt lat="39.733106" lon="-.372877">
        <ele>237.010</ele>
        <time>2020-08-30T13:09:15Z</time>
      </trkpt>
      <trkpt lat="39.733057" lon="-.372895">
        <ele>236.960</ele>
        <time>2020-08-30T13:09:16Z</time>
      </trkpt>
      <trkpt lat="39.733011" lon="-.372919">
        <ele>236.917</ele>
        <time>2020-08-30T13:09:17Z</time>
      </trkpt>
      <trkpt lat="39.732965" lon="-.37295">
        <ele>236.987</ele>
        <time>2020-08-30T13:09:18Z</time>
      </trkpt>
      <trkpt lat="39.732915" lon="-.372971">
        <ele>236.915</ele>
        <time>2020-08-30T13:09:19Z</time>
      </trkpt>
      <trkpt lat="39.732868" lon="-.37299">
        <ele>236.808</ele>
        <time>2020-08-30T13:09:20Z</time>
      </trkpt>
      <trkpt lat="39.732822" lon="-.373014">
        <ele>236.876</ele>
        <time>2020-08-30T13:09:21Z</time>
      </trkpt>
      <trkpt lat="39.732776" lon="-.373038">
        <ele>236.746</ele>
        <time>2020-08-30T13:09:22Z</time>
      </trkpt>
      <trkpt lat="39.732729" lon="-.373064">
        <ele>236.558</ele>
        <time>2020-08-30T13:09:23Z</time>
      </trkpt>
      <trkpt lat="39.732681" lon="-.373082">
        <ele>236.450</ele>
        <time>2020-08-30T13:09:24Z</time>
      </trkpt>
      <trkpt lat="39.732632" lon="-.373105">
        <ele>236.358</ele>
        <time>2020-08-30T13:09:25Z</time>
      </trkpt>
      <trkpt lat="39.732581" lon="-.373133">
        <ele>236.245</ele>
        <time>2020-08-30T13:09:26Z</time>
      </trkpt>
      <trkpt lat="39.732528" lon="-.373177">
        <ele>236.273</ele>
        <time>2020-08-30T13:09:27Z</time>
      </trkpt>
      <trkpt lat="39.732475" lon="-.37319">
        <ele>236.183</ele>
        <time>2020-08-30T13:09:28Z</time>
      </trkpt>
      <trkpt lat="39.732421" lon="-.373203">
        <ele>236.031</ele>
        <time>2020-08-30T13:09:29Z</time>
      </trkpt>
      <trkpt lat="39.732363" lon="-.373222">
        <ele>236.061</ele>
        <time>2020-08-30T13:09:30Z</time>
      </trkpt>
      <trkpt lat="39.732302" lon="-.373241">
        <ele>235.807</ele>
        <time>2020-08-30T13:09:31Z</time>
      </trkpt>
      <trkpt lat="39.73224" lon="-.373254">
        <ele>235.808</ele>
        <time>2020-08-30T13:09:32Z</time>
      </trkpt>
      <trkpt lat="39.732179" lon="-.373254">
        <ele>235.598</ele>
        <time>2020-08-30T13:09:33Z</time>
      </trkpt>
      <trkpt lat="39.732119" lon="-.373261">
        <ele>235.418</ele>
        <time>2020-08-30T13:09:34Z</time>
      </trkpt>
      <trkpt lat="39.73206" lon="-.373265">
        <ele>235.220</ele>
        <time>2020-08-30T13:09:35Z</time>
      </trkpt>
      <trkpt lat="39.732001" lon="-.373269">
        <ele>235.032</ele>
        <time>2020-08-30T13:09:36Z</time>
      </trkpt>
      <trkpt lat="39.731949" lon="-.37327">
        <ele>234.810</ele>
        <time>2020-08-30T13:09:37Z</time>
      </trkpt>
      <trkpt lat="39.731903" lon="-.373268">
        <ele>234.677</ele>
        <time>2020-08-30T13:09:38Z</time>
      </trkpt>
      <trkpt lat="39.731817" lon="-.373249">
        <ele>234.075</ele>
        <time>2020-08-30T13:09:40Z</time>
      </trkpt>
      <trkpt lat="39.731773" lon="-.373225">
        <ele>233.835</ele>
        <time>2020-08-30T13:09:41Z</time>
      </trkpt>
      <trkpt lat="39.731729" lon="-.373189">
        <ele>233.621</ele>
        <time>2020-08-30T13:09:42Z</time>
      </trkpt>
      <trkpt lat="39.731691" lon="-.373142">
        <ele>233.441</ele>
        <time>2020-08-30T13:09:43Z</time>
      </trkpt>
      <trkpt lat="39.731661" lon="-.373094">
        <ele>233.105</ele>
        <time>2020-08-30T13:09:44Z</time>
      </trkpt>
      <trkpt lat="39.731604" lon="-.373007">
        <ele>232.608</ele>
        <time>2020-08-30T13:09:46Z</time>
      </trkpt>
      <trkpt lat="39.731561" lon="-.372891">
        <ele>232.247</ele>
        <time>2020-08-30T13:09:48Z</time>
      </trkpt>
      <trkpt lat="39.731575" lon="-.372831">
        <ele>232.097</ele>
        <time>2020-08-30T13:09:49Z</time>
      </trkpt>
      <trkpt lat="39.731542" lon="-.372779">
        <ele>231.569</ele>
        <time>2020-08-30T13:09:51Z</time>
      </trkpt>
      <trkpt lat="39.731488" lon="-.372751">
        <ele>231.611</ele>
        <time>2020-08-30T13:09:53Z</time>
      </trkpt>
      <trkpt lat="39.731422" lon="-.372748">
        <ele>232.919</ele>
        <time>2020-08-30T13:09:57Z</time>
      </trkpt>
      <trkpt lat="39.731372" lon="-.372755">
        <ele>233.486</ele>
        <time>2020-08-30T13:09:59Z</time>
      </trkpt>
      <trkpt lat="39.731309" lon="-.372741">
        <ele>233.854</ele>
        <time>2020-08-30T13:10:02Z</time>
      </trkpt>
      <trkpt lat="39.731259" lon="-.372742">
        <ele>234.044</ele>
        <time>2020-08-30T13:10:04Z</time>
      </trkpt>
      <trkpt lat="39.731201" lon="-.37274">
        <ele>234.131</ele>
        <time>2020-08-30T13:10:06Z</time>
      </trkpt>
      <trkpt lat="39.731152" lon="-.372733">
        <ele>234.261</ele>
        <time>2020-08-30T13:10:09Z</time>
      </trkpt>
      <trkpt lat="39.731102" lon="-.37274">
        <ele>234.207</ele>
        <time>2020-08-30T13:10:11Z</time>
      </trkpt>
      <trkpt lat="39.731056" lon="-.372743">
        <ele>234.208</ele>
        <time>2020-08-30T13:10:13Z</time>
      </trkpt>
      <trkpt lat="39.731001" lon="-.372737">
        <ele>234.298</ele>
        <time>2020-08-30T13:10:15Z</time>
      </trkpt>
      <trkpt lat="39.730935" lon="-.372754">
        <ele>234.248</ele>
        <time>2020-08-30T13:10:17Z</time>
      </trkpt>
      <trkpt lat="39.730882" lon="-.372746">
        <ele>234.280</ele>
        <time>2020-08-30T13:10:19Z</time>
      </trkpt>
      <trkpt lat="39.730828" lon="-.372722">
        <ele>234.592</ele>
        <time>2020-08-30T13:10:22Z</time>
      </trkpt>
      <trkpt lat="39.730764" lon="-.372704">
        <ele>234.790</ele>
        <time>2020-08-30T13:10:25Z</time>
      </trkpt>
      <trkpt lat="39.730686" lon="-.372679">
        <ele>234.717</ele>
        <time>2020-08-30T13:10:27Z</time>
      </trkpt>
      <trkpt lat="39.730635" lon="-.372671">
        <ele>234.735</ele>
        <time>2020-08-30T13:10:28Z</time>
      </trkpt>
      <trkpt lat="39.730584" lon="-.372665">
        <ele>234.755</ele>
        <time>2020-08-30T13:10:29Z</time>
      </trkpt>
      <trkpt lat="39.73052" lon="-.372636">
        <ele>234.625</ele>
        <time>2020-08-30T13:10:32Z</time>
      </trkpt>
      <trkpt lat="39.730451" lon="-.372611">
        <ele>234.626</ele>
        <time>2020-08-30T13:10:34Z</time>
      </trkpt>
      <trkpt lat="39.730393" lon="-.372611">
        <ele>234.508</ele>
        <time>2020-08-30T13:10:36Z</time>
      </trkpt>
      <trkpt lat="39.730347" lon="-.37259">
        <ele>234.408</ele>
        <time>2020-08-30T13:10:38Z</time>
      </trkpt>
      <trkpt lat="39.730301" lon="-.372567">
        <ele>234.487</ele>
        <time>2020-08-30T13:10:39Z</time>
      </trkpt>
      <trkpt lat="39.730243" lon="-.37255">
        <ele>234.467</ele>
        <time>2020-08-30T13:10:40Z</time>
      </trkpt>
      <trkpt lat="39.730186" lon="-.372534">
        <ele>234.479</ele>
        <time>2020-08-30T13:10:41Z</time>
      </trkpt>
      <trkpt lat="39.730127" lon="-.372514">
        <ele>234.551</ele>
        <time>2020-08-30T13:10:42Z</time>
      </trkpt>
      <trkpt lat="39.73006" lon="-.372495">
        <ele>234.569</ele>
        <time>2020-08-30T13:10:43Z</time>
      </trkpt>
      <trkpt lat="39.729988" lon="-.372486">
        <ele>234.676</ele>
        <time>2020-08-30T13:10:44Z</time>
      </trkpt>
      <trkpt lat="39.729928" lon="-.372463">
        <ele>234.684</ele>
        <time>2020-08-30T13:10:45Z</time>
      </trkpt>
      <trkpt lat="39.729863" lon="-.372443">
        <ele>234.564</ele>
        <time>2020-08-30T13:10:46Z</time>
      </trkpt>
      <trkpt lat="39.729806" lon="-.372429">
        <ele>234.576</ele>
        <time>2020-08-30T13:10:47Z</time>
      </trkpt>
      <trkpt lat="39.729729" lon="-.372409">
        <ele>234.590</ele>
        <time>2020-08-30T13:10:48Z</time>
      </trkpt>
      <trkpt lat="39.729662" lon="-.372389">
        <ele>234.519</ele>
        <time>2020-08-30T13:10:49Z</time>
      </trkpt>
      <trkpt lat="39.729594" lon="-.372368">
        <ele>234.608</ele>
        <time>2020-08-30T13:10:50Z</time>
      </trkpt>
      <trkpt lat="39.729529" lon="-.372363">
        <ele>234.432</ele>
        <time>2020-08-30T13:10:51Z</time>
      </trkpt>
      <trkpt lat="39.729468" lon="-.372343">
        <ele>234.432</ele>
        <time>2020-08-30T13:10:52Z</time>
      </trkpt>
      <trkpt lat="39.729409" lon="-.372311">
        <ele>234.334</ele>
        <time>2020-08-30T13:10:53Z</time>
      </trkpt>
      <trkpt lat="39.729356" lon="-.37229">
        <ele>234.126</ele>
        <time>2020-08-30T13:10:54Z</time>
      </trkpt>
      <trkpt lat="39.729308" lon="-.372268">
        <ele>234.124</ele>
        <time>2020-08-30T13:10:55Z</time>
      </trkpt>
      <trkpt lat="39.729246" lon="-.372251">
        <ele>234.151</ele>
        <time>2020-08-30T13:10:56Z</time>
      </trkpt>
      <trkpt lat="39.729199" lon="-.372219">
        <ele>234.149</ele>
        <time>2020-08-30T13:10:57Z</time>
      </trkpt>
      <trkpt lat="39.729144" lon="-.372198">
        <ele>234.179</ele>
        <time>2020-08-30T13:10:58Z</time>
      </trkpt>
      <trkpt lat="39.7291" lon="-.372165">
        <ele>234.128</ele>
        <time>2020-08-30T13:10:59Z</time>
      </trkpt>
      <trkpt lat="39.72905" lon="-.372144">
        <ele>234.089</ele>
        <time>2020-08-30T13:11:00Z</time>
      </trkpt>
      <trkpt lat="39.729005" lon="-.37212">
        <ele>233.917</ele>
        <time>2020-08-30T13:11:01Z</time>
      </trkpt>
      <trkpt lat="39.728953" lon="-.372105">
        <ele>233.908</ele>
        <time>2020-08-30T13:11:02Z</time>
      </trkpt>
      <trkpt lat="39.728909" lon="-.372071">
        <ele>233.727</ele>
        <time>2020-08-30T13:11:03Z</time>
      </trkpt>
      <trkpt lat="39.728869" lon="-.372041">
        <ele>233.527</ele>
        <time>2020-08-30T13:11:04Z</time>
      </trkpt>
      <trkpt lat="39.728825" lon="-.37202">
        <ele>233.429</ele>
        <time>2020-08-30T13:11:05Z</time>
      </trkpt>
      <trkpt lat="39.728775" lon="-.371984">
        <ele>233.221</ele>
        <time>2020-08-30T13:11:06Z</time>
      </trkpt>
      <trkpt lat="39.72872" lon="-.371954">
        <ele>233.029</ele>
        <time>2020-08-30T13:11:07Z</time>
      </trkpt>
      <trkpt lat="39.728662" lon="-.371925">
        <ele>232.846</ele>
        <time>2020-08-30T13:11:08Z</time>
      </trkpt>
      <trkpt lat="39.728605" lon="-.371892">
        <ele>232.784</ele>
        <time>2020-08-30T13:11:09Z</time>
      </trkpt>
      <trkpt lat="39.728548" lon="-.371859">
        <ele>232.524</ele>
        <time>2020-08-30T13:11:10Z</time>
      </trkpt>
      <trkpt lat="39.72849" lon="-.371836">
        <ele>232.492</ele>
        <time>2020-08-30T13:11:11Z</time>
      </trkpt>
      <trkpt lat="39.728436" lon="-.371804">
        <ele>232.473</ele>
        <time>2020-08-30T13:11:12Z</time>
      </trkpt>
      <trkpt lat="39.72839" lon="-.371775">
        <ele>232.420</ele>
        <time>2020-08-30T13:11:13Z</time>
      </trkpt>
      <trkpt lat="39.728346" lon="-.37176">
        <ele>232.308</ele>
        <time>2020-08-30T13:11:14Z</time>
      </trkpt>
      <trkpt lat="39.728304" lon="-.371737">
        <ele>232.344</ele>
        <time>2020-08-30T13:11:15Z</time>
      </trkpt>
      <trkpt lat="39.728257" lon="-.371711">
        <ele>232.324</ele>
        <time>2020-08-30T13:11:16Z</time>
      </trkpt>
      <trkpt lat="39.72821" lon="-.371677">
        <ele>232.326</ele>
        <time>2020-08-30T13:11:17Z</time>
      </trkpt>
      <trkpt lat="39.728153" lon="-.371635">
        <ele>232.138</ele>
        <time>2020-08-30T13:11:18Z</time>
      </trkpt>
      <trkpt lat="39.728089" lon="-.371616">
        <ele>232.026</ele>
        <time>2020-08-30T13:11:19Z</time>
      </trkpt>
      <trkpt lat="39.728027" lon="-.371596">
        <ele>231.873</ele>
        <time>2020-08-30T13:11:20Z</time>
      </trkpt>
      <trkpt lat="39.727967" lon="-.371574">
        <ele>231.641</ele>
        <time>2020-08-30T13:11:21Z</time>
      </trkpt>
      <trkpt lat="39.72791" lon="-.371566">
        <ele>231.271</ele>
        <time>2020-08-30T13:11:22Z</time>
      </trkpt>
      <trkpt lat="39.727863" lon="-.371542">
        <ele>230.995</ele>
        <time>2020-08-30T13:11:23Z</time>
      </trkpt>
      <trkpt lat="39.7278" lon="-.371509">
        <ele>230.549</ele>
        <time>2020-08-30T13:11:24Z</time>
      </trkpt>
      <trkpt lat="39.727733" lon="-.371469">
        <ele>230.123</ele>
        <time>2020-08-30T13:11:25Z</time>
      </trkpt>
      <trkpt lat="39.727668" lon="-.371432">
        <ele>229.608</ele>
        <time>2020-08-30T13:11:26Z</time>
      </trkpt>
      <trkpt lat="39.727617" lon="-.371394">
        <ele>229.164</ele>
        <time>2020-08-30T13:11:27Z</time>
      </trkpt>
      <trkpt lat="39.727575" lon="-.371364">
        <ele>228.784</ele>
        <time>2020-08-30T13:11:28Z</time>
      </trkpt>
      <trkpt lat="39.727534" lon="-.371335">
        <ele>228.176</ele>
        <time>2020-08-30T13:11:29Z</time>
      </trkpt>
      <trkpt lat="39.727487" lon="-.371292">
        <ele>227.988</ele>
        <time>2020-08-30T13:11:30Z</time>
      </trkpt>
      <trkpt lat="39.727444" lon="-.371262">
        <ele>227.816</ele>
        <time>2020-08-30T13:11:31Z</time>
      </trkpt>
      <trkpt lat="39.727389" lon="-.371232">
        <ele>227.723</ele>
        <time>2020-08-30T13:11:32Z</time>
      </trkpt>
      <trkpt lat="39.727338" lon="-.3712">
        <ele>227.641</ele>
        <time>2020-08-30T13:11:33Z</time>
      </trkpt>
      <trkpt lat="39.727284" lon="-.371172">
        <ele>227.641</ele>
        <time>2020-08-30T13:11:34Z</time>
      </trkpt>
      <trkpt lat="39.727233" lon="-.371144">
        <ele>227.426</ele>
        <time>2020-08-30T13:11:35Z</time>
      </trkpt>
      <trkpt lat="39.727186" lon="-.371115">
        <ele>227.347</ele>
        <time>2020-08-30T13:11:36Z</time>
      </trkpt>
      <trkpt lat="39.727141" lon="-.371084">
        <ele>227.311</ele>
        <time>2020-08-30T13:11:37Z</time>
      </trkpt>
      <trkpt lat="39.72709" lon="-.371061">
        <ele>227.208</ele>
        <time>2020-08-30T13:11:38Z</time>
      </trkpt>
      <trkpt lat="39.727049" lon="-.371022">
        <ele>227.137</ele>
        <time>2020-08-30T13:11:39Z</time>
      </trkpt>
      <trkpt lat="39.72702" lon="-.37097">
        <ele>227.077</ele>
        <time>2020-08-30T13:11:40Z</time>
      </trkpt>
      <trkpt lat="39.727001" lon="-.370909">
        <ele>226.979</ele>
        <time>2020-08-30T13:11:41Z</time>
      </trkpt>
      <trkpt lat="39.726977" lon="-.370852">
        <ele>226.921</ele>
        <time>2020-08-30T13:11:42Z</time>
      </trkpt>
      <trkpt lat="39.726951" lon="-.370797">
        <ele>226.949</ele>
        <time>2020-08-30T13:11:43Z</time>
      </trkpt>
      <trkpt lat="39.726918" lon="-.370755">
        <ele>227.186</ele>
        <time>2020-08-30T13:11:44Z</time>
      </trkpt>
      <trkpt lat="39.726867" lon="-.370674">
        <ele>227.644</ele>
        <time>2020-08-30T13:11:46Z</time>
      </trkpt>
      <trkpt lat="39.726798" lon="-.370606">
        <ele>228.224</ele>
        <time>2020-08-30T13:11:48Z</time>
      </trkpt>
      <trkpt lat="39.726754" lon="-.370582">
        <ele>228.481</ele>
        <time>2020-08-30T13:11:49Z</time>
      </trkpt>
      <trkpt lat="39.726675" lon="-.370533">
        <ele>228.661</ele>
        <time>2020-08-30T13:11:51Z</time>
      </trkpt>
      <trkpt lat="39.726592" lon="-.370492">
        <ele>228.617</ele>
        <time>2020-08-30T13:11:53Z</time>
      </trkpt>
      <trkpt lat="39.726544" lon="-.370478">
        <ele>228.508</ele>
        <time>2020-08-30T13:11:54Z</time>
      </trkpt>
      <trkpt lat="39.726498" lon="-.370458">
        <ele>228.493</ele>
        <time>2020-08-30T13:11:55Z</time>
      </trkpt>
      <trkpt lat="39.726455" lon="-.370438">
        <ele>228.333</ele>
        <time>2020-08-30T13:11:56Z</time>
      </trkpt>
      <trkpt lat="39.726405" lon="-.370425">
        <ele>228.275</ele>
        <time>2020-08-30T13:11:57Z</time>
      </trkpt>
      <trkpt lat="39.726352" lon="-.37041">
        <ele>228.197</ele>
        <time>2020-08-30T13:11:58Z</time>
      </trkpt>
      <trkpt lat="39.726304" lon="-.370377">
        <ele>227.925</ele>
        <time>2020-08-30T13:11:59Z</time>
      </trkpt>
      <trkpt lat="39.726247" lon="-.370354">
        <ele>227.882</ele>
        <time>2020-08-30T13:12:00Z</time>
      </trkpt>
      <trkpt lat="39.726187" lon="-.370331">
        <ele>227.550</ele>
        <time>2020-08-30T13:12:01Z</time>
      </trkpt>
      <trkpt lat="39.726121" lon="-.370306">
        <ele>227.340</ele>
        <time>2020-08-30T13:12:02Z</time>
      </trkpt>
      <trkpt lat="39.726049" lon="-.370283">
        <ele>227.215</ele>
        <time>2020-08-30T13:12:03Z</time>
      </trkpt>
      <trkpt lat="39.725984" lon="-.370255">
        <ele>226.865</ele>
        <time>2020-08-30T13:12:04Z</time>
      </trkpt>
      <trkpt lat="39.725919" lon="-.370231">
        <ele>226.611</ele>
        <time>2020-08-30T13:12:05Z</time>
      </trkpt>
      <trkpt lat="39.725849" lon="-.370209">
        <ele>226.508</ele>
        <time>2020-08-30T13:12:06Z</time>
      </trkpt>
      <trkpt lat="39.725783" lon="-.370177">
        <ele>226.266</ele>
        <time>2020-08-30T13:12:07Z</time>
      </trkpt>
      <trkpt lat="39.725715" lon="-.370147">
        <ele>225.976</ele>
        <time>2020-08-30T13:12:08Z</time>
      </trkpt>
      <trkpt lat="39.725657" lon="-.370115">
        <ele>225.858</ele>
        <time>2020-08-30T13:12:09Z</time>
      </trkpt>
      <trkpt lat="39.725597" lon="-.370078">
        <ele>225.540</ele>
        <time>2020-08-30T13:12:10Z</time>
      </trkpt>
      <trkpt lat="39.725537" lon="-.370036">
        <ele>225.058</ele>
        <time>2020-08-30T13:12:11Z</time>
      </trkpt>
      <trkpt lat="39.72548" lon="-.369998">
        <ele>225.055</ele>
        <time>2020-08-30T13:12:12Z</time>
      </trkpt>
      <trkpt lat="39.725421" lon="-.369966">
        <ele>224.973</ele>
        <time>2020-08-30T13:12:13Z</time>
      </trkpt>
      <trkpt lat="39.725363" lon="-.369933">
        <ele>224.623</ele>
        <time>2020-08-30T13:12:14Z</time>
      </trkpt>
      <trkpt lat="39.725305" lon="-.369897">
        <ele>224.539</ele>
        <time>2020-08-30T13:12:15Z</time>
      </trkpt>
      <trkpt lat="39.725248" lon="-.369859">
        <ele>224.301</ele>
        <time>2020-08-30T13:12:16Z</time>
      </trkpt>
      <trkpt lat="39.725193" lon="-.36982">
        <ele>224.221</ele>
        <time>2020-08-30T13:12:17Z</time>
      </trkpt>
      <trkpt lat="39.725134" lon="-.369787">
        <ele>224.008</ele>
        <time>2020-08-30T13:12:18Z</time>
      </trkpt>
      <trkpt lat="39.725087" lon="-.369745">
        <ele>223.968</ele>
        <time>2020-08-30T13:12:19Z</time>
      </trkpt>
      <trkpt lat="39.725032" lon="-.369712">
        <ele>223.778</ele>
        <time>2020-08-30T13:12:20Z</time>
      </trkpt>
      <trkpt lat="39.724967" lon="-.369683">
        <ele>223.640</ele>
        <time>2020-08-30T13:12:21Z</time>
      </trkpt>
      <trkpt lat="39.724923" lon="-.36964">
        <ele>223.572</ele>
        <time>2020-08-30T13:12:22Z</time>
      </trkpt>
      <trkpt lat="39.724861" lon="-.369605">
        <ele>223.430</ele>
        <time>2020-08-30T13:12:23Z</time>
      </trkpt>
      <trkpt lat="39.724804" lon="-.369566">
        <ele>223.427</ele>
        <time>2020-08-30T13:12:24Z</time>
      </trkpt>
      <trkpt lat="39.724755" lon="-.369523">
        <ele>223.425</ele>
        <time>2020-08-30T13:12:25Z</time>
      </trkpt>
      <trkpt lat="39.7247" lon="-.369485">
        <ele>223.525</ele>
        <time>2020-08-30T13:12:26Z</time>
      </trkpt>
      <trkpt lat="39.724653" lon="-.369451">
        <ele>223.693</ele>
        <time>2020-08-30T13:12:27Z</time>
      </trkpt>
      <trkpt lat="39.724607" lon="-.369412">
        <ele>223.665</ele>
        <time>2020-08-30T13:12:28Z</time>
      </trkpt>
      <trkpt lat="39.724562" lon="-.369373">
        <ele>223.621</ele>
        <time>2020-08-30T13:12:29Z</time>
      </trkpt>
      <trkpt lat="39.724514" lon="-.369338">
        <ele>223.608</ele>
        <time>2020-08-30T13:12:30Z</time>
      </trkpt>
      <trkpt lat="39.724463" lon="-.369305">
        <ele>223.674</ele>
        <time>2020-08-30T13:12:31Z</time>
      </trkpt>
      <trkpt lat="39.724413" lon="-.369274">
        <ele>223.644</ele>
        <time>2020-08-30T13:12:32Z</time>
      </trkpt>
      <trkpt lat="39.724368" lon="-.369246">
        <ele>223.616</ele>
        <time>2020-08-30T13:12:33Z</time>
      </trkpt>
      <trkpt lat="39.724319" lon="-.369211">
        <ele>223.688</ele>
        <time>2020-08-30T13:12:34Z</time>
      </trkpt>
      <trkpt lat="39.724278" lon="-.369173">
        <ele>223.626</ele>
        <time>2020-08-30T13:12:35Z</time>
      </trkpt>
      <trkpt lat="39.724227" lon="-.369137">
        <ele>223.613</ele>
        <time>2020-08-30T13:12:36Z</time>
      </trkpt>
      <trkpt lat="39.724178" lon="-.369101">
        <ele>223.531</ele>
        <time>2020-08-30T13:12:37Z</time>
      </trkpt>
      <trkpt lat="39.724112" lon="-.369036">
        <ele>223.441</ele>
        <time>2020-08-30T13:12:39Z</time>
      </trkpt>
      <trkpt lat="39.72407" lon="-.368997">
        <ele>223.328</ele>
        <time>2020-08-30T13:12:40Z</time>
      </trkpt>
      <trkpt lat="39.724015" lon="-.36897">
        <ele>223.289</ele>
        <time>2020-08-30T13:12:41Z</time>
      </trkpt>
      <trkpt lat="39.723963" lon="-.368931">
        <ele>223.217</ele>
        <time>2020-08-30T13:12:42Z</time>
      </trkpt>
      <trkpt lat="39.723924" lon="-.368892">
        <ele>223.108</ele>
        <time>2020-08-30T13:12:43Z</time>
      </trkpt>
      <trkpt lat="39.72388" lon="-.368849">
        <ele>223.077</ele>
        <time>2020-08-30T13:12:44Z</time>
      </trkpt>
      <trkpt lat="39.723838" lon="-.368803">
        <ele>223.067</ele>
        <time>2020-08-30T13:12:45Z</time>
      </trkpt>
      <trkpt lat="39.72379" lon="-.368772">
        <ele>223.089</ele>
        <time>2020-08-30T13:12:46Z</time>
      </trkpt>
      <trkpt lat="39.723742" lon="-.368745">
        <ele>223.041</ele>
        <time>2020-08-30T13:12:47Z</time>
      </trkpt>
      <trkpt lat="39.723695" lon="-.368709">
        <ele>222.919</ele>
        <time>2020-08-30T13:12:48Z</time>
      </trkpt>
      <trkpt lat="39.723646" lon="-.368675">
        <ele>222.736</ele>
        <time>2020-08-30T13:12:49Z</time>
      </trkpt>
      <trkpt lat="39.723596" lon="-.368645">
        <ele>222.414</ele>
        <time>2020-08-30T13:12:50Z</time>
      </trkpt>
      <trkpt lat="39.723546" lon="-.368612">
        <ele>221.864</ele>
        <time>2020-08-30T13:12:51Z</time>
      </trkpt>
      <trkpt lat="39.7235" lon="-.368576">
        <ele>221.865</ele>
        <time>2020-08-30T13:12:52Z</time>
      </trkpt>
      <trkpt lat="39.723455" lon="-.368543">
        <ele>221.768</ele>
        <time>2020-08-30T13:12:53Z</time>
      </trkpt>
      <trkpt lat="39.723413" lon="-.368484">
        <ele>221.514</ele>
        <time>2020-08-30T13:12:54Z</time>
      </trkpt>
      <trkpt lat="39.723376" lon="-.368416">
        <ele>221.308</ele>
        <time>2020-08-30T13:12:55Z</time>
      </trkpt>
      <trkpt lat="39.723343" lon="-.368339">
        <ele>221.141</ele>
        <time>2020-08-30T13:12:56Z</time>
      </trkpt>
      <trkpt lat="39.723317" lon="-.368261">
        <ele>221.081</ele>
        <time>2020-08-30T13:12:57Z</time>
      </trkpt>
      <trkpt lat="39.723291" lon="-.368186">
        <ele>220.783</ele>
        <time>2020-08-30T13:12:58Z</time>
      </trkpt>
      <trkpt lat="39.723258" lon="-.368122">
        <ele>220.575</ele>
        <time>2020-08-30T13:12:59Z</time>
      </trkpt>
      <trkpt lat="39.723222" lon="-.368059">
        <ele>220.293</ele>
        <time>2020-08-30T13:13:00Z</time>
      </trkpt>
      <trkpt lat="39.72319" lon="-.368007">
        <ele>219.950</ele>
        <time>2020-08-30T13:13:01Z</time>
      </trkpt>
      <trkpt lat="39.723162" lon="-.367918">
        <ele>219.068</ele>
        <time>2020-08-30T13:13:03Z</time>
      </trkpt>
      <trkpt lat="39.723176" lon="-.36785">
        <ele>218.698</ele>
        <time>2020-08-30T13:13:05Z</time>
      </trkpt>
      <trkpt lat="39.723234" lon="-.367813">
        <ele>218.385</ele>
        <time>2020-08-30T13:13:08Z</time>
      </trkpt>
      <trkpt lat="39.72328" lon="-.367823">
        <ele>218.489</ele>
        <time>2020-08-30T13:13:10Z</time>
      </trkpt>
      <trkpt lat="39.723314" lon="-.367867">
        <ele>218.817</ele>
        <time>2020-08-30T13:13:13Z</time>
      </trkpt>
      <trkpt lat="39.723354" lon="-.3679">
        <ele>219.108</ele>
        <time>2020-08-30T13:13:16Z</time>
      </trkpt>
      <trkpt lat="39.723404" lon="-.367943">
        <ele>219.413</ele>
        <time>2020-08-30T13:13:19Z</time>
      </trkpt>
      <trkpt lat="39.723454" lon="-.367983">
        <ele>219.723</ele>
        <time>2020-08-30T13:13:22Z</time>
      </trkpt>
      <trkpt lat="39.723512" lon="-.36802">
        <ele>220.035</ele>
        <time>2020-08-30T13:13:25Z</time>
      </trkpt>
      <trkpt lat="39.723547" lon="-.368061">
        <ele>220.667</ele>
        <time>2020-08-30T13:13:27Z</time>
      </trkpt>
      <trkpt lat="39.723596" lon="-.368103">
        <ele>221.055</ele>
        <time>2020-08-30T13:13:30Z</time>
      </trkpt>
      <trkpt lat="39.723633" lon="-.368138">
        <ele>221.382</ele>
        <time>2020-08-30T13:13:32Z</time>
      </trkpt>
      <trkpt lat="39.723667" lon="-.368178">
        <ele>221.760</ele>
        <time>2020-08-30T13:13:34Z</time>
      </trkpt>
      <trkpt lat="39.723726" lon="-.368226">
        <ele>222.340</ele>
        <time>2020-08-30T13:13:37Z</time>
      </trkpt>
      <trkpt lat="39.723766" lon="-.368255">
        <ele>222.692</ele>
        <time>2020-08-30T13:13:39Z</time>
      </trkpt>
      <trkpt lat="39.723806" lon="-.368287">
        <ele>223.073</ele>
        <time>2020-08-30T13:13:41Z</time>
      </trkpt>
      <trkpt lat="39.723864" lon="-.368332">
        <ele>223.320</ele>
        <time>2020-08-30T13:13:44Z</time>
      </trkpt>
      <trkpt lat="39.723907" lon="-.368362">
        <ele>223.608</ele>
        <time>2020-08-30T13:13:46Z</time>
      </trkpt>
      <trkpt lat="39.723951" lon="-.368414">
        <ele>224.314</ele>
        <time>2020-08-30T13:13:49Z</time>
      </trkpt>
      <trkpt lat="39.723988" lon="-.368449">
        <ele>224.844</ele>
        <time>2020-08-30T13:13:51Z</time>
      </trkpt>
      <trkpt lat="39.724044" lon="-.3685">
        <ele>225.416</ele>
        <time>2020-08-30T13:13:54Z</time>
      </trkpt>
      <trkpt lat="39.724083" lon="-.368565">
        <ele>225.968</ele>
        <time>2020-08-30T13:13:57Z</time>
      </trkpt>
      <trkpt lat="39.724133" lon="-.368623">
        <ele>226.416</ele>
        <time>2020-08-30T13:14:00Z</time>
      </trkpt>
      <trkpt lat="39.724172" lon="-.36869">
        <ele>226.853</ele>
        <time>2020-08-30T13:14:03Z</time>
      </trkpt>
      <trkpt lat="39.724201" lon="-.368774">
        <ele>227.351</ele>
        <time>2020-08-30T13:14:06Z</time>
      </trkpt>
      <trkpt lat="39.724207" lon="-.368857">
        <ele>227.751</ele>
        <time>2020-08-30T13:14:09Z</time>
      </trkpt>
      <trkpt lat="39.724204" lon="-.368918">
        <ele>228.223</ele>
        <time>2020-08-30T13:14:11Z</time>
      </trkpt>
      <trkpt lat="39.724177" lon="-.368991">
        <ele>228.783</ele>
        <time>2020-08-30T13:14:14Z</time>
      </trkpt>
      <trkpt lat="39.724153" lon="-.369046">
        <ele>228.911</ele>
        <time>2020-08-30T13:14:16Z</time>
      </trkpt>
      <trkpt lat="39.724129" lon="-.369129">
        <ele>229.308</ele>
        <time>2020-08-30T13:14:19Z</time>
      </trkpt>
      <trkpt lat="39.724103" lon="-.369183">
        <ele>229.557</ele>
        <time>2020-08-30T13:14:21Z</time>
      </trkpt>
      <trkpt lat="39.724081" lon="-.369244">
        <ele>229.857</ele>
        <time>2020-08-30T13:14:23Z</time>
      </trkpt>
      <trkpt lat="39.724061" lon="-.369306">
        <ele>229.999</ele>
        <time>2020-08-30T13:14:25Z</time>
      </trkpt>
      <trkpt lat="39.724039" lon="-.369366">
        <ele>230.011</ele>
        <time>2020-08-30T13:14:27Z</time>
      </trkpt>
      <trkpt lat="39.724014" lon="-.369422">
        <ele>230.239</ele>
        <time>2020-08-30T13:14:29Z</time>
      </trkpt>
      <trkpt lat="39.723987" lon="-.369483">
        <ele>230.276</ele>
        <time>2020-08-30T13:14:31Z</time>
      </trkpt>
      <trkpt lat="39.723961" lon="-.369542">
        <ele>230.264</ele>
        <time>2020-08-30T13:14:33Z</time>
      </trkpt>
      <trkpt lat="39.723939" lon="-.369617">
        <ele>230.224</ele>
        <time>2020-08-30T13:14:35Z</time>
      </trkpt>
      <trkpt lat="39.723918" lon="-.369689">
        <ele>230.426</ele>
        <time>2020-08-30T13:14:37Z</time>
      </trkpt>
      <trkpt lat="39.723897" lon="-.369747">
        <ele>230.547</ele>
        <time>2020-08-30T13:14:39Z</time>
      </trkpt>
      <trkpt lat="39.723877" lon="-.369816">
        <ele>230.411</ele>
        <time>2020-08-30T13:14:41Z</time>
      </trkpt>
      <trkpt lat="39.723862" lon="-.369906">
        <ele>230.308</ele>
        <time>2020-08-30T13:14:43Z</time>
      </trkpt>
      <trkpt lat="39.723839" lon="-.369965">
        <ele>230.297</ele>
        <time>2020-08-30T13:14:45Z</time>
      </trkpt>
      <trkpt lat="39.723831" lon="-.370054">
        <ele>230.327</ele>
        <time>2020-08-30T13:14:47Z</time>
      </trkpt>
      <trkpt lat="39.723839" lon="-.370137">
        <ele>230.419</ele>
        <time>2020-08-30T13:14:49Z</time>
      </trkpt>
      <trkpt lat="39.723854" lon="-.370218">
        <ele>230.531</ele>
        <time>2020-08-30T13:14:51Z</time>
      </trkpt>
      <trkpt lat="39.723872" lon="-.370293">
        <ele>230.529</ele>
        <time>2020-08-30T13:14:53Z</time>
      </trkpt>
      <trkpt lat="39.723901" lon="-.370366">
        <ele>230.596</ele>
        <time>2020-08-30T13:14:55Z</time>
      </trkpt>
      <trkpt lat="39.723941" lon="-.370431">
        <ele>230.724</ele>
        <time>2020-08-30T13:14:57Z</time>
      </trkpt>
      <trkpt lat="39.723963" lon="-.370501">
        <ele>230.954</ele>
        <time>2020-08-30T13:14:59Z</time>
      </trkpt>
      <trkpt lat="39.723983" lon="-.37058">
        <ele>231.038</ele>
        <time>2020-08-30T13:15:01Z</time>
      </trkpt>
      <trkpt lat="39.723977" lon="-.370647">
        <ele>231.070</ele>
        <time>2020-08-30T13:15:03Z</time>
      </trkpt>
      <trkpt lat="39.723923" lon="-.370662">
        <ele>231.117</ele>
        <time>2020-08-30T13:15:05Z</time>
      </trkpt>
      <trkpt lat="39.723864" lon="-.370603">
        <ele>231.308</ele>
        <time>2020-08-30T13:15:07Z</time>
      </trkpt>
      <trkpt lat="39.723832" lon="-.370558">
        <ele>231.348</ele>
        <time>2020-08-30T13:15:08Z</time>
      </trkpt>
      <trkpt lat="39.723785" lon="-.370476">
        <ele>231.398</ele>
        <time>2020-08-30T13:15:10Z</time>
      </trkpt>
      <trkpt lat="39.723759" lon="-.370425">
        <ele>231.250</ele>
        <time>2020-08-30T13:15:11Z</time>
      </trkpt>
      <trkpt lat="39.723736" lon="-.370367">
        <ele>231.212</ele>
        <time>2020-08-30T13:15:12Z</time>
      </trkpt>
      <trkpt lat="39.723712" lon="-.370302">
        <ele>231.050</ele>
        <time>2020-08-30T13:15:13Z</time>
      </trkpt>
      <trkpt lat="39.723684" lon="-.370249">
        <ele>230.877</ele>
        <time>2020-08-30T13:15:14Z</time>
      </trkpt>
      <trkpt lat="39.72365" lon="-.370189">
        <ele>230.645</ele>
        <time>2020-08-30T13:15:15Z</time>
      </trkpt>
      <trkpt lat="39.723626" lon="-.370128">
        <ele>230.315</ele>
        <time>2020-08-30T13:15:16Z</time>
      </trkpt>
      <trkpt lat="39.723598" lon="-.37005">
        <ele>229.888</ele>
        <time>2020-08-30T13:15:17Z</time>
      </trkpt>
      <trkpt lat="39.72356" lon="-.369966">
        <ele>229.724</ele>
        <time>2020-08-30T13:15:18Z</time>
      </trkpt>
      <trkpt lat="39.723506" lon="-.3699">
        <ele>229.126</ele>
        <time>2020-08-30T13:15:19Z</time>
      </trkpt>
      <trkpt lat="39.723435" lon="-.369851">
        <ele>228.508</ele>
        <time>2020-08-30T13:15:20Z</time>
      </trkpt>
      <trkpt lat="39.723367" lon="-.369828">
        <ele>228.193</ele>
        <time>2020-08-30T13:15:21Z</time>
      </trkpt>
      <trkpt lat="39.723296" lon="-.369829">
        <ele>227.743</ele>
        <time>2020-08-30T13:15:22Z</time>
      </trkpt>
      <trkpt lat="39.723231" lon="-.369834">
        <ele>227.085</ele>
        <time>2020-08-30T13:15:23Z</time>
      </trkpt>
      <trkpt lat="39.723169" lon="-.369854">
        <ele>226.867</ele>
        <time>2020-08-30T13:15:24Z</time>
      </trkpt>
      <trkpt lat="39.723109" lon="-.369854">
        <ele>226.845</ele>
        <time>2020-08-30T13:15:25Z</time>
      </trkpt>
      <trkpt lat="39.723052" lon="-.369871">
        <ele>226.892</ele>
        <time>2020-08-30T13:15:26Z</time>
      </trkpt>
      <trkpt lat="39.723" lon="-.369862">
        <ele>226.860</ele>
        <time>2020-08-30T13:15:27Z</time>
      </trkpt>
      <trkpt lat="39.722953" lon="-.369864">
        <ele>227.010</ele>
        <time>2020-08-30T13:15:28Z</time>
      </trkpt>
      <trkpt lat="39.722875" lon="-.369884">
        <ele>227.272</ele>
        <time>2020-08-30T13:15:30Z</time>
      </trkpt>
      <trkpt lat="39.722814" lon="-.369899">
        <ele>227.213</ele>
        <time>2020-08-30T13:15:32Z</time>
      </trkpt>
      <trkpt lat="39.722744" lon="-.36992">
        <ele>227.214</ele>
        <time>2020-08-30T13:15:34Z</time>
      </trkpt>
      <trkpt lat="39.722672" lon="-.369933">
        <ele>227.408</ele>
        <time>2020-08-30T13:15:36Z</time>
      </trkpt>
      <trkpt lat="39.722605" lon="-.369958">
        <ele>227.522</ele>
        <time>2020-08-30T13:15:38Z</time>
      </trkpt>
      <trkpt lat="39.722537" lon="-.369988">
        <ele>227.412</ele>
        <time>2020-08-30T13:15:40Z</time>
      </trkpt>
      <trkpt lat="39.722469" lon="-.369997">
        <ele>227.354</ele>
        <time>2020-08-30T13:15:42Z</time>
      </trkpt>
      <trkpt lat="39.72239" lon="-.369982">
        <ele>227.356</ele>
        <time>2020-08-30T13:15:44Z</time>
      </trkpt>
      <trkpt lat="39.722318" lon="-.36995">
        <ele>227.254</ele>
        <time>2020-08-30T13:15:46Z</time>
      </trkpt>
      <trkpt lat="39.722271" lon="-.369938">
        <ele>227.171</ele>
        <time>2020-08-30T13:15:47Z</time>
      </trkpt>
      <trkpt lat="39.722224" lon="-.369918">
        <ele>227.029</ele>
        <time>2020-08-30T13:15:48Z</time>
      </trkpt>
      <trkpt lat="39.722177" lon="-.369918">
        <ele>226.989</ele>
        <time>2020-08-30T13:15:49Z</time>
      </trkpt>
      <trkpt lat="39.722129" lon="-.369929">
        <ele>226.812</ele>
        <time>2020-08-30T13:15:50Z</time>
      </trkpt>
      <trkpt lat="39.722086" lon="-.369945">
        <ele>226.732</ele>
        <time>2020-08-30T13:15:51Z</time>
      </trkpt>
      <trkpt lat="39.722016" lon="-.369999">
        <ele>226.405</ele>
        <time>2020-08-30T13:15:53Z</time>
      </trkpt>
      <trkpt lat="39.721949" lon="-.370066">
        <ele>226.308</ele>
        <time>2020-08-30T13:15:55Z</time>
      </trkpt>
      <trkpt lat="39.721879" lon="-.370123">
        <ele>226.386</ele>
        <time>2020-08-30T13:15:57Z</time>
      </trkpt>
      <trkpt lat="39.721813" lon="-.37018">
        <ele>226.236</ele>
        <time>2020-08-30T13:15:59Z</time>
      </trkpt>
      <trkpt lat="39.721751" lon="-.370231">
        <ele>226.178</ele>
        <time>2020-08-30T13:16:01Z</time>
      </trkpt>
      <trkpt lat="39.721677" lon="-.370273">
        <ele>226.160</ele>
        <time>2020-08-30T13:16:03Z</time>
      </trkpt>
      <trkpt lat="39.721605" lon="-.370285">
        <ele>226.328</ele>
        <time>2020-08-30T13:16:05Z</time>
      </trkpt>
      <trkpt lat="39.721533" lon="-.370318">
        <ele>226.775</ele>
        <time>2020-08-30T13:16:07Z</time>
      </trkpt>
      <trkpt lat="39.721462" lon="-.37033">
        <ele>227.253</ele>
        <time>2020-08-30T13:16:09Z</time>
      </trkpt>
      <trkpt lat="39.721392" lon="-.37033">
        <ele>228.013</ele>
        <time>2020-08-30T13:16:11Z</time>
      </trkpt>
      <trkpt lat="39.721331" lon="-.370327">
        <ele>228.531</ele>
        <time>2020-08-30T13:16:13Z</time>
      </trkpt>
      <trkpt lat="39.721268" lon="-.370324">
        <ele>228.861</ele>
        <time>2020-08-30T13:16:15Z</time>
      </trkpt>
      <trkpt lat="39.721218" lon="-.370314">
        <ele>229.107</ele>
        <time>2020-08-30T13:16:17Z</time>
      </trkpt>
      <trkpt lat="39.721146" lon="-.370307">
        <ele>229.308</ele>
        <time>2020-08-30T13:16:19Z</time>
      </trkpt>
      <trkpt lat="39.721078" lon="-.370288">
        <ele>229.388</ele>
        <time>2020-08-30T13:16:21Z</time>
      </trkpt>
      <trkpt lat="39.721007" lon="-.370255">
        <ele>229.218</ele>
        <time>2020-08-30T13:16:23Z</time>
      </trkpt>
      <trkpt lat="39.720934" lon="-.370236">
        <ele>229.150</ele>
        <time>2020-08-30T13:16:25Z</time>
      </trkpt>
      <trkpt lat="39.720868" lon="-.370212">
        <ele>229.122</ele>
        <time>2020-08-30T13:16:27Z</time>
      </trkpt>
      <trkpt lat="39.720796" lon="-.370195">
        <ele>229.140</ele>
        <time>2020-08-30T13:16:29Z</time>
      </trkpt>
      <trkpt lat="39.720717" lon="-.370187">
        <ele>229.047</ele>
        <time>2020-08-30T13:16:31Z</time>
      </trkpt>
      <trkpt lat="39.720641" lon="-.370159">
        <ele>229.075</ele>
        <time>2020-08-30T13:16:33Z</time>
      </trkpt>
      <trkpt lat="39.72055" lon="-.370138">
        <ele>228.945</ele>
        <time>2020-08-30T13:16:35Z</time>
      </trkpt>
      <trkpt lat="39.720465" lon="-.370116">
        <ele>228.764</ele>
        <time>2020-08-30T13:16:37Z</time>
      </trkpt>
      <trkpt lat="39.72042" lon="-.370114">
        <ele>228.506</ele>
        <time>2020-08-30T13:16:38Z</time>
      </trkpt>
      <trkpt lat="39.72037" lon="-.37011">
        <ele>228.416</ele>
        <time>2020-08-30T13:16:39Z</time>
      </trkpt>
      <trkpt lat="39.720321" lon="-.370107">
        <ele>228.308</ele>
        <time>2020-08-30T13:16:40Z</time>
      </trkpt>
      <trkpt lat="39.720273" lon="-.370107">
        <ele>228.291</ele>
        <time>2020-08-30T13:16:41Z</time>
      </trkpt>
      <trkpt lat="39.720226" lon="-.370098">
        <ele>228.271</ele>
        <time>2020-08-30T13:16:42Z</time>
      </trkpt>
      <trkpt lat="39.720146" lon="-.370099">
        <ele>228.093</ele>
        <time>2020-08-30T13:16:44Z</time>
      </trkpt>
      <trkpt lat="39.720082" lon="-.370101">
        <ele>228.025</ele>
        <time>2020-08-30T13:16:46Z</time>
      </trkpt>
      <trkpt lat="39.720009" lon="-.37011">
        <ele>228.183</ele>
        <time>2020-08-30T13:16:48Z</time>
      </trkpt>
      <trkpt lat="39.719936" lon="-.370107">
        <ele>228.360</ele>
        <time>2020-08-30T13:16:50Z</time>
      </trkpt>
      <trkpt lat="39.719862" lon="-.370106">
        <ele>228.628</ele>
        <time>2020-08-30T13:16:52Z</time>
      </trkpt>
      <trkpt lat="39.719796" lon="-.370108">
        <ele>229.188</ele>
        <time>2020-08-30T13:16:54Z</time>
      </trkpt>
      <trkpt lat="39.719735" lon="-.370112">
        <ele>229.762</ele>
        <time>2020-08-30T13:16:56Z</time>
      </trkpt>
      <trkpt lat="39.719674" lon="-.370114">
        <ele>230.583</ele>
        <time>2020-08-30T13:16:58Z</time>
      </trkpt>
      <trkpt lat="39.719611" lon="-.370119">
        <ele>230.811</ele>
        <time>2020-08-30T13:17:00Z</time>
      </trkpt>
      <trkpt lat="39.719556" lon="-.370108">
        <ele>230.908</ele>
        <time>2020-08-30T13:17:02Z</time>
      </trkpt>
      <trkpt lat="39.7195" lon="-.37011">
        <ele>231.241</ele>
        <time>2020-08-30T13:17:04Z</time>
      </trkpt>
      <trkpt lat="39.719439" lon="-.370107">
        <ele>231.551</ele>
        <time>2020-08-30T13:17:06Z</time>
      </trkpt>
      <trkpt lat="39.719372" lon="-.370116">
        <ele>231.653</ele>
        <time>2020-08-30T13:17:08Z</time>
      </trkpt>
      <trkpt lat="39.719312" lon="-.370122">
        <ele>231.555</ele>
        <time>2020-08-30T13:17:10Z</time>
      </trkpt>
      <trkpt lat="39.719252" lon="-.370108">
        <ele>231.483</ele>
        <time>2020-08-30T13:17:12Z</time>
      </trkpt>
      <trkpt lat="39.719184" lon="-.370115">
        <ele>231.580</ele>
        <time>2020-08-30T13:17:14Z</time>
      </trkpt>
      <trkpt lat="39.71912" lon="-.370124">
        <ele>231.628</ele>
        <time>2020-08-30T13:17:16Z</time>
      </trkpt>
      <trkpt lat="39.719052" lon="-.370127">
        <ele>231.758</ele>
        <time>2020-08-30T13:17:18Z</time>
      </trkpt>
      <trkpt lat="39.71899" lon="-.37012">
        <ele>231.959</ele>
        <time>2020-08-30T13:17:20Z</time>
      </trkpt>
      <trkpt lat="39.718929" lon="-.370125">
        <ele>232.003</ele>
        <time>2020-08-30T13:17:22Z</time>
      </trkpt>
      <trkpt lat="39.718879" lon="-.370102">
        <ele>232.223</ele>
        <time>2020-08-30T13:17:24Z</time>
      </trkpt>
      <trkpt lat="39.718824" lon="-.370061">
        <ele>232.308</ele>
        <time>2020-08-30T13:17:26Z</time>
      </trkpt>
      <trkpt lat="39.718796" lon="-.369965">
        <ele>232.380</ele>
        <time>2020-08-30T13:17:28Z</time>
      </trkpt>
      <trkpt lat="39.718793" lon="-.369895">
        <ele>232.030</ele>
        <time>2020-08-30T13:17:29Z</time>
      </trkpt>
      <trkpt lat="39.718791" lon="-.369833">
        <ele>231.812</ele>
        <time>2020-08-30T13:17:30Z</time>
      </trkpt>
      <trkpt lat="39.718762" lon="-.369722">
        <ele>231.164</ele>
        <time>2020-08-30T13:17:32Z</time>
      </trkpt>
      <trkpt lat="39.71869" lon="-.369653">
        <ele>230.282</ele>
        <time>2020-08-30T13:17:34Z</time>
      </trkpt>
      <trkpt lat="39.718633" lon="-.369641">
        <ele>229.649</ele>
        <time>2020-08-30T13:17:35Z</time>
      </trkpt>
      <trkpt lat="39.718582" lon="-.369642">
        <ele>229.327</ele>
        <time>2020-08-30T13:17:36Z</time>
      </trkpt>
      <trkpt lat="39.718535" lon="-.369645">
        <ele>229.017</ele>
        <time>2020-08-30T13:17:37Z</time>
      </trkpt>
      <trkpt lat="39.718446" lon="-.369675">
        <ele>228.627</ele>
        <time>2020-08-30T13:17:39Z</time>
      </trkpt>
      <trkpt lat="39.718364" lon="-.36969">
        <ele>228.568</ele>
        <time>2020-08-30T13:17:41Z</time>
      </trkpt>
      <trkpt lat="39.718287" lon="-.369701">
        <ele>228.714</ele>
        <time>2020-08-30T13:17:43Z</time>
      </trkpt>
      <trkpt lat="39.718205" lon="-.369715">
        <ele>228.708</ele>
        <time>2020-08-30T13:17:45Z</time>
      </trkpt>
      <trkpt lat="39.718127" lon="-.36973">
        <ele>228.617</ele>
        <time>2020-08-30T13:17:47Z</time>
      </trkpt>
      <trkpt lat="39.718044" lon="-.369744">
        <ele>228.577</ele>
        <time>2020-08-30T13:17:49Z</time>
      </trkpt>
      <trkpt lat="39.717993" lon="-.369751">
        <ele>228.569</ele>
        <time>2020-08-30T13:17:50Z</time>
      </trkpt>
      <trkpt lat="39.717941" lon="-.369763">
        <ele>228.331</ele>
        <time>2020-08-30T13:17:51Z</time>
      </trkpt>
      <trkpt lat="39.717891" lon="-.369776">
        <ele>228.359</ele>
        <time>2020-08-30T13:17:52Z</time>
      </trkpt>
      <trkpt lat="39.717838" lon="-.369795">
        <ele>228.156</ele>
        <time>2020-08-30T13:17:53Z</time>
      </trkpt>
      <trkpt lat="39.717786" lon="-.369811">
        <ele>227.844</ele>
        <time>2020-08-30T13:17:54Z</time>
      </trkpt>
      <trkpt lat="39.717734" lon="-.369819">
        <ele>227.444</ele>
        <time>2020-08-30T13:17:55Z</time>
      </trkpt>
      <trkpt lat="39.717679" lon="-.369826">
        <ele>226.854</ele>
        <time>2020-08-30T13:17:56Z</time>
      </trkpt>
      <trkpt lat="39.717625" lon="-.369839">
        <ele>226.356</ele>
        <time>2020-08-30T13:17:57Z</time>
      </trkpt>
      <trkpt lat="39.717572" lon="-.369857">
        <ele>225.611</ele>
        <time>2020-08-30T13:17:58Z</time>
      </trkpt>
      <trkpt lat="39.717517" lon="-.369882">
        <ele>224.908</ele>
        <time>2020-08-30T13:17:59Z</time>
      </trkpt>
      <trkpt lat="39.717468" lon="-.369907">
        <ele>224.240</ele>
        <time>2020-08-30T13:18:00Z</time>
      </trkpt>
      <trkpt lat="39.717423" lon="-.369939">
        <ele>223.680</ele>
        <time>2020-08-30T13:18:01Z</time>
      </trkpt>
      <trkpt lat="39.717378" lon="-.369989">
        <ele>223.062</ele>
        <time>2020-08-30T13:18:02Z</time>
      </trkpt>
      <trkpt lat="39.717352" lon="-.370058">
        <ele>222.514</ele>
        <time>2020-08-30T13:18:03Z</time>
      </trkpt>
      <trkpt lat="39.717342" lon="-.370129">
        <ele>221.422</ele>
        <time>2020-08-30T13:18:04Z</time>
      </trkpt>
      <trkpt lat="39.717336" lon="-.3702">
        <ele>220.859</ele>
        <time>2020-08-30T13:18:05Z</time>
      </trkpt>
      <trkpt lat="39.717336" lon="-.370258">
        <ele>220.277</ele>
        <time>2020-08-30T13:18:06Z</time>
      </trkpt>
      <trkpt lat="39.717298" lon="-.370326">
        <ele>219.357</ele>
        <time>2020-08-30T13:18:08Z</time>
      </trkpt>
      <trkpt lat="39.717251" lon="-.370334">
        <ele>219.028</ele>
        <time>2020-08-30T13:18:09Z</time>
      </trkpt>
      <trkpt lat="39.717193" lon="-.370331">
        <ele>218.989</ele>
        <time>2020-08-30T13:18:10Z</time>
      </trkpt>
      <trkpt lat="39.717141" lon="-.370307">
        <ele>218.517</ele>
        <time>2020-08-30T13:18:11Z</time>
      </trkpt>
      <trkpt lat="39.717096" lon="-.37028">
        <ele>218.508</ele>
        <time>2020-08-30T13:18:12Z</time>
      </trkpt>
      <trkpt lat="39.717042" lon="-.370209">
        <ele>218.447</ele>
        <time>2020-08-30T13:18:14Z</time>
      </trkpt>
      <trkpt lat="39.717003" lon="-.370158">
        <ele>218.437</ele>
        <time>2020-08-30T13:18:17Z</time>
      </trkpt>
      <trkpt lat="39.716969" lon="-.370114">
        <ele>218.899</ele>
        <time>2020-08-30T13:18:20Z</time>
      </trkpt>
      <trkpt lat="39.716937" lon="-.370068">
        <ele>219.431</ele>
        <time>2020-08-30T13:18:23Z</time>
      </trkpt>
      <trkpt lat="39.716902" lon="-.370024">
        <ele>219.949</ele>
        <time>2020-08-30T13:18:26Z</time>
      </trkpt>
      <trkpt lat="39.716863" lon="-.369967">
        <ele>220.986</ele>
        <time>2020-08-30T13:18:30Z</time>
      </trkpt>
      <trkpt lat="39.716836" lon="-.369921">
        <ele>221.764</ele>
        <time>2020-08-30T13:18:33Z</time>
      </trkpt>
      <trkpt lat="39.716813" lon="-.369851">
        <ele>222.384</ele>
        <time>2020-08-30T13:18:37Z</time>
      </trkpt>
      <trkpt lat="39.716781" lon="-.369799">
        <ele>222.688</ele>
        <time>2020-08-30T13:18:40Z</time>
      </trkpt>
      <trkpt lat="39.716747" lon="-.369748">
        <ele>223.324</ele>
        <time>2020-08-30T13:18:43Z</time>
      </trkpt>
      <trkpt lat="39.716722" lon="-.369692">
        <ele>224.026</ele>
        <time>2020-08-30T13:18:46Z</time>
      </trkpt>
      <trkpt lat="39.716694" lon="-.369627">
        <ele>225.008</ele>
        <time>2020-08-30T13:18:50Z</time>
      </trkpt>
      <trkpt lat="39.71666" lon="-.369581">
        <ele>225.673</ele>
        <time>2020-08-30T13:18:53Z</time>
      </trkpt>
      <trkpt lat="39.716647" lon="-.369523">
        <ele>226.493</ele>
        <time>2020-08-30T13:18:56Z</time>
      </trkpt>
      <trkpt lat="39.716631" lon="-.369459">
        <ele>227.075</ele>
        <time>2020-08-30T13:19:00Z</time>
      </trkpt>
      <trkpt lat="39.716616" lon="-.369394">
        <ele>227.837</ele>
        <time>2020-08-30T13:19:04Z</time>
      </trkpt>
      <trkpt lat="39.716598" lon="-.369324">
        <ele>228.475</ele>
        <time>2020-08-30T13:19:08Z</time>
      </trkpt>
      <trkpt lat="39.716588" lon="-.369258">
        <ele>229.122</ele>
        <time>2020-08-30T13:19:12Z</time>
      </trkpt>
      <trkpt lat="39.716568" lon="-.369192">
        <ele>229.630</ele>
        <time>2020-08-30T13:19:16Z</time>
      </trkpt>
      <trkpt lat="39.716559" lon="-.369132">
        <ele>230.020</ele>
        <time>2020-08-30T13:19:20Z</time>
      </trkpt>
      <trkpt lat="39.716551" lon="-.369072">
        <ele>230.286</ele>
        <time>2020-08-30T13:19:23Z</time>
      </trkpt>
      <trkpt lat="39.716553" lon="-.369011">
        <ele>230.360</ele>
        <time>2020-08-30T13:19:27Z</time>
      </trkpt>
      <trkpt lat="39.7166" lon="-.369007">
        <ele>230.126</ele>
        <time>2020-08-30T13:19:46Z</time>
      </trkpt>
      <trkpt lat="39.716581" lon="-.368945">
        <ele>229.908</ele>
        <time>2020-08-30T13:20:06Z</time>
      </trkpt>
      <trkpt lat="39.716582" lon="-.368857">
        <ele>229.753</ele>
        <time>2020-08-30T13:20:09Z</time>
      </trkpt>
      <trkpt lat="39.716583" lon="-.368784">
        <ele>229.743</ele>
        <time>2020-08-30T13:20:11Z</time>
      </trkpt>
      <trkpt lat="39.716607" lon="-.368705">
        <ele>229.655</ele>
        <time>2020-08-30T13:20:13Z</time>
      </trkpt>
      <trkpt lat="39.716655" lon="-.368595">
        <ele>229.477</ele>
        <time>2020-08-30T13:20:15Z</time>
      </trkpt>
      <trkpt lat="39.716688" lon="-.368531">
        <ele>228.945</ele>
        <time>2020-08-30T13:20:16Z</time>
      </trkpt>
      <trkpt lat="39.716727" lon="-.368463">
        <ele>228.712</ele>
        <time>2020-08-30T13:20:17Z</time>
      </trkpt>
      <trkpt lat="39.716769" lon="-.368389">
        <ele>228.330</ele>
        <time>2020-08-30T13:20:18Z</time>
      </trkpt>
      <trkpt lat="39.71681" lon="-.368316">
        <ele>228.130</ele>
        <time>2020-08-30T13:20:19Z</time>
      </trkpt>
      <trkpt lat="39.716859" lon="-.368253">
        <ele>227.891</ele>
        <time>2020-08-30T13:20:20Z</time>
      </trkpt>
      <trkpt lat="39.716907" lon="-.368188">
        <ele>227.681</ele>
        <time>2020-08-30T13:20:21Z</time>
      </trkpt>
      <trkpt lat="39.716944" lon="-.368119">
        <ele>227.219</ele>
        <time>2020-08-30T13:20:22Z</time>
      </trkpt>
      <trkpt lat="39.716977" lon="-.36805">
        <ele>227.108</ele>
        <time>2020-08-30T13:20:23Z</time>
      </trkpt>
      <trkpt lat="39.717" lon="-.367978">
        <ele>227.064</ele>
        <time>2020-08-30T13:20:24Z</time>
      </trkpt>
      <trkpt lat="39.71701" lon="-.367904">
        <ele>226.984</ele>
        <time>2020-08-30T13:20:25Z</time>
      </trkpt>
      <trkpt lat="39.717005" lon="-.367822">
        <ele>226.616</ele>
        <time>2020-08-30T13:20:26Z</time>
      </trkpt>
      <trkpt lat="39.716991" lon="-.367742">
        <ele>226.488</ele>
        <time>2020-08-30T13:20:27Z</time>
      </trkpt>
      <trkpt lat="39.716972" lon="-.367667">
        <ele>225.976</ele>
        <time>2020-08-30T13:20:28Z</time>
      </trkpt>
      <trkpt lat="39.716956" lon="-.36759">
        <ele>225.433</ele>
        <time>2020-08-30T13:20:29Z</time>
      </trkpt>
      <trkpt lat="39.716938" lon="-.367507">
        <ele>224.871</ele>
        <time>2020-08-30T13:20:30Z</time>
      </trkpt>
      <trkpt lat="39.716914" lon="-.367423">
        <ele>224.421</ele>
        <time>2020-08-30T13:20:31Z</time>
      </trkpt>
      <trkpt lat="39.716887" lon="-.367346">
        <ele>224.458</ele>
        <time>2020-08-30T13:20:32Z</time>
      </trkpt>
      <trkpt lat="39.716859" lon="-.367272">
        <ele>224.452</ele>
        <time>2020-08-30T13:20:33Z</time>
      </trkpt>
      <trkpt lat="39.716824" lon="-.36721">
        <ele>224.317</ele>
        <time>2020-08-30T13:20:34Z</time>
      </trkpt>
      <trkpt lat="39.716776" lon="-.367164">
        <ele>224.208</ele>
        <time>2020-08-30T13:20:35Z</time>
      </trkpt>
      <trkpt lat="39.716719" lon="-.367123">
        <ele>223.940</ele>
        <time>2020-08-30T13:20:36Z</time>
      </trkpt>
      <trkpt lat="39.716661" lon="-.367087">
        <ele>223.730</ele>
        <time>2020-08-30T13:20:37Z</time>
      </trkpt>
      <trkpt lat="39.716607" lon="-.367049">
        <ele>223.392</ele>
        <time>2020-08-30T13:20:38Z</time>
      </trkpt>
      <trkpt lat="39.716548" lon="-.367006">
        <ele>223.214</ele>
        <time>2020-08-30T13:20:39Z</time>
      </trkpt>
      <trkpt lat="39.71649" lon="-.366965">
        <ele>223.242</ele>
        <time>2020-08-30T13:20:40Z</time>
      </trkpt>
      <trkpt lat="39.716434" lon="-.366923">
        <ele>223.289</ele>
        <time>2020-08-30T13:20:41Z</time>
      </trkpt>
      <trkpt lat="39.71637" lon="-.366886">
        <ele>223.157</ele>
        <time>2020-08-30T13:20:42Z</time>
      </trkpt>
      <trkpt lat="39.716303" lon="-.36686">
        <ele>222.847</ele>
        <time>2020-08-30T13:20:43Z</time>
      </trkpt>
      <trkpt lat="39.716238" lon="-.366843">
        <ele>222.546</ele>
        <time>2020-08-30T13:20:44Z</time>
      </trkpt>
      <trkpt lat="39.716165" lon="-.366844">
        <ele>222.288</ele>
        <time>2020-08-30T13:20:45Z</time>
      </trkpt>
      <trkpt lat="39.7161" lon="-.366851">
        <ele>222.016</ele>
        <time>2020-08-30T13:20:46Z</time>
      </trkpt>
      <trkpt lat="39.716042" lon="-.366879">
        <ele>221.808</ele>
        <time>2020-08-30T13:20:47Z</time>
      </trkpt>
      <trkpt lat="39.715983" lon="-.36692">
        <ele>221.659</ele>
        <time>2020-08-30T13:20:48Z</time>
      </trkpt>
      <trkpt lat="39.715936" lon="-.366964">
        <ele>221.499</ele>
        <time>2020-08-30T13:20:49Z</time>
      </trkpt>
      <trkpt lat="39.715891" lon="-.367011">
        <ele>221.241</ele>
        <time>2020-08-30T13:20:50Z</time>
      </trkpt>
      <trkpt lat="39.715806" lon="-.36706">
        <ele>220.953</ele>
        <time>2020-08-30T13:20:52Z</time>
      </trkpt>
      <trkpt lat="39.715716" lon="-.367068">
        <ele>220.481</ele>
        <time>2020-08-30T13:20:54Z</time>
      </trkpt>
      <trkpt lat="39.715637" lon="-.367061">
        <ele>220.458</ele>
        <time>2020-08-30T13:20:56Z</time>
      </trkpt>
      <trkpt lat="39.71557" lon="-.367023">
        <ele>220.546</ele>
        <time>2020-08-30T13:20:58Z</time>
      </trkpt>
      <trkpt lat="39.715533" lon="-.366946">
        <ele>220.886</ele>
        <time>2020-08-30T13:21:00Z</time>
      </trkpt>
      <trkpt lat="39.715515" lon="-.366881">
        <ele>220.662</ele>
        <time>2020-08-30T13:21:02Z</time>
      </trkpt>
      <trkpt lat="39.715507" lon="-.366812">
        <ele>220.583</ele>
        <time>2020-08-30T13:21:04Z</time>
      </trkpt>
      <trkpt lat="39.715523" lon="-.366733">
        <ele>220.511</ele>
        <time>2020-08-30T13:21:06Z</time>
      </trkpt>
      <trkpt lat="39.715552" lon="-.366649">
        <ele>220.508</ele>
        <time>2020-08-30T13:21:08Z</time>
      </trkpt>
      <trkpt lat="39.715592" lon="-.366575">
        <ele>220.551</ele>
        <time>2020-08-30T13:21:10Z</time>
      </trkpt>
      <trkpt lat="39.71563" lon="-.36649">
        <ele>220.231</ele>
        <time>2020-08-30T13:21:12Z</time>
      </trkpt>
      <trkpt lat="39.715651" lon="-.366394">
        <ele>220.113</ele>
        <time>2020-08-30T13:21:14Z</time>
      </trkpt>
      <trkpt lat="39.715641" lon="-.366329">
        <ele>220.055</ele>
        <time>2020-08-30T13:21:15Z</time>
      </trkpt>
      <trkpt lat="39.715621" lon="-.36627">
        <ele>219.973</ele>
        <time>2020-08-30T13:21:16Z</time>
      </trkpt>
      <trkpt lat="39.715594" lon="-.366216">
        <ele>219.950</ele>
        <time>2020-08-30T13:21:17Z</time>
      </trkpt>
      <trkpt lat="39.715537" lon="-.366139">
        <ele>219.328</ele>
        <time>2020-08-30T13:21:19Z</time>
      </trkpt>
      <trkpt lat="39.715475" lon="-.366077">
        <ele>218.868</ele>
        <time>2020-08-30T13:21:21Z</time>
      </trkpt>
      <trkpt lat="39.715415" lon="-.366011">
        <ele>218.637</ele>
        <time>2020-08-30T13:21:23Z</time>
      </trkpt>
      <trkpt lat="39.715353" lon="-.365958">
        <ele>218.549</ele>
        <time>2020-08-30T13:21:25Z</time>
      </trkpt>
      <trkpt lat="39.715306" lon="-.365899">
        <ele>218.513</ele>
        <time>2020-08-30T13:21:27Z</time>
      </trkpt>
      <trkpt lat="39.715259" lon="-.365845">
        <ele>218.608</ele>
        <time>2020-08-30T13:21:29Z</time>
      </trkpt>
      <trkpt lat="39.715217" lon="-.365799">
        <ele>218.618</ele>
        <time>2020-08-30T13:21:31Z</time>
      </trkpt>
      <trkpt lat="39.715176" lon="-.365756">
        <ele>218.628</ele>
        <time>2020-08-30T13:21:33Z</time>
      </trkpt>
      <trkpt lat="39.715128" lon="-.365709">
        <ele>218.750</ele>
        <time>2020-08-30T13:21:35Z</time>
      </trkpt>
      <trkpt lat="39.715072" lon="-.365663">
        <ele>218.862</ele>
        <time>2020-08-30T13:21:37Z</time>
      </trkpt>
      <trkpt lat="39.715023" lon="-.365618">
        <ele>219.060</ele>
        <time>2020-08-30T13:21:39Z</time>
      </trkpt>
      <trkpt lat="39.714983" lon="-.36557">
        <ele>219.367</ele>
        <time>2020-08-30T13:21:41Z</time>
      </trkpt>
      <trkpt lat="39.714939" lon="-.365518">
        <ele>219.565</ele>
        <time>2020-08-30T13:21:43Z</time>
      </trkpt>
      <trkpt lat="39.714897" lon="-.365474">
        <ele>219.695</ele>
        <time>2020-08-30T13:21:45Z</time>
      </trkpt>
      <trkpt lat="39.714859" lon="-.365425">
        <ele>219.784</ele>
        <time>2020-08-30T13:21:47Z</time>
      </trkpt>
      <trkpt lat="39.714818" lon="-.365384">
        <ele>219.707</ele>
        <time>2020-08-30T13:21:49Z</time>
      </trkpt>
      <trkpt lat="39.714768" lon="-.365339">
        <ele>219.917</ele>
        <time>2020-08-30T13:21:51Z</time>
      </trkpt>
      <trkpt lat="39.714729" lon="-.365284">
        <ele>219.908</ele>
        <time>2020-08-30T13:21:53Z</time>
      </trkpt>
      <trkpt lat="39.714679" lon="-.365241">
        <ele>220.153</ele>
        <time>2020-08-30T13:21:55Z</time>
      </trkpt>
      <trkpt lat="39.714642" lon="-.365184">
        <ele>220.383</ele>
        <time>2020-08-30T13:21:57Z</time>
      </trkpt>
      <trkpt lat="39.714599" lon="-.365131">
        <ele>220.685</ele>
        <time>2020-08-30T13:21:59Z</time>
      </trkpt>
      <trkpt lat="39.714545" lon="-.365079">
        <ele>220.867</ele>
        <time>2020-08-30T13:22:01Z</time>
      </trkpt>
      <trkpt lat="39.714499" lon="-.365025">
        <ele>220.895</ele>
        <time>2020-08-30T13:22:03Z</time>
      </trkpt>
      <trkpt lat="39.714455" lon="-.364975">
        <ele>220.592</ele>
        <time>2020-08-30T13:22:05Z</time>
      </trkpt>
      <trkpt lat="39.714411" lon="-.364918">
        <ele>220.310</ele>
        <time>2020-08-30T13:22:07Z</time>
      </trkpt>
      <trkpt lat="39.714365" lon="-.364858">
        <ele>220.180</ele>
        <time>2020-08-30T13:22:09Z</time>
      </trkpt>
      <trkpt lat="39.714317" lon="-.364809">
        <ele>220.125</ele>
        <time>2020-08-30T13:22:11Z</time>
      </trkpt>
      <trkpt lat="39.714273" lon="-.364754">
        <ele>220.126</ele>
        <time>2020-08-30T13:22:13Z</time>
      </trkpt>
      <trkpt lat="39.71423" lon="-.364707">
        <ele>220.208</ele>
        <time>2020-08-30T13:22:15Z</time>
      </trkpt>
      <trkpt lat="39.714191" lon="-.364659">
        <ele>220.108</ele>
        <time>2020-08-30T13:22:17Z</time>
      </trkpt>
      <trkpt lat="39.714144" lon="-.364604">
        <ele>220.137</ele>
        <time>2020-08-30T13:22:19Z</time>
      </trkpt>
      <trkpt lat="39.714094" lon="-.364543">
        <ele>220.037</ele>
        <time>2020-08-30T13:22:21Z</time>
      </trkpt>
      <trkpt lat="39.714039" lon="-.36448">
        <ele>219.669</ele>
        <time>2020-08-30T13:22:23Z</time>
      </trkpt>
      <trkpt lat="39.713987" lon="-.36441">
        <ele>219.681</ele>
        <time>2020-08-30T13:22:25Z</time>
      </trkpt>
      <trkpt lat="39.713924" lon="-.364336">
        <ele>219.679</ele>
        <time>2020-08-30T13:22:27Z</time>
      </trkpt>
      <trkpt lat="39.713887" lon="-.364294">
        <ele>219.636</ele>
        <time>2020-08-30T13:22:28Z</time>
      </trkpt>
      <trkpt lat="39.713821" lon="-.364218">
        <ele>219.294</ele>
        <time>2020-08-30T13:22:30Z</time>
      </trkpt>
      <trkpt lat="39.713789" lon="-.364174">
        <ele>218.824</ele>
        <time>2020-08-30T13:22:31Z</time>
      </trkpt>
      <trkpt lat="39.713754" lon="-.364128">
        <ele>218.872</ele>
        <time>2020-08-30T13:22:32Z</time>
      </trkpt>
      <trkpt lat="39.713721" lon="-.364078">
        <ele>218.613</ele>
        <time>2020-08-30T13:22:33Z</time>
      </trkpt>
      <trkpt lat="39.713685" lon="-.364027">
        <ele>218.314</ele>
        <time>2020-08-30T13:22:34Z</time>
      </trkpt>
      <trkpt lat="39.713653" lon="-.363979">
        <ele>217.808</ele>
        <time>2020-08-30T13:22:35Z</time>
      </trkpt>
      <trkpt lat="39.713599" lon="-.363889">
        <ele>217.132</ele>
        <time>2020-08-30T13:22:37Z</time>
      </trkpt>
      <trkpt lat="39.71357" lon="-.363838">
        <ele>216.732</ele>
        <time>2020-08-30T13:22:38Z</time>
      </trkpt>
      <trkpt lat="39.713537" lon="-.363785">
        <ele>216.254</ele>
        <time>2020-08-30T13:22:39Z</time>
      </trkpt>
      <trkpt lat="39.713507" lon="-.363734">
        <ele>216.176</ele>
        <time>2020-08-30T13:22:40Z</time>
      </trkpt>
      <trkpt lat="39.713479" lon="-.363683">
        <ele>215.924</ele>
        <time>2020-08-30T13:22:41Z</time>
      </trkpt>
      <trkpt lat="39.713449" lon="-.363634">
        <ele>215.731</ele>
        <time>2020-08-30T13:22:42Z</time>
      </trkpt>
      <trkpt lat="39.713416" lon="-.363578">
        <ele>215.459</ele>
        <time>2020-08-30T13:22:43Z</time>
      </trkpt>
      <trkpt lat="39.713385" lon="-.363522">
        <ele>215.279</ele>
        <time>2020-08-30T13:22:44Z</time>
      </trkpt>
      <trkpt lat="39.713352" lon="-.363466">
        <ele>215.018</ele>
        <time>2020-08-30T13:22:45Z</time>
      </trkpt>
      <trkpt lat="39.713325" lon="-.3634">
        <ele>214.798</ele>
        <time>2020-08-30T13:22:46Z</time>
      </trkpt>
      <trkpt lat="39.713291" lon="-.363343">
        <ele>214.417</ele>
        <time>2020-08-30T13:22:47Z</time>
      </trkpt>
      <trkpt lat="39.713261" lon="-.363277">
        <ele>214.208</ele>
        <time>2020-08-30T13:22:48Z</time>
      </trkpt>
      <trkpt lat="39.71323" lon="-.363203">
        <ele>213.956</ele>
        <time>2020-08-30T13:22:49Z</time>
      </trkpt>
      <trkpt lat="39.713203" lon="-.363132">
        <ele>213.676</ele>
        <time>2020-08-30T13:22:50Z</time>
      </trkpt>
      <trkpt lat="39.713171" lon="-.363059">
        <ele>213.068</ele>
        <time>2020-08-30T13:22:51Z</time>
      </trkpt>
      <trkpt lat="39.713141" lon="-.362981">
        <ele>213.040</ele>
        <time>2020-08-30T13:22:52Z</time>
      </trkpt>
      <trkpt lat="39.713112" lon="-.362896">
        <ele>212.678</ele>
        <time>2020-08-30T13:22:53Z</time>
      </trkpt>
      <trkpt lat="39.713084" lon="-.362819">
        <ele>212.295</ele>
        <time>2020-08-30T13:22:54Z</time>
      </trkpt>
      <trkpt lat="39.713058" lon="-.362745">
        <ele>212.263</ele>
        <time>2020-08-30T13:22:55Z</time>
      </trkpt>
      <trkpt lat="39.713032" lon="-.362676">
        <ele>211.833</ele>
        <time>2020-08-30T13:22:56Z</time>
      </trkpt>
      <trkpt lat="39.713001" lon="-.362603">
        <ele>211.729</ele>
        <time>2020-08-30T13:22:57Z</time>
      </trkpt>
      <trkpt lat="39.712965" lon="-.362535">
        <ele>211.400</ele>
        <time>2020-08-30T13:22:58Z</time>
      </trkpt>
      <trkpt lat="39.712927" lon="-.362477">
        <ele>211.020</ele>
        <time>2020-08-30T13:22:59Z</time>
      </trkpt>
      <trkpt lat="39.712886" lon="-.362419">
        <ele>210.508</ele>
        <time>2020-08-30T13:23:00Z</time>
      </trkpt>
      <trkpt lat="39.712844" lon="-.362368">
        <ele>210.167</ele>
        <time>2020-08-30T13:23:01Z</time>
      </trkpt>
      <trkpt lat="39.712798" lon="-.362321">
        <ele>209.767</ele>
        <time>2020-08-30T13:23:02Z</time>
      </trkpt>
      <trkpt lat="39.712753" lon="-.362276">
        <ele>209.449</ele>
        <time>2020-08-30T13:23:03Z</time>
      </trkpt>
      <trkpt lat="39.712712" lon="-.362228">
        <ele>209.061</ele>
        <time>2020-08-30T13:23:04Z</time>
      </trkpt>
      <trkpt lat="39.712669" lon="-.362182">
        <ele>208.949</ele>
        <time>2020-08-30T13:23:05Z</time>
      </trkpt>
      <trkpt lat="39.712632" lon="-.362136">
        <ele>208.516</ele>
        <time>2020-08-30T13:23:06Z</time>
      </trkpt>
      <trkpt lat="39.712599" lon="-.362088">
        <ele>208.534</ele>
        <time>2020-08-30T13:23:07Z</time>
      </trkpt>
      <trkpt lat="39.712558" lon="-.36205">
        <ele>208.414</ele>
        <time>2020-08-30T13:23:08Z</time>
      </trkpt>
      <trkpt lat="39.712515" lon="-.362015">
        <ele>208.421</ele>
        <time>2020-08-30T13:23:09Z</time>
      </trkpt>
      <trkpt lat="39.712478" lon="-.361967">
        <ele>208.341</ele>
        <time>2020-08-30T13:23:10Z</time>
      </trkpt>
      <trkpt lat="39.712436" lon="-.361928">
        <ele>208.205</ele>
        <time>2020-08-30T13:23:11Z</time>
      </trkpt>
      <trkpt lat="39.712399" lon="-.361892">
        <ele>208.208</ele>
        <time>2020-08-30T13:23:12Z</time>
      </trkpt>
      <trkpt lat="39.712361" lon="-.361859">
        <ele>207.967</ele>
        <time>2020-08-30T13:23:13Z</time>
      </trkpt>
      <trkpt lat="39.712321" lon="-.361822">
        <ele>207.827</ele>
        <time>2020-08-30T13:23:14Z</time>
      </trkpt>
      <trkpt lat="39.712287" lon="-.361782">
        <ele>207.679</ele>
        <time>2020-08-30T13:23:15Z</time>
      </trkpt>
      <trkpt lat="39.71225" lon="-.361738">
        <ele>207.571</ele>
        <time>2020-08-30T13:23:16Z</time>
      </trkpt>
      <trkpt lat="39.712214" lon="-.361701">
        <ele>207.599</ele>
        <time>2020-08-30T13:23:17Z</time>
      </trkpt>
      <trkpt lat="39.71218" lon="-.361657">
        <ele>207.516</ele>
        <time>2020-08-30T13:23:18Z</time>
      </trkpt>
      <trkpt lat="39.712143" lon="-.361616">
        <ele>207.574</ele>
        <time>2020-08-30T13:23:19Z</time>
      </trkpt>
      <trkpt lat="39.712105" lon="-.361576">
        <ele>207.484</ele>
        <time>2020-08-30T13:23:20Z</time>
      </trkpt>
      <trkpt lat="39.712068" lon="-.361543">
        <ele>207.443</ele>
        <time>2020-08-30T13:23:21Z</time>
      </trkpt>
      <trkpt lat="39.712008" lon="-.361481">
        <ele>207.464</ele>
        <time>2020-08-30T13:23:23Z</time>
      </trkpt>
      <trkpt lat="39.711931" lon="-.361424">
        <ele>207.310</ele>
        <time>2020-08-30T13:23:25Z</time>
      </trkpt>
      <trkpt lat="39.711879" lon="-.361368">
        <ele>206.908</ele>
        <time>2020-08-30T13:23:27Z</time>
      </trkpt>
      <trkpt lat="39.711831" lon="-.361318">
        <ele>206.779</ele>
        <time>2020-08-30T13:23:29Z</time>
      </trkpt>
      <trkpt lat="39.711782" lon="-.361255">
        <ele>206.529</ele>
        <time>2020-08-30T13:23:31Z</time>
      </trkpt>
      <trkpt lat="39.711739" lon="-.361186">
        <ele>206.391</ele>
        <time>2020-08-30T13:23:33Z</time>
      </trkpt>
      <trkpt lat="39.711694" lon="-.361127">
        <ele>206.053</ele>
        <time>2020-08-30T13:23:35Z</time>
      </trkpt>
      <trkpt lat="39.711652" lon="-.361078">
        <ele>205.871</ele>
        <time>2020-08-30T13:23:37Z</time>
      </trkpt>
      <trkpt lat="39.711613" lon="-.36103">
        <ele>205.888</ele>
        <time>2020-08-30T13:23:39Z</time>
      </trkpt>
      <trkpt lat="39.711559" lon="-.361015">
        <ele>205.746</ele>
        <time>2020-08-30T13:23:41Z</time>
      </trkpt>
      <trkpt lat="39.711519" lon="-.36098">
        <ele>205.636</ele>
        <time>2020-08-30T13:23:43Z</time>
      </trkpt>
      <trkpt lat="39.711476" lon="-.360951">
        <ele>205.632</ele>
        <time>2020-08-30T13:23:45Z</time>
      </trkpt>
      <trkpt lat="39.711418" lon="-.36092">
        <ele>205.692</ele>
        <time>2020-08-30T13:23:48Z</time>
      </trkpt>
      <trkpt lat="39.71137" lon="-.360896">
        <ele>205.011</ele>
        <time>2020-08-30T13:23:50Z</time>
      </trkpt>
      <trkpt lat="39.711316" lon="-.360852">
        <ele>205.008</ele>
        <time>2020-08-30T13:23:52Z</time>
      </trkpt>
      <trkpt lat="39.71113" lon="-.360757">
        <ele>205.058</ele>
        <time>2020-08-30T13:23:59Z</time>
      </trkpt>
      <trkpt lat="39.71107" lon="-.360741">
        <ele>205.098</ele>
        <time>2020-08-30T13:24:00Z</time>
      </trkpt>
      <trkpt lat="39.710961" lon="-.360627">
        <ele>204.890</ele>
        <time>2020-08-30T13:24:03Z</time>
      </trkpt>
      <trkpt lat="39.710888" lon="-.360533">
        <ele>204.842</ele>
        <time>2020-08-30T13:24:04Z</time>
      </trkpt>
      <trkpt lat="39.710931" lon="-.360556">
        <ele>204.720</ele>
        <time>2020-08-30T13:24:05Z</time>
      </trkpt>
      <trkpt lat="39.711287" lon="-.360278">
        <ele>205.177</ele>
        <time>2020-08-30T13:24:55Z</time>
      </trkpt>
      <trkpt lat="39.711292" lon="-.360407">
        <ele>205.195</ele>
        <time>2020-08-30T13:24:57Z</time>
      </trkpt>
      <trkpt lat="39.711239" lon="-.360372">
        <ele>205.165</ele>
        <time>2020-08-30T13:24:59Z</time>
      </trkpt>
      <trkpt lat="39.7112" lon="-.360416">
        <ele>204.922</ele>
        <time>2020-08-30T13:25:02Z</time>
      </trkpt>
      <trkpt lat="39.711165" lon="-.360339">
        <ele>205.062</ele>
        <time>2020-08-30T13:25:03Z</time>
      </trkpt>
      <trkpt lat="39.711125" lon="-.360248">
        <ele>205.008</ele>
        <time>2020-08-30T13:25:05Z</time>
      </trkpt>
      <trkpt lat="39.711105" lon="-.360166">
        <ele>204.908</ele>
        <time>2020-08-30T13:25:07Z</time>
      </trkpt>
      <trkpt lat="39.711071" lon="-.360073">
        <ele>204.747</ele>
        <time>2020-08-30T13:25:09Z</time>
      </trkpt>
      <trkpt lat="39.711068" lon="-.360013">
        <ele>204.767</ele>
        <time>2020-08-30T13:25:10Z</time>
      </trkpt>
      <trkpt lat="39.711056" lon="-.359924">
        <ele>204.619</ele>
        <time>2020-08-30T13:25:12Z</time>
      </trkpt>
      <trkpt lat="39.711037" lon="-.359834">
        <ele>204.541</ele>
        <time>2020-08-30T13:25:14Z</time>
      </trkpt>
      <trkpt lat="39.711009" lon="-.359751">
        <ele>204.319</ele>
        <time>2020-08-30T13:25:16Z</time>
      </trkpt>
      <trkpt lat="39.711006" lon="-.35967">
        <ele>204.166</ele>
        <time>2020-08-30T13:25:18Z</time>
      </trkpt>
      <trkpt lat="39.711001" lon="-.359593">
        <ele>204.074</ele>
        <time>2020-08-30T13:25:20Z</time>
      </trkpt>
      <trkpt lat="39.710995" lon="-.35951">
        <ele>204.084</ele>
        <time>2020-08-30T13:25:22Z</time>
      </trkpt>
      <trkpt lat="39.710996" lon="-.359416">
        <ele>204.035</ele>
        <time>2020-08-30T13:25:24Z</time>
      </trkpt>
      <trkpt lat="39.71098" lon="-.359332">
        <ele>203.986</ele>
        <time>2020-08-30T13:25:26Z</time>
      </trkpt>
      <trkpt lat="39.710975" lon="-.359245">
        <ele>203.714</ele>
        <time>2020-08-30T13:25:28Z</time>
      </trkpt>
      <trkpt lat="39.710976" lon="-.359171">
        <ele>203.608</ele>
        <time>2020-08-30T13:25:30Z</time>
      </trkpt>
      <trkpt lat="39.710988" lon="-.35909">
        <ele>203.568</ele>
        <time>2020-08-30T13:25:32Z</time>
      </trkpt>
      <trkpt lat="39.71099" lon="-.359017">
        <ele>203.438</ele>
        <time>2020-08-30T13:25:34Z</time>
      </trkpt>
      <trkpt lat="39.710999" lon="-.358939">
        <ele>203.380</ele>
        <time>2020-08-30T13:25:36Z</time>
      </trkpt>
      <trkpt lat="39.711017" lon="-.358846">
        <ele>203.232</ele>
        <time>2020-08-30T13:25:38Z</time>
      </trkpt>
      <trkpt lat="39.711036" lon="-.358762">
        <ele>203.260</ele>
        <time>2020-08-30T13:25:40Z</time>
      </trkpt>
      <trkpt lat="39.711054" lon="-.358678">
        <ele>203.027</ele>
        <time>2020-08-30T13:25:42Z</time>
      </trkpt>
      <trkpt lat="39.71106" lon="-.35857">
        <ele>202.995</ele>
        <time>2020-08-30T13:25:44Z</time>
      </trkpt>
      <trkpt lat="39.711102" lon="-.35848">
        <ele>202.975</ele>
        <time>2020-08-30T13:25:46Z</time>
      </trkpt>
      <trkpt lat="39.711139" lon="-.358371">
        <ele>202.949</ele>
        <time>2020-08-30T13:25:48Z</time>
      </trkpt>
      <trkpt lat="39.711156" lon="-.358308">
        <ele>202.902</ele>
        <time>2020-08-30T13:25:49Z</time>
      </trkpt>
      <trkpt lat="39.711178" lon="-.358254">
        <ele>202.922</ele>
        <time>2020-08-30T13:25:50Z</time>
      </trkpt>
      <trkpt lat="39.711204" lon="-.358204">
        <ele>202.808</ele>
        <time>2020-08-30T13:25:51Z</time>
      </trkpt>
      <trkpt lat="39.711238" lon="-.358153">
        <ele>202.819</ele>
        <time>2020-08-30T13:25:52Z</time>
      </trkpt>
      <trkpt lat="39.711263" lon="-.35809">
        <ele>202.819</ele>
        <time>2020-08-30T13:25:53Z</time>
      </trkpt>
      <trkpt lat="39.711293" lon="-.358038">
        <ele>202.831</ele>
        <time>2020-08-30T13:25:54Z</time>
      </trkpt>
      <trkpt lat="39.711315" lon="-.35798">
        <ele>202.893</ele>
        <time>2020-08-30T13:25:55Z</time>
      </trkpt>
      <trkpt lat="39.711348" lon="-.357939">
        <ele>202.811</ele>
        <time>2020-08-30T13:25:56Z</time>
      </trkpt>
      <trkpt lat="39.711375" lon="-.357881">
        <ele>202.858</ele>
        <time>2020-08-30T13:25:57Z</time>
      </trkpt>
      <trkpt lat="39.711397" lon="-.357815">
        <ele>202.786</ele>
        <time>2020-08-30T13:25:58Z</time>
      </trkpt>
      <trkpt lat="39.711436" lon="-.357777">
        <ele>202.546</ele>
        <time>2020-08-30T13:25:59Z</time>
      </trkpt>
      <trkpt lat="39.711465" lon="-.357728">
        <ele>202.483</ele>
        <time>2020-08-30T13:26:00Z</time>
      </trkpt>
      <trkpt lat="39.711497" lon="-.35768">
        <ele>202.325</ele>
        <time>2020-08-30T13:26:01Z</time>
      </trkpt>
      <trkpt lat="39.711553" lon="-.357591">
        <ele>202.117</ele>
        <time>2020-08-30T13:26:03Z</time>
      </trkpt>
      <trkpt lat="39.711577" lon="-.357541">
        <ele>202.008</ele>
        <time>2020-08-30T13:26:04Z</time>
      </trkpt>
      <trkpt lat="39.711601" lon="-.357488">
        <ele>202.063</ele>
        <time>2020-08-30T13:26:05Z</time>
      </trkpt>
      <trkpt lat="39.711661" lon="-.357399">
        <ele>201.943</ele>
        <time>2020-08-30T13:26:07Z</time>
      </trkpt>
      <trkpt lat="39.711696" lon="-.357303">
        <ele>201.745</ele>
        <time>2020-08-30T13:26:09Z</time>
      </trkpt>
      <trkpt lat="39.711746" lon="-.357214">
        <ele>201.477</ele>
        <time>2020-08-30T13:26:11Z</time>
      </trkpt>
      <trkpt lat="39.711794" lon="-.357121">
        <ele>201.235</ele>
        <time>2020-08-30T13:26:13Z</time>
      </trkpt>
      <trkpt lat="39.711845" lon="-.357033">
        <ele>200.982</ele>
        <time>2020-08-30T13:26:15Z</time>
      </trkpt>
      <trkpt lat="39.711882" lon="-.356944">
        <ele>200.710</ele>
        <time>2020-08-30T13:26:17Z</time>
      </trkpt>
      <trkpt lat="39.711921" lon="-.356846">
        <ele>200.670</ele>
        <time>2020-08-30T13:26:19Z</time>
      </trkpt>
      <trkpt lat="39.711964" lon="-.356763">
        <ele>200.593</ele>
        <time>2020-08-30T13:26:21Z</time>
      </trkpt>
      <trkpt lat="39.712011" lon="-.356693">
        <ele>200.565</ele>
        <time>2020-08-30T13:26:23Z</time>
      </trkpt>
      <trkpt lat="39.712055" lon="-.356601">
        <ele>200.521</ele>
        <time>2020-08-30T13:26:25Z</time>
      </trkpt>
      <trkpt lat="39.712108" lon="-.356511">
        <ele>200.508</ele>
        <time>2020-08-30T13:26:27Z</time>
      </trkpt>
      <trkpt lat="39.712143" lon="-.35641">
        <ele>200.584</ele>
        <time>2020-08-30T13:26:29Z</time>
      </trkpt>
      <trkpt lat="39.712166" lon="-.356354">
        <ele>200.524</ele>
        <time>2020-08-30T13:26:30Z</time>
      </trkpt>
      <trkpt lat="39.712187" lon="-.356298">
        <ele>200.396</ele>
        <time>2020-08-30T13:26:31Z</time>
      </trkpt>
      <trkpt lat="39.712206" lon="-.356244">
        <ele>200.298</ele>
        <time>2020-08-30T13:26:32Z</time>
      </trkpt>
      <trkpt lat="39.71223" lon="-.356134">
        <ele>200.036</ele>
        <time>2020-08-30T13:26:34Z</time>
      </trkpt>
      <trkpt lat="39.712243" lon="-.356075">
        <ele>199.973</ele>
        <time>2020-08-30T13:26:35Z</time>
      </trkpt>
      <trkpt lat="39.712265" lon="-.355966">
        <ele>199.821</ele>
        <time>2020-08-30T13:26:37Z</time>
      </trkpt>
      <trkpt lat="39.712282" lon="-.355872">
        <ele>199.781</ele>
        <time>2020-08-30T13:26:39Z</time>
      </trkpt>
      <trkpt lat="39.712303" lon="-.355776">
        <ele>199.662</ele>
        <time>2020-08-30T13:26:41Z</time>
      </trkpt>
      <trkpt lat="39.712306" lon="-.35568">
        <ele>199.483</ele>
        <time>2020-08-30T13:26:43Z</time>
      </trkpt>
      <trkpt lat="39.712309" lon="-.355587">
        <ele>199.211</ele>
        <time>2020-08-30T13:26:45Z</time>
      </trkpt>
      <trkpt lat="39.712299" lon="-.35551">
        <ele>199.208</ele>
        <time>2020-08-30T13:26:47Z</time>
      </trkpt>
      <trkpt lat="39.71227" lon="-.355434">
        <ele>199.541</ele>
        <time>2020-08-30T13:26:49Z</time>
      </trkpt>
      <trkpt lat="39.712247" lon="-.355369">
        <ele>200.061</ele>
        <time>2020-08-30T13:26:51Z</time>
      </trkpt>
      <trkpt lat="39.712231" lon="-.355311">
        <ele>200.293</ele>
        <time>2020-08-30T13:26:53Z</time>
      </trkpt>
      <trkpt lat="39.712221" lon="-.355241">
        <ele>200.935</ele>
        <time>2020-08-30T13:26:55Z</time>
      </trkpt>
      <trkpt lat="39.7122" lon="-.355169">
        <ele>200.953</ele>
        <time>2020-08-30T13:26:57Z</time>
      </trkpt>
      <trkpt lat="39.712187" lon="-.35509">
        <ele>200.960</ele>
        <time>2020-08-30T13:26:59Z</time>
      </trkpt>
      <trkpt lat="39.712173" lon="-.355011">
        <ele>200.758</ele>
        <time>2020-08-30T13:27:01Z</time>
      </trkpt>
      <trkpt lat="39.71216" lon="-.354928">
        <ele>200.718</ele>
        <time>2020-08-30T13:27:03Z</time>
      </trkpt>
      <trkpt lat="39.71214" lon="-.354849">
        <ele>200.642</ele>
        <time>2020-08-30T13:27:05Z</time>
      </trkpt>
      <trkpt lat="39.712119" lon="-.354773">
        <ele>200.622</ele>
        <time>2020-08-30T13:27:07Z</time>
      </trkpt>
      <trkpt lat="39.712079" lon="-.35471">
        <ele>200.414</ele>
        <time>2020-08-30T13:27:09Z</time>
      </trkpt>
      <trkpt lat="39.712038" lon="-.354658">
        <ele>200.308</ele>
        <time>2020-08-30T13:27:11Z</time>
      </trkpt>
      <trkpt lat="39.711999" lon="-.354603">
        <ele>200.349</ele>
        <time>2020-08-30T13:27:13Z</time>
      </trkpt>
      <trkpt lat="39.711962" lon="-.354535">
        <ele>200.519</ele>
        <time>2020-08-30T13:27:15Z</time>
      </trkpt>
      <trkpt lat="39.711912" lon="-.354456">
        <ele>200.771</ele>
        <time>2020-08-30T13:27:17Z</time>
      </trkpt>
      <trkpt lat="39.711864" lon="-.354376">
        <ele>200.713</ele>
        <time>2020-08-30T13:27:19Z</time>
      </trkpt>
      <trkpt lat="39.711806" lon="-.354299">
        <ele>200.541</ele>
        <time>2020-08-30T13:27:21Z</time>
      </trkpt>
      <trkpt lat="39.711749" lon="-.354227">
        <ele>200.378</ele>
        <time>2020-08-30T13:27:23Z</time>
      </trkpt>
      <trkpt lat="39.711688" lon="-.354143">
        <ele>200.126</ele>
        <time>2020-08-30T13:27:25Z</time>
      </trkpt>
      <trkpt lat="39.711648" lon="-.354099">
        <ele>200.036</ele>
        <time>2020-08-30T13:27:26Z</time>
      </trkpt>
      <trkpt lat="39.711607" lon="-.354027">
        <ele>200.053</ele>
        <time>2020-08-30T13:27:28Z</time>
      </trkpt>
      <trkpt lat="39.71155" lon="-.353967">
        <ele>199.904</ele>
        <time>2020-08-30T13:27:30Z</time>
      </trkpt>
      <trkpt lat="39.711499" lon="-.35389">
        <ele>199.514</ele>
        <time>2020-08-30T13:27:32Z</time>
      </trkpt>
      <trkpt lat="39.711437" lon="-.353815">
        <ele>199.408</ele>
        <time>2020-08-30T13:27:34Z</time>
      </trkpt>
      <trkpt lat="39.711365" lon="-.353764">
        <ele>199.560</ele>
        <time>2020-08-30T13:27:36Z</time>
      </trkpt>
      <trkpt lat="39.711291" lon="-.353718">
        <ele>199.390</ele>
        <time>2020-08-30T13:27:38Z</time>
      </trkpt>
      <trkpt lat="39.711215" lon="-.353668">
        <ele>198.762</ele>
        <time>2020-08-30T13:27:40Z</time>
      </trkpt>
      <trkpt lat="39.71114" lon="-.353623">
        <ele>198.064</ele>
        <time>2020-08-30T13:27:42Z</time>
      </trkpt>
      <trkpt lat="39.711059" lon="-.353577">
        <ele>197.812</ele>
        <time>2020-08-30T13:27:44Z</time>
      </trkpt>
      <trkpt lat="39.711018" lon="-.353551">
        <ele>197.859</ele>
        <time>2020-08-30T13:27:45Z</time>
      </trkpt>
      <trkpt lat="39.710939" lon="-.353499">
        <ele>197.837</ele>
        <time>2020-08-30T13:27:47Z</time>
      </trkpt>
      <trkpt lat="39.710897" lon="-.353471">
        <ele>197.657</ele>
        <time>2020-08-30T13:27:48Z</time>
      </trkpt>
      <trkpt lat="39.710857" lon="-.353444">
        <ele>197.455</ele>
        <time>2020-08-30T13:27:49Z</time>
      </trkpt>
      <trkpt lat="39.710781" lon="-.353407">
        <ele>197.007</ele>
        <time>2020-08-30T13:27:51Z</time>
      </trkpt>
      <trkpt lat="39.710705" lon="-.353389">
        <ele>197.017</ele>
        <time>2020-08-30T13:27:53Z</time>
      </trkpt>
      <trkpt lat="39.710633" lon="-.353365">
        <ele>197.008</ele>
        <time>2020-08-30T13:27:55Z</time>
      </trkpt>
      <trkpt lat="39.710578" lon="-.353352">
        <ele>196.320</ele>
        <time>2020-08-30T13:27:57Z</time>
      </trkpt>
      <trkpt lat="39.710543" lon="-.353307">
        <ele>195.680</ele>
        <time>2020-08-30T13:28:00Z</time>
      </trkpt>
      <trkpt lat="39.710524" lon="-.353245">
        <ele>195.582</ele>
        <time>2020-08-30T13:28:02Z</time>
      </trkpt>
      <trkpt lat="39.710526" lon="-.353163">
        <ele>195.494</ele>
        <time>2020-08-30T13:28:04Z</time>
      </trkpt>
      <trkpt lat="39.710534" lon="-.353058">
        <ele>195.222</ele>
        <time>2020-08-30T13:28:06Z</time>
      </trkpt>
      <trkpt lat="39.710523" lon="-.352947">
        <ele>194.479</ele>
        <time>2020-08-30T13:28:08Z</time>
      </trkpt>
      <trkpt lat="39.710518" lon="-.352832">
        <ele>193.677</ele>
        <time>2020-08-30T13:28:10Z</time>
      </trkpt>
      <trkpt lat="39.710522" lon="-.352716">
        <ele>192.647</ele>
        <time>2020-08-30T13:28:12Z</time>
      </trkpt>
      <trkpt lat="39.710527" lon="-.352655">
        <ele>192.164</ele>
        <time>2020-08-30T13:28:13Z</time>
      </trkpt>
      <trkpt lat="39.710547" lon="-.352591">
        <ele>191.506</ele>
        <time>2020-08-30T13:28:14Z</time>
      </trkpt>
      <trkpt lat="39.710573" lon="-.35253">
        <ele>190.916</ele>
        <time>2020-08-30T13:28:15Z</time>
      </trkpt>
      <trkpt lat="39.710602" lon="-.352472">
        <ele>189.708</ele>
        <time>2020-08-30T13:28:16Z</time>
      </trkpt>
      <trkpt lat="39.710624" lon="-.352414">
        <ele>189.331</ele>
        <time>2020-08-30T13:28:17Z</time>
      </trkpt>
      <trkpt lat="39.710639" lon="-.352353">
        <ele>189.131</ele>
        <time>2020-08-30T13:28:18Z</time>
      </trkpt>
      <trkpt lat="39.71066" lon="-.352296">
        <ele>188.923</ele>
        <time>2020-08-30T13:28:19Z</time>
      </trkpt>
      <trkpt lat="39.710669" lon="-.352206">
        <ele>188.815</ele>
        <time>2020-08-30T13:28:21Z</time>
      </trkpt>
      <trkpt lat="39.710656" lon="-.352145">
        <ele>188.843</ele>
        <time>2020-08-30T13:28:22Z</time>
      </trkpt>
      <trkpt lat="39.710633" lon="-.352092">
        <ele>188.750</ele>
        <time>2020-08-30T13:28:23Z</time>
      </trkpt>
      <trkpt lat="39.710574" lon="-.35203">
        <ele>188.738</ele>
        <time>2020-08-30T13:28:25Z</time>
      </trkpt>
      <trkpt lat="39.710508" lon="-.351977">
        <ele>188.698</ele>
        <time>2020-08-30T13:28:27Z</time>
      </trkpt>
      <trkpt lat="39.710431" lon="-.351933">
        <ele>188.427</ele>
        <time>2020-08-30T13:28:29Z</time>
      </trkpt>
      <trkpt lat="39.710352" lon="-.351882">
        <ele>188.268</ele>
        <time>2020-08-30T13:28:31Z</time>
      </trkpt>
      <trkpt lat="39.710309" lon="-.351854">
        <ele>188.214</ele>
        <time>2020-08-30T13:28:32Z</time>
      </trkpt>
      <trkpt lat="39.710271" lon="-.351818">
        <ele>188.108</ele>
        <time>2020-08-30T13:28:33Z</time>
      </trkpt>
      <trkpt lat="39.710207" lon="-.351749">
        <ele>188.177</ele>
        <time>2020-08-30T13:28:35Z</time>
      </trkpt>
      <trkpt lat="39.710165" lon="-.35166">
        <ele>188.037</ele>
        <time>2020-08-30T13:28:37Z</time>
      </trkpt>
      <trkpt lat="39.71013" lon="-.351561">
        <ele>187.839</ele>
        <time>2020-08-30T13:28:39Z</time>
      </trkpt>
      <trkpt lat="39.710094" lon="-.351455">
        <ele>187.531</ele>
        <time>2020-08-30T13:28:41Z</time>
      </trkpt>
      <trkpt lat="39.710057" lon="-.351353">
        <ele>187.259</ele>
        <time>2020-08-30T13:28:43Z</time>
      </trkpt>
      <trkpt lat="39.710033" lon="-.351303">
        <ele>187.116</ele>
        <time>2020-08-30T13:28:44Z</time>
      </trkpt>
      <trkpt lat="39.710013" lon="-.351247">
        <ele>187.144</ele>
        <time>2020-08-30T13:28:45Z</time>
      </trkpt>
      <trkpt lat="39.709992" lon="-.351186">
        <ele>187.194</ele>
        <time>2020-08-30T13:28:46Z</time>
      </trkpt>
      <trkpt lat="39.709966" lon="-.351129">
        <ele>187.298</ele>
        <time>2020-08-30T13:28:47Z</time>
      </trkpt>
      <trkpt lat="39.709942" lon="-.35108">
        <ele>187.215</ele>
        <time>2020-08-30T13:28:48Z</time>
      </trkpt>
      <trkpt lat="39.709926" lon="-.351021">
        <ele>186.826</ele>
        <time>2020-08-30T13:28:50Z</time>
      </trkpt>
      <trkpt lat="39.709885" lon="-.350968">
        <ele>185.608</ele>
        <time>2020-08-30T13:28:53Z</time>
      </trkpt>
      <trkpt lat="39.709848" lon="-.351006">
        <ele>185.244</ele>
        <time>2020-08-30T13:28:55Z</time>
      </trkpt>
      <trkpt lat="39.709823" lon="-.351073">
        <ele>185.454</ele>
        <time>2020-08-30T13:28:58Z</time>
      </trkpt>
      <trkpt lat="39.709808" lon="-.35113">
        <ele>185.956</ele>
        <time>2020-08-30T13:29:01Z</time>
      </trkpt>
      <trkpt lat="39.709762" lon="-.351192">
        <ele>186.498</ele>
        <time>2020-08-30T13:29:04Z</time>
      </trkpt>
      <trkpt lat="39.709718" lon="-.351222">
        <ele>186.996</ele>
        <time>2020-08-30T13:29:07Z</time>
      </trkpt>
      <trkpt lat="39.709672" lon="-.351218">
        <ele>187.383</ele>
        <time>2020-08-30T13:29:09Z</time>
      </trkpt>
      <trkpt lat="39.709626" lon="-.351192">
        <ele>187.861</ele>
        <time>2020-08-30T13:29:11Z</time>
      </trkpt>
      <trkpt lat="39.709571" lon="-.351162">
        <ele>187.881</ele>
        <time>2020-08-30T13:29:13Z</time>
      </trkpt>
      <trkpt lat="39.70951" lon="-.351123">
        <ele>187.839</ele>
        <time>2020-08-30T13:29:15Z</time>
      </trkpt>
      <trkpt lat="39.709451" lon="-.351083">
        <ele>187.901</ele>
        <time>2020-08-30T13:29:17Z</time>
      </trkpt>
      <trkpt lat="39.709393" lon="-.351046">
        <ele>187.821</ele>
        <time>2020-08-30T13:29:19Z</time>
      </trkpt>
      <trkpt lat="39.709333" lon="-.35101">
        <ele>187.608</ele>
        <time>2020-08-30T13:29:21Z</time>
      </trkpt>
      <trkpt lat="39.70927" lon="-.350964">
        <ele>187.458</ele>
        <time>2020-08-30T13:29:23Z</time>
      </trkpt>
      <trkpt lat="39.709204" lon="-.350913">
        <ele>187.498</ele>
        <time>2020-08-30T13:29:25Z</time>
      </trkpt>
      <trkpt lat="39.709134" lon="-.350861">
        <ele>187.080</ele>
        <time>2020-08-30T13:29:27Z</time>
      </trkpt>
      <trkpt lat="39.709049" lon="-.350815">
        <ele>186.732</ele>
        <time>2020-08-30T13:29:29Z</time>
      </trkpt>
      <trkpt lat="39.709009" lon="-.350785">
        <ele>186.550</ele>
        <time>2020-08-30T13:29:30Z</time>
      </trkpt>
      <trkpt lat="39.708972" lon="-.350751">
        <ele>186.117</ele>
        <time>2020-08-30T13:29:31Z</time>
      </trkpt>
      <trkpt lat="39.708931" lon="-.35072">
        <ele>186.135</ele>
        <time>2020-08-30T13:29:32Z</time>
      </trkpt>
      <trkpt lat="39.70889" lon="-.350682">
        <ele>185.945</ele>
        <time>2020-08-30T13:29:33Z</time>
      </trkpt>
      <trkpt lat="39.708844" lon="-.350643">
        <ele>185.699</ele>
        <time>2020-08-30T13:29:34Z</time>
      </trkpt>
      <trkpt lat="39.708795" lon="-.350606">
        <ele>185.407</ele>
        <time>2020-08-30T13:29:35Z</time>
      </trkpt>
      <trkpt lat="39.708758" lon="-.350563">
        <ele>185.327</ele>
        <time>2020-08-30T13:29:36Z</time>
      </trkpt>
      <trkpt lat="39.708707" lon="-.350523">
        <ele>185.108</ele>
        <time>2020-08-30T13:29:37Z</time>
      </trkpt>
      <trkpt lat="39.708658" lon="-.350481">
        <ele>184.964</ele>
        <time>2020-08-30T13:29:38Z</time>
      </trkpt>
      <trkpt lat="39.708604" lon="-.350448">
        <ele>184.824</ele>
        <time>2020-08-30T13:29:39Z</time>
      </trkpt>
      <trkpt lat="39.708546" lon="-.350419">
        <ele>184.636</ele>
        <time>2020-08-30T13:29:40Z</time>
      </trkpt>
      <trkpt lat="39.708487" lon="-.350393">
        <ele>184.518</ele>
        <time>2020-08-30T13:29:41Z</time>
      </trkpt>
      <trkpt lat="39.708432" lon="-.350367">
        <ele>184.166</ele>
        <time>2020-08-30T13:29:42Z</time>
      </trkpt>
      <trkpt lat="39.708382" lon="-.350331">
        <ele>183.843</ele>
        <time>2020-08-30T13:29:43Z</time>
      </trkpt>
      <trkpt lat="39.708325" lon="-.350299">
        <ele>183.511</ele>
        <time>2020-08-30T13:29:44Z</time>
      </trkpt>
      <trkpt lat="39.708264" lon="-.350268">
        <ele>183.151</ele>
        <time>2020-08-30T13:29:45Z</time>
      </trkpt>
      <trkpt lat="39.708209" lon="-.350234">
        <ele>182.822</ele>
        <time>2020-08-30T13:29:46Z</time>
      </trkpt>
      <trkpt lat="39.708158" lon="-.3502">
        <ele>182.762</ele>
        <time>2020-08-30T13:29:47Z</time>
      </trkpt>
      <trkpt lat="39.708089" lon="-.350171">
        <ele>182.108</ele>
        <time>2020-08-30T13:29:49Z</time>
      </trkpt>
      <trkpt lat="39.708026" lon="-.350144">
        <ele>181.808</ele>
        <time>2020-08-30T13:29:52Z</time>
      </trkpt>
      <trkpt lat="39.707974" lon="-.350117">
        <ele>181.347</ele>
        <time>2020-08-30T13:29:55Z</time>
      </trkpt>
      <trkpt lat="39.707897" lon="-.350014">
        <ele>180.277</ele>
        <time>2020-08-30T13:31:49Z</time>
      </trkpt>
      <trkpt lat="39.707839" lon="-.349988">
        <ele>180.359</ele>
        <time>2020-08-30T13:31:51Z</time>
      </trkpt>
      <trkpt lat="39.707783" lon="-.349961">
        <ele>180.361</ele>
        <time>2020-08-30T13:31:53Z</time>
      </trkpt>
      <trkpt lat="39.707719" lon="-.349947">
        <ele>180.519</ele>
        <time>2020-08-30T13:31:55Z</time>
      </trkpt>
      <trkpt lat="39.707657" lon="-.349927">
        <ele>180.686</ele>
        <time>2020-08-30T13:31:57Z</time>
      </trkpt>
      <trkpt lat="39.707598" lon="-.349915">
        <ele>180.584</ele>
        <time>2020-08-30T13:31:59Z</time>
      </trkpt>
      <trkpt lat="39.707542" lon="-.3499">
        <ele>180.444</ele>
        <time>2020-08-30T13:32:01Z</time>
      </trkpt>
      <trkpt lat="39.707488" lon="-.349895">
        <ele>180.369</ele>
        <time>2020-08-30T13:32:03Z</time>
      </trkpt>
      <trkpt lat="39.707437" lon="-.349887">
        <ele>180.504</ele>
        <time>2020-08-30T13:32:05Z</time>
      </trkpt>
      <trkpt lat="39.707385" lon="-.349859">
        <ele>180.924</ele>
        <time>2020-08-30T13:32:07Z</time>
      </trkpt>
      <trkpt lat="39.707323" lon="-.349832">
        <ele>181.208</ele>
        <time>2020-08-30T13:32:09Z</time>
      </trkpt>
      <trkpt lat="39.707262" lon="-.349818">
        <ele>181.731</ele>
        <time>2020-08-30T13:32:11Z</time>
      </trkpt>
      <trkpt lat="39.707196" lon="-.349811">
        <ele>182.431</ele>
        <time>2020-08-30T13:32:13Z</time>
      </trkpt>
      <trkpt lat="39.707132" lon="-.349801">
        <ele>182.623</ele>
        <time>2020-08-30T13:32:15Z</time>
      </trkpt>
      <trkpt lat="39.707077" lon="-.349779">
        <ele>182.545</ele>
        <time>2020-08-30T13:32:17Z</time>
      </trkpt>
      <trkpt lat="39.707031" lon="-.349748">
        <ele>182.683</ele>
        <time>2020-08-30T13:32:20Z</time>
      </trkpt>
      <trkpt lat="39.706972" lon="-.349724">
        <ele>182.810</ele>
        <time>2020-08-30T13:32:23Z</time>
      </trkpt>
      <trkpt lat="39.706917" lon="-.349694">
        <ele>183.198</ele>
        <time>2020-08-30T13:32:26Z</time>
      </trkpt>
      <trkpt lat="39.706868" lon="-.349674">
        <ele>183.278</ele>
        <time>2020-08-30T13:32:28Z</time>
      </trkpt>
      <trkpt lat="39.706816" lon="-.349662">
        <ele>183.345</ele>
        <time>2020-08-30T13:32:30Z</time>
      </trkpt>
      <trkpt lat="39.706772" lon="-.349642">
        <ele>183.547</ele>
        <time>2020-08-30T13:32:32Z</time>
      </trkpt>
      <trkpt lat="39.706703" lon="-.349609">
        <ele>183.611</ele>
        <time>2020-08-30T13:32:35Z</time>
      </trkpt>
      <trkpt lat="39.706651" lon="-.349602">
        <ele>183.508</ele>
        <time>2020-08-30T13:32:37Z</time>
      </trkpt>
      <trkpt lat="39.706605" lon="-.349588">
        <ele>183.519</ele>
        <time>2020-08-30T13:32:39Z</time>
      </trkpt>
      <trkpt lat="39.706556" lon="-.349576">
        <ele>183.439</ele>
        <time>2020-08-30T13:32:41Z</time>
      </trkpt>
      <trkpt lat="39.706511" lon="-.349549">
        <ele>183.581</ele>
        <time>2020-08-30T13:32:43Z</time>
      </trkpt>
      <trkpt lat="39.706439" lon="-.349504">
        <ele>183.513</ele>
        <time>2020-08-30T13:32:45Z</time>
      </trkpt>
      <trkpt lat="39.706389" lon="-.349476">
        <ele>183.481</ele>
        <time>2020-08-30T13:32:46Z</time>
      </trkpt>
      <trkpt lat="39.706337" lon="-.349453">
        <ele>183.268</ele>
        <time>2020-08-30T13:32:47Z</time>
      </trkpt>
      <trkpt lat="39.70628" lon="-.349429">
        <ele>183.046</ele>
        <time>2020-08-30T13:32:48Z</time>
      </trkpt>
      <trkpt lat="39.706229" lon="-.349414">
        <ele>182.866</ele>
        <time>2020-08-30T13:32:49Z</time>
      </trkpt>
      <trkpt lat="39.706156" lon="-.349409">
        <ele>182.711</ele>
        <time>2020-08-30T13:32:50Z</time>
      </trkpt>
      <trkpt lat="39.706085" lon="-.349373">
        <ele>182.621</ele>
        <time>2020-08-30T13:32:51Z</time>
      </trkpt>
      <trkpt lat="39.706025" lon="-.349356">
        <ele>182.503</ele>
        <time>2020-08-30T13:32:52Z</time>
      </trkpt>
      <trkpt lat="39.705972" lon="-.34934">
        <ele>182.408</ele>
        <time>2020-08-30T13:32:53Z</time>
      </trkpt>
      <trkpt lat="39.705905" lon="-.349328">
        <ele>182.476</ele>
        <time>2020-08-30T13:32:54Z</time>
      </trkpt>
      <trkpt lat="39.705853" lon="-.349306">
        <ele>182.416</ele>
        <time>2020-08-30T13:32:55Z</time>
      </trkpt>
      <trkpt lat="39.705801" lon="-.349288">
        <ele>182.358</ele>
        <time>2020-08-30T13:32:56Z</time>
      </trkpt>
      <trkpt lat="39.705753" lon="-.349268">
        <ele>182.270</ele>
        <time>2020-08-30T13:32:57Z</time>
      </trkpt>
      <trkpt lat="39.705695" lon="-.349244">
        <ele>182.048</ele>
        <time>2020-08-30T13:32:58Z</time>
      </trkpt>
      <trkpt lat="39.705642" lon="-.349224">
        <ele>181.815</ele>
        <time>2020-08-30T13:32:59Z</time>
      </trkpt>
      <trkpt lat="39.705594" lon="-.349199">
        <ele>181.623</ele>
        <time>2020-08-30T13:33:00Z</time>
      </trkpt>
      <trkpt lat="39.705542" lon="-.349156">
        <ele>181.443</ele>
        <time>2020-08-30T13:33:01Z</time>
      </trkpt>
      <trkpt lat="39.705484" lon="-.349132">
        <ele>181.344</ele>
        <time>2020-08-30T13:33:02Z</time>
      </trkpt>
      <trkpt lat="39.705424" lon="-.349107">
        <ele>181.205</ele>
        <time>2020-08-30T13:33:03Z</time>
      </trkpt>
      <trkpt lat="39.705361" lon="-.349082">
        <ele>181.115</ele>
        <time>2020-08-30T13:33:04Z</time>
      </trkpt>
      <trkpt lat="39.705306" lon="-.349056">
        <ele>180.908</ele>
        <time>2020-08-30T13:33:05Z</time>
      </trkpt>
      <trkpt lat="39.705255" lon="-.349033">
        <ele>180.899</ele>
        <time>2020-08-30T13:33:06Z</time>
      </trkpt>
      <trkpt lat="39.705195" lon="-.349009">
        <ele>180.759</ele>
        <time>2020-08-30T13:33:07Z</time>
      </trkpt>
      <trkpt lat="39.705141" lon="-.348987">
        <ele>180.561</ele>
        <time>2020-08-30T13:33:08Z</time>
      </trkpt>
      <trkpt lat="39.705087" lon="-.348963">
        <ele>180.513</ele>
        <time>2020-08-30T13:33:09Z</time>
      </trkpt>
      <trkpt lat="39.70504" lon="-.348947">
        <ele>180.561</ele>
        <time>2020-08-30T13:33:10Z</time>
      </trkpt>
      <trkpt lat="39.704972" lon="-.348903">
        <ele>180.418</ele>
        <time>2020-08-30T13:33:12Z</time>
      </trkpt>
      <trkpt lat="39.704896" lon="-.348858">
        <ele>180.376</ele>
        <time>2020-08-30T13:33:14Z</time>
      </trkpt>
      <trkpt lat="39.704814" lon="-.348803">
        <ele>180.386</ele>
        <time>2020-08-30T13:33:16Z</time>
      </trkpt>
      <trkpt lat="39.704767" lon="-.348779">
        <ele>180.212</ele>
        <time>2020-08-30T13:33:17Z</time>
      </trkpt>
      <trkpt lat="39.704725" lon="-.348758">
        <ele>180.232</ele>
        <time>2020-08-30T13:33:18Z</time>
      </trkpt>
      <trkpt lat="39.704653" lon="-.348716">
        <ele>180.305</ele>
        <time>2020-08-30T13:33:20Z</time>
      </trkpt>
      <trkpt lat="39.704573" lon="-.348672">
        <ele>180.408</ele>
        <time>2020-08-30T13:33:22Z</time>
      </trkpt>
      <trkpt lat="39.704496" lon="-.348643">
        <ele>180.556</ele>
        <time>2020-08-30T13:33:24Z</time>
      </trkpt>
      <trkpt lat="39.70443" lon="-.348607">
        <ele>180.766</ele>
        <time>2020-08-30T13:33:26Z</time>
      </trkpt>
      <trkpt lat="39.704378" lon="-.348551">
        <ele>180.958</ele>
        <time>2020-08-30T13:33:28Z</time>
      </trkpt>
      <trkpt lat="39.704339" lon="-.34851">
        <ele>181.070</ele>
        <time>2020-08-30T13:33:30Z</time>
      </trkpt>
      <trkpt lat="39.704286" lon="-.34845">
        <ele>181.318</ele>
        <time>2020-08-30T13:33:32Z</time>
      </trkpt>
      <trkpt lat="39.704224" lon="-.348385">
        <ele>181.715</ele>
        <time>2020-08-30T13:33:34Z</time>
      </trkpt>
      <trkpt lat="39.704168" lon="-.34835">
        <ele>181.833</ele>
        <time>2020-08-30T13:33:36Z</time>
      </trkpt>
      <trkpt lat="39.704098" lon="-.348295">
        <ele>181.783</ele>
        <time>2020-08-30T13:33:38Z</time>
      </trkpt>
      <trkpt lat="39.704024" lon="-.348251">
        <ele>181.526</ele>
        <time>2020-08-30T13:33:40Z</time>
      </trkpt>
      <trkpt lat="39.703938" lon="-.3482">
        <ele>181.447</ele>
        <time>2020-08-30T13:33:42Z</time>
      </trkpt>
      <trkpt lat="39.703871" lon="-.348144">
        <ele>181.311</ele>
        <time>2020-08-30T13:33:44Z</time>
      </trkpt>
      <trkpt lat="39.703795" lon="-.348093">
        <ele>181.108</ele>
        <time>2020-08-30T13:33:46Z</time>
      </trkpt>
      <trkpt lat="39.703716" lon="-.348073">
        <ele>181.147</ele>
        <time>2020-08-30T13:33:48Z</time>
      </trkpt>
      <trkpt lat="39.703637" lon="-.34805">
        <ele>181.187</ele>
        <time>2020-08-30T13:33:50Z</time>
      </trkpt>
      <trkpt lat="39.703553" lon="-.348001">
        <ele>180.979</ele>
        <time>2020-08-30T13:33:52Z</time>
      </trkpt>
      <trkpt lat="39.703513" lon="-.347953">
        <ele>180.781</ele>
        <time>2020-08-30T13:33:53Z</time>
      </trkpt>
      <trkpt lat="39.703472" lon="-.347914">
        <ele>180.539</ele>
        <time>2020-08-30T13:33:54Z</time>
      </trkpt>
      <trkpt lat="39.703427" lon="-.347871">
        <ele>180.166</ele>
        <time>2020-08-30T13:33:56Z</time>
      </trkpt>
      <trkpt lat="39.703357" lon="-.347801">
        <ele>179.954</ele>
        <time>2020-08-30T13:33:58Z</time>
      </trkpt>
      <trkpt lat="39.703313" lon="-.34777">
        <ele>179.844</ele>
        <time>2020-08-30T13:33:59Z</time>
      </trkpt>
      <trkpt lat="39.703268" lon="-.347744">
        <ele>179.722</ele>
        <time>2020-08-30T13:34:00Z</time>
      </trkpt>
      <trkpt lat="39.703227" lon="-.347714">
        <ele>179.562</ele>
        <time>2020-08-30T13:34:01Z</time>
      </trkpt>
      <trkpt lat="39.703158" lon="-.347655">
        <ele>179.308</ele>
        <time>2020-08-30T13:34:03Z</time>
      </trkpt>
      <trkpt lat="39.703089" lon="-.347603">
        <ele>179.208</ele>
        <time>2020-08-30T13:34:05Z</time>
      </trkpt>
      <trkpt lat="39.703047" lon="-.347577">
        <ele>179.297</ele>
        <time>2020-08-30T13:34:06Z</time>
      </trkpt>
      <trkpt lat="39.703001" lon="-.34755">
        <ele>179.257</ele>
        <time>2020-08-30T13:34:07Z</time>
      </trkpt>
      <trkpt lat="39.70296" lon="-.347521">
        <ele>179.259</ele>
        <time>2020-08-30T13:34:08Z</time>
      </trkpt>
      <trkpt lat="39.702919" lon="-.347497">
        <ele>179.241</ele>
        <time>2020-08-30T13:34:09Z</time>
      </trkpt>
      <trkpt lat="39.702854" lon="-.347433">
        <ele>179.259</ele>
        <time>2020-08-30T13:34:11Z</time>
      </trkpt>
      <trkpt lat="39.702795" lon="-.347372">
        <ele>179.246</ele>
        <time>2020-08-30T13:34:13Z</time>
      </trkpt>
      <trkpt lat="39.702723" lon="-.347316">
        <ele>179.234</ele>
        <time>2020-08-30T13:34:15Z</time>
      </trkpt>
      <trkpt lat="39.702659" lon="-.347241">
        <ele>179.074</ele>
        <time>2020-08-30T13:34:17Z</time>
      </trkpt>
      <trkpt lat="39.702614" lon="-.347209">
        <ele>178.961</ele>
        <time>2020-08-30T13:34:18Z</time>
      </trkpt>
      <trkpt lat="39.702577" lon="-.347174">
        <ele>178.821</ele>
        <time>2020-08-30T13:34:19Z</time>
      </trkpt>
      <trkpt lat="39.702506" lon="-.347115">
        <ele>178.813</ele>
        <time>2020-08-30T13:34:21Z</time>
      </trkpt>
      <trkpt lat="39.702472" lon="-.347075">
        <ele>178.808</ele>
        <time>2020-08-30T13:34:22Z</time>
      </trkpt>
      <trkpt lat="39.702438" lon="-.34703">
        <ele>178.831</ele>
        <time>2020-08-30T13:34:23Z</time>
      </trkpt>
      <trkpt lat="39.702406" lon="-.346986">
        <ele>178.741</ele>
        <time>2020-08-30T13:34:24Z</time>
      </trkpt>
      <trkpt lat="39.702362" lon="-.346905">
        <ele>178.613</ele>
        <time>2020-08-30T13:34:26Z</time>
      </trkpt>
      <trkpt lat="39.702335" lon="-.346805">
        <ele>178.475</ele>
        <time>2020-08-30T13:34:28Z</time>
      </trkpt>
      <trkpt lat="39.70228" lon="-.346718">
        <ele>178.223</ele>
        <time>2020-08-30T13:34:30Z</time>
      </trkpt>
      <trkpt lat="39.702229" lon="-.346635">
        <ele>178.150</ele>
        <time>2020-08-30T13:34:32Z</time>
      </trkpt>
      <trkpt lat="39.70217" lon="-.346565">
        <ele>178.168</ele>
        <time>2020-08-30T13:34:34Z</time>
      </trkpt>
      <trkpt lat="39.702104" lon="-.346514">
        <ele>178.298</ele>
        <time>2020-08-30T13:34:36Z</time>
      </trkpt>
      <trkpt lat="39.702073" lon="-.346469">
        <ele>178.223</ele>
        <time>2020-08-30T13:34:37Z</time>
      </trkpt>
      <trkpt lat="39.702007" lon="-.346417">
        <ele>178.283</ele>
        <time>2020-08-30T13:34:39Z</time>
      </trkpt>
      <trkpt lat="39.701955" lon="-.346351">
        <ele>178.411</ele>
        <time>2020-08-30T13:34:41Z</time>
      </trkpt>
      <trkpt lat="39.701914" lon="-.346328">
        <ele>178.508</ele>
        <time>2020-08-30T13:34:42Z</time>
      </trkpt>
      <trkpt lat="39.701844" lon="-.346274">
        <ele>178.957</ele>
        <time>2020-08-30T13:34:44Z</time>
      </trkpt>
      <trkpt lat="39.701772" lon="-.346197">
        <ele>179.167</ele>
        <time>2020-08-30T13:34:46Z</time>
      </trkpt>
      <trkpt lat="39.701731" lon="-.346165">
        <ele>179.259</ele>
        <time>2020-08-30T13:34:47Z</time>
      </trkpt>
      <trkpt lat="39.701666" lon="-.346122">
        <ele>179.231</ele>
        <time>2020-08-30T13:34:49Z</time>
      </trkpt>
      <trkpt lat="39.701607" lon="-.346059">
        <ele>179.219</ele>
        <time>2020-08-30T13:34:51Z</time>
      </trkpt>
      <trkpt lat="39.701566" lon="-.346026">
        <ele>179.196</ele>
        <time>2020-08-30T13:34:52Z</time>
      </trkpt>
      <trkpt lat="39.701527" lon="-.34599">
        <ele>179.114</ele>
        <time>2020-08-30T13:34:53Z</time>
      </trkpt>
      <trkpt lat="39.701459" lon="-.345937">
        <ele>179.124</ele>
        <time>2020-08-30T13:34:55Z</time>
      </trkpt>
      <trkpt lat="39.70139" lon="-.345874">
        <ele>179.075</ele>
        <time>2020-08-30T13:34:57Z</time>
      </trkpt>
      <trkpt lat="39.701354" lon="-.345838">
        <ele>178.928</ele>
        <time>2020-08-30T13:34:58Z</time>
      </trkpt>
      <trkpt lat="39.701284" lon="-.345804">
        <ele>178.720</ele>
        <time>2020-08-30T13:35:00Z</time>
      </trkpt>
      <trkpt lat="39.701239" lon="-.345747">
        <ele>178.708</ele>
        <time>2020-08-30T13:35:02Z</time>
      </trkpt>
      <trkpt lat="39.701196" lon="-.345724">
        <ele>178.812</ele>
        <time>2020-08-30T13:35:03Z</time>
      </trkpt>
      <trkpt lat="39.701146" lon="-.345688">
        <ele>179.062</ele>
        <time>2020-08-30T13:35:04Z</time>
      </trkpt>
      <trkpt lat="39.701074" lon="-.345628">
        <ele>179.024</ele>
        <time>2020-08-30T13:35:06Z</time>
      </trkpt>
      <trkpt lat="39.70103" lon="-.345609">
        <ele>179.086</ele>
        <time>2020-08-30T13:35:07Z</time>
      </trkpt>
      <trkpt lat="39.700983" lon="-.345577">
        <ele>178.854</ele>
        <time>2020-08-30T13:35:08Z</time>
      </trkpt>
      <trkpt lat="39.700925" lon="-.345559">
        <ele>178.461</ele>
        <time>2020-08-30T13:35:09Z</time>
      </trkpt>
      <trkpt lat="39.700875" lon="-.345536">
        <ele>178.229</ele>
        <time>2020-08-30T13:35:10Z</time>
      </trkpt>
      <trkpt lat="39.70083" lon="-.345507">
        <ele>178.159</ele>
        <time>2020-08-30T13:35:11Z</time>
      </trkpt>
      <trkpt lat="39.700777" lon="-.345475">
        <ele>177.848</ele>
        <time>2020-08-30T13:35:12Z</time>
      </trkpt>
      <trkpt lat="39.700726" lon="-.345447">
        <ele>177.761</ele>
        <time>2020-08-30T13:35:13Z</time>
      </trkpt>
      <trkpt lat="39.700685" lon="-.345422">
        <ele>177.617</ele>
        <time>2020-08-30T13:35:14Z</time>
      </trkpt>
      <trkpt lat="39.700646" lon="-.345391">
        <ele>177.508</ele>
        <time>2020-08-30T13:35:15Z</time>
      </trkpt>
      <trkpt lat="39.700606" lon="-.345358">
        <ele>177.539</ele>
        <time>2020-08-30T13:35:16Z</time>
      </trkpt>
      <trkpt lat="39.700567" lon="-.345324">
        <ele>177.769</ele>
        <time>2020-08-30T13:35:17Z</time>
      </trkpt>
      <trkpt lat="39.700505" lon="-.345263">
        <ele>177.921</ele>
        <time>2020-08-30T13:35:19Z</time>
      </trkpt>
      <trkpt lat="39.700469" lon="-.345221">
        <ele>178.063</ele>
        <time>2020-08-30T13:35:20Z</time>
      </trkpt>
      <trkpt lat="39.700428" lon="-.345178">
        <ele>178.031</ele>
        <time>2020-08-30T13:35:21Z</time>
      </trkpt>
      <trkpt lat="39.700365" lon="-.345146">
        <ele>178.078</ele>
        <time>2020-08-30T13:35:22Z</time>
      </trkpt>
      <trkpt lat="39.700315" lon="-.345115">
        <ele>178.136</ele>
        <time>2020-08-30T13:35:23Z</time>
      </trkpt>
      <trkpt lat="39.700264" lon="-.34508">
        <ele>178.186</ele>
        <time>2020-08-30T13:35:24Z</time>
      </trkpt>
      <trkpt lat="39.700227" lon="-.345039">
        <ele>178.022</ele>
        <time>2020-08-30T13:35:25Z</time>
      </trkpt>
      <trkpt lat="39.700179" lon="-.345006">
        <ele>177.862</ele>
        <time>2020-08-30T13:35:26Z</time>
      </trkpt>
      <trkpt lat="39.700127" lon="-.344971">
        <ele>177.608</ele>
        <time>2020-08-30T13:35:27Z</time>
      </trkpt>
      <trkpt lat="39.700093" lon="-.344921">
        <ele>177.308</ele>
        <time>2020-08-30T13:35:28Z</time>
      </trkpt>
      <trkpt lat="39.700048" lon="-.344876">
        <ele>177.027</ele>
        <time>2020-08-30T13:35:29Z</time>
      </trkpt>
      <trkpt lat="39.700015" lon="-.344825">
        <ele>176.737</ele>
        <time>2020-08-30T13:35:30Z</time>
      </trkpt>
      <trkpt lat="39.699985" lon="-.344705">
        <ele>176.119</ele>
        <time>2020-08-30T13:35:32Z</time>
      </trkpt>
      <trkpt lat="39.699966" lon="-.344634">
        <ele>175.921</ele>
        <time>2020-08-30T13:35:33Z</time>
      </trkpt>
      <trkpt lat="39.699944" lon="-.344569">
        <ele>175.739</ele>
        <time>2020-08-30T13:35:34Z</time>
      </trkpt>
      <trkpt lat="39.699929" lon="-.344514">
        <ele>175.586</ele>
        <time>2020-08-30T13:35:35Z</time>
      </trkpt>
      <trkpt lat="39.699909" lon="-.344451">
        <ele>175.334</ele>
        <time>2020-08-30T13:35:36Z</time>
      </trkpt>
      <trkpt lat="39.699878" lon="-.344383">
        <ele>175.374</ele>
        <time>2020-08-30T13:35:37Z</time>
      </trkpt>
      <trkpt lat="39.699847" lon="-.344319">
        <ele>175.185</ele>
        <time>2020-08-30T13:35:38Z</time>
      </trkpt>
      <trkpt lat="39.699822" lon="-.344259">
        <ele>174.989</ele>
        <time>2020-08-30T13:35:39Z</time>
      </trkpt>
      <trkpt lat="39.699794" lon="-.3442">
        <ele>174.717</ele>
        <time>2020-08-30T13:35:40Z</time>
      </trkpt>
      <trkpt lat="39.699751" lon="-.344149">
        <ele>174.108</ele>
        <time>2020-08-30T13:35:41Z</time>
      </trkpt>
      <trkpt lat="39.699716" lon="-.344105">
        <ele>173.793</ele>
        <time>2020-08-30T13:35:42Z</time>
      </trkpt>
      <trkpt lat="39.69966" lon="-.344026">
        <ele>173.173</ele>
        <time>2020-08-30T13:35:44Z</time>
      </trkpt>
      <trkpt lat="39.699628" lon="-.343926">
        <ele>172.715</ele>
        <time>2020-08-30T13:35:46Z</time>
      </trkpt>
      <trkpt lat="39.699632" lon="-.343861">
        <ele>172.657</ele>
        <time>2020-08-30T13:35:47Z</time>
      </trkpt>
      <trkpt lat="39.69963" lon="-.343796">
        <ele>172.455</ele>
        <time>2020-08-30T13:35:48Z</time>
      </trkpt>
      <trkpt lat="39.699629" lon="-.343724">
        <ele>172.342</ele>
        <time>2020-08-30T13:35:49Z</time>
      </trkpt>
      <trkpt lat="39.699619" lon="-.343632">
        <ele>172.160</ele>
        <time>2020-08-30T13:35:50Z</time>
      </trkpt>
      <trkpt lat="39.699607" lon="-.343551">
        <ele>172.060</ele>
        <time>2020-08-30T13:35:51Z</time>
      </trkpt>
      <trkpt lat="39.6996" lon="-.343473">
        <ele>171.938</ele>
        <time>2020-08-30T13:35:52Z</time>
      </trkpt>
      <trkpt lat="39.69959" lon="-.343399">
        <ele>171.770</ele>
        <time>2020-08-30T13:35:53Z</time>
      </trkpt>
      <trkpt lat="39.699579" lon="-.343335">
        <ele>171.517</ele>
        <time>2020-08-30T13:35:54Z</time>
      </trkpt>
      <trkpt lat="39.699564" lon="-.343273">
        <ele>171.208</ele>
        <time>2020-08-30T13:35:55Z</time>
      </trkpt>
      <trkpt lat="39.699547" lon="-.343193">
        <ele>170.858</ele>
        <time>2020-08-30T13:35:56Z</time>
      </trkpt>
      <trkpt lat="39.699492" lon="-.343113">
        <ele>170.448</ele>
        <time>2020-08-30T13:35:57Z</time>
      </trkpt>
      <trkpt lat="39.699441" lon="-.343037">
        <ele>170.010</ele>
        <time>2020-08-30T13:35:58Z</time>
      </trkpt>
      <trkpt lat="39.699391" lon="-.342953">
        <ele>169.572</ele>
        <time>2020-08-30T13:35:59Z</time>
      </trkpt>
      <trkpt lat="39.69935" lon="-.34288">
        <ele>169.010</ele>
        <time>2020-08-30T13:36:00Z</time>
      </trkpt>
      <trkpt lat="39.699292" lon="-.342832">
        <ele>168.667</ele>
        <time>2020-08-30T13:36:01Z</time>
      </trkpt>
      <trkpt lat="39.699237" lon="-.342797">
        <ele>168.135</ele>
        <time>2020-08-30T13:36:02Z</time>
      </trkpt>
      <trkpt lat="39.699193" lon="-.342763">
        <ele>167.715</ele>
        <time>2020-08-30T13:36:03Z</time>
      </trkpt>
      <trkpt lat="39.699141" lon="-.342724">
        <ele>167.452</ele>
        <time>2020-08-30T13:36:04Z</time>
      </trkpt>
      <trkpt lat="39.699093" lon="-.34269">
        <ele>166.853</ele>
        <time>2020-08-30T13:36:05Z</time>
      </trkpt>
      <trkpt lat="39.699042" lon="-.342659">
        <ele>166.508</ele>
        <time>2020-08-30T13:36:06Z</time>
      </trkpt>
      <trkpt lat="39.698963" lon="-.342617">
        <ele>166.208</ele>
        <time>2020-08-30T13:36:08Z</time>
      </trkpt>
      <trkpt lat="39.698901" lon="-.342567">
        <ele>166.190</ele>
        <time>2020-08-30T13:36:10Z</time>
      </trkpt>
      <trkpt lat="39.698826" lon="-.342534">
        <ele>165.960</ele>
        <time>2020-08-30T13:36:12Z</time>
      </trkpt>
      <trkpt lat="39.698757" lon="-.342521">
        <ele>165.122</ele>
        <time>2020-08-30T13:36:14Z</time>
      </trkpt>
      <trkpt lat="39.6987" lon="-.342501">
        <ele>163.844</ele>
        <time>2020-08-30T13:36:16Z</time>
      </trkpt>
      <trkpt lat="39.698627" lon="-.342509">
        <ele>162.612</ele>
        <time>2020-08-30T13:36:18Z</time>
      </trkpt>
      <trkpt lat="39.698575" lon="-.342541">
        <ele>161.719</ele>
        <time>2020-08-30T13:36:20Z</time>
      </trkpt>
      <trkpt lat="39.698527" lon="-.34255">
        <ele>160.637</ele>
        <time>2020-08-30T13:36:44Z</time>
      </trkpt>
      <trkpt lat="39.698482" lon="-.342599">
        <ele>160.937</ele>
        <time>2020-08-30T13:36:51Z</time>
      </trkpt>
      <trkpt lat="39.698455" lon="-.342647">
        <ele>161.031</ele>
        <time>2020-08-30T13:36:53Z</time>
      </trkpt>
      <trkpt lat="39.698422" lon="-.3427">
        <ele>161.261</ele>
        <time>2020-08-30T13:36:55Z</time>
      </trkpt>
      <trkpt lat="39.698371" lon="-.342734">
        <ele>161.407</ele>
        <time>2020-08-30T13:36:57Z</time>
      </trkpt>
      <trkpt lat="39.6983" lon="-.342697">
        <ele>161.808</ele>
        <time>2020-08-30T13:36:59Z</time>
      </trkpt>
      <trkpt lat="39.698265" lon="-.342598">
        <ele>162.148</ele>
        <time>2020-08-30T13:37:01Z</time>
      </trkpt>
      <trkpt lat="39.698323" lon="-.342558">
        <ele>162.238</ele>
        <time>2020-08-30T13:37:03Z</time>
      </trkpt>
      <trkpt lat="39.69836" lon="-.342501">
        <ele>161.940</ele>
        <time>2020-08-30T13:37:06Z</time>
      </trkpt>
      <trkpt lat="39.698404" lon="-.342453">
        <ele>161.752</ele>
        <time>2020-08-30T13:37:09Z</time>
      </trkpt>
      <trkpt lat="39.698424" lon="-.342399">
        <ele>161.750</ele>
        <time>2020-08-30T13:37:10Z</time>
      </trkpt>
      <trkpt lat="39.698408" lon="-.34223">
        <ele>161.567</ele>
        <time>2020-08-30T13:37:12Z</time>
      </trkpt>
      <trkpt lat="39.698444" lon="-.342136">
        <ele>161.545</ele>
        <time>2020-08-30T13:37:13Z</time>
      </trkpt>
      <trkpt lat="39.698484" lon="-.342035">
        <ele>160.975</ele>
        <time>2020-08-30T13:37:14Z</time>
      </trkpt>
      <trkpt lat="39.698549" lon="-.341915">
        <ele>160.478</ele>
        <time>2020-08-30T13:37:15Z</time>
      </trkpt>
      <trkpt lat="39.698604" lon="-.341804">
        <ele>160.033</ele>
        <time>2020-08-30T13:37:16Z</time>
      </trkpt>
      <trkpt lat="39.698639" lon="-.341714">
        <ele>159.626</ele>
        <time>2020-08-30T13:37:17Z</time>
      </trkpt>
      <trkpt lat="39.69867" lon="-.341635">
        <ele>159.208</ele>
        <time>2020-08-30T13:37:18Z</time>
      </trkpt>
      <trkpt lat="39.698702" lon="-.341551">
        <ele>158.862</ele>
        <time>2020-08-30T13:37:19Z</time>
      </trkpt>
      <trkpt lat="39.698727" lon="-.341488">
        <ele>158.622</ele>
        <time>2020-08-30T13:37:20Z</time>
      </trkpt>
      <trkpt lat="39.69876" lon="-.341417">
        <ele>158.464</ele>
        <time>2020-08-30T13:37:21Z</time>
      </trkpt>
      <trkpt lat="39.698776" lon="-.341351">
        <ele>158.256</ele>
        <time>2020-08-30T13:37:22Z</time>
      </trkpt>
      <trkpt lat="39.698778" lon="-.341281">
        <ele>158.294</ele>
        <time>2020-08-30T13:37:23Z</time>
      </trkpt>
      <trkpt lat="39.698754" lon="-.341177">
        <ele>158.451</ele>
        <time>2020-08-30T13:37:25Z</time>
      </trkpt>
      <trkpt lat="39.698732" lon="-.341117">
        <ele>158.549</ele>
        <time>2020-08-30T13:37:26Z</time>
      </trkpt>
      <trkpt lat="39.698709" lon="-.341019">
        <ele>158.659</ele>
        <time>2020-08-30T13:37:28Z</time>
      </trkpt>
      <trkpt lat="39.698674" lon="-.340932">
        <ele>158.475</ele>
        <time>2020-08-30T13:37:30Z</time>
      </trkpt>
      <trkpt lat="39.69864" lon="-.340859">
        <ele>158.428</ele>
        <time>2020-08-30T13:37:32Z</time>
      </trkpt>
      <trkpt lat="39.698597" lon="-.340791">
        <ele>158.620</ele>
        <time>2020-08-30T13:37:34Z</time>
      </trkpt>
      <trkpt lat="39.698558" lon="-.340759">
        <ele>158.808</ele>
        <time>2020-08-30T13:37:36Z</time>
      </trkpt>
      <trkpt lat="39.6985" lon="-.340803">
        <ele>159.082</ele>
        <time>2020-08-30T13:37:39Z</time>
      </trkpt>
      <trkpt lat="39.698461" lon="-.340856">
        <ele>159.022</ele>
        <time>2020-08-30T13:37:41Z</time>
      </trkpt>
      <trkpt lat="39.698405" lon="-.340894">
        <ele>159.054</ele>
        <time>2020-08-30T13:37:43Z</time>
      </trkpt>
      <trkpt lat="39.698365" lon="-.340929">
        <ele>158.986</ele>
        <time>2020-08-30T13:37:45Z</time>
      </trkpt>
      <trkpt lat="39.698319" lon="-.340972">
        <ele>158.974</ele>
        <time>2020-08-30T13:37:47Z</time>
      </trkpt>
      <trkpt lat="39.698266" lon="-.340988">
        <ele>158.871</ele>
        <time>2020-08-30T13:37:50Z</time>
      </trkpt>
      <trkpt lat="39.698185" lon="-.341044">
        <ele>158.849</ele>
        <time>2020-08-30T13:37:53Z</time>
      </trkpt>
      <trkpt lat="39.698138" lon="-.341098">
        <ele>159.079</ele>
        <time>2020-08-30T13:37:55Z</time>
      </trkpt>
      <trkpt lat="39.69809" lon="-.341138">
        <ele>159.338</ele>
        <time>2020-08-30T13:37:57Z</time>
      </trkpt>
      <trkpt lat="39.698041" lon="-.341186">
        <ele>159.770</ele>
        <time>2020-08-30T13:37:59Z</time>
      </trkpt>
      <trkpt lat="39.698" lon="-.341228">
        <ele>160.617</ele>
        <time>2020-08-30T13:38:01Z</time>
      </trkpt>
      <trkpt lat="39.69797" lon="-.341277">
        <ele>160.908</ele>
        <time>2020-08-30T13:38:03Z</time>
      </trkpt>
      <trkpt lat="39.697932" lon="-.341351">
        <ele>161.098</ele>
        <time>2020-08-30T13:38:06Z</time>
      </trkpt>
      <trkpt lat="39.697908" lon="-.341444">
        <ele>161.658</ele>
        <time>2020-08-30T13:38:09Z</time>
      </trkpt>
      <trkpt lat="39.697898" lon="-.341512">
        <ele>162.670</ele>
        <time>2020-08-30T13:38:11Z</time>
      </trkpt>
      <trkpt lat="39.697895" lon="-.341573">
        <ele>163.082</ele>
        <time>2020-08-30T13:38:14Z</time>
      </trkpt>
      <trkpt lat="39.697889" lon="-.341631">
        <ele>163.130</ele>
        <time>2020-08-30T13:38:16Z</time>
      </trkpt>
      <trkpt lat="39.697891" lon="-.341693">
        <ele>162.517</ele>
        <time>2020-08-30T13:38:18Z</time>
      </trkpt>
      <trkpt lat="39.697936" lon="-.341732">
        <ele>163.315</ele>
        <time>2020-08-30T13:38:20Z</time>
      </trkpt>
      <trkpt lat="39.697952" lon="-.341791">
        <ele>163.735</ele>
        <time>2020-08-30T13:38:22Z</time>
      </trkpt>
      <trkpt lat="39.697973" lon="-.341857">
        <ele>164.732</ele>
        <time>2020-08-30T13:38:25Z</time>
      </trkpt>
      <trkpt lat="39.697993" lon="-.341933">
        <ele>165.392</ele>
        <time>2020-08-30T13:38:29Z</time>
      </trkpt>
      <trkpt lat="39.697998" lon="-.342008">
        <ele>165.811</ele>
        <time>2020-08-30T13:38:33Z</time>
      </trkpt>
      <trkpt lat="39.69801" lon="-.342069">
        <ele>166.308</ele>
        <time>2020-08-30T13:38:36Z</time>
      </trkpt>
      <trkpt lat="39.698032" lon="-.34214">
        <ele>166.888</ele>
        <time>2020-08-30T13:38:40Z</time>
      </trkpt>
      <trkpt lat="39.69805" lon="-.342199">
        <ele>167.298</ele>
        <time>2020-08-30T13:38:44Z</time>
      </trkpt>
      <trkpt lat="39.698056" lon="-.342267">
        <ele>168.040</ele>
        <time>2020-08-30T13:38:48Z</time>
      </trkpt>
      <trkpt lat="39.698064" lon="-.342338">
        <ele>168.582</ele>
        <time>2020-08-30T13:38:52Z</time>
      </trkpt>
      <trkpt lat="39.698081" lon="-.342408">
        <ele>168.810</ele>
        <time>2020-08-30T13:38:56Z</time>
      </trkpt>
      <trkpt lat="39.698085" lon="-.342467">
        <ele>168.937</ele>
        <time>2020-08-30T13:38:59Z</time>
      </trkpt>
      <trkpt lat="39.698106" lon="-.34253">
        <ele>169.125</ele>
        <time>2020-08-30T13:39:02Z</time>
      </trkpt>
      <trkpt lat="39.698114" lon="-.342598">
        <ele>169.535</ele>
        <time>2020-08-30T13:39:05Z</time>
      </trkpt>
      <trkpt lat="39.69812" lon="-.342663">
        <ele>169.767</ele>
        <time>2020-08-30T13:39:08Z</time>
      </trkpt>
      <trkpt lat="39.698129" lon="-.342726">
        <ele>170.081</ele>
        <time>2020-08-30T13:39:11Z</time>
      </trkpt>
      <trkpt lat="39.698144" lon="-.342806">
        <ele>170.619</ele>
        <time>2020-08-30T13:39:15Z</time>
      </trkpt>
      <trkpt lat="39.698144" lon="-.342885">
        <ele>171.008</ele>
        <time>2020-08-30T13:39:19Z</time>
      </trkpt>
      <trkpt lat="39.698134" lon="-.342951">
        <ele>171.431</ele>
        <time>2020-08-30T13:39:22Z</time>
      </trkpt>
      <trkpt lat="39.698118" lon="-.343015">
        <ele>171.751</ele>
        <time>2020-08-30T13:39:25Z</time>
      </trkpt>
      <trkpt lat="39.698099" lon="-.34309">
        <ele>172.153</ele>
        <time>2020-08-30T13:39:28Z</time>
      </trkpt>
      <trkpt lat="39.698061" lon="-.34313">
        <ele>172.545</ele>
        <time>2020-08-30T13:39:31Z</time>
      </trkpt>
      <trkpt lat="39.698016" lon="-.343145">
        <ele>172.773</ele>
        <time>2020-08-30T13:39:33Z</time>
      </trkpt>
      <trkpt lat="39.697961" lon="-.343118">
        <ele>173.330</ele>
        <time>2020-08-30T13:39:36Z</time>
      </trkpt>
      <trkpt lat="39.697914" lon="-.34309">
        <ele>173.458</ele>
        <time>2020-08-30T13:39:38Z</time>
      </trkpt>
      <trkpt lat="39.697867" lon="-.343047">
        <ele>173.488</ele>
        <time>2020-08-30T13:39:40Z</time>
      </trkpt>
      <trkpt lat="39.697813" lon="-.342996">
        <ele>173.573</ele>
        <time>2020-08-30T13:39:42Z</time>
      </trkpt>
      <trkpt lat="39.697768" lon="-.342959">
        <ele>173.685</ele>
        <time>2020-08-30T13:39:44Z</time>
      </trkpt>
      <trkpt lat="39.697714" lon="-.342916">
        <ele>173.713</ele>
        <time>2020-08-30T13:39:47Z</time>
      </trkpt>
      <trkpt lat="39.697684" lon="-.342864">
        <ele>173.608</ele>
        <time>2020-08-30T13:39:49Z</time>
      </trkpt>
      <trkpt lat="39.697633" lon="-.342823">
        <ele>173.642</ele>
        <time>2020-08-30T13:39:51Z</time>
      </trkpt>
      <trkpt lat="39.697585" lon="-.342781">
        <ele>173.692</ele>
        <time>2020-08-30T13:39:53Z</time>
      </trkpt>
      <trkpt lat="39.697539" lon="-.342735">
        <ele>173.524</ele>
        <time>2020-08-30T13:39:55Z</time>
      </trkpt>
      <trkpt lat="39.69748" lon="-.342692">
        <ele>173.566</ele>
        <time>2020-08-30T13:39:57Z</time>
      </trkpt>
      <trkpt lat="39.697424" lon="-.342637">
        <ele>173.564</ele>
        <time>2020-08-30T13:39:59Z</time>
      </trkpt>
      <trkpt lat="39.697389" lon="-.34257">
        <ele>173.311</ele>
        <time>2020-08-30T13:40:01Z</time>
      </trkpt>
      <trkpt lat="39.697323" lon="-.342481">
        <ele>173.179</ele>
        <time>2020-08-30T13:40:03Z</time>
      </trkpt>
      <trkpt lat="39.697273" lon="-.342406">
        <ele>172.789</ele>
        <time>2020-08-30T13:40:05Z</time>
      </trkpt>
      <trkpt lat="39.697221" lon="-.342331">
        <ele>172.773</ele>
        <time>2020-08-30T13:40:07Z</time>
      </trkpt>
      <trkpt lat="39.697172" lon="-.342273">
        <ele>172.685</ele>
        <time>2020-08-30T13:40:09Z</time>
      </trkpt>
      <trkpt lat="39.697133" lon="-.342201">
        <ele>172.413</ele>
        <time>2020-08-30T13:40:11Z</time>
      </trkpt>
      <trkpt lat="39.697095" lon="-.342149">
        <ele>172.308</ele>
        <time>2020-08-30T13:40:13Z</time>
      </trkpt>
      <trkpt lat="39.697057" lon="-.342077">
        <ele>172.242</ele>
        <time>2020-08-30T13:40:15Z</time>
      </trkpt>
      <trkpt lat="39.697023" lon="-.341989">
        <ele>172.292</ele>
        <time>2020-08-30T13:40:17Z</time>
      </trkpt>
      <trkpt lat="39.696984" lon="-.341933">
        <ele>172.284</ele>
        <time>2020-08-30T13:40:19Z</time>
      </trkpt>
      <trkpt lat="39.696962" lon="-.341876">
        <ele>172.246</ele>
        <time>2020-08-30T13:40:21Z</time>
      </trkpt>
      <trkpt lat="39.696939" lon="-.341813">
        <ele>172.164</ele>
        <time>2020-08-30T13:40:23Z</time>
      </trkpt>
      <trkpt lat="39.696914" lon="-.341759">
        <ele>172.171</ele>
        <time>2020-08-30T13:40:25Z</time>
      </trkpt>
      <trkpt lat="39.696902" lon="-.341665">
        <ele>172.159</ele>
        <time>2020-08-30T13:40:27Z</time>
      </trkpt>
      <trkpt lat="39.696888" lon="-.341568">
        <ele>172.029</ele>
        <time>2020-08-30T13:40:29Z</time>
      </trkpt>
      <trkpt lat="39.696868" lon="-.341492">
        <ele>172.176</ele>
        <time>2020-08-30T13:40:31Z</time>
      </trkpt>
      <trkpt lat="39.696861" lon="-.341403">
        <ele>172.290</ele>
        <time>2020-08-30T13:40:33Z</time>
      </trkpt>
      <trkpt lat="39.696837" lon="-.341333">
        <ele>172.519</ele>
        <time>2020-08-30T13:40:35Z</time>
      </trkpt>
      <trkpt lat="39.69681" lon="-.341277">
        <ele>172.808</ele>
        <time>2020-08-30T13:40:37Z</time>
      </trkpt>
      <trkpt lat="39.696801" lon="-.341212">
        <ele>173.152</ele>
        <time>2020-08-30T13:40:39Z</time>
      </trkpt>
      <trkpt lat="39.696795" lon="-.341114">
        <ele>173.312</ele>
        <time>2020-08-30T13:40:41Z</time>
      </trkpt>
      <trkpt lat="39.696773" lon="-.341013">
        <ele>173.014</ele>
        <time>2020-08-30T13:40:43Z</time>
      </trkpt>
      <trkpt lat="39.696763" lon="-.340933">
        <ele>173.026</ele>
        <time>2020-08-30T13:40:45Z</time>
      </trkpt>
      <trkpt lat="39.696755" lon="-.340835">
        <ele>173.094</ele>
        <time>2020-08-30T13:40:47Z</time>
      </trkpt>
      <trkpt lat="39.696744" lon="-.340749">
        <ele>173.031</ele>
        <time>2020-08-30T13:40:49Z</time>
      </trkpt>
      <trkpt lat="39.696735" lon="-.340666">
        <ele>173.129</ele>
        <time>2020-08-30T13:40:51Z</time>
      </trkpt>
      <trkpt lat="39.696716" lon="-.340565">
        <ele>173.159</ele>
        <time>2020-08-30T13:40:53Z</time>
      </trkpt>
      <trkpt lat="39.696711" lon="-.340479">
        <ele>173.138</ele>
        <time>2020-08-30T13:40:55Z</time>
      </trkpt>
      <trkpt lat="39.696702" lon="-.340392">
        <ele>173.170</ele>
        <time>2020-08-30T13:40:57Z</time>
      </trkpt>
      <trkpt lat="39.696676" lon="-.340315">
        <ele>173.117</ele>
        <time>2020-08-30T13:40:59Z</time>
      </trkpt>
      <trkpt lat="39.69667" lon="-.340253">
        <ele>173.108</ele>
        <time>2020-08-30T13:41:00Z</time>
      </trkpt>
      <trkpt lat="39.696672" lon="-.340167">
        <ele>173.158</ele>
        <time>2020-08-30T13:41:02Z</time>
      </trkpt>
      <trkpt lat="39.696654" lon="-.340114">
        <ele>173.238</ele>
        <time>2020-08-30T13:41:03Z</time>
      </trkpt>
      <trkpt lat="39.696634" lon="-.340029">
        <ele>173.270</ele>
        <time>2020-08-30T13:41:05Z</time>
      </trkpt>
      <trkpt lat="39.696621" lon="-.339963">
        <ele>173.212</ele>
        <time>2020-08-30T13:41:07Z</time>
      </trkpt>
      <trkpt lat="39.696599" lon="-.339897">
        <ele>173.210</ele>
        <time>2020-08-30T13:41:09Z</time>
      </trkpt>
      <trkpt lat="39.696597" lon="-.33983">
        <ele>173.347</ele>
        <time>2020-08-30T13:41:11Z</time>
      </trkpt>
      <trkpt lat="39.696589" lon="-.339762">
        <ele>173.325</ele>
        <time>2020-08-30T13:41:13Z</time>
      </trkpt>
      <trkpt lat="39.696561" lon="-.339709">
        <ele>173.165</ele>
        <time>2020-08-30T13:41:15Z</time>
      </trkpt>
      <trkpt lat="39.69654" lon="-.339623">
        <ele>173.145</ele>
        <time>2020-08-30T13:41:17Z</time>
      </trkpt>
      <trkpt lat="39.696516" lon="-.339551">
        <ele>173.147</ele>
        <time>2020-08-30T13:41:19Z</time>
      </trkpt>
      <trkpt lat="39.696478" lon="-.339497">
        <ele>172.911</ele>
        <time>2020-08-30T13:41:21Z</time>
      </trkpt>
      <trkpt lat="39.69644" lon="-.33942">
        <ele>172.908</ele>
        <time>2020-08-30T13:41:24Z</time>
      </trkpt>
      <trkpt lat="39.696411" lon="-.339335">
        <ele>172.929</ele>
        <time>2020-08-30T13:41:26Z</time>
      </trkpt>
      <trkpt lat="39.696373" lon="-.339255">
        <ele>172.969</ele>
        <time>2020-08-30T13:41:28Z</time>
      </trkpt>
      <trkpt lat="39.696354" lon="-.339178">
        <ele>172.941</ele>
        <time>2020-08-30T13:41:30Z</time>
      </trkpt>
      <trkpt lat="39.696317" lon="-.339103">
        <ele>173.063</ele>
        <time>2020-08-30T13:41:32Z</time>
      </trkpt>
      <trkpt lat="39.696274" lon="-.339037">
        <ele>173.021</ele>
        <time>2020-08-30T13:41:34Z</time>
      </trkpt>
      <trkpt lat="39.696228" lon="-.339002">
        <ele>173.068</ele>
        <time>2020-08-30T13:41:36Z</time>
      </trkpt>
      <trkpt lat="39.696178" lon="-.338911">
        <ele>172.696</ele>
        <time>2020-08-30T13:41:45Z</time>
      </trkpt>
      <trkpt lat="39.696161" lon="-.338854">
        <ele>172.876</ele>
        <time>2020-08-30T13:41:49Z</time>
      </trkpt>
      <trkpt lat="39.696135" lon="-.338804">
        <ele>172.983</ele>
        <time>2020-08-30T13:41:52Z</time>
      </trkpt>
      <trkpt lat="39.696096" lon="-.338767">
        <ele>173.125</ele>
        <time>2020-08-30T13:41:56Z</time>
      </trkpt>
      <trkpt lat="39.696063" lon="-.338712">
        <ele>173.217</ele>
        <time>2020-08-30T13:41:59Z</time>
      </trkpt>
      <trkpt lat="39.69531" lon="-.337972">
        <ele>173.508</ele>
        <time>2020-08-30T13:42:48Z</time>
      </trkpt>
      <trkpt lat="39.695139" lon="-.337349">
        <ele>172.963</ele>
        <time>2020-08-30T13:42:50Z</time>
      </trkpt>
      <trkpt lat="39.695075" lon="-.3373">
        <ele>171.873</ele>
        <time>2020-08-30T13:42:51Z</time>
      </trkpt>
      <trkpt lat="39.695032" lon="-.337257">
        <ele>171.815</ele>
        <time>2020-08-30T13:42:53Z</time>
      </trkpt>
      <trkpt lat="39.694985" lon="-.337175">
        <ele>171.767</ele>
        <time>2020-08-30T13:42:56Z</time>
      </trkpt>
      <trkpt lat="39.69494" lon="-.337155">
        <ele>171.775</ele>
        <time>2020-08-30T13:42:58Z</time>
      </trkpt>
      <trkpt lat="39.694893" lon="-.337086">
        <ele>171.862</ele>
        <time>2020-08-30T13:43:00Z</time>
      </trkpt>
      <trkpt lat="39.694835" lon="-.33702">
        <ele>171.940</ele>
        <time>2020-08-30T13:43:02Z</time>
      </trkpt>
      <trkpt lat="39.6948" lon="-.336954">
        <ele>171.850</ele>
        <time>2020-08-30T13:43:04Z</time>
      </trkpt>
      <trkpt lat="39.694768" lon="-.336887">
        <ele>171.733</ele>
        <time>2020-08-30T13:43:06Z</time>
      </trkpt>
      <trkpt lat="39.694733" lon="-.336833">
        <ele>171.623</ele>
        <time>2020-08-30T13:43:08Z</time>
      </trkpt>
      <trkpt lat="39.694702" lon="-.336751">
        <ele>171.615</ele>
        <time>2020-08-30T13:43:10Z</time>
      </trkpt>
      <trkpt lat="39.694663" lon="-.336702">
        <ele>171.608</ele>
        <time>2020-08-30T13:43:12Z</time>
      </trkpt>
      <trkpt lat="39.694624" lon="-.336665">
        <ele>171.668</ele>
        <time>2020-08-30T13:43:13Z</time>
      </trkpt>
      <trkpt lat="39.694579" lon="-.33663">
        <ele>171.638</ele>
        <time>2020-08-30T13:43:14Z</time>
      </trkpt>
      <trkpt lat="39.694513" lon="-.336561">
        <ele>171.660</ele>
        <time>2020-08-30T13:43:16Z</time>
      </trkpt>
      <trkpt lat="39.694474" lon="-.336511">
        <ele>171.472</ele>
        <time>2020-08-30T13:43:17Z</time>
      </trkpt>
      <trkpt lat="39.69444" lon="-.336456">
        <ele>171.390</ele>
        <time>2020-08-30T13:43:18Z</time>
      </trkpt>
      <trkpt lat="39.694411" lon="-.336399">
        <ele>171.267</ele>
        <time>2020-08-30T13:43:19Z</time>
      </trkpt>
      <trkpt lat="39.694379" lon="-.336353">
        <ele>171.165</ele>
        <time>2020-08-30T13:43:20Z</time>
      </trkpt>
      <trkpt lat="39.694349" lon="-.336307">
        <ele>171.095</ele>
        <time>2020-08-30T13:43:21Z</time>
      </trkpt>
      <trkpt lat="39.694318" lon="-.336262">
        <ele>170.949</ele>
        <time>2020-08-30T13:43:22Z</time>
      </trkpt>
      <trkpt lat="39.694285" lon="-.336214">
        <ele>170.802</ele>
        <time>2020-08-30T13:43:23Z</time>
      </trkpt>
      <trkpt lat="39.694247" lon="-.336168">
        <ele>170.722</ele>
        <time>2020-08-30T13:43:24Z</time>
      </trkpt>
      <trkpt lat="39.694194" lon="-.336086">
        <ele>170.508</ele>
        <time>2020-08-30T13:43:26Z</time>
      </trkpt>
      <trkpt lat="39.694135" lon="-.336012">
        <ele>170.489</ele>
        <time>2020-08-30T13:43:28Z</time>
      </trkpt>
      <trkpt lat="39.694084" lon="-.335942">
        <ele>170.299</ele>
        <time>2020-08-30T13:43:30Z</time>
      </trkpt>
      <trkpt lat="39.694049" lon="-.335857">
        <ele>170.011</ele>
        <time>2020-08-30T13:43:32Z</time>
      </trkpt>
      <trkpt lat="39.694004" lon="-.335786">
        <ele>169.883</ele>
        <time>2020-08-30T13:43:34Z</time>
      </trkpt>
      <trkpt lat="39.693954" lon="-.335709">
        <ele>169.831</ele>
        <time>2020-08-30T13:43:36Z</time>
      </trkpt>
      <trkpt lat="39.693929" lon="-.335657">
        <ele>169.858</ele>
        <time>2020-08-30T13:43:37Z</time>
      </trkpt>
      <trkpt lat="39.693883" lon="-.335578">
        <ele>169.616</ele>
        <time>2020-08-30T13:43:39Z</time>
      </trkpt>
      <trkpt lat="39.693835" lon="-.33551">
        <ele>169.656</ele>
        <time>2020-08-30T13:43:41Z</time>
      </trkpt>
      <trkpt lat="39.693776" lon="-.335454">
        <ele>169.635</ele>
        <time>2020-08-30T13:43:43Z</time>
      </trkpt>
      <trkpt lat="39.693743" lon="-.335397">
        <ele>169.686</ele>
        <time>2020-08-30T13:43:44Z</time>
      </trkpt>
      <trkpt lat="39.693705" lon="-.335341">
        <ele>169.514</ele>
        <time>2020-08-30T13:43:45Z</time>
      </trkpt>
      <trkpt lat="39.693654" lon="-.335258">
        <ele>169.308</ele>
        <time>2020-08-30T13:43:47Z</time>
      </trkpt>
      <trkpt lat="39.693584" lon="-.33518">
        <ele>169.388</ele>
        <time>2020-08-30T13:43:49Z</time>
      </trkpt>
      <trkpt lat="39.693524" lon="-.335101">
        <ele>169.418</ele>
        <time>2020-08-30T13:43:51Z</time>
      </trkpt>
      <trkpt lat="39.693469" lon="-.335022">
        <ele>169.570</ele>
        <time>2020-08-30T13:43:53Z</time>
      </trkpt>
      <trkpt lat="39.693417" lon="-.334952">
        <ele>169.992</ele>
        <time>2020-08-30T13:43:55Z</time>
      </trkpt>
      <trkpt lat="39.693383" lon="-.334914">
        <ele>170.170</ele>
        <time>2020-08-30T13:43:56Z</time>
      </trkpt>
      <trkpt lat="39.693317" lon="-.334851">
        <ele>170.587</ele>
        <time>2020-08-30T13:43:58Z</time>
      </trkpt>
      <trkpt lat="39.693251" lon="-.334785">
        <ele>170.755</ele>
        <time>2020-08-30T13:44:00Z</time>
      </trkpt>
      <trkpt lat="39.693215" lon="-.33475">
        <ele>170.715</ele>
        <time>2020-08-30T13:44:01Z</time>
      </trkpt>
      <trkpt lat="39.693153" lon="-.334677">
        <ele>170.615</ele>
        <time>2020-08-30T13:44:03Z</time>
      </trkpt>
      <trkpt lat="39.69312" lon="-.334635">
        <ele>170.565</ele>
        <time>2020-08-30T13:44:04Z</time>
      </trkpt>
      <trkpt lat="39.693084" lon="-.334596">
        <ele>170.411</ele>
        <time>2020-08-30T13:44:05Z</time>
      </trkpt>
      <trkpt lat="39.693052" lon="-.334549">
        <ele>170.308</ele>
        <time>2020-08-30T13:44:06Z</time>
      </trkpt>
      <trkpt lat="39.693014" lon="-.334511">
        <ele>170.286</ele>
        <time>2020-08-30T13:44:07Z</time>
      </trkpt>
      <trkpt lat="39.692974" lon="-.334468">
        <ele>170.036</ele>
        <time>2020-08-30T13:44:08Z</time>
      </trkpt>
      <trkpt lat="39.692926" lon="-.334402">
        <ele>169.838</ele>
        <time>2020-08-30T13:44:09Z</time>
      </trkpt>
      <trkpt lat="39.69288" lon="-.334344">
        <ele>169.550</ele>
        <time>2020-08-30T13:44:10Z</time>
      </trkpt>
      <trkpt lat="39.692834" lon="-.33428">
        <ele>168.868</ele>
        <time>2020-08-30T13:44:11Z</time>
      </trkpt>
      <trkpt lat="39.692788" lon="-.334216">
        <ele>168.835</ele>
        <time>2020-08-30T13:44:12Z</time>
      </trkpt>
      <trkpt lat="39.692741" lon="-.334173">
        <ele>168.473</ele>
        <time>2020-08-30T13:44:13Z</time>
      </trkpt>
      <trkpt lat="39.692696" lon="-.334117">
        <ele>167.953</ele>
        <time>2020-08-30T13:44:14Z</time>
      </trkpt>
      <trkpt lat="39.692643" lon="-.334069">
        <ele>167.588</ele>
        <time>2020-08-30T13:44:15Z</time>
      </trkpt>
      <trkpt lat="39.692593" lon="-.334021">
        <ele>167.124</ele>
        <time>2020-08-30T13:44:16Z</time>
      </trkpt>
      <trkpt lat="39.692551" lon="-.333982">
        <ele>166.826</ele>
        <time>2020-08-30T13:44:17Z</time>
      </trkpt>
      <trkpt lat="39.692503" lon="-.333937">
        <ele>166.508</ele>
        <time>2020-08-30T13:44:18Z</time>
      </trkpt>
      <trkpt lat="39.692466" lon="-.333901">
        <ele>166.283</ele>
        <time>2020-08-30T13:44:19Z</time>
      </trkpt>
      <trkpt lat="39.692406" lon="-.333867">
        <ele>165.863</ele>
        <time>2020-08-30T13:44:21Z</time>
      </trkpt>
      <trkpt lat="39.692315" lon="-.333808">
        <ele>165.485</ele>
        <time>2020-08-30T13:44:23Z</time>
      </trkpt>
      <trkpt lat="39.692259" lon="-.333758">
        <ele>165.277</ele>
        <time>2020-08-30T13:44:24Z</time>
      </trkpt>
      <trkpt lat="39.692199" lon="-.333709">
        <ele>164.925</ele>
        <time>2020-08-30T13:44:25Z</time>
      </trkpt>
      <trkpt lat="39.692144" lon="-.333676">
        <ele>164.692</ele>
        <time>2020-08-30T13:44:26Z</time>
      </trkpt>
      <trkpt lat="39.692095" lon="-.333638">
        <ele>164.340</ele>
        <time>2020-08-30T13:44:27Z</time>
      </trkpt>
      <trkpt lat="39.692046" lon="-.333606">
        <ele>164.140</ele>
        <time>2020-08-30T13:44:28Z</time>
      </trkpt>
      <trkpt lat="39.691992" lon="-.333566">
        <ele>163.954</ele>
        <time>2020-08-30T13:44:29Z</time>
      </trkpt>
      <trkpt lat="39.691944" lon="-.333529">
        <ele>163.756</ele>
        <time>2020-08-30T13:44:30Z</time>
      </trkpt>
      <trkpt lat="39.691899" lon="-.333496">
        <ele>163.411</ele>
        <time>2020-08-30T13:44:31Z</time>
      </trkpt>
      <trkpt lat="39.691844" lon="-.333463">
        <ele>163.408</ele>
        <time>2020-08-30T13:44:32Z</time>
      </trkpt>
      <trkpt lat="39.691789" lon="-.333418">
        <ele>163.210</ele>
        <time>2020-08-30T13:44:33Z</time>
      </trkpt>
      <trkpt lat="39.691735" lon="-.333388">
        <ele>163.130</ele>
        <time>2020-08-30T13:44:34Z</time>
      </trkpt>
      <trkpt lat="39.691684" lon="-.333354">
        <ele>163.012</ele>
        <time>2020-08-30T13:44:35Z</time>
      </trkpt>
      <trkpt lat="39.691635" lon="-.333312">
        <ele>163.034</ele>
        <time>2020-08-30T13:44:36Z</time>
      </trkpt>
      <trkpt lat="39.691592" lon="-.333281">
        <ele>162.932</ele>
        <time>2020-08-30T13:44:37Z</time>
      </trkpt>
      <trkpt lat="39.691539" lon="-.333204">
        <ele>162.649</ele>
        <time>2020-08-30T13:44:39Z</time>
      </trkpt>
      <trkpt lat="39.691505" lon="-.333136">
        <ele>162.487</ele>
        <time>2020-08-30T13:44:40Z</time>
      </trkpt>
      <trkpt lat="39.691482" lon="-.333054">
        <ele>162.257</ele>
        <time>2020-08-30T13:44:41Z</time>
      </trkpt>
      <trkpt lat="39.691472" lon="-.33298">
        <ele>162.285</ele>
        <time>2020-08-30T13:44:42Z</time>
      </trkpt>
      <trkpt lat="39.691456" lon="-.332903">
        <ele>162.289</ele>
        <time>2020-08-30T13:44:43Z</time>
      </trkpt>
      <trkpt lat="39.691453" lon="-.332843">
        <ele>162.317</ele>
        <time>2020-08-30T13:44:44Z</time>
      </trkpt>
      <trkpt lat="39.691435" lon="-.332787">
        <ele>162.208</ele>
        <time>2020-08-30T13:44:45Z</time>
      </trkpt>
      <trkpt lat="39.691404" lon="-.332731">
        <ele>161.993</ele>
        <time>2020-08-30T13:44:46Z</time>
      </trkpt>
      <trkpt lat="39.691357" lon="-.332685">
        <ele>161.443</ele>
        <time>2020-08-30T13:44:47Z</time>
      </trkpt>
      <trkpt lat="39.691309" lon="-.332649">
        <ele>160.845</ele>
        <time>2020-08-30T13:44:48Z</time>
      </trkpt>
      <trkpt lat="39.691257" lon="-.332621">
        <ele>160.347</ele>
        <time>2020-08-30T13:44:49Z</time>
      </trkpt>
      <trkpt lat="39.691207" lon="-.332609">
        <ele>159.955</ele>
        <time>2020-08-30T13:44:50Z</time>
      </trkpt>
      <trkpt lat="39.691121" lon="-.332628">
        <ele>159.692</ele>
        <time>2020-08-30T13:44:52Z</time>
      </trkpt>
      <trkpt lat="39.691062" lon="-.332683">
        <ele>159.410</ele>
        <time>2020-08-30T13:44:54Z</time>
      </trkpt>
      <trkpt lat="39.691003" lon="-.332741">
        <ele>159.340</ele>
        <time>2020-08-30T13:44:56Z</time>
      </trkpt>
      <trkpt lat="39.690943" lon="-.332792">
        <ele>159.693</ele>
        <time>2020-08-30T13:44:58Z</time>
      </trkpt>
      <trkpt lat="39.690883" lon="-.332849">
        <ele>160.165</ele>
        <time>2020-08-30T13:45:00Z</time>
      </trkpt>
      <trkpt lat="39.690834" lon="-.332898">
        <ele>160.621</ele>
        <time>2020-08-30T13:45:02Z</time>
      </trkpt>
      <trkpt lat="39.69079" lon="-.332958">
        <ele>161.008</ele>
        <time>2020-08-30T13:45:05Z</time>
      </trkpt>
      <trkpt lat="39.690753" lon="-.332995">
        <ele>161.554</ele>
        <time>2020-08-30T13:45:08Z</time>
      </trkpt>
      <trkpt lat="39.690715" lon="-.333045">
        <ele>161.684</ele>
        <time>2020-08-30T13:45:11Z</time>
      </trkpt>
      <trkpt lat="39.690587" lon="-.333138">
        <ele>161.756</ele>
        <time>2020-08-30T13:45:16Z</time>
      </trkpt>
      <trkpt lat="39.690528" lon="-.333159">
        <ele>162.148</ele>
        <time>2020-08-30T13:45:18Z</time>
      </trkpt>
      <trkpt lat="39.690465" lon="-.333156">
        <ele>163.776</ele>
        <time>2020-08-30T13:45:23Z</time>
      </trkpt>
      <trkpt lat="39.690416" lon="-.333134">
        <ele>164.173</ele>
        <time>2020-08-30T13:45:25Z</time>
      </trkpt>
      <trkpt lat="39.690371" lon="-.333104">
        <ele>164.441</ele>
        <time>2020-08-30T13:45:27Z</time>
      </trkpt>
      <trkpt lat="39.690312" lon="-.333072">
        <ele>164.531</ele>
        <time>2020-08-30T13:45:30Z</time>
      </trkpt>
      <trkpt lat="39.690263" lon="-.333041">
        <ele>164.542</ele>
        <time>2020-08-30T13:45:32Z</time>
      </trkpt>
      <trkpt lat="39.69022" lon="-.333001">
        <ele>164.522</ele>
        <time>2020-08-30T13:45:34Z</time>
      </trkpt>
      <trkpt lat="39.690158" lon="-.332964">
        <ele>164.714</ele>
        <time>2020-08-30T13:45:36Z</time>
      </trkpt>
      <trkpt lat="39.690094" lon="-.332925">
        <ele>164.708</ele>
        <time>2020-08-30T13:45:38Z</time>
      </trkpt>
      <trkpt lat="39.69004" lon="-.332895">
        <ele>164.759</ele>
        <time>2020-08-30T13:45:40Z</time>
      </trkpt>
      <trkpt lat="39.689975" lon="-.332836">
        <ele>164.769</ele>
        <time>2020-08-30T13:45:42Z</time>
      </trkpt>
      <trkpt lat="39.689907" lon="-.332806">
        <ele>164.791</ele>
        <time>2020-08-30T13:45:44Z</time>
      </trkpt>
      <trkpt lat="39.689847" lon="-.332776">
        <ele>164.543</ele>
        <time>2020-08-30T13:45:46Z</time>
      </trkpt>
      <trkpt lat="39.689773" lon="-.332726">
        <ele>164.271</ele>
        <time>2020-08-30T13:45:48Z</time>
      </trkpt>
      <trkpt lat="39.68973" lon="-.332697">
        <ele>164.118</ele>
        <time>2020-08-30T13:45:49Z</time>
      </trkpt>
      <trkpt lat="39.689656" lon="-.332627">
        <ele>164.116</ele>
        <time>2020-08-30T13:45:51Z</time>
      </trkpt>
      <trkpt lat="39.689614" lon="-.332597">
        <ele>164.146</ele>
        <time>2020-08-30T13:45:52Z</time>
      </trkpt>
      <trkpt lat="39.689541" lon="-.33256">
        <ele>164.182</ele>
        <time>2020-08-30T13:45:54Z</time>
      </trkpt>
      <trkpt lat="39.689446" lon="-.332513">
        <ele>163.543</ele>
        <time>2020-08-30T13:45:56Z</time>
      </trkpt>
      <trkpt lat="39.689388" lon="-.332455">
        <ele>163.517</ele>
        <time>2020-08-30T13:45:57Z</time>
      </trkpt>
      <trkpt lat="39.689345" lon="-.332429">
        <ele>163.308</ele>
        <time>2020-08-30T13:45:58Z</time>
      </trkpt>
      <trkpt lat="39.68928" lon="-.332388">
        <ele>163.423</ele>
        <time>2020-08-30T13:46:00Z</time>
      </trkpt>
      <trkpt lat="39.689217" lon="-.332343">
        <ele>162.863</ele>
        <time>2020-08-30T13:46:02Z</time>
      </trkpt>
      <trkpt lat="39.68915" lon="-.3323">
        <ele>162.785</ele>
        <time>2020-08-30T13:46:04Z</time>
      </trkpt>
      <trkpt lat="39.689082" lon="-.332276">
        <ele>162.497</ele>
        <time>2020-08-30T13:46:06Z</time>
      </trkpt>
      <trkpt lat="39.689028" lon="-.332228">
        <ele>162.395</ele>
        <time>2020-08-30T13:46:08Z</time>
      </trkpt>
      <trkpt lat="39.688954" lon="-.332199">
        <ele>162.642</ele>
        <time>2020-08-30T13:46:10Z</time>
      </trkpt>
      <trkpt lat="39.688889" lon="-.332161">
        <ele>164.280</ele>
        <time>2020-08-30T13:46:13Z</time>
      </trkpt>
      <trkpt lat="39.688834" lon="-.33212">
        <ele>164.020</ele>
        <time>2020-08-30T13:46:15Z</time>
      </trkpt>
      <trkpt lat="39.688773" lon="-.332082">
        <ele>163.012</ele>
        <time>2020-08-30T13:46:17Z</time>
      </trkpt>
      <trkpt lat="39.688701" lon="-.332022">
        <ele>162.832</ele>
        <time>2020-08-30T13:46:19Z</time>
      </trkpt>
      <trkpt lat="39.688625" lon="-.331972">
        <ele>162.905</ele>
        <time>2020-08-30T13:46:21Z</time>
      </trkpt>
      <trkpt lat="39.688543" lon="-.331921">
        <ele>162.908</ele>
        <time>2020-08-30T13:46:23Z</time>
      </trkpt>
      <trkpt lat="39.688466" lon="-.331866">
        <ele>162.826</ele>
        <time>2020-08-30T13:46:25Z</time>
      </trkpt>
      <trkpt lat="39.688393" lon="-.331831">
        <ele>162.886</ele>
        <time>2020-08-30T13:46:27Z</time>
      </trkpt>
      <trkpt lat="39.688318" lon="-.33178">
        <ele>162.768</ele>
        <time>2020-08-30T13:46:29Z</time>
      </trkpt>
      <trkpt lat="39.688256" lon="-.331738">
        <ele>162.580</ele>
        <time>2020-08-30T13:46:31Z</time>
      </trkpt>
      <trkpt lat="39.688199" lon="-.33169">
        <ele>162.558</ele>
        <time>2020-08-30T13:46:33Z</time>
      </trkpt>
      <trkpt lat="39.688123" lon="-.331661">
        <ele>162.515</ele>
        <time>2020-08-30T13:46:35Z</time>
      </trkpt>
      <trkpt lat="39.688083" lon="-.331631">
        <ele>162.523</ele>
        <time>2020-08-30T13:46:36Z</time>
      </trkpt>
      <trkpt lat="39.688013" lon="-.331589">
        <ele>162.413</ele>
        <time>2020-08-30T13:46:38Z</time>
      </trkpt>
      <trkpt lat="39.687949" lon="-.33155">
        <ele>162.342</ele>
        <time>2020-08-30T13:46:40Z</time>
      </trkpt>
      <trkpt lat="39.687877" lon="-.331507">
        <ele>162.222</ele>
        <time>2020-08-30T13:46:42Z</time>
      </trkpt>
      <trkpt lat="39.687805" lon="-.331463">
        <ele>162.214</ele>
        <time>2020-08-30T13:46:44Z</time>
      </trkpt>
      <trkpt lat="39.68773" lon="-.331411">
        <ele>162.208</ele>
        <time>2020-08-30T13:46:46Z</time>
      </trkpt>
      <trkpt lat="39.687691" lon="-.331378">
        <ele>162.279</ele>
        <time>2020-08-30T13:46:47Z</time>
      </trkpt>
      <trkpt lat="39.687616" lon="-.331325">
        <ele>162.139</ele>
        <time>2020-08-30T13:46:49Z</time>
      </trkpt>
      <trkpt lat="39.687542" lon="-.331279">
        <ele>162.111</ele>
        <time>2020-08-30T13:46:51Z</time>
      </trkpt>
      <trkpt lat="39.68747" lon="-.331243">
        <ele>162.163</ele>
        <time>2020-08-30T13:46:53Z</time>
      </trkpt>
      <trkpt lat="39.687403" lon="-.331202">
        <ele>162.011</ele>
        <time>2020-08-30T13:46:55Z</time>
      </trkpt>
      <trkpt lat="39.687335" lon="-.331144">
        <ele>161.988</ele>
        <time>2020-08-30T13:46:57Z</time>
      </trkpt>
      <trkpt lat="39.687271" lon="-.331108">
        <ele>161.916</ele>
        <time>2020-08-30T13:46:59Z</time>
      </trkpt>
      <trkpt lat="39.6872" lon="-.331069">
        <ele>161.956</ele>
        <time>2020-08-30T13:47:01Z</time>
      </trkpt>
      <trkpt lat="39.68713" lon="-.331037">
        <ele>161.979</ele>
        <time>2020-08-30T13:47:03Z</time>
      </trkpt>
      <trkpt lat="39.687089" lon="-.331014">
        <ele>162.005</ele>
        <time>2020-08-30T13:47:04Z</time>
      </trkpt>
      <trkpt lat="39.687021" lon="-.330958">
        <ele>162.225</ele>
        <time>2020-08-30T13:47:06Z</time>
      </trkpt>
      <trkpt lat="39.686952" lon="-.330917">
        <ele>162.408</ele>
        <time>2020-08-30T13:47:08Z</time>
      </trkpt>
      <trkpt lat="39.686887" lon="-.33088">
        <ele>162.322</ele>
        <time>2020-08-30T13:47:10Z</time>
      </trkpt>
      <trkpt lat="39.686844" lon="-.330853">
        <ele>162.162</ele>
        <time>2020-08-30T13:47:11Z</time>
      </trkpt>
      <trkpt lat="39.68677" lon="-.330794">
        <ele>162.094</ele>
        <time>2020-08-30T13:47:13Z</time>
      </trkpt>
      <trkpt lat="39.68671" lon="-.330748">
        <ele>161.976</ele>
        <time>2020-08-30T13:47:15Z</time>
      </trkpt>
      <trkpt lat="39.686672" lon="-.330715">
        <ele>161.754</ele>
        <time>2020-08-30T13:47:16Z</time>
      </trkpt>
      <trkpt lat="39.686631" lon="-.330681">
        <ele>161.681</ele>
        <time>2020-08-30T13:47:17Z</time>
      </trkpt>
      <trkpt lat="39.686554" lon="-.330626">
        <ele>161.469</ele>
        <time>2020-08-30T13:47:19Z</time>
      </trkpt>
      <trkpt lat="39.686507" lon="-.33059">
        <ele>161.369</ele>
        <time>2020-08-30T13:47:20Z</time>
      </trkpt>
      <trkpt lat="39.686463" lon="-.330564">
        <ele>161.395</ele>
        <time>2020-08-30T13:47:21Z</time>
      </trkpt>
      <trkpt lat="39.686424" lon="-.330532">
        <ele>161.349</ele>
        <time>2020-08-30T13:47:22Z</time>
      </trkpt>
      <trkpt lat="39.686384" lon="-.330496">
        <ele>161.323</ele>
        <time>2020-08-30T13:47:23Z</time>
      </trkpt>
      <trkpt lat="39.686342" lon="-.330467">
        <ele>161.308</ele>
        <time>2020-08-30T13:47:24Z</time>
      </trkpt>
      <trkpt lat="39.686299" lon="-.330437">
        <ele>161.444</ele>
        <time>2020-08-30T13:47:25Z</time>
      </trkpt>
      <trkpt lat="39.686258" lon="-.33041">
        <ele>161.554</ele>
        <time>2020-08-30T13:47:26Z</time>
      </trkpt>
      <trkpt lat="39.686217" lon="-.330384">
        <ele>161.696</ele>
        <time>2020-08-30T13:47:27Z</time>
      </trkpt>
      <trkpt lat="39.68614" lon="-.330319">
        <ele>161.648</ele>
        <time>2020-08-30T13:47:29Z</time>
      </trkpt>
      <trkpt lat="39.686099" lon="-.330287">
        <ele>161.696</ele>
        <time>2020-08-30T13:47:30Z</time>
      </trkpt>
      <trkpt lat="39.686056" lon="-.330256">
        <ele>161.543</ele>
        <time>2020-08-30T13:47:31Z</time>
      </trkpt>
      <trkpt lat="39.686015" lon="-.330219">
        <ele>161.591</ele>
        <time>2020-08-30T13:47:32Z</time>
      </trkpt>
      <trkpt lat="39.685973" lon="-.330186">
        <ele>161.511</ele>
        <time>2020-08-30T13:47:33Z</time>
      </trkpt>
      <trkpt lat="39.685894" lon="-.330125">
        <ele>161.344</ele>
        <time>2020-08-30T13:47:35Z</time>
      </trkpt>
      <trkpt lat="39.685856" lon="-.330089">
        <ele>161.205</ele>
        <time>2020-08-30T13:47:36Z</time>
      </trkpt>
      <trkpt lat="39.685817" lon="-.330056">
        <ele>161.315</ele>
        <time>2020-08-30T13:47:37Z</time>
      </trkpt>
      <trkpt lat="39.685779" lon="-.330018">
        <ele>161.308</ele>
        <time>2020-08-30T13:47:38Z</time>
      </trkpt>
      <trkpt lat="39.68574" lon="-.329976">
        <ele>161.469</ele>
        <time>2020-08-30T13:47:39Z</time>
      </trkpt>
      <trkpt lat="39.685705" lon="-.329932">
        <ele>161.469</ele>
        <time>2020-08-30T13:47:40Z</time>
      </trkpt>
      <trkpt lat="39.685667" lon="-.329886">
        <ele>161.361</ele>
        <time>2020-08-30T13:47:41Z</time>
      </trkpt>
      <trkpt lat="39.685604" lon="-.329804">
        <ele>160.913</ele>
        <time>2020-08-30T13:47:43Z</time>
      </trkpt>
      <trkpt lat="39.685538" lon="-.329727">
        <ele>160.521</ele>
        <time>2020-08-30T13:47:45Z</time>
      </trkpt>
      <trkpt lat="39.685501" lon="-.32969">
        <ele>160.268</ele>
        <time>2020-08-30T13:47:46Z</time>
      </trkpt>
      <trkpt lat="39.685465" lon="-.329646">
        <ele>160.086</ele>
        <time>2020-08-30T13:47:47Z</time>
      </trkpt>
      <trkpt lat="39.685425" lon="-.329595">
        <ele>159.966</ele>
        <time>2020-08-30T13:47:48Z</time>
      </trkpt>
      <trkpt lat="39.685387" lon="-.329543">
        <ele>159.661</ele>
        <time>2020-08-30T13:47:49Z</time>
      </trkpt>
      <trkpt lat="39.685348" lon="-.329492">
        <ele>159.321</ele>
        <time>2020-08-30T13:47:50Z</time>
      </trkpt>
      <trkpt lat="39.68531" lon="-.329449">
        <ele>158.913</ele>
        <time>2020-08-30T13:47:51Z</time>
      </trkpt>
      <trkpt lat="39.685277" lon="-.329403">
        <ele>158.908</ele>
        <time>2020-08-30T13:47:52Z</time>
      </trkpt>
      <trkpt lat="39.685243" lon="-.329355">
        <ele>158.651</ele>
        <time>2020-08-30T13:47:53Z</time>
      </trkpt>
      <trkpt lat="39.685212" lon="-.329303">
        <ele>158.441</ele>
        <time>2020-08-30T13:47:54Z</time>
      </trkpt>
      <trkpt lat="39.685173" lon="-.329262">
        <ele>158.333</ele>
        <time>2020-08-30T13:47:55Z</time>
      </trkpt>
      <trkpt lat="39.685139" lon="-.329218">
        <ele>158.235</ele>
        <time>2020-08-30T13:47:56Z</time>
      </trkpt>
      <trkpt lat="39.685101" lon="-.329158">
        <ele>158.183</ele>
        <time>2020-08-30T13:47:57Z</time>
      </trkpt>
      <trkpt lat="39.685065" lon="-.329113">
        <ele>157.970</ele>
        <time>2020-08-30T13:47:58Z</time>
      </trkpt>
      <trkpt lat="39.685029" lon="-.329068">
        <ele>157.648</ele>
        <time>2020-08-30T13:47:59Z</time>
      </trkpt>
      <trkpt lat="39.684989" lon="-.329028">
        <ele>157.388</ele>
        <time>2020-08-30T13:48:00Z</time>
      </trkpt>
      <trkpt lat="39.684925" lon="-.328952">
        <ele>156.778</ele>
        <time>2020-08-30T13:48:02Z</time>
      </trkpt>
      <trkpt lat="39.684885" lon="-.328917">
        <ele>156.433</ele>
        <time>2020-08-30T13:48:03Z</time>
      </trkpt>
      <trkpt lat="39.684842" lon="-.328886">
        <ele>156.126</ele>
        <time>2020-08-30T13:48:04Z</time>
      </trkpt>
      <trkpt lat="39.684765" lon="-.328839">
        <ele>155.708</ele>
        <time>2020-08-30T13:48:06Z</time>
      </trkpt>
      <trkpt lat="39.684688" lon="-.328809">
        <ele>155.692</ele>
        <time>2020-08-30T13:48:08Z</time>
      </trkpt>
      <trkpt lat="39.684643" lon="-.328792">
        <ele>155.642</ele>
        <time>2020-08-30T13:48:09Z</time>
      </trkpt>
      <trkpt lat="39.684598" lon="-.328777">
        <ele>155.674</ele>
        <time>2020-08-30T13:48:10Z</time>
      </trkpt>
      <trkpt lat="39.68455" lon="-.328771">
        <ele>155.696</ele>
        <time>2020-08-30T13:48:11Z</time>
      </trkpt>
      <trkpt lat="39.6845" lon="-.328757">
        <ele>155.694</ele>
        <time>2020-08-30T13:48:12Z</time>
      </trkpt>
      <trkpt lat="39.684451" lon="-.328744">
        <ele>155.681</ele>
        <time>2020-08-30T13:48:13Z</time>
      </trkpt>
      <trkpt lat="39.684399" lon="-.32873">
        <ele>155.699</ele>
        <time>2020-08-30T13:48:14Z</time>
      </trkpt>
      <trkpt lat="39.68435" lon="-.328726">
        <ele>155.659</ele>
        <time>2020-08-30T13:48:15Z</time>
      </trkpt>
      <trkpt lat="39.684302" lon="-.328717">
        <ele>155.696</ele>
        <time>2020-08-30T13:48:16Z</time>
      </trkpt>
      <trkpt lat="39.684252" lon="-.32871">
        <ele>155.631</ele>
        <time>2020-08-30T13:48:17Z</time>
      </trkpt>
      <trkpt lat="39.684202" lon="-.328706">
        <ele>155.624</ele>
        <time>2020-08-30T13:48:18Z</time>
      </trkpt>
      <trkpt lat="39.684157" lon="-.328696">
        <ele>155.608</ele>
        <time>2020-08-30T13:48:19Z</time>
      </trkpt>
      <trkpt lat="39.684111" lon="-.328683">
        <ele>155.764</ele>
        <time>2020-08-30T13:48:20Z</time>
      </trkpt>
      <trkpt lat="39.684064" lon="-.328677">
        <ele>155.944</ele>
        <time>2020-08-30T13:48:21Z</time>
      </trkpt>
      <trkpt lat="39.683982" lon="-.328667">
        <ele>156.546</ele>
        <time>2020-08-30T13:48:23Z</time>
      </trkpt>
      <trkpt lat="39.683935" lon="-.328654">
        <ele>156.778</ele>
        <time>2020-08-30T13:48:24Z</time>
      </trkpt>
      <trkpt lat="39.683856" lon="-.328639">
        <ele>156.996</ele>
        <time>2020-08-30T13:48:26Z</time>
      </trkpt>
      <trkpt lat="39.683783" lon="-.328633">
        <ele>156.823</ele>
        <time>2020-08-30T13:48:28Z</time>
      </trkpt>
      <trkpt lat="39.683703" lon="-.328622">
        <ele>156.661</ele>
        <time>2020-08-30T13:48:30Z</time>
      </trkpt>
      <trkpt lat="39.683622" lon="-.328607">
        <ele>156.041</ele>
        <time>2020-08-30T13:48:32Z</time>
      </trkpt>
      <trkpt lat="39.683578" lon="-.328595">
        <ele>155.743</ele>
        <time>2020-08-30T13:48:33Z</time>
      </trkpt>
      <trkpt lat="39.683533" lon="-.328584">
        <ele>155.564</ele>
        <time>2020-08-30T13:48:34Z</time>
      </trkpt>
      <trkpt lat="39.683457" lon="-.328572">
        <ele>155.510</ele>
        <time>2020-08-30T13:48:36Z</time>
      </trkpt>
      <trkpt lat="39.683377" lon="-.328569">
        <ele>155.608</ele>
        <time>2020-08-30T13:48:38Z</time>
      </trkpt>
      <trkpt lat="39.683306" lon="-.328548">
        <ele>155.649</ele>
        <time>2020-08-30T13:48:40Z</time>
      </trkpt>
      <trkpt lat="39.683231" lon="-.328541">
        <ele>155.889</ele>
        <time>2020-08-30T13:48:42Z</time>
      </trkpt>
      <trkpt lat="39.683153" lon="-.328535">
        <ele>156.171</ele>
        <time>2020-08-30T13:48:44Z</time>
      </trkpt>
      <trkpt lat="39.683074" lon="-.328524">
        <ele>156.483</ele>
        <time>2020-08-30T13:48:46Z</time>
      </trkpt>
      <trkpt lat="39.683001" lon="-.328511">
        <ele>156.561</ele>
        <time>2020-08-30T13:48:48Z</time>
      </trkpt>
      <trkpt lat="39.68293" lon="-.328502">
        <ele>156.388</ele>
        <time>2020-08-30T13:48:50Z</time>
      </trkpt>
      <trkpt lat="39.682849" lon="-.328495">
        <ele>156.256</ele>
        <time>2020-08-30T13:48:52Z</time>
      </trkpt>
      <trkpt lat="39.682781" lon="-.328483">
        <ele>156.036</ele>
        <time>2020-08-30T13:48:54Z</time>
      </trkpt>
      <trkpt lat="39.682702" lon="-.328478">
        <ele>155.875</ele>
        <time>2020-08-30T13:48:56Z</time>
      </trkpt>
      <trkpt lat="39.682632" lon="-.328464">
        <ele>155.728</ele>
        <time>2020-08-30T13:48:58Z</time>
      </trkpt>
      <trkpt lat="39.682558" lon="-.328447">
        <ele>155.820</ele>
        <time>2020-08-30T13:49:00Z</time>
      </trkpt>
      <trkpt lat="39.682475" lon="-.328435">
        <ele>155.908</ele>
        <time>2020-08-30T13:49:02Z</time>
      </trkpt>
      <trkpt lat="39.682405" lon="-.328423">
        <ele>155.852</ele>
        <time>2020-08-30T13:49:04Z</time>
      </trkpt>
      <trkpt lat="39.682334" lon="-.328411">
        <ele>155.732</ele>
        <time>2020-08-30T13:49:06Z</time>
      </trkpt>
      <trkpt lat="39.682269" lon="-.328388">
        <ele>155.864</ele>
        <time>2020-08-30T13:49:08Z</time>
      </trkpt>
      <trkpt lat="39.6822" lon="-.328357">
        <ele>155.926</ele>
        <time>2020-08-30T13:49:10Z</time>
      </trkpt>
      <trkpt lat="39.682133" lon="-.328318">
        <ele>155.964</ele>
        <time>2020-08-30T13:49:12Z</time>
      </trkpt>
      <trkpt lat="39.682066" lon="-.328291">
        <ele>155.861</ele>
        <time>2020-08-30T13:49:14Z</time>
      </trkpt>
      <trkpt lat="39.682003" lon="-.328259">
        <ele>155.749</ele>
        <time>2020-08-30T13:49:16Z</time>
      </trkpt>
      <trkpt lat="39.681946" lon="-.328228">
        <ele>155.689</ele>
        <time>2020-08-30T13:49:18Z</time>
      </trkpt>
      <trkpt lat="39.68189" lon="-.328205">
        <ele>155.862</ele>
        <time>2020-08-30T13:49:20Z</time>
      </trkpt>
      <trkpt lat="39.681829" lon="-.328168">
        <ele>156.083</ele>
        <time>2020-08-30T13:49:22Z</time>
      </trkpt>
      <trkpt lat="39.681767" lon="-.328145">
        <ele>156.111</ele>
        <time>2020-08-30T13:49:24Z</time>
      </trkpt>
      <trkpt lat="39.681693" lon="-.328115">
        <ele>156.108</ele>
        <time>2020-08-30T13:49:26Z</time>
      </trkpt>
      <trkpt lat="39.681628" lon="-.32808">
        <ele>155.951</ele>
        <time>2020-08-30T13:49:28Z</time>
      </trkpt>
      <trkpt lat="39.681559" lon="-.328048">
        <ele>155.891</ele>
        <time>2020-08-30T13:49:30Z</time>
      </trkpt>
      <trkpt lat="39.681496" lon="-.32802">
        <ele>155.823</ele>
        <time>2020-08-30T13:49:32Z</time>
      </trkpt>
      <trkpt lat="39.681426" lon="-.328014">
        <ele>155.775</ele>
        <time>2020-08-30T13:49:34Z</time>
      </trkpt>
      <trkpt lat="39.681369" lon="-.328049">
        <ele>155.413</ele>
        <time>2020-08-30T13:49:36Z</time>
      </trkpt>
      <trkpt lat="39.681324" lon="-.328075">
        <ele>155.250</ele>
        <time>2020-08-30T13:49:38Z</time>
      </trkpt>
      <trkpt lat="39.68127" lon="-.328085">
        <ele>155.288</ele>
        <time>2020-08-30T13:49:40Z</time>
      </trkpt>
      <trkpt lat="39.681218" lon="-.328087">
        <ele>155.318</ele>
        <time>2020-08-30T13:49:42Z</time>
      </trkpt>
      <trkpt lat="39.681148" lon="-.328049">
        <ele>155.184</ele>
        <time>2020-08-30T13:49:44Z</time>
      </trkpt>
      <trkpt lat="39.681103" lon="-.327978">
        <ele>154.607</ele>
        <time>2020-08-30T13:49:46Z</time>
      </trkpt>
      <trkpt lat="39.681082" lon="-.327883">
        <ele>154.217</ele>
        <time>2020-08-30T13:49:48Z</time>
      </trkpt>
      <trkpt lat="39.68109" lon="-.327773">
        <ele>153.608</ele>
        <time>2020-08-30T13:49:50Z</time>
      </trkpt>
      <trkpt lat="39.681075" lon="-.327688">
        <ele>153.683</ele>
        <time>2020-08-30T13:49:53Z</time>
      </trkpt>
      <trkpt lat="39.681012" lon="-.327649">
        <ele>154.023</ele>
        <time>2020-08-30T13:49:56Z</time>
      </trkpt>
      <trkpt lat="39.680951" lon="-.327615">
        <ele>154.165</ele>
        <time>2020-08-30T13:49:58Z</time>
      </trkpt>
      <trkpt lat="39.680885" lon="-.327583">
        <ele>154.197</ele>
        <time>2020-08-30T13:50:00Z</time>
      </trkpt>
      <trkpt lat="39.680814" lon="-.327549">
        <ele>153.955</ele>
        <time>2020-08-30T13:50:02Z</time>
      </trkpt>
      <trkpt lat="39.680752" lon="-.327511">
        <ele>153.912</ele>
        <time>2020-08-30T13:50:04Z</time>
      </trkpt>
      <trkpt lat="39.680675" lon="-.327471">
        <ele>153.840</ele>
        <time>2020-08-30T13:50:06Z</time>
      </trkpt>
      <trkpt lat="39.680608" lon="-.32745">
        <ele>153.730</ele>
        <time>2020-08-30T13:50:08Z</time>
      </trkpt>
      <trkpt lat="39.680542" lon="-.327423">
        <ele>153.596</ele>
        <time>2020-08-30T13:50:10Z</time>
      </trkpt>
      <trkpt lat="39.680488" lon="-.327417">
        <ele>153.531</ele>
        <time>2020-08-30T13:50:12Z</time>
      </trkpt>
      <trkpt lat="39.680429" lon="-.327368">
        <ele>153.524</ele>
        <time>2020-08-30T13:50:14Z</time>
      </trkpt>
      <trkpt lat="39.680354" lon="-.327332">
        <ele>153.608</ele>
        <time>2020-08-30T13:50:16Z</time>
      </trkpt>
      <trkpt lat="39.680279" lon="-.327289">
        <ele>153.734</ele>
        <time>2020-08-30T13:50:18Z</time>
      </trkpt>
      <trkpt lat="39.680221" lon="-.327253">
        <ele>153.854</ele>
        <time>2020-08-30T13:50:20Z</time>
      </trkpt>
      <trkpt lat="39.680167" lon="-.327223">
        <ele>154.056</ele>
        <time>2020-08-30T13:50:22Z</time>
      </trkpt>
      <trkpt lat="39.6801" lon="-.327189">
        <ele>154.228</ele>
        <time>2020-08-30T13:50:24Z</time>
      </trkpt>
      <trkpt lat="39.680037" lon="-.32715">
        <ele>154.646</ele>
        <time>2020-08-30T13:50:26Z</time>
      </trkpt>
      <trkpt lat="39.679986" lon="-.32712">
        <ele>154.773</ele>
        <time>2020-08-30T13:50:28Z</time>
      </trkpt>
      <trkpt lat="39.679923" lon="-.327084">
        <ele>154.721</ele>
        <time>2020-08-30T13:50:30Z</time>
      </trkpt>
      <trkpt lat="39.679861" lon="-.32704">
        <ele>155.041</ele>
        <time>2020-08-30T13:50:32Z</time>
      </trkpt>
      <trkpt lat="39.67981" lon="-.32701">
        <ele>155.369</ele>
        <time>2020-08-30T13:50:34Z</time>
      </trkpt>
      <trkpt lat="39.679737" lon="-.32698">
        <ele>155.604</ele>
        <time>2020-08-30T13:50:37Z</time>
      </trkpt>
      <trkpt lat="39.679695" lon="-.326956">
        <ele>155.724</ele>
        <time>2020-08-30T13:50:39Z</time>
      </trkpt>
      <trkpt lat="39.679647" lon="-.326942">
        <ele>155.708</ele>
        <time>2020-08-30T13:50:41Z</time>
      </trkpt>
      <trkpt lat="39.679598" lon="-.32696">
        <ele>156.041</ele>
        <time>2020-08-30T13:50:43Z</time>
      </trkpt>
      <trkpt lat="39.679563" lon="-.327002">
        <ele>156.581</ele>
        <time>2020-08-30T13:50:45Z</time>
      </trkpt>
      <trkpt lat="39.679519" lon="-.327076">
        <ele>157.283</ele>
        <time>2020-08-30T13:50:48Z</time>
      </trkpt>
      <trkpt lat="39.679496" lon="-.327139">
        <ele>157.555</ele>
        <time>2020-08-30T13:50:50Z</time>
      </trkpt>
      <trkpt lat="39.679436" lon="-.32718">
        <ele>158.053</ele>
        <time>2020-08-30T13:50:53Z</time>
      </trkpt>
      <trkpt lat="39.67939" lon="-.327178">
        <ele>158.440</ele>
        <time>2020-08-30T13:50:55Z</time>
      </trkpt>
      <trkpt lat="39.679345" lon="-.327162">
        <ele>158.828</ele>
        <time>2020-08-30T13:50:57Z</time>
      </trkpt>
      <trkpt lat="39.6793" lon="-.327139">
        <ele>159.388</ele>
        <time>2020-08-30T13:50:59Z</time>
      </trkpt>
      <trkpt lat="39.679266" lon="-.327095">
        <ele>159.793</ele>
        <time>2020-08-30T13:51:01Z</time>
      </trkpt>
      <trkpt lat="39.679237" lon="-.32702">
        <ele>160.165</ele>
        <time>2020-08-30T13:51:04Z</time>
      </trkpt>
      <trkpt lat="39.679229" lon="-.326961">
        <ele>160.321</ele>
        <time>2020-08-30T13:51:06Z</time>
      </trkpt>
      <trkpt lat="39.679231" lon="-.326902">
        <ele>160.308</ele>
        <time>2020-08-30T13:51:08Z</time>
      </trkpt>
      <trkpt lat="39.679227" lon="-.326838">
        <ele>160.264</ele>
        <time>2020-08-30T13:51:11Z</time>
      </trkpt>
      <trkpt lat="39.67923" lon="-.326753">
        <ele>160.474</ele>
        <time>2020-08-30T13:51:14Z</time>
      </trkpt>
      <trkpt lat="39.679216" lon="-.326695">
        <ele>160.596</ele>
        <time>2020-08-30T13:51:16Z</time>
      </trkpt>
      <trkpt lat="39.679199" lon="-.326609">
        <ele>160.888</ele>
        <time>2020-08-30T13:51:19Z</time>
      </trkpt>
      <trkpt lat="39.6792" lon="-.326546">
        <ele>161.076</ele>
        <time>2020-08-30T13:51:21Z</time>
      </trkpt>
      <trkpt lat="39.679191" lon="-.326473">
        <ele>161.213</ele>
        <time>2020-08-30T13:51:24Z</time>
      </trkpt>
      <trkpt lat="39.679195" lon="-.326401">
        <ele>161.511</ele>
        <time>2020-08-30T13:51:26Z</time>
      </trkpt>
      <trkpt lat="39.679177" lon="-.326326">
        <ele>161.861</ele>
        <time>2020-08-30T13:51:29Z</time>
      </trkpt>
      <trkpt lat="39.679178" lon="-.326267">
        <ele>162.248</ele>
        <time>2020-08-30T13:51:31Z</time>
      </trkpt>
      <trkpt lat="39.679158" lon="-.326211">
        <ele>162.261</ele>
        <time>2020-08-30T13:51:33Z</time>
      </trkpt>
      <trkpt lat="39.67915" lon="-.326127">
        <ele>162.517</ele>
        <time>2020-08-30T13:51:36Z</time>
      </trkpt>
      <trkpt lat="39.679138" lon="-.32607">
        <ele>162.908</ele>
        <time>2020-08-30T13:51:38Z</time>
      </trkpt>
      <trkpt lat="39.679142" lon="-.325985">
        <ele>163.389</ele>
        <time>2020-08-30T13:51:41Z</time>
      </trkpt>
      <trkpt lat="39.679132" lon="-.325922">
        <ele>163.399</ele>
        <time>2020-08-30T13:51:43Z</time>
      </trkpt>
      <trkpt lat="39.679125" lon="-.325853">
        <ele>163.321</ele>
        <time>2020-08-30T13:51:45Z</time>
      </trkpt>
      <trkpt lat="39.679124" lon="-.325782">
        <ele>163.493</ele>
        <time>2020-08-30T13:51:47Z</time>
      </trkpt>
      <trkpt lat="39.679127" lon="-.325698">
        <ele>163.531</ele>
        <time>2020-08-30T13:51:49Z</time>
      </trkpt>
      <trkpt lat="39.679117" lon="-.325623">
        <ele>162.988</ele>
        <time>2020-08-30T13:51:51Z</time>
      </trkpt>
      <trkpt lat="39.679121" lon="-.325549">
        <ele>162.766</ele>
        <time>2020-08-30T13:51:53Z</time>
      </trkpt>
      <trkpt lat="39.67911" lon="-.325476">
        <ele>162.656</ele>
        <time>2020-08-30T13:51:55Z</time>
      </trkpt>
      <trkpt lat="39.679118" lon="-.32539">
        <ele>162.672</ele>
        <time>2020-08-30T13:51:57Z</time>
      </trkpt>
      <trkpt lat="39.679127" lon="-.325288">
        <ele>162.513</ele>
        <time>2020-08-30T13:51:59Z</time>
      </trkpt>
      <trkpt lat="39.679132" lon="-.32522">
        <ele>162.514</ele>
        <time>2020-08-30T13:52:00Z</time>
      </trkpt>
      <trkpt lat="39.679137" lon="-.325149">
        <ele>162.508</ele>
        <time>2020-08-30T13:52:01Z</time>
      </trkpt>
      <trkpt lat="39.679159" lon="-.32507">
        <ele>162.432</ele>
        <time>2020-08-30T13:52:02Z</time>
      </trkpt>
      <trkpt lat="39.67921" lon="-.32495">
        <ele>162.242</ele>
        <time>2020-08-30T13:52:03Z</time>
      </trkpt>
      <trkpt lat="39.679248" lon="-.324848">
        <ele>161.824</ele>
        <time>2020-08-30T13:52:04Z</time>
      </trkpt>
      <trkpt lat="39.679266" lon="-.324752">
        <ele>161.476</ele>
        <time>2020-08-30T13:52:05Z</time>
      </trkpt>
      <trkpt lat="39.679292" lon="-.324668">
        <ele>160.844</ele>
        <time>2020-08-30T13:52:06Z</time>
      </trkpt>
      <trkpt lat="39.679315" lon="-.324577">
        <ele>160.421</ele>
        <time>2020-08-30T13:52:07Z</time>
      </trkpt>
      <trkpt lat="39.679335" lon="-.324489">
        <ele>160.089</ele>
        <time>2020-08-30T13:52:08Z</time>
      </trkpt>
      <trkpt lat="39.679355" lon="-.324401">
        <ele>159.559</ele>
        <time>2020-08-30T13:52:09Z</time>
      </trkpt>
      <trkpt lat="39.679397" lon="-.324309">
        <ele>158.943</ele>
        <time>2020-08-30T13:52:10Z</time>
      </trkpt>
      <trkpt lat="39.679427" lon="-.324226">
        <ele>156.964</ele>
        <time>2020-08-30T13:52:11Z</time>
      </trkpt>
      <trkpt lat="39.679457" lon="-.32415">
        <ele>156.910</ele>
        <time>2020-08-30T13:52:12Z</time>
      </trkpt>
      <trkpt lat="39.679485" lon="-.324078">
        <ele>156.208</ele>
        <time>2020-08-30T13:52:13Z</time>
      </trkpt>
      <trkpt lat="39.67951" lon="-.323997">
        <ele>155.549</ele>
        <time>2020-08-30T13:52:14Z</time>
      </trkpt>
      <trkpt lat="39.67953" lon="-.323933">
        <ele>154.919</ele>
        <time>2020-08-30T13:52:15Z</time>
      </trkpt>
      <trkpt lat="39.679556" lon="-.323867">
        <ele>154.311</ele>
        <time>2020-08-30T13:52:16Z</time>
      </trkpt>
      <trkpt lat="39.679561" lon="-.323803">
        <ele>153.763</ele>
        <time>2020-08-30T13:52:17Z</time>
      </trkpt>
      <trkpt lat="39.679576" lon="-.323717">
        <ele>153.141</ele>
        <time>2020-08-30T13:52:18Z</time>
      </trkpt>
      <trkpt lat="39.679581" lon="-.323635">
        <ele>152.618</ele>
        <time>2020-08-30T13:52:19Z</time>
      </trkpt>
      <trkpt lat="39.679552" lon="-.32355">
        <ele>151.996</ele>
        <time>2020-08-30T13:52:20Z</time>
      </trkpt>
      <trkpt lat="39.679525" lon="-.323471">
        <ele>151.476</ele>
        <time>2020-08-30T13:52:21Z</time>
      </trkpt>
      <trkpt lat="39.679499" lon="-.323377">
        <ele>151.289</ele>
        <time>2020-08-30T13:52:22Z</time>
      </trkpt>
      <trkpt lat="39.679467" lon="-.323314">
        <ele>151.006</ele>
        <time>2020-08-30T13:52:23Z</time>
      </trkpt>
      <trkpt lat="39.679447" lon="-.323244">
        <ele>150.826</ele>
        <time>2020-08-30T13:52:24Z</time>
      </trkpt>
      <trkpt lat="39.679428" lon="-.323151">
        <ele>150.808</ele>
        <time>2020-08-30T13:52:25Z</time>
      </trkpt>
      <trkpt lat="39.679407" lon="-.323063">
        <ele>150.843</ele>
        <time>2020-08-30T13:52:26Z</time>
      </trkpt>
      <trkpt lat="39.679392" lon="-.322969">
        <ele>150.853</ele>
        <time>2020-08-30T13:52:27Z</time>
      </trkpt>
      <trkpt lat="39.679378" lon="-.322883">
        <ele>150.695</ele>
        <time>2020-08-30T13:52:28Z</time>
      </trkpt>
      <trkpt lat="39.679359" lon="-.322784">
        <ele>150.557</ele>
        <time>2020-08-30T13:52:29Z</time>
      </trkpt>
      <trkpt lat="39.679338" lon="-.322711">
        <ele>150.415</ele>
        <time>2020-08-30T13:52:30Z</time>
      </trkpt>
      <trkpt lat="39.679316" lon="-.32263">
        <ele>150.162</ele>
        <time>2020-08-30T13:52:31Z</time>
      </trkpt>
      <trkpt lat="39.679298" lon="-.322549">
        <ele>150.130</ele>
        <time>2020-08-30T13:52:32Z</time>
      </trkpt>
      <trkpt lat="39.679279" lon="-.322475">
        <ele>150.050</ele>
        <time>2020-08-30T13:52:33Z</time>
      </trkpt>
      <trkpt lat="39.679256" lon="-.322414">
        <ele>149.896</ele>
        <time>2020-08-30T13:52:34Z</time>
      </trkpt>
      <trkpt lat="39.679221" lon="-.322342">
        <ele>149.531</ele>
        <time>2020-08-30T13:52:35Z</time>
      </trkpt>
      <trkpt lat="39.679187" lon="-.322273">
        <ele>149.224</ele>
        <time>2020-08-30T13:52:36Z</time>
      </trkpt>
      <trkpt lat="39.679128" lon="-.32221">
        <ele>149.008</ele>
        <time>2020-08-30T13:52:37Z</time>
      </trkpt>
      <trkpt lat="39.679101" lon="-.32216">
        <ele>148.854</ele>
        <time>2020-08-30T13:52:38Z</time>
      </trkpt>
      <trkpt lat="39.679057" lon="-.322116">
        <ele>148.534</ele>
        <time>2020-08-30T13:52:39Z</time>
      </trkpt>
      <trkpt lat="39.679005" lon="-.322058">
        <ele>148.386</ele>
        <time>2020-08-30T13:52:40Z</time>
      </trkpt>
      <trkpt lat="39.678954" lon="-.322017">
        <ele>148.188</ele>
        <time>2020-08-30T13:52:41Z</time>
      </trkpt>
      <trkpt lat="39.678904" lon="-.321982">
        <ele>147.916</ele>
        <time>2020-08-30T13:52:42Z</time>
      </trkpt>
      <trkpt lat="39.678862" lon="-.321957">
        <ele>147.983</ele>
        <time>2020-08-30T13:52:43Z</time>
      </trkpt>
      <trkpt lat="39.678799" lon="-.321885">
        <ele>148.011</ele>
        <time>2020-08-30T13:52:45Z</time>
      </trkpt>
      <trkpt lat="39.678731" lon="-.321813">
        <ele>148.031</ele>
        <time>2020-08-30T13:52:47Z</time>
      </trkpt>
      <trkpt lat="39.678698" lon="-.321765">
        <ele>147.981</ele>
        <time>2020-08-30T13:52:48Z</time>
      </trkpt>
      <trkpt lat="39.678631" lon="-.321693">
        <ele>147.961</ele>
        <time>2020-08-30T13:52:50Z</time>
      </trkpt>
      <trkpt lat="39.678564" lon="-.321661">
        <ele>147.817</ele>
        <time>2020-08-30T13:52:52Z</time>
      </trkpt>
      <trkpt lat="39.678501" lon="-.321603">
        <ele>147.708</ele>
        <time>2020-08-30T13:52:54Z</time>
      </trkpt>
      <trkpt lat="39.678427" lon="-.321541">
        <ele>147.673</ele>
        <time>2020-08-30T13:52:56Z</time>
      </trkpt>
      <trkpt lat="39.678357" lon="-.321465">
        <ele>147.673</ele>
        <time>2020-08-30T13:52:58Z</time>
      </trkpt>
      <trkpt lat="39.678268" lon="-.321408">
        <ele>147.755</ele>
        <time>2020-08-30T13:53:00Z</time>
      </trkpt>
      <trkpt lat="39.678193" lon="-.321347">
        <ele>148.017</ele>
        <time>2020-08-30T13:53:02Z</time>
      </trkpt>
      <trkpt lat="39.678149" lon="-.321306">
        <ele>148.135</ele>
        <time>2020-08-30T13:53:03Z</time>
      </trkpt>
      <trkpt lat="39.678107" lon="-.321272">
        <ele>148.152</ele>
        <time>2020-08-30T13:53:04Z</time>
      </trkpt>
      <trkpt lat="39.678064" lon="-.321244">
        <ele>148.180</ele>
        <time>2020-08-30T13:53:05Z</time>
      </trkpt>
      <trkpt lat="39.678022" lon="-.321212">
        <ele>148.140</ele>
        <time>2020-08-30T13:53:06Z</time>
      </trkpt>
      <trkpt lat="39.677979" lon="-.321187">
        <ele>148.273</ele>
        <time>2020-08-30T13:53:07Z</time>
      </trkpt>
      <trkpt lat="39.677904" lon="-.32113">
        <ele>148.485</ele>
        <time>2020-08-30T13:53:09Z</time>
      </trkpt>
      <trkpt lat="39.677839" lon="-.321092">
        <ele>148.513</ele>
        <time>2020-08-30T13:53:11Z</time>
      </trkpt>
      <trkpt lat="39.677766" lon="-.321041">
        <ele>148.508</ele>
        <time>2020-08-30T13:53:13Z</time>
      </trkpt>
      <trkpt lat="39.677721" lon="-.321012">
        <ele>148.682</ele>
        <time>2020-08-30T13:53:14Z</time>
      </trkpt>
      <trkpt lat="39.677646" lon="-.320961">
        <ele>148.642</ele>
        <time>2020-08-30T13:53:16Z</time>
      </trkpt>
      <trkpt lat="39.677567" lon="-.320926">
        <ele>148.564</ele>
        <time>2020-08-30T13:53:18Z</time>
      </trkpt>
      <trkpt lat="39.677495" lon="-.320885">
        <ele>148.376</ele>
        <time>2020-08-30T13:53:20Z</time>
      </trkpt>
      <trkpt lat="39.677453" lon="-.320858">
        <ele>148.224</ele>
        <time>2020-08-30T13:53:21Z</time>
      </trkpt>
      <trkpt lat="39.677409" lon="-.320838">
        <ele>148.111</ele>
        <time>2020-08-30T13:53:22Z</time>
      </trkpt>
      <trkpt lat="39.677331" lon="-.320796">
        <ele>148.019</ele>
        <time>2020-08-30T13:53:24Z</time>
      </trkpt>
      <trkpt lat="39.677287" lon="-.320773">
        <ele>147.839</ele>
        <time>2020-08-30T13:53:25Z</time>
      </trkpt>
      <trkpt lat="39.677212" lon="-.320729">
        <ele>147.758</ele>
        <time>2020-08-30T13:53:27Z</time>
      </trkpt>
      <trkpt lat="39.677134" lon="-.320683">
        <ele>147.652</ele>
        <time>2020-08-30T13:53:29Z</time>
      </trkpt>
      <trkpt lat="39.677094" lon="-.320653">
        <ele>147.717</ele>
        <time>2020-08-30T13:53:30Z</time>
      </trkpt>
      <trkpt lat="39.677017" lon="-.320604">
        <ele>147.908</ele>
        <time>2020-08-30T13:53:32Z</time>
      </trkpt>
      <trkpt lat="39.676945" lon="-.320555">
        <ele>147.990</ele>
        <time>2020-08-30T13:53:34Z</time>
      </trkpt>
      <trkpt lat="39.676903" lon="-.320527">
        <ele>147.960</ele>
        <time>2020-08-30T13:53:35Z</time>
      </trkpt>
      <trkpt lat="39.676831" lon="-.320476">
        <ele>148.012</ele>
        <time>2020-08-30T13:53:37Z</time>
      </trkpt>
      <trkpt lat="39.676757" lon="-.320446">
        <ele>148.174</ele>
        <time>2020-08-30T13:53:39Z</time>
      </trkpt>
      <trkpt lat="39.676677" lon="-.320439">
        <ele>148.562</ele>
        <time>2020-08-30T13:53:41Z</time>
      </trkpt>
      <trkpt lat="39.67661" lon="-.320445">
        <ele>149.189</ele>
        <time>2020-08-30T13:53:43Z</time>
      </trkpt>
      <trkpt lat="39.676558" lon="-.32045">
        <ele>149.497</ele>
        <time>2020-08-30T13:53:45Z</time>
      </trkpt>
      <trkpt lat="39.676504" lon="-.320459">
        <ele>149.457</ele>
        <time>2020-08-30T13:53:47Z</time>
      </trkpt>
      <trkpt lat="39.676447" lon="-.320462">
        <ele>149.755</ele>
        <time>2020-08-30T13:53:49Z</time>
      </trkpt>
      <trkpt lat="39.676412" lon="-.320414">
        <ele>150.607</ele>
        <time>2020-08-30T13:53:51Z</time>
      </trkpt>
      <trkpt lat="39.676393" lon="-.320318">
        <ele>149.217</ele>
        <time>2020-08-30T13:55:07Z</time>
      </trkpt>
      <trkpt lat="39.676376" lon="-.320255">
        <ele>149.308</ele>
        <time>2020-08-30T13:55:09Z</time>
      </trkpt>
      <trkpt lat="39.676291" lon="-.320226">
        <ele>149.140</ele>
        <time>2020-08-30T13:55:11Z</time>
      </trkpt>
      <trkpt lat="39.676211" lon="-.320183">
        <ele>149.060</ele>
        <time>2020-08-30T13:55:13Z</time>
      </trkpt>
      <trkpt lat="39.67617" lon="-.320146">
        <ele>148.982</ele>
        <time>2020-08-30T13:55:14Z</time>
      </trkpt>
      <trkpt lat="39.676099" lon="-.3201">
        <ele>148.724</ele>
        <time>2020-08-30T13:55:16Z</time>
      </trkpt>
      <trkpt lat="39.676029" lon="-.320053">
        <ele>148.152</ele>
        <time>2020-08-30T13:55:18Z</time>
      </trkpt>
      <trkpt lat="39.675989" lon="-.320023">
        <ele>147.989</ele>
        <time>2020-08-30T13:55:19Z</time>
      </trkpt>
      <trkpt lat="39.675913" lon="-.319971">
        <ele>147.887</ele>
        <time>2020-08-30T13:55:21Z</time>
      </trkpt>
      <trkpt lat="39.675846" lon="-.319919">
        <ele>147.887</ele>
        <time>2020-08-30T13:55:23Z</time>
      </trkpt>
      <trkpt lat="39.675786" lon="-.319872">
        <ele>147.857</ele>
        <time>2020-08-30T13:55:25Z</time>
      </trkpt>
      <trkpt lat="39.675726" lon="-.319802">
        <ele>147.800</ele>
        <time>2020-08-30T13:55:27Z</time>
      </trkpt>
      <trkpt lat="39.675697" lon="-.319756">
        <ele>147.820</ele>
        <time>2020-08-30T13:55:28Z</time>
      </trkpt>
      <trkpt lat="39.675669" lon="-.319701">
        <ele>147.808</ele>
        <time>2020-08-30T13:55:29Z</time>
      </trkpt>
      <trkpt lat="39.675638" lon="-.319656">
        <ele>147.860</ele>
        <time>2020-08-30T13:55:30Z</time>
      </trkpt>
      <trkpt lat="39.675619" lon="-.319603">
        <ele>147.780</ele>
        <time>2020-08-30T13:55:31Z</time>
      </trkpt>
      <trkpt lat="39.675565" lon="-.319507">
        <ele>147.762</ele>
        <time>2020-08-30T13:55:33Z</time>
      </trkpt>
      <trkpt lat="39.675521" lon="-.319426">
        <ele>147.594</ele>
        <time>2020-08-30T13:55:35Z</time>
      </trkpt>
      <trkpt lat="39.675462" lon="-.319349">
        <ele>147.482</ele>
        <time>2020-08-30T13:55:37Z</time>
      </trkpt>
      <trkpt lat="39.675405" lon="-.319266">
        <ele>147.219</ele>
        <time>2020-08-30T13:55:39Z</time>
      </trkpt>
      <trkpt lat="39.675344" lon="-.31918">
        <ele>147.367</ele>
        <time>2020-08-30T13:55:41Z</time>
      </trkpt>
      <trkpt lat="39.675285" lon="-.319088">
        <ele>147.537</ele>
        <time>2020-08-30T13:55:43Z</time>
      </trkpt>
      <trkpt lat="39.675257" lon="-.319041">
        <ele>147.667</ele>
        <time>2020-08-30T13:55:44Z</time>
      </trkpt>
      <trkpt lat="39.67523" lon="-.318992">
        <ele>147.781</ele>
        <time>2020-08-30T13:55:45Z</time>
      </trkpt>
      <trkpt lat="39.675177" lon="-.318904">
        <ele>147.819</ele>
        <time>2020-08-30T13:55:47Z</time>
      </trkpt>
      <trkpt lat="39.675148" lon="-.318848">
        <ele>147.808</ele>
        <time>2020-08-30T13:55:48Z</time>
      </trkpt>
      <trkpt lat="39.675118" lon="-.318796">
        <ele>147.881</ele>
        <time>2020-08-30T13:55:49Z</time>
      </trkpt>
      <trkpt lat="39.675089" lon="-.318742">
        <ele>147.831</ele>
        <time>2020-08-30T13:55:50Z</time>
      </trkpt>
      <trkpt lat="39.675059" lon="-.318691">
        <ele>147.853</ele>
        <time>2020-08-30T13:55:51Z</time>
      </trkpt>
      <trkpt lat="39.675029" lon="-.318645">
        <ele>147.825</ele>
        <time>2020-08-30T13:55:52Z</time>
      </trkpt>
      <trkpt lat="39.674995" lon="-.318594">
        <ele>147.893</ele>
        <time>2020-08-30T13:55:53Z</time>
      </trkpt>
      <trkpt lat="39.674968" lon="-.318546">
        <ele>147.830</ele>
        <time>2020-08-30T13:55:54Z</time>
      </trkpt>
      <trkpt lat="39.674941" lon="-.318499">
        <ele>147.848</ele>
        <time>2020-08-30T13:55:55Z</time>
      </trkpt>
      <trkpt lat="39.674879" lon="-.318404">
        <ele>147.848</ele>
        <time>2020-08-30T13:55:57Z</time>
      </trkpt>
      <trkpt lat="39.674824" lon="-.318309">
        <ele>147.843</ele>
        <time>2020-08-30T13:55:59Z</time>
      </trkpt>
      <trkpt lat="39.674796" lon="-.318258">
        <ele>147.764</ele>
        <time>2020-08-30T13:56:00Z</time>
      </trkpt>
      <trkpt lat="39.674765" lon="-.318211">
        <ele>147.710</ele>
        <time>2020-08-30T13:56:01Z</time>
      </trkpt>
      <trkpt lat="39.674735" lon="-.318164">
        <ele>147.708</ele>
        <time>2020-08-30T13:56:02Z</time>
      </trkpt>
      <trkpt lat="39.674707" lon="-.318111">
        <ele>147.789</ele>
        <time>2020-08-30T13:56:03Z</time>
      </trkpt>
      <trkpt lat="39.674681" lon="-.318055">
        <ele>147.769</ele>
        <time>2020-08-30T13:56:04Z</time>
      </trkpt>
      <trkpt lat="39.674649" lon="-.318006">
        <ele>147.751</ele>
        <time>2020-08-30T13:56:05Z</time>
      </trkpt>
      <trkpt lat="39.674619" lon="-.317953">
        <ele>147.763</ele>
        <time>2020-08-30T13:56:06Z</time>
      </trkpt>
      <trkpt lat="39.674589" lon="-.317905">
        <ele>147.781</ele>
        <time>2020-08-30T13:56:07Z</time>
      </trkpt>
      <trkpt lat="39.674559" lon="-.317857">
        <ele>147.758</ele>
        <time>2020-08-30T13:56:08Z</time>
      </trkpt>
      <trkpt lat="39.674526" lon="-.317814">
        <ele>147.726</ele>
        <time>2020-08-30T13:56:09Z</time>
      </trkpt>
      <trkpt lat="39.674496" lon="-.317767">
        <ele>147.776</ele>
        <time>2020-08-30T13:56:10Z</time>
      </trkpt>
      <trkpt lat="39.674443" lon="-.317675">
        <ele>147.898</ele>
        <time>2020-08-30T13:56:12Z</time>
      </trkpt>
      <trkpt lat="39.674416" lon="-.317628">
        <ele>147.915</ele>
        <time>2020-08-30T13:56:13Z</time>
      </trkpt>
      <trkpt lat="39.674383" lon="-.317578">
        <ele>148.026</ele>
        <time>2020-08-30T13:56:14Z</time>
      </trkpt>
      <trkpt lat="39.674354" lon="-.317528">
        <ele>148.008</ele>
        <time>2020-08-30T13:56:15Z</time>
      </trkpt>
      <trkpt lat="39.674297" lon="-.317453">
        <ele>148.224</ele>
        <time>2020-08-30T13:56:17Z</time>
      </trkpt>
      <trkpt lat="39.674242" lon="-.31738">
        <ele>148.274</ele>
        <time>2020-08-30T13:56:19Z</time>
      </trkpt>
      <trkpt lat="39.674211" lon="-.317331">
        <ele>148.196</ele>
        <time>2020-08-30T13:56:20Z</time>
      </trkpt>
      <trkpt lat="39.674176" lon="-.317285">
        <ele>148.048</ele>
        <time>2020-08-30T13:56:21Z</time>
      </trkpt>
      <trkpt lat="39.674144" lon="-.317244">
        <ele>147.926</ele>
        <time>2020-08-30T13:56:22Z</time>
      </trkpt>
      <trkpt lat="39.67407" lon="-.31719">
        <ele>147.933</ele>
        <time>2020-08-30T13:56:24Z</time>
      </trkpt>
      <trkpt lat="39.673993" lon="-.317145">
        <ele>147.981</ele>
        <time>2020-08-30T13:56:26Z</time>
      </trkpt>
      <trkpt lat="39.67392" lon="-.317093">
        <ele>148.261</ele>
        <time>2020-08-30T13:56:28Z</time>
      </trkpt>
      <trkpt lat="39.673844" lon="-.317039">
        <ele>148.463</ele>
        <time>2020-08-30T13:56:30Z</time>
      </trkpt>
      <trkpt lat="39.673768" lon="-.31698">
        <ele>148.444</ele>
        <time>2020-08-30T13:56:32Z</time>
      </trkpt>
      <trkpt lat="39.673694" lon="-.316927">
        <ele>148.218</ele>
        <time>2020-08-30T13:56:34Z</time>
      </trkpt>
      <trkpt lat="39.673623" lon="-.31688">
        <ele>148.008</ele>
        <time>2020-08-30T13:56:36Z</time>
      </trkpt>
      <trkpt lat="39.673544" lon="-.31683">
        <ele>147.931</ele>
        <time>2020-08-30T13:56:38Z</time>
      </trkpt>
      <trkpt lat="39.673468" lon="-.316777">
        <ele>148.171</ele>
        <time>2020-08-30T13:56:40Z</time>
      </trkpt>
      <trkpt lat="39.673395" lon="-.316722">
        <ele>148.333</ele>
        <time>2020-08-30T13:56:42Z</time>
      </trkpt>
      <trkpt lat="39.67335" lon="-.316697">
        <ele>148.315</ele>
        <time>2020-08-30T13:56:43Z</time>
      </trkpt>
      <trkpt lat="39.673306" lon="-.316675">
        <ele>148.243</ele>
        <time>2020-08-30T13:56:44Z</time>
      </trkpt>
      <trkpt lat="39.673265" lon="-.316648">
        <ele>148.250</ele>
        <time>2020-08-30T13:56:45Z</time>
      </trkpt>
      <trkpt lat="39.673225" lon="-.316621">
        <ele>148.158</ele>
        <time>2020-08-30T13:56:46Z</time>
      </trkpt>
      <trkpt lat="39.673155" lon="-.316582">
        <ele>148.058</ele>
        <time>2020-08-30T13:56:48Z</time>
      </trkpt>
      <trkpt lat="39.673077" lon="-.316535">
        <ele>148.098</ele>
        <time>2020-08-30T13:56:50Z</time>
      </trkpt>
      <trkpt lat="39.673039" lon="-.316503">
        <ele>148.215</ele>
        <time>2020-08-30T13:56:51Z</time>
      </trkpt>
      <trkpt lat="39.672966" lon="-.316455">
        <ele>148.326</ele>
        <time>2020-08-30T13:56:53Z</time>
      </trkpt>
      <trkpt lat="39.672909" lon="-.316389">
        <ele>148.508</ele>
        <time>2020-08-30T13:56:55Z</time>
      </trkpt>
      <trkpt lat="39.672865" lon="-.316291">
        <ele>148.734</ele>
        <time>2020-08-30T13:56:57Z</time>
      </trkpt>
      <trkpt lat="39.672836" lon="-.316189">
        <ele>149.114</ele>
        <time>2020-08-30T13:56:59Z</time>
      </trkpt>
      <trkpt lat="39.672807" lon="-.316077">
        <ele>149.436</ele>
        <time>2020-08-30T13:57:01Z</time>
      </trkpt>
      <trkpt lat="39.672803" lon="-.315965">
        <ele>149.328</ele>
        <time>2020-08-30T13:57:03Z</time>
      </trkpt>
      <trkpt lat="39.672796" lon="-.315856">
        <ele>149.136</ele>
        <time>2020-08-30T13:57:05Z</time>
      </trkpt>
      <trkpt lat="39.672794" lon="-.315795">
        <ele>149.043</ele>
        <time>2020-08-30T13:57:06Z</time>
      </trkpt>
      <trkpt lat="39.672794" lon="-.315736">
        <ele>148.961</ele>
        <time>2020-08-30T13:57:07Z</time>
      </trkpt>
      <trkpt lat="39.672793" lon="-.315626">
        <ele>148.811</ele>
        <time>2020-08-30T13:57:09Z</time>
      </trkpt>
      <trkpt lat="39.672794" lon="-.315531">
        <ele>148.637</ele>
        <time>2020-08-30T13:57:11Z</time>
      </trkpt>
      <trkpt lat="39.672786" lon="-.315473">
        <ele>148.649</ele>
        <time>2020-08-30T13:57:12Z</time>
      </trkpt>
      <trkpt lat="39.672767" lon="-.315375">
        <ele>148.513</ele>
        <time>2020-08-30T13:57:14Z</time>
      </trkpt>
      <trkpt lat="39.672761" lon="-.315279">
        <ele>148.608</ele>
        <time>2020-08-30T13:57:16Z</time>
      </trkpt>
      <trkpt lat="39.67275" lon="-.31516">
        <ele>148.628</ele>
        <time>2020-08-30T13:57:18Z</time>
      </trkpt>
      <trkpt lat="39.672746" lon="-.315043">
        <ele>148.558</ele>
        <time>2020-08-30T13:57:20Z</time>
      </trkpt>
      <trkpt lat="39.672741" lon="-.314984">
        <ele>148.590</ele>
        <time>2020-08-30T13:57:21Z</time>
      </trkpt>
      <trkpt lat="39.672733" lon="-.314865">
        <ele>148.632</ele>
        <time>2020-08-30T13:57:23Z</time>
      </trkpt>
      <trkpt lat="39.672719" lon="-.314742">
        <ele>148.720</ele>
        <time>2020-08-30T13:57:25Z</time>
      </trkpt>
      <trkpt lat="39.672723" lon="-.314637">
        <ele>148.857</ele>
        <time>2020-08-30T13:57:27Z</time>
      </trkpt>
      <trkpt lat="39.672719" lon="-.314579">
        <ele>148.945</ele>
        <time>2020-08-30T13:57:28Z</time>
      </trkpt>
      <trkpt lat="39.672713" lon="-.314466">
        <ele>149.175</ele>
        <time>2020-08-30T13:57:30Z</time>
      </trkpt>
      <trkpt lat="39.672706" lon="-.314368">
        <ele>149.561</ele>
        <time>2020-08-30T13:57:32Z</time>
      </trkpt>
      <trkpt lat="39.67271" lon="-.314303">
        <ele>149.621</ele>
        <time>2020-08-30T13:57:33Z</time>
      </trkpt>
      <trkpt lat="39.672711" lon="-.314196">
        <ele>150.013</ele>
        <time>2020-08-30T13:57:35Z</time>
      </trkpt>
      <trkpt lat="39.6727" lon="-.3141">
        <ele>150.308</ele>
        <time>2020-08-30T13:57:37Z</time>
      </trkpt>
      <trkpt lat="39.672703" lon="-.314005">
        <ele>150.741</ele>
        <time>2020-08-30T13:57:39Z</time>
      </trkpt>
      <trkpt lat="39.672698" lon="-.313893">
        <ele>150.811</ele>
        <time>2020-08-30T13:57:41Z</time>
      </trkpt>
      <trkpt lat="39.672688" lon="-.313777">
        <ele>150.923</ele>
        <time>2020-08-30T13:57:43Z</time>
      </trkpt>
      <trkpt lat="39.672684" lon="-.313669">
        <ele>150.965</ele>
        <time>2020-08-30T13:57:45Z</time>
      </trkpt>
      <trkpt lat="39.672677" lon="-.313555">
        <ele>151.013</ele>
        <time>2020-08-30T13:57:47Z</time>
      </trkpt>
      <trkpt lat="39.672676" lon="-.313458">
        <ele>151.160</ele>
        <time>2020-08-30T13:57:49Z</time>
      </trkpt>
      <trkpt lat="39.672663" lon="-.313363">
        <ele>151.148</ele>
        <time>2020-08-30T13:57:51Z</time>
      </trkpt>
      <trkpt lat="39.672653" lon="-.313268">
        <ele>151.138</ele>
        <time>2020-08-30T13:57:53Z</time>
      </trkpt>
      <trkpt lat="39.672649" lon="-.31318">
        <ele>151.299</ele>
        <time>2020-08-30T13:57:55Z</time>
      </trkpt>
      <trkpt lat="39.672643" lon="-.313083">
        <ele>151.407</ele>
        <time>2020-08-30T13:57:57Z</time>
      </trkpt>
      <trkpt lat="39.672628" lon="-.312986">
        <ele>151.727</ele>
        <time>2020-08-30T13:57:59Z</time>
      </trkpt>
      <trkpt lat="39.672624" lon="-.312892">
        <ele>151.908</ele>
        <time>2020-08-30T13:58:01Z</time>
      </trkpt>
      <trkpt lat="39.67262" lon="-.312778">
        <ele>151.864</ele>
        <time>2020-08-30T13:58:03Z</time>
      </trkpt>
      <trkpt lat="39.67261" lon="-.312681">
        <ele>151.534</ele>
        <time>2020-08-30T13:58:05Z</time>
      </trkpt>
      <trkpt lat="39.672593" lon="-.312573">
        <ele>151.446</ele>
        <time>2020-08-30T13:58:07Z</time>
      </trkpt>
      <trkpt lat="39.672589" lon="-.312511">
        <ele>151.468</ele>
        <time>2020-08-30T13:58:08Z</time>
      </trkpt>
      <trkpt lat="39.67258" lon="-.312448">
        <ele>151.316</ele>
        <time>2020-08-30T13:58:09Z</time>
      </trkpt>
      <trkpt lat="39.672569" lon="-.312388">
        <ele>151.273</ele>
        <time>2020-08-30T13:58:10Z</time>
      </trkpt>
      <trkpt lat="39.672559" lon="-.312317">
        <ele>150.981</ele>
        <time>2020-08-30T13:58:11Z</time>
      </trkpt>
      <trkpt lat="39.672559" lon="-.312248">
        <ele>150.951</ele>
        <time>2020-08-30T13:58:12Z</time>
      </trkpt>
      <trkpt lat="39.672552" lon="-.312189">
        <ele>150.886</ele>
        <time>2020-08-30T13:58:13Z</time>
      </trkpt>
      <trkpt lat="39.672539" lon="-.312072">
        <ele>150.760</ele>
        <time>2020-08-30T13:58:15Z</time>
      </trkpt>
      <trkpt lat="39.672527" lon="-.312003">
        <ele>150.626</ele>
        <time>2020-08-30T13:58:16Z</time>
      </trkpt>
      <trkpt lat="39.672519" lon="-.311933">
        <ele>150.508</ele>
        <time>2020-08-30T13:58:17Z</time>
      </trkpt>
      <trkpt lat="39.672511" lon="-.311858">
        <ele>150.563</ele>
        <time>2020-08-30T13:58:18Z</time>
      </trkpt>
      <trkpt lat="39.672501" lon="-.311781">
        <ele>150.453</ele>
        <time>2020-08-30T13:58:19Z</time>
      </trkpt>
      <trkpt lat="39.67249" lon="-.311702">
        <ele>150.495</ele>
        <time>2020-08-30T13:58:20Z</time>
      </trkpt>
      <trkpt lat="39.672479" lon="-.311634">
        <ele>150.417</ele>
        <time>2020-08-30T13:58:21Z</time>
      </trkpt>
      <trkpt lat="39.672471" lon="-.311564">
        <ele>150.385</ele>
        <time>2020-08-30T13:58:22Z</time>
      </trkpt>
      <trkpt lat="39.672463" lon="-.311489">
        <ele>150.262</ele>
        <time>2020-08-30T13:58:23Z</time>
      </trkpt>
      <trkpt lat="39.672454" lon="-.31142">
        <ele>150.010</ele>
        <time>2020-08-30T13:58:24Z</time>
      </trkpt>
      <trkpt lat="39.672446" lon="-.311349">
        <ele>149.910</ele>
        <time>2020-08-30T13:58:25Z</time>
      </trkpt>
      <trkpt lat="39.672438" lon="-.311278">
        <ele>149.531</ele>
        <time>2020-08-30T13:58:26Z</time>
      </trkpt>
      <trkpt lat="39.67243" lon="-.311215">
        <ele>149.461</ele>
        <time>2020-08-30T13:58:27Z</time>
      </trkpt>
      <trkpt lat="39.672398" lon="-.31109">
        <ele>149.207</ele>
        <time>2020-08-30T13:58:29Z</time>
      </trkpt>
      <trkpt lat="39.672373" lon="-.311018">
        <ele>149.108</ele>
        <time>2020-08-30T13:58:30Z</time>
      </trkpt>
      <trkpt lat="39.67235" lon="-.31095">
        <ele>148.948</ele>
        <time>2020-08-30T13:58:31Z</time>
      </trkpt>
      <trkpt lat="39.672329" lon="-.310881">
        <ele>148.928</ele>
        <time>2020-08-30T13:58:32Z</time>
      </trkpt>
      <trkpt lat="39.672309" lon="-.310819">
        <ele>148.720</ele>
        <time>2020-08-30T13:58:33Z</time>
      </trkpt>
      <trkpt lat="39.672299" lon="-.310753">
        <ele>148.732</ele>
        <time>2020-08-30T13:58:34Z</time>
      </trkpt>
      <trkpt lat="39.672291" lon="-.310691">
        <ele>148.750</ele>
        <time>2020-08-30T13:58:35Z</time>
      </trkpt>
      <trkpt lat="39.672271" lon="-.310634">
        <ele>148.897</ele>
        <time>2020-08-30T13:58:36Z</time>
      </trkpt>
      <trkpt lat="39.672234" lon="-.310566">
        <ele>149.025</ele>
        <time>2020-08-30T13:58:38Z</time>
      </trkpt>
      <trkpt lat="39.672165" lon="-.31054">
        <ele>149.135</ele>
        <time>2020-08-30T13:58:40Z</time>
      </trkpt>
      <trkpt lat="39.672103" lon="-.310546">
        <ele>147.961</ele>
        <time>2020-08-30T14:01:54Z</time>
      </trkpt>
      <trkpt lat="39.672136" lon="-.310506">
        <ele>147.721</ele>
        <time>2020-08-30T14:02:23Z</time>
      </trkpt>
      <trkpt lat="39.672173" lon="-.31047">
        <ele>147.813</ele>
        <time>2020-08-30T14:03:40Z</time>
      </trkpt>
      <trkpt lat="39.672216" lon="-.310447">
        <ele>147.608</ele>
        <time>2020-08-30T14:03:42Z</time>
      </trkpt>
      <trkpt lat="39.672254" lon="-.310379">
        <ele>147.361</ele>
        <time>2020-08-30T14:03:45Z</time>
      </trkpt>
      <trkpt lat="39.672253" lon="-.310303">
        <ele>147.291</ele>
        <time>2020-08-30T14:03:47Z</time>
      </trkpt>
      <trkpt lat="39.672249" lon="-.310239">
        <ele>147.193</ele>
        <time>2020-08-30T14:03:49Z</time>
      </trkpt>
      <trkpt lat="39.672253" lon="-.31018">
        <ele>146.965</ele>
        <time>2020-08-30T14:03:51Z</time>
      </trkpt>
      <trkpt lat="39.672256" lon="-.310121">
        <ele>147.173</ele>
        <time>2020-08-30T14:03:53Z</time>
      </trkpt>
      <trkpt lat="39.67225" lon="-.310061">
        <ele>147.570</ele>
        <time>2020-08-30T14:03:55Z</time>
      </trkpt>
      <trkpt lat="39.672237" lon="-.31">
        <ele>147.788</ele>
        <time>2020-08-30T14:03:57Z</time>
      </trkpt>
      <trkpt lat="39.672236" lon="-.309928">
        <ele>147.888</ele>
        <time>2020-08-30T14:03:59Z</time>
      </trkpt>
      <trkpt lat="39.672221" lon="-.309872">
        <ele>147.843</ele>
        <time>2020-08-30T14:04:01Z</time>
      </trkpt>
      <trkpt lat="39.672207" lon="-.309799">
        <ele>147.964</ele>
        <time>2020-08-30T14:04:03Z</time>
      </trkpt>
      <trkpt lat="39.672194" lon="-.309716">
        <ele>147.910</ele>
        <time>2020-08-30T14:04:05Z</time>
      </trkpt>
      <trkpt lat="39.672188" lon="-.309634">
        <ele>147.808</ele>
        <time>2020-08-30T14:04:07Z</time>
      </trkpt>
      <trkpt lat="39.672181" lon="-.309536">
        <ele>147.829</ele>
        <time>2020-08-30T14:04:09Z</time>
      </trkpt>
      <trkpt lat="39.672171" lon="-.309448">
        <ele>147.949</ele>
        <time>2020-08-30T14:04:11Z</time>
      </trkpt>
      <trkpt lat="39.672163" lon="-.309356">
        <ele>147.911</ele>
        <time>2020-08-30T14:04:13Z</time>
      </trkpt>
      <trkpt lat="39.672171" lon="-.309261">
        <ele>147.813</ele>
        <time>2020-08-30T14:04:15Z</time>
      </trkpt>
      <trkpt lat="39.672174" lon="-.30916">
        <ele>147.911</ele>
        <time>2020-08-30T14:04:17Z</time>
      </trkpt>
      <trkpt lat="39.67218" lon="-.309051">
        <ele>148.238</ele>
        <time>2020-08-30T14:04:19Z</time>
      </trkpt>
      <trkpt lat="39.672167" lon="-.308949">
        <ele>148.246</ele>
        <time>2020-08-30T14:04:21Z</time>
      </trkpt>
      <trkpt lat="39.672164" lon="-.308863">
        <ele>148.266</ele>
        <time>2020-08-30T14:04:23Z</time>
      </trkpt>
      <trkpt lat="39.672165" lon="-.308777">
        <ele>148.283</ele>
        <time>2020-08-30T14:04:25Z</time>
      </trkpt>
      <trkpt lat="39.672166" lon="-.30868">
        <ele>148.425</ele>
        <time>2020-08-30T14:04:27Z</time>
      </trkpt>
      <trkpt lat="39.672156" lon="-.308582">
        <ele>148.517</ele>
        <time>2020-08-30T14:04:29Z</time>
      </trkpt>
      <trkpt lat="39.672146" lon="-.30848">
        <ele>148.408</ele>
        <time>2020-08-30T14:04:31Z</time>
      </trkpt>
      <trkpt lat="39.672142" lon="-.308371">
        <ele>148.193</ele>
        <time>2020-08-30T14:04:33Z</time>
      </trkpt>
      <trkpt lat="39.672129" lon="-.308259">
        <ele>148.053</ele>
        <time>2020-08-30T14:04:35Z</time>
      </trkpt>
      <trkpt lat="39.672127" lon="-.308196">
        <ele>147.975</ele>
        <time>2020-08-30T14:04:36Z</time>
      </trkpt>
      <trkpt lat="39.672127" lon="-.308129">
        <ele>147.847</ele>
        <time>2020-08-30T14:04:37Z</time>
      </trkpt>
      <trkpt lat="39.672123" lon="-.308065">
        <ele>147.775</ele>
        <time>2020-08-30T14:04:38Z</time>
      </trkpt>
      <trkpt lat="39.672122" lon="-.307999">
        <ele>147.662</ele>
        <time>2020-08-30T14:04:39Z</time>
      </trkpt>
      <trkpt lat="39.672119" lon="-.307893">
        <ele>147.570</ele>
        <time>2020-08-30T14:04:41Z</time>
      </trkpt>
      <trkpt lat="39.672114" lon="-.307792">
        <ele>147.560</ele>
        <time>2020-08-30T14:04:43Z</time>
      </trkpt>
      <trkpt lat="39.672105" lon="-.307695">
        <ele>147.683</ele>
        <time>2020-08-30T14:04:45Z</time>
      </trkpt>
      <trkpt lat="39.672087" lon="-.30761">
        <ele>147.725</ele>
        <time>2020-08-30T14:04:47Z</time>
      </trkpt>
      <trkpt lat="39.672064" lon="-.307537">
        <ele>147.817</ele>
        <time>2020-08-30T14:04:49Z</time>
      </trkpt>
      <trkpt lat="39.672029" lon="-.307465">
        <ele>147.808</ele>
        <time>2020-08-30T14:04:51Z</time>
      </trkpt>
      <trkpt lat="39.671981" lon="-.307391">
        <ele>147.983</ele>
        <time>2020-08-30T14:04:53Z</time>
      </trkpt>
      <trkpt lat="39.671954" lon="-.307293">
        <ele>148.053</ele>
        <time>2020-08-30T14:04:55Z</time>
      </trkpt>
      <trkpt lat="39.671953" lon="-.307184">
        <ele>148.085</ele>
        <time>2020-08-30T14:04:57Z</time>
      </trkpt>
      <trkpt lat="39.671971" lon="-.30709">
        <ele>147.967</ele>
        <time>2020-08-30T14:04:59Z</time>
      </trkpt>
      <trkpt lat="39.671998" lon="-.307004">
        <ele>147.895</ele>
        <time>2020-08-30T14:05:01Z</time>
      </trkpt>
      <trkpt lat="39.672031" lon="-.306929">
        <ele>147.872</ele>
        <time>2020-08-30T14:05:03Z</time>
      </trkpt>
      <trkpt lat="39.672052" lon="-.306846">
        <ele>147.890</ele>
        <time>2020-08-30T14:05:05Z</time>
      </trkpt>
      <trkpt lat="39.672078" lon="-.30675">
        <ele>147.750</ele>
        <time>2020-08-30T14:05:07Z</time>
      </trkpt>
      <trkpt lat="39.672095" lon="-.306653">
        <ele>147.598</ele>
        <time>2020-08-30T14:05:09Z</time>
      </trkpt>
      <trkpt lat="39.67212" lon="-.306596">
        <ele>147.215</ele>
        <time>2020-08-30T14:05:10Z</time>
      </trkpt>
      <trkpt lat="39.672158" lon="-.306496">
        <ele>147.326</ele>
        <time>2020-08-30T14:05:12Z</time>
      </trkpt>
      <trkpt lat="39.67219" lon="-.306445">
        <ele>147.308</ele>
        <time>2020-08-30T14:05:13Z</time>
      </trkpt>
      <trkpt lat="39.672214" lon="-.306393">
        <ele>147.474</ele>
        <time>2020-08-30T14:05:14Z</time>
      </trkpt>
      <trkpt lat="39.672243" lon="-.306336">
        <ele>147.514</ele>
        <time>2020-08-30T14:05:15Z</time>
      </trkpt>
      <trkpt lat="39.67227" lon="-.306273">
        <ele>147.596</ele>
        <time>2020-08-30T14:05:16Z</time>
      </trkpt>
      <trkpt lat="39.672291" lon="-.306209">
        <ele>147.528</ele>
        <time>2020-08-30T14:05:17Z</time>
      </trkpt>
      <trkpt lat="39.672315" lon="-.306145">
        <ele>147.316</ele>
        <time>2020-08-30T14:05:18Z</time>
      </trkpt>
      <trkpt lat="39.672341" lon="-.306077">
        <ele>147.163</ele>
        <time>2020-08-30T14:05:19Z</time>
      </trkpt>
      <trkpt lat="39.672363" lon="-.306002">
        <ele>146.471</ele>
        <time>2020-08-30T14:05:20Z</time>
      </trkpt>
      <trkpt lat="39.672378" lon="-.305935">
        <ele>146.041</ele>
        <time>2020-08-30T14:05:21Z</time>
      </trkpt>
      <trkpt lat="39.672396" lon="-.305874">
        <ele>145.595</ele>
        <time>2020-08-30T14:05:22Z</time>
      </trkpt>
      <trkpt lat="39.672415" lon="-.305808">
        <ele>144.949</ele>
        <time>2020-08-30T14:05:23Z</time>
      </trkpt>
      <trkpt lat="39.672425" lon="-.305736">
        <ele>144.423</ele>
        <time>2020-08-30T14:05:24Z</time>
      </trkpt>
      <trkpt lat="39.672438" lon="-.305662">
        <ele>144.108</ele>
        <time>2020-08-30T14:05:25Z</time>
      </trkpt>
      <trkpt lat="39.672452" lon="-.3056">
        <ele>143.694</ele>
        <time>2020-08-30T14:05:26Z</time>
      </trkpt>
      <trkpt lat="39.672466" lon="-.305529">
        <ele>143.284</ele>
        <time>2020-08-30T14:05:27Z</time>
      </trkpt>
      <trkpt lat="39.672484" lon="-.305452">
        <ele>143.056</ele>
        <time>2020-08-30T14:05:28Z</time>
      </trkpt>
      <trkpt lat="39.672498" lon="-.305395">
        <ele>142.538</ele>
        <time>2020-08-30T14:05:29Z</time>
      </trkpt>
      <trkpt lat="39.672508" lon="-.305327">
        <ele>142.116</ele>
        <time>2020-08-30T14:05:30Z</time>
      </trkpt>
      <trkpt lat="39.672524" lon="-.305258">
        <ele>141.823</ele>
        <time>2020-08-30T14:05:31Z</time>
      </trkpt>
      <trkpt lat="39.67254" lon="-.305193">
        <ele>141.611</ele>
        <time>2020-08-30T14:05:32Z</time>
      </trkpt>
      <trkpt lat="39.672549" lon="-.305125">
        <ele>141.221</ele>
        <time>2020-08-30T14:05:33Z</time>
      </trkpt>
      <trkpt lat="39.672556" lon="-.305057">
        <ele>141.166</ele>
        <time>2020-08-30T14:05:34Z</time>
      </trkpt>
      <trkpt lat="39.672566" lon="-.304983">
        <ele>141.029</ele>
        <time>2020-08-30T14:05:35Z</time>
      </trkpt>
      <trkpt lat="39.672577" lon="-.304916">
        <ele>140.921</ele>
        <time>2020-08-30T14:05:36Z</time>
      </trkpt>
      <trkpt lat="39.672585" lon="-.30483">
        <ele>140.708</ele>
        <time>2020-08-30T14:05:37Z</time>
      </trkpt>
      <trkpt lat="39.672595" lon="-.304762">
        <ele>140.561</ele>
        <time>2020-08-30T14:05:38Z</time>
      </trkpt>
      <trkpt lat="39.672605" lon="-.304687">
        <ele>140.361</ele>
        <time>2020-08-30T14:05:39Z</time>
      </trkpt>
      <trkpt lat="39.672612" lon="-.304603">
        <ele>140.113</ele>
        <time>2020-08-30T14:05:40Z</time>
      </trkpt>
      <trkpt lat="39.672621" lon="-.30453">
        <ele>139.825</ele>
        <time>2020-08-30T14:05:41Z</time>
      </trkpt>
      <trkpt lat="39.672632" lon="-.304454">
        <ele>139.383</ele>
        <time>2020-08-30T14:05:42Z</time>
      </trkpt>
      <trkpt lat="39.67264" lon="-.304373">
        <ele>139.140</ele>
        <time>2020-08-30T14:05:43Z</time>
      </trkpt>
      <trkpt lat="39.672647" lon="-.304303">
        <ele>138.948</ele>
        <time>2020-08-30T14:05:44Z</time>
      </trkpt>
      <trkpt lat="39.672653" lon="-.304234">
        <ele>138.718</ele>
        <time>2020-08-30T14:05:45Z</time>
      </trkpt>
      <trkpt lat="39.672659" lon="-.304159">
        <ele>138.769</ele>
        <time>2020-08-30T14:05:46Z</time>
      </trkpt>
      <trkpt lat="39.672664" lon="-.304083">
        <ele>138.704</ele>
        <time>2020-08-30T14:05:47Z</time>
      </trkpt>
      <trkpt lat="39.672675" lon="-.304012">
        <ele>138.624</ele>
        <time>2020-08-30T14:05:48Z</time>
      </trkpt>
      <trkpt lat="39.67268" lon="-.30394">
        <ele>138.608</ele>
        <time>2020-08-30T14:05:49Z</time>
      </trkpt>
      <trkpt lat="39.672689" lon="-.303874">
        <ele>138.661</ele>
        <time>2020-08-30T14:05:50Z</time>
      </trkpt>
      <trkpt lat="39.672697" lon="-.303805">
        <ele>138.651</ele>
        <time>2020-08-30T14:05:51Z</time>
      </trkpt>
      <trkpt lat="39.672705" lon="-.303746">
        <ele>138.783</ele>
        <time>2020-08-30T14:05:52Z</time>
      </trkpt>
      <trkpt lat="39.672713" lon="-.303679">
        <ele>138.715</ele>
        <time>2020-08-30T14:05:53Z</time>
      </trkpt>
      <trkpt lat="39.672718" lon="-.30362">
        <ele>138.723</ele>
        <time>2020-08-30T14:05:54Z</time>
      </trkpt>
      <trkpt lat="39.672727" lon="-.303554">
        <ele>138.520</ele>
        <time>2020-08-30T14:05:55Z</time>
      </trkpt>
      <trkpt lat="39.672731" lon="-.303491">
        <ele>138.358</ele>
        <time>2020-08-30T14:05:56Z</time>
      </trkpt>
      <trkpt lat="39.672731" lon="-.303428">
        <ele>138.168</ele>
        <time>2020-08-30T14:05:57Z</time>
      </trkpt>
      <trkpt lat="39.672734" lon="-.303367">
        <ele>137.984</ele>
        <time>2020-08-30T14:05:58Z</time>
      </trkpt>
      <trkpt lat="39.672729" lon="-.303306">
        <ele>137.607</ele>
        <time>2020-08-30T14:05:59Z</time>
      </trkpt>
      <trkpt lat="39.672724" lon="-.303235">
        <ele>137.417</ele>
        <time>2020-08-30T14:06:00Z</time>
      </trkpt>
      <trkpt lat="39.672683" lon="-.303125">
        <ele>137.308</ele>
        <time>2020-08-30T14:06:02Z</time>
      </trkpt>
      <trkpt lat="39.672651" lon="-.303081">
        <ele>137.333</ele>
        <time>2020-08-30T14:06:03Z</time>
      </trkpt>
      <trkpt lat="39.672575" lon="-.303016">
        <ele>137.183</ele>
        <time>2020-08-30T14:06:05Z</time>
      </trkpt>
      <trkpt lat="39.67253" lon="-.302977">
        <ele>136.995</ele>
        <time>2020-08-30T14:06:06Z</time>
      </trkpt>
      <trkpt lat="39.672489" lon="-.302947">
        <ele>136.537</ele>
        <time>2020-08-30T14:06:07Z</time>
      </trkpt>
      <trkpt lat="39.672418" lon="-.302888">
        <ele>136.325</ele>
        <time>2020-08-30T14:06:09Z</time>
      </trkpt>
      <trkpt lat="39.672345" lon="-.302822">
        <ele>136.922</ele>
        <time>2020-08-30T14:06:11Z</time>
      </trkpt>
      <trkpt lat="39.672289" lon="-.30274">
        <ele>137.310</ele>
        <time>2020-08-30T14:06:13Z</time>
      </trkpt>
      <trkpt lat="39.672249" lon="-.30267">
        <ele>137.490</ele>
        <time>2020-08-30T14:06:15Z</time>
      </trkpt>
      <trkpt lat="39.672218" lon="-.302584">
        <ele>137.477</ele>
        <time>2020-08-30T14:06:17Z</time>
      </trkpt>
      <trkpt lat="39.672181" lon="-.302485">
        <ele>137.461</ele>
        <time>2020-08-30T14:06:19Z</time>
      </trkpt>
      <trkpt lat="39.67216" lon="-.302388">
        <ele>137.427</ele>
        <time>2020-08-30T14:06:21Z</time>
      </trkpt>
      <trkpt lat="39.67215" lon="-.30233">
        <ele>137.408</ele>
        <time>2020-08-30T14:06:22Z</time>
      </trkpt>
      <trkpt lat="39.672148" lon="-.302218">
        <ele>137.282</ele>
        <time>2020-08-30T14:06:24Z</time>
      </trkpt>
      <trkpt lat="39.672152" lon="-.302156">
        <ele>137.122</ele>
        <time>2020-08-30T14:06:25Z</time>
      </trkpt>
      <trkpt lat="39.672165" lon="-.30204">
        <ele>136.964</ele>
        <time>2020-08-30T14:06:27Z</time>
      </trkpt>
      <trkpt lat="39.672197" lon="-.301935">
        <ele>136.866</ele>
        <time>2020-08-30T14:06:29Z</time>
      </trkpt>
      <trkpt lat="39.672218" lon="-.30188">
        <ele>136.774</ele>
        <time>2020-08-30T14:06:30Z</time>
      </trkpt>
      <trkpt lat="39.672241" lon="-.301822">
        <ele>136.461</ele>
        <time>2020-08-30T14:06:31Z</time>
      </trkpt>
      <trkpt lat="39.672274" lon="-.301765">
        <ele>136.489</ele>
        <time>2020-08-30T14:06:32Z</time>
      </trkpt>
      <trkpt lat="39.672309" lon="-.301709">
        <ele>136.139</ele>
        <time>2020-08-30T14:06:33Z</time>
      </trkpt>
      <trkpt lat="39.672344" lon="-.301658">
        <ele>135.947</ele>
        <time>2020-08-30T14:06:34Z</time>
      </trkpt>
      <trkpt lat="39.672384" lon="-.301614">
        <ele>135.729</ele>
        <time>2020-08-30T14:06:35Z</time>
      </trkpt>
      <trkpt lat="39.672437" lon="-.301565">
        <ele>135.421</ele>
        <time>2020-08-30T14:06:36Z</time>
      </trkpt>
      <trkpt lat="39.672491" lon="-.30152">
        <ele>135.008</ele>
        <time>2020-08-30T14:06:37Z</time>
      </trkpt>
      <trkpt lat="39.672551" lon="-.301488">
        <ele>134.629</ele>
        <time>2020-08-30T14:06:38Z</time>
      </trkpt>
      <trkpt lat="39.672617" lon="-.30146">
        <ele>134.159</ele>
        <time>2020-08-30T14:06:39Z</time>
      </trkpt>
      <trkpt lat="39.672674" lon="-.301446">
        <ele>133.751</ele>
        <time>2020-08-30T14:06:40Z</time>
      </trkpt>
      <trkpt lat="39.672737" lon="-.301438">
        <ele>133.213</ele>
        <time>2020-08-30T14:06:41Z</time>
      </trkpt>
      <trkpt lat="39.672802" lon="-.301436">
        <ele>132.811</ele>
        <time>2020-08-30T14:06:42Z</time>
      </trkpt>
      <trkpt lat="39.672873" lon="-.301447">
        <ele>132.498</ele>
        <time>2020-08-30T14:06:43Z</time>
      </trkpt>
      <trkpt lat="39.672936" lon="-.301455">
        <ele>131.966</ele>
        <time>2020-08-30T14:06:44Z</time>
      </trkpt>
      <trkpt lat="39.673001" lon="-.30146">
        <ele>131.356</ele>
        <time>2020-08-30T14:06:45Z</time>
      </trkpt>
      <trkpt lat="39.673064" lon="-.301476">
        <ele>130.921</ele>
        <time>2020-08-30T14:06:46Z</time>
      </trkpt>
      <trkpt lat="39.673161" lon="-.301492">
        <ele>130.341</ele>
        <time>2020-08-30T14:06:48Z</time>
      </trkpt>
      <trkpt lat="39.673227" lon="-.301487">
        <ele>130.205</ele>
        <time>2020-08-30T14:06:49Z</time>
      </trkpt>
      <trkpt lat="39.673287" lon="-.301489">
        <ele>130.208</ele>
        <time>2020-08-30T14:06:50Z</time>
      </trkpt>
      <trkpt lat="39.673342" lon="-.30152">
        <ele>130.247</ele>
        <time>2020-08-30T14:06:51Z</time>
      </trkpt>
      <trkpt lat="39.673405" lon="-.301533">
        <ele>130.337</ele>
        <time>2020-08-30T14:06:52Z</time>
      </trkpt>
      <trkpt lat="39.673494" lon="-.301507">
        <ele>130.359</ele>
        <time>2020-08-30T14:06:53Z</time>
      </trkpt>
      <trkpt lat="39.673556" lon="-.301489">
        <ele>130.311</ele>
        <time>2020-08-30T14:06:54Z</time>
      </trkpt>
      <trkpt lat="39.67363" lon="-.301483">
        <ele>130.239</ele>
        <time>2020-08-30T14:06:55Z</time>
      </trkpt>
      <trkpt lat="39.673697" lon="-.301469">
        <ele>129.846</ele>
        <time>2020-08-30T14:06:56Z</time>
      </trkpt>
      <trkpt lat="39.673751" lon="-.301455">
        <ele>129.674</ele>
        <time>2020-08-30T14:06:57Z</time>
      </trkpt>
      <trkpt lat="39.673833" lon="-.301454">
        <ele>129.594</ele>
        <time>2020-08-30T14:06:58Z</time>
      </trkpt>
      <trkpt lat="39.673903" lon="-.301442">
        <ele>129.558</ele>
        <time>2020-08-30T14:06:59Z</time>
      </trkpt>
      <trkpt lat="39.673975" lon="-.301429">
        <ele>129.452</ele>
        <time>2020-08-30T14:07:00Z</time>
      </trkpt>
      <trkpt lat="39.674045" lon="-.301428">
        <ele>129.417</ele>
        <time>2020-08-30T14:07:01Z</time>
      </trkpt>
      <trkpt lat="39.674108" lon="-.301426">
        <ele>129.408</ele>
        <time>2020-08-30T14:07:02Z</time>
      </trkpt>
      <trkpt lat="39.674177" lon="-.301424">
        <ele>129.150</ele>
        <time>2020-08-30T14:07:03Z</time>
      </trkpt>
      <trkpt lat="39.674244" lon="-.30141">
        <ele>128.930</ele>
        <time>2020-08-30T14:07:04Z</time>
      </trkpt>
      <trkpt lat="39.674311" lon="-.301398">
        <ele>128.732</ele>
        <time>2020-08-30T14:07:05Z</time>
      </trkpt>
      <trkpt lat="39.674379" lon="-.301401">
        <ele>128.584</ele>
        <time>2020-08-30T14:07:06Z</time>
      </trkpt>
      <trkpt lat="39.674444" lon="-.301379">
        <ele>128.542</ele>
        <time>2020-08-30T14:07:07Z</time>
      </trkpt>
      <trkpt lat="39.674509" lon="-.301376">
        <ele>128.699</ele>
        <time>2020-08-30T14:07:08Z</time>
      </trkpt>
      <trkpt lat="39.674573" lon="-.301364">
        <ele>128.777</ele>
        <time>2020-08-30T14:07:09Z</time>
      </trkpt>
      <trkpt lat="39.674639" lon="-.301351">
        <ele>128.897</ele>
        <time>2020-08-30T14:07:10Z</time>
      </trkpt>
      <trkpt lat="39.674705" lon="-.301334">
        <ele>128.887</ele>
        <time>2020-08-30T14:07:11Z</time>
      </trkpt>
      <trkpt lat="39.674776" lon="-.301314">
        <ele>128.842</ele>
        <time>2020-08-30T14:07:12Z</time>
      </trkpt>
      <trkpt lat="39.674847" lon="-.301306">
        <ele>128.726</ele>
        <time>2020-08-30T14:07:13Z</time>
      </trkpt>
      <trkpt lat="39.67491" lon="-.301283">
        <ele>128.508</ele>
        <time>2020-08-30T14:07:14Z</time>
      </trkpt>
      <trkpt lat="39.674979" lon="-.301262">
        <ele>128.493</ele>
        <time>2020-08-30T14:07:15Z</time>
      </trkpt>
      <trkpt lat="39.675044" lon="-.301242">
        <ele>128.313</ele>
        <time>2020-08-30T14:07:16Z</time>
      </trkpt>
      <trkpt lat="39.675103" lon="-.301223">
        <ele>128.235</ele>
        <time>2020-08-30T14:07:17Z</time>
      </trkpt>
      <trkpt lat="39.675165" lon="-.301215">
        <ele>128.027</ele>
        <time>2020-08-30T14:07:18Z</time>
      </trkpt>
      <trkpt lat="39.675234" lon="-.301198">
        <ele>127.635</ele>
        <time>2020-08-30T14:07:19Z</time>
      </trkpt>
      <trkpt lat="39.675298" lon="-.301186">
        <ele>127.482</ele>
        <time>2020-08-30T14:07:20Z</time>
      </trkpt>
      <trkpt lat="39.675357" lon="-.301181">
        <ele>127.280</ele>
        <time>2020-08-30T14:07:21Z</time>
      </trkpt>
      <trkpt lat="39.675421" lon="-.30118">
        <ele>127.260</ele>
        <time>2020-08-30T14:07:22Z</time>
      </trkpt>
      <trkpt lat="39.675485" lon="-.301177">
        <ele>127.291</ele>
        <time>2020-08-30T14:07:23Z</time>
      </trkpt>
      <trkpt lat="39.675544" lon="-.301167">
        <ele>127.281</ele>
        <time>2020-08-30T14:07:24Z</time>
      </trkpt>
      <trkpt lat="39.675603" lon="-.301162">
        <ele>127.219</ele>
        <time>2020-08-30T14:07:25Z</time>
      </trkpt>
      <trkpt lat="39.675664" lon="-.301159">
        <ele>127.208</ele>
        <time>2020-08-30T14:07:26Z</time>
      </trkpt>
      <trkpt lat="39.675728" lon="-.301155">
        <ele>127.244</ele>
        <time>2020-08-30T14:07:27Z</time>
      </trkpt>
      <trkpt lat="39.675781" lon="-.301151">
        <ele>127.274</ele>
        <time>2020-08-30T14:07:28Z</time>
      </trkpt>
      <trkpt lat="39.67584" lon="-.301149">
        <ele>127.146</ele>
        <time>2020-08-30T14:07:29Z</time>
      </trkpt>
      <trkpt lat="39.675901" lon="-.301145">
        <ele>127.058</ele>
        <time>2020-08-30T14:07:30Z</time>
      </trkpt>
      <trkpt lat="39.675954" lon="-.301135">
        <ele>126.866</ele>
        <time>2020-08-30T14:07:31Z</time>
      </trkpt>
      <trkpt lat="39.676008" lon="-.301131">
        <ele>126.733</ele>
        <time>2020-08-30T14:07:32Z</time>
      </trkpt>
      <trkpt lat="39.676069" lon="-.301132">
        <ele>126.631</ele>
        <time>2020-08-30T14:07:33Z</time>
      </trkpt>
      <trkpt lat="39.676122" lon="-.301129">
        <ele>126.531</ele>
        <time>2020-08-30T14:07:34Z</time>
      </trkpt>
      <trkpt lat="39.676175" lon="-.301125">
        <ele>126.428</ele>
        <time>2020-08-30T14:07:35Z</time>
      </trkpt>
      <trkpt lat="39.676225" lon="-.301126">
        <ele>126.489</ele>
        <time>2020-08-30T14:07:36Z</time>
      </trkpt>
      <trkpt lat="39.676276" lon="-.30113">
        <ele>126.317</ele>
        <time>2020-08-30T14:07:37Z</time>
      </trkpt>
      <trkpt lat="39.676326" lon="-.301129">
        <ele>126.208</ele>
        <time>2020-08-30T14:07:38Z</time>
      </trkpt>
      <trkpt lat="39.67642" lon="-.301132">
        <ele>126.097</ele>
        <time>2020-08-30T14:07:40Z</time>
      </trkpt>
      <trkpt lat="39.676466" lon="-.30113">
        <ele>126.087</ele>
        <time>2020-08-30T14:07:41Z</time>
      </trkpt>
      <trkpt lat="39.676513" lon="-.301143">
        <ele>126.119</ele>
        <time>2020-08-30T14:07:42Z</time>
      </trkpt>
      <trkpt lat="39.676597" lon="-.301179">
        <ele>126.291</ele>
        <time>2020-08-30T14:07:44Z</time>
      </trkpt>
      <trkpt lat="39.676642" lon="-.301209">
        <ele>126.219</ele>
        <time>2020-08-30T14:07:45Z</time>
      </trkpt>
      <trkpt lat="39.676685" lon="-.301235">
        <ele>126.356</ele>
        <time>2020-08-30T14:07:46Z</time>
      </trkpt>
      <trkpt lat="39.676749" lon="-.30131">
        <ele>126.364</ele>
        <time>2020-08-30T14:07:48Z</time>
      </trkpt>
      <trkpt lat="39.676785" lon="-.301353">
        <ele>126.394</ele>
        <time>2020-08-30T14:07:49Z</time>
      </trkpt>
      <trkpt lat="39.676813" lon="-.3014">
        <ele>126.445</ele>
        <time>2020-08-30T14:07:50Z</time>
      </trkpt>
      <trkpt lat="39.676855" lon="-.3015">
        <ele>126.647</ele>
        <time>2020-08-30T14:07:52Z</time>
      </trkpt>
      <trkpt lat="39.676897" lon="-.301597">
        <ele>126.711</ele>
        <time>2020-08-30T14:07:54Z</time>
      </trkpt>
      <trkpt lat="39.676936" lon="-.301697">
        <ele>126.608</ele>
        <time>2020-08-30T14:07:56Z</time>
      </trkpt>
      <trkpt lat="39.676968" lon="-.30175">
        <ele>126.599</ele>
        <time>2020-08-30T14:07:57Z</time>
      </trkpt>
      <trkpt lat="39.677012" lon="-.301856">
        <ele>126.419</ele>
        <time>2020-08-30T14:07:59Z</time>
      </trkpt>
      <trkpt lat="39.67704" lon="-.301915">
        <ele>126.451</ele>
        <time>2020-08-30T14:08:00Z</time>
      </trkpt>
      <trkpt lat="39.677063" lon="-.301966">
        <ele>126.493</ele>
        <time>2020-08-30T14:08:01Z</time>
      </trkpt>
      <trkpt lat="39.677089" lon="-.302022">
        <ele>126.511</ele>
        <time>2020-08-30T14:08:02Z</time>
      </trkpt>
      <trkpt lat="39.677112" lon="-.30208">
        <ele>126.538</ele>
        <time>2020-08-30T14:08:03Z</time>
      </trkpt>
      <trkpt lat="39.677135" lon="-.302134">
        <ele>126.526</ele>
        <time>2020-08-30T14:08:04Z</time>
      </trkpt>
      <trkpt lat="39.677163" lon="-.302186">
        <ele>126.536</ele>
        <time>2020-08-30T14:08:05Z</time>
      </trkpt>
      <trkpt lat="39.677194" lon="-.302232">
        <ele>126.568</ele>
        <time>2020-08-30T14:08:06Z</time>
      </trkpt>
      <trkpt lat="39.677237" lon="-.302324">
        <ele>126.642</ele>
        <time>2020-08-30T14:08:08Z</time>
      </trkpt>
      <trkpt lat="39.67728" lon="-.302413">
        <ele>126.626</ele>
        <time>2020-08-30T14:08:10Z</time>
      </trkpt>
      <trkpt lat="39.677311" lon="-.302514">
        <ele>126.708</ele>
        <time>2020-08-30T14:08:12Z</time>
      </trkpt>
      <trkpt lat="39.677371" lon="-.302578">
        <ele>126.881</ele>
        <time>2020-08-30T14:08:14Z</time>
      </trkpt>
      <trkpt lat="39.677433" lon="-.30262">
        <ele>126.771</ele>
        <time>2020-08-30T14:08:16Z</time>
      </trkpt>
      <trkpt lat="39.677486" lon="-.302608">
        <ele>126.673</ele>
        <time>2020-08-30T14:08:19Z</time>
      </trkpt>
      <trkpt lat="39.677535" lon="-.302564">
        <ele>126.275</ele>
        <time>2020-08-30T14:08:22Z</time>
      </trkpt>
      <trkpt lat="39.677552" lon="-.302487">
        <ele>126.343</ele>
        <time>2020-08-30T14:08:25Z</time>
      </trkpt>
      <trkpt lat="39.677581" lon="-.302401">
        <ele>126.540</ele>
        <time>2020-08-30T14:09:04Z</time>
      </trkpt>
      <trkpt lat="39.677625" lon="-.302346">
        <ele>126.378</ele>
        <time>2020-08-30T14:09:07Z</time>
      </trkpt>
      <trkpt lat="39.677646" lon="-.302294">
        <ele>126.448</ele>
        <time>2020-08-30T14:09:09Z</time>
      </trkpt>
      <trkpt lat="39.677639" lon="-.302195">
        <ele>126.985</ele>
        <time>2020-08-30T14:09:11Z</time>
      </trkpt>
      <trkpt lat="39.677644" lon="-.302105">
        <ele>126.989</ele>
        <time>2020-08-30T14:09:13Z</time>
      </trkpt>
      <trkpt lat="39.677663" lon="-.302013">
        <ele>126.617</ele>
        <time>2020-08-30T14:09:15Z</time>
      </trkpt>
      <trkpt lat="39.677676" lon="-.301922">
        <ele>125.708</ele>
        <time>2020-08-30T14:09:17Z</time>
      </trkpt>
      <trkpt lat="39.677688" lon="-.30183">
        <ele>125.593</ele>
        <time>2020-08-30T14:09:19Z</time>
      </trkpt>
      <trkpt lat="39.677686" lon="-.301728">
        <ele>125.313</ele>
        <time>2020-08-30T14:09:21Z</time>
      </trkpt>
      <trkpt lat="39.677688" lon="-.301633">
        <ele>125.225</ele>
        <time>2020-08-30T14:09:23Z</time>
      </trkpt>
      <trkpt lat="39.677682" lon="-.301573">
        <ele>125.177</ele>
        <time>2020-08-30T14:09:24Z</time>
      </trkpt>
      <trkpt lat="39.677675" lon="-.301471">
        <ele>124.945</ele>
        <time>2020-08-30T14:09:26Z</time>
      </trkpt>
      <trkpt lat="39.677646" lon="-.30139">
        <ele>124.912</ele>
        <time>2020-08-30T14:09:28Z</time>
      </trkpt>
      <trkpt lat="39.677625" lon="-.301307">
        <ele>124.910</ele>
        <time>2020-08-30T14:09:30Z</time>
      </trkpt>
      <trkpt lat="39.677615" lon="-.301225">
        <ele>124.920</ele>
        <time>2020-08-30T14:09:32Z</time>
      </trkpt>
      <trkpt lat="39.677595" lon="-.301148">
        <ele>124.914</ele>
        <time>2020-08-30T14:09:34Z</time>
      </trkpt>
      <trkpt lat="39.67759" lon="-.301047">
        <ele>124.954</ele>
        <time>2020-08-30T14:09:36Z</time>
      </trkpt>
      <trkpt lat="39.677575" lon="-.300962">
        <ele>124.809</ele>
        <time>2020-08-30T14:09:38Z</time>
      </trkpt>
      <trkpt lat="39.677559" lon="-.300875">
        <ele>124.708</ele>
        <time>2020-08-30T14:09:40Z</time>
      </trkpt>
      <trkpt lat="39.67754" lon="-.300796">
        <ele>124.626</ele>
        <time>2020-08-30T14:09:42Z</time>
      </trkpt>
      <trkpt lat="39.677512" lon="-.300732">
        <ele>124.636</ele>
        <time>2020-08-30T14:09:44Z</time>
      </trkpt>
      <trkpt lat="39.677503" lon="-.300655">
        <ele>124.618</ele>
        <time>2020-08-30T14:09:46Z</time>
      </trkpt>
      <trkpt lat="39.677516" lon="-.300596">
        <ele>124.840</ele>
        <time>2020-08-30T14:09:48Z</time>
      </trkpt>
      <trkpt lat="39.677558" lon="-.300573">
        <ele>124.718</ele>
        <time>2020-08-30T14:09:50Z</time>
      </trkpt>
      <trkpt lat="39.677604" lon="-.300548">
        <ele>124.245</ele>
        <time>2020-08-30T14:09:52Z</time>
      </trkpt>
      <trkpt lat="39.677659" lon="-.300521">
        <ele>123.983</ele>
        <time>2020-08-30T14:09:54Z</time>
      </trkpt>
      <trkpt lat="39.677711" lon="-.300493">
        <ele>123.423</ele>
        <time>2020-08-30T14:09:56Z</time>
      </trkpt>
      <trkpt lat="39.677755" lon="-.300421">
        <ele>122.494</ele>
        <time>2020-08-30T14:09:58Z</time>
      </trkpt>
      <trkpt lat="39.677783" lon="-.300363">
        <ele>121.557</ele>
        <time>2020-08-30T14:10:00Z</time>
      </trkpt>
      <trkpt lat="39.677781" lon="-.300242">
        <ele>121.122</ele>
        <time>2020-08-30T14:10:03Z</time>
      </trkpt>
      <trkpt lat="39.67779" lon="-.300102">
        <ele>121.208</ele>
        <time>2020-08-30T14:10:08Z</time>
      </trkpt>
      <trkpt lat="39.677721" lon="-.300058">
        <ele>121.234</ele>
        <time>2020-08-30T14:10:09Z</time>
      </trkpt>
      <trkpt lat="39.67769" lon="-.300004">
        <ele>121.184</ele>
        <time>2020-08-30T14:10:10Z</time>
      </trkpt>
      <trkpt lat="39.67763" lon="-.299928">
        <ele>121.156</ele>
        <time>2020-08-30T14:10:12Z</time>
      </trkpt>
      <trkpt lat="39.677578" lon="-.299852">
        <ele>121.328</ele>
        <time>2020-08-30T14:10:14Z</time>
      </trkpt>
      <trkpt lat="39.677533" lon="-.29977">
        <ele>121.626</ele>
        <time>2020-08-30T14:10:16Z</time>
      </trkpt>
      <trkpt lat="39.67748" lon="-.299695">
        <ele>121.943</ele>
        <time>2020-08-30T14:10:18Z</time>
      </trkpt>
      <trkpt lat="39.677445" lon="-.299609">
        <ele>122.131</ele>
        <time>2020-08-30T14:10:20Z</time>
      </trkpt>
      <trkpt lat="39.677407" lon="-.29953">
        <ele>122.221</ele>
        <time>2020-08-30T14:10:22Z</time>
      </trkpt>
      <trkpt lat="39.677371" lon="-.29945">
        <ele>122.322</ele>
        <time>2020-08-30T14:10:24Z</time>
      </trkpt>
      <trkpt lat="39.677333" lon="-.29937">
        <ele>122.462</ele>
        <time>2020-08-30T14:10:26Z</time>
      </trkpt>
      <trkpt lat="39.677298" lon="-.299286">
        <ele>122.408</ele>
        <time>2020-08-30T14:10:28Z</time>
      </trkpt>
      <trkpt lat="39.677254" lon="-.299213">
        <ele>122.408</ele>
        <time>2020-08-30T14:10:30Z</time>
      </trkpt>
      <trkpt lat="39.677221" lon="-.299148">
        <ele>122.377</ele>
        <time>2020-08-30T14:10:32Z</time>
      </trkpt>
      <trkpt lat="39.677187" lon="-.299081">
        <ele>122.357</ele>
        <time>2020-08-30T14:10:34Z</time>
      </trkpt>
      <trkpt lat="39.677154" lon="-.299008">
        <ele>122.449</ele>
        <time>2020-08-30T14:10:36Z</time>
      </trkpt>
      <trkpt lat="39.677122" lon="-.298939">
        <ele>122.391</ele>
        <time>2020-08-30T14:10:38Z</time>
      </trkpt>
      <trkpt lat="39.677085" lon="-.298856">
        <ele>122.379</ele>
        <time>2020-08-30T14:10:40Z</time>
      </trkpt>
      <trkpt lat="39.677049" lon="-.298793">
        <ele>122.486</ele>
        <time>2020-08-30T14:10:42Z</time>
      </trkpt>
      <trkpt lat="39.677005" lon="-.298709">
        <ele>122.694</ele>
        <time>2020-08-30T14:10:44Z</time>
      </trkpt>
      <trkpt lat="39.676964" lon="-.298637">
        <ele>122.734</ele>
        <time>2020-08-30T14:10:46Z</time>
      </trkpt>
      <trkpt lat="39.676917" lon="-.298558">
        <ele>122.767</ele>
        <time>2020-08-30T14:10:48Z</time>
      </trkpt>
      <trkpt lat="39.676877" lon="-.298481">
        <ele>122.781</ele>
        <time>2020-08-30T14:10:50Z</time>
      </trkpt>
      <trkpt lat="39.67682" lon="-.298406">
        <ele>122.619</ele>
        <time>2020-08-30T14:10:52Z</time>
      </trkpt>
      <trkpt lat="39.676765" lon="-.298312">
        <ele>122.408</ele>
        <time>2020-08-30T14:10:54Z</time>
      </trkpt>
      <trkpt lat="39.67672" lon="-.298216">
        <ele>122.111</ele>
        <time>2020-08-30T14:10:56Z</time>
      </trkpt>
      <trkpt lat="39.676688" lon="-.298125">
        <ele>121.881</ele>
        <time>2020-08-30T14:10:58Z</time>
      </trkpt>
      <trkpt lat="39.676649" lon="-.298044">
        <ele>121.533</ele>
        <time>2020-08-30T14:11:00Z</time>
      </trkpt>
      <trkpt lat="39.676616" lon="-.297968">
        <ele>121.655</ele>
        <time>2020-08-30T14:11:02Z</time>
      </trkpt>
      <trkpt lat="39.676588" lon="-.297885">
        <ele>121.833</ele>
        <time>2020-08-30T14:11:04Z</time>
      </trkpt>
      <trkpt lat="39.676547" lon="-.297807">
        <ele>121.940</ele>
        <time>2020-08-30T14:11:06Z</time>
      </trkpt>
      <trkpt lat="39.676504" lon="-.29773">
        <ele>122.028</ele>
        <time>2020-08-30T14:11:08Z</time>
      </trkpt>
      <trkpt lat="39.676471" lon="-.297659">
        <ele>121.898</ele>
        <time>2020-08-30T14:11:10Z</time>
      </trkpt>
      <trkpt lat="39.676431" lon="-.297621">
        <ele>121.879</ele>
        <time>2020-08-30T14:11:12Z</time>
      </trkpt>
      <trkpt lat="39.676396" lon="-.297575">
        <ele>121.905</ele>
        <time>2020-08-30T14:11:15Z</time>
      </trkpt>
      <trkpt lat="39.6764" lon="-.2975">
        <ele>121.825</ele>
        <time>2020-08-30T14:11:18Z</time>
      </trkpt>
      <trkpt lat="39.67642" lon="-.297439">
        <ele>122.208</ele>
        <time>2020-08-30T14:11:21Z</time>
      </trkpt>
      <trkpt lat="39.67644" lon="-.297373">
        <ele>122.632</ele>
        <time>2020-08-30T14:11:25Z</time>
      </trkpt>
      <trkpt lat="39.676432" lon="-.297313">
        <ele>122.852</ele>
        <time>2020-08-30T14:11:27Z</time>
      </trkpt>
      <trkpt lat="39.676402" lon="-.297249">
        <ele>122.724</ele>
        <time>2020-08-30T14:11:29Z</time>
      </trkpt>
      <trkpt lat="39.676365" lon="-.297195">
        <ele>122.726</ele>
        <time>2020-08-30T14:11:31Z</time>
      </trkpt>
      <trkpt lat="39.676336" lon="-.297144">
        <ele>122.834</ele>
        <time>2020-08-30T14:11:33Z</time>
      </trkpt>
      <trkpt lat="39.676323" lon="-.29708">
        <ele>122.911</ele>
        <time>2020-08-30T14:11:35Z</time>
      </trkpt>
      <trkpt lat="39.676323" lon="-.297004">
        <ele>122.979</ele>
        <time>2020-08-30T14:11:37Z</time>
      </trkpt>
      <trkpt lat="39.676329" lon="-.296927">
        <ele>122.929</ele>
        <time>2020-08-30T14:11:41Z</time>
      </trkpt>
      <trkpt lat="39.676333" lon="-.296848">
        <ele>123.161</ele>
        <time>2020-08-30T14:11:43Z</time>
      </trkpt>
      <trkpt lat="39.676348" lon="-.296774">
        <ele>123.421</ele>
        <time>2020-08-30T14:11:47Z</time>
      </trkpt>
      <trkpt lat="39.676358" lon="-.296715">
        <ele>123.413</ele>
        <time>2020-08-30T14:11:49Z</time>
      </trkpt>
      <trkpt lat="39.676372" lon="-.296637">
        <ele>123.408</ele>
        <time>2020-08-30T14:11:52Z</time>
      </trkpt>
      <trkpt lat="39.676402" lon="-.296565">
        <ele>123.491</ele>
        <time>2020-08-30T14:11:55Z</time>
      </trkpt>
      <trkpt lat="39.676423" lon="-.29649">
        <ele>123.281</ele>
        <time>2020-08-30T14:11:57Z</time>
      </trkpt>
      <trkpt lat="39.676427" lon="-.296413">
        <ele>123.023</ele>
        <time>2020-08-30T14:11:59Z</time>
      </trkpt>
      <trkpt lat="39.676441" lon="-.29634">
        <ele>122.995</ele>
        <time>2020-08-30T14:12:01Z</time>
      </trkpt>
      <trkpt lat="39.676457" lon="-.296279">
        <ele>122.963</ele>
        <time>2020-08-30T14:12:02Z</time>
      </trkpt>
      <trkpt lat="39.676482" lon="-.296212">
        <ele>122.970</ele>
        <time>2020-08-30T14:12:03Z</time>
      </trkpt>
      <trkpt lat="39.676503" lon="-.29613">
        <ele>122.918</ele>
        <time>2020-08-30T14:12:04Z</time>
      </trkpt>
      <trkpt lat="39.676518" lon="-.296051">
        <ele>122.998</ele>
        <time>2020-08-30T14:12:05Z</time>
      </trkpt>
      <trkpt lat="39.676541" lon="-.295972">
        <ele>122.954</ele>
        <time>2020-08-30T14:12:06Z</time>
      </trkpt>
      <trkpt lat="39.676577" lon="-.295891">
        <ele>122.856</ele>
        <time>2020-08-30T14:12:07Z</time>
      </trkpt>
      <trkpt lat="39.676614" lon="-.295803">
        <ele>122.711</ele>
        <time>2020-08-30T14:12:08Z</time>
      </trkpt>
      <trkpt lat="39.67664" lon="-.295714">
        <ele>122.708</ele>
        <time>2020-08-30T14:12:09Z</time>
      </trkpt>
      <trkpt lat="39.676664" lon="-.295632">
        <ele>122.760</ele>
        <time>2020-08-30T14:12:10Z</time>
      </trkpt>
      <trkpt lat="39.67669" lon="-.295548">
        <ele>122.510</ele>
        <time>2020-08-30T14:12:11Z</time>
      </trkpt>
      <trkpt lat="39.676711" lon="-.295484">
        <ele>122.552</ele>
        <time>2020-08-30T14:12:12Z</time>
      </trkpt>
      <trkpt lat="39.676739" lon="-.295399">
        <ele>122.524</ele>
        <time>2020-08-30T14:12:13Z</time>
      </trkpt>
      <trkpt lat="39.676767" lon="-.29531">
        <ele>122.432</ele>
        <time>2020-08-30T14:12:14Z</time>
      </trkpt>
      <trkpt lat="39.676804" lon="-.295222">
        <ele>122.459</ele>
        <time>2020-08-30T14:12:15Z</time>
      </trkpt>
      <trkpt lat="39.676829" lon="-.295136">
        <ele>122.317</ele>
        <time>2020-08-30T14:12:16Z</time>
      </trkpt>
      <trkpt lat="39.676849" lon="-.295079">
        <ele>122.327</ele>
        <time>2020-08-30T14:12:17Z</time>
      </trkpt>
      <trkpt lat="39.67687" lon="-.295016">
        <ele>122.335</ele>
        <time>2020-08-30T14:12:18Z</time>
      </trkpt>
      <trkpt lat="39.676899" lon="-.294956">
        <ele>122.286</ele>
        <time>2020-08-30T14:12:19Z</time>
      </trkpt>
      <trkpt lat="39.676926" lon="-.29489">
        <ele>122.114</ele>
        <time>2020-08-30T14:12:20Z</time>
      </trkpt>
      <trkpt lat="39.67696" lon="-.294821">
        <ele>122.108</ele>
        <time>2020-08-30T14:12:21Z</time>
      </trkpt>
      <trkpt lat="39.676998" lon="-.294741">
        <ele>122.098</ele>
        <time>2020-08-30T14:12:22Z</time>
      </trkpt>
      <trkpt lat="39.67703" lon="-.294675">
        <ele>121.978</ele>
        <time>2020-08-30T14:12:23Z</time>
      </trkpt>
      <trkpt lat="39.677057" lon="-.294613">
        <ele>121.940</ele>
        <time>2020-08-30T14:12:24Z</time>
      </trkpt>
      <trkpt lat="39.677083" lon="-.294552">
        <ele>121.942</ele>
        <time>2020-08-30T14:12:25Z</time>
      </trkpt>
      <trkpt lat="39.677114" lon="-.294494">
        <ele>121.910</ele>
        <time>2020-08-30T14:12:26Z</time>
      </trkpt>
      <trkpt lat="39.677146" lon="-.294447">
        <ele>121.857</ele>
        <time>2020-08-30T14:12:27Z</time>
      </trkpt>
      <trkpt lat="39.677176" lon="-.294395">
        <ele>121.715</ele>
        <time>2020-08-30T14:12:28Z</time>
      </trkpt>
      <trkpt lat="39.677204" lon="-.294334">
        <ele>121.665</ele>
        <time>2020-08-30T14:12:29Z</time>
      </trkpt>
      <trkpt lat="39.677234" lon="-.294281">
        <ele>121.685</ele>
        <time>2020-08-30T14:12:30Z</time>
      </trkpt>
      <trkpt lat="39.677288" lon="-.294194">
        <ele>121.689</ele>
        <time>2020-08-30T14:12:32Z</time>
      </trkpt>
      <trkpt lat="39.677332" lon="-.294098">
        <ele>121.717</ele>
        <time>2020-08-30T14:12:34Z</time>
      </trkpt>
      <trkpt lat="39.677383" lon="-.294022">
        <ele>121.708</ele>
        <time>2020-08-30T14:12:36Z</time>
      </trkpt>
      <trkpt lat="39.677427" lon="-.293944">
        <ele>121.773</ele>
        <time>2020-08-30T14:12:38Z</time>
      </trkpt>
      <trkpt lat="39.677471" lon="-.293869">
        <ele>121.633</ele>
        <time>2020-08-30T14:12:40Z</time>
      </trkpt>
      <trkpt lat="39.67751" lon="-.293801">
        <ele>121.515</ele>
        <time>2020-08-30T14:12:42Z</time>
      </trkpt>
      <trkpt lat="39.677542" lon="-.293749">
        <ele>121.437</ele>
        <time>2020-08-30T14:12:44Z</time>
      </trkpt>
      <trkpt lat="39.677575" lon="-.293697">
        <ele>121.485</ele>
        <time>2020-08-30T14:12:46Z</time>
      </trkpt>
      <trkpt lat="39.677606" lon="-.293639">
        <ele>121.592</ele>
        <time>2020-08-30T14:12:48Z</time>
      </trkpt>
      <trkpt lat="39.677654" lon="-.293562">
        <ele>121.520</ele>
        <time>2020-08-30T14:12:50Z</time>
      </trkpt>
      <trkpt lat="39.677682" lon="-.293512">
        <ele>121.340</ele>
        <time>2020-08-30T14:12:51Z</time>
      </trkpt>
      <trkpt lat="39.677713" lon="-.293468">
        <ele>121.225</ele>
        <time>2020-08-30T14:12:52Z</time>
      </trkpt>
      <trkpt lat="39.67775" lon="-.293402">
        <ele>121.126</ele>
        <time>2020-08-30T14:12:54Z</time>
      </trkpt>
      <trkpt lat="39.677799" lon="-.293308">
        <ele>121.108</ele>
        <time>2020-08-30T14:12:56Z</time>
      </trkpt>
      <trkpt lat="39.677834" lon="-.293243">
        <ele>121.108</ele>
        <time>2020-08-30T14:12:58Z</time>
      </trkpt>
      <trkpt lat="39.677865" lon="-.293191">
        <ele>121.127</ele>
        <time>2020-08-30T14:13:00Z</time>
      </trkpt>
      <trkpt lat="39.677898" lon="-.293129">
        <ele>121.147</ele>
        <time>2020-08-30T14:13:03Z</time>
      </trkpt>
      <trkpt lat="39.677922" lon="-.293075">
        <ele>120.439</ele>
        <time>2020-08-30T14:13:11Z</time>
      </trkpt>
      <trkpt lat="39.677968" lon="-.293081">
        <ele>121.231</ele>
        <time>2020-08-30T14:16:39Z</time>
      </trkpt>
      <trkpt lat="39.677957" lon="-.293005">
        <ele>121.369</ele>
        <time>2020-08-30T14:18:08Z</time>
      </trkpt>
      <trkpt lat="39.678002" lon="-.29296">
        <ele>121.476</ele>
        <time>2020-08-30T14:18:11Z</time>
      </trkpt>
      <trkpt lat="39.678032" lon="-.292898">
        <ele>121.614</ele>
        <time>2020-08-30T14:18:14Z</time>
      </trkpt>
      <trkpt lat="39.678073" lon="-.292848">
        <ele>121.744</ele>
        <time>2020-08-30T14:18:17Z</time>
      </trkpt>
      <trkpt lat="39.678112" lon="-.292798">
        <ele>121.432</ele>
        <time>2020-08-30T14:18:20Z</time>
      </trkpt>
      <trkpt lat="39.678147" lon="-.292732">
        <ele>121.492</ele>
        <time>2020-08-30T14:18:23Z</time>
      </trkpt>
      <trkpt lat="39.678188" lon="-.292668">
        <ele>121.511</ele>
        <time>2020-08-30T14:18:26Z</time>
      </trkpt>
      <trkpt lat="39.678217" lon="-.292617">
        <ele>121.408</ele>
        <time>2020-08-30T14:18:28Z</time>
      </trkpt>
      <trkpt lat="39.678253" lon="-.292567">
        <ele>121.248</ele>
        <time>2020-08-30T14:18:31Z</time>
      </trkpt>
      <trkpt lat="39.678277" lon="-.292495">
        <ele>121.128</ele>
        <time>2020-08-30T14:18:33Z</time>
      </trkpt>
      <trkpt lat="39.678302" lon="-.292421">
        <ele>120.750</ele>
        <time>2020-08-30T14:18:35Z</time>
      </trkpt>
      <trkpt lat="39.678316" lon="-.292354">
        <ele>120.282</ele>
        <time>2020-08-30T14:18:37Z</time>
      </trkpt>
      <trkpt lat="39.678326" lon="-.292294">
        <ele>120.090</ele>
        <time>2020-08-30T14:18:39Z</time>
      </trkpt>
      <trkpt lat="39.678329" lon="-.292225">
        <ele>120.217</ele>
        <time>2020-08-30T14:18:41Z</time>
      </trkpt>
      <trkpt lat="39.678336" lon="-.292158">
        <ele>120.535</ele>
        <time>2020-08-30T14:18:43Z</time>
      </trkpt>
      <trkpt lat="39.678356" lon="-.292072">
        <ele>120.585</ele>
        <time>2020-08-30T14:18:45Z</time>
      </trkpt>
      <trkpt lat="39.678356" lon="-.291993">
        <ele>120.534</ele>
        <time>2020-08-30T14:18:47Z</time>
      </trkpt>
      <trkpt lat="39.67837" lon="-.291893">
        <ele>120.455</ele>
        <time>2020-08-30T14:18:49Z</time>
      </trkpt>
      <trkpt lat="39.678376" lon="-.291815">
        <ele>120.310</ele>
        <time>2020-08-30T14:18:51Z</time>
      </trkpt>
      <trkpt lat="39.678398" lon="-.291729">
        <ele>120.308</ele>
        <time>2020-08-30T14:18:53Z</time>
      </trkpt>
      <trkpt lat="39.678421" lon="-.291634">
        <ele>120.388</ele>
        <time>2020-08-30T14:18:55Z</time>
      </trkpt>
      <trkpt lat="39.678431" lon="-.291534">
        <ele>120.218</ele>
        <time>2020-08-30T14:18:57Z</time>
      </trkpt>
      <trkpt lat="39.67845" lon="-.291445">
        <ele>120.070</ele>
        <time>2020-08-30T14:18:59Z</time>
      </trkpt>
      <trkpt lat="39.678467" lon="-.291347">
        <ele>119.972</ele>
        <time>2020-08-30T14:19:01Z</time>
      </trkpt>
      <trkpt lat="39.67848" lon="-.29125">
        <ele>119.890</ele>
        <time>2020-08-30T14:19:03Z</time>
      </trkpt>
      <trkpt lat="39.678495" lon="-.29117">
        <ele>119.837</ele>
        <time>2020-08-30T14:19:05Z</time>
      </trkpt>
      <trkpt lat="39.678516" lon="-.291096">
        <ele>119.945</ele>
        <time>2020-08-30T14:19:07Z</time>
      </trkpt>
      <trkpt lat="39.678533" lon="-.291031">
        <ele>119.775</ele>
        <time>2020-08-30T14:19:09Z</time>
      </trkpt>
      <trkpt lat="39.678548" lon="-.290956">
        <ele>119.619</ele>
        <time>2020-08-30T14:19:11Z</time>
      </trkpt>
      <trkpt lat="39.678567" lon="-.290878">
        <ele>119.609</ele>
        <time>2020-08-30T14:19:13Z</time>
      </trkpt>
      <trkpt lat="39.678584" lon="-.290807">
        <ele>119.519</ele>
        <time>2020-08-30T14:19:15Z</time>
      </trkpt>
      <trkpt lat="39.678601" lon="-.290747">
        <ele>119.508</ele>
        <time>2020-08-30T14:19:16Z</time>
      </trkpt>
      <trkpt lat="39.678627" lon="-.290624">
        <ele>119.556</ele>
        <time>2020-08-30T14:19:18Z</time>
      </trkpt>
      <trkpt lat="39.678665" lon="-.290522">
        <ele>119.426</ele>
        <time>2020-08-30T14:19:20Z</time>
      </trkpt>
      <trkpt lat="39.678684" lon="-.290468">
        <ele>119.488</ele>
        <time>2020-08-30T14:19:21Z</time>
      </trkpt>
      <trkpt lat="39.67871" lon="-.290358">
        <ele>119.450</ele>
        <time>2020-08-30T14:19:23Z</time>
      </trkpt>
      <trkpt lat="39.678736" lon="-.290255">
        <ele>119.528</ele>
        <time>2020-08-30T14:19:25Z</time>
      </trkpt>
      <trkpt lat="39.678775" lon="-.290174">
        <ele>119.625</ele>
        <time>2020-08-30T14:19:27Z</time>
      </trkpt>
      <trkpt lat="39.678793" lon="-.29012">
        <ele>119.683</ele>
        <time>2020-08-30T14:19:28Z</time>
      </trkpt>
      <trkpt lat="39.678812" lon="-.290066">
        <ele>119.643</ele>
        <time>2020-08-30T14:19:29Z</time>
      </trkpt>
      <trkpt lat="39.678826" lon="-.29">
        <ele>119.623</ele>
        <time>2020-08-30T14:19:30Z</time>
      </trkpt>
      <trkpt lat="39.678852" lon="-.289895">
        <ele>119.683</ele>
        <time>2020-08-30T14:19:32Z</time>
      </trkpt>
      <trkpt lat="39.678884" lon="-.289802">
        <ele>119.611</ele>
        <time>2020-08-30T14:19:34Z</time>
      </trkpt>
      <trkpt lat="39.678912" lon="-.289715">
        <ele>119.508</ele>
        <time>2020-08-30T14:19:36Z</time>
      </trkpt>
      <trkpt lat="39.678922" lon="-.289635">
        <ele>119.477</ele>
        <time>2020-08-30T14:19:38Z</time>
      </trkpt>
      <trkpt lat="39.678959" lon="-.289545">
        <ele>119.327</ele>
        <time>2020-08-30T14:19:40Z</time>
      </trkpt>
      <trkpt lat="39.678988" lon="-.289458">
        <ele>119.369</ele>
        <time>2020-08-30T14:19:42Z</time>
      </trkpt>
      <trkpt lat="39.679027" lon="-.289364">
        <ele>119.361</ele>
        <time>2020-08-30T14:19:44Z</time>
      </trkpt>
      <trkpt lat="39.679058" lon="-.289287">
        <ele>119.339</ele>
        <time>2020-08-30T14:19:46Z</time>
      </trkpt>
      <trkpt lat="39.679087" lon="-.289208">
        <ele>119.376</ele>
        <time>2020-08-30T14:19:48Z</time>
      </trkpt>
      <trkpt lat="39.67912" lon="-.289139">
        <ele>119.224</ele>
        <time>2020-08-30T14:19:50Z</time>
      </trkpt>
      <trkpt lat="39.679162" lon="-.289044">
        <ele>119.184</ele>
        <time>2020-08-30T14:19:52Z</time>
      </trkpt>
      <trkpt lat="39.679199" lon="-.288934">
        <ele>119.026</ele>
        <time>2020-08-30T14:19:54Z</time>
      </trkpt>
      <trkpt lat="39.679222" lon="-.288884">
        <ele>119.047</ele>
        <time>2020-08-30T14:19:55Z</time>
      </trkpt>
      <trkpt lat="39.679275" lon="-.288785">
        <ele>119.011</ele>
        <time>2020-08-30T14:19:57Z</time>
      </trkpt>
      <trkpt lat="39.679309" lon="-.288714">
        <ele>119.008</ele>
        <time>2020-08-30T14:19:59Z</time>
      </trkpt>
      <trkpt lat="39.679346" lon="-.288659">
        <ele>119.187</ele>
        <time>2020-08-30T14:20:01Z</time>
      </trkpt>
      <trkpt lat="39.679404" lon="-.288579">
        <ele>119.117</ele>
        <time>2020-08-30T14:20:03Z</time>
      </trkpt>
      <trkpt lat="39.679456" lon="-.28853">
        <ele>119.139</ele>
        <time>2020-08-30T14:20:05Z</time>
      </trkpt>
      <trkpt lat="39.67951" lon="-.288469">
        <ele>119.161</ele>
        <time>2020-08-30T14:20:07Z</time>
      </trkpt>
      <trkpt lat="39.679548" lon="-.288421">
        <ele>119.189</ele>
        <time>2020-08-30T14:20:08Z</time>
      </trkpt>
      <trkpt lat="39.679592" lon="-.288344">
        <ele>118.976</ele>
        <time>2020-08-30T14:20:10Z</time>
      </trkpt>
      <trkpt lat="39.679612" lon="-.288291">
        <ele>118.824</ele>
        <time>2020-08-30T14:20:11Z</time>
      </trkpt>
      <trkpt lat="39.679643" lon="-.28823">
        <ele>118.834</ele>
        <time>2020-08-30T14:20:13Z</time>
      </trkpt>
      <trkpt lat="39.679704" lon="-.288167">
        <ele>119.082</ele>
        <time>2020-08-30T14:20:15Z</time>
      </trkpt>
      <trkpt lat="39.679757" lon="-.288077">
        <ele>119.443</ele>
        <time>2020-08-30T14:20:17Z</time>
      </trkpt>
      <trkpt lat="39.679808" lon="-.287985">
        <ele>119.517</ele>
        <time>2020-08-30T14:20:19Z</time>
      </trkpt>
      <trkpt lat="39.679838" lon="-.287909">
        <ele>119.308</ele>
        <time>2020-08-30T14:20:21Z</time>
      </trkpt>
      <trkpt lat="39.679874" lon="-.287817">
        <ele>119.083</ele>
        <time>2020-08-30T14:20:24Z</time>
      </trkpt>
      <trkpt lat="39.679927" lon="-.287725">
        <ele>119.033</ele>
        <time>2020-08-30T14:20:26Z</time>
      </trkpt>
      <trkpt lat="39.679966" lon="-.287664">
        <ele>119.085</ele>
        <time>2020-08-30T14:20:27Z</time>
      </trkpt>
      <trkpt lat="39.680022" lon="-.287576">
        <ele>119.077</ele>
        <time>2020-08-30T14:20:29Z</time>
      </trkpt>
      <trkpt lat="39.680062" lon="-.287521">
        <ele>119.055</ele>
        <time>2020-08-30T14:20:30Z</time>
      </trkpt>
      <trkpt lat="39.680101" lon="-.287405">
        <ele>119.022</ele>
        <time>2020-08-30T14:20:32Z</time>
      </trkpt>
      <trkpt lat="39.680138" lon="-.287349">
        <ele>119.040</ele>
        <time>2020-08-30T14:20:33Z</time>
      </trkpt>
      <trkpt lat="39.680169" lon="-.287303">
        <ele>119.070</ele>
        <time>2020-08-30T14:20:34Z</time>
      </trkpt>
      <trkpt lat="39.680201" lon="-.287249">
        <ele>118.947</ele>
        <time>2020-08-30T14:20:35Z</time>
      </trkpt>
      <trkpt lat="39.68025" lon="-.287171">
        <ele>118.529</ele>
        <time>2020-08-30T14:20:37Z</time>
      </trkpt>
      <trkpt lat="39.6803" lon="-.287102">
        <ele>118.421</ele>
        <time>2020-08-30T14:20:39Z</time>
      </trkpt>
      <trkpt lat="39.680323" lon="-.287051">
        <ele>118.408</ele>
        <time>2020-08-30T14:20:41Z</time>
      </trkpt>
      <trkpt lat="39.680309" lon="-.286983">
        <ele>118.089</ele>
        <time>2020-08-30T14:20:43Z</time>
      </trkpt>
      <trkpt lat="39.680295" lon="-.286913">
        <ele>118.979</ele>
        <time>2020-08-30T14:20:48Z</time>
      </trkpt>
      <trkpt lat="39.680299" lon="-.286853">
        <ele>118.921</ele>
        <time>2020-08-30T14:20:50Z</time>
      </trkpt>
      <trkpt lat="39.680278" lon="-.286792">
        <ele>118.763</ele>
        <time>2020-08-30T14:20:52Z</time>
      </trkpt>
      <trkpt lat="39.68026" lon="-.286725">
        <ele>118.611</ele>
        <time>2020-08-30T14:20:54Z</time>
      </trkpt>
      <trkpt lat="39.680259" lon="-.286662">
        <ele>118.618</ele>
        <time>2020-08-30T14:20:56Z</time>
      </trkpt>
      <trkpt lat="39.680299" lon="-.286604">
        <ele>118.616</ele>
        <time>2020-08-30T14:20:58Z</time>
      </trkpt>
      <trkpt lat="39.680312" lon="-.286534">
        <ele>118.926</ele>
        <time>2020-08-30T14:21:00Z</time>
      </trkpt>
      <trkpt lat="39.680358" lon="-.28648">
        <ele>119.115</ele>
        <time>2020-08-30T14:21:03Z</time>
      </trkpt>
      <trkpt lat="39.680366" lon="-.286419">
        <ele>118.965</ele>
        <time>2020-08-30T14:21:06Z</time>
      </trkpt>
      <trkpt lat="39.680409" lon="-.286354">
        <ele>119.011</ele>
        <time>2020-08-30T14:21:09Z</time>
      </trkpt>
      <trkpt lat="39.680435" lon="-.286257">
        <ele>118.508</ele>
        <time>2020-08-30T14:21:11Z</time>
      </trkpt>
      <trkpt lat="39.680465" lon="-.286196">
        <ele>118.516</ele>
        <time>2020-08-30T14:21:12Z</time>
      </trkpt>
      <trkpt lat="39.680488" lon="-.286131">
        <ele>118.336</ele>
        <time>2020-08-30T14:21:13Z</time>
      </trkpt>
      <trkpt lat="39.680517" lon="-.286045">
        <ele>117.768</ele>
        <time>2020-08-30T14:21:15Z</time>
      </trkpt>
      <trkpt lat="39.680545" lon="-.285942">
        <ele>117.230</ele>
        <time>2020-08-30T14:21:17Z</time>
      </trkpt>
      <trkpt lat="39.680569" lon="-.285867">
        <ele>117.218</ele>
        <time>2020-08-30T14:21:18Z</time>
      </trkpt>
      <trkpt lat="39.680571" lon="-.285781">
        <ele>117.435</ele>
        <time>2020-08-30T14:21:20Z</time>
      </trkpt>
      <trkpt lat="39.680593" lon="-.28572">
        <ele>117.643</ele>
        <time>2020-08-30T14:21:21Z</time>
      </trkpt>
      <trkpt lat="39.68063" lon="-.285617">
        <ele>117.883</ele>
        <time>2020-08-30T14:21:23Z</time>
      </trkpt>
      <trkpt lat="39.680645" lon="-.285552">
        <ele>117.656</ele>
        <time>2020-08-30T14:21:24Z</time>
      </trkpt>
      <trkpt lat="39.680634" lon="-.285475">
        <ele>117.559</ele>
        <time>2020-08-30T14:21:25Z</time>
      </trkpt>
      <trkpt lat="39.680647" lon="-.285375">
        <ele>117.314</ele>
        <time>2020-08-30T14:21:27Z</time>
      </trkpt>
      <trkpt lat="39.680673" lon="-.285316">
        <ele>117.308</ele>
        <time>2020-08-30T14:21:29Z</time>
      </trkpt>
      <trkpt lat="39.680668" lon="-.285243">
        <ele>117.390</ele>
        <time>2020-08-30T14:21:30Z</time>
      </trkpt>
      <trkpt lat="39.680653" lon="-.285185">
        <ele>117.490</ele>
        <time>2020-08-30T14:21:31Z</time>
      </trkpt>
      <trkpt lat="39.680662" lon="-.285085">
        <ele>117.532</ele>
        <time>2020-08-30T14:21:32Z</time>
      </trkpt>
      <trkpt lat="39.680677" lon="-.284987">
        <ele>117.514</ele>
        <time>2020-08-30T14:21:33Z</time>
      </trkpt>
      <trkpt lat="39.680698" lon="-.284917">
        <ele>117.522</ele>
        <time>2020-08-30T14:21:34Z</time>
      </trkpt>
      <trkpt lat="39.680745" lon="-.284854">
        <ele>117.599</ele>
        <time>2020-08-30T14:21:35Z</time>
      </trkpt>
      <trkpt lat="39.680766" lon="-.284722">
        <ele>117.467</ele>
        <time>2020-08-30T14:21:37Z</time>
      </trkpt>
      <trkpt lat="39.68077" lon="-.28465">
        <ele>117.467</ele>
        <time>2020-08-30T14:21:38Z</time>
      </trkpt>
      <trkpt lat="39.680791" lon="-.284593">
        <ele>117.461</ele>
        <time>2020-08-30T14:21:39Z</time>
      </trkpt>
      <trkpt lat="39.680813" lon="-.284513">
        <ele>117.621</ele>
        <time>2020-08-30T14:21:40Z</time>
      </trkpt>
      <trkpt lat="39.680826" lon="-.28445">
        <ele>117.813</ele>
        <time>2020-08-30T14:21:41Z</time>
      </trkpt>
      <trkpt lat="39.680822" lon="-.284378">
        <ele>117.808</ele>
        <time>2020-08-30T14:21:42Z</time>
      </trkpt>
      <trkpt lat="39.680789" lon="-.284274">
        <ele>117.861</ele>
        <time>2020-08-30T14:21:44Z</time>
      </trkpt>
      <trkpt lat="39.680782" lon="-.284214">
        <ele>117.711</ele>
        <time>2020-08-30T14:21:45Z</time>
      </trkpt>
      <trkpt lat="39.680788" lon="-.284147">
        <ele>117.743</ele>
        <time>2020-08-30T14:21:46Z</time>
      </trkpt>
      <trkpt lat="39.680791" lon="-.284071">
        <ele>117.765</ele>
        <time>2020-08-30T14:21:47Z</time>
      </trkpt>
      <trkpt lat="39.680813" lon="-.284">
        <ele>118.043</ele>
        <time>2020-08-30T14:21:48Z</time>
      </trkpt>
      <trkpt lat="39.680839" lon="-.283945">
        <ele>118.140</ele>
        <time>2020-08-30T14:21:49Z</time>
      </trkpt>
      <trkpt lat="39.680862" lon="-.283879">
        <ele>118.188</ele>
        <time>2020-08-30T14:21:50Z</time>
      </trkpt>
      <trkpt lat="39.680869" lon="-.283815">
        <ele>117.718</ele>
        <time>2020-08-30T14:21:51Z</time>
      </trkpt>
      <trkpt lat="39.680872" lon="-.283753">
        <ele>117.793</ele>
        <time>2020-08-30T14:21:52Z</time>
      </trkpt>
      <trkpt lat="39.680851" lon="-.283697">
        <ele>117.365</ele>
        <time>2020-08-30T14:21:53Z</time>
      </trkpt>
      <trkpt lat="39.68086" lon="-.283578">
        <ele>116.821</ele>
        <time>2020-08-30T14:21:55Z</time>
      </trkpt>
      <trkpt lat="39.680877" lon="-.283456">
        <ele>116.708</ele>
        <time>2020-08-30T14:21:57Z</time>
      </trkpt>
      <trkpt lat="39.680883" lon="-.283398">
        <ele>116.734</ele>
        <time>2020-08-30T14:21:58Z</time>
      </trkpt>
      <trkpt lat="39.680898" lon="-.283311">
        <ele>116.744</ele>
        <time>2020-08-30T14:21:59Z</time>
      </trkpt>
      <trkpt lat="39.68091" lon="-.283238">
        <ele>116.696</ele>
        <time>2020-08-30T14:22:00Z</time>
      </trkpt>
      <trkpt lat="39.680921" lon="-.283165">
        <ele>116.538</ele>
        <time>2020-08-30T14:22:01Z</time>
      </trkpt>
      <trkpt lat="39.680925" lon="-.28309">
        <ele>116.476</ele>
        <time>2020-08-30T14:22:02Z</time>
      </trkpt>
      <trkpt lat="39.680928" lon="-.282981">
        <ele>116.213</ele>
        <time>2020-08-30T14:22:04Z</time>
      </trkpt>
      <trkpt lat="39.68095" lon="-.282904">
        <ele>116.281</ele>
        <time>2020-08-30T14:22:05Z</time>
      </trkpt>
      <trkpt lat="39.680998" lon="-.282844">
        <ele>116.261</ele>
        <time>2020-08-30T14:22:06Z</time>
      </trkpt>
      <trkpt lat="39.680995" lon="-.282755">
        <ele>116.367</ele>
        <time>2020-08-30T14:22:08Z</time>
      </trkpt>
      <trkpt lat="39.680965" lon="-.282703">
        <ele>116.481</ele>
        <time>2020-08-30T14:22:09Z</time>
      </trkpt>
      <trkpt lat="39.680978" lon="-.282624">
        <ele>116.519</ele>
        <time>2020-08-30T14:22:11Z</time>
      </trkpt>
      <trkpt lat="39.681019" lon="-.282566">
        <ele>116.508</ele>
        <time>2020-08-30T14:22:12Z</time>
      </trkpt>
      <trkpt lat="39.681029" lon="-.282507">
        <ele>116.651</ele>
        <time>2020-08-30T14:22:13Z</time>
      </trkpt>
      <trkpt lat="39.681039" lon="-.282398">
        <ele>116.881</ele>
        <time>2020-08-30T14:22:15Z</time>
      </trkpt>
      <trkpt lat="39.681053" lon="-.282284">
        <ele>117.023</ele>
        <time>2020-08-30T14:22:17Z</time>
      </trkpt>
      <trkpt lat="39.681042" lon="-.282225">
        <ele>117.145</ele>
        <time>2020-08-30T14:22:18Z</time>
      </trkpt>
      <trkpt lat="39.68104" lon="-.282159">
        <ele>117.163</ele>
        <time>2020-08-30T14:22:19Z</time>
      </trkpt>
      <trkpt lat="39.681029" lon="-.282092">
        <ele>117.260</ele>
        <time>2020-08-30T14:22:20Z</time>
      </trkpt>
      <trkpt lat="39.681018" lon="-.28203">
        <ele>117.388</ele>
        <time>2020-08-30T14:22:21Z</time>
      </trkpt>
      <trkpt lat="39.681003" lon="-.281954">
        <ele>117.488</ele>
        <time>2020-08-30T14:22:22Z</time>
      </trkpt>
      <trkpt lat="39.680978" lon="-.28189">
        <ele>117.516</ele>
        <time>2020-08-30T14:22:23Z</time>
      </trkpt>
      <trkpt lat="39.680964" lon="-.281827">
        <ele>117.576</ele>
        <time>2020-08-30T14:22:24Z</time>
      </trkpt>
      <trkpt lat="39.680966" lon="-.281762">
        <ele>117.213</ele>
        <time>2020-08-30T14:22:25Z</time>
      </trkpt>
      <trkpt lat="39.680961" lon="-.281692">
        <ele>116.808</ele>
        <time>2020-08-30T14:22:26Z</time>
      </trkpt>
      <trkpt lat="39.680938" lon="-.281623">
        <ele>116.566</ele>
        <time>2020-08-30T14:22:27Z</time>
      </trkpt>
      <trkpt lat="39.680905" lon="-.281556">
        <ele>116.466</ele>
        <time>2020-08-30T14:22:28Z</time>
      </trkpt>
      <trkpt lat="39.680834" lon="-.281501">
        <ele>116.378</ele>
        <time>2020-08-30T14:22:29Z</time>
      </trkpt>
      <trkpt lat="39.68081" lon="-.281383">
        <ele>116.790</ele>
        <time>2020-08-30T14:22:31Z</time>
      </trkpt>
      <trkpt lat="39.680799" lon="-.281304">
        <ele>116.798</ele>
        <time>2020-08-30T14:22:32Z</time>
      </trkpt>
      <trkpt lat="39.680786" lon="-.281241">
        <ele>116.875</ele>
        <time>2020-08-30T14:22:33Z</time>
      </trkpt>
      <trkpt lat="39.680773" lon="-.281168">
        <ele>116.913</ele>
        <time>2020-08-30T14:22:34Z</time>
      </trkpt>
      <trkpt lat="39.680754" lon="-.281098">
        <ele>117.053</ele>
        <time>2020-08-30T14:22:35Z</time>
      </trkpt>
      <trkpt lat="39.680742" lon="-.281032">
        <ele>117.052</ele>
        <time>2020-08-30T14:22:36Z</time>
      </trkpt>
      <trkpt lat="39.680731" lon="-.280915">
        <ele>117.053</ele>
        <time>2020-08-30T14:22:38Z</time>
      </trkpt>
      <trkpt lat="39.680735" lon="-.280821">
        <ele>116.808</ele>
        <time>2020-08-30T14:22:40Z</time>
      </trkpt>
      <trkpt lat="39.680717" lon="-.280697">
        <ele>116.808</ele>
        <time>2020-08-30T14:22:42Z</time>
      </trkpt>
      <trkpt lat="39.680706" lon="-.280596">
        <ele>116.790</ele>
        <time>2020-08-30T14:22:44Z</time>
      </trkpt>
      <trkpt lat="39.680708" lon="-.280532">
        <ele>116.610</ele>
        <time>2020-08-30T14:22:45Z</time>
      </trkpt>
      <trkpt lat="39.680677" lon="-.280439">
        <ele>116.422</ele>
        <time>2020-08-30T14:22:47Z</time>
      </trkpt>
      <trkpt lat="39.680649" lon="-.280301">
        <ele>116.464</ele>
        <time>2020-08-30T14:22:49Z</time>
      </trkpt>
      <trkpt lat="39.680643" lon="-.280189">
        <ele>116.682</ele>
        <time>2020-08-30T14:22:50Z</time>
      </trkpt>
      <trkpt lat="39.680612" lon="-.280096">
        <ele>116.719</ele>
        <time>2020-08-30T14:22:51Z</time>
      </trkpt>
      <trkpt lat="39.680528" lon="-.280028">
        <ele>116.727</ele>
        <time>2020-08-30T14:22:54Z</time>
      </trkpt>
      <trkpt lat="39.680499" lon="-.279974">
        <ele>116.797</ele>
        <time>2020-08-30T14:22:55Z</time>
      </trkpt>
      <trkpt lat="39.680509" lon="-.279879">
        <ele>116.852</ele>
        <time>2020-08-30T14:22:56Z</time>
      </trkpt>
      <trkpt lat="39.680508" lon="-.279808">
        <ele>116.853</ele>
        <time>2020-08-30T14:22:57Z</time>
      </trkpt>
      <trkpt lat="39.680501" lon="-.27975">
        <ele>116.908</ele>
        <time>2020-08-30T14:22:58Z</time>
      </trkpt>
      <trkpt lat="39.680488" lon="-.279643">
        <ele>116.908</ele>
        <time>2020-08-30T14:23:00Z</time>
      </trkpt>
      <trkpt lat="39.680476" lon="-.279582">
        <ele>116.990</ele>
        <time>2020-08-30T14:23:01Z</time>
      </trkpt>
      <trkpt lat="39.680471" lon="-.279516">
        <ele>116.890</ele>
        <time>2020-08-30T14:23:02Z</time>
      </trkpt>
      <trkpt lat="39.68048" lon="-.279447">
        <ele>116.892</ele>
        <time>2020-08-30T14:23:03Z</time>
      </trkpt>
      <trkpt lat="39.68047" lon="-.279377">
        <ele>116.824</ele>
        <time>2020-08-30T14:23:04Z</time>
      </trkpt>
      <trkpt lat="39.680455" lon="-.279296">
        <ele>116.852</ele>
        <time>2020-08-30T14:23:05Z</time>
      </trkpt>
      <trkpt lat="39.680428" lon="-.279235">
        <ele>116.829</ele>
        <time>2020-08-30T14:23:06Z</time>
      </trkpt>
      <trkpt lat="39.680404" lon="-.279119">
        <ele>116.947</ele>
        <time>2020-08-30T14:23:08Z</time>
      </trkpt>
      <trkpt lat="39.680386" lon="-.279059">
        <ele>116.947</ele>
        <time>2020-08-30T14:23:09Z</time>
      </trkpt>
      <trkpt lat="39.680377" lon="-.278997">
        <ele>117.064</ele>
        <time>2020-08-30T14:23:10Z</time>
      </trkpt>
      <trkpt lat="39.68038" lon="-.27888">
        <ele>117.106</ele>
        <time>2020-08-30T14:23:12Z</time>
      </trkpt>
      <trkpt lat="39.680337" lon="-.278791">
        <ele>117.016</ele>
        <time>2020-08-30T14:23:14Z</time>
      </trkpt>
      <trkpt lat="39.680296" lon="-.278741">
        <ele>117.008</ele>
        <time>2020-08-30T14:23:15Z</time>
      </trkpt>
      <trkpt lat="39.68025" lon="-.278697">
        <ele>117.041</ele>
        <time>2020-08-30T14:23:16Z</time>
      </trkpt>
      <trkpt lat="39.680208" lon="-.278615">
        <ele>117.081</ele>
        <time>2020-08-30T14:23:18Z</time>
      </trkpt>
      <trkpt lat="39.680211" lon="-.278502">
        <ele>117.013</ele>
        <time>2020-08-30T14:23:20Z</time>
      </trkpt>
      <trkpt lat="39.680193" lon="-.278397">
        <ele>117.025</ele>
        <time>2020-08-30T14:23:22Z</time>
      </trkpt>
      <trkpt lat="39.680135" lon="-.278335">
        <ele>117.053</ele>
        <time>2020-08-30T14:23:25Z</time>
      </trkpt>
      <trkpt lat="39.680073" lon="-.278281">
        <ele>117.190</ele>
        <time>2020-08-30T14:23:27Z</time>
      </trkpt>
      <trkpt lat="39.680049" lon="-.278215">
        <ele>117.258</ele>
        <time>2020-08-30T14:23:29Z</time>
      </trkpt>
      <trkpt lat="39.68004" lon="-.278134">
        <ele>117.288</ele>
        <time>2020-08-30T14:23:31Z</time>
      </trkpt>
      <trkpt lat="39.680027" lon="-.278074">
        <ele>117.278</ele>
        <time>2020-08-30T14:23:32Z</time>
      </trkpt>
      <trkpt lat="39.680024" lon="-.277973">
        <ele>117.033</ele>
        <time>2020-08-30T14:23:34Z</time>
      </trkpt>
      <trkpt lat="39.680004" lon="-.277919">
        <ele>116.926</ele>
        <time>2020-08-30T14:23:35Z</time>
      </trkpt>
      <trkpt lat="39.679981" lon="-.277863">
        <ele>116.708</ele>
        <time>2020-08-30T14:23:36Z</time>
      </trkpt>
      <trkpt lat="39.67995" lon="-.27781">
        <ele>116.682</ele>
        <time>2020-08-30T14:23:37Z</time>
      </trkpt>
      <trkpt lat="39.679924" lon="-.277753">
        <ele>116.642</ele>
        <time>2020-08-30T14:23:38Z</time>
      </trkpt>
      <trkpt lat="39.679902" lon="-.277652">
        <ele>116.674</ele>
        <time>2020-08-30T14:23:40Z</time>
      </trkpt>
      <trkpt lat="39.679872" lon="-.277557">
        <ele>116.766</ele>
        <time>2020-08-30T14:23:42Z</time>
      </trkpt>
      <trkpt lat="39.679858" lon="-.277487">
        <ele>116.694</ele>
        <time>2020-08-30T14:23:43Z</time>
      </trkpt>
      <trkpt lat="39.679845" lon="-.277413">
        <ele>116.461</ele>
        <time>2020-08-30T14:23:44Z</time>
      </trkpt>
      <trkpt lat="39.679825" lon="-.277338">
        <ele>115.929</ele>
        <time>2020-08-30T14:23:45Z</time>
      </trkpt>
      <trkpt lat="39.679801" lon="-.277277">
        <ele>115.529</ele>
        <time>2020-08-30T14:23:46Z</time>
      </trkpt>
      <trkpt lat="39.679772" lon="-.277165">
        <ele>115.129</ele>
        <time>2020-08-30T14:23:48Z</time>
      </trkpt>
      <trkpt lat="39.679739" lon="-.277038">
        <ele>115.000</ele>
        <time>2020-08-30T14:23:50Z</time>
      </trkpt>
      <trkpt lat="39.679724" lon="-.276972">
        <ele>114.920</ele>
        <time>2020-08-30T14:23:51Z</time>
      </trkpt>
      <trkpt lat="39.679703" lon="-.276905">
        <ele>114.908</ele>
        <time>2020-08-30T14:23:52Z</time>
      </trkpt>
      <trkpt lat="39.679696" lon="-.276838">
        <ele>115.047</ele>
        <time>2020-08-30T14:23:53Z</time>
      </trkpt>
      <trkpt lat="39.679698" lon="-.27677">
        <ele>115.077</ele>
        <time>2020-08-30T14:23:54Z</time>
      </trkpt>
    </trkseg>
  </trk>
</gpx>
